<?xml version="1.0" encoding="UTF-8" standalone="no" ?>
<gpx xmlns="http://www.topografix.com/GPX/1/1" xmlns:xsi="http://www.w3.org/2001/XMLSchema-instance" creator="Kurviger.de" version="1.1" xmlns:gh="https://kurviger.de/public/schema/gpx/1.1">
<metadata>
<name>TET BELGIQUE Complet</name>
<copyright author="OpenStreetMap contributors"/>
<link href="https://kurviger.de">
<text>Kurviger.de GPX</text>
</link>
<time>2025-05-24T09:32:44Z</time>
</metadata>
<trk><name>TET BELGIQUE Complet</name><trkseg>
<trkpt lat="51.233296" lon="4.977914"><ele>18.34</ele><time>2025-05-24T09:32:44Z</time></trkpt>
<trkpt lat="51.23246" lon="4.977326"><ele>18.85</ele><time>2025-05-24T09:32:53Z</time></trkpt>
<trkpt lat="51.232167" lon="4.977263"><ele>17.8</ele><time>2025-05-24T09:33:03Z</time></trkpt>
<trkpt lat="51.229782" lon="4.976891"><ele>17.0</ele><time>2025-05-24T09:33:13Z</time></trkpt>
<trkpt lat="51.229485" lon="4.976877"><ele>18.7</ele><time>2025-05-24T09:33:22Z</time></trkpt>
<trkpt lat="51.229132" lon="4.976901"><ele>19.02</ele><time>2025-05-24T09:33:32Z</time></trkpt>
<trkpt lat="51.228957" lon="4.976939"><ele>19.02</ele><time>2025-05-24T09:33:42Z</time></trkpt>
<trkpt lat="51.227302" lon="4.975234"><ele>17.0</ele><time>2025-05-24T09:33:54Z</time></trkpt>
<trkpt lat="51.226827" lon="4.974702"><ele>16.58</ele><time>2025-05-24T09:34:06Z</time></trkpt>
<trkpt lat="51.226395" lon="4.974125"><ele>16.02</ele><time>2025-05-24T09:34:18Z</time></trkpt>
<trkpt lat="51.226027" lon="4.973556"><ele>17.0</ele><time>2025-05-24T09:34:29Z</time></trkpt>
<trkpt lat="51.220535" lon="4.974955"><ele>21.24</ele><time>2025-05-24T09:34:42Z</time></trkpt>
<trkpt lat="51.207016" lon="4.978448"><ele>15.85</ele><time>2025-05-24T09:34:54Z</time></trkpt>
<trkpt lat="51.206323" lon="4.978753"><ele>16.39</ele><time>2025-05-24T09:35:07Z</time></trkpt>
<trkpt lat="51.206152" lon="4.97887"><ele>16.14</ele><time>2025-05-24T09:35:19Z</time></trkpt>
<trkpt lat="51.205835" lon="4.979147"><ele>16.0</ele><time>2025-05-24T09:35:32Z</time></trkpt>
<trkpt lat="51.204895" lon="4.9801"><ele>18.62</ele><time>2025-05-24T09:35:44Z</time></trkpt>
<trkpt lat="51.204567" lon="4.980397"><ele>19.07</ele><time>2025-05-24T09:35:57Z</time></trkpt>
<trkpt lat="51.203251" lon="4.981318"><ele>18.7</ele><time>2025-05-24T09:36:09Z</time></trkpt>
<trkpt lat="51.202853" lon="4.981581"><ele>18.73</ele><time>2025-05-24T09:36:22Z</time></trkpt>
<trkpt lat="51.202321" lon="4.981886"><ele>18.43</ele><time>2025-05-24T09:36:34Z</time></trkpt>
<trkpt lat="51.200824" lon="4.982578"><ele>21.03</ele><time>2025-05-24T09:36:47Z</time></trkpt>
<trkpt lat="51.200369" lon="4.982756"><ele>22.0</ele><time>2025-05-24T09:36:59Z</time></trkpt>
<trkpt lat="51.200026" lon="4.982839"><ele>21.78</ele><time>2025-05-24T09:37:12Z</time></trkpt>
<trkpt lat="51.199685" lon="4.982883"><ele>21.03</ele><time>2025-05-24T09:37:24Z</time></trkpt>
<trkpt lat="51.199049" lon="4.982835"><ele>20.88</ele><time>2025-05-24T09:37:37Z</time></trkpt>
<trkpt lat="51.19875" lon="4.98277"><ele>20.49</ele><time>2025-05-24T09:37:49Z</time></trkpt>
<trkpt lat="51.198516" lon="4.982681"><ele>19.78</ele><time>2025-05-24T09:38:02Z</time></trkpt>
<trkpt lat="51.198374" lon="4.982631"><ele>19.6</ele><time>2025-05-24T09:38:14Z</time></trkpt>
<trkpt lat="51.198374" lon="4.982631"><ele>19.6</ele><time>2025-05-24T09:38:14Z</time></trkpt>
<trkpt lat="51.19839" lon="4.982436"><ele>20.0</ele><time>2025-05-24T09:38:25Z</time></trkpt>
<trkpt lat="51.198083" lon="4.980746"><ele>24.41</ele><time>2025-05-24T09:38:36Z</time></trkpt>
<trkpt lat="51.197433" lon="4.97743"><ele>24.76</ele><time>2025-05-24T09:38:47Z</time></trkpt>
<trkpt lat="51.197326" lon="4.977119"><ele>24.37</ele><time>2025-05-24T09:38:57Z</time></trkpt>
<trkpt lat="51.197091" lon="4.97658"><ele>23.2</ele><time>2025-05-24T09:39:08Z</time></trkpt>
<trkpt lat="51.196927" lon="4.976304"><ele>22.94</ele><time>2025-05-24T09:39:19Z</time></trkpt>
<trkpt lat="51.195147" lon="4.973961"><ele>20.05</ele><time>2025-05-24T09:39:29Z</time></trkpt>
<trkpt lat="51.191772" lon="4.966959"><ele>17.36</ele><time>2025-05-24T09:39:40Z</time></trkpt>
<trkpt lat="51.190917" lon="4.966702"><ele>16.61</ele><time>2025-05-24T09:39:47Z</time></trkpt>
<trkpt lat="51.190487" lon="4.966395"><ele>17.98</ele><time>2025-05-24T09:39:55Z</time></trkpt>
<trkpt lat="51.189678" lon="4.966247"><ele>16.43</ele><time>2025-05-24T09:40:02Z</time></trkpt>
<trkpt lat="51.188421" lon="4.966219"><ele>15.69</ele><time>2025-05-24T09:40:09Z</time></trkpt>
<trkpt lat="51.188291" lon="4.966244"><ele>16.15</ele><time>2025-05-24T09:40:16Z</time></trkpt>
<trkpt lat="51.188351" lon="4.966064"><ele>15.79</ele><time>2025-05-24T09:40:20Z</time></trkpt>
<trkpt lat="51.188678" lon="4.964364"><ele>17.93</ele><time>2025-05-24T09:40:23Z</time></trkpt>
<trkpt lat="51.188841" lon="4.963484"><ele>15.71</ele><time>2025-05-24T09:40:26Z</time></trkpt>
<trkpt lat="51.188884" lon="4.963056"><ele>14.02</ele><time>2025-05-24T09:40:29Z</time></trkpt>
<trkpt lat="51.188864" lon="4.962704"><ele>14.06</ele><time>2025-05-24T09:40:32Z</time></trkpt>
<trkpt lat="51.188633" lon="4.961897"><ele>14.0</ele><time>2025-05-24T09:40:35Z</time></trkpt>
<trkpt lat="51.188539" lon="4.961517"><ele>15.05</ele><time>2025-05-24T09:40:39Z</time></trkpt>
<trkpt lat="51.189306" lon="4.961535"><ele>14.53</ele><time>2025-05-24T09:40:41Z</time></trkpt>
<trkpt lat="51.189441" lon="4.961487"><ele>14.35</ele><time>2025-05-24T09:40:44Z</time></trkpt>
<trkpt lat="51.190597" lon="4.960304"><ele>15.9</ele><time>2025-05-24T09:40:47Z</time></trkpt>
<trkpt lat="51.191677" lon="4.95877"><ele>15.41</ele><time>2025-05-24T09:40:50Z</time></trkpt>
<trkpt lat="51.191795" lon="4.958565"><ele>15.54</ele><time>2025-05-24T09:40:53Z</time></trkpt>
<trkpt lat="51.191856" lon="4.958401"><ele>15.32</ele><time>2025-05-24T09:40:56Z</time></trkpt>
<trkpt lat="51.191857" lon="4.958312"><ele>15.37</ele><time>2025-05-24T09:40:59Z</time></trkpt>
<trkpt lat="51.191833" lon="4.958233"><ele>15.62</ele><time>2025-05-24T09:41:02Z</time></trkpt>
<trkpt lat="51.191785" lon="4.958157"><ele>15.85</ele><time>2025-05-24T09:41:05Z</time></trkpt>
<trkpt lat="51.190784" lon="4.957081"><ele>16.51</ele><time>2025-05-24T09:41:07Z</time></trkpt>
<trkpt lat="51.190683" lon="4.956984"><ele>16.86</ele><time>2025-05-24T09:41:10Z</time></trkpt>
<trkpt lat="51.19038" lon="4.956777"><ele>17.0</ele><time>2025-05-24T09:41:13Z</time></trkpt>
<trkpt lat="51.190156" lon="4.956585"><ele>16.09</ele><time>2025-05-24T09:41:16Z</time></trkpt>
<trkpt lat="51.189868" lon="4.956257"><ele>16.72</ele><time>2025-05-24T09:41:19Z</time></trkpt>
<trkpt lat="51.18962" lon="4.955902"><ele>17.37</ele><time>2025-05-24T09:41:22Z</time></trkpt>
<trkpt lat="51.189509" lon="4.955778"><ele>17.77</ele><time>2025-05-24T09:41:25Z</time></trkpt>
<trkpt lat="51.189066" lon="4.955038"><ele>18.0</ele><time>2025-05-24T09:41:28Z</time></trkpt>
<trkpt lat="51.18881" lon="4.954529"><ele>18.0</ele><time>2025-05-24T09:41:31Z</time></trkpt>
<trkpt lat="51.188249" lon="4.953245"><ele>18.38</ele><time>2025-05-24T09:41:33Z</time></trkpt>
<trkpt lat="51.188216" lon="4.953049"><ele>17.56</ele><time>2025-05-24T09:41:36Z</time></trkpt>
<trkpt lat="51.188221" lon="4.952924"><ele>17.31</ele><time>2025-05-24T09:41:39Z</time></trkpt>
<trkpt lat="51.188311" lon="4.952522"><ele>15.23</ele><time>2025-05-24T09:41:42Z</time></trkpt>
<trkpt lat="51.188353" lon="4.952262"><ele>14.21</ele><time>2025-05-24T09:41:45Z</time></trkpt>
<trkpt lat="51.188326" lon="4.952142"><ele>14.03</ele><time>2025-05-24T09:41:48Z</time></trkpt>
<trkpt lat="51.187945" lon="4.950972"><ele>16.4</ele><time>2025-05-24T09:41:51Z</time></trkpt>
<trkpt lat="51.187886" lon="4.950858"><ele>16.61</ele><time>2025-05-24T09:41:54Z</time></trkpt>
<trkpt lat="51.187886" lon="4.950858"><ele>16.61</ele><time>2025-05-24T09:41:54Z</time></trkpt>
<trkpt lat="51.187945" lon="4.950972"><ele>16.4</ele><time>2025-05-24T09:41:57Z</time></trkpt>
<trkpt lat="51.188326" lon="4.952142"><ele>14.03</ele><time>2025-05-24T09:42:01Z</time></trkpt>
<trkpt lat="51.188353" lon="4.952262"><ele>14.21</ele><time>2025-05-24T09:42:05Z</time></trkpt>
<trkpt lat="51.188311" lon="4.952522"><ele>15.23</ele><time>2025-05-24T09:42:08Z</time></trkpt>
<trkpt lat="51.188221" lon="4.952924"><ele>17.31</ele><time>2025-05-24T09:42:12Z</time></trkpt>
<trkpt lat="51.188216" lon="4.953049"><ele>17.56</ele><time>2025-05-24T09:42:15Z</time></trkpt>
<trkpt lat="51.188249" lon="4.953245"><ele>18.38</ele><time>2025-05-24T09:42:19Z</time></trkpt>
<trkpt lat="51.18881" lon="4.954529"><ele>18.0</ele><time>2025-05-24T09:42:23Z</time></trkpt>
<trkpt lat="51.189066" lon="4.955038"><ele>18.0</ele><time>2025-05-24T09:42:26Z</time></trkpt>
<trkpt lat="51.189509" lon="4.955778"><ele>17.77</ele><time>2025-05-24T09:42:30Z</time></trkpt>
<trkpt lat="51.18962" lon="4.955902"><ele>17.37</ele><time>2025-05-24T09:42:34Z</time></trkpt>
<trkpt lat="51.189868" lon="4.956257"><ele>16.72</ele><time>2025-05-24T09:42:37Z</time></trkpt>
<trkpt lat="51.190156" lon="4.956585"><ele>16.09</ele><time>2025-05-24T09:42:41Z</time></trkpt>
<trkpt lat="51.19038" lon="4.956777"><ele>17.0</ele><time>2025-05-24T09:42:45Z</time></trkpt>
<trkpt lat="51.190683" lon="4.956984"><ele>16.86</ele><time>2025-05-24T09:42:48Z</time></trkpt>
<trkpt lat="51.190784" lon="4.957081"><ele>16.51</ele><time>2025-05-24T09:42:52Z</time></trkpt>
<trkpt lat="51.191785" lon="4.958157"><ele>15.85</ele><time>2025-05-24T09:42:55Z</time></trkpt>
<trkpt lat="51.191833" lon="4.958233"><ele>15.62</ele><time>2025-05-24T09:42:59Z</time></trkpt>
<trkpt lat="51.191857" lon="4.958312"><ele>15.37</ele><time>2025-05-24T09:43:03Z</time></trkpt>
<trkpt lat="51.191856" lon="4.958401"><ele>15.32</ele><time>2025-05-24T09:43:06Z</time></trkpt>
<trkpt lat="51.191795" lon="4.958565"><ele>15.54</ele><time>2025-05-24T09:43:10Z</time></trkpt>
<trkpt lat="51.191677" lon="4.95877"><ele>15.41</ele><time>2025-05-24T09:43:14Z</time></trkpt>
<trkpt lat="51.190597" lon="4.960304"><ele>15.9</ele><time>2025-05-24T09:43:17Z</time></trkpt>
<trkpt lat="51.189441" lon="4.961487"><ele>14.35</ele><time>2025-05-24T09:43:21Z</time></trkpt>
<trkpt lat="51.189306" lon="4.961535"><ele>14.53</ele><time>2025-05-24T09:43:25Z</time></trkpt>
<trkpt lat="51.188539" lon="4.961517"><ele>15.05</ele><time>2025-05-24T09:43:28Z</time></trkpt>
<trkpt lat="51.187484" lon="4.961406"><ele>17.94</ele><time>2025-05-24T09:43:32Z</time></trkpt>
<trkpt lat="51.185039" lon="4.960624"><ele>18.5</ele><time>2025-05-24T09:43:35Z</time></trkpt>
<trkpt lat="51.184869" lon="4.960594"><ele>18.86</ele><time>2025-05-24T09:43:39Z</time></trkpt>
<trkpt lat="51.184744" lon="4.960603"><ele>18.83</ele><time>2025-05-24T09:43:43Z</time></trkpt>
<trkpt lat="51.183293" lon="4.960914"><ele>19.43</ele><time>2025-05-24T09:43:46Z</time></trkpt>
<trkpt lat="51.18326" lon="4.960777"><ele>19.21</ele><time>2025-05-24T09:43:51Z</time></trkpt>
<trkpt lat="51.183017" lon="4.960182"><ele>19.0</ele><time>2025-05-24T09:43:56Z</time></trkpt>
<trkpt lat="51.182792" lon="4.959691"><ele>19.0</ele><time>2025-05-24T09:44:00Z</time></trkpt>
<trkpt lat="51.182365" lon="4.95882"><ele>19.25</ele><time>2025-05-24T09:44:05Z</time></trkpt>
<trkpt lat="51.181952" lon="4.958032"><ele>18.06</ele><time>2025-05-24T09:44:10Z</time></trkpt>
<trkpt lat="51.181409" lon="4.957332"><ele>18.93</ele><time>2025-05-24T09:44:14Z</time></trkpt>
<trkpt lat="51.181263" lon="4.957057"><ele>18.4</ele><time>2025-05-24T09:44:19Z</time></trkpt>
<trkpt lat="51.18165" lon="4.957255"><ele>18.2</ele><time>2025-05-24T09:44:23Z</time></trkpt>
<trkpt lat="51.18165" lon="4.957255"><ele>18.2</ele><time>2025-05-24T09:44:23Z</time></trkpt>
<trkpt lat="51.181263" lon="4.957057"><ele>18.4</ele><time>2025-05-24T09:44:27Z</time></trkpt>
<trkpt lat="51.181409" lon="4.957332"><ele>18.93</ele><time>2025-05-24T09:44:32Z</time></trkpt>
<trkpt lat="51.181952" lon="4.958032"><ele>18.06</ele><time>2025-05-24T09:44:36Z</time></trkpt>
<trkpt lat="51.182365" lon="4.95882"><ele>19.25</ele><time>2025-05-24T09:44:41Z</time></trkpt>
<trkpt lat="51.182792" lon="4.959691"><ele>19.0</ele><time>2025-05-24T09:44:46Z</time></trkpt>
<trkpt lat="51.183017" lon="4.960182"><ele>19.0</ele><time>2025-05-24T09:44:50Z</time></trkpt>
<trkpt lat="51.18326" lon="4.960777"><ele>19.21</ele><time>2025-05-24T09:44:55Z</time></trkpt>
<trkpt lat="51.183293" lon="4.960914"><ele>19.43</ele><time>2025-05-24T09:45:00Z</time></trkpt>
<trkpt lat="51.184744" lon="4.960603"><ele>18.83</ele><time>2025-05-24T09:45:07Z</time></trkpt>
<trkpt lat="51.184869" lon="4.960594"><ele>18.86</ele><time>2025-05-24T09:45:15Z</time></trkpt>
<trkpt lat="51.185039" lon="4.960624"><ele>18.5</ele><time>2025-05-24T09:45:22Z</time></trkpt>
<trkpt lat="51.187484" lon="4.961406"><ele>17.94</ele><time>2025-05-24T09:45:30Z</time></trkpt>
<trkpt lat="51.188539" lon="4.961517"><ele>15.05</ele><time>2025-05-24T09:45:37Z</time></trkpt>
<trkpt lat="51.188633" lon="4.961897"><ele>14.0</ele><time>2025-05-24T09:45:43Z</time></trkpt>
<trkpt lat="51.188864" lon="4.962704"><ele>14.06</ele><time>2025-05-24T09:45:48Z</time></trkpt>
<trkpt lat="51.188884" lon="4.963056"><ele>14.02</ele><time>2025-05-24T09:45:53Z</time></trkpt>
<trkpt lat="51.188841" lon="4.963484"><ele>15.71</ele><time>2025-05-24T09:45:58Z</time></trkpt>
<trkpt lat="51.188678" lon="4.964364"><ele>17.93</ele><time>2025-05-24T09:46:04Z</time></trkpt>
<trkpt lat="51.188351" lon="4.966064"><ele>15.79</ele><time>2025-05-24T09:46:09Z</time></trkpt>
<trkpt lat="51.188291" lon="4.966244"><ele>16.15</ele><time>2025-05-24T09:46:14Z</time></trkpt>
<trkpt lat="51.188114" lon="4.96675"><ele>17.0</ele><time>2025-05-24T09:46:19Z</time></trkpt>
<trkpt lat="51.187993" lon="4.966867"><ele>17.0</ele><time>2025-05-24T09:46:25Z</time></trkpt>
<trkpt lat="51.186795" lon="4.967226"><ele>18.0</ele><time>2025-05-24T09:46:30Z</time></trkpt>
<trkpt lat="51.185745" lon="4.96758"><ele>16.6</ele><time>2025-05-24T09:46:35Z</time></trkpt>
<trkpt lat="51.185616" lon="4.967641"><ele>17.29</ele><time>2025-05-24T09:46:41Z</time></trkpt>
<trkpt lat="51.185477" lon="4.967747"><ele>17.89</ele><time>2025-05-24T09:46:46Z</time></trkpt>
<trkpt lat="51.185321" lon="4.967924"><ele>18.0</ele><time>2025-05-24T09:46:51Z</time></trkpt>
<trkpt lat="51.18411" lon="4.969541"><ele>18.0</ele><time>2025-05-24T09:46:56Z</time></trkpt>
<trkpt lat="51.183878" lon="4.969875"><ele>17.47</ele><time>2025-05-24T09:47:02Z</time></trkpt>
<trkpt lat="51.1835" lon="4.970254"><ele>17.6</ele><time>2025-05-24T09:47:07Z</time></trkpt>
<trkpt lat="51.18265" lon="4.97085"><ele>16.52</ele><time>2025-05-24T09:47:12Z</time></trkpt>
<trkpt lat="51.182297" lon="4.97107"><ele>17.85</ele><time>2025-05-24T09:47:17Z</time></trkpt>
<trkpt lat="51.181115" lon="4.971545"><ele>19.43</ele><time>2025-05-24T09:47:23Z</time></trkpt>
<trkpt lat="51.181193" lon="4.972381"><ele>18.71</ele><time>2025-05-24T09:47:26Z</time></trkpt>
<trkpt lat="51.181164" lon="4.972555"><ele>18.85</ele><time>2025-05-24T09:47:29Z</time></trkpt>
<trkpt lat="51.181144" lon="4.97303"><ele>19.0</ele><time>2025-05-24T09:47:32Z</time></trkpt>
<trkpt lat="51.180511" lon="4.972674"><ele>18.9</ele><time>2025-05-24T09:47:40Z</time></trkpt>
<trkpt lat="51.179983" lon="4.972272"><ele>18.94</ele><time>2025-05-24T09:47:47Z</time></trkpt>
<trkpt lat="51.178789" lon="4.97112"><ele>16.64</ele><time>2025-05-24T09:47:55Z</time></trkpt>
<trkpt lat="51.178566" lon="4.970933"><ele>16.7</ele><time>2025-05-24T09:48:02Z</time></trkpt>
<trkpt lat="51.178123" lon="4.97061"><ele>17.76</ele><time>2025-05-24T09:48:10Z</time></trkpt>
<trkpt lat="51.169207" lon="4.965194"><ele>22.0</ele><time>2025-05-24T09:48:17Z</time></trkpt>
<trkpt lat="51.168872" lon="4.965008"><ele>22.06</ele><time>2025-05-24T09:48:25Z</time></trkpt>
<trkpt lat="51.168426" lon="4.964817"><ele>23.01</ele><time>2025-05-24T09:48:32Z</time></trkpt>
<trkpt lat="51.167727" lon="4.964617"><ele>26.18</ele><time>2025-05-24T09:48:40Z</time></trkpt>
<trkpt lat="51.16735" lon="4.964575"><ele>25.92</ele><time>2025-05-24T09:48:47Z</time></trkpt>
<trkpt lat="51.166984" lon="4.964584"><ele>23.72</ele><time>2025-05-24T09:48:55Z</time></trkpt>
<trkpt lat="51.16614" lon="4.964706"><ele>20.94</ele><time>2025-05-24T09:49:02Z</time></trkpt>
<trkpt lat="51.16567" lon="4.96475"><ele>22.59</ele><time>2025-05-24T09:49:10Z</time></trkpt>
<trkpt lat="51.164387" lon="4.964949"><ele>20.56</ele><time>2025-05-24T09:49:17Z</time></trkpt>
<trkpt lat="51.164348" lon="4.964458"><ele>21.35</ele><time>2025-05-24T09:49:23Z</time></trkpt>
<trkpt lat="51.164259" lon="4.963756"><ele>22.0</ele><time>2025-05-24T09:49:30Z</time></trkpt>
<trkpt lat="51.164039" lon="4.962552"><ele>21.81</ele><time>2025-05-24T09:49:36Z</time></trkpt>
<trkpt lat="51.163947" lon="4.961691"><ele>23.21</ele><time>2025-05-24T09:49:42Z</time></trkpt>
<trkpt lat="51.163971" lon="4.961539"><ele>23.3</ele><time>2025-05-24T09:49:48Z</time></trkpt>
<trkpt lat="51.164017" lon="4.960887"><ele>23.52</ele><time>2025-05-24T09:49:54Z</time></trkpt>
<trkpt lat="51.164058" lon="4.960564"><ele>23.39</ele><time>2025-05-24T09:50:00Z</time></trkpt>
<trkpt lat="51.164438" lon="4.958328"><ele>21.02</ele><time>2025-05-24T09:50:07Z</time></trkpt>
<trkpt lat="51.164529" lon="4.957484"><ele>21.0</ele><time>2025-05-24T09:50:13Z</time></trkpt>
<trkpt lat="51.164538" lon="4.956987"><ele>21.85</ele><time>2025-05-24T09:50:19Z</time></trkpt>
<trkpt lat="51.164475" lon="4.953811"><ele>20.0</ele><time>2025-05-24T09:50:25Z</time></trkpt>
<trkpt lat="51.164491" lon="4.953585"><ele>20.0</ele><time>2025-05-24T09:50:31Z</time></trkpt>
<trkpt lat="51.164681" lon="4.952202"><ele>21.85</ele><time>2025-05-24T09:50:38Z</time></trkpt>
<trkpt lat="51.164701" lon="4.951561"><ele>21.57</ele><time>2025-05-24T09:50:44Z</time></trkpt>
<trkpt lat="51.164668" lon="4.950452"><ele>20.07</ele><time>2025-05-24T09:50:50Z</time></trkpt>
<trkpt lat="51.164703" lon="4.949786"><ele>20.78</ele><time>2025-05-24T09:50:56Z</time></trkpt>
<trkpt lat="51.164771" lon="4.949075"><ele>21.83</ele><time>2025-05-24T09:51:02Z</time></trkpt>
<trkpt lat="51.164899" lon="4.94836"><ele>20.36</ele><time>2025-05-24T09:51:09Z</time></trkpt>
<trkpt lat="51.164977" lon="4.948008"><ele>20.08</ele><time>2025-05-24T09:51:15Z</time></trkpt>
<trkpt lat="51.165116" lon="4.947605"><ele>19.64</ele><time>2025-05-24T09:51:21Z</time></trkpt>
<trkpt lat="51.165277" lon="4.947312"><ele>20.0</ele><time>2025-05-24T09:51:27Z</time></trkpt>
<trkpt lat="51.16543" lon="4.947136"><ele>19.83</ele><time>2025-05-24T09:51:33Z</time></trkpt>
<trkpt lat="51.165925" lon="4.946686"><ele>19.0</ele><time>2025-05-24T09:51:39Z</time></trkpt>
<trkpt lat="51.166178" lon="4.946367"><ele>19.24</ele><time>2025-05-24T09:51:46Z</time></trkpt>
<trkpt lat="51.16628" lon="4.946191"><ele>19.61</ele><time>2025-05-24T09:51:52Z</time></trkpt>
<trkpt lat="51.166362" lon="4.946055"><ele>20.1</ele><time>2025-05-24T09:51:58Z</time></trkpt>
<trkpt lat="51.16643" lon="4.945834"><ele>20.85</ele><time>2025-05-24T09:52:04Z</time></trkpt>
<trkpt lat="51.166705" lon="4.944707"><ele>20.14</ele><time>2025-05-24T09:52:10Z</time></trkpt>
<trkpt lat="51.166753" lon="4.94458"><ele>20.31</ele><time>2025-05-24T09:52:17Z</time></trkpt>
<trkpt lat="51.166796" lon="4.944537"><ele>20.47</ele><time>2025-05-24T09:52:20Z</time></trkpt>
<trkpt lat="51.166806" lon="4.944457"><ele>20.5</ele><time>2025-05-24T09:52:24Z</time></trkpt>
<trkpt lat="51.166789" lon="4.944405"><ele>20.46</ele><time>2025-05-24T09:52:27Z</time></trkpt>
<trkpt lat="51.166734" lon="4.944376"><ele>20.37</ele><time>2025-05-24T09:52:31Z</time></trkpt>
<trkpt lat="51.166604" lon="4.944357"><ele>20.09</ele><time>2025-05-24T09:52:34Z</time></trkpt>
<trkpt lat="51.166393" lon="4.94425"><ele>19.72</ele><time>2025-05-24T09:52:38Z</time></trkpt>
<trkpt lat="51.165164" lon="4.943975"><ele>19.41</ele><time>2025-05-24T09:52:41Z</time></trkpt>
<trkpt lat="51.164971" lon="4.943976"><ele>20.0</ele><time>2025-05-24T09:52:45Z</time></trkpt>
<trkpt lat="51.163988" lon="4.944152"><ele>20.0</ele><time>2025-05-24T09:52:48Z</time></trkpt>
<trkpt lat="51.163725" lon="4.944276"><ele>19.02</ele><time>2025-05-24T09:52:52Z</time></trkpt>
<trkpt lat="51.163484" lon="4.944456"><ele>18.45</ele><time>2025-05-24T09:52:56Z</time></trkpt>
<trkpt lat="51.163127" lon="4.944767"><ele>19.0</ele><time>2025-05-24T09:52:59Z</time></trkpt>
<trkpt lat="51.163013" lon="4.944827"><ele>19.06</ele><time>2025-05-24T09:53:03Z</time></trkpt>
<trkpt lat="51.162837" lon="4.944864"><ele>19.4</ele><time>2025-05-24T09:53:06Z</time></trkpt>
<trkpt lat="51.162474" lon="4.944827"><ele>19.06</ele><time>2025-05-24T09:53:10Z</time></trkpt>
<trkpt lat="51.161999" lon="4.944913"><ele>20.11</ele><time>2025-05-24T09:53:13Z</time></trkpt>
<trkpt lat="51.161867" lon="4.944771"><ele>20.82</ele><time>2025-05-24T09:53:20Z</time></trkpt>
<trkpt lat="51.16086" lon="4.942662"><ele>18.42</ele><time>2025-05-24T09:53:28Z</time></trkpt>
<trkpt lat="51.160557" lon="4.942223"><ele>19.0</ele><time>2025-05-24T09:53:35Z</time></trkpt>
<trkpt lat="51.159903" lon="4.941388"><ele>20.0</ele><time>2025-05-24T09:53:42Z</time></trkpt>
<trkpt lat="51.159682" lon="4.941154"><ele>20.0</ele><time>2025-05-24T09:53:49Z</time></trkpt>
<trkpt lat="51.159319" lon="4.940849"><ele>19.06</ele><time>2025-05-24T09:53:56Z</time></trkpt>
<trkpt lat="51.158516" lon="4.940357"><ele>21.28</ele><time>2025-05-24T09:54:03Z</time></trkpt>
<trkpt lat="51.157981" lon="4.939947"><ele>21.22</ele><time>2025-05-24T09:54:10Z</time></trkpt>
<trkpt lat="51.157901" lon="4.939915"><ele>21.39</ele><time>2025-05-24T09:54:17Z</time></trkpt>
<trkpt lat="51.157764" lon="4.93991"><ele>21.58</ele><time>2025-05-24T09:54:25Z</time></trkpt>
<trkpt lat="51.157764" lon="4.93991"><ele>21.58</ele><time>2025-05-24T09:54:25Z</time></trkpt>
<trkpt lat="51.157688" lon="4.939908"><ele>21.77</ele><time>2025-05-24T09:54:27Z</time></trkpt>
<trkpt lat="51.157531" lon="4.939963"><ele>21.99</ele><time>2025-05-24T09:54:29Z</time></trkpt>
<trkpt lat="51.157329" lon="4.940098"><ele>22.0</ele><time>2025-05-24T09:54:31Z</time></trkpt>
<trkpt lat="51.157127" lon="4.940233"><ele>22.0</ele><time>2025-05-24T09:54:33Z</time></trkpt>
<trkpt lat="51.156969" lon="4.94027"><ele>22.0</ele><time>2025-05-24T09:54:35Z</time></trkpt>
<trkpt lat="51.156866" lon="4.940247"><ele>22.0</ele><time>2025-05-24T09:54:38Z</time></trkpt>
<trkpt lat="51.156727" lon="4.940987"><ele>22.33</ele><time>2025-05-24T09:54:45Z</time></trkpt>
<trkpt lat="51.156399" lon="4.942403"><ele>21.96</ele><time>2025-05-24T09:54:52Z</time></trkpt>
<trkpt lat="51.156328" lon="4.942618"><ele>21.45</ele><time>2025-05-24T09:55:00Z</time></trkpt>
<trkpt lat="51.156039" lon="4.943228"><ele>21.62</ele><time>2025-05-24T09:55:07Z</time></trkpt>
<trkpt lat="51.155997" lon="4.943433"><ele>22.0</ele><time>2025-05-24T09:55:14Z</time></trkpt>
<trkpt lat="51.155987" lon="4.943656"><ele>22.0</ele><time>2025-05-24T09:55:21Z</time></trkpt>
<trkpt lat="51.156311" lon="4.94503"><ele>21.28</ele><time>2025-05-24T09:55:29Z</time></trkpt>
<trkpt lat="51.15639" lon="4.946183"><ele>20.74</ele><time>2025-05-24T09:55:36Z</time></trkpt>
<trkpt lat="51.156403" lon="4.94677"><ele>19.0</ele><time>2025-05-24T09:55:43Z</time></trkpt>
<trkpt lat="51.156366" lon="4.947375"><ele>20.5</ele><time>2025-05-24T09:55:51Z</time></trkpt>
<trkpt lat="51.15586" lon="4.950025"><ele>20.0</ele><time>2025-05-24T09:55:58Z</time></trkpt>
<trkpt lat="51.155597" lon="4.951801"><ele>20.44</ele><time>2025-05-24T09:56:05Z</time></trkpt>
<trkpt lat="51.155506" lon="4.952227"><ele>19.18</ele><time>2025-05-24T09:56:13Z</time></trkpt>
<trkpt lat="51.155235" lon="4.953204"><ele>20.52</ele><time>2025-05-24T09:56:20Z</time></trkpt>
<trkpt lat="51.154916" lon="4.954066"><ele>20.89</ele><time>2025-05-24T09:56:27Z</time></trkpt>
<trkpt lat="51.154841" lon="4.954618"><ele>21.84</ele><time>2025-05-24T09:56:34Z</time></trkpt>
<trkpt lat="51.154801" lon="4.954811"><ele>22.09</ele><time>2025-05-24T09:56:42Z</time></trkpt>
<trkpt lat="51.154773" lon="4.954865"><ele>22.09</ele><time>2025-05-24T09:56:49Z</time></trkpt>
<trkpt lat="51.15506" lon="4.957893"><ele>18.78</ele><time>2025-05-24T09:56:56Z</time></trkpt>
<trkpt lat="51.155139" lon="4.959781"><ele>21.21</ele><time>2025-05-24T09:57:04Z</time></trkpt>
<trkpt lat="51.155248" lon="4.960719"><ele>21.47</ele><time>2025-05-24T09:57:11Z</time></trkpt>
<trkpt lat="51.15525" lon="4.960969"><ele>20.61</ele><time>2025-05-24T09:57:19Z</time></trkpt>
<trkpt lat="51.155205" lon="4.961279"><ele>20.26</ele><time>2025-05-24T09:57:26Z</time></trkpt>
<trkpt lat="51.155114" lon="4.961685"><ele>21.0</ele><time>2025-05-24T09:57:33Z</time></trkpt>
<trkpt lat="51.155071" lon="4.961683"><ele>21.0</ele><time>2025-05-24T09:57:34Z</time></trkpt>
<trkpt lat="51.155071" lon="4.961683"><ele>21.0</ele><time>2025-05-24T09:57:34Z</time></trkpt>
<trkpt lat="51.155114" lon="4.961685"><ele>21.0</ele><time>2025-05-24T09:57:34Z</time></trkpt>
<trkpt lat="51.155067" lon="4.96196"><ele>21.01</ele><time>2025-05-24T09:57:38Z</time></trkpt>
<trkpt lat="51.155055" lon="4.962364"><ele>21.2</ele><time>2025-05-24T09:57:43Z</time></trkpt>
<trkpt lat="51.155069" lon="4.963007"><ele>21.0</ele><time>2025-05-24T09:57:47Z</time></trkpt>
<trkpt lat="51.155088" lon="4.963248"><ele>20.31</ele><time>2025-05-24T09:57:51Z</time></trkpt>
<trkpt lat="51.155267" lon="4.964639"><ele>20.0</ele><time>2025-05-24T09:57:56Z</time></trkpt>
<trkpt lat="51.155349" lon="4.965449"><ele>20.38</ele><time>2025-05-24T09:58:00Z</time></trkpt>
<trkpt lat="51.155394" lon="4.965688"><ele>20.0</ele><time>2025-05-24T09:58:04Z</time></trkpt>
<trkpt lat="51.15558" lon="4.966286"><ele>20.0</ele><time>2025-05-24T09:58:08Z</time></trkpt>
<trkpt lat="51.155636" lon="4.966697"><ele>19.0</ele><time>2025-05-24T09:58:13Z</time></trkpt>
<trkpt lat="51.155698" lon="4.967601"><ele>19.69</ele><time>2025-05-24T09:58:17Z</time></trkpt>
<trkpt lat="51.155739" lon="4.969341"><ele>18.87</ele><time>2025-05-24T09:58:21Z</time></trkpt>
<trkpt lat="51.155804" lon="4.969797"><ele>19.03</ele><time>2025-05-24T09:58:25Z</time></trkpt>
<trkpt lat="51.155861" lon="4.97003"><ele>19.0</ele><time>2025-05-24T09:58:30Z</time></trkpt>
<trkpt lat="51.156027" lon="4.970565"><ele>19.3</ele><time>2025-05-24T09:58:34Z</time></trkpt>
<trkpt lat="51.156291" lon="4.971294"><ele>18.78</ele><time>2025-05-24T09:58:38Z</time></trkpt>
<trkpt lat="51.152931" lon="4.974521"><ele>20.44</ele><time>2025-05-24T09:58:53Z</time></trkpt>
<trkpt lat="51.152806" lon="4.974584"><ele>20.9</ele><time>2025-05-24T09:59:08Z</time></trkpt>
<trkpt lat="51.152722" lon="4.974549"><ele>21.0</ele><time>2025-05-24T09:59:11Z</time></trkpt>
<trkpt lat="51.152662" lon="4.974564"><ele>21.0</ele><time>2025-05-24T09:59:15Z</time></trkpt>
<trkpt lat="51.152609" lon="4.974608"><ele>21.0</ele><time>2025-05-24T09:59:18Z</time></trkpt>
<trkpt lat="51.152568" lon="4.974678"><ele>21.0</ele><time>2025-05-24T09:59:22Z</time></trkpt>
<trkpt lat="51.15254" lon="4.974783"><ele>21.0</ele><time>2025-05-24T09:59:25Z</time></trkpt>
<trkpt lat="51.15254" lon="4.974897"><ele>21.0</ele><time>2025-05-24T09:59:29Z</time></trkpt>
<trkpt lat="51.15246" lon="4.975026"><ele>21.0</ele><time>2025-05-24T09:59:32Z</time></trkpt>
<trkpt lat="51.152338" lon="4.975143"><ele>21.0</ele><time>2025-05-24T09:59:36Z</time></trkpt>
<trkpt lat="51.152281" lon="4.975174"><ele>21.0</ele><time>2025-05-24T09:59:40Z</time></trkpt>
<trkpt lat="51.151531" lon="4.975889"><ele>18.31</ele><time>2025-05-24T09:59:43Z</time></trkpt>
<trkpt lat="51.150931" lon="4.976532"><ele>17.83</ele><time>2025-05-24T09:59:47Z</time></trkpt>
<trkpt lat="51.150439" lon="4.977188"><ele>20.88</ele><time>2025-05-24T09:59:50Z</time></trkpt>
<trkpt lat="51.150218" lon="4.977517"><ele>20.85</ele><time>2025-05-24T09:59:54Z</time></trkpt>
<trkpt lat="51.149953" lon="4.977981"><ele>20.83</ele><time>2025-05-24T09:59:57Z</time></trkpt>
<trkpt lat="51.149569" lon="4.978739"><ele>17.99</ele><time>2025-05-24T10:00:01Z</time></trkpt>
<trkpt lat="51.149309" lon="4.97934"><ele>17.18</ele><time>2025-05-24T10:00:04Z</time></trkpt>
<trkpt lat="51.149055" lon="4.980022"><ele>18.45</ele><time>2025-05-24T10:00:08Z</time></trkpt>
<trkpt lat="51.148874" lon="4.980596"><ele>20.0</ele><time>2025-05-24T10:00:11Z</time></trkpt>
<trkpt lat="51.148798" lon="4.980848"><ele>20.03</ele><time>2025-05-24T10:00:15Z</time></trkpt>
<trkpt lat="51.148631" lon="4.981555"><ele>20.07</ele><time>2025-05-24T10:00:18Z</time></trkpt>
<trkpt lat="51.148351" lon="4.983044"><ele>19.09</ele><time>2025-05-24T10:00:22Z</time></trkpt>
<trkpt lat="51.147639" lon="4.983178"><ele>18.06</ele><time>2025-05-24T10:00:31Z</time></trkpt>
<trkpt lat="51.147204" lon="4.983217"><ele>18.48</ele><time>2025-05-24T10:00:39Z</time></trkpt>
<trkpt lat="51.14692" lon="4.983192"><ele>19.6</ele><time>2025-05-24T10:00:48Z</time></trkpt>
<trkpt lat="51.146611" lon="4.983094"><ele>20.49</ele><time>2025-05-24T10:00:56Z</time></trkpt>
<trkpt lat="51.142145" lon="4.98084"><ele>20.02</ele><time>2025-05-24T10:01:05Z</time></trkpt>
<trkpt lat="51.142021" lon="4.980795"><ele>19.86</ele><time>2025-05-24T10:01:13Z</time></trkpt>
<trkpt lat="51.14189" lon="4.98078"><ele>19.65</ele><time>2025-05-24T10:01:22Z</time></trkpt>
<trkpt lat="51.140514" lon="4.980815"><ele>20.15</ele><time>2025-05-24T10:01:31Z</time></trkpt>
<trkpt lat="51.140283" lon="4.980792"><ele>20.98</ele><time>2025-05-24T10:01:39Z</time></trkpt>
<trkpt lat="51.140118" lon="4.980728"><ele>20.42</ele><time>2025-05-24T10:01:48Z</time></trkpt>
<trkpt lat="51.138291" lon="4.979805"><ele>17.45</ele><time>2025-05-24T10:01:56Z</time></trkpt>
<trkpt lat="51.138006" lon="4.979701"><ele>18.36</ele><time>2025-05-24T10:02:05Z</time></trkpt>
<trkpt lat="51.135811" lon="4.979265"><ele>19.0</ele><time>2025-05-24T10:02:13Z</time></trkpt>
<trkpt lat="51.135664" lon="4.979255"><ele>19.0</ele><time>2025-05-24T10:02:22Z</time></trkpt>
<trkpt lat="51.135424" lon="4.979282"><ele>19.0</ele><time>2025-05-24T10:02:30Z</time></trkpt>
<trkpt lat="51.132507" lon="4.980535"><ele>17.07</ele><time>2025-05-24T10:02:39Z</time></trkpt>
<trkpt lat="51.131861" lon="4.980859"><ele>18.36</ele><time>2025-05-24T10:02:48Z</time></trkpt>
<trkpt lat="51.131348" lon="4.981141"><ele>17.85</ele><time>2025-05-24T10:02:56Z</time></trkpt>
<trkpt lat="51.128717" lon="4.982893"><ele>18.59</ele><time>2025-05-24T10:03:05Z</time></trkpt>
<trkpt lat="51.128072" lon="4.983296"><ele>19.13</ele><time>2025-05-24T10:03:13Z</time></trkpt>
<trkpt lat="51.127816" lon="4.983405"><ele>17.24</ele><time>2025-05-24T10:03:22Z</time></trkpt>
<trkpt lat="51.1275" lon="4.983503"><ele>16.0</ele><time>2025-05-24T10:03:30Z</time></trkpt>
<trkpt lat="51.127096" lon="4.983526"><ele>19.5</ele><time>2025-05-24T10:03:39Z</time></trkpt>
<trkpt lat="51.126828" lon="4.983471"><ele>21.46</ele><time>2025-05-24T10:03:48Z</time></trkpt>
<trkpt lat="51.126828" lon="4.983471"><ele>21.46</ele><time>2025-05-24T10:03:48Z</time></trkpt>
<trkpt lat="51.126597" lon="4.983423"><ele>23.43</ele><time>2025-05-24T10:03:59Z</time></trkpt>
<trkpt lat="51.126326" lon="4.9833"><ele>23.33</ele><time>2025-05-24T10:04:10Z</time></trkpt>
<trkpt lat="51.126128" lon="4.983182"><ele>21.54</ele><time>2025-05-24T10:04:21Z</time></trkpt>
<trkpt lat="51.121167" lon="4.979866"><ele>17.6</ele><time>2025-05-24T10:04:32Z</time></trkpt>
<trkpt lat="51.120447" lon="4.979402"><ele>16.09</ele><time>2025-05-24T10:04:44Z</time></trkpt>
<trkpt lat="51.120244" lon="4.979308"><ele>16.06</ele><time>2025-05-24T10:04:55Z</time></trkpt>
<trkpt lat="51.120084" lon="4.979262"><ele>16.46</ele><time>2025-05-24T10:05:06Z</time></trkpt>
<trkpt lat="51.118596" lon="4.978872"><ele>17.06</ele><time>2025-05-24T10:05:17Z</time></trkpt>
<trkpt lat="51.119754" lon="4.973776"><ele>15.41</ele><time>2025-05-24T10:05:38Z</time></trkpt>
<trkpt lat="51.119937" lon="4.97267"><ele>17.68</ele><time>2025-05-24T10:05:59Z</time></trkpt>
<trkpt lat="51.11981" lon="4.972453"><ele>16.64</ele><time>2025-05-24T10:06:03Z</time></trkpt>
<trkpt lat="51.119595" lon="4.971885"><ele>15.54</ele><time>2025-05-24T10:06:07Z</time></trkpt>
<trkpt lat="51.119472" lon="4.971504"><ele>15.69</ele><time>2025-05-24T10:06:11Z</time></trkpt>
<trkpt lat="51.119431" lon="4.971241"><ele>16.51</ele><time>2025-05-24T10:06:15Z</time></trkpt>
<trkpt lat="51.119398" lon="4.970832"><ele>16.83</ele><time>2025-05-24T10:06:19Z</time></trkpt>
<trkpt lat="51.119406" lon="4.970592"><ele>16.86</ele><time>2025-05-24T10:06:22Z</time></trkpt>
<trkpt lat="51.119502" lon="4.970078"><ele>16.21</ele><time>2025-05-24T10:06:26Z</time></trkpt>
<trkpt lat="51.119558" lon="4.969883"><ele>16.41</ele><time>2025-05-24T10:06:30Z</time></trkpt>
<trkpt lat="51.120309" lon="4.968072"><ele>17.89</ele><time>2025-05-24T10:06:34Z</time></trkpt>
<trkpt lat="51.120344" lon="4.967942"><ele>17.76</ele><time>2025-05-24T10:06:38Z</time></trkpt>
<trkpt lat="51.120355" lon="4.967773"><ele>17.74</ele><time>2025-05-24T10:06:42Z</time></trkpt>
<trkpt lat="51.120335" lon="4.967675"><ele>18.16</ele><time>2025-05-24T10:06:45Z</time></trkpt>
<trkpt lat="51.120294" lon="4.967591"><ele>18.61</ele><time>2025-05-24T10:06:49Z</time></trkpt>
<trkpt lat="51.120244" lon="4.96755"><ele>18.84</ele><time>2025-05-24T10:06:53Z</time></trkpt>
<trkpt lat="51.119612" lon="4.967133"><ele>20.63</ele><time>2025-05-24T10:06:57Z</time></trkpt>
<trkpt lat="51.119368" lon="4.967015"><ele>19.69</ele><time>2025-05-24T10:07:01Z</time></trkpt>
<trkpt lat="51.119245" lon="4.966991"><ele>19.38</ele><time>2025-05-24T10:07:04Z</time></trkpt>
<trkpt lat="51.119093" lon="4.967011"><ele>19.22</ele><time>2025-05-24T10:07:08Z</time></trkpt>
<trkpt lat="51.118912" lon="4.967088"><ele>19.12</ele><time>2025-05-24T10:07:12Z</time></trkpt>
<trkpt lat="51.118051" lon="4.967708"><ele>15.98</ele><time>2025-05-24T10:07:16Z</time></trkpt>
<trkpt lat="51.117801" lon="4.967398"><ele>15.08</ele><time>2025-05-24T10:07:20Z</time></trkpt>
<trkpt lat="51.117039" lon="4.966236"><ele>15.0</ele><time>2025-05-24T10:07:24Z</time></trkpt>
<trkpt lat="51.117" lon="4.966144"><ele>15.0</ele><time>2025-05-24T10:07:28Z</time></trkpt>
<trkpt lat="51.116957" lon="4.965911"><ele>14.31</ele><time>2025-05-24T10:07:33Z</time></trkpt>
<trkpt lat="51.11686" lon="4.964948"><ele>14.49</ele><time>2025-05-24T10:07:37Z</time></trkpt>
<trkpt lat="51.116816" lon="4.964729"><ele>15.44</ele><time>2025-05-24T10:07:41Z</time></trkpt>
<trkpt lat="51.116618" lon="4.963992"><ele>16.0</ele><time>2025-05-24T10:07:45Z</time></trkpt>
<trkpt lat="51.114853" lon="4.96548"><ele>14.27</ele><time>2025-05-24T10:07:53Z</time></trkpt>
<trkpt lat="51.114736" lon="4.965545"><ele>14.04</ele><time>2025-05-24T10:08:00Z</time></trkpt>
<trkpt lat="51.114591" lon="4.965592"><ele>14.0</ele><time>2025-05-24T10:08:07Z</time></trkpt>
<trkpt lat="51.114463" lon="4.965593"><ele>14.0</ele><time>2025-05-24T10:08:15Z</time></trkpt>
<trkpt lat="51.113604" lon="4.965428"><ele>14.45</ele><time>2025-05-24T10:08:22Z</time></trkpt>
<trkpt lat="51.113326" lon="4.96541"><ele>13.97</ele><time>2025-05-24T10:08:29Z</time></trkpt>
<trkpt lat="51.11317" lon="4.965425"><ele>13.41</ele><time>2025-05-24T10:08:37Z</time></trkpt>
<trkpt lat="51.111125" lon="4.965916"><ele>14.59</ele><time>2025-05-24T10:08:44Z</time></trkpt>
<trkpt lat="51.111125" lon="4.965916"><ele>14.59</ele><time>2025-05-24T10:08:44Z</time></trkpt>
<trkpt lat="51.111097" lon="4.965926"><ele>14.66</ele><time>2025-05-24T10:08:44Z</time></trkpt>
<trkpt lat="51.111163" lon="4.966556"><ele>14.11</ele><time>2025-05-24T10:08:49Z</time></trkpt>
<trkpt lat="51.111211" lon="4.967411"><ele>14.36</ele><time>2025-05-24T10:08:53Z</time></trkpt>
<trkpt lat="51.111248" lon="4.967696"><ele>13.79</ele><time>2025-05-24T10:08:57Z</time></trkpt>
<trkpt lat="51.111427" lon="4.968519"><ele>14.86</ele><time>2025-05-24T10:09:01Z</time></trkpt>
<trkpt lat="51.110237" lon="4.970586"><ele>14.0</ele><time>2025-05-24T10:09:12Z</time></trkpt>
<trkpt lat="51.1096" lon="4.971372"><ele>15.0</ele><time>2025-05-24T10:09:22Z</time></trkpt>
<trkpt lat="51.109057" lon="4.972269"><ele>16.1</ele><time>2025-05-24T10:09:32Z</time></trkpt>
<trkpt lat="51.107975" lon="4.973793"><ele>15.64</ele><time>2025-05-24T10:09:42Z</time></trkpt>
<trkpt lat="51.107585" lon="4.974313"><ele>16.86</ele><time>2025-05-24T10:09:53Z</time></trkpt>
<trkpt lat="51.107487" lon="4.974357"><ele>17.01</ele><time>2025-05-24T10:10:03Z</time></trkpt>
<trkpt lat="51.107752" lon="4.97493"><ele>17.68</ele><time>2025-05-24T10:10:12Z</time></trkpt>
<trkpt lat="51.107905" lon="4.975196"><ele>17.54</ele><time>2025-05-24T10:10:21Z</time></trkpt>
<trkpt lat="51.108501" lon="4.976076"><ele>16.47</ele><time>2025-05-24T10:10:30Z</time></trkpt>
<trkpt lat="51.107709" lon="4.977065"><ele>19.43</ele><time>2025-05-24T10:10:42Z</time></trkpt>
<trkpt lat="51.107534" lon="4.977334"><ele>20.0</ele><time>2025-05-24T10:10:54Z</time></trkpt>
<trkpt lat="51.107042" lon="4.978337"><ele>17.0</ele><time>2025-05-24T10:11:06Z</time></trkpt>
<trkpt lat="51.106908" lon="4.978564"><ele>17.0</ele><time>2025-05-24T10:11:18Z</time></trkpt>
<trkpt lat="51.106472" lon="4.979106"><ele>16.3</ele><time>2025-05-24T10:11:30Z</time></trkpt>
<trkpt lat="51.106429" lon="4.979223"><ele>16.35</ele><time>2025-05-24T10:11:42Z</time></trkpt>
<trkpt lat="51.106417" lon="4.979314"><ele>16.63</ele><time>2025-05-24T10:11:54Z</time></trkpt>
<trkpt lat="51.106428" lon="4.979431"><ele>17.09</ele><time>2025-05-24T10:12:06Z</time></trkpt>
<trkpt lat="51.106456" lon="4.97952"><ele>17.24</ele><time>2025-05-24T10:12:18Z</time></trkpt>
<trkpt lat="51.107037" lon="4.980462"><ele>17.34</ele><time>2025-05-24T10:12:30Z</time></trkpt>
<trkpt lat="51.106441" lon="4.981539"><ele>15.9</ele><time>2025-05-24T10:12:36Z</time></trkpt>
<trkpt lat="51.10637" lon="4.981738"><ele>16.0</ele><time>2025-05-24T10:12:42Z</time></trkpt>
<trkpt lat="51.106341" lon="4.98189"><ele>16.0</ele><time>2025-05-24T10:12:48Z</time></trkpt>
<trkpt lat="51.106186" lon="4.983182"><ele>17.73</ele><time>2025-05-24T10:12:54Z</time></trkpt>
<trkpt lat="51.106133" lon="4.983481"><ele>17.92</ele><time>2025-05-24T10:13:00Z</time></trkpt>
<trkpt lat="51.106021" lon="4.983898"><ele>16.98</ele><time>2025-05-24T10:13:06Z</time></trkpt>
<trkpt lat="51.105697" lon="4.984732"><ele>16.47</ele><time>2025-05-24T10:13:12Z</time></trkpt>
<trkpt lat="51.105612" lon="4.985001"><ele>16.59</ele><time>2025-05-24T10:13:18Z</time></trkpt>
<trkpt lat="51.10559" lon="4.985121"><ele>16.75</ele><time>2025-05-24T10:13:25Z</time></trkpt>
<trkpt lat="51.105572" lon="4.985338"><ele>16.68</ele><time>2025-05-24T10:13:31Z</time></trkpt>
<trkpt lat="51.10556" lon="4.986012"><ele>15.35</ele><time>2025-05-24T10:13:37Z</time></trkpt>
<trkpt lat="51.10553" lon="4.986626"><ele>15.77</ele><time>2025-05-24T10:13:43Z</time></trkpt>
<trkpt lat="51.105418" lon="4.987207"><ele>15.5</ele><time>2025-05-24T10:13:49Z</time></trkpt>
<trkpt lat="51.104953" lon="4.989055"><ele>16.33</ele><time>2025-05-24T10:13:55Z</time></trkpt>
<trkpt lat="51.104806" lon="4.989487"><ele>14.95</ele><time>2025-05-24T10:14:04Z</time></trkpt>
<trkpt lat="51.104435" lon="4.990322"><ele>14.99</ele><time>2025-05-24T10:14:14Z</time></trkpt>
<trkpt lat="51.10366" lon="4.991825"><ele>17.75</ele><time>2025-05-24T10:14:23Z</time></trkpt>
<trkpt lat="51.101092" lon="4.991386"><ele>16.13</ele><time>2025-05-24T10:14:42Z</time></trkpt>
<trkpt lat="51.100834" lon="4.991335"><ele>17.99</ele><time>2025-05-24T10:15:00Z</time></trkpt>
<trkpt lat="51.100077" lon="4.989629"><ele>15.0</ele><time>2025-05-24T10:15:10Z</time></trkpt>
<trkpt lat="51.099993" lon="4.989407"><ele>14.98</ele><time>2025-05-24T10:15:20Z</time></trkpt>
<trkpt lat="51.098824" lon="4.985406"><ele>12.69</ele><time>2025-05-24T10:15:30Z</time></trkpt>
<trkpt lat="51.098147" lon="4.985577"><ele>15.0</ele><time>2025-05-24T10:15:33Z</time></trkpt>
<trkpt lat="51.097997" lon="4.985573"><ele>14.99</ele><time>2025-05-24T10:15:36Z</time></trkpt>
<trkpt lat="51.097842" lon="4.985473"><ele>15.3</ele><time>2025-05-24T10:15:39Z</time></trkpt>
<trkpt lat="51.09721" lon="4.984946"><ele>12.0</ele><time>2025-05-24T10:15:42Z</time></trkpt>
<trkpt lat="51.097196" lon="4.985034"><ele>12.12</ele><time>2025-05-24T10:15:49Z</time></trkpt>
<trkpt lat="51.097224" lon="4.985989"><ele>14.44</ele><time>2025-05-24T10:15:55Z</time></trkpt>
<trkpt lat="51.097033" lon="4.986206"><ele>14.68</ele><time>2025-05-24T10:16:01Z</time></trkpt>
<trkpt lat="51.095713" lon="4.987546"><ele>15.0</ele><time>2025-05-24T10:16:07Z</time></trkpt>
<trkpt lat="51.097215" lon="4.991169"><ele>14.49</ele><time>2025-05-24T10:16:35Z</time></trkpt>
<trkpt lat="51.097215" lon="4.991169"><ele>14.49</ele><time>2025-05-24T10:16:35Z</time></trkpt>
<trkpt lat="51.095713" lon="4.987546"><ele>15.0</ele><time>2025-05-24T10:16:44Z</time></trkpt>
<trkpt lat="51.094678" lon="4.985687"><ele>16.16</ele><time>2025-05-24T10:16:53Z</time></trkpt>
<trkpt lat="51.094619" lon="4.98565"><ele>16.37</ele><time>2025-05-24T10:17:01Z</time></trkpt>
<trkpt lat="51.094367" lon="4.985665"><ele>16.72</ele><time>2025-05-24T10:17:10Z</time></trkpt>
<trkpt lat="51.09358" lon="4.985324"><ele>13.83</ele><time>2025-05-24T10:17:19Z</time></trkpt>
<trkpt lat="51.093203" lon="4.985264"><ele>14.0</ele><time>2025-05-24T10:17:27Z</time></trkpt>
<trkpt lat="51.093059" lon="4.985187"><ele>14.0</ele><time>2025-05-24T10:17:36Z</time></trkpt>
<trkpt lat="51.09307" lon="4.985138"><ele>14.0</ele><time>2025-05-24T10:17:38Z</time></trkpt>
<trkpt lat="51.093046" lon="4.984812"><ele>14.66</ele><time>2025-05-24T10:17:40Z</time></trkpt>
<trkpt lat="51.09299" lon="4.984324"><ele>15.2</ele><time>2025-05-24T10:17:42Z</time></trkpt>
<trkpt lat="51.092902" lon="4.983869"><ele>16.0</ele><time>2025-05-24T10:17:44Z</time></trkpt>
<trkpt lat="51.092755" lon="4.983386"><ele>15.84</ele><time>2025-05-24T10:17:46Z</time></trkpt>
<trkpt lat="51.091977" lon="4.981444"><ele>14.31</ele><time>2025-05-24T10:17:48Z</time></trkpt>
<trkpt lat="51.091915" lon="4.981372"><ele>14.1</ele><time>2025-05-24T10:17:50Z</time></trkpt>
<trkpt lat="51.0918" lon="4.981347"><ele>14.52</ele><time>2025-05-24T10:17:52Z</time></trkpt>
<trkpt lat="51.091572" lon="4.981435"><ele>15.4</ele><time>2025-05-24T10:17:54Z</time></trkpt>
<trkpt lat="51.091242" lon="4.981505"><ele>17.25</ele><time>2025-05-24T10:17:57Z</time></trkpt>
<trkpt lat="51.091016" lon="4.981476"><ele>17.42</ele><time>2025-05-24T10:17:59Z</time></trkpt>
<trkpt lat="51.090809" lon="4.981398"><ele>15.95</ele><time>2025-05-24T10:18:01Z</time></trkpt>
<trkpt lat="51.090717" lon="4.981329"><ele>15.58</ele><time>2025-05-24T10:18:03Z</time></trkpt>
<trkpt lat="51.090603" lon="4.981196"><ele>15.17</ele><time>2025-05-24T10:18:05Z</time></trkpt>
<trkpt lat="51.09047" lon="4.980966"><ele>15.51</ele><time>2025-05-24T10:18:07Z</time></trkpt>
<trkpt lat="51.090211" lon="4.98031"><ele>15.88</ele><time>2025-05-24T10:18:09Z</time></trkpt>
<trkpt lat="51.090128" lon="4.980141"><ele>16.49</ele><time>2025-05-24T10:18:11Z</time></trkpt>
<trkpt lat="51.090231" lon="4.980026"><ele>16.91</ele><time>2025-05-24T10:18:16Z</time></trkpt>
<trkpt lat="51.090485" lon="4.979634"><ele>16.25</ele><time>2025-05-24T10:18:20Z</time></trkpt>
<trkpt lat="51.090776" lon="4.979102"><ele>16.0</ele><time>2025-05-24T10:18:25Z</time></trkpt>
<trkpt lat="51.090894" lon="4.97869"><ele>15.38</ele><time>2025-05-24T10:18:30Z</time></trkpt>
<trkpt lat="51.091059" lon="4.977374"><ele>16.63</ele><time>2025-05-24T10:18:35Z</time></trkpt>
<trkpt lat="51.091073" lon="4.97709"><ele>16.79</ele><time>2025-05-24T10:18:40Z</time></trkpt>
<trkpt lat="51.091064" lon="4.976839"><ele>16.83</ele><time>2025-05-24T10:18:44Z</time></trkpt>
<trkpt lat="51.090961" lon="4.975598"><ele>14.46</ele><time>2025-05-24T10:18:49Z</time></trkpt>
<trkpt lat="51.090871" lon="4.974855"><ele>14.45</ele><time>2025-05-24T10:18:54Z</time></trkpt>
<trkpt lat="51.090531" lon="4.972797"><ele>12.17</ele><time>2025-05-24T10:18:59Z</time></trkpt>
<trkpt lat="51.090466" lon="4.972629"><ele>12.47</ele><time>2025-05-24T10:19:03Z</time></trkpt>
<trkpt lat="51.090124" lon="4.972067"><ele>13.24</ele><time>2025-05-24T10:19:08Z</time></trkpt>
<trkpt lat="51.089345" lon="4.970697"><ele>16.0</ele><time>2025-05-24T10:19:13Z</time></trkpt>
<trkpt lat="51.089316" lon="4.970606"><ele>16.0</ele><time>2025-05-24T10:19:18Z</time></trkpt>
<trkpt lat="51.089054" lon="4.967488"><ele>16.0</ele><time>2025-05-24T10:19:23Z</time></trkpt>
<trkpt lat="51.088777" lon="4.966002"><ele>17.6</ele><time>2025-05-24T10:19:27Z</time></trkpt>
<trkpt lat="51.088782" lon="4.965687"><ele>16.67</ele><time>2025-05-24T10:19:32Z</time></trkpt>
<trkpt lat="51.088824" lon="4.965321"><ele>16.68</ele><time>2025-05-24T10:19:37Z</time></trkpt>
<trkpt lat="51.088884" lon="4.965117"><ele>16.98</ele><time>2025-05-24T10:19:42Z</time></trkpt>
<trkpt lat="51.088956" lon="4.96498"><ele>16.63</ele><time>2025-05-24T10:19:47Z</time></trkpt>
<trkpt lat="51.089047" lon="4.964859"><ele>15.7</ele><time>2025-05-24T10:19:51Z</time></trkpt>
<trkpt lat="51.089443" lon="4.964544"><ele>15.99</ele><time>2025-05-24T10:19:56Z</time></trkpt>
<trkpt lat="51.089495" lon="4.964478"><ele>16.36</ele><time>2025-05-24T10:20:01Z</time></trkpt>
<trkpt lat="51.089507" lon="4.964419"><ele>16.43</ele><time>2025-05-24T10:20:06Z</time></trkpt>
<trkpt lat="51.089411" lon="4.963587"><ele>15.13</ele><time>2025-05-24T10:20:11Z</time></trkpt>
<trkpt lat="51.089436" lon="4.961586"><ele>16.33</ele><time>2025-05-24T10:20:15Z</time></trkpt>
<trkpt lat="51.089423" lon="4.961371"><ele>17.0</ele><time>2025-05-24T10:20:20Z</time></trkpt>
<trkpt lat="51.089256" lon="4.960015"><ele>12.05</ele><time>2025-05-24T10:20:25Z</time></trkpt>
<trkpt lat="51.089214" lon="4.959763"><ele>13.56</ele><time>2025-05-24T10:20:30Z</time></trkpt>
<trkpt lat="51.089117" lon="4.959456"><ele>14.96</ele><time>2025-05-24T10:20:35Z</time></trkpt>
<trkpt lat="51.088672" lon="4.958553"><ele>14.35</ele><time>2025-05-24T10:20:39Z</time></trkpt>
<trkpt lat="51.088504" lon="4.958173"><ele>14.35</ele><time>2025-05-24T10:20:44Z</time></trkpt>
<trkpt lat="51.088257" lon="4.957409"><ele>14.46</ele><time>2025-05-24T10:20:49Z</time></trkpt>
<trkpt lat="51.088111" lon="4.957117"><ele>14.42</ele><time>2025-05-24T10:20:54Z</time></trkpt>
<trkpt lat="51.087677" lon="4.956534"><ele>14.25</ele><time>2025-05-24T10:20:58Z</time></trkpt>
<trkpt lat="51.087545" lon="4.956308"><ele>14.68</ele><time>2025-05-24T10:21:03Z</time></trkpt>
<trkpt lat="51.087" lon="4.955192"><ele>12.8</ele><time>2025-05-24T10:21:08Z</time></trkpt>
<trkpt lat="51.086871" lon="4.955071"><ele>13.26</ele><time>2025-05-24T10:21:13Z</time></trkpt>
<trkpt lat="51.086782" lon="4.95504"><ele>13.59</ele><time>2025-05-24T10:21:18Z</time></trkpt>
<trkpt lat="51.08605" lon="4.955019"><ele>16.78</ele><time>2025-05-24T10:21:22Z</time></trkpt>
<trkpt lat="51.085774" lon="4.954955"><ele>15.87</ele><time>2025-05-24T10:21:27Z</time></trkpt>
<trkpt lat="51.085514" lon="4.954863"><ele>16.08</ele><time>2025-05-24T10:21:32Z</time></trkpt>
<trkpt lat="51.084326" lon="4.953783"><ele>15.77</ele><time>2025-05-24T10:21:37Z</time></trkpt>
<trkpt lat="51.082646" lon="4.952307"><ele>14.85</ele><time>2025-05-24T10:21:42Z</time></trkpt>
<trkpt lat="51.082605" lon="4.952145"><ele>15.17</ele><time>2025-05-24T10:21:46Z</time></trkpt>
<trkpt lat="51.080112" lon="4.953736"><ele>13.67</ele><time>2025-05-24T10:21:57Z</time></trkpt>
<trkpt lat="51.079718" lon="4.954075"><ele>14.0</ele><time>2025-05-24T10:22:07Z</time></trkpt>
<trkpt lat="51.079391" lon="4.954401"><ele>14.87</ele><time>2025-05-24T10:22:17Z</time></trkpt>
<trkpt lat="51.079027" lon="4.954845"><ele>15.28</ele><time>2025-05-24T10:22:27Z</time></trkpt>
<trkpt lat="51.077986" lon="4.956326"><ele>13.75</ele><time>2025-05-24T10:22:37Z</time></trkpt>
<trkpt lat="51.077953" lon="4.956284"><ele>13.63</ele><time>2025-05-24T10:22:45Z</time></trkpt>
<trkpt lat="51.077882" lon="4.956281"><ele>13.38</ele><time>2025-05-24T10:22:53Z</time></trkpt>
<trkpt lat="51.077112" lon="4.956611"><ele>16.4</ele><time>2025-05-24T10:23:01Z</time></trkpt>
<trkpt lat="51.076076" lon="4.956995"><ele>20.21</ele><time>2025-05-24T10:23:09Z</time></trkpt>
<trkpt lat="51.075978" lon="4.957004"><ele>19.85</ele><time>2025-05-24T10:23:17Z</time></trkpt>
<trkpt lat="51.074862" lon="4.956358"><ele>17.0</ele><time>2025-05-24T10:23:25Z</time></trkpt>
<trkpt lat="51.074076" lon="4.955419"><ele>13.84</ele><time>2025-05-24T10:23:30Z</time></trkpt>
<trkpt lat="51.073054" lon="4.954145"><ele>15.0</ele><time>2025-05-24T10:23:34Z</time></trkpt>
<trkpt lat="51.072725" lon="4.953521"><ele>15.19</ele><time>2025-05-24T10:23:39Z</time></trkpt>
<trkpt lat="51.072693" lon="4.953385"><ele>15.31</ele><time>2025-05-24T10:23:43Z</time></trkpt>
<trkpt lat="51.072677" lon="4.953153"><ele>14.48</ele><time>2025-05-24T10:23:47Z</time></trkpt>
<trkpt lat="51.072654" lon="4.9514"><ele>16.51</ele><time>2025-05-24T10:23:52Z</time></trkpt>
<trkpt lat="51.072662" lon="4.95042"><ele>15.83</ele><time>2025-05-24T10:23:56Z</time></trkpt>
<trkpt lat="51.07265" lon="4.950071"><ele>15.92</ele><time>2025-05-24T10:24:01Z</time></trkpt>
<trkpt lat="51.072404" lon="4.947541"><ele>15.9</ele><time>2025-05-24T10:24:05Z</time></trkpt>
<trkpt lat="51.072335" lon="4.947091"><ele>15.34</ele><time>2025-05-24T10:24:10Z</time></trkpt>
<trkpt lat="51.071717" lon="4.944071"><ele>13.0</ele><time>2025-05-24T10:24:14Z</time></trkpt>
<trkpt lat="51.071635" lon="4.943717"><ele>13.69</ele><time>2025-05-24T10:24:18Z</time></trkpt>
<trkpt lat="51.071468" lon="4.943154"><ele>15.53</ele><time>2025-05-24T10:24:23Z</time></trkpt>
<trkpt lat="51.071448" lon="4.943012"><ele>15.57</ele><time>2025-05-24T10:24:27Z</time></trkpt>
<trkpt lat="51.07146" lon="4.942847"><ele>15.49</ele><time>2025-05-24T10:24:32Z</time></trkpt>
<trkpt lat="51.07173" lon="4.941944"><ele>14.77</ele><time>2025-05-24T10:24:36Z</time></trkpt>
<trkpt lat="51.071799" lon="4.941783"><ele>14.8</ele><time>2025-05-24T10:24:40Z</time></trkpt>
<trkpt lat="51.072226" lon="4.941291"><ele>15.99</ele><time>2025-05-24T10:24:45Z</time></trkpt>
<trkpt lat="51.072251" lon="4.94123"><ele>15.9</ele><time>2025-05-24T10:24:49Z</time></trkpt>
<trkpt lat="51.072194" lon="4.940956"><ele>16.56</ele><time>2025-05-24T10:24:53Z</time></trkpt>
<trkpt lat="51.072013" lon="4.940446"><ele>17.3</ele><time>2025-05-24T10:24:57Z</time></trkpt>
<trkpt lat="51.071862" lon="4.940132"><ele>18.16</ele><time>2025-05-24T10:25:00Z</time></trkpt>
<trkpt lat="51.071253" lon="4.939049"><ele>19.0</ele><time>2025-05-24T10:25:04Z</time></trkpt>
<trkpt lat="51.071105" lon="4.938745"><ele>19.51</ele><time>2025-05-24T10:25:07Z</time></trkpt>
<trkpt lat="51.070876" lon="4.938171"><ele>20.85</ele><time>2025-05-24T10:25:11Z</time></trkpt>
<trkpt lat="51.070776" lon="4.937972"><ele>21.0</ele><time>2025-05-24T10:25:15Z</time></trkpt>
<trkpt lat="51.07071" lon="4.937921"><ele>21.0</ele><time>2025-05-24T10:25:18Z</time></trkpt>
<trkpt lat="51.070557" lon="4.9379"><ele>21.0</ele><time>2025-05-24T10:25:22Z</time></trkpt>
<trkpt lat="51.070014" lon="4.937976"><ele>19.37</ele><time>2025-05-24T10:25:26Z</time></trkpt>
<trkpt lat="51.069682" lon="4.937887"><ele>15.62</ele><time>2025-05-24T10:25:29Z</time></trkpt>
<trkpt lat="51.069508" lon="4.937872"><ele>13.95</ele><time>2025-05-24T10:25:33Z</time></trkpt>
<trkpt lat="51.068833" lon="4.938176"><ele>13.98</ele><time>2025-05-24T10:25:37Z</time></trkpt>
<trkpt lat="51.068782" lon="4.938172"><ele>14.06</ele><time>2025-05-24T10:25:40Z</time></trkpt>
<trkpt lat="51.068743" lon="4.93813"><ele>13.92</ele><time>2025-05-24T10:25:44Z</time></trkpt>
<trkpt lat="51.068554" lon="4.937665"><ele>12.8</ele><time>2025-05-24T10:25:47Z</time></trkpt>
<trkpt lat="51.068457" lon="4.937339"><ele>11.97</ele><time>2025-05-24T10:25:51Z</time></trkpt>
<trkpt lat="51.068414" lon="4.937008"><ele>11.16</ele><time>2025-05-24T10:25:55Z</time></trkpt>
<trkpt lat="51.068402" lon="4.936755"><ele>11.0</ele><time>2025-05-24T10:25:58Z</time></trkpt>
<trkpt lat="51.06841" lon="4.936529"><ele>11.5</ele><time>2025-05-24T10:26:02Z</time></trkpt>
<trkpt lat="51.068376" lon="4.936251"><ele>12.5</ele><time>2025-05-24T10:26:06Z</time></trkpt>
<trkpt lat="51.068272" lon="4.936015"><ele>13.42</ele><time>2025-05-24T10:26:09Z</time></trkpt>
<trkpt lat="51.068197" lon="4.935937"><ele>13.93</ele><time>2025-05-24T10:26:13Z</time></trkpt>
<trkpt lat="51.067885" lon="4.935807"><ele>15.71</ele><time>2025-05-24T10:26:17Z</time></trkpt>
<trkpt lat="51.067517" lon="4.935537"><ele>16.13</ele><time>2025-05-24T10:26:20Z</time></trkpt>
<trkpt lat="51.067455" lon="4.935522"><ele>15.96</ele><time>2025-05-24T10:26:24Z</time></trkpt>
<trkpt lat="51.067349" lon="4.935621"><ele>15.35</ele><time>2025-05-24T10:26:27Z</time></trkpt>
<trkpt lat="51.066626" lon="4.936779"><ele>15.0</ele><time>2025-05-24T10:26:31Z</time></trkpt>
<trkpt lat="51.066533" lon="4.936884"><ele>15.0</ele><time>2025-05-24T10:26:35Z</time></trkpt>
<trkpt lat="51.06594" lon="4.937433"><ele>17.61</ele><time>2025-05-24T10:26:38Z</time></trkpt>
<trkpt lat="51.06561" lon="4.937696"><ele>18.14</ele><time>2025-05-24T10:26:42Z</time></trkpt>
<trkpt lat="51.06548" lon="4.937771"><ele>17.74</ele><time>2025-05-24T10:26:46Z</time></trkpt>
<trkpt lat="51.065205" lon="4.937834"><ele>16.74</ele><time>2025-05-24T10:26:49Z</time></trkpt>
<trkpt lat="51.065123" lon="4.937892"><ele>16.44</ele><time>2025-05-24T10:26:53Z</time></trkpt>
<trkpt lat="51.064313" lon="4.938798"><ele>15.85</ele><time>2025-05-24T10:26:57Z</time></trkpt>
<trkpt lat="51.063975" lon="4.938965"><ele>15.0</ele><time>2025-05-24T10:27:00Z</time></trkpt>
<trkpt lat="51.063772" lon="4.939097"><ele>15.1</ele><time>2025-05-24T10:27:04Z</time></trkpt>
<trkpt lat="51.063169" lon="4.939573"><ele>17.18</ele><time>2025-05-24T10:27:08Z</time></trkpt>
<trkpt lat="51.062627" lon="4.938563"><ele>15.91</ele><time>2025-05-24T10:27:16Z</time></trkpt>
<trkpt lat="51.062298" lon="4.937797"><ele>15.73</ele><time>2025-05-24T10:27:25Z</time></trkpt>
<trkpt lat="51.062212" lon="4.937467"><ele>17.04</ele><time>2025-05-24T10:27:33Z</time></trkpt>
<trkpt lat="51.062109" lon="4.936788"><ele>16.41</ele><time>2025-05-24T10:27:42Z</time></trkpt>
<trkpt lat="51.061836" lon="4.935319"><ele>15.39</ele><time>2025-05-24T10:27:51Z</time></trkpt>
<trkpt lat="51.061537" lon="4.933914"><ele>20.42</ele><time>2025-05-24T10:27:59Z</time></trkpt>
<trkpt lat="51.061467" lon="4.933747"><ele>20.72</ele><time>2025-05-24T10:28:08Z</time></trkpt>
<trkpt lat="51.06138" lon="4.933623"><ele>20.97</ele><time>2025-05-24T10:28:16Z</time></trkpt>
<trkpt lat="51.06129" lon="4.933415"><ele>20.64</ele><time>2025-05-24T10:28:25Z</time></trkpt>
<trkpt lat="51.061238" lon="4.933216"><ele>20.03</ele><time>2025-05-24T10:28:34Z</time></trkpt>
<trkpt lat="51.061101" lon="4.932366"><ele>17.94</ele><time>2025-05-24T10:28:42Z</time></trkpt>
<trkpt lat="51.060948" lon="4.931705"><ele>16.82</ele><time>2025-05-24T10:28:51Z</time></trkpt>
<trkpt lat="51.060711" lon="4.930779"><ele>17.0</ele><time>2025-05-24T10:29:00Z</time></trkpt>
<trkpt lat="51.060316" lon="4.929396"><ele>19.07</ele><time>2025-05-24T10:29:08Z</time></trkpt>
<trkpt lat="51.060235" lon="4.929058"><ele>23.11</ele><time>2025-05-24T10:29:17Z</time></trkpt>
<trkpt lat="51.060248" lon="4.9289"><ele>23.78</ele><time>2025-05-24T10:29:25Z</time></trkpt>
<trkpt lat="51.059868" lon="4.926011"><ele>32.44</ele><time>2025-05-24T10:29:34Z</time></trkpt>
<trkpt lat="51.059754" lon="4.924667"><ele>29.74</ele><time>2025-05-24T10:29:43Z</time></trkpt>
<trkpt lat="51.059719" lon="4.924546"><ele>28.72</ele><time>2025-05-24T10:29:51Z</time></trkpt>
<trkpt lat="51.059356" lon="4.923903"><ele>25.99</ele><time>2025-05-24T10:30:00Z</time></trkpt>
<trkpt lat="51.058437" lon="4.918846"><ele>35.68</ele><time>2025-05-24T10:30:09Z</time></trkpt>
<trkpt lat="51.057944" lon="4.915971"><ele>40.81</ele><time>2025-05-24T10:30:17Z</time></trkpt>
<trkpt lat="51.057438" lon="4.913156"><ele>42.81</ele><time>2025-05-24T10:30:26Z</time></trkpt>
<trkpt lat="51.061237" lon="4.91187"><ele>37.78</ele><time>2025-05-24T10:30:35Z</time></trkpt>
<trkpt lat="51.062382" lon="4.911516"><ele>39.76</ele><time>2025-05-24T10:30:45Z</time></trkpt>
<trkpt lat="51.062712" lon="4.911437"><ele>35.92</ele><time>2025-05-24T10:30:54Z</time></trkpt>
<trkpt lat="51.062908" lon="4.911268"><ele>35.0</ele><time>2025-05-24T10:31:04Z</time></trkpt>
<trkpt lat="51.063476" lon="4.910996"><ele>35.83</ele><time>2025-05-24T10:31:13Z</time></trkpt>
<trkpt lat="51.063894" lon="4.910735"><ele>35.31</ele><time>2025-05-24T10:31:23Z</time></trkpt>
<trkpt lat="51.064535" lon="4.910077"><ele>28.28</ele><time>2025-05-24T10:31:32Z</time></trkpt>
<trkpt lat="51.065077" lon="4.909485"><ele>28.14</ele><time>2025-05-24T10:31:41Z</time></trkpt>
<trkpt lat="51.065244" lon="4.909332"><ele>27.55</ele><time>2025-05-24T10:31:51Z</time></trkpt>
<trkpt lat="51.066274" lon="4.908681"><ele>22.51</ele><time>2025-05-24T10:32:00Z</time></trkpt>
<trkpt lat="51.066379" lon="4.908506"><ele>22.03</ele><time>2025-05-24T10:32:10Z</time></trkpt>
<trkpt lat="51.066414" lon="4.90839"><ele>22.0</ele><time>2025-05-24T10:32:19Z</time></trkpt>
<trkpt lat="51.066721" lon="4.906759"><ele>20.0</ele><time>2025-05-24T10:32:29Z</time></trkpt>
<trkpt lat="51.067349" lon="4.906993"><ele>20.65</ele><time>2025-05-24T10:32:35Z</time></trkpt>
<trkpt lat="51.067494" lon="4.90699"><ele>20.98</ele><time>2025-05-24T10:32:41Z</time></trkpt>
<trkpt lat="51.068581" lon="4.906591"><ele>22.19</ele><time>2025-05-24T10:32:47Z</time></trkpt>
<trkpt lat="51.069063" lon="4.906285"><ele>21.37</ele><time>2025-05-24T10:32:53Z</time></trkpt>
<trkpt lat="51.069151" lon="4.906255"><ele>21.06</ele><time>2025-05-24T10:32:59Z</time></trkpt>
<trkpt lat="51.069151" lon="4.906255"><ele>21.06</ele><time>2025-05-24T10:32:59Z</time></trkpt>
<trkpt lat="51.069063" lon="4.906285"><ele>21.37</ele><time>2025-05-24T10:33:05Z</time></trkpt>
<trkpt lat="51.068581" lon="4.906591"><ele>22.19</ele><time>2025-05-24T10:33:11Z</time></trkpt>
<trkpt lat="51.067494" lon="4.90699"><ele>20.98</ele><time>2025-05-24T10:33:17Z</time></trkpt>
<trkpt lat="51.067349" lon="4.906993"><ele>20.65</ele><time>2025-05-24T10:33:23Z</time></trkpt>
<trkpt lat="51.066721" lon="4.906759"><ele>20.0</ele><time>2025-05-24T10:33:29Z</time></trkpt>
<trkpt lat="51.066414" lon="4.90839"><ele>22.0</ele><time>2025-05-24T10:33:39Z</time></trkpt>
<trkpt lat="51.066379" lon="4.908506"><ele>22.03</ele><time>2025-05-24T10:33:48Z</time></trkpt>
<trkpt lat="51.066274" lon="4.908681"><ele>22.51</ele><time>2025-05-24T10:33:58Z</time></trkpt>
<trkpt lat="51.065244" lon="4.909332"><ele>27.55</ele><time>2025-05-24T10:34:07Z</time></trkpt>
<trkpt lat="51.065077" lon="4.909485"><ele>28.14</ele><time>2025-05-24T10:34:16Z</time></trkpt>
<trkpt lat="51.064535" lon="4.910077"><ele>28.28</ele><time>2025-05-24T10:34:26Z</time></trkpt>
<trkpt lat="51.063894" lon="4.910735"><ele>35.31</ele><time>2025-05-24T10:34:35Z</time></trkpt>
<trkpt lat="51.063476" lon="4.910996"><ele>35.83</ele><time>2025-05-24T10:34:45Z</time></trkpt>
<trkpt lat="51.062908" lon="4.911268"><ele>35.0</ele><time>2025-05-24T10:34:54Z</time></trkpt>
<trkpt lat="51.062712" lon="4.911437"><ele>35.92</ele><time>2025-05-24T10:35:04Z</time></trkpt>
<trkpt lat="51.062382" lon="4.911516"><ele>39.76</ele><time>2025-05-24T10:35:13Z</time></trkpt>
<trkpt lat="51.061237" lon="4.91187"><ele>37.78</ele><time>2025-05-24T10:35:23Z</time></trkpt>
<trkpt lat="51.057438" lon="4.913156"><ele>42.81</ele><time>2025-05-24T10:35:32Z</time></trkpt>
<trkpt lat="51.057944" lon="4.915971"><ele>40.81</ele><time>2025-05-24T10:35:47Z</time></trkpt>
<trkpt lat="51.058437" lon="4.918846"><ele>35.68</ele><time>2025-05-24T10:36:02Z</time></trkpt>
<trkpt lat="51.059356" lon="4.923903"><ele>25.99</ele><time>2025-05-24T10:36:16Z</time></trkpt>
<trkpt lat="51.059719" lon="4.924546"><ele>28.72</ele><time>2025-05-24T10:36:31Z</time></trkpt>
<trkpt lat="51.059754" lon="4.924667"><ele>29.74</ele><time>2025-05-24T10:36:46Z</time></trkpt>
<trkpt lat="51.059868" lon="4.926011"><ele>32.44</ele><time>2025-05-24T10:37:01Z</time></trkpt>
<trkpt lat="51.060248" lon="4.9289"><ele>23.78</ele><time>2025-05-24T10:37:15Z</time></trkpt>
<trkpt lat="51.060235" lon="4.929058"><ele>23.11</ele><time>2025-05-24T10:37:30Z</time></trkpt>
<trkpt lat="51.05914" lon="4.931499"><ele>26.08</ele><time>2025-05-24T10:37:42Z</time></trkpt>
<trkpt lat="51.054592" lon="4.941666"><ele>30.0</ele><time>2025-05-24T10:37:53Z</time></trkpt>
<trkpt lat="51.054461" lon="4.941904"><ele>29.1</ele><time>2025-05-24T10:38:05Z</time></trkpt>
<trkpt lat="51.054315" lon="4.94212"><ele>27.1</ele><time>2025-05-24T10:38:16Z</time></trkpt>
<trkpt lat="51.052409" lon="4.944593"><ele>32.81</ele><time>2025-05-24T10:38:28Z</time></trkpt>
<trkpt lat="51.051591" lon="4.945626"><ele>27.68</ele><time>2025-05-24T10:38:39Z</time></trkpt>
<trkpt lat="51.050967" lon="4.946388"><ele>20.52</ele><time>2025-05-24T10:38:51Z</time></trkpt>
<trkpt lat="51.05028" lon="4.947289"><ele>18.0</ele><time>2025-05-24T10:39:02Z</time></trkpt>
<trkpt lat="51.048184" lon="4.949958"><ele>15.93</ele><time>2025-05-24T10:39:14Z</time></trkpt>
<trkpt lat="51.047266" lon="4.951121"><ele>17.32</ele><time>2025-05-24T10:39:25Z</time></trkpt>
<trkpt lat="51.046843" lon="4.951691"><ele>17.78</ele><time>2025-05-24T10:39:37Z</time></trkpt>
<trkpt lat="51.046745" lon="4.951861"><ele>18.64</ele><time>2025-05-24T10:39:49Z</time></trkpt>
<trkpt lat="51.04645" lon="4.952394"><ele>17.44</ele><time>2025-05-24T10:40:00Z</time></trkpt>
<trkpt lat="51.044836" lon="4.95557"><ele>16.59</ele><time>2025-05-24T10:40:12Z</time></trkpt>
<trkpt lat="51.043659" lon="4.957934"><ele>16.0</ele><time>2025-05-24T10:40:23Z</time></trkpt>
<trkpt lat="51.04359" lon="4.95795"><ele>16.08</ele><time>2025-05-24T10:40:35Z</time></trkpt>
<trkpt lat="51.043468" lon="4.957923"><ele>16.51</ele><time>2025-05-24T10:40:46Z</time></trkpt>
<trkpt lat="51.043362" lon="4.958372"><ele>17.91</ele><time>2025-05-24T10:40:59Z</time></trkpt>
<trkpt lat="51.043251" lon="4.958708"><ele>18.1</ele><time>2025-05-24T10:41:11Z</time></trkpt>
<trkpt lat="51.043003" lon="4.959252"><ele>19.5</ele><time>2025-05-24T10:41:23Z</time></trkpt>
<trkpt lat="51.037053" lon="4.971201"><ele>26.72</ele><time>2025-05-24T10:41:35Z</time></trkpt>
<trkpt lat="51.036875" lon="4.971492"><ele>28.4</ele><time>2025-05-24T10:41:47Z</time></trkpt>
<trkpt lat="51.036624" lon="4.971804"><ele>31.57</ele><time>2025-05-24T10:41:59Z</time></trkpt>
<trkpt lat="51.03639" lon="4.972009"><ele>32.23</ele><time>2025-05-24T10:42:12Z</time></trkpt>
<trkpt lat="51.032013" lon="4.975238"><ele>34.49</ele><time>2025-05-24T10:42:24Z</time></trkpt>
<trkpt lat="51.031751" lon="4.975517"><ele>33.47</ele><time>2025-05-24T10:42:36Z</time></trkpt>
<trkpt lat="51.031529" lon="4.975831"><ele>32.0</ele><time>2025-05-24T10:42:48Z</time></trkpt>
<trkpt lat="51.030547" lon="4.977522"><ele>30.01</ele><time>2025-05-24T10:43:00Z</time></trkpt>
<trkpt lat="51.030446" lon="4.977379"><ele>29.04</ele><time>2025-05-24T10:43:09Z</time></trkpt>
<trkpt lat="51.030296" lon="4.977218"><ele>27.18</ele><time>2025-05-24T10:43:18Z</time></trkpt>
<trkpt lat="51.030075" lon="4.977057"><ele>24.94</ele><time>2025-05-24T10:43:27Z</time></trkpt>
<trkpt lat="51.027915" lon="4.975811"><ele>21.5</ele><time>2025-05-24T10:43:36Z</time></trkpt>
<trkpt lat="51.027557" lon="4.975579"><ele>21.0</ele><time>2025-05-24T10:43:45Z</time></trkpt>
<trkpt lat="51.027338" lon="4.975399"><ele>20.69</ele><time>2025-05-24T10:43:54Z</time></trkpt>
<trkpt lat="51.027076" lon="4.975096"><ele>19.87</ele><time>2025-05-24T10:44:03Z</time></trkpt>
<trkpt lat="51.026685" lon="4.974596"><ele>19.0</ele><time>2025-05-24T10:44:11Z</time></trkpt>
<trkpt lat="51.026475" lon="4.974271"><ele>19.19</ele><time>2025-05-24T10:44:20Z</time></trkpt>
<trkpt lat="51.026204" lon="4.973783"><ele>18.71</ele><time>2025-05-24T10:44:29Z</time></trkpt>
<trkpt lat="51.025459" lon="4.972044"><ele>17.23</ele><time>2025-05-24T10:44:38Z</time></trkpt>
<trkpt lat="51.025123" lon="4.971429"><ele>17.3</ele><time>2025-05-24T10:44:47Z</time></trkpt>
<trkpt lat="51.024646" lon="4.970767"><ele>19.17</ele><time>2025-05-24T10:44:56Z</time></trkpt>
<trkpt lat="51.022953" lon="4.968935"><ele>17.37</ele><time>2025-05-24T10:45:05Z</time></trkpt>
<trkpt lat="51.022708" lon="4.968619"><ele>17.99</ele><time>2025-05-24T10:45:14Z</time></trkpt>
<trkpt lat="51.022495" lon="4.968276"><ele>17.98</ele><time>2025-05-24T10:45:22Z</time></trkpt>
<trkpt lat="51.022315" lon="4.967913"><ele>17.33</ele><time>2025-05-24T10:45:31Z</time></trkpt>
<trkpt lat="51.022208" lon="4.967659"><ele>17.43</ele><time>2025-05-24T10:45:40Z</time></trkpt>
<trkpt lat="51.020994" lon="4.964187"><ele>16.43</ele><time>2025-05-24T10:45:49Z</time></trkpt>
<trkpt lat="51.020702" lon="4.963452"><ele>17.47</ele><time>2025-05-24T10:45:58Z</time></trkpt>
<trkpt lat="51.020425" lon="4.962807"><ele>17.0</ele><time>2025-05-24T10:46:07Z</time></trkpt>
<trkpt lat="51.0222" lon="4.961215"><ele>17.0</ele><time>2025-05-24T10:46:17Z</time></trkpt>
<trkpt lat="51.022508" lon="4.960919"><ele>17.0</ele><time>2025-05-24T10:46:28Z</time></trkpt>
<trkpt lat="51.022661" lon="4.960703"><ele>17.0</ele><time>2025-05-24T10:46:39Z</time></trkpt>
<trkpt lat="51.022753" lon="4.960524"><ele>17.1</ele><time>2025-05-24T10:46:49Z</time></trkpt>
<trkpt lat="51.022903" lon="4.960115"><ele>19.61</ele><time>2025-05-24T10:47:00Z</time></trkpt>
<trkpt lat="51.023847" lon="4.956632"><ele>33.21</ele><time>2025-05-24T10:47:10Z</time></trkpt>
<trkpt lat="51.024025" lon="4.956333"><ele>31.09</ele><time>2025-05-24T10:47:21Z</time></trkpt>
<trkpt lat="51.025062" lon="4.955259"><ele>27.16</ele><time>2025-05-24T10:47:32Z</time></trkpt>
<trkpt lat="51.025272" lon="4.9549"><ele>26.06</ele><time>2025-05-24T10:47:42Z</time></trkpt>
<trkpt lat="51.025272" lon="4.9549"><ele>26.06</ele><time>2025-05-24T10:47:42Z</time></trkpt>
<trkpt lat="51.02524" lon="4.954965"><ele>26.63</ele><time>2025-05-24T10:47:43Z</time></trkpt>
<trkpt lat="51.024839" lon="4.953698"><ele>22.89</ele><time>2025-05-24T10:47:53Z</time></trkpt>
<trkpt lat="51.024671" lon="4.953053"><ele>22.18</ele><time>2025-05-24T10:48:04Z</time></trkpt>
<trkpt lat="51.024566" lon="4.952383"><ele>23.0</ele><time>2025-05-24T10:48:14Z</time></trkpt>
<trkpt lat="51.024364" lon="4.950419"><ele>20.0</ele><time>2025-05-24T10:48:24Z</time></trkpt>
<trkpt lat="51.02423" lon="4.949775"><ele>20.0</ele><time>2025-05-24T10:48:35Z</time></trkpt>
<trkpt lat="51.024116" lon="4.949409"><ele>19.89</ele><time>2025-05-24T10:48:45Z</time></trkpt>
<trkpt lat="51.023503" lon="4.947989"><ele>20.39</ele><time>2025-05-24T10:48:56Z</time></trkpt>
<trkpt lat="51.023274" lon="4.94727"><ele>20.21</ele><time>2025-05-24T10:49:06Z</time></trkpt>
<trkpt lat="51.022935" lon="4.946074"><ele>19.57</ele><time>2025-05-24T10:49:16Z</time></trkpt>
<trkpt lat="51.022833" lon="4.945833"><ele>20.8</ele><time>2025-05-24T10:49:27Z</time></trkpt>
<trkpt lat="51.022787" lon="4.945682"><ele>20.98</ele><time>2025-05-24T10:49:37Z</time></trkpt>
<trkpt lat="51.022699" lon="4.945701"><ele>20.84</ele><time>2025-05-24T10:49:38Z</time></trkpt>
<trkpt lat="51.022699" lon="4.945701"><ele>20.84</ele><time>2025-05-24T10:49:38Z</time></trkpt>
<trkpt lat="51.022787" lon="4.945682"><ele>20.98</ele><time>2025-05-24T10:49:39Z</time></trkpt>
<trkpt lat="51.022725" lon="4.945479"><ele>20.81</ele><time>2025-05-24T10:49:48Z</time></trkpt>
<trkpt lat="51.02212" lon="4.944571"><ele>20.55</ele><time>2025-05-24T10:49:56Z</time></trkpt>
<trkpt lat="51.022025" lon="4.944369"><ele>21.27</ele><time>2025-05-24T10:50:05Z</time></trkpt>
<trkpt lat="51.02196" lon="4.944161"><ele>22.02</ele><time>2025-05-24T10:50:13Z</time></trkpt>
<trkpt lat="51.021912" lon="4.943919"><ele>23.13</ele><time>2025-05-24T10:50:22Z</time></trkpt>
<trkpt lat="51.021898" lon="4.943545"><ele>24.34</ele><time>2025-05-24T10:50:30Z</time></trkpt>
<trkpt lat="51.022127" lon="4.94195"><ele>21.67</ele><time>2025-05-24T10:50:39Z</time></trkpt>
<trkpt lat="51.022134" lon="4.941457"><ele>22.32</ele><time>2025-05-24T10:50:47Z</time></trkpt>
<trkpt lat="51.022097" lon="4.941116"><ele>22.45</ele><time>2025-05-24T10:50:55Z</time></trkpt>
<trkpt lat="51.022058" lon="4.94091"><ele>21.87</ele><time>2025-05-24T10:51:04Z</time></trkpt>
<trkpt lat="51.020695" lon="4.936354"><ele>21.2</ele><time>2025-05-24T10:51:12Z</time></trkpt>
<trkpt lat="51.020292" lon="4.934981"><ele>27.06</ele><time>2025-05-24T10:51:21Z</time></trkpt>
<trkpt lat="51.020011" lon="4.933835"><ele>21.92</ele><time>2025-05-24T10:51:29Z</time></trkpt>
<trkpt lat="51.019718" lon="4.932655"><ele>17.01</ele><time>2025-05-24T10:51:38Z</time></trkpt>
<trkpt lat="51.018906" lon="4.930491"><ele>17.99</ele><time>2025-05-24T10:51:46Z</time></trkpt>
<trkpt lat="51.01772" lon="4.927263"><ele>16.21</ele><time>2025-05-24T10:51:55Z</time></trkpt>
<trkpt lat="51.017658" lon="4.927129"><ele>17.15</ele><time>2025-05-24T10:52:03Z</time></trkpt>
<trkpt lat="51.016693" lon="4.927379"><ele>16.09</ele><time>2025-05-24T10:52:08Z</time></trkpt>
<trkpt lat="51.014655" lon="4.928181"><ele>15.13</ele><time>2025-05-24T10:52:13Z</time></trkpt>
<trkpt lat="51.012391" lon="4.929205"><ele>15.0</ele><time>2025-05-24T10:52:18Z</time></trkpt>
<trkpt lat="51.012351" lon="4.929241"><ele>15.46</ele><time>2025-05-24T10:52:23Z</time></trkpt>
<trkpt lat="51.012306" lon="4.929329"><ele>16.16</ele><time>2025-05-24T10:52:28Z</time></trkpt>
<trkpt lat="51.012294" lon="4.929461"><ele>16.74</ele><time>2025-05-24T10:52:33Z</time></trkpt>
<trkpt lat="51.012335" lon="4.929867"><ele>17.11</ele><time>2025-05-24T10:52:37Z</time></trkpt>
<trkpt lat="51.012326" lon="4.930271"><ele>17.63</ele><time>2025-05-24T10:52:42Z</time></trkpt>
<trkpt lat="51.012144" lon="4.931705"><ele>17.0</ele><time>2025-05-24T10:52:47Z</time></trkpt>
<trkpt lat="51.012056" lon="4.93241"><ele>16.0</ele><time>2025-05-24T10:52:52Z</time></trkpt>
<trkpt lat="51.011942" lon="4.93337"><ele>16.01</ele><time>2025-05-24T10:52:57Z</time></trkpt>
<trkpt lat="51.011932" lon="4.933723"><ele>16.07</ele><time>2025-05-24T10:53:02Z</time></trkpt>
<trkpt lat="51.011966" lon="4.934193"><ele>15.94</ele><time>2025-05-24T10:53:07Z</time></trkpt>
<trkpt lat="51.012132" lon="4.935317"><ele>14.95</ele><time>2025-05-24T10:53:12Z</time></trkpt>
<trkpt lat="51.012166" lon="4.93594"><ele>14.41</ele><time>2025-05-24T10:53:17Z</time></trkpt>
<trkpt lat="51.012165" lon="4.936251"><ele>13.79</ele><time>2025-05-24T10:53:22Z</time></trkpt>
<trkpt lat="51.012059" lon="4.937847"><ele>16.0</ele><time>2025-05-24T10:53:27Z</time></trkpt>
<trkpt lat="51.012061" lon="4.938467"><ele>15.42</ele><time>2025-05-24T10:53:32Z</time></trkpt>
<trkpt lat="51.012124" lon="4.939149"><ele>14.65</ele><time>2025-05-24T10:53:36Z</time></trkpt>
<trkpt lat="51.012231" lon="4.939867"><ele>14.02</ele><time>2025-05-24T10:53:41Z</time></trkpt>
<trkpt lat="51.012255" lon="4.940161"><ele>14.0</ele><time>2025-05-24T10:53:46Z</time></trkpt>
<trkpt lat="51.012258" lon="4.940783"><ele>14.13</ele><time>2025-05-24T10:53:51Z</time></trkpt>
<trkpt lat="51.012221" lon="4.941205"><ele>13.99</ele><time>2025-05-24T10:53:56Z</time></trkpt>
<trkpt lat="51.011991" lon="4.942869"><ele>14.17</ele><time>2025-05-24T10:54:01Z</time></trkpt>
<trkpt lat="51.011802" lon="4.944236"><ele>14.39</ele><time>2025-05-24T10:54:06Z</time></trkpt>
<trkpt lat="51.011612" lon="4.945663"><ele>15.2</ele><time>2025-05-24T10:54:11Z</time></trkpt>
<trkpt lat="51.011545" lon="4.946059"><ele>15.08</ele><time>2025-05-24T10:54:16Z</time></trkpt>
<trkpt lat="51.011422" lon="4.946514"><ele>14.6</ele><time>2025-05-24T10:54:21Z</time></trkpt>
<trkpt lat="51.011298" lon="4.946829"><ele>14.33</ele><time>2025-05-24T10:54:26Z</time></trkpt>
<trkpt lat="51.011079" lon="4.947224"><ele>15.0</ele><time>2025-05-24T10:54:30Z</time></trkpt>
<trkpt lat="51.010925" lon="4.947435"><ele>15.77</ele><time>2025-05-24T10:54:35Z</time></trkpt>
<trkpt lat="51.010629" lon="4.947716"><ele>16.2</ele><time>2025-05-24T10:54:40Z</time></trkpt>
<trkpt lat="51.009805" lon="4.948248"><ele>16.0</ele><time>2025-05-24T10:54:45Z</time></trkpt>
<trkpt lat="51.009609" lon="4.94835"><ele>15.59</ele><time>2025-05-24T10:54:50Z</time></trkpt>
<trkpt lat="51.009536" lon="4.948419"><ele>15.33</ele><time>2025-05-24T10:54:55Z</time></trkpt>
<trkpt lat="51.009498" lon="4.94851"><ele>15.19</ele><time>2025-05-24T10:55:00Z</time></trkpt>
<trkpt lat="51.009454" lon="4.948687"><ele>15.02</ele><time>2025-05-24T10:55:05Z</time></trkpt>
<trkpt lat="51.008737" lon="4.951692"><ele>18.45</ele><time>2025-05-24T10:55:10Z</time></trkpt>
<trkpt lat="51.008729" lon="4.951782"><ele>18.42</ele><time>2025-05-24T10:55:15Z</time></trkpt>
<trkpt lat="51.008913" lon="4.952688"><ele>18.91</ele><time>2025-05-24T10:55:20Z</time></trkpt>
<trkpt lat="51.008976" lon="4.953239"><ele>18.44</ele><time>2025-05-24T10:55:25Z</time></trkpt>
<trkpt lat="51.009014" lon="4.953976"><ele>18.9</ele><time>2025-05-24T10:55:29Z</time></trkpt>
<trkpt lat="51.009026" lon="4.954871"><ele>19.25</ele><time>2025-05-24T10:55:34Z</time></trkpt>
<trkpt lat="51.009002" lon="4.954999"><ele>19.22</ele><time>2025-05-24T10:55:39Z</time></trkpt>
<trkpt lat="51.008945" lon="4.95502"><ele>18.6</ele><time>2025-05-24T10:55:45Z</time></trkpt>
<trkpt lat="51.008587" lon="4.954923"><ele>17.66</ele><time>2025-05-24T10:55:51Z</time></trkpt>
<trkpt lat="51.008427" lon="4.954874"><ele>17.18</ele><time>2025-05-24T10:55:57Z</time></trkpt>
<trkpt lat="51.008137" lon="4.954748"><ele>17.0</ele><time>2025-05-24T10:56:03Z</time></trkpt>
<trkpt lat="51.007939" lon="4.95461"><ele>17.0</ele><time>2025-05-24T10:56:09Z</time></trkpt>
<trkpt lat="51.007706" lon="4.954367"><ele>16.46</ele><time>2025-05-24T10:56:15Z</time></trkpt>
<trkpt lat="51.007451" lon="4.954147"><ele>15.1</ele><time>2025-05-24T10:56:21Z</time></trkpt>
<trkpt lat="51.00715" lon="4.95394"><ele>15.41</ele><time>2025-05-24T10:56:27Z</time></trkpt>
<trkpt lat="51.006654" lon="4.953708"><ele>17.65</ele><time>2025-05-24T10:56:33Z</time></trkpt>
<trkpt lat="51.00273" lon="4.952594"><ele>15.34</ele><time>2025-05-24T10:56:39Z</time></trkpt>
<trkpt lat="51.002381" lon="4.952548"><ele>15.1</ele><time>2025-05-24T10:56:45Z</time></trkpt>
<trkpt lat="51.001876" lon="4.952534"><ele>15.15</ele><time>2025-05-24T10:56:51Z</time></trkpt>
<trkpt lat="51.001483" lon="4.952567"><ele>16.16</ele><time>2025-05-24T10:56:57Z</time></trkpt>
<trkpt lat="51.001219" lon="4.952626"><ele>17.06</ele><time>2025-05-24T10:57:03Z</time></trkpt>
<trkpt lat="51.000451" lon="4.952746"><ele>22.58</ele><time>2025-05-24T10:57:09Z</time></trkpt>
<trkpt lat="51.000173" lon="4.952746"><ele>26.42</ele><time>2025-05-24T10:57:15Z</time></trkpt>
<trkpt lat="50.999745" lon="4.95268"><ele>30.14</ele><time>2025-05-24T10:57:21Z</time></trkpt>
<trkpt lat="50.999311" lon="4.952541"><ele>29.96</ele><time>2025-05-24T10:57:27Z</time></trkpt>
<trkpt lat="50.996018" lon="4.951237"><ele>28.0</ele><time>2025-05-24T10:57:33Z</time></trkpt>
<trkpt lat="50.995614" lon="4.951147"><ele>28.0</ele><time>2025-05-24T10:57:39Z</time></trkpt>
<trkpt lat="50.995122" lon="4.951159"><ele>27.0</ele><time>2025-05-24T10:57:45Z</time></trkpt>
<trkpt lat="50.993561" lon="4.951431"><ele>29.69</ele><time>2025-05-24T10:57:51Z</time></trkpt>
<trkpt lat="50.993413" lon="4.951473"><ele>29.2</ele><time>2025-05-24T10:57:57Z</time></trkpt>
<trkpt lat="50.993108" lon="4.951593"><ele>29.0</ele><time>2025-05-24T10:58:03Z</time></trkpt>
<trkpt lat="50.991976" lon="4.952153"><ele>31.69</ele><time>2025-05-24T10:58:09Z</time></trkpt>
<trkpt lat="50.991492" lon="4.952251"><ele>31.37</ele><time>2025-05-24T10:58:15Z</time></trkpt>
<trkpt lat="50.990981" lon="4.952222"><ele>31.47</ele><time>2025-05-24T10:58:21Z</time></trkpt>
<trkpt lat="50.990676" lon="4.952285"><ele>33.0</ele><time>2025-05-24T10:58:27Z</time></trkpt>
<trkpt lat="50.990359" lon="4.952444"><ele>34.62</ele><time>2025-05-24T10:58:33Z</time></trkpt>
<trkpt lat="50.98937" lon="4.953226"><ele>35.55</ele><time>2025-05-24T10:58:39Z</time></trkpt>
<trkpt lat="50.988908" lon="4.953524"><ele>35.07</ele><time>2025-05-24T10:58:45Z</time></trkpt>
<trkpt lat="50.987966" lon="4.954006"><ele>38.65</ele><time>2025-05-24T10:58:51Z</time></trkpt>
<trkpt lat="50.987585" lon="4.954283"><ele>40.56</ele><time>2025-05-24T10:58:57Z</time></trkpt>
<trkpt lat="50.987202" lon="4.954656"><ele>42.37</ele><time>2025-05-24T10:59:03Z</time></trkpt>
<trkpt lat="50.986112" lon="4.955882"><ele>46.82</ele><time>2025-05-24T10:59:09Z</time></trkpt>
<trkpt lat="50.986112" lon="4.955882"><ele>46.82</ele><time>2025-05-24T10:59:09Z</time></trkpt>
<trkpt lat="50.985745" lon="4.956159"><ele>47.94</ele><time>2025-05-24T10:59:24Z</time></trkpt>
<trkpt lat="50.982772" lon="4.95799"><ele>50.0</ele><time>2025-05-24T10:59:39Z</time></trkpt>
<trkpt lat="50.9825" lon="4.958156"><ele>50.36</ele><time>2025-05-24T10:59:55Z</time></trkpt>
<trkpt lat="50.980271" lon="4.959612"><ele>51.41</ele><time>2025-05-24T11:00:10Z</time></trkpt>
<trkpt lat="50.979895" lon="4.959841"><ele>51.78</ele><time>2025-05-24T11:00:25Z</time></trkpt>
<trkpt lat="50.97906" lon="4.96029"><ele>50.95</ele><time>2025-05-24T11:00:41Z</time></trkpt>
<trkpt lat="50.978253" lon="4.948543"><ele>47.71</ele><time>2025-05-24T11:01:40Z</time></trkpt>
<trkpt lat="50.978206" lon="4.94855"><ele>47.54</ele><time>2025-05-24T11:01:45Z</time></trkpt>
<trkpt lat="50.978071" lon="4.948566"><ele>47.06</ele><time>2025-05-24T11:01:51Z</time></trkpt>
<trkpt lat="50.977978" lon="4.948488"><ele>47.28</ele><time>2025-05-24T11:01:56Z</time></trkpt>
<trkpt lat="50.977885" lon="4.948196"><ele>47.61</ele><time>2025-05-24T11:02:01Z</time></trkpt>
<trkpt lat="50.976855" lon="4.946685"><ele>50.32</ele><time>2025-05-24T11:02:07Z</time></trkpt>
<trkpt lat="50.976097" lon="4.9454"><ele>50.52</ele><time>2025-05-24T11:02:12Z</time></trkpt>
<trkpt lat="50.975897" lon="4.945165"><ele>51.54</ele><time>2025-05-24T11:02:18Z</time></trkpt>
<trkpt lat="50.975128" lon="4.944399"><ele>54.7</ele><time>2025-05-24T11:02:23Z</time></trkpt>
<trkpt lat="50.974359" lon="4.943526"><ele>52.17</ele><time>2025-05-24T11:02:29Z</time></trkpt>
<trkpt lat="50.973979" lon="4.943241"><ele>50.56</ele><time>2025-05-24T11:02:34Z</time></trkpt>
<trkpt lat="50.973851" lon="4.943132"><ele>50.31</ele><time>2025-05-24T11:02:39Z</time></trkpt>
<trkpt lat="50.973745" lon="4.943008"><ele>49.83</ele><time>2025-05-24T11:02:45Z</time></trkpt>
<trkpt lat="50.973332" lon="4.942415"><ele>49.0</ele><time>2025-05-24T11:02:50Z</time></trkpt>
<trkpt lat="50.972929" lon="4.941911"><ele>48.33</ele><time>2025-05-24T11:02:56Z</time></trkpt>
<trkpt lat="50.972585" lon="4.941255"><ele>49.08</ele><time>2025-05-24T11:03:01Z</time></trkpt>
<trkpt lat="50.972485" lon="4.941095"><ele>50.05</ele><time>2025-05-24T11:03:06Z</time></trkpt>
<trkpt lat="50.971854" lon="4.940347"><ele>51.65</ele><time>2025-05-24T11:03:12Z</time></trkpt>
<trkpt lat="50.971751" lon="4.940195"><ele>51.4</ele><time>2025-05-24T11:03:17Z</time></trkpt>
<trkpt lat="50.971599" lon="4.939893"><ele>51.68</ele><time>2025-05-24T11:03:23Z</time></trkpt>
<trkpt lat="50.971595" lon="4.939879"><ele>52.18</ele><time>2025-05-24T11:03:28Z</time></trkpt>
<trkpt lat="50.971595" lon="4.939879"><ele>52.18</ele><time>2025-05-24T11:03:28Z</time></trkpt>
<trkpt lat="50.971518" lon="4.93962"><ele>52.68</ele><time>2025-05-24T11:03:33Z</time></trkpt>
<trkpt lat="50.971397" lon="4.938941"><ele>52.09</ele><time>2025-05-24T11:03:38Z</time></trkpt>
<trkpt lat="50.971256" lon="4.938498"><ele>51.55</ele><time>2025-05-24T11:03:42Z</time></trkpt>
<trkpt lat="50.971057" lon="4.938006"><ele>50.41</ele><time>2025-05-24T11:03:47Z</time></trkpt>
<trkpt lat="50.970526" lon="4.936872"><ele>49.95</ele><time>2025-05-24T11:03:52Z</time></trkpt>
<trkpt lat="50.970277" lon="4.936386"><ele>50.0</ele><time>2025-05-24T11:03:57Z</time></trkpt>
<trkpt lat="50.970007" lon="4.935973"><ele>49.51</ele><time>2025-05-24T11:04:02Z</time></trkpt>
<trkpt lat="50.969399" lon="4.935132"><ele>44.04</ele><time>2025-05-24T11:04:07Z</time></trkpt>
<trkpt lat="50.969296" lon="4.935338"><ele>45.53</ele><time>2025-05-24T11:04:12Z</time></trkpt>
<trkpt lat="50.969192" lon="4.935481"><ele>46.53</ele><time>2025-05-24T11:04:18Z</time></trkpt>
<trkpt lat="50.967585" lon="4.937074"><ele>49.99</ele><time>2025-05-24T11:04:24Z</time></trkpt>
<trkpt lat="50.96713" lon="4.937499"><ele>47.33</ele><time>2025-05-24T11:04:29Z</time></trkpt>
<trkpt lat="50.966812" lon="4.937767"><ele>46.48</ele><time>2025-05-24T11:04:35Z</time></trkpt>
<trkpt lat="50.965351" lon="4.938715"><ele>42.83</ele><time>2025-05-24T11:04:41Z</time></trkpt>
<trkpt lat="50.965008" lon="4.938869"><ele>43.0</ele><time>2025-05-24T11:04:46Z</time></trkpt>
<trkpt lat="50.964089" lon="4.939106"><ele>41.72</ele><time>2025-05-24T11:04:52Z</time></trkpt>
<trkpt lat="50.964041" lon="4.93915"><ele>41.55</ele><time>2025-05-24T11:04:58Z</time></trkpt>
<trkpt lat="50.964022" lon="4.939214"><ele>41.65</ele><time>2025-05-24T11:05:03Z</time></trkpt>
<trkpt lat="50.964064" lon="4.939951"><ele>44.13</ele><time>2025-05-24T11:05:09Z</time></trkpt>
<trkpt lat="50.963987" lon="4.940139"><ele>44.97</ele><time>2025-05-24T11:05:15Z</time></trkpt>
<trkpt lat="50.964071" lon="4.940281"><ele>44.7</ele><time>2025-05-24T11:05:23Z</time></trkpt>
<trkpt lat="50.964098" lon="4.940383"><ele>44.88</ele><time>2025-05-24T11:05:32Z</time></trkpt>
<trkpt lat="50.964176" lon="4.941448"><ele>45.01</ele><time>2025-05-24T11:05:41Z</time></trkpt>
<trkpt lat="50.964225" lon="4.941727"><ele>45.38</ele><time>2025-05-24T11:05:49Z</time></trkpt>
<trkpt lat="50.964451" lon="4.942604"><ele>47.35</ele><time>2025-05-24T11:05:58Z</time></trkpt>
<trkpt lat="50.964559" lon="4.943086"><ele>47.59</ele><time>2025-05-24T11:06:07Z</time></trkpt>
<trkpt lat="50.965038" lon="4.946382"><ele>51.0</ele><time>2025-05-24T11:06:15Z</time></trkpt>
<trkpt lat="50.965339" lon="4.948216"><ele>53.55</ele><time>2025-05-24T11:06:24Z</time></trkpt>
<trkpt lat="50.965362" lon="4.948589"><ele>53.3</ele><time>2025-05-24T11:06:32Z</time></trkpt>
<trkpt lat="50.965349" lon="4.949648"><ele>53.26</ele><time>2025-05-24T11:06:41Z</time></trkpt>
<trkpt lat="50.965329" lon="4.950093"><ele>54.46</ele><time>2025-05-24T11:06:50Z</time></trkpt>
<trkpt lat="50.965262" lon="4.95081"><ele>55.94</ele><time>2025-05-24T11:06:58Z</time></trkpt>
<trkpt lat="50.965235" lon="4.951328"><ele>56.85</ele><time>2025-05-24T11:07:07Z</time></trkpt>
<trkpt lat="50.96537" lon="4.952673"><ele>59.29</ele><time>2025-05-24T11:07:16Z</time></trkpt>
<trkpt lat="50.965451" lon="4.955037"><ele>62.62</ele><time>2025-05-24T11:07:24Z</time></trkpt>
<trkpt lat="50.965558" lon="4.955898"><ele>64.23</ele><time>2025-05-24T11:07:33Z</time></trkpt>
<trkpt lat="50.965675" lon="4.956589"><ele>65.31</ele><time>2025-05-24T11:07:42Z</time></trkpt>
<trkpt lat="50.965891" lon="4.957256"><ele>66.21</ele><time>2025-05-24T11:07:50Z</time></trkpt>
<trkpt lat="50.965984" lon="4.957696"><ele>67.25</ele><time>2025-05-24T11:07:59Z</time></trkpt>
<trkpt lat="50.966012" lon="4.957923"><ele>68.17</ele><time>2025-05-24T11:08:08Z</time></trkpt>
<trkpt lat="50.966046" lon="4.958656"><ele>70.89</ele><time>2025-05-24T11:08:16Z</time></trkpt>
<trkpt lat="50.966806" lon="4.96396"><ele>69.5</ele><time>2025-05-24T11:08:25Z</time></trkpt>
<trkpt lat="50.966833" lon="4.964142"><ele>69.6</ele><time>2025-05-24T11:08:33Z</time></trkpt>
<trkpt lat="50.96677" lon="4.964131"><ele>67.87</ele><time>2025-05-24T11:08:34Z</time></trkpt>
<trkpt lat="50.96677" lon="4.964131"><ele>67.87</ele><time>2025-05-24T11:08:34Z</time></trkpt>
<trkpt lat="50.965519" lon="4.963418"><ele>65.82</ele><time>2025-05-24T11:08:41Z</time></trkpt>
<trkpt lat="50.965345" lon="4.963439"><ele>64.95</ele><time>2025-05-24T11:08:48Z</time></trkpt>
<trkpt lat="50.965205" lon="4.963538"><ele>64.19</ele><time>2025-05-24T11:08:55Z</time></trkpt>
<trkpt lat="50.965115" lon="4.963642"><ele>63.89</ele><time>2025-05-24T11:09:02Z</time></trkpt>
<trkpt lat="50.964944" lon="4.963897"><ele>63.0</ele><time>2025-05-24T11:09:09Z</time></trkpt>
<trkpt lat="50.964849" lon="4.963993"><ele>63.0</ele><time>2025-05-24T11:09:16Z</time></trkpt>
<trkpt lat="50.96454" lon="4.964172"><ele>62.34</ele><time>2025-05-24T11:09:23Z</time></trkpt>
<trkpt lat="50.963514" lon="4.964452"><ele>57.3</ele><time>2025-05-24T11:09:30Z</time></trkpt>
<trkpt lat="50.963257" lon="4.964484"><ele>55.76</ele><time>2025-05-24T11:09:36Z</time></trkpt>
<trkpt lat="50.963073" lon="4.964464"><ele>55.13</ele><time>2025-05-24T11:09:43Z</time></trkpt>
<trkpt lat="50.962881" lon="4.964403"><ele>54.85</ele><time>2025-05-24T11:09:50Z</time></trkpt>
<trkpt lat="50.962684" lon="4.9643"><ele>54.48</ele><time>2025-05-24T11:09:57Z</time></trkpt>
<trkpt lat="50.961716" lon="4.963696"><ele>52.53</ele><time>2025-05-24T11:10:04Z</time></trkpt>
<trkpt lat="50.960905" lon="4.963252"><ele>48.18</ele><time>2025-05-24T11:10:11Z</time></trkpt>
<trkpt lat="50.958783" lon="4.962175"><ele>46.83</ele><time>2025-05-24T11:10:18Z</time></trkpt>
<trkpt lat="50.958513" lon="4.962093"><ele>46.18</ele><time>2025-05-24T11:10:25Z</time></trkpt>
<trkpt lat="50.955705" lon="4.961463"><ele>43.14</ele><time>2025-05-24T11:10:32Z</time></trkpt>
<trkpt lat="50.953669" lon="4.960999"><ele>44.6</ele><time>2025-05-24T11:10:39Z</time></trkpt>
<trkpt lat="50.953239" lon="4.960826"><ele>45.0</ele><time>2025-05-24T11:10:46Z</time></trkpt>
<trkpt lat="50.952779" lon="4.960548"><ele>44.97</ele><time>2025-05-24T11:10:53Z</time></trkpt>
<trkpt lat="50.952307" lon="4.960165"><ele>45.69</ele><time>2025-05-24T11:11:00Z</time></trkpt>
<trkpt lat="50.951945" lon="4.959774"><ele>46.81</ele><time>2025-05-24T11:11:07Z</time></trkpt>
<trkpt lat="50.949705" lon="4.956954"><ele>40.91</ele><time>2025-05-24T11:11:14Z</time></trkpt>
<trkpt lat="50.949512" lon="4.956077"><ele>37.21</ele><time>2025-05-24T11:11:35Z</time></trkpt>
<trkpt lat="50.949226" lon="4.955796"><ele>37.0</ele><time>2025-05-24T11:11:37Z</time></trkpt>
<trkpt lat="50.949107" lon="4.95576"><ele>37.21</ele><time>2025-05-24T11:11:39Z</time></trkpt>
<trkpt lat="50.948974" lon="4.955764"><ele>37.69</ele><time>2025-05-24T11:11:42Z</time></trkpt>
<trkpt lat="50.948556" lon="4.955861"><ele>37.82</ele><time>2025-05-24T11:11:44Z</time></trkpt>
<trkpt lat="50.948437" lon="4.955981"><ele>37.71</ele><time>2025-05-24T11:11:46Z</time></trkpt>
<trkpt lat="50.948281" lon="4.95597"><ele>37.4</ele><time>2025-05-24T11:11:53Z</time></trkpt>
<trkpt lat="50.948055" lon="4.956001"><ele>37.0</ele><time>2025-05-24T11:12:00Z</time></trkpt>
<trkpt lat="50.945615" lon="4.956738"><ele>36.0</ele><time>2025-05-24T11:12:07Z</time></trkpt>
<trkpt lat="50.94519" lon="4.956797"><ele>36.32</ele><time>2025-05-24T11:12:14Z</time></trkpt>
<trkpt lat="50.944994" lon="4.956786"><ele>37.04</ele><time>2025-05-24T11:12:21Z</time></trkpt>
<trkpt lat="50.944745" lon="4.956734"><ele>38.83</ele><time>2025-05-24T11:12:28Z</time></trkpt>
<trkpt lat="50.944412" lon="4.956615"><ele>38.84</ele><time>2025-05-24T11:12:35Z</time></trkpt>
<trkpt lat="50.944144" lon="4.956473"><ele>38.97</ele><time>2025-05-24T11:12:42Z</time></trkpt>
<trkpt lat="50.942672" lon="4.9554"><ele>40.21</ele><time>2025-05-24T11:12:49Z</time></trkpt>
<trkpt lat="50.942325" lon="4.955213"><ele>41.0</ele><time>2025-05-24T11:12:56Z</time></trkpt>
<trkpt lat="50.941976" lon="4.955123"><ele>41.89</ele><time>2025-05-24T11:13:03Z</time></trkpt>
<trkpt lat="50.941836" lon="4.955105"><ele>42.39</ele><time>2025-05-24T11:13:10Z</time></trkpt>
<trkpt lat="50.941481" lon="4.955124"><ele>43.0</ele><time>2025-05-24T11:13:17Z</time></trkpt>
<trkpt lat="50.94093" lon="4.955206"><ele>44.56</ele><time>2025-05-24T11:13:24Z</time></trkpt>
<trkpt lat="50.939913" lon="4.955415"><ele>48.31</ele><time>2025-05-24T11:13:31Z</time></trkpt>
<trkpt lat="50.939447" lon="4.955546"><ele>49.0</ele><time>2025-05-24T11:13:38Z</time></trkpt>
<trkpt lat="50.939737" lon="4.956644"><ele>47.94</ele><time>2025-05-24T11:13:55Z</time></trkpt>
<trkpt lat="50.939994" lon="4.95747"><ele>48.02</ele><time>2025-05-24T11:14:11Z</time></trkpt>
<trkpt lat="50.942493" lon="4.96664"><ele>41.0</ele><time>2025-05-24T11:14:27Z</time></trkpt>
<trkpt lat="50.94266" lon="4.967263"><ele>41.0</ele><time>2025-05-24T11:14:43Z</time></trkpt>
<trkpt lat="50.941695" lon="4.968187"><ele>42.58</ele><time>2025-05-24T11:14:57Z</time></trkpt>
<trkpt lat="50.941502" lon="4.968329"><ele>42.98</ele><time>2025-05-24T11:15:10Z</time></trkpt>
<trkpt lat="50.941249" lon="4.96843"><ele>43.0</ele><time>2025-05-24T11:15:23Z</time></trkpt>
<trkpt lat="50.94117" lon="4.968439"><ele>43.0</ele><time>2025-05-24T11:15:36Z</time></trkpt>
<trkpt lat="50.94117" lon="4.968439"><ele>43.0</ele><time>2025-05-24T11:15:36Z</time></trkpt>
<trkpt lat="50.941249" lon="4.96843"><ele>43.0</ele><time>2025-05-24T11:15:41Z</time></trkpt>
<trkpt lat="50.941502" lon="4.968329"><ele>42.98</ele><time>2025-05-24T11:15:47Z</time></trkpt>
<trkpt lat="50.941695" lon="4.968187"><ele>42.58</ele><time>2025-05-24T11:15:52Z</time></trkpt>
<trkpt lat="50.94266" lon="4.967263"><ele>41.0</ele><time>2025-05-24T11:15:58Z</time></trkpt>
<trkpt lat="50.942493" lon="4.96664"><ele>41.0</ele><time>2025-05-24T11:16:14Z</time></trkpt>
<trkpt lat="50.939994" lon="4.95747"><ele>48.02</ele><time>2025-05-24T11:16:30Z</time></trkpt>
<trkpt lat="50.939801" lon="4.956587"><ele>47.72</ele><time>2025-05-24T11:16:46Z</time></trkpt>
<trkpt lat="50.93951" lon="4.955522"><ele>49.0</ele><time>2025-05-24T11:17:03Z</time></trkpt>
<trkpt lat="50.939447" lon="4.955546"><ele>49.0</ele><time>2025-05-24T11:17:07Z</time></trkpt>
<trkpt lat="50.939249" lon="4.9556"><ele>49.0</ele><time>2025-05-24T11:17:12Z</time></trkpt>
<trkpt lat="50.939124" lon="4.955593"><ele>49.15</ele><time>2025-05-24T11:17:17Z</time></trkpt>
<trkpt lat="50.938983" lon="4.955536"><ele>49.68</ele><time>2025-05-24T11:17:22Z</time></trkpt>
<trkpt lat="50.937633" lon="4.954989"><ele>58.0</ele><time>2025-05-24T11:17:26Z</time></trkpt>
<trkpt lat="50.935849" lon="4.954156"><ele>60.98</ele><time>2025-05-24T11:17:31Z</time></trkpt>
<trkpt lat="50.93526" lon="4.953945"><ele>60.8</ele><time>2025-05-24T11:17:36Z</time></trkpt>
<trkpt lat="50.934725" lon="4.953788"><ele>62.35</ele><time>2025-05-24T11:17:40Z</time></trkpt>
<trkpt lat="50.93438" lon="4.953636"><ele>61.68</ele><time>2025-05-24T11:17:45Z</time></trkpt>
<trkpt lat="50.933303" lon="4.95292"><ele>64.22</ele><time>2025-05-24T11:17:50Z</time></trkpt>
<trkpt lat="50.932763" lon="4.952612"><ele>67.6</ele><time>2025-05-24T11:17:55Z</time></trkpt>
<trkpt lat="50.932445" lon="4.952483"><ele>67.86</ele><time>2025-05-24T11:17:59Z</time></trkpt>
<trkpt lat="50.931815" lon="4.95229"><ele>66.65</ele><time>2025-05-24T11:18:04Z</time></trkpt>
<trkpt lat="50.930005" lon="4.951921"><ele>68.0</ele><time>2025-05-24T11:18:09Z</time></trkpt>
<trkpt lat="50.92821" lon="4.951517"><ele>74.76</ele><time>2025-05-24T11:18:13Z</time></trkpt>
<trkpt lat="50.927528" lon="4.951442"><ele>74.02</ele><time>2025-05-24T11:18:18Z</time></trkpt>
<trkpt lat="50.927194" lon="4.95146"><ele>74.74</ele><time>2025-05-24T11:18:23Z</time></trkpt>
<trkpt lat="50.926619" lon="4.951574"><ele>72.99</ele><time>2025-05-24T11:18:27Z</time></trkpt>
<trkpt lat="50.926296" lon="4.951701"><ele>69.91</ele><time>2025-05-24T11:18:32Z</time></trkpt>
<trkpt lat="50.925959" lon="4.95188"><ele>66.9</ele><time>2025-05-24T11:18:37Z</time></trkpt>
<trkpt lat="50.925579" lon="4.952147"><ele>65.27</ele><time>2025-05-24T11:18:42Z</time></trkpt>
<trkpt lat="50.925257" lon="4.952416"><ele>64.22</ele><time>2025-05-24T11:18:46Z</time></trkpt>
<trkpt lat="50.923032" lon="4.954766"><ele>49.93</ele><time>2025-05-24T11:18:51Z</time></trkpt>
<trkpt lat="50.922853" lon="4.954898"><ele>50.1</ele><time>2025-05-24T11:18:56Z</time></trkpt>
<trkpt lat="50.922656" lon="4.955004"><ele>49.56</ele><time>2025-05-24T11:19:00Z</time></trkpt>
<trkpt lat="50.922241" lon="4.955103"><ele>49.0</ele><time>2025-05-24T11:19:05Z</time></trkpt>
<trkpt lat="50.921966" lon="4.95508"><ele>49.0</ele><time>2025-05-24T11:19:10Z</time></trkpt>
<trkpt lat="50.921843" lon="4.955048"><ele>48.63</ele><time>2025-05-24T11:19:15Z</time></trkpt>
<trkpt lat="50.921738" lon="4.955013"><ele>48.26</ele><time>2025-05-24T11:19:19Z</time></trkpt>
<trkpt lat="50.920749" lon="4.954426"><ele>52.54</ele><time>2025-05-24T11:19:24Z</time></trkpt>
<trkpt lat="50.920693" lon="4.95441"><ele>52.88</ele><time>2025-05-24T11:19:29Z</time></trkpt>
<trkpt lat="50.920065" lon="4.954302"><ele>56.16</ele><time>2025-05-24T11:19:33Z</time></trkpt>
<trkpt lat="50.919216" lon="4.954192"><ele>61.81</ele><time>2025-05-24T11:19:38Z</time></trkpt>
<trkpt lat="50.919008" lon="4.954148"><ele>62.0</ele><time>2025-05-24T11:19:43Z</time></trkpt>
<trkpt lat="50.918716" lon="4.954026"><ele>63.24</ele><time>2025-05-24T11:19:48Z</time></trkpt>
<trkpt lat="50.918567" lon="4.953934"><ele>64.16</ele><time>2025-05-24T11:19:52Z</time></trkpt>
<trkpt lat="50.914839" lon="4.951182"><ele>65.84</ele><time>2025-05-24T11:19:57Z</time></trkpt>
<trkpt lat="50.914729" lon="4.951117"><ele>65.04</ele><time>2025-05-24T11:20:02Z</time></trkpt>
<trkpt lat="50.914379" lon="4.950994"><ele>63.86</ele><time>2025-05-24T11:20:06Z</time></trkpt>
<trkpt lat="50.913814" lon="4.950912"><ele>64.0</ele><time>2025-05-24T11:20:11Z</time></trkpt>
<trkpt lat="50.913116" lon="4.950899"><ele>65.18</ele><time>2025-05-24T11:20:16Z</time></trkpt>
<trkpt lat="50.912695" lon="4.950978"><ele>65.86</ele><time>2025-05-24T11:20:21Z</time></trkpt>
<trkpt lat="50.911412" lon="4.951364"><ele>64.08</ele><time>2025-05-24T11:20:25Z</time></trkpt>
<trkpt lat="50.910643" lon="4.95168"><ele>63.0</ele><time>2025-05-24T11:20:30Z</time></trkpt>
<trkpt lat="50.910574" lon="4.951703"><ele>63.0</ele><time>2025-05-24T11:20:35Z</time></trkpt>
<trkpt lat="50.911085" lon="4.953426"><ele>61.0</ele><time>2025-05-24T11:20:42Z</time></trkpt>
<trkpt lat="50.912305" lon="4.957498"><ele>54.7</ele><time>2025-05-24T11:20:49Z</time></trkpt>
<trkpt lat="50.912445" lon="4.957862"><ele>54.4</ele><time>2025-05-24T11:20:56Z</time></trkpt>
<trkpt lat="50.912756" lon="4.958469"><ele>54.57</ele><time>2025-05-24T11:21:03Z</time></trkpt>
<trkpt lat="50.913215" lon="4.959147"><ele>53.03</ele><time>2025-05-24T11:21:10Z</time></trkpt>
<trkpt lat="50.913362" lon="4.959499"><ele>52.0</ele><time>2025-05-24T11:21:17Z</time></trkpt>
<trkpt lat="50.913412" lon="4.959677"><ele>52.0</ele><time>2025-05-24T11:21:24Z</time></trkpt>
<trkpt lat="50.913458" lon="4.959927"><ele>52.0</ele><time>2025-05-24T11:21:31Z</time></trkpt>
<trkpt lat="50.913511" lon="4.960644"><ele>52.0</ele><time>2025-05-24T11:21:38Z</time></trkpt>
<trkpt lat="50.913597" lon="4.961208"><ele>52.0</ele><time>2025-05-24T11:21:45Z</time></trkpt>
<trkpt lat="50.913662" lon="4.961488"><ele>51.46</ele><time>2025-05-24T11:21:52Z</time></trkpt>
<trkpt lat="50.91437" lon="4.96402"><ele>48.19</ele><time>2025-05-24T11:21:59Z</time></trkpt>
<trkpt lat="50.91437" lon="4.96402"><ele>48.19</ele><time>2025-05-24T11:21:59Z</time></trkpt>
<trkpt lat="50.913662" lon="4.961488"><ele>51.46</ele><time>2025-05-24T11:22:06Z</time></trkpt>
<trkpt lat="50.913597" lon="4.961208"><ele>52.0</ele><time>2025-05-24T11:22:13Z</time></trkpt>
<trkpt lat="50.913511" lon="4.960644"><ele>52.0</ele><time>2025-05-24T11:22:20Z</time></trkpt>
<trkpt lat="50.913458" lon="4.959927"><ele>52.0</ele><time>2025-05-24T11:22:27Z</time></trkpt>
<trkpt lat="50.913412" lon="4.959677"><ele>52.0</ele><time>2025-05-24T11:22:34Z</time></trkpt>
<trkpt lat="50.913362" lon="4.959499"><ele>52.0</ele><time>2025-05-24T11:22:41Z</time></trkpt>
<trkpt lat="50.913215" lon="4.959147"><ele>53.03</ele><time>2025-05-24T11:22:48Z</time></trkpt>
<trkpt lat="50.912756" lon="4.958469"><ele>54.57</ele><time>2025-05-24T11:22:55Z</time></trkpt>
<trkpt lat="50.912445" lon="4.957862"><ele>54.4</ele><time>2025-05-24T11:23:02Z</time></trkpt>
<trkpt lat="50.912305" lon="4.957498"><ele>54.7</ele><time>2025-05-24T11:23:09Z</time></trkpt>
<trkpt lat="50.911085" lon="4.953426"><ele>61.0</ele><time>2025-05-24T11:23:16Z</time></trkpt>
<trkpt lat="50.910574" lon="4.951703"><ele>63.0</ele><time>2025-05-24T11:23:23Z</time></trkpt>
<trkpt lat="50.910089" lon="4.951696"><ele>60.64</ele><time>2025-05-24T11:23:25Z</time></trkpt>
<trkpt lat="50.90986" lon="4.951623"><ele>60.16</ele><time>2025-05-24T11:23:28Z</time></trkpt>
<trkpt lat="50.909652" lon="4.951517"><ele>60.54</ele><time>2025-05-24T11:23:31Z</time></trkpt>
<trkpt lat="50.909464" lon="4.951364"><ele>61.08</ele><time>2025-05-24T11:23:33Z</time></trkpt>
<trkpt lat="50.909229" lon="4.951108"><ele>62.01</ele><time>2025-05-24T11:23:36Z</time></trkpt>
<trkpt lat="50.909037" lon="4.950785"><ele>62.53</ele><time>2025-05-24T11:23:38Z</time></trkpt>
<trkpt lat="50.908262" lon="4.948893"><ele>59.56</ele><time>2025-05-24T11:23:41Z</time></trkpt>
<trkpt lat="50.908262" lon="4.948893"><ele>59.56</ele><time>2025-05-24T11:23:41Z</time></trkpt>
<trkpt lat="50.908253" lon="4.948869"><ele>58.44</ele><time>2025-05-24T11:23:41Z</time></trkpt>
<trkpt lat="50.907208" lon="4.949391"><ele>53.14</ele><time>2025-05-24T11:23:49Z</time></trkpt>
<trkpt lat="50.904127" lon="4.950526"><ele>53.61</ele><time>2025-05-24T11:23:58Z</time></trkpt>
<trkpt lat="50.903706" lon="4.950732"><ele>51.56</ele><time>2025-05-24T11:24:06Z</time></trkpt>
<trkpt lat="50.902767" lon="4.951349"><ele>55.04</ele><time>2025-05-24T11:24:14Z</time></trkpt>
<trkpt lat="50.902431" lon="4.951613"><ele>55.44</ele><time>2025-05-24T11:24:22Z</time></trkpt>
<trkpt lat="50.900753" lon="4.953111"><ele>56.28</ele><time>2025-05-24T11:24:31Z</time></trkpt>
<trkpt lat="50.900428" lon="4.953415"><ele>54.08</ele><time>2025-05-24T11:24:39Z</time></trkpt>
<trkpt lat="50.899853" lon="4.954011"><ele>53.0</ele><time>2025-05-24T11:24:47Z</time></trkpt>
<trkpt lat="50.899814" lon="4.954081"><ele>53.0</ele><time>2025-05-24T11:24:55Z</time></trkpt>
<trkpt lat="50.899504" lon="4.955103"><ele>53.78</ele><time>2025-05-24T11:25:04Z</time></trkpt>
<trkpt lat="50.89944" lon="4.955195"><ele>54.0</ele><time>2025-05-24T11:25:12Z</time></trkpt>
<trkpt lat="50.899299" lon="4.955321"><ele>53.84</ele><time>2025-05-24T11:25:20Z</time></trkpt>
<trkpt lat="50.89866" lon="4.955821"><ele>55.65</ele><time>2025-05-24T11:25:28Z</time></trkpt>
<trkpt lat="50.898504" lon="4.956025"><ele>56.65</ele><time>2025-05-24T11:25:37Z</time></trkpt>
<trkpt lat="50.898316" lon="4.956443"><ele>58.21</ele><time>2025-05-24T11:25:45Z</time></trkpt>
<trkpt lat="50.898194" lon="4.956792"><ele>59.5</ele><time>2025-05-24T11:25:53Z</time></trkpt>
<trkpt lat="50.898095" lon="4.957152"><ele>59.86</ele><time>2025-05-24T11:26:01Z</time></trkpt>
<trkpt lat="50.898028" lon="4.957535"><ele>60.01</ele><time>2025-05-24T11:26:10Z</time></trkpt>
<trkpt lat="50.89798" lon="4.957918"><ele>60.78</ele><time>2025-05-24T11:26:18Z</time></trkpt>
<trkpt lat="50.897262" lon="4.957986"><ele>63.79</ele><time>2025-05-24T11:26:26Z</time></trkpt>
<trkpt lat="50.897262" lon="4.957986"><ele>63.79</ele><time>2025-05-24T11:26:26Z</time></trkpt>
<trkpt lat="50.897201" lon="4.957981"><ele>63.81</ele><time>2025-05-24T11:26:30Z</time></trkpt>
<trkpt lat="50.897135" lon="4.957939"><ele>63.89</ele><time>2025-05-24T11:26:34Z</time></trkpt>
<trkpt lat="50.897066" lon="4.957843"><ele>63.8</ele><time>2025-05-24T11:26:38Z</time></trkpt>
<trkpt lat="50.896572" lon="4.956571"><ele>62.33</ele><time>2025-05-24T11:26:42Z</time></trkpt>
<trkpt lat="50.896146" lon="4.956003"><ele>63.53</ele><time>2025-05-24T11:26:46Z</time></trkpt>
<trkpt lat="50.895902" lon="4.955729"><ele>63.75</ele><time>2025-05-24T11:26:50Z</time></trkpt>
<trkpt lat="50.895597" lon="4.955445"><ele>66.21</ele><time>2025-05-24T11:26:54Z</time></trkpt>
<trkpt lat="50.895496" lon="4.955363"><ele>66.31</ele><time>2025-05-24T11:26:58Z</time></trkpt>
<trkpt lat="50.895429" lon="4.955335"><ele>66.21</ele><time>2025-05-24T11:27:01Z</time></trkpt>
<trkpt lat="50.895279" lon="4.955329"><ele>66.18</ele><time>2025-05-24T11:27:05Z</time></trkpt>
<trkpt lat="50.89439" lon="4.955425"><ele>66.91</ele><time>2025-05-24T11:27:09Z</time></trkpt>
<trkpt lat="50.894309" lon="4.955416"><ele>66.75</ele><time>2025-05-24T11:27:13Z</time></trkpt>
<trkpt lat="50.89425" lon="4.955379"><ele>66.55</ele><time>2025-05-24T11:27:17Z</time></trkpt>
<trkpt lat="50.894198" lon="4.95531"><ele>66.21</ele><time>2025-05-24T11:27:21Z</time></trkpt>
<trkpt lat="50.893782" lon="4.954391"><ele>66.08</ele><time>2025-05-24T11:27:25Z</time></trkpt>
<trkpt lat="50.89359" lon="4.95401"><ele>66.47</ele><time>2025-05-24T11:27:29Z</time></trkpt>
<trkpt lat="50.893318" lon="4.953843"><ele>65.89</ele><time>2025-05-24T11:27:33Z</time></trkpt>
<trkpt lat="50.893138" lon="4.953613"><ele>65.71</ele><time>2025-05-24T11:27:37Z</time></trkpt>
<trkpt lat="50.892238" lon="4.95222"><ele>65.0</ele><time>2025-05-24T11:27:41Z</time></trkpt>
<trkpt lat="50.891756" lon="4.951651"><ele>66.0</ele><time>2025-05-24T11:27:44Z</time></trkpt>
<trkpt lat="50.891304" lon="4.951009"><ele>65.63</ele><time>2025-05-24T11:27:48Z</time></trkpt>
<trkpt lat="50.890987" lon="4.950613"><ele>65.0</ele><time>2025-05-24T11:27:52Z</time></trkpt>
<trkpt lat="50.890908" lon="4.950452"><ele>64.63</ele><time>2025-05-24T11:27:56Z</time></trkpt>
<trkpt lat="50.890606" lon="4.949598"><ele>65.18</ele><time>2025-05-24T11:28:00Z</time></trkpt>
<trkpt lat="50.890538" lon="4.949491"><ele>65.83</ele><time>2025-05-24T11:28:04Z</time></trkpt>
<trkpt lat="50.889957" lon="4.949069"><ele>67.51</ele><time>2025-05-24T11:28:08Z</time></trkpt>
<trkpt lat="50.889867" lon="4.949029"><ele>67.97</ele><time>2025-05-24T11:28:12Z</time></trkpt>
<trkpt lat="50.889591" lon="4.948979"><ele>69.62</ele><time>2025-05-24T11:28:16Z</time></trkpt>
<trkpt lat="50.889539" lon="4.948933"><ele>70.16</ele><time>2025-05-24T11:28:20Z</time></trkpt>
<trkpt lat="50.88951" lon="4.948877"><ele>70.54</ele><time>2025-05-24T11:28:24Z</time></trkpt>
<trkpt lat="50.889407" lon="4.948987"><ele>70.78</ele><time>2025-05-24T11:28:27Z</time></trkpt>
<trkpt lat="50.889268" lon="4.949094"><ele>70.9</ele><time>2025-05-24T11:28:31Z</time></trkpt>
<trkpt lat="50.888989" lon="4.94926"><ele>71.3</ele><time>2025-05-24T11:28:35Z</time></trkpt>
<trkpt lat="50.887752" lon="4.949838"><ele>73.53</ele><time>2025-05-24T11:28:39Z</time></trkpt>
<trkpt lat="50.887323" lon="4.950018"><ele>73.64</ele><time>2025-05-24T11:28:43Z</time></trkpt>
<trkpt lat="50.886958" lon="4.950125"><ele>74.95</ele><time>2025-05-24T11:28:47Z</time></trkpt>
<trkpt lat="50.885421" lon="4.950312"><ele>71.51</ele><time>2025-05-24T11:28:51Z</time></trkpt>
<trkpt lat="50.885324" lon="4.950291"><ele>71.17</ele><time>2025-05-24T11:28:54Z</time></trkpt>
<trkpt lat="50.885252" lon="4.950209"><ele>70.88</ele><time>2025-05-24T11:28:58Z</time></trkpt>
<trkpt lat="50.884051" lon="4.951209"><ele>74.0</ele><time>2025-05-24T11:29:03Z</time></trkpt>
<trkpt lat="50.881763" lon="4.952785"><ele>72.35</ele><time>2025-05-24T11:29:09Z</time></trkpt>
<trkpt lat="50.880852" lon="4.953552"><ele>67.07</ele><time>2025-05-24T11:29:14Z</time></trkpt>
<trkpt lat="50.880534" lon="4.95379"><ele>66.28</ele><time>2025-05-24T11:29:19Z</time></trkpt>
<trkpt lat="50.88029" lon="4.953917"><ele>65.04</ele><time>2025-05-24T11:29:24Z</time></trkpt>
<trkpt lat="50.880058" lon="4.953977"><ele>65.0</ele><time>2025-05-24T11:29:29Z</time></trkpt>
<trkpt lat="50.879846" lon="4.953977"><ele>65.0</ele><time>2025-05-24T11:29:34Z</time></trkpt>
<trkpt lat="50.877192" lon="4.953822"><ele>57.0</ele><time>2025-05-24T11:29:39Z</time></trkpt>
<trkpt lat="50.87677" lon="4.953857"><ele>56.44</ele><time>2025-05-24T11:29:45Z</time></trkpt>
<trkpt lat="50.876338" lon="4.953984"><ele>55.82</ele><time>2025-05-24T11:29:50Z</time></trkpt>
<trkpt lat="50.876082" lon="4.954101"><ele>55.0</ele><time>2025-05-24T11:29:55Z</time></trkpt>
<trkpt lat="50.87444" lon="4.955115"><ele>52.0</ele><time>2025-05-24T11:30:00Z</time></trkpt>
<trkpt lat="50.873372" lon="4.955588"><ele>49.14</ele><time>2025-05-24T11:30:05Z</time></trkpt>
<trkpt lat="50.873015" lon="4.955727"><ele>50.15</ele><time>2025-05-24T11:30:10Z</time></trkpt>
<trkpt lat="50.87293" lon="4.955726"><ele>50.45</ele><time>2025-05-24T11:30:15Z</time></trkpt>
<trkpt lat="50.872904" lon="4.95561"><ele>50.55</ele><time>2025-05-24T11:30:21Z</time></trkpt>
<trkpt lat="50.872801" lon="4.953251"><ele>52.3</ele><time>2025-05-24T11:30:27Z</time></trkpt>
<trkpt lat="50.872734" lon="4.952625"><ele>53.71</ele><time>2025-05-24T11:30:32Z</time></trkpt>
<trkpt lat="50.872596" lon="4.952059"><ele>55.24</ele><time>2025-05-24T11:30:38Z</time></trkpt>
<trkpt lat="50.872247" lon="4.951064"><ele>56.91</ele><time>2025-05-24T11:30:44Z</time></trkpt>
<trkpt lat="50.872183" lon="4.950775"><ele>57.14</ele><time>2025-05-24T11:30:49Z</time></trkpt>
<trkpt lat="50.872165" lon="4.950487"><ele>56.96</ele><time>2025-05-24T11:30:55Z</time></trkpt>
<trkpt lat="50.872208" lon="4.950124"><ele>56.02</ele><time>2025-05-24T11:31:01Z</time></trkpt>
<trkpt lat="50.872325" lon="4.949728"><ele>54.65</ele><time>2025-05-24T11:31:06Z</time></trkpt>
<trkpt lat="50.872942" lon="4.948513"><ele>56.59</ele><time>2025-05-24T11:31:12Z</time></trkpt>
<trkpt lat="50.872999" lon="4.948313"><ele>56.74</ele><time>2025-05-24T11:31:17Z</time></trkpt>
<trkpt lat="50.873018" lon="4.948158"><ele>56.32</ele><time>2025-05-24T11:31:23Z</time></trkpt>
<trkpt lat="50.87298" lon="4.94575"><ele>53.73</ele><time>2025-05-24T11:31:29Z</time></trkpt>
<trkpt lat="50.872802" lon="4.945645"><ele>50.1</ele><time>2025-05-24T11:31:30Z</time></trkpt>
<trkpt lat="50.872802" lon="4.945645"><ele>50.1</ele><time>2025-05-24T11:31:30Z</time></trkpt>
<trkpt lat="50.870663" lon="4.943493"><ele>47.0</ele><time>2025-05-24T11:31:36Z</time></trkpt>
<trkpt lat="50.870329" lon="4.943194"><ele>47.91</ele><time>2025-05-24T11:31:42Z</time></trkpt>
<trkpt lat="50.866775" lon="4.940214"><ele>50.39</ele><time>2025-05-24T11:31:48Z</time></trkpt>
<trkpt lat="50.866178" lon="4.939767"><ele>51.0</ele><time>2025-05-24T11:31:54Z</time></trkpt>
<trkpt lat="50.865693" lon="4.939438"><ele>49.99</ele><time>2025-05-24T11:32:01Z</time></trkpt>
<trkpt lat="50.865484" lon="4.939238"><ele>49.0</ele><time>2025-05-24T11:32:07Z</time></trkpt>
<trkpt lat="50.865374" lon="4.939095"><ele>48.35</ele><time>2025-05-24T11:32:13Z</time></trkpt>
<trkpt lat="50.865237" lon="4.938839"><ele>48.18</ele><time>2025-05-24T11:32:19Z</time></trkpt>
<trkpt lat="50.865183" lon="4.938705"><ele>48.66</ele><time>2025-05-24T11:32:25Z</time></trkpt>
<trkpt lat="50.863955" lon="4.935257"><ele>54.76</ele><time>2025-05-24T11:32:31Z</time></trkpt>
<trkpt lat="50.863681" lon="4.934573"><ele>57.63</ele><time>2025-05-24T11:32:37Z</time></trkpt>
<trkpt lat="50.863442" lon="4.934062"><ele>59.0</ele><time>2025-05-24T11:32:43Z</time></trkpt>
<trkpt lat="50.863297" lon="4.933772"><ele>59.37</ele><time>2025-05-24T11:32:50Z</time></trkpt>
<trkpt lat="50.862842" lon="4.933047"><ele>59.23</ele><time>2025-05-24T11:32:56Z</time></trkpt>
<trkpt lat="50.862044" lon="4.932077"><ele>58.52</ele><time>2025-05-24T11:33:02Z</time></trkpt>
<trkpt lat="50.861634" lon="4.93145"><ele>59.78</ele><time>2025-05-24T11:33:08Z</time></trkpt>
<trkpt lat="50.859575" lon="4.927872"><ele>57.78</ele><time>2025-05-24T11:33:14Z</time></trkpt>
<trkpt lat="50.859484" lon="4.927679"><ele>57.23</ele><time>2025-05-24T11:33:20Z</time></trkpt>
<trkpt lat="50.859438" lon="4.927492"><ele>56.95</ele><time>2025-05-24T11:33:26Z</time></trkpt>
<trkpt lat="50.859417" lon="4.92732"><ele>56.8</ele><time>2025-05-24T11:33:32Z</time></trkpt>
<trkpt lat="50.859414" lon="4.927112"><ele>56.38</ele><time>2025-05-24T11:33:39Z</time></trkpt>
<trkpt lat="50.859457" lon="4.926763"><ele>55.35</ele><time>2025-05-24T11:33:45Z</time></trkpt>
<trkpt lat="50.859873" lon="4.924158"><ele>47.44</ele><time>2025-05-24T11:33:51Z</time></trkpt>
<trkpt lat="50.859942" lon="4.923996"><ele>47.08</ele><time>2025-05-24T11:33:57Z</time></trkpt>
<trkpt lat="50.859643" lon="4.923522"><ele>46.25</ele><time>2025-05-24T11:34:01Z</time></trkpt>
<trkpt lat="50.859389" lon="4.923059"><ele>45.22</ele><time>2025-05-24T11:34:04Z</time></trkpt>
<trkpt lat="50.859185" lon="4.922754"><ele>45.87</ele><time>2025-05-24T11:34:08Z</time></trkpt>
<trkpt lat="50.85894" lon="4.922493"><ele>46.82</ele><time>2025-05-24T11:34:11Z</time></trkpt>
<trkpt lat="50.858779" lon="4.922378"><ele>46.6</ele><time>2025-05-24T11:34:15Z</time></trkpt>
<trkpt lat="50.8586" lon="4.922272"><ele>45.96</ele><time>2025-05-24T11:34:19Z</time></trkpt>
<trkpt lat="50.858274" lon="4.922175"><ele>45.17</ele><time>2025-05-24T11:34:22Z</time></trkpt>
<trkpt lat="50.858083" lon="4.922176"><ele>45.17</ele><time>2025-05-24T11:34:26Z</time></trkpt>
<trkpt lat="50.856746" lon="4.922418"><ele>52.43</ele><time>2025-05-24T11:34:29Z</time></trkpt>
<trkpt lat="50.856533" lon="4.922406"><ele>53.16</ele><time>2025-05-24T11:34:33Z</time></trkpt>
<trkpt lat="50.856435" lon="4.922374"><ele>53.38</ele><time>2025-05-24T11:34:37Z</time></trkpt>
<trkpt lat="50.856328" lon="4.922299"><ele>53.72</ele><time>2025-05-24T11:34:40Z</time></trkpt>
<trkpt lat="50.85603" lon="4.921942"><ele>52.99</ele><time>2025-05-24T11:34:44Z</time></trkpt>
<trkpt lat="50.855675" lon="4.921623"><ele>51.84</ele><time>2025-05-24T11:34:47Z</time></trkpt>
<trkpt lat="50.854579" lon="4.921191"><ele>48.48</ele><time>2025-05-24T11:34:51Z</time></trkpt>
<trkpt lat="50.854117" lon="4.921012"><ele>47.82</ele><time>2025-05-24T11:34:54Z</time></trkpt>
<trkpt lat="50.853871" lon="4.920837"><ele>46.87</ele><time>2025-05-24T11:34:58Z</time></trkpt>
<trkpt lat="50.853721" lon="4.920685"><ele>45.79</ele><time>2025-05-24T11:35:02Z</time></trkpt>
<trkpt lat="50.853483" lon="4.92037"><ele>44.38</ele><time>2025-05-24T11:35:05Z</time></trkpt>
<trkpt lat="50.853214" lon="4.920072"><ele>43.57</ele><time>2025-05-24T11:35:09Z</time></trkpt>
<trkpt lat="50.853107" lon="4.91991"><ele>42.92</ele><time>2025-05-24T11:35:12Z</time></trkpt>
<trkpt lat="50.852998" lon="4.919797"><ele>42.27</ele><time>2025-05-24T11:35:16Z</time></trkpt>
<trkpt lat="50.852363" lon="4.919003"><ele>43.51</ele><time>2025-05-24T11:35:20Z</time></trkpt>
<trkpt lat="50.852278" lon="4.918934"><ele>43.2</ele><time>2025-05-24T11:35:23Z</time></trkpt>
<trkpt lat="50.85209" lon="4.918683"><ele>42.49</ele><time>2025-05-24T11:35:27Z</time></trkpt>
<trkpt lat="50.851718" lon="4.918268"><ele>43.23</ele><time>2025-05-24T11:35:30Z</time></trkpt>
<trkpt lat="50.851578" lon="4.91814"><ele>43.38</ele><time>2025-05-24T11:35:34Z</time></trkpt>
<trkpt lat="50.851315" lon="4.918011"><ele>42.46</ele><time>2025-05-24T11:35:38Z</time></trkpt>
<trkpt lat="50.85126" lon="4.918002"><ele>40.23</ele><time>2025-05-24T11:35:41Z</time></trkpt>
<trkpt lat="50.85126" lon="4.918002"><ele>40.23</ele><time>2025-05-24T11:35:41Z</time></trkpt>
<trkpt lat="50.850225" lon="4.917839"><ele>38.0</ele><time>2025-05-24T11:35:51Z</time></trkpt>
<trkpt lat="50.84997" lon="4.91782"><ele>38.0</ele><time>2025-05-24T11:36:01Z</time></trkpt>
<trkpt lat="50.849641" lon="4.917851"><ele>38.0</ele><time>2025-05-24T11:36:11Z</time></trkpt>
<trkpt lat="50.849313" lon="4.917943"><ele>38.0</ele><time>2025-05-24T11:36:21Z</time></trkpt>
<trkpt lat="50.849111" lon="4.918028"><ele>38.0</ele><time>2025-05-24T11:36:31Z</time></trkpt>
<trkpt lat="50.848641" lon="4.918292"><ele>37.11</ele><time>2025-05-24T11:36:41Z</time></trkpt>
<trkpt lat="50.848306" lon="4.918413"><ele>37.0</ele><time>2025-05-24T11:36:51Z</time></trkpt>
<trkpt lat="50.847998" lon="4.918496"><ele>37.21</ele><time>2025-05-24T11:37:00Z</time></trkpt>
<trkpt lat="50.846001" lon="4.918879"><ele>44.39</ele><time>2025-05-24T11:37:10Z</time></trkpt>
<trkpt lat="50.845374" lon="4.919095"><ele>44.65</ele><time>2025-05-24T11:37:20Z</time></trkpt>
<trkpt lat="50.843541" lon="4.920018"><ele>49.25</ele><time>2025-05-24T11:37:30Z</time></trkpt>
<trkpt lat="50.843406" lon="4.920127"><ele>49.74</ele><time>2025-05-24T11:37:40Z</time></trkpt>
<trkpt lat="50.843037" lon="4.920604"><ele>53.0</ele><time>2025-05-24T11:37:50Z</time></trkpt>
<trkpt lat="50.842897" lon="4.920877"><ele>53.0</ele><time>2025-05-24T11:38:00Z</time></trkpt>
<trkpt lat="50.842619" lon="4.921743"><ele>53.0</ele><time>2025-05-24T11:38:10Z</time></trkpt>
<trkpt lat="50.842532" lon="4.921919"><ele>53.0</ele><time>2025-05-24T11:38:20Z</time></trkpt>
<trkpt lat="50.842407" lon="4.92208"><ele>53.0</ele><time>2025-05-24T11:38:29Z</time></trkpt>
<trkpt lat="50.841005" lon="4.923378"><ele>55.38</ele><time>2025-05-24T11:38:39Z</time></trkpt>
<trkpt lat="50.84011" lon="4.924264"><ele>58.6</ele><time>2025-05-24T11:38:49Z</time></trkpt>
<trkpt lat="50.839545" lon="4.924784"><ele>59.42</ele><time>2025-05-24T11:38:59Z</time></trkpt>
<trkpt lat="50.83899" lon="4.925256"><ele>60.63</ele><time>2025-05-24T11:39:09Z</time></trkpt>
<trkpt lat="50.838312" lon="4.925942"><ele>61.03</ele><time>2025-05-24T11:39:19Z</time></trkpt>
<trkpt lat="50.838739" lon="4.926987"><ele>61.15</ele><time>2025-05-24T11:39:25Z</time></trkpt>
<trkpt lat="50.838853" lon="4.927364"><ele>62.0</ele><time>2025-05-24T11:39:31Z</time></trkpt>
<trkpt lat="50.838947" lon="4.927811"><ele>62.91</ele><time>2025-05-24T11:39:36Z</time></trkpt>
<trkpt lat="50.839302" lon="4.930369"><ele>66.84</ele><time>2025-05-24T11:39:42Z</time></trkpt>
<trkpt lat="50.839415" lon="4.930922"><ele>67.53</ele><time>2025-05-24T11:39:48Z</time></trkpt>
<trkpt lat="50.839604" lon="4.931471"><ele>67.02</ele><time>2025-05-24T11:39:54Z</time></trkpt>
<trkpt lat="50.839915" lon="4.932134"><ele>65.12</ele><time>2025-05-24T11:39:59Z</time></trkpt>
<trkpt lat="50.84059" lon="4.933542"><ele>60.53</ele><time>2025-05-24T11:40:05Z</time></trkpt>
<trkpt lat="50.840739" lon="4.934021"><ele>60.21</ele><time>2025-05-24T11:40:11Z</time></trkpt>
<trkpt lat="50.840796" lon="4.934276"><ele>58.82</ele><time>2025-05-24T11:40:17Z</time></trkpt>
<trkpt lat="50.841397" lon="4.937757"><ele>51.97</ele><time>2025-05-24T11:40:22Z</time></trkpt>
<trkpt lat="50.841956" lon="4.941003"><ele>51.96</ele><time>2025-05-24T11:40:28Z</time></trkpt>
<trkpt lat="50.841981" lon="4.941246"><ele>51.87</ele><time>2025-05-24T11:40:34Z</time></trkpt>
<trkpt lat="50.841984" lon="4.941609"><ele>51.18</ele><time>2025-05-24T11:40:40Z</time></trkpt>
<trkpt lat="50.841927" lon="4.942426"><ele>51.0</ele><time>2025-05-24T11:40:45Z</time></trkpt>
<trkpt lat="50.841956" lon="4.942875"><ele>50.04</ele><time>2025-05-24T11:40:51Z</time></trkpt>
<trkpt lat="50.841989" lon="4.943104"><ele>50.31</ele><time>2025-05-24T11:40:57Z</time></trkpt>
<trkpt lat="50.842031" lon="4.943266"><ele>50.83</ele><time>2025-05-24T11:41:03Z</time></trkpt>
<trkpt lat="50.842171" lon="4.943641"><ele>51.0</ele><time>2025-05-24T11:41:09Z</time></trkpt>
<trkpt lat="50.84253" lon="4.944326"><ele>52.79</ele><time>2025-05-24T11:41:14Z</time></trkpt>
<trkpt lat="50.842464" lon="4.94447"><ele>52.87</ele><time>2025-05-24T11:41:20Z</time></trkpt>
<trkpt lat="50.842183" lon="4.945454"><ele>52.63</ele><time>2025-05-24T11:41:26Z</time></trkpt>
<trkpt lat="50.842013" lon="4.945931"><ele>53.09</ele><time>2025-05-24T11:41:31Z</time></trkpt>
<trkpt lat="50.841876" lon="4.946387"><ele>53.24</ele><time>2025-05-24T11:41:37Z</time></trkpt>
<trkpt lat="50.841826" lon="4.946362"><ele>53.43</ele><time>2025-05-24T11:42:09Z</time></trkpt>
<trkpt lat="50.838899" lon="4.944991"><ele>64.93</ele><time>2025-05-24T11:42:41Z</time></trkpt>
<trkpt lat="50.833463" lon="4.942428"><ele>59.0</ele><time>2025-05-24T11:43:14Z</time></trkpt>
<trkpt lat="50.823503" lon="4.937744"><ele>74.88</ele><time>2025-05-24T11:43:46Z</time></trkpt>
<trkpt lat="50.823483" lon="4.935884"><ele>73.1</ele><time>2025-05-24T11:44:11Z</time></trkpt>
<trkpt lat="50.823449" lon="4.935258"><ele>72.58</ele><time>2025-05-24T11:44:37Z</time></trkpt>
<trkpt lat="50.823483" lon="4.933723"><ele>71.68</ele><time>2025-05-24T11:45:03Z</time></trkpt>
<trkpt lat="50.822885" lon="4.933977"><ele>69.0</ele><time>2025-05-24T11:45:12Z</time></trkpt>
<trkpt lat="50.82252" lon="4.934081"><ele>68.5</ele><time>2025-05-24T11:45:21Z</time></trkpt>
<trkpt lat="50.82252" lon="4.934081"><ele>68.5</ele><time>2025-05-24T11:45:21Z</time></trkpt>
<trkpt lat="50.822885" lon="4.933977"><ele>69.0</ele><time>2025-05-24T11:45:30Z</time></trkpt>
<trkpt lat="50.823483" lon="4.933723"><ele>71.68</ele><time>2025-05-24T11:45:39Z</time></trkpt>
<trkpt lat="50.823449" lon="4.935258"><ele>72.58</ele><time>2025-05-24T11:45:55Z</time></trkpt>
<trkpt lat="50.823483" lon="4.935884"><ele>73.1</ele><time>2025-05-24T11:46:10Z</time></trkpt>
<trkpt lat="50.823503" lon="4.937744"><ele>74.88</ele><time>2025-05-24T11:46:26Z</time></trkpt>
<trkpt lat="50.822819" lon="4.937424"><ele>74.0</ele><time>2025-05-24T11:46:53Z</time></trkpt>
<trkpt lat="50.822043" lon="4.937143"><ele>73.0</ele><time>2025-05-24T11:47:19Z</time></trkpt>
<trkpt lat="50.813757" lon="4.935233"><ele>56.84</ele><time>2025-05-24T11:47:46Z</time></trkpt>
<trkpt lat="50.813181" lon="4.935131"><ele>53.9</ele><time>2025-05-24T11:48:13Z</time></trkpt>
<trkpt lat="50.813147" lon="4.934703"><ele>53.33</ele><time>2025-05-24T11:48:18Z</time></trkpt>
<trkpt lat="50.813058" lon="4.93404"><ele>53.01</ele><time>2025-05-24T11:48:22Z</time></trkpt>
<trkpt lat="50.812992" lon="4.933788"><ele>52.64</ele><time>2025-05-24T11:48:26Z</time></trkpt>
<trkpt lat="50.812536" lon="4.93137"><ele>53.14</ele><time>2025-05-24T11:48:31Z</time></trkpt>
<trkpt lat="50.812472" lon="4.930752"><ele>55.55</ele><time>2025-05-24T11:48:35Z</time></trkpt>
<trkpt lat="50.812478" lon="4.930352"><ele>57.65</ele><time>2025-05-24T11:48:40Z</time></trkpt>
<trkpt lat="50.812533" lon="4.92967"><ele>57.12</ele><time>2025-05-24T11:48:44Z</time></trkpt>
<trkpt lat="50.812542" lon="4.929418"><ele>57.06</ele><time>2025-05-24T11:48:49Z</time></trkpt>
<trkpt lat="50.812507" lon="4.929234"><ele>56.27</ele><time>2025-05-24T11:48:53Z</time></trkpt>
<trkpt lat="50.812498" lon="4.929062"><ele>56.0</ele><time>2025-05-24T11:48:58Z</time></trkpt>
<trkpt lat="50.812458" lon="4.928778"><ele>55.6</ele><time>2025-05-24T11:49:02Z</time></trkpt>
<trkpt lat="50.812409" lon="4.928536"><ele>55.0</ele><time>2025-05-24T11:49:07Z</time></trkpt>
<trkpt lat="50.812338" lon="4.928296"><ele>54.87</ele><time>2025-05-24T11:49:11Z</time></trkpt>
<trkpt lat="50.812639" lon="4.928086"><ele>54.16</ele><time>2025-05-24T11:49:21Z</time></trkpt>
<trkpt lat="50.813167" lon="4.927822"><ele>54.4</ele><time>2025-05-24T11:49:31Z</time></trkpt>
<trkpt lat="50.815201" lon="4.927149"><ele>56.84</ele><time>2025-05-24T11:49:42Z</time></trkpt>
<trkpt lat="50.815201" lon="4.927149"><ele>56.84</ele><time>2025-05-24T11:49:42Z</time></trkpt>
<trkpt lat="50.834057" lon="4.920786"><ele>58.57</ele><time>2025-05-24T11:50:21Z</time></trkpt>
<trkpt lat="50.83444" lon="4.920625"><ele>57.77</ele><time>2025-05-24T11:51:00Z</time></trkpt>
<trkpt lat="50.834803" lon="4.920418"><ele>55.71</ele><time>2025-05-24T11:51:39Z</time></trkpt>
<trkpt lat="50.835109" lon="4.920203"><ele>54.61</ele><time>2025-05-24T11:52:19Z</time></trkpt>
<trkpt lat="50.835445" lon="4.919895"><ele>54.23</ele><time>2025-05-24T11:52:58Z</time></trkpt>
<trkpt lat="50.837337" lon="4.918017"><ele>51.1</ele><time>2025-05-24T11:53:37Z</time></trkpt>
<trkpt lat="50.837337" lon="4.918017"><ele>51.1</ele><time>2025-05-24T11:53:37Z</time></trkpt>
<trkpt lat="50.837146" lon="4.918207"><ele>51.73</ele><time>2025-05-24T11:53:39Z</time></trkpt>
<trkpt lat="50.836375" lon="4.916741"><ele>54.0</ele><time>2025-05-24T11:53:49Z</time></trkpt>
<trkpt lat="50.836153" lon="4.916205"><ele>55.81</ele><time>2025-05-24T11:53:58Z</time></trkpt>
<trkpt lat="50.836065" lon="4.915902"><ele>56.58</ele><time>2025-05-24T11:54:07Z</time></trkpt>
<trkpt lat="50.835991" lon="4.915589"><ele>57.44</ele><time>2025-05-24T11:54:16Z</time></trkpt>
<trkpt lat="50.835895" lon="4.914911"><ele>59.32</ele><time>2025-05-24T11:54:25Z</time></trkpt>
<trkpt lat="50.835729" lon="4.912352"><ele>60.0</ele><time>2025-05-24T11:54:34Z</time></trkpt>
<trkpt lat="50.835681" lon="4.911672"><ele>60.55</ele><time>2025-05-24T11:54:44Z</time></trkpt>
<trkpt lat="50.835639" lon="4.911485"><ele>61.35</ele><time>2025-05-24T11:54:53Z</time></trkpt>
<trkpt lat="50.835543" lon="4.911218"><ele>62.0</ele><time>2025-05-24T11:55:02Z</time></trkpt>
<trkpt lat="50.835484" lon="4.911112"><ele>62.0</ele><time>2025-05-24T11:55:11Z</time></trkpt>
<trkpt lat="50.835034" lon="4.910638"><ele>63.0</ele><time>2025-05-24T11:55:20Z</time></trkpt>
<trkpt lat="50.832992" lon="4.908537"><ele>70.0</ele><time>2025-05-24T11:55:30Z</time></trkpt>
<trkpt lat="50.832692" lon="4.908211"><ele>70.14</ele><time>2025-05-24T11:55:39Z</time></trkpt>
<trkpt lat="50.832594" lon="4.908081"><ele>70.6</ele><time>2025-05-24T11:55:48Z</time></trkpt>
<trkpt lat="50.832496" lon="4.90794"><ele>71.02</ele><time>2025-05-24T11:55:57Z</time></trkpt>
<trkpt lat="50.832162" lon="4.907332"><ele>74.0</ele><time>2025-05-24T11:56:06Z</time></trkpt>
<trkpt lat="50.831509" lon="4.906098"><ele>74.5</ele><time>2025-05-24T11:56:15Z</time></trkpt>
<trkpt lat="50.831202" lon="4.905613"><ele>74.41</ele><time>2025-05-24T11:56:25Z</time></trkpt>
<trkpt lat="50.829708" lon="4.90355"><ele>74.74</ele><time>2025-05-24T11:56:34Z</time></trkpt>
<trkpt lat="50.829502" lon="4.903233"><ele>74.29</ele><time>2025-05-24T11:56:43Z</time></trkpt>
<trkpt lat="50.826733" lon="4.898439"><ele>72.24</ele><time>2025-05-24T11:56:52Z</time></trkpt>
<trkpt lat="50.826516" lon="4.898134"><ele>70.92</ele><time>2025-05-24T11:57:01Z</time></trkpt>
<trkpt lat="50.826141" lon="4.89769"><ele>70.32</ele><time>2025-05-24T11:57:10Z</time></trkpt>
<trkpt lat="50.825456" lon="4.896969"><ele>70.82</ele><time>2025-05-24T11:57:20Z</time></trkpt>
<trkpt lat="50.825037" lon="4.896486"><ele>67.43</ele><time>2025-05-24T11:57:29Z</time></trkpt>
<trkpt lat="50.82484" lon="4.896208"><ele>66.42</ele><time>2025-05-24T11:57:38Z</time></trkpt>
<trkpt lat="50.824525" lon="4.895675"><ele>65.71</ele><time>2025-05-24T11:57:47Z</time></trkpt>
<trkpt lat="50.824317" lon="4.895272"><ele>65.92</ele><time>2025-05-24T11:57:56Z</time></trkpt>
<trkpt lat="50.823803" lon="4.89403"><ele>64.31</ele><time>2025-05-24T11:58:06Z</time></trkpt>
<trkpt lat="50.823521" lon="4.893479"><ele>64.32</ele><time>2025-05-24T11:58:15Z</time></trkpt>
<trkpt lat="50.823057" lon="4.892756"><ele>64.08</ele><time>2025-05-24T11:58:24Z</time></trkpt>
<trkpt lat="50.822463" lon="4.891629"><ele>68.39</ele><time>2025-05-24T11:58:33Z</time></trkpt>
<trkpt lat="50.822457" lon="4.891557"><ele>68.89</ele><time>2025-05-24T11:58:42Z</time></trkpt>
<trkpt lat="50.822363" lon="4.891305"><ele>70.3</ele><time>2025-05-24T11:58:51Z</time></trkpt>
<trkpt lat="50.822241" lon="4.891188"><ele>70.72</ele><time>2025-05-24T11:59:01Z</time></trkpt>
<trkpt lat="50.821905" lon="4.890724"><ele>71.0</ele><time>2025-05-24T11:59:10Z</time></trkpt>
<trkpt lat="50.820688" lon="4.888094"><ele>72.55</ele><time>2025-05-24T11:59:19Z</time></trkpt>
<trkpt lat="50.820577" lon="4.887856"><ele>72.08</ele><time>2025-05-24T11:59:28Z</time></trkpt>
<trkpt lat="50.820412" lon="4.887602"><ele>72.19</ele><time>2025-05-24T11:59:37Z</time></trkpt>
<trkpt lat="50.820104" lon="4.887251"><ele>72.0</ele><time>2025-05-24T11:59:46Z</time></trkpt>
<trkpt lat="50.819947" lon="4.887121"><ele>71.64</ele><time>2025-05-24T11:59:56Z</time></trkpt>
<trkpt lat="50.819743" lon="4.887185"><ele>71.86</ele><time>2025-05-24T12:00:00Z</time></trkpt>
<trkpt lat="50.819253" lon="4.887525"><ele>72.0</ele><time>2025-05-24T12:00:04Z</time></trkpt>
<trkpt lat="50.818901" lon="4.887509"><ele>71.97</ele><time>2025-05-24T12:00:09Z</time></trkpt>
<trkpt lat="50.818705" lon="4.887442"><ele>71.34</ele><time>2025-05-24T12:00:13Z</time></trkpt>
<trkpt lat="50.818518" lon="4.88732"><ele>70.66</ele><time>2025-05-24T12:00:17Z</time></trkpt>
<trkpt lat="50.818311" lon="4.88706"><ele>70.54</ele><time>2025-05-24T12:00:21Z</time></trkpt>
<trkpt lat="50.818044" lon="4.886562"><ele>69.94</ele><time>2025-05-24T12:00:26Z</time></trkpt>
<trkpt lat="50.817978" lon="4.886497"><ele>69.55</ele><time>2025-05-24T12:00:30Z</time></trkpt>
<trkpt lat="50.817645" lon="4.886427"><ele>67.11</ele><time>2025-05-24T12:00:34Z</time></trkpt>
<trkpt lat="50.817492" lon="4.88645"><ele>65.96</ele><time>2025-05-24T12:00:39Z</time></trkpt>
<trkpt lat="50.81649" lon="4.887475"><ele>63.06</ele><time>2025-05-24T12:00:43Z</time></trkpt>
<trkpt lat="50.816389" lon="4.887543"><ele>62.85</ele><time>2025-05-24T12:00:47Z</time></trkpt>
<trkpt lat="50.816329" lon="4.887556"><ele>63.23</ele><time>2025-05-24T12:00:51Z</time></trkpt>
<trkpt lat="50.816266" lon="4.887535"><ele>63.76</ele><time>2025-05-24T12:00:56Z</time></trkpt>
<trkpt lat="50.815739" lon="4.887242"><ele>65.0</ele><time>2025-05-24T12:01:00Z</time></trkpt>
<trkpt lat="50.815743" lon="4.887073"><ele>66.31</ele><time>2025-05-24T12:01:31Z</time></trkpt>
<trkpt lat="50.815743" lon="4.887073"><ele>66.31</ele><time>2025-05-24T12:01:31Z</time></trkpt>
<trkpt lat="50.815653" lon="4.88635"><ele>67.3</ele><time>2025-05-24T12:01:38Z</time></trkpt>
<trkpt lat="50.815742" lon="4.886175"><ele>66.66</ele><time>2025-05-24T12:01:44Z</time></trkpt>
<trkpt lat="50.816371" lon="4.885885"><ele>64.88</ele><time>2025-05-24T12:01:50Z</time></trkpt>
<trkpt lat="50.816856" lon="4.884124"><ele>65.32</ele><time>2025-05-24T12:01:56Z</time></trkpt>
<trkpt lat="50.816889" lon="4.883958"><ele>65.2</ele><time>2025-05-24T12:02:02Z</time></trkpt>
<trkpt lat="50.816867" lon="4.883782"><ele>65.67</ele><time>2025-05-24T12:02:09Z</time></trkpt>
<trkpt lat="50.816628" lon="4.883084"><ele>67.14</ele><time>2025-05-24T12:02:15Z</time></trkpt>
<trkpt lat="50.815787" lon="4.881291"><ele>70.17</ele><time>2025-05-24T12:02:21Z</time></trkpt>
<trkpt lat="50.815472" lon="4.880737"><ele>72.0</ele><time>2025-05-24T12:02:27Z</time></trkpt>
<trkpt lat="50.815315" lon="4.880424"><ele>72.0</ele><time>2025-05-24T12:02:34Z</time></trkpt>
<trkpt lat="50.815147" lon="4.88004"><ele>72.47</ele><time>2025-05-24T12:02:40Z</time></trkpt>
<trkpt lat="50.81506" lon="4.879778"><ele>72.15</ele><time>2025-05-24T12:02:46Z</time></trkpt>
<trkpt lat="50.81499" lon="4.879506"><ele>72.0</ele><time>2025-05-24T12:02:52Z</time></trkpt>
<trkpt lat="50.814931" lon="4.879141"><ele>72.0</ele><time>2025-05-24T12:02:59Z</time></trkpt>
<trkpt lat="50.814861" lon="4.878503"><ele>73.19</ele><time>2025-05-24T12:03:05Z</time></trkpt>
<trkpt lat="50.814852" lon="4.878206"><ele>73.99</ele><time>2025-05-24T12:03:11Z</time></trkpt>
<trkpt lat="50.814853" lon="4.877855"><ele>75.25</ele><time>2025-05-24T12:03:17Z</time></trkpt>
<trkpt lat="50.815008" lon="4.874319"><ele>84.44</ele><time>2025-05-24T12:03:24Z</time></trkpt>
<trkpt lat="50.815011" lon="4.874022"><ele>84.96</ele><time>2025-05-24T12:03:30Z</time></trkpt>
<trkpt lat="50.81499" lon="4.873772"><ele>85.42</ele><time>2025-05-24T12:03:36Z</time></trkpt>
<trkpt lat="50.814952" lon="4.873547"><ele>86.04</ele><time>2025-05-24T12:03:42Z</time></trkpt>
<trkpt lat="50.814196" lon="4.87076"><ele>94.81</ele><time>2025-05-24T12:03:48Z</time></trkpt>
<trkpt lat="50.814141" lon="4.870474"><ele>95.2</ele><time>2025-05-24T12:03:55Z</time></trkpt>
<trkpt lat="50.814113" lon="4.870221"><ele>95.81</ele><time>2025-05-24T12:04:01Z</time></trkpt>
<trkpt lat="50.813966" lon="4.862772"><ele>81.98</ele><time>2025-05-24T12:04:07Z</time></trkpt>
<trkpt lat="50.813936" lon="4.861942"><ele>80.83</ele><time>2025-05-24T12:04:13Z</time></trkpt>
<trkpt lat="50.813849" lon="4.86095"><ele>80.64</ele><time>2025-05-24T12:04:20Z</time></trkpt>
<trkpt lat="50.813711" lon="4.860044"><ele>81.0</ele><time>2025-05-24T12:04:26Z</time></trkpt>
<trkpt lat="50.8136" lon="4.859486"><ele>79.96</ele><time>2025-05-24T12:04:32Z</time></trkpt>
<trkpt lat="50.812956" lon="4.856941"><ele>78.64</ele><time>2025-05-24T12:04:38Z</time></trkpt>
<trkpt lat="50.812901" lon="4.856646"><ele>78.48</ele><time>2025-05-24T12:04:45Z</time></trkpt>
<trkpt lat="50.81288" lon="4.856374"><ele>79.0</ele><time>2025-05-24T12:04:51Z</time></trkpt>
<trkpt lat="50.812891" lon="4.856079"><ele>79.0</ele><time>2025-05-24T12:04:57Z</time></trkpt>
<trkpt lat="50.812949" lon="4.855736"><ele>79.0</ele><time>2025-05-24T12:05:03Z</time></trkpt>
<trkpt lat="50.813626" lon="4.853445"><ele>78.05</ele><time>2025-05-24T12:05:09Z</time></trkpt>
<trkpt lat="50.813718" lon="4.852961"><ele>78.39</ele><time>2025-05-24T12:05:16Z</time></trkpt>
<trkpt lat="50.81374" lon="4.85275"><ele>78.51</ele><time>2025-05-24T12:05:22Z</time></trkpt>
<trkpt lat="50.813756" lon="4.852527"><ele>78.95</ele><time>2025-05-24T12:05:28Z</time></trkpt>
<trkpt lat="50.813756" lon="4.852155"><ele>79.24</ele><time>2025-05-24T12:05:34Z</time></trkpt>
<trkpt lat="50.813693" lon="4.849121"><ele>82.29</ele><time>2025-05-24T12:05:41Z</time></trkpt>
<trkpt lat="50.813682" lon="4.848804"><ele>82.18</ele><time>2025-05-24T12:05:47Z</time></trkpt>
<trkpt lat="50.813612" lon="4.848179"><ele>81.44</ele><time>2025-05-24T12:05:53Z</time></trkpt>
<trkpt lat="50.813527" lon="4.847716"><ele>80.47</ele><time>2025-05-24T12:05:59Z</time></trkpt>
<trkpt lat="50.812987" lon="4.845492"><ele>76.98</ele><time>2025-05-24T12:06:06Z</time></trkpt>
<trkpt lat="50.812814" lon="4.84498"><ele>77.14</ele><time>2025-05-24T12:06:12Z</time></trkpt>
<trkpt lat="50.812638" lon="4.844605"><ele>76.5</ele><time>2025-05-24T12:06:18Z</time></trkpt>
<trkpt lat="50.811924" lon="4.843379"><ele>70.09</ele><time>2025-05-24T12:06:24Z</time></trkpt>
<trkpt lat="50.811836" lon="4.843204"><ele>69.9</ele><time>2025-05-24T12:06:31Z</time></trkpt>
<trkpt lat="50.811723" lon="4.842902"><ele>69.41</ele><time>2025-05-24T12:06:37Z</time></trkpt>
<trkpt lat="50.81165" lon="4.842625"><ele>69.55</ele><time>2025-05-24T12:06:43Z</time></trkpt>
<trkpt lat="50.811472" lon="4.841672"><ele>71.0</ele><time>2025-05-24T12:06:49Z</time></trkpt>
<trkpt lat="50.811444" lon="4.841396"><ele>72.75</ele><time>2025-05-24T12:06:55Z</time></trkpt>
<trkpt lat="50.811444" lon="4.841211"><ele>73.44</ele><time>2025-05-24T12:07:02Z</time></trkpt>
<trkpt lat="50.811471" lon="4.841018"><ele>73.8</ele><time>2025-05-24T12:07:08Z</time></trkpt>
<trkpt lat="50.811545" lon="4.840734"><ele>74.0</ele><time>2025-05-24T12:07:14Z</time></trkpt>
<trkpt lat="50.811571" lon="4.840542"><ele>74.05</ele><time>2025-05-24T12:07:20Z</time></trkpt>
<trkpt lat="50.811571" lon="4.840378"><ele>74.64</ele><time>2025-05-24T12:07:27Z</time></trkpt>
<trkpt lat="50.811558" lon="4.840223"><ele>75.19</ele><time>2025-05-24T12:07:33Z</time></trkpt>
<trkpt lat="50.811315" lon="4.839268"><ele>78.17</ele><time>2025-05-24T12:07:39Z</time></trkpt>
<trkpt lat="50.811236" lon="4.838534"><ele>79.55</ele><time>2025-05-24T12:07:45Z</time></trkpt>
<trkpt lat="50.811107" lon="4.836675"><ele>80.99</ele><time>2025-05-24T12:07:52Z</time></trkpt>
<trkpt lat="50.811107" lon="4.836445"><ele>80.99</ele><time>2025-05-24T12:07:58Z</time></trkpt>
<trkpt lat="50.811214" lon="4.835824"><ele>81.0</ele><time>2025-05-24T12:08:04Z</time></trkpt>
<trkpt lat="50.811223" lon="4.835618"><ele>81.0</ele><time>2025-05-24T12:08:10Z</time></trkpt>
<trkpt lat="50.811201" lon="4.8354"><ele>81.0</ele><time>2025-05-24T12:08:17Z</time></trkpt>
<trkpt lat="50.811141" lon="4.835054"><ele>81.0</ele><time>2025-05-24T12:08:23Z</time></trkpt>
<trkpt lat="50.810676" lon="4.832543"><ele>81.28</ele><time>2025-05-24T12:08:29Z</time></trkpt>
<trkpt lat="50.810555" lon="4.832048"><ele>81.63</ele><time>2025-05-24T12:08:35Z</time></trkpt>
<trkpt lat="50.81041" lon="4.831636"><ele>82.53</ele><time>2025-05-24T12:08:41Z</time></trkpt>
<trkpt lat="50.810235" lon="4.831235"><ele>82.85</ele><time>2025-05-24T12:08:48Z</time></trkpt>
<trkpt lat="50.810045" lon="4.830884"><ele>82.16</ele><time>2025-05-24T12:08:54Z</time></trkpt>
<trkpt lat="50.809792" lon="4.830541"><ele>82.07</ele><time>2025-05-24T12:09:00Z</time></trkpt>
<trkpt lat="50.8028" lon="4.821983"><ele>81.07</ele><time>2025-05-24T12:09:06Z</time></trkpt>
<trkpt lat="50.802407" lon="4.821373"><ele>80.0</ele><time>2025-05-24T12:09:13Z</time></trkpt>
<trkpt lat="50.801716" lon="4.820224"><ele>81.98</ele><time>2025-05-24T12:09:19Z</time></trkpt>
<trkpt lat="50.801518" lon="4.819942"><ele>83.42</ele><time>2025-05-24T12:09:25Z</time></trkpt>
<trkpt lat="50.801389" lon="4.819792"><ele>83.25</ele><time>2025-05-24T12:09:31Z</time></trkpt>
<trkpt lat="50.801072" lon="4.819565"><ele>84.14</ele><time>2025-05-24T12:09:38Z</time></trkpt>
<trkpt lat="50.79991" lon="4.818819"><ele>83.25</ele><time>2025-05-24T12:09:44Z</time></trkpt>
<trkpt lat="50.799589" lon="4.818554"><ele>84.48</ele><time>2025-05-24T12:09:50Z</time></trkpt>
<trkpt lat="50.799625" lon="4.818465"><ele>84.9</ele><time>2025-05-24T12:09:51Z</time></trkpt>
<trkpt lat="50.799625" lon="4.818465"><ele>84.9</ele><time>2025-05-24T12:09:51Z</time></trkpt>
<trkpt lat="50.799796" lon="4.818034"><ele>85.32</ele><time>2025-05-24T12:09:58Z</time></trkpt>
<trkpt lat="50.79989" lon="4.81766"><ele>86.0</ele><time>2025-05-24T12:10:06Z</time></trkpt>
<trkpt lat="50.799968" lon="4.817235"><ele>86.0</ele><time>2025-05-24T12:10:14Z</time></trkpt>
<trkpt lat="50.800268" lon="4.815269"><ele>85.07</ele><time>2025-05-24T12:10:22Z</time></trkpt>
<trkpt lat="50.800515" lon="4.813715"><ele>86.0</ele><time>2025-05-24T12:10:29Z</time></trkpt>
<trkpt lat="50.800661" lon="4.813244"><ele>85.42</ele><time>2025-05-24T12:10:37Z</time></trkpt>
<trkpt lat="50.800827" lon="4.812808"><ele>85.0</ele><time>2025-05-24T12:10:45Z</time></trkpt>
<trkpt lat="50.803745" lon="4.806808"><ele>90.0</ele><time>2025-05-24T12:10:53Z</time></trkpt>
<trkpt lat="50.804376" lon="4.805275"><ele>93.0</ele><time>2025-05-24T12:11:00Z</time></trkpt>
<trkpt lat="50.806838" lon="4.798862"><ele>81.1</ele><time>2025-05-24T12:11:08Z</time></trkpt>
<trkpt lat="50.80771" lon="4.796522"><ele>80.76</ele><time>2025-05-24T12:11:16Z</time></trkpt>
<trkpt lat="50.808307" lon="4.794917"><ele>78.7</ele><time>2025-05-24T12:11:24Z</time></trkpt>
<trkpt lat="50.80853" lon="4.794503"><ele>77.21</ele><time>2025-05-24T12:11:31Z</time></trkpt>
<trkpt lat="50.808699" lon="4.794258"><ele>76.64</ele><time>2025-05-24T12:11:39Z</time></trkpt>
<trkpt lat="50.808854" lon="4.794075"><ele>76.58</ele><time>2025-05-24T12:11:47Z</time></trkpt>
<trkpt lat="50.809097" lon="4.793845"><ele>76.63</ele><time>2025-05-24T12:11:54Z</time></trkpt>
<trkpt lat="50.8094" lon="4.793643"><ele>76.02</ele><time>2025-05-24T12:12:02Z</time></trkpt>
<trkpt lat="50.80999" lon="4.793375"><ele>76.0</ele><time>2025-05-24T12:12:10Z</time></trkpt>
<trkpt lat="50.81007" lon="4.793348"><ele>76.0</ele><time>2025-05-24T12:12:18Z</time></trkpt>
<trkpt lat="50.810235" lon="4.793317"><ele>76.0</ele><time>2025-05-24T12:12:25Z</time></trkpt>
<trkpt lat="50.81053" lon="4.793133"><ele>75.35</ele><time>2025-05-24T12:12:33Z</time></trkpt>
<trkpt lat="50.810771" lon="4.79294"><ele>75.77</ele><time>2025-05-24T12:12:41Z</time></trkpt>
<trkpt lat="50.811104" lon="4.792541"><ele>76.97</ele><time>2025-05-24T12:12:49Z</time></trkpt>
<trkpt lat="50.811307" lon="4.792242"><ele>77.0</ele><time>2025-05-24T12:12:56Z</time></trkpt>
<trkpt lat="50.811545" lon="4.791771"><ele>78.0</ele><time>2025-05-24T12:13:04Z</time></trkpt>
<trkpt lat="50.811675" lon="4.791474"><ele>78.73</ele><time>2025-05-24T12:13:12Z</time></trkpt>
<trkpt lat="50.812038" lon="4.790542"><ele>80.38</ele><time>2025-05-24T12:13:20Z</time></trkpt>
<trkpt lat="50.812038" lon="4.790542"><ele>80.38</ele><time>2025-05-24T12:13:20Z</time></trkpt>
<trkpt lat="50.812001" lon="4.79063"><ele>80.0</ele><time>2025-05-24T12:13:20Z</time></trkpt>
<trkpt lat="50.811653" lon="4.789942"><ele>78.75</ele><time>2025-05-24T12:13:29Z</time></trkpt>
<trkpt lat="50.811235" lon="4.789045"><ele>77.0</ele><time>2025-05-24T12:13:37Z</time></trkpt>
<trkpt lat="50.810994" lon="4.788647"><ele>76.13</ele><time>2025-05-24T12:13:46Z</time></trkpt>
<trkpt lat="50.810272" lon="4.787725"><ele>76.98</ele><time>2025-05-24T12:13:54Z</time></trkpt>
<trkpt lat="50.809899" lon="4.787212"><ele>77.36</ele><time>2025-05-24T12:14:03Z</time></trkpt>
<trkpt lat="50.808624" lon="4.785154"><ele>76.0</ele><time>2025-05-24T12:14:11Z</time></trkpt>
<trkpt lat="50.808178" lon="4.784476"><ele>78.56</ele><time>2025-05-24T12:14:20Z</time></trkpt>
<trkpt lat="50.807805" lon="4.78399"><ele>79.9</ele><time>2025-05-24T12:14:29Z</time></trkpt>
<trkpt lat="50.807317" lon="4.783482"><ele>80.0</ele><time>2025-05-24T12:14:37Z</time></trkpt>
<trkpt lat="50.805538" lon="4.782059"><ele>82.52</ele><time>2025-05-24T12:14:46Z</time></trkpt>
<trkpt lat="50.805345" lon="4.781943"><ele>82.24</ele><time>2025-05-24T12:14:54Z</time></trkpt>
<trkpt lat="50.802336" lon="4.781568"><ele>84.11</ele><time>2025-05-24T12:15:03Z</time></trkpt>
<trkpt lat="50.8019" lon="4.781426"><ele>85.14</ele><time>2025-05-24T12:15:11Z</time></trkpt>
<trkpt lat="50.800486" lon="4.780484"><ele>86.25</ele><time>2025-05-24T12:15:20Z</time></trkpt>
<trkpt lat="50.799004" lon="4.779633"><ele>88.41</ele><time>2025-05-24T12:15:28Z</time></trkpt>
<trkpt lat="50.797468" lon="4.778064"><ele>90.02</ele><time>2025-05-24T12:15:37Z</time></trkpt>
<trkpt lat="50.795635" lon="4.776068"><ele>95.87</ele><time>2025-05-24T12:15:45Z</time></trkpt>
<trkpt lat="50.794578" lon="4.7751"><ele>99.0</ele><time>2025-05-24T12:15:54Z</time></trkpt>
<trkpt lat="50.793078" lon="4.773872"><ele>100.94</ele><time>2025-05-24T12:16:02Z</time></trkpt>
<trkpt lat="50.792592" lon="4.773629"><ele>100.65</ele><time>2025-05-24T12:16:11Z</time></trkpt>
<trkpt lat="50.792592" lon="4.773629"><ele>100.65</ele><time>2025-05-24T12:16:11Z</time></trkpt>
<trkpt lat="50.792165" lon="4.773535"><ele>101.21</ele><time>2025-05-24T12:16:16Z</time></trkpt>
<trkpt lat="50.791709" lon="4.773616"><ele>102.02</ele><time>2025-05-24T12:16:21Z</time></trkpt>
<trkpt lat="50.791358" lon="4.773767"><ele>100.5</ele><time>2025-05-24T12:16:25Z</time></trkpt>
<trkpt lat="50.789752" lon="4.774625"><ele>96.11</ele><time>2025-05-24T12:16:30Z</time></trkpt>
<trkpt lat="50.788248" lon="4.775024"><ele>90.61</ele><time>2025-05-24T12:16:35Z</time></trkpt>
<trkpt lat="50.787449" lon="4.775086"><ele>91.81</ele><time>2025-05-24T12:16:40Z</time></trkpt>
<trkpt lat="50.785024" lon="4.775054"><ele>87.18</ele><time>2025-05-24T12:16:45Z</time></trkpt>
<trkpt lat="50.784756" lon="4.775071"><ele>87.0</ele><time>2025-05-24T12:16:50Z</time></trkpt>
<trkpt lat="50.78465" lon="4.775111"><ele>87.0</ele><time>2025-05-24T12:16:55Z</time></trkpt>
<trkpt lat="50.784008" lon="4.775538"><ele>84.89</ele><time>2025-05-24T12:17:00Z</time></trkpt>
<trkpt lat="50.78373" lon="4.775655"><ele>83.43</ele><time>2025-05-24T12:17:05Z</time></trkpt>
<trkpt lat="50.783535" lon="4.775697"><ele>82.73</ele><time>2025-05-24T12:17:10Z</time></trkpt>
<trkpt lat="50.783119" lon="4.775735"><ele>82.0</ele><time>2025-05-24T12:17:15Z</time></trkpt>
<trkpt lat="50.78297" lon="4.775793"><ele>82.0</ele><time>2025-05-24T12:17:19Z</time></trkpt>
<trkpt lat="50.782514" lon="4.776079"><ele>82.99</ele><time>2025-05-24T12:17:24Z</time></trkpt>
<trkpt lat="50.782346" lon="4.776105"><ele>82.46</ele><time>2025-05-24T12:17:29Z</time></trkpt>
<trkpt lat="50.781821" lon="4.77599"><ele>83.13</ele><time>2025-05-24T12:17:34Z</time></trkpt>
<trkpt lat="50.78165" lon="4.776002"><ele>84.08</ele><time>2025-05-24T12:17:39Z</time></trkpt>
<trkpt lat="50.781016" lon="4.776273"><ele>84.0</ele><time>2025-05-24T12:17:44Z</time></trkpt>
<trkpt lat="50.780956" lon="4.776348"><ele>84.0</ele><time>2025-05-24T12:17:49Z</time></trkpt>
<trkpt lat="50.780843" lon="4.776353"><ele>84.0</ele><time>2025-05-24T12:17:54Z</time></trkpt>
<trkpt lat="50.780612" lon="4.776328"><ele>84.0</ele><time>2025-05-24T12:17:59Z</time></trkpt>
<trkpt lat="50.780161" lon="4.776191"><ele>84.0</ele><time>2025-05-24T12:18:04Z</time></trkpt>
<trkpt lat="50.779513" lon="4.775839"><ele>83.49</ele><time>2025-05-24T12:18:09Z</time></trkpt>
<trkpt lat="50.77929" lon="4.775764"><ele>82.44</ele><time>2025-05-24T12:18:13Z</time></trkpt>
<trkpt lat="50.779085" lon="4.775814"><ele>82.29</ele><time>2025-05-24T12:18:18Z</time></trkpt>
<trkpt lat="50.778539" lon="4.776121"><ele>83.0</ele><time>2025-05-24T12:18:23Z</time></trkpt>
<trkpt lat="50.777645" lon="4.776435"><ele>83.08</ele><time>2025-05-24T12:18:28Z</time></trkpt>
<trkpt lat="50.777136" lon="4.776781"><ele>85.62</ele><time>2025-05-24T12:18:33Z</time></trkpt>
<trkpt lat="50.775402" lon="4.778328"><ele>89.2</ele><time>2025-05-24T12:18:38Z</time></trkpt>
<trkpt lat="50.775402" lon="4.778328"><ele>89.2</ele><time>2025-05-24T12:18:38Z</time></trkpt>
<trkpt lat="50.775335" lon="4.778388"><ele>92.79</ele><time>2025-05-24T12:18:39Z</time></trkpt>
<trkpt lat="50.775033" lon="4.77562"><ele>91.23</ele><time>2025-05-24T12:18:59Z</time></trkpt>
<trkpt lat="50.774922" lon="4.774932"><ele>89.21</ele><time>2025-05-24T12:19:18Z</time></trkpt>
<trkpt lat="50.774792" lon="4.774324"><ele>89.32</ele><time>2025-05-24T12:19:38Z</time></trkpt>
<trkpt lat="50.774264" lon="4.772327"><ele>92.24</ele><time>2025-05-24T12:19:58Z</time></trkpt>
<trkpt lat="50.773979" lon="4.770455"><ele>91.15</ele><time>2025-05-24T12:20:18Z</time></trkpt>
<trkpt lat="50.773592" lon="4.768171"><ele>90.35</ele><time>2025-05-24T12:20:37Z</time></trkpt>
<trkpt lat="50.773537" lon="4.767701"><ele>90.01</ele><time>2025-05-24T12:20:57Z</time></trkpt>
<trkpt lat="50.773518" lon="4.767152"><ele>90.5</ele><time>2025-05-24T12:21:17Z</time></trkpt>
<trkpt lat="50.773531" lon="4.76623"><ele>90.0</ele><time>2025-05-24T12:21:37Z</time></trkpt>
<trkpt lat="50.773642" lon="4.765207"><ele>91.0</ele><time>2025-05-24T12:21:56Z</time></trkpt>
<trkpt lat="50.773639" lon="4.764903"><ele>91.0</ele><time>2025-05-24T12:22:16Z</time></trkpt>
<trkpt lat="50.773616" lon="4.764554"><ele>91.0</ele><time>2025-05-24T12:22:36Z</time></trkpt>
<trkpt lat="50.773474" lon="4.763592"><ele>90.03</ele><time>2025-05-24T12:22:56Z</time></trkpt>
<trkpt lat="50.773425" lon="4.762846"><ele>91.34</ele><time>2025-05-24T12:23:15Z</time></trkpt>
<trkpt lat="50.77341" lon="4.762448"><ele>91.0</ele><time>2025-05-24T12:23:35Z</time></trkpt>
<trkpt lat="50.773408" lon="4.760509"><ele>91.56</ele><time>2025-05-24T12:23:55Z</time></trkpt>
<trkpt lat="50.773362" lon="4.758933"><ele>86.9</ele><time>2025-05-24T12:24:15Z</time></trkpt>
<trkpt lat="50.773287" lon="4.757892"><ele>82.41</ele><time>2025-05-24T12:24:34Z</time></trkpt>
<trkpt lat="50.772978" lon="4.756337"><ele>83.28</ele><time>2025-05-24T12:24:54Z</time></trkpt>
<trkpt lat="50.77283" lon="4.755478"><ele>87.09</ele><time>2025-05-24T12:25:14Z</time></trkpt>
<trkpt lat="50.772762" lon="4.754909"><ele>88.38</ele><time>2025-05-24T12:25:34Z</time></trkpt>
<trkpt lat="50.772732" lon="4.754811"><ele>88.66</ele><time>2025-05-24T12:25:53Z</time></trkpt>
<trkpt lat="50.772732" lon="4.754811"><ele>88.66</ele><time>2025-05-24T12:25:53Z</time></trkpt>
<trkpt lat="50.77267" lon="4.754716"><ele>89.4</ele><time>2025-05-24T12:25:57Z</time></trkpt>
<trkpt lat="50.772585" lon="4.75468"><ele>89.74</ele><time>2025-05-24T12:26:00Z</time></trkpt>
<trkpt lat="50.772444" lon="4.754702"><ele>90.2</ele><time>2025-05-24T12:26:04Z</time></trkpt>
<trkpt lat="50.772168" lon="4.754816"><ele>90.66</ele><time>2025-05-24T12:26:07Z</time></trkpt>
<trkpt lat="50.771915" lon="4.754963"><ele>89.92</ele><time>2025-05-24T12:26:15Z</time></trkpt>
<trkpt lat="50.7718" lon="4.755076"><ele>88.96</ele><time>2025-05-24T12:26:22Z</time></trkpt>
<trkpt lat="50.77156" lon="4.755235"><ele>88.38</ele><time>2025-05-24T12:26:29Z</time></trkpt>
<trkpt lat="50.770991" lon="4.755563"><ele>89.57</ele><time>2025-05-24T12:26:36Z</time></trkpt>
<trkpt lat="50.770813" lon="4.755614"><ele>89.07</ele><time>2025-05-24T12:26:45Z</time></trkpt>
<trkpt lat="50.770597" lon="4.75558"><ele>89.85</ele><time>2025-05-24T12:26:53Z</time></trkpt>
<trkpt lat="50.770451" lon="4.755503"><ele>90.57</ele><time>2025-05-24T12:27:01Z</time></trkpt>
<trkpt lat="50.769916" lon="4.755016"><ele>90.69</ele><time>2025-05-24T12:27:09Z</time></trkpt>
<trkpt lat="50.769389" lon="4.754598"><ele>92.2</ele><time>2025-05-24T12:27:17Z</time></trkpt>
<trkpt lat="50.768318" lon="4.753305"><ele>95.84</ele><time>2025-05-24T12:27:49Z</time></trkpt>
<trkpt lat="50.767588" lon="4.752564"><ele>90.39</ele><time>2025-05-24T12:28:21Z</time></trkpt>
<trkpt lat="50.766117" lon="4.751354"><ele>94.0</ele><time>2025-05-24T12:28:53Z</time></trkpt>
<trkpt lat="50.765448" lon="4.75088"><ele>94.83</ele><time>2025-05-24T12:29:25Z</time></trkpt>
<trkpt lat="50.764875" lon="4.750538"><ele>95.03</ele><time>2025-05-24T12:29:57Z</time></trkpt>
<trkpt lat="50.764234" lon="4.750148"><ele>93.48</ele><time>2025-05-24T12:30:18Z</time></trkpt>
<trkpt lat="50.76395" lon="4.749987"><ele>92.26</ele><time>2025-05-24T12:30:28Z</time></trkpt>
<trkpt lat="50.763647" lon="4.749755"><ele>92.88</ele><time>2025-05-24T12:30:38Z</time></trkpt>
<trkpt lat="50.763527" lon="4.749699"><ele>93.3</ele><time>2025-05-24T12:30:47Z</time></trkpt>
<trkpt lat="50.762965" lon="4.749552"><ele>92.47</ele><time>2025-05-24T12:30:57Z</time></trkpt>
<trkpt lat="50.762309" lon="4.749312"><ele>92.15</ele><time>2025-05-24T12:31:07Z</time></trkpt>
<trkpt lat="50.761971" lon="4.749088"><ele>91.1</ele><time>2025-05-24T12:31:16Z</time></trkpt>
<trkpt lat="50.761736" lon="4.748848"><ele>90.39</ele><time>2025-05-24T12:31:26Z</time></trkpt>
<trkpt lat="50.761594" lon="4.748656"><ele>90.14</ele><time>2025-05-24T12:31:36Z</time></trkpt>
<trkpt lat="50.761498" lon="4.748446"><ele>89.18</ele><time>2025-05-24T12:31:45Z</time></trkpt>
<trkpt lat="50.761311" lon="4.747716"><ele>88.22</ele><time>2025-05-24T12:31:55Z</time></trkpt>
<trkpt lat="50.761246" lon="4.747522"><ele>88.92</ele><time>2025-05-24T12:32:05Z</time></trkpt>
<trkpt lat="50.761101" lon="4.747184"><ele>89.13</ele><time>2025-05-24T12:32:14Z</time></trkpt>
<trkpt lat="50.760973" lon="4.746938"><ele>89.5</ele><time>2025-05-24T12:32:24Z</time></trkpt>
<trkpt lat="50.760384" lon="4.74678"><ele>88.0</ele><time>2025-05-24T12:32:37Z</time></trkpt>
<trkpt lat="50.75999" lon="4.746697"><ele>89.0</ele><time>2025-05-24T12:32:49Z</time></trkpt>
<trkpt lat="50.759689" lon="4.74666"><ele>92.22</ele><time>2025-05-24T12:33:02Z</time></trkpt>
<trkpt lat="50.759111" lon="4.74671"><ele>94.8</ele><time>2025-05-24T12:33:14Z</time></trkpt>
<trkpt lat="50.7589" lon="4.746648"><ele>94.1</ele><time>2025-05-24T12:33:26Z</time></trkpt>
<trkpt lat="50.758713" lon="4.746515"><ele>94.54</ele><time>2025-05-24T12:33:39Z</time></trkpt>
<trkpt lat="50.758527" lon="4.74622"><ele>95.3</ele><time>2025-05-24T12:33:51Z</time></trkpt>
<trkpt lat="50.758373" lon="4.745891"><ele>95.06</ele><time>2025-05-24T12:34:04Z</time></trkpt>
<trkpt lat="50.757555" lon="4.743956"><ele>98.19</ele><time>2025-05-24T12:34:16Z</time></trkpt>
<trkpt lat="50.757463" lon="4.743784"><ele>98.24</ele><time>2025-05-24T12:34:29Z</time></trkpt>
<trkpt lat="50.757434" lon="4.743717"><ele>98.35</ele><time>2025-05-24T12:34:41Z</time></trkpt>
<trkpt lat="50.757434" lon="4.743717"><ele>98.35</ele><time>2025-05-24T12:34:41Z</time></trkpt>
<trkpt lat="50.75742" lon="4.743684"><ele>98.45</ele><time>2025-05-24T12:34:42Z</time></trkpt>
<trkpt lat="50.756508" lon="4.744871"><ele>98.73</ele><time>2025-05-24T12:34:46Z</time></trkpt>
<trkpt lat="50.756221" lon="4.74521"><ele>99.6</ele><time>2025-05-24T12:34:50Z</time></trkpt>
<trkpt lat="50.755645" lon="4.745724"><ele>105.03</ele><time>2025-05-24T12:34:54Z</time></trkpt>
<trkpt lat="50.755082" lon="4.746134"><ele>105.29</ele><time>2025-05-24T12:34:59Z</time></trkpt>
<trkpt lat="50.754552" lon="4.746418"><ele>106.83</ele><time>2025-05-24T12:35:03Z</time></trkpt>
<trkpt lat="50.753977" lon="4.746636"><ele>106.51</ele><time>2025-05-24T12:35:07Z</time></trkpt>
<trkpt lat="50.746264" lon="4.748572"><ele>106.0</ele><time>2025-05-24T12:35:11Z</time></trkpt>
<trkpt lat="50.745756" lon="4.748773"><ele>105.42</ele><time>2025-05-24T12:35:16Z</time></trkpt>
<trkpt lat="50.745322" lon="4.749011"><ele>105.84</ele><time>2025-05-24T12:35:20Z</time></trkpt>
<trkpt lat="50.744976" lon="4.749253"><ele>108.28</ele><time>2025-05-24T12:35:24Z</time></trkpt>
<trkpt lat="50.74451" lon="4.749656"><ele>107.23</ele><time>2025-05-24T12:35:28Z</time></trkpt>
<trkpt lat="50.744149" lon="4.750046"><ele>108.0</ele><time>2025-05-24T12:35:32Z</time></trkpt>
<trkpt lat="50.743734" lon="4.750585"><ele>109.11</ele><time>2025-05-24T12:35:37Z</time></trkpt>
<trkpt lat="50.743428" lon="4.751043"><ele>110.75</ele><time>2025-05-24T12:35:41Z</time></trkpt>
<trkpt lat="50.743134" lon="4.751581"><ele>112.41</ele><time>2025-05-24T12:35:45Z</time></trkpt>
<trkpt lat="50.742718" lon="4.75251"><ele>110.36</ele><time>2025-05-24T12:35:49Z</time></trkpt>
<trkpt lat="50.742594" lon="4.752835"><ele>109.19</ele><time>2025-05-24T12:35:54Z</time></trkpt>
<trkpt lat="50.742343" lon="4.753643"><ele>109.81</ele><time>2025-05-24T12:35:58Z</time></trkpt>
<trkpt lat="50.742123" lon="4.754632"><ele>113.76</ele><time>2025-05-24T12:36:02Z</time></trkpt>
<trkpt lat="50.742016" lon="4.755358"><ele>111.23</ele><time>2025-05-24T12:36:06Z</time></trkpt>
<trkpt lat="50.741946" lon="4.756077"><ele>112.75</ele><time>2025-05-24T12:36:10Z</time></trkpt>
<trkpt lat="50.741912" lon="4.757043"><ele>115.15</ele><time>2025-05-24T12:36:15Z</time></trkpt>
<trkpt lat="50.741926" lon="4.757555"><ele>115.12</ele><time>2025-05-24T12:36:19Z</time></trkpt>
<trkpt lat="50.741994" lon="4.758592"><ele>116.29</ele><time>2025-05-24T12:36:23Z</time></trkpt>
<trkpt lat="50.742118" lon="4.75996"><ele>121.55</ele><time>2025-05-24T12:36:27Z</time></trkpt>
<trkpt lat="50.742139" lon="4.76055"><ele>122.29</ele><time>2025-05-24T12:36:32Z</time></trkpt>
<trkpt lat="50.7419" lon="4.760749"><ele>122.41</ele><time>2025-05-24T12:36:44Z</time></trkpt>
<trkpt lat="50.741351" lon="4.761083"><ele>122.71</ele><time>2025-05-24T12:36:57Z</time></trkpt>
<trkpt lat="50.741351" lon="4.761083"><ele>122.71</ele><time>2025-05-24T12:36:57Z</time></trkpt>
<trkpt lat="50.741297" lon="4.761115"><ele>123.0</ele><time>2025-05-24T12:36:57Z</time></trkpt>
<trkpt lat="50.740291" lon="4.753403"><ele>113.0</ele><time>2025-05-24T12:37:01Z</time></trkpt>
<trkpt lat="50.739594" lon="4.747763"><ele>117.4</ele><time>2025-05-24T12:37:05Z</time></trkpt>
<trkpt lat="50.739506" lon="4.746588"><ele>114.0</ele><time>2025-05-24T12:37:09Z</time></trkpt>
<trkpt lat="50.739584" lon="4.745055"><ele>112.0</ele><time>2025-05-24T12:37:13Z</time></trkpt>
<trkpt lat="50.739696" lon="4.74433"><ele>108.68</ele><time>2025-05-24T12:37:17Z</time></trkpt>
<trkpt lat="50.739808" lon="4.743838"><ele>106.94</ele><time>2025-05-24T12:37:21Z</time></trkpt>
<trkpt lat="50.740155" lon="4.742686"><ele>105.29</ele><time>2025-05-24T12:37:25Z</time></trkpt>
<trkpt lat="50.741805" lon="4.737494"><ele>105.49</ele><time>2025-05-24T12:37:29Z</time></trkpt>
<trkpt lat="50.741875" lon="4.737231"><ele>105.01</ele><time>2025-05-24T12:37:33Z</time></trkpt>
<trkpt lat="50.741901" lon="4.736999"><ele>103.51</ele><time>2025-05-24T12:37:37Z</time></trkpt>
<trkpt lat="50.741918" lon="4.736662"><ele>102.13</ele><time>2025-05-24T12:37:41Z</time></trkpt>
<trkpt lat="50.741894" lon="4.736339"><ele>104.29</ele><time>2025-05-24T12:37:45Z</time></trkpt>
<trkpt lat="50.741818" lon="4.736007"><ele>106.04</ele><time>2025-05-24T12:37:49Z</time></trkpt>
<trkpt lat="50.741742" lon="4.735768"><ele>107.35</ele><time>2025-05-24T12:37:53Z</time></trkpt>
<trkpt lat="50.741616" lon="4.73554"><ele>107.19</ele><time>2025-05-24T12:37:58Z</time></trkpt>
<trkpt lat="50.741455" lon="4.735318"><ele>105.24</ele><time>2025-05-24T12:38:02Z</time></trkpt>
<trkpt lat="50.740452" lon="4.734097"><ele>97.19</ele><time>2025-05-24T12:38:06Z</time></trkpt>
<trkpt lat="50.740296" lon="4.733824"><ele>95.1</ele><time>2025-05-24T12:38:10Z</time></trkpt>
<trkpt lat="50.740173" lon="4.733549"><ele>92.4</ele><time>2025-05-24T12:38:14Z</time></trkpt>
<trkpt lat="50.740077" lon="4.733216"><ele>90.81</ele><time>2025-05-24T12:38:18Z</time></trkpt>
<trkpt lat="50.739794" lon="4.731291"><ele>87.78</ele><time>2025-05-24T12:38:22Z</time></trkpt>
<trkpt lat="50.739711" lon="4.730892"><ele>87.02</ele><time>2025-05-24T12:38:26Z</time></trkpt>
<trkpt lat="50.739605" lon="4.730517"><ele>86.29</ele><time>2025-05-24T12:38:30Z</time></trkpt>
<trkpt lat="50.739475" lon="4.730227"><ele>86.24</ele><time>2025-05-24T12:38:34Z</time></trkpt>
<trkpt lat="50.739315" lon="4.729948"><ele>86.01</ele><time>2025-05-24T12:38:38Z</time></trkpt>
<trkpt lat="50.738253" lon="4.728254"><ele>78.05</ele><time>2025-05-24T12:38:42Z</time></trkpt>
<trkpt lat="50.738131" lon="4.72799"><ele>75.64</ele><time>2025-05-24T12:38:46Z</time></trkpt>
<trkpt lat="50.738058" lon="4.727768"><ele>74.01</ele><time>2025-05-24T12:38:50Z</time></trkpt>
<trkpt lat="50.738008" lon="4.72752"><ele>72.73</ele><time>2025-05-24T12:38:54Z</time></trkpt>
<trkpt lat="50.737978" lon="4.727237"><ele>71.49</ele><time>2025-05-24T12:38:58Z</time></trkpt>
<trkpt lat="50.737699" lon="4.727569"><ele>70.9</ele><time>2025-05-24T12:39:04Z</time></trkpt>
<trkpt lat="50.737363" lon="4.728129"><ele>74.41</ele><time>2025-05-24T12:39:11Z</time></trkpt>
<trkpt lat="50.737214" lon="4.728283"><ele>76.45</ele><time>2025-05-24T12:39:18Z</time></trkpt>
<trkpt lat="50.737042" lon="4.728408"><ele>77.63</ele><time>2025-05-24T12:39:24Z</time></trkpt>
<trkpt lat="50.736883" lon="4.72846"><ele>77.79</ele><time>2025-05-24T12:39:31Z</time></trkpt>
<trkpt lat="50.736522" lon="4.728516"><ele>78.32</ele><time>2025-05-24T12:39:37Z</time></trkpt>
<trkpt lat="50.735444" lon="4.72852"><ele>68.58</ele><time>2025-05-24T12:39:44Z</time></trkpt>
<trkpt lat="50.735192" lon="4.728548"><ele>68.96</ele><time>2025-05-24T12:39:50Z</time></trkpt>
<trkpt lat="50.734924" lon="4.72864"><ele>70.79</ele><time>2025-05-24T12:39:57Z</time></trkpt>
<trkpt lat="50.734667" lon="4.728779"><ele>74.04</ele><time>2025-05-24T12:40:04Z</time></trkpt>
<trkpt lat="50.734123" lon="4.729219"><ele>76.16</ele><time>2025-05-24T12:40:10Z</time></trkpt>
<trkpt lat="50.733882" lon="4.729465"><ele>75.03</ele><time>2025-05-24T12:40:17Z</time></trkpt>
<trkpt lat="50.733683" lon="4.729714"><ele>72.68</ele><time>2025-05-24T12:40:23Z</time></trkpt>
<trkpt lat="50.733019" lon="4.73085"><ele>77.37</ele><time>2025-05-24T12:40:30Z</time></trkpt>
<trkpt lat="50.731688" lon="4.732598"><ele>74.92</ele><time>2025-05-24T12:40:36Z</time></trkpt>
<trkpt lat="50.731535" lon="4.732839"><ele>76.59</ele><time>2025-05-24T12:40:43Z</time></trkpt>
<trkpt lat="50.730817" lon="4.734233"><ele>80.12</ele><time>2025-05-24T12:40:50Z</time></trkpt>
<trkpt lat="50.730608" lon="4.734883"><ele>80.09</ele><time>2025-05-24T12:40:56Z</time></trkpt>
<trkpt lat="50.730241" lon="4.737505"><ele>81.34</ele><time>2025-05-24T12:41:03Z</time></trkpt>
<trkpt lat="50.730254" lon="4.738112"><ele>82.47</ele><time>2025-05-24T12:41:09Z</time></trkpt>
<trkpt lat="50.729932" lon="4.73819"><ele>73.29</ele><time>2025-05-24T12:41:14Z</time></trkpt>
<trkpt lat="50.729827" lon="4.738153"><ele>72.43</ele><time>2025-05-24T12:41:19Z</time></trkpt>
<trkpt lat="50.729461" lon="4.737885"><ele>72.04</ele><time>2025-05-24T12:41:23Z</time></trkpt>
<trkpt lat="50.72915" lon="4.737568"><ele>75.75</ele><time>2025-05-24T12:41:28Z</time></trkpt>
<trkpt lat="50.729059" lon="4.737529"><ele>77.34</ele><time>2025-05-24T12:41:32Z</time></trkpt>
<trkpt lat="50.728413" lon="4.737946"><ele>81.7</ele><time>2025-05-24T12:41:40Z</time></trkpt>
<trkpt lat="50.727961" lon="4.73804"><ele>84.06</ele><time>2025-05-24T12:41:48Z</time></trkpt>
<trkpt lat="50.727415" lon="4.73791"><ele>89.92</ele><time>2025-05-24T12:41:56Z</time></trkpt>
<trkpt lat="50.727006" lon="4.737872"><ele>92.78</ele><time>2025-05-24T12:42:04Z</time></trkpt>
<trkpt lat="50.726418" lon="4.737682"><ele>97.03</ele><time>2025-05-24T12:42:12Z</time></trkpt>
<trkpt lat="50.726103" lon="4.7374"><ele>102.41</ele><time>2025-05-24T12:42:20Z</time></trkpt>
<trkpt lat="50.72562" lon="4.736722"><ele>105.95</ele><time>2025-05-24T12:42:27Z</time></trkpt>
<trkpt lat="50.725489" lon="4.736722"><ele>106.19</ele><time>2025-05-24T12:42:35Z</time></trkpt>
<trkpt lat="50.725181" lon="4.736579"><ele>107.8</ele><time>2025-05-24T12:42:43Z</time></trkpt>
<trkpt lat="50.724821" lon="4.736338"><ele>110.64</ele><time>2025-05-24T12:42:51Z</time></trkpt>
<trkpt lat="50.724502" lon="4.735979"><ele>111.79</ele><time>2025-05-24T12:42:59Z</time></trkpt>
<trkpt lat="50.723999" lon="4.735515"><ele>113.66</ele><time>2025-05-24T12:43:07Z</time></trkpt>
<trkpt lat="50.723227" lon="4.734278"><ele>117.98</ele><time>2025-05-24T12:43:15Z</time></trkpt>
<trkpt lat="50.722334" lon="4.736276"><ele>118.6</ele><time>2025-05-24T12:43:29Z</time></trkpt>
<trkpt lat="50.722233" lon="4.736884"><ele>117.18</ele><time>2025-05-24T12:43:44Z</time></trkpt>
<trkpt lat="50.722199" lon="4.737265"><ele>115.24</ele><time>2025-05-24T12:43:59Z</time></trkpt>
<trkpt lat="50.722208" lon="4.737441"><ele>115.11</ele><time>2025-05-24T12:44:13Z</time></trkpt>
<trkpt lat="50.722133" lon="4.737404"><ele>115.76</ele><time>2025-05-24T12:44:17Z</time></trkpt>
<trkpt lat="50.722079" lon="4.737296"><ele>117.55</ele><time>2025-05-24T12:44:21Z</time></trkpt>
<trkpt lat="50.722079" lon="4.737296"><ele>117.55</ele><time>2025-05-24T12:44:21Z</time></trkpt>
<trkpt lat="50.721884" lon="4.736897"><ele>119.35</ele><time>2025-05-24T12:44:40Z</time></trkpt>
<trkpt lat="50.721426" lon="4.735805"><ele>120.73</ele><time>2025-05-24T12:44:58Z</time></trkpt>
<trkpt lat="50.721184" lon="4.73524"><ele>122.0</ele><time>2025-05-24T12:45:17Z</time></trkpt>
<trkpt lat="50.720637" lon="4.734182"><ele>118.39</ele><time>2025-05-24T12:45:35Z</time></trkpt>
<trkpt lat="50.720199" lon="4.733095"><ele>121.04</ele><time>2025-05-24T12:45:54Z</time></trkpt>
<trkpt lat="50.719966" lon="4.732381"><ele>118.75</ele><time>2025-05-24T12:46:12Z</time></trkpt>
<trkpt lat="50.71973" lon="4.731412"><ele>118.92</ele><time>2025-05-24T12:46:31Z</time></trkpt>
<trkpt lat="50.719658" lon="4.730968"><ele>118.02</ele><time>2025-05-24T12:46:50Z</time></trkpt>
<trkpt lat="50.719595" lon="4.730241"><ele>117.0</ele><time>2025-05-24T12:47:08Z</time></trkpt>
<trkpt lat="50.719613" lon="4.729013"><ele>119.61</ele><time>2025-05-24T12:47:27Z</time></trkpt>
<trkpt lat="50.719591" lon="4.728824"><ele>119.76</ele><time>2025-05-24T12:47:45Z</time></trkpt>
<trkpt lat="50.718645" lon="4.730086"><ele>116.88</ele><time>2025-05-24T12:48:04Z</time></trkpt>
<trkpt lat="50.718701" lon="4.72857"><ele>118.32</ele><time>2025-05-24T12:48:09Z</time></trkpt>
<trkpt lat="50.718681" lon="4.72801"><ele>118.25</ele><time>2025-05-24T12:48:13Z</time></trkpt>
<trkpt lat="50.718628" lon="4.727716"><ele>117.84</ele><time>2025-05-24T12:48:18Z</time></trkpt>
<trkpt lat="50.718535" lon="4.727386"><ele>117.0</ele><time>2025-05-24T12:48:23Z</time></trkpt>
<trkpt lat="50.718317" lon="4.7269"><ele>115.72</ele><time>2025-05-24T12:48:27Z</time></trkpt>
<trkpt lat="50.718148" lon="4.726448"><ele>112.87</ele><time>2025-05-24T12:48:32Z</time></trkpt>
<trkpt lat="50.718108" lon="4.726306"><ele>112.14</ele><time>2025-05-24T12:48:36Z</time></trkpt>
<trkpt lat="50.718056" lon="4.72604"><ele>110.75</ele><time>2025-05-24T12:48:41Z</time></trkpt>
<trkpt lat="50.717996" lon="4.725511"><ele>109.45</ele><time>2025-05-24T12:48:45Z</time></trkpt>
<trkpt lat="50.718066" lon="4.725116"><ele>109.06</ele><time>2025-05-24T12:48:50Z</time></trkpt>
<trkpt lat="50.718362" lon="4.7239"><ele>111.21</ele><time>2025-05-24T12:48:54Z</time></trkpt>
<trkpt lat="50.718368" lon="4.723634"><ele>111.25</ele><time>2025-05-24T12:48:59Z</time></trkpt>
<trkpt lat="50.718259" lon="4.722965"><ele>111.73</ele><time>2025-05-24T12:49:04Z</time></trkpt>
<trkpt lat="50.718254" lon="4.72276"><ele>111.71</ele><time>2025-05-24T12:49:08Z</time></trkpt>
<trkpt lat="50.718269" lon="4.7226"><ele>111.77</ele><time>2025-05-24T12:49:13Z</time></trkpt>
<trkpt lat="50.718323" lon="4.722341"><ele>111.96</ele><time>2025-05-24T12:49:17Z</time></trkpt>
<trkpt lat="50.718373" lon="4.722207"><ele>112.13</ele><time>2025-05-24T12:49:22Z</time></trkpt>
<trkpt lat="50.718536" lon="4.72191"><ele>111.91</ele><time>2025-05-24T12:49:26Z</time></trkpt>
<trkpt lat="50.718944" lon="4.721278"><ele>110.8</ele><time>2025-05-24T12:49:31Z</time></trkpt>
<trkpt lat="50.719246" lon="4.720806"><ele>109.16</ele><time>2025-05-24T12:49:35Z</time></trkpt>
<trkpt lat="50.719424" lon="4.720625"><ele>108.48</ele><time>2025-05-24T12:49:40Z</time></trkpt>
<trkpt lat="50.720135" lon="4.720061"><ele>108.19</ele><time>2025-05-24T12:49:45Z</time></trkpt>
<trkpt lat="50.720376" lon="4.719832"><ele>107.79</ele><time>2025-05-24T12:49:49Z</time></trkpt>
<trkpt lat="50.720577" lon="4.719539"><ele>106.36</ele><time>2025-05-24T12:49:54Z</time></trkpt>
<trkpt lat="50.720706" lon="4.719277"><ele>105.72</ele><time>2025-05-24T12:49:58Z</time></trkpt>
<trkpt lat="50.721448" lon="4.717412"><ele>104.64</ele><time>2025-05-24T12:50:03Z</time></trkpt>
<trkpt lat="50.721867" lon="4.716278"><ele>101.89</ele><time>2025-05-24T12:50:07Z</time></trkpt>
<trkpt lat="50.722309" lon="4.715022"><ele>101.08</ele><time>2025-05-24T12:50:12Z</time></trkpt>
<trkpt lat="50.722563" lon="4.714333"><ele>98.0</ele><time>2025-05-24T12:50:16Z</time></trkpt>
<trkpt lat="50.722629" lon="4.714188"><ele>98.0</ele><time>2025-05-24T12:50:21Z</time></trkpt>
<trkpt lat="50.72276" lon="4.713976"><ele>98.0</ele><time>2025-05-24T12:50:26Z</time></trkpt>
<trkpt lat="50.722946" lon="4.713749"><ele>99.11</ele><time>2025-05-24T12:50:30Z</time></trkpt>
<trkpt lat="50.724568" lon="4.712078"><ele>93.08</ele><time>2025-05-24T12:50:35Z</time></trkpt>
<trkpt lat="50.725452" lon="4.711192"><ele>94.32</ele><time>2025-05-24T12:50:39Z</time></trkpt>
<trkpt lat="50.725847" lon="4.710869"><ele>91.36</ele><time>2025-05-24T12:50:44Z</time></trkpt>
<trkpt lat="50.726189" lon="4.710682"><ele>87.51</ele><time>2025-05-24T12:50:48Z</time></trkpt>
<trkpt lat="50.72715" lon="4.710312"><ele>82.98</ele><time>2025-05-24T12:50:53Z</time></trkpt>
<trkpt lat="50.72818" lon="4.709906"><ele>79.21</ele><time>2025-05-24T12:50:57Z</time></trkpt>
<trkpt lat="50.728534" lon="4.70968"><ele>74.83</ele><time>2025-05-24T12:51:02Z</time></trkpt>
<trkpt lat="50.72883" lon="4.709407"><ele>69.95</ele><time>2025-05-24T12:51:07Z</time></trkpt>
<trkpt lat="50.729041" lon="4.709156"><ele>66.32</ele><time>2025-05-24T12:51:11Z</time></trkpt>
<trkpt lat="50.729246" lon="4.708852"><ele>63.85</ele><time>2025-05-24T12:51:16Z</time></trkpt>
<trkpt lat="50.729695" lon="4.708041"><ele>62.35</ele><time>2025-05-24T12:51:20Z</time></trkpt>
<trkpt lat="50.728856" lon="4.707137"><ele>71.19</ele><time>2025-05-24T12:51:27Z</time></trkpt>
<trkpt lat="50.728785" lon="4.707096"><ele>71.71</ele><time>2025-05-24T12:51:34Z</time></trkpt>
<trkpt lat="50.728456" lon="4.707008"><ele>75.22</ele><time>2025-05-24T12:51:41Z</time></trkpt>
<trkpt lat="50.727956" lon="4.706811"><ele>82.32</ele><time>2025-05-24T12:51:48Z</time></trkpt>
<trkpt lat="50.727718" lon="4.706673"><ele>84.37</ele><time>2025-05-24T12:51:54Z</time></trkpt>
<trkpt lat="50.727639" lon="4.706592"><ele>85.4</ele><time>2025-05-24T12:52:01Z</time></trkpt>
<trkpt lat="50.727596" lon="4.706495"><ele>86.14</ele><time>2025-05-24T12:52:08Z</time></trkpt>
<trkpt lat="50.727571" lon="4.706295"><ele>87.08</ele><time>2025-05-24T12:52:15Z</time></trkpt>
<trkpt lat="50.727598" lon="4.70589"><ele>87.37</ele><time>2025-05-24T12:52:22Z</time></trkpt>
<trkpt lat="50.727666" lon="4.705478"><ele>86.75</ele><time>2025-05-24T12:52:29Z</time></trkpt>
<trkpt lat="50.727664" lon="4.70512"><ele>86.87</ele><time>2025-05-24T12:52:35Z</time></trkpt>
<trkpt lat="50.727637" lon="4.704925"><ele>87.4</ele><time>2025-05-24T12:52:42Z</time></trkpt>
<trkpt lat="50.727579" lon="4.704762"><ele>88.33</ele><time>2025-05-24T12:52:49Z</time></trkpt>
<trkpt lat="50.727302" lon="4.704389"><ele>93.06</ele><time>2025-05-24T12:52:56Z</time></trkpt>
<trkpt lat="50.727115" lon="4.704016"><ele>95.6</ele><time>2025-05-24T12:53:03Z</time></trkpt>
<trkpt lat="50.726391" lon="4.703365"><ele>99.41</ele><time>2025-05-24T12:53:10Z</time></trkpt>
<trkpt lat="50.726391" lon="4.703365"><ele>99.41</ele><time>2025-05-24T12:53:10Z</time></trkpt>
<trkpt lat="50.726078" lon="4.702923"><ele>100.58</ele><time>2025-05-24T12:53:15Z</time></trkpt>
<trkpt lat="50.725997" lon="4.702766"><ele>99.92</ele><time>2025-05-24T12:53:21Z</time></trkpt>
<trkpt lat="50.725938" lon="4.702598"><ele>98.71</ele><time>2025-05-24T12:53:26Z</time></trkpt>
<trkpt lat="50.725583" lon="4.702161"><ele>98.14</ele><time>2025-05-24T12:53:32Z</time></trkpt>
<trkpt lat="50.724987" lon="4.700845"><ele>88.61</ele><time>2025-05-24T12:53:37Z</time></trkpt>
<trkpt lat="50.724872" lon="4.700622"><ele>86.6</ele><time>2025-05-24T12:53:43Z</time></trkpt>
<trkpt lat="50.724694" lon="4.700366"><ele>84.28</ele><time>2025-05-24T12:53:49Z</time></trkpt>
<trkpt lat="50.724449" lon="4.700121"><ele>79.85</ele><time>2025-05-24T12:53:54Z</time></trkpt>
<trkpt lat="50.724325" lon="4.699818"><ele>73.07</ele><time>2025-05-24T12:54:00Z</time></trkpt>
<trkpt lat="50.724088" lon="4.699513"><ele>68.82</ele><time>2025-05-24T12:54:05Z</time></trkpt>
<trkpt lat="50.723959" lon="4.699317"><ele>67.67</ele><time>2025-05-24T12:54:11Z</time></trkpt>
<trkpt lat="50.72387" lon="4.699243"><ele>67.51</ele><time>2025-05-24T12:54:17Z</time></trkpt>
<trkpt lat="50.723699" lon="4.699152"><ele>67.14</ele><time>2025-05-24T12:54:22Z</time></trkpt>
<trkpt lat="50.723074" lon="4.69892"><ele>59.59</ele><time>2025-05-24T12:54:28Z</time></trkpt>
<trkpt lat="50.722848" lon="4.698781"><ele>56.63</ele><time>2025-05-24T12:54:33Z</time></trkpt>
<trkpt lat="50.722778" lon="4.698681"><ele>55.5</ele><time>2025-05-24T12:54:39Z</time></trkpt>
<trkpt lat="50.72286" lon="4.698617"><ele>55.34</ele><time>2025-05-24T12:54:42Z</time></trkpt>
<trkpt lat="50.722956" lon="4.698494"><ele>54.95</ele><time>2025-05-24T12:54:45Z</time></trkpt>
<trkpt lat="50.723197" lon="4.698144"><ele>53.99</ele><time>2025-05-24T12:54:48Z</time></trkpt>
<trkpt lat="50.723274" lon="4.698082"><ele>53.96</ele><time>2025-05-24T12:54:51Z</time></trkpt>
<trkpt lat="50.723429" lon="4.698014"><ele>54.14</ele><time>2025-05-24T12:54:54Z</time></trkpt>
<trkpt lat="50.723443" lon="4.697949"><ele>53.86</ele><time>2025-05-24T12:55:02Z</time></trkpt>
<trkpt lat="50.723215" lon="4.694625"><ele>56.57</ele><time>2025-05-24T12:55:10Z</time></trkpt>
<trkpt lat="50.723164" lon="4.69426"><ele>56.65</ele><time>2025-05-24T12:55:19Z</time></trkpt>
<trkpt lat="50.722895" lon="4.692891"><ele>57.42</ele><time>2025-05-24T12:55:27Z</time></trkpt>
<trkpt lat="50.722004" lon="4.693509"><ele>60.86</ele><time>2025-05-24T12:55:33Z</time></trkpt>
<trkpt lat="50.721792" lon="4.693602"><ele>61.05</ele><time>2025-05-24T12:55:39Z</time></trkpt>
<trkpt lat="50.721578" lon="4.693645"><ele>60.4</ele><time>2025-05-24T12:55:45Z</time></trkpt>
<trkpt lat="50.721381" lon="4.693654"><ele>59.48</ele><time>2025-05-24T12:55:51Z</time></trkpt>
<trkpt lat="50.719885" lon="4.693417"><ele>58.99</ele><time>2025-05-24T12:55:57Z</time></trkpt>
<trkpt lat="50.719575" lon="4.693404"><ele>61.02</ele><time>2025-05-24T12:56:03Z</time></trkpt>
<trkpt lat="50.719189" lon="4.69344"><ele>62.51</ele><time>2025-05-24T12:56:09Z</time></trkpt>
<trkpt lat="50.718741" lon="4.693569"><ele>62.55</ele><time>2025-05-24T12:56:15Z</time></trkpt>
<trkpt lat="50.717737" lon="4.694034"><ele>60.89</ele><time>2025-05-24T12:56:21Z</time></trkpt>
<trkpt lat="50.71739" lon="4.694132"><ele>60.92</ele><time>2025-05-24T12:56:27Z</time></trkpt>
<trkpt lat="50.716913" lon="4.69419"><ele>63.37</ele><time>2025-05-24T12:56:32Z</time></trkpt>
<trkpt lat="50.716345" lon="4.694131"><ele>70.0</ele><time>2025-05-24T12:56:38Z</time></trkpt>
<trkpt lat="50.716184" lon="4.694088"><ele>70.0</ele><time>2025-05-24T12:56:44Z</time></trkpt>
<trkpt lat="50.715521" lon="4.693842"><ele>71.09</ele><time>2025-05-24T12:56:50Z</time></trkpt>
<trkpt lat="50.715202" lon="4.69378"><ele>68.9</ele><time>2025-05-24T12:56:56Z</time></trkpt>
<trkpt lat="50.714894" lon="4.693789"><ele>66.69</ele><time>2025-05-24T12:57:02Z</time></trkpt>
<trkpt lat="50.714343" lon="4.693926"><ele>67.96</ele><time>2025-05-24T12:57:08Z</time></trkpt>
<trkpt lat="50.714029" lon="4.693911"><ele>69.21</ele><time>2025-05-24T12:57:14Z</time></trkpt>
<trkpt lat="50.712435" lon="4.693493"><ele>72.38</ele><time>2025-05-24T12:57:20Z</time></trkpt>
<trkpt lat="50.712087" lon="4.69338"><ele>70.77</ele><time>2025-05-24T12:57:26Z</time></trkpt>
<trkpt lat="50.711786" lon="4.693233"><ele>69.57</ele><time>2025-05-24T12:57:32Z</time></trkpt>
<trkpt lat="50.710988" lon="4.692788"><ele>69.51</ele><time>2025-05-24T12:57:37Z</time></trkpt>
<trkpt lat="50.710698" lon="4.692643"><ele>71.19</ele><time>2025-05-24T12:57:43Z</time></trkpt>
<trkpt lat="50.710601" lon="4.692615"><ele>71.45</ele><time>2025-05-24T12:57:49Z</time></trkpt>
<trkpt lat="50.709923" lon="4.692233"><ele>73.25</ele><time>2025-05-24T12:57:55Z</time></trkpt>
<trkpt lat="50.709412" lon="4.692023"><ele>72.88</ele><time>2025-05-24T12:58:01Z</time></trkpt>
<trkpt lat="50.709125" lon="4.69197"><ele>71.86</ele><time>2025-05-24T12:58:07Z</time></trkpt>
<trkpt lat="50.708853" lon="4.691985"><ele>71.14</ele><time>2025-05-24T12:58:13Z</time></trkpt>
<trkpt lat="50.708072" lon="4.692177"><ele>73.71</ele><time>2025-05-24T12:58:19Z</time></trkpt>
<trkpt lat="50.707844" lon="4.692157"><ele>75.29</ele><time>2025-05-24T12:58:25Z</time></trkpt>
<trkpt lat="50.707578" lon="4.69202"><ele>76.32</ele><time>2025-05-24T12:58:31Z</time></trkpt>
<trkpt lat="50.705691" lon="4.690897"><ele>91.6</ele><time>2025-05-24T12:58:37Z</time></trkpt>
<trkpt lat="50.705107" lon="4.690303"><ele>89.63</ele><time>2025-05-24T12:58:42Z</time></trkpt>
<trkpt lat="50.704903" lon="4.690193"><ele>88.96</ele><time>2025-05-24T12:58:48Z</time></trkpt>
<trkpt lat="50.704206" lon="4.690011"><ele>84.39</ele><time>2025-05-24T12:58:54Z</time></trkpt>
<trkpt lat="50.703601" lon="4.689676"><ele>76.89</ele><time>2025-05-24T12:59:00Z</time></trkpt>
<trkpt lat="50.703368" lon="4.689596"><ele>74.38</ele><time>2025-05-24T12:59:06Z</time></trkpt>
<trkpt lat="50.703178" lon="4.689565"><ele>74.0</ele><time>2025-05-24T12:59:12Z</time></trkpt>
<trkpt lat="50.70273" lon="4.68956"><ele>74.17</ele><time>2025-05-24T12:59:18Z</time></trkpt>
<trkpt lat="50.702627" lon="4.68958"><ele>74.54</ele><time>2025-05-24T12:59:24Z</time></trkpt>
<trkpt lat="50.702285" lon="4.689425"><ele>75.96</ele><time>2025-05-24T12:59:30Z</time></trkpt>
<trkpt lat="50.7021" lon="4.689423"><ele>76.67</ele><time>2025-05-24T12:59:36Z</time></trkpt>
<trkpt lat="50.701911" lon="4.689514"><ele>76.75</ele><time>2025-05-24T12:59:42Z</time></trkpt>
<trkpt lat="50.70169" lon="4.689533"><ele>76.68</ele><time>2025-05-24T12:59:48Z</time></trkpt>
<trkpt lat="50.701332" lon="4.689495"><ele>76.82</ele><time>2025-05-24T12:59:53Z</time></trkpt>
<trkpt lat="50.701165" lon="4.689419"><ele>77.36</ele><time>2025-05-24T12:59:59Z</time></trkpt>
<trkpt lat="50.700744" lon="4.689129"><ele>79.95</ele><time>2025-05-24T13:00:05Z</time></trkpt>
<trkpt lat="50.700378" lon="4.688656"><ele>82.98</ele><time>2025-05-24T13:00:09Z</time></trkpt>
<trkpt lat="50.700258" lon="4.688407"><ele>84.33</ele><time>2025-05-24T13:00:12Z</time></trkpt>
<trkpt lat="50.699915" lon="4.687461"><ele>90.36</ele><time>2025-05-24T13:00:15Z</time></trkpt>
<trkpt lat="50.699796" lon="4.687035"><ele>91.47</ele><time>2025-05-24T13:00:19Z</time></trkpt>
<trkpt lat="50.699776" lon="4.68686"><ele>91.88</ele><time>2025-05-24T13:00:22Z</time></trkpt>
<trkpt lat="50.6998" lon="4.686637"><ele>93.02</ele><time>2025-05-24T13:00:25Z</time></trkpt>
<trkpt lat="50.699844" lon="4.686525"><ele>94.12</ele><time>2025-05-24T13:00:28Z</time></trkpt>
<trkpt lat="50.700106" lon="4.686149"><ele>97.25</ele><time>2025-05-24T13:00:32Z</time></trkpt>
<trkpt lat="50.700219" lon="4.685929"><ele>99.62</ele><time>2025-05-24T13:00:35Z</time></trkpt>
<trkpt lat="50.700279" lon="4.68573"><ele>101.75</ele><time>2025-05-24T13:00:38Z</time></trkpt>
<trkpt lat="50.700321" lon="4.685515"><ele>103.3</ele><time>2025-05-24T13:00:42Z</time></trkpt>
<trkpt lat="50.700388" lon="4.685068"><ele>105.15</ele><time>2025-05-24T13:00:45Z</time></trkpt>
<trkpt lat="50.700404" lon="4.684801"><ele>106.56</ele><time>2025-05-24T13:00:48Z</time></trkpt>
<trkpt lat="50.700397" lon="4.684445"><ele>108.0</ele><time>2025-05-24T13:00:52Z</time></trkpt>
<trkpt lat="50.69999" lon="4.675689"><ele>122.04</ele><time>2025-05-24T13:00:55Z</time></trkpt>
<trkpt lat="50.699986" lon="4.675592"><ele>122.16</ele><time>2025-05-24T13:00:58Z</time></trkpt>
<trkpt lat="50.699986" lon="4.675592"><ele>122.16</ele><time>2025-05-24T13:00:58Z</time></trkpt>
<trkpt lat="50.699881" lon="4.673333"><ele>122.29</ele><time>2025-05-24T13:01:08Z</time></trkpt>
<trkpt lat="50.69987" lon="4.672825"><ele>121.43</ele><time>2025-05-24T13:01:19Z</time></trkpt>
<trkpt lat="50.699938" lon="4.670834"><ele>107.23</ele><time>2025-05-24T13:01:29Z</time></trkpt>
<trkpt lat="50.699969" lon="4.670737"><ele>106.73</ele><time>2025-05-24T13:01:39Z</time></trkpt>
<trkpt lat="50.699929" lon="4.670576"><ele>106.09</ele><time>2025-05-24T13:01:41Z</time></trkpt>
<trkpt lat="50.699904" lon="4.670356"><ele>105.28</ele><time>2025-05-24T13:01:42Z</time></trkpt>
<trkpt lat="50.700172" lon="4.670169"><ele>103.99</ele><time>2025-05-24T13:01:48Z</time></trkpt>
<trkpt lat="50.700454" lon="4.669911"><ele>101.41</ele><time>2025-05-24T13:01:55Z</time></trkpt>
<trkpt lat="50.700653" lon="4.669694"><ele>100.0</ele><time>2025-05-24T13:02:01Z</time></trkpt>
<trkpt lat="50.700841" lon="4.669434"><ele>100.0</ele><time>2025-05-24T13:02:07Z</time></trkpt>
<trkpt lat="50.700987" lon="4.669184"><ele>99.48</ele><time>2025-05-24T13:02:13Z</time></trkpt>
<trkpt lat="50.701133" lon="4.668866"><ele>98.84</ele><time>2025-05-24T13:02:19Z</time></trkpt>
<trkpt lat="50.701824" lon="4.667026"><ele>96.18</ele><time>2025-05-24T13:02:25Z</time></trkpt>
<trkpt lat="50.702071" lon="4.666542"><ele>94.99</ele><time>2025-05-24T13:02:31Z</time></trkpt>
<trkpt lat="50.702247" lon="4.666276"><ele>94.69</ele><time>2025-05-24T13:02:37Z</time></trkpt>
<trkpt lat="50.704158" lon="4.66389"><ele>82.09</ele><time>2025-05-24T13:02:43Z</time></trkpt>
<trkpt lat="50.704411" lon="4.663515"><ele>80.12</ele><time>2025-05-24T13:02:49Z</time></trkpt>
<trkpt lat="50.704615" lon="4.663007"><ele>78.16</ele><time>2025-05-24T13:02:56Z</time></trkpt>
<trkpt lat="50.704748" lon="4.662339"><ele>75.24</ele><time>2025-05-24T13:03:02Z</time></trkpt>
<trkpt lat="50.70477" lon="4.66198"><ele>74.65</ele><time>2025-05-24T13:03:08Z</time></trkpt>
<trkpt lat="50.704765" lon="4.661734"><ele>74.69</ele><time>2025-05-24T13:03:14Z</time></trkpt>
<trkpt lat="50.704704" lon="4.661194"><ele>73.41</ele><time>2025-05-24T13:03:20Z</time></trkpt>
<trkpt lat="50.704213" lon="4.659143"><ele>68.76</ele><time>2025-05-24T13:03:26Z</time></trkpt>
<trkpt lat="50.704092" lon="4.65856"><ele>67.73</ele><time>2025-05-24T13:03:32Z</time></trkpt>
<trkpt lat="50.704043" lon="4.658204"><ele>67.81</ele><time>2025-05-24T13:03:38Z</time></trkpt>
<trkpt lat="50.703997" lon="4.65754"><ele>67.44</ele><time>2025-05-24T13:03:44Z</time></trkpt>
<trkpt lat="50.704002" lon="4.657065"><ele>66.61</ele><time>2025-05-24T13:03:50Z</time></trkpt>
<trkpt lat="50.704116" lon="4.655768"><ele>67.19</ele><time>2025-05-24T13:03:57Z</time></trkpt>
<trkpt lat="50.704553" lon="4.651486"><ele>82.65</ele><time>2025-05-24T13:04:03Z</time></trkpt>
<trkpt lat="50.704561" lon="4.651261"><ele>83.0</ele><time>2025-05-24T13:04:09Z</time></trkpt>
<trkpt lat="50.704552" lon="4.650641"><ele>83.39</ele><time>2025-05-24T13:04:15Z</time></trkpt>
<trkpt lat="50.704445" lon="4.650616"><ele>83.0</ele><time>2025-05-24T13:04:22Z</time></trkpt>
<trkpt lat="50.703864" lon="4.650129"><ele>82.74</ele><time>2025-05-24T13:04:30Z</time></trkpt>
<trkpt lat="50.703767" lon="4.650007"><ele>81.68</ele><time>2025-05-24T13:04:37Z</time></trkpt>
<trkpt lat="50.703553" lon="4.64963"><ele>78.37</ele><time>2025-05-24T13:04:44Z</time></trkpt>
<trkpt lat="50.703498" lon="4.64949"><ele>77.78</ele><time>2025-05-24T13:04:52Z</time></trkpt>
<trkpt lat="50.703404" lon="4.649091"><ele>74.22</ele><time>2025-05-24T13:04:59Z</time></trkpt>
<trkpt lat="50.703268" lon="4.647906"><ele>68.59</ele><time>2025-05-24T13:05:07Z</time></trkpt>
<trkpt lat="50.703145" lon="4.647475"><ele>69.0</ele><time>2025-05-24T13:05:14Z</time></trkpt>
<trkpt lat="50.703047" lon="4.647236"><ele>69.03</ele><time>2025-05-24T13:05:21Z</time></trkpt>
<trkpt lat="50.702925" lon="4.647008"><ele>68.69</ele><time>2025-05-24T13:05:29Z</time></trkpt>
<trkpt lat="50.702495" lon="4.64651"><ele>69.47</ele><time>2025-05-24T13:05:36Z</time></trkpt>
<trkpt lat="50.701402" lon="4.645368"><ele>70.68</ele><time>2025-05-24T13:05:44Z</time></trkpt>
<trkpt lat="50.700594" lon="4.644561"><ele>72.7</ele><time>2025-05-24T13:05:51Z</time></trkpt>
<trkpt lat="50.700149" lon="4.644251"><ele>73.79</ele><time>2025-05-24T13:05:58Z</time></trkpt>
<trkpt lat="50.699311" lon="4.643751"><ele>75.5</ele><time>2025-05-24T13:06:06Z</time></trkpt>
<trkpt lat="50.698919" lon="4.643424"><ele>73.14</ele><time>2025-05-24T13:06:13Z</time></trkpt>
<trkpt lat="50.696524" lon="4.641265"><ele>84.0</ele><time>2025-05-24T13:06:21Z</time></trkpt>
<trkpt lat="50.696093" lon="4.640785"><ele>87.13</ele><time>2025-05-24T13:06:28Z</time></trkpt>
<trkpt lat="50.695636" lon="4.640217"><ele>87.78</ele><time>2025-05-24T13:06:35Z</time></trkpt>
<trkpt lat="50.695237" lon="4.639861"><ele>89.07</ele><time>2025-05-24T13:06:43Z</time></trkpt>
<trkpt lat="50.693851" lon="4.638777"><ele>90.98</ele><time>2025-05-24T13:06:50Z</time></trkpt>
<trkpt lat="50.693584" lon="4.638536"><ele>88.86</ele><time>2025-05-24T13:06:58Z</time></trkpt>
<trkpt lat="50.69336" lon="4.638284"><ele>89.47</ele><time>2025-05-24T13:07:05Z</time></trkpt>
<trkpt lat="50.693119" lon="4.637953"><ele>90.43</ele><time>2025-05-24T13:07:12Z</time></trkpt>
<trkpt lat="50.692852" lon="4.637459"><ele>89.17</ele><time>2025-05-24T13:07:20Z</time></trkpt>
<trkpt lat="50.692356" lon="4.636399"><ele>87.68</ele><time>2025-05-24T13:07:27Z</time></trkpt>
<trkpt lat="50.692128" lon="4.636031"><ele>88.86</ele><time>2025-05-24T13:07:35Z</time></trkpt>
<trkpt lat="50.691892" lon="4.635732"><ele>88.82</ele><time>2025-05-24T13:07:42Z</time></trkpt>
<trkpt lat="50.691685" lon="4.635548"><ele>88.88</ele><time>2025-05-24T13:07:49Z</time></trkpt>
<trkpt lat="50.691371" lon="4.635318"><ele>90.22</ele><time>2025-05-24T13:07:57Z</time></trkpt>
<trkpt lat="50.691241" lon="4.635247"><ele>90.42</ele><time>2025-05-24T13:08:04Z</time></trkpt>
<trkpt lat="50.690298" lon="4.634889"><ele>90.7</ele><time>2025-05-24T13:08:12Z</time></trkpt>
<trkpt lat="50.690346" lon="4.634489"><ele>90.49</ele><time>2025-05-24T13:08:15Z</time></trkpt>
<trkpt lat="50.690233" lon="4.634446"><ele>89.68</ele><time>2025-05-24T13:08:46Z</time></trkpt>
<trkpt lat="50.690167" lon="4.634298"><ele>89.1</ele><time>2025-05-24T13:08:48Z</time></trkpt>
<trkpt lat="50.689937" lon="4.633977"><ele>88.77</ele><time>2025-05-24T13:08:50Z</time></trkpt>
<trkpt lat="50.689905" lon="4.633866"><ele>88.69</ele><time>2025-05-24T13:08:52Z</time></trkpt>
<trkpt lat="50.689909" lon="4.633822"><ele>88.84</ele><time>2025-05-24T13:08:53Z</time></trkpt>
<trkpt lat="50.689909" lon="4.633822"><ele>88.84</ele><time>2025-05-24T13:08:53Z</time></trkpt>
<trkpt lat="50.689905" lon="4.633866"><ele>88.69</ele><time>2025-05-24T13:08:55Z</time></trkpt>
<trkpt lat="50.689937" lon="4.633977"><ele>88.77</ele><time>2025-05-24T13:08:57Z</time></trkpt>
<trkpt lat="50.690167" lon="4.634298"><ele>89.1</ele><time>2025-05-24T13:08:59Z</time></trkpt>
<trkpt lat="50.690233" lon="4.634446"><ele>89.68</ele><time>2025-05-24T13:09:00Z</time></trkpt>
<trkpt lat="50.690346" lon="4.634489"><ele>90.49</ele><time>2025-05-24T13:09:02Z</time></trkpt>
<trkpt lat="50.690481" lon="4.633946"><ele>89.15</ele><time>2025-05-24T13:09:10Z</time></trkpt>
<trkpt lat="50.691519" lon="4.631467"><ele>103.5</ele><time>2025-05-24T13:09:18Z</time></trkpt>
<trkpt lat="50.691642" lon="4.63124"><ele>106.91</ele><time>2025-05-24T13:09:26Z</time></trkpt>
<trkpt lat="50.693141" lon="4.629373"><ele>106.72</ele><time>2025-05-24T13:09:34Z</time></trkpt>
<trkpt lat="50.693979" lon="4.628355"><ele>113.68</ele><time>2025-05-24T13:09:42Z</time></trkpt>
<trkpt lat="50.694124" lon="4.628222"><ele>113.82</ele><time>2025-05-24T13:09:50Z</time></trkpt>
<trkpt lat="50.694358" lon="4.628108"><ele>114.2</ele><time>2025-05-24T13:09:58Z</time></trkpt>
<trkpt lat="50.694487" lon="4.628097"><ele>114.25</ele><time>2025-05-24T13:10:06Z</time></trkpt>
<trkpt lat="50.694624" lon="4.628116"><ele>113.73</ele><time>2025-05-24T13:10:15Z</time></trkpt>
<trkpt lat="50.694806" lon="4.628192"><ele>112.58</ele><time>2025-05-24T13:10:23Z</time></trkpt>
<trkpt lat="50.695974" lon="4.629143"><ele>115.42</ele><time>2025-05-24T13:10:31Z</time></trkpt>
<trkpt lat="50.696218" lon="4.629319"><ele>117.53</ele><time>2025-05-24T13:10:39Z</time></trkpt>
<trkpt lat="50.696327" lon="4.629361"><ele>118.8</ele><time>2025-05-24T13:10:47Z</time></trkpt>
<trkpt lat="50.696434" lon="4.629154"><ele>118.11</ele><time>2025-05-24T13:10:49Z</time></trkpt>
<trkpt lat="50.696652" lon="4.628952"><ele>118.18</ele><time>2025-05-24T13:10:51Z</time></trkpt>
<trkpt lat="50.696805" lon="4.628865"><ele>117.91</ele><time>2025-05-24T13:10:53Z</time></trkpt>
<trkpt lat="50.697282" lon="4.628694"><ele>116.23</ele><time>2025-05-24T13:10:55Z</time></trkpt>
<trkpt lat="50.697448" lon="4.628557"><ele>115.96</ele><time>2025-05-24T13:10:57Z</time></trkpt>
<trkpt lat="50.697638" lon="4.628316"><ele>115.47</ele><time>2025-05-24T13:11:00Z</time></trkpt>
<trkpt lat="50.697882" lon="4.627952"><ele>114.62</ele><time>2025-05-24T13:11:02Z</time></trkpt>
<trkpt lat="50.698162" lon="4.627556"><ele>113.61</ele><time>2025-05-24T13:11:04Z</time></trkpt>
<trkpt lat="50.698276" lon="4.627449"><ele>113.21</ele><time>2025-05-24T13:11:06Z</time></trkpt>
<trkpt lat="50.698395" lon="4.627378"><ele>112.78</ele><time>2025-05-24T13:11:08Z</time></trkpt>
<trkpt lat="50.698597" lon="4.627358"><ele>112.05</ele><time>2025-05-24T13:11:10Z</time></trkpt>
<trkpt lat="50.698695" lon="4.627385"><ele>111.7</ele><time>2025-05-24T13:11:12Z</time></trkpt>
<trkpt lat="50.698804" lon="4.627467"><ele>111.3</ele><time>2025-05-24T13:11:14Z</time></trkpt>
<trkpt lat="50.698892" lon="4.627569"><ele>110.74</ele><time>2025-05-24T13:11:16Z</time></trkpt>
<trkpt lat="50.698973" lon="4.62772"><ele>109.91</ele><time>2025-05-24T13:11:19Z</time></trkpt>
<trkpt lat="50.699057" lon="4.627971"><ele>109.82</ele><time>2025-05-24T13:11:21Z</time></trkpt>
<trkpt lat="50.698898" lon="4.628211"><ele>110.56</ele><time>2025-05-24T13:11:26Z</time></trkpt>
<trkpt lat="50.698639" lon="4.628534"><ele>110.1</ele><time>2025-05-24T13:11:32Z</time></trkpt>
<trkpt lat="50.698509" lon="4.62864"><ele>110.37</ele><time>2025-05-24T13:11:38Z</time></trkpt>
<trkpt lat="50.698372" lon="4.628754"><ele>110.86</ele><time>2025-05-24T13:11:43Z</time></trkpt>
<trkpt lat="50.698275" lon="4.628741"><ele>111.63</ele><time>2025-05-24T13:11:49Z</time></trkpt>
<trkpt lat="50.698227" lon="4.628697"><ele>112.15</ele><time>2025-05-24T13:11:55Z</time></trkpt>
<trkpt lat="50.697792" lon="4.627992"><ele>114.95</ele><time>2025-05-24T13:12:01Z</time></trkpt>
<trkpt lat="50.697471" lon="4.627553"><ele>115.81</ele><time>2025-05-24T13:12:06Z</time></trkpt>
<trkpt lat="50.691827" lon="4.618147"><ele>124.75</ele><time>2025-05-24T13:12:12Z</time></trkpt>
<trkpt lat="50.691489" lon="4.617661"><ele>124.64</ele><time>2025-05-24T13:12:18Z</time></trkpt>
<trkpt lat="50.691033" lon="4.617006"><ele>125.38</ele><time>2025-05-24T13:12:23Z</time></trkpt>
<trkpt lat="50.690555" lon="4.616446"><ele>126.21</ele><time>2025-05-24T13:12:29Z</time></trkpt>
<trkpt lat="50.690476" lon="4.616299"><ele>125.62</ele><time>2025-05-24T13:12:35Z</time></trkpt>
<trkpt lat="50.690477" lon="4.616161"><ele>125.48</ele><time>2025-05-24T13:12:36Z</time></trkpt>
<trkpt lat="50.690449" lon="4.616039"><ele>124.81</ele><time>2025-05-24T13:12:36Z</time></trkpt>
<trkpt lat="50.690404" lon="4.615953"><ele>124.08</ele><time>2025-05-24T13:12:37Z</time></trkpt>
<trkpt lat="50.690291" lon="4.615863"><ele>123.16</ele><time>2025-05-24T13:12:38Z</time></trkpt>
<trkpt lat="50.690123" lon="4.615544"><ele>121.98</ele><time>2025-05-24T13:12:39Z</time></trkpt>
<trkpt lat="50.6897" lon="4.615554"><ele>124.08</ele><time>2025-05-24T13:12:44Z</time></trkpt>
<trkpt lat="50.689619" lon="4.615443"><ele>124.52</ele><time>2025-05-24T13:12:49Z</time></trkpt>
<trkpt lat="50.689448" lon="4.615102"><ele>125.97</ele><time>2025-05-24T13:12:53Z</time></trkpt>
<trkpt lat="50.68924" lon="4.61478"><ele>126.21</ele><time>2025-05-24T13:12:58Z</time></trkpt>
<trkpt lat="50.689035" lon="4.614557"><ele>126.47</ele><time>2025-05-24T13:13:03Z</time></trkpt>
<trkpt lat="50.688418" lon="4.614109"><ele>128.39</ele><time>2025-05-24T13:13:08Z</time></trkpt>
<trkpt lat="50.687778" lon="4.613811"><ele>131.44</ele><time>2025-05-24T13:13:13Z</time></trkpt>
<trkpt lat="50.687017" lon="4.613389"><ele>131.53</ele><time>2025-05-24T13:13:18Z</time></trkpt>
<trkpt lat="50.686899" lon="4.613258"><ele>131.22</ele><time>2025-05-24T13:13:23Z</time></trkpt>
<trkpt lat="50.686807" lon="4.6131"><ele>130.16</ele><time>2025-05-24T13:13:28Z</time></trkpt>
<trkpt lat="50.686511" lon="4.61188"><ele>125.54</ele><time>2025-05-24T13:13:32Z</time></trkpt>
<trkpt lat="50.686288" lon="4.610764"><ele>128.95</ele><time>2025-05-24T13:13:37Z</time></trkpt>
<trkpt lat="50.685923" lon="4.608387"><ele>132.06</ele><time>2025-05-24T13:13:42Z</time></trkpt>
<trkpt lat="50.685456" lon="4.606455"><ele>128.47</ele><time>2025-05-24T13:13:47Z</time></trkpt>
<trkpt lat="50.685227" lon="4.605142"><ele>127.54</ele><time>2025-05-24T13:13:52Z</time></trkpt>
<trkpt lat="50.684836" lon="4.603065"><ele>122.03</ele><time>2025-05-24T13:13:57Z</time></trkpt>
<trkpt lat="50.684444" lon="4.601932"><ele>122.0</ele><time>2025-05-24T13:14:02Z</time></trkpt>
<trkpt lat="50.685004" lon="4.601357"><ele>122.21</ele><time>2025-05-24T13:14:07Z</time></trkpt>
<trkpt lat="50.685581" lon="4.600567"><ele>125.69</ele><time>2025-05-24T13:14:11Z</time></trkpt>
<trkpt lat="50.687071" lon="4.598353"><ele>124.0</ele><time>2025-05-24T13:14:16Z</time></trkpt>
<trkpt lat="50.688028" lon="4.597538"><ele>127.41</ele><time>2025-05-24T13:14:21Z</time></trkpt>
<trkpt lat="50.688795" lon="4.596928"><ele>121.56</ele><time>2025-05-24T13:14:26Z</time></trkpt>
<trkpt lat="50.689284" lon="4.59633"><ele>118.11</ele><time>2025-05-24T13:14:31Z</time></trkpt>
<trkpt lat="50.691014" lon="4.593641"><ele>107.17</ele><time>2025-05-24T13:14:36Z</time></trkpt>
<trkpt lat="50.691188" lon="4.593222"><ele>108.24</ele><time>2025-05-24T13:14:41Z</time></trkpt>
<trkpt lat="50.69144" lon="4.592177"><ele>108.97</ele><time>2025-05-24T13:14:46Z</time></trkpt>
<trkpt lat="50.691668" lon="4.591087"><ele>104.07</ele><time>2025-05-24T13:14:50Z</time></trkpt>
<trkpt lat="50.691801" lon="4.590737"><ele>104.07</ele><time>2025-05-24T13:14:55Z</time></trkpt>
<trkpt lat="50.692816" lon="4.589242"><ele>92.13</ele><time>2025-05-24T13:15:00Z</time></trkpt>
<trkpt lat="50.693069" lon="4.58869"><ele>90.18</ele><time>2025-05-24T13:15:05Z</time></trkpt>
<trkpt lat="50.693121" lon="4.588496"><ele>89.53</ele><time>2025-05-24T13:15:10Z</time></trkpt>
<trkpt lat="50.693128" lon="4.588348"><ele>89.48</ele><time>2025-05-24T13:15:15Z</time></trkpt>
<trkpt lat="50.693068" lon="4.587731"><ele>90.02</ele><time>2025-05-24T13:15:20Z</time></trkpt>
<trkpt lat="50.693098" lon="4.58751"><ele>90.21</ele><time>2025-05-24T13:15:25Z</time></trkpt>
<trkpt lat="50.69325" lon="4.586927"><ele>89.85</ele><time>2025-05-24T13:15:29Z</time></trkpt>
<trkpt lat="50.69348" lon="4.586701"><ele>85.77</ele><time>2025-05-24T13:15:34Z</time></trkpt>
<trkpt lat="50.694663" lon="4.586115"><ele>59.65</ele><time>2025-05-24T13:15:39Z</time></trkpt>
<trkpt lat="50.694777" lon="4.586024"><ele>58.49</ele><time>2025-05-24T13:15:44Z</time></trkpt>
<trkpt lat="50.694723" lon="4.58586"><ele>58.09</ele><time>2025-05-24T13:15:49Z</time></trkpt>
<trkpt lat="50.694448" lon="4.585237"><ele>56.84</ele><time>2025-05-24T13:15:53Z</time></trkpt>
<trkpt lat="50.694235" lon="4.584639"><ele>53.68</ele><time>2025-05-24T13:15:57Z</time></trkpt>
<trkpt lat="50.693736" lon="4.582697"><ele>57.42</ele><time>2025-05-24T13:16:02Z</time></trkpt>
<trkpt lat="50.693445" lon="4.581736"><ele>58.19</ele><time>2025-05-24T13:16:06Z</time></trkpt>
<trkpt lat="50.69323" lon="4.581313"><ele>57.47</ele><time>2025-05-24T13:16:11Z</time></trkpt>
<trkpt lat="50.6922" lon="4.579506"><ele>58.26</ele><time>2025-05-24T13:16:15Z</time></trkpt>
<trkpt lat="50.692129" lon="4.579277"><ele>57.4</ele><time>2025-05-24T13:16:20Z</time></trkpt>
<trkpt lat="50.692125" lon="4.579192"><ele>57.09</ele><time>2025-05-24T13:16:24Z</time></trkpt>
<trkpt lat="50.692168" lon="4.57888"><ele>56.17</ele><time>2025-05-24T13:16:29Z</time></trkpt>
<trkpt lat="50.692242" lon="4.578437"><ele>54.95</ele><time>2025-05-24T13:16:33Z</time></trkpt>
<trkpt lat="50.692256" lon="4.578164"><ele>53.65</ele><time>2025-05-24T13:16:38Z</time></trkpt>
<trkpt lat="50.692093" lon="4.577187"><ele>49.94</ele><time>2025-05-24T13:16:42Z</time></trkpt>
<trkpt lat="50.692103" lon="4.577023"><ele>49.96</ele><time>2025-05-24T13:16:47Z</time></trkpt>
<trkpt lat="50.692158" lon="4.576867"><ele>50.0</ele><time>2025-05-24T13:16:51Z</time></trkpt>
<trkpt lat="50.692574" lon="4.576028"><ele>50.49</ele><time>2025-05-24T13:16:56Z</time></trkpt>
<trkpt lat="50.692605" lon="4.575897"><ele>50.86</ele><time>2025-05-24T13:17:00Z</time></trkpt>
<trkpt lat="50.692596" lon="4.575839"><ele>50.99</ele><time>2025-05-24T13:17:05Z</time></trkpt>
<trkpt lat="50.692566" lon="4.575791"><ele>51.0</ele><time>2025-05-24T13:17:09Z</time></trkpt>
<trkpt lat="50.691109" lon="4.574769"><ele>53.83</ele><time>2025-05-24T13:17:13Z</time></trkpt>
<trkpt lat="50.691054" lon="4.574683"><ele>54.0</ele><time>2025-05-24T13:17:18Z</time></trkpt>
<trkpt lat="50.690701" lon="4.574981"><ele>53.54</ele><time>2025-05-24T13:17:22Z</time></trkpt>
<trkpt lat="50.690646" lon="4.575004"><ele>53.69</ele><time>2025-05-24T13:17:27Z</time></trkpt>
<trkpt lat="50.690597" lon="4.574996"><ele>53.87</ele><time>2025-05-24T13:17:32Z</time></trkpt>
<trkpt lat="50.687122" lon="4.572524"><ele>52.11</ele><time>2025-05-24T13:17:36Z</time></trkpt>
<trkpt lat="50.685514" lon="4.5714"><ele>52.81</ele><time>2025-05-24T13:17:41Z</time></trkpt>
<trkpt lat="50.685313" lon="4.571319"><ele>52.35</ele><time>2025-05-24T13:17:45Z</time></trkpt>
<trkpt lat="50.685117" lon="4.571293"><ele>52.35</ele><time>2025-05-24T13:17:50Z</time></trkpt>
<trkpt lat="50.684934" lon="4.571289"><ele>52.98</ele><time>2025-05-24T13:17:54Z</time></trkpt>
<trkpt lat="50.684638" lon="4.571349"><ele>55.61</ele><time>2025-05-24T13:17:59Z</time></trkpt>
<trkpt lat="50.684585" lon="4.571021"><ele>55.99</ele><time>2025-05-24T13:18:02Z</time></trkpt>
<trkpt lat="50.684524" lon="4.57079"><ele>56.43</ele><time>2025-05-24T13:18:05Z</time></trkpt>
<trkpt lat="50.684431" lon="4.57016"><ele>55.62</ele><time>2025-05-24T13:18:08Z</time></trkpt>
<trkpt lat="50.684233" lon="4.569082"><ele>54.76</ele><time>2025-05-24T13:18:11Z</time></trkpt>
<trkpt lat="50.684202" lon="4.569003"><ele>54.87</ele><time>2025-05-24T13:18:14Z</time></trkpt>
<trkpt lat="50.684166" lon="4.56896"><ele>55.0</ele><time>2025-05-24T13:18:17Z</time></trkpt>
<trkpt lat="50.684284" lon="4.5688"><ele>54.39</ele><time>2025-05-24T13:18:21Z</time></trkpt>
<trkpt lat="50.684476" lon="4.568597"><ele>54.0</ele><time>2025-05-24T13:18:25Z</time></trkpt>
<trkpt lat="50.684461" lon="4.568272"><ele>53.79</ele><time>2025-05-24T13:18:31Z</time></trkpt>
<trkpt lat="50.684373" lon="4.567668"><ele>53.26</ele><time>2025-05-24T13:18:37Z</time></trkpt>
<trkpt lat="50.684255" lon="4.566397"><ele>57.31</ele><time>2025-05-24T13:18:43Z</time></trkpt>
<trkpt lat="50.684239" lon="4.565721"><ele>59.58</ele><time>2025-05-24T13:18:49Z</time></trkpt>
<trkpt lat="50.684277" lon="4.565076"><ele>61.29</ele><time>2025-05-24T13:18:55Z</time></trkpt>
<trkpt lat="50.684342" lon="4.564598"><ele>61.63</ele><time>2025-05-24T13:19:01Z</time></trkpt>
<trkpt lat="50.684461" lon="4.564034"><ele>62.0</ele><time>2025-05-24T13:19:07Z</time></trkpt>
<trkpt lat="50.685153" lon="4.561473"><ele>69.94</ele><time>2025-05-24T13:19:13Z</time></trkpt>
<trkpt lat="50.685521" lon="4.559692"><ele>77.97</ele><time>2025-05-24T13:19:19Z</time></trkpt>
<trkpt lat="50.685706" lon="4.558836"><ele>84.45</ele><time>2025-05-24T13:19:25Z</time></trkpt>
<trkpt lat="50.686004" lon="4.557869"><ele>87.97</ele><time>2025-05-24T13:19:31Z</time></trkpt>
<trkpt lat="50.686005" lon="4.557778"><ele>87.85</ele><time>2025-05-24T13:19:38Z</time></trkpt>
<trkpt lat="50.685978" lon="4.55762"><ele>88.11</ele><time>2025-05-24T13:19:44Z</time></trkpt>
<trkpt lat="50.685773" lon="4.55715"><ele>90.37</ele><time>2025-05-24T13:19:50Z</time></trkpt>
<trkpt lat="50.685735" lon="4.557033"><ele>91.86</ele><time>2025-05-24T13:19:56Z</time></trkpt>
<trkpt lat="50.685723" lon="4.55693"><ele>92.9</ele><time>2025-05-24T13:20:02Z</time></trkpt>
<trkpt lat="50.685735" lon="4.556834"><ele>93.5</ele><time>2025-05-24T13:20:08Z</time></trkpt>
<trkpt lat="50.685976" lon="4.556292"><ele>95.53</ele><time>2025-05-24T13:20:14Z</time></trkpt>
<trkpt lat="50.685996" lon="4.556216"><ele>95.99</ele><time>2025-05-24T13:20:20Z</time></trkpt>
<trkpt lat="50.686245" lon="4.55075"><ele>99.52</ele><time>2025-05-24T13:20:26Z</time></trkpt>
<trkpt lat="50.68628" lon="4.550403"><ele>99.94</ele><time>2025-05-24T13:20:32Z</time></trkpt>
<trkpt lat="50.687507" lon="4.544357"><ele>86.32</ele><time>2025-05-24T13:20:38Z</time></trkpt>
<trkpt lat="50.687654" lon="4.544175"><ele>86.97</ele><time>2025-05-24T13:20:44Z</time></trkpt>
<trkpt lat="50.687787" lon="4.54412"><ele>87.23</ele><time>2025-05-24T13:20:51Z</time></trkpt>
<trkpt lat="50.687996" lon="4.544211"><ele>88.29</ele><time>2025-05-24T13:20:57Z</time></trkpt>
<trkpt lat="50.68827" lon="4.544423"><ele>89.46</ele><time>2025-05-24T13:21:03Z</time></trkpt>
<trkpt lat="50.68841" lon="4.544429"><ele>90.13</ele><time>2025-05-24T13:21:09Z</time></trkpt>
<trkpt lat="50.688496" lon="4.544398"><ele>90.43</ele><time>2025-05-24T13:21:15Z</time></trkpt>
<trkpt lat="50.688604" lon="4.544333"><ele>91.19</ele><time>2025-05-24T13:21:21Z</time></trkpt>
<trkpt lat="50.688665" lon="4.544257"><ele>92.29</ele><time>2025-05-24T13:21:27Z</time></trkpt>
<trkpt lat="50.688726" lon="4.544072"><ele>93.95</ele><time>2025-05-24T13:21:33Z</time></trkpt>
<trkpt lat="50.688762" lon="4.543811"><ele>95.28</ele><time>2025-05-24T13:21:39Z</time></trkpt>
<trkpt lat="50.688753" lon="4.543657"><ele>95.83</ele><time>2025-05-24T13:21:45Z</time></trkpt>
<trkpt lat="50.688626" lon="4.542931"><ele>98.39</ele><time>2025-05-24T13:21:51Z</time></trkpt>
<trkpt lat="50.688607" lon="4.54265"><ele>98.99</ele><time>2025-05-24T13:21:58Z</time></trkpt>
<trkpt lat="50.688632" lon="4.542167"><ele>98.82</ele><time>2025-05-24T13:22:04Z</time></trkpt>
<trkpt lat="50.688676" lon="4.541941"><ele>98.22</ele><time>2025-05-24T13:22:10Z</time></trkpt>
<trkpt lat="50.688978" lon="4.540822"><ele>99.32</ele><time>2025-05-24T13:22:16Z</time></trkpt>
<trkpt lat="50.689188" lon="4.540285"><ele>100.07</ele><time>2025-05-24T13:22:22Z</time></trkpt>
<trkpt lat="50.689428" lon="4.539746"><ele>99.97</ele><time>2025-05-24T13:22:28Z</time></trkpt>
<trkpt lat="50.689589" lon="4.539101"><ele>100.04</ele><time>2025-05-24T13:22:34Z</time></trkpt>
<trkpt lat="50.68976" lon="4.537968"><ele>103.27</ele><time>2025-05-24T13:22:40Z</time></trkpt>
<trkpt lat="50.690076" lon="4.536767"><ele>108.45</ele><time>2025-05-24T13:22:46Z</time></trkpt>
<trkpt lat="50.6902" lon="4.533961"><ele>111.72</ele><time>2025-05-24T13:22:52Z</time></trkpt>
<trkpt lat="50.690242" lon="4.532452"><ele>103.06</ele><time>2025-05-24T13:22:58Z</time></trkpt>
<trkpt lat="50.688302" lon="4.532395"><ele>113.11</ele><time>2025-05-24T13:23:10Z</time></trkpt>
<trkpt lat="50.685164" lon="4.532403"><ele>109.0</ele><time>2025-05-24T13:23:22Z</time></trkpt>
<trkpt lat="50.684585" lon="4.532455"><ele>109.5</ele><time>2025-05-24T13:23:34Z</time></trkpt>
<trkpt lat="50.684246" lon="4.532526"><ele>108.84</ele><time>2025-05-24T13:23:45Z</time></trkpt>
<trkpt lat="50.683848" lon="4.532661"><ele>109.5</ele><time>2025-05-24T13:23:57Z</time></trkpt>
<trkpt lat="50.683415" lon="4.53289"><ele>108.47</ele><time>2025-05-24T13:24:09Z</time></trkpt>
<trkpt lat="50.683413" lon="4.532969"><ele>108.24</ele><time>2025-05-24T13:24:40Z</time></trkpt>
<trkpt lat="50.683413" lon="4.532969"><ele>108.24</ele><time>2025-05-24T13:24:40Z</time></trkpt>
<trkpt lat="50.683415" lon="4.53289"><ele>108.47</ele><time>2025-05-24T13:24:40Z</time></trkpt>
<trkpt lat="50.683201" lon="4.533013"><ele>107.04</ele><time>2025-05-24T13:24:44Z</time></trkpt>
<trkpt lat="50.682624" lon="4.533511"><ele>106.75</ele><time>2025-05-24T13:24:48Z</time></trkpt>
<trkpt lat="50.682004" lon="4.534223"><ele>101.23</ele><time>2025-05-24T13:24:51Z</time></trkpt>
<trkpt lat="50.68127" lon="4.535167"><ele>92.23</ele><time>2025-05-24T13:24:55Z</time></trkpt>
<trkpt lat="50.680935" lon="4.535456"><ele>93.27</ele><time>2025-05-24T13:24:58Z</time></trkpt>
<trkpt lat="50.680536" lon="4.535725"><ele>96.14</ele><time>2025-05-24T13:25:02Z</time></trkpt>
<trkpt lat="50.680202" lon="4.535867"><ele>98.15</ele><time>2025-05-24T13:25:06Z</time></trkpt>
<trkpt lat="50.679792" lon="4.535971"><ele>99.25</ele><time>2025-05-24T13:25:09Z</time></trkpt>
<trkpt lat="50.679384" lon="4.536017"><ele>100.04</ele><time>2025-05-24T13:25:13Z</time></trkpt>
<trkpt lat="50.679012" lon="4.535982"><ele>99.5</ele><time>2025-05-24T13:25:16Z</time></trkpt>
<trkpt lat="50.678625" lon="4.535871"><ele>95.74</ele><time>2025-05-24T13:25:20Z</time></trkpt>
<trkpt lat="50.678248" lon="4.535683"><ele>91.24</ele><time>2025-05-24T13:25:24Z</time></trkpt>
<trkpt lat="50.677993" lon="4.535506"><ele>87.64</ele><time>2025-05-24T13:25:27Z</time></trkpt>
<trkpt lat="50.677642" lon="4.535223"><ele>85.54</ele><time>2025-05-24T13:25:31Z</time></trkpt>
<trkpt lat="50.677029" lon="4.53454"><ele>86.01</ele><time>2025-05-24T13:25:34Z</time></trkpt>
<trkpt lat="50.676291" lon="4.533579"><ele>82.07</ele><time>2025-05-24T13:25:38Z</time></trkpt>
<trkpt lat="50.67606" lon="4.533236"><ele>82.29</ele><time>2025-05-24T13:25:42Z</time></trkpt>
<trkpt lat="50.675598" lon="4.53247"><ele>82.15</ele><time>2025-05-24T13:25:45Z</time></trkpt>
<trkpt lat="50.674853" lon="4.531064"><ele>83.32</ele><time>2025-05-24T13:25:49Z</time></trkpt>
<trkpt lat="50.673967" lon="4.529075"><ele>91.65</ele><time>2025-05-24T13:25:52Z</time></trkpt>
<trkpt lat="50.673623" lon="4.528365"><ele>93.14</ele><time>2025-05-24T13:25:56Z</time></trkpt>
<trkpt lat="50.673347" lon="4.528021"><ele>90.81</ele><time>2025-05-24T13:26:00Z</time></trkpt>
<trkpt lat="50.673058" lon="4.527762"><ele>91.92</ele><time>2025-05-24T13:26:03Z</time></trkpt>
<trkpt lat="50.672822" lon="4.527613"><ele>94.09</ele><time>2025-05-24T13:26:07Z</time></trkpt>
<trkpt lat="50.672467" lon="4.527475"><ele>96.51</ele><time>2025-05-24T13:26:10Z</time></trkpt>
<trkpt lat="50.672212" lon="4.527435"><ele>99.06</ele><time>2025-05-24T13:26:14Z</time></trkpt>
<trkpt lat="50.671918" lon="4.527486"><ele>101.0</ele><time>2025-05-24T13:26:18Z</time></trkpt>
<trkpt lat="50.669031" lon="4.528413"><ele>111.63</ele><time>2025-05-24T13:26:21Z</time></trkpt>
<trkpt lat="50.668617" lon="4.52848"><ele>112.53</ele><time>2025-05-24T13:26:25Z</time></trkpt>
<trkpt lat="50.668202" lon="4.528482"><ele>115.0</ele><time>2025-05-24T13:26:28Z</time></trkpt>
<trkpt lat="50.667588" lon="4.528397"><ele>115.32</ele><time>2025-05-24T13:26:32Z</time></trkpt>
<trkpt lat="50.666937" lon="4.528177"><ele>117.6</ele><time>2025-05-24T13:26:36Z</time></trkpt>
<trkpt lat="50.665642" lon="4.527626"><ele>125.6</ele><time>2025-05-24T13:26:39Z</time></trkpt>
<trkpt lat="50.665028" lon="4.527459"><ele>125.13</ele><time>2025-05-24T13:26:43Z</time></trkpt>
<trkpt lat="50.664685" lon="4.527402"><ele>126.13</ele><time>2025-05-24T13:26:46Z</time></trkpt>
<trkpt lat="50.664297" lon="4.52738"><ele>128.06</ele><time>2025-05-24T13:26:50Z</time></trkpt>
<trkpt lat="50.662329" lon="4.527414"><ele>130.43</ele><time>2025-05-24T13:26:54Z</time></trkpt>
<trkpt lat="50.661757" lon="4.527348"><ele>129.32</ele><time>2025-05-24T13:26:57Z</time></trkpt>
<trkpt lat="50.661635" lon="4.527289"><ele>129.16</ele><time>2025-05-24T13:27:01Z</time></trkpt>
<trkpt lat="50.661635" lon="4.527289"><ele>129.16</ele><time>2025-05-24T13:27:01Z</time></trkpt>
<trkpt lat="50.661619" lon="4.527281"><ele>129.0</ele><time>2025-05-24T13:27:01Z</time></trkpt>
<trkpt lat="50.661556" lon="4.527215"><ele>129.02</ele><time>2025-05-24T13:27:11Z</time></trkpt>
<trkpt lat="50.66151" lon="4.526826"><ele>130.0</ele><time>2025-05-24T13:27:22Z</time></trkpt>
<trkpt lat="50.661527" lon="4.525108"><ele>133.01</ele><time>2025-05-24T13:27:32Z</time></trkpt>
<trkpt lat="50.661458" lon="4.52472"><ele>133.75</ele><time>2025-05-24T13:27:43Z</time></trkpt>
<trkpt lat="50.660628" lon="4.521657"><ele>133.45</ele><time>2025-05-24T13:27:53Z</time></trkpt>
<trkpt lat="50.660582" lon="4.521425"><ele>133.02</ele><time>2025-05-24T13:28:03Z</time></trkpt>
<trkpt lat="50.660262" lon="4.519259"><ele>131.73</ele><time>2025-05-24T13:28:14Z</time></trkpt>
<trkpt lat="50.659884" lon="4.516004"><ele>134.42</ele><time>2025-05-24T13:28:24Z</time></trkpt>
<trkpt lat="50.659946" lon="4.514477"><ele>134.0</ele><time>2025-05-24T13:28:34Z</time></trkpt>
<trkpt lat="50.659265" lon="4.509397"><ele>129.64</ele><time>2025-05-24T13:28:45Z</time></trkpt>
<trkpt lat="50.659262" lon="4.509338"><ele>129.15</ele><time>2025-05-24T13:28:55Z</time></trkpt>
<trkpt lat="50.659262" lon="4.509338"><ele>129.15</ele><time>2025-05-24T13:28:55Z</time></trkpt>
<trkpt lat="50.659265" lon="4.509397"><ele>129.64</ele><time>2025-05-24T13:29:05Z</time></trkpt>
<trkpt lat="50.659946" lon="4.514477"><ele>134.0</ele><time>2025-05-24T13:29:14Z</time></trkpt>
<trkpt lat="50.659884" lon="4.516004"><ele>134.42</ele><time>2025-05-24T13:29:24Z</time></trkpt>
<trkpt lat="50.660262" lon="4.519259"><ele>131.73</ele><time>2025-05-24T13:29:33Z</time></trkpt>
<trkpt lat="50.660582" lon="4.521425"><ele>133.02</ele><time>2025-05-24T13:29:42Z</time></trkpt>
<trkpt lat="50.660628" lon="4.521657"><ele>133.45</ele><time>2025-05-24T13:29:52Z</time></trkpt>
<trkpt lat="50.660858" lon="4.522538"><ele>132.92</ele><time>2025-05-24T13:30:01Z</time></trkpt>
<trkpt lat="50.661458" lon="4.52472"><ele>133.75</ele><time>2025-05-24T13:30:11Z</time></trkpt>
<trkpt lat="50.661527" lon="4.525108"><ele>133.01</ele><time>2025-05-24T13:30:20Z</time></trkpt>
<trkpt lat="50.66151" lon="4.526826"><ele>130.0</ele><time>2025-05-24T13:30:30Z</time></trkpt>
<trkpt lat="50.661486" lon="4.527046"><ele>129.63</ele><time>2025-05-24T13:30:39Z</time></trkpt>
<trkpt lat="50.661445" lon="4.527243"><ele>129.0</ele><time>2025-05-24T13:30:49Z</time></trkpt>
<trkpt lat="50.66142" lon="4.527275"><ele>129.0</ele><time>2025-05-24T13:30:55Z</time></trkpt>
<trkpt lat="50.661284" lon="4.527343"><ele>129.0</ele><time>2025-05-24T13:31:02Z</time></trkpt>
<trkpt lat="50.661169" lon="4.527368"><ele>129.0</ele><time>2025-05-24T13:31:08Z</time></trkpt>
<trkpt lat="50.661073" lon="4.527435"><ele>128.73</ele><time>2025-05-24T13:31:14Z</time></trkpt>
<trkpt lat="50.660733" lon="4.527468"><ele>126.64</ele><time>2025-05-24T13:31:21Z</time></trkpt>
<trkpt lat="50.660385" lon="4.527559"><ele>125.79</ele><time>2025-05-24T13:31:27Z</time></trkpt>
<trkpt lat="50.659988" lon="4.527721"><ele>125.88</ele><time>2025-05-24T13:31:34Z</time></trkpt>
<trkpt lat="50.659571" lon="4.527984"><ele>121.36</ele><time>2025-05-24T13:31:40Z</time></trkpt>
<trkpt lat="50.659168" lon="4.528352"><ele>119.0</ele><time>2025-05-24T13:31:47Z</time></trkpt>
<trkpt lat="50.658861" lon="4.528676"><ele>119.1</ele><time>2025-05-24T13:31:53Z</time></trkpt>
<trkpt lat="50.658681" lon="4.528907"><ele>119.75</ele><time>2025-05-24T13:32:00Z</time></trkpt>
<trkpt lat="50.658248" lon="4.529612"><ele>120.31</ele><time>2025-05-24T13:32:06Z</time></trkpt>
<trkpt lat="50.657449" lon="4.53085"><ele>118.94</ele><time>2025-05-24T13:32:12Z</time></trkpt>
<trkpt lat="50.656831" lon="4.531695"><ele>120.24</ele><time>2025-05-24T13:32:19Z</time></trkpt>
<trkpt lat="50.656377" lon="4.53224"><ele>117.08</ele><time>2025-05-24T13:32:25Z</time></trkpt>
<trkpt lat="50.651775" lon="4.537325"><ele>126.0</ele><time>2025-05-24T13:32:32Z</time></trkpt>
<trkpt lat="50.651278" lon="4.537905"><ele>124.46</ele><time>2025-05-24T13:32:38Z</time></trkpt>
<trkpt lat="50.651007" lon="4.538346"><ele>126.0</ele><time>2025-05-24T13:32:45Z</time></trkpt>
<trkpt lat="50.650741" lon="4.538851"><ele>126.29</ele><time>2025-05-24T13:32:51Z</time></trkpt>
<trkpt lat="50.650445" lon="4.539516"><ele>126.0</ele><time>2025-05-24T13:32:57Z</time></trkpt>
<trkpt lat="50.650311" lon="4.539853"><ele>126.0</ele><time>2025-05-24T13:33:04Z</time></trkpt>
<trkpt lat="50.650202" lon="4.540221"><ele>125.69</ele><time>2025-05-24T13:33:10Z</time></trkpt>
<trkpt lat="50.650027" lon="4.541002"><ele>126.41</ele><time>2025-05-24T13:33:17Z</time></trkpt>
<trkpt lat="50.649911" lon="4.541902"><ele>126.64</ele><time>2025-05-24T13:33:23Z</time></trkpt>
<trkpt lat="50.649867" lon="4.542534"><ele>125.89</ele><time>2025-05-24T13:33:30Z</time></trkpt>
<trkpt lat="50.649798" lon="4.542543"><ele>126.35</ele><time>2025-05-24T13:33:43Z</time></trkpt>
<trkpt lat="50.649731" lon="4.542601"><ele>126.59</ele><time>2025-05-24T13:33:56Z</time></trkpt>
<trkpt lat="50.649137" lon="4.543553"><ele>124.1</ele><time>2025-05-24T13:34:09Z</time></trkpt>
<trkpt lat="50.648162" lon="4.545088"><ele>120.04</ele><time>2025-05-24T13:34:23Z</time></trkpt>
<trkpt lat="50.646705" lon="4.547328"><ele>111.0</ele><time>2025-05-24T13:34:36Z</time></trkpt>
<trkpt lat="50.645178" lon="4.549745"><ele>111.08</ele><time>2025-05-24T13:34:52Z</time></trkpt>
<trkpt lat="50.644528" lon="4.550825"><ele>108.75</ele><time>2025-05-24T13:35:07Z</time></trkpt>
<trkpt lat="50.644366" lon="4.551144"><ele>107.85</ele><time>2025-05-24T13:35:23Z</time></trkpt>
<trkpt lat="50.644035" lon="4.552093"><ele>109.77</ele><time>2025-05-24T13:35:39Z</time></trkpt>
<trkpt lat="50.643843" lon="4.552785"><ele>107.15</ele><time>2025-05-24T13:35:55Z</time></trkpt>
<trkpt lat="50.64354" lon="4.553674"><ele>99.4</ele><time>2025-05-24T13:36:10Z</time></trkpt>
<trkpt lat="50.643505" lon="4.553864"><ele>98.37</ele><time>2025-05-24T13:36:26Z</time></trkpt>
<trkpt lat="50.643503" lon="4.554246"><ele>97.6</ele><time>2025-05-24T13:36:42Z</time></trkpt>
<trkpt lat="50.643448" lon="4.555087"><ele>93.87</ele><time>2025-05-24T13:36:58Z</time></trkpt>
<trkpt lat="50.643434" lon="4.555531"><ele>92.27</ele><time>2025-05-24T13:37:13Z</time></trkpt>
<trkpt lat="50.643394" lon="4.555628"><ele>90.99</ele><time>2025-05-24T13:37:29Z</time></trkpt>
<trkpt lat="50.643382" lon="4.555702"><ele>90.43</ele><time>2025-05-24T13:37:45Z</time></trkpt>
<trkpt lat="50.643026" lon="4.556643"><ele>77.44</ele><time>2025-05-24T13:38:01Z</time></trkpt>
<trkpt lat="50.642975" lon="4.556862"><ele>75.77</ele><time>2025-05-24T13:38:16Z</time></trkpt>
<trkpt lat="50.642864" lon="4.557944"><ele>68.02</ele><time>2025-05-24T13:38:32Z</time></trkpt>
<trkpt lat="50.642784" lon="4.558138"><ele>66.46</ele><time>2025-05-24T13:38:48Z</time></trkpt>
<trkpt lat="50.642649" lon="4.557793"><ele>67.04</ele><time>2025-05-24T13:38:57Z</time></trkpt>
<trkpt lat="50.642307" lon="4.556638"><ele>68.02</ele><time>2025-05-24T13:39:06Z</time></trkpt>
<trkpt lat="50.642026" lon="4.555674"><ele>65.18</ele><time>2025-05-24T13:39:15Z</time></trkpt>
<trkpt lat="50.641574" lon="4.554244"><ele>66.81</ele><time>2025-05-24T13:39:24Z</time></trkpt>
<trkpt lat="50.641308" lon="4.553287"><ele>64.7</ele><time>2025-05-24T13:39:34Z</time></trkpt>
<trkpt lat="50.641192" lon="4.552684"><ele>65.89</ele><time>2025-05-24T13:39:43Z</time></trkpt>
<trkpt lat="50.641016" lon="4.551594"><ele>67.06</ele><time>2025-05-24T13:39:52Z</time></trkpt>
<trkpt lat="50.640704" lon="4.550516"><ele>64.68</ele><time>2025-05-24T13:40:01Z</time></trkpt>
<trkpt lat="50.640542" lon="4.550017"><ele>63.0</ele><time>2025-05-24T13:40:10Z</time></trkpt>
<trkpt lat="50.638052" lon="4.544033"><ele>67.52</ele><time>2025-05-24T13:40:19Z</time></trkpt>
<trkpt lat="50.637715" lon="4.543257"><ele>66.6</ele><time>2025-05-24T13:40:28Z</time></trkpt>
<trkpt lat="50.636826" lon="4.541549"><ele>65.0</ele><time>2025-05-24T13:40:38Z</time></trkpt>
<trkpt lat="50.633731" lon="4.537531"><ele>70.57</ele><time>2025-05-24T13:40:47Z</time></trkpt>
<trkpt lat="50.63301" lon="4.536649"><ele>69.99</ele><time>2025-05-24T13:40:56Z</time></trkpt>
<trkpt lat="50.632817" lon="4.536471"><ele>69.39</ele><time>2025-05-24T13:41:05Z</time></trkpt>
<trkpt lat="50.631402" lon="4.535592"><ele>69.82</ele><time>2025-05-24T13:41:14Z</time></trkpt>
<trkpt lat="50.63078" lon="4.535"><ele>67.81</ele><time>2025-05-24T13:41:23Z</time></trkpt>
<trkpt lat="50.629645" lon="4.533865"><ele>69.95</ele><time>2025-05-24T13:41:32Z</time></trkpt>
<trkpt lat="50.629443" lon="4.533635"><ele>70.83</ele><time>2025-05-24T13:41:42Z</time></trkpt>
<trkpt lat="50.629071" lon="4.533099"><ele>73.56</ele><time>2025-05-24T13:41:51Z</time></trkpt>
<trkpt lat="50.627599" lon="4.530799"><ele>72.76</ele><time>2025-05-24T13:42:00Z</time></trkpt>
<trkpt lat="50.627465" lon="4.530625"><ele>71.87</ele><time>2025-05-24T13:42:09Z</time></trkpt>
<trkpt lat="50.627175" lon="4.530319"><ele>72.53</ele><time>2025-05-24T13:42:18Z</time></trkpt>
<trkpt lat="50.626881" lon="4.530079"><ele>73.27</ele><time>2025-05-24T13:42:27Z</time></trkpt>
<trkpt lat="50.624202" lon="4.528425"><ele>73.0</ele><time>2025-05-24T13:42:36Z</time></trkpt>
<trkpt lat="50.623943" lon="4.528168"><ele>73.92</ele><time>2025-05-24T13:42:46Z</time></trkpt>
<trkpt lat="50.623171" lon="4.527244"><ele>73.88</ele><time>2025-05-24T13:42:55Z</time></trkpt>
<trkpt lat="50.622407" lon="4.526164"><ele>74.54</ele><time>2025-05-24T13:43:04Z</time></trkpt>
<trkpt lat="50.62193" lon="4.52542"><ele>74.82</ele><time>2025-05-24T13:43:13Z</time></trkpt>
<trkpt lat="50.621252" lon="4.524434"><ele>73.07</ele><time>2025-05-24T13:43:22Z</time></trkpt>
<trkpt lat="50.620818" lon="4.523735"><ele>75.03</ele><time>2025-05-24T13:43:31Z</time></trkpt>
<trkpt lat="50.620582" lon="4.523242"><ele>75.36</ele><time>2025-05-24T13:43:40Z</time></trkpt>
<trkpt lat="50.62033" lon="4.522625"><ele>75.84</ele><time>2025-05-24T13:43:50Z</time></trkpt>
<trkpt lat="50.620031" lon="4.521659"><ele>76.47</ele><time>2025-05-24T13:43:59Z</time></trkpt>
<trkpt lat="50.6199" lon="4.521242"><ele>76.28</ele><time>2025-05-24T13:44:08Z</time></trkpt>
<trkpt lat="50.618371" lon="4.515561"><ele>80.85</ele><time>2025-05-24T13:44:17Z</time></trkpt>
<trkpt lat="50.617941" lon="4.514089"><ele>76.41</ele><time>2025-05-24T13:44:26Z</time></trkpt>
<trkpt lat="50.617342" lon="4.512488"><ele>79.0</ele><time>2025-05-24T13:44:35Z</time></trkpt>
<trkpt lat="50.61682" lon="4.511179"><ele>77.0</ele><time>2025-05-24T13:44:44Z</time></trkpt>
<trkpt lat="50.616657" lon="4.510659"><ele>76.96</ele><time>2025-05-24T13:44:54Z</time></trkpt>
<trkpt lat="50.616568" lon="4.510317"><ele>77.81</ele><time>2025-05-24T13:45:03Z</time></trkpt>
<trkpt lat="50.616319" lon="4.509106"><ele>82.5</ele><time>2025-05-24T13:45:12Z</time></trkpt>
<trkpt lat="50.616112" lon="4.508405"><ele>82.75</ele><time>2025-05-24T13:45:21Z</time></trkpt>
<trkpt lat="50.615335" lon="4.508808"><ele>77.06</ele><time>2025-05-24T13:45:49Z</time></trkpt>
<trkpt lat="50.61526" lon="4.508829"><ele>77.05</ele><time>2025-05-24T13:46:17Z</time></trkpt>
<trkpt lat="50.613496" lon="4.510307"><ele>92.39</ele><time>2025-05-24T13:46:44Z</time></trkpt>
<trkpt lat="50.613832" lon="4.511682"><ele>87.71</ele><time>2025-05-24T13:47:02Z</time></trkpt>
<trkpt lat="50.612764" lon="4.512755"><ele>96.88</ele><time>2025-05-24T13:47:25Z</time></trkpt>
<trkpt lat="50.612486" lon="4.512194"><ele>99.94</ele><time>2025-05-24T13:47:34Z</time></trkpt>
<trkpt lat="50.612343" lon="4.512046"><ele>105.92</ele><time>2025-05-24T13:47:42Z</time></trkpt>
<trkpt lat="50.612211" lon="4.511973"><ele>109.46</ele><time>2025-05-24T13:47:51Z</time></trkpt>
<trkpt lat="50.611158" lon="4.511546"><ele>120.0</ele><time>2025-05-24T13:48:00Z</time></trkpt>
<trkpt lat="50.610932" lon="4.51151"><ele>121.85</ele><time>2025-05-24T13:48:09Z</time></trkpt>
<trkpt lat="50.610561" lon="4.511693"><ele>122.0</ele><time>2025-05-24T13:48:17Z</time></trkpt>
<trkpt lat="50.61024" lon="4.511919"><ele>123.95</ele><time>2025-05-24T13:48:26Z</time></trkpt>
<trkpt lat="50.609405" lon="4.512661"><ele>130.72</ele><time>2025-05-24T13:48:35Z</time></trkpt>
<trkpt lat="50.608491" lon="4.513536"><ele>132.57</ele><time>2025-05-24T13:48:43Z</time></trkpt>
<trkpt lat="50.608344" lon="4.51365"><ele>132.18</ele><time>2025-05-24T13:48:52Z</time></trkpt>
<trkpt lat="50.608173" lon="4.513716"><ele>132.74</ele><time>2025-05-24T13:49:01Z</time></trkpt>
<trkpt lat="50.608168" lon="4.513849"><ele>133.05</ele><time>2025-05-24T13:49:05Z</time></trkpt>
<trkpt lat="50.608168" lon="4.513849"><ele>133.05</ele><time>2025-05-24T13:49:05Z</time></trkpt>
<trkpt lat="50.608173" lon="4.513716"><ele>132.74</ele><time>2025-05-24T13:49:09Z</time></trkpt>
<trkpt lat="50.60805" lon="4.513714"><ele>133.0</ele><time>2025-05-24T13:49:42Z</time></trkpt>
<trkpt lat="50.604601" lon="4.512489"><ele>129.02</ele><time>2025-05-24T13:50:16Z</time></trkpt>
<trkpt lat="50.604056" lon="4.509448"><ele>126.99</ele><time>2025-05-24T13:50:30Z</time></trkpt>
<trkpt lat="50.603989" lon="4.509211"><ele>128.68</ele><time>2025-05-24T13:50:45Z</time></trkpt>
<trkpt lat="50.603099" lon="4.506797"><ele>129.93</ele><time>2025-05-24T13:50:59Z</time></trkpt>
<trkpt lat="50.601476" lon="4.502481"><ele>137.01</ele><time>2025-05-24T13:51:14Z</time></trkpt>
<trkpt lat="50.600634" lon="4.500045"><ele>136.72</ele><time>2025-05-24T13:51:28Z</time></trkpt>
<trkpt lat="50.600482" lon="4.499521"><ele>137.34</ele><time>2025-05-24T13:51:42Z</time></trkpt>
<trkpt lat="50.600283" lon="4.498624"><ele>136.0</ele><time>2025-05-24T13:51:57Z</time></trkpt>
<trkpt lat="50.599862" lon="4.498854"><ele>136.5</ele><time>2025-05-24T13:52:08Z</time></trkpt>
<trkpt lat="50.59964" lon="4.498936"><ele>137.17</ele><time>2025-05-24T13:52:20Z</time></trkpt>
<trkpt lat="50.599444" lon="4.498944"><ele>137.2</ele><time>2025-05-24T13:52:31Z</time></trkpt>
<trkpt lat="50.599344" lon="4.498882"><ele>137.01</ele><time>2025-05-24T13:52:43Z</time></trkpt>
<trkpt lat="50.599072" lon="4.498612"><ele>136.66</ele><time>2025-05-24T13:52:54Z</time></trkpt>
<trkpt lat="50.598538" lon="4.497682"><ele>134.91</ele><time>2025-05-24T13:53:05Z</time></trkpt>
<trkpt lat="50.597817" lon="4.498415"><ele>131.28</ele><time>2025-05-24T13:53:11Z</time></trkpt>
<trkpt lat="50.597583" lon="4.49869"><ele>129.31</ele><time>2025-05-24T13:53:16Z</time></trkpt>
<trkpt lat="50.597519" lon="4.498808"><ele>128.43</ele><time>2025-05-24T13:53:21Z</time></trkpt>
<trkpt lat="50.59747" lon="4.498983"><ele>126.48</ele><time>2025-05-24T13:53:27Z</time></trkpt>
<trkpt lat="50.597434" lon="4.4992"><ele>123.72</ele><time>2025-05-24T13:53:32Z</time></trkpt>
<trkpt lat="50.597395" lon="4.500088"><ele>114.35</ele><time>2025-05-24T13:53:37Z</time></trkpt>
<trkpt lat="50.597292" lon="4.500066"><ele>113.46</ele><time>2025-05-24T13:53:40Z</time></trkpt>
<trkpt lat="50.596925" lon="4.500053"><ele>109.86</ele><time>2025-05-24T13:53:43Z</time></trkpt>
<trkpt lat="50.596877" lon="4.500068"><ele>109.51</ele><time>2025-05-24T13:53:46Z</time></trkpt>
<trkpt lat="50.59687" lon="4.500967"><ele>107.98</ele><time>2025-05-24T13:53:52Z</time></trkpt>
<trkpt lat="50.596817" lon="4.501224"><ele>106.67</ele><time>2025-05-24T13:53:59Z</time></trkpt>
<trkpt lat="50.596691" lon="4.501442"><ele>104.79</ele><time>2025-05-24T13:54:03Z</time></trkpt>
<trkpt lat="50.596535" lon="4.501622"><ele>102.29</ele><time>2025-05-24T13:54:13Z</time></trkpt>
<trkpt lat="50.596375" lon="4.501749"><ele>101.16</ele><time>2025-05-24T13:54:23Z</time></trkpt>
<trkpt lat="50.596234" lon="4.50175"><ele>102.85</ele><time>2025-05-24T13:54:34Z</time></trkpt>
<trkpt lat="50.595999" lon="4.501615"><ele>103.81</ele><time>2025-05-24T13:54:44Z</time></trkpt>
<trkpt lat="50.59534" lon="4.501354"><ele>103.0</ele><time>2025-05-24T13:54:54Z</time></trkpt>
<trkpt lat="50.594905" lon="4.501232"><ele>105.03</ele><time>2025-05-24T13:55:04Z</time></trkpt>
<trkpt lat="50.594539" lon="4.50106"><ele>107.18</ele><time>2025-05-24T13:55:15Z</time></trkpt>
<trkpt lat="50.593406" lon="4.499876"><ele>106.0</ele><time>2025-05-24T13:55:25Z</time></trkpt>
<trkpt lat="50.592274" lon="4.498438"><ele>106.68</ele><time>2025-05-24T13:55:35Z</time></trkpt>
<trkpt lat="50.591859" lon="4.497974"><ele>104.8</ele><time>2025-05-24T13:55:46Z</time></trkpt>
<trkpt lat="50.591823" lon="4.497738"><ele>104.58</ele><time>2025-05-24T13:55:51Z</time></trkpt>
<trkpt lat="50.591466" lon="4.496937"><ele>108.29</ele><time>2025-05-24T13:55:57Z</time></trkpt>
<trkpt lat="50.59137" lon="4.496815"><ele>108.07</ele><time>2025-05-24T13:56:02Z</time></trkpt>
<trkpt lat="50.59137" lon="4.496815"><ele>108.07</ele><time>2025-05-24T13:56:02Z</time></trkpt>
<trkpt lat="50.591315" lon="4.496775"><ele>108.1</ele><time>2025-05-24T13:56:03Z</time></trkpt>
<trkpt lat="50.591421" lon="4.497951"><ele>110.86</ele><time>2025-05-24T13:56:08Z</time></trkpt>
<trkpt lat="50.591432" lon="4.498215"><ele>111.97</ele><time>2025-05-24T13:56:12Z</time></trkpt>
<trkpt lat="50.591421" lon="4.498488"><ele>112.57</ele><time>2025-05-24T13:56:16Z</time></trkpt>
<trkpt lat="50.591339" lon="4.498969"><ele>110.97</ele><time>2025-05-24T13:56:20Z</time></trkpt>
<trkpt lat="50.591246" lon="4.499276"><ele>108.46</ele><time>2025-05-24T13:56:24Z</time></trkpt>
<trkpt lat="50.590998" lon="4.499837"><ele>110.76</ele><time>2025-05-24T13:56:28Z</time></trkpt>
<trkpt lat="50.590381" lon="4.501133"><ele>123.83</ele><time>2025-05-24T13:56:32Z</time></trkpt>
<trkpt lat="50.590197" lon="4.501557"><ele>124.38</ele><time>2025-05-24T13:56:37Z</time></trkpt>
<trkpt lat="50.590108" lon="4.501817"><ele>124.5</ele><time>2025-05-24T13:56:41Z</time></trkpt>
<trkpt lat="50.590073" lon="4.502136"><ele>124.15</ele><time>2025-05-24T13:56:45Z</time></trkpt>
<trkpt lat="50.590166" lon="4.502524"><ele>124.74</ele><time>2025-05-24T13:56:49Z</time></trkpt>
<trkpt lat="50.59022" lon="4.502639"><ele>125.68</ele><time>2025-05-24T13:56:53Z</time></trkpt>
<trkpt lat="50.59077" lon="4.503693"><ele>134.08</ele><time>2025-05-24T13:56:57Z</time></trkpt>
<trkpt lat="50.591307" lon="4.504637"><ele>135.85</ele><time>2025-05-24T13:57:02Z</time></trkpt>
<trkpt lat="50.591492" lon="4.504996"><ele>135.86</ele><time>2025-05-24T13:57:06Z</time></trkpt>
<trkpt lat="50.591595" lon="4.505294"><ele>137.97</ele><time>2025-05-24T13:57:10Z</time></trkpt>
<trkpt lat="50.591659" lon="4.505581"><ele>140.29</ele><time>2025-05-24T13:57:14Z</time></trkpt>
<trkpt lat="50.591695" lon="4.505951"><ele>143.19</ele><time>2025-05-24T13:57:18Z</time></trkpt>
<trkpt lat="50.591952" lon="4.513591"><ele>149.11</ele><time>2025-05-24T13:57:22Z</time></trkpt>
<trkpt lat="50.591935" lon="4.513917"><ele>148.73</ele><time>2025-05-24T13:57:27Z</time></trkpt>
<trkpt lat="50.591431" lon="4.519287"><ele>139.98</ele><time>2025-05-24T13:57:31Z</time></trkpt>
<trkpt lat="50.591221" lon="4.521248"><ele>135.13</ele><time>2025-05-24T13:57:35Z</time></trkpt>
<trkpt lat="50.591011" lon="4.522243"><ele>126.98</ele><time>2025-05-24T13:57:39Z</time></trkpt>
<trkpt lat="50.590514" lon="4.523917"><ele>118.65</ele><time>2025-05-24T13:57:43Z</time></trkpt>
<trkpt lat="50.590381" lon="4.524447"><ele>113.74</ele><time>2025-05-24T13:57:47Z</time></trkpt>
<trkpt lat="50.590342" lon="4.524869"><ele>112.7</ele><time>2025-05-24T13:57:52Z</time></trkpt>
<trkpt lat="50.590361" lon="4.525317"><ele>113.24</ele><time>2025-05-24T13:57:56Z</time></trkpt>
<trkpt lat="50.59052" lon="4.526198"><ele>113.32</ele><time>2025-05-24T13:58:00Z</time></trkpt>
<trkpt lat="50.590668" lon="4.526862"><ele>106.64</ele><time>2025-05-24T13:58:04Z</time></trkpt>
<trkpt lat="50.590702" lon="4.526942"><ele>105.38</ele><time>2025-05-24T13:58:08Z</time></trkpt>
<trkpt lat="50.590781" lon="4.527044"><ele>102.65</ele><time>2025-05-24T13:58:12Z</time></trkpt>
<trkpt lat="50.590674" lon="4.527336"><ele>101.95</ele><time>2025-05-24T13:58:19Z</time></trkpt>
<trkpt lat="50.590312" lon="4.528765"><ele>99.95</ele><time>2025-05-24T13:58:26Z</time></trkpt>
<trkpt lat="50.590261" lon="4.528956"><ele>99.94</ele><time>2025-05-24T13:58:32Z</time></trkpt>
<trkpt lat="50.590223" lon="4.529066"><ele>99.9</ele><time>2025-05-24T13:58:39Z</time></trkpt>
<trkpt lat="50.590223" lon="4.529066"><ele>99.9</ele><time>2025-05-24T13:58:39Z</time></trkpt>
<trkpt lat="50.590165" lon="4.529239"><ele>99.85</ele><time>2025-05-24T13:58:45Z</time></trkpt>
<trkpt lat="50.590123" lon="4.529292"><ele>99.96</ele><time>2025-05-24T13:58:51Z</time></trkpt>
<trkpt lat="50.589647" lon="4.529597"><ele>97.18</ele><time>2025-05-24T13:58:57Z</time></trkpt>
<trkpt lat="50.589353" lon="4.530345"><ele>97.14</ele><time>2025-05-24T13:59:04Z</time></trkpt>
<trkpt lat="50.58929" lon="4.530395"><ele>97.95</ele><time>2025-05-24T13:59:10Z</time></trkpt>
<trkpt lat="50.589285" lon="4.530522"><ele>98.9</ele><time>2025-05-24T13:59:16Z</time></trkpt>
<trkpt lat="50.589088" lon="4.531039"><ele>101.06</ele><time>2025-05-24T13:59:22Z</time></trkpt>
<trkpt lat="50.589037" lon="4.531167"><ele>102.38</ele><time>2025-05-24T13:59:27Z</time></trkpt>
<trkpt lat="50.588761" lon="4.531881"><ele>114.43</ele><time>2025-05-24T13:59:33Z</time></trkpt>
<trkpt lat="50.588733" lon="4.531961"><ele>116.14</ele><time>2025-05-24T13:59:39Z</time></trkpt>
<trkpt lat="50.588096" lon="4.535554"><ele>136.57</ele><time>2025-05-24T13:59:45Z</time></trkpt>
<trkpt lat="50.588077" lon="4.535913"><ele>136.5</ele><time>2025-05-24T13:59:51Z</time></trkpt>
<trkpt lat="50.588808" lon="4.537803"><ele>144.21</ele><time>2025-05-24T13:59:56Z</time></trkpt>
<trkpt lat="50.589604" lon="4.539747"><ele>152.05</ele><time>2025-05-24T14:00:00Z</time></trkpt>
<trkpt lat="50.589656" lon="4.539943"><ele>152.6</ele><time>2025-05-24T14:00:04Z</time></trkpt>
<trkpt lat="50.589672" lon="4.540144"><ele>153.24</ele><time>2025-05-24T14:00:08Z</time></trkpt>
<trkpt lat="50.589661" lon="4.540339"><ele>153.73</ele><time>2025-05-24T14:00:12Z</time></trkpt>
<trkpt lat="50.589633" lon="4.540516"><ele>153.94</ele><time>2025-05-24T14:00:16Z</time></trkpt>
<trkpt lat="50.589201" lon="4.54143"><ele>146.53</ele><time>2025-05-24T14:00:21Z</time></trkpt>
<trkpt lat="50.588978" lon="4.542013"><ele>142.6</ele><time>2025-05-24T14:00:25Z</time></trkpt>
<trkpt lat="50.588787" lon="4.5426"><ele>143.99</ele><time>2025-05-24T14:00:29Z</time></trkpt>
<trkpt lat="50.588427" lon="4.543802"><ele>144.89</ele><time>2025-05-24T14:00:33Z</time></trkpt>
<trkpt lat="50.588338" lon="4.544266"><ele>145.35</ele><time>2025-05-24T14:00:37Z</time></trkpt>
<trkpt lat="50.588098" lon="4.546653"><ele>146.3</ele><time>2025-05-24T14:00:42Z</time></trkpt>
<trkpt lat="50.588033" lon="4.546954"><ele>145.81</ele><time>2025-05-24T14:00:46Z</time></trkpt>
<trkpt lat="50.587885" lon="4.547425"><ele>144.39</ele><time>2025-05-24T14:00:50Z</time></trkpt>
<trkpt lat="50.587633" lon="4.547949"><ele>142.48</ele><time>2025-05-24T14:00:54Z</time></trkpt>
<trkpt lat="50.587198" lon="4.548566"><ele>143.82</ele><time>2025-05-24T14:00:58Z</time></trkpt>
<trkpt lat="50.586075" lon="4.550086"><ele>149.26</ele><time>2025-05-24T14:01:03Z</time></trkpt>
<trkpt lat="50.585328" lon="4.551279"><ele>150.79</ele><time>2025-05-24T14:01:07Z</time></trkpt>
<trkpt lat="50.584198" lon="4.554123"><ele>152.89</ele><time>2025-05-24T14:01:11Z</time></trkpt>
<trkpt lat="50.583405" lon="4.554025"><ele>152.74</ele><time>2025-05-24T14:01:54Z</time></trkpt>
<trkpt lat="50.582293" lon="4.553853"><ele>153.52</ele><time>2025-05-24T14:02:37Z</time></trkpt>
<trkpt lat="50.580993" lon="4.553621"><ele>154.03</ele><time>2025-05-24T14:03:19Z</time></trkpt>
<trkpt lat="50.580376" lon="4.553469"><ele>152.35</ele><time>2025-05-24T14:04:02Z</time></trkpt>
<trkpt lat="50.58023" lon="4.553511"><ele>151.65</ele><time>2025-05-24T14:04:45Z</time></trkpt>
<trkpt lat="50.579986" lon="4.553336"><ele>149.85</ele><time>2025-05-24T14:05:33Z</time></trkpt>
<trkpt lat="50.578739" lon="4.55221"><ele>147.23</ele><time>2025-05-24T14:06:20Z</time></trkpt>
<trkpt lat="50.577989" lon="4.551295"><ele>145.46</ele><time>2025-05-24T14:07:08Z</time></trkpt>
<trkpt lat="50.577034" lon="4.549779"><ele>148.58</ele><time>2025-05-24T14:07:56Z</time></trkpt>
<trkpt lat="50.57619" lon="4.548499"><ele>148.6</ele><time>2025-05-24T14:08:44Z</time></trkpt>
<trkpt lat="50.575748" lon="4.548742"><ele>150.11</ele><time>2025-05-24T14:08:53Z</time></trkpt>
<trkpt lat="50.575361" lon="4.54902"><ele>149.6</ele><time>2025-05-24T14:09:02Z</time></trkpt>
<trkpt lat="50.575095" lon="4.549254"><ele>146.58</ele><time>2025-05-24T14:09:11Z</time></trkpt>
<trkpt lat="50.574667" lon="4.549966"><ele>142.03</ele><time>2025-05-24T14:09:20Z</time></trkpt>
<trkpt lat="50.574512" lon="4.550378"><ele>138.13</ele><time>2025-05-24T14:09:29Z</time></trkpt>
<trkpt lat="50.574246" lon="4.551318"><ele>130.71</ele><time>2025-05-24T14:09:38Z</time></trkpt>
<trkpt lat="50.574088" lon="4.551703"><ele>126.57</ele><time>2025-05-24T14:09:47Z</time></trkpt>
<trkpt lat="50.573865" lon="4.552117"><ele>124.71</ele><time>2025-05-24T14:09:56Z</time></trkpt>
<trkpt lat="50.573457" lon="4.552538"><ele>117.89</ele><time>2025-05-24T14:10:05Z</time></trkpt>
<trkpt lat="50.573364" lon="4.552789"><ele>117.22</ele><time>2025-05-24T14:10:14Z</time></trkpt>
<trkpt lat="50.573296" lon="4.552697"><ele>116.69</ele><time>2025-05-24T14:10:21Z</time></trkpt>
<trkpt lat="50.573175" lon="4.552593"><ele>115.48</ele><time>2025-05-24T14:10:29Z</time></trkpt>
<trkpt lat="50.571566" lon="4.552106"><ele>113.05</ele><time>2025-05-24T14:10:37Z</time></trkpt>
<trkpt lat="50.571491" lon="4.552072"><ele>113.37</ele><time>2025-05-24T14:10:45Z</time></trkpt>
<trkpt lat="50.571374" lon="4.551948"><ele>114.2</ele><time>2025-05-24T14:10:52Z</time></trkpt>
<trkpt lat="50.571374" lon="4.551948"><ele>114.2</ele><time>2025-05-24T14:10:52Z</time></trkpt>
<trkpt lat="50.571102" lon="4.551658"><ele>115.03</ele><time>2025-05-24T14:10:59Z</time></trkpt>
<trkpt lat="50.570984" lon="4.551601"><ele>115.23</ele><time>2025-05-24T14:11:05Z</time></trkpt>
<trkpt lat="50.570491" lon="4.551132"><ele>118.69</ele><time>2025-05-24T14:11:12Z</time></trkpt>
<trkpt lat="50.570303" lon="4.550902"><ele>120.79</ele><time>2025-05-24T14:11:19Z</time></trkpt>
<trkpt lat="50.570009" lon="4.550461"><ele>124.57</ele><time>2025-05-24T14:11:25Z</time></trkpt>
<trkpt lat="50.569969" lon="4.550358"><ele>124.43</ele><time>2025-05-24T14:11:32Z</time></trkpt>
<trkpt lat="50.569973" lon="4.550254"><ele>124.01</ele><time>2025-05-24T14:11:38Z</time></trkpt>
<trkpt lat="50.570193" lon="4.549454"><ele>126.06</ele><time>2025-05-24T14:11:45Z</time></trkpt>
<trkpt lat="50.570341" lon="4.548817"><ele>132.01</ele><time>2025-05-24T14:11:52Z</time></trkpt>
<trkpt lat="50.570339" lon="4.548531"><ele>136.04</ele><time>2025-05-24T14:11:58Z</time></trkpt>
<trkpt lat="50.570277" lon="4.548226"><ele>138.54</ele><time>2025-05-24T14:12:05Z</time></trkpt>
<trkpt lat="50.570047" lon="4.547587"><ele>140.96</ele><time>2025-05-24T14:12:12Z</time></trkpt>
<trkpt lat="50.569833" lon="4.547182"><ele>143.23</ele><time>2025-05-24T14:12:18Z</time></trkpt>
<trkpt lat="50.568869" lon="4.54564"><ele>147.12</ele><time>2025-05-24T14:12:25Z</time></trkpt>
<trkpt lat="50.568742" lon="4.545403"><ele>145.85</ele><time>2025-05-24T14:12:31Z</time></trkpt>
<trkpt lat="50.568662" lon="4.545139"><ele>144.09</ele><time>2025-05-24T14:12:38Z</time></trkpt>
<trkpt lat="50.568638" lon="4.544863"><ele>144.07</ele><time>2025-05-24T14:12:45Z</time></trkpt>
<trkpt lat="50.568697" lon="4.543544"><ele>149.79</ele><time>2025-05-24T14:12:51Z</time></trkpt>
<trkpt lat="50.56872" lon="4.543118"><ele>149.31</ele><time>2025-05-24T14:12:58Z</time></trkpt>
<trkpt lat="50.56877" lon="4.542931"><ele>148.74</ele><time>2025-05-24T14:13:04Z</time></trkpt>
<trkpt lat="50.568344" lon="4.542511"><ele>149.0</ele><time>2025-05-24T14:13:11Z</time></trkpt>
<trkpt lat="50.568136" lon="4.542089"><ele>149.85</ele><time>2025-05-24T14:13:18Z</time></trkpt>
<trkpt lat="50.567702" lon="4.541104"><ele>151.25</ele><time>2025-05-24T14:13:25Z</time></trkpt>
<trkpt lat="50.567645" lon="4.540938"><ele>150.86</ele><time>2025-05-24T14:13:32Z</time></trkpt>
<trkpt lat="50.567618" lon="4.540725"><ele>150.57</ele><time>2025-05-24T14:13:39Z</time></trkpt>
<trkpt lat="50.567628" lon="4.540558"><ele>150.54</ele><time>2025-05-24T14:13:46Z</time></trkpt>
<trkpt lat="50.567667" lon="4.540397"><ele>150.06</ele><time>2025-05-24T14:13:53Z</time></trkpt>
<trkpt lat="50.568199" lon="4.539158"><ele>151.55</ele><time>2025-05-24T14:14:00Z</time></trkpt>
<trkpt lat="50.568028" lon="4.538768"><ele>151.94</ele><time>2025-05-24T14:14:06Z</time></trkpt>
<trkpt lat="50.568368" lon="4.538025"><ele>153.12</ele><time>2025-05-24T14:14:13Z</time></trkpt>
<trkpt lat="50.568756" lon="4.537453"><ele>154.0</ele><time>2025-05-24T14:14:21Z</time></trkpt>
<trkpt lat="50.569222" lon="4.536885"><ele>153.0</ele><time>2025-05-24T14:14:29Z</time></trkpt>
<trkpt lat="50.569379" lon="4.536664"><ele>153.01</ele><time>2025-05-24T14:14:37Z</time></trkpt>
<trkpt lat="50.565132" lon="4.535821"><ele>153.47</ele><time>2025-05-24T14:14:54Z</time></trkpt>
<trkpt lat="50.564096" lon="4.535604"><ele>153.75</ele><time>2025-05-24T14:15:11Z</time></trkpt>
<trkpt lat="50.562732" lon="4.535381"><ele>155.37</ele><time>2025-05-24T14:15:28Z</time></trkpt>
<trkpt lat="50.5595" lon="4.53533"><ele>147.85</ele><time>2025-05-24T14:15:45Z</time></trkpt>
<trkpt lat="50.559427" lon="4.53533"><ele>147.81</ele><time>2025-05-24T14:16:01Z</time></trkpt>
<trkpt lat="50.558048" lon="4.535372"><ele>142.65</ele><time>2025-05-24T14:16:18Z</time></trkpt>
<trkpt lat="50.557327" lon="4.535349"><ele>140.54</ele><time>2025-05-24T14:16:35Z</time></trkpt>
<trkpt lat="50.552314" lon="4.533169"><ele>151.59</ele><time>2025-05-24T14:16:52Z</time></trkpt>
<trkpt lat="50.551407" lon="4.532864"><ele>149.69</ele><time>2025-05-24T14:17:09Z</time></trkpt>
<trkpt lat="50.550789" lon="4.532844"><ele>148.2</ele><time>2025-05-24T14:17:26Z</time></trkpt>
<trkpt lat="50.550733" lon="4.532071"><ele>152.09</ele><time>2025-05-24T14:17:47Z</time></trkpt>
<trkpt lat="50.550709" lon="4.531953"><ele>152.94</ele><time>2025-05-24T14:18:00Z</time></trkpt>
<trkpt lat="50.550628" lon="4.531759"><ele>153.67</ele><time>2025-05-24T14:18:13Z</time></trkpt>
<trkpt lat="50.550462" lon="4.531438"><ele>154.88</ele><time>2025-05-24T14:18:26Z</time></trkpt>
<trkpt lat="50.550378" lon="4.531213"><ele>155.0</ele><time>2025-05-24T14:18:39Z</time></trkpt>
<trkpt lat="50.550334" lon="4.531035"><ele>155.49</ele><time>2025-05-24T14:18:52Z</time></trkpt>
<trkpt lat="50.550322" lon="4.530824"><ele>156.88</ele><time>2025-05-24T14:19:06Z</time></trkpt>
<trkpt lat="50.550336" lon="4.530341"><ele>158.73</ele><time>2025-05-24T14:19:19Z</time></trkpt>
<trkpt lat="50.550466" lon="4.529304"><ele>160.01</ele><time>2025-05-24T14:19:32Z</time></trkpt>
<trkpt lat="50.550517" lon="4.528948"><ele>159.86</ele><time>2025-05-24T14:19:45Z</time></trkpt>
<trkpt lat="50.550768" lon="4.527661"><ele>157.29</ele><time>2025-05-24T14:19:58Z</time></trkpt>
<trkpt lat="50.550829" lon="4.527205"><ele>156.1</ele><time>2025-05-24T14:20:11Z</time></trkpt>
<trkpt lat="50.550846" lon="4.526822"><ele>156.95</ele><time>2025-05-24T14:20:24Z</time></trkpt>
<trkpt lat="50.550836" lon="4.526473"><ele>156.99</ele><time>2025-05-24T14:20:37Z</time></trkpt>
<trkpt lat="50.55077" lon="4.525754"><ele>156.23</ele><time>2025-05-24T14:20:51Z</time></trkpt>
<trkpt lat="50.550773" lon="4.525643"><ele>157.61</ele><time>2025-05-24T14:21:04Z</time></trkpt>
<trkpt lat="50.550773" lon="4.525643"><ele>157.61</ele><time>2025-05-24T14:21:04Z</time></trkpt>
<trkpt lat="50.55077" lon="4.525754"><ele>156.23</ele><time>2025-05-24T14:21:07Z</time></trkpt>
<trkpt lat="50.552156" lon="4.524493"><ele>157.0</ele><time>2025-05-24T14:21:55Z</time></trkpt>
<trkpt lat="50.552696" lon="4.524046"><ele>158.29</ele><time>2025-05-24T14:22:44Z</time></trkpt>
<trkpt lat="50.553847" lon="4.522836"><ele>151.0</ele><time>2025-05-24T14:23:32Z</time></trkpt>
<trkpt lat="50.554307" lon="4.522224"><ele>148.5</ele><time>2025-05-24T14:24:20Z</time></trkpt>
<trkpt lat="50.555745" lon="4.520669"><ele>153.32</ele><time>2025-05-24T14:25:41Z</time></trkpt>
<trkpt lat="50.555149" lon="4.519201"><ele>154.52</ele><time>2025-05-24T14:25:52Z</time></trkpt>
<trkpt lat="50.554827" lon="4.51853"><ele>155.38</ele><time>2025-05-24T14:26:03Z</time></trkpt>
<trkpt lat="50.554515" lon="4.517784"><ele>155.25</ele><time>2025-05-24T14:26:15Z</time></trkpt>
<trkpt lat="50.55413" lon="4.516492"><ele>158.89</ele><time>2025-05-24T14:26:26Z</time></trkpt>
<trkpt lat="50.552943" lon="4.513926"><ele>162.41</ele><time>2025-05-24T14:26:37Z</time></trkpt>
<trkpt lat="50.552566" lon="4.513042"><ele>160.24</ele><time>2025-05-24T14:26:49Z</time></trkpt>
<trkpt lat="50.551473" lon="4.511703"><ele>160.7</ele><time>2025-05-24T14:27:00Z</time></trkpt>
<trkpt lat="50.550738" lon="4.510625"><ele>159.82</ele><time>2025-05-24T14:27:12Z</time></trkpt>
<trkpt lat="50.550243" lon="4.509622"><ele>161.04</ele><time>2025-05-24T14:27:23Z</time></trkpt>
<trkpt lat="50.549691" lon="4.50856"><ele>159.89</ele><time>2025-05-24T14:27:34Z</time></trkpt>
<trkpt lat="50.551761" lon="4.503217"><ele>152.68</ele><time>2025-05-24T14:27:56Z</time></trkpt>
<trkpt lat="50.552318" lon="4.501844"><ele>147.42</ele><time>2025-05-24T14:28:18Z</time></trkpt>
<trkpt lat="50.5541" lon="4.497292"><ele>143.0</ele><time>2025-05-24T14:28:39Z</time></trkpt>
<trkpt lat="50.554684" lon="4.497253"><ele>141.04</ele><time>2025-05-24T14:28:48Z</time></trkpt>
<trkpt lat="50.555059" lon="4.497168"><ele>137.92</ele><time>2025-05-24T14:28:56Z</time></trkpt>
<trkpt lat="50.555334" lon="4.497063"><ele>136.49</ele><time>2025-05-24T14:29:04Z</time></trkpt>
<trkpt lat="50.55608" lon="4.496683"><ele>134.33</ele><time>2025-05-24T14:29:13Z</time></trkpt>
<trkpt lat="50.556228" lon="4.496651"><ele>133.12</ele><time>2025-05-24T14:29:21Z</time></trkpt>
<trkpt lat="50.558294" lon="4.497073"><ele>127.74</ele><time>2025-05-24T14:29:29Z</time></trkpt>
<trkpt lat="50.559197" lon="4.49742"><ele>123.82</ele><time>2025-05-24T14:29:38Z</time></trkpt>
<trkpt lat="50.560284" lon="4.497783"><ele>133.01</ele><time>2025-05-24T14:29:46Z</time></trkpt>
<trkpt lat="50.561168" lon="4.497995"><ele>134.52</ele><time>2025-05-24T14:29:54Z</time></trkpt>
<trkpt lat="50.561241" lon="4.497973"><ele>134.27</ele><time>2025-05-24T14:30:03Z</time></trkpt>
<trkpt lat="50.5619" lon="4.497177"><ele>127.02</ele><time>2025-05-24T14:30:11Z</time></trkpt>
<trkpt lat="50.563271" lon="4.495638"><ele>125.78</ele><time>2025-05-24T14:30:19Z</time></trkpt>
<trkpt lat="50.564453" lon="4.494927"><ele>133.52</ele><time>2025-05-24T14:30:28Z</time></trkpt>
<trkpt lat="50.564625" lon="4.49477"><ele>134.66</ele><time>2025-05-24T14:30:36Z</time></trkpt>
<trkpt lat="50.564819" lon="4.494368"><ele>136.57</ele><time>2025-05-24T14:30:45Z</time></trkpt>
<trkpt lat="50.565384" lon="4.492228"><ele>130.24</ele><time>2025-05-24T14:30:53Z</time></trkpt>
<trkpt lat="50.565403" lon="4.492227"><ele>129.36</ele><time>2025-05-24T14:30:53Z</time></trkpt>
<trkpt lat="50.565403" lon="4.492227"><ele>129.36</ele><time>2025-05-24T14:30:53Z</time></trkpt>
<trkpt lat="50.565384" lon="4.492228"><ele>130.24</ele><time>2025-05-24T14:30:53Z</time></trkpt>
<trkpt lat="50.5649" lon="4.491735"><ele>133.36</ele><time>2025-05-24T14:31:00Z</time></trkpt>
<trkpt lat="50.564763" lon="4.491569"><ele>134.1</ele><time>2025-05-24T14:31:07Z</time></trkpt>
<trkpt lat="50.562972" lon="4.48864"><ele>140.9</ele><time>2025-05-24T14:31:14Z</time></trkpt>
<trkpt lat="50.561587" lon="4.486865"><ele>143.43</ele><time>2025-05-24T14:31:21Z</time></trkpt>
<trkpt lat="50.56118" lon="4.486283"><ele>141.25</ele><time>2025-05-24T14:31:27Z</time></trkpt>
<trkpt lat="50.560798" lon="4.485508"><ele>141.3</ele><time>2025-05-24T14:31:34Z</time></trkpt>
<trkpt lat="50.560123" lon="4.484058"><ele>145.73</ele><time>2025-05-24T14:31:41Z</time></trkpt>
<trkpt lat="50.559957" lon="4.483781"><ele>145.46</ele><time>2025-05-24T14:31:48Z</time></trkpt>
<trkpt lat="50.559549" lon="4.483347"><ele>144.0</ele><time>2025-05-24T14:31:55Z</time></trkpt>
<trkpt lat="50.559075" lon="4.482683"><ele>143.57</ele><time>2025-05-24T14:32:01Z</time></trkpt>
<trkpt lat="50.55784" lon="4.481062"><ele>145.46</ele><time>2025-05-24T14:32:08Z</time></trkpt>
<trkpt lat="50.557322" lon="4.480332"><ele>143.48</ele><time>2025-05-24T14:32:15Z</time></trkpt>
<trkpt lat="50.55716" lon="4.480023"><ele>142.86</ele><time>2025-05-24T14:32:22Z</time></trkpt>
<trkpt lat="50.555866" lon="4.477191"><ele>144.88</ele><time>2025-05-24T14:32:29Z</time></trkpt>
<trkpt lat="50.555364" lon="4.476161"><ele>147.69</ele><time>2025-05-24T14:32:35Z</time></trkpt>
<trkpt lat="50.555129" lon="4.475522"><ele>148.0</ele><time>2025-05-24T14:32:42Z</time></trkpt>
<trkpt lat="50.554998" lon="4.475019"><ele>148.01</ele><time>2025-05-24T14:32:49Z</time></trkpt>
<trkpt lat="50.554871" lon="4.474601"><ele>150.13</ele><time>2025-05-24T14:32:56Z</time></trkpt>
<trkpt lat="50.5544" lon="4.473413"><ele>150.13</ele><time>2025-05-24T14:33:03Z</time></trkpt>
<trkpt lat="50.553938" lon="4.472482"><ele>145.94</ele><time>2025-05-24T14:33:09Z</time></trkpt>
<trkpt lat="50.553014" lon="4.470831"><ele>148.15</ele><time>2025-05-24T14:33:16Z</time></trkpt>
<trkpt lat="50.552806" lon="4.47041"><ele>148.84</ele><time>2025-05-24T14:33:23Z</time></trkpt>
<trkpt lat="50.552532" lon="4.469548"><ele>150.77</ele><time>2025-05-24T14:33:30Z</time></trkpt>
<trkpt lat="50.551948" lon="4.46717"><ele>151.0</ele><time>2025-05-24T14:33:37Z</time></trkpt>
<trkpt lat="50.551694" lon="4.466348"><ele>149.08</ele><time>2025-05-24T14:33:43Z</time></trkpt>
<trkpt lat="50.551335" lon="4.465589"><ele>147.29</ele><time>2025-05-24T14:33:50Z</time></trkpt>
<trkpt lat="50.550875" lon="4.464922"><ele>146.61</ele><time>2025-05-24T14:33:57Z</time></trkpt>
<trkpt lat="50.547969" lon="4.460422"><ele>154.83</ele><time>2025-05-24T14:34:04Z</time></trkpt>
<trkpt lat="50.547633" lon="4.460102"><ele>155.52</ele><time>2025-05-24T14:34:11Z</time></trkpt>
<trkpt lat="50.546652" lon="4.459449"><ele>154.98</ele><time>2025-05-24T14:34:17Z</time></trkpt>
<trkpt lat="50.546652" lon="4.459449"><ele>154.98</ele><time>2025-05-24T14:34:17Z</time></trkpt>
<trkpt lat="50.546577" lon="4.459399"><ele>154.43</ele><time>2025-05-24T14:34:18Z</time></trkpt>
<trkpt lat="50.547001" lon="4.458822"><ele>155.55</ele><time>2025-05-24T14:34:26Z</time></trkpt>
<trkpt lat="50.54783" lon="4.45751"><ele>158.19</ele><time>2025-05-24T14:34:34Z</time></trkpt>
<trkpt lat="50.548053" lon="4.456982"><ele>156.9</ele><time>2025-05-24T14:34:41Z</time></trkpt>
<trkpt lat="50.548203" lon="4.456689"><ele>156.86</ele><time>2025-05-24T14:34:49Z</time></trkpt>
<trkpt lat="50.549098" lon="4.455127"><ele>154.25</ele><time>2025-05-24T14:34:57Z</time></trkpt>
<trkpt lat="50.54955" lon="4.454383"><ele>153.16</ele><time>2025-05-24T14:35:05Z</time></trkpt>
<trkpt lat="50.550051" lon="4.453588"><ele>153.12</ele><time>2025-05-24T14:35:13Z</time></trkpt>
<trkpt lat="50.550222" lon="4.453399"><ele>153.65</ele><time>2025-05-24T14:35:21Z</time></trkpt>
<trkpt lat="50.550299" lon="4.453259"><ele>153.75</ele><time>2025-05-24T14:35:29Z</time></trkpt>
<trkpt lat="50.550346" lon="4.453062"><ele>153.26</ele><time>2025-05-24T14:35:37Z</time></trkpt>
<trkpt lat="50.550411" lon="4.453077"><ele>153.52</ele><time>2025-05-24T14:35:37Z</time></trkpt>
<trkpt lat="50.550477" lon="4.453057"><ele>153.72</ele><time>2025-05-24T14:35:38Z</time></trkpt>
<trkpt lat="50.550534" lon="4.453004"><ele>153.92</ele><time>2025-05-24T14:35:38Z</time></trkpt>
<trkpt lat="50.550576" lon="4.452924"><ele>153.93</ele><time>2025-05-24T14:35:39Z</time></trkpt>
<trkpt lat="50.5506" lon="4.452826"><ele>153.84</ele><time>2025-05-24T14:35:40Z</time></trkpt>
<trkpt lat="50.550601" lon="4.452721"><ele>154.04</ele><time>2025-05-24T14:35:40Z</time></trkpt>
<trkpt lat="50.550561" lon="4.452575"><ele>154.71</ele><time>2025-05-24T14:35:41Z</time></trkpt>
<trkpt lat="50.550484" lon="4.452482"><ele>154.48</ele><time>2025-05-24T14:35:41Z</time></trkpt>
<trkpt lat="50.550437" lon="4.452461"><ele>154.14</ele><time>2025-05-24T14:35:42Z</time></trkpt>
<trkpt lat="50.550364" lon="4.452325"><ele>153.62</ele><time>2025-05-24T14:35:43Z</time></trkpt>
<trkpt lat="50.550339" lon="4.452204"><ele>153.49</ele><time>2025-05-24T14:35:43Z</time></trkpt>
<trkpt lat="50.550398" lon="4.45211"><ele>154.1</ele><time>2025-05-24T14:35:49Z</time></trkpt>
<trkpt lat="50.550491" lon="4.452075"><ele>154.66</ele><time>2025-05-24T14:35:55Z</time></trkpt>
<trkpt lat="50.550691" lon="4.452078"><ele>154.76</ele><time>2025-05-24T14:36:01Z</time></trkpt>
<trkpt lat="50.550801" lon="4.451832"><ele>155.36</ele><time>2025-05-24T14:36:09Z</time></trkpt>
<trkpt lat="50.550863" lon="4.451582"><ele>155.59</ele><time>2025-05-24T14:36:17Z</time></trkpt>
<trkpt lat="50.550866" lon="4.451341"><ele>154.88</ele><time>2025-05-24T14:36:24Z</time></trkpt>
<trkpt lat="50.550812" lon="4.450701"><ele>153.92</ele><time>2025-05-24T14:36:32Z</time></trkpt>
<trkpt lat="50.550883" lon="4.450118"><ele>155.65</ele><time>2025-05-24T14:36:40Z</time></trkpt>
<trkpt lat="50.551019" lon="4.449277"><ele>157.27</ele><time>2025-05-24T14:36:47Z</time></trkpt>
<trkpt lat="50.551068" lon="4.44732"><ele>158.15</ele><time>2025-05-24T14:36:55Z</time></trkpt>
<trkpt lat="50.551101" lon="4.447062"><ele>158.04</ele><time>2025-05-24T14:37:03Z</time></trkpt>
<trkpt lat="50.552339" lon="4.442194"><ele>153.48</ele><time>2025-05-24T14:37:10Z</time></trkpt>
<trkpt lat="50.552491" lon="4.44168"><ele>152.03</ele><time>2025-05-24T14:37:18Z</time></trkpt>
<trkpt lat="50.553243" lon="4.440709"><ele>154.53</ele><time>2025-05-24T14:37:26Z</time></trkpt>
<trkpt lat="50.553185" lon="4.440627"><ele>158.4</ele><time>2025-05-24T14:37:33Z</time></trkpt>
<trkpt lat="50.553185" lon="4.440627"><ele>158.4</ele><time>2025-05-24T14:37:33Z</time></trkpt>
<trkpt lat="50.551118" lon="4.437692"><ele>162.28</ele><time>2025-05-24T14:37:56Z</time></trkpt>
<trkpt lat="50.549105" lon="4.433101"><ele>151.16</ele><time>2025-05-24T14:38:18Z</time></trkpt>
<trkpt lat="50.548551" lon="4.431938"><ele>149.98</ele><time>2025-05-24T14:38:40Z</time></trkpt>
<trkpt lat="50.548255" lon="4.43147"><ele>148.78</ele><time>2025-05-24T14:39:02Z</time></trkpt>
<trkpt lat="50.549155" lon="4.429247"><ele>148.74</ele><time>2025-05-24T14:39:09Z</time></trkpt>
<trkpt lat="50.549193" lon="4.428886"><ele>149.9</ele><time>2025-05-24T14:39:17Z</time></trkpt>
<trkpt lat="50.549187" lon="4.428406"><ele>149.0</ele><time>2025-05-24T14:39:24Z</time></trkpt>
<trkpt lat="50.549084" lon="4.427307"><ele>148.79</ele><time>2025-05-24T14:39:32Z</time></trkpt>
<trkpt lat="50.549084" lon="4.426852"><ele>148.4</ele><time>2025-05-24T14:39:39Z</time></trkpt>
<trkpt lat="50.549422" lon="4.424998"><ele>150.83</ele><time>2025-05-24T14:39:47Z</time></trkpt>
<trkpt lat="50.549498" lon="4.424286"><ele>149.62</ele><time>2025-05-24T14:39:54Z</time></trkpt>
<trkpt lat="50.549547" lon="4.423281"><ele>149.37</ele><time>2025-05-24T14:40:02Z</time></trkpt>
<trkpt lat="50.549525" lon="4.422552"><ele>150.1</ele><time>2025-05-24T14:40:09Z</time></trkpt>
<trkpt lat="50.54946" lon="4.421367"><ele>153.08</ele><time>2025-05-24T14:40:17Z</time></trkpt>
<trkpt lat="50.549276" lon="4.420061"><ele>156.0</ele><time>2025-05-24T14:40:24Z</time></trkpt>
<trkpt lat="50.549242" lon="4.419593"><ele>156.0</ele><time>2025-05-24T14:40:32Z</time></trkpt>
<trkpt lat="50.549272" lon="4.419053"><ele>157.0</ele><time>2025-05-24T14:40:39Z</time></trkpt>
<trkpt lat="50.549299" lon="4.418994"><ele>157.0</ele><time>2025-05-24T14:40:47Z</time></trkpt>
<trkpt lat="50.5494" lon="4.418312"><ele>157.08</ele><time>2025-05-24T14:40:54Z</time></trkpt>
<trkpt lat="50.549489" lon="4.416823"><ele>152.56</ele><time>2025-05-24T14:41:02Z</time></trkpt>
<trkpt lat="50.54947" lon="4.416701"><ele>152.12</ele><time>2025-05-24T14:41:09Z</time></trkpt>
<trkpt lat="50.549498" lon="4.416484"><ele>151.34</ele><time>2025-05-24T14:41:15Z</time></trkpt>
<trkpt lat="50.549669" lon="4.415533"><ele>149.11</ele><time>2025-05-24T14:41:20Z</time></trkpt>
<trkpt lat="50.549646" lon="4.415162"><ele>147.86</ele><time>2025-05-24T14:41:26Z</time></trkpt>
<trkpt lat="50.549616" lon="4.414939"><ele>147.16</ele><time>2025-05-24T14:41:32Z</time></trkpt>
<trkpt lat="50.549547" lon="4.41475"><ele>146.73</ele><time>2025-05-24T14:41:37Z</time></trkpt>
<trkpt lat="50.549356" lon="4.41402"><ele>146.47</ele><time>2025-05-24T14:41:43Z</time></trkpt>
<trkpt lat="50.549335" lon="4.413821"><ele>146.15</ele><time>2025-05-24T14:41:49Z</time></trkpt>
<trkpt lat="50.549331" lon="4.413628"><ele>145.47</ele><time>2025-05-24T14:41:54Z</time></trkpt>
<trkpt lat="50.549375" lon="4.412699"><ele>144.96</ele><time>2025-05-24T14:42:00Z</time></trkpt>
<trkpt lat="50.549462" lon="4.412024"><ele>145.33</ele><time>2025-05-24T14:42:06Z</time></trkpt>
<trkpt lat="50.552165" lon="4.412865"><ele>153.59</ele><time>2025-05-24T14:42:11Z</time></trkpt>
<trkpt lat="50.552526" lon="4.412891"><ele>155.1</ele><time>2025-05-24T14:42:16Z</time></trkpt>
<trkpt lat="50.553742" lon="4.412839"><ele>158.3</ele><time>2025-05-24T14:42:21Z</time></trkpt>
<trkpt lat="50.553906" lon="4.412736"><ele>158.15</ele><time>2025-05-24T14:42:26Z</time></trkpt>
<trkpt lat="50.554042" lon="4.412582"><ele>158.71</ele><time>2025-05-24T14:42:31Z</time></trkpt>
<trkpt lat="50.554162" lon="4.412322"><ele>159.63</ele><time>2025-05-24T14:42:35Z</time></trkpt>
<trkpt lat="50.554216" lon="4.412055"><ele>159.93</ele><time>2025-05-24T14:42:40Z</time></trkpt>
<trkpt lat="50.554269" lon="4.411607"><ele>159.79</ele><time>2025-05-24T14:42:45Z</time></trkpt>
<trkpt lat="50.55426" lon="4.411282"><ele>158.61</ele><time>2025-05-24T14:42:50Z</time></trkpt>
<trkpt lat="50.554304" lon="4.410488"><ele>155.63</ele><time>2025-05-24T14:42:55Z</time></trkpt>
<trkpt lat="50.554119" lon="4.40872"><ele>154.39</ele><time>2025-05-24T14:43:00Z</time></trkpt>
<trkpt lat="50.553921" lon="4.407386"><ele>153.0</ele><time>2025-05-24T14:43:05Z</time></trkpt>
<trkpt lat="50.553731" lon="4.406797"><ele>152.0</ele><time>2025-05-24T14:43:10Z</time></trkpt>
<trkpt lat="50.550348" lon="4.398958"><ele>148.51</ele><time>2025-05-24T14:43:15Z</time></trkpt>
<trkpt lat="50.5503" lon="4.398691"><ele>148.1</ele><time>2025-05-24T14:43:20Z</time></trkpt>
<trkpt lat="50.550318" lon="4.39848"><ele>148.07</ele><time>2025-05-24T14:43:25Z</time></trkpt>
<trkpt lat="50.551161" lon="4.395768"><ele>145.82</ele><time>2025-05-24T14:43:30Z</time></trkpt>
<trkpt lat="50.551202" lon="4.39556"><ele>145.67</ele><time>2025-05-24T14:43:35Z</time></trkpt>
<trkpt lat="50.5512" lon="4.395327"><ele>145.68</ele><time>2025-05-24T14:43:40Z</time></trkpt>
<trkpt lat="50.551156" lon="4.395057"><ele>145.84</ele><time>2025-05-24T14:43:45Z</time></trkpt>
<trkpt lat="50.551047" lon="4.394724"><ele>145.01</ele><time>2025-05-24T14:43:50Z</time></trkpt>
<trkpt lat="50.551397" lon="4.39437"><ele>144.72</ele><time>2025-05-24T14:43:57Z</time></trkpt>
<trkpt lat="50.551798" lon="4.394019"><ele>145.25</ele><time>2025-05-24T14:44:05Z</time></trkpt>
<trkpt lat="50.551963" lon="4.393827"><ele>146.22</ele><time>2025-05-24T14:44:12Z</time></trkpt>
<trkpt lat="50.552033" lon="4.393651"><ele>146.86</ele><time>2025-05-24T14:44:20Z</time></trkpt>
<trkpt lat="50.552055" lon="4.393468"><ele>147.51</ele><time>2025-05-24T14:44:27Z</time></trkpt>
<trkpt lat="50.551982" lon="4.387787"><ele>149.0</ele><time>2025-05-24T14:44:35Z</time></trkpt>
<trkpt lat="50.551894" lon="4.386699"><ele>149.0</ele><time>2025-05-24T14:44:42Z</time></trkpt>
<trkpt lat="50.551791" lon="4.38616"><ele>148.0</ele><time>2025-05-24T14:44:50Z</time></trkpt>
<trkpt lat="50.5516" lon="4.385481"><ele>147.49</ele><time>2025-05-24T14:44:57Z</time></trkpt>
<trkpt lat="50.551253" lon="4.384637"><ele>147.64</ele><time>2025-05-24T14:45:05Z</time></trkpt>
<trkpt lat="50.550768" lon="4.383539"><ele>146.8</ele><time>2025-05-24T14:45:12Z</time></trkpt>
<trkpt lat="50.550032" lon="4.381794"><ele>149.88</ele><time>2025-05-24T14:45:20Z</time></trkpt>
<trkpt lat="50.54746" lon="4.375923"><ele>149.9</ele><time>2025-05-24T14:45:27Z</time></trkpt>
<trkpt lat="50.547209" lon="4.375378"><ele>148.39</ele><time>2025-05-24T14:45:35Z</time></trkpt>
<trkpt lat="50.547256" lon="4.375256"><ele>148.11</ele><time>2025-05-24T14:45:42Z</time></trkpt>
<trkpt lat="50.547254" lon="4.375184"><ele>148.08</ele><time>2025-05-24T14:45:49Z</time></trkpt>
<trkpt lat="50.547219" lon="4.375086"><ele>148.01</ele><time>2025-05-24T14:45:55Z</time></trkpt>
<trkpt lat="50.547154" lon="4.375038"><ele>148.24</ele><time>2025-05-24T14:46:02Z</time></trkpt>
<trkpt lat="50.547083" lon="4.375055"><ele>148.5</ele><time>2025-05-24T14:46:09Z</time></trkpt>
<trkpt lat="50.547026" lon="4.375151"><ele>148.71</ele><time>2025-05-24T14:46:16Z</time></trkpt>
<trkpt lat="50.547022" lon="4.375283"><ele>148.73</ele><time>2025-05-24T14:46:22Z</time></trkpt>
<trkpt lat="50.547073" lon="4.375387"><ele>148.72</ele><time>2025-05-24T14:46:29Z</time></trkpt>
<trkpt lat="50.54697" lon="4.37561"><ele>149.0</ele><time>2025-05-24T14:46:36Z</time></trkpt>
<trkpt lat="50.5468" lon="4.375901"><ele>149.24</ele><time>2025-05-24T14:46:43Z</time></trkpt>
<trkpt lat="50.546528" lon="4.376274"><ele>150.5</ele><time>2025-05-24T14:46:49Z</time></trkpt>
<trkpt lat="50.545317" lon="4.377926"><ele>153.53</ele><time>2025-05-24T14:46:56Z</time></trkpt>
<trkpt lat="50.544897" lon="4.378433"><ele>155.37</ele><time>2025-05-24T14:47:03Z</time></trkpt>
<trkpt lat="50.544302" lon="4.378984"><ele>155.0</ele><time>2025-05-24T14:47:10Z</time></trkpt>
<trkpt lat="50.543785" lon="4.379347"><ele>154.59</ele><time>2025-05-24T14:47:17Z</time></trkpt>
<trkpt lat="50.540418" lon="4.381419"><ele>150.4</ele><time>2025-05-24T14:47:23Z</time></trkpt>
<trkpt lat="50.538487" lon="4.382673"><ele>147.18</ele><time>2025-05-24T14:47:30Z</time></trkpt>
<trkpt lat="50.53605" lon="4.384414"><ele>145.0</ele><time>2025-05-24T14:47:37Z</time></trkpt>
<trkpt lat="50.533709" lon="4.38602"><ele>147.11</ele><time>2025-05-24T14:47:44Z</time></trkpt>
<trkpt lat="50.531461" lon="4.387342"><ele>148.0</ele><time>2025-05-24T14:47:50Z</time></trkpt>
<trkpt lat="50.530457" lon="4.387814"><ele>150.56</ele><time>2025-05-24T14:47:57Z</time></trkpt>
<trkpt lat="50.530037" lon="4.388157"><ele>147.9</ele><time>2025-05-24T14:48:04Z</time></trkpt>
<trkpt lat="50.528304" lon="4.390179"><ele>138.29</ele><time>2025-05-24T14:48:11Z</time></trkpt>
<trkpt lat="50.528304" lon="4.390179"><ele>138.29</ele><time>2025-05-24T14:48:11Z</time></trkpt>
<trkpt lat="50.526313" lon="4.392523"><ele>136.61</ele><time>2025-05-24T14:48:28Z</time></trkpt>
<trkpt lat="50.524964" lon="4.394693"><ele>135.0</ele><time>2025-05-24T14:48:45Z</time></trkpt>
<trkpt lat="50.523134" lon="4.397687"><ele>129.77</ele><time>2025-05-24T14:49:03Z</time></trkpt>
<trkpt lat="50.522947" lon="4.398015"><ele>130.39</ele><time>2025-05-24T14:49:20Z</time></trkpt>
<trkpt lat="50.522844" lon="4.398279"><ele>130.95</ele><time>2025-05-24T14:49:37Z</time></trkpt>
<trkpt lat="50.522675" lon="4.398354"><ele>130.6</ele><time>2025-05-24T14:49:52Z</time></trkpt>
<trkpt lat="50.520998" lon="4.399625"><ele>124.4</ele><time>2025-05-24T14:50:08Z</time></trkpt>
<trkpt lat="50.520878" lon="4.399678"><ele>124.84</ele><time>2025-05-24T14:50:23Z</time></trkpt>
<trkpt lat="50.520635" lon="4.39968"><ele>126.23</ele><time>2025-05-24T14:50:39Z</time></trkpt>
<trkpt lat="50.520635" lon="4.39968"><ele>126.23</ele><time>2025-05-24T14:50:39Z</time></trkpt>
<trkpt lat="50.520878" lon="4.399678"><ele>124.84</ele><time>2025-05-24T14:50:47Z</time></trkpt>
<trkpt lat="50.520998" lon="4.399625"><ele>124.4</ele><time>2025-05-24T14:50:54Z</time></trkpt>
<trkpt lat="50.522675" lon="4.398354"><ele>130.6</ele><time>2025-05-24T14:51:02Z</time></trkpt>
<trkpt lat="50.522844" lon="4.398279"><ele>130.95</ele><time>2025-05-24T14:51:10Z</time></trkpt>
<trkpt lat="50.522418" lon="4.39965"><ele>127.44</ele><time>2025-05-24T14:51:17Z</time></trkpt>
<trkpt lat="50.522149" lon="4.400494"><ele>128.79</ele><time>2025-05-24T14:51:23Z</time></trkpt>
<trkpt lat="50.522043" lon="4.400666"><ele>128.35</ele><time>2025-05-24T14:51:29Z</time></trkpt>
<trkpt lat="50.520972" lon="4.401623"><ele>130.76</ele><time>2025-05-24T14:51:36Z</time></trkpt>
<trkpt lat="50.519194" lon="4.403478"><ele>133.1</ele><time>2025-05-24T14:51:42Z</time></trkpt>
<trkpt lat="50.518921" lon="4.403847"><ele>133.98</ele><time>2025-05-24T14:51:48Z</time></trkpt>
<trkpt lat="50.5186" lon="4.404388"><ele>136.88</ele><time>2025-05-24T14:51:55Z</time></trkpt>
<trkpt lat="50.517961" lon="4.405744"><ele>142.0</ele><time>2025-05-24T14:52:01Z</time></trkpt>
<trkpt lat="50.517601" lon="4.406602"><ele>142.21</ele><time>2025-05-24T14:52:08Z</time></trkpt>
<trkpt lat="50.517295" lon="4.407523"><ele>142.8</ele><time>2025-05-24T14:52:14Z</time></trkpt>
<trkpt lat="50.516336" lon="4.410853"><ele>150.19</ele><time>2025-05-24T14:52:20Z</time></trkpt>
<trkpt lat="50.516259" lon="4.41106"><ele>150.47</ele><time>2025-05-24T14:52:27Z</time></trkpt>
<trkpt lat="50.516215" lon="4.411107"><ele>150.63</ele><time>2025-05-24T14:52:33Z</time></trkpt>
<trkpt lat="50.516143" lon="4.411049"><ele>150.89</ele><time>2025-05-24T14:52:39Z</time></trkpt>
<trkpt lat="50.516062" lon="4.41107"><ele>151.32</ele><time>2025-05-24T14:52:44Z</time></trkpt>
<trkpt lat="50.516013" lon="4.41093"><ele>151.47</ele><time>2025-05-24T14:52:50Z</time></trkpt>
<trkpt lat="50.515139" lon="4.40906"><ele>148.5</ele><time>2025-05-24T14:52:55Z</time></trkpt>
<trkpt lat="50.515185" lon="4.40898"><ele>148.34</ele><time>2025-05-24T14:53:01Z</time></trkpt>
<trkpt lat="50.515195" lon="4.408929"><ele>148.3</ele><time>2025-05-24T14:53:07Z</time></trkpt>
<trkpt lat="50.515196" lon="4.408863"><ele>148.2</ele><time>2025-05-24T14:53:13Z</time></trkpt>
<trkpt lat="50.515157" lon="4.408748"><ele>147.93</ele><time>2025-05-24T14:53:19Z</time></trkpt>
<trkpt lat="50.515124" lon="4.408714"><ele>147.93</ele><time>2025-05-24T14:53:25Z</time></trkpt>
<trkpt lat="50.515045" lon="4.408701"><ele>148.16</ele><time>2025-05-24T14:53:31Z</time></trkpt>
<trkpt lat="50.514977" lon="4.408763"><ele>148.46</ele><time>2025-05-24T14:53:37Z</time></trkpt>
<trkpt lat="50.514324" lon="4.407426"><ele>149.0</ele><time>2025-05-24T14:53:43Z</time></trkpt>
<trkpt lat="50.514024" lon="4.406805"><ele>147.74</ele><time>2025-05-24T14:53:49Z</time></trkpt>
<trkpt lat="50.513759" lon="4.4062"><ele>149.21</ele><time>2025-05-24T14:53:55Z</time></trkpt>
<trkpt lat="50.513673" lon="4.406045"><ele>149.17</ele><time>2025-05-24T14:54:00Z</time></trkpt>
<trkpt lat="50.513552" lon="4.405725"><ele>148.57</ele><time>2025-05-24T14:54:06Z</time></trkpt>
<trkpt lat="50.513516" lon="4.40556"><ele>148.31</ele><time>2025-05-24T14:54:12Z</time></trkpt>
<trkpt lat="50.513096" lon="4.404532"><ele>151.0</ele><time>2025-05-24T14:54:18Z</time></trkpt>
<trkpt lat="50.511588" lon="4.400711"><ele>146.68</ele><time>2025-05-24T14:54:24Z</time></trkpt>
<trkpt lat="50.511325" lon="4.400125"><ele>145.91</ele><time>2025-05-24T14:54:30Z</time></trkpt>
<trkpt lat="50.510698" lon="4.398836"><ele>144.81</ele><time>2025-05-24T14:54:36Z</time></trkpt>
<trkpt lat="50.510002" lon="4.39788"><ele>142.37</ele><time>2025-05-24T14:54:42Z</time></trkpt>
<trkpt lat="50.508363" lon="4.396152"><ele>139.11</ele><time>2025-05-24T14:54:48Z</time></trkpt>
<trkpt lat="50.508141" lon="4.395898"><ele>137.54</ele><time>2025-05-24T14:54:54Z</time></trkpt>
<trkpt lat="50.508111" lon="4.395822"><ele>137.17</ele><time>2025-05-24T14:55:00Z</time></trkpt>
<trkpt lat="50.508092" lon="4.395704"><ele>136.73</ele><time>2025-05-24T14:55:06Z</time></trkpt>
<trkpt lat="50.508133" lon="4.395407"><ele>136.79</ele><time>2025-05-24T14:55:11Z</time></trkpt>
<trkpt lat="50.508202" lon="4.395052"><ele>137.0</ele><time>2025-05-24T14:55:17Z</time></trkpt>
<trkpt lat="50.508513" lon="4.394608"><ele>135.47</ele><time>2025-05-24T14:55:23Z</time></trkpt>
<trkpt lat="50.508532" lon="4.394438"><ele>134.51</ele><time>2025-05-24T14:55:29Z</time></trkpt>
<trkpt lat="50.508661" lon="4.394362"><ele>133.36</ele><time>2025-05-24T14:55:34Z</time></trkpt>
<trkpt lat="50.509093" lon="4.393744"><ele>129.21</ele><time>2025-05-24T14:55:38Z</time></trkpt>
<trkpt lat="50.509186" lon="4.393557"><ele>128.75</ele><time>2025-05-24T14:55:43Z</time></trkpt>
<trkpt lat="50.509241" lon="4.393395"><ele>128.16</ele><time>2025-05-24T14:55:47Z</time></trkpt>
<trkpt lat="50.509254" lon="4.393268"><ele>127.61</ele><time>2025-05-24T14:55:52Z</time></trkpt>
<trkpt lat="50.509244" lon="4.393009"><ele>126.11</ele><time>2025-05-24T14:55:56Z</time></trkpt>
<trkpt lat="50.509229" lon="4.392941"><ele>125.81</ele><time>2025-05-24T14:56:01Z</time></trkpt>
<trkpt lat="50.509191" lon="4.392872"><ele>125.42</ele><time>2025-05-24T14:56:05Z</time></trkpt>
<trkpt lat="50.507748" lon="4.390624"><ele>122.0</ele><time>2025-05-24T14:56:10Z</time></trkpt>
<trkpt lat="50.50777" lon="4.390529"><ele>122.1</ele><time>2025-05-24T14:56:11Z</time></trkpt>
<trkpt lat="50.507754" lon="4.390465"><ele>122.33</ele><time>2025-05-24T14:56:11Z</time></trkpt>
<trkpt lat="50.507714" lon="4.39042"><ele>122.49</ele><time>2025-05-24T14:56:12Z</time></trkpt>
<trkpt lat="50.507659" lon="4.390426"><ele>122.46</ele><time>2025-05-24T14:56:13Z</time></trkpt>
<trkpt lat="50.507585" lon="4.390294"><ele>122.94</ele><time>2025-05-24T14:56:14Z</time></trkpt>
<trkpt lat="50.507584" lon="4.390211"><ele>122.97</ele><time>2025-05-24T14:56:14Z</time></trkpt>
<trkpt lat="50.507584" lon="4.390211"><ele>122.97</ele><time>2025-05-24T14:56:14Z</time></trkpt>
<trkpt lat="50.507601" lon="4.389649"><ele>123.0</ele><time>2025-05-24T14:56:23Z</time></trkpt>
<trkpt lat="50.507691" lon="4.388134"><ele>124.65</ele><time>2025-05-24T14:56:32Z</time></trkpt>
<trkpt lat="50.507859" lon="4.386388"><ele>124.59</ele><time>2025-05-24T14:56:40Z</time></trkpt>
<trkpt lat="50.507954" lon="4.385936"><ele>124.86</ele><time>2025-05-24T14:56:49Z</time></trkpt>
<trkpt lat="50.508001" lon="4.385514"><ele>124.9</ele><time>2025-05-24T14:56:57Z</time></trkpt>
<trkpt lat="50.508353" lon="4.383316"><ele>128.44</ele><time>2025-05-24T14:57:06Z</time></trkpt>
<trkpt lat="50.508762" lon="4.381707"><ele>129.62</ele><time>2025-05-24T14:57:14Z</time></trkpt>
<trkpt lat="50.510438" lon="4.375805"><ele>123.0</ele><time>2025-05-24T14:57:23Z</time></trkpt>
<trkpt lat="50.510961" lon="4.37337"><ele>125.38</ele><time>2025-05-24T14:57:31Z</time></trkpt>
<trkpt lat="50.511045" lon="4.372765"><ele>121.96</ele><time>2025-05-24T14:57:40Z</time></trkpt>
<trkpt lat="50.511292" lon="4.371529"><ele>123.62</ele><time>2025-05-24T14:57:49Z</time></trkpt>
<trkpt lat="50.511719" lon="4.369716"><ele>126.52</ele><time>2025-05-24T14:57:57Z</time></trkpt>
<trkpt lat="50.511859" lon="4.36919"><ele>125.44</ele><time>2025-05-24T14:58:06Z</time></trkpt>
<trkpt lat="50.512946" lon="4.365519"><ele>124.43</ele><time>2025-05-24T14:58:14Z</time></trkpt>
<trkpt lat="50.513362" lon="4.364145"><ele>123.03</ele><time>2025-05-24T14:58:23Z</time></trkpt>
<trkpt lat="50.513591" lon="4.363551"><ele>122.64</ele><time>2025-05-24T14:58:31Z</time></trkpt>
<trkpt lat="50.513634" lon="4.363272"><ele>122.53</ele><time>2025-05-24T14:58:40Z</time></trkpt>
<trkpt lat="50.513909" lon="4.362462"><ele>127.15</ele><time>2025-05-24T14:58:48Z</time></trkpt>
<trkpt lat="50.514184" lon="4.361865"><ele>127.78</ele><time>2025-05-24T14:58:57Z</time></trkpt>
<trkpt lat="50.515288" lon="4.3597"><ele>129.96</ele><time>2025-05-24T14:59:06Z</time></trkpt>
<trkpt lat="50.51556" lon="4.359202"><ele>129.86</ele><time>2025-05-24T14:59:14Z</time></trkpt>
<trkpt lat="50.516094" lon="4.358179"><ele>128.51</ele><time>2025-05-24T14:59:23Z</time></trkpt>
<trkpt lat="50.516198" lon="4.358007"><ele>128.0</ele><time>2025-05-24T14:59:31Z</time></trkpt>
<trkpt lat="50.517038" lon="4.3569"><ele>128.66</ele><time>2025-05-24T14:59:40Z</time></trkpt>
<trkpt lat="50.517334" lon="4.356483"><ele>128.26</ele><time>2025-05-24T14:59:48Z</time></trkpt>
<trkpt lat="50.517607" lon="4.356206"><ele>127.61</ele><time>2025-05-24T14:59:57Z</time></trkpt>
<trkpt lat="50.517404" lon="4.355349"><ele>130.83</ele><time>2025-05-24T15:00:14Z</time></trkpt>
<trkpt lat="50.51711" lon="4.354511"><ele>134.16</ele><time>2025-05-24T15:00:30Z</time></trkpt>
<trkpt lat="50.517269" lon="4.354484"><ele>133.69</ele><time>2025-05-24T15:00:34Z</time></trkpt>
<trkpt lat="50.51761" lon="4.354356"><ele>133.37</ele><time>2025-05-24T15:00:38Z</time></trkpt>
<trkpt lat="50.517965" lon="4.354154"><ele>134.38</ele><time>2025-05-24T15:00:42Z</time></trkpt>
<trkpt lat="50.518635" lon="4.353685"><ele>134.65</ele><time>2025-05-24T15:00:46Z</time></trkpt>
<trkpt lat="50.518775" lon="4.3536"><ele>134.43</ele><time>2025-05-24T15:00:51Z</time></trkpt>
<trkpt lat="50.518912" lon="4.353548"><ele>133.92</ele><time>2025-05-24T15:00:55Z</time></trkpt>
<trkpt lat="50.519056" lon="4.353537"><ele>133.4</ele><time>2025-05-24T15:00:59Z</time></trkpt>
<trkpt lat="50.519189" lon="4.353562"><ele>133.08</ele><time>2025-05-24T15:01:03Z</time></trkpt>
<trkpt lat="50.519768" lon="4.353841"><ele>134.17</ele><time>2025-05-24T15:01:07Z</time></trkpt>
<trkpt lat="50.520003" lon="4.353195"><ele>135.0</ele><time>2025-05-24T15:01:17Z</time></trkpt>
<trkpt lat="50.520845" lon="4.350257"><ele>146.11</ele><time>2025-05-24T15:01:26Z</time></trkpt>
<trkpt lat="50.521575" lon="4.347409"><ele>147.22</ele><time>2025-05-24T15:01:36Z</time></trkpt>
<trkpt lat="50.521854" lon="4.346263"><ele>152.0</ele><time>2025-05-24T15:01:46Z</time></trkpt>
<trkpt lat="50.521943" lon="4.345302"><ele>152.0</ele><time>2025-05-24T15:01:55Z</time></trkpt>
<trkpt lat="50.521949" lon="4.343687"><ele>149.55</ele><time>2025-05-24T15:02:05Z</time></trkpt>
<trkpt lat="50.52201" lon="4.342737"><ele>142.62</ele><time>2025-05-24T15:02:15Z</time></trkpt>
<trkpt lat="50.522122" lon="4.342317"><ele>140.7</ele><time>2025-05-24T15:02:25Z</time></trkpt>
<trkpt lat="50.522315" lon="4.341461"><ele>143.41</ele><time>2025-05-24T15:02:34Z</time></trkpt>
<trkpt lat="50.522457" lon="4.340692"><ele>144.0</ele><time>2025-05-24T15:02:44Z</time></trkpt>
<trkpt lat="50.522584" lon="4.340206"><ele>144.78</ele><time>2025-05-24T15:02:54Z</time></trkpt>
<trkpt lat="50.523021" lon="4.338886"><ele>146.26</ele><time>2025-05-24T15:03:03Z</time></trkpt>
<trkpt lat="50.52345" lon="4.337184"><ele>153.06</ele><time>2025-05-24T15:03:13Z</time></trkpt>
<trkpt lat="50.523638" lon="4.336519"><ele>153.57</ele><time>2025-05-24T15:03:23Z</time></trkpt>
<trkpt lat="50.523901" lon="4.335712"><ele>153.04</ele><time>2025-05-24T15:03:33Z</time></trkpt>
<trkpt lat="50.524032" lon="4.334788"><ele>154.76</ele><time>2025-05-24T15:04:13Z</time></trkpt>
<trkpt lat="50.523966" lon="4.333097"><ele>155.13</ele><time>2025-05-24T15:04:52Z</time></trkpt>
<trkpt lat="50.524121" lon="4.331081"><ele>152.29</ele><time>2025-05-24T15:05:32Z</time></trkpt>
<trkpt lat="50.524357" lon="4.329968"><ele>151.04</ele><time>2025-05-24T15:06:12Z</time></trkpt>
<trkpt lat="50.524466" lon="4.329678"><ele>152.0</ele><time>2025-05-24T15:06:38Z</time></trkpt>
<trkpt lat="50.525991" lon="4.327274"><ele>158.0</ele><time>2025-05-24T15:07:03Z</time></trkpt>
<trkpt lat="50.526112" lon="4.327209"><ele>158.0</ele><time>2025-05-24T15:07:29Z</time></trkpt>
<trkpt lat="50.5262" lon="4.32545"><ele>158.2</ele><time>2025-05-24T15:08:42Z</time></trkpt>
<trkpt lat="50.526274" lon="4.318778"><ele>159.75</ele><time>2025-05-24T15:09:55Z</time></trkpt>
<trkpt lat="50.526421" lon="4.317631"><ele>160.47</ele><time>2025-05-24T15:11:09Z</time></trkpt>
<trkpt lat="50.526456" lon="4.317242"><ele>160.0</ele><time>2025-05-24T15:12:22Z</time></trkpt>
<trkpt lat="50.526473" lon="4.317282"><ele>160.0</ele><time>2025-05-24T15:12:23Z</time></trkpt>
<trkpt lat="50.526473" lon="4.317282"><ele>160.0</ele><time>2025-05-24T15:12:23Z</time></trkpt>
<trkpt lat="50.526456" lon="4.317242"><ele>160.0</ele><time>2025-05-24T15:12:29Z</time></trkpt>
<trkpt lat="50.526401" lon="4.316772"><ele>160.04</ele><time>2025-05-24T15:12:35Z</time></trkpt>
<trkpt lat="50.526391" lon="4.316283"><ele>161.38</ele><time>2025-05-24T15:12:41Z</time></trkpt>
<trkpt lat="50.526466" lon="4.315021"><ele>161.72</ele><time>2025-05-24T15:12:47Z</time></trkpt>
<trkpt lat="50.52652" lon="4.314442"><ele>159.57</ele><time>2025-05-24T15:12:53Z</time></trkpt>
<trkpt lat="50.526801" lon="4.312696"><ele>158.37</ele><time>2025-05-24T15:12:59Z</time></trkpt>
<trkpt lat="50.527029" lon="4.31187"><ele>159.08</ele><time>2025-05-24T15:13:05Z</time></trkpt>
<trkpt lat="50.527091" lon="4.311612"><ele>159.62</ele><time>2025-05-24T15:13:11Z</time></trkpt>
<trkpt lat="50.527117" lon="4.311408"><ele>159.97</ele><time>2025-05-24T15:13:17Z</time></trkpt>
<trkpt lat="50.527414" lon="4.310885"><ele>157.81</ele><time>2025-05-24T15:13:23Z</time></trkpt>
<trkpt lat="50.527952" lon="4.309598"><ele>155.0</ele><time>2025-05-24T15:13:29Z</time></trkpt>
<trkpt lat="50.528256" lon="4.308916"><ele>153.83</ele><time>2025-05-24T15:13:35Z</time></trkpt>
<trkpt lat="50.528861" lon="4.307405"><ele>151.2</ele><time>2025-05-24T15:13:41Z</time></trkpt>
<trkpt lat="50.529573" lon="4.305759"><ele>147.95</ele><time>2025-05-24T15:13:47Z</time></trkpt>
<trkpt lat="50.530294" lon="4.303887"><ele>144.01</ele><time>2025-05-24T15:13:53Z</time></trkpt>
<trkpt lat="50.530439" lon="4.303435"><ele>145.95</ele><time>2025-05-24T15:13:59Z</time></trkpt>
<trkpt lat="50.531015" lon="4.30256"><ele>136.4</ele><time>2025-05-24T15:14:05Z</time></trkpt>
<trkpt lat="50.531491" lon="4.301592"><ele>128.9</ele><time>2025-05-24T15:14:11Z</time></trkpt>
<trkpt lat="50.531919" lon="4.300799"><ele>123.96</ele><time>2025-05-24T15:14:17Z</time></trkpt>
<trkpt lat="50.532108" lon="4.30028"><ele>121.01</ele><time>2025-05-24T15:14:23Z</time></trkpt>
<trkpt lat="50.532552" lon="4.298955"><ele>121.14</ele><time>2025-05-24T15:14:29Z</time></trkpt>
<trkpt lat="50.532897" lon="4.298349"><ele>126.37</ele><time>2025-05-24T15:14:35Z</time></trkpt>
<trkpt lat="50.532981" lon="4.298231"><ele>127.36</ele><time>2025-05-24T15:14:41Z</time></trkpt>
<trkpt lat="50.53418" lon="4.299868"><ele>123.0</ele><time>2025-05-24T15:14:52Z</time></trkpt>
<trkpt lat="50.534997" lon="4.301143"><ele>121.13</ele><time>2025-05-24T15:15:02Z</time></trkpt>
<trkpt lat="50.535714" lon="4.302205"><ele>117.53</ele><time>2025-05-24T15:15:12Z</time></trkpt>
<trkpt lat="50.535877" lon="4.302549"><ele>117.15</ele><time>2025-05-24T15:15:22Z</time></trkpt>
<trkpt lat="50.535936" lon="4.302426"><ele>117.0</ele><time>2025-05-24T15:15:28Z</time></trkpt>
<trkpt lat="50.536192" lon="4.302111"><ele>117.87</ele><time>2025-05-24T15:15:34Z</time></trkpt>
<trkpt lat="50.536816" lon="4.301526"><ele>121.11</ele><time>2025-05-24T15:15:40Z</time></trkpt>
<trkpt lat="50.537239" lon="4.301016"><ele>120.57</ele><time>2025-05-24T15:15:45Z</time></trkpt>
<trkpt lat="50.538026" lon="4.300198"><ele>120.21</ele><time>2025-05-24T15:15:51Z</time></trkpt>
<trkpt lat="50.539178" lon="4.298883"><ele>121.98</ele><time>2025-05-24T15:15:57Z</time></trkpt>
<trkpt lat="50.539379" lon="4.298675"><ele>122.0</ele><time>2025-05-24T15:16:03Z</time></trkpt>
<trkpt lat="50.539704" lon="4.298391"><ele>121.07</ele><time>2025-05-24T15:16:08Z</time></trkpt>
<trkpt lat="50.539853" lon="4.298292"><ele>120.38</ele><time>2025-05-24T15:16:14Z</time></trkpt>
<trkpt lat="50.540646" lon="4.297897"><ele>120.0</ele><time>2025-05-24T15:16:20Z</time></trkpt>
<trkpt lat="50.54135" lon="4.297413"><ele>119.41</ele><time>2025-05-24T15:16:26Z</time></trkpt>
<trkpt lat="50.541651" lon="4.297155"><ele>120.94</ele><time>2025-05-24T15:16:31Z</time></trkpt>
<trkpt lat="50.542227" lon="4.296481"><ele>118.35</ele><time>2025-05-24T15:16:37Z</time></trkpt>
<trkpt lat="50.542808" lon="4.295874"><ele>119.62</ele><time>2025-05-24T15:16:43Z</time></trkpt>
<trkpt lat="50.542955" lon="4.295686"><ele>119.06</ele><time>2025-05-24T15:16:49Z</time></trkpt>
<trkpt lat="50.54307" lon="4.295502"><ele>119.4</ele><time>2025-05-24T15:16:54Z</time></trkpt>
<trkpt lat="50.54354" lon="4.294524"><ele>124.79</ele><time>2025-05-24T15:17:00Z</time></trkpt>
<trkpt lat="50.543915" lon="4.29367"><ele>127.6</ele><time>2025-05-24T15:17:06Z</time></trkpt>
<trkpt lat="50.543992" lon="4.293446"><ele>127.85</ele><time>2025-05-24T15:17:12Z</time></trkpt>
<trkpt lat="50.544042" lon="4.293215"><ele>128.37</ele><time>2025-05-24T15:17:17Z</time></trkpt>
<trkpt lat="50.544057" lon="4.293018"><ele>129.08</ele><time>2025-05-24T15:17:23Z</time></trkpt>
<trkpt lat="50.544052" lon="4.292865"><ele>129.4</ele><time>2025-05-24T15:17:29Z</time></trkpt>
<trkpt lat="50.544011" lon="4.292637"><ele>129.66</ele><time>2025-05-24T15:17:35Z</time></trkpt>
<trkpt lat="50.543979" lon="4.292308"><ele>129.65</ele><time>2025-05-24T15:17:40Z</time></trkpt>
<trkpt lat="50.543981" lon="4.291399"><ele>130.29</ele><time>2025-05-24T15:17:46Z</time></trkpt>
<trkpt lat="50.543912" lon="4.290857"><ele>132.0</ele><time>2025-05-24T15:17:52Z</time></trkpt>
<trkpt lat="50.543924" lon="4.290535"><ele>133.07</ele><time>2025-05-24T15:17:58Z</time></trkpt>
<trkpt lat="50.544074" lon="4.28935"><ele>135.34</ele><time>2025-05-24T15:18:04Z</time></trkpt>
<trkpt lat="50.544197" lon="4.288581"><ele>136.11</ele><time>2025-05-24T15:18:09Z</time></trkpt>
<trkpt lat="50.544623" lon="4.286393"><ele>131.65</ele><time>2025-05-24T15:18:15Z</time></trkpt>
<trkpt lat="50.544707" lon="4.285492"><ele>128.55</ele><time>2025-05-24T15:18:21Z</time></trkpt>
<trkpt lat="50.544874" lon="4.284496"><ele>122.09</ele><time>2025-05-24T15:18:27Z</time></trkpt>
<trkpt lat="50.544923" lon="4.284318"><ele>120.65</ele><time>2025-05-24T15:18:32Z</time></trkpt>
<trkpt lat="50.545001" lon="4.284151"><ele>118.88</ele><time>2025-05-24T15:18:38Z</time></trkpt>
<trkpt lat="50.545755" lon="4.282929"><ele>112.28</ele><time>2025-05-24T15:18:44Z</time></trkpt>
<trkpt lat="50.545816" lon="4.282793"><ele>112.06</ele><time>2025-05-24T15:18:50Z</time></trkpt>
<trkpt lat="50.545871" lon="4.282584"><ele>111.03</ele><time>2025-05-24T15:18:55Z</time></trkpt>
<trkpt lat="50.546038" lon="4.282114"><ele>108.87</ele><time>2025-05-24T15:19:01Z</time></trkpt>
<trkpt lat="50.546316" lon="4.281559"><ele>106.61</ele><time>2025-05-24T15:19:07Z</time></trkpt>
<trkpt lat="50.54656" lon="4.281102"><ele>106.58</ele><time>2025-05-24T15:19:13Z</time></trkpt>
<trkpt lat="50.546907" lon="4.280654"><ele>104.49</ele><time>2025-05-24T15:19:18Z</time></trkpt>
<trkpt lat="50.547014" lon="4.280451"><ele>104.28</ele><time>2025-05-24T15:19:24Z</time></trkpt>
<trkpt lat="50.547414" lon="4.278749"><ele>106.81</ele><time>2025-05-24T15:19:30Z</time></trkpt>
<trkpt lat="50.547598" lon="4.278107"><ele>108.46</ele><time>2025-05-24T15:19:36Z</time></trkpt>
<trkpt lat="50.547703" lon="4.2778"><ele>108.94</ele><time>2025-05-24T15:19:41Z</time></trkpt>
<trkpt lat="50.548004" lon="4.277115"><ele>109.31</ele><time>2025-05-24T15:19:47Z</time></trkpt>
<trkpt lat="50.548044" lon="4.277065"><ele>109.54</ele><time>2025-05-24T15:19:55Z</time></trkpt>
<trkpt lat="50.548094" lon="4.27704"><ele>109.79</ele><time>2025-05-24T15:20:04Z</time></trkpt>
<trkpt lat="50.54827" lon="4.277007"><ele>110.55</ele><time>2025-05-24T15:20:12Z</time></trkpt>
<trkpt lat="50.548384" lon="4.276882"><ele>111.18</ele><time>2025-05-24T15:20:20Z</time></trkpt>
<trkpt lat="50.548545" lon="4.276539"><ele>112.22</ele><time>2025-05-24T15:20:28Z</time></trkpt>
<trkpt lat="50.550006" lon="4.273037"><ele>115.02</ele><time>2025-05-24T15:20:36Z</time></trkpt>
<trkpt lat="50.551195" lon="4.271281"><ele>117.7</ele><time>2025-05-24T15:20:45Z</time></trkpt>
<trkpt lat="50.553047" lon="4.272715"><ele>115.42</ele><time>2025-05-24T15:20:56Z</time></trkpt>
<trkpt lat="50.554281" lon="4.273638"><ele>118.73</ele><time>2025-05-24T15:21:08Z</time></trkpt>
<trkpt lat="50.555751" lon="4.274727"><ele>117.01</ele><time>2025-05-24T15:21:20Z</time></trkpt>
<trkpt lat="50.555751" lon="4.274727"><ele>117.01</ele><time>2025-05-24T15:21:20Z</time></trkpt>
<trkpt lat="50.554281" lon="4.273638"><ele>118.73</ele><time>2025-05-24T15:21:32Z</time></trkpt>
<trkpt lat="50.553047" lon="4.272715"><ele>115.42</ele><time>2025-05-24T15:21:45Z</time></trkpt>
<trkpt lat="50.551195" lon="4.271281"><ele>117.7</ele><time>2025-05-24T15:21:57Z</time></trkpt>
<trkpt lat="50.550408" lon="4.270708"><ele>115.39</ele><time>2025-05-24T15:22:09Z</time></trkpt>
<trkpt lat="50.549528" lon="4.270003"><ele>113.3</ele><time>2025-05-24T15:22:21Z</time></trkpt>
<trkpt lat="50.548994" lon="4.269569"><ele>110.04</ele><time>2025-05-24T15:22:33Z</time></trkpt>
<trkpt lat="50.544206" lon="4.265504"><ele>115.84</ele><time>2025-05-24T15:22:46Z</time></trkpt>
<trkpt lat="50.543494" lon="4.264897"><ele>114.22</ele><time>2025-05-24T15:22:58Z</time></trkpt>
<trkpt lat="50.543587" lon="4.264607"><ele>114.58</ele><time>2025-05-24T15:23:00Z</time></trkpt>
<trkpt lat="50.543712" lon="4.264468"><ele>115.28</ele><time>2025-05-24T15:23:03Z</time></trkpt>
<trkpt lat="50.544509" lon="4.264076"><ele>121.09</ele><time>2025-05-24T15:23:06Z</time></trkpt>
<trkpt lat="50.544819" lon="4.263842"><ele>122.32</ele><time>2025-05-24T15:23:08Z</time></trkpt>
<trkpt lat="50.546842" lon="4.261827"><ele>122.05</ele><time>2025-05-24T15:23:11Z</time></trkpt>
<trkpt lat="50.547105" lon="4.26154"><ele>117.61</ele><time>2025-05-24T15:23:14Z</time></trkpt>
<trkpt lat="50.547268" lon="4.261295"><ele>116.39</ele><time>2025-05-24T15:23:16Z</time></trkpt>
<trkpt lat="50.5474" lon="4.261048"><ele>118.09</ele><time>2025-05-24T15:23:19Z</time></trkpt>
<trkpt lat="50.547476" lon="4.260817"><ele>119.97</ele><time>2025-05-24T15:23:22Z</time></trkpt>
<trkpt lat="50.547546" lon="4.26039"><ele>121.16</ele><time>2025-05-24T15:23:24Z</time></trkpt>
<trkpt lat="50.54752" lon="4.259883"><ele>121.46</ele><time>2025-05-24T15:23:27Z</time></trkpt>
<trkpt lat="50.547471" lon="4.259638"><ele>121.68</ele><time>2025-05-24T15:23:29Z</time></trkpt>
<trkpt lat="50.547286" lon="4.258976"><ele>120.99</ele><time>2025-05-24T15:23:32Z</time></trkpt>
<trkpt lat="50.547131" lon="4.258544"><ele>121.02</ele><time>2025-05-24T15:23:35Z</time></trkpt>
<trkpt lat="50.546964" lon="4.258162"><ele>119.83</ele><time>2025-05-24T15:23:37Z</time></trkpt>
<trkpt lat="50.546602" lon="4.257498"><ele>120.78</ele><time>2025-05-24T15:23:40Z</time></trkpt>
<trkpt lat="50.546292" lon="4.25678"><ele>122.59</ele><time>2025-05-24T15:23:43Z</time></trkpt>
<trkpt lat="50.547429" lon="4.256447"><ele>122.33</ele><time>2025-05-24T15:23:53Z</time></trkpt>
<trkpt lat="50.54798" lon="4.256558"><ele>123.05</ele><time>2025-05-24T15:24:04Z</time></trkpt>
<trkpt lat="50.548743" lon="4.257176"><ele>122.08</ele><time>2025-05-24T15:24:14Z</time></trkpt>
<trkpt lat="50.549669" lon="4.258049"><ele>122.0</ele><time>2025-05-24T15:24:25Z</time></trkpt>
<trkpt lat="50.549867" lon="4.258392"><ele>122.52</ele><time>2025-05-24T15:24:36Z</time></trkpt>
<trkpt lat="50.550011" lon="4.258752"><ele>123.06</ele><time>2025-05-24T15:24:46Z</time></trkpt>
<trkpt lat="50.55011" lon="4.258778"><ele>123.88</ele><time>2025-05-24T15:24:47Z</time></trkpt>
<trkpt lat="50.55011" lon="4.258778"><ele>123.88</ele><time>2025-05-24T15:24:47Z</time></trkpt>
<trkpt lat="50.55045" lon="4.258867"><ele>124.7</ele><time>2025-05-24T15:24:56Z</time></trkpt>
<trkpt lat="50.551116" lon="4.258871"><ele>124.98</ele><time>2025-05-24T15:25:05Z</time></trkpt>
<trkpt lat="50.551623" lon="4.258798"><ele>123.48</ele><time>2025-05-24T15:25:14Z</time></trkpt>
<trkpt lat="50.551947" lon="4.258638"><ele>122.91</ele><time>2025-05-24T15:25:22Z</time></trkpt>
<trkpt lat="50.553172" lon="4.2577"><ele>120.75</ele><time>2025-05-24T15:25:31Z</time></trkpt>
<trkpt lat="50.555053" lon="4.256892"><ele>117.27</ele><time>2025-05-24T15:25:40Z</time></trkpt>
<trkpt lat="50.555976" lon="4.256685"><ele>112.0</ele><time>2025-05-24T15:25:49Z</time></trkpt>
<trkpt lat="50.556215" lon="4.256598"><ele>112.28</ele><time>2025-05-24T15:25:57Z</time></trkpt>
<trkpt lat="50.556861" lon="4.256203"><ele>112.0</ele><time>2025-05-24T15:26:06Z</time></trkpt>
<trkpt lat="50.557533" lon="4.255909"><ele>109.3</ele><time>2025-05-24T15:26:15Z</time></trkpt>
<trkpt lat="50.558047" lon="4.255569"><ele>109.94</ele><time>2025-05-24T15:26:23Z</time></trkpt>
<trkpt lat="50.558404" lon="4.255365"><ele>110.31</ele><time>2025-05-24T15:26:32Z</time></trkpt>
<trkpt lat="50.559836" lon="4.254975"><ele>112.22</ele><time>2025-05-24T15:26:41Z</time></trkpt>
<trkpt lat="50.559974" lon="4.254887"><ele>112.09</ele><time>2025-05-24T15:26:50Z</time></trkpt>
<trkpt lat="50.560842" lon="4.253392"><ele>104.41</ele><time>2025-05-24T15:26:58Z</time></trkpt>
<trkpt lat="50.560926" lon="4.253276"><ele>103.65</ele><time>2025-05-24T15:27:07Z</time></trkpt>
<trkpt lat="50.560978" lon="4.253258"><ele>103.44</ele><time>2025-05-24T15:27:16Z</time></trkpt>
<trkpt lat="50.561264" lon="4.253431"><ele>103.25</ele><time>2025-05-24T15:27:25Z</time></trkpt>
<trkpt lat="50.561418" lon="4.253465"><ele>102.26</ele><time>2025-05-24T15:27:33Z</time></trkpt>
<trkpt lat="50.56181" lon="4.253434"><ele>101.34</ele><time>2025-05-24T15:27:42Z</time></trkpt>
<trkpt lat="50.56181" lon="4.253434"><ele>101.34</ele><time>2025-05-24T15:27:42Z</time></trkpt>
<trkpt lat="50.561972" lon="4.253421"><ele>100.42</ele><time>2025-05-24T15:27:44Z</time></trkpt>
<trkpt lat="50.562074" lon="4.25346"><ele>100.92</ele><time>2025-05-24T15:27:47Z</time></trkpt>
<trkpt lat="50.562214" lon="4.253583"><ele>101.87</ele><time>2025-05-24T15:27:49Z</time></trkpt>
<trkpt lat="50.562419" lon="4.254135"><ele>104.43</ele><time>2025-05-24T15:27:54Z</time></trkpt>
<trkpt lat="50.562496" lon="4.25453"><ele>105.05</ele><time>2025-05-24T15:27:59Z</time></trkpt>
<trkpt lat="50.562602" lon="4.255401"><ele>105.71</ele><time>2025-05-24T15:28:04Z</time></trkpt>
<trkpt lat="50.562763" lon="4.257915"><ele>104.97</ele><time>2025-05-24T15:28:09Z</time></trkpt>
<trkpt lat="50.562754" lon="4.258411"><ele>105.09</ele><time>2025-05-24T15:28:14Z</time></trkpt>
<trkpt lat="50.5627" lon="4.258909"><ele>106.24</ele><time>2025-05-24T15:28:19Z</time></trkpt>
<trkpt lat="50.562649" lon="4.259129"><ele>106.48</ele><time>2025-05-24T15:28:24Z</time></trkpt>
<trkpt lat="50.562508" lon="4.259558"><ele>106.49</ele><time>2025-05-24T15:28:29Z</time></trkpt>
<trkpt lat="50.562655" lon="4.259697"><ele>108.59</ele><time>2025-05-24T15:29:02Z</time></trkpt>
<trkpt lat="50.56279" lon="4.259657"><ele>109.86</ele><time>2025-05-24T15:29:09Z</time></trkpt>
<trkpt lat="50.56414" lon="4.260072"><ele>107.04</ele><time>2025-05-24T15:29:15Z</time></trkpt>
<trkpt lat="50.564327" lon="4.26008"><ele>107.61</ele><time>2025-05-24T15:29:22Z</time></trkpt>
<trkpt lat="50.564491" lon="4.260003"><ele>106.7</ele><time>2025-05-24T15:29:28Z</time></trkpt>
<trkpt lat="50.564842" lon="4.259741"><ele>104.04</ele><time>2025-05-24T15:29:35Z</time></trkpt>
<trkpt lat="50.564952" lon="4.259563"><ele>104.0</ele><time>2025-05-24T15:29:42Z</time></trkpt>
<trkpt lat="50.565165" lon="4.258996"><ele>103.0</ele><time>2025-05-24T15:29:48Z</time></trkpt>
<trkpt lat="50.565356" lon="4.258673"><ele>100.53</ele><time>2025-05-24T15:29:55Z</time></trkpt>
<trkpt lat="50.565656" lon="4.258353"><ele>96.58</ele><time>2025-05-24T15:30:01Z</time></trkpt>
<trkpt lat="50.565753" lon="4.258369"><ele>95.26</ele><time>2025-05-24T15:30:08Z</time></trkpt>
<trkpt lat="50.565933" lon="4.257792"><ele>92.28</ele><time>2025-05-24T15:30:14Z</time></trkpt>
<trkpt lat="50.566005" lon="4.257626"><ele>92.1</ele><time>2025-05-24T15:30:19Z</time></trkpt>
<trkpt lat="50.566388" lon="4.257269"><ele>91.0</ele><time>2025-05-24T15:30:25Z</time></trkpt>
<trkpt lat="50.566516" lon="4.257138"><ele>90.98</ele><time>2025-05-24T15:30:30Z</time></trkpt>
<trkpt lat="50.566992" lon="4.257049"><ele>90.91</ele><time>2025-05-24T15:30:36Z</time></trkpt>
<trkpt lat="50.566949" lon="4.257326"><ele>89.59</ele><time>2025-05-24T15:30:39Z</time></trkpt>
<trkpt lat="50.566724" lon="4.258032"><ele>88.79</ele><time>2025-05-24T15:30:43Z</time></trkpt>
<trkpt lat="50.566609" lon="4.258617"><ele>89.2</ele><time>2025-05-24T15:30:46Z</time></trkpt>
<trkpt lat="50.566588" lon="4.25896"><ele>89.0</ele><time>2025-05-24T15:30:50Z</time></trkpt>
<trkpt lat="50.566608" lon="4.259431"><ele>89.2</ele><time>2025-05-24T15:30:53Z</time></trkpt>
<trkpt lat="50.566633" lon="4.25964"><ele>89.12</ele><time>2025-05-24T15:30:56Z</time></trkpt>
<trkpt lat="50.566705" lon="4.260021"><ele>89.06</ele><time>2025-05-24T15:31:00Z</time></trkpt>
<trkpt lat="50.566901" lon="4.260702"><ele>89.84</ele><time>2025-05-24T15:31:03Z</time></trkpt>
<trkpt lat="50.567135" lon="4.260549"><ele>89.7</ele><time>2025-05-24T15:31:07Z</time></trkpt>
<trkpt lat="50.567172" lon="4.260443"><ele>90.15</ele><time>2025-05-24T15:31:10Z</time></trkpt>
<trkpt lat="50.566948" lon="4.259427"><ele>89.96</ele><time>2025-05-24T15:31:14Z</time></trkpt>
<trkpt lat="50.566942" lon="4.258783"><ele>88.62</ele><time>2025-05-24T15:31:17Z</time></trkpt>
<trkpt lat="50.567013" lon="4.25832"><ele>87.99</ele><time>2025-05-24T15:31:20Z</time></trkpt>
<trkpt lat="50.567415" lon="4.257576"><ele>87.8</ele><time>2025-05-24T15:31:24Z</time></trkpt>
<trkpt lat="50.567472" lon="4.25756"><ele>88.07</ele><time>2025-05-24T15:31:27Z</time></trkpt>
<trkpt lat="50.567544" lon="4.257586"><ele>88.42</ele><time>2025-05-24T15:31:31Z</time></trkpt>
<trkpt lat="50.567808" lon="4.25774"><ele>89.0</ele><time>2025-05-24T15:31:34Z</time></trkpt>
<trkpt lat="50.568036" lon="4.257686"><ele>89.0</ele><time>2025-05-24T15:31:38Z</time></trkpt>
<trkpt lat="50.568261" lon="4.257663"><ele>88.69</ele><time>2025-05-24T15:31:41Z</time></trkpt>
<trkpt lat="50.568797" lon="4.258317"><ele>90.55</ele><time>2025-05-24T15:31:52Z</time></trkpt>
<trkpt lat="50.569764" lon="4.259407"><ele>97.88</ele><time>2025-05-24T15:32:03Z</time></trkpt>
<trkpt lat="50.569964" lon="4.259696"><ele>98.87</ele><time>2025-05-24T15:32:14Z</time></trkpt>
<trkpt lat="50.570415" lon="4.260615"><ele>97.72</ele><time>2025-05-24T15:32:25Z</time></trkpt>
<trkpt lat="50.571201" lon="4.262625"><ele>104.45</ele><time>2025-05-24T15:32:36Z</time></trkpt>
<trkpt lat="50.571895" lon="4.264669"><ele>108.66</ele><time>2025-05-24T15:32:47Z</time></trkpt>
<trkpt lat="50.572071" lon="4.265068"><ele>111.04</ele><time>2025-05-24T15:32:58Z</time></trkpt>
<trkpt lat="50.572432" lon="4.265727"><ele>113.0</ele><time>2025-05-24T15:33:09Z</time></trkpt>
<trkpt lat="50.572977" lon="4.266396"><ele>113.99</ele><time>2025-05-24T15:33:20Z</time></trkpt>
<trkpt lat="50.573673" lon="4.267605"><ele>117.93</ele><time>2025-05-24T15:33:30Z</time></trkpt>
<trkpt lat="50.573934" lon="4.268169"><ele>119.25</ele><time>2025-05-24T15:33:41Z</time></trkpt>
<trkpt lat="50.574263" lon="4.268974"><ele>120.35</ele><time>2025-05-24T15:33:52Z</time></trkpt>
<trkpt lat="50.574405" lon="4.269242"><ele>120.62</ele><time>2025-05-24T15:34:03Z</time></trkpt>
<trkpt lat="50.574621" lon="4.269489"><ele>119.94</ele><time>2025-05-24T15:34:14Z</time></trkpt>
<trkpt lat="50.574631" lon="4.26947"><ele>120.95</ele><time>2025-05-24T15:34:14Z</time></trkpt>
<trkpt lat="50.574631" lon="4.26947"><ele>120.95</ele><time>2025-05-24T15:34:14Z</time></trkpt>
<trkpt lat="50.574984" lon="4.268808"><ele>121.96</ele><time>2025-05-24T15:34:19Z</time></trkpt>
<trkpt lat="50.575176" lon="4.268576"><ele>122.71</ele><time>2025-05-24T15:34:23Z</time></trkpt>
<trkpt lat="50.575367" lon="4.268424"><ele>124.0</ele><time>2025-05-24T15:34:27Z</time></trkpt>
<trkpt lat="50.575756" lon="4.267987"><ele>125.99</ele><time>2025-05-24T15:34:31Z</time></trkpt>
<trkpt lat="50.575858" lon="4.267964"><ele>125.8</ele><time>2025-05-24T15:34:37Z</time></trkpt>
<trkpt lat="50.575994" lon="4.268025"><ele>125.93</ele><time>2025-05-24T15:34:42Z</time></trkpt>
<trkpt lat="50.576961" lon="4.269158"><ele>126.12</ele><time>2025-05-24T15:34:47Z</time></trkpt>
<trkpt lat="50.577113" lon="4.269439"><ele>123.66</ele><time>2025-05-24T15:34:52Z</time></trkpt>
<trkpt lat="50.577241" lon="4.269773"><ele>120.58</ele><time>2025-05-24T15:34:58Z</time></trkpt>
<trkpt lat="50.577403" lon="4.270073"><ele>119.3</ele><time>2025-05-24T15:35:03Z</time></trkpt>
<trkpt lat="50.578152" lon="4.271029"><ele>122.64</ele><time>2025-05-24T15:35:08Z</time></trkpt>
<trkpt lat="50.578305" lon="4.271123"><ele>122.85</ele><time>2025-05-24T15:35:13Z</time></trkpt>
<trkpt lat="50.579063" lon="4.271209"><ele>121.24</ele><time>2025-05-24T15:35:18Z</time></trkpt>
<trkpt lat="50.579836" lon="4.269954"><ele>130.33</ele><time>2025-05-24T15:35:24Z</time></trkpt>
<trkpt lat="50.580053" lon="4.269869"><ele>130.56</ele><time>2025-05-24T15:35:30Z</time></trkpt>
<trkpt lat="50.581064" lon="4.269553"><ele>126.17</ele><time>2025-05-24T15:35:36Z</time></trkpt>
<trkpt lat="50.581284" lon="4.269444"><ele>125.38</ele><time>2025-05-24T15:35:41Z</time></trkpt>
<trkpt lat="50.582077" lon="4.26859"><ele>125.36</ele><time>2025-05-24T15:35:47Z</time></trkpt>
<trkpt lat="50.582513" lon="4.268209"><ele>127.1</ele><time>2025-05-24T15:35:53Z</time></trkpt>
<trkpt lat="50.582899" lon="4.267934"><ele>125.56</ele><time>2025-05-24T15:35:59Z</time></trkpt>
<trkpt lat="50.584293" lon="4.26633"><ele>116.32</ele><time>2025-05-24T15:36:04Z</time></trkpt>
<trkpt lat="50.584382" lon="4.266182"><ele>114.35</ele><time>2025-05-24T15:36:10Z</time></trkpt>
<trkpt lat="50.58442" lon="4.265928"><ele>112.1</ele><time>2025-05-24T15:36:16Z</time></trkpt>
<trkpt lat="50.584335" lon="4.265412"><ele>111.45</ele><time>2025-05-24T15:36:22Z</time></trkpt>
<trkpt lat="50.584245" lon="4.265086"><ele>112.1</ele><time>2025-05-24T15:36:27Z</time></trkpt>
<trkpt lat="50.584224" lon="4.26492"><ele>111.66</ele><time>2025-05-24T15:36:33Z</time></trkpt>
<trkpt lat="50.584266" lon="4.264058"><ele>106.89</ele><time>2025-05-24T15:36:39Z</time></trkpt>
<trkpt lat="50.584308" lon="4.263835"><ele>105.69</ele><time>2025-05-24T15:36:45Z</time></trkpt>
<trkpt lat="50.584372" lon="4.263603"><ele>104.25</ele><time>2025-05-24T15:36:51Z</time></trkpt>
<trkpt lat="50.584574" lon="4.263248"><ele>103.06</ele><time>2025-05-24T15:36:56Z</time></trkpt>
<trkpt lat="50.584789" lon="4.262998"><ele>101.6</ele><time>2025-05-24T15:37:02Z</time></trkpt>
<trkpt lat="50.586069" lon="4.262267"><ele>100.85</ele><time>2025-05-24T15:37:08Z</time></trkpt>
<trkpt lat="50.586368" lon="4.262002"><ele>99.47</ele><time>2025-05-24T15:37:14Z</time></trkpt>
<trkpt lat="50.58662" lon="4.261597"><ele>97.75</ele><time>2025-05-24T15:37:19Z</time></trkpt>
<trkpt lat="50.586923" lon="4.260956"><ele>97.51</ele><time>2025-05-24T15:37:25Z</time></trkpt>
<trkpt lat="50.587427" lon="4.260056"><ele>98.0</ele><time>2025-05-24T15:37:31Z</time></trkpt>
<trkpt lat="50.588035" lon="4.25884"><ele>97.57</ele><time>2025-05-24T15:37:37Z</time></trkpt>
<trkpt lat="50.588187" lon="4.258632"><ele>97.06</ele><time>2025-05-24T15:37:42Z</time></trkpt>
<trkpt lat="50.588337" lon="4.258551"><ele>97.8</ele><time>2025-05-24T15:37:48Z</time></trkpt>
<trkpt lat="50.588895" lon="4.258482"><ele>97.54</ele><time>2025-05-24T15:37:54Z</time></trkpt>
<trkpt lat="50.589059" lon="4.258489"><ele>97.56</ele><time>2025-05-24T15:38:00Z</time></trkpt>
<trkpt lat="50.589225" lon="4.258309"><ele>96.72</ele><time>2025-05-24T15:38:03Z</time></trkpt>
<trkpt lat="50.589376" lon="4.258106"><ele>96.04</ele><time>2025-05-24T15:38:06Z</time></trkpt>
<trkpt lat="50.589632" lon="4.257754"><ele>97.46</ele><time>2025-05-24T15:38:09Z</time></trkpt>
<trkpt lat="50.589736" lon="4.257572"><ele>98.74</ele><time>2025-05-24T15:38:12Z</time></trkpt>
<trkpt lat="50.589944" lon="4.257112"><ele>98.6</ele><time>2025-05-24T15:38:15Z</time></trkpt>
<trkpt lat="50.590133" lon="4.256588"><ele>97.72</ele><time>2025-05-24T15:38:18Z</time></trkpt>
<trkpt lat="50.590221" lon="4.256498"><ele>97.39</ele><time>2025-05-24T15:38:24Z</time></trkpt>
<trkpt lat="50.590867" lon="4.256348"><ele>91.73</ele><time>2025-05-24T15:38:29Z</time></trkpt>
<trkpt lat="50.592117" lon="4.255872"><ele>85.14</ele><time>2025-05-24T15:38:34Z</time></trkpt>
<trkpt lat="50.592453" lon="4.255613"><ele>83.38</ele><time>2025-05-24T15:38:39Z</time></trkpt>
<trkpt lat="50.592892" lon="4.255471"><ele>81.21</ele><time>2025-05-24T15:38:44Z</time></trkpt>
<trkpt lat="50.592975" lon="4.255459"><ele>81.21</ele><time>2025-05-24T15:38:49Z</time></trkpt>
<trkpt lat="50.59315" lon="4.255505"><ele>80.16</ele><time>2025-05-24T15:38:55Z</time></trkpt>
<trkpt lat="50.59315" lon="4.255505"><ele>80.16</ele><time>2025-05-24T15:38:55Z</time></trkpt>
<trkpt lat="50.593569" lon="4.255625"><ele>75.43</ele><time>2025-05-24T15:38:59Z</time></trkpt>
<trkpt lat="50.593516" lon="4.256302"><ele>75.54</ele><time>2025-05-24T15:39:08Z</time></trkpt>
<trkpt lat="50.593598" lon="4.256715"><ele>74.54</ele><time>2025-05-24T15:39:16Z</time></trkpt>
<trkpt lat="50.593624" lon="4.257059"><ele>75.62</ele><time>2025-05-24T15:39:25Z</time></trkpt>
<trkpt lat="50.593696" lon="4.257497"><ele>78.44</ele><time>2025-05-24T15:39:33Z</time></trkpt>
<trkpt lat="50.593943" lon="4.25814"><ele>78.78</ele><time>2025-05-24T15:39:41Z</time></trkpt>
<trkpt lat="50.593968" lon="4.258353"><ele>79.38</ele><time>2025-05-24T15:39:50Z</time></trkpt>
<trkpt lat="50.593642" lon="4.260442"><ele>81.53</ele><time>2025-05-24T15:39:58Z</time></trkpt>
<trkpt lat="50.593585" lon="4.260673"><ele>82.29</ele><time>2025-05-24T15:40:07Z</time></trkpt>
<trkpt lat="50.593489" lon="4.260941"><ele>82.56</ele><time>2025-05-24T15:40:15Z</time></trkpt>
<trkpt lat="50.593424" lon="4.261185"><ele>82.48</ele><time>2025-05-24T15:40:23Z</time></trkpt>
<trkpt lat="50.593365" lon="4.261592"><ele>83.64</ele><time>2025-05-24T15:40:32Z</time></trkpt>
<trkpt lat="50.593383" lon="4.262013"><ele>84.22</ele><time>2025-05-24T15:40:40Z</time></trkpt>
<trkpt lat="50.593601" lon="4.262666"><ele>85.18</ele><time>2025-05-24T15:40:49Z</time></trkpt>
<trkpt lat="50.593765" lon="4.263046"><ele>83.36</ele><time>2025-05-24T15:40:57Z</time></trkpt>
<trkpt lat="50.593796" lon="4.263267"><ele>80.36</ele><time>2025-05-24T15:41:05Z</time></trkpt>
<trkpt lat="50.593774" lon="4.263682"><ele>77.46</ele><time>2025-05-24T15:41:14Z</time></trkpt>
<trkpt lat="50.593787" lon="4.264523"><ele>76.73</ele><time>2025-05-24T15:41:22Z</time></trkpt>
<trkpt lat="50.593847" lon="4.264778"><ele>76.3</ele><time>2025-05-24T15:41:30Z</time></trkpt>
<trkpt lat="50.594047" lon="4.265213"><ele>76.13</ele><time>2025-05-24T15:41:39Z</time></trkpt>
<trkpt lat="50.594115" lon="4.265637"><ele>74.24</ele><time>2025-05-24T15:41:47Z</time></trkpt>
<trkpt lat="50.594196" lon="4.266909"><ele>73.99</ele><time>2025-05-24T15:41:56Z</time></trkpt>
<trkpt lat="50.594255" lon="4.267406"><ele>75.66</ele><time>2025-05-24T15:42:04Z</time></trkpt>
<trkpt lat="50.59445" lon="4.26796"><ele>78.33</ele><time>2025-05-24T15:42:12Z</time></trkpt>
<trkpt lat="50.594547" lon="4.268388"><ele>81.56</ele><time>2025-05-24T15:42:21Z</time></trkpt>
<trkpt lat="50.594635" lon="4.268514"><ele>82.33</ele><time>2025-05-24T15:42:29Z</time></trkpt>
<trkpt lat="50.594713" lon="4.26854"><ele>82.71</ele><time>2025-05-24T15:42:38Z</time></trkpt>
<trkpt lat="50.595319" lon="4.268413"><ele>90.49</ele><time>2025-05-24T15:42:46Z</time></trkpt>
<trkpt lat="50.595396" lon="4.268415"><ele>91.41</ele><time>2025-05-24T15:42:54Z</time></trkpt>
<trkpt lat="50.595502" lon="4.268492"><ele>92.88</ele><time>2025-05-24T15:43:03Z</time></trkpt>
<trkpt lat="50.595849" lon="4.267736"><ele>94.44</ele><time>2025-05-24T15:43:19Z</time></trkpt>
<trkpt lat="50.595908" lon="4.267566"><ele>95.51</ele><time>2025-05-24T15:43:36Z</time></trkpt>
<trkpt lat="50.595908" lon="4.267566"><ele>95.51</ele><time>2025-05-24T15:43:36Z</time></trkpt>
<trkpt lat="50.595849" lon="4.267736"><ele>94.44</ele><time>2025-05-24T15:43:52Z</time></trkpt>
<trkpt lat="50.595502" lon="4.268492"><ele>92.88</ele><time>2025-05-24T15:44:09Z</time></trkpt>
<trkpt lat="50.595396" lon="4.268415"><ele>91.41</ele><time>2025-05-24T15:44:17Z</time></trkpt>
<trkpt lat="50.595319" lon="4.268413"><ele>90.49</ele><time>2025-05-24T15:44:25Z</time></trkpt>
<trkpt lat="50.594713" lon="4.26854"><ele>82.71</ele><time>2025-05-24T15:44:33Z</time></trkpt>
<trkpt lat="50.594635" lon="4.268514"><ele>82.33</ele><time>2025-05-24T15:44:41Z</time></trkpt>
<trkpt lat="50.594547" lon="4.268388"><ele>81.56</ele><time>2025-05-24T15:44:49Z</time></trkpt>
<trkpt lat="50.59445" lon="4.26796"><ele>78.33</ele><time>2025-05-24T15:44:57Z</time></trkpt>
<trkpt lat="50.594255" lon="4.267406"><ele>75.66</ele><time>2025-05-24T15:45:05Z</time></trkpt>
<trkpt lat="50.594196" lon="4.266909"><ele>73.99</ele><time>2025-05-24T15:45:13Z</time></trkpt>
<trkpt lat="50.594115" lon="4.265637"><ele>74.24</ele><time>2025-05-24T15:45:21Z</time></trkpt>
<trkpt lat="50.594047" lon="4.265213"><ele>76.13</ele><time>2025-05-24T15:45:29Z</time></trkpt>
<trkpt lat="50.593847" lon="4.264778"><ele>76.3</ele><time>2025-05-24T15:45:37Z</time></trkpt>
<trkpt lat="50.593787" lon="4.264523"><ele>76.73</ele><time>2025-05-24T15:45:45Z</time></trkpt>
<trkpt lat="50.593774" lon="4.263682"><ele>77.46</ele><time>2025-05-24T15:45:53Z</time></trkpt>
<trkpt lat="50.593796" lon="4.263267"><ele>80.36</ele><time>2025-05-24T15:46:01Z</time></trkpt>
<trkpt lat="50.593765" lon="4.263046"><ele>83.36</ele><time>2025-05-24T15:46:09Z</time></trkpt>
<trkpt lat="50.593601" lon="4.262666"><ele>85.18</ele><time>2025-05-24T15:46:17Z</time></trkpt>
<trkpt lat="50.593383" lon="4.262013"><ele>84.22</ele><time>2025-05-24T15:46:25Z</time></trkpt>
<trkpt lat="50.593365" lon="4.261592"><ele>83.64</ele><time>2025-05-24T15:46:33Z</time></trkpt>
<trkpt lat="50.593424" lon="4.261185"><ele>82.48</ele><time>2025-05-24T15:46:41Z</time></trkpt>
<trkpt lat="50.593489" lon="4.260941"><ele>82.56</ele><time>2025-05-24T15:46:49Z</time></trkpt>
<trkpt lat="50.593585" lon="4.260673"><ele>82.29</ele><time>2025-05-24T15:46:57Z</time></trkpt>
<trkpt lat="50.593642" lon="4.260442"><ele>81.53</ele><time>2025-05-24T15:47:05Z</time></trkpt>
<trkpt lat="50.593968" lon="4.258353"><ele>79.38</ele><time>2025-05-24T15:47:13Z</time></trkpt>
<trkpt lat="50.593943" lon="4.25814"><ele>78.78</ele><time>2025-05-24T15:47:21Z</time></trkpt>
<trkpt lat="50.593696" lon="4.257497"><ele>78.44</ele><time>2025-05-24T15:47:29Z</time></trkpt>
<trkpt lat="50.593624" lon="4.257059"><ele>75.62</ele><time>2025-05-24T15:47:37Z</time></trkpt>
<trkpt lat="50.593598" lon="4.256715"><ele>74.54</ele><time>2025-05-24T15:47:45Z</time></trkpt>
<trkpt lat="50.593516" lon="4.256302"><ele>75.54</ele><time>2025-05-24T15:47:53Z</time></trkpt>
<trkpt lat="50.593713" lon="4.254087"><ele>79.36</ele><time>2025-05-24T15:48:01Z</time></trkpt>
<trkpt lat="50.593838" lon="4.253523"><ele>77.5</ele><time>2025-05-24T15:48:08Z</time></trkpt>
<trkpt lat="50.593918" lon="4.253244"><ele>76.53</ele><time>2025-05-24T15:48:16Z</time></trkpt>
<trkpt lat="50.593992" lon="4.253058"><ele>75.39</ele><time>2025-05-24T15:48:24Z</time></trkpt>
<trkpt lat="50.594095" lon="4.252926"><ele>74.93</ele><time>2025-05-24T15:48:32Z</time></trkpt>
<trkpt lat="50.59424" lon="4.252805"><ele>73.96</ele><time>2025-05-24T15:48:40Z</time></trkpt>
<trkpt lat="50.594361" lon="4.252737"><ele>72.86</ele><time>2025-05-24T15:48:48Z</time></trkpt>
<trkpt lat="50.595112" lon="4.252494"><ele>70.76</ele><time>2025-05-24T15:48:56Z</time></trkpt>
<trkpt lat="50.59503" lon="4.252438"><ele>69.77</ele><time>2025-05-24T15:49:01Z</time></trkpt>
<trkpt lat="50.594741" lon="4.252486"><ele>69.9</ele><time>2025-05-24T15:49:05Z</time></trkpt>
<trkpt lat="50.594626" lon="4.252459"><ele>69.71</ele><time>2025-05-24T15:49:09Z</time></trkpt>
<trkpt lat="50.594392" lon="4.252349"><ele>69.0</ele><time>2025-05-24T15:49:13Z</time></trkpt>
<trkpt lat="50.594265" lon="4.252331"><ele>69.03</ele><time>2025-05-24T15:49:17Z</time></trkpt>
<trkpt lat="50.594119" lon="4.252346"><ele>69.6</ele><time>2025-05-24T15:49:21Z</time></trkpt>
<trkpt lat="50.593732" lon="4.252453"><ele>71.19</ele><time>2025-05-24T15:49:25Z</time></trkpt>
<trkpt lat="50.593687" lon="4.252433"><ele>70.96</ele><time>2025-05-24T15:49:30Z</time></trkpt>
<trkpt lat="50.593671" lon="4.252378"><ele>70.68</ele><time>2025-05-24T15:49:34Z</time></trkpt>
<trkpt lat="50.593617" lon="4.252022"><ele>68.56</ele><time>2025-05-24T15:49:38Z</time></trkpt>
<trkpt lat="50.592257" lon="4.252494"><ele>72.98</ele><time>2025-05-24T15:49:42Z</time></trkpt>
<trkpt lat="50.592078" lon="4.252539"><ele>72.69</ele><time>2025-05-24T15:49:46Z</time></trkpt>
<trkpt lat="50.591848" lon="4.252548"><ele>72.69</ele><time>2025-05-24T15:49:50Z</time></trkpt>
<trkpt lat="50.591634" lon="4.25251"><ele>73.19</ele><time>2025-05-24T15:49:54Z</time></trkpt>
<trkpt lat="50.591125" lon="4.252344"><ele>73.41</ele><time>2025-05-24T15:49:59Z</time></trkpt>
<trkpt lat="50.589823" lon="4.252359"><ele>74.84</ele><time>2025-05-24T15:50:03Z</time></trkpt>
<trkpt lat="50.589259" lon="4.252248"><ele>73.88</ele><time>2025-05-24T15:50:07Z</time></trkpt>
<trkpt lat="50.589182" lon="4.252203"><ele>73.94</ele><time>2025-05-24T15:50:11Z</time></trkpt>
<trkpt lat="50.589049" lon="4.251909"><ele>73.57</ele><time>2025-05-24T15:50:15Z</time></trkpt>
<trkpt lat="50.588976" lon="4.251821"><ele>73.31</ele><time>2025-05-24T15:50:19Z</time></trkpt>
<trkpt lat="50.588908" lon="4.251772"><ele>73.07</ele><time>2025-05-24T15:50:23Z</time></trkpt>
<trkpt lat="50.588802" lon="4.251746"><ele>73.62</ele><time>2025-05-24T15:50:28Z</time></trkpt>
<trkpt lat="50.588705" lon="4.251754"><ele>74.32</ele><time>2025-05-24T15:50:32Z</time></trkpt>
<trkpt lat="50.588531" lon="4.25183"><ele>75.46</ele><time>2025-05-24T15:50:36Z</time></trkpt>
<trkpt lat="50.588467" lon="4.251794"><ele>75.76</ele><time>2025-05-24T15:50:40Z</time></trkpt>
<trkpt lat="50.588422" lon="4.251716"><ele>75.8</ele><time>2025-05-24T15:50:44Z</time></trkpt>
<trkpt lat="50.588387" lon="4.251603"><ele>75.58</ele><time>2025-05-24T15:50:48Z</time></trkpt>
<trkpt lat="50.5884" lon="4.25101"><ele>74.88</ele><time>2025-05-24T15:50:52Z</time></trkpt>
<trkpt lat="50.588349" lon="4.250066"><ele>80.46</ele><time>2025-05-24T15:50:57Z</time></trkpt>
<trkpt lat="50.588213" lon="4.248925"><ele>86.57</ele><time>2025-05-24T15:51:01Z</time></trkpt>
<trkpt lat="50.588155" lon="4.247935"><ele>89.79</ele><time>2025-05-24T15:51:05Z</time></trkpt>
<trkpt lat="50.588172" lon="4.24713"><ele>93.14</ele><time>2025-05-24T15:51:09Z</time></trkpt>
<trkpt lat="50.588244" lon="4.246409"><ele>94.61</ele><time>2025-05-24T15:51:13Z</time></trkpt>
<trkpt lat="50.588375" lon="4.245752"><ele>97.0</ele><time>2025-05-24T15:51:17Z</time></trkpt>
<trkpt lat="50.588477" lon="4.245395"><ele>97.58</ele><time>2025-05-24T15:51:21Z</time></trkpt>
<trkpt lat="50.588505" lon="4.245244"><ele>98.07</ele><time>2025-05-24T15:51:26Z</time></trkpt>
<trkpt lat="50.588326" lon="4.244059"><ele>101.36</ele><time>2025-05-24T15:51:30Z</time></trkpt>
<trkpt lat="50.588058" lon="4.242822"><ele>101.04</ele><time>2025-05-24T15:51:34Z</time></trkpt>
<trkpt lat="50.587624" lon="4.241218"><ele>104.44</ele><time>2025-05-24T15:51:38Z</time></trkpt>
<trkpt lat="50.587693" lon="4.241111"><ele>105.29</ele><time>2025-05-24T15:51:39Z</time></trkpt>
<trkpt lat="50.587693" lon="4.241111"><ele>105.29</ele><time>2025-05-24T15:51:39Z</time></trkpt>
<trkpt lat="50.587904" lon="4.240591"><ele>105.91</ele><time>2025-05-24T15:51:50Z</time></trkpt>
<trkpt lat="50.588031" lon="4.240236"><ele>107.83</ele><time>2025-05-24T15:52:01Z</time></trkpt>
<trkpt lat="50.588533" lon="4.238573"><ele>109.86</ele><time>2025-05-24T15:52:12Z</time></trkpt>
<trkpt lat="50.589127" lon="4.23569"><ele>97.63</ele><time>2025-05-24T15:52:23Z</time></trkpt>
<trkpt lat="50.589418" lon="4.234081"><ele>93.69</ele><time>2025-05-24T15:52:35Z</time></trkpt>
<trkpt lat="50.589795" lon="4.234599"><ele>94.0</ele><time>2025-05-24T15:52:39Z</time></trkpt>
<trkpt lat="50.589949" lon="4.234753"><ele>93.93</ele><time>2025-05-24T15:52:43Z</time></trkpt>
<trkpt lat="50.590496" lon="4.235064"><ele>92.44</ele><time>2025-05-24T15:52:47Z</time></trkpt>
<trkpt lat="50.590654" lon="4.235118"><ele>91.71</ele><time>2025-05-24T15:52:51Z</time></trkpt>
<trkpt lat="50.591327" lon="4.234995"><ele>89.26</ele><time>2025-05-24T15:52:55Z</time></trkpt>
<trkpt lat="50.591731" lon="4.234855"><ele>87.63</ele><time>2025-05-24T15:52:59Z</time></trkpt>
<trkpt lat="50.592203" lon="4.234776"><ele>88.18</ele><time>2025-05-24T15:53:03Z</time></trkpt>
<trkpt lat="50.593304" lon="4.23482"><ele>88.67</ele><time>2025-05-24T15:53:07Z</time></trkpt>
<trkpt lat="50.593397" lon="4.234799"><ele>88.32</ele><time>2025-05-24T15:53:11Z</time></trkpt>
<trkpt lat="50.593741" lon="4.234466"><ele>86.11</ele><time>2025-05-24T15:53:15Z</time></trkpt>
<trkpt lat="50.594619" lon="4.23389"><ele>87.63</ele><time>2025-05-24T15:53:19Z</time></trkpt>
<trkpt lat="50.594869" lon="4.233783"><ele>88.68</ele><time>2025-05-24T15:53:23Z</time></trkpt>
<trkpt lat="50.595062" lon="4.233748"><ele>89.71</ele><time>2025-05-24T15:53:27Z</time></trkpt>
<trkpt lat="50.596994" lon="4.233786"><ele>90.63</ele><time>2025-05-24T15:53:31Z</time></trkpt>
<trkpt lat="50.597276" lon="4.233766"><ele>90.56</ele><time>2025-05-24T15:53:35Z</time></trkpt>
<trkpt lat="50.597764" lon="4.233636"><ele>91.04</ele><time>2025-05-24T15:53:39Z</time></trkpt>
<trkpt lat="50.597901" lon="4.23362"><ele>91.47</ele><time>2025-05-24T15:53:43Z</time></trkpt>
<trkpt lat="50.598284" lon="4.233676"><ele>92.86</ele><time>2025-05-24T15:53:47Z</time></trkpt>
<trkpt lat="50.598972" lon="4.233834"><ele>90.2</ele><time>2025-05-24T15:53:51Z</time></trkpt>
<trkpt lat="50.5991" lon="4.233818"><ele>90.25</ele><time>2025-05-24T15:53:55Z</time></trkpt>
<trkpt lat="50.599154" lon="4.233794"><ele>90.34</ele><time>2025-05-24T15:53:59Z</time></trkpt>
<trkpt lat="50.599182" lon="4.233741"><ele>90.28</ele><time>2025-05-24T15:54:03Z</time></trkpt>
<trkpt lat="50.599191" lon="4.233612"><ele>90.64</ele><time>2025-05-24T15:54:07Z</time></trkpt>
<trkpt lat="50.598988" lon="4.232916"><ele>87.78</ele><time>2025-05-24T15:54:11Z</time></trkpt>
<trkpt lat="50.598978" lon="4.23277"><ele>86.94</ele><time>2025-05-24T15:54:15Z</time></trkpt>
<trkpt lat="50.599027" lon="4.232629"><ele>84.38</ele><time>2025-05-24T15:54:19Z</time></trkpt>
<trkpt lat="50.59906" lon="4.23259"><ele>83.14</ele><time>2025-05-24T15:54:23Z</time></trkpt>
<trkpt lat="50.599125" lon="4.23257"><ele>81.42</ele><time>2025-05-24T15:54:27Z</time></trkpt>
<trkpt lat="50.599217" lon="4.232596"><ele>80.22</ele><time>2025-05-24T15:54:31Z</time></trkpt>
<trkpt lat="50.599305" lon="4.232673"><ele>80.56</ele><time>2025-05-24T15:54:35Z</time></trkpt>
<trkpt lat="50.600011" lon="4.233488"><ele>66.44</ele><time>2025-05-24T15:54:39Z</time></trkpt>
<trkpt lat="50.600086" lon="4.233543"><ele>65.83</ele><time>2025-05-24T15:54:43Z</time></trkpt>
<trkpt lat="50.600465" lon="4.233617"><ele>63.33</ele><time>2025-05-24T15:54:47Z</time></trkpt>
<trkpt lat="50.60068" lon="4.233636"><ele>62.96</ele><time>2025-05-24T15:54:51Z</time></trkpt>
<trkpt lat="50.600762" lon="4.233561"><ele>63.0</ele><time>2025-05-24T15:54:55Z</time></trkpt>
<trkpt lat="50.600785" lon="4.23346"><ele>63.0</ele><time>2025-05-24T15:54:59Z</time></trkpt>
<trkpt lat="50.600866" lon="4.232716"><ele>63.21</ele><time>2025-05-24T15:55:03Z</time></trkpt>
<trkpt lat="50.600894" lon="4.232119"><ele>62.85</ele><time>2025-05-24T15:55:07Z</time></trkpt>
<trkpt lat="50.600931" lon="4.232017"><ele>62.61</ele><time>2025-05-24T15:55:11Z</time></trkpt>
<trkpt lat="50.600968" lon="4.231988"><ele>62.64</ele><time>2025-05-24T15:55:15Z</time></trkpt>
<trkpt lat="50.601028" lon="4.23199"><ele>62.86</ele><time>2025-05-24T15:55:20Z</time></trkpt>
<trkpt lat="50.601325" lon="4.232062"><ele>64.96</ele><time>2025-05-24T15:55:24Z</time></trkpt>
<trkpt lat="50.601379" lon="4.232107"><ele>65.51</ele><time>2025-05-24T15:55:28Z</time></trkpt>
<trkpt lat="50.601423" lon="4.232186"><ele>66.01</ele><time>2025-05-24T15:55:32Z</time></trkpt>
<trkpt lat="50.601447" lon="4.232294"><ele>66.41</ele><time>2025-05-24T15:55:36Z</time></trkpt>
<trkpt lat="50.601204" lon="4.234764"><ele>60.72</ele><time>2025-05-24T15:55:40Z</time></trkpt>
<trkpt lat="50.601269" lon="4.23483"><ele>61.08</ele><time>2025-05-24T15:55:46Z</time></trkpt>
<trkpt lat="50.601321" lon="4.23485"><ele>61.28</ele><time>2025-05-24T15:55:52Z</time></trkpt>
<trkpt lat="50.601898" lon="4.234899"><ele>62.42</ele><time>2025-05-24T15:55:58Z</time></trkpt>
<trkpt lat="50.601981" lon="4.234835"><ele>62.6</ele><time>2025-05-24T15:56:04Z</time></trkpt>
<trkpt lat="50.602228" lon="4.234163"><ele>64.02</ele><time>2025-05-24T15:56:10Z</time></trkpt>
<trkpt lat="50.602457" lon="4.233857"><ele>65.9</ele><time>2025-05-24T15:56:16Z</time></trkpt>
<trkpt lat="50.602772" lon="4.233497"><ele>73.13</ele><time>2025-05-24T15:56:22Z</time></trkpt>
<trkpt lat="50.603367" lon="4.232629"><ele>83.13</ele><time>2025-05-24T15:56:28Z</time></trkpt>
<trkpt lat="50.60349" lon="4.232432"><ele>84.24</ele><time>2025-05-24T15:56:34Z</time></trkpt>
<trkpt lat="50.60382" lon="4.231663"><ele>85.5</ele><time>2025-05-24T15:56:40Z</time></trkpt>
<trkpt lat="50.604016" lon="4.231394"><ele>85.93</ele><time>2025-05-24T15:56:46Z</time></trkpt>
<trkpt lat="50.6044" lon="4.231061"><ele>85.8</ele><time>2025-05-24T15:56:52Z</time></trkpt>
<trkpt lat="50.605123" lon="4.230565"><ele>76.27</ele><time>2025-05-24T15:56:58Z</time></trkpt>
<trkpt lat="50.605518" lon="4.230136"><ele>69.69</ele><time>2025-05-24T15:57:04Z</time></trkpt>
<trkpt lat="50.606227" lon="4.229746"><ele>66.12</ele><time>2025-05-24T15:57:10Z</time></trkpt>
<trkpt lat="50.606221" lon="4.229694"><ele>65.04</ele><time>2025-05-24T15:57:11Z</time></trkpt>
<trkpt lat="50.606221" lon="4.229694"><ele>65.04</ele><time>2025-05-24T15:57:11Z</time></trkpt>
<trkpt lat="50.606161" lon="4.229109"><ele>63.96</ele><time>2025-05-24T15:57:16Z</time></trkpt>
<trkpt lat="50.606199" lon="4.228659"><ele>62.85</ele><time>2025-05-24T15:57:22Z</time></trkpt>
<trkpt lat="50.606338" lon="4.228045"><ele>62.18</ele><time>2025-05-24T15:57:28Z</time></trkpt>
<trkpt lat="50.606821" lon="4.226103"><ele>57.97</ele><time>2025-05-24T15:57:34Z</time></trkpt>
<trkpt lat="50.607069" lon="4.22514"><ele>57.07</ele><time>2025-05-24T15:57:40Z</time></trkpt>
<trkpt lat="50.607098" lon="4.22495"><ele>56.93</ele><time>2025-05-24T15:57:46Z</time></trkpt>
<trkpt lat="50.607276" lon="4.223136"><ele>56.23</ele><time>2025-05-24T15:57:52Z</time></trkpt>
<trkpt lat="50.607335" lon="4.222373"><ele>59.0</ele><time>2025-05-24T15:57:57Z</time></trkpt>
<trkpt lat="50.607361" lon="4.222229"><ele>59.0</ele><time>2025-05-24T15:58:03Z</time></trkpt>
<trkpt lat="50.60742" lon="4.222064"><ele>59.16</ele><time>2025-05-24T15:58:09Z</time></trkpt>
<trkpt lat="50.607769" lon="4.221401"><ele>57.99</ele><time>2025-05-24T15:58:15Z</time></trkpt>
<trkpt lat="50.608025" lon="4.220572"><ele>59.1</ele><time>2025-05-24T15:58:21Z</time></trkpt>
<trkpt lat="50.607887" lon="4.220052"><ele>60.32</ele><time>2025-05-24T15:58:25Z</time></trkpt>
<trkpt lat="50.6079" lon="4.219908"><ele>60.59</ele><time>2025-05-24T15:58:30Z</time></trkpt>
<trkpt lat="50.607973" lon="4.219741"><ele>61.36</ele><time>2025-05-24T15:58:34Z</time></trkpt>
<trkpt lat="50.60846" lon="4.219"><ele>65.19</ele><time>2025-05-24T15:58:38Z</time></trkpt>
<trkpt lat="50.60851" lon="4.218743"><ele>68.0</ele><time>2025-05-24T15:58:43Z</time></trkpt>
<trkpt lat="50.608721" lon="4.217031"><ele>80.81</ele><time>2025-05-24T15:58:47Z</time></trkpt>
<trkpt lat="50.608781" lon="4.216159"><ele>82.5</ele><time>2025-05-24T15:58:51Z</time></trkpt>
<trkpt lat="50.608757" lon="4.215029"><ele>85.94</ele><time>2025-05-24T15:58:56Z</time></trkpt>
<trkpt lat="50.60879" lon="4.21404"><ele>89.46</ele><time>2025-05-24T15:59:00Z</time></trkpt>
<trkpt lat="50.608787" lon="4.213258"><ele>93.18</ele><time>2025-05-24T15:59:04Z</time></trkpt>
<trkpt lat="50.608694" lon="4.211757"><ele>97.2</ele><time>2025-05-24T15:59:09Z</time></trkpt>
<trkpt lat="50.608681" lon="4.211615"><ele>97.39</ele><time>2025-05-24T15:59:13Z</time></trkpt>
<trkpt lat="50.608645" lon="4.211514"><ele>97.6</ele><time>2025-05-24T15:59:18Z</time></trkpt>
<trkpt lat="50.60868" lon="4.211372"><ele>97.84</ele><time>2025-05-24T15:59:33Z</time></trkpt>
<trkpt lat="50.60868" lon="4.211372"><ele>97.84</ele><time>2025-05-24T15:59:33Z</time></trkpt>
<trkpt lat="50.608645" lon="4.211514"><ele>97.6</ele><time>2025-05-24T15:59:34Z</time></trkpt>
<trkpt lat="50.608584" lon="4.211433"><ele>97.83</ele><time>2025-05-24T15:59:36Z</time></trkpt>
<trkpt lat="50.608508" lon="4.211382"><ele>98.02</ele><time>2025-05-24T15:59:39Z</time></trkpt>
<trkpt lat="50.607898" lon="4.211088"><ele>100.08</ele><time>2025-05-24T15:59:41Z</time></trkpt>
<trkpt lat="50.607796" lon="4.211003"><ele>100.39</ele><time>2025-05-24T15:59:44Z</time></trkpt>
<trkpt lat="50.607748" lon="4.210922"><ele>100.58</ele><time>2025-05-24T15:59:46Z</time></trkpt>
<trkpt lat="50.607689" lon="4.2107"><ele>100.68</ele><time>2025-05-24T15:59:49Z</time></trkpt>
<trkpt lat="50.607557" lon="4.209334"><ele>102.79</ele><time>2025-05-24T15:59:51Z</time></trkpt>
<trkpt lat="50.607473" lon="4.208212"><ele>104.53</ele><time>2025-05-24T15:59:54Z</time></trkpt>
<trkpt lat="50.607412" lon="4.207919"><ele>105.47</ele><time>2025-05-24T15:59:56Z</time></trkpt>
<trkpt lat="50.607308" lon="4.207677"><ele>106.74</ele><time>2025-05-24T15:59:59Z</time></trkpt>
<trkpt lat="50.607032" lon="4.207274"><ele>110.87</ele><time>2025-05-24T16:00:02Z</time></trkpt>
<trkpt lat="50.606892" lon="4.206995"><ele>113.17</ele><time>2025-05-24T16:00:04Z</time></trkpt>
<trkpt lat="50.606811" lon="4.206764"><ele>114.27</ele><time>2025-05-24T16:00:07Z</time></trkpt>
<trkpt lat="50.606554" lon="4.205851"><ele>114.88</ele><time>2025-05-24T16:00:09Z</time></trkpt>
<trkpt lat="50.606337" lon="4.205282"><ele>115.76</ele><time>2025-05-24T16:00:12Z</time></trkpt>
<trkpt lat="50.605756" lon="4.204038"><ele>115.56</ele><time>2025-05-24T16:00:14Z</time></trkpt>
<trkpt lat="50.605455" lon="4.203331"><ele>115.07</ele><time>2025-05-24T16:00:17Z</time></trkpt>
<trkpt lat="50.60514" lon="4.20239"><ele>114.09</ele><time>2025-05-24T16:00:19Z</time></trkpt>
<trkpt lat="50.605039" lon="4.202152"><ele>114.32</ele><time>2025-05-24T16:00:22Z</time></trkpt>
<trkpt lat="50.604707" lon="4.201506"><ele>110.82</ele><time>2025-05-24T16:00:24Z</time></trkpt>
<trkpt lat="50.60426" lon="4.200693"><ele>108.17</ele><time>2025-05-24T16:00:27Z</time></trkpt>
<trkpt lat="50.603631" lon="4.199403"><ele>105.99</ele><time>2025-05-24T16:00:29Z</time></trkpt>
<trkpt lat="50.603282" lon="4.19879"><ele>107.72</ele><time>2025-05-24T16:00:32Z</time></trkpt>
<trkpt lat="50.603011" lon="4.19835"><ele>110.79</ele><time>2025-05-24T16:00:34Z</time></trkpt>
<trkpt lat="50.60293" lon="4.198155"><ele>110.49</ele><time>2025-05-24T16:00:37Z</time></trkpt>
<trkpt lat="50.602893" lon="4.197986"><ele>110.73</ele><time>2025-05-24T16:00:40Z</time></trkpt>
<trkpt lat="50.602825" lon="4.1973"><ele>112.49</ele><time>2025-05-24T16:00:42Z</time></trkpt>
<trkpt lat="50.60278" lon="4.196982"><ele>114.71</ele><time>2025-05-24T16:00:45Z</time></trkpt>
<trkpt lat="50.602708" lon="4.196621"><ele>116.42</ele><time>2025-05-24T16:00:47Z</time></trkpt>
<trkpt lat="50.602566" lon="4.196047"><ele>117.71</ele><time>2025-05-24T16:00:50Z</time></trkpt>
<trkpt lat="50.602386" lon="4.195574"><ele>118.0</ele><time>2025-05-24T16:00:52Z</time></trkpt>
<trkpt lat="50.600841" lon="4.192815"><ele>114.13</ele><time>2025-05-24T16:00:55Z</time></trkpt>
<trkpt lat="50.600665" lon="4.192535"><ele>114.26</ele><time>2025-05-24T16:00:57Z</time></trkpt>
<trkpt lat="50.60041" lon="4.192188"><ele>117.34</ele><time>2025-05-24T16:01:00Z</time></trkpt>
<trkpt lat="50.600152" lon="4.191925"><ele>121.97</ele><time>2025-05-24T16:01:02Z</time></trkpt>
<trkpt lat="50.599436" lon="4.191281"><ele>125.82</ele><time>2025-05-24T16:01:05Z</time></trkpt>
<trkpt lat="50.599198" lon="4.19101"><ele>129.5</ele><time>2025-05-24T16:01:07Z</time></trkpt>
<trkpt lat="50.598974" lon="4.190665"><ele>132.99</ele><time>2025-05-24T16:01:10Z</time></trkpt>
<trkpt lat="50.598833" lon="4.190304"><ele>136.21</ele><time>2025-05-24T16:01:12Z</time></trkpt>
<trkpt lat="50.598768" lon="4.18999"><ele>137.85</ele><time>2025-05-24T16:01:15Z</time></trkpt>
<trkpt lat="50.598757" lon="4.189863"><ele>137.71</ele><time>2025-05-24T16:01:18Z</time></trkpt>
<trkpt lat="50.598745" lon="4.189471"><ele>137.52</ele><time>2025-05-24T16:01:20Z</time></trkpt>
<trkpt lat="50.598763" lon="4.18913"><ele>136.39</ele><time>2025-05-24T16:01:23Z</time></trkpt>
<trkpt lat="50.598825" lon="4.188927"><ele>136.03</ele><time>2025-05-24T16:01:25Z</time></trkpt>
<trkpt lat="50.598876" lon="4.188855"><ele>135.99</ele><time>2025-05-24T16:01:28Z</time></trkpt>
<trkpt lat="50.599205" lon="4.188791"><ele>136.0</ele><time>2025-05-24T16:01:30Z</time></trkpt>
<trkpt lat="50.59936" lon="4.188644"><ele>136.0</ele><time>2025-05-24T16:01:33Z</time></trkpt>
<trkpt lat="50.599748" lon="4.188169"><ele>135.59</ele><time>2025-05-24T16:01:35Z</time></trkpt>
<trkpt lat="50.599978" lon="4.187859"><ele>136.0</ele><time>2025-05-24T16:01:38Z</time></trkpt>
<trkpt lat="50.60036" lon="4.187223"><ele>138.29</ele><time>2025-05-24T16:01:40Z</time></trkpt>
<trkpt lat="50.600428" lon="4.187044"><ele>138.49</ele><time>2025-05-24T16:01:43Z</time></trkpt>
<trkpt lat="50.600441" lon="4.186835"><ele>138.18</ele><time>2025-05-24T16:01:45Z</time></trkpt>
<trkpt lat="50.600413" lon="4.18668"><ele>138.05</ele><time>2025-05-24T16:01:48Z</time></trkpt>
<trkpt lat="50.60017" lon="4.185997"><ele>139.03</ele><time>2025-05-24T16:01:50Z</time></trkpt>
<trkpt lat="50.600117" lon="4.185809"><ele>139.58</ele><time>2025-05-24T16:01:53Z</time></trkpt>
<trkpt lat="50.600101" lon="4.185677"><ele>139.63</ele><time>2025-05-24T16:01:56Z</time></trkpt>
<trkpt lat="50.600113" lon="4.185605"><ele>139.59</ele><time>2025-05-24T16:01:58Z</time></trkpt>
<trkpt lat="50.600182" lon="4.185456"><ele>138.99</ele><time>2025-05-24T16:02:01Z</time></trkpt>
<trkpt lat="50.600414" lon="4.185278"><ele>138.0</ele><time>2025-05-24T16:02:03Z</time></trkpt>
<trkpt lat="50.600659" lon="4.185048"><ele>137.63</ele><time>2025-05-24T16:02:06Z</time></trkpt>
<trkpt lat="50.601248" lon="4.184398"><ele>138.66</ele><time>2025-05-24T16:02:08Z</time></trkpt>
<trkpt lat="50.601568" lon="4.183992"><ele>141.28</ele><time>2025-05-24T16:02:11Z</time></trkpt>
<trkpt lat="50.601517" lon="4.183835"><ele>141.65</ele><time>2025-05-24T16:02:17Z</time></trkpt>
<trkpt lat="50.60149" lon="4.183617"><ele>142.34</ele><time>2025-05-24T16:02:23Z</time></trkpt>
<trkpt lat="50.601435" lon="4.183094"><ele>144.87</ele><time>2025-05-24T16:02:28Z</time></trkpt>
<trkpt lat="50.601423" lon="4.182685"><ele>146.62</ele><time>2025-05-24T16:02:34Z</time></trkpt>
<trkpt lat="50.60132" lon="4.182204"><ele>147.7</ele><time>2025-05-24T16:02:40Z</time></trkpt>
<trkpt lat="50.601207" lon="4.181827"><ele>150.53</ele><time>2025-05-24T16:02:46Z</time></trkpt>
<trkpt lat="50.600966" lon="4.18113"><ele>151.28</ele><time>2025-05-24T16:02:52Z</time></trkpt>
<trkpt lat="50.600317" lon="4.179619"><ele>155.1</ele><time>2025-05-24T16:02:58Z</time></trkpt>
<trkpt lat="50.599094" lon="4.177192"><ele>158.65</ele><time>2025-05-24T16:03:04Z</time></trkpt>
<trkpt lat="50.598373" lon="4.175583"><ele>161.13</ele><time>2025-05-24T16:03:10Z</time></trkpt>
<trkpt lat="50.598039" lon="4.174745"><ele>162.6</ele><time>2025-05-24T16:03:16Z</time></trkpt>
<trkpt lat="50.597865" lon="4.174202"><ele>164.0</ele><time>2025-05-24T16:03:21Z</time></trkpt>
<trkpt lat="50.597698" lon="4.173474"><ele>166.7</ele><time>2025-05-24T16:03:27Z</time></trkpt>
<trkpt lat="50.597588" lon="4.173083"><ele>167.71</ele><time>2025-05-24T16:03:33Z</time></trkpt>
<trkpt lat="50.597436" lon="4.172747"><ele>167.73</ele><time>2025-05-24T16:03:39Z</time></trkpt>
<trkpt lat="50.596519" lon="4.171462"><ele>157.91</ele><time>2025-05-24T16:03:45Z</time></trkpt>
<trkpt lat="50.596422" lon="4.171353"><ele>156.38</ele><time>2025-05-24T16:03:51Z</time></trkpt>
<trkpt lat="50.596301" lon="4.17129"><ele>155.33</ele><time>2025-05-24T16:03:57Z</time></trkpt>
<trkpt lat="50.59601" lon="4.171237"><ele>153.2</ele><time>2025-05-24T16:04:03Z</time></trkpt>
<trkpt lat="50.595909" lon="4.17126"><ele>151.96</ele><time>2025-05-24T16:04:09Z</time></trkpt>
<trkpt lat="50.595818" lon="4.171323"><ele>150.73</ele><time>2025-05-24T16:04:14Z</time></trkpt>
<trkpt lat="50.595635" lon="4.171294"><ele>147.42</ele><time>2025-05-24T16:04:20Z</time></trkpt>
<trkpt lat="50.59552" lon="4.171205"><ele>145.87</ele><time>2025-05-24T16:04:26Z</time></trkpt>
<trkpt lat="50.595009" lon="4.17064"><ele>144.94</ele><time>2025-05-24T16:04:32Z</time></trkpt>
<trkpt lat="50.594024" lon="4.16928"><ele>148.33</ele><time>2025-05-24T16:04:38Z</time></trkpt>
<trkpt lat="50.59395" lon="4.169225"><ele>149.17</ele><time>2025-05-24T16:04:44Z</time></trkpt>
<trkpt lat="50.593251" lon="4.168896"><ele>149.37</ele><time>2025-05-24T16:04:50Z</time></trkpt>
<trkpt lat="50.592839" lon="4.168652"><ele>148.97</ele><time>2025-05-24T16:04:56Z</time></trkpt>
<trkpt lat="50.592117" lon="4.168367"><ele>144.79</ele><time>2025-05-24T16:05:02Z</time></trkpt>
<trkpt lat="50.591394" lon="4.168028"><ele>147.1</ele><time>2025-05-24T16:05:07Z</time></trkpt>
<trkpt lat="50.591234" lon="4.167936"><ele>147.99</ele><time>2025-05-24T16:05:13Z</time></trkpt>
<trkpt lat="50.591129" lon="4.167845"><ele>148.69</ele><time>2025-05-24T16:05:19Z</time></trkpt>
<trkpt lat="50.590615" lon="4.167335"><ele>146.92</ele><time>2025-05-24T16:05:25Z</time></trkpt>
<trkpt lat="50.589977" lon="4.166116"><ele>148.61</ele><time>2025-05-24T16:05:31Z</time></trkpt>
<trkpt lat="50.589397" lon="4.165535"><ele>146.87</ele><time>2025-05-24T16:05:37Z</time></trkpt>
<trkpt lat="50.58929" lon="4.165453"><ele>146.99</ele><time>2025-05-24T16:05:43Z</time></trkpt>
<trkpt lat="50.58861" lon="4.1652"><ele>143.09</ele><time>2025-05-24T16:05:49Z</time></trkpt>
<trkpt lat="50.588494" lon="4.165115"><ele>141.4</ele><time>2025-05-24T16:05:55Z</time></trkpt>
<trkpt lat="50.587961" lon="4.164575"><ele>131.95</ele><time>2025-05-24T16:06:01Z</time></trkpt>
<trkpt lat="50.587902" lon="4.164474"><ele>130.68</ele><time>2025-05-24T16:06:06Z</time></trkpt>
<trkpt lat="50.587633" lon="4.163863"><ele>124.86</ele><time>2025-05-24T16:06:12Z</time></trkpt>
<trkpt lat="50.587552" lon="4.163723"><ele>123.78</ele><time>2025-05-24T16:06:18Z</time></trkpt>
<trkpt lat="50.587638" lon="4.163657"><ele>124.15</ele><time>2025-05-24T16:06:19Z</time></trkpt>
<trkpt lat="50.587638" lon="4.163657"><ele>124.15</ele><time>2025-05-24T16:06:19Z</time></trkpt>
<trkpt lat="50.587682" lon="4.163569"><ele>124.21</ele><time>2025-05-24T16:06:22Z</time></trkpt>
<trkpt lat="50.587893" lon="4.162902"><ele>123.83</ele><time>2025-05-24T16:06:25Z</time></trkpt>
<trkpt lat="50.588264" lon="4.161831"><ele>123.69</ele><time>2025-05-24T16:06:28Z</time></trkpt>
<trkpt lat="50.588355" lon="4.161601"><ele>122.45</ele><time>2025-05-24T16:06:31Z</time></trkpt>
<trkpt lat="50.588632" lon="4.16101"><ele>117.66</ele><time>2025-05-24T16:06:34Z</time></trkpt>
<trkpt lat="50.588917" lon="4.1606"><ele>118.1</ele><time>2025-05-24T16:06:37Z</time></trkpt>
<trkpt lat="50.58927" lon="4.160174"><ele>118.6</ele><time>2025-05-24T16:06:40Z</time></trkpt>
<trkpt lat="50.589906" lon="4.159473"><ele>118.0</ele><time>2025-05-24T16:06:43Z</time></trkpt>
<trkpt lat="50.590071" lon="4.159383"><ele>117.58</ele><time>2025-05-24T16:06:46Z</time></trkpt>
<trkpt lat="50.590148" lon="4.159405"><ele>117.4</ele><time>2025-05-24T16:06:49Z</time></trkpt>
<trkpt lat="50.590297" lon="4.159568"><ele>117.03</ele><time>2025-05-24T16:06:52Z</time></trkpt>
<trkpt lat="50.590571" lon="4.160057"><ele>119.45</ele><time>2025-05-24T16:06:55Z</time></trkpt>
<trkpt lat="50.590629" lon="4.160121"><ele>120.02</ele><time>2025-05-24T16:06:58Z</time></trkpt>
<trkpt lat="50.590701" lon="4.160153"><ele>120.33</ele><time>2025-05-24T16:07:01Z</time></trkpt>
<trkpt lat="50.592005" lon="4.159978"><ele>120.92</ele><time>2025-05-24T16:07:04Z</time></trkpt>
<trkpt lat="50.592957" lon="4.159931"><ele>118.84</ele><time>2025-05-24T16:07:07Z</time></trkpt>
<trkpt lat="50.593235" lon="4.159873"><ele>116.6</ele><time>2025-05-24T16:07:10Z</time></trkpt>
<trkpt lat="50.593723" lon="4.159747"><ele>111.56</ele><time>2025-05-24T16:07:13Z</time></trkpt>
<trkpt lat="50.594351" lon="4.159353"><ele>109.24</ele><time>2025-05-24T16:07:16Z</time></trkpt>
<trkpt lat="50.594523" lon="4.159213"><ele>108.12</ele><time>2025-05-24T16:07:19Z</time></trkpt>
<trkpt lat="50.594866" lon="4.158871"><ele>107.9</ele><time>2025-05-24T16:07:22Z</time></trkpt>
<trkpt lat="50.595441" lon="4.158174"><ele>103.42</ele><time>2025-05-24T16:07:25Z</time></trkpt>
<trkpt lat="50.596339" lon="4.156915"><ele>101.0</ele><time>2025-05-24T16:07:28Z</time></trkpt>
<trkpt lat="50.596893" lon="4.156083"><ele>100.82</ele><time>2025-05-24T16:07:31Z</time></trkpt>
<trkpt lat="50.597231" lon="4.155403"><ele>96.5</ele><time>2025-05-24T16:07:34Z</time></trkpt>
<trkpt lat="50.597444" lon="4.154781"><ele>96.81</ele><time>2025-05-24T16:07:37Z</time></trkpt>
<trkpt lat="50.59758" lon="4.154466"><ele>96.08</ele><time>2025-05-24T16:07:40Z</time></trkpt>
<trkpt lat="50.598202" lon="4.15329"><ele>91.97</ele><time>2025-05-24T16:07:43Z</time></trkpt>
<trkpt lat="50.598435" lon="4.152973"><ele>92.0</ele><time>2025-05-24T16:07:47Z</time></trkpt>
<trkpt lat="50.598581" lon="4.152815"><ele>92.0</ele><time>2025-05-24T16:07:50Z</time></trkpt>
<trkpt lat="50.598664" lon="4.152683"><ele>92.34</ele><time>2025-05-24T16:07:53Z</time></trkpt>
<trkpt lat="50.59871" lon="4.152457"><ele>93.06</ele><time>2025-05-24T16:07:56Z</time></trkpt>
<trkpt lat="50.598713" lon="4.152025"><ele>94.53</ele><time>2025-05-24T16:07:59Z</time></trkpt>
<trkpt lat="50.598671" lon="4.151794"><ele>95.54</ele><time>2025-05-24T16:08:02Z</time></trkpt>
<trkpt lat="50.598618" lon="4.151633"><ele>96.12</ele><time>2025-05-24T16:08:05Z</time></trkpt>
<trkpt lat="50.598273" lon="4.151149"><ele>98.29</ele><time>2025-05-24T16:08:08Z</time></trkpt>
<trkpt lat="50.598022" lon="4.150833"><ele>99.0</ele><time>2025-05-24T16:08:11Z</time></trkpt>
<trkpt lat="50.597852" lon="4.150538"><ele>99.06</ele><time>2025-05-24T16:08:14Z</time></trkpt>
<trkpt lat="50.597814" lon="4.150345"><ele>99.76</ele><time>2025-05-24T16:08:17Z</time></trkpt>
<trkpt lat="50.597992" lon="4.150092"><ele>100.51</ele><time>2025-05-24T16:08:24Z</time></trkpt>
<trkpt lat="50.599174" lon="4.148628"><ele>95.01</ele><time>2025-05-24T16:08:31Z</time></trkpt>
<trkpt lat="50.599658" lon="4.148332"><ele>92.78</ele><time>2025-05-24T16:08:38Z</time></trkpt>
<trkpt lat="50.600195" lon="4.147858"><ele>95.3</ele><time>2025-05-24T16:08:45Z</time></trkpt>
<trkpt lat="50.600332" lon="4.147704"><ele>94.95</ele><time>2025-05-24T16:08:53Z</time></trkpt>
<trkpt lat="50.600697" lon="4.146987"><ele>93.66</ele><time>2025-05-24T16:09:00Z</time></trkpt>
<trkpt lat="50.600786" lon="4.146841"><ele>93.52</ele><time>2025-05-24T16:09:07Z</time></trkpt>
<trkpt lat="50.60147" lon="4.146271"><ele>91.11</ele><time>2025-05-24T16:09:14Z</time></trkpt>
<trkpt lat="50.602531" lon="4.14507"><ele>87.03</ele><time>2025-05-24T16:09:21Z</time></trkpt>
<trkpt lat="50.602774" lon="4.144836"><ele>87.0</ele><time>2025-05-24T16:09:28Z</time></trkpt>
<trkpt lat="50.602771" lon="4.144827"><ele>87.11</ele><time>2025-05-24T16:09:29Z</time></trkpt>
<trkpt lat="50.602771" lon="4.144827"><ele>87.11</ele><time>2025-05-24T16:09:29Z</time></trkpt>
<trkpt lat="50.602774" lon="4.144836"><ele>87.0</ele><time>2025-05-24T16:09:29Z</time></trkpt>
<trkpt lat="50.602531" lon="4.14507"><ele>87.03</ele><time>2025-05-24T16:09:36Z</time></trkpt>
<trkpt lat="50.60147" lon="4.146271"><ele>91.11</ele><time>2025-05-24T16:09:43Z</time></trkpt>
<trkpt lat="50.600786" lon="4.146841"><ele>93.52</ele><time>2025-05-24T16:09:50Z</time></trkpt>
<trkpt lat="50.600697" lon="4.146987"><ele>93.66</ele><time>2025-05-24T16:09:57Z</time></trkpt>
<trkpt lat="50.600332" lon="4.147704"><ele>94.95</ele><time>2025-05-24T16:10:05Z</time></trkpt>
<trkpt lat="50.600195" lon="4.147858"><ele>95.3</ele><time>2025-05-24T16:10:12Z</time></trkpt>
<trkpt lat="50.599658" lon="4.148332"><ele>92.78</ele><time>2025-05-24T16:10:19Z</time></trkpt>
<trkpt lat="50.599174" lon="4.148628"><ele>95.01</ele><time>2025-05-24T16:10:26Z</time></trkpt>
<trkpt lat="50.597992" lon="4.150092"><ele>100.51</ele><time>2025-05-24T16:10:33Z</time></trkpt>
<trkpt lat="50.597814" lon="4.150345"><ele>99.76</ele><time>2025-05-24T16:10:40Z</time></trkpt>
<trkpt lat="50.597852" lon="4.150538"><ele>99.06</ele><time>2025-05-24T16:10:43Z</time></trkpt>
<trkpt lat="50.598022" lon="4.150833"><ele>99.0</ele><time>2025-05-24T16:10:46Z</time></trkpt>
<trkpt lat="50.598273" lon="4.151149"><ele>98.29</ele><time>2025-05-24T16:10:49Z</time></trkpt>
<trkpt lat="50.598618" lon="4.151633"><ele>96.12</ele><time>2025-05-24T16:10:52Z</time></trkpt>
<trkpt lat="50.598671" lon="4.151794"><ele>95.54</ele><time>2025-05-24T16:10:55Z</time></trkpt>
<trkpt lat="50.598713" lon="4.152025"><ele>94.53</ele><time>2025-05-24T16:10:58Z</time></trkpt>
<trkpt lat="50.59871" lon="4.152457"><ele>93.06</ele><time>2025-05-24T16:11:01Z</time></trkpt>
<trkpt lat="50.598664" lon="4.152683"><ele>92.34</ele><time>2025-05-24T16:11:04Z</time></trkpt>
<trkpt lat="50.598581" lon="4.152815"><ele>92.0</ele><time>2025-05-24T16:11:07Z</time></trkpt>
<trkpt lat="50.598435" lon="4.152973"><ele>92.0</ele><time>2025-05-24T16:11:10Z</time></trkpt>
<trkpt lat="50.598202" lon="4.15329"><ele>91.97</ele><time>2025-05-24T16:11:13Z</time></trkpt>
<trkpt lat="50.59758" lon="4.154466"><ele>96.08</ele><time>2025-05-24T16:11:16Z</time></trkpt>
<trkpt lat="50.597444" lon="4.154781"><ele>96.81</ele><time>2025-05-24T16:11:19Z</time></trkpt>
<trkpt lat="50.597231" lon="4.155403"><ele>96.5</ele><time>2025-05-24T16:11:22Z</time></trkpt>
<trkpt lat="50.596893" lon="4.156083"><ele>100.82</ele><time>2025-05-24T16:11:25Z</time></trkpt>
<trkpt lat="50.596339" lon="4.156915"><ele>101.0</ele><time>2025-05-24T16:11:28Z</time></trkpt>
<trkpt lat="50.595441" lon="4.158174"><ele>103.42</ele><time>2025-05-24T16:11:31Z</time></trkpt>
<trkpt lat="50.594866" lon="4.158871"><ele>107.9</ele><time>2025-05-24T16:11:34Z</time></trkpt>
<trkpt lat="50.594523" lon="4.159213"><ele>108.12</ele><time>2025-05-24T16:11:37Z</time></trkpt>
<trkpt lat="50.594351" lon="4.159353"><ele>109.24</ele><time>2025-05-24T16:11:40Z</time></trkpt>
<trkpt lat="50.593723" lon="4.159747"><ele>111.56</ele><time>2025-05-24T16:11:43Z</time></trkpt>
<trkpt lat="50.593235" lon="4.159873"><ele>116.6</ele><time>2025-05-24T16:11:46Z</time></trkpt>
<trkpt lat="50.592957" lon="4.159931"><ele>118.84</ele><time>2025-05-24T16:11:49Z</time></trkpt>
<trkpt lat="50.592005" lon="4.159978"><ele>120.92</ele><time>2025-05-24T16:11:51Z</time></trkpt>
<trkpt lat="50.590701" lon="4.160153"><ele>120.33</ele><time>2025-05-24T16:11:54Z</time></trkpt>
<trkpt lat="50.590629" lon="4.160121"><ele>120.02</ele><time>2025-05-24T16:11:57Z</time></trkpt>
<trkpt lat="50.590571" lon="4.160057"><ele>119.45</ele><time>2025-05-24T16:12:00Z</time></trkpt>
<trkpt lat="50.590297" lon="4.159568"><ele>117.03</ele><time>2025-05-24T16:12:03Z</time></trkpt>
<trkpt lat="50.590148" lon="4.159405"><ele>117.4</ele><time>2025-05-24T16:12:06Z</time></trkpt>
<trkpt lat="50.590071" lon="4.159383"><ele>117.58</ele><time>2025-05-24T16:12:09Z</time></trkpt>
<trkpt lat="50.589906" lon="4.159473"><ele>118.0</ele><time>2025-05-24T16:12:12Z</time></trkpt>
<trkpt lat="50.58927" lon="4.160174"><ele>118.6</ele><time>2025-05-24T16:12:15Z</time></trkpt>
<trkpt lat="50.588917" lon="4.1606"><ele>118.1</ele><time>2025-05-24T16:12:18Z</time></trkpt>
<trkpt lat="50.588632" lon="4.16101"><ele>117.66</ele><time>2025-05-24T16:12:21Z</time></trkpt>
<trkpt lat="50.588355" lon="4.161601"><ele>122.45</ele><time>2025-05-24T16:12:24Z</time></trkpt>
<trkpt lat="50.588264" lon="4.161831"><ele>123.69</ele><time>2025-05-24T16:12:27Z</time></trkpt>
<trkpt lat="50.587893" lon="4.162902"><ele>123.83</ele><time>2025-05-24T16:12:30Z</time></trkpt>
<trkpt lat="50.587682" lon="4.163569"><ele>124.21</ele><time>2025-05-24T16:12:33Z</time></trkpt>
<trkpt lat="50.587638" lon="4.163657"><ele>124.15</ele><time>2025-05-24T16:12:36Z</time></trkpt>
<trkpt lat="50.587552" lon="4.163723"><ele>123.78</ele><time>2025-05-24T16:12:39Z</time></trkpt>
<trkpt lat="50.587212" lon="4.163182"><ele>119.4</ele><time>2025-05-24T16:12:46Z</time></trkpt>
<trkpt lat="50.586824" lon="4.162624"><ele>118.12</ele><time>2025-05-24T16:12:52Z</time></trkpt>
<trkpt lat="50.58582" lon="4.161393"><ele>113.89</ele><time>2025-05-24T16:12:59Z</time></trkpt>
<trkpt lat="50.584983" lon="4.160436"><ele>112.46</ele><time>2025-05-24T16:13:06Z</time></trkpt>
<trkpt lat="50.584677" lon="4.160133"><ele>113.08</ele><time>2025-05-24T16:13:13Z</time></trkpt>
<trkpt lat="50.584389" lon="4.159884"><ele>113.88</ele><time>2025-05-24T16:13:20Z</time></trkpt>
<trkpt lat="50.583477" lon="4.159134"><ele>114.0</ele><time>2025-05-24T16:13:26Z</time></trkpt>
<trkpt lat="50.583212" lon="4.158799"><ele>113.38</ele><time>2025-05-24T16:13:33Z</time></trkpt>
<trkpt lat="50.581942" lon="4.156106"><ele>114.99</ele><time>2025-05-24T16:13:40Z</time></trkpt>
<trkpt lat="50.581743" lon="4.155555"><ele>115.0</ele><time>2025-05-24T16:13:47Z</time></trkpt>
<trkpt lat="50.581381" lon="4.15416"><ele>117.97</ele><time>2025-05-24T16:13:53Z</time></trkpt>
<trkpt lat="50.58091" lon="4.152493"><ele>118.72</ele><time>2025-05-24T16:14:00Z</time></trkpt>
<trkpt lat="50.580021" lon="4.150038"><ele>115.0</ele><time>2025-05-24T16:14:07Z</time></trkpt>
<trkpt lat="50.579754" lon="4.148973"><ele>113.27</ele><time>2025-05-24T16:14:14Z</time></trkpt>
<trkpt lat="50.579443" lon="4.147913"><ele>114.0</ele><time>2025-05-24T16:14:21Z</time></trkpt>
<trkpt lat="50.579271" lon="4.14712"><ele>115.53</ele><time>2025-05-24T16:14:27Z</time></trkpt>
<trkpt lat="50.578994" lon="4.145959"><ele>110.93</ele><time>2025-05-24T16:14:34Z</time></trkpt>
<trkpt lat="50.578953" lon="4.145696"><ele>110.46</ele><time>2025-05-24T16:14:41Z</time></trkpt>
<trkpt lat="50.578847" lon="4.144554"><ele>110.85</ele><time>2025-05-24T16:14:48Z</time></trkpt>
<trkpt lat="50.578843" lon="4.143791"><ele>111.0</ele><time>2025-05-24T16:14:54Z</time></trkpt>
<trkpt lat="50.578862" lon="4.143619"><ele>111.0</ele><time>2025-05-24T16:15:01Z</time></trkpt>
<trkpt lat="50.579049" lon="4.1428"><ele>111.0</ele><time>2025-05-24T16:15:08Z</time></trkpt>
<trkpt lat="50.579158" lon="4.141942"><ele>111.97</ele><time>2025-05-24T16:15:15Z</time></trkpt>
<trkpt lat="50.579205" lon="4.140605"><ele>111.14</ele><time>2025-05-24T16:15:22Z</time></trkpt>
<trkpt lat="50.579179" lon="4.138992"><ele>106.4</ele><time>2025-05-24T16:15:28Z</time></trkpt>
<trkpt lat="50.57922" lon="4.138536"><ele>106.19</ele><time>2025-05-24T16:15:35Z</time></trkpt>
<trkpt lat="50.579297" lon="4.138096"><ele>106.07</ele><time>2025-05-24T16:15:42Z</time></trkpt>
<trkpt lat="50.579336" lon="4.137681"><ele>105.04</ele><time>2025-05-24T16:15:49Z</time></trkpt>
<trkpt lat="50.579308" lon="4.136827"><ele>103.49</ele><time>2025-05-24T16:15:55Z</time></trkpt>
<trkpt lat="50.579321" lon="4.136645"><ele>103.48</ele><time>2025-05-24T16:16:02Z</time></trkpt>
<trkpt lat="50.579365" lon="4.13646"><ele>103.5</ele><time>2025-05-24T16:16:09Z</time></trkpt>
<trkpt lat="50.579419" lon="4.136309"><ele>103.18</ele><time>2025-05-24T16:16:16Z</time></trkpt>
<trkpt lat="50.579779" lon="4.135528"><ele>101.74</ele><time>2025-05-24T16:16:23Z</time></trkpt>
<trkpt lat="50.579809" lon="4.135403"><ele>101.48</ele><time>2025-05-24T16:16:29Z</time></trkpt>
<trkpt lat="50.579826" lon="4.135002"><ele>101.37</ele><time>2025-05-24T16:16:36Z</time></trkpt>
<trkpt lat="50.579851" lon="4.134875"><ele>101.01</ele><time>2025-05-24T16:16:43Z</time></trkpt>
<trkpt lat="50.580162" lon="4.13446"><ele>100.42</ele><time>2025-05-24T16:16:50Z</time></trkpt>
<trkpt lat="50.580207" lon="4.13434"><ele>99.78</ele><time>2025-05-24T16:16:56Z</time></trkpt>
<trkpt lat="50.580144" lon="4.134232"><ele>99.35</ele><time>2025-05-24T16:17:01Z</time></trkpt>
<trkpt lat="50.580075" lon="4.134103"><ele>98.77</ele><time>2025-05-24T16:17:05Z</time></trkpt>
<trkpt lat="50.579988" lon="4.133903"><ele>98.0</ele><time>2025-05-24T16:17:09Z</time></trkpt>
<trkpt lat="50.579959" lon="4.13371"><ele>97.21</ele><time>2025-05-24T16:17:14Z</time></trkpt>
<trkpt lat="50.579933" lon="4.132711"><ele>96.24</ele><time>2025-05-24T16:17:18Z</time></trkpt>
<trkpt lat="50.57985" lon="4.131812"><ele>98.54</ele><time>2025-05-24T16:17:22Z</time></trkpt>
<trkpt lat="50.579765" lon="4.131486"><ele>98.94</ele><time>2025-05-24T16:17:27Z</time></trkpt>
<trkpt lat="50.579519" lon="4.130809"><ele>99.0</ele><time>2025-05-24T16:17:31Z</time></trkpt>
<trkpt lat="50.579282" lon="4.130353"><ele>99.73</ele><time>2025-05-24T16:17:35Z</time></trkpt>
<trkpt lat="50.5786" lon="4.129216"><ele>101.96</ele><time>2025-05-24T16:17:40Z</time></trkpt>
<trkpt lat="50.578255" lon="4.128735"><ele>100.04</ele><time>2025-05-24T16:17:44Z</time></trkpt>
<trkpt lat="50.577531" lon="4.127827"><ele>101.09</ele><time>2025-05-24T16:17:48Z</time></trkpt>
<trkpt lat="50.577466" lon="4.127688"><ele>101.4</ele><time>2025-05-24T16:17:53Z</time></trkpt>
<trkpt lat="50.577448" lon="4.127582"><ele>101.76</ele><time>2025-05-24T16:17:57Z</time></trkpt>
<trkpt lat="50.577457" lon="4.127486"><ele>102.0</ele><time>2025-05-24T16:18:01Z</time></trkpt>
<trkpt lat="50.577652" lon="4.12679"><ele>102.45</ele><time>2025-05-24T16:18:06Z</time></trkpt>
<trkpt lat="50.577662" lon="4.12666"><ele>102.42</ele><time>2025-05-24T16:18:10Z</time></trkpt>
<trkpt lat="50.577637" lon="4.126329"><ele>102.49</ele><time>2025-05-24T16:18:14Z</time></trkpt>
<trkpt lat="50.577564" lon="4.126089"><ele>102.13</ele><time>2025-05-24T16:18:19Z</time></trkpt>
<trkpt lat="50.577473" lon="4.125864"><ele>101.2</ele><time>2025-05-24T16:18:23Z</time></trkpt>
<trkpt lat="50.576925" lon="4.124793"><ele>102.18</ele><time>2025-05-24T16:18:27Z</time></trkpt>
<trkpt lat="50.576794" lon="4.124497"><ele>101.46</ele><time>2025-05-24T16:18:32Z</time></trkpt>
<trkpt lat="50.576426" lon="4.123207"><ele>105.26</ele><time>2025-05-24T16:18:36Z</time></trkpt>
<trkpt lat="50.576379" lon="4.122985"><ele>106.04</ele><time>2025-05-24T16:18:40Z</time></trkpt>
<trkpt lat="50.57636" lon="4.122761"><ele>106.17</ele><time>2025-05-24T16:18:45Z</time></trkpt>
<trkpt lat="50.576387" lon="4.122207"><ele>107.01</ele><time>2025-05-24T16:18:49Z</time></trkpt>
<trkpt lat="50.576532" lon="4.121157"><ele>106.0</ele><time>2025-05-24T16:18:53Z</time></trkpt>
<trkpt lat="50.576609" lon="4.12032"><ele>106.21</ele><time>2025-05-24T16:18:58Z</time></trkpt>
<trkpt lat="50.576648" lon="4.119218"><ele>104.18</ele><time>2025-05-24T16:19:02Z</time></trkpt>
<trkpt lat="50.576672" lon="4.118928"><ele>104.09</ele><time>2025-05-24T16:19:06Z</time></trkpt>
<trkpt lat="50.576672" lon="4.118928"><ele>104.09</ele><time>2025-05-24T16:19:06Z</time></trkpt>
<trkpt lat="50.57676" lon="4.118641"><ele>104.0</ele><time>2025-05-24T16:19:10Z</time></trkpt>
<trkpt lat="50.576955" lon="4.118368"><ele>104.04</ele><time>2025-05-24T16:19:15Z</time></trkpt>
<trkpt lat="50.577376" lon="4.118007"><ele>104.44</ele><time>2025-05-24T16:19:19Z</time></trkpt>
<trkpt lat="50.577512" lon="4.117787"><ele>103.96</ele><time>2025-05-24T16:19:23Z</time></trkpt>
<trkpt lat="50.577774" lon="4.117274"><ele>104.0</ele><time>2025-05-24T16:19:27Z</time></trkpt>
<trkpt lat="50.577911" lon="4.11674"><ele>104.52</ele><time>2025-05-24T16:19:31Z</time></trkpt>
<trkpt lat="50.57804" lon="4.115763"><ele>103.06</ele><time>2025-05-24T16:19:36Z</time></trkpt>
<trkpt lat="50.578311" lon="4.115623"><ele>102.08</ele><time>2025-05-24T16:19:43Z</time></trkpt>
<trkpt lat="50.578923" lon="4.115356"><ele>101.13</ele><time>2025-05-24T16:19:50Z</time></trkpt>
<trkpt lat="50.579701" lon="4.115182"><ele>101.0</ele><time>2025-05-24T16:19:57Z</time></trkpt>
<trkpt lat="50.581444" lon="4.114626"><ele>98.0</ele><time>2025-05-24T16:20:04Z</time></trkpt>
<trkpt lat="50.582326" lon="4.114311"><ele>98.63</ele><time>2025-05-24T16:20:11Z</time></trkpt>
<trkpt lat="50.583829" lon="4.113672"><ele>94.65</ele><time>2025-05-24T16:20:18Z</time></trkpt>
<trkpt lat="50.584929" lon="4.113433"><ele>91.48</ele><time>2025-05-24T16:20:25Z</time></trkpt>
<trkpt lat="50.585265" lon="4.113449"><ele>91.98</ele><time>2025-05-24T16:20:32Z</time></trkpt>
<trkpt lat="50.585697" lon="4.113591"><ele>91.51</ele><time>2025-05-24T16:20:39Z</time></trkpt>
<trkpt lat="50.585959" lon="4.11372"><ele>92.9</ele><time>2025-05-24T16:20:46Z</time></trkpt>
<trkpt lat="50.586191" lon="4.113899"><ele>93.71</ele><time>2025-05-24T16:20:53Z</time></trkpt>
<trkpt lat="50.586561" lon="4.114131"><ele>94.78</ele><time>2025-05-24T16:21:00Z</time></trkpt>
<trkpt lat="50.586601" lon="4.114138"><ele>95.21</ele><time>2025-05-24T16:21:07Z</time></trkpt>
<trkpt lat="50.586727" lon="4.114069"><ele>95.65</ele><time>2025-05-24T16:21:14Z</time></trkpt>
<trkpt lat="50.587465" lon="4.113219"><ele>99.93</ele><time>2025-05-24T16:21:21Z</time></trkpt>
<trkpt lat="50.587524" lon="4.113192"><ele>100.46</ele><time>2025-05-24T16:21:28Z</time></trkpt>
<trkpt lat="50.587614" lon="4.113232"><ele>99.52</ele><time>2025-05-24T16:21:35Z</time></trkpt>
<trkpt lat="50.587964" lon="4.113914"><ele>98.01</ele><time>2025-05-24T16:21:42Z</time></trkpt>
<trkpt lat="50.588297" lon="4.11442"><ele>99.0</ele><time>2025-05-24T16:21:49Z</time></trkpt>
<trkpt lat="50.588934" lon="4.1151"><ele>98.16</ele><time>2025-05-24T16:21:56Z</time></trkpt>
<trkpt lat="50.588969" lon="4.115125"><ele>98.29</ele><time>2025-05-24T16:22:03Z</time></trkpt>
<trkpt lat="50.589021" lon="4.115106"><ele>98.47</ele><time>2025-05-24T16:22:10Z</time></trkpt>
<trkpt lat="50.59206" lon="4.109828"><ele>99.04</ele><time>2025-05-24T16:22:17Z</time></trkpt>
<trkpt lat="50.592161" lon="4.109775"><ele>98.88</ele><time>2025-05-24T16:22:24Z</time></trkpt>
<trkpt lat="50.592346" lon="4.10982"><ele>97.85</ele><time>2025-05-24T16:22:31Z</time></trkpt>
<trkpt lat="50.59286" lon="4.110087"><ele>96.0</ele><time>2025-05-24T16:22:38Z</time></trkpt>
<trkpt lat="50.592918" lon="4.110085"><ele>96.0</ele><time>2025-05-24T16:22:45Z</time></trkpt>
<trkpt lat="50.593164" lon="4.109989"><ele>97.24</ele><time>2025-05-24T16:22:52Z</time></trkpt>
<trkpt lat="50.593304" lon="4.109903"><ele>99.07</ele><time>2025-05-24T16:23:00Z</time></trkpt>
<trkpt lat="50.594124" lon="4.109222"><ele>101.79</ele><time>2025-05-24T16:23:07Z</time></trkpt>
<trkpt lat="50.594675" lon="4.108633"><ele>97.73</ele><time>2025-05-24T16:23:14Z</time></trkpt>
<trkpt lat="50.594884" lon="4.108439"><ele>95.22</ele><time>2025-05-24T16:23:21Z</time></trkpt>
<trkpt lat="50.595402" lon="4.110638"><ele>98.68</ele><time>2025-05-24T16:23:28Z</time></trkpt>
<trkpt lat="50.595612" lon="4.111399"><ele>101.88</ele><time>2025-05-24T16:23:36Z</time></trkpt>
<trkpt lat="50.595854" lon="4.112103"><ele>104.5</ele><time>2025-05-24T16:23:43Z</time></trkpt>
<trkpt lat="50.59657" lon="4.113867"><ele>102.62</ele><time>2025-05-24T16:23:51Z</time></trkpt>
<trkpt lat="50.596661" lon="4.11374"><ele>101.5</ele><time>2025-05-24T16:23:58Z</time></trkpt>
<trkpt lat="50.596702" lon="4.113581"><ele>100.87</ele><time>2025-05-24T16:24:06Z</time></trkpt>
<trkpt lat="50.596886" lon="4.113356"><ele>100.21</ele><time>2025-05-24T16:24:13Z</time></trkpt>
<trkpt lat="50.596993" lon="4.113289"><ele>99.98</ele><time>2025-05-24T16:24:21Z</time></trkpt>
<trkpt lat="50.597048" lon="4.113288"><ele>99.79</ele><time>2025-05-24T16:24:28Z</time></trkpt>
<trkpt lat="50.597109" lon="4.113331"><ele>99.42</ele><time>2025-05-24T16:24:36Z</time></trkpt>
<trkpt lat="50.598929" lon="4.115947"><ele>98.12</ele><time>2025-05-24T16:24:43Z</time></trkpt>
<trkpt lat="50.599096" lon="4.115498"><ele>96.62</ele><time>2025-05-24T16:24:47Z</time></trkpt>
<trkpt lat="50.599167" lon="4.115265"><ele>98.04</ele><time>2025-05-24T16:24:52Z</time></trkpt>
<trkpt lat="50.599239" lon="4.114827"><ele>98.9</ele><time>2025-05-24T16:24:56Z</time></trkpt>
<trkpt lat="50.599281" lon="4.114691"><ele>99.04</ele><time>2025-05-24T16:25:01Z</time></trkpt>
<trkpt lat="50.59979" lon="4.113723"><ele>99.9</ele><time>2025-05-24T16:25:05Z</time></trkpt>
<trkpt lat="50.599902" lon="4.113539"><ele>100.0</ele><time>2025-05-24T16:25:10Z</time></trkpt>
<trkpt lat="50.600398" lon="4.112862"><ele>98.13</ele><time>2025-05-24T16:25:14Z</time></trkpt>
<trkpt lat="50.600617" lon="4.11264"><ele>97.06</ele><time>2025-05-24T16:25:18Z</time></trkpt>
<trkpt lat="50.600749" lon="4.112533"><ele>95.96</ele><time>2025-05-24T16:25:23Z</time></trkpt>
<trkpt lat="50.601036" lon="4.112375"><ele>94.27</ele><time>2025-05-24T16:25:27Z</time></trkpt>
<trkpt lat="50.601519" lon="4.112171"><ele>95.47</ele><time>2025-05-24T16:25:32Z</time></trkpt>
<trkpt lat="50.602965" lon="4.111692"><ele>96.0</ele><time>2025-05-24T16:25:36Z</time></trkpt>
<trkpt lat="50.603843" lon="4.111471"><ele>97.42</ele><time>2025-05-24T16:25:41Z</time></trkpt>
<trkpt lat="50.603954" lon="4.111414"><ele>96.94</ele><time>2025-05-24T16:25:45Z</time></trkpt>
<trkpt lat="50.604064" lon="4.111287"><ele>95.63</ele><time>2025-05-24T16:25:49Z</time></trkpt>
<trkpt lat="50.60441" lon="4.110713"><ele>93.0</ele><time>2025-05-24T16:25:54Z</time></trkpt>
<trkpt lat="50.604476" lon="4.110658"><ele>93.11</ele><time>2025-05-24T16:25:58Z</time></trkpt>
<trkpt lat="50.604511" lon="4.110655"><ele>93.24</ele><time>2025-05-24T16:26:03Z</time></trkpt>
<trkpt lat="50.60462" lon="4.110799"><ele>93.63</ele><time>2025-05-24T16:26:07Z</time></trkpt>
<trkpt lat="50.604942" lon="4.11135"><ele>94.0</ele><time>2025-05-24T16:26:12Z</time></trkpt>
<trkpt lat="50.605071" lon="4.111536"><ele>93.88</ele><time>2025-05-24T16:26:16Z</time></trkpt>
<trkpt lat="50.60535" lon="4.111868"><ele>94.21</ele><time>2025-05-24T16:26:21Z</time></trkpt>
<trkpt lat="50.605837" lon="4.112389"><ele>93.6</ele><time>2025-05-24T16:26:25Z</time></trkpt>
<trkpt lat="50.605966" lon="4.112552"><ele>94.19</ele><time>2025-05-24T16:26:30Z</time></trkpt>
<trkpt lat="50.606243" lon="4.112977"><ele>96.3</ele><time>2025-05-24T16:26:34Z</time></trkpt>
<trkpt lat="50.60682" lon="4.113957"><ele>93.56</ele><time>2025-05-24T16:26:39Z</time></trkpt>
<trkpt lat="50.60682" lon="4.113957"><ele>93.56</ele><time>2025-05-24T16:26:39Z</time></trkpt>
<trkpt lat="50.606816" lon="4.113948"><ele>93.93</ele><time>2025-05-24T16:26:39Z</time></trkpt>
<trkpt lat="50.607338" lon="4.112883"><ele>87.18</ele><time>2025-05-24T16:26:48Z</time></trkpt>
<trkpt lat="50.60737" lon="4.112532"><ele>86.52</ele><time>2025-05-24T16:26:57Z</time></trkpt>
<trkpt lat="50.607497" lon="4.111944"><ele>88.99</ele><time>2025-05-24T16:27:06Z</time></trkpt>
<trkpt lat="50.607509" lon="4.111068"><ele>93.0</ele><time>2025-05-24T16:27:15Z</time></trkpt>
<trkpt lat="50.607268" lon="4.110677"><ele>93.0</ele><time>2025-05-24T16:27:23Z</time></trkpt>
<trkpt lat="50.606239" lon="4.108894"><ele>92.46</ele><time>2025-05-24T16:27:32Z</time></trkpt>
<trkpt lat="50.606044" lon="4.108458"><ele>91.0</ele><time>2025-05-24T16:27:41Z</time></trkpt>
<trkpt lat="50.606042" lon="4.108297"><ele>90.9</ele><time>2025-05-24T16:27:50Z</time></trkpt>
<trkpt lat="50.606109" lon="4.108134"><ele>90.29</ele><time>2025-05-24T16:27:59Z</time></trkpt>
<trkpt lat="50.606576" lon="4.107448"><ele>89.0</ele><time>2025-05-24T16:28:08Z</time></trkpt>
<trkpt lat="50.606644" lon="4.107377"><ele>89.0</ele><time>2025-05-24T16:28:17Z</time></trkpt>
<trkpt lat="50.606712" lon="4.107341"><ele>89.0</ele><time>2025-05-24T16:28:26Z</time></trkpt>
<trkpt lat="50.606983" lon="4.107276"><ele>89.14</ele><time>2025-05-24T16:28:35Z</time></trkpt>
<trkpt lat="50.607057" lon="4.107233"><ele>89.4</ele><time>2025-05-24T16:28:44Z</time></trkpt>
<trkpt lat="50.608748" lon="4.105473"><ele>90.84</ele><time>2025-05-24T16:28:53Z</time></trkpt>
<trkpt lat="50.608799" lon="4.105352"><ele>90.86</ele><time>2025-05-24T16:29:01Z</time></trkpt>
<trkpt lat="50.608786" lon="4.105205"><ele>90.63</ele><time>2025-05-24T16:29:06Z</time></trkpt>
<trkpt lat="50.608794" lon="4.105119"><ele>90.66</ele><time>2025-05-24T16:29:10Z</time></trkpt>
<trkpt lat="50.60893" lon="4.10478"><ele>90.35</ele><time>2025-05-24T16:29:14Z</time></trkpt>
<trkpt lat="50.609241" lon="4.104186"><ele>89.07</ele><time>2025-05-24T16:29:18Z</time></trkpt>
<trkpt lat="50.609397" lon="4.103974"><ele>89.0</ele><time>2025-05-24T16:29:22Z</time></trkpt>
<trkpt lat="50.60947" lon="4.103914"><ele>89.09</ele><time>2025-05-24T16:29:26Z</time></trkpt>
<trkpt lat="50.609943" lon="4.103658"><ele>90.66</ele><time>2025-05-24T16:29:30Z</time></trkpt>
<trkpt lat="50.610082" lon="4.103533"><ele>91.0</ele><time>2025-05-24T16:29:34Z</time></trkpt>
<trkpt lat="50.61021" lon="4.103335"><ele>91.0</ele><time>2025-05-24T16:29:39Z</time></trkpt>
<trkpt lat="50.610468" lon="4.102739"><ele>93.14</ele><time>2025-05-24T16:29:43Z</time></trkpt>
<trkpt lat="50.610596" lon="4.102504"><ele>93.99</ele><time>2025-05-24T16:29:47Z</time></trkpt>
<trkpt lat="50.61072" lon="4.102309"><ele>94.28</ele><time>2025-05-24T16:29:51Z</time></trkpt>
<trkpt lat="50.61091" lon="4.102061"><ele>92.87</ele><time>2025-05-24T16:29:55Z</time></trkpt>
<trkpt lat="50.61121" lon="4.10173"><ele>91.0</ele><time>2025-05-24T16:29:59Z</time></trkpt>
<trkpt lat="50.611328" lon="4.101528"><ele>91.39</ele><time>2025-05-24T16:30:03Z</time></trkpt>
<trkpt lat="50.611402" lon="4.101273"><ele>92.0</ele><time>2025-05-24T16:30:07Z</time></trkpt>
<trkpt lat="50.611456" lon="4.100942"><ele>92.61</ele><time>2025-05-24T16:30:12Z</time></trkpt>
<trkpt lat="50.61147" lon="4.100685"><ele>93.0</ele><time>2025-05-24T16:30:16Z</time></trkpt>
<trkpt lat="50.611463" lon="4.100478"><ele>93.21</ele><time>2025-05-24T16:30:20Z</time></trkpt>
<trkpt lat="50.611337" lon="4.099147"><ele>95.0</ele><time>2025-05-24T16:30:24Z</time></trkpt>
<trkpt lat="50.611272" lon="4.098022"><ele>97.63</ele><time>2025-05-24T16:30:28Z</time></trkpt>
<trkpt lat="50.611203" lon="4.097291"><ele>100.42</ele><time>2025-05-24T16:30:32Z</time></trkpt>
<trkpt lat="50.611182" lon="4.096759"><ele>101.74</ele><time>2025-05-24T16:30:36Z</time></trkpt>
<trkpt lat="50.611193" lon="4.096551"><ele>100.87</ele><time>2025-05-24T16:30:40Z</time></trkpt>
<trkpt lat="50.611245" lon="4.096295"><ele>99.18</ele><time>2025-05-24T16:30:45Z</time></trkpt>
<trkpt lat="50.611501" lon="4.095672"><ele>97.0</ele><time>2025-05-24T16:30:49Z</time></trkpt>
<trkpt lat="50.611557" lon="4.095484"><ele>97.26</ele><time>2025-05-24T16:30:53Z</time></trkpt>
<trkpt lat="50.611589" lon="4.095274"><ele>98.01</ele><time>2025-05-24T16:30:57Z</time></trkpt>
<trkpt lat="50.611601" lon="4.095051"><ele>98.62</ele><time>2025-05-24T16:31:01Z</time></trkpt>
<trkpt lat="50.611643" lon="4.093896"><ele>100.83</ele><time>2025-05-24T16:31:05Z</time></trkpt>
<trkpt lat="50.611852" lon="4.092748"><ele>99.11</ele><time>2025-05-24T16:31:09Z</time></trkpt>
<trkpt lat="50.611881" lon="4.092446"><ele>100.0</ele><time>2025-05-24T16:31:13Z</time></trkpt>
<trkpt lat="50.611867" lon="4.092322"><ele>100.0</ele><time>2025-05-24T16:31:18Z</time></trkpt>
<trkpt lat="50.61171" lon="4.091838"><ele>100.0</ele><time>2025-05-24T16:31:22Z</time></trkpt>
<trkpt lat="50.611666" lon="4.091652"><ele>100.05</ele><time>2025-05-24T16:31:26Z</time></trkpt>
<trkpt lat="50.611075" lon="4.088514"><ele>101.26</ele><time>2025-05-24T16:31:30Z</time></trkpt>
<trkpt lat="50.611029" lon="4.088102"><ele>100.76</ele><time>2025-05-24T16:31:34Z</time></trkpt>
<trkpt lat="50.611006" lon="4.0872"><ele>97.92</ele><time>2025-05-24T16:31:38Z</time></trkpt>
<trkpt lat="50.610972" lon="4.086894"><ele>96.91</ele><time>2025-05-24T16:31:42Z</time></trkpt>
<trkpt lat="50.610917" lon="4.086588"><ele>96.58</ele><time>2025-05-24T16:31:46Z</time></trkpt>
<trkpt lat="50.610815" lon="4.086156"><ele>96.87</ele><time>2025-05-24T16:31:51Z</time></trkpt>
<trkpt lat="50.610508" lon="4.085046"><ele>95.0</ele><time>2025-05-24T16:31:55Z</time></trkpt>
<trkpt lat="50.61005" lon="4.083728"><ele>100.18</ele><time>2025-05-24T16:31:59Z</time></trkpt>
<trkpt lat="50.609927" lon="4.08327"><ele>99.47</ele><time>2025-05-24T16:32:03Z</time></trkpt>
<trkpt lat="50.609937" lon="4.083266"><ele>99.81</ele><time>2025-05-24T16:32:03Z</time></trkpt>
<trkpt lat="50.609937" lon="4.083266"><ele>99.81</ele><time>2025-05-24T16:32:03Z</time></trkpt>
<trkpt lat="50.6106" lon="4.083012"><ele>100.16</ele><time>2025-05-24T16:32:08Z</time></trkpt>
<trkpt lat="50.611349" lon="4.08281"><ele>101.11</ele><time>2025-05-24T16:32:13Z</time></trkpt>
<trkpt lat="50.612093" lon="4.082448"><ele>100.0</ele><time>2025-05-24T16:32:19Z</time></trkpt>
<trkpt lat="50.61239" lon="4.082207"><ele>99.45</ele><time>2025-05-24T16:32:24Z</time></trkpt>
<trkpt lat="50.61271" lon="4.081878"><ele>99.3</ele><time>2025-05-24T16:32:29Z</time></trkpt>
<trkpt lat="50.613374" lon="4.080967"><ele>96.78</ele><time>2025-05-24T16:32:34Z</time></trkpt>
<trkpt lat="50.613511" lon="4.08081"><ele>96.41</ele><time>2025-05-24T16:32:39Z</time></trkpt>
<trkpt lat="50.613816" lon="4.080529"><ele>96.19</ele><time>2025-05-24T16:32:44Z</time></trkpt>
<trkpt lat="50.614699" lon="4.079924"><ele>92.55</ele><time>2025-05-24T16:32:50Z</time></trkpt>
<trkpt lat="50.614923" lon="4.079794"><ele>94.39</ele><time>2025-05-24T16:32:55Z</time></trkpt>
<trkpt lat="50.616549" lon="4.078988"><ele>89.05</ele><time>2025-05-24T16:33:00Z</time></trkpt>
<trkpt lat="50.616693" lon="4.078812"><ele>87.96</ele><time>2025-05-24T16:33:05Z</time></trkpt>
<trkpt lat="50.617277" lon="4.077686"><ele>95.39</ele><time>2025-05-24T16:33:10Z</time></trkpt>
<trkpt lat="50.617382" lon="4.077535"><ele>96.37</ele><time>2025-05-24T16:33:15Z</time></trkpt>
<trkpt lat="50.617522" lon="4.077442"><ele>97.21</ele><time>2025-05-24T16:33:20Z</time></trkpt>
<trkpt lat="50.61778" lon="4.077332"><ele>97.58</ele><time>2025-05-24T16:33:26Z</time></trkpt>
<trkpt lat="50.618057" lon="4.077115"><ele>95.38</ele><time>2025-05-24T16:33:31Z</time></trkpt>
<trkpt lat="50.618137" lon="4.077002"><ele>95.21</ele><time>2025-05-24T16:33:36Z</time></trkpt>
<trkpt lat="50.618203" lon="4.076868"><ele>94.94</ele><time>2025-05-24T16:33:41Z</time></trkpt>
<trkpt lat="50.618312" lon="4.076514"><ele>93.61</ele><time>2025-05-24T16:33:46Z</time></trkpt>
<trkpt lat="50.618336" lon="4.076348"><ele>92.99</ele><time>2025-05-24T16:33:51Z</time></trkpt>
<trkpt lat="50.618351" lon="4.075576"><ele>91.0</ele><time>2025-05-24T16:33:57Z</time></trkpt>
<trkpt lat="50.618399" lon="4.075063"><ele>91.76</ele><time>2025-05-24T16:34:02Z</time></trkpt>
<trkpt lat="50.618496" lon="4.074749"><ele>92.85</ele><time>2025-05-24T16:34:07Z</time></trkpt>
<trkpt lat="50.618617" lon="4.074489"><ele>93.84</ele><time>2025-05-24T16:34:12Z</time></trkpt>
<trkpt lat="50.61885" lon="4.074091"><ele>96.13</ele><time>2025-05-24T16:34:17Z</time></trkpt>
<trkpt lat="50.619602" lon="4.073027"><ele>95.33</ele><time>2025-05-24T16:34:22Z</time></trkpt>
<trkpt lat="50.619684" lon="4.072853"><ele>94.41</ele><time>2025-05-24T16:34:27Z</time></trkpt>
<trkpt lat="50.618408" lon="4.071068"><ele>91.85</ele><time>2025-05-24T16:34:33Z</time></trkpt>
<trkpt lat="50.618101" lon="4.070615"><ele>90.34</ele><time>2025-05-24T16:34:38Z</time></trkpt>
<trkpt lat="50.617946" lon="4.070317"><ele>87.89</ele><time>2025-05-24T16:34:43Z</time></trkpt>
<trkpt lat="50.617396" lon="4.069122"><ele>84.25</ele><time>2025-05-24T16:34:48Z</time></trkpt>
<trkpt lat="50.617163" lon="4.068341"><ele>80.81</ele><time>2025-05-24T16:34:53Z</time></trkpt>
<trkpt lat="50.617107" lon="4.068068"><ele>79.63</ele><time>2025-05-24T16:34:58Z</time></trkpt>
<trkpt lat="50.617107" lon="4.067902"><ele>79.26</ele><time>2025-05-24T16:35:03Z</time></trkpt>
<trkpt lat="50.617146" lon="4.067679"><ele>78.74</ele><time>2025-05-24T16:35:08Z</time></trkpt>
<trkpt lat="50.617185" lon="4.06762"><ele>78.51</ele><time>2025-05-24T16:35:13Z</time></trkpt>
<trkpt lat="50.617217" lon="4.067527"><ele>78.11</ele><time>2025-05-24T16:35:18Z</time></trkpt>
<trkpt lat="50.617375" lon="4.067493"><ele>78.54</ele><time>2025-05-24T16:35:23Z</time></trkpt>
<trkpt lat="50.617842" lon="4.06747"><ele>81.92</ele><time>2025-05-24T16:35:28Z</time></trkpt>
<trkpt lat="50.618214" lon="4.067544"><ele>82.16</ele><time>2025-05-24T16:35:32Z</time></trkpt>
<trkpt lat="50.618594" lon="4.067532"><ele>82.94</ele><time>2025-05-24T16:35:37Z</time></trkpt>
<trkpt lat="50.618845" lon="4.067583"><ele>83.25</ele><time>2025-05-24T16:35:42Z</time></trkpt>
<trkpt lat="50.619449" lon="4.067811"><ele>81.99</ele><time>2025-05-24T16:35:47Z</time></trkpt>
<trkpt lat="50.619875" lon="4.067939"><ele>81.58</ele><time>2025-05-24T16:35:51Z</time></trkpt>
<trkpt lat="50.620447" lon="4.067887"><ele>83.39</ele><time>2025-05-24T16:35:56Z</time></trkpt>
<trkpt lat="50.620936" lon="4.067948"><ele>81.61</ele><time>2025-05-24T16:36:01Z</time></trkpt>
<trkpt lat="50.621263" lon="4.067595"><ele>81.18</ele><time>2025-05-24T16:36:06Z</time></trkpt>
<trkpt lat="50.621718" lon="4.067393"><ele>82.18</ele><time>2025-05-24T16:36:10Z</time></trkpt>
<trkpt lat="50.621983" lon="4.067232"><ele>83.14</ele><time>2025-05-24T16:36:15Z</time></trkpt>
<trkpt lat="50.62231" lon="4.066848"><ele>84.0</ele><time>2025-05-24T16:36:20Z</time></trkpt>
<trkpt lat="50.622533" lon="4.066661"><ele>84.02</ele><time>2025-05-24T16:36:25Z</time></trkpt>
<trkpt lat="50.622796" lon="4.066529"><ele>84.53</ele><time>2025-05-24T16:36:29Z</time></trkpt>
<trkpt lat="50.623344" lon="4.066626"><ele>85.04</ele><time>2025-05-24T16:36:34Z</time></trkpt>
<trkpt lat="50.624066" lon="4.066882"><ele>87.64</ele><time>2025-05-24T16:36:39Z</time></trkpt>
<trkpt lat="50.624143" lon="4.066953"><ele>87.95</ele><time>2025-05-24T16:36:44Z</time></trkpt>
<trkpt lat="50.624592" lon="4.067278"><ele>86.93</ele><time>2025-05-24T16:36:48Z</time></trkpt>
<trkpt lat="50.625144" lon="4.067628"><ele>83.02</ele><time>2025-05-24T16:36:53Z</time></trkpt>
<trkpt lat="50.625656" lon="4.067828"><ele>80.52</ele><time>2025-05-24T16:36:58Z</time></trkpt>
<trkpt lat="50.625937" lon="4.067902"><ele>80.21</ele><time>2025-05-24T16:37:03Z</time></trkpt>
<trkpt lat="50.62607" lon="4.067922"><ele>80.41</ele><time>2025-05-24T16:37:07Z</time></trkpt>
<trkpt lat="50.626372" lon="4.067916"><ele>81.44</ele><time>2025-05-24T16:37:12Z</time></trkpt>
<trkpt lat="50.626801" lon="4.06779"><ele>81.93</ele><time>2025-05-24T16:37:17Z</time></trkpt>
<trkpt lat="50.627378" lon="4.067494"><ele>84.57</ele><time>2025-05-24T16:37:22Z</time></trkpt>
<trkpt lat="50.627541" lon="4.067494"><ele>85.0</ele><time>2025-05-24T16:37:26Z</time></trkpt>
<trkpt lat="50.627983" lon="4.067662"><ele>85.89</ele><time>2025-05-24T16:37:31Z</time></trkpt>
<trkpt lat="50.628107" lon="4.067671"><ele>85.82</ele><time>2025-05-24T16:37:36Z</time></trkpt>
<trkpt lat="50.628168" lon="4.067646"><ele>85.6</ele><time>2025-05-24T16:37:41Z</time></trkpt>
<trkpt lat="50.628242" lon="4.06759"><ele>85.33</ele><time>2025-05-24T16:37:45Z</time></trkpt>
<trkpt lat="50.628297" lon="4.067515"><ele>85.13</ele><time>2025-05-24T16:37:50Z</time></trkpt>
<trkpt lat="50.628834" lon="4.066528"><ele>82.8</ele><time>2025-05-24T16:37:55Z</time></trkpt>
<trkpt lat="50.628991" lon="4.066329"><ele>83.0</ele><time>2025-05-24T16:37:59Z</time></trkpt>
<trkpt lat="50.62908" lon="4.066058"><ele>83.0</ele><time>2025-05-24T16:38:04Z</time></trkpt>
<trkpt lat="50.629527" lon="4.06506"><ele>81.0</ele><time>2025-05-24T16:38:09Z</time></trkpt>
<trkpt lat="50.630003" lon="4.064124"><ele>78.85</ele><time>2025-05-24T16:38:14Z</time></trkpt>
<trkpt lat="50.630169" lon="4.063695"><ele>77.3</ele><time>2025-05-24T16:38:18Z</time></trkpt>
<trkpt lat="50.630372" lon="4.063265"><ele>76.75</ele><time>2025-05-24T16:38:23Z</time></trkpt>
<trkpt lat="50.630626" lon="4.062853"><ele>77.0</ele><time>2025-05-24T16:38:28Z</time></trkpt>
<trkpt lat="50.630632" lon="4.062796"><ele>77.0</ele><time>2025-05-24T16:38:33Z</time></trkpt>
<trkpt lat="50.630581" lon="4.0626"><ele>77.0</ele><time>2025-05-24T16:38:37Z</time></trkpt>
<trkpt lat="50.630581" lon="4.0626"><ele>77.0</ele><time>2025-05-24T16:38:37Z</time></trkpt>
<trkpt lat="50.630273" lon="4.061399"><ele>75.93</ele><time>2025-05-24T16:38:43Z</time></trkpt>
<trkpt lat="50.63026" lon="4.061265"><ele>75.87</ele><time>2025-05-24T16:38:49Z</time></trkpt>
<trkpt lat="50.630868" lon="4.059868"><ele>70.05</ele><time>2025-05-24T16:38:55Z</time></trkpt>
<trkpt lat="50.630977" lon="4.059516"><ele>67.87</ele><time>2025-05-24T16:39:01Z</time></trkpt>
<trkpt lat="50.630958" lon="4.059334"><ele>67.15</ele><time>2025-05-24T16:39:07Z</time></trkpt>
<trkpt lat="50.630644" lon="4.058425"><ele>65.32</ele><time>2025-05-24T16:39:13Z</time></trkpt>
<trkpt lat="50.629935" lon="4.057199"><ele>60.06</ele><time>2025-05-24T16:39:19Z</time></trkpt>
<trkpt lat="50.629832" lon="4.057106"><ele>59.76</ele><time>2025-05-24T16:39:25Z</time></trkpt>
<trkpt lat="50.629328" lon="4.057005"><ele>59.53</ele><time>2025-05-24T16:39:31Z</time></trkpt>
<trkpt lat="50.62887" lon="4.056803"><ele>58.44</ele><time>2025-05-24T16:39:37Z</time></trkpt>
<trkpt lat="50.628872" lon="4.056352"><ele>54.74</ele><time>2025-05-24T16:39:42Z</time></trkpt>
<trkpt lat="50.628861" lon="4.05619"><ele>53.64</ele><time>2025-05-24T16:39:47Z</time></trkpt>
<trkpt lat="50.628836" lon="4.056085"><ele>53.27</ele><time>2025-05-24T16:39:52Z</time></trkpt>
<trkpt lat="50.628667" lon="4.055557"><ele>54.0</ele><time>2025-05-24T16:39:58Z</time></trkpt>
<trkpt lat="50.628151" lon="4.054263"><ele>55.0</ele><time>2025-05-24T16:40:03Z</time></trkpt>
<trkpt lat="50.628013" lon="4.054006"><ele>55.34</ele><time>2025-05-24T16:40:08Z</time></trkpt>
<trkpt lat="50.627141" lon="4.052895"><ele>57.99</ele><time>2025-05-24T16:40:13Z</time></trkpt>
<trkpt lat="50.626589" lon="4.051972"><ele>61.62</ele><time>2025-05-24T16:40:18Z</time></trkpt>
<trkpt lat="50.626547" lon="4.051854"><ele>61.57</ele><time>2025-05-24T16:40:23Z</time></trkpt>
<trkpt lat="50.626485" lon="4.051875"><ele>61.35</ele><time>2025-05-24T16:40:24Z</time></trkpt>
<trkpt lat="50.626455" lon="4.051604"><ele>61.01</ele><time>2025-05-24T16:40:30Z</time></trkpt>
<trkpt lat="50.626466" lon="4.051479"><ele>60.6</ele><time>2025-05-24T16:40:36Z</time></trkpt>
<trkpt lat="50.626626" lon="4.050811"><ele>59.85</ele><time>2025-05-24T16:40:41Z</time></trkpt>
<trkpt lat="50.626693" lon="4.05045"><ele>60.19</ele><time>2025-05-24T16:40:47Z</time></trkpt>
<trkpt lat="50.626955" lon="4.047713"><ele>72.26</ele><time>2025-05-24T16:40:53Z</time></trkpt>
<trkpt lat="50.626896" lon="4.047205"><ele>72.82</ele><time>2025-05-24T16:40:59Z</time></trkpt>
<trkpt lat="50.62703" lon="4.046148"><ele>73.88</ele><time>2025-05-24T16:41:05Z</time></trkpt>
<trkpt lat="50.627186" lon="4.045274"><ele>79.61</ele><time>2025-05-24T16:41:11Z</time></trkpt>
<trkpt lat="50.627557" lon="4.043654"><ele>83.31</ele><time>2025-05-24T16:41:17Z</time></trkpt>
<trkpt lat="50.627601" lon="4.043165"><ele>85.51</ele><time>2025-05-24T16:41:23Z</time></trkpt>
<trkpt lat="50.627601" lon="4.041982"><ele>89.14</ele><time>2025-05-24T16:41:29Z</time></trkpt>
<trkpt lat="50.627683" lon="4.040993"><ele>88.68</ele><time>2025-05-24T16:41:35Z</time></trkpt>
<trkpt lat="50.627744" lon="4.040676"><ele>88.24</ele><time>2025-05-24T16:41:41Z</time></trkpt>
<trkpt lat="50.627829" lon="4.040355"><ele>88.59</ele><time>2025-05-24T16:41:47Z</time></trkpt>
<trkpt lat="50.628091" lon="4.039464"><ele>88.86</ele><time>2025-05-24T16:41:53Z</time></trkpt>
<trkpt lat="50.628456" lon="4.03838"><ele>89.39</ele><time>2025-05-24T16:41:59Z</time></trkpt>
<trkpt lat="50.628626" lon="4.037935"><ele>91.38</ele><time>2025-05-24T16:42:04Z</time></trkpt>
<trkpt lat="50.628803" lon="4.037528"><ele>91.31</ele><time>2025-05-24T16:42:10Z</time></trkpt>
<trkpt lat="50.629103" lon="4.037144"><ele>90.72</ele><time>2025-05-24T16:42:16Z</time></trkpt>
<trkpt lat="50.629349" lon="4.036933"><ele>90.0</ele><time>2025-05-24T16:42:22Z</time></trkpt>
<trkpt lat="50.629601" lon="4.036751"><ele>89.83</ele><time>2025-05-24T16:42:28Z</time></trkpt>
<trkpt lat="50.630361" lon="4.036282"><ele>92.68</ele><time>2025-05-24T16:42:34Z</time></trkpt>
<trkpt lat="50.630787" lon="4.03591"><ele>94.6</ele><time>2025-05-24T16:42:40Z</time></trkpt>
<trkpt lat="50.630889" lon="4.035771"><ele>95.2</ele><time>2025-05-24T16:42:46Z</time></trkpt>
<trkpt lat="50.631026" lon="4.035507"><ele>95.57</ele><time>2025-05-24T16:42:52Z</time></trkpt>
<trkpt lat="50.631123" lon="4.035265"><ele>95.0</ele><time>2025-05-24T16:42:58Z</time></trkpt>
<trkpt lat="50.631464" lon="4.034198"><ele>94.14</ele><time>2025-05-24T16:43:04Z</time></trkpt>
<trkpt lat="50.631824" lon="4.032738"><ele>98.82</ele><time>2025-05-24T16:43:10Z</time></trkpt>
<trkpt lat="50.631861" lon="4.032471"><ele>99.73</ele><time>2025-05-24T16:43:16Z</time></trkpt>
<trkpt lat="50.631865" lon="4.031358"><ele>100.71</ele><time>2025-05-24T16:43:22Z</time></trkpt>
<trkpt lat="50.631898" lon="4.031039"><ele>100.57</ele><time>2025-05-24T16:43:28Z</time></trkpt>
<trkpt lat="50.631952" lon="4.030863"><ele>100.11</ele><time>2025-05-24T16:43:33Z</time></trkpt>
<trkpt lat="50.632292" lon="4.030152"><ele>99.01</ele><time>2025-05-24T16:43:39Z</time></trkpt>
<trkpt lat="50.632324" lon="4.029992"><ele>99.44</ele><time>2025-05-24T16:43:45Z</time></trkpt>
<trkpt lat="50.632289" lon="4.028594"><ele>97.72</ele><time>2025-05-24T16:43:51Z</time></trkpt>
<trkpt lat="50.632264" lon="4.028298"><ele>97.58</ele><time>2025-05-24T16:43:57Z</time></trkpt>
<trkpt lat="50.632059" lon="4.027255"><ele>100.71</ele><time>2025-05-24T16:44:03Z</time></trkpt>
<trkpt lat="50.631846" lon="4.025675"><ele>103.64</ele><time>2025-05-24T16:44:09Z</time></trkpt>
<trkpt lat="50.631781" lon="4.025096"><ele>104.0</ele><time>2025-05-24T16:44:15Z</time></trkpt>
<trkpt lat="50.631663" lon="4.024788"><ele>104.74</ele><time>2025-05-24T16:44:21Z</time></trkpt>
<trkpt lat="50.630928" lon="4.023715"><ele>100.81</ele><time>2025-05-24T16:44:27Z</time></trkpt>
<trkpt lat="50.630743" lon="4.02329"><ele>99.68</ele><time>2025-05-24T16:44:33Z</time></trkpt>
<trkpt lat="50.630676" lon="4.023064"><ele>99.43</ele><time>2025-05-24T16:44:39Z</time></trkpt>
<trkpt lat="50.631025" lon="4.021693"><ele>101.69</ele><time>2025-05-24T16:44:43Z</time></trkpt>
<trkpt lat="50.631096" lon="4.021352"><ele>102.94</ele><time>2025-05-24T16:44:47Z</time></trkpt>
<trkpt lat="50.631179" lon="4.020798"><ele>104.82</ele><time>2025-05-24T16:44:51Z</time></trkpt>
<trkpt lat="50.631178" lon="4.020452"><ele>106.22</ele><time>2025-05-24T16:44:55Z</time></trkpt>
<trkpt lat="50.631055" lon="4.019672"><ele>108.19</ele><time>2025-05-24T16:44:59Z</time></trkpt>
<trkpt lat="50.631014" lon="4.019316"><ele>107.3</ele><time>2025-05-24T16:45:04Z</time></trkpt>
<trkpt lat="50.631005" lon="4.018867"><ele>106.8</ele><time>2025-05-24T16:45:08Z</time></trkpt>
<trkpt lat="50.631027" lon="4.018704"><ele>106.63</ele><time>2025-05-24T16:45:12Z</time></trkpt>
<trkpt lat="50.631096" lon="4.018734"><ele>107.31</ele><time>2025-05-24T16:45:12Z</time></trkpt>
<trkpt lat="50.631154" lon="4.018586"><ele>107.29</ele><time>2025-05-24T16:45:32Z</time></trkpt>
<trkpt lat="50.631064" lon="4.018086"><ele>105.77</ele><time>2025-05-24T16:45:52Z</time></trkpt>
<trkpt lat="50.631123" lon="4.017759"><ele>105.38</ele><time>2025-05-24T16:46:12Z</time></trkpt>
<trkpt lat="50.631123" lon="4.017759"><ele>105.38</ele><time>2025-05-24T16:46:12Z</time></trkpt>
<trkpt lat="50.631064" lon="4.018086"><ele>105.77</ele><time>2025-05-24T16:46:22Z</time></trkpt>
<trkpt lat="50.631154" lon="4.018586"><ele>107.29</ele><time>2025-05-24T16:46:33Z</time></trkpt>
<trkpt lat="50.631096" lon="4.018734"><ele>107.31</ele><time>2025-05-24T16:46:43Z</time></trkpt>
<trkpt lat="50.628992" lon="4.017764"><ele>96.39</ele><time>2025-05-24T16:46:49Z</time></trkpt>
<trkpt lat="50.627682" lon="4.017065"><ele>92.94</ele><time>2025-05-24T16:46:55Z</time></trkpt>
<trkpt lat="50.625398" lon="4.015506"><ele>78.58</ele><time>2025-05-24T16:47:01Z</time></trkpt>
<trkpt lat="50.624627" lon="4.015011"><ele>75.0</ele><time>2025-05-24T16:47:07Z</time></trkpt>
<trkpt lat="50.624235" lon="4.014792"><ele>74.99</ele><time>2025-05-24T16:47:13Z</time></trkpt>
<trkpt lat="50.623373" lon="4.014416"><ele>70.39</ele><time>2025-05-24T16:47:19Z</time></trkpt>
<trkpt lat="50.621911" lon="4.013639"><ele>66.0</ele><time>2025-05-24T16:47:25Z</time></trkpt>
<trkpt lat="50.620975" lon="4.013185"><ele>70.51</ele><time>2025-05-24T16:47:31Z</time></trkpt>
<trkpt lat="50.620014" lon="4.01276"><ele>75.9</ele><time>2025-05-24T16:47:37Z</time></trkpt>
<trkpt lat="50.619097" lon="4.012384"><ele>79.75</ele><time>2025-05-24T16:47:43Z</time></trkpt>
<trkpt lat="50.61886" lon="4.012258"><ele>79.0</ele><time>2025-05-24T16:47:50Z</time></trkpt>
<trkpt lat="50.617774" lon="4.011549"><ele>81.01</ele><time>2025-05-24T16:47:56Z</time></trkpt>
<trkpt lat="50.617312" lon="4.011276"><ele>82.0</ele><time>2025-05-24T16:48:02Z</time></trkpt>
<trkpt lat="50.614591" lon="4.009756"><ele>86.88</ele><time>2025-05-24T16:48:08Z</time></trkpt>
<trkpt lat="50.613433" lon="4.009166"><ele>85.36</ele><time>2025-05-24T16:48:14Z</time></trkpt>
<trkpt lat="50.612265" lon="4.008537"><ele>90.84</ele><time>2025-05-24T16:48:20Z</time></trkpt>
<trkpt lat="50.611996" lon="4.008433"><ele>92.63</ele><time>2025-05-24T16:48:26Z</time></trkpt>
<trkpt lat="50.612071" lon="4.008218"><ele>92.51</ele><time>2025-05-24T16:48:32Z</time></trkpt>
<trkpt lat="50.612389" lon="4.00755"><ele>92.22</ele><time>2025-05-24T16:48:39Z</time></trkpt>
<trkpt lat="50.612453" lon="4.007322"><ele>92.81</ele><time>2025-05-24T16:48:45Z</time></trkpt>
<trkpt lat="50.612466" lon="4.007133"><ele>93.12</ele><time>2025-05-24T16:48:52Z</time></trkpt>
<trkpt lat="50.612422" lon="4.006693"><ele>93.28</ele><time>2025-05-24T16:48:58Z</time></trkpt>
<trkpt lat="50.612339" lon="4.006222"><ele>94.83</ele><time>2025-05-24T16:49:05Z</time></trkpt>
<trkpt lat="50.612221" lon="4.005864"><ele>95.89</ele><time>2025-05-24T16:49:11Z</time></trkpt>
<trkpt lat="50.611986" lon="4.005299"><ele>96.15</ele><time>2025-05-24T16:49:18Z</time></trkpt>
<trkpt lat="50.611914" lon="4.005034"><ele>96.11</ele><time>2025-05-24T16:49:24Z</time></trkpt>
<trkpt lat="50.61169" lon="4.003712"><ele>94.64</ele><time>2025-05-24T16:49:30Z</time></trkpt>
<trkpt lat="50.611539" lon="4.003139"><ele>92.22</ele><time>2025-05-24T16:49:37Z</time></trkpt>
<trkpt lat="50.611111" lon="4.001436"><ele>93.83</ele><time>2025-05-24T16:49:43Z</time></trkpt>
<trkpt lat="50.611039" lon="4.001025"><ele>93.79</ele><time>2025-05-24T16:49:50Z</time></trkpt>
<trkpt lat="50.610875" lon="3.999472"><ele>93.85</ele><time>2025-05-24T16:49:56Z</time></trkpt>
<trkpt lat="50.610494" lon="3.997901"><ele>92.22</ele><time>2025-05-24T16:50:03Z</time></trkpt>
<trkpt lat="50.61042" lon="3.997469"><ele>93.49</ele><time>2025-05-24T16:50:09Z</time></trkpt>
<trkpt lat="50.610378" lon="3.99688"><ele>94.64</ele><time>2025-05-24T16:50:16Z</time></trkpt>
<trkpt lat="50.610352" lon="3.995185"><ele>93.26</ele><time>2025-05-24T16:50:22Z</time></trkpt>
<trkpt lat="50.610359" lon="3.994841"><ele>92.72</ele><time>2025-05-24T16:50:28Z</time></trkpt>
<trkpt lat="50.610428" lon="3.993669"><ele>91.97</ele><time>2025-05-24T16:50:35Z</time></trkpt>
<trkpt lat="50.610451" lon="3.993656"><ele>92.11</ele><time>2025-05-24T16:50:35Z</time></trkpt>
<trkpt lat="50.610451" lon="3.993656"><ele>92.11</ele><time>2025-05-24T16:50:35Z</time></trkpt>
<trkpt lat="50.610428" lon="3.993669"><ele>91.97</ele><time>2025-05-24T16:50:35Z</time></trkpt>
<trkpt lat="50.610461" lon="3.989465"><ele>92.95</ele><time>2025-05-24T16:50:44Z</time></trkpt>
<trkpt lat="50.610405" lon="3.987499"><ele>93.09</ele><time>2025-05-24T16:50:53Z</time></trkpt>
<trkpt lat="50.610363" lon="3.987025"><ele>94.09</ele><time>2025-05-24T16:51:01Z</time></trkpt>
<trkpt lat="50.610329" lon="3.986805"><ele>95.13</ele><time>2025-05-24T16:51:10Z</time></trkpt>
<trkpt lat="50.610222" lon="3.986443"><ele>96.16</ele><time>2025-05-24T16:51:19Z</time></trkpt>
<trkpt lat="50.610079" lon="3.986168"><ele>96.71</ele><time>2025-05-24T16:51:28Z</time></trkpt>
<trkpt lat="50.608362" lon="3.983607"><ele>96.1</ele><time>2025-05-24T16:51:36Z</time></trkpt>
<trkpt lat="50.60825" lon="3.983215"><ele>95.53</ele><time>2025-05-24T16:51:45Z</time></trkpt>
<trkpt lat="50.607953" lon="3.981831"><ele>97.0</ele><time>2025-05-24T16:51:54Z</time></trkpt>
<trkpt lat="50.607914" lon="3.981525"><ele>96.49</ele><time>2025-05-24T16:52:02Z</time></trkpt>
<trkpt lat="50.607894" lon="3.981105"><ele>95.98</ele><time>2025-05-24T16:52:11Z</time></trkpt>
<trkpt lat="50.607881" lon="3.977672"><ele>92.26</ele><time>2025-05-24T16:52:20Z</time></trkpt>
<trkpt lat="50.607836" lon="3.974725"><ele>84.59</ele><time>2025-05-24T16:52:28Z</time></trkpt>
<trkpt lat="50.607886" lon="3.972444"><ele>79.0</ele><time>2025-05-24T16:52:37Z</time></trkpt>
<trkpt lat="50.608004" lon="3.971547"><ele>78.0</ele><time>2025-05-24T16:52:46Z</time></trkpt>
<trkpt lat="50.608" lon="3.971231"><ele>78.0</ele><time>2025-05-24T16:52:55Z</time></trkpt>
<trkpt lat="50.607958" lon="3.970886"><ele>78.53</ele><time>2025-05-24T16:53:03Z</time></trkpt>
<trkpt lat="50.607849" lon="3.970498"><ele>78.46</ele><time>2025-05-24T16:53:12Z</time></trkpt>
<trkpt lat="50.607147" lon="3.968673"><ele>77.5</ele><time>2025-05-24T16:53:21Z</time></trkpt>
<trkpt lat="50.607002" lon="3.968163"><ele>76.66</ele><time>2025-05-24T16:53:29Z</time></trkpt>
<trkpt lat="50.606957" lon="3.967914"><ele>76.91</ele><time>2025-05-24T16:53:38Z</time></trkpt>
<trkpt lat="50.606803" lon="3.966594"><ele>74.61</ele><time>2025-05-24T16:53:47Z</time></trkpt>
<trkpt lat="50.606647" lon="3.965588"><ele>72.25</ele><time>2025-05-24T16:53:55Z</time></trkpt>
<trkpt lat="50.606526" lon="3.964648"><ele>71.64</ele><time>2025-05-24T16:54:04Z</time></trkpt>
<trkpt lat="50.606498" lon="3.964429"><ele>72.06</ele><time>2025-05-24T16:54:13Z</time></trkpt>
<trkpt lat="50.606415" lon="3.96412"><ele>73.15</ele><time>2025-05-24T16:54:21Z</time></trkpt>
<trkpt lat="50.606159" lon="3.963619"><ele>73.57</ele><time>2025-05-24T16:54:30Z</time></trkpt>
<trkpt lat="50.606159" lon="3.963619"><ele>73.57</ele><time>2025-05-24T16:54:30Z</time></trkpt>
<trkpt lat="50.606157" lon="3.963615"><ele>73.99</ele><time>2025-05-24T16:54:30Z</time></trkpt>
<trkpt lat="50.606702" lon="3.961893"><ele>76.0</ele><time>2025-05-24T16:54:36Z</time></trkpt>
<trkpt lat="50.606835" lon="3.961582"><ele>75.69</ele><time>2025-05-24T16:54:41Z</time></trkpt>
<trkpt lat="50.607014" lon="3.961286"><ele>75.25</ele><time>2025-05-24T16:54:47Z</time></trkpt>
<trkpt lat="50.607329" lon="3.96109"><ele>75.6</ele><time>2025-05-24T16:54:53Z</time></trkpt>
<trkpt lat="50.607648" lon="3.960959"><ele>75.55</ele><time>2025-05-24T16:54:58Z</time></trkpt>
<trkpt lat="50.608214" lon="3.960818"><ele>76.43</ele><time>2025-05-24T16:55:04Z</time></trkpt>
<trkpt lat="50.608643" lon="3.960532"><ele>77.08</ele><time>2025-05-24T16:55:10Z</time></trkpt>
<trkpt lat="50.608765" lon="3.960401"><ele>77.56</ele><time>2025-05-24T16:55:15Z</time></trkpt>
<trkpt lat="50.608868" lon="3.960243"><ele>78.0</ele><time>2025-05-24T16:55:21Z</time></trkpt>
<trkpt lat="50.609223" lon="3.959297"><ele>78.14</ele><time>2025-05-24T16:55:26Z</time></trkpt>
<trkpt lat="50.609659" lon="3.958348"><ele>82.77</ele><time>2025-05-24T16:55:32Z</time></trkpt>
<trkpt lat="50.609822" lon="3.958034"><ele>84.71</ele><time>2025-05-24T16:55:38Z</time></trkpt>
<trkpt lat="50.610074" lon="3.957466"><ele>87.27</ele><time>2025-05-24T16:55:43Z</time></trkpt>
<trkpt lat="50.610441" lon="3.956764"><ele>92.09</ele><time>2025-05-24T16:55:49Z</time></trkpt>
<trkpt lat="50.610946" lon="3.95572"><ele>97.4</ele><time>2025-05-24T16:55:54Z</time></trkpt>
<trkpt lat="50.611285" lon="3.955097"><ele>100.28</ele><time>2025-05-24T16:56:00Z</time></trkpt>
<trkpt lat="50.611288" lon="3.955101"><ele>100.17</ele><time>2025-05-24T16:56:00Z</time></trkpt>
<trkpt lat="50.611288" lon="3.955101"><ele>100.17</ele><time>2025-05-24T16:56:00Z</time></trkpt>
<trkpt lat="50.611401" lon="3.955273"><ele>100.06</ele><time>2025-05-24T16:56:05Z</time></trkpt>
<trkpt lat="50.61171" lon="3.955871"><ele>98.67</ele><time>2025-05-24T16:56:10Z</time></trkpt>
<trkpt lat="50.612172" lon="3.956784"><ele>93.28</ele><time>2025-05-24T16:56:15Z</time></trkpt>
<trkpt lat="50.612714" lon="3.958214"><ele>90.96</ele><time>2025-05-24T16:56:20Z</time></trkpt>
<trkpt lat="50.613036" lon="3.959075"><ele>86.14</ele><time>2025-05-24T16:56:25Z</time></trkpt>
<trkpt lat="50.613177" lon="3.959407"><ele>84.21</ele><time>2025-05-24T16:56:30Z</time></trkpt>
<trkpt lat="50.613366" lon="3.959792"><ele>82.85</ele><time>2025-05-24T16:56:34Z</time></trkpt>
<trkpt lat="50.614046" lon="3.960775"><ele>78.64</ele><time>2025-05-24T16:56:39Z</time></trkpt>
<trkpt lat="50.614196" lon="3.961074"><ele>77.13</ele><time>2025-05-24T16:56:44Z</time></trkpt>
<trkpt lat="50.614393" lon="3.961578"><ele>75.5</ele><time>2025-05-24T16:56:49Z</time></trkpt>
<trkpt lat="50.614751" lon="3.9626"><ele>74.71</ele><time>2025-05-24T16:56:54Z</time></trkpt>
<trkpt lat="50.614921" lon="3.962943"><ele>76.19</ele><time>2025-05-24T16:56:59Z</time></trkpt>
<trkpt lat="50.615229" lon="3.963493"><ele>80.4</ele><time>2025-05-24T16:57:04Z</time></trkpt>
<trkpt lat="50.618021" lon="3.96816"><ele>97.93</ele><time>2025-05-24T16:57:09Z</time></trkpt>
<trkpt lat="50.618097" lon="3.968122"><ele>98.39</ele><time>2025-05-24T16:57:32Z</time></trkpt>
<trkpt lat="50.6185" lon="3.967221"><ele>98.59</ele><time>2025-05-24T16:57:54Z</time></trkpt>
<trkpt lat="50.618701" lon="3.966617"><ele>97.96</ele><time>2025-05-24T16:58:17Z</time></trkpt>
<trkpt lat="50.618879" lon="3.965857"><ele>93.18</ele><time>2025-05-24T16:58:40Z</time></trkpt>
<trkpt lat="50.619058" lon="3.965301"><ele>90.33</ele><time>2025-05-24T16:59:03Z</time></trkpt>
<trkpt lat="50.619397" lon="3.964679"><ele>93.49</ele><time>2025-05-24T16:59:25Z</time></trkpt>
<trkpt lat="50.619465" lon="3.964455"><ele>94.53</ele><time>2025-05-24T16:59:48Z</time></trkpt>
<trkpt lat="50.619465" lon="3.964455"><ele>94.53</ele><time>2025-05-24T16:59:48Z</time></trkpt>
<trkpt lat="50.619397" lon="3.964679"><ele>93.49</ele><time>2025-05-24T17:00:07Z</time></trkpt>
<trkpt lat="50.619058" lon="3.965301"><ele>90.33</ele><time>2025-05-24T17:00:25Z</time></trkpt>
<trkpt lat="50.618879" lon="3.965857"><ele>93.18</ele><time>2025-05-24T17:00:43Z</time></trkpt>
<trkpt lat="50.618701" lon="3.966617"><ele>97.96</ele><time>2025-05-24T17:01:02Z</time></trkpt>
<trkpt lat="50.6185" lon="3.967221"><ele>98.59</ele><time>2025-05-24T17:01:20Z</time></trkpt>
<trkpt lat="50.618097" lon="3.968122"><ele>98.39</ele><time>2025-05-24T17:01:39Z</time></trkpt>
<trkpt lat="50.618021" lon="3.96816"><ele>97.93</ele><time>2025-05-24T17:01:57Z</time></trkpt>
<trkpt lat="50.615229" lon="3.963493"><ele>80.4</ele><time>2025-05-24T17:02:02Z</time></trkpt>
<trkpt lat="50.614921" lon="3.962943"><ele>76.19</ele><time>2025-05-24T17:02:07Z</time></trkpt>
<trkpt lat="50.614751" lon="3.9626"><ele>74.71</ele><time>2025-05-24T17:02:12Z</time></trkpt>
<trkpt lat="50.614393" lon="3.961578"><ele>75.5</ele><time>2025-05-24T17:02:16Z</time></trkpt>
<trkpt lat="50.614196" lon="3.961074"><ele>77.13</ele><time>2025-05-24T17:02:21Z</time></trkpt>
<trkpt lat="50.614046" lon="3.960775"><ele>78.64</ele><time>2025-05-24T17:02:26Z</time></trkpt>
<trkpt lat="50.613366" lon="3.959792"><ele>82.85</ele><time>2025-05-24T17:02:31Z</time></trkpt>
<trkpt lat="50.613177" lon="3.959407"><ele>84.21</ele><time>2025-05-24T17:02:36Z</time></trkpt>
<trkpt lat="50.613036" lon="3.959075"><ele>86.14</ele><time>2025-05-24T17:02:40Z</time></trkpt>
<trkpt lat="50.612714" lon="3.958214"><ele>90.96</ele><time>2025-05-24T17:02:45Z</time></trkpt>
<trkpt lat="50.612172" lon="3.956784"><ele>93.28</ele><time>2025-05-24T17:02:50Z</time></trkpt>
<trkpt lat="50.61171" lon="3.955871"><ele>98.67</ele><time>2025-05-24T17:02:55Z</time></trkpt>
<trkpt lat="50.611401" lon="3.955273"><ele>100.06</ele><time>2025-05-24T17:03:00Z</time></trkpt>
<trkpt lat="50.611285" lon="3.955097"><ele>100.28</ele><time>2025-05-24T17:03:04Z</time></trkpt>
<trkpt lat="50.611106" lon="3.954883"><ele>100.4</ele><time>2025-05-24T17:03:09Z</time></trkpt>
<trkpt lat="50.610687" lon="3.954495"><ele>99.9</ele><time>2025-05-24T17:03:14Z</time></trkpt>
<trkpt lat="50.61026" lon="3.95421"><ele>97.09</ele><time>2025-05-24T17:03:19Z</time></trkpt>
<trkpt lat="50.609556" lon="3.953852"><ele>92.51</ele><time>2025-05-24T17:03:24Z</time></trkpt>
<trkpt lat="50.609153" lon="3.95376"><ele>90.47</ele><time>2025-05-24T17:03:28Z</time></trkpt>
<trkpt lat="50.608825" lon="3.953716"><ele>90.38</ele><time>2025-05-24T17:03:33Z</time></trkpt>
<trkpt lat="50.607116" lon="3.953877"><ele>87.55</ele><time>2025-05-24T17:03:38Z</time></trkpt>
<trkpt lat="50.606611" lon="3.953848"><ele>87.06</ele><time>2025-05-24T17:03:43Z</time></trkpt>
<trkpt lat="50.606585" lon="3.953647"><ele>86.42</ele><time>2025-05-24T17:03:48Z</time></trkpt>
<trkpt lat="50.606356" lon="3.952489"><ele>82.85</ele><time>2025-05-24T17:03:53Z</time></trkpt>
<trkpt lat="50.606156" lon="3.951914"><ele>79.87</ele><time>2025-05-24T17:03:59Z</time></trkpt>
<trkpt lat="50.605681" lon="3.951085"><ele>77.26</ele><time>2025-05-24T17:04:04Z</time></trkpt>
<trkpt lat="50.605154" lon="3.9494"><ele>73.13</ele><time>2025-05-24T17:04:10Z</time></trkpt>
<trkpt lat="50.604925" lon="3.948548"><ele>70.94</ele><time>2025-05-24T17:04:15Z</time></trkpt>
<trkpt lat="50.60481" lon="3.947839"><ele>71.85</ele><time>2025-05-24T17:04:20Z</time></trkpt>
<trkpt lat="50.604799" lon="3.946832"><ele>73.0</ele><time>2025-05-24T17:04:26Z</time></trkpt>
<trkpt lat="50.604806" lon="3.9457"><ele>76.33</ele><time>2025-05-24T17:04:31Z</time></trkpt>
<trkpt lat="50.604772" lon="3.945087"><ele>78.68</ele><time>2025-05-24T17:04:36Z</time></trkpt>
<trkpt lat="50.604719" lon="3.944752"><ele>78.99</ele><time>2025-05-24T17:04:42Z</time></trkpt>
<trkpt lat="50.604632" lon="3.944426"><ele>78.74</ele><time>2025-05-24T17:04:47Z</time></trkpt>
<trkpt lat="50.604383" lon="3.943888"><ele>78.56</ele><time>2025-05-24T17:04:52Z</time></trkpt>
<trkpt lat="50.604033" lon="3.943308"><ele>78.61</ele><time>2025-05-24T17:04:58Z</time></trkpt>
<trkpt lat="50.603572" lon="3.942594"><ele>77.24</ele><time>2025-05-24T17:05:03Z</time></trkpt>
<trkpt lat="50.603153" lon="3.941998"><ele>76.54</ele><time>2025-05-24T17:05:08Z</time></trkpt>
<trkpt lat="50.602162" lon="3.940959"><ele>73.0</ele><time>2025-05-24T17:05:14Z</time></trkpt>
<trkpt lat="50.601551" lon="3.939984"><ele>69.0</ele><time>2025-05-24T17:05:19Z</time></trkpt>
<trkpt lat="50.601082" lon="3.939358"><ele>68.82</ele><time>2025-05-24T17:05:24Z</time></trkpt>
<trkpt lat="50.600927" lon="3.939198"><ele>68.26</ele><time>2025-05-24T17:05:30Z</time></trkpt>
<trkpt lat="50.600829" lon="3.939149"><ele>67.99</ele><time>2025-05-24T17:05:35Z</time></trkpt>
<trkpt lat="50.60075" lon="3.939159"><ele>67.71</ele><time>2025-05-24T17:05:41Z</time></trkpt>
<trkpt lat="50.600676" lon="3.939219"><ele>67.24</ele><time>2025-05-24T17:05:46Z</time></trkpt>
<trkpt lat="50.600599" lon="3.939327"><ele>66.58</ele><time>2025-05-24T17:05:51Z</time></trkpt>
<trkpt lat="50.600242" lon="3.940002"><ele>67.13</ele><time>2025-05-24T17:05:57Z</time></trkpt>
<trkpt lat="50.6002" lon="3.940047"><ele>67.28</ele><time>2025-05-24T17:06:02Z</time></trkpt>
<trkpt lat="50.600136" lon="3.940051"><ele>67.51</ele><time>2025-05-24T17:06:07Z</time></trkpt>
<trkpt lat="50.60008" lon="3.940015"><ele>67.71</ele><time>2025-05-24T17:06:13Z</time></trkpt>
<trkpt lat="50.599686" lon="3.939355"><ele>69.11</ele><time>2025-05-24T17:06:18Z</time></trkpt>
<trkpt lat="50.599527" lon="3.938965"><ele>68.17</ele><time>2025-05-24T17:06:23Z</time></trkpt>
<trkpt lat="50.599446" lon="3.938721"><ele>66.79</ele><time>2025-05-24T17:06:29Z</time></trkpt>
<trkpt lat="50.599422" lon="3.938588"><ele>65.83</ele><time>2025-05-24T17:06:34Z</time></trkpt>
<trkpt lat="50.599452" lon="3.938444"><ele>65.44</ele><time>2025-05-24T17:06:39Z</time></trkpt>
<trkpt lat="50.599737" lon="3.937904"><ele>67.05</ele><time>2025-05-24T17:06:45Z</time></trkpt>
<trkpt lat="50.601789" lon="3.934372"><ele>73.65</ele><time>2025-05-24T17:06:50Z</time></trkpt>
<trkpt lat="50.602114" lon="3.93335"><ele>75.94</ele><time>2025-05-24T17:06:55Z</time></trkpt>
<trkpt lat="50.602331" lon="3.932894"><ele>75.39</ele><time>2025-05-24T17:07:01Z</time></trkpt>
<trkpt lat="50.602169" lon="3.932665"><ele>75.25</ele><time>2025-05-24T17:07:04Z</time></trkpt>
<trkpt lat="50.602937" lon="3.931053"><ele>82.78</ele><time>2025-05-24T17:07:15Z</time></trkpt>
<trkpt lat="50.603621" lon="3.929538"><ele>92.66</ele><time>2025-05-24T17:07:27Z</time></trkpt>
<trkpt lat="50.604554" lon="3.927858"><ele>90.81</ele><time>2025-05-24T17:07:38Z</time></trkpt>
<trkpt lat="50.604956" lon="3.927192"><ele>88.77</ele><time>2025-05-24T17:07:49Z</time></trkpt>
<trkpt lat="50.605464" lon="3.926428"><ele>92.48</ele><time>2025-05-24T17:08:00Z</time></trkpt>
<trkpt lat="50.605838" lon="3.925916"><ele>94.8</ele><time>2025-05-24T17:08:11Z</time></trkpt>
<trkpt lat="50.605838" lon="3.925916"><ele>94.8</ele><time>2025-05-24T17:08:11Z</time></trkpt>
<trkpt lat="50.605948" lon="3.9258"><ele>94.71</ele><time>2025-05-24T17:08:20Z</time></trkpt>
<trkpt lat="50.609266" lon="3.924259"><ele>79.52</ele><time>2025-05-24T17:08:28Z</time></trkpt>
<trkpt lat="50.610772" lon="3.923614"><ele>70.46</ele><time>2025-05-24T17:08:37Z</time></trkpt>
<trkpt lat="50.610908" lon="3.92366"><ele>70.62</ele><time>2025-05-24T17:08:45Z</time></trkpt>
<trkpt lat="50.61097" lon="3.923711"><ele>71.21</ele><time>2025-05-24T17:08:54Z</time></trkpt>
<trkpt lat="50.614467" lon="3.927901"><ele>65.16</ele><time>2025-05-24T17:09:02Z</time></trkpt>
<trkpt lat="50.614697" lon="3.928117"><ele>66.61</ele><time>2025-05-24T17:09:11Z</time></trkpt>
<trkpt lat="50.615791" lon="3.928583"><ele>64.01</ele><time>2025-05-24T17:09:19Z</time></trkpt>
<trkpt lat="50.616019" lon="3.928674"><ele>63.92</ele><time>2025-05-24T17:09:27Z</time></trkpt>
<trkpt lat="50.616201" lon="3.928697"><ele>64.22</ele><time>2025-05-24T17:09:36Z</time></trkpt>
<trkpt lat="50.616505" lon="3.928611"><ele>64.58</ele><time>2025-05-24T17:09:44Z</time></trkpt>
<trkpt lat="50.61662" lon="3.928524"><ele>64.22</ele><time>2025-05-24T17:09:53Z</time></trkpt>
<trkpt lat="50.616747" lon="3.928336"><ele>64.0</ele><time>2025-05-24T17:10:01Z</time></trkpt>
<trkpt lat="50.616844" lon="3.928112"><ele>64.51</ele><time>2025-05-24T17:10:10Z</time></trkpt>
<trkpt lat="50.617091" lon="3.927256"><ele>68.05</ele><time>2025-05-24T17:10:18Z</time></trkpt>
<trkpt lat="50.617194" lon="3.927117"><ele>68.42</ele><time>2025-05-24T17:10:27Z</time></trkpt>
<trkpt lat="50.617299" lon="3.927084"><ele>68.78</ele><time>2025-05-24T17:10:35Z</time></trkpt>
<trkpt lat="50.617427" lon="3.927117"><ele>69.36</ele><time>2025-05-24T17:10:43Z</time></trkpt>
<trkpt lat="50.617536" lon="3.927186"><ele>69.75</ele><time>2025-05-24T17:10:52Z</time></trkpt>
<trkpt lat="50.618216" lon="3.927821"><ele>70.09</ele><time>2025-05-24T17:11:00Z</time></trkpt>
<trkpt lat="50.618226" lon="3.927735"><ele>69.94</ele><time>2025-05-24T17:11:05Z</time></trkpt>
<trkpt lat="50.6183" lon="3.927504"><ele>69.88</ele><time>2025-05-24T17:11:10Z</time></trkpt>
<trkpt lat="50.618482" lon="3.927069"><ele>70.54</ele><time>2025-05-24T17:11:15Z</time></trkpt>
<trkpt lat="50.618817" lon="3.926445"><ele>70.05</ele><time>2025-05-24T17:11:19Z</time></trkpt>
<trkpt lat="50.6192" lon="3.925484"><ele>68.06</ele><time>2025-05-24T17:11:24Z</time></trkpt>
<trkpt lat="50.6192" lon="3.925484"><ele>68.06</ele><time>2025-05-24T17:11:24Z</time></trkpt>
<trkpt lat="50.61936" lon="3.924954"><ele>67.35</ele><time>2025-05-24T17:11:28Z</time></trkpt>
<trkpt lat="50.619467" lon="3.924174"><ele>67.89</ele><time>2025-05-24T17:11:31Z</time></trkpt>
<trkpt lat="50.61955" lon="3.923779"><ele>67.47</ele><time>2025-05-24T17:11:35Z</time></trkpt>
<trkpt lat="50.619635" lon="3.923508"><ele>66.63</ele><time>2025-05-24T17:11:39Z</time></trkpt>
<trkpt lat="50.619742" lon="3.923247"><ele>65.61</ele><time>2025-05-24T17:11:43Z</time></trkpt>
<trkpt lat="50.620064" lon="3.922582"><ele>62.46</ele><time>2025-05-24T17:11:46Z</time></trkpt>
<trkpt lat="50.620165" lon="3.92231"><ele>62.31</ele><time>2025-05-24T17:11:50Z</time></trkpt>
<trkpt lat="50.620235" lon="3.92204"><ele>62.79</ele><time>2025-05-24T17:11:54Z</time></trkpt>
<trkpt lat="50.620252" lon="3.921774"><ele>62.91</ele><time>2025-05-24T17:11:57Z</time></trkpt>
<trkpt lat="50.620215" lon="3.921196"><ele>64.85</ele><time>2025-05-24T17:12:01Z</time></trkpt>
<trkpt lat="50.620161" lon="3.920972"><ele>65.34</ele><time>2025-05-24T17:12:05Z</time></trkpt>
<trkpt lat="50.620047" lon="3.920777"><ele>66.49</ele><time>2025-05-24T17:12:09Z</time></trkpt>
<trkpt lat="50.619812" lon="3.920512"><ele>65.34</ele><time>2025-05-24T17:12:12Z</time></trkpt>
<trkpt lat="50.619485" lon="3.920262"><ele>63.8</ele><time>2025-05-24T17:12:16Z</time></trkpt>
<trkpt lat="50.61942" lon="3.919691"><ele>61.98</ele><time>2025-05-24T17:12:24Z</time></trkpt>
<trkpt lat="50.619427" lon="3.919622"><ele>61.7</ele><time>2025-05-24T17:12:31Z</time></trkpt>
<trkpt lat="50.619797" lon="3.918475"><ele>62.67</ele><time>2025-05-24T17:12:39Z</time></trkpt>
<trkpt lat="50.620009" lon="3.918079"><ele>63.2</ele><time>2025-05-24T17:12:47Z</time></trkpt>
<trkpt lat="50.620922" lon="3.916573"><ele>65.64</ele><time>2025-05-24T17:12:54Z</time></trkpt>
<trkpt lat="50.621505" lon="3.915633"><ele>62.28</ele><time>2025-05-24T17:13:02Z</time></trkpt>
<trkpt lat="50.621725" lon="3.915319"><ele>61.69</ele><time>2025-05-24T17:13:09Z</time></trkpt>
<trkpt lat="50.624729" lon="3.911512"><ele>56.96</ele><time>2025-05-24T17:13:17Z</time></trkpt>
<trkpt lat="50.62542" lon="3.910667"><ele>58.02</ele><time>2025-05-24T17:13:25Z</time></trkpt>
<trkpt lat="50.625479" lon="3.9105"><ele>58.25</ele><time>2025-05-24T17:13:32Z</time></trkpt>
<trkpt lat="50.625514" lon="3.910285"><ele>57.73</ele><time>2025-05-24T17:13:40Z</time></trkpt>
<trkpt lat="50.625557" lon="3.909534"><ele>57.01</ele><time>2025-05-24T17:13:48Z</time></trkpt>
<trkpt lat="50.625535" lon="3.909293"><ele>57.44</ele><time>2025-05-24T17:13:55Z</time></trkpt>
<trkpt lat="50.625491" lon="3.909054"><ele>57.86</ele><time>2025-05-24T17:14:03Z</time></trkpt>
<trkpt lat="50.624843" lon="3.907481"><ele>59.43</ele><time>2025-05-24T17:14:10Z</time></trkpt>
<trkpt lat="50.624758" lon="3.907155"><ele>59.37</ele><time>2025-05-24T17:14:18Z</time></trkpt>
<trkpt lat="50.624727" lon="3.906847"><ele>60.36</ele><time>2025-05-24T17:14:26Z</time></trkpt>
<trkpt lat="50.624782" lon="3.905974"><ele>61.4</ele><time>2025-05-24T17:14:33Z</time></trkpt>
<trkpt lat="50.624811" lon="3.905856"><ele>61.05</ele><time>2025-05-24T17:14:41Z</time></trkpt>
<trkpt lat="50.623537" lon="3.904645"><ele>59.0</ele><time>2025-05-24T17:14:44Z</time></trkpt>
<trkpt lat="50.623294" lon="3.904358"><ele>59.04</ele><time>2025-05-24T17:14:48Z</time></trkpt>
<trkpt lat="50.623108" lon="3.904067"><ele>59.81</ele><time>2025-05-24T17:14:51Z</time></trkpt>
<trkpt lat="50.622978" lon="3.903825"><ele>59.55</ele><time>2025-05-24T17:14:54Z</time></trkpt>
<trkpt lat="50.622806" lon="3.903434"><ele>59.0</ele><time>2025-05-24T17:14:58Z</time></trkpt>
<trkpt lat="50.622711" lon="3.903137"><ele>59.0</ele><time>2025-05-24T17:15:01Z</time></trkpt>
<trkpt lat="50.622545" lon="3.902415"><ele>59.0</ele><time>2025-05-24T17:15:05Z</time></trkpt>
<trkpt lat="50.622438" lon="3.902074"><ele>59.0</ele><time>2025-05-24T17:15:08Z</time></trkpt>
<trkpt lat="50.622316" lon="3.901796"><ele>59.0</ele><time>2025-05-24T17:15:11Z</time></trkpt>
<trkpt lat="50.621114" lon="3.899636"><ele>59.0</ele><time>2025-05-24T17:15:15Z</time></trkpt>
<trkpt lat="50.620202" lon="3.898034"><ele>58.0</ele><time>2025-05-24T17:15:18Z</time></trkpt>
<trkpt lat="50.619514" lon="3.897064"><ele>59.0</ele><time>2025-05-24T17:15:21Z</time></trkpt>
<trkpt lat="50.619351" lon="3.896742"><ele>58.66</ele><time>2025-05-24T17:15:25Z</time></trkpt>
<trkpt lat="50.619226" lon="3.896446"><ele>58.38</ele><time>2025-05-24T17:15:28Z</time></trkpt>
<trkpt lat="50.618607" lon="3.894677"><ele>55.0</ele><time>2025-05-24T17:15:32Z</time></trkpt>
<trkpt lat="50.618489" lon="3.894383"><ele>55.0</ele><time>2025-05-24T17:15:35Z</time></trkpt>
<trkpt lat="50.618299" lon="3.893976"><ele>54.88</ele><time>2025-05-24T17:15:38Z</time></trkpt>
<trkpt lat="50.618011" lon="3.893474"><ele>55.0</ele><time>2025-05-24T17:15:42Z</time></trkpt>
<trkpt lat="50.618378" lon="3.893298"><ele>54.28</ele><time>2025-05-24T17:15:46Z</time></trkpt>
<trkpt lat="50.620233" lon="3.892549"><ele>60.81</ele><time>2025-05-24T17:15:50Z</time></trkpt>
<trkpt lat="50.62039" lon="3.892524"><ele>61.0</ele><time>2025-05-24T17:15:54Z</time></trkpt>
<trkpt lat="50.620699" lon="3.89254"><ele>61.0</ele><time>2025-05-24T17:15:58Z</time></trkpt>
<trkpt lat="50.620667" lon="3.892402"><ele>61.0</ele><time>2025-05-24T17:16:24Z</time></trkpt>
<trkpt lat="50.620386" lon="3.891842"><ele>61.0</ele><time>2025-05-24T17:16:49Z</time></trkpt>
<trkpt lat="50.620253" lon="3.891469"><ele>60.97</ele><time>2025-05-24T17:17:15Z</time></trkpt>
<trkpt lat="50.619692" lon="3.889227"><ele>61.67</ele><time>2025-05-24T17:17:41Z</time></trkpt>
<trkpt lat="50.61963" lon="3.888933"><ele>61.95</ele><time>2025-05-24T17:18:07Z</time></trkpt>
<trkpt lat="50.61956" lon="3.888543"><ele>63.0</ele><time>2025-05-24T17:18:33Z</time></trkpt>
<trkpt lat="50.619526" lon="3.887984"><ele>64.0</ele><time>2025-05-24T17:18:59Z</time></trkpt>
<trkpt lat="50.619527" lon="3.886442"><ele>65.11</ele><time>2025-05-24T17:19:25Z</time></trkpt>
<trkpt lat="50.619323" lon="3.885142"><ele>66.78</ele><time>2025-05-24T17:19:51Z</time></trkpt>
<trkpt lat="50.619256" lon="3.884508"><ele>68.0</ele><time>2025-05-24T17:20:17Z</time></trkpt>
<trkpt lat="50.619207" lon="3.8843"><ele>68.0</ele><time>2025-05-24T17:20:42Z</time></trkpt>
<trkpt lat="50.619207" lon="3.8843"><ele>68.0</ele><time>2025-05-24T17:20:42Z</time></trkpt>
<trkpt lat="50.619176" lon="3.884208"><ele>68.0</ele><time>2025-05-24T17:21:05Z</time></trkpt>
<trkpt lat="50.618664" lon="3.883421"><ele>65.38</ele><time>2025-05-24T17:21:27Z</time></trkpt>
<trkpt lat="50.618238" lon="3.882827"><ele>63.65</ele><time>2025-05-24T17:21:50Z</time></trkpt>
<trkpt lat="50.618126" lon="3.882634"><ele>63.25</ele><time>2025-05-24T17:22:12Z</time></trkpt>
<trkpt lat="50.61723" lon="3.880924"><ele>65.7</ele><time>2025-05-24T17:22:35Z</time></trkpt>
<trkpt lat="50.617132" lon="3.880704"><ele>65.35</ele><time>2025-05-24T17:22:57Z</time></trkpt>
<trkpt lat="50.616862" lon="3.879991"><ele>64.7</ele><time>2025-05-24T17:23:20Z</time></trkpt>
<trkpt lat="50.615981" lon="3.878386"><ele>67.0</ele><time>2025-05-24T17:23:42Z</time></trkpt>
<trkpt lat="50.615839" lon="3.878176"><ele>67.57</ele><time>2025-05-24T17:24:04Z</time></trkpt>
<trkpt lat="50.615486" lon="3.877735"><ele>70.27</ele><time>2025-05-24T17:24:27Z</time></trkpt>
<trkpt lat="50.615421" lon="3.877622"><ele>70.85</ele><time>2025-05-24T17:24:49Z</time></trkpt>
<trkpt lat="50.614973" lon="3.877083"><ele>71.4</ele><time>2025-05-24T17:25:12Z</time></trkpt>
<trkpt lat="50.614347" lon="3.877014"><ele>71.01</ele><time>2025-05-24T17:25:21Z</time></trkpt>
<trkpt lat="50.61393" lon="3.877057"><ele>72.04</ele><time>2025-05-24T17:25:30Z</time></trkpt>
<trkpt lat="50.612857" lon="3.877644"><ele>77.86</ele><time>2025-05-24T17:25:39Z</time></trkpt>
<trkpt lat="50.612665" lon="3.877803"><ele>78.0</ele><time>2025-05-24T17:25:48Z</time></trkpt>
<trkpt lat="50.612178" lon="3.87766"><ele>79.3</ele><time>2025-05-24T17:25:57Z</time></trkpt>
<trkpt lat="50.610788" lon="3.877347"><ele>78.96</ele><time>2025-05-24T17:26:06Z</time></trkpt>
<trkpt lat="50.610503" lon="3.877301"><ele>79.07</ele><time>2025-05-24T17:26:16Z</time></trkpt>
<trkpt lat="50.610345" lon="3.877318"><ele>79.09</ele><time>2025-05-24T17:26:25Z</time></trkpt>
<trkpt lat="50.610345" lon="3.877318"><ele>79.09</ele><time>2025-05-24T17:26:25Z</time></trkpt>
<trkpt lat="50.608888" lon="3.878012"><ele>75.36</ele><time>2025-05-24T17:26:42Z</time></trkpt>
<trkpt lat="50.608604" lon="3.878268"><ele>75.2</ele><time>2025-05-24T17:27:00Z</time></trkpt>
<trkpt lat="50.608107" lon="3.878653"><ele>73.01</ele><time>2025-05-24T17:27:18Z</time></trkpt>
<trkpt lat="50.606015" lon="3.87983"><ele>59.08</ele><time>2025-05-24T17:27:36Z</time></trkpt>
<trkpt lat="50.606055" lon="3.880032"><ele>60.58</ele><time>2025-05-24T17:27:42Z</time></trkpt>
<trkpt lat="50.607273" lon="3.88454"><ele>57.24</ele><time>2025-05-24T17:27:48Z</time></trkpt>
<trkpt lat="50.607329" lon="3.884702"><ele>57.74</ele><time>2025-05-24T17:27:54Z</time></trkpt>
<trkpt lat="50.607778" lon="3.885637"><ele>57.41</ele><time>2025-05-24T17:28:00Z</time></trkpt>
<trkpt lat="50.607893" lon="3.885914"><ele>55.24</ele><time>2025-05-24T17:28:06Z</time></trkpt>
<trkpt lat="50.608094" lon="3.886601"><ele>51.44</ele><time>2025-05-24T17:28:12Z</time></trkpt>
<trkpt lat="50.608308" lon="3.887182"><ele>51.78</ele><time>2025-05-24T17:28:18Z</time></trkpt>
<trkpt lat="50.608418" lon="3.887372"><ele>52.3</ele><time>2025-05-24T17:28:24Z</time></trkpt>
<trkpt lat="50.608541" lon="3.887528"><ele>52.67</ele><time>2025-05-24T17:28:30Z</time></trkpt>
<trkpt lat="50.608676" lon="3.887662"><ele>53.01</ele><time>2025-05-24T17:28:36Z</time></trkpt>
<trkpt lat="50.609501" lon="3.888146"><ele>53.8</ele><time>2025-05-24T17:28:42Z</time></trkpt>
<trkpt lat="50.609289" lon="3.888854"><ele>49.69</ele><time>2025-05-24T17:28:47Z</time></trkpt>
<trkpt lat="50.609251" lon="3.889056"><ele>49.3</ele><time>2025-05-24T17:28:51Z</time></trkpt>
<trkpt lat="50.609216" lon="3.88943"><ele>49.79</ele><time>2025-05-24T17:28:55Z</time></trkpt>
<trkpt lat="50.60916" lon="3.889739"><ele>50.06</ele><time>2025-05-24T17:29:00Z</time></trkpt>
<trkpt lat="50.608782" lon="3.891222"><ele>52.77</ele><time>2025-05-24T17:29:04Z</time></trkpt>
<trkpt lat="50.608743" lon="3.891311"><ele>52.85</ele><time>2025-05-24T17:29:08Z</time></trkpt>
<trkpt lat="50.608644" lon="3.891416"><ele>53.1</ele><time>2025-05-24T17:29:12Z</time></trkpt>
<trkpt lat="50.608592" lon="3.891447"><ele>53.28</ele><time>2025-05-24T17:29:17Z</time></trkpt>
<trkpt lat="50.608454" lon="3.891463"><ele>53.83</ele><time>2025-05-24T17:29:21Z</time></trkpt>
<trkpt lat="50.607784" lon="3.891382"><ele>52.99</ele><time>2025-05-24T17:29:25Z</time></trkpt>
<trkpt lat="50.607297" lon="3.891265"><ele>53.0</ele><time>2025-05-24T17:29:29Z</time></trkpt>
<trkpt lat="50.607046" lon="3.891168"><ele>53.0</ele><time>2025-05-24T17:29:34Z</time></trkpt>
<trkpt lat="50.607039" lon="3.891299"><ele>53.0</ele><time>2025-05-24T17:29:40Z</time></trkpt>
<trkpt lat="50.606912" lon="3.892108"><ele>54.07</ele><time>2025-05-24T17:29:47Z</time></trkpt>
<trkpt lat="50.606799" lon="3.892648"><ele>55.79</ele><time>2025-05-24T17:29:53Z</time></trkpt>
<trkpt lat="50.606404" lon="3.8941"><ele>58.06</ele><time>2025-05-24T17:30:00Z</time></trkpt>
<trkpt lat="50.606086" lon="3.893901"><ele>56.91</ele><time>2025-05-24T17:30:05Z</time></trkpt>
<trkpt lat="50.605794" lon="3.893661"><ele>53.91</ele><time>2025-05-24T17:30:10Z</time></trkpt>
<trkpt lat="50.605467" lon="3.893347"><ele>51.64</ele><time>2025-05-24T17:30:16Z</time></trkpt>
<trkpt lat="50.605357" lon="3.893305"><ele>52.33</ele><time>2025-05-24T17:30:21Z</time></trkpt>
<trkpt lat="50.60423" lon="3.893616"><ele>55.0</ele><time>2025-05-24T17:30:27Z</time></trkpt>
<trkpt lat="50.604013" lon="3.893626"><ele>55.52</ele><time>2025-05-24T17:30:32Z</time></trkpt>
<trkpt lat="50.602979" lon="3.893295"><ele>62.51</ele><time>2025-05-24T17:30:37Z</time></trkpt>
<trkpt lat="50.60238" lon="3.893215"><ele>65.43</ele><time>2025-05-24T17:30:43Z</time></trkpt>
<trkpt lat="50.602173" lon="3.893264"><ele>66.18</ele><time>2025-05-24T17:30:48Z</time></trkpt>
<trkpt lat="50.602016" lon="3.893643"><ele>66.86</ele><time>2025-05-24T17:31:00Z</time></trkpt>
<trkpt lat="50.601747" lon="3.894079"><ele>67.29</ele><time>2025-05-24T17:31:12Z</time></trkpt>
<trkpt lat="50.599278" lon="3.895048"><ele>60.4</ele><time>2025-05-24T17:31:25Z</time></trkpt>
<trkpt lat="50.599025" lon="3.895173"><ele>61.02</ele><time>2025-05-24T17:31:37Z</time></trkpt>
<trkpt lat="50.598135" lon="3.895468"><ele>62.97</ele><time>2025-05-24T17:31:49Z</time></trkpt>
<trkpt lat="50.597822" lon="3.895454"><ele>61.49</ele><time>2025-05-24T17:32:01Z</time></trkpt>
<trkpt lat="50.596094" lon="3.894932"><ele>62.77</ele><time>2025-05-24T17:32:13Z</time></trkpt>
<trkpt lat="50.592438" lon="3.894031"><ele>61.0</ele><time>2025-05-24T17:32:25Z</time></trkpt>
<trkpt lat="50.591578" lon="3.893857"><ele>60.32</ele><time>2025-05-24T17:32:37Z</time></trkpt>
<trkpt lat="50.590649" lon="3.893706"><ele>60.34</ele><time>2025-05-24T17:32:50Z</time></trkpt>
<trkpt lat="50.588466" lon="3.893458"><ele>62.55</ele><time>2025-05-24T17:33:02Z</time></trkpt>
<trkpt lat="50.588365" lon="3.893422"><ele>62.68</ele><time>2025-05-24T17:33:14Z</time></trkpt>
<trkpt lat="50.588123" lon="3.895689"><ele>53.76</ele><time>2025-05-24T17:33:29Z</time></trkpt>
<trkpt lat="50.588114" lon="3.895685"><ele>52.39</ele><time>2025-05-24T17:33:29Z</time></trkpt>
<trkpt lat="50.588114" lon="3.895685"><ele>52.39</ele><time>2025-05-24T17:33:29Z</time></trkpt>
<trkpt lat="50.586015" lon="3.894733"><ele>51.03</ele><time>2025-05-24T17:33:35Z</time></trkpt>
<trkpt lat="50.585121" lon="3.894299"><ele>53.09</ele><time>2025-05-24T17:33:42Z</time></trkpt>
<trkpt lat="50.584987" lon="3.894317"><ele>53.49</ele><time>2025-05-24T17:33:48Z</time></trkpt>
<trkpt lat="50.584933" lon="3.894382"><ele>53.41</ele><time>2025-05-24T17:33:54Z</time></trkpt>
<trkpt lat="50.584882" lon="3.894507"><ele>53.29</ele><time>2025-05-24T17:34:01Z</time></trkpt>
<trkpt lat="50.584646" lon="3.895309"><ele>53.06</ele><time>2025-05-24T17:34:07Z</time></trkpt>
<trkpt lat="50.584572" lon="3.895425"><ele>53.57</ele><time>2025-05-24T17:34:14Z</time></trkpt>
<trkpt lat="50.584493" lon="3.895448"><ele>54.01</ele><time>2025-05-24T17:34:20Z</time></trkpt>
<trkpt lat="50.583281" lon="3.894475"><ele>55.11</ele><time>2025-05-24T17:34:26Z</time></trkpt>
<trkpt lat="50.582794" lon="3.894024"><ele>54.46</ele><time>2025-05-24T17:34:33Z</time></trkpt>
<trkpt lat="50.582323" lon="3.89367"><ele>53.13</ele><time>2025-05-24T17:34:39Z</time></trkpt>
<trkpt lat="50.581977" lon="3.893358"><ele>55.73</ele><time>2025-05-24T17:34:45Z</time></trkpt>
<trkpt lat="50.581607" lon="3.892798"><ele>59.0</ele><time>2025-05-24T17:34:52Z</time></trkpt>
<trkpt lat="50.58143" lon="3.892445"><ele>60.35</ele><time>2025-05-24T17:34:58Z</time></trkpt>
<trkpt lat="50.581267" lon="3.891932"><ele>62.19</ele><time>2025-05-24T17:35:04Z</time></trkpt>
<trkpt lat="50.580744" lon="3.889741"><ele>62.72</ele><time>2025-05-24T17:35:11Z</time></trkpt>
<trkpt lat="50.580651" lon="3.889106"><ele>61.69</ele><time>2025-05-24T17:35:17Z</time></trkpt>
<trkpt lat="50.580631" lon="3.888702"><ele>62.22</ele><time>2025-05-24T17:35:23Z</time></trkpt>
<trkpt lat="50.580642" lon="3.888234"><ele>63.29</ele><time>2025-05-24T17:35:30Z</time></trkpt>
<trkpt lat="50.580874" lon="3.886062"><ele>63.11</ele><time>2025-05-24T17:35:36Z</time></trkpt>
<trkpt lat="50.580904" lon="3.885675"><ele>61.94</ele><time>2025-05-24T17:35:42Z</time></trkpt>
<trkpt lat="50.580942" lon="3.884865"><ele>61.48</ele><time>2025-05-24T17:35:49Z</time></trkpt>
<trkpt lat="50.580953" lon="3.884053"><ele>62.57</ele><time>2025-05-24T17:35:55Z</time></trkpt>
<trkpt lat="50.58091" lon="3.883594"><ele>62.45</ele><time>2025-05-24T17:36:01Z</time></trkpt>
<trkpt lat="50.580844" lon="3.883297"><ele>63.05</ele><time>2025-05-24T17:36:08Z</time></trkpt>
<trkpt lat="50.580786" lon="3.883131"><ele>63.95</ele><time>2025-05-24T17:36:14Z</time></trkpt>
<trkpt lat="50.580638" lon="3.882816"><ele>64.7</ele><time>2025-05-24T17:36:20Z</time></trkpt>
<trkpt lat="50.580561" lon="3.882669"><ele>64.98</ele><time>2025-05-24T17:36:27Z</time></trkpt>
<trkpt lat="50.579969" lon="3.881562"><ele>60.66</ele><time>2025-05-24T17:36:33Z</time></trkpt>
<trkpt lat="50.578267" lon="3.878923"><ele>64.0</ele><time>2025-05-24T17:36:40Z</time></trkpt>
<trkpt lat="50.573163" lon="3.871743"><ele>73.89</ele><time>2025-05-24T17:36:46Z</time></trkpt>
<trkpt lat="50.566805" lon="3.883887"><ele>69.0</ele><time>2025-05-24T17:37:43Z</time></trkpt>
<trkpt lat="50.566711" lon="3.883811"><ele>69.0</ele><time>2025-05-24T17:37:52Z</time></trkpt>
<trkpt lat="50.566163" lon="3.883574"><ele>68.0</ele><time>2025-05-24T17:38:00Z</time></trkpt>
<trkpt lat="50.565367" lon="3.883322"><ele>69.64</ele><time>2025-05-24T17:38:09Z</time></trkpt>
<trkpt lat="50.565008" lon="3.883263"><ele>70.72</ele><time>2025-05-24T17:38:17Z</time></trkpt>
<trkpt lat="50.563727" lon="3.883276"><ele>72.0</ele><time>2025-05-24T17:38:25Z</time></trkpt>
<trkpt lat="50.563355" lon="3.88332"><ele>73.8</ele><time>2025-05-24T17:38:34Z</time></trkpt>
<trkpt lat="50.563136" lon="3.883313"><ele>74.64</ele><time>2025-05-24T17:38:42Z</time></trkpt>
<trkpt lat="50.561428" lon="3.88276"><ele>73.07</ele><time>2025-05-24T17:38:51Z</time></trkpt>
<trkpt lat="50.560945" lon="3.882508"><ele>73.97</ele><time>2025-05-24T17:38:59Z</time></trkpt>
<trkpt lat="50.560018" lon="3.881869"><ele>72.0</ele><time>2025-05-24T17:39:07Z</time></trkpt>
<trkpt lat="50.559076" lon="3.881439"><ele>69.88</ele><time>2025-05-24T17:39:16Z</time></trkpt>
<trkpt lat="50.558699" lon="3.881151"><ele>69.95</ele><time>2025-05-24T17:39:24Z</time></trkpt>
<trkpt lat="50.558699" lon="3.881151"><ele>69.95</ele><time>2025-05-24T17:39:24Z</time></trkpt>
<trkpt lat="50.557608" lon="3.879802"><ele>70.58</ele><time>2025-05-24T17:39:31Z</time></trkpt>
<trkpt lat="50.557449" lon="3.879636"><ele>72.86</ele><time>2025-05-24T17:39:37Z</time></trkpt>
<trkpt lat="50.556183" lon="3.878614"><ele>74.77</ele><time>2025-05-24T17:39:44Z</time></trkpt>
<trkpt lat="50.554681" lon="3.877632"><ele>69.44</ele><time>2025-05-24T17:39:51Z</time></trkpt>
<trkpt lat="50.55452" lon="3.877498"><ele>69.27</ele><time>2025-05-24T17:39:57Z</time></trkpt>
<trkpt lat="50.554242" lon="3.877231"><ele>70.43</ele><time>2025-05-24T17:40:04Z</time></trkpt>
<trkpt lat="50.553615" lon="3.876435"><ele>68.85</ele><time>2025-05-24T17:40:11Z</time></trkpt>
<trkpt lat="50.553395" lon="3.876244"><ele>69.4</ele><time>2025-05-24T17:40:17Z</time></trkpt>
<trkpt lat="50.55304" lon="3.876053"><ele>70.2</ele><time>2025-05-24T17:40:24Z</time></trkpt>
<trkpt lat="50.552688" lon="3.875914"><ele>69.45</ele><time>2025-05-24T17:40:30Z</time></trkpt>
<trkpt lat="50.551982" lon="3.875766"><ele>68.0</ele><time>2025-05-24T17:40:37Z</time></trkpt>
<trkpt lat="50.551865" lon="3.875812"><ele>68.57</ele><time>2025-05-24T17:40:44Z</time></trkpt>
<trkpt lat="50.550178" lon="3.872268"><ele>72.06</ele><time>2025-05-24T17:40:47Z</time></trkpt>
<trkpt lat="50.549445" lon="3.870945"><ele>72.59</ele><time>2025-05-24T17:40:51Z</time></trkpt>
<trkpt lat="50.549249" lon="3.870513"><ele>76.15</ele><time>2025-05-24T17:40:55Z</time></trkpt>
<trkpt lat="50.549177" lon="3.870308"><ele>76.92</ele><time>2025-05-24T17:40:58Z</time></trkpt>
<trkpt lat="50.548946" lon="3.869485"><ele>74.15</ele><time>2025-05-24T17:41:02Z</time></trkpt>
<trkpt lat="50.547373" lon="3.864781"><ele>73.53</ele><time>2025-05-24T17:41:06Z</time></trkpt>
<trkpt lat="50.54725" lon="3.864448"><ele>73.1</ele><time>2025-05-24T17:41:09Z</time></trkpt>
<trkpt lat="50.547167" lon="3.864276"><ele>73.08</ele><time>2025-05-24T17:41:13Z</time></trkpt>
<trkpt lat="50.54698" lon="3.863995"><ele>73.0</ele><time>2025-05-24T17:41:17Z</time></trkpt>
<trkpt lat="50.546347" lon="3.863386"><ele>71.19</ele><time>2025-05-24T17:41:20Z</time></trkpt>
<trkpt lat="50.546129" lon="3.863096"><ele>71.8</ele><time>2025-05-24T17:41:24Z</time></trkpt>
<trkpt lat="50.545735" lon="3.862431"><ele>71.65</ele><time>2025-05-24T17:41:28Z</time></trkpt>
<trkpt lat="50.545647" lon="3.86231"><ele>71.33</ele><time>2025-05-24T17:41:31Z</time></trkpt>
<trkpt lat="50.544809" lon="3.861356"><ele>71.0</ele><time>2025-05-24T17:41:35Z</time></trkpt>
<trkpt lat="50.544718" lon="3.861222"><ele>71.02</ele><time>2025-05-24T17:41:39Z</time></trkpt>
<trkpt lat="50.544591" lon="3.860979"><ele>71.72</ele><time>2025-05-24T17:41:42Z</time></trkpt>
<trkpt lat="50.544381" lon="3.860444"><ele>72.09</ele><time>2025-05-24T17:41:46Z</time></trkpt>
<trkpt lat="50.544144" lon="3.859667"><ele>73.08</ele><time>2025-05-24T17:41:50Z</time></trkpt>
<trkpt lat="50.543691" lon="3.859086"><ele>72.57</ele><time>2025-05-24T17:41:53Z</time></trkpt>
<trkpt lat="50.543595" lon="3.858783"><ele>71.56</ele><time>2025-05-24T17:42:06Z</time></trkpt>
<trkpt lat="50.543283" lon="3.858162"><ele>70.0</ele><time>2025-05-24T17:42:18Z</time></trkpt>
<trkpt lat="50.541231" lon="3.854327"><ele>71.99</ele><time>2025-05-24T17:42:30Z</time></trkpt>
<trkpt lat="50.54106" lon="3.853944"><ele>73.65</ele><time>2025-05-24T17:42:42Z</time></trkpt>
<trkpt lat="50.540973" lon="3.853672"><ele>73.89</ele><time>2025-05-24T17:42:54Z</time></trkpt>
<trkpt lat="50.540497" lon="3.852545"><ele>73.62</ele><time>2025-05-24T17:43:07Z</time></trkpt>
<trkpt lat="50.539729" lon="3.850964"><ele>72.55</ele><time>2025-05-24T17:43:19Z</time></trkpt>
<trkpt lat="50.539339" lon="3.850119"><ele>73.35</ele><time>2025-05-24T17:43:31Z</time></trkpt>
<trkpt lat="50.538613" lon="3.848248"><ele>74.31</ele><time>2025-05-24T17:43:43Z</time></trkpt>
<trkpt lat="50.538257" lon="3.847508"><ele>75.0</ele><time>2025-05-24T17:43:56Z</time></trkpt>
<trkpt lat="50.537721" lon="3.84663"><ele>74.33</ele><time>2025-05-24T17:44:08Z</time></trkpt>
<trkpt lat="50.536338" lon="3.844518"><ele>76.23</ele><time>2025-05-24T17:44:20Z</time></trkpt>
<trkpt lat="50.535875" lon="3.843929"><ele>77.0</ele><time>2025-05-24T17:44:32Z</time></trkpt>
<trkpt lat="50.535067" lon="3.842719"><ele>77.95</ele><time>2025-05-24T17:44:45Z</time></trkpt>
<trkpt lat="50.535183" lon="3.842341"><ele>77.34</ele><time>2025-05-24T17:44:50Z</time></trkpt>
<trkpt lat="50.535435" lon="3.841788"><ele>77.43</ele><time>2025-05-24T17:44:55Z</time></trkpt>
<trkpt lat="50.535502" lon="3.841534"><ele>77.19</ele><time>2025-05-24T17:45:00Z</time></trkpt>
<trkpt lat="50.535736" lon="3.840408"><ele>77.18</ele><time>2025-05-24T17:45:06Z</time></trkpt>
<trkpt lat="50.535882" lon="3.839376"><ele>80.58</ele><time>2025-05-24T17:45:11Z</time></trkpt>
<trkpt lat="50.536" lon="3.837785"><ele>79.4</ele><time>2025-05-24T17:45:16Z</time></trkpt>
<trkpt lat="50.536088" lon="3.83571"><ele>77.08</ele><time>2025-05-24T17:45:22Z</time></trkpt>
<trkpt lat="50.536145" lon="3.83492"><ele>76.88</ele><time>2025-05-24T17:45:27Z</time></trkpt>
<trkpt lat="50.536142" lon="3.834681"><ele>76.89</ele><time>2025-05-24T17:45:32Z</time></trkpt>
<trkpt lat="50.536049" lon="3.834257"><ele>77.68</ele><time>2025-05-24T17:45:38Z</time></trkpt>
<trkpt lat="50.536045" lon="3.834146"><ele>78.0</ele><time>2025-05-24T17:45:43Z</time></trkpt>
<trkpt lat="50.536096" lon="3.833967"><ele>78.0</ele><time>2025-05-24T17:45:48Z</time></trkpt>
<trkpt lat="50.536264" lon="3.833604"><ele>79.01</ele><time>2025-05-24T17:45:53Z</time></trkpt>
<trkpt lat="50.536345" lon="3.833371"><ele>79.73</ele><time>2025-05-24T17:45:59Z</time></trkpt>
<trkpt lat="50.536391" lon="3.83314"><ele>79.99</ele><time>2025-05-24T17:46:04Z</time></trkpt>
<trkpt lat="50.536414" lon="3.832915"><ele>79.91</ele><time>2025-05-24T17:46:09Z</time></trkpt>
<trkpt lat="50.536405" lon="3.83269"><ele>79.63</ele><time>2025-05-24T17:46:15Z</time></trkpt>
<trkpt lat="50.536267" lon="3.832032"><ele>76.63</ele><time>2025-05-24T17:46:20Z</time></trkpt>
<trkpt lat="50.536267" lon="3.831797"><ele>75.47</ele><time>2025-05-24T17:46:25Z</time></trkpt>
<trkpt lat="50.536301" lon="3.831188"><ele>75.0</ele><time>2025-05-24T17:46:31Z</time></trkpt>
<trkpt lat="50.536298" lon="3.830925"><ele>75.45</ele><time>2025-05-24T17:46:36Z</time></trkpt>
<trkpt lat="50.536249" lon="3.830117"><ele>74.7</ele><time>2025-05-24T17:46:41Z</time></trkpt>
<trkpt lat="50.536263" lon="3.829904"><ele>74.2</ele><time>2025-05-24T17:46:46Z</time></trkpt>
<trkpt lat="50.536347" lon="3.829663"><ele>73.67</ele><time>2025-05-24T17:46:52Z</time></trkpt>
<trkpt lat="50.538103" lon="3.826751"><ele>78.29</ele><time>2025-05-24T17:46:57Z</time></trkpt>
<trkpt lat="50.538172" lon="3.826612"><ele>78.56</ele><time>2025-05-24T17:47:02Z</time></trkpt>
<trkpt lat="50.538221" lon="3.826436"><ele>77.86</ele><time>2025-05-24T17:47:08Z</time></trkpt>
<trkpt lat="50.538235" lon="3.826241"><ele>77.3</ele><time>2025-05-24T17:47:13Z</time></trkpt>
<trkpt lat="50.538187" lon="3.82605"><ele>76.88</ele><time>2025-05-24T17:47:18Z</time></trkpt>
<trkpt lat="50.538119" lon="3.825962"><ele>76.58</ele><time>2025-05-24T17:47:24Z</time></trkpt>
<trkpt lat="50.536904" lon="3.82478"><ele>73.64</ele><time>2025-05-24T17:47:29Z</time></trkpt>
<trkpt lat="50.535585" lon="3.823564"><ele>70.0</ele><time>2025-05-24T17:47:34Z</time></trkpt>
<trkpt lat="50.535617" lon="3.823501"><ele>69.03</ele><time>2025-05-24T17:47:35Z</time></trkpt>
<trkpt lat="50.535617" lon="3.823501"><ele>69.03</ele><time>2025-05-24T17:47:35Z</time></trkpt>
<trkpt lat="50.53906" lon="3.81674"><ele>68.07</ele><time>2025-05-24T17:48:38Z</time></trkpt>
<trkpt lat="50.53974" lon="3.816893"><ele>65.87</ele><time>2025-05-24T17:48:43Z</time></trkpt>
<trkpt lat="50.539882" lon="3.816871"><ele>64.85</ele><time>2025-05-24T17:48:47Z</time></trkpt>
<trkpt lat="50.539961" lon="3.816819"><ele>64.28</ele><time>2025-05-24T17:48:51Z</time></trkpt>
<trkpt lat="50.540262" lon="3.816533"><ele>62.58</ele><time>2025-05-24T17:48:56Z</time></trkpt>
<trkpt lat="50.540462" lon="3.816307"><ele>62.66</ele><time>2025-05-24T17:49:00Z</time></trkpt>
<trkpt lat="50.540618" lon="3.816093"><ele>63.06</ele><time>2025-05-24T17:49:04Z</time></trkpt>
<trkpt lat="50.540878" lon="3.815566"><ele>64.16</ele><time>2025-05-24T17:49:09Z</time></trkpt>
<trkpt lat="50.541326" lon="3.815061"><ele>65.0</ele><time>2025-05-24T17:49:13Z</time></trkpt>
<trkpt lat="50.541554" lon="3.814691"><ele>65.0</ele><time>2025-05-24T17:49:18Z</time></trkpt>
<trkpt lat="50.541747" lon="3.814252"><ele>64.31</ele><time>2025-05-24T17:49:22Z</time></trkpt>
<trkpt lat="50.54213" lon="3.813079"><ele>61.08</ele><time>2025-05-24T17:49:26Z</time></trkpt>
<trkpt lat="50.542349" lon="3.811939"><ele>60.45</ele><time>2025-05-24T17:49:31Z</time></trkpt>
<trkpt lat="50.542402" lon="3.811739"><ele>60.65</ele><time>2025-05-24T17:49:35Z</time></trkpt>
<trkpt lat="50.542508" lon="3.811519"><ele>61.0</ele><time>2025-05-24T17:49:40Z</time></trkpt>
<trkpt lat="50.542992" lon="3.810841"><ele>61.0</ele><time>2025-05-24T17:49:44Z</time></trkpt>
<trkpt lat="50.543032" lon="3.810746"><ele>61.0</ele><time>2025-05-24T17:49:48Z</time></trkpt>
<trkpt lat="50.543093" lon="3.810456"><ele>61.45</ele><time>2025-05-24T17:49:53Z</time></trkpt>
<trkpt lat="50.543251" lon="3.809146"><ele>63.7</ele><time>2025-05-24T17:49:57Z</time></trkpt>
<trkpt lat="50.54328" lon="3.808959"><ele>63.81</ele><time>2025-05-24T17:50:02Z</time></trkpt>
<trkpt lat="50.543329" lon="3.808801"><ele>63.67</ele><time>2025-05-24T17:50:06Z</time></trkpt>
<trkpt lat="50.543797" lon="3.807829"><ele>65.0</ele><time>2025-05-24T17:50:10Z</time></trkpt>
<trkpt lat="50.543916" lon="3.807663"><ele>65.32</ele><time>2025-05-24T17:50:15Z</time></trkpt>
<trkpt lat="50.54422" lon="3.807402"><ele>64.9</ele><time>2025-05-24T17:50:19Z</time></trkpt>
<trkpt lat="50.544278" lon="3.807325"><ele>64.57</ele><time>2025-05-24T17:50:24Z</time></trkpt>
<trkpt lat="50.544364" lon="3.807151"><ele>64.38</ele><time>2025-05-24T17:50:28Z</time></trkpt>
<trkpt lat="50.544438" lon="3.806896"><ele>65.24</ele><time>2025-05-24T17:50:32Z</time></trkpt>
<trkpt lat="50.544551" lon="3.806343"><ele>65.91</ele><time>2025-05-24T17:50:37Z</time></trkpt>
<trkpt lat="50.544585" lon="3.805987"><ele>65.76</ele><time>2025-05-24T17:50:41Z</time></trkpt>
<trkpt lat="50.54463" lon="3.805058"><ele>65.0</ele><time>2025-05-24T17:50:45Z</time></trkpt>
<trkpt lat="50.544616" lon="3.803669"><ele>66.49</ele><time>2025-05-24T17:50:50Z</time></trkpt>
<trkpt lat="50.54476" lon="3.802337"><ele>69.18</ele><time>2025-05-24T17:50:54Z</time></trkpt>
<trkpt lat="50.544771" lon="3.801991"><ele>70.45</ele><time>2025-05-24T17:50:59Z</time></trkpt>
<trkpt lat="50.544759" lon="3.801205"><ele>70.0</ele><time>2025-05-24T17:51:03Z</time></trkpt>
<trkpt lat="50.54515" lon="3.801174"><ele>68.92</ele><time>2025-05-24T17:51:07Z</time></trkpt>
<trkpt lat="50.545465" lon="3.801154"><ele>68.0</ele><time>2025-05-24T17:51:12Z</time></trkpt>
<trkpt lat="50.545719" lon="3.80121"><ele>68.0</ele><time>2025-05-24T17:51:16Z</time></trkpt>
<trkpt lat="50.546977" lon="3.802025"><ele>68.74</ele><time>2025-05-24T17:51:21Z</time></trkpt>
<trkpt lat="50.547159" lon="3.802116"><ele>68.86</ele><time>2025-05-24T17:51:25Z</time></trkpt>
<trkpt lat="50.547295" lon="3.802161"><ele>68.74</ele><time>2025-05-24T17:51:30Z</time></trkpt>
<trkpt lat="50.547971" lon="3.802258"><ele>68.69</ele><time>2025-05-24T17:51:34Z</time></trkpt>
<trkpt lat="50.548166" lon="3.802322"><ele>69.0</ele><time>2025-05-24T17:51:38Z</time></trkpt>
<trkpt lat="50.551634" lon="3.803978"><ele>71.0</ele><time>2025-05-24T17:51:43Z</time></trkpt>
<trkpt lat="50.551909" lon="3.801259"><ele>71.0</ele><time>2025-05-24T17:51:56Z</time></trkpt>
<trkpt lat="50.551948" lon="3.800591"><ele>70.99</ele><time>2025-05-24T17:52:10Z</time></trkpt>
<trkpt lat="50.551975" lon="3.799946"><ele>72.97</ele><time>2025-05-24T17:52:23Z</time></trkpt>
<trkpt lat="50.552009" lon="3.799539"><ele>73.69</ele><time>2025-05-24T17:52:37Z</time></trkpt>
<trkpt lat="50.552456" lon="3.796978"><ele>68.28</ele><time>2025-05-24T17:52:50Z</time></trkpt>
<trkpt lat="50.552318" lon="3.796886"><ele>68.65</ele><time>2025-05-24T17:52:51Z</time></trkpt>
<trkpt lat="50.552283" lon="3.796664"><ele>68.77</ele><time>2025-05-24T17:52:52Z</time></trkpt>
<trkpt lat="50.552929" lon="3.795713"><ele>64.46</ele><time>2025-05-24T17:52:55Z</time></trkpt>
<trkpt lat="50.55301" lon="3.795559"><ele>64.16</ele><time>2025-05-24T17:52:58Z</time></trkpt>
<trkpt lat="50.553106" lon="3.795299"><ele>63.99</ele><time>2025-05-24T17:53:01Z</time></trkpt>
<trkpt lat="50.553408" lon="3.793956"><ele>63.0</ele><time>2025-05-24T17:53:04Z</time></trkpt>
<trkpt lat="50.553433" lon="3.793787"><ele>63.23</ele><time>2025-05-24T17:53:07Z</time></trkpt>
<trkpt lat="50.553452" lon="3.793425"><ele>63.57</ele><time>2025-05-24T17:53:10Z</time></trkpt>
<trkpt lat="50.553444" lon="3.792492"><ele>64.6</ele><time>2025-05-24T17:53:14Z</time></trkpt>
<trkpt lat="50.553468" lon="3.792107"><ele>64.93</ele><time>2025-05-24T17:53:17Z</time></trkpt>
<trkpt lat="50.553509" lon="3.791886"><ele>65.37</ele><time>2025-05-24T17:53:20Z</time></trkpt>
<trkpt lat="50.554201" lon="3.788933"><ele>61.88</ele><time>2025-05-24T17:53:23Z</time></trkpt>
<trkpt lat="50.554294" lon="3.788953"><ele>61.54</ele><time>2025-05-24T17:53:26Z</time></trkpt>
<trkpt lat="50.554927" lon="3.789248"><ele>60.29</ele><time>2025-05-24T17:53:29Z</time></trkpt>
<trkpt lat="50.555121" lon="3.789315"><ele>60.1</ele><time>2025-05-24T17:53:33Z</time></trkpt>
<trkpt lat="50.55533" lon="3.789343"><ele>59.63</ele><time>2025-05-24T17:53:36Z</time></trkpt>
<trkpt lat="50.555507" lon="3.78933"><ele>59.59</ele><time>2025-05-24T17:53:39Z</time></trkpt>
<trkpt lat="50.55599" lon="3.789219"><ele>58.63</ele><time>2025-05-24T17:53:42Z</time></trkpt>
<trkpt lat="50.556168" lon="3.78921"><ele>57.74</ele><time>2025-05-24T17:53:46Z</time></trkpt>
<trkpt lat="50.556333" lon="3.789242"><ele>56.67</ele><time>2025-05-24T17:53:49Z</time></trkpt>
<trkpt lat="50.556847" lon="3.789433"><ele>54.34</ele><time>2025-05-24T17:53:52Z</time></trkpt>
<trkpt lat="50.557132" lon="3.789469"><ele>54.67</ele><time>2025-05-24T17:53:55Z</time></trkpt>
<trkpt lat="50.557402" lon="3.789432"><ele>54.31</ele><time>2025-05-24T17:53:59Z</time></trkpt>
<trkpt lat="50.558925" lon="3.788984"><ele>52.87</ele><time>2025-05-24T17:54:02Z</time></trkpt>
<trkpt lat="50.559221" lon="3.788959"><ele>52.0</ele><time>2025-05-24T17:54:05Z</time></trkpt>
<trkpt lat="50.559369" lon="3.78897"><ele>52.0</ele><time>2025-05-24T17:54:08Z</time></trkpt>
<trkpt lat="50.559668" lon="3.789067"><ele>52.0</ele><time>2025-05-24T17:54:12Z</time></trkpt>
<trkpt lat="50.560351" lon="3.789462"><ele>51.75</ele><time>2025-05-24T17:54:15Z</time></trkpt>
<trkpt lat="50.560782" lon="3.789654"><ele>50.94</ele><time>2025-05-24T17:54:18Z</time></trkpt>
<trkpt lat="50.564145" lon="3.790592"><ele>53.92</ele><time>2025-05-24T17:54:21Z</time></trkpt>
<trkpt lat="50.564172" lon="3.790557"><ele>53.96</ele><time>2025-05-24T17:54:24Z</time></trkpt>
<trkpt lat="50.564191" lon="3.790482"><ele>53.58</ele><time>2025-05-24T17:54:26Z</time></trkpt>
<trkpt lat="50.56442" lon="3.789133"><ele>49.91</ele><time>2025-05-24T17:54:28Z</time></trkpt>
<trkpt lat="50.564501" lon="3.788931"><ele>50.23</ele><time>2025-05-24T17:54:31Z</time></trkpt>
<trkpt lat="50.564606" lon="3.788786"><ele>50.21</ele><time>2025-05-24T17:54:33Z</time></trkpt>
<trkpt lat="50.56474" lon="3.788686"><ele>50.33</ele><time>2025-05-24T17:54:36Z</time></trkpt>
<trkpt lat="50.564931" lon="3.788662"><ele>50.94</ele><time>2025-05-24T17:54:38Z</time></trkpt>
<trkpt lat="50.566536" lon="3.788827"><ele>50.19</ele><time>2025-05-24T17:54:40Z</time></trkpt>
<trkpt lat="50.56675" lon="3.788828"><ele>50.86</ele><time>2025-05-24T17:54:43Z</time></trkpt>
<trkpt lat="50.566974" lon="3.788779"><ele>51.14</ele><time>2025-05-24T17:54:45Z</time></trkpt>
<trkpt lat="50.567261" lon="3.78861"><ele>50.14</ele><time>2025-05-24T17:54:47Z</time></trkpt>
<trkpt lat="50.567402" lon="3.788466"><ele>50.65</ele><time>2025-05-24T17:54:50Z</time></trkpt>
<trkpt lat="50.567565" lon="3.788262"><ele>51.43</ele><time>2025-05-24T17:54:52Z</time></trkpt>
<trkpt lat="50.567711" lon="3.788006"><ele>52.0</ele><time>2025-05-24T17:54:54Z</time></trkpt>
<trkpt lat="50.568696" lon="3.786002"><ele>51.54</ele><time>2025-05-24T17:54:57Z</time></trkpt>
<trkpt lat="50.5716" lon="3.789223"><ele>53.32</ele><time>2025-05-24T17:55:03Z</time></trkpt>
<trkpt lat="50.571988" lon="3.789753"><ele>54.0</ele><time>2025-05-24T17:55:10Z</time></trkpt>
<trkpt lat="50.572607" lon="3.790709"><ele>53.55</ele><time>2025-05-24T17:55:16Z</time></trkpt>
<trkpt lat="50.574359" lon="3.794022"><ele>58.31</ele><time>2025-05-24T17:55:23Z</time></trkpt>
<trkpt lat="50.574645" lon="3.794514"><ele>57.21</ele><time>2025-05-24T17:55:29Z</time></trkpt>
<trkpt lat="50.575013" lon="3.795078"><ele>55.73</ele><time>2025-05-24T17:55:36Z</time></trkpt>
<trkpt lat="50.57532" lon="3.795507"><ele>55.15</ele><time>2025-05-24T17:55:42Z</time></trkpt>
<trkpt lat="50.576562" lon="3.797148"><ele>56.83</ele><time>2025-05-24T17:55:49Z</time></trkpt>
<trkpt lat="50.576882" lon="3.797486"><ele>57.77</ele><time>2025-05-24T17:55:55Z</time></trkpt>
<trkpt lat="50.577216" lon="3.797735"><ele>59.8</ele><time>2025-05-24T17:56:01Z</time></trkpt>
<trkpt lat="50.578134" lon="3.798194"><ele>56.28</ele><time>2025-05-24T17:56:08Z</time></trkpt>
<trkpt lat="50.57912" lon="3.795392"><ele>58.1</ele><time>2025-05-24T17:56:18Z</time></trkpt>
<trkpt lat="50.579698" lon="3.793022"><ele>56.98</ele><time>2025-05-24T17:56:28Z</time></trkpt>
<trkpt lat="50.579797" lon="3.792734"><ele>55.69</ele><time>2025-05-24T17:56:38Z</time></trkpt>
<trkpt lat="50.580122" lon="3.792075"><ele>54.3</ele><time>2025-05-24T17:56:48Z</time></trkpt>
<trkpt lat="50.580595" lon="3.791316"><ele>54.0</ele><time>2025-05-24T17:56:58Z</time></trkpt>
<trkpt lat="50.581234" lon="3.79002"><ele>53.56</ele><time>2025-05-24T17:57:09Z</time></trkpt>
<trkpt lat="50.582116" lon="3.788298"><ele>51.13</ele><time>2025-05-24T17:57:19Z</time></trkpt>
<trkpt lat="50.582403" lon="3.786964"><ele>51.96</ele><time>2025-05-24T17:57:29Z</time></trkpt>
<trkpt lat="50.582537" lon="3.786493"><ele>51.24</ele><time>2025-05-24T17:57:39Z</time></trkpt>
<trkpt lat="50.582705" lon="3.786102"><ele>49.97</ele><time>2025-05-24T17:57:49Z</time></trkpt>
<trkpt lat="50.583236" lon="3.785122"><ele>49.19</ele><time>2025-05-24T17:57:59Z</time></trkpt>
<trkpt lat="50.583392" lon="3.78433"><ele>50.0</ele><time>2025-05-24T17:58:09Z</time></trkpt>
<trkpt lat="50.583427" lon="3.784232"><ele>50.0</ele><time>2025-05-24T17:58:19Z</time></trkpt>
<trkpt lat="50.58376" lon="3.783573"><ele>49.47</ele><time>2025-05-24T17:58:29Z</time></trkpt>
<trkpt lat="50.583945" lon="3.783809"><ele>48.94</ele><time>2025-05-24T17:58:33Z</time></trkpt>
<trkpt lat="50.584355" lon="3.784173"><ele>50.02</ele><time>2025-05-24T17:58:36Z</time></trkpt>
<trkpt lat="50.58458" lon="3.784419"><ele>50.91</ele><time>2025-05-24T17:58:40Z</time></trkpt>
<trkpt lat="50.584891" lon="3.784868"><ele>49.58</ele><time>2025-05-24T17:58:43Z</time></trkpt>
<trkpt lat="50.584947" lon="3.785006"><ele>49.19</ele><time>2025-05-24T17:58:47Z</time></trkpt>
<trkpt lat="50.584985" lon="3.7852"><ele>49.05</ele><time>2025-05-24T17:58:50Z</time></trkpt>
<trkpt lat="50.584986" lon="3.785293"><ele>49.1</ele><time>2025-05-24T17:58:53Z</time></trkpt>
<trkpt lat="50.584953" lon="3.785546"><ele>50.13</ele><time>2025-05-24T17:58:57Z</time></trkpt>
<trkpt lat="50.584955" lon="3.785755"><ele>50.28</ele><time>2025-05-24T17:59:00Z</time></trkpt>
<trkpt lat="50.584983" lon="3.785871"><ele>50.26</ele><time>2025-05-24T17:59:04Z</time></trkpt>
<trkpt lat="50.585048" lon="3.786021"><ele>50.5</ele><time>2025-05-24T17:59:07Z</time></trkpt>
<trkpt lat="50.585557" lon="3.786901"><ele>49.0</ele><time>2025-05-24T17:59:11Z</time></trkpt>
<trkpt lat="50.585724" lon="3.787136"><ele>49.69</ele><time>2025-05-24T17:59:14Z</time></trkpt>
<trkpt lat="50.586127" lon="3.787613"><ele>49.91</ele><time>2025-05-24T17:59:18Z</time></trkpt>
<trkpt lat="50.58634" lon="3.787902"><ele>49.17</ele><time>2025-05-24T17:59:21Z</time></trkpt>
<trkpt lat="50.58691" lon="3.788871"><ele>46.13</ele><time>2025-05-24T17:59:24Z</time></trkpt>
<trkpt lat="50.587648" lon="3.78743"><ele>43.87</ele><time>2025-05-24T17:59:31Z</time></trkpt>
<trkpt lat="50.587823" lon="3.78698"><ele>42.11</ele><time>2025-05-24T17:59:38Z</time></trkpt>
<trkpt lat="50.58797" lon="3.786471"><ele>42.0</ele><time>2025-05-24T17:59:44Z</time></trkpt>
<trkpt lat="50.588047" lon="3.786103"><ele>41.97</ele><time>2025-05-24T17:59:51Z</time></trkpt>
<trkpt lat="50.588202" lon="3.785048"><ele>42.97</ele><time>2025-05-24T17:59:58Z</time></trkpt>
<trkpt lat="50.588259" lon="3.784857"><ele>43.98</ele><time>2025-05-24T18:00:05Z</time></trkpt>
<trkpt lat="50.588351" lon="3.784657"><ele>45.0</ele><time>2025-05-24T18:00:11Z</time></trkpt>
<trkpt lat="50.58867" lon="3.7841"><ele>45.0</ele><time>2025-05-24T18:00:18Z</time></trkpt>
<trkpt lat="50.589231" lon="3.783199"><ele>47.72</ele><time>2025-05-24T18:00:25Z</time></trkpt>
<trkpt lat="50.589739" lon="3.782214"><ele>49.03</ele><time>2025-05-24T18:00:31Z</time></trkpt>
<trkpt lat="50.589935" lon="3.781659"><ele>50.05</ele><time>2025-05-24T18:00:38Z</time></trkpt>
<trkpt lat="50.590144" lon="3.78094"><ele>54.33</ele><time>2025-05-24T18:00:45Z</time></trkpt>
<trkpt lat="50.590973" lon="3.777655"><ele>59.22</ele><time>2025-05-24T18:00:51Z</time></trkpt>
<trkpt lat="50.591149" lon="3.776909"><ele>60.0</ele><time>2025-05-24T18:00:58Z</time></trkpt>
<trkpt lat="50.591246" lon="3.776391"><ele>59.01</ele><time>2025-05-24T18:01:05Z</time></trkpt>
<trkpt lat="50.591531" lon="3.774135"><ele>62.0</ele><time>2025-05-24T18:01:11Z</time></trkpt>
<trkpt lat="50.591642" lon="3.773369"><ele>63.0</ele><time>2025-05-24T18:01:18Z</time></trkpt>
<trkpt lat="50.592351" lon="3.766699"><ele>57.61</ele><time>2025-05-24T18:01:25Z</time></trkpt>
<trkpt lat="50.592551" lon="3.764756"><ele>54.76</ele><time>2025-05-24T18:01:31Z</time></trkpt>
<trkpt lat="50.592566" lon="3.764337"><ele>53.38</ele><time>2025-05-24T18:01:38Z</time></trkpt>
<trkpt lat="50.592536" lon="3.763927"><ele>52.87</ele><time>2025-05-24T18:01:45Z</time></trkpt>
<trkpt lat="50.59237" lon="3.762873"><ele>55.0</ele><time>2025-05-24T18:01:51Z</time></trkpt>
<trkpt lat="50.59233" lon="3.762303"><ele>55.0</ele><time>2025-05-24T18:01:58Z</time></trkpt>
<trkpt lat="50.592385" lon="3.761026"><ele>54.41</ele><time>2025-05-24T18:02:05Z</time></trkpt>
<trkpt lat="50.592377" lon="3.759405"><ele>55.59</ele><time>2025-05-24T18:02:11Z</time></trkpt>
<trkpt lat="50.592355" lon="3.759043"><ele>56.73</ele><time>2025-05-24T18:02:18Z</time></trkpt>
<trkpt lat="50.592296" lon="3.758638"><ele>56.1</ele><time>2025-05-24T18:02:25Z</time></trkpt>
<trkpt lat="50.592343" lon="3.75825"><ele>54.7</ele><time>2025-05-24T18:02:31Z</time></trkpt>
<trkpt lat="50.592821" lon="3.756147"><ele>59.73</ele><time>2025-05-24T18:02:38Z</time></trkpt>
<trkpt lat="50.592973" lon="3.75558"><ele>59.3</ele><time>2025-05-24T18:02:45Z</time></trkpt>
<trkpt lat="50.593373" lon="3.754535"><ele>60.0</ele><time>2025-05-24T18:02:51Z</time></trkpt>
<trkpt lat="50.593395" lon="3.754276"><ele>60.61</ele><time>2025-05-24T18:02:58Z</time></trkpt>
<trkpt lat="50.593366" lon="3.753818"><ele>61.0</ele><time>2025-05-24T18:03:05Z</time></trkpt>
<trkpt lat="50.593573" lon="3.753336"><ele>61.0</ele><time>2025-05-24T18:03:11Z</time></trkpt>
<trkpt lat="50.594275" lon="3.751826"><ele>64.61</ele><time>2025-05-24T18:03:18Z</time></trkpt>
<trkpt lat="50.594927" lon="3.751464"><ele>61.01</ele><time>2025-05-24T18:03:25Z</time></trkpt>
<trkpt lat="50.594624" lon="3.751078"><ele>60.59</ele><time>2025-05-24T18:03:28Z</time></trkpt>
<trkpt lat="50.594106" lon="3.750369"><ele>61.96</ele><time>2025-05-24T18:03:32Z</time></trkpt>
<trkpt lat="50.593414" lon="3.749285"><ele>60.85</ele><time>2025-05-24T18:03:35Z</time></trkpt>
<trkpt lat="50.593259" lon="3.749096"><ele>60.01</ele><time>2025-05-24T18:03:39Z</time></trkpt>
<trkpt lat="50.593067" lon="3.748908"><ele>60.03</ele><time>2025-05-24T18:03:42Z</time></trkpt>
<trkpt lat="50.591609" lon="3.747682"><ele>59.86</ele><time>2025-05-24T18:03:46Z</time></trkpt>
<trkpt lat="50.591534" lon="3.747587"><ele>59.79</ele><time>2025-05-24T18:03:49Z</time></trkpt>
<trkpt lat="50.591476" lon="3.74746"><ele>59.69</ele><time>2025-05-24T18:03:53Z</time></trkpt>
<trkpt lat="50.591447" lon="3.747346"><ele>59.79</ele><time>2025-05-24T18:03:56Z</time></trkpt>
<trkpt lat="50.591428" lon="3.747041"><ele>58.56</ele><time>2025-05-24T18:04:00Z</time></trkpt>
<trkpt lat="50.59146" lon="3.746781"><ele>57.15</ele><time>2025-05-24T18:04:04Z</time></trkpt>
<trkpt lat="50.591719" lon="3.74556"><ele>56.81</ele><time>2025-05-24T18:04:07Z</time></trkpt>
<trkpt lat="50.591752" lon="3.745298"><ele>56.05</ele><time>2025-05-24T18:04:11Z</time></trkpt>
<trkpt lat="50.591775" lon="3.74432"><ele>55.88</ele><time>2025-05-24T18:04:14Z</time></trkpt>
<trkpt lat="50.591816" lon="3.743896"><ele>56.0</ele><time>2025-05-24T18:04:18Z</time></trkpt>
<trkpt lat="50.592399" lon="3.741883"><ele>58.0</ele><time>2025-05-24T18:04:21Z</time></trkpt>
<trkpt lat="50.592621" lon="3.741177"><ele>58.13</ele><time>2025-05-24T18:04:25Z</time></trkpt>
<trkpt lat="50.59303" lon="3.739975"><ele>59.09</ele><time>2025-05-24T18:04:28Z</time></trkpt>
<trkpt lat="50.593057" lon="3.739855"><ele>58.99</ele><time>2025-05-24T18:04:32Z</time></trkpt>
<trkpt lat="50.593081" lon="3.73955"><ele>59.0</ele><time>2025-05-24T18:04:35Z</time></trkpt>
<trkpt lat="50.592945" lon="3.738889"><ele>60.0</ele><time>2025-05-24T18:04:39Z</time></trkpt>
<trkpt lat="50.592959" lon="3.73861"><ele>60.0</ele><time>2025-05-24T18:04:42Z</time></trkpt>
<trkpt lat="50.593184" lon="3.737312"><ele>60.1</ele><time>2025-05-24T18:04:46Z</time></trkpt>
<trkpt lat="50.593422" lon="3.736386"><ele>58.96</ele><time>2025-05-24T18:04:49Z</time></trkpt>
<trkpt lat="50.59331" lon="3.731685"><ele>57.92</ele><time>2025-05-24T18:04:53Z</time></trkpt>
<trkpt lat="50.593296" lon="3.730579"><ele>56.86</ele><time>2025-05-24T18:04:57Z</time></trkpt>
<trkpt lat="50.59331" lon="3.729477"><ele>55.92</ele><time>2025-05-24T18:05:00Z</time></trkpt>
<trkpt lat="50.593385" lon="3.728082"><ele>56.09</ele><time>2025-05-24T18:05:04Z</time></trkpt>
<trkpt lat="50.593407" lon="3.727812"><ele>56.26</ele><time>2025-05-24T18:05:07Z</time></trkpt>
<trkpt lat="50.5934" lon="3.727633"><ele>56.24</ele><time>2025-05-24T18:05:11Z</time></trkpt>
<trkpt lat="50.593389" lon="3.727418"><ele>56.2</ele><time>2025-05-24T18:05:14Z</time></trkpt>
<trkpt lat="50.593334" lon="3.727056"><ele>55.4</ele><time>2025-05-24T18:05:18Z</time></trkpt>
<trkpt lat="50.593052" lon="3.726074"><ele>54.13</ele><time>2025-05-24T18:05:21Z</time></trkpt>
<trkpt lat="50.592312" lon="3.723701"><ele>53.22</ele><time>2025-05-24T18:05:25Z</time></trkpt>
<trkpt lat="50.592212" lon="3.723284"><ele>52.96</ele><time>2025-05-24T18:05:28Z</time></trkpt>
<trkpt lat="50.59213" lon="3.722744"><ele>52.38</ele><time>2025-05-24T18:05:32Z</time></trkpt>
<trkpt lat="50.592101" lon="3.722189"><ele>52.68</ele><time>2025-05-24T18:05:35Z</time></trkpt>
<trkpt lat="50.592112" lon="3.721737"><ele>53.6</ele><time>2025-05-24T18:05:39Z</time></trkpt>
<trkpt lat="50.592145" lon="3.721202"><ele>54.0</ele><time>2025-05-24T18:05:43Z</time></trkpt>
<trkpt lat="50.592148" lon="3.720859"><ele>53.76</ele><time>2025-05-24T18:05:46Z</time></trkpt>
<trkpt lat="50.592055" lon="3.719836"><ele>53.0</ele><time>2025-05-24T18:05:50Z</time></trkpt>
<trkpt lat="50.592051" lon="3.719674"><ele>53.0</ele><time>2025-05-24T18:05:53Z</time></trkpt>
<trkpt lat="50.592072" lon="3.719393"><ele>52.9</ele><time>2025-05-24T18:05:57Z</time></trkpt>
<trkpt lat="50.59216" lon="3.719019"><ele>52.77</ele><time>2025-05-24T18:06:00Z</time></trkpt>
<trkpt lat="50.593299" lon="3.716218"><ele>47.12</ele><time>2025-05-24T18:06:04Z</time></trkpt>
<trkpt lat="50.593341" lon="3.716084"><ele>46.87</ele><time>2025-05-24T18:06:07Z</time></trkpt>
<trkpt lat="50.593402" lon="3.71567"><ele>45.31</ele><time>2025-05-24T18:06:11Z</time></trkpt>
<trkpt lat="50.593442" lon="3.714697"><ele>42.39</ele><time>2025-05-24T18:06:14Z</time></trkpt>
<trkpt lat="50.5935" lon="3.713926"><ele>42.6</ele><time>2025-05-24T18:06:18Z</time></trkpt>
<trkpt lat="50.593502" lon="3.712747"><ele>43.5</ele><time>2025-05-24T18:06:21Z</time></trkpt>
<trkpt lat="50.593524" lon="3.712536"><ele>44.18</ele><time>2025-05-24T18:06:25Z</time></trkpt>
<trkpt lat="50.593556" lon="3.712471"><ele>44.2</ele><time>2025-05-24T18:06:28Z</time></trkpt>
<trkpt lat="50.594047" lon="3.711932"><ele>43.43</ele><time>2025-05-24T18:06:32Z</time></trkpt>
<trkpt lat="50.596173" lon="3.708653"><ele>43.15</ele><time>2025-05-24T18:06:36Z</time></trkpt>
<trkpt lat="50.59625" lon="3.708499"><ele>43.0</ele><time>2025-05-24T18:06:39Z</time></trkpt>
<trkpt lat="50.596302" lon="3.708362"><ele>43.0</ele><time>2025-05-24T18:06:43Z</time></trkpt>
<trkpt lat="50.596362" lon="3.708131"><ele>43.0</ele><time>2025-05-24T18:06:46Z</time></trkpt>
<trkpt lat="50.596568" lon="3.705934"><ele>43.13</ele><time>2025-05-24T18:06:50Z</time></trkpt>
<trkpt lat="50.596596" lon="3.705744"><ele>43.0</ele><time>2025-05-24T18:06:53Z</time></trkpt>
<trkpt lat="50.596646" lon="3.705612"><ele>43.0</ele><time>2025-05-24T18:06:57Z</time></trkpt>
<trkpt lat="50.596705" lon="3.705525"><ele>43.25</ele><time>2025-05-24T18:07:00Z</time></trkpt>
<trkpt lat="50.596765" lon="3.70547"><ele>43.66</ele><time>2025-05-24T18:07:04Z</time></trkpt>
<trkpt lat="50.596903" lon="3.705425"><ele>44.32</ele><time>2025-05-24T18:07:07Z</time></trkpt>
<trkpt lat="50.59572" lon="3.703296"><ele>46.0</ele><time>2025-05-24T18:07:12Z</time></trkpt>
<trkpt lat="50.595556" lon="3.702939"><ele>46.0</ele><time>2025-05-24T18:07:17Z</time></trkpt>
<trkpt lat="50.595181" lon="3.701976"><ele>46.58</ele><time>2025-05-24T18:07:22Z</time></trkpt>
<trkpt lat="50.593886" lon="3.699149"><ele>49.06</ele><time>2025-05-24T18:07:26Z</time></trkpt>
<trkpt lat="50.593656" lon="3.698738"><ele>49.07</ele><time>2025-05-24T18:07:31Z</time></trkpt>
<trkpt lat="50.593368" lon="3.698371"><ele>49.0</ele><time>2025-05-24T18:07:36Z</time></trkpt>
<trkpt lat="50.591833" lon="3.696833"><ele>49.4</ele><time>2025-05-24T18:07:40Z</time></trkpt>
<trkpt lat="50.591654" lon="3.696626"><ele>50.15</ele><time>2025-05-24T18:07:45Z</time></trkpt>
<trkpt lat="50.591462" lon="3.696361"><ele>51.0</ele><time>2025-05-24T18:07:50Z</time></trkpt>
<trkpt lat="50.590758" lon="3.695066"><ele>49.73</ele><time>2025-05-24T18:07:55Z</time></trkpt>
<trkpt lat="50.590136" lon="3.693625"><ele>50.05</ele><time>2025-05-24T18:07:59Z</time></trkpt>
<trkpt lat="50.589446" lon="3.692299"><ele>49.0</ele><time>2025-05-24T18:08:04Z</time></trkpt>
<trkpt lat="50.589411" lon="3.692196"><ele>49.0</ele><time>2025-05-24T18:08:09Z</time></trkpt>
<trkpt lat="50.589418" lon="3.691979"><ele>49.0</ele><time>2025-05-24T18:08:14Z</time></trkpt>
<trkpt lat="50.588905" lon="3.691867"><ele>48.74</ele><time>2025-05-24T18:08:20Z</time></trkpt>
<trkpt lat="50.587179" lon="3.691642"><ele>51.99</ele><time>2025-05-24T18:08:27Z</time></trkpt>
<trkpt lat="50.587368" lon="3.6874"><ele>49.0</ele><time>2025-05-24T18:08:35Z</time></trkpt>
<trkpt lat="50.587468" lon="3.686515"><ele>48.0</ele><time>2025-05-24T18:08:44Z</time></trkpt>
<trkpt lat="50.587508" lon="3.686361"><ele>48.03</ele><time>2025-05-24T18:08:53Z</time></trkpt>
<trkpt lat="50.58751" lon="3.686299"><ele>48.04</ele><time>2025-05-24T18:09:02Z</time></trkpt>
<trkpt lat="50.58751" lon="3.686299"><ele>48.04</ele><time>2025-05-24T18:09:02Z</time></trkpt>
<trkpt lat="50.587508" lon="3.686361"><ele>48.03</ele><time>2025-05-24T18:09:02Z</time></trkpt>
<trkpt lat="50.587606" lon="3.686323"><ele>48.38</ele><time>2025-05-24T18:09:08Z</time></trkpt>
<trkpt lat="50.588087" lon="3.686366"><ele>49.0</ele><time>2025-05-24T18:09:14Z</time></trkpt>
<trkpt lat="50.590236" lon="3.686701"><ele>49.0</ele><time>2025-05-24T18:09:21Z</time></trkpt>
<trkpt lat="50.590253" lon="3.686569"><ele>48.68</ele><time>2025-05-24T18:09:25Z</time></trkpt>
<trkpt lat="50.590329" lon="3.686247"><ele>48.0</ele><time>2025-05-24T18:09:30Z</time></trkpt>
<trkpt lat="50.590431" lon="3.685984"><ele>47.75</ele><time>2025-05-24T18:09:34Z</time></trkpt>
<trkpt lat="50.590587" lon="3.685765"><ele>47.11</ele><time>2025-05-24T18:09:39Z</time></trkpt>
<trkpt lat="50.591232" lon="3.685278"><ele>47.56</ele><time>2025-05-24T18:09:43Z</time></trkpt>
<trkpt lat="50.591511" lon="3.684653"><ele>47.44</ele><time>2025-05-24T18:09:48Z</time></trkpt>
<trkpt lat="50.59189" lon="3.683728"><ele>46.89</ele><time>2025-05-24T18:09:52Z</time></trkpt>
<trkpt lat="50.592204" lon="3.683128"><ele>47.69</ele><time>2025-05-24T18:09:57Z</time></trkpt>
<trkpt lat="50.592534" lon="3.682636"><ele>48.51</ele><time>2025-05-24T18:10:01Z</time></trkpt>
<trkpt lat="50.59289" lon="3.682185"><ele>48.51</ele><time>2025-05-24T18:10:06Z</time></trkpt>
<trkpt lat="50.593217" lon="3.68173"><ele>48.0</ele><time>2025-05-24T18:10:10Z</time></trkpt>
<trkpt lat="50.593428" lon="3.681399"><ele>47.66</ele><time>2025-05-24T18:10:15Z</time></trkpt>
<trkpt lat="50.594205" lon="3.680004"><ele>45.01</ele><time>2025-05-24T18:10:20Z</time></trkpt>
<trkpt lat="50.594521" lon="3.679409"><ele>44.24</ele><time>2025-05-24T18:10:24Z</time></trkpt>
<trkpt lat="50.594722" lon="3.679087"><ele>44.0</ele><time>2025-05-24T18:10:29Z</time></trkpt>
<trkpt lat="50.594954" lon="3.678596"><ele>47.5</ele><time>2025-05-24T18:10:33Z</time></trkpt>
<trkpt lat="50.595244" lon="3.677504"><ele>50.86</ele><time>2025-05-24T18:10:38Z</time></trkpt>
<trkpt lat="50.595338" lon="3.676997"><ele>53.2</ele><time>2025-05-24T18:10:42Z</time></trkpt>
<trkpt lat="50.595341" lon="3.676694"><ele>54.35</ele><time>2025-05-24T18:10:47Z</time></trkpt>
<trkpt lat="50.595193" lon="3.673626"><ele>48.83</ele><time>2025-05-24T18:10:51Z</time></trkpt>
<trkpt lat="50.595238" lon="3.673213"><ele>47.76</ele><time>2025-05-24T18:10:56Z</time></trkpt>
<trkpt lat="50.595338" lon="3.672724"><ele>46.19</ele><time>2025-05-24T18:11:00Z</time></trkpt>
<trkpt lat="50.595448" lon="3.672442"><ele>45.4</ele><time>2025-05-24T18:11:05Z</time></trkpt>
<trkpt lat="50.595567" lon="3.672208"><ele>45.04</ele><time>2025-05-24T18:11:09Z</time></trkpt>
<trkpt lat="50.596623" lon="3.670631"><ele>46.84</ele><time>2025-05-24T18:11:14Z</time></trkpt>
<trkpt lat="50.596661" lon="3.670307"><ele>47.87</ele><time>2025-05-24T18:11:18Z</time></trkpt>
<trkpt lat="50.596663" lon="3.6699"><ele>47.99</ele><time>2025-05-24T18:11:23Z</time></trkpt>
<trkpt lat="50.596662" lon="3.668468"><ele>47.98</ele><time>2025-05-24T18:11:28Z</time></trkpt>
<trkpt lat="50.596679" lon="3.667348"><ele>51.95</ele><time>2025-05-24T18:11:32Z</time></trkpt>
<trkpt lat="50.596644" lon="3.666529"><ele>51.47</ele><time>2025-05-24T18:11:37Z</time></trkpt>
<trkpt lat="50.596653" lon="3.666114"><ele>51.0</ele><time>2025-05-24T18:11:41Z</time></trkpt>
<trkpt lat="50.597018" lon="3.661894"><ele>54.26</ele><time>2025-05-24T18:11:46Z</time></trkpt>
<trkpt lat="50.597075" lon="3.661529"><ele>54.73</ele><time>2025-05-24T18:11:50Z</time></trkpt>
<trkpt lat="50.597191" lon="3.661091"><ele>55.06</ele><time>2025-05-24T18:11:55Z</time></trkpt>
<trkpt lat="50.597327" lon="3.660718"><ele>55.62</ele><time>2025-05-24T18:11:59Z</time></trkpt>
<trkpt lat="50.597489" lon="3.660418"><ele>55.02</ele><time>2025-05-24T18:12:04Z</time></trkpt>
<trkpt lat="50.599605" lon="3.657272"><ele>57.42</ele><time>2025-05-24T18:12:08Z</time></trkpt>
<trkpt lat="50.599955" lon="3.656859"><ele>58.89</ele><time>2025-05-24T18:12:13Z</time></trkpt>
<trkpt lat="50.600302" lon="3.656603"><ele>57.85</ele><time>2025-05-24T18:12:17Z</time></trkpt>
<trkpt lat="50.600573" lon="3.656465"><ele>56.72</ele><time>2025-05-24T18:12:22Z</time></trkpt>
<trkpt lat="50.603026" lon="3.655816"><ele>50.1</ele><time>2025-05-24T18:12:27Z</time></trkpt>
<trkpt lat="50.603532" lon="3.655772"><ele>49.0</ele><time>2025-05-24T18:12:31Z</time></trkpt>
<trkpt lat="50.605113" lon="3.655837"><ele>50.42</ele><time>2025-05-24T18:12:36Z</time></trkpt>
<trkpt lat="50.605375" lon="3.655809"><ele>51.35</ele><time>2025-05-24T18:12:40Z</time></trkpt>
<trkpt lat="50.605773" lon="3.655715"><ele>52.0</ele><time>2025-05-24T18:12:45Z</time></trkpt>
<trkpt lat="50.60683" lon="3.655474"><ele>47.12</ele><time>2025-05-24T18:12:49Z</time></trkpt>
<trkpt lat="50.606965" lon="3.655419"><ele>46.51</ele><time>2025-05-24T18:12:54Z</time></trkpt>
<trkpt lat="50.607179" lon="3.655263"><ele>45.94</ele><time>2025-05-24T18:12:58Z</time></trkpt>
<trkpt lat="50.607828" lon="3.654495"><ele>43.15</ele><time>2025-05-24T18:13:03Z</time></trkpt>
<trkpt lat="50.608023" lon="3.654296"><ele>43.41</ele><time>2025-05-24T18:13:07Z</time></trkpt>
<trkpt lat="50.608143" lon="3.654199"><ele>43.88</ele><time>2025-05-24T18:13:12Z</time></trkpt>
<trkpt lat="50.608351" lon="3.654082"><ele>44.28</ele><time>2025-05-24T18:13:16Z</time></trkpt>
<trkpt lat="50.611303" lon="3.653148"><ele>46.67</ele><time>2025-05-24T18:13:21Z</time></trkpt>
<trkpt lat="50.611573" lon="3.653005"><ele>47.0</ele><time>2025-05-24T18:13:26Z</time></trkpt>
<trkpt lat="50.612135" lon="3.652549"><ele>47.31</ele><time>2025-05-24T18:13:30Z</time></trkpt>
<trkpt lat="50.61236" lon="3.652347"><ele>47.0</ele><time>2025-05-24T18:13:35Z</time></trkpt>
<trkpt lat="50.612567" lon="3.652129"><ele>47.58</ele><time>2025-05-24T18:13:39Z</time></trkpt>
<trkpt lat="50.612741" lon="3.651884"><ele>49.06</ele><time>2025-05-24T18:13:44Z</time></trkpt>
<trkpt lat="50.613973" lon="3.64988"><ele>55.43</ele><time>2025-05-24T18:13:48Z</time></trkpt>
<trkpt lat="50.61416" lon="3.649532"><ele>56.69</ele><time>2025-05-24T18:13:53Z</time></trkpt>
<trkpt lat="50.614841" lon="3.648143"><ele>63.26</ele><time>2025-05-24T18:13:57Z</time></trkpt>
<trkpt lat="50.61608" lon="3.645254"><ele>65.3</ele><time>2025-05-24T18:14:02Z</time></trkpt>
<trkpt lat="50.616953" lon="3.643651"><ele>66.08</ele><time>2025-05-24T18:14:06Z</time></trkpt>
<trkpt lat="50.618681" lon="3.640586"><ele>67.75</ele><time>2025-05-24T18:14:11Z</time></trkpt>
<trkpt lat="50.618901" lon="3.640214"><ele>68.0</ele><time>2025-05-24T18:14:15Z</time></trkpt>
<trkpt lat="50.619747" lon="3.638905"><ele>72.94</ele><time>2025-05-24T18:14:20Z</time></trkpt>
<trkpt lat="50.620465" lon="3.637827"><ele>72.65</ele><time>2025-05-24T18:14:24Z</time></trkpt>
<trkpt lat="50.620686" lon="3.637454"><ele>70.44</ele><time>2025-05-24T18:14:29Z</time></trkpt>
<trkpt lat="50.620897" lon="3.637425"><ele>70.23</ele><time>2025-05-24T18:14:32Z</time></trkpt>
<trkpt lat="50.621181" lon="3.637479"><ele>71.0</ele><time>2025-05-24T18:14:36Z</time></trkpt>
<trkpt lat="50.621398" lon="3.63762"><ele>71.38</ele><time>2025-05-24T18:14:39Z</time></trkpt>
<trkpt lat="50.622026" lon="3.638151"><ele>70.34</ele><time>2025-05-24T18:14:42Z</time></trkpt>
<trkpt lat="50.622646" lon="3.638393"><ele>71.0</ele><time>2025-05-24T18:14:45Z</time></trkpt>
<trkpt lat="50.623274" lon="3.63851"><ele>70.08</ele><time>2025-05-24T18:14:49Z</time></trkpt>
<trkpt lat="50.62454" lon="3.638469"><ele>72.66</ele><time>2025-05-24T18:14:52Z</time></trkpt>
<trkpt lat="50.624958" lon="3.63994"><ele>70.07</ele><time>2025-05-24T18:14:57Z</time></trkpt>
<trkpt lat="50.62518" lon="3.640562"><ele>69.63</ele><time>2025-05-24T18:15:02Z</time></trkpt>
<trkpt lat="50.627083" lon="3.64487"><ele>64.0</ele><time>2025-05-24T18:15:07Z</time></trkpt>
<trkpt lat="50.627559" lon="3.646104"><ele>61.81</ele><time>2025-05-24T18:15:12Z</time></trkpt>
<trkpt lat="50.627783" lon="3.646779"><ele>60.96</ele><time>2025-05-24T18:15:17Z</time></trkpt>
<trkpt lat="50.628827" lon="3.650273"><ele>54.22</ele><time>2025-05-24T18:15:22Z</time></trkpt>
<trkpt lat="50.629114" lon="3.651299"><ele>54.19</ele><time>2025-05-24T18:15:27Z</time></trkpt>
<trkpt lat="50.629583" lon="3.653104"><ele>48.33</ele><time>2025-05-24T18:15:32Z</time></trkpt>
<trkpt lat="50.629655" lon="3.653496"><ele>47.1</ele><time>2025-05-24T18:15:37Z</time></trkpt>
<trkpt lat="50.629677" lon="3.653791"><ele>46.35</ele><time>2025-05-24T18:15:42Z</time></trkpt>
<trkpt lat="50.62967" lon="3.654062"><ele>46.0</ele><time>2025-05-24T18:15:47Z</time></trkpt>
<trkpt lat="50.629597" lon="3.654942"><ele>43.21</ele><time>2025-05-24T18:15:52Z</time></trkpt>
<trkpt lat="50.629586" lon="3.655249"><ele>42.56</ele><time>2025-05-24T18:15:57Z</time></trkpt>
<trkpt lat="50.629604" lon="3.65561"><ele>42.15</ele><time>2025-05-24T18:16:02Z</time></trkpt>
<trkpt lat="50.629681" lon="3.655978"><ele>42.71</ele><time>2025-05-24T18:16:07Z</time></trkpt>
<trkpt lat="50.629958" lon="3.6567"><ele>43.85</ele><time>2025-05-24T18:16:12Z</time></trkpt>
<trkpt lat="50.631774" lon="3.661108"><ele>58.38</ele><time>2025-05-24T18:16:17Z</time></trkpt>
<trkpt lat="50.631826" lon="3.661294"><ele>58.57</ele><time>2025-05-24T18:16:22Z</time></trkpt>
<trkpt lat="50.631855" lon="3.661507"><ele>58.68</ele><time>2025-05-24T18:16:27Z</time></trkpt>
<trkpt lat="50.631859" lon="3.661651"><ele>58.69</ele><time>2025-05-24T18:16:32Z</time></trkpt>
<trkpt lat="50.631835" lon="3.661893"><ele>58.6</ele><time>2025-05-24T18:16:37Z</time></trkpt>
<trkpt lat="50.631757" lon="3.662117"><ele>57.9</ele><time>2025-05-24T18:16:42Z</time></trkpt>
<trkpt lat="50.631155" lon="3.663332"><ele>57.15</ele><time>2025-05-24T18:16:47Z</time></trkpt>
<trkpt lat="50.630615" lon="3.664351"><ele>56.62</ele><time>2025-05-24T18:16:52Z</time></trkpt>
<trkpt lat="50.630431" lon="3.664621"><ele>55.55</ele><time>2025-05-24T18:16:57Z</time></trkpt>
<trkpt lat="50.630341" lon="3.664704"><ele>55.23</ele><time>2025-05-24T18:17:02Z</time></trkpt>
<trkpt lat="50.630125" lon="3.664788"><ele>54.58</ele><time>2025-05-24T18:17:07Z</time></trkpt>
<trkpt lat="50.630008" lon="3.664785"><ele>54.25</ele><time>2025-05-24T18:17:12Z</time></trkpt>
<trkpt lat="50.629811" lon="3.664712"><ele>54.68</ele><time>2025-05-24T18:17:17Z</time></trkpt>
<trkpt lat="50.629675" lon="3.664599"><ele>55.17</ele><time>2025-05-24T18:17:22Z</time></trkpt>
<trkpt lat="50.629514" lon="3.664362"><ele>55.53</ele><time>2025-05-24T18:17:27Z</time></trkpt>
<trkpt lat="50.628898" lon="3.663108"><ele>53.0</ele><time>2025-05-24T18:17:32Z</time></trkpt>
<trkpt lat="50.628786" lon="3.662915"><ele>53.37</ele><time>2025-05-24T18:17:37Z</time></trkpt>
<trkpt lat="50.627376" lon="3.661058"><ele>57.44</ele><time>2025-05-24T18:17:42Z</time></trkpt>
<trkpt lat="50.627294" lon="3.660967"><ele>57.12</ele><time>2025-05-24T18:17:47Z</time></trkpt>
<trkpt lat="50.627214" lon="3.660919"><ele>56.97</ele><time>2025-05-24T18:17:52Z</time></trkpt>
<trkpt lat="50.627169" lon="3.660712"><ele>56.81</ele><time>2025-05-24T18:18:08Z</time></trkpt>
<trkpt lat="50.627071" lon="3.660519"><ele>56.4</ele><time>2025-05-24T18:18:25Z</time></trkpt>
<trkpt lat="50.626711" lon="3.660106"><ele>55.16</ele><time>2025-05-24T18:18:42Z</time></trkpt>
<trkpt lat="50.626402" lon="3.659594"><ele>51.63</ele><time>2025-05-24T18:18:58Z</time></trkpt>
<trkpt lat="50.625681" lon="3.658519"><ele>49.0</ele><time>2025-05-24T18:19:15Z</time></trkpt>
<trkpt lat="50.625555" lon="3.658364"><ele>48.99</ele><time>2025-05-24T18:19:31Z</time></trkpt>
<trkpt lat="50.624908" lon="3.657699"><ele>47.72</ele><time>2025-05-24T18:19:48Z</time></trkpt>
<trkpt lat="50.624836" lon="3.657628"><ele>47.46</ele><time>2025-05-24T18:20:05Z</time></trkpt>
<trkpt lat="50.624781" lon="3.657621"><ele>47.44</ele><time>2025-05-24T18:20:21Z</time></trkpt>
<trkpt lat="50.624781" lon="3.657621"><ele>47.44</ele><time>2025-05-24T18:20:21Z</time></trkpt>
<trkpt lat="50.624836" lon="3.657628"><ele>47.46</ele><time>2025-05-24T18:20:38Z</time></trkpt>
<trkpt lat="50.624908" lon="3.657699"><ele>47.72</ele><time>2025-05-24T18:20:55Z</time></trkpt>
<trkpt lat="50.625555" lon="3.658364"><ele>48.99</ele><time>2025-05-24T18:21:11Z</time></trkpt>
<trkpt lat="50.625681" lon="3.658519"><ele>49.0</ele><time>2025-05-24T18:21:28Z</time></trkpt>
<trkpt lat="50.626402" lon="3.659594"><ele>51.63</ele><time>2025-05-24T18:21:45Z</time></trkpt>
<trkpt lat="50.626711" lon="3.660106"><ele>55.16</ele><time>2025-05-24T18:22:01Z</time></trkpt>
<trkpt lat="50.627071" lon="3.660519"><ele>56.4</ele><time>2025-05-24T18:22:18Z</time></trkpt>
<trkpt lat="50.627169" lon="3.660712"><ele>56.81</ele><time>2025-05-24T18:22:35Z</time></trkpt>
<trkpt lat="50.627214" lon="3.660919"><ele>56.97</ele><time>2025-05-24T18:22:51Z</time></trkpt>
<trkpt lat="50.627294" lon="3.660967"><ele>57.12</ele><time>2025-05-24T18:22:56Z</time></trkpt>
<trkpt lat="50.627376" lon="3.661058"><ele>57.44</ele><time>2025-05-24T18:23:01Z</time></trkpt>
<trkpt lat="50.628786" lon="3.662915"><ele>53.37</ele><time>2025-05-24T18:23:05Z</time></trkpt>
<trkpt lat="50.628898" lon="3.663108"><ele>53.0</ele><time>2025-05-24T18:23:10Z</time></trkpt>
<trkpt lat="50.629514" lon="3.664362"><ele>55.53</ele><time>2025-05-24T18:23:15Z</time></trkpt>
<trkpt lat="50.629675" lon="3.664599"><ele>55.17</ele><time>2025-05-24T18:23:20Z</time></trkpt>
<trkpt lat="50.629811" lon="3.664712"><ele>54.68</ele><time>2025-05-24T18:23:24Z</time></trkpt>
<trkpt lat="50.630008" lon="3.664785"><ele>54.25</ele><time>2025-05-24T18:23:29Z</time></trkpt>
<trkpt lat="50.630125" lon="3.664788"><ele>54.58</ele><time>2025-05-24T18:23:34Z</time></trkpt>
<trkpt lat="50.630341" lon="3.664704"><ele>55.23</ele><time>2025-05-24T18:23:38Z</time></trkpt>
<trkpt lat="50.630431" lon="3.664621"><ele>55.55</ele><time>2025-05-24T18:23:43Z</time></trkpt>
<trkpt lat="50.630615" lon="3.664351"><ele>56.62</ele><time>2025-05-24T18:23:48Z</time></trkpt>
<trkpt lat="50.631155" lon="3.663332"><ele>57.15</ele><time>2025-05-24T18:23:52Z</time></trkpt>
<trkpt lat="50.632075" lon="3.666578"><ele>60.68</ele><time>2025-05-24T18:23:58Z</time></trkpt>
<trkpt lat="50.632203" lon="3.666964"><ele>61.06</ele><time>2025-05-24T18:24:03Z</time></trkpt>
<trkpt lat="50.632335" lon="3.667234"><ele>61.59</ele><time>2025-05-24T18:24:08Z</time></trkpt>
<trkpt lat="50.632458" lon="3.667423"><ele>61.15</ele><time>2025-05-24T18:24:13Z</time></trkpt>
<trkpt lat="50.632634" lon="3.667627"><ele>59.09</ele><time>2025-05-24T18:24:19Z</time></trkpt>
<trkpt lat="50.634742" lon="3.669263"><ele>47.74</ele><time>2025-05-24T18:24:24Z</time></trkpt>
<trkpt lat="50.634742" lon="3.669263"><ele>47.74</ele><time>2025-05-24T18:24:24Z</time></trkpt>
<trkpt lat="50.634727" lon="3.669251"><ele>48.68</ele><time>2025-05-24T18:24:24Z</time></trkpt>
<trkpt lat="50.63612" lon="3.666887"><ele>51.0</ele><time>2025-05-24T18:24:33Z</time></trkpt>
<trkpt lat="50.636326" lon="3.66665"><ele>50.96</ele><time>2025-05-24T18:24:42Z</time></trkpt>
<trkpt lat="50.636775" lon="3.666247"><ele>50.39</ele><time>2025-05-24T18:24:50Z</time></trkpt>
<trkpt lat="50.637011" lon="3.66606"><ele>51.0</ele><time>2025-05-24T18:24:59Z</time></trkpt>
<trkpt lat="50.637502" lon="3.665739"><ele>51.0</ele><time>2025-05-24T18:25:08Z</time></trkpt>
<trkpt lat="50.638007" lon="3.665426"><ele>52.76</ele><time>2025-05-24T18:25:16Z</time></trkpt>
<trkpt lat="50.639516" lon="3.664811"><ele>56.68</ele><time>2025-05-24T18:25:25Z</time></trkpt>
<trkpt lat="50.639604" lon="3.664754"><ele>56.88</ele><time>2025-05-24T18:25:34Z</time></trkpt>
<trkpt lat="50.639796" lon="3.664578"><ele>57.52</ele><time>2025-05-24T18:25:42Z</time></trkpt>
<trkpt lat="50.639966" lon="3.664359"><ele>58.31</ele><time>2025-05-24T18:25:51Z</time></trkpt>
<trkpt lat="50.640173" lon="3.663952"><ele>58.53</ele><time>2025-05-24T18:25:57Z</time></trkpt>
<trkpt lat="50.640222" lon="3.663702"><ele>59.07</ele><time>2025-05-24T18:26:04Z</time></trkpt>
<trkpt lat="50.640104" lon="3.66252"><ele>63.0</ele><time>2025-05-24T18:26:10Z</time></trkpt>
<trkpt lat="50.639385" lon="3.658873"><ele>65.73</ele><time>2025-05-24T18:26:17Z</time></trkpt>
<trkpt lat="50.639344" lon="3.658574"><ele>64.64</ele><time>2025-05-24T18:26:23Z</time></trkpt>
<trkpt lat="50.639317" lon="3.657982"><ele>63.54</ele><time>2025-05-24T18:26:29Z</time></trkpt>
<trkpt lat="50.639343" lon="3.657617"><ele>62.69</ele><time>2025-05-24T18:26:36Z</time></trkpt>
<trkpt lat="50.639375" lon="3.657478"><ele>61.94</ele><time>2025-05-24T18:26:42Z</time></trkpt>
<trkpt lat="50.63943" lon="3.657368"><ele>61.55</ele><time>2025-05-24T18:26:49Z</time></trkpt>
<trkpt lat="50.639496" lon="3.657317"><ele>61.34</ele><time>2025-05-24T18:26:55Z</time></trkpt>
<trkpt lat="50.640074" lon="3.657148"><ele>61.47</ele><time>2025-05-24T18:27:01Z</time></trkpt>
<trkpt lat="50.64035" lon="3.657014"><ele>60.68</ele><time>2025-05-24T18:27:08Z</time></trkpt>
<trkpt lat="50.640488" lon="3.656875"><ele>59.69</ele><time>2025-05-24T18:27:14Z</time></trkpt>
<trkpt lat="50.641306" lon="3.655866"><ele>60.7</ele><time>2025-05-24T18:27:21Z</time></trkpt>
<trkpt lat="50.641422" lon="3.655745"><ele>61.0</ele><time>2025-05-24T18:27:27Z</time></trkpt>
<trkpt lat="50.642308" lon="3.655047"><ele>65.0</ele><time>2025-05-24T18:27:33Z</time></trkpt>
<trkpt lat="50.644673" lon="3.653267"><ele>72.88</ele><time>2025-05-24T18:27:40Z</time></trkpt>
<trkpt lat="50.644749" lon="3.653162"><ele>73.91</ele><time>2025-05-24T18:27:46Z</time></trkpt>
<trkpt lat="50.64484" lon="3.65291"><ele>75.57</ele><time>2025-05-24T18:27:53Z</time></trkpt>
<trkpt lat="50.645111" lon="3.651842"><ele>79.8</ele><time>2025-05-24T18:27:59Z</time></trkpt>
<trkpt lat="50.645532" lon="3.649925"><ele>75.29</ele><time>2025-05-24T18:28:05Z</time></trkpt>
<trkpt lat="50.645645" lon="3.649568"><ele>73.21</ele><time>2025-05-24T18:28:12Z</time></trkpt>
<trkpt lat="50.645748" lon="3.649366"><ele>71.93</ele><time>2025-05-24T18:28:18Z</time></trkpt>
<trkpt lat="50.646077" lon="3.649033"><ele>66.4</ele><time>2025-05-24T18:28:25Z</time></trkpt>
<trkpt lat="50.64664" lon="3.648458"><ele>62.3</ele><time>2025-05-24T18:28:31Z</time></trkpt>
<trkpt lat="50.646699" lon="3.648344"><ele>60.88</ele><time>2025-05-24T18:28:37Z</time></trkpt>
<trkpt lat="50.646699" lon="3.648344"><ele>60.88</ele><time>2025-05-24T18:28:37Z</time></trkpt>
<trkpt lat="50.646722" lon="3.648268"><ele>60.37</ele><time>2025-05-24T18:28:55Z</time></trkpt>
<trkpt lat="50.646726" lon="3.648167"><ele>59.98</ele><time>2025-05-24T18:29:12Z</time></trkpt>
<trkpt lat="50.645878" lon="3.639354"><ele>54.92</ele><time>2025-05-24T18:29:29Z</time></trkpt>
<trkpt lat="50.645856" lon="3.638984"><ele>56.74</ele><time>2025-05-24T18:29:47Z</time></trkpt>
<trkpt lat="50.646533" lon="3.638263"><ele>61.86</ele><time>2025-05-24T18:29:52Z</time></trkpt>
<trkpt lat="50.646832" lon="3.637919"><ele>60.81</ele><time>2025-05-24T18:29:57Z</time></trkpt>
<trkpt lat="50.648134" lon="3.636726"><ele>59.28</ele><time>2025-05-24T18:30:02Z</time></trkpt>
<trkpt lat="50.64797" lon="3.636207"><ele>59.0</ele><time>2025-05-24T18:30:10Z</time></trkpt>
<trkpt lat="50.64781" lon="3.635479"><ele>56.48</ele><time>2025-05-24T18:30:17Z</time></trkpt>
<trkpt lat="50.647497" lon="3.633487"><ele>45.54</ele><time>2025-05-24T18:30:25Z</time></trkpt>
<trkpt lat="50.647504" lon="3.633371"><ele>45.15</ele><time>2025-05-24T18:30:33Z</time></trkpt>
<trkpt lat="50.647532" lon="3.63326"><ele>44.85</ele><time>2025-05-24T18:30:40Z</time></trkpt>
<trkpt lat="50.647889" lon="3.632638"><ele>44.9</ele><time>2025-05-24T18:30:48Z</time></trkpt>
<trkpt lat="50.647954" lon="3.632486"><ele>44.97</ele><time>2025-05-24T18:30:56Z</time></trkpt>
<trkpt lat="50.647974" lon="3.632388"><ele>44.72</ele><time>2025-05-24T18:31:03Z</time></trkpt>
<trkpt lat="50.64809" lon="3.630649"><ele>44.12</ele><time>2025-05-24T18:31:11Z</time></trkpt>
<trkpt lat="50.648063" lon="3.630469"><ele>43.72</ele><time>2025-05-24T18:31:19Z</time></trkpt>
<trkpt lat="50.647984" lon="3.630194"><ele>43.26</ele><time>2025-05-24T18:31:26Z</time></trkpt>
<trkpt lat="50.647876" lon="3.629674"><ele>44.65</ele><time>2025-05-24T18:31:34Z</time></trkpt>
<trkpt lat="50.647278" lon="3.626322"><ele>52.0</ele><time>2025-05-24T18:31:41Z</time></trkpt>
<trkpt lat="50.646903" lon="3.624856"><ele>55.07</ele><time>2025-05-24T18:31:49Z</time></trkpt>
<trkpt lat="50.649119" lon="3.623608"><ele>54.0</ele><time>2025-05-24T18:31:53Z</time></trkpt>
<trkpt lat="50.649688" lon="3.623261"><ele>54.0</ele><time>2025-05-24T18:31:57Z</time></trkpt>
<trkpt lat="50.649892" lon="3.6231"><ele>54.61</ele><time>2025-05-24T18:32:02Z</time></trkpt>
<trkpt lat="50.650526" lon="3.622518"><ele>52.33</ele><time>2025-05-24T18:32:06Z</time></trkpt>
<trkpt lat="50.651468" lon="3.621427"><ele>51.39</ele><time>2025-05-24T18:32:10Z</time></trkpt>
<trkpt lat="50.651812" lon="3.620999"><ele>49.6</ele><time>2025-05-24T18:32:14Z</time></trkpt>
<trkpt lat="50.651901" lon="3.620829"><ele>49.0</ele><time>2025-05-24T18:32:18Z</time></trkpt>
<trkpt lat="50.651967" lon="3.620748"><ele>49.16</ele><time>2025-05-24T18:32:23Z</time></trkpt>
<trkpt lat="50.651925" lon="3.620591"><ele>48.8</ele><time>2025-05-24T18:32:24Z</time></trkpt>
<trkpt lat="50.651925" lon="3.620591"><ele>48.8</ele><time>2025-05-24T18:32:24Z</time></trkpt>
<trkpt lat="50.651791" lon="3.620093"><ele>48.45</ele><time>2025-05-24T18:32:29Z</time></trkpt>
<trkpt lat="50.651532" lon="3.619071"><ele>47.0</ele><time>2025-05-24T18:32:34Z</time></trkpt>
<trkpt lat="50.651455" lon="3.618833"><ele>46.8</ele><time>2025-05-24T18:32:40Z</time></trkpt>
<trkpt lat="50.651239" lon="3.618477"><ele>44.98</ele><time>2025-05-24T18:32:45Z</time></trkpt>
<trkpt lat="50.650814" lon="3.617948"><ele>41.51</ele><time>2025-05-24T18:32:50Z</time></trkpt>
<trkpt lat="50.650459" lon="3.617478"><ele>36.92</ele><time>2025-05-24T18:32:55Z</time></trkpt>
<trkpt lat="50.65032" lon="3.617238"><ele>36.06</ele><time>2025-05-24T18:33:00Z</time></trkpt>
<trkpt lat="50.648398" lon="3.613333"><ele>44.76</ele><time>2025-05-24T18:33:06Z</time></trkpt>
<trkpt lat="50.645968" lon="3.608586"><ele>38.0</ele><time>2025-05-24T18:33:11Z</time></trkpt>
<trkpt lat="50.645811" lon="3.608231"><ele>38.37</ele><time>2025-05-24T18:33:16Z</time></trkpt>
<trkpt lat="50.645688" lon="3.607892"><ele>39.31</ele><time>2025-05-24T18:33:21Z</time></trkpt>
<trkpt lat="50.645466" lon="3.607184"><ele>40.41</ele><time>2025-05-24T18:33:26Z</time></trkpt>
<trkpt lat="50.645272" lon="3.606438"><ele>41.87</ele><time>2025-05-24T18:33:31Z</time></trkpt>
<trkpt lat="50.644988" lon="3.606567"><ele>43.42</ele><time>2025-05-24T18:33:34Z</time></trkpt>
<trkpt lat="50.644933" lon="3.606553"><ele>43.75</ele><time>2025-05-24T18:33:36Z</time></trkpt>
<trkpt lat="50.644871" lon="3.606479"><ele>44.46</ele><time>2025-05-24T18:33:38Z</time></trkpt>
<trkpt lat="50.64378" lon="3.60452"><ele>48.44</ele><time>2025-05-24T18:33:40Z</time></trkpt>
<trkpt lat="50.643469" lon="3.603865"><ele>50.08</ele><time>2025-05-24T18:33:43Z</time></trkpt>
<trkpt lat="50.643291" lon="3.603444"><ele>50.94</ele><time>2025-05-24T18:33:45Z</time></trkpt>
<trkpt lat="50.643101" lon="3.602895"><ele>52.0</ele><time>2025-05-24T18:33:47Z</time></trkpt>
<trkpt lat="50.642817" lon="3.601864"><ele>54.18</ele><time>2025-05-24T18:33:49Z</time></trkpt>
<trkpt lat="50.642771" lon="3.601638"><ele>53.85</ele><time>2025-05-24T18:33:51Z</time></trkpt>
<trkpt lat="50.642699" lon="3.601254"><ele>52.72</ele><time>2025-05-24T18:33:54Z</time></trkpt>
<trkpt lat="50.642662" lon="3.601022"><ele>52.77</ele><time>2025-05-24T18:33:56Z</time></trkpt>
<trkpt lat="50.642611" lon="3.600511"><ele>52.96</ele><time>2025-05-24T18:33:58Z</time></trkpt>
<trkpt lat="50.642605" lon="3.60023"><ele>53.86</ele><time>2025-05-24T18:34:00Z</time></trkpt>
<trkpt lat="50.642651" lon="3.599444"><ele>54.55</ele><time>2025-05-24T18:34:03Z</time></trkpt>
<trkpt lat="50.642735" lon="3.598817"><ele>56.1</ele><time>2025-05-24T18:34:05Z</time></trkpt>
<trkpt lat="50.642809" lon="3.598561"><ele>57.23</ele><time>2025-05-24T18:34:07Z</time></trkpt>
<trkpt lat="50.643014" lon="3.598502"><ele>58.7</ele><time>2025-05-24T18:34:08Z</time></trkpt>
<trkpt lat="50.642969" lon="3.598042"><ele>57.37</ele><time>2025-05-24T18:34:13Z</time></trkpt>
<trkpt lat="50.642943" lon="3.596634"><ele>56.71</ele><time>2025-05-24T18:34:18Z</time></trkpt>
<trkpt lat="50.642908" lon="3.59618"><ele>57.47</ele><time>2025-05-24T18:34:22Z</time></trkpt>
<trkpt lat="50.642856" lon="3.5959"><ele>58.04</ele><time>2025-05-24T18:34:27Z</time></trkpt>
<trkpt lat="50.641596" lon="3.591428"><ele>66.36</ele><time>2025-05-24T18:34:32Z</time></trkpt>
<trkpt lat="50.641488" lon="3.591096"><ele>66.7</ele><time>2025-05-24T18:34:37Z</time></trkpt>
<trkpt lat="50.64134" lon="3.590716"><ele>68.42</ele><time>2025-05-24T18:34:41Z</time></trkpt>
<trkpt lat="50.641072" lon="3.590165"><ele>70.14</ele><time>2025-05-24T18:34:46Z</time></trkpt>
<trkpt lat="50.640774" lon="3.589301"><ele>70.29</ele><time>2025-05-24T18:34:51Z</time></trkpt>
<trkpt lat="50.639976" lon="3.588032"><ele>68.09</ele><time>2025-05-24T18:34:55Z</time></trkpt>
<trkpt lat="50.638984" lon="3.586584"><ele>69.21</ele><time>2025-05-24T18:35:00Z</time></trkpt>
<trkpt lat="50.638852" lon="3.586254"><ele>70.27</ele><time>2025-05-24T18:35:05Z</time></trkpt>
<trkpt lat="50.63829" lon="3.584107"><ele>78.18</ele><time>2025-05-24T18:35:10Z</time></trkpt>
<trkpt lat="50.638236" lon="3.583951"><ele>78.5</ele><time>2025-05-24T18:35:14Z</time></trkpt>
<trkpt lat="50.63732" lon="3.581796"><ele>77.75</ele><time>2025-05-24T18:35:19Z</time></trkpt>
<trkpt lat="50.63732" lon="3.581796"><ele>77.75</ele><time>2025-05-24T18:35:19Z</time></trkpt>
<trkpt lat="50.638236" lon="3.583951"><ele>78.5</ele><time>2025-05-24T18:35:25Z</time></trkpt>
<trkpt lat="50.63829" lon="3.584107"><ele>78.18</ele><time>2025-05-24T18:35:30Z</time></trkpt>
<trkpt lat="50.638852" lon="3.586254"><ele>70.27</ele><time>2025-05-24T18:35:36Z</time></trkpt>
<trkpt lat="50.638984" lon="3.586584"><ele>69.21</ele><time>2025-05-24T18:35:41Z</time></trkpt>
<trkpt lat="50.639976" lon="3.588032"><ele>68.09</ele><time>2025-05-24T18:35:47Z</time></trkpt>
<trkpt lat="50.640774" lon="3.589301"><ele>70.29</ele><time>2025-05-24T18:35:53Z</time></trkpt>
<trkpt lat="50.641072" lon="3.590165"><ele>70.14</ele><time>2025-05-24T18:35:58Z</time></trkpt>
<trkpt lat="50.64134" lon="3.590716"><ele>68.42</ele><time>2025-05-24T18:36:04Z</time></trkpt>
<trkpt lat="50.641488" lon="3.591096"><ele>66.7</ele><time>2025-05-24T18:36:09Z</time></trkpt>
<trkpt lat="50.641596" lon="3.591428"><ele>66.36</ele><time>2025-05-24T18:36:15Z</time></trkpt>
<trkpt lat="50.642856" lon="3.5959"><ele>58.04</ele><time>2025-05-24T18:36:20Z</time></trkpt>
<trkpt lat="50.643485" lon="3.595639"><ele>59.0</ele><time>2025-05-24T18:36:27Z</time></trkpt>
<trkpt lat="50.643709" lon="3.5956"><ele>58.65</ele><time>2025-05-24T18:36:33Z</time></trkpt>
<trkpt lat="50.643884" lon="3.59561"><ele>58.01</ele><time>2025-05-24T18:36:39Z</time></trkpt>
<trkpt lat="50.644439" lon="3.595806"><ele>57.9</ele><time>2025-05-24T18:36:45Z</time></trkpt>
<trkpt lat="50.644562" lon="3.595819"><ele>57.1</ele><time>2025-05-24T18:36:52Z</time></trkpt>
<trkpt lat="50.644698" lon="3.595804"><ele>56.07</ele><time>2025-05-24T18:36:58Z</time></trkpt>
<trkpt lat="50.644908" lon="3.595708"><ele>54.88</ele><time>2025-05-24T18:37:04Z</time></trkpt>
<trkpt lat="50.646142" lon="3.59487"><ele>49.89</ele><time>2025-05-24T18:37:10Z</time></trkpt>
<trkpt lat="50.646279" lon="3.594838"><ele>49.39</ele><time>2025-05-24T18:37:17Z</time></trkpt>
<trkpt lat="50.647653" lon="3.594601"><ele>47.43</ele><time>2025-05-24T18:37:30Z</time></trkpt>
<trkpt lat="50.649302" lon="3.594133"><ele>49.57</ele><time>2025-05-24T18:37:42Z</time></trkpt>
<trkpt lat="50.652576" lon="3.593248"><ele>55.8</ele><time>2025-05-24T18:37:55Z</time></trkpt>
<trkpt lat="50.652732" lon="3.593264"><ele>56.13</ele><time>2025-05-24T18:38:08Z</time></trkpt>
<trkpt lat="50.652857" lon="3.593228"><ele>56.38</ele><time>2025-05-24T18:38:21Z</time></trkpt>
<trkpt lat="50.65324" lon="3.592996"><ele>57.0</ele><time>2025-05-24T18:38:34Z</time></trkpt>
<trkpt lat="50.654038" lon="3.592563"><ele>59.69</ele><time>2025-05-24T18:38:47Z</time></trkpt>
<trkpt lat="50.655315" lon="3.592128"><ele>54.44</ele><time>2025-05-24T18:39:00Z</time></trkpt>
<trkpt lat="50.656099" lon="3.591511"><ele>50.49</ele><time>2025-05-24T18:39:13Z</time></trkpt>
<trkpt lat="50.65564" lon="3.586065"><ele>49.92</ele><time>2025-05-24T18:39:55Z</time></trkpt>
<trkpt lat="50.654075" lon="3.56804"><ele>53.67</ele><time>2025-05-24T18:40:37Z</time></trkpt>
<trkpt lat="50.653815" lon="3.565007"><ele>48.0</ele><time>2025-05-24T18:41:19Z</time></trkpt>
<trkpt lat="50.653056" lon="3.565754"><ele>45.71</ele><time>2025-05-24T18:41:44Z</time></trkpt>
<trkpt lat="50.652941" lon="3.56584"><ele>46.08</ele><time>2025-05-24T18:42:08Z</time></trkpt>
<trkpt lat="50.652941" lon="3.56584"><ele>46.08</ele><time>2025-05-24T18:42:08Z</time></trkpt>
<trkpt lat="50.653056" lon="3.565754"><ele>45.71</ele><time>2025-05-24T18:42:17Z</time></trkpt>
<trkpt lat="50.653815" lon="3.565007"><ele>48.0</ele><time>2025-05-24T18:42:27Z</time></trkpt>
<trkpt lat="50.653374" lon="3.559788"><ele>39.15</ele><time>2025-05-24T18:42:50Z</time></trkpt>
<trkpt lat="50.65303" lon="3.555803"><ele>34.09</ele><time>2025-05-24T18:43:14Z</time></trkpt>
<trkpt lat="50.652963" lon="3.555829"><ele>34.33</ele><time>2025-05-24T18:43:17Z</time></trkpt>
<trkpt lat="50.652901" lon="3.555895"><ele>34.56</ele><time>2025-05-24T18:43:20Z</time></trkpt>
<trkpt lat="50.6526" lon="3.556317"><ele>35.9</ele><time>2025-05-24T18:43:24Z</time></trkpt>
<trkpt lat="50.652435" lon="3.556518"><ele>36.35</ele><time>2025-05-24T18:43:27Z</time></trkpt>
<trkpt lat="50.65227" lon="3.556609"><ele>36.14</ele><time>2025-05-24T18:43:30Z</time></trkpt>
<trkpt lat="50.652059" lon="3.556651"><ele>35.44</ele><time>2025-05-24T18:43:33Z</time></trkpt>
<trkpt lat="50.65197" lon="3.556635"><ele>35.19</ele><time>2025-05-24T18:43:37Z</time></trkpt>
<trkpt lat="50.651885" lon="3.556553"><ele>35.41</ele><time>2025-05-24T18:43:40Z</time></trkpt>
<trkpt lat="50.651829" lon="3.556462"><ele>35.74</ele><time>2025-05-24T18:43:43Z</time></trkpt>
<trkpt lat="50.65151" lon="3.555841"><ele>36.55</ele><time>2025-05-24T18:43:46Z</time></trkpt>
<trkpt lat="50.651216" lon="3.555359"><ele>37.44</ele><time>2025-05-24T18:43:50Z</time></trkpt>
<trkpt lat="50.651127" lon="3.555308"><ele>37.84</ele><time>2025-05-24T18:43:53Z</time></trkpt>
<trkpt lat="50.651076" lon="3.555324"><ele>37.85</ele><time>2025-05-24T18:43:56Z</time></trkpt>
<trkpt lat="50.651024" lon="3.555385"><ele>37.74</ele><time>2025-05-24T18:43:59Z</time></trkpt>
<trkpt lat="50.650892" lon="3.555631"><ele>37.79</ele><time>2025-05-24T18:44:02Z</time></trkpt>
<trkpt lat="50.650831" lon="3.555668"><ele>38.01</ele><time>2025-05-24T18:44:06Z</time></trkpt>
<trkpt lat="50.650775" lon="3.555658"><ele>38.21</ele><time>2025-05-24T18:44:09Z</time></trkpt>
<trkpt lat="50.649848" lon="3.5551"><ele>41.35</ele><time>2025-05-24T18:44:12Z</time></trkpt>
<trkpt lat="50.649763" lon="3.555021"><ele>41.79</ele><time>2025-05-24T18:44:15Z</time></trkpt>
<trkpt lat="50.649563" lon="3.554648"><ele>40.88</ele><time>2025-05-24T18:44:19Z</time></trkpt>
<trkpt lat="50.649344" lon="3.554284"><ele>40.78</ele><time>2025-05-24T18:44:22Z</time></trkpt>
<trkpt lat="50.649229" lon="3.554159"><ele>40.75</ele><time>2025-05-24T18:44:25Z</time></trkpt>
<trkpt lat="50.648746" lon="3.553765"><ele>40.07</ele><time>2025-05-24T18:44:28Z</time></trkpt>
<trkpt lat="50.648532" lon="3.553466"><ele>40.28</ele><time>2025-05-24T18:44:31Z</time></trkpt>
<trkpt lat="50.648415" lon="3.553351"><ele>40.7</ele><time>2025-05-24T18:44:35Z</time></trkpt>
<trkpt lat="50.648072" lon="3.554238"><ele>42.26</ele><time>2025-05-24T18:44:43Z</time></trkpt>
<trkpt lat="50.647624" lon="3.555204"><ele>43.82</ele><time>2025-05-24T18:44:51Z</time></trkpt>
<trkpt lat="50.647083" lon="3.556043"><ele>44.38</ele><time>2025-05-24T18:45:00Z</time></trkpt>
<trkpt lat="50.646811" lon="3.555681"><ele>44.0</ele><time>2025-05-24T18:45:08Z</time></trkpt>
<trkpt lat="50.646612" lon="3.555364"><ele>43.45</ele><time>2025-05-24T18:45:17Z</time></trkpt>
<trkpt lat="50.646378" lon="3.554878"><ele>44.0</ele><time>2025-05-24T18:45:26Z</time></trkpt>
<trkpt lat="50.645683" lon="3.553225"><ele>40.22</ele><time>2025-05-24T18:45:35Z</time></trkpt>
<trkpt lat="50.645572" lon="3.552832"><ele>38.19</ele><time>2025-05-24T18:45:43Z</time></trkpt>
<trkpt lat="50.644817" lon="3.549358"><ele>37.65</ele><time>2025-05-24T18:45:52Z</time></trkpt>
<trkpt lat="50.64472" lon="3.549041"><ele>38.46</ele><time>2025-05-24T18:46:01Z</time></trkpt>
<trkpt lat="50.644568" lon="3.54873"><ele>40.13</ele><time>2025-05-24T18:46:10Z</time></trkpt>
<trkpt lat="50.641647" lon="3.54421"><ele>50.06</ele><time>2025-05-24T18:46:18Z</time></trkpt>
<trkpt lat="50.641548" lon="3.544099"><ele>50.42</ele><time>2025-05-24T18:46:27Z</time></trkpt>
<trkpt lat="50.64148" lon="3.544094"><ele>50.67</ele><time>2025-05-24T18:46:36Z</time></trkpt>
<trkpt lat="50.641317" lon="3.544181"><ele>50.95</ele><time>2025-05-24T18:46:44Z</time></trkpt>
<trkpt lat="50.639947" lon="3.545153"><ele>49.9</ele><time>2025-05-24T18:46:53Z</time></trkpt>
<trkpt lat="50.63966" lon="3.545435"><ele>48.44</ele><time>2025-05-24T18:47:02Z</time></trkpt>
<trkpt lat="50.638306" lon="3.54697"><ele>44.92</ele><time>2025-05-24T18:47:11Z</time></trkpt>
<trkpt lat="50.637619" lon="3.54793"><ele>47.02</ele><time>2025-05-24T18:47:19Z</time></trkpt>
<trkpt lat="50.637551" lon="3.547958"><ele>47.17</ele><time>2025-05-24T18:47:28Z</time></trkpt>
<trkpt lat="50.637486" lon="3.547953"><ele>47.45</ele><time>2025-05-24T18:47:37Z</time></trkpt>
<trkpt lat="50.637376" lon="3.547885"><ele>48.23</ele><time>2025-05-24T18:47:45Z</time></trkpt>
<trkpt lat="50.635896" lon="3.546889"><ele>50.0</ele><time>2025-05-24T18:47:54Z</time></trkpt>
<trkpt lat="50.635623" lon="3.546607"><ele>48.65</ele><time>2025-05-24T18:48:03Z</time></trkpt>
<trkpt lat="50.635469" lon="3.54631"><ele>49.16</ele><time>2025-05-24T18:48:12Z</time></trkpt>
<trkpt lat="50.635469" lon="3.54631"><ele>49.16</ele><time>2025-05-24T18:48:12Z</time></trkpt>
<trkpt lat="50.635368" lon="3.546023"><ele>49.32</ele><time>2025-05-24T18:48:20Z</time></trkpt>
<trkpt lat="50.634634" lon="3.543319"><ele>58.0</ele><time>2025-05-24T18:48:29Z</time></trkpt>
<trkpt lat="50.634522" lon="3.543093"><ele>58.0</ele><time>2025-05-24T18:48:38Z</time></trkpt>
<trkpt lat="50.634665" lon="3.542534"><ele>58.18</ele><time>2025-05-24T18:48:40Z</time></trkpt>
<trkpt lat="50.634672" lon="3.542433"><ele>58.18</ele><time>2025-05-24T18:48:42Z</time></trkpt>
<trkpt lat="50.634663" lon="3.542333"><ele>58.21</ele><time>2025-05-24T18:48:45Z</time></trkpt>
<trkpt lat="50.63454" lon="3.541908"><ele>58.34</ele><time>2025-05-24T18:48:47Z</time></trkpt>
<trkpt lat="50.634549" lon="3.541797"><ele>58.38</ele><time>2025-05-24T18:48:51Z</time></trkpt>
<trkpt lat="50.634581" lon="3.54169"><ele>58.49</ele><time>2025-05-24T18:48:56Z</time></trkpt>
<trkpt lat="50.635568" lon="3.540479"><ele>56.77</ele><time>2025-05-24T18:49:01Z</time></trkpt>
<trkpt lat="50.635803" lon="3.540113"><ele>56.83</ele><time>2025-05-24T18:49:05Z</time></trkpt>
<trkpt lat="50.635938" lon="3.539789"><ele>57.28</ele><time>2025-05-24T18:49:10Z</time></trkpt>
<trkpt lat="50.635562" lon="3.539007"><ele>53.48</ele><time>2025-05-24T18:49:14Z</time></trkpt>
<trkpt lat="50.635477" lon="3.538748"><ele>51.7</ele><time>2025-05-24T18:49:19Z</time></trkpt>
<trkpt lat="50.635417" lon="3.538399"><ele>49.35</ele><time>2025-05-24T18:49:24Z</time></trkpt>
<trkpt lat="50.635388" lon="3.53737"><ele>46.6</ele><time>2025-05-24T18:49:28Z</time></trkpt>
<trkpt lat="50.635325" lon="3.537026"><ele>45.93</ele><time>2025-05-24T18:49:33Z</time></trkpt>
<trkpt lat="50.635088" lon="3.536461"><ele>45.76</ele><time>2025-05-24T18:49:38Z</time></trkpt>
<trkpt lat="50.634694" lon="3.535379"><ele>46.43</ele><time>2025-05-24T18:49:42Z</time></trkpt>
<trkpt lat="50.634437" lon="3.534463"><ele>48.93</ele><time>2025-05-24T18:49:47Z</time></trkpt>
<trkpt lat="50.634333" lon="3.534005"><ele>50.58</ele><time>2025-05-24T18:49:52Z</time></trkpt>
<trkpt lat="50.634324" lon="3.533907"><ele>50.94</ele><time>2025-05-24T18:49:56Z</time></trkpt>
<trkpt lat="50.634334" lon="3.533787"><ele>51.37</ele><time>2025-05-24T18:50:01Z</time></trkpt>
<trkpt lat="50.634364" lon="3.533698"><ele>51.69</ele><time>2025-05-24T18:50:06Z</time></trkpt>
<trkpt lat="50.635039" lon="3.53255"><ele>50.68</ele><time>2025-05-24T18:50:10Z</time></trkpt>
<trkpt lat="50.634335" lon="3.53194"><ele>50.39</ele><time>2025-05-24T18:50:18Z</time></trkpt>
<trkpt lat="50.634198" lon="3.531741"><ele>50.24</ele><time>2025-05-24T18:50:26Z</time></trkpt>
<trkpt lat="50.633463" lon="3.529799"><ele>50.53</ele><time>2025-05-24T18:50:33Z</time></trkpt>
<trkpt lat="50.633387" lon="3.529464"><ele>50.81</ele><time>2025-05-24T18:50:41Z</time></trkpt>
<trkpt lat="50.633271" lon="3.528685"><ele>51.73</ele><time>2025-05-24T18:50:49Z</time></trkpt>
<trkpt lat="50.633221" lon="3.528483"><ele>52.0</ele><time>2025-05-24T18:50:56Z</time></trkpt>
<trkpt lat="50.633118" lon="3.528215"><ele>52.33</ele><time>2025-05-24T18:51:04Z</time></trkpt>
<trkpt lat="50.633029" lon="3.52806"><ele>53.08</ele><time>2025-05-24T18:51:12Z</time></trkpt>
<trkpt lat="50.632922" lon="3.527935"><ele>53.48</ele><time>2025-05-24T18:51:19Z</time></trkpt>
<trkpt lat="50.630415" lon="3.525663"><ele>57.49</ele><time>2025-05-24T18:51:27Z</time></trkpt>
<trkpt lat="50.630848" lon="3.523934"><ele>62.83</ele><time>2025-05-24T18:51:34Z</time></trkpt>
<trkpt lat="50.630855" lon="3.523849"><ele>63.01</ele><time>2025-05-24T18:51:41Z</time></trkpt>
<trkpt lat="50.630803" lon="3.52376"><ele>62.94</ele><time>2025-05-24T18:51:45Z</time></trkpt>
<trkpt lat="50.630468" lon="3.523429"><ele>62.89</ele><time>2025-05-24T18:51:49Z</time></trkpt>
<trkpt lat="50.630394" lon="3.523277"><ele>63.12</ele><time>2025-05-24T18:51:53Z</time></trkpt>
<trkpt lat="50.629929" lon="3.520695"><ele>73.5</ele><time>2025-05-24T18:51:57Z</time></trkpt>
<trkpt lat="50.629918" lon="3.520581"><ele>73.91</ele><time>2025-05-24T18:52:02Z</time></trkpt>
<trkpt lat="50.629924" lon="3.520426"><ele>74.13</ele><time>2025-05-24T18:52:06Z</time></trkpt>
<trkpt lat="50.629979" lon="3.520276"><ele>74.07</ele><time>2025-05-24T18:52:10Z</time></trkpt>
<trkpt lat="50.630152" lon="3.520103"><ele>74.0</ele><time>2025-05-24T18:52:14Z</time></trkpt>
<trkpt lat="50.631379" lon="3.519169"><ele>76.01</ele><time>2025-05-24T18:52:18Z</time></trkpt>
<trkpt lat="50.631794" lon="3.518827"><ele>77.79</ele><time>2025-05-24T18:52:22Z</time></trkpt>
<trkpt lat="50.63217" lon="3.518661"><ele>80.3</ele><time>2025-05-24T18:52:26Z</time></trkpt>
<trkpt lat="50.632341" lon="3.518564"><ele>82.0</ele><time>2025-05-24T18:52:30Z</time></trkpt>
<trkpt lat="50.632407" lon="3.518493"><ele>83.23</ele><time>2025-05-24T18:52:34Z</time></trkpt>
<trkpt lat="50.632431" lon="3.518397"><ele>84.64</ele><time>2025-05-24T18:52:38Z</time></trkpt>
<trkpt lat="50.632413" lon="3.518259"><ele>85.82</ele><time>2025-05-24T18:52:42Z</time></trkpt>
<trkpt lat="50.632142" lon="3.517478"><ele>87.29</ele><time>2025-05-24T18:52:46Z</time></trkpt>
<trkpt lat="50.632092" lon="3.517242"><ele>88.44</ele><time>2025-05-24T18:52:50Z</time></trkpt>
<trkpt lat="50.632084" lon="3.517089"><ele>89.95</ele><time>2025-05-24T18:52:55Z</time></trkpt>
<trkpt lat="50.632106" lon="3.516683"><ele>93.62</ele><time>2025-05-24T18:52:59Z</time></trkpt>
<trkpt lat="50.632135" lon="3.516429"><ele>95.5</ele><time>2025-05-24T18:53:03Z</time></trkpt>
<trkpt lat="50.632224" lon="3.515916"><ele>98.99</ele><time>2025-05-24T18:53:07Z</time></trkpt>
<trkpt lat="50.632349" lon="3.515579"><ele>98.5</ele><time>2025-05-24T18:53:11Z</time></trkpt>
<trkpt lat="50.632622" lon="3.515127"><ele>93.93</ele><time>2025-05-24T18:53:15Z</time></trkpt>
<trkpt lat="50.632956" lon="3.514419"><ele>82.78</ele><time>2025-05-24T18:53:19Z</time></trkpt>
<trkpt lat="50.633049" lon="3.513966"><ele>79.51</ele><time>2025-05-24T18:53:23Z</time></trkpt>
<trkpt lat="50.633274" lon="3.513326"><ele>78.12</ele><time>2025-05-24T18:53:27Z</time></trkpt>
<trkpt lat="50.633438" lon="3.512593"><ele>76.71</ele><time>2025-05-24T18:53:31Z</time></trkpt>
<trkpt lat="50.633642" lon="3.511446"><ele>78.91</ele><time>2025-05-24T18:53:35Z</time></trkpt>
<trkpt lat="50.633625" lon="3.511375"><ele>78.95</ele><time>2025-05-24T18:53:39Z</time></trkpt>
<trkpt lat="50.633397" lon="3.511001"><ele>77.83</ele><time>2025-05-24T18:53:43Z</time></trkpt>
<trkpt lat="50.633485" lon="3.510984"><ele>78.09</ele><time>2025-05-24T18:53:48Z</time></trkpt>
<trkpt lat="50.633688" lon="3.51084"><ele>78.02</ele><time>2025-05-24T18:53:52Z</time></trkpt>
<trkpt lat="50.63379" lon="3.510724"><ele>77.86</ele><time>2025-05-24T18:53:57Z</time></trkpt>
<trkpt lat="50.634189" lon="3.510128"><ele>76.04</ele><time>2025-05-24T18:54:01Z</time></trkpt>
<trkpt lat="50.63446" lon="3.509781"><ele>75.22</ele><time>2025-05-24T18:54:06Z</time></trkpt>
<trkpt lat="50.634575" lon="3.509725"><ele>75.01</ele><time>2025-05-24T18:54:10Z</time></trkpt>
<trkpt lat="50.634523" lon="3.509461"><ele>74.06</ele><time>2025-05-24T18:54:14Z</time></trkpt>
<trkpt lat="50.634476" lon="3.508697"><ele>73.0</ele><time>2025-05-24T18:54:19Z</time></trkpt>
<trkpt lat="50.634405" lon="3.508447"><ele>73.14</ele><time>2025-05-24T18:54:23Z</time></trkpt>
<trkpt lat="50.634298" lon="3.50822"><ele>73.53</ele><time>2025-05-24T18:54:27Z</time></trkpt>
<trkpt lat="50.634154" lon="3.508041"><ele>74.09</ele><time>2025-05-24T18:54:31Z</time></trkpt>
<trkpt lat="50.633853" lon="3.507809"><ele>76.13</ele><time>2025-05-24T18:54:35Z</time></trkpt>
<trkpt lat="50.633007" lon="3.507002"><ele>76.03</ele><time>2025-05-24T18:54:39Z</time></trkpt>
<trkpt lat="50.633252" lon="3.506282"><ele>72.67</ele><time>2025-05-24T18:54:43Z</time></trkpt>
<trkpt lat="50.633465" lon="3.505596"><ele>70.09</ele><time>2025-05-24T18:54:46Z</time></trkpt>
<trkpt lat="50.633549" lon="3.505433"><ele>69.57</ele><time>2025-05-24T18:54:50Z</time></trkpt>
<trkpt lat="50.633819" lon="3.50506"><ele>70.29</ele><time>2025-05-24T18:54:53Z</time></trkpt>
<trkpt lat="50.633912" lon="3.504877"><ele>71.53</ele><time>2025-05-24T18:54:57Z</time></trkpt>
<trkpt lat="50.633958" lon="3.50466"><ele>72.25</ele><time>2025-05-24T18:55:00Z</time></trkpt>
<trkpt lat="50.634045" lon="3.503606"><ele>72.56</ele><time>2025-05-24T18:55:04Z</time></trkpt>
<trkpt lat="50.634099" lon="3.503378"><ele>72.76</ele><time>2025-05-24T18:55:07Z</time></trkpt>
<trkpt lat="50.6342" lon="3.503159"><ele>73.63</ele><time>2025-05-24T18:55:11Z</time></trkpt>
<trkpt lat="50.634372" lon="3.502928"><ele>74.0</ele><time>2025-05-24T18:55:14Z</time></trkpt>
<trkpt lat="50.634772" lon="3.50246"><ele>73.82</ele><time>2025-05-24T18:55:18Z</time></trkpt>
<trkpt lat="50.634865" lon="3.502382"><ele>73.49</ele><time>2025-05-24T18:55:21Z</time></trkpt>
<trkpt lat="50.634962" lon="3.502376"><ele>73.14</ele><time>2025-05-24T18:55:25Z</time></trkpt>
<trkpt lat="50.635326" lon="3.50254"><ele>71.82</ele><time>2025-05-24T18:55:28Z</time></trkpt>
<trkpt lat="50.635501" lon="3.502556"><ele>71.19</ele><time>2025-05-24T18:55:32Z</time></trkpt>
<trkpt lat="50.635654" lon="3.502526"><ele>70.97</ele><time>2025-05-24T18:55:35Z</time></trkpt>
<trkpt lat="50.635717" lon="3.50249"><ele>71.0</ele><time>2025-05-24T18:55:39Z</time></trkpt>
<trkpt lat="50.635766" lon="3.502428"><ele>71.0</ele><time>2025-05-24T18:55:42Z</time></trkpt>
<trkpt lat="50.635949" lon="3.50214"><ele>70.29</ele><time>2025-05-24T18:55:46Z</time></trkpt>
<trkpt lat="50.636406" lon="3.50095"><ele>67.88</ele><time>2025-05-24T18:55:49Z</time></trkpt>
<trkpt lat="50.636628" lon="3.500037"><ele>64.41</ele><time>2025-05-24T18:55:53Z</time></trkpt>
<trkpt lat="50.6368" lon="3.499179"><ele>61.56</ele><time>2025-05-24T18:55:56Z</time></trkpt>
<trkpt lat="50.636771" lon="3.499002"><ele>61.6</ele><time>2025-05-24T18:56:00Z</time></trkpt>
<trkpt lat="50.636771" lon="3.499002"><ele>61.6</ele><time>2025-05-24T18:56:00Z</time></trkpt>
<trkpt lat="50.636709" lon="3.498814"><ele>61.62</ele><time>2025-05-24T18:56:03Z</time></trkpt>
<trkpt lat="50.636423" lon="3.498212"><ele>60.56</ele><time>2025-05-24T18:56:07Z</time></trkpt>
<trkpt lat="50.636322" lon="3.498031"><ele>60.24</ele><time>2025-05-24T18:56:11Z</time></trkpt>
<trkpt lat="50.636214" lon="3.49796"><ele>60.63</ele><time>2025-05-24T18:56:14Z</time></trkpt>
<trkpt lat="50.63506" lon="3.497787"><ele>67.57</ele><time>2025-05-24T18:56:18Z</time></trkpt>
<trkpt lat="50.63488" lon="3.497778"><ele>68.86</ele><time>2025-05-24T18:56:21Z</time></trkpt>
<trkpt lat="50.634742" lon="3.497819"><ele>69.86</ele><time>2025-05-24T18:56:25Z</time></trkpt>
<trkpt lat="50.634605" lon="3.49789"><ele>70.17</ele><time>2025-05-24T18:56:29Z</time></trkpt>
<trkpt lat="50.634319" lon="3.497948"><ele>71.06</ele><time>2025-05-24T18:56:32Z</time></trkpt>
<trkpt lat="50.634315" lon="3.497043"><ele>69.82</ele><time>2025-05-24T18:56:35Z</time></trkpt>
<trkpt lat="50.634264" lon="3.4956"><ele>63.45</ele><time>2025-05-24T18:56:39Z</time></trkpt>
<trkpt lat="50.634271" lon="3.494969"><ele>64.82</ele><time>2025-05-24T18:56:42Z</time></trkpt>
<trkpt lat="50.634319" lon="3.494738"><ele>65.52</ele><time>2025-05-24T18:56:45Z</time></trkpt>
<trkpt lat="50.634632" lon="3.494011"><ele>64.44</ele><time>2025-05-24T18:56:48Z</time></trkpt>
<trkpt lat="50.634648" lon="3.493929"><ele>64.14</ele><time>2025-05-24T18:56:52Z</time></trkpt>
<trkpt lat="50.63465" lon="3.49384"><ele>63.82</ele><time>2025-05-24T18:56:55Z</time></trkpt>
<trkpt lat="50.634574" lon="3.493501"><ele>62.81</ele><time>2025-05-24T18:56:58Z</time></trkpt>
<trkpt lat="50.634443" lon="3.492383"><ele>63.0</ele><time>2025-05-24T18:57:02Z</time></trkpt>
<trkpt lat="50.634451" lon="3.492167"><ele>62.78</ele><time>2025-05-24T18:57:05Z</time></trkpt>
<trkpt lat="50.634494" lon="3.491871"><ele>61.82</ele><time>2025-05-24T18:57:08Z</time></trkpt>
<trkpt lat="50.63451" lon="3.4915"><ele>61.9</ele><time>2025-05-24T18:57:11Z</time></trkpt>
<trkpt lat="50.63455" lon="3.491314"><ele>62.0</ele><time>2025-05-24T18:57:15Z</time></trkpt>
<trkpt lat="50.634584" lon="3.491249"><ele>62.0</ele><time>2025-05-24T18:57:18Z</time></trkpt>
<trkpt lat="50.635045" lon="3.490677"><ele>62.56</ele><time>2025-05-24T18:57:21Z</time></trkpt>
<trkpt lat="50.635073" lon="3.490528"><ele>63.0</ele><time>2025-05-24T18:57:24Z</time></trkpt>
<trkpt lat="50.635072" lon="3.49043"><ele>63.0</ele><time>2025-05-24T18:57:28Z</time></trkpt>
<trkpt lat="50.635029" lon="3.49022"><ele>63.0</ele><time>2025-05-24T18:57:31Z</time></trkpt>
<trkpt lat="50.635031" lon="3.490132"><ele>63.0</ele><time>2025-05-24T18:57:34Z</time></trkpt>
<trkpt lat="50.635057" lon="3.490051"><ele>63.0</ele><time>2025-05-24T18:57:38Z</time></trkpt>
<trkpt lat="50.635439" lon="3.489605"><ele>63.66</ele><time>2025-05-24T18:57:41Z</time></trkpt>
<trkpt lat="50.635554" lon="3.489435"><ele>64.03</ele><time>2025-05-24T18:57:44Z</time></trkpt>
<trkpt lat="50.635585" lon="3.489358"><ele>64.1</ele><time>2025-05-24T18:57:47Z</time></trkpt>
<trkpt lat="50.63559" lon="3.489203"><ele>64.62</ele><time>2025-05-24T18:57:51Z</time></trkpt>
<trkpt lat="50.635541" lon="3.488932"><ele>65.0</ele><time>2025-05-24T18:57:54Z</time></trkpt>
<trkpt lat="50.63554" lon="3.488781"><ele>64.63</ele><time>2025-05-24T18:57:57Z</time></trkpt>
<trkpt lat="50.635566" lon="3.488727"><ele>64.34</ele><time>2025-05-24T18:58:00Z</time></trkpt>
<trkpt lat="50.636712" lon="3.487329"><ele>60.84</ele><time>2025-05-24T18:58:04Z</time></trkpt>
<trkpt lat="50.636464" lon="3.48637"><ele>61.73</ele><time>2025-05-24T18:58:07Z</time></trkpt>
<trkpt lat="50.636372" lon="3.486119"><ele>62.12</ele><time>2025-05-24T18:58:11Z</time></trkpt>
<trkpt lat="50.636305" lon="3.486007"><ele>62.87</ele><time>2025-05-24T18:58:15Z</time></trkpt>
<trkpt lat="50.636158" lon="3.485857"><ele>63.82</ele><time>2025-05-24T18:58:18Z</time></trkpt>
<trkpt lat="50.63471" lon="3.484734"><ele>70.13</ele><time>2025-05-24T18:58:22Z</time></trkpt>
<trkpt lat="50.634554" lon="3.484577"><ele>71.21</ele><time>2025-05-24T18:58:25Z</time></trkpt>
<trkpt lat="50.634522" lon="3.484443"><ele>71.44</ele><time>2025-05-24T18:58:29Z</time></trkpt>
<trkpt lat="50.634525" lon="3.484344"><ele>71.53</ele><time>2025-05-24T18:58:33Z</time></trkpt>
<trkpt lat="50.634638" lon="3.483775"><ele>71.02</ele><time>2025-05-24T18:58:36Z</time></trkpt>
<trkpt lat="50.63466" lon="3.483576"><ele>70.45</ele><time>2025-05-24T18:58:40Z</time></trkpt>
<trkpt lat="50.634624" lon="3.483427"><ele>70.71</ele><time>2025-05-24T18:58:44Z</time></trkpt>
<trkpt lat="50.634552" lon="3.483317"><ele>71.21</ele><time>2025-05-24T18:58:47Z</time></trkpt>
<trkpt lat="50.635364" lon="3.481508"><ele>68.11</ele><time>2025-05-24T18:59:07Z</time></trkpt>
<trkpt lat="50.635686" lon="3.480753"><ele>64.39</ele><time>2025-05-24T18:59:26Z</time></trkpt>
<trkpt lat="50.637937" lon="3.475529"><ele>55.09</ele><time>2025-05-24T18:59:45Z</time></trkpt>
<trkpt lat="50.638332" lon="3.474577"><ele>57.99</ele><time>2025-05-24T19:00:04Z</time></trkpt>
<trkpt lat="50.635754" lon="3.47496"><ele>49.57</ele><time>2025-05-24T19:00:08Z</time></trkpt>
<trkpt lat="50.635565" lon="3.474953"><ele>48.24</ele><time>2025-05-24T19:00:11Z</time></trkpt>
<trkpt lat="50.635482" lon="3.474917"><ele>48.22</ele><time>2025-05-24T19:00:15Z</time></trkpt>
<trkpt lat="50.635345" lon="3.474795"><ele>48.18</ele><time>2025-05-24T19:00:18Z</time></trkpt>
<trkpt lat="50.633626" lon="3.472676"><ele>45.02</ele><time>2025-05-24T19:00:21Z</time></trkpt>
<trkpt lat="50.633548" lon="3.472606"><ele>45.23</ele><time>2025-05-24T19:00:25Z</time></trkpt>
<trkpt lat="50.633345" lon="3.472534"><ele>45.96</ele><time>2025-05-24T19:00:28Z</time></trkpt>
<trkpt lat="50.633158" lon="3.472607"><ele>46.39</ele><time>2025-05-24T19:00:32Z</time></trkpt>
<trkpt lat="50.631596" lon="3.473576"><ele>43.35</ele><time>2025-05-24T19:00:35Z</time></trkpt>
<trkpt lat="50.63134" lon="3.473657"><ele>43.87</ele><time>2025-05-24T19:00:38Z</time></trkpt>
<trkpt lat="50.631032" lon="3.473695"><ele>44.0</ele><time>2025-05-24T19:00:42Z</time></trkpt>
<trkpt lat="50.629767" lon="3.473774"><ele>47.9</ele><time>2025-05-24T19:00:45Z</time></trkpt>
<trkpt lat="50.629555" lon="3.473724"><ele>48.36</ele><time>2025-05-24T19:00:49Z</time></trkpt>
<trkpt lat="50.629354" lon="3.473628"><ele>48.94</ele><time>2025-05-24T19:00:52Z</time></trkpt>
<trkpt lat="50.629118" lon="3.473432"><ele>49.82</ele><time>2025-05-24T19:00:55Z</time></trkpt>
<trkpt lat="50.628453" lon="3.472653"><ele>53.9</ele><time>2025-05-24T19:00:59Z</time></trkpt>
<trkpt lat="50.628378" lon="3.472586"><ele>54.38</ele><time>2025-05-24T19:01:02Z</time></trkpt>
<trkpt lat="50.627377" lon="3.471945"><ele>58.99</ele><time>2025-05-24T19:01:06Z</time></trkpt>
<trkpt lat="50.626152" lon="3.471023"><ele>59.15</ele><time>2025-05-24T19:01:09Z</time></trkpt>
<trkpt lat="50.625528" lon="3.470735"><ele>57.84</ele><time>2025-05-24T19:01:12Z</time></trkpt>
<trkpt lat="50.624089" lon="3.470146"><ele>50.66</ele><time>2025-05-24T19:01:16Z</time></trkpt>
<trkpt lat="50.623925" lon="3.470046"><ele>50.89</ele><time>2025-05-24T19:01:19Z</time></trkpt>
<trkpt lat="50.623852" lon="3.469971"><ele>50.91</ele><time>2025-05-24T19:01:23Z</time></trkpt>
<trkpt lat="50.623787" lon="3.469863"><ele>50.69</ele><time>2025-05-24T19:01:26Z</time></trkpt>
<trkpt lat="50.622996" lon="3.468118"><ele>43.05</ele><time>2025-05-24T19:01:29Z</time></trkpt>
<trkpt lat="50.62292" lon="3.467993"><ele>43.0</ele><time>2025-05-24T19:01:33Z</time></trkpt>
<trkpt lat="50.622828" lon="3.467881"><ele>43.0</ele><time>2025-05-24T19:01:36Z</time></trkpt>
<trkpt lat="50.622193" lon="3.467424"><ele>41.0</ele><time>2025-05-24T19:01:39Z</time></trkpt>
<trkpt lat="50.621733" lon="3.467246"><ele>40.3</ele><time>2025-05-24T19:01:43Z</time></trkpt>
<trkpt lat="50.621558" lon="3.46721"><ele>39.17</ele><time>2025-05-24T19:01:46Z</time></trkpt>
<trkpt lat="50.621257" lon="3.467189"><ele>37.41</ele><time>2025-05-24T19:01:50Z</time></trkpt>
<trkpt lat="50.620995" lon="3.467213"><ele>36.13</ele><time>2025-05-24T19:01:53Z</time></trkpt>
<trkpt lat="50.620809" lon="3.467256"><ele>35.03</ele><time>2025-05-24T19:01:56Z</time></trkpt>
<trkpt lat="50.620224" lon="3.467442"><ele>34.0</ele><time>2025-05-24T19:02:00Z</time></trkpt>
<trkpt lat="50.619627" lon="3.467515"><ele>32.64</ele><time>2025-05-24T19:02:03Z</time></trkpt>
<trkpt lat="50.619378" lon="3.468851"><ele>30.56</ele><time>2025-05-24T19:02:05Z</time></trkpt>
<trkpt lat="50.619284" lon="3.468997"><ele>29.85</ele><time>2025-05-24T19:02:06Z</time></trkpt>
<trkpt lat="50.619222" lon="3.469032"><ele>29.4</ele><time>2025-05-24T19:02:07Z</time></trkpt>
<trkpt lat="50.618831" lon="3.469058"><ele>27.71</ele><time>2025-05-24T19:02:09Z</time></trkpt>
<trkpt lat="50.618784" lon="3.469095"><ele>27.52</ele><time>2025-05-24T19:02:10Z</time></trkpt>
<trkpt lat="50.618739" lon="3.469176"><ele>27.48</ele><time>2025-05-24T19:02:12Z</time></trkpt>
<trkpt lat="50.618716" lon="3.469303"><ele>27.68</ele><time>2025-05-24T19:02:13Z</time></trkpt>
<trkpt lat="50.618703" lon="3.469297"><ele>27.64</ele><time>2025-05-24T19:02:13Z</time></trkpt>
<trkpt lat="50.618703" lon="3.469297"><ele>27.64</ele><time>2025-05-24T19:02:13Z</time></trkpt>
<trkpt lat="50.618629" lon="3.469308"><ele>27.54</ele><time>2025-05-24T19:02:14Z</time></trkpt>
<trkpt lat="50.618593" lon="3.469375"><ele>27.68</ele><time>2025-05-24T19:02:14Z</time></trkpt>
<trkpt lat="50.618586" lon="3.469438"><ele>27.89</ele><time>2025-05-24T19:02:15Z</time></trkpt>
<trkpt lat="50.6186" lon="3.469503"><ele>27.96</ele><time>2025-05-24T19:02:16Z</time></trkpt>
<trkpt lat="50.618643" lon="3.469559"><ele>28.0</ele><time>2025-05-24T19:02:17Z</time></trkpt>
<trkpt lat="50.618724" lon="3.469546"><ele>28.0</ele><time>2025-05-24T19:02:17Z</time></trkpt>
<trkpt lat="50.618761" lon="3.469469"><ele>28.0</ele><time>2025-05-24T19:02:18Z</time></trkpt>
<trkpt lat="50.618764" lon="3.46942"><ele>27.96</ele><time>2025-05-24T19:02:19Z</time></trkpt>
<trkpt lat="50.61874" lon="3.469332"><ele>27.78</ele><time>2025-05-24T19:02:20Z</time></trkpt>
<trkpt lat="50.618716" lon="3.469303"><ele>27.68</ele><time>2025-05-24T19:02:20Z</time></trkpt>
<trkpt lat="50.618739" lon="3.469176"><ele>27.48</ele><time>2025-05-24T19:02:21Z</time></trkpt>
<trkpt lat="50.618784" lon="3.469095"><ele>27.52</ele><time>2025-05-24T19:02:22Z</time></trkpt>
<trkpt lat="50.618831" lon="3.469058"><ele>27.71</ele><time>2025-05-24T19:02:23Z</time></trkpt>
<trkpt lat="50.619222" lon="3.469032"><ele>29.4</ele><time>2025-05-24T19:02:23Z</time></trkpt>
<trkpt lat="50.619284" lon="3.468997"><ele>29.85</ele><time>2025-05-24T19:02:24Z</time></trkpt>
<trkpt lat="50.619378" lon="3.468851"><ele>30.56</ele><time>2025-05-24T19:02:25Z</time></trkpt>
<trkpt lat="50.619627" lon="3.467515"><ele>32.64</ele><time>2025-05-24T19:02:26Z</time></trkpt>
<trkpt lat="50.620224" lon="3.467442"><ele>34.0</ele><time>2025-05-24T19:02:28Z</time></trkpt>
<trkpt lat="50.620809" lon="3.467256"><ele>35.03</ele><time>2025-05-24T19:02:31Z</time></trkpt>
<trkpt lat="50.620995" lon="3.467213"><ele>36.13</ele><time>2025-05-24T19:02:33Z</time></trkpt>
<trkpt lat="50.621257" lon="3.467189"><ele>37.41</ele><time>2025-05-24T19:02:36Z</time></trkpt>
<trkpt lat="50.621558" lon="3.46721"><ele>39.17</ele><time>2025-05-24T19:02:39Z</time></trkpt>
<trkpt lat="50.621733" lon="3.467246"><ele>40.3</ele><time>2025-05-24T19:02:41Z</time></trkpt>
<trkpt lat="50.622193" lon="3.467424"><ele>41.0</ele><time>2025-05-24T19:02:44Z</time></trkpt>
<trkpt lat="50.622828" lon="3.467881"><ele>43.0</ele><time>2025-05-24T19:02:46Z</time></trkpt>
<trkpt lat="50.62292" lon="3.467993"><ele>43.0</ele><time>2025-05-24T19:02:49Z</time></trkpt>
<trkpt lat="50.622996" lon="3.468118"><ele>43.05</ele><time>2025-05-24T19:02:52Z</time></trkpt>
<trkpt lat="50.623787" lon="3.469863"><ele>50.69</ele><time>2025-05-24T19:02:54Z</time></trkpt>
<trkpt lat="50.623852" lon="3.469971"><ele>50.91</ele><time>2025-05-24T19:02:57Z</time></trkpt>
<trkpt lat="50.623925" lon="3.470046"><ele>50.89</ele><time>2025-05-24T19:02:59Z</time></trkpt>
<trkpt lat="50.624089" lon="3.470146"><ele>50.66</ele><time>2025-05-24T19:03:02Z</time></trkpt>
<trkpt lat="50.625528" lon="3.470735"><ele>57.84</ele><time>2025-05-24T19:03:04Z</time></trkpt>
<trkpt lat="50.625476" lon="3.470842"><ele>57.39</ele><time>2025-05-24T19:03:21Z</time></trkpt>
<trkpt lat="50.625414" lon="3.47108"><ele>56.09</ele><time>2025-05-24T19:03:37Z</time></trkpt>
<trkpt lat="50.625335" lon="3.471515"><ele>53.5</ele><time>2025-05-24T19:03:53Z</time></trkpt>
<trkpt lat="50.625077" lon="3.472721"><ele>46.2</ele><time>2025-05-24T19:04:10Z</time></trkpt>
<trkpt lat="50.624905" lon="3.473361"><ele>41.66</ele><time>2025-05-24T19:04:26Z</time></trkpt>
<trkpt lat="50.624571" lon="3.474362"><ele>37.21</ele><time>2025-05-24T19:04:42Z</time></trkpt>
<trkpt lat="50.624042" lon="3.476068"><ele>30.08</ele><time>2025-05-24T19:04:58Z</time></trkpt>
<trkpt lat="50.623739" lon="3.478413"><ele>31.0</ele><time>2025-05-24T19:05:15Z</time></trkpt>
<trkpt lat="50.62381" lon="3.480886"><ele>34.9</ele><time>2025-05-24T19:05:31Z</time></trkpt>
<trkpt lat="50.62388" lon="3.481568"><ele>37.58</ele><time>2025-05-24T19:05:47Z</time></trkpt>
<trkpt lat="50.62396" lon="3.481967"><ele>38.02</ele><time>2025-05-24T19:06:04Z</time></trkpt>
<trkpt lat="50.624096" lon="3.4825"><ele>39.74</ele><time>2025-05-24T19:06:20Z</time></trkpt>
<trkpt lat="50.624215" lon="3.48338"><ele>44.83</ele><time>2025-05-24T19:06:36Z</time></trkpt>
<trkpt lat="50.624269" lon="3.483553"><ele>46.4</ele><time>2025-05-24T19:06:52Z</time></trkpt>
<trkpt lat="50.624468" lon="3.483805"><ele>49.56</ele><time>2025-05-24T19:07:09Z</time></trkpt>
<trkpt lat="50.624518" lon="3.483887"><ele>50.51</ele><time>2025-05-24T19:07:25Z</time></trkpt>
<trkpt lat="50.62457" lon="3.484026"><ele>51.67</ele><time>2025-05-24T19:07:41Z</time></trkpt>
<trkpt lat="50.624614" lon="3.484175"><ele>52.67</ele><time>2025-05-24T19:07:58Z</time></trkpt>
<trkpt lat="50.624651" lon="3.484397"><ele>54.4</ele><time>2025-05-24T19:08:14Z</time></trkpt>
<trkpt lat="50.624714" lon="3.484986"><ele>56.89</ele><time>2025-05-24T19:08:30Z</time></trkpt>
<trkpt lat="50.624743" lon="3.48499"><ele>57.45</ele><time>2025-05-24T19:08:30Z</time></trkpt>
<trkpt lat="50.624743" lon="3.48499"><ele>57.45</ele><time>2025-05-24T19:08:30Z</time></trkpt>
<trkpt lat="50.625401" lon="3.48509"><ele>58.0</ele><time>2025-05-24T19:08:34Z</time></trkpt>
<trkpt lat="50.626056" lon="3.4851"><ele>57.49</ele><time>2025-05-24T19:08:38Z</time></trkpt>
<trkpt lat="50.626197" lon="3.48505"><ele>57.18</ele><time>2025-05-24T19:08:41Z</time></trkpt>
<trkpt lat="50.626632" lon="3.484791"><ele>55.71</ele><time>2025-05-24T19:08:45Z</time></trkpt>
<trkpt lat="50.627001" lon="3.484701"><ele>52.64</ele><time>2025-05-24T19:08:49Z</time></trkpt>
<trkpt lat="50.627279" lon="3.484738"><ele>51.9</ele><time>2025-05-24T19:08:53Z</time></trkpt>
<trkpt lat="50.627491" lon="3.484803"><ele>51.62</ele><time>2025-05-24T19:08:56Z</time></trkpt>
<trkpt lat="50.627774" lon="3.485024"><ele>50.21</ele><time>2025-05-24T19:09:00Z</time></trkpt>
<trkpt lat="50.627834" lon="3.485043"><ele>49.67</ele><time>2025-05-24T19:09:04Z</time></trkpt>
<trkpt lat="50.628166" lon="3.485009"><ele>46.23</ele><time>2025-05-24T19:09:07Z</time></trkpt>
<trkpt lat="50.62833" lon="3.485056"><ele>45.03</ele><time>2025-05-24T19:09:11Z</time></trkpt>
<trkpt lat="50.628435" lon="3.485116"><ele>45.0</ele><time>2025-05-24T19:09:15Z</time></trkpt>
<trkpt lat="50.628551" lon="3.485119"><ele>45.0</ele><time>2025-05-24T19:09:18Z</time></trkpt>
<trkpt lat="50.628686" lon="3.485074"><ele>45.34</ele><time>2025-05-24T19:09:22Z</time></trkpt>
<trkpt lat="50.629024" lon="3.484876"><ele>46.04</ele><time>2025-05-24T19:09:26Z</time></trkpt>
<trkpt lat="50.629737" lon="3.484658"><ele>47.39</ele><time>2025-05-24T19:09:29Z</time></trkpt>
<trkpt lat="50.629796" lon="3.484671"><ele>47.98</ele><time>2025-05-24T19:09:41Z</time></trkpt>
<trkpt lat="50.629885" lon="3.484653"><ele>49.01</ele><time>2025-05-24T19:09:52Z</time></trkpt>
<trkpt lat="50.630635" lon="3.484383"><ele>52.51</ele><time>2025-05-24T19:10:04Z</time></trkpt>
<trkpt lat="50.631211" lon="3.484185"><ele>57.86</ele><time>2025-05-24T19:10:15Z</time></trkpt>
<trkpt lat="50.631397" lon="3.484161"><ele>61.09</ele><time>2025-05-24T19:10:27Z</time></trkpt>
<trkpt lat="50.631493" lon="3.484111"><ele>62.05</ele><time>2025-05-24T19:10:38Z</time></trkpt>
<trkpt lat="50.631685" lon="3.484057"><ele>63.71</ele><time>2025-05-24T19:10:50Z</time></trkpt>
<trkpt lat="50.631833" lon="3.484044"><ele>64.5</ele><time>2025-05-24T19:11:01Z</time></trkpt>
<trkpt lat="50.63215" lon="3.483931"><ele>64.93</ele><time>2025-05-24T19:11:12Z</time></trkpt>
<trkpt lat="50.632266" lon="3.483951"><ele>65.38</ele><time>2025-05-24T19:11:24Z</time></trkpt>
<trkpt lat="50.632517" lon="3.483906"><ele>66.19</ele><time>2025-05-24T19:11:35Z</time></trkpt>
<trkpt lat="50.632729" lon="3.483789"><ele>67.58</ele><time>2025-05-24T19:11:47Z</time></trkpt>
<trkpt lat="50.633148" lon="3.483641"><ele>70.78</ele><time>2025-05-24T19:11:58Z</time></trkpt>
<trkpt lat="50.633444" lon="3.48357"><ele>72.34</ele><time>2025-05-24T19:12:10Z</time></trkpt>
<trkpt lat="50.633544" lon="3.483582"><ele>72.68</ele><time>2025-05-24T19:12:21Z</time></trkpt>
<trkpt lat="50.634326" lon="3.483395"><ele>72.0</ele><time>2025-05-24T19:12:33Z</time></trkpt>
<trkpt lat="50.634552" lon="3.483317"><ele>71.21</ele><time>2025-05-24T19:12:44Z</time></trkpt>
<trkpt lat="50.635364" lon="3.481508"><ele>68.11</ele><time>2025-05-24T19:13:03Z</time></trkpt>
<trkpt lat="50.635686" lon="3.480753"><ele>64.39</ele><time>2025-05-24T19:13:23Z</time></trkpt>
<trkpt lat="50.637937" lon="3.475529"><ele>55.09</ele><time>2025-05-24T19:13:42Z</time></trkpt>
<trkpt lat="50.638332" lon="3.474577"><ele>57.99</ele><time>2025-05-24T19:14:01Z</time></trkpt>
<trkpt lat="50.640869" lon="3.474235"><ele>68.63</ele><time>2025-05-24T19:14:12Z</time></trkpt>
<trkpt lat="50.641023" lon="3.474184"><ele>68.25</ele><time>2025-05-24T19:14:22Z</time></trkpt>
<trkpt lat="50.641445" lon="3.473746"><ele>68.7</ele><time>2025-05-24T19:14:32Z</time></trkpt>
<trkpt lat="50.641825" lon="3.473095"><ele>66.86</ele><time>2025-05-24T19:14:43Z</time></trkpt>
<trkpt lat="50.642147" lon="3.472602"><ele>65.27</ele><time>2025-05-24T19:14:53Z</time></trkpt>
<trkpt lat="50.642965" lon="3.471382"><ele>64.0</ele><time>2025-05-24T19:15:03Z</time></trkpt>
<trkpt lat="50.643197" lon="3.470934"><ele>63.69</ele><time>2025-05-24T19:15:14Z</time></trkpt>
<trkpt lat="50.643655" lon="3.469896"><ele>61.63</ele><time>2025-05-24T19:15:24Z</time></trkpt>
<trkpt lat="50.643837" lon="3.469366"><ele>60.95</ele><time>2025-05-24T19:15:34Z</time></trkpt>
<trkpt lat="50.643935" lon="3.469002"><ele>61.0</ele><time>2025-05-24T19:15:44Z</time></trkpt>
<trkpt lat="50.643935" lon="3.469002"><ele>61.0</ele><time>2025-05-24T19:15:44Z</time></trkpt>
<trkpt lat="50.643931" lon="3.469019"><ele>61.0</ele><time>2025-05-24T19:15:45Z</time></trkpt>
<trkpt lat="50.644401" lon="3.469748"><ele>60.15</ele><time>2025-05-24T19:15:58Z</time></trkpt>
<trkpt lat="50.645273" lon="3.471209"><ele>63.0</ele><time>2025-05-24T19:16:12Z</time></trkpt>
<trkpt lat="50.645669" lon="3.471779"><ele>62.59</ele><time>2025-05-24T19:16:26Z</time></trkpt>
<trkpt lat="50.646419" lon="3.473479"><ele>57.89</ele><time>2025-05-24T19:16:40Z</time></trkpt>
<trkpt lat="50.64713" lon="3.475364"><ele>56.21</ele><time>2025-05-24T19:16:54Z</time></trkpt>
<trkpt lat="50.647984" lon="3.477164"><ele>55.1</ele><time>2025-05-24T19:17:07Z</time></trkpt>
<trkpt lat="50.648629" lon="3.478664"><ele>55.12</ele><time>2025-05-24T19:17:21Z</time></trkpt>
<trkpt lat="50.648826" lon="3.479157"><ele>55.22</ele><time>2025-05-24T19:17:35Z</time></trkpt>
<trkpt lat="50.649157" lon="3.480143"><ele>56.55</ele><time>2025-05-24T19:17:49Z</time></trkpt>
<trkpt lat="50.64922" lon="3.4804"><ele>57.06</ele><time>2025-05-24T19:18:03Z</time></trkpt>
<trkpt lat="50.649403" lon="3.480483"><ele>56.04</ele><time>2025-05-24T19:18:17Z</time></trkpt>
<trkpt lat="50.649488" lon="3.480551"><ele>55.51</ele><time>2025-05-24T19:18:31Z</time></trkpt>
<trkpt lat="50.651966" lon="3.483227"><ele>57.27</ele><time>2025-05-24T19:18:45Z</time></trkpt>
<trkpt lat="50.652681" lon="3.484183"><ele>60.0</ele><time>2025-05-24T19:18:59Z</time></trkpt>
<trkpt lat="50.65281" lon="3.484261"><ele>59.96</ele><time>2025-05-24T19:19:13Z</time></trkpt>
<trkpt lat="50.653055" lon="3.484283"><ele>59.58</ele><time>2025-05-24T19:19:27Z</time></trkpt>
<trkpt lat="50.654306" lon="3.484274"><ele>60.81</ele><time>2025-05-24T19:19:41Z</time></trkpt>
<trkpt lat="50.654526" lon="3.484283"><ele>61.17</ele><time>2025-05-24T19:19:55Z</time></trkpt>
<trkpt lat="50.654698" lon="3.484076"><ele>61.91</ele><time>2025-05-24T19:20:00Z</time></trkpt>
<trkpt lat="50.654849" lon="3.484006"><ele>61.54</ele><time>2025-05-24T19:20:06Z</time></trkpt>
<trkpt lat="50.655023" lon="3.484067"><ele>61.0</ele><time>2025-05-24T19:20:11Z</time></trkpt>
<trkpt lat="50.655574" lon="3.484575"><ele>59.09</ele><time>2025-05-24T19:20:16Z</time></trkpt>
<trkpt lat="50.65579" lon="3.484731"><ele>58.81</ele><time>2025-05-24T19:20:22Z</time></trkpt>
<trkpt lat="50.656095" lon="3.484909"><ele>58.33</ele><time>2025-05-24T19:20:27Z</time></trkpt>
<trkpt lat="50.656502" lon="3.485068"><ele>56.08</ele><time>2025-05-24T19:20:33Z</time></trkpt>
<trkpt lat="50.656692" lon="3.485062"><ele>54.69</ele><time>2025-05-24T19:20:38Z</time></trkpt>
<trkpt lat="50.656692" lon="3.485062"><ele>54.69</ele><time>2025-05-24T19:20:38Z</time></trkpt>
<trkpt lat="50.656895" lon="3.484962"><ele>54.18</ele><time>2025-05-24T19:20:46Z</time></trkpt>
<trkpt lat="50.657708" lon="3.484331"><ele>51.91</ele><time>2025-05-24T19:20:53Z</time></trkpt>
<trkpt lat="50.657787" lon="3.484306"><ele>51.47</ele><time>2025-05-24T19:21:00Z</time></trkpt>
<trkpt lat="50.658206" lon="3.483172"><ele>51.15</ele><time>2025-05-24T19:21:05Z</time></trkpt>
<trkpt lat="50.658232" lon="3.482984"><ele>50.73</ele><time>2025-05-24T19:21:09Z</time></trkpt>
<trkpt lat="50.658215" lon="3.482777"><ele>50.85</ele><time>2025-05-24T19:21:13Z</time></trkpt>
<trkpt lat="50.658121" lon="3.482599"><ele>51.04</ele><time>2025-05-24T19:21:18Z</time></trkpt>
<trkpt lat="50.657904" lon="3.482327"><ele>52.09</ele><time>2025-05-24T19:21:22Z</time></trkpt>
<trkpt lat="50.657372" lon="3.481482"><ele>51.87</ele><time>2025-05-24T19:21:26Z</time></trkpt>
<trkpt lat="50.657003" lon="3.480757"><ele>51.0</ele><time>2025-05-24T19:21:31Z</time></trkpt>
<trkpt lat="50.656981" lon="3.480603"><ele>51.0</ele><time>2025-05-24T19:21:35Z</time></trkpt>
<trkpt lat="50.657022" lon="3.48043"><ele>51.0</ele><time>2025-05-24T19:21:40Z</time></trkpt>
<trkpt lat="50.657442" lon="3.479967"><ele>51.0</ele><time>2025-05-24T19:21:44Z</time></trkpt>
<trkpt lat="50.65752" lon="3.479844"><ele>51.0</ele><time>2025-05-24T19:21:48Z</time></trkpt>
<trkpt lat="50.657577" lon="3.47969"><ele>51.0</ele><time>2025-05-24T19:21:53Z</time></trkpt>
<trkpt lat="50.657556" lon="3.479552"><ele>51.0</ele><time>2025-05-24T19:21:57Z</time></trkpt>
<trkpt lat="50.657242" lon="3.478817"><ele>51.93</ele><time>2025-05-24T19:22:01Z</time></trkpt>
<trkpt lat="50.657222" lon="3.478681"><ele>52.0</ele><time>2025-05-24T19:22:06Z</time></trkpt>
<trkpt lat="50.657266" lon="3.478558"><ele>51.84</ele><time>2025-05-24T19:22:10Z</time></trkpt>
<trkpt lat="50.657767" lon="3.477893"><ele>51.0</ele><time>2025-05-24T19:22:14Z</time></trkpt>
<trkpt lat="50.658258" lon="3.477116"><ele>52.63</ele><time>2025-05-24T19:22:19Z</time></trkpt>
<trkpt lat="50.658289" lon="3.476975"><ele>52.69</ele><time>2025-05-24T19:22:23Z</time></trkpt>
<trkpt lat="50.658266" lon="3.476857"><ele>52.52</ele><time>2025-05-24T19:22:28Z</time></trkpt>
<trkpt lat="50.658096" lon="3.476462"><ele>50.56</ele><time>2025-05-24T19:22:32Z</time></trkpt>
<trkpt lat="50.658083" lon="3.476265"><ele>50.19</ele><time>2025-05-24T19:22:36Z</time></trkpt>
<trkpt lat="50.658133" lon="3.476052"><ele>50.34</ele><time>2025-05-24T19:22:41Z</time></trkpt>
<trkpt lat="50.658573" lon="3.475033"><ele>51.73</ele><time>2025-05-24T19:22:45Z</time></trkpt>
<trkpt lat="50.658923" lon="3.474388"><ele>52.92</ele><time>2025-05-24T19:22:49Z</time></trkpt>
<trkpt lat="50.659121" lon="3.473478"><ele>51.76</ele><time>2025-05-24T19:22:54Z</time></trkpt>
<trkpt lat="50.659247" lon="3.472641"><ele>50.94</ele><time>2025-05-24T19:22:58Z</time></trkpt>
<trkpt lat="50.659345" lon="3.472124"><ele>50.0</ele><time>2025-05-24T19:23:02Z</time></trkpt>
<trkpt lat="50.659467" lon="3.471677"><ele>51.08</ele><time>2025-05-24T19:23:07Z</time></trkpt>
<trkpt lat="50.659956" lon="3.470176"><ele>52.84</ele><time>2025-05-24T19:23:11Z</time></trkpt>
<trkpt lat="50.659969" lon="3.470027"><ele>52.89</ele><time>2025-05-24T19:23:16Z</time></trkpt>
<trkpt lat="50.65991" lon="3.469539"><ele>51.68</ele><time>2025-05-24T19:23:20Z</time></trkpt>
<trkpt lat="50.659911" lon="3.469403"><ele>51.53</ele><time>2025-05-24T19:23:24Z</time></trkpt>
<trkpt lat="50.660094" lon="3.467683"><ele>52.56</ele><time>2025-05-24T19:23:29Z</time></trkpt>
<trkpt lat="50.660124" lon="3.467528"><ele>52.49</ele><time>2025-05-24T19:23:33Z</time></trkpt>
<trkpt lat="50.660484" lon="3.466618"><ele>52.83</ele><time>2025-05-24T19:23:37Z</time></trkpt>
<trkpt lat="50.660664" lon="3.46632"><ele>54.69</ele><time>2025-05-24T19:23:42Z</time></trkpt>
<trkpt lat="50.660973" lon="3.465882"><ele>55.0</ele><time>2025-05-24T19:23:46Z</time></trkpt>
<trkpt lat="50.661067" lon="3.465801"><ele>55.0</ele><time>2025-05-24T19:23:50Z</time></trkpt>
<trkpt lat="50.661184" lon="3.465744"><ele>55.53</ele><time>2025-05-24T19:23:55Z</time></trkpt>
<trkpt lat="50.661934" lon="3.465609"><ele>62.73</ele><time>2025-05-24T19:23:59Z</time></trkpt>
<trkpt lat="50.662248" lon="3.465432"><ele>62.47</ele><time>2025-05-24T19:24:03Z</time></trkpt>
<trkpt lat="50.662848" lon="3.464834"><ele>60.34</ele><time>2025-05-24T19:24:08Z</time></trkpt>
<trkpt lat="50.663412" lon="3.463997"><ele>58.72</ele><time>2025-05-24T19:24:12Z</time></trkpt>
<trkpt lat="50.663592" lon="3.463805"><ele>57.47</ele><time>2025-05-24T19:24:17Z</time></trkpt>
<trkpt lat="50.663745" lon="3.463729"><ele>56.64</ele><time>2025-05-24T19:24:21Z</time></trkpt>
<trkpt lat="50.663877" lon="3.463706"><ele>56.35</ele><time>2025-05-24T19:24:25Z</time></trkpt>
<trkpt lat="50.664269" lon="3.46388"><ele>56.57</ele><time>2025-05-24T19:24:30Z</time></trkpt>
<trkpt lat="50.665018" lon="3.464644"><ele>53.67</ele><time>2025-05-24T19:24:34Z</time></trkpt>
<trkpt lat="50.665186" lon="3.464761"><ele>53.47</ele><time>2025-05-24T19:24:38Z</time></trkpt>
<trkpt lat="50.665281" lon="3.464793"><ele>53.24</ele><time>2025-05-24T19:24:43Z</time></trkpt>
<trkpt lat="50.66592" lon="3.46477"><ele>50.98</ele><time>2025-05-24T19:24:47Z</time></trkpt>
<trkpt lat="50.666054" lon="3.464788"><ele>50.49</ele><time>2025-05-24T19:24:51Z</time></trkpt>
<trkpt lat="50.667403" lon="3.465149"><ele>48.91</ele><time>2025-05-24T19:24:56Z</time></trkpt>
<trkpt lat="50.667592" lon="3.465152"><ele>49.76</ele><time>2025-05-24T19:25:00Z</time></trkpt>
<trkpt lat="50.668019" lon="3.465065"><ele>52.0</ele><time>2025-05-24T19:25:05Z</time></trkpt>
<trkpt lat="50.668256" lon="3.465108"><ele>53.11</ele><time>2025-05-24T19:25:09Z</time></trkpt>
<trkpt lat="50.66834" lon="3.465169"><ele>53.58</ele><time>2025-05-24T19:25:13Z</time></trkpt>
<trkpt lat="50.668754" lon="3.463618"><ele>43.52</ele><time>2025-05-24T19:25:17Z</time></trkpt>
<trkpt lat="50.668877" lon="3.462604"><ele>43.67</ele><time>2025-05-24T19:25:22Z</time></trkpt>
<trkpt lat="50.668907" lon="3.462233"><ele>43.93</ele><time>2025-05-24T19:25:26Z</time></trkpt>
<trkpt lat="50.668895" lon="3.460808"><ele>47.0</ele><time>2025-05-24T19:25:30Z</time></trkpt>
<trkpt lat="50.668733" lon="3.459323"><ele>48.44</ele><time>2025-05-24T19:25:34Z</time></trkpt>
<trkpt lat="50.668738" lon="3.459112"><ele>48.46</ele><time>2025-05-24T19:25:38Z</time></trkpt>
<trkpt lat="50.668769" lon="3.458912"><ele>48.57</ele><time>2025-05-24T19:25:43Z</time></trkpt>
<trkpt lat="50.668867" lon="3.458484"><ele>49.03</ele><time>2025-05-24T19:25:47Z</time></trkpt>
<trkpt lat="50.668858" lon="3.458347"><ele>49.1</ele><time>2025-05-24T19:25:51Z</time></trkpt>
<trkpt lat="50.668821" lon="3.458234"><ele>49.6</ele><time>2025-05-24T19:25:55Z</time></trkpt>
<trkpt lat="50.668448" lon="3.457832"><ele>50.41</ele><time>2025-05-24T19:25:59Z</time></trkpt>
<trkpt lat="50.668406" lon="3.457743"><ele>50.38</ele><time>2025-05-24T19:26:03Z</time></trkpt>
<trkpt lat="50.668425" lon="3.457483"><ele>51.37</ele><time>2025-05-24T19:26:08Z</time></trkpt>
<trkpt lat="50.668405" lon="3.45733"><ele>51.71</ele><time>2025-05-24T19:26:12Z</time></trkpt>
<trkpt lat="50.668326" lon="3.457173"><ele>52.18</ele><time>2025-05-24T19:26:16Z</time></trkpt>
<trkpt lat="50.66788" lon="3.456545"><ele>55.07</ele><time>2025-05-24T19:26:20Z</time></trkpt>
<trkpt lat="50.667843" lon="3.456456"><ele>55.52</ele><time>2025-05-24T19:26:24Z</time></trkpt>
<trkpt lat="50.667849" lon="3.456349"><ele>55.74</ele><time>2025-05-24T19:26:29Z</time></trkpt>
<trkpt lat="50.667934" lon="3.456248"><ele>55.44</ele><time>2025-05-24T19:26:33Z</time></trkpt>
<trkpt lat="50.668062" lon="3.456147"><ele>54.97</ele><time>2025-05-24T19:26:37Z</time></trkpt>
<trkpt lat="50.668328" lon="3.455836"><ele>53.03</ele><time>2025-05-24T19:26:41Z</time></trkpt>
<trkpt lat="50.669222" lon="3.454532"><ele>48.42</ele><time>2025-05-24T19:26:45Z</time></trkpt>
<trkpt lat="50.669222" lon="3.454532"><ele>48.42</ele><time>2025-05-24T19:26:45Z</time></trkpt>
<trkpt lat="50.669214" lon="3.454544"><ele>50.13</ele><time>2025-05-24T19:26:46Z</time></trkpt>
<trkpt lat="50.6698" lon="3.454803"><ele>46.73</ele><time>2025-05-24T19:26:50Z</time></trkpt>
<trkpt lat="50.671096" lon="3.455455"><ele>46.18</ele><time>2025-05-24T19:26:55Z</time></trkpt>
<trkpt lat="50.672533" lon="3.4563"><ele>46.0</ele><time>2025-05-24T19:26:59Z</time></trkpt>
<trkpt lat="50.672843" lon="3.456391"><ele>45.76</ele><time>2025-05-24T19:27:03Z</time></trkpt>
<trkpt lat="50.672944" lon="3.456441"><ele>45.51</ele><time>2025-05-24T19:27:08Z</time></trkpt>
<trkpt lat="50.673074" lon="3.456562"><ele>45.53</ele><time>2025-05-24T19:27:12Z</time></trkpt>
<trkpt lat="50.6734" lon="3.456933"><ele>44.76</ele><time>2025-05-24T19:27:17Z</time></trkpt>
<trkpt lat="50.67359" lon="3.457211"><ele>45.04</ele><time>2025-05-24T19:27:21Z</time></trkpt>
<trkpt lat="50.673717" lon="3.457504"><ele>43.85</ele><time>2025-05-24T19:27:26Z</time></trkpt>
<trkpt lat="50.673947" lon="3.458221"><ele>41.32</ele><time>2025-05-24T19:27:30Z</time></trkpt>
<trkpt lat="50.674069" lon="3.458493"><ele>41.0</ele><time>2025-05-24T19:27:35Z</time></trkpt>
<trkpt lat="50.674651" lon="3.459427"><ele>39.01</ele><time>2025-05-24T19:27:39Z</time></trkpt>
<trkpt lat="50.674699" lon="3.459497"><ele>39.0</ele><time>2025-05-24T19:27:44Z</time></trkpt>
<trkpt lat="50.67476" lon="3.459519"><ele>38.86</ele><time>2025-05-24T19:27:48Z</time></trkpt>
<trkpt lat="50.674804" lon="3.45947"><ele>38.71</ele><time>2025-05-24T19:27:53Z</time></trkpt>
<trkpt lat="50.6751" lon="3.45881"><ele>38.1</ele><time>2025-05-24T19:27:57Z</time></trkpt>
<trkpt lat="50.675212" lon="3.458317"><ele>38.72</ele><time>2025-05-24T19:28:02Z</time></trkpt>
<trkpt lat="50.675328" lon="3.458"><ele>37.96</ele><time>2025-05-24T19:28:06Z</time></trkpt>
<trkpt lat="50.675385" lon="3.457888"><ele>37.76</ele><time>2025-05-24T19:28:11Z</time></trkpt>
<trkpt lat="50.675644" lon="3.457737"><ele>36.85</ele><time>2025-05-24T19:28:15Z</time></trkpt>
<trkpt lat="50.675756" lon="3.457603"><ele>36.37</ele><time>2025-05-24T19:28:20Z</time></trkpt>
<trkpt lat="50.675905" lon="3.457276"><ele>36.47</ele><time>2025-05-24T19:28:24Z</time></trkpt>
<trkpt lat="50.676224" lon="3.456462"><ele>39.74</ele><time>2025-05-24T19:28:29Z</time></trkpt>
<trkpt lat="50.676901" lon="3.455071"><ele>44.0</ele><time>2025-05-24T19:28:33Z</time></trkpt>
<trkpt lat="50.677007" lon="3.454921"><ele>44.73</ele><time>2025-05-24T19:28:38Z</time></trkpt>
<trkpt lat="50.677238" lon="3.454671"><ele>47.01</ele><time>2025-05-24T19:28:42Z</time></trkpt>
<trkpt lat="50.677448" lon="3.45448"><ele>47.71</ele><time>2025-05-24T19:28:46Z</time></trkpt>
<trkpt lat="50.67754" lon="3.454412"><ele>48.13</ele><time>2025-05-24T19:28:51Z</time></trkpt>
<trkpt lat="50.677676" lon="3.454374"><ele>48.47</ele><time>2025-05-24T19:28:55Z</time></trkpt>
<trkpt lat="50.678251" lon="3.45427"><ele>49.63</ele><time>2025-05-24T19:29:00Z</time></trkpt>
<trkpt lat="50.678541" lon="3.454313"><ele>50.22</ele><time>2025-05-24T19:29:04Z</time></trkpt>
<trkpt lat="50.678944" lon="3.454433"><ele>51.24</ele><time>2025-05-24T19:29:09Z</time></trkpt>
<trkpt lat="50.678999" lon="3.454385"><ele>51.61</ele><time>2025-05-24T19:29:13Z</time></trkpt>
<trkpt lat="50.679509" lon="3.452928"><ele>52.65</ele><time>2025-05-24T19:29:18Z</time></trkpt>
<trkpt lat="50.679552" lon="3.452849"><ele>52.54</ele><time>2025-05-24T19:29:22Z</time></trkpt>
<trkpt lat="50.680773" lon="3.454245"><ele>52.01</ele><time>2025-05-24T19:29:30Z</time></trkpt>
<trkpt lat="50.680773" lon="3.454245"><ele>52.01</ele><time>2025-05-24T19:29:30Z</time></trkpt>
<trkpt lat="50.680774" lon="3.454246"><ele>50.71</ele><time>2025-05-24T19:29:30Z</time></trkpt>
<trkpt lat="50.681122" lon="3.453603"><ele>52.0</ele><time>2025-05-24T19:29:36Z</time></trkpt>
<trkpt lat="50.681341" lon="3.453263"><ele>52.04</ele><time>2025-05-24T19:29:43Z</time></trkpt>
<trkpt lat="50.681897" lon="3.452167"><ele>50.97</ele><time>2025-05-24T19:29:49Z</time></trkpt>
<trkpt lat="50.683576" lon="3.44911"><ele>41.97</ele><time>2025-05-24T19:29:55Z</time></trkpt>
<trkpt lat="50.684979" lon="3.446716"><ele>37.08</ele><time>2025-05-24T19:30:02Z</time></trkpt>
<trkpt lat="50.685635" lon="3.445628"><ele>39.72</ele><time>2025-05-24T19:30:08Z</time></trkpt>
<trkpt lat="50.686349" lon="3.444589"><ele>40.0</ele><time>2025-05-24T19:30:14Z</time></trkpt>
<trkpt lat="50.687425" lon="3.442894"><ele>38.0</ele><time>2025-05-24T19:30:20Z</time></trkpt>
<trkpt lat="50.687595" lon="3.442584"><ele>37.54</ele><time>2025-05-24T19:30:27Z</time></trkpt>
<trkpt lat="50.687713" lon="3.442299"><ele>37.77</ele><time>2025-05-24T19:30:33Z</time></trkpt>
<trkpt lat="50.688421" lon="3.440048"><ele>33.49</ele><time>2025-05-24T19:30:39Z</time></trkpt>
<trkpt lat="50.688818" lon="3.438597"><ele>29.38</ele><time>2025-05-24T19:30:45Z</time></trkpt>
<trkpt lat="50.688962" lon="3.438122"><ele>28.02</ele><time>2025-05-24T19:30:52Z</time></trkpt>
<trkpt lat="50.691232" lon="3.431508"><ele>24.87</ele><time>2025-05-24T19:30:58Z</time></trkpt>
<trkpt lat="50.691397" lon="3.431084"><ele>25.85</ele><time>2025-05-24T19:31:04Z</time></trkpt>
<trkpt lat="50.691608" lon="3.430796"><ele>24.21</ele><time>2025-05-24T19:31:11Z</time></trkpt>
<trkpt lat="50.691944" lon="3.430547"><ele>23.03</ele><time>2025-05-24T19:31:17Z</time></trkpt>
<trkpt lat="50.692196" lon="3.430411"><ele>22.61</ele><time>2025-05-24T19:31:23Z</time></trkpt>
<trkpt lat="50.69294" lon="3.430075"><ele>24.58</ele><time>2025-05-24T19:31:29Z</time></trkpt>
<trkpt lat="50.693948" lon="3.429408"><ele>23.13</ele><time>2025-05-24T19:31:36Z</time></trkpt>
<trkpt lat="50.694102" lon="3.429305"><ele>23.5</ele><time>2025-05-24T19:31:42Z</time></trkpt>
<trkpt lat="50.694387" lon="3.429028"><ele>22.41</ele><time>2025-05-24T19:31:48Z</time></trkpt>
<trkpt lat="50.694831" lon="3.42853"><ele>24.0</ele><time>2025-05-24T19:31:55Z</time></trkpt>
<trkpt lat="50.695176" lon="3.427962"><ele>26.27</ele><time>2025-05-24T19:32:01Z</time></trkpt>
<trkpt lat="50.696526" lon="3.425477"><ele>32.78</ele><time>2025-05-24T19:32:07Z</time></trkpt>
<trkpt lat="50.696785" lon="3.424935"><ele>35.66</ele><time>2025-05-24T19:32:13Z</time></trkpt>
<trkpt lat="50.697031" lon="3.424362"><ele>37.61</ele><time>2025-05-24T19:32:20Z</time></trkpt>
<trkpt lat="50.697289" lon="3.423713"><ele>39.87</ele><time>2025-05-24T19:32:26Z</time></trkpt>
<trkpt lat="50.697517" lon="3.423007"><ele>42.0</ele><time>2025-05-24T19:32:32Z</time></trkpt>
<trkpt lat="50.698068" lon="3.421775"><ele>44.0</ele><time>2025-05-24T19:32:39Z</time></trkpt>
<trkpt lat="50.698064" lon="3.421768"><ele>43.43</ele><time>2025-05-24T19:32:39Z</time></trkpt>
<trkpt lat="50.698064" lon="3.421768"><ele>43.43</ele><time>2025-05-24T19:32:39Z</time></trkpt>
<trkpt lat="50.697712" lon="3.421233"><ele>42.87</ele><time>2025-05-24T19:32:43Z</time></trkpt>
<trkpt lat="50.697607" lon="3.421017"><ele>42.04</ele><time>2025-05-24T19:32:47Z</time></trkpt>
<trkpt lat="50.697538" lon="3.420805"><ele>41.14</ele><time>2025-05-24T19:32:51Z</time></trkpt>
<trkpt lat="50.697405" lon="3.42054"><ele>41.0</ele><time>2025-05-24T19:32:55Z</time></trkpt>
<trkpt lat="50.696999" lon="3.419849"><ele>40.35</ele><time>2025-05-24T19:32:59Z</time></trkpt>
<trkpt lat="50.69603" lon="3.418293"><ele>33.85</ele><time>2025-05-24T19:33:03Z</time></trkpt>
<trkpt lat="50.695712" lon="3.417824"><ele>33.0</ele><time>2025-05-24T19:33:07Z</time></trkpt>
<trkpt lat="50.694609" lon="3.41641"><ele>33.0</ele><time>2025-05-24T19:33:11Z</time></trkpt>
<trkpt lat="50.693594" lon="3.414718"><ele>34.0</ele><time>2025-05-24T19:33:15Z</time></trkpt>
<trkpt lat="50.693408" lon="3.414188"><ele>34.92</ele><time>2025-05-24T19:33:19Z</time></trkpt>
<trkpt lat="50.693766" lon="3.41359"><ele>33.41</ele><time>2025-05-24T19:33:27Z</time></trkpt>
<trkpt lat="50.694835" lon="3.411947"><ele>24.6</ele><time>2025-05-24T19:33:34Z</time></trkpt>
<trkpt lat="50.695008" lon="3.411653"><ele>23.92</ele><time>2025-05-24T19:33:42Z</time></trkpt>
<trkpt lat="50.695152" lon="3.411312"><ele>22.45</ele><time>2025-05-24T19:33:50Z</time></trkpt>
<trkpt lat="50.695299" lon="3.410622"><ele>20.92</ele><time>2025-05-24T19:33:57Z</time></trkpt>
<trkpt lat="50.695568" lon="3.409864"><ele>19.53</ele><time>2025-05-24T19:34:05Z</time></trkpt>
<trkpt lat="50.696596" lon="3.40741"><ele>18.25</ele><time>2025-05-24T19:34:12Z</time></trkpt>
<trkpt lat="50.697527" lon="3.405241"><ele>17.0</ele><time>2025-05-24T19:34:20Z</time></trkpt>
<trkpt lat="50.698243" lon="3.403761"><ele>17.67</ele><time>2025-05-24T19:34:28Z</time></trkpt>
<trkpt lat="50.698289" lon="3.403621"><ele>17.84</ele><time>2025-05-24T19:34:35Z</time></trkpt>
<trkpt lat="50.698281" lon="3.40347"><ele>17.81</ele><time>2025-05-24T19:34:43Z</time></trkpt>
<trkpt lat="50.698142" lon="3.402783"><ele>17.0</ele><time>2025-05-24T19:34:51Z</time></trkpt>
<trkpt lat="50.698142" lon="3.402661"><ele>16.71</ele><time>2025-05-24T19:34:58Z</time></trkpt>
<trkpt lat="50.698217" lon="3.40247"><ele>16.58</ele><time>2025-05-24T19:35:06Z</time></trkpt>
<trkpt lat="50.699366" lon="3.400389"><ele>16.0</ele><time>2025-05-24T19:35:14Z</time></trkpt>
<trkpt lat="50.699839" lon="3.399449"><ele>17.0</ele><time>2025-05-24T19:35:21Z</time></trkpt>
<trkpt lat="50.699862" lon="3.399359"><ele>16.85</ele><time>2025-05-24T19:35:29Z</time></trkpt>
<trkpt lat="50.699863" lon="3.399281"><ele>16.71</ele><time>2025-05-24T19:35:36Z</time></trkpt>
<trkpt lat="50.699837" lon="3.399184"><ele>16.45</ele><time>2025-05-24T19:35:44Z</time></trkpt>
<trkpt lat="50.69979" lon="3.399108"><ele>16.24</ele><time>2025-05-24T19:35:52Z</time></trkpt>
<trkpt lat="50.699257" lon="3.398689"><ele>16.72</ele><time>2025-05-24T19:35:59Z</time></trkpt>
<trkpt lat="50.699189" lon="3.398611"><ele>17.0</ele><time>2025-05-24T19:36:07Z</time></trkpt>
<trkpt lat="50.699152" lon="3.398474"><ele>17.55</ele><time>2025-05-24T19:36:15Z</time></trkpt>
<trkpt lat="50.699272" lon="3.396751"><ele>17.0</ele><time>2025-05-24T19:36:22Z</time></trkpt>
<trkpt lat="50.699306" lon="3.396498"><ele>16.69</ele><time>2025-05-24T19:36:30Z</time></trkpt>
<trkpt lat="50.699383" lon="3.396193"><ele>16.22</ele><time>2025-05-24T19:36:38Z</time></trkpt>
<trkpt lat="50.699639" lon="3.395339"><ele>16.61</ele><time>2025-05-24T19:36:45Z</time></trkpt>
<trkpt lat="50.699856" lon="3.394734"><ele>17.0</ele><time>2025-05-24T19:36:53Z</time></trkpt>
<trkpt lat="50.700331" lon="3.393636"><ele>15.9</ele><time>2025-05-24T19:37:00Z</time></trkpt>
<trkpt lat="50.701346" lon="3.391635"><ele>14.17</ele><time>2025-05-24T19:37:08Z</time></trkpt>
<trkpt lat="50.702112" lon="3.389955"><ele>16.7</ele><time>2025-05-24T19:37:16Z</time></trkpt>
<trkpt lat="50.702416" lon="3.389112"><ele>17.7</ele><time>2025-05-24T19:37:23Z</time></trkpt>
<trkpt lat="50.702882" lon="3.387623"><ele>17.35</ele><time>2025-05-24T19:37:31Z</time></trkpt>
<trkpt lat="50.702882" lon="3.387623"><ele>17.35</ele><time>2025-05-24T19:37:31Z</time></trkpt>
<trkpt lat="50.702416" lon="3.389112"><ele>17.7</ele><time>2025-05-24T19:37:38Z</time></trkpt>
<trkpt lat="50.702112" lon="3.389955"><ele>16.7</ele><time>2025-05-24T19:37:45Z</time></trkpt>
<trkpt lat="50.701346" lon="3.391635"><ele>14.17</ele><time>2025-05-24T19:37:53Z</time></trkpt>
<trkpt lat="50.700331" lon="3.393636"><ele>15.9</ele><time>2025-05-24T19:38:00Z</time></trkpt>
<trkpt lat="50.699856" lon="3.394734"><ele>17.0</ele><time>2025-05-24T19:38:07Z</time></trkpt>
<trkpt lat="50.699639" lon="3.395339"><ele>16.61</ele><time>2025-05-24T19:38:14Z</time></trkpt>
<trkpt lat="50.699383" lon="3.396193"><ele>16.22</ele><time>2025-05-24T19:38:22Z</time></trkpt>
<trkpt lat="50.699306" lon="3.396498"><ele>16.69</ele><time>2025-05-24T19:38:29Z</time></trkpt>
<trkpt lat="50.699272" lon="3.396751"><ele>17.0</ele><time>2025-05-24T19:38:36Z</time></trkpt>
<trkpt lat="50.699152" lon="3.398474"><ele>17.55</ele><time>2025-05-24T19:38:43Z</time></trkpt>
<trkpt lat="50.699189" lon="3.398611"><ele>17.0</ele><time>2025-05-24T19:38:51Z</time></trkpt>
<trkpt lat="50.699257" lon="3.398689"><ele>16.72</ele><time>2025-05-24T19:38:58Z</time></trkpt>
<trkpt lat="50.69979" lon="3.399108"><ele>16.24</ele><time>2025-05-24T19:39:05Z</time></trkpt>
<trkpt lat="50.699837" lon="3.399184"><ele>16.45</ele><time>2025-05-24T19:39:12Z</time></trkpt>
<trkpt lat="50.699863" lon="3.399281"><ele>16.71</ele><time>2025-05-24T19:39:19Z</time></trkpt>
<trkpt lat="50.699862" lon="3.399359"><ele>16.85</ele><time>2025-05-24T19:39:26Z</time></trkpt>
<trkpt lat="50.699839" lon="3.399449"><ele>17.0</ele><time>2025-05-24T19:39:34Z</time></trkpt>
<trkpt lat="50.699366" lon="3.400389"><ele>16.0</ele><time>2025-05-24T19:39:41Z</time></trkpt>
<trkpt lat="50.698217" lon="3.40247"><ele>16.58</ele><time>2025-05-24T19:39:48Z</time></trkpt>
<trkpt lat="50.698142" lon="3.402661"><ele>16.71</ele><time>2025-05-24T19:39:55Z</time></trkpt>
<trkpt lat="50.698142" lon="3.402783"><ele>17.0</ele><time>2025-05-24T19:40:02Z</time></trkpt>
<trkpt lat="50.698281" lon="3.40347"><ele>17.81</ele><time>2025-05-24T19:40:09Z</time></trkpt>
<trkpt lat="50.698289" lon="3.403621"><ele>17.84</ele><time>2025-05-24T19:40:17Z</time></trkpt>
<trkpt lat="50.698243" lon="3.403761"><ele>17.67</ele><time>2025-05-24T19:40:24Z</time></trkpt>
<trkpt lat="50.697527" lon="3.405241"><ele>17.0</ele><time>2025-05-24T19:40:31Z</time></trkpt>
<trkpt lat="50.696596" lon="3.40741"><ele>18.25</ele><time>2025-05-24T19:40:38Z</time></trkpt>
<trkpt lat="50.695568" lon="3.409864"><ele>19.53</ele><time>2025-05-24T19:40:45Z</time></trkpt>
<trkpt lat="50.695299" lon="3.410622"><ele>20.92</ele><time>2025-05-24T19:40:52Z</time></trkpt>
<trkpt lat="50.695152" lon="3.411312"><ele>22.45</ele><time>2025-05-24T19:40:59Z</time></trkpt>
<trkpt lat="50.695008" lon="3.411653"><ele>23.92</ele><time>2025-05-24T19:41:07Z</time></trkpt>
<trkpt lat="50.694835" lon="3.411947"><ele>24.6</ele><time>2025-05-24T19:41:14Z</time></trkpt>
<trkpt lat="50.693766" lon="3.41359"><ele>33.41</ele><time>2025-05-24T19:41:21Z</time></trkpt>
<trkpt lat="50.693408" lon="3.414188"><ele>34.92</ele><time>2025-05-24T19:41:28Z</time></trkpt>
<trkpt lat="50.693215" lon="3.413756"><ele>34.52</ele><time>2025-05-24T19:41:35Z</time></trkpt>
<trkpt lat="50.692623" lon="3.412844"><ele>34.0</ele><time>2025-05-24T19:41:42Z</time></trkpt>
<trkpt lat="50.692505" lon="3.412585"><ele>33.32</ele><time>2025-05-24T19:41:49Z</time></trkpt>
<trkpt lat="50.691379" lon="3.409883"><ele>33.63</ele><time>2025-05-24T19:41:56Z</time></trkpt>
<trkpt lat="50.689041" lon="3.403911"><ele>38.0</ele><time>2025-05-24T19:42:03Z</time></trkpt>
<trkpt lat="50.687756" lon="3.40104"><ele>38.9</ele><time>2025-05-24T19:42:10Z</time></trkpt>
<trkpt lat="50.6868" lon="3.399193"><ele>43.9</ele><time>2025-05-24T19:42:17Z</time></trkpt>
<trkpt lat="50.686764" lon="3.399087"><ele>44.0</ele><time>2025-05-24T19:42:24Z</time></trkpt>
<trkpt lat="50.686732" lon="3.398914"><ele>44.0</ele><time>2025-05-24T19:42:31Z</time></trkpt>
<trkpt lat="50.686757" lon="3.398598"><ele>45.0</ele><time>2025-05-24T19:42:38Z</time></trkpt>
<trkpt lat="50.686822" lon="3.398261"><ele>45.26</ele><time>2025-05-24T19:42:45Z</time></trkpt>
<trkpt lat="50.686887" lon="3.398074"><ele>45.94</ele><time>2025-05-24T19:42:52Z</time></trkpt>
<trkpt lat="50.68718" lon="3.397622"><ele>45.07</ele><time>2025-05-24T19:42:59Z</time></trkpt>
<trkpt lat="50.687292" lon="3.397383"><ele>44.49</ele><time>2025-05-24T19:43:06Z</time></trkpt>
<trkpt lat="50.687346" lon="3.397225"><ele>44.11</ele><time>2025-05-24T19:43:13Z</time></trkpt>
<trkpt lat="50.68782" lon="3.395186"><ele>36.54</ele><time>2025-05-24T19:43:20Z</time></trkpt>
<trkpt lat="50.687938" lon="3.394951"><ele>35.19</ele><time>2025-05-24T19:43:27Z</time></trkpt>
<trkpt lat="50.688197" lon="3.394553"><ele>33.29</ele><time>2025-05-24T19:43:34Z</time></trkpt>
<trkpt lat="50.688359" lon="3.394121"><ele>33.89</ele><time>2025-05-24T19:43:41Z</time></trkpt>
<trkpt lat="50.688497" lon="3.393665"><ele>33.24</ele><time>2025-05-24T19:43:48Z</time></trkpt>
<trkpt lat="50.688597" lon="3.393161"><ele>31.57</ele><time>2025-05-24T19:43:55Z</time></trkpt>
<trkpt lat="50.688744" lon="3.392137"><ele>30.87</ele><time>2025-05-24T19:44:02Z</time></trkpt>
<trkpt lat="50.689006" lon="3.390617"><ele>31.31</ele><time>2025-05-24T19:44:09Z</time></trkpt>
<trkpt lat="50.689137" lon="3.390076"><ele>30.3</ele><time>2025-05-24T19:44:16Z</time></trkpt>
<trkpt lat="50.689137" lon="3.390076"><ele>30.3</ele><time>2025-05-24T19:44:16Z</time></trkpt>
<trkpt lat="50.689774" lon="3.387835"><ele>23.0</ele><time>2025-05-24T19:44:21Z</time></trkpt>
<trkpt lat="50.689844" lon="3.387573"><ele>23.32</ele><time>2025-05-24T19:44:27Z</time></trkpt>
<trkpt lat="50.689889" lon="3.387317"><ele>23.6</ele><time>2025-05-24T19:44:32Z</time></trkpt>
<trkpt lat="50.690069" lon="3.385709"><ele>25.09</ele><time>2025-05-24T19:44:37Z</time></trkpt>
<trkpt lat="50.690235" lon="3.384607"><ele>27.15</ele><time>2025-05-24T19:44:42Z</time></trkpt>
<trkpt lat="50.690359" lon="3.383512"><ele>26.7</ele><time>2025-05-24T19:44:48Z</time></trkpt>
<trkpt lat="50.690449" lon="3.383014"><ele>27.48</ele><time>2025-05-24T19:44:53Z</time></trkpt>
<trkpt lat="50.690572" lon="3.382533"><ele>27.87</ele><time>2025-05-24T19:44:58Z</time></trkpt>
<trkpt lat="50.690949" lon="3.381357"><ele>27.58</ele><time>2025-05-24T19:45:03Z</time></trkpt>
<trkpt lat="50.691142" lon="3.380517"><ele>27.77</ele><time>2025-05-24T19:45:08Z</time></trkpt>
<trkpt lat="50.691238" lon="3.379904"><ele>27.25</ele><time>2025-05-24T19:45:14Z</time></trkpt>
<trkpt lat="50.691301" lon="3.378738"><ele>27.14</ele><time>2025-05-24T19:45:19Z</time></trkpt>
<trkpt lat="50.691417" lon="3.377907"><ele>26.9</ele><time>2025-05-24T19:45:24Z</time></trkpt>
<trkpt lat="50.691546" lon="3.377199"><ele>26.6</ele><time>2025-05-24T19:45:29Z</time></trkpt>
<trkpt lat="50.692041" lon="3.375074"><ele>42.51</ele><time>2025-05-24T19:45:35Z</time></trkpt>
<trkpt lat="50.692263" lon="3.374253"><ele>30.43</ele><time>2025-05-24T19:45:40Z</time></trkpt>
<trkpt lat="50.692701" lon="3.372838"><ele>28.84</ele><time>2025-05-24T19:45:45Z</time></trkpt>
<trkpt lat="50.692945" lon="3.372222"><ele>29.4</ele><time>2025-05-24T19:45:50Z</time></trkpt>
<trkpt lat="50.693787" lon="3.370787"><ele>27.0</ele><time>2025-05-24T19:45:56Z</time></trkpt>
<trkpt lat="50.693995" lon="3.370359"><ele>26.62</ele><time>2025-05-24T19:46:01Z</time></trkpt>
<trkpt lat="50.694438" lon="3.368512"><ele>24.0</ele><time>2025-05-24T19:46:06Z</time></trkpt>
<trkpt lat="50.694716" lon="3.367867"><ele>23.0</ele><time>2025-05-24T19:46:11Z</time></trkpt>
<trkpt lat="50.696813" lon="3.363376"><ele>19.47</ele><time>2025-05-24T19:46:16Z</time></trkpt>
<trkpt lat="50.696995" lon="3.362937"><ele>18.82</ele><time>2025-05-24T19:46:22Z</time></trkpt>
<trkpt lat="50.697316" lon="3.36169"><ele>19.0</ele><time>2025-05-24T19:46:27Z</time></trkpt>
<trkpt lat="50.696332" lon="3.361594"><ele>17.58</ele><time>2025-05-24T19:46:42Z</time></trkpt>
<trkpt lat="50.69429" lon="3.361504"><ele>16.77</ele><time>2025-05-24T19:46:58Z</time></trkpt>
<trkpt lat="50.688689" lon="3.360908"><ele>16.79</ele><time>2025-05-24T19:47:14Z</time></trkpt>
<trkpt lat="50.687795" lon="3.360775"><ele>16.13</ele><time>2025-05-24T19:47:29Z</time></trkpt>
<trkpt lat="50.68743" lon="3.360689"><ele>19.25</ele><time>2025-05-24T19:47:45Z</time></trkpt>
<trkpt lat="50.687115" lon="3.36055"><ele>19.61</ele><time>2025-05-24T19:48:00Z</time></trkpt>
<trkpt lat="50.686418" lon="3.360242"><ele>18.21</ele><time>2025-05-24T19:48:16Z</time></trkpt>
<trkpt lat="50.685902" lon="3.350195"><ele>8.75</ele><time>2025-05-24T19:48:22Z</time></trkpt>
<trkpt lat="50.685837" lon="3.348682"><ele>12.0</ele><time>2025-05-24T19:48:28Z</time></trkpt>
<trkpt lat="50.685778" lon="3.34819"><ele>12.52</ele><time>2025-05-24T19:48:34Z</time></trkpt>
<trkpt lat="50.685703" lon="3.347737"><ele>13.15</ele><time>2025-05-24T19:48:40Z</time></trkpt>
<trkpt lat="50.685389" lon="3.34642"><ele>16.97</ele><time>2025-05-24T19:48:46Z</time></trkpt>
<trkpt lat="50.685313" lon="3.346032"><ele>18.08</ele><time>2025-05-24T19:48:52Z</time></trkpt>
<trkpt lat="50.685261" lon="3.345672"><ele>19.16</ele><time>2025-05-24T19:48:58Z</time></trkpt>
<trkpt lat="50.68523" lon="3.345296"><ele>19.36</ele><time>2025-05-24T19:49:04Z</time></trkpt>
<trkpt lat="50.685226" lon="3.344153"><ele>17.18</ele><time>2025-05-24T19:49:10Z</time></trkpt>
<trkpt lat="50.685237" lon="3.343906"><ele>17.15</ele><time>2025-05-24T19:49:16Z</time></trkpt>
<trkpt lat="50.685462" lon="3.343858"><ele>16.92</ele><time>2025-05-24T19:49:21Z</time></trkpt>
<trkpt lat="50.685844" lon="3.343705"><ele>15.96</ele><time>2025-05-24T19:49:25Z</time></trkpt>
<trkpt lat="50.686878" lon="3.343236"><ele>14.35</ele><time>2025-05-24T19:49:30Z</time></trkpt>
<trkpt lat="50.686987" lon="3.343167"><ele>14.6</ele><time>2025-05-24T19:49:35Z</time></trkpt>
<trkpt lat="50.687122" lon="3.343299"><ele>14.12</ele><time>2025-05-24T19:49:35Z</time></trkpt>
<trkpt lat="50.687181" lon="3.343329"><ele>14.01</ele><time>2025-05-24T19:49:36Z</time></trkpt>
<trkpt lat="50.687314" lon="3.343286"><ele>14.17</ele><time>2025-05-24T19:49:37Z</time></trkpt>
<trkpt lat="50.687833" lon="3.34302"><ele>14.1</ele><time>2025-05-24T19:49:38Z</time></trkpt>
<trkpt lat="50.687962" lon="3.342993"><ele>14.07</ele><time>2025-05-24T19:49:39Z</time></trkpt>
<trkpt lat="50.688106" lon="3.342995"><ele>14.0</ele><time>2025-05-24T19:49:40Z</time></trkpt>
<trkpt lat="50.688284" lon="3.343057"><ele>14.0</ele><time>2025-05-24T19:49:41Z</time></trkpt>
<trkpt lat="50.688432" lon="3.343152"><ele>13.88</ele><time>2025-05-24T19:49:42Z</time></trkpt>
<trkpt lat="50.6886" lon="3.343298"><ele>13.16</ele><time>2025-05-24T19:49:43Z</time></trkpt>
<trkpt lat="50.68864" lon="3.343354"><ele>12.9</ele><time>2025-05-24T19:49:44Z</time></trkpt>
<trkpt lat="50.688738" lon="3.343232"><ele>12.91</ele><time>2025-05-24T19:49:49Z</time></trkpt>
<trkpt lat="50.688913" lon="3.342622"><ele>15.0</ele><time>2025-05-24T19:49:55Z</time></trkpt>
<trkpt lat="50.68902" lon="3.342432"><ele>16.02</ele><time>2025-05-24T19:50:01Z</time></trkpt>
<trkpt lat="50.689123" lon="3.34236"><ele>16.17</ele><time>2025-05-24T19:50:07Z</time></trkpt>
<trkpt lat="50.689548" lon="3.34217"><ele>14.26</ele><time>2025-05-24T19:50:12Z</time></trkpt>
<trkpt lat="50.690194" lon="3.341979"><ele>12.75</ele><time>2025-05-24T19:50:18Z</time></trkpt>
<trkpt lat="50.692481" lon="3.341421"><ele>12.02</ele><time>2025-05-24T19:50:24Z</time></trkpt>
<trkpt lat="50.692934" lon="3.341374"><ele>12.62</ele><time>2025-05-24T19:50:30Z</time></trkpt>
<trkpt lat="50.693528" lon="3.341407"><ele>13.63</ele><time>2025-05-24T19:50:36Z</time></trkpt>
<trkpt lat="50.694496" lon="3.341597"><ele>13.07</ele><time>2025-05-24T19:50:41Z</time></trkpt>
<trkpt lat="50.694836" lon="3.341553"><ele>12.17</ele><time>2025-05-24T19:50:47Z</time></trkpt>
<trkpt lat="50.695166" lon="3.341577"><ele>12.24</ele><time>2025-05-24T19:50:53Z</time></trkpt>
<trkpt lat="50.695717" lon="3.341727"><ele>13.38</ele><time>2025-05-24T19:50:59Z</time></trkpt>
<trkpt lat="50.696017" lon="3.341836"><ele>15.53</ele><time>2025-05-24T19:51:04Z</time></trkpt>
<trkpt lat="50.696941" lon="3.342539"><ele>14.86</ele><time>2025-05-24T19:51:10Z</time></trkpt>
<trkpt lat="50.697141" lon="3.342661"><ele>13.71</ele><time>2025-05-24T19:51:16Z</time></trkpt>
<trkpt lat="50.697469" lon="3.341618"><ele>17.0</ele><time>2025-05-24T19:51:19Z</time></trkpt>
<trkpt lat="50.697602" lon="3.341073"><ele>17.14</ele><time>2025-05-24T19:51:21Z</time></trkpt>
<trkpt lat="50.697761" lon="3.339433"><ele>18.98</ele><time>2025-05-24T19:51:23Z</time></trkpt>
<trkpt lat="50.697824" lon="3.339251"><ele>19.75</ele><time>2025-05-24T19:51:26Z</time></trkpt>
<trkpt lat="50.697907" lon="3.339111"><ele>20.0</ele><time>2025-05-24T19:51:28Z</time></trkpt>
<trkpt lat="50.697992" lon="3.339063"><ele>20.0</ele><time>2025-05-24T19:51:30Z</time></trkpt>
<trkpt lat="50.698226" lon="3.339097"><ele>20.46</ele><time>2025-05-24T19:51:31Z</time></trkpt>
<trkpt lat="50.698405" lon="3.339202"><ele>21.13</ele><time>2025-05-24T19:51:32Z</time></trkpt>
<trkpt lat="50.698851" lon="3.339403"><ele>20.38</ele><time>2025-05-24T19:51:34Z</time></trkpt>
<trkpt lat="50.698792" lon="3.339704"><ele>20.37</ele><time>2025-05-24T19:51:51Z</time></trkpt>
<trkpt lat="50.698695" lon="3.340071"><ele>18.74</ele><time>2025-05-24T19:52:09Z</time></trkpt>
<trkpt lat="50.698691" lon="3.340216"><ele>18.22</ele><time>2025-05-24T19:52:27Z</time></trkpt>
<trkpt lat="50.698736" lon="3.340484"><ele>17.26</ele><time>2025-05-24T19:52:45Z</time></trkpt>
<trkpt lat="50.699163" lon="3.341592"><ele>17.71</ele><time>2025-05-24T19:53:03Z</time></trkpt>
<trkpt lat="50.699353" lon="3.342386"><ele>18.33</ele><time>2025-05-24T19:53:21Z</time></trkpt>
<trkpt lat="50.699591" lon="3.343749"><ele>18.55</ele><time>2025-05-24T19:53:39Z</time></trkpt>
<trkpt lat="50.699699" lon="3.3442"><ele>19.72</ele><time>2025-05-24T19:53:56Z</time></trkpt>
<trkpt lat="50.699835" lon="3.344564"><ele>18.74</ele><time>2025-05-24T19:54:14Z</time></trkpt>
<trkpt lat="50.699931" lon="3.344779"><ele>18.7</ele><time>2025-05-24T19:54:32Z</time></trkpt>
<trkpt lat="50.700236" lon="3.345219"><ele>19.0</ele><time>2025-05-24T19:54:50Z</time></trkpt>
<trkpt lat="50.700712" lon="3.34568"><ele>19.0</ele><time>2025-05-24T19:55:08Z</time></trkpt>
<trkpt lat="50.700701" lon="3.345803"><ele>19.0</ele><time>2025-05-24T19:55:11Z</time></trkpt>
<trkpt lat="50.700726" lon="3.346134"><ele>20.0</ele><time>2025-05-24T19:55:15Z</time></trkpt>
<trkpt lat="50.700757" lon="3.346262"><ele>20.0</ele><time>2025-05-24T19:55:18Z</time></trkpt>
<trkpt lat="50.70101" lon="3.346974"><ele>17.96</ele><time>2025-05-24T19:55:21Z</time></trkpt>
<trkpt lat="50.70105" lon="3.347142"><ele>17.84</ele><time>2025-05-24T19:55:24Z</time></trkpt>
<trkpt lat="50.701081" lon="3.347544"><ele>17.89</ele><time>2025-05-24T19:55:28Z</time></trkpt>
<trkpt lat="50.701045" lon="3.347645"><ele>17.76</ele><time>2025-05-24T19:55:31Z</time></trkpt>
<trkpt lat="50.700899" lon="3.347819"><ele>17.24</ele><time>2025-05-24T19:55:34Z</time></trkpt>
<trkpt lat="50.700797" lon="3.347982"><ele>16.87</ele><time>2025-05-24T19:55:38Z</time></trkpt>
<trkpt lat="50.700601" lon="3.348391"><ele>15.37</ele><time>2025-05-24T19:55:41Z</time></trkpt>
<trkpt lat="50.700432" lon="3.348682"><ele>16.37</ele><time>2025-05-24T19:55:44Z</time></trkpt>
<trkpt lat="50.700432" lon="3.348682"><ele>16.37</ele><time>2025-05-24T19:55:44Z</time></trkpt>
<trkpt lat="50.700341" lon="3.349016"><ele>17.45</ele><time>2025-05-24T19:55:49Z</time></trkpt>
<trkpt lat="50.700298" lon="3.349396"><ele>18.89</ele><time>2025-05-24T19:55:54Z</time></trkpt>
<trkpt lat="50.700328" lon="3.349751"><ele>20.1</ele><time>2025-05-24T19:55:59Z</time></trkpt>
<trkpt lat="50.700366" lon="3.349925"><ele>20.73</ele><time>2025-05-24T19:56:04Z</time></trkpt>
<trkpt lat="50.701039" lon="3.351858"><ele>17.48</ele><time>2025-05-24T19:56:08Z</time></trkpt>
<trkpt lat="50.701514" lon="3.351183"><ele>19.84</ele><time>2025-05-24T19:56:21Z</time></trkpt>
<trkpt lat="50.702057" lon="3.350307"><ele>20.64</ele><time>2025-05-24T19:56:34Z</time></trkpt>
<trkpt lat="50.702666" lon="3.34938"><ele>21.14</ele><time>2025-05-24T19:56:46Z</time></trkpt>
<trkpt lat="50.703076" lon="3.348805"><ele>23.43</ele><time>2025-05-24T19:56:59Z</time></trkpt>
<trkpt lat="50.703528" lon="3.3481"><ele>24.27</ele><time>2025-05-24T19:57:11Z</time></trkpt>
<trkpt lat="50.703811" lon="3.347658"><ele>23.28</ele><time>2025-05-24T19:57:24Z</time></trkpt>
<trkpt lat="50.705167" lon="3.345419"><ele>19.8</ele><time>2025-05-24T19:57:36Z</time></trkpt>
<trkpt lat="50.704983" lon="3.345128"><ele>19.0</ele><time>2025-05-24T19:57:40Z</time></trkpt>
<trkpt lat="50.704655" lon="3.344533"><ele>19.24</ele><time>2025-05-24T19:57:45Z</time></trkpt>
<trkpt lat="50.704363" lon="3.343951"><ele>19.29</ele><time>2025-05-24T19:57:49Z</time></trkpt>
<trkpt lat="50.705597" lon="3.342534"><ele>17.09</ele><time>2025-05-24T19:57:55Z</time></trkpt>
<trkpt lat="50.706313" lon="3.341667"><ele>16.0</ele><time>2025-05-24T19:58:01Z</time></trkpt>
<trkpt lat="50.706393" lon="3.341483"><ele>15.99</ele><time>2025-05-24T19:58:07Z</time></trkpt>
<trkpt lat="50.706449" lon="3.341251"><ele>16.11</ele><time>2025-05-24T19:58:13Z</time></trkpt>
<trkpt lat="50.706537" lon="3.340465"><ele>16.0</ele><time>2025-05-24T19:58:19Z</time></trkpt>
<trkpt lat="50.706604" lon="3.340161"><ele>16.0</ele><time>2025-05-24T19:58:26Z</time></trkpt>
<trkpt lat="50.707394" lon="3.338103"><ele>16.42</ele><time>2025-05-24T19:58:32Z</time></trkpt>
<trkpt lat="50.707579" lon="3.337715"><ele>16.28</ele><time>2025-05-24T19:58:38Z</time></trkpt>
<trkpt lat="50.707861" lon="3.337229"><ele>15.62</ele><time>2025-05-24T19:58:44Z</time></trkpt>
<trkpt lat="50.708706" lon="3.335944"><ele>14.94</ele><time>2025-05-24T19:58:50Z</time></trkpt>
<trkpt lat="50.708835" lon="3.335723"><ele>15.88</ele><time>2025-05-24T19:58:56Z</time></trkpt>
<trkpt lat="50.708876" lon="3.335518"><ele>16.0</ele><time>2025-05-24T19:59:02Z</time></trkpt>
<trkpt lat="50.712166" lon="3.334539"><ele>14.53</ele><time>2025-05-24T19:59:28Z</time></trkpt>
<trkpt lat="50.712181" lon="3.334679"><ele>14.13</ele><time>2025-05-24T19:59:44Z</time></trkpt>
<trkpt lat="50.712242" lon="3.33471"><ele>14.11</ele><time>2025-05-24T19:59:50Z</time></trkpt>
<trkpt lat="50.712945" lon="3.334495"><ele>21.13</ele><time>2025-05-24T19:59:55Z</time></trkpt>
<trkpt lat="50.713057" lon="3.33449"><ele>22.0</ele><time>2025-05-24T20:00:01Z</time></trkpt>
<trkpt lat="50.713057" lon="3.33449"><ele>22.0</ele><time>2025-05-24T20:00:01Z</time></trkpt>
<trkpt lat="50.712945" lon="3.334495"><ele>21.13</ele><time>2025-05-24T20:00:06Z</time></trkpt>
<trkpt lat="50.712242" lon="3.33471"><ele>14.11</ele><time>2025-05-24T20:00:12Z</time></trkpt>
<trkpt lat="50.712181" lon="3.334679"><ele>14.13</ele><time>2025-05-24T20:00:17Z</time></trkpt>
<trkpt lat="50.712157" lon="3.334456"><ele>14.73</ele><time>2025-05-24T20:00:19Z</time></trkpt>
<trkpt lat="50.708879" lon="3.33541"><ele>16.0</ele><time>2025-05-24T20:00:45Z</time></trkpt>
<trkpt lat="50.708876" lon="3.335518"><ele>16.0</ele><time>2025-05-24T20:00:51Z</time></trkpt>
<trkpt lat="50.708835" lon="3.335723"><ele>15.88</ele><time>2025-05-24T20:00:56Z</time></trkpt>
<trkpt lat="50.708706" lon="3.335944"><ele>14.94</ele><time>2025-05-24T20:01:02Z</time></trkpt>
<trkpt lat="50.707861" lon="3.337229"><ele>15.62</ele><time>2025-05-24T20:01:08Z</time></trkpt>
<trkpt lat="50.707579" lon="3.337715"><ele>16.28</ele><time>2025-05-24T20:01:13Z</time></trkpt>
<trkpt lat="50.707394" lon="3.338103"><ele>16.42</ele><time>2025-05-24T20:01:19Z</time></trkpt>
<trkpt lat="50.706604" lon="3.340161"><ele>16.0</ele><time>2025-05-24T20:01:25Z</time></trkpt>
<trkpt lat="50.706537" lon="3.340465"><ele>16.0</ele><time>2025-05-24T20:01:30Z</time></trkpt>
<trkpt lat="50.706449" lon="3.341251"><ele>16.11</ele><time>2025-05-24T20:01:36Z</time></trkpt>
<trkpt lat="50.706393" lon="3.341483"><ele>15.99</ele><time>2025-05-24T20:01:42Z</time></trkpt>
<trkpt lat="50.706313" lon="3.341667"><ele>16.0</ele><time>2025-05-24T20:01:48Z</time></trkpt>
<trkpt lat="50.705597" lon="3.342534"><ele>17.09</ele><time>2025-05-24T20:01:53Z</time></trkpt>
<trkpt lat="50.704363" lon="3.343951"><ele>19.29</ele><time>2025-05-24T20:01:59Z</time></trkpt>
<trkpt lat="50.704655" lon="3.344533"><ele>19.24</ele><time>2025-05-24T20:02:03Z</time></trkpt>
<trkpt lat="50.704983" lon="3.345128"><ele>19.0</ele><time>2025-05-24T20:02:07Z</time></trkpt>
<trkpt lat="50.705167" lon="3.345419"><ele>19.8</ele><time>2025-05-24T20:02:12Z</time></trkpt>
<trkpt lat="50.705364" lon="3.345646"><ele>20.31</ele><time>2025-05-24T20:02:16Z</time></trkpt>
<trkpt lat="50.706556" lon="3.346817"><ele>16.72</ele><time>2025-05-24T20:02:20Z</time></trkpt>
<trkpt lat="50.707145" lon="3.347541"><ele>16.38</ele><time>2025-05-24T20:02:24Z</time></trkpt>
<trkpt lat="50.70792" lon="3.348435"><ele>20.0</ele><time>2025-05-24T20:02:28Z</time></trkpt>
<trkpt lat="50.70972" lon="3.350406"><ele>17.0</ele><time>2025-05-24T20:02:32Z</time></trkpt>
<trkpt lat="50.710558" lon="3.351242"><ele>16.0</ele><time>2025-05-24T20:02:37Z</time></trkpt>
<trkpt lat="50.711117" lon="3.351748"><ele>15.98</ele><time>2025-05-24T20:02:41Z</time></trkpt>
<trkpt lat="50.711274" lon="3.351854"><ele>15.41</ele><time>2025-05-24T20:02:45Z</time></trkpt>
<trkpt lat="50.71143" lon="3.351925"><ele>15.15</ele><time>2025-05-24T20:02:49Z</time></trkpt>
<trkpt lat="50.712033" lon="3.352085"><ele>17.02</ele><time>2025-05-24T20:02:53Z</time></trkpt>
<trkpt lat="50.712171" lon="3.352144"><ele>16.32</ele><time>2025-05-24T20:02:58Z</time></trkpt>
<trkpt lat="50.712314" lon="3.352251"><ele>15.67</ele><time>2025-05-24T20:03:02Z</time></trkpt>
<trkpt lat="50.712667" lon="3.352652"><ele>15.6</ele><time>2025-05-24T20:03:06Z</time></trkpt>
<trkpt lat="50.713644" lon="3.353914"><ele>15.08</ele><time>2025-05-24T20:03:10Z</time></trkpt>
<trkpt lat="50.713979" lon="3.354284"><ele>14.96</ele><time>2025-05-24T20:03:14Z</time></trkpt>
<trkpt lat="50.71539" lon="3.355519"><ele>16.19</ele><time>2025-05-24T20:03:19Z</time></trkpt>
<trkpt lat="50.715721" lon="3.355752"><ele>17.6</ele><time>2025-05-24T20:03:23Z</time></trkpt>
<trkpt lat="50.716605" lon="3.356303"><ele>12.45</ele><time>2025-05-24T20:03:27Z</time></trkpt>
<trkpt lat="50.717508" lon="3.356776"><ele>16.18</ele><time>2025-05-24T20:03:31Z</time></trkpt>
<trkpt lat="50.717508" lon="3.356776"><ele>16.18</ele><time>2025-05-24T20:03:31Z</time></trkpt>
<trkpt lat="50.717962" lon="3.357008"><ele>17.26</ele><time>2025-05-24T20:03:36Z</time></trkpt>
<trkpt lat="50.718139" lon="3.357131"><ele>17.0</ele><time>2025-05-24T20:03:41Z</time></trkpt>
<trkpt lat="50.71832" lon="3.357321"><ele>17.0</ele><time>2025-05-24T20:03:46Z</time></trkpt>
<trkpt lat="50.718529" lon="3.357592"><ele>17.7</ele><time>2025-05-24T20:03:51Z</time></trkpt>
<trkpt lat="50.718731" lon="3.357949"><ele>17.57</ele><time>2025-05-24T20:03:56Z</time></trkpt>
<trkpt lat="50.718972" lon="3.358463"><ele>16.7</ele><time>2025-05-24T20:04:00Z</time></trkpt>
<trkpt lat="50.719218" lon="3.359045"><ele>16.74</ele><time>2025-05-24T20:04:05Z</time></trkpt>
<trkpt lat="50.719721" lon="3.360422"><ele>17.48</ele><time>2025-05-24T20:04:10Z</time></trkpt>
<trkpt lat="50.719967" lon="3.360928"><ele>16.96</ele><time>2025-05-24T20:04:15Z</time></trkpt>
<trkpt lat="50.72015" lon="3.361228"><ele>17.0</ele><time>2025-05-24T20:04:20Z</time></trkpt>
<trkpt lat="50.720196" lon="3.361127"><ele>17.0</ele><time>2025-05-24T20:04:38Z</time></trkpt>
<trkpt lat="50.720393" lon="3.360882"><ele>16.59</ele><time>2025-05-24T20:04:56Z</time></trkpt>
<trkpt lat="50.720445" lon="3.360921"><ele>16.4</ele><time>2025-05-24T20:05:00Z</time></trkpt>
<trkpt lat="50.720505" lon="3.3609"><ele>16.18</ele><time>2025-05-24T20:05:04Z</time></trkpt>
<trkpt lat="50.721292" lon="3.360048"><ele>15.71</ele><time>2025-05-24T20:05:09Z</time></trkpt>
<trkpt lat="50.721314" lon="3.360013"><ele>15.74</ele><time>2025-05-24T20:05:13Z</time></trkpt>
<trkpt lat="50.721325" lon="3.359917"><ele>15.7</ele><time>2025-05-24T20:05:17Z</time></trkpt>
<trkpt lat="50.721404" lon="3.359949"><ele>16.0</ele><time>2025-05-24T20:05:23Z</time></trkpt>
<trkpt lat="50.721531" lon="3.359915"><ele>16.0</ele><time>2025-05-24T20:05:28Z</time></trkpt>
<trkpt lat="50.722223" lon="3.359223"><ele>12.2</ele><time>2025-05-24T20:05:34Z</time></trkpt>
<trkpt lat="50.722321" lon="3.359017"><ele>12.35</ele><time>2025-05-24T20:05:39Z</time></trkpt>
<trkpt lat="50.722454" lon="3.359172"><ele>12.84</ele><time>2025-05-24T20:05:47Z</time></trkpt>
<trkpt lat="50.722561" lon="3.359265"><ele>12.86</ele><time>2025-05-24T20:05:55Z</time></trkpt>
<trkpt lat="50.723887" lon="3.360169"><ele>15.0</ele><time>2025-05-24T20:06:03Z</time></trkpt>
<trkpt lat="50.724211" lon="3.360298"><ele>13.0</ele><time>2025-05-24T20:06:11Z</time></trkpt>
<trkpt lat="50.725345" lon="3.360454"><ele>13.0</ele><time>2025-05-24T20:06:20Z</time></trkpt>
<trkpt lat="50.725541" lon="3.360515"><ele>13.0</ele><time>2025-05-24T20:06:28Z</time></trkpt>
<trkpt lat="50.727206" lon="3.361309"><ele>12.06</ele><time>2025-05-24T20:06:36Z</time></trkpt>
<trkpt lat="50.72757" lon="3.361427"><ele>12.9</ele><time>2025-05-24T20:06:44Z</time></trkpt>
<trkpt lat="50.727839" lon="3.36147"><ele>13.0</ele><time>2025-05-24T20:06:52Z</time></trkpt>
<trkpt lat="50.728155" lon="3.361468"><ele>13.0</ele><time>2025-05-24T20:07:00Z</time></trkpt>
<trkpt lat="50.728328" lon="3.361441"><ele>13.0</ele><time>2025-05-24T20:07:08Z</time></trkpt>
<trkpt lat="50.729294" lon="3.361049"><ele>13.96</ele><time>2025-05-24T20:07:16Z</time></trkpt>
<trkpt lat="50.72949" lon="3.36095"><ele>13.09</ele><time>2025-05-24T20:07:24Z</time></trkpt>
<trkpt lat="50.729861" lon="3.360617"><ele>14.39</ele><time>2025-05-24T20:07:32Z</time></trkpt>
<trkpt lat="50.729999" lon="3.360451"><ele>14.62</ele><time>2025-05-24T20:07:40Z</time></trkpt>
<trkpt lat="50.730179" lon="3.360145"><ele>14.0</ele><time>2025-05-24T20:07:48Z</time></trkpt>
<trkpt lat="50.730374" lon="3.359561"><ele>13.0</ele><time>2025-05-24T20:07:56Z</time></trkpt>
<trkpt lat="50.73043" lon="3.35944"><ele>12.99</ele><time>2025-05-24T20:08:04Z</time></trkpt>
<trkpt lat="50.730571" lon="3.359233"><ele>13.0</ele><time>2025-05-24T20:08:12Z</time></trkpt>
<trkpt lat="50.730729" lon="3.359046"><ele>13.0</ele><time>2025-05-24T20:08:20Z</time></trkpt>
<trkpt lat="50.730822" lon="3.359019"><ele>13.0</ele><time>2025-05-24T20:08:28Z</time></trkpt>
<trkpt lat="50.730931" lon="3.359054"><ele>13.0</ele><time>2025-05-24T20:08:36Z</time></trkpt>
<trkpt lat="50.731128" lon="3.359174"><ele>13.0</ele><time>2025-05-24T20:08:44Z</time></trkpt>
<trkpt lat="50.7316" lon="3.359519"><ele>13.0</ele><time>2025-05-24T20:08:52Z</time></trkpt>
<trkpt lat="50.731838" lon="3.359175"><ele>12.37</ele><time>2025-05-24T20:08:57Z</time></trkpt>
<trkpt lat="50.732175" lon="3.358628"><ele>12.94</ele><time>2025-05-24T20:09:02Z</time></trkpt>
<trkpt lat="50.73234" lon="3.358322"><ele>13.83</ele><time>2025-05-24T20:09:07Z</time></trkpt>
<trkpt lat="50.733786" lon="3.35633"><ele>13.0</ele><time>2025-05-24T20:09:11Z</time></trkpt>
<trkpt lat="50.734055" lon="3.355931"><ele>13.05</ele><time>2025-05-24T20:09:16Z</time></trkpt>
<trkpt lat="50.734903" lon="3.354567"><ele>12.0</ele><time>2025-05-24T20:09:21Z</time></trkpt>
<trkpt lat="50.734972" lon="3.354494"><ele>12.0</ele><time>2025-05-24T20:09:26Z</time></trkpt>
<trkpt lat="50.735085" lon="3.35444"><ele>12.0</ele><time>2025-05-24T20:09:30Z</time></trkpt>
<trkpt lat="50.73516" lon="3.354439"><ele>12.0</ele><time>2025-05-24T20:09:35Z</time></trkpt>
<trkpt lat="50.735529" lon="3.354527"><ele>12.9</ele><time>2025-05-24T20:09:40Z</time></trkpt>
<trkpt lat="50.735664" lon="3.354518"><ele>13.0</ele><time>2025-05-24T20:09:45Z</time></trkpt>
<trkpt lat="50.735849" lon="3.354443"><ele>13.0</ele><time>2025-05-24T20:09:49Z</time></trkpt>
<trkpt lat="50.736084" lon="3.354292"><ele>13.49</ele><time>2025-05-24T20:09:54Z</time></trkpt>
<trkpt lat="50.736257" lon="3.354155"><ele>14.0</ele><time>2025-05-24T20:09:59Z</time></trkpt>
<trkpt lat="50.736629" lon="3.35373"><ele>14.37</ele><time>2025-05-24T20:10:04Z</time></trkpt>
<trkpt lat="50.737145" lon="3.35302"><ele>13.0</ele><time>2025-05-24T20:10:08Z</time></trkpt>
<trkpt lat="50.737445" lon="3.352405"><ele>13.2</ele><time>2025-05-24T20:10:13Z</time></trkpt>
<trkpt lat="50.73825" lon="3.350501"><ele>13.56</ele><time>2025-05-24T20:10:18Z</time></trkpt>
<trkpt lat="50.738461" lon="3.350045"><ele>13.46</ele><time>2025-05-24T20:10:23Z</time></trkpt>
<trkpt lat="50.738545" lon="3.349815"><ele>13.25</ele><time>2025-05-24T20:10:27Z</time></trkpt>
<trkpt lat="50.738584" lon="3.349595"><ele>13.0</ele><time>2025-05-24T20:10:32Z</time></trkpt>
<trkpt lat="50.738641" lon="3.348974"><ele>13.0</ele><time>2025-05-24T20:10:37Z</time></trkpt>
<trkpt lat="50.738631" lon="3.348782"><ele>13.0</ele><time>2025-05-24T20:10:42Z</time></trkpt>
<trkpt lat="50.738591" lon="3.348636"><ele>12.99</ele><time>2025-05-24T20:10:46Z</time></trkpt>
<trkpt lat="50.7384" lon="3.348122"><ele>13.58</ele><time>2025-05-24T20:10:51Z</time></trkpt>
<trkpt lat="50.738268" lon="3.34783"><ele>14.0</ele><time>2025-05-24T20:10:56Z</time></trkpt>
<trkpt lat="50.738145" lon="3.347613"><ele>14.0</ele><time>2025-05-24T20:11:01Z</time></trkpt>
<trkpt lat="50.738145" lon="3.347613"><ele>14.0</ele><time>2025-05-24T20:11:01Z</time></trkpt>
<trkpt lat="50.738137" lon="3.347599"><ele>14.0</ele><time>2025-05-24T20:11:01Z</time></trkpt>
<trkpt lat="50.738722" lon="3.345682"><ele>15.4</ele><time>2025-05-24T20:11:10Z</time></trkpt>
<trkpt lat="50.739035" lon="3.344483"><ele>15.53</ele><time>2025-05-24T20:11:19Z</time></trkpt>
<trkpt lat="50.739077" lon="3.344264"><ele>15.89</ele><time>2025-05-24T20:11:28Z</time></trkpt>
<trkpt lat="50.739115" lon="3.343697"><ele>15.63</ele><time>2025-05-24T20:11:36Z</time></trkpt>
<trkpt lat="50.739154" lon="3.343599"><ele>15.09</ele><time>2025-05-24T20:11:45Z</time></trkpt>
<trkpt lat="50.739278" lon="3.343382"><ele>14.27</ele><time>2025-05-24T20:11:54Z</time></trkpt>
<trkpt lat="50.739609" lon="3.342975"><ele>14.0</ele><time>2025-05-24T20:12:03Z</time></trkpt>
<trkpt lat="50.740058" lon="3.342457"><ele>15.0</ele><time>2025-05-24T20:12:12Z</time></trkpt>
<trkpt lat="50.740394" lon="3.34212"><ele>15.68</ele><time>2025-05-24T20:12:21Z</time></trkpt>
<trkpt lat="50.740728" lon="3.341729"><ele>17.24</ele><time>2025-05-24T20:12:30Z</time></trkpt>
<trkpt lat="50.741318" lon="3.340262"><ele>15.7</ele><time>2025-05-24T20:12:39Z</time></trkpt>
<trkpt lat="50.741421" lon="3.33989"><ele>14.65</ele><time>2025-05-24T20:12:48Z</time></trkpt>
<trkpt lat="50.74155" lon="3.339235"><ele>14.58</ele><time>2025-05-24T20:12:57Z</time></trkpt>
<trkpt lat="50.741613" lon="3.338824"><ele>15.04</ele><time>2025-05-24T20:13:06Z</time></trkpt>
<trkpt lat="50.743814" lon="3.340711"><ele>14.0</ele><time>2025-05-24T20:13:31Z</time></trkpt>
<trkpt lat="50.744275" lon="3.339817"><ele>15.73</ele><time>2025-05-24T20:13:38Z</time></trkpt>
<trkpt lat="50.745271" lon="3.338591"><ele>16.02</ele><time>2025-05-24T20:13:45Z</time></trkpt>
<trkpt lat="50.745873" lon="3.33796"><ele>18.14</ele><time>2025-05-24T20:13:52Z</time></trkpt>
<trkpt lat="50.746123" lon="3.337629"><ele>18.55</ele><time>2025-05-24T20:13:59Z</time></trkpt>
<trkpt lat="50.746372" lon="3.337198"><ele>19.88</ele><time>2025-05-24T20:14:06Z</time></trkpt>
<trkpt lat="50.746593" lon="3.336674"><ele>20.74</ele><time>2025-05-24T20:14:13Z</time></trkpt>
<trkpt lat="50.746666" lon="3.336414"><ele>21.91</ele><time>2025-05-24T20:14:20Z</time></trkpt>
<trkpt lat="50.746757" lon="3.335634"><ele>22.68</ele><time>2025-05-24T20:14:27Z</time></trkpt>
<trkpt lat="50.746857" lon="3.335246"><ele>21.2</ele><time>2025-05-24T20:14:34Z</time></trkpt>
<trkpt lat="50.747075" lon="3.334779"><ele>20.47</ele><time>2025-05-24T20:14:41Z</time></trkpt>
<trkpt lat="50.747405" lon="3.334204"><ele>20.79</ele><time>2025-05-24T20:14:48Z</time></trkpt>
<trkpt lat="50.747546" lon="3.334005"><ele>20.42</ele><time>2025-05-24T20:14:54Z</time></trkpt>
<trkpt lat="50.748206" lon="3.333279"><ele>23.74</ele><time>2025-05-24T20:15:01Z</time></trkpt>
<trkpt lat="50.748706" lon="3.33283"><ele>25.13</ele><time>2025-05-24T20:15:08Z</time></trkpt>
<trkpt lat="50.750325" lon="3.331257"><ele>21.0</ele><time>2025-05-24T20:15:15Z</time></trkpt>
<trkpt lat="50.750402" lon="3.331173"><ele>21.0</ele><time>2025-05-24T20:15:22Z</time></trkpt>
<trkpt lat="50.750429" lon="3.33111"><ele>21.0</ele><time>2025-05-24T20:15:29Z</time></trkpt>
<trkpt lat="50.750436" lon="3.331054"><ele>21.15</ele><time>2025-05-24T20:15:36Z</time></trkpt>
<trkpt lat="50.750436" lon="3.331054"><ele>21.15</ele><time>2025-05-24T20:15:36Z</time></trkpt>
<trkpt lat="50.750439" lon="3.331029"><ele>21.3</ele><time>2025-05-24T20:15:40Z</time></trkpt>
<trkpt lat="50.750382" lon="3.330869"><ele>21.87</ele><time>2025-05-24T20:15:43Z</time></trkpt>
<trkpt lat="50.750056" lon="3.330417"><ele>21.1</ele><time>2025-05-24T20:15:47Z</time></trkpt>
<trkpt lat="50.750018" lon="3.330416"><ele>21.03</ele><time>2025-05-24T20:15:50Z</time></trkpt>
<trkpt lat="50.74935" lon="3.330971"><ele>20.67</ele><time>2025-05-24T20:15:54Z</time></trkpt>
<trkpt lat="50.749259" lon="3.330997"><ele>20.8</ele><time>2025-05-24T20:15:57Z</time></trkpt>
<trkpt lat="50.749218" lon="3.330936"><ele>20.93</ele><time>2025-05-24T20:16:01Z</time></trkpt>
<trkpt lat="50.748893" lon="3.329808"><ele>20.69</ele><time>2025-05-24T20:16:04Z</time></trkpt>
<trkpt lat="50.748592" lon="3.328582"><ele>21.09</ele><time>2025-05-24T20:16:08Z</time></trkpt>
<trkpt lat="50.748515" lon="3.327823"><ele>21.35</ele><time>2025-05-24T20:16:11Z</time></trkpt>
<trkpt lat="50.748511" lon="3.327228"><ele>22.0</ele><time>2025-05-24T20:16:15Z</time></trkpt>
<trkpt lat="50.748488" lon="3.327005"><ele>22.0</ele><time>2025-05-24T20:16:18Z</time></trkpt>
<trkpt lat="50.74836" lon="3.32702"><ele>22.0</ele><time>2025-05-24T20:16:24Z</time></trkpt>
<trkpt lat="50.74784" lon="3.327182"><ele>21.85</ele><time>2025-05-24T20:16:30Z</time></trkpt>
<trkpt lat="50.747738" lon="3.327158"><ele>21.77</ele><time>2025-05-24T20:16:36Z</time></trkpt>
<trkpt lat="50.747658" lon="3.327015"><ele>21.25</ele><time>2025-05-24T20:16:41Z</time></trkpt>
<trkpt lat="50.746636" lon="3.324454"><ele>25.0</ele><time>2025-05-24T20:16:47Z</time></trkpt>
<trkpt lat="50.746281" lon="3.323467"><ele>25.0</ele><time>2025-05-24T20:16:53Z</time></trkpt>
<trkpt lat="50.746054" lon="3.322917"><ele>26.7</ele><time>2025-05-24T20:16:59Z</time></trkpt>
<trkpt lat="50.746252" lon="3.322445"><ele>27.5</ele><time>2025-05-24T20:17:02Z</time></trkpt>
<trkpt lat="50.746541" lon="3.321866"><ele>29.1</ele><time>2025-05-24T20:17:06Z</time></trkpt>
<trkpt lat="50.746603" lon="3.321661"><ele>29.54</ele><time>2025-05-24T20:17:09Z</time></trkpt>
<trkpt lat="50.746623" lon="3.321481"><ele>29.79</ele><time>2025-05-24T20:17:13Z</time></trkpt>
<trkpt lat="50.746598" lon="3.321317"><ele>29.75</ele><time>2025-05-24T20:17:16Z</time></trkpt>
<trkpt lat="50.746356" lon="3.320749"><ele>30.0</ele><time>2025-05-24T20:17:20Z</time></trkpt>
<trkpt lat="50.742391" lon="3.324434"><ele>24.96</ele><time>2025-05-24T20:18:07Z</time></trkpt>
<trkpt lat="50.742358" lon="3.324308"><ele>24.51</ele><time>2025-05-24T20:18:24Z</time></trkpt>
<trkpt lat="50.741949" lon="3.323121"><ele>23.76</ele><time>2025-05-24T20:18:41Z</time></trkpt>
<trkpt lat="50.741926" lon="3.322878"><ele>23.86</ele><time>2025-05-24T20:18:58Z</time></trkpt>
<trkpt lat="50.741952" lon="3.322376"><ele>25.01</ele><time>2025-05-24T20:19:15Z</time></trkpt>
<trkpt lat="50.741933" lon="3.322226"><ele>24.92</ele><time>2025-05-24T20:19:32Z</time></trkpt>
<trkpt lat="50.74168" lon="3.321168"><ele>25.0</ele><time>2025-05-24T20:19:49Z</time></trkpt>
<trkpt lat="50.741414" lon="3.320238"><ele>25.91</ele><time>2025-05-24T20:20:06Z</time></trkpt>
<trkpt lat="50.741161" lon="3.319521"><ele>24.18</ele><time>2025-05-24T20:20:23Z</time></trkpt>
<trkpt lat="50.740831" lon="3.318717"><ele>24.0</ele><time>2025-05-24T20:20:40Z</time></trkpt>
<trkpt lat="50.740832" lon="3.318715"><ele>24.77</ele><time>2025-05-24T20:20:40Z</time></trkpt>
<trkpt lat="50.740832" lon="3.318715"><ele>24.77</ele><time>2025-05-24T20:20:40Z</time></trkpt>
<trkpt lat="50.741443" lon="3.318128"><ele>25.54</ele><time>2025-05-24T20:20:44Z</time></trkpt>
<trkpt lat="50.741929" lon="3.317673"><ele>29.32</ele><time>2025-05-24T20:20:49Z</time></trkpt>
<trkpt lat="50.743373" lon="3.316143"><ele>34.0</ele><time>2025-05-24T20:20:53Z</time></trkpt>
<trkpt lat="50.743877" lon="3.31565"><ele>34.0</ele><time>2025-05-24T20:20:57Z</time></trkpt>
<trkpt lat="50.744271" lon="3.315301"><ele>34.43</ele><time>2025-05-24T20:21:01Z</time></trkpt>
<trkpt lat="50.745045" lon="3.314727"><ele>33.85</ele><time>2025-05-24T20:21:06Z</time></trkpt>
<trkpt lat="50.745778" lon="3.314314"><ele>31.53</ele><time>2025-05-24T20:21:10Z</time></trkpt>
<trkpt lat="50.746158" lon="3.314067"><ele>30.64</ele><time>2025-05-24T20:21:14Z</time></trkpt>
<trkpt lat="50.747279" lon="3.313145"><ele>33.32</ele><time>2025-05-24T20:21:19Z</time></trkpt>
<trkpt lat="50.747536" lon="3.312968"><ele>33.13</ele><time>2025-05-24T20:21:23Z</time></trkpt>
<trkpt lat="50.748137" lon="3.312619"><ele>34.99</ele><time>2025-05-24T20:21:27Z</time></trkpt>
<trkpt lat="50.748392" lon="3.312447"><ele>36.42</ele><time>2025-05-24T20:21:32Z</time></trkpt>
<trkpt lat="50.748439" lon="3.312349"><ele>36.76</ele><time>2025-05-24T20:21:36Z</time></trkpt>
<trkpt lat="50.748457" lon="3.312254"><ele>36.89</ele><time>2025-05-24T20:21:40Z</time></trkpt>
<trkpt lat="50.748435" lon="3.312118"><ele>36.97</ele><time>2025-05-24T20:21:45Z</time></trkpt>
<trkpt lat="50.748059" lon="3.311106"><ele>37.02</ele><time>2025-05-24T20:21:49Z</time></trkpt>
<trkpt lat="50.748012" lon="3.310913"><ele>37.6</ele><time>2025-05-24T20:21:53Z</time></trkpt>
<trkpt lat="50.748005" lon="3.31082"><ele>37.82</ele><time>2025-05-24T20:21:58Z</time></trkpt>
<trkpt lat="50.748027" lon="3.310681"><ele>37.9</ele><time>2025-05-24T20:22:02Z</time></trkpt>
<trkpt lat="50.748031" lon="3.310516"><ele>38.05</ele><time>2025-05-24T20:22:06Z</time></trkpt>
<trkpt lat="50.74797" lon="3.309525"><ele>40.69</ele><time>2025-05-24T20:22:11Z</time></trkpt>
<trkpt lat="50.747982" lon="3.309424"><ele>40.81</ele><time>2025-05-24T20:22:15Z</time></trkpt>
<trkpt lat="50.748008" lon="3.309368"><ele>41.1</ele><time>2025-05-24T20:22:19Z</time></trkpt>
<trkpt lat="50.748327" lon="3.309121"><ele>42.16</ele><time>2025-05-24T20:22:24Z</time></trkpt>
<trkpt lat="50.74999" lon="3.307901"><ele>49.59</ele><time>2025-05-24T20:22:28Z</time></trkpt>
<trkpt lat="50.751073" lon="3.307233"><ele>46.14</ele><time>2025-05-24T20:22:32Z</time></trkpt>
<trkpt lat="50.751218" lon="3.307122"><ele>44.01</ele><time>2025-05-24T20:22:37Z</time></trkpt>
<trkpt lat="50.751552" lon="3.306638"><ele>43.32</ele><time>2025-05-24T20:22:41Z</time></trkpt>
<trkpt lat="50.751673" lon="3.306499"><ele>44.58</ele><time>2025-05-24T20:22:45Z</time></trkpt>
<trkpt lat="50.752292" lon="3.30615"><ele>43.0</ele><time>2025-05-24T20:22:50Z</time></trkpt>
<trkpt lat="50.75278" lon="3.305763"><ele>43.0</ele><time>2025-05-24T20:22:54Z</time></trkpt>
<trkpt lat="50.753045" lon="3.305642"><ele>43.0</ele><time>2025-05-24T20:22:58Z</time></trkpt>
<trkpt lat="50.753625" lon="3.305452"><ele>42.62</ele><time>2025-05-24T20:23:03Z</time></trkpt>
<trkpt lat="50.75447" lon="3.304991"><ele>44.03</ele><time>2025-05-24T20:23:07Z</time></trkpt>
<trkpt lat="50.753262" lon="3.301144"><ele>40.26</ele><time>2025-05-24T20:23:57Z</time></trkpt>
<trkpt lat="50.753587" lon="3.301071"><ele>39.08</ele><time>2025-05-24T20:24:04Z</time></trkpt>
<trkpt lat="50.753992" lon="3.301049"><ele>36.48</ele><time>2025-05-24T20:24:11Z</time></trkpt>
<trkpt lat="50.754252" lon="3.301009"><ele>35.45</ele><time>2025-05-24T20:24:18Z</time></trkpt>
<trkpt lat="50.755166" lon="3.300694"><ele>36.0</ele><time>2025-05-24T20:24:25Z</time></trkpt>
<trkpt lat="50.755632" lon="3.300446"><ele>34.33</ele><time>2025-05-24T20:24:32Z</time></trkpt>
<trkpt lat="50.757845" lon="3.299736"><ele>27.77</ele><time>2025-05-24T20:24:39Z</time></trkpt>
<trkpt lat="50.758674" lon="3.299496"><ele>27.77</ele><time>2025-05-24T20:24:46Z</time></trkpt>
<trkpt lat="50.759153" lon="3.299387"><ele>25.84</ele><time>2025-05-24T20:24:53Z</time></trkpt>
<trkpt lat="50.759602" lon="3.299235"><ele>26.32</ele><time>2025-05-24T20:25:00Z</time></trkpt>
<trkpt lat="50.759982" lon="3.299036"><ele>27.93</ele><time>2025-05-24T20:25:07Z</time></trkpt>
<trkpt lat="50.760426" lon="3.298701"><ele>29.83</ele><time>2025-05-24T20:25:14Z</time></trkpt>
<trkpt lat="50.760877" lon="3.298322"><ele>30.31</ele><time>2025-05-24T20:25:21Z</time></trkpt>
<trkpt lat="50.762014" lon="3.297199"><ele>35.17</ele><time>2025-05-24T20:25:28Z</time></trkpt>
<trkpt lat="50.762141" lon="3.297021"><ele>34.98</ele><time>2025-05-24T20:25:35Z</time></trkpt>
<trkpt lat="50.762341" lon="3.296611"><ele>33.8</ele><time>2025-05-24T20:25:42Z</time></trkpt>
<trkpt lat="50.762728" lon="3.296035"><ele>33.55</ele><time>2025-05-24T20:25:49Z</time></trkpt>
<trkpt lat="50.763022" lon="3.295513"><ele>32.98</ele><time>2025-05-24T20:25:56Z</time></trkpt>
<trkpt lat="50.763083" lon="3.29529"><ele>33.0</ele><time>2025-05-24T20:26:03Z</time></trkpt>
<trkpt lat="50.763396" lon="3.294819"><ele>32.35</ele><time>2025-05-24T20:26:10Z</time></trkpt>
<trkpt lat="50.764184" lon="3.293696"><ele>31.06</ele><time>2025-05-24T20:26:17Z</time></trkpt>
<trkpt lat="50.764612" lon="3.29328"><ele>32.49</ele><time>2025-05-24T20:26:24Z</time></trkpt>
<trkpt lat="50.765696" lon="3.291481"><ele>26.83</ele><time>2025-05-24T20:26:31Z</time></trkpt>
<trkpt lat="50.766237" lon="3.290813"><ele>25.03</ele><time>2025-05-24T20:26:38Z</time></trkpt>
<trkpt lat="50.766731" lon="3.290142"><ele>27.77</ele><time>2025-05-24T20:26:46Z</time></trkpt>
<trkpt lat="50.766812" lon="3.289922"><ele>27.2</ele><time>2025-05-24T20:26:53Z</time></trkpt>
<trkpt lat="50.76696" lon="3.289406"><ele>26.08</ele><time>2025-05-24T20:27:00Z</time></trkpt>
<trkpt lat="50.76703" lon="3.289298"><ele>26.22</ele><time>2025-05-24T20:27:07Z</time></trkpt>
<trkpt lat="50.76804" lon="3.288381"><ele>29.94</ele><time>2025-05-24T20:27:14Z</time></trkpt>
<trkpt lat="50.76818" lon="3.288304"><ele>30.0</ele><time>2025-05-24T20:27:21Z</time></trkpt>
<trkpt lat="50.768284" lon="3.288503"><ele>30.0</ele><time>2025-05-24T20:27:26Z</time></trkpt>
<trkpt lat="50.76851" lon="3.289071"><ele>29.64</ele><time>2025-05-24T20:27:32Z</time></trkpt>
<trkpt lat="50.768724" lon="3.289544"><ele>31.22</ele><time>2025-05-24T20:27:38Z</time></trkpt>
<trkpt lat="50.768774" lon="3.289622"><ele>31.75</ele><time>2025-05-24T20:27:44Z</time></trkpt>
<trkpt lat="50.76923" lon="3.290141"><ele>33.46</ele><time>2025-05-24T20:27:50Z</time></trkpt>
<trkpt lat="50.769664" lon="3.290759"><ele>35.58</ele><time>2025-05-24T20:27:55Z</time></trkpt>
<trkpt lat="50.77008" lon="3.291129"><ele>35.98</ele><time>2025-05-24T20:28:01Z</time></trkpt>
<trkpt lat="50.770426" lon="3.290676"><ele>36.0</ele><time>2025-05-24T20:28:15Z</time></trkpt>
<trkpt lat="50.77054" lon="3.290551"><ele>35.98</ele><time>2025-05-24T20:28:30Z</time></trkpt>
<trkpt lat="50.771651" lon="3.289804"><ele>36.67</ele><time>2025-05-24T20:28:44Z</time></trkpt>
<trkpt lat="50.773599" lon="3.288624"><ele>49.0</ele><time>2025-05-24T20:28:58Z</time></trkpt>
<trkpt lat="50.774063" lon="3.288361"><ele>51.88</ele><time>2025-05-24T20:29:12Z</time></trkpt>
<trkpt lat="50.774111" lon="3.288517"><ele>52.4</ele><time>2025-05-24T20:29:24Z</time></trkpt>
<trkpt lat="50.774316" lon="3.288985"><ele>53.38</ele><time>2025-05-24T20:29:36Z</time></trkpt>
<trkpt lat="50.775382" lon="3.291068"><ele>51.0</ele><time>2025-05-24T20:29:49Z</time></trkpt>
<trkpt lat="50.775614" lon="3.291282"><ele>52.21</ele><time>2025-05-24T20:30:01Z</time></trkpt>
<trkpt lat="50.775888" lon="3.291458"><ele>53.15</ele><time>2025-05-24T20:30:13Z</time></trkpt>
<trkpt lat="50.775939" lon="3.291545"><ele>53.17</ele><time>2025-05-24T20:30:25Z</time></trkpt>
<trkpt lat="50.77638" lon="3.292754"><ele>52.94</ele><time>2025-05-24T20:30:37Z</time></trkpt>
<trkpt lat="50.777091" lon="3.292111"><ele>55.72</ele><time>2025-05-24T20:30:48Z</time></trkpt>
<trkpt lat="50.777475" lon="3.291849"><ele>56.0</ele><time>2025-05-24T20:31:00Z</time></trkpt>
<trkpt lat="50.777475" lon="3.291843"><ele>56.43</ele><time>2025-05-24T20:31:00Z</time></trkpt>
<trkpt lat="50.777475" lon="3.291843"><ele>56.43</ele><time>2025-05-24T20:31:00Z</time></trkpt>
<trkpt lat="50.777608" lon="3.289443"><ele>56.61</ele><time>2025-05-24T20:31:13Z</time></trkpt>
<trkpt lat="50.777645" lon="3.288462"><ele>57.0</ele><time>2025-05-24T20:31:26Z</time></trkpt>
<trkpt lat="50.777649" lon="3.28792"><ele>56.0</ele><time>2025-05-24T20:31:38Z</time></trkpt>
<trkpt lat="50.777401" lon="3.284003"><ele>61.21</ele><time>2025-05-24T20:31:51Z</time></trkpt>
<trkpt lat="50.777408" lon="3.28353"><ele>63.19</ele><time>2025-05-24T20:32:04Z</time></trkpt>
<trkpt lat="50.777707" lon="3.281534"><ele>67.27</ele><time>2025-05-24T20:32:17Z</time></trkpt>
<trkpt lat="50.777804" lon="3.280292"><ele>66.91</ele><time>2025-05-24T20:32:29Z</time></trkpt>
<trkpt lat="50.777821" lon="3.280023"><ele>66.7</ele><time>2025-05-24T20:32:42Z</time></trkpt>
<trkpt lat="50.777816" lon="3.27987"><ele>66.25</ele><time>2025-05-24T20:32:55Z</time></trkpt>
<trkpt lat="50.777771" lon="3.279549"><ele>65.37</ele><time>2025-05-24T20:33:08Z</time></trkpt>
<trkpt lat="50.777482" lon="3.27844"><ele>63.25</ele><time>2025-05-24T20:33:20Z</time></trkpt>
<trkpt lat="50.777403" lon="3.278177"><ele>61.17</ele><time>2025-05-24T20:33:33Z</time></trkpt>
<trkpt lat="50.777289" lon="3.277775"><ele>58.47</ele><time>2025-05-24T20:33:46Z</time></trkpt>
<trkpt lat="50.776731" lon="3.276108"><ele>55.21</ele><time>2025-05-24T20:33:59Z</time></trkpt>
<trkpt lat="50.776623" lon="3.275715"><ele>52.42</ele><time>2025-05-24T20:34:12Z</time></trkpt>
<trkpt lat="50.776571" lon="3.275323"><ele>49.43</ele><time>2025-05-24T20:34:24Z</time></trkpt>
<trkpt lat="50.776479" lon="3.272973"><ele>36.18</ele><time>2025-05-24T20:34:37Z</time></trkpt>
<trkpt lat="50.776192" lon="3.269151"><ele>39.35</ele><time>2025-05-24T20:34:50Z</time></trkpt>
<trkpt lat="50.775678" lon="3.262995"><ele>35.44</ele><time>2025-05-24T20:35:03Z</time></trkpt>
<trkpt lat="50.775591" lon="3.262521"><ele>36.17</ele><time>2025-05-24T20:35:15Z</time></trkpt>
<trkpt lat="50.775412" lon="3.261996"><ele>38.12</ele><time>2025-05-24T20:35:28Z</time></trkpt>
<trkpt lat="50.777429" lon="3.260879"><ele>44.14</ele><time>2025-05-24T20:35:50Z</time></trkpt>
<trkpt lat="50.777413" lon="3.260666"><ele>43.14</ele><time>2025-05-24T20:35:58Z</time></trkpt>
<trkpt lat="50.777636" lon="3.259323"><ele>43.05</ele><time>2025-05-24T20:36:06Z</time></trkpt>
<trkpt lat="50.777726" lon="3.258932"><ele>42.13</ele><time>2025-05-24T20:36:13Z</time></trkpt>
<trkpt lat="50.777861" lon="3.258497"><ele>39.48</ele><time>2025-05-24T20:36:21Z</time></trkpt>
<trkpt lat="50.778209" lon="3.257592"><ele>35.88</ele><time>2025-05-24T20:36:29Z</time></trkpt>
<trkpt lat="50.778293" lon="3.257422"><ele>35.82</ele><time>2025-05-24T20:36:36Z</time></trkpt>
<trkpt lat="50.778706" lon="3.256754"><ele>36.34</ele><time>2025-05-24T20:36:44Z</time></trkpt>
<trkpt lat="50.778764" lon="3.256626"><ele>36.4</ele><time>2025-05-24T20:36:52Z</time></trkpt>
<trkpt lat="50.779527" lon="3.2543"><ele>43.18</ele><time>2025-05-24T20:37:00Z</time></trkpt>
<trkpt lat="50.779685" lon="3.254357"><ele>43.22</ele><time>2025-05-24T20:37:04Z</time></trkpt>
<trkpt lat="50.779868" lon="3.254392"><ele>43.62</ele><time>2025-05-24T20:37:09Z</time></trkpt>
<trkpt lat="50.780048" lon="3.254388"><ele>44.0</ele><time>2025-05-24T20:37:14Z</time></trkpt>
<trkpt lat="50.78036" lon="3.254335"><ele>44.41</ele><time>2025-05-24T20:37:18Z</time></trkpt>
<trkpt lat="50.781078" lon="3.253864"><ele>47.09</ele><time>2025-05-24T20:37:23Z</time></trkpt>
<trkpt lat="50.781642" lon="3.253423"><ele>47.0</ele><time>2025-05-24T20:37:28Z</time></trkpt>
<trkpt lat="50.781906" lon="3.253118"><ele>47.78</ele><time>2025-05-24T20:37:33Z</time></trkpt>
<trkpt lat="50.782694" lon="3.252054"><ele>51.18</ele><time>2025-05-24T20:37:37Z</time></trkpt>
<trkpt lat="50.782843" lon="3.251882"><ele>51.0</ele><time>2025-05-24T20:37:42Z</time></trkpt>
<trkpt lat="50.78362" lon="3.251193"><ele>53.02</ele><time>2025-05-24T20:37:47Z</time></trkpt>
<trkpt lat="50.783803" lon="3.250981"><ele>54.16</ele><time>2025-05-24T20:37:51Z</time></trkpt>
<trkpt lat="50.783872" lon="3.25069"><ele>54.94</ele><time>2025-05-24T20:37:56Z</time></trkpt>
<trkpt lat="50.783985" lon="3.250333"><ele>55.35</ele><time>2025-05-24T20:38:01Z</time></trkpt>
<trkpt lat="50.784084" lon="3.250118"><ele>55.7</ele><time>2025-05-24T20:38:05Z</time></trkpt>
<trkpt lat="50.784607" lon="3.249291"><ele>58.23</ele><time>2025-05-24T20:38:10Z</time></trkpt>
<trkpt lat="50.7852" lon="3.24845"><ele>58.72</ele><time>2025-05-24T20:38:15Z</time></trkpt>
<trkpt lat="50.78535" lon="3.248075"><ele>58.07</ele><time>2025-05-24T20:38:20Z</time></trkpt>
<trkpt lat="50.785353" lon="3.248069"><ele>57.86</ele><time>2025-05-24T20:38:24Z</time></trkpt>
<trkpt lat="50.785353" lon="3.248069"><ele>57.86</ele><time>2025-05-24T20:38:24Z</time></trkpt>
<trkpt lat="50.78535" lon="3.248075"><ele>58.07</ele><time>2025-05-24T20:38:24Z</time></trkpt>
<trkpt lat="50.784922" lon="3.247849"><ele>57.0</ele><time>2025-05-24T20:38:32Z</time></trkpt>
<trkpt lat="50.784404" lon="3.24744"><ele>56.44</ele><time>2025-05-24T20:38:40Z</time></trkpt>
<trkpt lat="50.783913" lon="3.246914"><ele>57.8</ele><time>2025-05-24T20:38:48Z</time></trkpt>
<trkpt lat="50.783678" lon="3.24672"><ele>57.19</ele><time>2025-05-24T20:38:56Z</time></trkpt>
<trkpt lat="50.783328" lon="3.246472"><ele>56.29</ele><time>2025-05-24T20:39:04Z</time></trkpt>
<trkpt lat="50.78262" lon="3.246021"><ele>55.96</ele><time>2025-05-24T20:39:11Z</time></trkpt>
<trkpt lat="50.782394" lon="3.245839"><ele>54.25</ele><time>2025-05-24T20:39:19Z</time></trkpt>
<trkpt lat="50.781951" lon="3.245362"><ele>49.38</ele><time>2025-05-24T20:39:27Z</time></trkpt>
<trkpt lat="50.781207" lon="3.244567"><ele>48.66</ele><time>2025-05-24T20:39:35Z</time></trkpt>
<trkpt lat="50.780754" lon="3.244125"><ele>51.28</ele><time>2025-05-24T20:39:43Z</time></trkpt>
<trkpt lat="50.780243" lon="3.243863"><ele>52.09</ele><time>2025-05-24T20:39:51Z</time></trkpt>
<trkpt lat="50.779015" lon="3.243365"><ele>46.9</ele><time>2025-05-24T20:39:59Z</time></trkpt>
<trkpt lat="50.778229" lon="3.243318"><ele>45.7</ele><time>2025-05-24T20:40:06Z</time></trkpt>
<trkpt lat="50.777216" lon="3.243134"><ele>46.69</ele><time>2025-05-24T20:40:14Z</time></trkpt>
<trkpt lat="50.776545" lon="3.243175"><ele>46.62</ele><time>2025-05-24T20:40:22Z</time></trkpt>
<trkpt lat="50.775648" lon="3.24316"><ele>48.29</ele><time>2025-05-24T20:40:30Z</time></trkpt>
<trkpt lat="50.775225" lon="3.243028"><ele>48.81</ele><time>2025-05-24T20:40:38Z</time></trkpt>
<trkpt lat="50.774697" lon="3.242816"><ele>47.86</ele><time>2025-05-24T20:40:46Z</time></trkpt>
<trkpt lat="50.774745" lon="3.242644"><ele>48.48</ele><time>2025-05-24T20:40:58Z</time></trkpt>
<trkpt lat="50.774835" lon="3.242441"><ele>49.13</ele><time>2025-05-24T20:41:11Z</time></trkpt>
<trkpt lat="50.77491" lon="3.242043"><ele>49.76</ele><time>2025-05-24T20:41:23Z</time></trkpt>
<trkpt lat="50.776054" lon="3.237981"><ele>54.0</ele><time>2025-05-24T20:41:36Z</time></trkpt>
<trkpt lat="50.77759" lon="3.232422"><ele>47.68</ele><time>2025-05-24T20:41:48Z</time></trkpt>
<trkpt lat="50.777903" lon="3.231449"><ele>44.2</ele><time>2025-05-24T20:42:01Z</time></trkpt>
<trkpt lat="50.778306" lon="3.230425"><ele>41.58</ele><time>2025-05-24T20:42:13Z</time></trkpt>
<trkpt lat="50.778453" lon="3.230171"><ele>41.0</ele><time>2025-05-24T20:42:26Z</time></trkpt>
<trkpt lat="50.778363" lon="3.229982"><ele>40.93</ele><time>2025-05-24T20:42:32Z</time></trkpt>
<trkpt lat="50.778195" lon="3.229706"><ele>40.0</ele><time>2025-05-24T20:42:38Z</time></trkpt>
<trkpt lat="50.77775" lon="3.228683"><ele>41.62</ele><time>2025-05-24T20:42:44Z</time></trkpt>
<trkpt lat="50.777561" lon="3.228388"><ele>40.98</ele><time>2025-05-24T20:42:50Z</time></trkpt>
<trkpt lat="50.777169" lon="3.227906"><ele>39.27</ele><time>2025-05-24T20:42:56Z</time></trkpt>
<trkpt lat="50.777012" lon="3.227778"><ele>38.24</ele><time>2025-05-24T20:43:02Z</time></trkpt>
<trkpt lat="50.776866" lon="3.22769"><ele>37.68</ele><time>2025-05-24T20:43:08Z</time></trkpt>
<trkpt lat="50.776568" lon="3.227548"><ele>37.11</ele><time>2025-05-24T20:43:14Z</time></trkpt>
<trkpt lat="50.776319" lon="3.227493"><ele>37.25</ele><time>2025-05-24T20:43:20Z</time></trkpt>
<trkpt lat="50.775955" lon="3.227516"><ele>37.47</ele><time>2025-05-24T20:43:26Z</time></trkpt>
<trkpt lat="50.775381" lon="3.227598"><ele>36.4</ele><time>2025-05-24T20:43:32Z</time></trkpt>
<trkpt lat="50.775036" lon="3.227616"><ele>39.19</ele><time>2025-05-24T20:43:38Z</time></trkpt>
<trkpt lat="50.774744" lon="3.227585"><ele>42.73</ele><time>2025-05-24T20:43:44Z</time></trkpt>
<trkpt lat="50.774415" lon="3.227508"><ele>43.24</ele><time>2025-05-24T20:43:50Z</time></trkpt>
<trkpt lat="50.77382" lon="3.227313"><ele>46.25</ele><time>2025-05-24T20:43:56Z</time></trkpt>
<trkpt lat="50.772738" lon="3.226859"><ele>55.79</ele><time>2025-05-24T20:44:02Z</time></trkpt>
<trkpt lat="50.772381" lon="3.226681"><ele>59.06</ele><time>2025-05-24T20:44:08Z</time></trkpt>
<trkpt lat="50.77126" lon="3.22592"><ele>56.29</ele><time>2025-05-24T20:44:14Z</time></trkpt>
<trkpt lat="50.77074" lon="3.225674"><ele>54.0</ele><time>2025-05-24T20:44:20Z</time></trkpt>
<trkpt lat="50.769912" lon="3.225472"><ele>54.79</ele><time>2025-05-24T20:44:26Z</time></trkpt>
<trkpt lat="50.769722" lon="3.225456"><ele>55.0</ele><time>2025-05-24T20:44:33Z</time></trkpt>
<trkpt lat="50.769939" lon="3.224991"><ele>54.16</ele><time>2025-05-24T20:44:38Z</time></trkpt>
<trkpt lat="50.770093" lon="3.224705"><ele>51.6</ele><time>2025-05-24T20:44:43Z</time></trkpt>
<trkpt lat="50.770282" lon="3.224368"><ele>49.72</ele><time>2025-05-24T20:44:48Z</time></trkpt>
<trkpt lat="50.770427" lon="3.224168"><ele>49.0</ele><time>2025-05-24T20:44:53Z</time></trkpt>
<trkpt lat="50.770922" lon="3.22348"><ele>47.85</ele><time>2025-05-24T20:44:58Z</time></trkpt>
<trkpt lat="50.771074" lon="3.223184"><ele>45.98</ele><time>2025-05-24T20:45:03Z</time></trkpt>
<trkpt lat="50.77114" lon="3.222964"><ele>44.7</ele><time>2025-05-24T20:45:08Z</time></trkpt>
<trkpt lat="50.77117" lon="3.222795"><ele>44.26</ele><time>2025-05-24T20:45:14Z</time></trkpt>
<trkpt lat="50.771178" lon="3.222592"><ele>43.06</ele><time>2025-05-24T20:45:19Z</time></trkpt>
<trkpt lat="50.771168" lon="3.222393"><ele>42.02</ele><time>2025-05-24T20:45:24Z</time></trkpt>
<trkpt lat="50.771076" lon="3.221589"><ele>42.33</ele><time>2025-05-24T20:45:29Z</time></trkpt>
<trkpt lat="50.771072" lon="3.221393"><ele>42.85</ele><time>2025-05-24T20:45:34Z</time></trkpt>
<trkpt lat="50.771115" lon="3.221204"><ele>42.99</ele><time>2025-05-24T20:45:39Z</time></trkpt>
<trkpt lat="50.771162" lon="3.221122"><ele>42.82</ele><time>2025-05-24T20:45:44Z</time></trkpt>
<trkpt lat="50.771976" lon="3.220562"><ele>42.02</ele><time>2025-05-24T20:45:50Z</time></trkpt>
<trkpt lat="50.77242" lon="3.220136"><ele>41.65</ele><time>2025-05-24T20:45:55Z</time></trkpt>
<trkpt lat="50.771847" lon="3.218194"><ele>42.8</ele><time>2025-05-24T20:46:04Z</time></trkpt>
<trkpt lat="50.771572" lon="3.217208"><ele>39.91</ele><time>2025-05-24T20:46:13Z</time></trkpt>
<trkpt lat="50.771436" lon="3.21665"><ele>37.94</ele><time>2025-05-24T20:46:22Z</time></trkpt>
<trkpt lat="50.771" lon="3.216883"><ele>38.93</ele><time>2025-05-24T20:46:25Z</time></trkpt>
<trkpt lat="50.770458" lon="3.216999"><ele>37.65</ele><time>2025-05-24T20:46:28Z</time></trkpt>
<trkpt lat="50.770237" lon="3.217024"><ele>37.0</ele><time>2025-05-24T20:46:31Z</time></trkpt>
<trkpt lat="50.770037" lon="3.217022"><ele>37.0</ele><time>2025-05-24T20:46:33Z</time></trkpt>
<trkpt lat="50.769708" lon="3.21698"><ele>37.88</ele><time>2025-05-24T20:46:36Z</time></trkpt>
<trkpt lat="50.769571" lon="3.216994"><ele>38.01</ele><time>2025-05-24T20:46:39Z</time></trkpt>
<trkpt lat="50.769499" lon="3.217051"><ele>38.23</ele><time>2025-05-24T20:46:42Z</time></trkpt>
<trkpt lat="50.769225" lon="3.217399"><ele>38.21</ele><time>2025-05-24T20:46:44Z</time></trkpt>
<trkpt lat="50.769183" lon="3.217426"><ele>38.06</ele><time>2025-05-24T20:46:47Z</time></trkpt>
<trkpt lat="50.769111" lon="3.217425"><ele>37.8</ele><time>2025-05-24T20:46:50Z</time></trkpt>
<trkpt lat="50.769053" lon="3.217376"><ele>37.59</ele><time>2025-05-24T20:46:53Z</time></trkpt>
<trkpt lat="50.768841" lon="3.216926"><ele>35.59</ele><time>2025-05-24T20:46:55Z</time></trkpt>
<trkpt lat="50.768852" lon="3.216914"><ele>35.57</ele><time>2025-05-24T20:46:56Z</time></trkpt>
<trkpt lat="50.768852" lon="3.216914"><ele>35.57</ele><time>2025-05-24T20:46:56Z</time></trkpt>
<trkpt lat="50.768841" lon="3.216926"><ele>35.59</ele><time>2025-05-24T20:46:57Z</time></trkpt>
<trkpt lat="50.769053" lon="3.217376"><ele>37.59</ele><time>2025-05-24T20:47:00Z</time></trkpt>
<trkpt lat="50.769111" lon="3.217425"><ele>37.8</ele><time>2025-05-24T20:47:04Z</time></trkpt>
<trkpt lat="50.769183" lon="3.217426"><ele>38.06</ele><time>2025-05-24T20:47:08Z</time></trkpt>
<trkpt lat="50.769225" lon="3.217399"><ele>38.21</ele><time>2025-05-24T20:47:11Z</time></trkpt>
<trkpt lat="50.769499" lon="3.217051"><ele>38.23</ele><time>2025-05-24T20:47:15Z</time></trkpt>
<trkpt lat="50.769571" lon="3.216994"><ele>38.01</ele><time>2025-05-24T20:47:19Z</time></trkpt>
<trkpt lat="50.769708" lon="3.21698"><ele>37.88</ele><time>2025-05-24T20:47:22Z</time></trkpt>
<trkpt lat="50.770037" lon="3.217022"><ele>37.0</ele><time>2025-05-24T20:47:26Z</time></trkpt>
<trkpt lat="50.770237" lon="3.217024"><ele>37.0</ele><time>2025-05-24T20:47:30Z</time></trkpt>
<trkpt lat="50.770458" lon="3.216999"><ele>37.65</ele><time>2025-05-24T20:47:33Z</time></trkpt>
<trkpt lat="50.771" lon="3.216883"><ele>38.93</ele><time>2025-05-24T20:47:37Z</time></trkpt>
<trkpt lat="50.771436" lon="3.21665"><ele>37.94</ele><time>2025-05-24T20:47:40Z</time></trkpt>
<trkpt lat="50.772487" lon="3.216031"><ele>38.95</ele><time>2025-05-24T20:47:44Z</time></trkpt>
<trkpt lat="50.77279" lon="3.215829"><ele>39.04</ele><time>2025-05-24T20:47:48Z</time></trkpt>
<trkpt lat="50.773212" lon="3.215486"><ele>39.31</ele><time>2025-05-24T20:47:51Z</time></trkpt>
<trkpt lat="50.77396" lon="3.214752"><ele>42.13</ele><time>2025-05-24T20:47:55Z</time></trkpt>
<trkpt lat="50.774555" lon="3.214249"><ele>38.69</ele><time>2025-05-24T20:47:59Z</time></trkpt>
<trkpt lat="50.774653" lon="3.214126"><ele>38.71</ele><time>2025-05-24T20:48:02Z</time></trkpt>
<trkpt lat="50.774715" lon="3.213991"><ele>38.96</ele><time>2025-05-24T20:48:06Z</time></trkpt>
<trkpt lat="50.774799" lon="3.213736"><ele>38.05</ele><time>2025-05-24T20:48:10Z</time></trkpt>
<trkpt lat="50.774865" lon="3.213428"><ele>37.19</ele><time>2025-05-24T20:48:13Z</time></trkpt>
<trkpt lat="50.774887" lon="3.213252"><ele>37.18</ele><time>2025-05-24T20:48:17Z</time></trkpt>
<trkpt lat="50.774894" lon="3.212795"><ele>37.23</ele><time>2025-05-24T20:48:21Z</time></trkpt>
<trkpt lat="50.774876" lon="3.212604"><ele>36.48</ele><time>2025-05-24T20:48:24Z</time></trkpt>
<trkpt lat="50.774858" lon="3.212537"><ele>36.11</ele><time>2025-05-24T20:48:28Z</time></trkpt>
<trkpt lat="50.774737" lon="3.212429"><ele>34.86</ele><time>2025-05-24T20:48:32Z</time></trkpt>
<trkpt lat="50.774011" lon="3.211628"><ele>33.0</ele><time>2025-05-24T20:48:35Z</time></trkpt>
<trkpt lat="50.774785" lon="3.210674"><ele>36.23</ele><time>2025-05-24T20:48:44Z</time></trkpt>
<trkpt lat="50.775249" lon="3.210299"><ele>36.01</ele><time>2025-05-24T20:48:53Z</time></trkpt>
<trkpt lat="50.776094" lon="3.209774"><ele>39.24</ele><time>2025-05-24T20:49:02Z</time></trkpt>
<trkpt lat="50.776764" lon="3.209418"><ele>37.84</ele><time>2025-05-24T20:49:10Z</time></trkpt>
<trkpt lat="50.777021" lon="3.209259"><ele>37.51</ele><time>2025-05-24T20:49:19Z</time></trkpt>
<trkpt lat="50.777628" lon="3.208762"><ele>35.75</ele><time>2025-05-24T20:49:28Z</time></trkpt>
<trkpt lat="50.778693" lon="3.207622"><ele>40.01</ele><time>2025-05-24T20:49:37Z</time></trkpt>
<trkpt lat="50.779047" lon="3.207355"><ele>42.57</ele><time>2025-05-24T20:49:46Z</time></trkpt>
<trkpt lat="50.779242" lon="3.207278"><ele>43.05</ele><time>2025-05-24T20:49:54Z</time></trkpt>
<trkpt lat="50.779672" lon="3.207262"><ele>43.96</ele><time>2025-05-24T20:50:03Z</time></trkpt>
<trkpt lat="50.780313" lon="3.207306"><ele>44.39</ele><time>2025-05-24T20:50:12Z</time></trkpt>
<trkpt lat="50.780776" lon="3.20723"><ele>44.21</ele><time>2025-05-24T20:50:21Z</time></trkpt>
<trkpt lat="50.781193" lon="3.206983"><ele>43.94</ele><time>2025-05-24T20:50:30Z</time></trkpt>
<trkpt lat="50.781347" lon="3.206812"><ele>43.08</ele><time>2025-05-24T20:50:38Z</time></trkpt>
<trkpt lat="50.781565" lon="3.206472"><ele>40.84</ele><time>2025-05-24T20:50:47Z</time></trkpt>
<trkpt lat="50.782251" lon="3.204812"><ele>35.49</ele><time>2025-05-24T20:50:56Z</time></trkpt>
<trkpt lat="50.782283" lon="3.204728"><ele>35.45</ele><time>2025-05-24T20:51:05Z</time></trkpt>
<trkpt lat="50.782543" lon="3.204726"><ele>37.15</ele><time>2025-05-24T20:51:11Z</time></trkpt>
<trkpt lat="50.783233" lon="3.204694"><ele>36.08</ele><time>2025-05-24T20:51:17Z</time></trkpt>
<trkpt lat="50.783581" lon="3.204707"><ele>34.16</ele><time>2025-05-24T20:51:23Z</time></trkpt>
<trkpt lat="50.783795" lon="3.204683"><ele>34.14</ele><time>2025-05-24T20:51:30Z</time></trkpt>
<trkpt lat="50.785286" lon="3.203881"><ele>31.94</ele><time>2025-05-24T20:51:36Z</time></trkpt>
<trkpt lat="50.785385" lon="3.203867"><ele>31.23</ele><time>2025-05-24T20:51:42Z</time></trkpt>
<trkpt lat="50.785713" lon="3.203895"><ele>30.57</ele><time>2025-05-24T20:51:48Z</time></trkpt>
<trkpt lat="50.786084" lon="3.203868"><ele>31.83</ele><time>2025-05-24T20:51:54Z</time></trkpt>
<trkpt lat="50.786339" lon="3.203697"><ele>32.95</ele><time>2025-05-24T20:52:01Z</time></trkpt>
<trkpt lat="50.786996" lon="3.203176"><ele>33.92</ele><time>2025-05-24T20:52:07Z</time></trkpt>
<trkpt lat="50.787283" lon="3.202889"><ele>34.0</ele><time>2025-05-24T20:52:13Z</time></trkpt>
<trkpt lat="50.787598" lon="3.202508"><ele>33.38</ele><time>2025-05-24T20:52:19Z</time></trkpt>
<trkpt lat="50.787659" lon="3.202502"><ele>33.58</ele><time>2025-05-24T20:52:25Z</time></trkpt>
<trkpt lat="50.789354" lon="3.202876"><ele>33.79</ele><time>2025-05-24T20:52:32Z</time></trkpt>
<trkpt lat="50.789432" lon="3.202362"><ele>33.0</ele><time>2025-05-24T20:52:41Z</time></trkpt>
<trkpt lat="50.789543" lon="3.201552"><ele>34.79</ele><time>2025-05-24T20:52:51Z</time></trkpt>
<trkpt lat="50.789597" lon="3.2013"><ele>35.0</ele><time>2025-05-24T20:53:01Z</time></trkpt>
<trkpt lat="50.789705" lon="3.201033"><ele>34.72</ele><time>2025-05-24T20:53:11Z</time></trkpt>
<trkpt lat="50.789911" lon="3.200778"><ele>32.44</ele><time>2025-05-24T20:53:21Z</time></trkpt>
<trkpt lat="50.791666" lon="3.199391"><ele>22.2</ele><time>2025-05-24T20:53:30Z</time></trkpt>
<trkpt lat="50.79303" lon="3.198502"><ele>24.3</ele><time>2025-05-24T20:53:40Z</time></trkpt>
<trkpt lat="50.793858" lon="3.19791"><ele>25.0</ele><time>2025-05-24T20:53:50Z</time></trkpt>
<trkpt lat="50.794705" lon="3.197364"><ele>23.52</ele><time>2025-05-24T20:54:00Z</time></trkpt>
<trkpt lat="50.795475" lon="3.197078"><ele>20.92</ele><time>2025-05-24T20:54:10Z</time></trkpt>
<trkpt lat="50.796011" lon="3.196959"><ele>21.0</ele><time>2025-05-24T20:54:20Z</time></trkpt>
<trkpt lat="50.79623" lon="3.196983"><ele>20.51</ele><time>2025-05-24T20:54:29Z</time></trkpt>
<trkpt lat="50.796924" lon="3.197131"><ele>18.65</ele><time>2025-05-24T20:54:39Z</time></trkpt>
<trkpt lat="50.797037" lon="3.197198"><ele>18.89</ele><time>2025-05-24T20:54:49Z</time></trkpt>
<trkpt lat="50.797232" lon="3.197172"><ele>18.61</ele><time>2025-05-24T20:54:59Z</time></trkpt>
<trkpt lat="50.797688" lon="3.197271"><ele>17.32</ele><time>2025-05-24T20:55:09Z</time></trkpt>
<trkpt lat="50.798141" lon="3.19748"><ele>17.0</ele><time>2025-05-24T20:55:19Z</time></trkpt>
<trkpt lat="50.798263" lon="3.197501"><ele>17.0</ele><time>2025-05-24T20:55:28Z</time></trkpt>
<trkpt lat="50.799756" lon="3.197109"><ele>16.17</ele><time>2025-05-24T20:55:38Z</time></trkpt>
<trkpt lat="50.800091" lon="3.197077"><ele>17.52</ele><time>2025-05-24T20:55:48Z</time></trkpt>
<trkpt lat="50.800317" lon="3.197084"><ele>17.36</ele><time>2025-05-24T20:55:58Z</time></trkpt>
<trkpt lat="50.800866" lon="3.197212"><ele>14.73</ele><time>2025-05-24T20:56:08Z</time></trkpt>
<trkpt lat="50.800896" lon="3.196984"><ele>13.69</ele><time>2025-05-24T20:56:18Z</time></trkpt>
<trkpt lat="50.80089" lon="3.196872"><ele>13.59</ele><time>2025-05-24T20:56:27Z</time></trkpt>
<trkpt lat="50.800937" lon="3.196414"><ele>14.16</ele><time>2025-05-24T20:56:37Z</time></trkpt>
<trkpt lat="50.80096" lon="3.195962"><ele>14.09</ele><time>2025-05-24T20:56:47Z</time></trkpt>
<trkpt lat="50.800957" lon="3.195482"><ele>13.85</ele><time>2025-05-24T20:56:57Z</time></trkpt>
<trkpt lat="50.800869" lon="3.194332"><ele>13.27</ele><time>2025-05-24T20:57:07Z</time></trkpt>
<trkpt lat="50.800753" lon="3.193365"><ele>14.0</ele><time>2025-05-24T20:57:17Z</time></trkpt>
<trkpt lat="50.8005" lon="3.191649"><ele>14.2</ele><time>2025-05-24T20:57:26Z</time></trkpt>
<trkpt lat="50.800253" lon="3.189807"><ele>16.0</ele><time>2025-05-24T20:57:36Z</time></trkpt>
<trkpt lat="50.800276" lon="3.188907"><ele>15.0</ele><time>2025-05-24T20:57:46Z</time></trkpt>
<trkpt lat="50.800567" lon="3.188953"><ele>12.84</ele><time>2025-05-24T20:58:12Z</time></trkpt>
<trkpt lat="50.801147" lon="3.188804"><ele>9.7</ele><time>2025-05-24T20:58:39Z</time></trkpt>
<trkpt lat="50.802609" lon="3.188419"><ele>13.63</ele><time>2025-05-24T20:59:05Z</time></trkpt>
<trkpt lat="50.803299" lon="3.188101"><ele>12.04</ele><time>2025-05-24T20:59:31Z</time></trkpt>
<trkpt lat="50.808177" lon="3.185622"><ele>15.44</ele><time>2025-05-24T20:59:57Z</time></trkpt>
<trkpt lat="50.808539" lon="3.185343"><ele>17.5</ele><time>2025-05-24T21:00:24Z</time></trkpt>
<trkpt lat="50.809138" lon="3.184754"><ele>20.01</ele><time>2025-05-24T21:00:50Z</time></trkpt>
<trkpt lat="50.808893" lon="3.184155"><ele>19.01</ele><time>2025-05-24T21:00:58Z</time></trkpt>
<trkpt lat="50.808813" lon="3.183732"><ele>18.85</ele><time>2025-05-24T21:01:07Z</time></trkpt>
<trkpt lat="50.809168" lon="3.183605"><ele>19.0</ele><time>2025-05-24T21:01:14Z</time></trkpt>
<trkpt lat="50.809324" lon="3.183489"><ele>18.75</ele><time>2025-05-24T21:01:22Z</time></trkpt>
<trkpt lat="50.809628" lon="3.183149"><ele>18.0</ele><time>2025-05-24T21:01:29Z</time></trkpt>
<trkpt lat="50.809759" lon="3.182971"><ele>18.04</ele><time>2025-05-24T21:01:36Z</time></trkpt>
<trkpt lat="50.809859" lon="3.182778"><ele>18.49</ele><time>2025-05-24T21:01:44Z</time></trkpt>
<trkpt lat="50.810001" lon="3.182357"><ele>20.0</ele><time>2025-05-24T21:01:51Z</time></trkpt>
<trkpt lat="50.810019" lon="3.182296"><ele>19.98</ele><time>2025-05-24T21:01:59Z</time></trkpt>
<trkpt lat="50.810132" lon="3.182076"><ele>19.48</ele><time>2025-05-24T21:02:06Z</time></trkpt>
<trkpt lat="50.810486" lon="3.181568"><ele>17.89</ele><time>2025-05-24T21:02:13Z</time></trkpt>
<trkpt lat="50.810573" lon="3.18145"><ele>17.21</ele><time>2025-05-24T21:02:21Z</time></trkpt>
<trkpt lat="50.810687" lon="3.181313"><ele>16.85</ele><time>2025-05-24T21:02:28Z</time></trkpt>
<trkpt lat="50.810916" lon="3.181043"><ele>17.37</ele><time>2025-05-24T21:02:36Z</time></trkpt>
<trkpt lat="50.811082" lon="3.180923"><ele>18.5</ele><time>2025-05-24T21:02:43Z</time></trkpt>
<trkpt lat="50.812725" lon="3.180219"><ele>17.62</ele><time>2025-05-24T21:02:50Z</time></trkpt>
<trkpt lat="50.812942" lon="3.180158"><ele>18.59</ele><time>2025-05-24T21:02:58Z</time></trkpt>
<trkpt lat="50.813165" lon="3.180164"><ele>18.61</ele><time>2025-05-24T21:03:05Z</time></trkpt>
<trkpt lat="50.813833" lon="3.180358"><ele>18.71</ele><time>2025-05-24T21:03:13Z</time></trkpt>
<trkpt lat="50.81396" lon="3.180356"><ele>18.97</ele><time>2025-05-24T21:03:20Z</time></trkpt>
<trkpt lat="50.814513" lon="3.180108"><ele>18.75</ele><time>2025-05-24T21:03:27Z</time></trkpt>
<trkpt lat="50.816942" lon="3.178881"><ele>18.97</ele><time>2025-05-24T21:03:35Z</time></trkpt>
<trkpt lat="50.818028" lon="3.178218"><ele>18.32</ele><time>2025-05-24T21:03:42Z</time></trkpt>
<trkpt lat="50.818039" lon="3.178096"><ele>18.79</ele><time>2025-05-24T21:03:51Z</time></trkpt>
<trkpt lat="50.818127" lon="3.177775"><ele>18.75</ele><time>2025-05-24T21:04:00Z</time></trkpt>
<trkpt lat="50.818277" lon="3.177313"><ele>19.0</ele><time>2025-05-24T21:04:08Z</time></trkpt>
<trkpt lat="50.818607" lon="3.174868"><ele>17.52</ele><time>2025-05-24T21:04:17Z</time></trkpt>
<trkpt lat="50.818716" lon="3.173887"><ele>17.62</ele><time>2025-05-24T21:04:26Z</time></trkpt>
<trkpt lat="50.8189" lon="3.17222"><ele>16.97</ele><time>2025-05-24T21:04:35Z</time></trkpt>
<trkpt lat="50.819144" lon="3.171001"><ele>18.36</ele><time>2025-05-24T21:04:43Z</time></trkpt>
<trkpt lat="50.819191" lon="3.170655"><ele>18.91</ele><time>2025-05-24T21:04:52Z</time></trkpt>
<trkpt lat="50.819217" lon="3.169873"><ele>18.82</ele><time>2025-05-24T21:05:01Z</time></trkpt>
<trkpt lat="50.819268" lon="3.16902"><ele>17.64</ele><time>2025-05-24T21:05:09Z</time></trkpt>
<trkpt lat="50.819293" lon="3.166231"><ele>17.45</ele><time>2025-05-24T21:05:18Z</time></trkpt>
<trkpt lat="50.81925" lon="3.165948"><ele>17.71</ele><time>2025-05-24T21:05:27Z</time></trkpt>
<trkpt lat="50.819165" lon="3.165621"><ele>18.0</ele><time>2025-05-24T21:05:36Z</time></trkpt>
<trkpt lat="50.819138" lon="3.165457"><ele>17.64</ele><time>2025-05-24T21:05:44Z</time></trkpt>
<trkpt lat="50.819097" lon="3.165333"><ele>17.2</ele><time>2025-05-24T21:05:53Z</time></trkpt>
<trkpt lat="50.819749" lon="3.164648"><ele>18.24</ele><time>2025-05-24T21:06:00Z</time></trkpt>
<trkpt lat="50.820192" lon="3.164228"><ele>17.64</ele><time>2025-05-24T21:06:07Z</time></trkpt>
<trkpt lat="50.821346" lon="3.163533"><ele>16.84</ele><time>2025-05-24T21:06:14Z</time></trkpt>
<trkpt lat="50.821592" lon="3.163295"><ele>16.23</ele><time>2025-05-24T21:06:22Z</time></trkpt>
<trkpt lat="50.821938" lon="3.162905"><ele>16.98</ele><time>2025-05-24T21:06:29Z</time></trkpt>
<trkpt lat="50.822141" lon="3.162722"><ele>16.94</ele><time>2025-05-24T21:06:36Z</time></trkpt>
<trkpt lat="50.822297" lon="3.16264"><ele>17.14</ele><time>2025-05-24T21:06:43Z</time></trkpt>
<trkpt lat="50.822794" lon="3.162476"><ele>16.94</ele><time>2025-05-24T21:06:50Z</time></trkpt>
<trkpt lat="50.823838" lon="3.161885"><ele>16.86</ele><time>2025-05-24T21:06:57Z</time></trkpt>
<trkpt lat="50.824172" lon="3.161685"><ele>16.07</ele><time>2025-05-24T21:07:04Z</time></trkpt>
<trkpt lat="50.82445" lon="3.161519"><ele>14.9</ele><time>2025-05-24T21:07:11Z</time></trkpt>
<trkpt lat="50.824404" lon="3.161381"><ele>14.12</ele><time>2025-05-24T21:07:14Z</time></trkpt>
<trkpt lat="50.824134" lon="3.160909"><ele>16.11</ele><time>2025-05-24T21:07:16Z</time></trkpt>
<trkpt lat="50.824115" lon="3.160808"><ele>16.55</ele><time>2025-05-24T21:07:19Z</time></trkpt>
<trkpt lat="50.824103" lon="3.16069"><ele>16.69</ele><time>2025-05-24T21:07:26Z</time></trkpt>
<trkpt lat="50.824186" lon="3.159248"><ele>14.97</ele><time>2025-05-24T21:07:34Z</time></trkpt>
<trkpt lat="50.824175" lon="3.159028"><ele>14.95</ele><time>2025-05-24T21:07:42Z</time></trkpt>
<trkpt lat="50.823889" lon="3.156774"><ele>17.61</ele><time>2025-05-24T21:07:49Z</time></trkpt>
<trkpt lat="50.823751" lon="3.155952"><ele>19.78</ele><time>2025-05-24T21:07:57Z</time></trkpt>
<trkpt lat="50.823635" lon="3.155446"><ele>19.21</ele><time>2025-05-24T21:08:04Z</time></trkpt>
<trkpt lat="50.824548" lon="3.154775"><ele>16.0</ele><time>2025-05-24T21:08:12Z</time></trkpt>
<trkpt lat="50.824889" lon="3.154453"><ele>16.6</ele><time>2025-05-24T21:08:19Z</time></trkpt>
<trkpt lat="50.825774" lon="3.153374"><ele>16.21</ele><time>2025-05-24T21:08:27Z</time></trkpt>
<trkpt lat="50.826236" lon="3.152937"><ele>15.45</ele><time>2025-05-24T21:08:35Z</time></trkpt>
<trkpt lat="50.827543" lon="3.151825"><ele>17.84</ele><time>2025-05-24T21:08:42Z</time></trkpt>
<trkpt lat="50.82846" lon="3.150932"><ele>19.03</ele><time>2025-05-24T21:08:50Z</time></trkpt>
<trkpt lat="50.82938" lon="3.150069"><ele>19.0</ele><time>2025-05-24T21:08:57Z</time></trkpt>
<trkpt lat="50.829454" lon="3.149967"><ele>18.92</ele><time>2025-05-24T21:09:05Z</time></trkpt>
<trkpt lat="50.829551" lon="3.149773"><ele>18.57</ele><time>2025-05-24T21:09:12Z</time></trkpt>
<trkpt lat="50.830086" lon="3.148403"><ele>18.0</ele><time>2025-05-24T21:09:20Z</time></trkpt>
<trkpt lat="50.830147" lon="3.148315"><ele>18.03</ele><time>2025-05-24T21:09:27Z</time></trkpt>
<trkpt lat="50.830429" lon="3.148081"><ele>18.91</ele><time>2025-05-24T21:09:35Z</time></trkpt>
<trkpt lat="50.830901" lon="3.147781"><ele>16.51</ele><time>2025-05-24T21:09:43Z</time></trkpt>
<trkpt lat="50.831485" lon="3.147391"><ele>17.08</ele><time>2025-05-24T21:09:50Z</time></trkpt>
<trkpt lat="50.832165" lon="3.146975"><ele>19.21</ele><time>2025-05-24T21:09:58Z</time></trkpt>
<trkpt lat="50.832439" lon="3.146762"><ele>17.44</ele><time>2025-05-24T21:10:05Z</time></trkpt>
<trkpt lat="50.832884" lon="3.146276"><ele>17.0</ele><time>2025-05-24T21:10:13Z</time></trkpt>
<trkpt lat="50.833049" lon="3.146141"><ele>17.0</ele><time>2025-05-24T21:10:20Z</time></trkpt>
<trkpt lat="50.83357" lon="3.145854"><ele>18.0</ele><time>2025-05-24T21:10:28Z</time></trkpt>
<trkpt lat="50.833924" lon="3.145692"><ele>17.87</ele><time>2025-05-24T21:10:35Z</time></trkpt>
<trkpt lat="50.836169" lon="3.144988"><ele>15.97</ele><time>2025-05-24T21:10:43Z</time></trkpt>
<trkpt lat="50.837171" lon="3.144565"><ele>18.92</ele><time>2025-05-24T21:10:51Z</time></trkpt>
<trkpt lat="50.837732" lon="3.144367"><ele>17.22</ele><time>2025-05-24T21:10:58Z</time></trkpt>
<trkpt lat="50.837732" lon="3.144367"><ele>17.22</ele><time>2025-05-24T21:10:58Z</time></trkpt>
<trkpt lat="50.837729" lon="3.144369"><ele>17.45</ele><time>2025-05-24T21:10:58Z</time></trkpt>
<trkpt lat="50.837647" lon="3.143718"><ele>19.27</ele><time>2025-05-24T21:11:01Z</time></trkpt>
<trkpt lat="50.837529" lon="3.143069"><ele>18.94</ele><time>2025-05-24T21:11:04Z</time></trkpt>
<trkpt lat="50.836939" lon="3.140481"><ele>18.71</ele><time>2025-05-24T21:11:07Z</time></trkpt>
<trkpt lat="50.836557" lon="3.138543"><ele>17.39</ele><time>2025-05-24T21:11:10Z</time></trkpt>
<trkpt lat="50.836324" lon="3.13755"><ele>18.64</ele><time>2025-05-24T21:11:12Z</time></trkpt>
<trkpt lat="50.836226" lon="3.137282"><ele>18.72</ele><time>2025-05-24T21:11:15Z</time></trkpt>
<trkpt lat="50.835979" lon="3.136869"><ele>18.0</ele><time>2025-05-24T21:11:18Z</time></trkpt>
<trkpt lat="50.835849" lon="3.136556"><ele>18.0</ele><time>2025-05-24T21:11:21Z</time></trkpt>
<trkpt lat="50.835725" lon="3.135905"><ele>18.84</ele><time>2025-05-24T21:11:24Z</time></trkpt>
<trkpt lat="50.835599" lon="3.135392"><ele>18.5</ele><time>2025-05-24T21:11:27Z</time></trkpt>
<trkpt lat="50.835572" lon="3.135215"><ele>18.06</ele><time>2025-05-24T21:11:29Z</time></trkpt>
<trkpt lat="50.835607" lon="3.134346"><ele>18.12</ele><time>2025-05-24T21:11:32Z</time></trkpt>
<trkpt lat="50.835599" lon="3.134085"><ele>18.0</ele><time>2025-05-24T21:11:35Z</time></trkpt>
<trkpt lat="50.835552" lon="3.133597"><ele>18.02</ele><time>2025-05-24T21:11:38Z</time></trkpt>
<trkpt lat="50.835566" lon="3.133438"><ele>18.0</ele><time>2025-05-24T21:11:41Z</time></trkpt>
<trkpt lat="50.835691" lon="3.132669"><ele>18.51</ele><time>2025-05-24T21:11:44Z</time></trkpt>
<trkpt lat="50.835694" lon="3.132473"><ele>18.5</ele><time>2025-05-24T21:11:46Z</time></trkpt>
<trkpt lat="50.835651" lon="3.131624"><ele>19.5</ele><time>2025-05-24T21:11:49Z</time></trkpt>
<trkpt lat="50.835657" lon="3.131292"><ele>20.71</ele><time>2025-05-24T21:11:52Z</time></trkpt>
<trkpt lat="50.835737" lon="3.129829"><ele>21.38</ele><time>2025-05-24T21:11:55Z</time></trkpt>
<trkpt lat="50.835804" lon="3.129099"><ele>22.0</ele><time>2025-05-24T21:11:58Z</time></trkpt>
<trkpt lat="50.835891" lon="3.128471"><ele>22.0</ele><time>2025-05-24T21:12:01Z</time></trkpt>
<trkpt lat="50.836068" lon="3.127377"><ele>21.16</ele><time>2025-05-24T21:12:03Z</time></trkpt>
<trkpt lat="50.836196" lon="3.126342"><ele>21.69</ele><time>2025-05-24T21:12:06Z</time></trkpt>
<trkpt lat="50.83645" lon="3.12504"><ele>19.97</ele><time>2025-05-24T21:12:09Z</time></trkpt>
<trkpt lat="50.8365" lon="3.124707"><ele>21.06</ele><time>2025-05-24T21:12:12Z</time></trkpt>
<trkpt lat="50.836601" lon="3.12366"><ele>23.0</ele><time>2025-05-24T21:12:15Z</time></trkpt>
<trkpt lat="50.836624" lon="3.123191"><ele>22.56</ele><time>2025-05-24T21:12:18Z</time></trkpt>
<trkpt lat="50.836654" lon="3.122147"><ele>22.99</ele><time>2025-05-24T21:12:20Z</time></trkpt>
<trkpt lat="50.836744" lon="3.121486"><ele>23.37</ele><time>2025-05-24T21:12:23Z</time></trkpt>
<trkpt lat="50.836713" lon="3.121057"><ele>23.99</ele><time>2025-05-24T21:12:26Z</time></trkpt>
<trkpt lat="50.836653" lon="3.120694"><ele>25.08</ele><time>2025-05-24T21:12:29Z</time></trkpt>
<trkpt lat="50.836631" lon="3.120466"><ele>24.94</ele><time>2025-05-24T21:12:32Z</time></trkpt>
<trkpt lat="50.836638" lon="3.120258"><ele>24.2</ele><time>2025-05-24T21:12:35Z</time></trkpt>
<trkpt lat="50.836671" lon="3.12013"><ele>23.97</ele><time>2025-05-24T21:12:37Z</time></trkpt>
<trkpt lat="50.836941" lon="3.119398"><ele>23.17</ele><time>2025-05-24T21:12:40Z</time></trkpt>
<trkpt lat="50.837004" lon="3.119136"><ele>23.87</ele><time>2025-05-24T21:12:43Z</time></trkpt>
<trkpt lat="50.837299" lon="3.117488"><ele>24.68</ele><time>2025-05-24T21:12:46Z</time></trkpt>
<trkpt lat="50.837328" lon="3.117211"><ele>23.62</ele><time>2025-05-24T21:12:49Z</time></trkpt>
<trkpt lat="50.837339" lon="3.116868"><ele>23.58</ele><time>2025-05-24T21:12:52Z</time></trkpt>
<trkpt lat="50.837175" lon="3.11534"><ele>26.17</ele><time>2025-05-24T21:12:54Z</time></trkpt>
<trkpt lat="50.836958" lon="3.113767"><ele>33.39</ele><time>2025-05-24T21:12:57Z</time></trkpt>
<trkpt lat="50.836774" lon="3.113108"><ele>36.11</ele><time>2025-05-24T21:13:00Z</time></trkpt>
<trkpt lat="50.836744" lon="3.112862"><ele>36.44</ele><time>2025-05-24T21:13:03Z</time></trkpt>
<trkpt lat="50.83666" lon="3.111619"><ele>35.88</ele><time>2025-05-24T21:13:06Z</time></trkpt>
<trkpt lat="50.836655" lon="3.111384"><ele>35.08</ele><time>2025-05-24T21:13:09Z</time></trkpt>
<trkpt lat="50.836674" lon="3.111102"><ele>34.94</ele><time>2025-05-24T21:13:11Z</time></trkpt>
<trkpt lat="50.83699" lon="3.108901"><ele>33.16</ele><time>2025-05-24T21:13:14Z</time></trkpt>
<trkpt lat="50.837151" lon="3.107674"><ele>35.6</ele><time>2025-05-24T21:13:17Z</time></trkpt>
<trkpt lat="50.837193" lon="3.10747"><ele>36.69</ele><time>2025-05-24T21:13:20Z</time></trkpt>
<trkpt lat="50.837502" lon="3.106642"><ele>36.89</ele><time>2025-05-24T21:13:23Z</time></trkpt>
<trkpt lat="50.837537" lon="3.106508"><ele>36.18</ele><time>2025-05-24T21:13:26Z</time></trkpt>
<trkpt lat="50.837638" lon="3.105389"><ele>34.4</ele><time>2025-05-24T21:13:28Z</time></trkpt>
<trkpt lat="50.837679" lon="3.103996"><ele>33.0</ele><time>2025-05-24T21:13:31Z</time></trkpt>
<trkpt lat="50.837716" lon="3.1037"><ele>32.32</ele><time>2025-05-24T21:13:34Z</time></trkpt>
<trkpt lat="50.838094" lon="3.102445"><ele>33.0</ele><time>2025-05-24T21:13:37Z</time></trkpt>
<trkpt lat="50.838166" lon="3.102207"><ele>33.05</ele><time>2025-05-24T21:13:40Z</time></trkpt>
<trkpt lat="50.838417" lon="3.101118"><ele>35.3</ele><time>2025-05-24T21:13:43Z</time></trkpt>
<trkpt lat="50.838619" lon="3.100618"><ele>36.0</ele><time>2025-05-24T21:13:45Z</time></trkpt>
<trkpt lat="50.838668" lon="3.100434"><ele>35.65</ele><time>2025-05-24T21:13:48Z</time></trkpt>
<trkpt lat="50.83872" lon="3.100064"><ele>35.39</ele><time>2025-05-24T21:13:51Z</time></trkpt>
<trkpt lat="50.838681" lon="3.098472"><ele>30.0</ele><time>2025-05-24T21:13:54Z</time></trkpt>
<trkpt lat="50.838808" lon="3.097794"><ele>30.0</ele><time>2025-05-24T21:13:57Z</time></trkpt>
<trkpt lat="50.838985" lon="3.096389"><ele>28.0</ele><time>2025-05-24T21:14:00Z</time></trkpt>
<trkpt lat="50.83916" lon="3.095576"><ele>27.97</ele><time>2025-05-24T21:14:02Z</time></trkpt>
<trkpt lat="50.839369" lon="3.094824"><ele>27.56</ele><time>2025-05-24T21:14:05Z</time></trkpt>
<trkpt lat="50.839421" lon="3.094547"><ele>27.91</ele><time>2025-05-24T21:14:08Z</time></trkpt>
<trkpt lat="50.839318" lon="3.0945"><ele>27.54</ele><time>2025-05-24T21:14:18Z</time></trkpt>
<trkpt lat="50.838199" lon="3.093259"><ele>26.0</ele><time>2025-05-24T21:14:27Z</time></trkpt>
<trkpt lat="50.833032" lon="3.087654"><ele>21.95</ele><time>2025-05-24T21:14:37Z</time></trkpt>
<trkpt lat="50.83279" lon="3.087401"><ele>22.0</ele><time>2025-05-24T21:14:46Z</time></trkpt>
<trkpt lat="50.832537" lon="3.087186"><ele>22.43</ele><time>2025-05-24T21:14:56Z</time></trkpt>
<trkpt lat="50.832537" lon="3.087186"><ele>22.43</ele><time>2025-05-24T21:14:56Z</time></trkpt>
<trkpt lat="50.83279" lon="3.087401"><ele>22.0</ele><time>2025-05-24T21:15:06Z</time></trkpt>
<trkpt lat="50.833032" lon="3.087654"><ele>21.95</ele><time>2025-05-24T21:15:15Z</time></trkpt>
<trkpt lat="50.838199" lon="3.093259"><ele>26.0</ele><time>2025-05-24T21:15:25Z</time></trkpt>
<trkpt lat="50.839318" lon="3.0945"><ele>27.54</ele><time>2025-05-24T21:15:34Z</time></trkpt>
<trkpt lat="50.839421" lon="3.094547"><ele>27.91</ele><time>2025-05-24T21:15:44Z</time></trkpt>
<trkpt lat="50.839508" lon="3.093523"><ele>25.98</ele><time>2025-05-24T21:15:47Z</time></trkpt>
<trkpt lat="50.839748" lon="3.091812"><ele>28.0</ele><time>2025-05-24T21:15:51Z</time></trkpt>
<trkpt lat="50.839802" lon="3.091513"><ele>28.16</ele><time>2025-05-24T21:15:55Z</time></trkpt>
<trkpt lat="50.840043" lon="3.090763"><ele>29.43</ele><time>2025-05-24T21:15:58Z</time></trkpt>
<trkpt lat="50.840114" lon="3.090483"><ele>29.45</ele><time>2025-05-24T21:16:02Z</time></trkpt>
<trkpt lat="50.84019" lon="3.089737"><ele>28.95</ele><time>2025-05-24T21:16:05Z</time></trkpt>
<trkpt lat="50.840244" lon="3.088799"><ele>29.56</ele><time>2025-05-24T21:16:09Z</time></trkpt>
<trkpt lat="50.84045" lon="3.086516"><ele>31.62</ele><time>2025-05-24T21:16:13Z</time></trkpt>
<trkpt lat="50.840512" lon="3.086143"><ele>31.84</ele><time>2025-05-24T21:16:16Z</time></trkpt>
<trkpt lat="50.840995" lon="3.084301"><ele>32.51</ele><time>2025-05-24T21:16:20Z</time></trkpt>
<trkpt lat="50.841161" lon="3.082714"><ele>32.64</ele><time>2025-05-24T21:16:23Z</time></trkpt>
<trkpt lat="50.841338" lon="3.081864"><ele>37.63</ele><time>2025-05-24T21:16:27Z</time></trkpt>
<trkpt lat="50.841397" lon="3.081459"><ele>37.28</ele><time>2025-05-24T21:16:31Z</time></trkpt>
<trkpt lat="50.841402" lon="3.081074"><ele>35.92</ele><time>2025-05-24T21:16:34Z</time></trkpt>
<trkpt lat="50.841299" lon="3.080151"><ele>34.33</ele><time>2025-05-24T21:16:38Z</time></trkpt>
<trkpt lat="50.84112" lon="3.078833"><ele>34.19</ele><time>2025-05-24T21:16:41Z</time></trkpt>
<trkpt lat="50.841068" lon="3.078339"><ele>34.84</ele><time>2025-05-24T21:16:45Z</time></trkpt>
<trkpt lat="50.841052" lon="3.077901"><ele>33.78</ele><time>2025-05-24T21:16:49Z</time></trkpt>
<trkpt lat="50.841053" lon="3.077658"><ele>32.99</ele><time>2025-05-24T21:16:52Z</time></trkpt>
<trkpt lat="50.841284" lon="3.075453"><ele>30.74</ele><time>2025-05-24T21:16:56Z</time></trkpt>
<trkpt lat="50.841293" lon="3.075223"><ele>32.32</ele><time>2025-05-24T21:17:00Z</time></trkpt>
<trkpt lat="50.841282" lon="3.07465"><ele>34.1</ele><time>2025-05-24T21:17:03Z</time></trkpt>
<trkpt lat="50.841238" lon="3.073993"><ele>33.54</ele><time>2025-05-24T21:17:07Z</time></trkpt>
<trkpt lat="50.841152" lon="3.073476"><ele>34.0</ele><time>2025-05-24T21:17:10Z</time></trkpt>
<trkpt lat="50.840919" lon="3.072321"><ele>35.0</ele><time>2025-05-24T21:17:14Z</time></trkpt>
<trkpt lat="50.840762" lon="3.071435"><ele>36.04</ele><time>2025-05-24T21:17:18Z</time></trkpt>
<trkpt lat="50.840718" lon="3.071087"><ele>35.91</ele><time>2025-05-24T21:17:21Z</time></trkpt>
<trkpt lat="50.840709" lon="3.070836"><ele>35.01</ele><time>2025-05-24T21:17:25Z</time></trkpt>
<trkpt lat="50.840729" lon="3.070556"><ele>34.62</ele><time>2025-05-24T21:17:28Z</time></trkpt>
<trkpt lat="50.84085" lon="3.070044"><ele>34.06</ele><time>2025-05-24T21:17:32Z</time></trkpt>
<trkpt lat="50.841119" lon="3.069364"><ele>35.33</ele><time>2025-05-24T21:17:36Z</time></trkpt>
<trkpt lat="50.841175" lon="3.069181"><ele>35.97</ele><time>2025-05-24T21:17:39Z</time></trkpt>
<trkpt lat="50.841199" lon="3.069018"><ele>36.0</ele><time>2025-05-24T21:17:43Z</time></trkpt>
<trkpt lat="50.841185" lon="3.068872"><ele>36.04</ele><time>2025-05-24T21:17:46Z</time></trkpt>
<trkpt lat="50.84104" lon="3.068095"><ele>37.86</ele><time>2025-05-24T21:17:50Z</time></trkpt>
<trkpt lat="50.841012" lon="3.067547"><ele>38.53</ele><time>2025-05-24T21:17:54Z</time></trkpt>
<trkpt lat="50.840986" lon="3.067314"><ele>38.55</ele><time>2025-05-24T21:17:57Z</time></trkpt>
<trkpt lat="50.840799" lon="3.066469"><ele>39.13</ele><time>2025-05-24T21:18:01Z</time></trkpt>
<trkpt lat="50.840726" lon="3.066072"><ele>38.75</ele><time>2025-05-24T21:18:04Z</time></trkpt>
<trkpt lat="50.840693" lon="3.065337"><ele>40.0</ele><time>2025-05-24T21:18:08Z</time></trkpt>
<trkpt lat="50.840683" lon="3.064482"><ele>39.0</ele><time>2025-05-24T21:18:12Z</time></trkpt>
<trkpt lat="50.84066" lon="3.064314"><ele>39.0</ele><time>2025-05-24T21:18:15Z</time></trkpt>
<trkpt lat="50.840597" lon="3.064115"><ele>39.0</ele><time>2025-05-24T21:18:19Z</time></trkpt>
<trkpt lat="50.84052" lon="3.063959"><ele>39.26</ele><time>2025-05-24T21:18:22Z</time></trkpt>
<trkpt lat="50.839973" lon="3.062991"><ele>41.0</ele><time>2025-05-24T21:18:26Z</time></trkpt>
<trkpt lat="50.840054" lon="3.062843"><ele>41.0</ele><time>2025-05-24T21:18:30Z</time></trkpt>
<trkpt lat="50.840549" lon="3.062175"><ele>43.79</ele><time>2025-05-24T21:18:34Z</time></trkpt>
<trkpt lat="50.841374" lon="3.061142"><ele>41.05</ele><time>2025-05-24T21:18:39Z</time></trkpt>
<trkpt lat="50.8419" lon="3.060584"><ele>39.16</ele><time>2025-05-24T21:18:43Z</time></trkpt>
<trkpt lat="50.841996" lon="3.060444"><ele>39.4</ele><time>2025-05-24T21:18:47Z</time></trkpt>
<trkpt lat="50.842141" lon="3.060148"><ele>40.14</ele><time>2025-05-24T21:18:51Z</time></trkpt>
<trkpt lat="50.842444" lon="3.059127"><ele>41.2</ele><time>2025-05-24T21:18:55Z</time></trkpt>
<trkpt lat="50.842643" lon="3.058936"><ele>39.97</ele><time>2025-05-24T21:19:00Z</time></trkpt>
<trkpt lat="50.842728" lon="3.058612"><ele>38.37</ele><time>2025-05-24T21:19:05Z</time></trkpt>
<trkpt lat="50.843093" lon="3.057172"><ele>35.71</ele><time>2025-05-24T21:19:11Z</time></trkpt>
<trkpt lat="50.843354" lon="3.055981"><ele>33.02</ele><time>2025-05-24T21:19:16Z</time></trkpt>
<trkpt lat="50.843871" lon="3.053549"><ele>31.94</ele><time>2025-05-24T21:19:22Z</time></trkpt>
<trkpt lat="50.844082" lon="3.052678"><ele>33.14</ele><time>2025-05-24T21:19:27Z</time></trkpt>
<trkpt lat="50.844152" lon="3.052446"><ele>32.95</ele><time>2025-05-24T21:19:32Z</time></trkpt>
<trkpt lat="50.844361" lon="3.051989"><ele>34.65</ele><time>2025-05-24T21:19:38Z</time></trkpt>
<trkpt lat="50.845264" lon="3.050426"><ele>36.98</ele><time>2025-05-24T21:19:43Z</time></trkpt>
<trkpt lat="50.845373" lon="3.050222"><ele>37.34</ele><time>2025-05-24T21:19:49Z</time></trkpt>
<trkpt lat="50.845476" lon="3.049935"><ele>37.71</ele><time>2025-05-24T21:19:54Z</time></trkpt>
<trkpt lat="50.846569" lon="3.045594"><ele>31.05</ele><time>2025-05-24T21:20:00Z</time></trkpt>
<trkpt lat="50.846756" lon="3.045069"><ele>31.32</ele><time>2025-05-24T21:20:05Z</time></trkpt>
<trkpt lat="50.8469" lon="3.044775"><ele>31.16</ele><time>2025-05-24T21:20:11Z</time></trkpt>
<trkpt lat="50.847253" lon="3.044235"><ele>30.0</ele><time>2025-05-24T21:20:16Z</time></trkpt>
<trkpt lat="50.847566" lon="3.043864"><ele>30.0</ele><time>2025-05-24T21:20:22Z</time></trkpt>
<trkpt lat="50.848039" lon="3.043365"><ele>29.06</ele><time>2025-05-24T21:20:27Z</time></trkpt>
<trkpt lat="50.84758" lon="3.042351"><ele>29.71</ele><time>2025-05-24T21:20:36Z</time></trkpt>
<trkpt lat="50.84743" lon="3.042132"><ele>29.67</ele><time>2025-05-24T21:20:45Z</time></trkpt>
<trkpt lat="50.847074" lon="3.041718"><ele>28.09</ele><time>2025-05-24T21:20:54Z</time></trkpt>
<trkpt lat="50.846982" lon="3.041574"><ele>27.71</ele><time>2025-05-24T21:21:04Z</time></trkpt>
<trkpt lat="50.84592" lon="3.03904"><ele>21.69</ele><time>2025-05-24T21:21:13Z</time></trkpt>
<trkpt lat="50.845691" lon="3.038619"><ele>23.5</ele><time>2025-05-24T21:21:22Z</time></trkpt>
<trkpt lat="50.845623" lon="3.038528"><ele>23.76</ele><time>2025-05-24T21:21:31Z</time></trkpt>
<trkpt lat="50.844933" lon="3.037838"><ele>24.71</ele><time>2025-05-24T21:21:40Z</time></trkpt>
<trkpt lat="50.844859" lon="3.037712"><ele>24.73</ele><time>2025-05-24T21:21:49Z</time></trkpt>
<trkpt lat="50.84398" lon="3.035369"><ele>25.0</ele><time>2025-05-24T21:21:58Z</time></trkpt>
<trkpt lat="50.843466" lon="3.034295"><ele>24.9</ele><time>2025-05-24T21:22:07Z</time></trkpt>
<trkpt lat="50.846882" lon="3.029369"><ele>31.77</ele><time>2025-05-24T21:22:13Z</time></trkpt>
<trkpt lat="50.847177" lon="3.028921"><ele>31.16</ele><time>2025-05-24T21:22:18Z</time></trkpt>
<trkpt lat="50.847243" lon="3.028787"><ele>31.29</ele><time>2025-05-24T21:22:23Z</time></trkpt>
<trkpt lat="50.847364" lon="3.02834"><ele>31.49</ele><time>2025-05-24T21:22:29Z</time></trkpt>
<trkpt lat="50.847686" lon="3.026857"><ele>35.77</ele><time>2025-05-24T21:22:34Z</time></trkpt>
<trkpt lat="50.847764" lon="3.025941"><ele>38.61</ele><time>2025-05-24T21:22:39Z</time></trkpt>
<trkpt lat="50.847759" lon="3.024957"><ele>41.09</ele><time>2025-05-24T21:22:44Z</time></trkpt>
<trkpt lat="50.847775" lon="3.024885"><ele>41.4</ele><time>2025-05-24T21:22:50Z</time></trkpt>
<trkpt lat="50.847868" lon="3.024725"><ele>41.99</ele><time>2025-05-24T21:22:55Z</time></trkpt>
<trkpt lat="50.847916" lon="3.024608"><ele>42.0</ele><time>2025-05-24T21:23:00Z</time></trkpt>
<trkpt lat="50.847923" lon="3.024613"><ele>42.0</ele><time>2025-05-24T21:23:00Z</time></trkpt>
<trkpt lat="50.847923" lon="3.024613"><ele>42.0</ele><time>2025-05-24T21:23:00Z</time></trkpt>
<trkpt lat="50.847916" lon="3.024608"><ele>42.0</ele><time>2025-05-24T21:23:09Z</time></trkpt>
<trkpt lat="50.847827" lon="3.02452"><ele>42.0</ele><time>2025-05-24T21:23:17Z</time></trkpt>
<trkpt lat="50.847127" lon="3.023325"><ele>39.66</ele><time>2025-05-24T21:23:26Z</time></trkpt>
<trkpt lat="50.844291" lon="3.018329"><ele>30.45</ele><time>2025-05-24T21:23:35Z</time></trkpt>
<trkpt lat="50.842946" lon="3.015886"><ele>25.09</ele><time>2025-05-24T21:23:43Z</time></trkpt>
<trkpt lat="50.841639" lon="3.013566"><ele>25.0</ele><time>2025-05-24T21:23:52Z</time></trkpt>
<trkpt lat="50.841249" lon="3.013003"><ele>25.5</ele><time>2025-05-24T21:24:00Z</time></trkpt>
<trkpt lat="50.840991" lon="3.012705"><ele>24.68</ele><time>2025-05-24T21:24:09Z</time></trkpt>
<trkpt lat="50.840699" lon="3.012401"><ele>25.18</ele><time>2025-05-24T21:24:17Z</time></trkpt>
<trkpt lat="50.840429" lon="3.012202"><ele>24.62</ele><time>2025-05-24T21:24:26Z</time></trkpt>
<trkpt lat="50.840344" lon="3.012087"><ele>24.72</ele><time>2025-05-24T21:24:35Z</time></trkpt>
<trkpt lat="50.840246" lon="3.012026"><ele>24.67</ele><time>2025-05-24T21:24:43Z</time></trkpt>
<trkpt lat="50.840144" lon="3.011926"><ele>25.07</ele><time>2025-05-24T21:24:52Z</time></trkpt>
<trkpt lat="50.840108" lon="3.01174"><ele>25.74</ele><time>2025-05-24T21:24:53Z</time></trkpt>
<trkpt lat="50.84001" lon="3.011627"><ele>26.14</ele><time>2025-05-24T21:24:54Z</time></trkpt>
<trkpt lat="50.83992" lon="3.011652"><ele>26.34</ele><time>2025-05-24T21:24:54Z</time></trkpt>
<trkpt lat="50.839828" lon="3.011752"><ele>26.31</ele><time>2025-05-24T21:24:55Z</time></trkpt>
<trkpt lat="50.839584" lon="3.011697"><ele>27.39</ele><time>2025-05-24T21:24:56Z</time></trkpt>
<trkpt lat="50.839481" lon="3.011707"><ele>27.72</ele><time>2025-05-24T21:24:57Z</time></trkpt>
<trkpt lat="50.839212" lon="3.011644"><ele>29.7</ele><time>2025-05-24T21:24:58Z</time></trkpt>
<trkpt lat="50.839212" lon="3.011644"><ele>29.7</ele><time>2025-05-24T21:24:58Z</time></trkpt>
<trkpt lat="50.838807" lon="3.011597"><ele>30.52</ele><time>2025-05-24T21:25:05Z</time></trkpt>
<trkpt lat="50.838636" lon="3.011599"><ele>31.57</ele><time>2025-05-24T21:25:12Z</time></trkpt>
<trkpt lat="50.838463" lon="3.011564"><ele>31.91</ele><time>2025-05-24T21:25:20Z</time></trkpt>
<trkpt lat="50.838095" lon="3.01162"><ele>30.33</ele><time>2025-05-24T21:25:27Z</time></trkpt>
<trkpt lat="50.837261" lon="3.011824"><ele>31.86</ele><time>2025-05-24T21:25:34Z</time></trkpt>
<trkpt lat="50.83705" lon="3.011902"><ele>32.0</ele><time>2025-05-24T21:25:42Z</time></trkpt>
<trkpt lat="50.835603" lon="3.012298"><ele>32.0</ele><time>2025-05-24T21:25:49Z</time></trkpt>
<trkpt lat="50.83313" lon="3.013062"><ele>31.44</ele><time>2025-05-24T21:25:56Z</time></trkpt>
<trkpt lat="50.832841" lon="3.013141"><ele>31.69</ele><time>2025-05-24T21:26:04Z</time></trkpt>
<trkpt lat="50.828237" lon="3.014471"><ele>34.35</ele><time>2025-05-24T21:26:11Z</time></trkpt>
<trkpt lat="50.827941" lon="3.014461"><ele>35.0</ele><time>2025-05-24T21:26:18Z</time></trkpt>
<trkpt lat="50.827898" lon="3.014344"><ele>35.2</ele><time>2025-05-24T21:26:22Z</time></trkpt>
<trkpt lat="50.827862" lon="3.014295"><ele>35.37</ele><time>2025-05-24T21:26:26Z</time></trkpt>
<trkpt lat="50.827769" lon="3.014245"><ele>35.67</ele><time>2025-05-24T21:26:30Z</time></trkpt>
<trkpt lat="50.827715" lon="3.014251"><ele>35.38</ele><time>2025-05-24T21:26:34Z</time></trkpt>
<trkpt lat="50.827621" lon="3.014328"><ele>34.94</ele><time>2025-05-24T21:26:38Z</time></trkpt>
<trkpt lat="50.827588" lon="3.014394"><ele>34.93</ele><time>2025-05-24T21:26:42Z</time></trkpt>
<trkpt lat="50.82756" lon="3.014556"><ele>35.0</ele><time>2025-05-24T21:26:46Z</time></trkpt>
<trkpt lat="50.827258" lon="3.014808"><ele>34.4</ele><time>2025-05-24T21:26:50Z</time></trkpt>
<trkpt lat="50.827083" lon="3.014983"><ele>34.47</ele><time>2025-05-24T21:26:53Z</time></trkpt>
<trkpt lat="50.826092" lon="3.01571"><ele>34.07</ele><time>2025-05-24T21:26:57Z</time></trkpt>
<trkpt lat="50.824167" lon="3.016703"><ele>41.13</ele><time>2025-05-24T21:27:01Z</time></trkpt>
<trkpt lat="50.821917" lon="3.017809"><ele>42.13</ele><time>2025-05-24T21:27:05Z</time></trkpt>
<trkpt lat="50.821917" lon="3.017809"><ele>42.13</ele><time>2025-05-24T21:27:05Z</time></trkpt>
<trkpt lat="50.821908" lon="3.017814"><ele>43.13</ele><time>2025-05-24T21:27:05Z</time></trkpt>
<trkpt lat="50.821923" lon="3.01772"><ele>43.06</ele><time>2025-05-24T21:27:13Z</time></trkpt>
<trkpt lat="50.821903" lon="3.017523"><ele>43.01</ele><time>2025-05-24T21:27:20Z</time></trkpt>
<trkpt lat="50.82193" lon="3.017134"><ele>42.68</ele><time>2025-05-24T21:27:27Z</time></trkpt>
<trkpt lat="50.821971" lon="3.016891"><ele>42.0</ele><time>2025-05-24T21:27:35Z</time></trkpt>
<trkpt lat="50.8223" lon="3.015431"><ele>43.13</ele><time>2025-05-24T21:27:42Z</time></trkpt>
<trkpt lat="50.822652" lon="3.01396"><ele>41.71</ele><time>2025-05-24T21:27:50Z</time></trkpt>
<trkpt lat="50.822615" lon="3.013844"><ele>41.42</ele><time>2025-05-24T21:27:54Z</time></trkpt>
<trkpt lat="50.821801" lon="3.011978"><ele>37.58</ele><time>2025-05-24T21:27:58Z</time></trkpt>
<trkpt lat="50.821759" lon="3.011754"><ele>37.67</ele><time>2025-05-24T21:28:03Z</time></trkpt>
<trkpt lat="50.821739" lon="3.011493"><ele>37.11</ele><time>2025-05-24T21:28:07Z</time></trkpt>
<trkpt lat="50.82177" lon="3.01062"><ele>35.63</ele><time>2025-05-24T21:28:11Z</time></trkpt>
<trkpt lat="50.821749" lon="3.010233"><ele>36.0</ele><time>2025-05-24T21:28:15Z</time></trkpt>
<trkpt lat="50.821574" lon="3.008859"><ele>35.56</ele><time>2025-05-24T21:28:20Z</time></trkpt>
<trkpt lat="50.821382" lon="3.007792"><ele>36.0</ele><time>2025-05-24T21:28:24Z</time></trkpt>
<trkpt lat="50.821196" lon="3.006222"><ele>29.91</ele><time>2025-05-24T21:28:28Z</time></trkpt>
<trkpt lat="50.821133" lon="3.005374"><ele>28.19</ele><time>2025-05-24T21:28:32Z</time></trkpt>
<trkpt lat="50.821085" lon="3.005155"><ele>27.69</ele><time>2025-05-24T21:28:37Z</time></trkpt>
<trkpt lat="50.821013" lon="3.004986"><ele>27.68</ele><time>2025-05-24T21:28:41Z</time></trkpt>
<trkpt lat="50.820903" lon="3.004813"><ele>28.0</ele><time>2025-05-24T21:28:45Z</time></trkpt>
<trkpt lat="50.820735" lon="3.004644"><ele>27.36</ele><time>2025-05-24T21:28:50Z</time></trkpt>
<trkpt lat="50.820392" lon="3.004405"><ele>25.35</ele><time>2025-05-24T21:28:54Z</time></trkpt>
<trkpt lat="50.820284" lon="3.004363"><ele>25.01</ele><time>2025-05-24T21:28:58Z</time></trkpt>
<trkpt lat="50.820178" lon="3.004348"><ele>25.36</ele><time>2025-05-24T21:29:02Z</time></trkpt>
<trkpt lat="50.820063" lon="3.004364"><ele>25.77</ele><time>2025-05-24T21:29:07Z</time></trkpt>
<trkpt lat="50.819585" lon="3.004645"><ele>25.36</ele><time>2025-05-24T21:29:11Z</time></trkpt>
<trkpt lat="50.819478" lon="3.004645"><ele>25.09</ele><time>2025-05-24T21:29:15Z</time></trkpt>
<trkpt lat="50.819406" lon="3.004611"><ele>24.86</ele><time>2025-05-24T21:29:20Z</time></trkpt>
<trkpt lat="50.819292" lon="3.004469"><ele>24.45</ele><time>2025-05-24T21:29:24Z</time></trkpt>
<trkpt lat="50.818886" lon="3.003723"><ele>23.01</ele><time>2025-05-24T21:29:28Z</time></trkpt>
<trkpt lat="50.818785" lon="3.003583"><ele>23.37</ele><time>2025-05-24T21:29:32Z</time></trkpt>
<trkpt lat="50.818681" lon="3.003512"><ele>23.75</ele><time>2025-05-24T21:29:37Z</time></trkpt>
<trkpt lat="50.818305" lon="3.003444"><ele>26.1</ele><time>2025-05-24T21:29:41Z</time></trkpt>
<trkpt lat="50.81822" lon="3.003358"><ele>26.41</ele><time>2025-05-24T21:29:45Z</time></trkpt>
<trkpt lat="50.818013" lon="3.002825"><ele>26.02</ele><time>2025-05-24T21:29:50Z</time></trkpt>
<trkpt lat="50.817762" lon="3.002394"><ele>24.94</ele><time>2025-05-24T21:29:54Z</time></trkpt>
<trkpt lat="50.816736" lon="3.001714"><ele>23.17</ele><time>2025-05-24T21:29:58Z</time></trkpt>
<trkpt lat="50.81668" lon="3.000805"><ele>20.09</ele><time>2025-05-24T21:30:08Z</time></trkpt>
<trkpt lat="50.816609" lon="3.000204"><ele>19.0</ele><time>2025-05-24T21:30:17Z</time></trkpt>
<trkpt lat="50.816516" lon="2.999677"><ele>19.0</ele><time>2025-05-24T21:30:27Z</time></trkpt>
<trkpt lat="50.81516" lon="2.993864"><ele>18.0</ele><time>2025-05-24T21:30:37Z</time></trkpt>
<trkpt lat="50.814843" lon="2.990432"><ele>24.31</ele><time>2025-05-24T21:30:46Z</time></trkpt>
<trkpt lat="50.814735" lon="2.989811"><ele>23.97</ele><time>2025-05-24T21:30:56Z</time></trkpt>
<trkpt lat="50.813715" lon="2.984928"><ele>34.72</ele><time>2025-05-24T21:31:06Z</time></trkpt>
<trkpt lat="50.813148" lon="2.98225"><ele>39.97</ele><time>2025-05-24T21:31:15Z</time></trkpt>
<trkpt lat="50.812996" lon="2.981622"><ele>40.97</ele><time>2025-05-24T21:31:25Z</time></trkpt>
<trkpt lat="50.812876" lon="2.981237"><ele>40.35</ele><time>2025-05-24T21:31:35Z</time></trkpt>
<trkpt lat="50.81255" lon="2.981554"><ele>40.11</ele><time>2025-05-24T21:31:39Z</time></trkpt>
<trkpt lat="50.811855" lon="2.982135"><ele>39.79</ele><time>2025-05-24T21:31:43Z</time></trkpt>
<trkpt lat="50.811775" lon="2.982228"><ele>40.0</ele><time>2025-05-24T21:31:48Z</time></trkpt>
<trkpt lat="50.811701" lon="2.982122"><ele>39.96</ele><time>2025-05-24T21:31:51Z</time></trkpt>
<trkpt lat="50.811501" lon="2.981243"><ele>37.88</ele><time>2025-05-24T21:31:54Z</time></trkpt>
<trkpt lat="50.811465" lon="2.980992"><ele>36.84</ele><time>2025-05-24T21:31:56Z</time></trkpt>
<trkpt lat="50.811452" lon="2.980732"><ele>36.23</ele><time>2025-05-24T21:31:59Z</time></trkpt>
<trkpt lat="50.811484" lon="2.980397"><ele>35.77</ele><time>2025-05-24T21:32:02Z</time></trkpt>
<trkpt lat="50.811782" lon="2.979128"><ele>37.97</ele><time>2025-05-24T21:32:05Z</time></trkpt>
<trkpt lat="50.81181" lon="2.978925"><ele>38.9</ele><time>2025-05-24T21:32:08Z</time></trkpt>
<trkpt lat="50.811818" lon="2.978735"><ele>39.34</ele><time>2025-05-24T21:32:11Z</time></trkpt>
<trkpt lat="50.811777" lon="2.97826"><ele>39.13</ele><time>2025-05-24T21:32:14Z</time></trkpt>
<trkpt lat="50.811731" lon="2.978019"><ele>38.23</ele><time>2025-05-24T21:32:17Z</time></trkpt>
<trkpt lat="50.811673" lon="2.977815"><ele>38.02</ele><time>2025-05-24T21:32:20Z</time></trkpt>
<trkpt lat="50.811388" lon="2.977215"><ele>38.99</ele><time>2025-05-24T21:32:23Z</time></trkpt>
<trkpt lat="50.809795" lon="2.974013"><ele>40.26</ele><time>2025-05-24T21:32:25Z</time></trkpt>
<trkpt lat="50.809463" lon="2.973242"><ele>39.37</ele><time>2025-05-24T21:32:28Z</time></trkpt>
<trkpt lat="50.808891" lon="2.97152"><ele>36.47</ele><time>2025-05-24T21:32:31Z</time></trkpt>
<trkpt lat="50.808763" lon="2.971173"><ele>35.54</ele><time>2025-05-24T21:32:34Z</time></trkpt>
<trkpt lat="50.808567" lon="2.970698"><ele>34.0</ele><time>2025-05-24T21:32:37Z</time></trkpt>
<trkpt lat="50.807952" lon="2.969387"><ele>33.79</ele><time>2025-05-24T21:32:40Z</time></trkpt>
<trkpt lat="50.807688" lon="2.968685"><ele>32.5</ele><time>2025-05-24T21:32:43Z</time></trkpt>
<trkpt lat="50.807535" lon="2.968116"><ele>32.97</ele><time>2025-05-24T21:32:46Z</time></trkpt>
<trkpt lat="50.807216" lon="2.966715"><ele>29.98</ele><time>2025-05-24T21:32:49Z</time></trkpt>
<trkpt lat="50.807089" lon="2.966309"><ele>28.52</ele><time>2025-05-24T21:32:51Z</time></trkpt>
<trkpt lat="50.806921" lon="2.966009"><ele>27.5</ele><time>2025-05-24T21:32:54Z</time></trkpt>
<trkpt lat="50.806731" lon="2.965786"><ele>26.23</ele><time>2025-05-24T21:32:57Z</time></trkpt>
<trkpt lat="50.806787" lon="2.965641"><ele>26.43</ele><time>2025-05-24T21:33:02Z</time></trkpt>
<trkpt lat="50.806816" lon="2.965469"><ele>26.23</ele><time>2025-05-24T21:33:07Z</time></trkpt>
<trkpt lat="50.806727" lon="2.965047"><ele>24.39</ele><time>2025-05-24T21:33:12Z</time></trkpt>
<trkpt lat="50.806123" lon="2.96334"><ele>20.96</ele><time>2025-05-24T21:33:17Z</time></trkpt>
<trkpt lat="50.805985" lon="2.963047"><ele>20.44</ele><time>2025-05-24T21:33:22Z</time></trkpt>
<trkpt lat="50.80554" lon="2.962406"><ele>19.06</ele><time>2025-05-24T21:33:27Z</time></trkpt>
<trkpt lat="50.805309" lon="2.962044"><ele>19.82</ele><time>2025-05-24T21:33:31Z</time></trkpt>
<trkpt lat="50.805074" lon="2.961723"><ele>20.0</ele><time>2025-05-24T21:33:36Z</time></trkpt>
<trkpt lat="50.804926" lon="2.961613"><ele>19.54</ele><time>2025-05-24T21:33:41Z</time></trkpt>
<trkpt lat="50.804459" lon="2.96139"><ele>18.0</ele><time>2025-05-24T21:33:46Z</time></trkpt>
<trkpt lat="50.804319" lon="2.961263"><ele>17.1</ele><time>2025-05-24T21:33:51Z</time></trkpt>
<trkpt lat="50.80396" lon="2.96069"><ele>17.51</ele><time>2025-05-24T21:33:56Z</time></trkpt>
<trkpt lat="50.803941" lon="2.96063"><ele>17.73</ele><time>2025-05-24T21:34:01Z</time></trkpt>
<trkpt lat="50.803942" lon="2.960558"><ele>17.9</ele><time>2025-05-24T21:34:05Z</time></trkpt>
<trkpt lat="50.803942" lon="2.960558"><ele>17.9</ele><time>2025-05-24T21:34:05Z</time></trkpt>
<trkpt lat="50.803967" lon="2.96033"><ele>18.23</ele><time>2025-05-24T21:34:10Z</time></trkpt>
<trkpt lat="50.804006" lon="2.960215"><ele>18.42</ele><time>2025-05-24T21:34:14Z</time></trkpt>
<trkpt lat="50.804511" lon="2.959129"><ele>20.76</ele><time>2025-05-24T21:34:18Z</time></trkpt>
<trkpt lat="50.804558" lon="2.959015"><ele>20.59</ele><time>2025-05-24T21:34:22Z</time></trkpt>
<trkpt lat="50.804606" lon="2.958803"><ele>20.11</ele><time>2025-05-24T21:34:26Z</time></trkpt>
<trkpt lat="50.804608" lon="2.958662"><ele>19.6</ele><time>2025-05-24T21:34:30Z</time></trkpt>
<trkpt lat="50.804544" lon="2.957879"><ele>19.0</ele><time>2025-05-24T21:34:34Z</time></trkpt>
<trkpt lat="50.804617" lon="2.957511"><ele>19.96</ele><time>2025-05-24T21:34:38Z</time></trkpt>
<trkpt lat="50.804659" lon="2.957127"><ele>20.0</ele><time>2025-05-24T21:34:43Z</time></trkpt>
<trkpt lat="50.804651" lon="2.955867"><ele>19.57</ele><time>2025-05-24T21:34:47Z</time></trkpt>
<trkpt lat="50.80463" lon="2.955725"><ele>19.66</ele><time>2025-05-24T21:34:51Z</time></trkpt>
<trkpt lat="50.804484" lon="2.955266"><ele>19.86</ele><time>2025-05-24T21:34:55Z</time></trkpt>
<trkpt lat="50.804456" lon="2.954967"><ele>19.85</ele><time>2025-05-24T21:34:59Z</time></trkpt>
<trkpt lat="50.80448" lon="2.951808"><ele>21.0</ele><time>2025-05-24T21:35:03Z</time></trkpt>
<trkpt lat="50.804424" lon="2.951517"><ele>21.47</ele><time>2025-05-24T21:35:07Z</time></trkpt>
<trkpt lat="50.80437" lon="2.951364"><ele>21.73</ele><time>2025-05-24T21:35:11Z</time></trkpt>
<trkpt lat="50.804307" lon="2.951254"><ele>21.5</ele><time>2025-05-24T21:35:16Z</time></trkpt>
<trkpt lat="50.804174" lon="2.950881"><ele>21.85</ele><time>2025-05-24T21:35:20Z</time></trkpt>
<trkpt lat="50.80424" lon="2.950788"><ele>22.26</ele><time>2025-05-24T21:35:28Z</time></trkpt>
<trkpt lat="50.804302" lon="2.950636"><ele>22.49</ele><time>2025-05-24T21:35:35Z</time></trkpt>
<trkpt lat="50.804537" lon="2.949496"><ele>20.33</ele><time>2025-05-24T21:35:43Z</time></trkpt>
<trkpt lat="50.804784" lon="2.946104"><ele>25.25</ele><time>2025-05-24T21:35:51Z</time></trkpt>
<trkpt lat="50.805316" lon="2.939371"><ele>35.3</ele><time>2025-05-24T21:35:59Z</time></trkpt>
<trkpt lat="50.805297" lon="2.939327"><ele>35.45</ele><time>2025-05-24T21:36:07Z</time></trkpt>
<trkpt lat="50.805394" lon="2.93923"><ele>36.09</ele><time>2025-05-24T21:36:08Z</time></trkpt>
<trkpt lat="50.805343" lon="2.939059"><ele>36.62</ele><time>2025-05-24T21:36:22Z</time></trkpt>
<trkpt lat="50.805409" lon="2.937799"><ele>38.47</ele><time>2025-05-24T21:36:36Z</time></trkpt>
<trkpt lat="50.805353" lon="2.937447"><ele>39.0</ele><time>2025-05-24T21:36:49Z</time></trkpt>
<trkpt lat="50.805262" lon="2.937134"><ele>39.26</ele><time>2025-05-24T21:37:03Z</time></trkpt>
<trkpt lat="50.805357" lon="2.936967"><ele>39.92</ele><time>2025-05-24T21:37:15Z</time></trkpt>
<trkpt lat="50.805373" lon="2.936906"><ele>40.09</ele><time>2025-05-24T21:37:27Z</time></trkpt>
<trkpt lat="50.805172" lon="2.936078"><ele>40.21</ele><time>2025-05-24T21:37:39Z</time></trkpt>
<trkpt lat="50.805106" lon="2.935763"><ele>40.0</ele><time>2025-05-24T21:37:51Z</time></trkpt>
<trkpt lat="50.805095" lon="2.935596"><ele>40.0</ele><time>2025-05-24T21:38:02Z</time></trkpt>
<trkpt lat="50.804893" lon="2.929283"><ele>42.97</ele><time>2025-05-24T21:38:14Z</time></trkpt>
<trkpt lat="50.80481" lon="2.926693"><ele>47.0</ele><time>2025-05-24T21:38:26Z</time></trkpt>
<trkpt lat="50.804653" lon="2.921892"><ele>53.0</ele><time>2025-05-24T21:38:38Z</time></trkpt>
<trkpt lat="50.80464" lon="2.921824"><ele>53.0</ele><time>2025-05-24T21:38:50Z</time></trkpt>
<trkpt lat="50.80461" lon="2.921673"><ele>53.0</ele><time>2025-05-24T21:39:02Z</time></trkpt>
<trkpt lat="50.80478" lon="2.921457"><ele>53.21</ele><time>2025-05-24T21:39:09Z</time></trkpt>
<trkpt lat="50.806719" lon="2.919333"><ele>54.32</ele><time>2025-05-24T21:39:16Z</time></trkpt>
<trkpt lat="50.806741" lon="2.91926"><ele>54.49</ele><time>2025-05-24T21:39:23Z</time></trkpt>
<trkpt lat="50.806728" lon="2.919161"><ele>54.8</ele><time>2025-05-24T21:39:30Z</time></trkpt>
<trkpt lat="50.806149" lon="2.917971"><ele>54.56</ele><time>2025-05-24T21:39:38Z</time></trkpt>
<trkpt lat="50.80611" lon="2.91786"><ele>54.3</ele><time>2025-05-24T21:39:45Z</time></trkpt>
<trkpt lat="50.806115" lon="2.917785"><ele>54.01</ele><time>2025-05-24T21:39:54Z</time></trkpt>
<trkpt lat="50.806526" lon="2.91567"><ele>54.8</ele><time>2025-05-24T21:40:02Z</time></trkpt>
<trkpt lat="50.80658" lon="2.915488"><ele>54.76</ele><time>2025-05-24T21:40:11Z</time></trkpt>
<trkpt lat="50.806675" lon="2.915392"><ele>54.49</ele><time>2025-05-24T21:40:20Z</time></trkpt>
<trkpt lat="50.808216" lon="2.914119"><ele>54.0</ele><time>2025-05-24T21:40:29Z</time></trkpt>
<trkpt lat="50.808253" lon="2.914023"><ele>54.0</ele><time>2025-05-24T21:40:37Z</time></trkpt>
<trkpt lat="50.80826" lon="2.913958"><ele>54.0</ele><time>2025-05-24T21:40:46Z</time></trkpt>
<trkpt lat="50.808256" lon="2.913866"><ele>54.0</ele><time>2025-05-24T21:40:55Z</time></trkpt>
<trkpt lat="50.808232" lon="2.913767"><ele>54.0</ele><time>2025-05-24T21:41:04Z</time></trkpt>
<trkpt lat="50.806416" lon="2.909087"><ele>56.0</ele><time>2025-05-24T21:41:13Z</time></trkpt>
<trkpt lat="50.806391" lon="2.908988"><ele>56.0</ele><time>2025-05-24T21:41:21Z</time></trkpt>
<trkpt lat="50.806387" lon="2.90892"><ele>56.0</ele><time>2025-05-24T21:41:30Z</time></trkpt>
<trkpt lat="50.806402" lon="2.908856"><ele>56.11</ele><time>2025-05-24T21:41:39Z</time></trkpt>
<trkpt lat="50.806867" lon="2.907796"><ele>57.0</ele><time>2025-05-24T21:41:48Z</time></trkpt>
<trkpt lat="50.806922" lon="2.907444"><ele>57.0</ele><time>2025-05-24T21:41:57Z</time></trkpt>
<trkpt lat="50.806922" lon="2.907267"><ele>57.0</ele><time>2025-05-24T21:42:05Z</time></trkpt>
<trkpt lat="50.806808" lon="2.90655"><ele>55.29</ele><time>2025-05-24T21:42:14Z</time></trkpt>
<trkpt lat="50.806364" lon="2.90453"><ele>50.4</ele><time>2025-05-24T21:42:23Z</time></trkpt>
<trkpt lat="50.806349" lon="2.904385"><ele>49.65</ele><time>2025-05-24T21:42:32Z</time></trkpt>
<trkpt lat="50.806349" lon="2.904385"><ele>49.65</ele><time>2025-05-24T21:42:32Z</time></trkpt>
<trkpt lat="50.806368" lon="2.904249"><ele>49.37</ele><time>2025-05-24T21:42:38Z</time></trkpt>
<trkpt lat="50.806415" lon="2.904145"><ele>48.93</ele><time>2025-05-24T21:42:43Z</time></trkpt>
<trkpt lat="50.806474" lon="2.904046"><ele>48.7</ele><time>2025-05-24T21:42:49Z</time></trkpt>
<trkpt lat="50.806669" lon="2.903819"><ele>49.0</ele><time>2025-05-24T21:42:55Z</time></trkpt>
<trkpt lat="50.806803" lon="2.903691"><ele>49.14</ele><time>2025-05-24T21:43:01Z</time></trkpt>
<trkpt lat="50.807435" lon="2.903258"><ele>50.56</ele><time>2025-05-24T21:43:06Z</time></trkpt>
<trkpt lat="50.807813" lon="2.902964"><ele>49.79</ele><time>2025-05-24T21:43:12Z</time></trkpt>
<trkpt lat="50.807932" lon="2.902824"><ele>49.72</ele><time>2025-05-24T21:43:18Z</time></trkpt>
<trkpt lat="50.808014" lon="2.902629"><ele>49.31</ele><time>2025-05-24T21:43:24Z</time></trkpt>
<trkpt lat="50.808031" lon="2.902518"><ele>48.98</ele><time>2025-05-24T21:43:29Z</time></trkpt>
<trkpt lat="50.808001" lon="2.902258"><ele>48.1</ele><time>2025-05-24T21:43:35Z</time></trkpt>
<trkpt lat="50.80789" lon="2.901846"><ele>47.6</ele><time>2025-05-24T21:43:41Z</time></trkpt>
<trkpt lat="50.807786" lon="2.901374"><ele>47.0</ele><time>2025-05-24T21:43:46Z</time></trkpt>
<trkpt lat="50.807657" lon="2.900727"><ele>46.0</ele><time>2025-05-24T21:43:52Z</time></trkpt>
<trkpt lat="50.807652" lon="2.900622"><ele>46.0</ele><time>2025-05-24T21:43:58Z</time></trkpt>
<trkpt lat="50.807717" lon="2.900288"><ele>45.04</ele><time>2025-05-24T21:44:04Z</time></trkpt>
<trkpt lat="50.808913" lon="2.896294"><ele>43.17</ele><time>2025-05-24T21:44:09Z</time></trkpt>
<trkpt lat="50.808979" lon="2.895076"><ele>46.14</ele><time>2025-05-24T21:44:15Z</time></trkpt>
<trkpt lat="50.808973" lon="2.894889"><ele>45.9</ele><time>2025-05-24T21:44:21Z</time></trkpt>
<trkpt lat="50.808949" lon="2.894707"><ele>45.2</ele><time>2025-05-24T21:44:27Z</time></trkpt>
<trkpt lat="50.808855" lon="2.894267"><ele>44.39</ele><time>2025-05-24T21:44:32Z</time></trkpt>
<trkpt lat="50.808847" lon="2.894153"><ele>44.15</ele><time>2025-05-24T21:44:38Z</time></trkpt>
<trkpt lat="50.808858" lon="2.894035"><ele>44.11</ele><time>2025-05-24T21:44:44Z</time></trkpt>
<trkpt lat="50.808994" lon="2.893637"><ele>44.53</ele><time>2025-05-24T21:44:50Z</time></trkpt>
<trkpt lat="50.809061" lon="2.893391"><ele>44.38</ele><time>2025-05-24T21:44:55Z</time></trkpt>
<trkpt lat="50.809052" lon="2.893302"><ele>44.41</ele><time>2025-05-24T21:45:01Z</time></trkpt>
<trkpt lat="50.809024" lon="2.893232"><ele>44.51</ele><time>2025-05-24T21:45:07Z</time></trkpt>
<trkpt lat="50.809826" lon="2.892427"><ele>44.25</ele><time>2025-05-24T21:45:10Z</time></trkpt>
<trkpt lat="50.810336" lon="2.89185"><ele>41.79</ele><time>2025-05-24T21:45:13Z</time></trkpt>
<trkpt lat="50.810439" lon="2.89168"><ele>41.42</ele><time>2025-05-24T21:45:16Z</time></trkpt>
<trkpt lat="50.810506" lon="2.891622"><ele>41.18</ele><time>2025-05-24T21:45:21Z</time></trkpt>
<trkpt lat="50.810523" lon="2.891575"><ele>41.12</ele><time>2025-05-24T21:45:27Z</time></trkpt>
<trkpt lat="50.810525" lon="2.891469"><ele>41.11</ele><time>2025-05-24T21:45:32Z</time></trkpt>
<trkpt lat="50.810499" lon="2.891402"><ele>41.2</ele><time>2025-05-24T21:45:38Z</time></trkpt>
<trkpt lat="50.810518" lon="2.891229"><ele>41.13</ele><time>2025-05-24T21:45:44Z</time></trkpt>
<trkpt lat="50.810585" lon="2.891068"><ele>40.98</ele><time>2025-05-24T21:45:49Z</time></trkpt>
<trkpt lat="50.811897" lon="2.889554"><ele>36.17</ele><time>2025-05-24T21:45:55Z</time></trkpt>
<trkpt lat="50.812133" lon="2.889228"><ele>35.75</ele><time>2025-05-24T21:46:00Z</time></trkpt>
<trkpt lat="50.812371" lon="2.888856"><ele>35.94</ele><time>2025-05-24T21:46:06Z</time></trkpt>
<trkpt lat="50.812717" lon="2.888226"><ele>35.13</ele><time>2025-05-24T21:46:12Z</time></trkpt>
<trkpt lat="50.813703" lon="2.886271"><ele>33.67</ele><time>2025-05-24T21:46:17Z</time></trkpt>
<trkpt lat="50.814053" lon="2.885461"><ele>33.27</ele><time>2025-05-24T21:46:23Z</time></trkpt>
<trkpt lat="50.814265" lon="2.884888"><ele>32.24</ele><time>2025-05-24T21:46:28Z</time></trkpt>
<trkpt lat="50.815009" lon="2.882622"><ele>29.0</ele><time>2025-05-24T21:46:34Z</time></trkpt>
<trkpt lat="50.815251" lon="2.882026"><ele>28.93</ele><time>2025-05-24T21:46:39Z</time></trkpt>
<trkpt lat="50.816568" lon="2.879115"><ele>24.0</ele><time>2025-05-24T21:46:45Z</time></trkpt>
<trkpt lat="50.816697" lon="2.878729"><ele>23.94</ele><time>2025-05-24T21:46:51Z</time></trkpt>
<trkpt lat="50.816803" lon="2.878346"><ele>23.51</ele><time>2025-05-24T21:46:56Z</time></trkpt>
<trkpt lat="50.81683" lon="2.878156"><ele>23.78</ele><time>2025-05-24T21:47:02Z</time></trkpt>
<trkpt lat="50.816833" lon="2.877978"><ele>24.0</ele><time>2025-05-24T21:47:07Z</time></trkpt>
<trkpt lat="50.816807" lon="2.877743"><ele>24.0</ele><time>2025-05-24T21:47:13Z</time></trkpt>
<trkpt lat="50.81655" lon="2.876273"><ele>25.24</ele><time>2025-05-24T21:47:18Z</time></trkpt>
<trkpt lat="50.816522" lon="2.876012"><ele>25.48</ele><time>2025-05-24T21:47:24Z</time></trkpt>
<trkpt lat="50.816528" lon="2.875878"><ele>25.5</ele><time>2025-05-24T21:47:30Z</time></trkpt>
<trkpt lat="50.816574" lon="2.875832"><ele>25.67</ele><time>2025-05-24T21:47:35Z</time></trkpt>
<trkpt lat="50.816571" lon="2.875746"><ele>25.65</ele><time>2025-05-24T21:47:40Z</time></trkpt>
<trkpt lat="50.816817" lon="2.875474"><ele>26.0</ele><time>2025-05-24T21:47:46Z</time></trkpt>
<trkpt lat="50.817586" lon="2.874316"><ele>26.15</ele><time>2025-05-24T21:47:51Z</time></trkpt>
<trkpt lat="50.818143" lon="2.873446"><ele>25.0</ele><time>2025-05-24T21:47:56Z</time></trkpt>
<trkpt lat="50.818517" lon="2.872895"><ele>25.0</ele><time>2025-05-24T21:48:02Z</time></trkpt>
<trkpt lat="50.819133" lon="2.872046"><ele>25.08</ele><time>2025-05-24T21:48:07Z</time></trkpt>
<trkpt lat="50.819554" lon="2.871595"><ele>24.47</ele><time>2025-05-24T21:48:12Z</time></trkpt>
<trkpt lat="50.82188" lon="2.869356"><ele>26.07</ele><time>2025-05-24T21:48:18Z</time></trkpt>
<trkpt lat="50.82208" lon="2.869108"><ele>26.0</ele><time>2025-05-24T21:48:23Z</time></trkpt>
<trkpt lat="50.822253" lon="2.868828"><ele>26.14</ele><time>2025-05-24T21:48:28Z</time></trkpt>
<trkpt lat="50.822478" lon="2.868371"><ele>27.84</ele><time>2025-05-24T21:48:34Z</time></trkpt>
<trkpt lat="50.822719" lon="2.867426"><ele>27.84</ele><time>2025-05-24T21:48:39Z</time></trkpt>
<trkpt lat="50.822785" lon="2.867386"><ele>28.02</ele><time>2025-05-24T21:48:42Z</time></trkpt>
<trkpt lat="50.822818" lon="2.867326"><ele>28.14</ele><time>2025-05-24T21:48:45Z</time></trkpt>
<trkpt lat="50.822832" lon="2.86725"><ele>28.2</ele><time>2025-05-24T21:48:48Z</time></trkpt>
<trkpt lat="50.822818" lon="2.867137"><ele>28.71</ele><time>2025-05-24T21:48:52Z</time></trkpt>
<trkpt lat="50.822796" lon="2.867091"><ele>28.98</ele><time>2025-05-24T21:48:55Z</time></trkpt>
<trkpt lat="50.822795" lon="2.866898"><ele>30.16</ele><time>2025-05-24T21:48:58Z</time></trkpt>
<trkpt lat="50.822843" lon="2.866483"><ele>30.11</ele><time>2025-05-24T21:49:01Z</time></trkpt>
<trkpt lat="50.82297" lon="2.86581"><ele>29.0</ele><time>2025-05-24T21:49:04Z</time></trkpt>
<trkpt lat="50.823076" lon="2.865346"><ele>29.68</ele><time>2025-05-24T21:49:07Z</time></trkpt>
<trkpt lat="50.823197" lon="2.864949"><ele>30.18</ele><time>2025-05-24T21:49:10Z</time></trkpt>
<trkpt lat="50.823405" lon="2.864447"><ele>31.99</ele><time>2025-05-24T21:49:13Z</time></trkpt>
<trkpt lat="50.823686" lon="2.86393"><ele>32.0</ele><time>2025-05-24T21:49:17Z</time></trkpt>
<trkpt lat="50.824709" lon="2.862447"><ele>35.0</ele><time>2025-05-24T21:49:20Z</time></trkpt>
<trkpt lat="50.827876" lon="2.858012"><ele>28.65</ele><time>2025-05-24T21:49:23Z</time></trkpt>
<trkpt lat="50.828029" lon="2.857803"><ele>28.1</ele><time>2025-05-24T21:49:26Z</time></trkpt>
<trkpt lat="50.828326" lon="2.857568"><ele>27.01</ele><time>2025-05-24T21:49:29Z</time></trkpt>
<trkpt lat="50.82839" lon="2.8576"><ele>27.0</ele><time>2025-05-24T21:49:35Z</time></trkpt>
<trkpt lat="50.828452" lon="2.857563"><ele>27.0</ele><time>2025-05-24T21:49:40Z</time></trkpt>
<trkpt lat="50.82849" lon="2.85745"><ele>27.0</ele><time>2025-05-24T21:49:45Z</time></trkpt>
<trkpt lat="50.828465" lon="2.85733"><ele>27.0</ele><time>2025-05-24T21:49:51Z</time></trkpt>
<trkpt lat="50.829494" lon="2.856038"><ele>24.08</ele><time>2025-05-24T21:49:56Z</time></trkpt>
<trkpt lat="50.829775" lon="2.855637"><ele>24.76</ele><time>2025-05-24T21:50:02Z</time></trkpt>
<trkpt lat="50.829861" lon="2.855464"><ele>24.67</ele><time>2025-05-24T21:50:07Z</time></trkpt>
<trkpt lat="50.829981" lon="2.855129"><ele>23.5</ele><time>2025-05-24T21:50:12Z</time></trkpt>
<trkpt lat="50.830936" lon="2.852129"><ele>23.66</ele><time>2025-05-24T21:50:18Z</time></trkpt>
<trkpt lat="50.83105" lon="2.851846"><ele>22.65</ele><time>2025-05-24T21:50:23Z</time></trkpt>
<trkpt lat="50.831253" lon="2.85153"><ele>21.51</ele><time>2025-05-24T21:50:29Z</time></trkpt>
<trkpt lat="50.834928" lon="2.847153"><ele>19.82</ele><time>2025-05-24T21:50:34Z</time></trkpt>
<trkpt lat="50.835073" lon="2.846921"><ele>18.72</ele><time>2025-05-24T21:50:39Z</time></trkpt>
<trkpt lat="50.837423" lon="2.842564"><ele>17.51</ele><time>2025-05-24T21:50:45Z</time></trkpt>
<trkpt lat="50.837628" lon="2.842216"><ele>16.01</ele><time>2025-05-24T21:50:50Z</time></trkpt>
<trkpt lat="50.838774" lon="2.840526"><ele>17.11</ele><time>2025-05-24T21:50:56Z</time></trkpt>
<trkpt lat="50.839221" lon="2.839905"><ele>16.79</ele><time>2025-05-24T21:51:01Z</time></trkpt>
<trkpt lat="50.839216" lon="2.839896"><ele>16.5</ele><time>2025-05-24T21:51:16Z</time></trkpt>
<trkpt lat="50.839216" lon="2.839896"><ele>16.5</ele><time>2025-05-24T21:51:16Z</time></trkpt>
<trkpt lat="50.839148" lon="2.839748"><ele>16.22</ele><time>2025-05-24T21:51:21Z</time></trkpt>
<trkpt lat="50.838856" lon="2.839348"><ele>17.65</ele><time>2025-05-24T21:51:26Z</time></trkpt>
<trkpt lat="50.838756" lon="2.83912"><ele>16.83</ele><time>2025-05-24T21:51:32Z</time></trkpt>
<trkpt lat="50.838675" lon="2.83888"><ele>16.0</ele><time>2025-05-24T21:51:37Z</time></trkpt>
<trkpt lat="50.838541" lon="2.838244"><ele>16.0</ele><time>2025-05-24T21:51:42Z</time></trkpt>
<trkpt lat="50.838314" lon="2.836261"><ele>16.96</ele><time>2025-05-24T21:51:47Z</time></trkpt>
<trkpt lat="50.83823" lon="2.83567"><ele>18.0</ele><time>2025-05-24T21:51:53Z</time></trkpt>
<trkpt lat="50.838089" lon="2.834851"><ele>17.65</ele><time>2025-05-24T21:51:58Z</time></trkpt>
<trkpt lat="50.83809" lon="2.834666"><ele>17.24</ele><time>2025-05-24T21:52:03Z</time></trkpt>
<trkpt lat="50.838183" lon="2.833669"><ele>20.14</ele><time>2025-05-24T21:52:08Z</time></trkpt>
<trkpt lat="50.838186" lon="2.833318"><ele>21.47</ele><time>2025-05-24T21:52:14Z</time></trkpt>
<trkpt lat="50.838151" lon="2.833105"><ele>21.34</ele><time>2025-05-24T21:52:19Z</time></trkpt>
<trkpt lat="50.838011" lon="2.832535"><ele>19.65</ele><time>2025-05-24T21:52:24Z</time></trkpt>
<trkpt lat="50.837925" lon="2.832079"><ele>18.3</ele><time>2025-05-24T21:52:29Z</time></trkpt>
<trkpt lat="50.83791" lon="2.831903"><ele>18.48</ele><time>2025-05-24T21:52:35Z</time></trkpt>
<trkpt lat="50.837918" lon="2.831748"><ele>18.5</ele><time>2025-05-24T21:52:40Z</time></trkpt>
<trkpt lat="50.837939" lon="2.831634"><ele>18.53</ele><time>2025-05-24T21:52:45Z</time></trkpt>
<trkpt lat="50.837988" lon="2.831507"><ele>18.62</ele><time>2025-05-24T21:52:50Z</time></trkpt>
<trkpt lat="50.838269" lon="2.831091"><ele>18.93</ele><time>2025-05-24T21:52:56Z</time></trkpt>
<trkpt lat="50.839029" lon="2.829797"><ele>19.0</ele><time>2025-05-24T21:53:01Z</time></trkpt>
<trkpt lat="50.83924" lon="2.829385"><ele>19.06</ele><time>2025-05-24T21:53:06Z</time></trkpt>
<trkpt lat="50.839475" lon="2.82875"><ele>20.0</ele><time>2025-05-24T21:53:11Z</time></trkpt>
<trkpt lat="50.839759" lon="2.827747"><ele>18.89</ele><time>2025-05-24T21:53:16Z</time></trkpt>
<trkpt lat="50.840036" lon="2.826998"><ele>17.32</ele><time>2025-05-24T21:53:22Z</time></trkpt>
<trkpt lat="50.840177" lon="2.826545"><ele>17.15</ele><time>2025-05-24T21:53:27Z</time></trkpt>
<trkpt lat="50.840535" lon="2.825168"><ele>18.4</ele><time>2025-05-24T21:53:32Z</time></trkpt>
<trkpt lat="50.840815" lon="2.823804"><ele>17.98</ele><time>2025-05-24T21:53:37Z</time></trkpt>
<trkpt lat="50.840955" lon="2.823236"><ele>18.09</ele><time>2025-05-24T21:53:43Z</time></trkpt>
<trkpt lat="50.841102" lon="2.822742"><ele>17.84</ele><time>2025-05-24T21:53:48Z</time></trkpt>
<trkpt lat="50.841403" lon="2.821909"><ele>16.0</ele><time>2025-05-24T21:53:53Z</time></trkpt>
<trkpt lat="50.841602" lon="2.821453"><ele>15.82</ele><time>2025-05-24T21:53:58Z</time></trkpt>
<trkpt lat="50.84179" lon="2.821084"><ele>15.46</ele><time>2025-05-24T21:54:04Z</time></trkpt>
<trkpt lat="50.842115" lon="2.820594"><ele>13.67</ele><time>2025-05-24T21:54:09Z</time></trkpt>
<trkpt lat="50.842449" lon="2.820145"><ele>15.82</ele><time>2025-05-24T21:54:14Z</time></trkpt>
<trkpt lat="50.842559" lon="2.819945"><ele>16.0</ele><time>2025-05-24T21:54:19Z</time></trkpt>
<trkpt lat="50.842757" lon="2.819387"><ele>16.19</ele><time>2025-05-24T21:54:25Z</time></trkpt>
<trkpt lat="50.842879" lon="2.819105"><ele>17.08</ele><time>2025-05-24T21:54:30Z</time></trkpt>
<trkpt lat="50.843222" lon="2.818539"><ele>16.8</ele><time>2025-05-24T21:54:35Z</time></trkpt>
<trkpt lat="50.844165" lon="2.81739"><ele>16.01</ele><time>2025-05-24T21:54:40Z</time></trkpt>
<trkpt lat="50.844598" lon="2.816739"><ele>17.0</ele><time>2025-05-24T21:54:46Z</time></trkpt>
<trkpt lat="50.845685" lon="2.815432"><ele>15.7</ele><time>2025-05-24T21:54:51Z</time></trkpt>
<trkpt lat="50.845514" lon="2.815081"><ele>15.85</ele><time>2025-05-24T21:54:58Z</time></trkpt>
<trkpt lat="50.845379" lon="2.814758"><ele>16.24</ele><time>2025-05-24T21:55:06Z</time></trkpt>
<trkpt lat="50.844788" lon="2.812996"><ele>14.55</ele><time>2025-05-24T21:55:14Z</time></trkpt>
<trkpt lat="50.844608" lon="2.812577"><ele>13.69</ele><time>2025-05-24T21:55:21Z</time></trkpt>
<trkpt lat="50.844517" lon="2.812423"><ele>13.46</ele><time>2025-05-24T21:55:29Z</time></trkpt>
<trkpt lat="50.843688" lon="2.811483"><ele>15.34</ele><time>2025-05-24T21:55:36Z</time></trkpt>
<trkpt lat="50.838742" lon="2.806102"><ele>16.48</ele><time>2025-05-24T21:55:44Z</time></trkpt>
<trkpt lat="50.838986" lon="2.805269"><ele>14.35</ele><time>2025-05-24T21:55:51Z</time></trkpt>
<trkpt lat="50.839177" lon="2.804834"><ele>14.42</ele><time>2025-05-24T21:55:58Z</time></trkpt>
<trkpt lat="50.839337" lon="2.804377"><ele>14.86</ele><time>2025-05-24T21:56:05Z</time></trkpt>
<trkpt lat="50.839478" lon="2.80386"><ele>16.35</ele><time>2025-05-24T21:56:12Z</time></trkpt>
<trkpt lat="50.839527" lon="2.803739"><ele>17.09</ele><time>2025-05-24T21:56:19Z</time></trkpt>
<trkpt lat="50.839527" lon="2.803739"><ele>17.09</ele><time>2025-05-24T21:56:19Z</time></trkpt>
<trkpt lat="50.83957" lon="2.803632"><ele>17.83</ele><time>2025-05-24T21:56:27Z</time></trkpt>
<trkpt lat="50.839784" lon="2.803329"><ele>19.23</ele><time>2025-05-24T21:56:35Z</time></trkpt>
<trkpt lat="50.840072" lon="2.803022"><ele>20.0</ele><time>2025-05-24T21:56:43Z</time></trkpt>
<trkpt lat="50.840472" lon="2.802538"><ele>20.7</ele><time>2025-05-24T21:56:52Z</time></trkpt>
<trkpt lat="50.840708" lon="2.802296"><ele>21.55</ele><time>2025-05-24T21:57:00Z</time></trkpt>
<trkpt lat="50.841017" lon="2.802048"><ele>20.71</ele><time>2025-05-24T21:57:08Z</time></trkpt>
<trkpt lat="50.841807" lon="2.801103"><ele>19.01</ele><time>2025-05-24T21:57:16Z</time></trkpt>
<trkpt lat="50.842369" lon="2.800544"><ele>21.04</ele><time>2025-05-24T21:57:25Z</time></trkpt>
<trkpt lat="50.843916" lon="2.799107"><ele>22.9</ele><time>2025-05-24T21:57:33Z</time></trkpt>
<trkpt lat="50.844697" lon="2.79848"><ele>23.0</ele><time>2025-05-24T21:57:41Z</time></trkpt>
<trkpt lat="50.84547" lon="2.797795"><ele>24.38</ele><time>2025-05-24T21:57:49Z</time></trkpt>
<trkpt lat="50.846649" lon="2.79682"><ele>27.94</ele><time>2025-05-24T21:57:58Z</time></trkpt>
<trkpt lat="50.847819" lon="2.795785"><ele>27.15</ele><time>2025-05-24T21:58:06Z</time></trkpt>
<trkpt lat="50.848398" lon="2.795396"><ele>26.77</ele><time>2025-05-24T21:58:14Z</time></trkpt>
<trkpt lat="50.848882" lon="2.795212"><ele>26.0</ele><time>2025-05-24T21:58:22Z</time></trkpt>
<trkpt lat="50.849666" lon="2.794777"><ele>25.36</ele><time>2025-05-24T21:58:31Z</time></trkpt>
<trkpt lat="50.849974" lon="2.794563"><ele>24.09</ele><time>2025-05-24T21:58:39Z</time></trkpt>
<trkpt lat="50.850161" lon="2.794372"><ele>24.26</ele><time>2025-05-24T21:58:47Z</time></trkpt>
<trkpt lat="50.850622" lon="2.793592"><ele>25.76</ele><time>2025-05-24T21:58:55Z</time></trkpt>
<trkpt lat="50.85092" lon="2.793157"><ele>25.0</ele><time>2025-05-24T21:59:04Z</time></trkpt>
<trkpt lat="50.851202" lon="2.792606"><ele>25.0</ele><time>2025-05-24T21:59:12Z</time></trkpt>
<trkpt lat="50.851382" lon="2.792332"><ele>25.0</ele><time>2025-05-24T21:59:20Z</time></trkpt>
<trkpt lat="50.851939" lon="2.791643"><ele>23.92</ele><time>2025-05-24T21:59:28Z</time></trkpt>
<trkpt lat="50.852176" lon="2.791416"><ele>23.02</ele><time>2025-05-24T21:59:37Z</time></trkpt>
<trkpt lat="50.853203" lon="2.790612"><ele>23.0</ele><time>2025-05-24T21:59:45Z</time></trkpt>
<trkpt lat="50.8542" lon="2.789884"><ele>25.05</ele><time>2025-05-24T21:59:53Z</time></trkpt>
<trkpt lat="50.854583" lon="2.7896"><ele>26.5</ele><time>2025-05-24T22:00:01Z</time></trkpt>
<trkpt lat="50.854638" lon="2.789593"><ele>26.7</ele><time>2025-05-24T22:00:10Z</time></trkpt>
<trkpt lat="50.85463" lon="2.78936"><ele>26.46</ele><time>2025-05-24T22:00:12Z</time></trkpt>
<trkpt lat="50.854675" lon="2.789358"><ele>26.57</ele><time>2025-05-24T22:00:16Z</time></trkpt>
<trkpt lat="50.854727" lon="2.789305"><ele>26.48</ele><time>2025-05-24T22:00:20Z</time></trkpt>
<trkpt lat="50.855578" lon="2.788308"><ele>23.84</ele><time>2025-05-24T22:00:25Z</time></trkpt>
<trkpt lat="50.855722" lon="2.788099"><ele>23.06</ele><time>2025-05-24T22:00:29Z</time></trkpt>
<trkpt lat="50.855799" lon="2.787887"><ele>23.0</ele><time>2025-05-24T22:00:34Z</time></trkpt>
<trkpt lat="50.856003" lon="2.786526"><ele>24.29</ele><time>2025-05-24T22:00:38Z</time></trkpt>
<trkpt lat="50.856052" lon="2.786376"><ele>24.46</ele><time>2025-05-24T22:00:42Z</time></trkpt>
<trkpt lat="50.856111" lon="2.786279"><ele>24.4</ele><time>2025-05-24T22:00:47Z</time></trkpt>
<trkpt lat="50.856673" lon="2.78566"><ele>19.98</ele><time>2025-05-24T22:00:51Z</time></trkpt>
<trkpt lat="50.856902" lon="2.785368"><ele>19.83</ele><time>2025-05-24T22:00:56Z</time></trkpt>
<trkpt lat="50.857373" lon="2.784651"><ele>22.0</ele><time>2025-05-24T22:01:00Z</time></trkpt>
<trkpt lat="50.857705" lon="2.784044"><ele>21.0</ele><time>2025-05-24T22:01:04Z</time></trkpt>
<trkpt lat="50.85832" lon="2.782755"><ele>21.18</ele><time>2025-05-24T22:01:09Z</time></trkpt>
<trkpt lat="50.858472" lon="2.782512"><ele>21.46</ele><time>2025-05-24T22:01:13Z</time></trkpt>
<trkpt lat="50.859251" lon="2.781709"><ele>21.39</ele><time>2025-05-24T22:01:18Z</time></trkpt>
<trkpt lat="50.859324" lon="2.781557"><ele>21.09</ele><time>2025-05-24T22:01:22Z</time></trkpt>
<trkpt lat="50.8594" lon="2.781335"><ele>21.32</ele><time>2025-05-24T22:01:26Z</time></trkpt>
<trkpt lat="50.859584" lon="2.780727"><ele>21.93</ele><time>2025-05-24T22:01:31Z</time></trkpt>
<trkpt lat="50.859584" lon="2.780727"><ele>21.93</ele><time>2025-05-24T22:01:31Z</time></trkpt>
<trkpt lat="50.859595" lon="2.780689"><ele>22.54</ele><time>2025-05-24T22:01:31Z</time></trkpt>
<trkpt lat="50.860253" lon="2.781116"><ele>23.91</ele><time>2025-05-24T22:01:36Z</time></trkpt>
<trkpt lat="50.861174" lon="2.781802"><ele>22.77</ele><time>2025-05-24T22:01:42Z</time></trkpt>
<trkpt lat="50.86308" lon="2.783571"><ele>19.22</ele><time>2025-05-24T22:01:47Z</time></trkpt>
<trkpt lat="50.866028" lon="2.786153"><ele>29.0</ele><time>2025-05-24T22:01:53Z</time></trkpt>
<trkpt lat="50.866173" lon="2.786214"><ele>29.0</ele><time>2025-05-24T22:01:58Z</time></trkpt>
<trkpt lat="50.86628" lon="2.786146"><ele>29.0</ele><time>2025-05-24T22:02:03Z</time></trkpt>
<trkpt lat="50.866611" lon="2.785753"><ele>27.77</ele><time>2025-05-24T22:02:09Z</time></trkpt>
<trkpt lat="50.866737" lon="2.78593"><ele>28.69</ele><time>2025-05-24T22:02:14Z</time></trkpt>
<trkpt lat="50.867048" lon="2.786546"><ele>30.79</ele><time>2025-05-24T22:02:20Z</time></trkpt>
<trkpt lat="50.86757" lon="2.78737"><ele>28.39</ele><time>2025-05-24T22:02:25Z</time></trkpt>
<trkpt lat="50.867824" lon="2.787682"><ele>30.82</ele><time>2025-05-24T22:02:30Z</time></trkpt>
<trkpt lat="50.869043" lon="2.788654"><ele>31.19</ele><time>2025-05-24T22:02:36Z</time></trkpt>
<trkpt lat="50.869303" lon="2.789011"><ele>30.2</ele><time>2025-05-24T22:02:41Z</time></trkpt>
<trkpt lat="50.869472" lon="2.789273"><ele>28.77</ele><time>2025-05-24T22:02:47Z</time></trkpt>
<trkpt lat="50.869597" lon="2.789381"><ele>28.57</ele><time>2025-05-24T22:02:52Z</time></trkpt>
<trkpt lat="50.869938" lon="2.789472"><ele>29.48</ele><time>2025-05-24T22:02:57Z</time></trkpt>
<trkpt lat="50.870297" lon="2.789794"><ele>27.28</ele><time>2025-05-24T22:03:03Z</time></trkpt>
<trkpt lat="50.870882" lon="2.790106"><ele>26.21</ele><time>2025-05-24T22:03:08Z</time></trkpt>
<trkpt lat="50.871336" lon="2.790274"><ele>26.03</ele><time>2025-05-24T22:03:14Z</time></trkpt>
<trkpt lat="50.871477" lon="2.790367"><ele>24.51</ele><time>2025-05-24T22:03:19Z</time></trkpt>
<trkpt lat="50.871562" lon="2.790463"><ele>23.22</ele><time>2025-05-24T22:03:24Z</time></trkpt>
<trkpt lat="50.872121" lon="2.791238"><ele>20.0</ele><time>2025-05-24T22:03:30Z</time></trkpt>
<trkpt lat="50.872461" lon="2.791768"><ele>20.0</ele><time>2025-05-24T22:03:35Z</time></trkpt>
<trkpt lat="50.873284" lon="2.793158"><ele>17.45</ele><time>2025-05-24T22:03:41Z</time></trkpt>
<trkpt lat="50.873883" lon="2.794188"><ele>16.9</ele><time>2025-05-24T22:03:46Z</time></trkpt>
<trkpt lat="50.873887" lon="2.794198"><ele>15.96</ele><time>2025-05-24T22:03:52Z</time></trkpt>
<trkpt lat="50.873887" lon="2.794198"><ele>15.96</ele><time>2025-05-24T22:03:52Z</time></trkpt>
<trkpt lat="50.873883" lon="2.794188"><ele>16.9</ele><time>2025-05-24T22:03:52Z</time></trkpt>
<trkpt lat="50.874165" lon="2.793824"><ele>16.24</ele><time>2025-05-24T22:03:57Z</time></trkpt>
<trkpt lat="50.874584" lon="2.793217"><ele>16.91</ele><time>2025-05-24T22:04:02Z</time></trkpt>
<trkpt lat="50.875132" lon="2.792554"><ele>17.24</ele><time>2025-05-24T22:04:08Z</time></trkpt>
<trkpt lat="50.875348" lon="2.792256"><ele>18.13</ele><time>2025-05-24T22:04:13Z</time></trkpt>
<trkpt lat="50.875616" lon="2.791627"><ele>22.14</ele><time>2025-05-24T22:04:18Z</time></trkpt>
<trkpt lat="50.876036" lon="2.79053"><ele>25.19</ele><time>2025-05-24T22:04:24Z</time></trkpt>
<trkpt lat="50.876109" lon="2.790416"><ele>24.54</ele><time>2025-05-24T22:04:29Z</time></trkpt>
<trkpt lat="50.879252" lon="2.788322"><ele>15.69</ele><time>2025-05-24T22:04:34Z</time></trkpt>
<trkpt lat="50.879805" lon="2.787895"><ele>14.0</ele><time>2025-05-24T22:04:40Z</time></trkpt>
<trkpt lat="50.881451" lon="2.786928"><ele>11.77</ele><time>2025-05-24T22:04:45Z</time></trkpt>
<trkpt lat="50.881596" lon="2.786887"><ele>11.26</ele><time>2025-05-24T22:04:50Z</time></trkpt>
<trkpt lat="50.882088" lon="2.786838"><ele>11.9</ele><time>2025-05-24T22:04:56Z</time></trkpt>
<trkpt lat="50.882144" lon="2.786732"><ele>12.49</ele><time>2025-05-24T22:05:01Z</time></trkpt>
<trkpt lat="50.882612" lon="2.787462"><ele>12.81</ele><time>2025-05-24T22:05:04Z</time></trkpt>
<trkpt lat="50.882614" lon="2.787325"><ele>12.82</ele><time>2025-05-24T22:05:10Z</time></trkpt>
<trkpt lat="50.883363" lon="2.786592"><ele>14.08</ele><time>2025-05-24T22:05:16Z</time></trkpt>
<trkpt lat="50.883799" lon="2.786196"><ele>13.34</ele><time>2025-05-24T22:05:22Z</time></trkpt>
<trkpt lat="50.884166" lon="2.785823"><ele>13.0</ele><time>2025-05-24T22:05:28Z</time></trkpt>
<trkpt lat="50.884912" lon="2.785134"><ele>14.35</ele><time>2025-05-24T22:05:34Z</time></trkpt>
<trkpt lat="50.885708" lon="2.784551"><ele>14.07</ele><time>2025-05-24T22:05:40Z</time></trkpt>
<trkpt lat="50.885903" lon="2.784499"><ele>13.8</ele><time>2025-05-24T22:05:46Z</time></trkpt>
<trkpt lat="50.886293" lon="2.784212"><ele>13.34</ele><time>2025-05-24T22:05:52Z</time></trkpt>
<trkpt lat="50.886884" lon="2.783605"><ele>12.02</ele><time>2025-05-24T22:05:58Z</time></trkpt>
<trkpt lat="50.887182" lon="2.783157"><ele>12.05</ele><time>2025-05-24T22:06:04Z</time></trkpt>
<trkpt lat="50.887606" lon="2.782607"><ele>11.15</ele><time>2025-05-24T22:06:10Z</time></trkpt>
<trkpt lat="50.887727" lon="2.782389"><ele>11.0</ele><time>2025-05-24T22:06:16Z</time></trkpt>
<trkpt lat="50.887818" lon="2.782131"><ele>11.47</ele><time>2025-05-24T22:06:21Z</time></trkpt>
<trkpt lat="50.887875" lon="2.781848"><ele>12.57</ele><time>2025-05-24T22:06:27Z</time></trkpt>
<trkpt lat="50.887968" lon="2.781623"><ele>13.15</ele><time>2025-05-24T22:06:33Z</time></trkpt>
<trkpt lat="50.888087" lon="2.781413"><ele>13.91</ele><time>2025-05-24T22:06:39Z</time></trkpt>
<trkpt lat="50.889494" lon="2.779366"><ele>12.46</ele><time>2025-05-24T22:06:45Z</time></trkpt>
<trkpt lat="50.889843" lon="2.778639"><ele>14.04</ele><time>2025-05-24T22:06:51Z</time></trkpt>
<trkpt lat="50.889992" lon="2.778203"><ele>13.54</ele><time>2025-05-24T22:06:57Z</time></trkpt>
<trkpt lat="50.890121" lon="2.777578"><ele>13.6</ele><time>2025-05-24T22:07:03Z</time></trkpt>
<trkpt lat="50.890232" lon="2.777274"><ele>14.68</ele><time>2025-05-24T22:07:09Z</time></trkpt>
<trkpt lat="50.890336" lon="2.777055"><ele>15.6</ele><time>2025-05-24T22:07:15Z</time></trkpt>
<trkpt lat="50.890641" lon="2.776559"><ele>15.81</ele><time>2025-05-24T22:07:21Z</time></trkpt>
<trkpt lat="50.891206" lon="2.775156"><ele>15.66</ele><time>2025-05-24T22:07:27Z</time></trkpt>
<trkpt lat="50.891432" lon="2.774708"><ele>16.0</ele><time>2025-05-24T22:07:33Z</time></trkpt>
<trkpt lat="50.891654" lon="2.774321"><ele>15.98</ele><time>2025-05-24T22:07:38Z</time></trkpt>
<trkpt lat="50.891907" lon="2.773944"><ele>17.73</ele><time>2025-05-24T22:07:44Z</time></trkpt>
<trkpt lat="50.892012" lon="2.773817"><ele>18.01</ele><time>2025-05-24T22:07:50Z</time></trkpt>
<trkpt lat="50.892019" lon="2.773833"><ele>18.01</ele><time>2025-05-24T22:07:50Z</time></trkpt>
<trkpt lat="50.892019" lon="2.773833"><ele>18.01</ele><time>2025-05-24T22:07:50Z</time></trkpt>
<trkpt lat="50.89042" lon="2.770629"><ele>19.0</ele><time>2025-05-24T22:08:09Z</time></trkpt>
<trkpt lat="50.889508" lon="2.769107"><ele>16.0</ele><time>2025-05-24T22:08:27Z</time></trkpt>
<trkpt lat="50.887743" lon="2.766169"><ele>15.0</ele><time>2025-05-24T22:08:45Z</time></trkpt>
<trkpt lat="50.887495" lon="2.765612"><ele>14.0</ele><time>2025-05-24T22:09:03Z</time></trkpt>
<trkpt lat="50.882681" lon="2.753741"><ele>16.35</ele><time>2025-05-24T22:09:21Z</time></trkpt>
<trkpt lat="50.882688" lon="2.753732"><ele>15.17</ele><time>2025-05-24T22:09:36Z</time></trkpt>
<trkpt lat="50.882688" lon="2.753732"><ele>15.17</ele><time>2025-05-24T22:09:36Z</time></trkpt>
<trkpt lat="50.884468" lon="2.751288"><ele>14.0</ele><time>2025-05-24T22:09:42Z</time></trkpt>
<trkpt lat="50.88458" lon="2.751229"><ele>14.0</ele><time>2025-05-24T22:09:47Z</time></trkpt>
<trkpt lat="50.884667" lon="2.751217"><ele>14.0</ele><time>2025-05-24T22:09:53Z</time></trkpt>
<trkpt lat="50.884923" lon="2.751244"><ele>13.28</ele><time>2025-05-24T22:09:58Z</time></trkpt>
<trkpt lat="50.885097" lon="2.751232"><ele>12.65</ele><time>2025-05-24T22:10:03Z</time></trkpt>
<trkpt lat="50.885218" lon="2.751192"><ele>12.21</ele><time>2025-05-24T22:10:09Z</time></trkpt>
<trkpt lat="50.885325" lon="2.751127"><ele>12.0</ele><time>2025-05-24T22:10:14Z</time></trkpt>
<trkpt lat="50.885472" lon="2.750987"><ele>12.31</ele><time>2025-05-24T22:10:20Z</time></trkpt>
<trkpt lat="50.886167" lon="2.75003"><ele>13.0</ele><time>2025-05-24T22:10:25Z</time></trkpt>
<trkpt lat="50.886632" lon="2.74915"><ele>15.0</ele><time>2025-05-24T22:10:31Z</time></trkpt>
<trkpt lat="50.886715" lon="2.748952"><ele>14.82</ele><time>2025-05-24T22:10:36Z</time></trkpt>
<trkpt lat="50.886833" lon="2.748602"><ele>15.4</ele><time>2025-05-24T22:10:41Z</time></trkpt>
<trkpt lat="50.8869" lon="2.748505"><ele>15.16</ele><time>2025-05-24T22:10:47Z</time></trkpt>
<trkpt lat="50.888124" lon="2.747577"><ele>10.55</ele><time>2025-05-24T22:10:52Z</time></trkpt>
<trkpt lat="50.888475" lon="2.747341"><ele>9.49</ele><time>2025-05-24T22:10:58Z</time></trkpt>
<trkpt lat="50.888618" lon="2.747307"><ele>9.02</ele><time>2025-05-24T22:11:03Z</time></trkpt>
<trkpt lat="50.888972" lon="2.747433"><ele>9.93</ele><time>2025-05-24T22:11:08Z</time></trkpt>
<trkpt lat="50.889176" lon="2.747415"><ele>9.7</ele><time>2025-05-24T22:11:14Z</time></trkpt>
<trkpt lat="50.889257" lon="2.747369"><ele>9.68</ele><time>2025-05-24T22:11:19Z</time></trkpt>
<trkpt lat="50.890362" lon="2.746475"><ele>11.1</ele><time>2025-05-24T22:11:25Z</time></trkpt>
<trkpt lat="50.89069" lon="2.746157"><ele>9.16</ele><time>2025-05-24T22:11:30Z</time></trkpt>
<trkpt lat="50.89113" lon="2.745589"><ele>10.14</ele><time>2025-05-24T22:11:35Z</time></trkpt>
<trkpt lat="50.891679" lon="2.744955"><ele>13.05</ele><time>2025-05-24T22:11:41Z</time></trkpt>
<trkpt lat="50.892225" lon="2.744367"><ele>16.02</ele><time>2025-05-24T22:11:46Z</time></trkpt>
<trkpt lat="50.892406" lon="2.74413"><ele>16.66</ele><time>2025-05-24T22:11:52Z</time></trkpt>
<trkpt lat="50.892455" lon="2.744028"><ele>16.84</ele><time>2025-05-24T22:11:57Z</time></trkpt>
<trkpt lat="50.892498" lon="2.743879"><ele>16.96</ele><time>2025-05-24T22:12:02Z</time></trkpt>
<trkpt lat="50.892683" lon="2.742006"><ele>16.75</ele><time>2025-05-24T22:12:08Z</time></trkpt>
<trkpt lat="50.892666" lon="2.74175"><ele>16.81</ele><time>2025-05-24T22:12:13Z</time></trkpt>
<trkpt lat="50.892627" lon="2.741533"><ele>17.08</ele><time>2025-05-24T22:12:19Z</time></trkpt>
<trkpt lat="50.892402" lon="2.740755"><ele>18.0</ele><time>2025-05-24T22:12:24Z</time></trkpt>
<trkpt lat="50.89237" lon="2.740611"><ele>18.0</ele><time>2025-05-24T22:12:29Z</time></trkpt>
<trkpt lat="50.892367" lon="2.74044"><ele>18.0</ele><time>2025-05-24T22:12:35Z</time></trkpt>
<trkpt lat="50.89233" lon="2.740247"><ele>18.0</ele><time>2025-05-24T22:12:40Z</time></trkpt>
<trkpt lat="50.892236" lon="2.739944"><ele>17.99</ele><time>2025-05-24T22:12:46Z</time></trkpt>
<trkpt lat="50.892222" lon="2.73985"><ele>18.0</ele><time>2025-05-24T22:12:51Z</time></trkpt>
<trkpt lat="50.892318" lon="2.73884"><ele>17.72</ele><time>2025-05-24T22:12:57Z</time></trkpt>
<trkpt lat="50.892288" lon="2.738425"><ele>18.0</ele><time>2025-05-24T22:13:02Z</time></trkpt>
<trkpt lat="50.89181" lon="2.735456"><ele>19.01</ele><time>2025-05-24T22:13:07Z</time></trkpt>
<trkpt lat="50.891806" lon="2.735291"><ele>19.0</ele><time>2025-05-24T22:13:13Z</time></trkpt>
<trkpt lat="50.891988" lon="2.734434"><ele>18.96</ele><time>2025-05-24T22:13:18Z</time></trkpt>
<trkpt lat="50.892046" lon="2.734008"><ele>17.79</ele><time>2025-05-24T22:13:24Z</time></trkpt>
<trkpt lat="50.892006" lon="2.733677"><ele>17.95</ele><time>2025-05-24T22:13:29Z</time></trkpt>
<trkpt lat="50.891946" lon="2.733387"><ele>18.0</ele><time>2025-05-24T22:13:34Z</time></trkpt>
<trkpt lat="50.891556" lon="2.732209"><ele>18.05</ele><time>2025-05-24T22:13:40Z</time></trkpt>
<trkpt lat="50.891509" lon="2.732015"><ele>18.75</ele><time>2025-05-24T22:13:45Z</time></trkpt>
<trkpt lat="50.891289" lon="2.73086"><ele>20.9</ele><time>2025-05-24T22:13:51Z</time></trkpt>
<trkpt lat="50.891157" lon="2.72998"><ele>19.82</ele><time>2025-05-24T22:13:56Z</time></trkpt>
<trkpt lat="50.891075" lon="2.729287"><ele>19.51</ele><time>2025-05-24T22:14:01Z</time></trkpt>
<trkpt lat="50.890966" lon="2.728679"><ele>19.49</ele><time>2025-05-24T22:14:07Z</time></trkpt>
<trkpt lat="50.89027" lon="2.725786"><ele>20.0</ele><time>2025-05-24T22:14:12Z</time></trkpt>
<trkpt lat="50.890499" lon="2.725672"><ele>20.0</ele><time>2025-05-24T22:14:26Z</time></trkpt>
<trkpt lat="50.89168" lon="2.725247"><ele>16.95</ele><time>2025-05-24T22:14:40Z</time></trkpt>
<trkpt lat="50.89191" lon="2.725128"><ele>16.12</ele><time>2025-05-24T22:14:54Z</time></trkpt>
<trkpt lat="50.891991" lon="2.725061"><ele>15.83</ele><time>2025-05-24T22:15:08Z</time></trkpt>
<trkpt lat="50.895342" lon="2.720929"><ele>17.5</ele><time>2025-05-24T22:15:22Z</time></trkpt>
<trkpt lat="50.895637" lon="2.721403"><ele>16.72</ele><time>2025-05-24T22:15:34Z</time></trkpt>
<trkpt lat="50.896697" lon="2.723387"><ele>16.23</ele><time>2025-05-24T22:15:45Z</time></trkpt>
<trkpt lat="50.896697" lon="2.723387"><ele>16.23</ele><time>2025-05-24T22:15:45Z</time></trkpt>
<trkpt lat="50.895637" lon="2.721403"><ele>16.72</ele><time>2025-05-24T22:15:53Z</time></trkpt>
<trkpt lat="50.895342" lon="2.720929"><ele>17.5</ele><time>2025-05-24T22:16:00Z</time></trkpt>
<trkpt lat="50.895179" lon="2.72068"><ele>18.0</ele><time>2025-05-24T22:16:07Z</time></trkpt>
<trkpt lat="50.894636" lon="2.719947"><ele>15.81</ele><time>2025-05-24T22:16:15Z</time></trkpt>
<trkpt lat="50.893843" lon="2.718873"><ele>17.16</ele><time>2025-05-24T22:16:22Z</time></trkpt>
<trkpt lat="50.892621" lon="2.717225"><ele>20.0</ele><time>2025-05-24T22:16:29Z</time></trkpt>
<trkpt lat="50.892522" lon="2.717022"><ele>19.94</ele><time>2025-05-24T22:16:36Z</time></trkpt>
<trkpt lat="50.892491" lon="2.716913"><ele>20.0</ele><time>2025-05-24T22:16:44Z</time></trkpt>
<trkpt lat="50.892451" lon="2.716597"><ele>20.04</ele><time>2025-05-24T22:16:51Z</time></trkpt>
<trkpt lat="50.89247" lon="2.716383"><ele>20.11</ele><time>2025-05-24T22:16:58Z</time></trkpt>
<trkpt lat="50.893187" lon="2.712126"><ele>21.93</ele><time>2025-05-24T22:17:06Z</time></trkpt>
<trkpt lat="50.893211" lon="2.711831"><ele>22.55</ele><time>2025-05-24T22:17:13Z</time></trkpt>
<trkpt lat="50.8932" lon="2.711651"><ele>22.97</ele><time>2025-05-24T22:17:20Z</time></trkpt>
<trkpt lat="50.893169" lon="2.711511"><ele>23.08</ele><time>2025-05-24T22:17:28Z</time></trkpt>
<trkpt lat="50.89297" lon="2.710718"><ele>23.0</ele><time>2025-05-24T22:17:35Z</time></trkpt>
<trkpt lat="50.892862" lon="2.710469"><ele>23.0</ele><time>2025-05-24T22:17:42Z</time></trkpt>
<trkpt lat="50.892688" lon="2.710227"><ele>23.32</ele><time>2025-05-24T22:17:49Z</time></trkpt>
<trkpt lat="50.892378" lon="2.709875"><ele>23.75</ele><time>2025-05-24T22:17:57Z</time></trkpt>
<trkpt lat="50.891616" lon="2.709279"><ele>25.78</ele><time>2025-05-24T22:18:04Z</time></trkpt>
<trkpt lat="50.89159" lon="2.709023"><ele>26.27</ele><time>2025-05-24T22:18:10Z</time></trkpt>
<trkpt lat="50.891444" lon="2.708252"><ele>25.51</ele><time>2025-05-24T22:18:17Z</time></trkpt>
<trkpt lat="50.891387" lon="2.708058"><ele>25.01</ele><time>2025-05-24T22:18:23Z</time></trkpt>
<trkpt lat="50.891287" lon="2.707834"><ele>25.0</ele><time>2025-05-24T22:18:30Z</time></trkpt>
<trkpt lat="50.890818" lon="2.706938"><ele>23.05</ele><time>2025-05-24T22:18:36Z</time></trkpt>
<trkpt lat="50.889904" lon="2.705364"><ele>29.72</ele><time>2025-05-24T22:18:42Z</time></trkpt>
<trkpt lat="50.888968" lon="2.703816"><ele>34.24</ele><time>2025-05-24T22:18:49Z</time></trkpt>
<trkpt lat="50.888611" lon="2.703112"><ele>38.0</ele><time>2025-05-24T22:18:55Z</time></trkpt>
<trkpt lat="50.887968" lon="2.70196"><ele>42.0</ele><time>2025-05-24T22:19:01Z</time></trkpt>
<trkpt lat="50.887894" lon="2.701778"><ele>42.0</ele><time>2025-05-24T22:19:08Z</time></trkpt>
<trkpt lat="50.887488" lon="2.700982"><ele>40.52</ele><time>2025-05-24T22:19:14Z</time></trkpt>
<trkpt lat="50.887239" lon="2.700398"><ele>33.39</ele><time>2025-05-24T22:19:21Z</time></trkpt>
<trkpt lat="50.886633" lon="2.699184"><ele>32.12</ele><time>2025-05-24T22:19:27Z</time></trkpt>
<trkpt lat="50.886593" lon="2.69909"><ele>33.08</ele><time>2025-05-24T22:19:33Z</time></trkpt>
<trkpt lat="50.886568" lon="2.698966"><ele>34.26</ele><time>2025-05-24T22:19:40Z</time></trkpt>
<trkpt lat="50.886568" lon="2.698966"><ele>34.26</ele><time>2025-05-24T22:19:40Z</time></trkpt>
<trkpt lat="50.886593" lon="2.69909"><ele>33.08</ele><time>2025-05-24T22:19:44Z</time></trkpt>
<trkpt lat="50.886633" lon="2.699184"><ele>32.12</ele><time>2025-05-24T22:19:49Z</time></trkpt>
<trkpt lat="50.887239" lon="2.700398"><ele>33.39</ele><time>2025-05-24T22:19:53Z</time></trkpt>
<trkpt lat="50.88767" lon="2.700261"><ele>33.99</ele><time>2025-05-24T22:20:01Z</time></trkpt>
<trkpt lat="50.888299" lon="2.70006"><ele>31.67</ele><time>2025-05-24T22:20:09Z</time></trkpt>
<trkpt lat="50.891477" lon="2.699071"><ele>31.0</ele><time>2025-05-24T22:20:17Z</time></trkpt>
<trkpt lat="50.892199" lon="2.698823"><ele>29.39</ele><time>2025-05-24T22:20:25Z</time></trkpt>
<trkpt lat="50.892726" lon="2.698565"><ele>26.67</ele><time>2025-05-24T22:20:33Z</time></trkpt>
<trkpt lat="50.893422" lon="2.698075"><ele>19.73</ele><time>2025-05-24T22:20:41Z</time></trkpt>
<trkpt lat="50.894731" lon="2.697116"><ele>19.37</ele><time>2025-05-24T22:20:49Z</time></trkpt>
<trkpt lat="50.898343" lon="2.694529"><ele>13.96</ele><time>2025-05-24T22:20:57Z</time></trkpt>
<trkpt lat="50.898574" lon="2.694384"><ele>13.13</ele><time>2025-05-24T22:21:05Z</time></trkpt>
<trkpt lat="50.898974" lon="2.694196"><ele>14.03</ele><time>2025-05-24T22:21:13Z</time></trkpt>
<trkpt lat="50.900834" lon="2.693561"><ele>14.0</ele><time>2025-05-24T22:21:21Z</time></trkpt>
<trkpt lat="50.901183" lon="2.693424"><ele>13.0</ele><time>2025-05-24T22:21:29Z</time></trkpt>
<trkpt lat="50.901524" lon="2.693238"><ele>12.51</ele><time>2025-05-24T22:21:37Z</time></trkpt>
<trkpt lat="50.901853" lon="2.69302"><ele>12.0</ele><time>2025-05-24T22:21:46Z</time></trkpt>
<trkpt lat="50.901529" lon="2.690688"><ele>12.0</ele><time>2025-05-24T22:22:18Z</time></trkpt>
<trkpt lat="50.901857" lon="2.690481"><ele>12.18</ele><time>2025-05-24T22:22:23Z</time></trkpt>
<trkpt lat="50.902178" lon="2.690323"><ele>11.99</ele><time>2025-05-24T22:22:28Z</time></trkpt>
<trkpt lat="50.902414" lon="2.690235"><ele>10.73</ele><time>2025-05-24T22:22:34Z</time></trkpt>
<trkpt lat="50.902877" lon="2.690145"><ele>10.0</ele><time>2025-05-24T22:22:39Z</time></trkpt>
<trkpt lat="50.903106" lon="2.69007"><ele>10.0</ele><time>2025-05-24T22:22:44Z</time></trkpt>
<trkpt lat="50.903377" lon="2.689946"><ele>9.87</ele><time>2025-05-24T22:22:49Z</time></trkpt>
<trkpt lat="50.903425" lon="2.689893"><ele>9.8</ele><time>2025-05-24T22:22:55Z</time></trkpt>
<trkpt lat="50.903599" lon="2.68948"><ele>10.0</ele><time>2025-05-24T22:23:00Z</time></trkpt>
<trkpt lat="50.903685" lon="2.689354"><ele>9.94</ele><time>2025-05-24T22:23:05Z</time></trkpt>
<trkpt lat="50.904106" lon="2.688905"><ele>10.0</ele><time>2025-05-24T22:23:10Z</time></trkpt>
<trkpt lat="50.904621" lon="2.688425"><ele>9.0</ele><time>2025-05-24T22:23:16Z</time></trkpt>
<trkpt lat="50.904908" lon="2.688206"><ele>9.0</ele><time>2025-05-24T22:23:21Z</time></trkpt>
<trkpt lat="50.90542" lon="2.687986"><ele>9.0</ele><time>2025-05-24T22:23:26Z</time></trkpt>
<trkpt lat="50.906022" lon="2.687652"><ele>8.45</ele><time>2025-05-24T22:23:31Z</time></trkpt>
<trkpt lat="50.906686" lon="2.687436"><ele>10.23</ele><time>2025-05-24T22:23:37Z</time></trkpt>
<trkpt lat="50.906827" lon="2.687411"><ele>10.32</ele><time>2025-05-24T22:23:42Z</time></trkpt>
<trkpt lat="50.907589" lon="2.687416"><ele>9.68</ele><time>2025-05-24T22:23:47Z</time></trkpt>
<trkpt lat="50.90827" lon="2.687331"><ele>9.77</ele><time>2025-05-24T22:23:52Z</time></trkpt>
<trkpt lat="50.908952" lon="2.687276"><ele>10.77</ele><time>2025-05-24T22:23:58Z</time></trkpt>
<trkpt lat="50.909436" lon="2.687208"><ele>10.97</ele><time>2025-05-24T22:24:03Z</time></trkpt>
<trkpt lat="50.909573" lon="2.687154"><ele>11.0</ele><time>2025-05-24T22:24:08Z</time></trkpt>
<trkpt lat="50.909616" lon="2.687081"><ele>11.0</ele><time>2025-05-24T22:24:13Z</time></trkpt>
<trkpt lat="50.909643" lon="2.686955"><ele>11.0</ele><time>2025-05-24T22:24:19Z</time></trkpt>
<trkpt lat="50.90965" lon="2.686596"><ele>11.0</ele><time>2025-05-24T22:24:24Z</time></trkpt>
<trkpt lat="50.909677" lon="2.686414"><ele>11.0</ele><time>2025-05-24T22:24:29Z</time></trkpt>
<trkpt lat="50.909825" lon="2.686135"><ele>11.0</ele><time>2025-05-24T22:24:34Z</time></trkpt>
<trkpt lat="50.91008" lon="2.68578"><ele>9.94</ele><time>2025-05-24T22:24:40Z</time></trkpt>
<trkpt lat="50.910727" lon="2.684971"><ele>9.06</ele><time>2025-05-24T22:24:45Z</time></trkpt>
<trkpt lat="50.911232" lon="2.684472"><ele>9.61</ele><time>2025-05-24T22:24:50Z</time></trkpt>
<trkpt lat="50.911646" lon="2.684007"><ele>8.07</ele><time>2025-05-24T22:24:55Z</time></trkpt>
<trkpt lat="50.911746" lon="2.683814"><ele>7.73</ele><time>2025-05-24T22:25:01Z</time></trkpt>
<trkpt lat="50.912013" lon="2.683186"><ele>7.0</ele><time>2025-05-24T22:25:06Z</time></trkpt>
<trkpt lat="50.912096" lon="2.683088"><ele>7.0</ele><time>2025-05-24T22:25:11Z</time></trkpt>
<trkpt lat="50.912187" lon="2.683013"><ele>7.0</ele><time>2025-05-24T22:25:16Z</time></trkpt>
<trkpt lat="50.912518" lon="2.682848"><ele>6.93</ele><time>2025-05-24T22:25:22Z</time></trkpt>
<trkpt lat="50.915057" lon="2.681735"><ele>7.0</ele><time>2025-05-24T22:25:27Z</time></trkpt>
<trkpt lat="50.915878" lon="2.681544"><ele>5.37</ele><time>2025-05-24T22:25:32Z</time></trkpt>
<trkpt lat="50.916477" lon="2.681248"><ele>7.0</ele><time>2025-05-24T22:25:37Z</time></trkpt>
<trkpt lat="50.917857" lon="2.680042"><ele>6.0</ele><time>2025-05-24T22:25:43Z</time></trkpt>
<trkpt lat="50.918112" lon="2.679844"><ele>5.91</ele><time>2025-05-24T22:25:48Z</time></trkpt>
<trkpt lat="50.92018" lon="2.677982"><ele>2.0</ele><time>2025-05-24T22:25:53Z</time></trkpt>
<trkpt lat="50.92244" lon="2.676002"><ele>4.78</ele><time>2025-05-24T22:25:58Z</time></trkpt>
<trkpt lat="50.922592" lon="2.675895"><ele>4.93</ele><time>2025-05-24T22:26:04Z</time></trkpt>
<trkpt lat="50.92285" lon="2.675769"><ele>4.74</ele><time>2025-05-24T22:26:09Z</time></trkpt>
<trkpt lat="50.921746" lon="2.671628"><ele>4.85</ele><time>2025-05-24T22:26:33Z</time></trkpt>
<trkpt lat="50.921713" lon="2.67156"><ele>5.22</ele><time>2025-05-24T22:26:57Z</time></trkpt>
<trkpt lat="50.922291" lon="2.670723"><ele>5.75</ele><time>2025-05-24T22:27:03Z</time></trkpt>
<trkpt lat="50.922665" lon="2.670128"><ele>5.0</ele><time>2025-05-24T22:27:09Z</time></trkpt>
<trkpt lat="50.923043" lon="2.669465"><ele>4.0</ele><time>2025-05-24T22:27:15Z</time></trkpt>
<trkpt lat="50.923412" lon="2.668868"><ele>2.28</ele><time>2025-05-24T22:27:21Z</time></trkpt>
<trkpt lat="50.924208" lon="2.667768"><ele>4.03</ele><time>2025-05-24T22:27:27Z</time></trkpt>
<trkpt lat="50.924239" lon="2.667692"><ele>4.23</ele><time>2025-05-24T22:27:33Z</time></trkpt>
<trkpt lat="50.92424" lon="2.667609"><ele>4.45</ele><time>2025-05-24T22:27:39Z</time></trkpt>
<trkpt lat="50.924213" lon="2.66749"><ele>4.83</ele><time>2025-05-24T22:27:44Z</time></trkpt>
<trkpt lat="50.923852" lon="2.666248"><ele>6.0</ele><time>2025-05-24T22:27:50Z</time></trkpt>
<trkpt lat="50.923808" lon="2.666049"><ele>5.93</ele><time>2025-05-24T22:27:56Z</time></trkpt>
<trkpt lat="50.923821" lon="2.665925"><ele>5.84</ele><time>2025-05-24T22:28:02Z</time></trkpt>
<trkpt lat="50.923881" lon="2.665841"><ele>5.97</ele><time>2025-05-24T22:28:08Z</time></trkpt>
<trkpt lat="50.925601" lon="2.664594"><ele>5.4</ele><time>2025-05-24T22:28:14Z</time></trkpt>
<trkpt lat="50.925601" lon="2.664594"><ele>5.4</ele><time>2025-05-24T22:28:14Z</time></trkpt>
<trkpt lat="50.925605" lon="2.664591"><ele>4.82</ele><time>2025-05-24T22:28:14Z</time></trkpt>
<trkpt lat="50.924715" lon="2.662465"><ele>3.0</ele><time>2025-05-24T22:28:24Z</time></trkpt>
<trkpt lat="50.924651" lon="2.662244"><ele>3.0</ele><time>2025-05-24T22:28:34Z</time></trkpt>
<trkpt lat="50.924578" lon="2.6618"><ele>3.52</ele><time>2025-05-24T22:28:44Z</time></trkpt>
<trkpt lat="50.924512" lon="2.661559"><ele>3.76</ele><time>2025-05-24T22:28:55Z</time></trkpt>
<trkpt lat="50.923753" lon="2.659599"><ele>4.0</ele><time>2025-05-24T22:29:05Z</time></trkpt>
<trkpt lat="50.921546" lon="2.655714"><ele>3.0</ele><time>2025-05-24T22:29:15Z</time></trkpt>
<trkpt lat="50.921467" lon="2.655647"><ele>3.0</ele><time>2025-05-24T22:29:25Z</time></trkpt>
<trkpt lat="50.921219" lon="2.655595"><ele>3.0</ele><time>2025-05-24T22:29:35Z</time></trkpt>
<trkpt lat="50.920907" lon="2.655629"><ele>3.0</ele><time>2025-05-24T22:29:45Z</time></trkpt>
<trkpt lat="50.917811" lon="2.656257"><ele>6.0</ele><time>2025-05-24T22:29:55Z</time></trkpt>
<trkpt lat="50.917136" lon="2.65635"><ele>6.31</ele><time>2025-05-24T22:30:05Z</time></trkpt>
<trkpt lat="50.916731" lon="2.656382"><ele>7.0</ele><time>2025-05-24T22:30:15Z</time></trkpt>
<trkpt lat="50.916428" lon="2.6564"><ele>6.13</ele><time>2025-05-24T22:30:26Z</time></trkpt>
<trkpt lat="50.91626" lon="2.656369"><ele>6.47</ele><time>2025-05-24T22:30:36Z</time></trkpt>
<trkpt lat="50.916307" lon="2.653984"><ele>5.7</ele><time>2025-05-24T22:30:44Z</time></trkpt>
<trkpt lat="50.916369" lon="2.653511"><ele>5.0</ele><time>2025-05-24T22:30:52Z</time></trkpt>
<trkpt lat="50.916418" lon="2.653307"><ele>4.98</ele><time>2025-05-24T22:31:00Z</time></trkpt>
<trkpt lat="50.917106" lon="2.650868"><ele>5.88</ele><time>2025-05-24T22:31:08Z</time></trkpt>
<trkpt lat="50.917184" lon="2.650454"><ele>6.0</ele><time>2025-05-24T22:31:16Z</time></trkpt>
<trkpt lat="50.917228" lon="2.650014"><ele>6.0</ele><time>2025-05-24T22:31:24Z</time></trkpt>
<trkpt lat="50.917642" lon="2.638728"><ele>4.2</ele><time>2025-05-24T22:31:32Z</time></trkpt>
<trkpt lat="50.918248" lon="2.632757"><ele>5.62</ele><time>2025-05-24T22:31:41Z</time></trkpt>
<trkpt lat="50.918349" lon="2.630378"><ele>5.98</ele><time>2025-05-24T22:31:49Z</time></trkpt>
<trkpt lat="50.91852" lon="2.62764"><ele>4.66</ele><time>2025-05-24T22:31:57Z</time></trkpt>
<trkpt lat="50.918507" lon="2.627099"><ele>5.0</ele><time>2025-05-24T22:32:05Z</time></trkpt>
<trkpt lat="50.918461" lon="2.62631"><ele>4.0</ele><time>2025-05-24T22:32:13Z</time></trkpt>
<trkpt lat="50.918381" lon="2.625622"><ele>4.0</ele><time>2025-05-24T22:32:21Z</time></trkpt>
<trkpt lat="50.918335" lon="2.625484"><ele>4.26</ele><time>2025-05-24T22:32:29Z</time></trkpt>
<trkpt lat="50.918366" lon="2.625447"><ele>4.28</ele><time>2025-05-24T22:32:30Z</time></trkpt>
<trkpt lat="50.918366" lon="2.625447"><ele>4.28</ele><time>2025-05-24T22:32:30Z</time></trkpt>
<trkpt lat="50.91883" lon="2.624916"><ele>4.3</ele><time>2025-05-24T22:32:36Z</time></trkpt>
<trkpt lat="50.91955" lon="2.623823"><ele>7.38</ele><time>2025-05-24T22:32:41Z</time></trkpt>
<trkpt lat="50.919836" lon="2.623429"><ele>5.2</ele><time>2025-05-24T22:32:47Z</time></trkpt>
<trkpt lat="50.920131" lon="2.622914"><ele>3.42</ele><time>2025-05-24T22:32:53Z</time></trkpt>
<trkpt lat="50.920228" lon="2.622741"><ele>2.97</ele><time>2025-05-24T22:32:59Z</time></trkpt>
<trkpt lat="50.920235" lon="2.622727"><ele>2.97</ele><time>2025-05-24T22:33:05Z</time></trkpt>
<trkpt lat="50.921258" lon="2.620937"><ele>4.53</ele><time>2025-05-24T22:33:11Z</time></trkpt>
<trkpt lat="50.921551" lon="2.620454"><ele>5.95</ele><time>2025-05-24T22:33:17Z</time></trkpt>
<trkpt lat="50.922094" lon="2.619771"><ele>5.17</ele><time>2025-05-24T22:33:22Z</time></trkpt>
<trkpt lat="50.922439" lon="2.619393"><ele>5.0</ele><time>2025-05-24T22:33:28Z</time></trkpt>
<trkpt lat="50.923288" lon="2.618384"><ele>3.16</ele><time>2025-05-24T22:33:34Z</time></trkpt>
<trkpt lat="50.923822" lon="2.61794"><ele>3.76</ele><time>2025-05-24T22:33:40Z</time></trkpt>
<trkpt lat="50.924063" lon="2.617801"><ele>4.57</ele><time>2025-05-24T22:33:46Z</time></trkpt>
<trkpt lat="50.92428" lon="2.617778"><ele>5.41</ele><time>2025-05-24T22:33:52Z</time></trkpt>
<trkpt lat="50.9243" lon="2.617557"><ele>5.48</ele><time>2025-05-24T22:33:57Z</time></trkpt>
<trkpt lat="50.924354" lon="2.617454"><ele>5.68</ele><time>2025-05-24T22:34:03Z</time></trkpt>
<trkpt lat="50.924853" lon="2.617076"><ele>6.47</ele><time>2025-05-24T22:34:09Z</time></trkpt>
<trkpt lat="50.925127" lon="2.616912"><ele>6.45</ele><time>2025-05-24T22:34:14Z</time></trkpt>
<trkpt lat="50.92542" lon="2.616853"><ele>7.51</ele><time>2025-05-24T22:34:20Z</time></trkpt>
<trkpt lat="50.925574" lon="2.616859"><ele>8.06</ele><time>2025-05-24T22:34:26Z</time></trkpt>
<trkpt lat="50.926129" lon="2.616986"><ele>11.06</ele><time>2025-05-24T22:34:32Z</time></trkpt>
<trkpt lat="50.926626" lon="2.617009"><ele>12.0</ele><time>2025-05-24T22:34:37Z</time></trkpt>
<trkpt lat="50.927259" lon="2.616935"><ele>11.0</ele><time>2025-05-24T22:34:43Z</time></trkpt>
<trkpt lat="50.927534" lon="2.616933"><ele>11.12</ele><time>2025-05-24T22:34:49Z</time></trkpt>
<trkpt lat="50.927853" lon="2.616967"><ele>11.73</ele><time>2025-05-24T22:34:54Z</time></trkpt>
<trkpt lat="50.929596" lon="2.616957"><ele>8.44</ele><time>2025-05-24T22:35:00Z</time></trkpt>
<trkpt lat="50.930487" lon="2.616766"><ele>9.75</ele><time>2025-05-24T22:35:06Z</time></trkpt>
<trkpt lat="50.931013" lon="2.616728"><ele>10.27</ele><time>2025-05-24T22:35:11Z</time></trkpt>
<trkpt lat="50.931381" lon="2.616663"><ele>9.98</ele><time>2025-05-24T22:35:17Z</time></trkpt>
<trkpt lat="50.931684" lon="2.616489"><ele>9.4</ele><time>2025-05-24T22:35:23Z</time></trkpt>
<trkpt lat="50.931994" lon="2.616264"><ele>10.18</ele><time>2025-05-24T22:35:29Z</time></trkpt>
<trkpt lat="50.932261" lon="2.616146"><ele>11.0</ele><time>2025-05-24T22:35:34Z</time></trkpt>
<trkpt lat="50.932532" lon="2.61608"><ele>11.0</ele><time>2025-05-24T22:35:40Z</time></trkpt>
<trkpt lat="50.932576" lon="2.616027"><ele>11.0</ele><time>2025-05-24T22:35:46Z</time></trkpt>
<trkpt lat="50.932816" lon="2.616204"><ele>10.86</ele><time>2025-05-24T22:35:48Z</time></trkpt>
<trkpt lat="50.932883" lon="2.616287"><ele>10.62</ele><time>2025-05-24T22:35:50Z</time></trkpt>
<trkpt lat="50.933001" lon="2.616221"><ele>10.2</ele><time>2025-05-24T22:35:53Z</time></trkpt>
<trkpt lat="50.933097" lon="2.616202"><ele>10.0</ele><time>2025-05-24T22:35:56Z</time></trkpt>
<trkpt lat="50.933713" lon="2.616262"><ele>10.0</ele><time>2025-05-24T22:36:00Z</time></trkpt>
<trkpt lat="50.934245" lon="2.616385"><ele>10.0</ele><time>2025-05-24T22:36:03Z</time></trkpt>
<trkpt lat="50.934496" lon="2.616353"><ele>10.0</ele><time>2025-05-24T22:36:06Z</time></trkpt>
<trkpt lat="50.934914" lon="2.61617"><ele>10.0</ele><time>2025-05-24T22:36:10Z</time></trkpt>
<trkpt lat="50.935621" lon="2.615799"><ele>9.0</ele><time>2025-05-24T22:36:13Z</time></trkpt>
<trkpt lat="50.935923" lon="2.615609"><ele>9.0</ele><time>2025-05-24T22:36:16Z</time></trkpt>
<trkpt lat="50.93662" lon="2.615012"><ele>9.0</ele><time>2025-05-24T22:36:20Z</time></trkpt>
<trkpt lat="50.937234" lon="2.614666"><ele>8.19</ele><time>2025-05-24T22:36:23Z</time></trkpt>
<trkpt lat="50.937528" lon="2.614445"><ele>8.0</ele><time>2025-05-24T22:36:26Z</time></trkpt>
<trkpt lat="50.937529" lon="2.614448"><ele>8.0</ele><time>2025-05-24T22:36:26Z</time></trkpt>
<trkpt lat="50.937529" lon="2.614448"><ele>8.0</ele><time>2025-05-24T22:36:26Z</time></trkpt>
<trkpt lat="50.937564" lon="2.614509"><ele>8.0</ele><time>2025-05-24T22:36:31Z</time></trkpt>
<trkpt lat="50.937815" lon="2.614704"><ele>8.0</ele><time>2025-05-24T22:36:36Z</time></trkpt>
<trkpt lat="50.938302" lon="2.615216"><ele>8.89</ele><time>2025-05-24T22:36:42Z</time></trkpt>
<trkpt lat="50.938685" lon="2.615525"><ele>9.97</ele><time>2025-05-24T22:36:47Z</time></trkpt>
<trkpt lat="50.939061" lon="2.615733"><ele>9.38</ele><time>2025-05-24T22:36:52Z</time></trkpt>
<trkpt lat="50.939384" lon="2.615837"><ele>7.42</ele><time>2025-05-24T22:36:57Z</time></trkpt>
<trkpt lat="50.93996" lon="2.61598"><ele>5.0</ele><time>2025-05-24T22:37:02Z</time></trkpt>
<trkpt lat="50.940576" lon="2.616227"><ele>7.0</ele><time>2025-05-24T22:37:07Z</time></trkpt>
<trkpt lat="50.9411" lon="2.616293"><ele>7.96</ele><time>2025-05-24T22:37:12Z</time></trkpt>
<trkpt lat="50.943469" lon="2.61649"><ele>8.82</ele><time>2025-05-24T22:37:17Z</time></trkpt>
<trkpt lat="50.944211" lon="2.616481"><ele>8.72</ele><time>2025-05-24T22:37:23Z</time></trkpt>
<trkpt lat="50.944963" lon="2.616624"><ele>9.02</ele><time>2025-05-24T22:37:28Z</time></trkpt>
<trkpt lat="50.945436" lon="2.616678"><ele>9.14</ele><time>2025-05-24T22:37:33Z</time></trkpt>
<trkpt lat="50.946385" lon="2.616604"><ele>8.24</ele><time>2025-05-24T22:37:38Z</time></trkpt>
<trkpt lat="50.947288" lon="2.616727"><ele>10.0</ele><time>2025-05-24T22:37:43Z</time></trkpt>
<trkpt lat="50.949808" lon="2.616797"><ele>12.0</ele><time>2025-05-24T22:37:48Z</time></trkpt>
<trkpt lat="50.95089" lon="2.616949"><ele>11.0</ele><time>2025-05-24T22:37:53Z</time></trkpt>
<trkpt lat="50.95129" lon="2.616963"><ele>11.0</ele><time>2025-05-24T22:37:58Z</time></trkpt>
<trkpt lat="50.951452" lon="2.616957"><ele>11.23</ele><time>2025-05-24T22:38:01Z</time></trkpt>
<trkpt lat="50.952087" lon="2.617241"><ele>13.0</ele><time>2025-05-24T22:38:04Z</time></trkpt>
<trkpt lat="50.952167" lon="2.617418"><ele>13.0</ele><time>2025-05-24T22:38:06Z</time></trkpt>
<trkpt lat="50.95257" lon="2.618021"><ele>11.75</ele><time>2025-05-24T22:38:09Z</time></trkpt>
<trkpt lat="50.953328" lon="2.619255"><ele>11.66</ele><time>2025-05-24T22:38:11Z</time></trkpt>
<trkpt lat="50.953733" lon="2.619884"><ele>12.0</ele><time>2025-05-24T22:38:14Z</time></trkpt>
<trkpt lat="50.954017" lon="2.620273"><ele>12.0</ele><time>2025-05-24T22:38:16Z</time></trkpt>
<trkpt lat="50.95448" lon="2.621094"><ele>11.99</ele><time>2025-05-24T22:38:19Z</time></trkpt>
<trkpt lat="50.954657" lon="2.621454"><ele>12.18</ele><time>2025-05-24T22:38:22Z</time></trkpt>
<trkpt lat="50.954716" lon="2.621614"><ele>12.79</ele><time>2025-05-24T22:38:24Z</time></trkpt>
<trkpt lat="50.95476" lon="2.621769"><ele>12.86</ele><time>2025-05-24T22:38:27Z</time></trkpt>
<trkpt lat="50.954803" lon="2.622011"><ele>12.78</ele><time>2025-05-24T22:38:29Z</time></trkpt>
<trkpt lat="50.954809" lon="2.622248"><ele>13.0</ele><time>2025-05-24T22:38:32Z</time></trkpt>
<trkpt lat="50.954771" lon="2.622617"><ele>12.93</ele><time>2025-05-24T22:38:34Z</time></trkpt>
<trkpt lat="50.954705" lon="2.622878"><ele>13.0</ele><time>2025-05-24T22:38:37Z</time></trkpt>
<trkpt lat="50.954674" lon="2.62307"><ele>12.95</ele><time>2025-05-24T22:38:39Z</time></trkpt>
<trkpt lat="50.954697" lon="2.623324"><ele>12.03</ele><time>2025-05-24T22:38:42Z</time></trkpt>
<trkpt lat="50.955309" lon="2.625992"><ele>14.46</ele><time>2025-05-24T22:38:44Z</time></trkpt>
<trkpt lat="50.955326" lon="2.626111"><ele>14.82</ele><time>2025-05-24T22:38:47Z</time></trkpt>
<trkpt lat="50.955329" lon="2.626339"><ele>14.14</ele><time>2025-05-24T22:38:49Z</time></trkpt>
<trkpt lat="50.955697" lon="2.626544"><ele>13.22</ele><time>2025-05-24T22:38:51Z</time></trkpt>
<trkpt lat="50.95577" lon="2.626559"><ele>13.04</ele><time>2025-05-24T22:38:53Z</time></trkpt>
<trkpt lat="50.95577" lon="2.626559"><ele>13.04</ele><time>2025-05-24T22:38:53Z</time></trkpt>
<trkpt lat="50.956009" lon="2.626545"><ele>13.0</ele><time>2025-05-24T22:38:55Z</time></trkpt>
<trkpt lat="50.956475" lon="2.626435"><ele>11.69</ele><time>2025-05-24T22:38:57Z</time></trkpt>
<trkpt lat="50.956681" lon="2.626331"><ele>11.05</ele><time>2025-05-24T22:39:00Z</time></trkpt>
<trkpt lat="50.957045" lon="2.625926"><ele>12.67</ele><time>2025-05-24T22:39:02Z</time></trkpt>
<trkpt lat="50.957446" lon="2.625274"><ele>13.19</ele><time>2025-05-24T22:39:04Z</time></trkpt>
<trkpt lat="50.957681" lon="2.624932"><ele>13.16</ele><time>2025-05-24T22:39:06Z</time></trkpt>
<trkpt lat="50.957969" lon="2.624612"><ele>14.69</ele><time>2025-05-24T22:39:09Z</time></trkpt>
<trkpt lat="50.958339" lon="2.624297"><ele>13.98</ele><time>2025-05-24T22:39:11Z</time></trkpt>
<trkpt lat="50.958581" lon="2.624153"><ele>13.11</ele><time>2025-05-24T22:39:13Z</time></trkpt>
<trkpt lat="50.958798" lon="2.624087"><ele>13.0</ele><time>2025-05-24T22:39:16Z</time></trkpt>
<trkpt lat="50.959068" lon="2.624074"><ele>13.0</ele><time>2025-05-24T22:39:18Z</time></trkpt>
<trkpt lat="50.959151" lon="2.624048"><ele>13.0</ele><time>2025-05-24T22:39:20Z</time></trkpt>
<trkpt lat="50.95922" lon="2.623998"><ele>12.81</ele><time>2025-05-24T22:39:22Z</time></trkpt>
<trkpt lat="50.959428" lon="2.623751"><ele>12.55</ele><time>2025-05-24T22:39:25Z</time></trkpt>
<trkpt lat="50.959831" lon="2.623149"><ele>13.13</ele><time>2025-05-24T22:39:27Z</time></trkpt>
<trkpt lat="50.960092" lon="2.622841"><ele>13.33</ele><time>2025-05-24T22:39:29Z</time></trkpt>
<trkpt lat="50.960314" lon="2.622639"><ele>13.56</ele><time>2025-05-24T22:39:32Z</time></trkpt>
<trkpt lat="50.961448" lon="2.621924"><ele>15.21</ele><time>2025-05-24T22:39:34Z</time></trkpt>
<trkpt lat="50.961627" lon="2.621867"><ele>15.86</ele><time>2025-05-24T22:39:36Z</time></trkpt>
<trkpt lat="50.961897" lon="2.621848"><ele>16.83</ele><time>2025-05-24T22:39:38Z</time></trkpt>
<trkpt lat="50.962094" lon="2.621776"><ele>17.0</ele><time>2025-05-24T22:39:41Z</time></trkpt>
<trkpt lat="50.962545" lon="2.621405"><ele>15.21</ele><time>2025-05-24T22:39:43Z</time></trkpt>
<trkpt lat="50.962754" lon="2.62129"><ele>15.91</ele><time>2025-05-24T22:39:45Z</time></trkpt>
<trkpt lat="50.962972" lon="2.62122"><ele>16.0</ele><time>2025-05-24T22:39:48Z</time></trkpt>
<trkpt lat="50.963443" lon="2.62114"><ele>15.6</ele><time>2025-05-24T22:39:50Z</time></trkpt>
<trkpt lat="50.96405" lon="2.620955"><ele>14.25</ele><time>2025-05-24T22:39:52Z</time></trkpt>
<trkpt lat="50.964158" lon="2.620947"><ele>14.4</ele><time>2025-05-24T22:39:54Z</time></trkpt>
<trkpt lat="50.96426" lon="2.620969"><ele>14.32</ele><time>2025-05-24T22:39:57Z</time></trkpt>
<trkpt lat="50.964368" lon="2.621038"><ele>14.2</ele><time>2025-05-24T22:39:59Z</time></trkpt>
<trkpt lat="50.96459" lon="2.621237"><ele>13.48</ele><time>2025-05-24T22:40:01Z</time></trkpt>
<trkpt lat="50.964698" lon="2.621239"><ele>13.09</ele><time>2025-05-24T22:40:03Z</time></trkpt>
<trkpt lat="50.964782" lon="2.6212"><ele>13.0</ele><time>2025-05-24T22:40:06Z</time></trkpt>
<trkpt lat="50.965995" lon="2.62002"><ele>13.0</ele><time>2025-05-24T22:40:08Z</time></trkpt>
<trkpt lat="50.966092" lon="2.619873"><ele>12.57</ele><time>2025-05-24T22:40:10Z</time></trkpt>
<trkpt lat="50.966279" lon="2.619468"><ele>12.0</ele><time>2025-05-24T22:40:13Z</time></trkpt>
<trkpt lat="50.966393" lon="2.619336"><ele>12.01</ele><time>2025-05-24T22:40:15Z</time></trkpt>
<trkpt lat="50.966581" lon="2.619273"><ele>12.69</ele><time>2025-05-24T22:40:17Z</time></trkpt>
<trkpt lat="50.96673" lon="2.619268"><ele>12.69</ele><time>2025-05-24T22:40:19Z</time></trkpt>
<trkpt lat="50.966889" lon="2.619313"><ele>11.78</ele><time>2025-05-24T22:40:22Z</time></trkpt>
<trkpt lat="50.96719" lon="2.619477"><ele>11.0</ele><time>2025-05-24T22:40:24Z</time></trkpt>
<trkpt lat="50.967282" lon="2.619474"><ele>11.22</ele><time>2025-05-24T22:40:26Z</time></trkpt>
<trkpt lat="50.967375" lon="2.619426"><ele>11.58</ele><time>2025-05-24T22:40:29Z</time></trkpt>
<trkpt lat="50.967516" lon="2.619254"><ele>12.06</ele><time>2025-05-24T22:40:31Z</time></trkpt>
<trkpt lat="50.967871" lon="2.618712"><ele>13.97</ele><time>2025-05-24T22:40:33Z</time></trkpt>
<trkpt lat="50.968578" lon="2.617802"><ele>16.12</ele><time>2025-05-24T22:40:35Z</time></trkpt>
<trkpt lat="50.96873" lon="2.617637"><ele>16.08</ele><time>2025-05-24T22:40:38Z</time></trkpt>
<trkpt lat="50.968777" lon="2.617694"><ele>15.7</ele><time>2025-05-24T22:40:44Z</time></trkpt>
<trkpt lat="50.968845" lon="2.617724"><ele>15.35</ele><time>2025-05-24T22:40:50Z</time></trkpt>
<trkpt lat="50.9693" lon="2.617797"><ele>13.0</ele><time>2025-05-24T22:40:57Z</time></trkpt>
<trkpt lat="50.97" lon="2.617869"><ele>13.0</ele><time>2025-05-24T22:41:03Z</time></trkpt>
<trkpt lat="50.970978" lon="2.617848"><ele>14.48</ele><time>2025-05-24T22:41:09Z</time></trkpt>
<trkpt lat="50.971251" lon="2.617823"><ele>13.5</ele><time>2025-05-24T22:41:16Z</time></trkpt>
<trkpt lat="50.971526" lon="2.61783"><ele>13.0</ele><time>2025-05-24T22:41:22Z</time></trkpt>
<trkpt lat="50.973278" lon="2.617982"><ele>12.15</ele><time>2025-05-24T22:41:29Z</time></trkpt>
<trkpt lat="50.973414" lon="2.618007"><ele>11.71</ele><time>2025-05-24T22:41:35Z</time></trkpt>
<trkpt lat="50.974352" lon="2.618353"><ele>9.0</ele><time>2025-05-24T22:41:41Z</time></trkpt>
<trkpt lat="50.974692" lon="2.618407"><ele>9.0</ele><time>2025-05-24T22:41:48Z</time></trkpt>
<trkpt lat="50.975895" lon="2.618299"><ele>10.12</ele><time>2025-05-24T22:41:54Z</time></trkpt>
<trkpt lat="50.976279" lon="2.618298"><ele>10.65</ele><time>2025-05-24T22:42:00Z</time></trkpt>
<trkpt lat="50.976582" lon="2.618352"><ele>10.98</ele><time>2025-05-24T22:42:07Z</time></trkpt>
<trkpt lat="50.976934" lon="2.618504"><ele>10.04</ele><time>2025-05-24T22:42:13Z</time></trkpt>
<trkpt lat="50.976707" lon="2.620299"><ele>9.0</ele><time>2025-05-24T22:42:17Z</time></trkpt>
<trkpt lat="50.976633" lon="2.62082"><ele>9.0</ele><time>2025-05-24T22:42:21Z</time></trkpt>
<trkpt lat="50.976557" lon="2.621216"><ele>9.39</ele><time>2025-05-24T22:42:25Z</time></trkpt>
<trkpt lat="50.976494" lon="2.621492"><ele>9.62</ele><time>2025-05-24T22:42:30Z</time></trkpt>
<trkpt lat="50.975967" lon="2.623335"><ele>10.0</ele><time>2025-05-24T22:42:34Z</time></trkpt>
<trkpt lat="50.975817" lon="2.623959"><ele>10.0</ele><time>2025-05-24T22:42:38Z</time></trkpt>
<trkpt lat="50.975702" lon="2.624595"><ele>11.0</ele><time>2025-05-24T22:42:42Z</time></trkpt>
<trkpt lat="50.975602" lon="2.625323"><ele>9.84</ele><time>2025-05-24T22:42:46Z</time></trkpt>
<trkpt lat="50.975398" lon="2.627499"><ele>9.0</ele><time>2025-05-24T22:42:50Z</time></trkpt>
<trkpt lat="50.97535" lon="2.627848"><ele>9.74</ele><time>2025-05-24T22:42:54Z</time></trkpt>
<trkpt lat="50.975231" lon="2.628319"><ele>10.0</ele><time>2025-05-24T22:42:59Z</time></trkpt>
<trkpt lat="50.975143" lon="2.628798"><ele>10.0</ele><time>2025-05-24T22:43:01Z</time></trkpt>
<trkpt lat="50.975558" lon="2.628734"><ele>9.99</ele><time>2025-05-24T22:43:06Z</time></trkpt>
<trkpt lat="50.976366" lon="2.628781"><ele>8.03</ele><time>2025-05-24T22:43:11Z</time></trkpt>
<trkpt lat="50.977915" lon="2.629198"><ele>7.56</ele><time>2025-05-24T22:43:16Z</time></trkpt>
<trkpt lat="50.978141" lon="2.629222"><ele>7.06</ele><time>2025-05-24T22:43:21Z</time></trkpt>
<trkpt lat="50.980836" lon="2.629023"><ele>8.0</ele><time>2025-05-24T22:43:26Z</time></trkpt>
<trkpt lat="50.981014" lon="2.628986"><ele>8.0</ele><time>2025-05-24T22:43:31Z</time></trkpt>
<trkpt lat="50.981192" lon="2.628915"><ele>8.0</ele><time>2025-05-24T22:43:36Z</time></trkpt>
<trkpt lat="50.981297" lon="2.628842"><ele>8.06</ele><time>2025-05-24T22:43:41Z</time></trkpt>
<trkpt lat="50.981558" lon="2.628587"><ele>7.39</ele><time>2025-05-24T22:43:46Z</time></trkpt>
<trkpt lat="50.981787" lon="2.628279"><ele>7.2</ele><time>2025-05-24T22:43:51Z</time></trkpt>
<trkpt lat="50.982487" lon="2.627167"><ele>8.99</ele><time>2025-05-24T22:43:56Z</time></trkpt>
<trkpt lat="50.982773" lon="2.626625"><ele>8.02</ele><time>2025-05-24T22:44:00Z</time></trkpt>
<trkpt lat="50.983134" lon="2.62582"><ele>7.72</ele><time>2025-05-24T22:44:05Z</time></trkpt>
<trkpt lat="50.983545" lon="2.624832"><ele>8.0</ele><time>2025-05-24T22:44:10Z</time></trkpt>
<trkpt lat="50.9837" lon="2.62441"><ele>8.0</ele><time>2025-05-24T22:44:15Z</time></trkpt>
<trkpt lat="50.984205" lon="2.622675"><ele>8.32</ele><time>2025-05-24T22:44:20Z</time></trkpt>
<trkpt lat="50.984247" lon="2.622566"><ele>8.54</ele><time>2025-05-24T22:44:25Z</time></trkpt>
<trkpt lat="50.984291" lon="2.622521"><ele>8.51</ele><time>2025-05-24T22:44:30Z</time></trkpt>
<trkpt lat="50.984339" lon="2.622525"><ele>8.35</ele><time>2025-05-24T22:44:37Z</time></trkpt>
<trkpt lat="50.984553" lon="2.622759"><ele>7.61</ele><time>2025-05-24T22:44:43Z</time></trkpt>
<trkpt lat="50.984699" lon="2.622882"><ele>7.08</ele><time>2025-05-24T22:44:50Z</time></trkpt>
<trkpt lat="50.985555" lon="2.623511"><ele>7.0</ele><time>2025-05-24T22:44:56Z</time></trkpt>
<trkpt lat="50.986822" lon="2.620392"><ele>5.68</ele><time>2025-05-24T22:45:20Z</time></trkpt>
<trkpt lat="50.986822" lon="2.620392"><ele>5.68</ele><time>2025-05-24T22:45:20Z</time></trkpt>
<trkpt lat="50.986826" lon="2.62038"><ele>5.36</ele><time>2025-05-24T22:45:24Z</time></trkpt>
<trkpt lat="50.987716" lon="2.618217"><ele>1.67</ele><time>2025-05-24T22:45:28Z</time></trkpt>
<trkpt lat="50.987983" lon="2.617543"><ele>2.7</ele><time>2025-05-24T22:45:32Z</time></trkpt>
<trkpt lat="50.988781" lon="2.615391"><ele>2.23</ele><time>2025-05-24T22:45:36Z</time></trkpt>
<trkpt lat="50.988998" lon="2.614913"><ele>2.0</ele><time>2025-05-24T22:45:40Z</time></trkpt>
<trkpt lat="50.98923" lon="2.614464"><ele>2.23</ele><time>2025-05-24T22:45:44Z</time></trkpt>
<trkpt lat="50.990095" lon="2.613173"><ele>0.42</ele><time>2025-05-24T22:45:48Z</time></trkpt>
<trkpt lat="50.990369" lon="2.612767"><ele>-0.64</ele><time>2025-05-24T22:45:52Z</time></trkpt>
<trkpt lat="50.990501" lon="2.612535"><ele>-0.02</ele><time>2025-05-24T22:45:56Z</time></trkpt>
<trkpt lat="50.990618" lon="2.612281"><ele>0.0</ele><time>2025-05-24T22:46:00Z</time></trkpt>
<trkpt lat="50.990725" lon="2.611979"><ele>0.0</ele><time>2025-05-24T22:46:04Z</time></trkpt>
<trkpt lat="50.990799" lon="2.611701"><ele>0.0</ele><time>2025-05-24T22:46:08Z</time></trkpt>
<trkpt lat="50.991096" lon="2.610197"><ele>2.0</ele><time>2025-05-24T22:46:11Z</time></trkpt>
<trkpt lat="50.991206" lon="2.609855"><ele>1.66</ele><time>2025-05-24T22:46:15Z</time></trkpt>
<trkpt lat="50.991329" lon="2.609556"><ele>1.78</ele><time>2025-05-24T22:46:19Z</time></trkpt>
<trkpt lat="50.991489" lon="2.609269"><ele>1.37</ele><time>2025-05-24T22:46:23Z</time></trkpt>
<trkpt lat="50.992002" lon="2.608578"><ele>1.0</ele><time>2025-05-24T22:46:27Z</time></trkpt>
<trkpt lat="50.994442" lon="2.605479"><ele>3.0</ele><time>2025-05-24T22:46:31Z</time></trkpt>
<trkpt lat="50.995347" lon="2.604093"><ele>4.0</ele><time>2025-05-24T22:46:35Z</time></trkpt>
<trkpt lat="50.995431" lon="2.604"><ele>4.0</ele><time>2025-05-24T22:46:39Z</time></trkpt>
<trkpt lat="50.996045" lon="2.604563"><ele>7.29</ele><time>2025-05-24T22:46:47Z</time></trkpt>
<trkpt lat="50.9965" lon="2.605083"><ele>7.3</ele><time>2025-05-24T22:46:55Z</time></trkpt>
<trkpt lat="50.997794" lon="2.606705"><ele>4.94</ele><time>2025-05-24T22:47:03Z</time></trkpt>
<trkpt lat="50.99808" lon="2.607026"><ele>3.91</ele><time>2025-05-24T22:47:11Z</time></trkpt>
<trkpt lat="50.998363" lon="2.607238"><ele>3.06</ele><time>2025-05-24T22:47:18Z</time></trkpt>
<trkpt lat="50.998704" lon="2.607416"><ele>3.69</ele><time>2025-05-24T22:47:26Z</time></trkpt>
<trkpt lat="50.999134" lon="2.607502"><ele>3.13</ele><time>2025-05-24T22:47:34Z</time></trkpt>
<trkpt lat="51.005881" lon="2.6069"><ele>3.0</ele><time>2025-05-24T22:47:42Z</time></trkpt>
<trkpt lat="51.006183" lon="2.606806"><ele>3.0</ele><time>2025-05-24T22:47:50Z</time></trkpt>
<trkpt lat="51.006484" lon="2.606661"><ele>3.0</ele><time>2025-05-24T22:47:58Z</time></trkpt>
<trkpt lat="51.008706" lon="2.605051"><ele>3.34</ele><time>2025-05-24T22:48:06Z</time></trkpt>
<trkpt lat="51.008885" lon="2.605003"><ele>3.98</ele><time>2025-05-24T22:48:14Z</time></trkpt>
<trkpt lat="51.009065" lon="2.605035"><ele>3.36</ele><time>2025-05-24T22:48:22Z</time></trkpt>
<trkpt lat="51.009099" lon="2.604803"><ele>2.53</ele><time>2025-05-24T22:48:22Z</time></trkpt>
<trkpt lat="51.008785" lon="2.603197"><ele>2.0</ele><time>2025-05-24T22:48:50Z</time></trkpt>
<trkpt lat="51.008926" lon="2.601985"><ele>2.39</ele><time>2025-05-24T22:49:02Z</time></trkpt>
<trkpt lat="51.008983" lon="2.600982"><ele>2.5</ele><time>2025-05-24T22:49:14Z</time></trkpt>
<trkpt lat="51.009141" lon="2.599297"><ele>1.47</ele><time>2025-05-24T22:49:26Z</time></trkpt>
<trkpt lat="51.009239" lon="2.598808"><ele>1.47</ele><time>2025-05-24T22:49:38Z</time></trkpt>
<trkpt lat="51.009519" lon="2.597843"><ele>3.0</ele><time>2025-05-24T22:49:50Z</time></trkpt>
<trkpt lat="51.009728" lon="2.596427"><ele>1.14</ele><time>2025-05-24T22:50:01Z</time></trkpt>
<trkpt lat="51.010648" lon="2.591265"><ele>2.66</ele><time>2025-05-24T22:50:13Z</time></trkpt>
<trkpt lat="51.010923" lon="2.589883"><ele>0.81</ele><time>2025-05-24T22:50:25Z</time></trkpt>
<trkpt lat="51.011134" lon="2.58854"><ele>1.92</ele><time>2025-05-24T22:50:37Z</time></trkpt>
<trkpt lat="51.011202" lon="2.588236"><ele>1.79</ele><time>2025-05-24T22:50:49Z</time></trkpt>
<trkpt lat="51.011341" lon="2.587857"><ele>2.0</ele><time>2025-05-24T22:51:01Z</time></trkpt>
<trkpt lat="51.01256" lon="2.586642"><ele>0.78</ele><time>2025-05-24T22:51:13Z</time></trkpt>
<trkpt lat="51.013205" lon="2.585885"><ele>-1.0</ele><time>2025-05-24T22:51:25Z</time></trkpt>
<trkpt lat="51.013768" lon="2.585338"><ele>-1.88</ele><time>2025-05-24T22:51:37Z</time></trkpt>
<trkpt lat="51.015702" lon="2.582972"><ele>-1.0</ele><time>2025-05-24T22:51:49Z</time></trkpt>
<trkpt lat="51.016202" lon="2.582624"><ele>-0.7</ele><time>2025-05-24T22:52:01Z</time></trkpt>
<trkpt lat="51.016829" lon="2.582243"><ele>0.0</ele><time>2025-05-24T22:52:13Z</time></trkpt>
<trkpt lat="51.016903" lon="2.582146"><ele>-0.23</ele><time>2025-05-24T22:52:25Z</time></trkpt>
<trkpt lat="51.017092" lon="2.581701"><ele>-1.53</ele><time>2025-05-24T22:52:37Z</time></trkpt>
<trkpt lat="51.01718" lon="2.581583"><ele>-2.15</ele><time>2025-05-24T22:52:49Z</time></trkpt>
<trkpt lat="51.017423" lon="2.581363"><ele>-3.0</ele><time>2025-05-24T22:53:01Z</time></trkpt>
<trkpt lat="51.022498" lon="2.578118"><ele>-0.22</ele><time>2025-05-24T22:53:13Z</time></trkpt>
<trkpt lat="51.022488" lon="2.578026"><ele>0.0</ele><time>2025-05-24T22:53:24Z</time></trkpt>
<trkpt lat="51.021376" lon="2.573816"><ele>-1.25</ele><time>2025-05-24T22:53:36Z</time></trkpt>
<trkpt lat="51.021372" lon="2.573801"><ele>-1.37</ele><time>2025-05-24T22:53:47Z</time></trkpt>
<trkpt lat="51.021372" lon="2.573801"><ele>-1.37</ele><time>2025-05-24T22:53:47Z</time></trkpt>
<trkpt lat="51.021376" lon="2.573816"><ele>-1.25</ele><time>2025-05-24T22:53:58Z</time></trkpt>
<trkpt lat="51.022488" lon="2.578026"><ele>0.0</ele><time>2025-05-24T22:54:09Z</time></trkpt>
<trkpt lat="51.022498" lon="2.578118"><ele>-0.22</ele><time>2025-05-24T22:54:21Z</time></trkpt>
<trkpt lat="51.017423" lon="2.581363"><ele>-3.0</ele><time>2025-05-24T22:54:33Z</time></trkpt>
<trkpt lat="51.01718" lon="2.581583"><ele>-2.15</ele><time>2025-05-24T22:54:45Z</time></trkpt>
<trkpt lat="51.017092" lon="2.581701"><ele>-1.53</ele><time>2025-05-24T22:54:57Z</time></trkpt>
<trkpt lat="51.016903" lon="2.582146"><ele>-0.23</ele><time>2025-05-24T22:55:09Z</time></trkpt>
<trkpt lat="51.016829" lon="2.582243"><ele>0.0</ele><time>2025-05-24T22:55:21Z</time></trkpt>
<trkpt lat="51.016202" lon="2.582624"><ele>-0.7</ele><time>2025-05-24T22:55:32Z</time></trkpt>
<trkpt lat="51.015702" lon="2.582972"><ele>-1.0</ele><time>2025-05-24T22:55:44Z</time></trkpt>
<trkpt lat="51.013768" lon="2.585338"><ele>-1.88</ele><time>2025-05-24T22:55:56Z</time></trkpt>
<trkpt lat="51.013205" lon="2.585885"><ele>-1.0</ele><time>2025-05-24T22:56:08Z</time></trkpt>
<trkpt lat="51.01256" lon="2.586642"><ele>0.78</ele><time>2025-05-24T22:56:20Z</time></trkpt>
<trkpt lat="51.011341" lon="2.587857"><ele>2.0</ele><time>2025-05-24T22:56:32Z</time></trkpt>
<trkpt lat="51.011202" lon="2.588236"><ele>1.79</ele><time>2025-05-24T22:56:44Z</time></trkpt>
<trkpt lat="51.011134" lon="2.58854"><ele>1.92</ele><time>2025-05-24T22:56:56Z</time></trkpt>
<trkpt lat="51.010923" lon="2.589883"><ele>0.81</ele><time>2025-05-24T22:57:08Z</time></trkpt>
<trkpt lat="51.010648" lon="2.591265"><ele>2.66</ele><time>2025-05-24T22:57:20Z</time></trkpt>
<trkpt lat="51.009728" lon="2.596427"><ele>1.14</ele><time>2025-05-24T22:57:32Z</time></trkpt>
<trkpt lat="51.009519" lon="2.597843"><ele>3.0</ele><time>2025-05-24T22:57:44Z</time></trkpt>
<trkpt lat="51.009239" lon="2.598808"><ele>1.47</ele><time>2025-05-24T22:57:56Z</time></trkpt>
<trkpt lat="51.009141" lon="2.599297"><ele>1.47</ele><time>2025-05-24T22:58:08Z</time></trkpt>
<trkpt lat="51.008983" lon="2.600982"><ele>2.5</ele><time>2025-05-24T22:58:20Z</time></trkpt>
<trkpt lat="51.008926" lon="2.601985"><ele>2.39</ele><time>2025-05-24T22:58:32Z</time></trkpt>
<trkpt lat="51.008785" lon="2.603197"><ele>2.0</ele><time>2025-05-24T22:58:44Z</time></trkpt>
<trkpt lat="51.009099" lon="2.604803"><ele>2.53</ele><time>2025-05-24T22:58:56Z</time></trkpt>
<trkpt lat="51.009042" lon="2.604806"><ele>2.75</ele><time>2025-05-24T22:59:04Z</time></trkpt>
<trkpt lat="51.008873" lon="2.604906"><ele>3.6</ele><time>2025-05-24T22:59:11Z</time></trkpt>
<trkpt lat="51.008706" lon="2.605051"><ele>3.34</ele><time>2025-05-24T22:59:18Z</time></trkpt>
<trkpt lat="51.006484" lon="2.606661"><ele>3.0</ele><time>2025-05-24T22:59:26Z</time></trkpt>
<trkpt lat="51.006183" lon="2.606806"><ele>3.0</ele><time>2025-05-24T22:59:33Z</time></trkpt>
<trkpt lat="51.005881" lon="2.6069"><ele>3.0</ele><time>2025-05-24T22:59:40Z</time></trkpt>
<trkpt lat="50.999134" lon="2.607502"><ele>3.13</ele><time>2025-05-24T22:59:48Z</time></trkpt>
<trkpt lat="50.998704" lon="2.607416"><ele>3.69</ele><time>2025-05-24T22:59:55Z</time></trkpt>
<trkpt lat="50.998363" lon="2.607238"><ele>3.06</ele><time>2025-05-24T23:00:02Z</time></trkpt>
<trkpt lat="50.99808" lon="2.607026"><ele>3.91</ele><time>2025-05-24T23:00:10Z</time></trkpt>
<trkpt lat="50.997794" lon="2.606705"><ele>4.94</ele><time>2025-05-24T23:00:17Z</time></trkpt>
<trkpt lat="50.9965" lon="2.605083"><ele>7.3</ele><time>2025-05-24T23:00:24Z</time></trkpt>
<trkpt lat="50.996045" lon="2.604563"><ele>7.29</ele><time>2025-05-24T23:00:32Z</time></trkpt>
<trkpt lat="50.995431" lon="2.604"><ele>4.0</ele><time>2025-05-24T23:00:39Z</time></trkpt>
<trkpt lat="50.995347" lon="2.604093"><ele>4.0</ele><time>2025-05-24T23:00:44Z</time></trkpt>
<trkpt lat="50.994442" lon="2.605479"><ele>3.0</ele><time>2025-05-24T23:00:49Z</time></trkpt>
<trkpt lat="50.992002" lon="2.608578"><ele>1.0</ele><time>2025-05-24T23:00:55Z</time></trkpt>
<trkpt lat="50.991489" lon="2.609269"><ele>1.37</ele><time>2025-05-24T23:01:00Z</time></trkpt>
<trkpt lat="50.991329" lon="2.609556"><ele>1.78</ele><time>2025-05-24T23:01:05Z</time></trkpt>
<trkpt lat="50.991206" lon="2.609855"><ele>1.66</ele><time>2025-05-24T23:01:10Z</time></trkpt>
<trkpt lat="50.991096" lon="2.610197"><ele>2.0</ele><time>2025-05-24T23:01:15Z</time></trkpt>
<trkpt lat="50.990799" lon="2.611701"><ele>0.0</ele><time>2025-05-24T23:01:20Z</time></trkpt>
<trkpt lat="50.990725" lon="2.611979"><ele>0.0</ele><time>2025-05-24T23:01:25Z</time></trkpt>
<trkpt lat="50.990618" lon="2.612281"><ele>0.0</ele><time>2025-05-24T23:01:30Z</time></trkpt>
<trkpt lat="50.990501" lon="2.612535"><ele>-0.02</ele><time>2025-05-24T23:01:36Z</time></trkpt>
<trkpt lat="50.990369" lon="2.612767"><ele>-0.64</ele><time>2025-05-24T23:01:41Z</time></trkpt>
<trkpt lat="50.990095" lon="2.613173"><ele>0.42</ele><time>2025-05-24T23:01:46Z</time></trkpt>
<trkpt lat="50.98923" lon="2.614464"><ele>2.23</ele><time>2025-05-24T23:01:51Z</time></trkpt>
<trkpt lat="50.988998" lon="2.614913"><ele>2.0</ele><time>2025-05-24T23:01:56Z</time></trkpt>
<trkpt lat="50.988781" lon="2.615391"><ele>2.23</ele><time>2025-05-24T23:02:01Z</time></trkpt>
<trkpt lat="50.987983" lon="2.617543"><ele>2.7</ele><time>2025-05-24T23:02:06Z</time></trkpt>
<trkpt lat="50.987716" lon="2.618217"><ele>1.67</ele><time>2025-05-24T23:02:11Z</time></trkpt>
<trkpt lat="50.986826" lon="2.62038"><ele>5.36</ele><time>2025-05-24T23:02:17Z</time></trkpt>
<trkpt lat="50.985555" lon="2.623511"><ele>7.0</ele><time>2025-05-24T23:02:22Z</time></trkpt>
<trkpt lat="50.984699" lon="2.622882"><ele>7.08</ele><time>2025-05-24T23:02:28Z</time></trkpt>
<trkpt lat="50.984553" lon="2.622759"><ele>7.61</ele><time>2025-05-24T23:02:35Z</time></trkpt>
<trkpt lat="50.984339" lon="2.622525"><ele>8.35</ele><time>2025-05-24T23:02:41Z</time></trkpt>
<trkpt lat="50.984291" lon="2.622521"><ele>8.51</ele><time>2025-05-24T23:02:48Z</time></trkpt>
<trkpt lat="50.984247" lon="2.622566"><ele>8.54</ele><time>2025-05-24T23:02:53Z</time></trkpt>
<trkpt lat="50.984205" lon="2.622675"><ele>8.32</ele><time>2025-05-24T23:02:58Z</time></trkpt>
<trkpt lat="50.9837" lon="2.62441"><ele>8.0</ele><time>2025-05-24T23:03:03Z</time></trkpt>
<trkpt lat="50.983545" lon="2.624832"><ele>8.0</ele><time>2025-05-24T23:03:08Z</time></trkpt>
<trkpt lat="50.983134" lon="2.62582"><ele>7.72</ele><time>2025-05-24T23:03:13Z</time></trkpt>
<trkpt lat="50.982773" lon="2.626625"><ele>8.02</ele><time>2025-05-24T23:03:18Z</time></trkpt>
<trkpt lat="50.982487" lon="2.627167"><ele>8.99</ele><time>2025-05-24T23:03:23Z</time></trkpt>
<trkpt lat="50.981787" lon="2.628279"><ele>7.2</ele><time>2025-05-24T23:03:28Z</time></trkpt>
<trkpt lat="50.981558" lon="2.628587"><ele>7.39</ele><time>2025-05-24T23:03:33Z</time></trkpt>
<trkpt lat="50.981297" lon="2.628842"><ele>8.06</ele><time>2025-05-24T23:03:38Z</time></trkpt>
<trkpt lat="50.981192" lon="2.628915"><ele>8.0</ele><time>2025-05-24T23:03:43Z</time></trkpt>
<trkpt lat="50.981014" lon="2.628986"><ele>8.0</ele><time>2025-05-24T23:03:47Z</time></trkpt>
<trkpt lat="50.980836" lon="2.629023"><ele>8.0</ele><time>2025-05-24T23:03:52Z</time></trkpt>
<trkpt lat="50.978141" lon="2.629222"><ele>7.06</ele><time>2025-05-24T23:03:57Z</time></trkpt>
<trkpt lat="50.977915" lon="2.629198"><ele>7.56</ele><time>2025-05-24T23:04:02Z</time></trkpt>
<trkpt lat="50.976366" lon="2.628781"><ele>8.03</ele><time>2025-05-24T23:04:07Z</time></trkpt>
<trkpt lat="50.975558" lon="2.628734"><ele>9.99</ele><time>2025-05-24T23:04:12Z</time></trkpt>
<trkpt lat="50.975143" lon="2.628798"><ele>10.0</ele><time>2025-05-24T23:04:17Z</time></trkpt>
<trkpt lat="50.975085" lon="2.629058"><ele>9.81</ele><time>2025-05-24T23:04:24Z</time></trkpt>
<trkpt lat="50.975012" lon="2.62966"><ele>8.96</ele><time>2025-05-24T23:04:31Z</time></trkpt>
<trkpt lat="50.974275" lon="2.634762"><ele>10.52</ele><time>2025-05-24T23:04:37Z</time></trkpt>
<trkpt lat="50.973584" lon="2.640287"><ele>9.13</ele><time>2025-05-24T23:04:44Z</time></trkpt>
<trkpt lat="50.973505" lon="2.640798"><ele>10.92</ele><time>2025-05-24T23:04:51Z</time></trkpt>
<trkpt lat="50.97332" lon="2.641642"><ele>10.09</ele><time>2025-05-24T23:04:57Z</time></trkpt>
<trkpt lat="50.973122" lon="2.642454"><ele>11.0</ele><time>2025-05-24T23:05:04Z</time></trkpt>
<trkpt lat="50.973071" lon="2.642728"><ele>11.82</ele><time>2025-05-24T23:05:11Z</time></trkpt>
<trkpt lat="50.972977" lon="2.643386"><ele>12.28</ele><time>2025-05-24T23:05:17Z</time></trkpt>
<trkpt lat="50.972859" lon="2.644498"><ele>12.0</ele><time>2025-05-24T23:05:24Z</time></trkpt>
<trkpt lat="50.972336" lon="2.647788"><ele>12.0</ele><time>2025-05-24T23:05:31Z</time></trkpt>
<trkpt lat="50.971902" lon="2.649764"><ele>12.15</ele><time>2025-05-24T23:05:37Z</time></trkpt>
<trkpt lat="50.971539" lon="2.652191"><ele>11.06</ele><time>2025-05-24T23:05:44Z</time></trkpt>
<trkpt lat="50.971485" lon="2.652649"><ele>11.35</ele><time>2025-05-24T23:05:50Z</time></trkpt>
<trkpt lat="50.971406" lon="2.653749"><ele>11.94</ele><time>2025-05-24T23:05:57Z</time></trkpt>
<trkpt lat="50.971366" lon="2.654093"><ele>11.26</ele><time>2025-05-24T23:06:04Z</time></trkpt>
<trkpt lat="50.971256" lon="2.65478"><ele>10.1</ele><time>2025-05-24T23:06:10Z</time></trkpt>
<trkpt lat="50.971104" lon="2.655448"><ele>11.61</ele><time>2025-05-24T23:06:17Z</time></trkpt>
<trkpt lat="50.970618" lon="2.657248"><ele>10.22</ele><time>2025-05-24T23:06:24Z</time></trkpt>
<trkpt lat="50.970074" lon="2.660026"><ele>10.73</ele><time>2025-05-24T23:06:30Z</time></trkpt>
<trkpt lat="50.969987" lon="2.660588"><ele>12.0</ele><time>2025-05-24T23:06:37Z</time></trkpt>
<trkpt lat="50.969924" lon="2.661292"><ele>11.0</ele><time>2025-05-24T23:06:44Z</time></trkpt>
<trkpt lat="50.969912" lon="2.661827"><ele>11.0</ele><time>2025-05-24T23:06:50Z</time></trkpt>
<trkpt lat="50.970022" lon="2.664221"><ele>10.19</ele><time>2025-05-24T23:06:57Z</time></trkpt>
<trkpt lat="50.969967" lon="2.664979"><ele>10.99</ele><time>2025-05-24T23:07:04Z</time></trkpt>
<trkpt lat="50.969731" lon="2.664886"><ele>10.6</ele><time>2025-05-24T23:07:07Z</time></trkpt>
<trkpt lat="50.969502" lon="2.664887"><ele>10.12</ele><time>2025-05-24T23:07:11Z</time></trkpt>
<trkpt lat="50.967771" lon="2.665342"><ele>11.75</ele><time>2025-05-24T23:07:14Z</time></trkpt>
<trkpt lat="50.967639" lon="2.665357"><ele>11.36</ele><time>2025-05-24T23:07:18Z</time></trkpt>
<trkpt lat="50.967195" lon="2.66532"><ele>10.92</ele><time>2025-05-24T23:07:21Z</time></trkpt>
<trkpt lat="50.967057" lon="2.665395"><ele>10.66</ele><time>2025-05-24T23:07:25Z</time></trkpt>
<trkpt lat="50.967134" lon="2.665568"><ele>11.0</ele><time>2025-05-24T23:07:32Z</time></trkpt>
<trkpt lat="50.967466" lon="2.666768"><ele>9.88</ele><time>2025-05-24T23:07:38Z</time></trkpt>
<trkpt lat="50.967695" lon="2.667671"><ele>11.0</ele><time>2025-05-24T23:07:45Z</time></trkpt>
<trkpt lat="50.967914" lon="2.668902"><ele>9.51</ele><time>2025-05-24T23:07:52Z</time></trkpt>
<trkpt lat="50.967949" lon="2.669283"><ele>9.8</ele><time>2025-05-24T23:07:59Z</time></trkpt>
<trkpt lat="50.967952" lon="2.670347"><ele>10.12</ele><time>2025-05-24T23:08:06Z</time></trkpt>
<trkpt lat="50.967972" lon="2.670978"><ele>8.78</ele><time>2025-05-24T23:08:13Z</time></trkpt>
<trkpt lat="50.968013" lon="2.671361"><ele>8.15</ele><time>2025-05-24T23:08:20Z</time></trkpt>
<trkpt lat="50.968097" lon="2.671926"><ele>9.0</ele><time>2025-05-24T23:08:27Z</time></trkpt>
<trkpt lat="50.96819" lon="2.672232"><ele>9.0</ele><time>2025-05-24T23:08:34Z</time></trkpt>
<trkpt lat="50.968587" lon="2.673168"><ele>9.63</ele><time>2025-05-24T23:08:41Z</time></trkpt>
<trkpt lat="50.968777" lon="2.673626"><ele>9.0</ele><time>2025-05-24T23:08:48Z</time></trkpt>
<trkpt lat="50.969104" lon="2.674379"><ele>7.83</ele><time>2025-05-24T23:08:54Z</time></trkpt>
<trkpt lat="50.969554" lon="2.675483"><ele>9.0</ele><time>2025-05-24T23:09:01Z</time></trkpt>
<trkpt lat="50.96967" lon="2.67589"><ele>8.83</ele><time>2025-05-24T23:09:08Z</time></trkpt>
<trkpt lat="50.969956" lon="2.677357"><ele>9.84</ele><time>2025-05-24T23:09:15Z</time></trkpt>
<trkpt lat="50.970045" lon="2.677646"><ele>10.0</ele><time>2025-05-24T23:09:22Z</time></trkpt>
<trkpt lat="50.970264" lon="2.678101"><ele>10.0</ele><time>2025-05-24T23:09:29Z</time></trkpt>
<trkpt lat="50.970479" lon="2.678603"><ele>9.27</ele><time>2025-05-24T23:09:36Z</time></trkpt>
<trkpt lat="50.970928" lon="2.679526"><ele>9.66</ele><time>2025-05-24T23:09:43Z</time></trkpt>
<trkpt lat="50.971049" lon="2.679854"><ele>8.75</ele><time>2025-05-24T23:09:50Z</time></trkpt>
<trkpt lat="50.971569" lon="2.681365"><ele>8.0</ele><time>2025-05-24T23:09:57Z</time></trkpt>
<trkpt lat="50.971765" lon="2.681978"><ele>6.88</ele><time>2025-05-24T23:10:03Z</time></trkpt>
<trkpt lat="50.971847" lon="2.682338"><ele>6.0</ele><time>2025-05-24T23:10:10Z</time></trkpt>
<trkpt lat="50.972254" lon="2.68547"><ele>4.31</ele><time>2025-05-24T23:10:17Z</time></trkpt>
<trkpt lat="50.972592" lon="2.688828"><ele>7.78</ele><time>2025-05-24T23:10:24Z</time></trkpt>
<trkpt lat="50.972722" lon="2.690315"><ele>7.8</ele><time>2025-05-24T23:10:31Z</time></trkpt>
<trkpt lat="50.972748" lon="2.690908"><ele>7.89</ele><time>2025-05-24T23:10:38Z</time></trkpt>
<trkpt lat="50.972752" lon="2.691857"><ele>6.91</ele><time>2025-05-24T23:10:45Z</time></trkpt>
<trkpt lat="50.972712" lon="2.692817"><ele>6.76</ele><time>2025-05-24T23:10:52Z</time></trkpt>
<trkpt lat="50.972643" lon="2.693653"><ele>6.59</ele><time>2025-05-24T23:10:59Z</time></trkpt>
<trkpt lat="50.972524" lon="2.694635"><ele>7.0</ele><time>2025-05-24T23:11:06Z</time></trkpt>
<trkpt lat="50.972248" lon="2.696354"><ele>8.0</ele><time>2025-05-24T23:11:13Z</time></trkpt>
<trkpt lat="50.972104" lon="2.697519"><ele>7.03</ele><time>2025-05-24T23:11:19Z</time></trkpt>
<trkpt lat="50.972004" lon="2.698827"><ele>7.95</ele><time>2025-05-24T23:11:26Z</time></trkpt>
<trkpt lat="50.971914" lon="2.699303"><ele>7.95</ele><time>2025-05-24T23:11:33Z</time></trkpt>
<trkpt lat="50.971931" lon="2.699559"><ele>7.95</ele><time>2025-05-24T23:11:40Z</time></trkpt>
<trkpt lat="50.971968" lon="2.700277"><ele>7.91</ele><time>2025-05-24T23:11:47Z</time></trkpt>
<trkpt lat="50.971995" lon="2.701438"><ele>6.0</ele><time>2025-05-24T23:11:54Z</time></trkpt>
<trkpt lat="50.972021" lon="2.701898"><ele>5.28</ele><time>2025-05-24T23:12:01Z</time></trkpt>
<trkpt lat="50.972205" lon="2.703951"><ele>7.0</ele><time>2025-05-24T23:12:08Z</time></trkpt>
<trkpt lat="50.972414" lon="2.706067"><ele>6.2</ele><time>2025-05-24T23:12:15Z</time></trkpt>
<trkpt lat="50.972595" lon="2.707253"><ele>5.34</ele><time>2025-05-24T23:12:22Z</time></trkpt>
<trkpt lat="50.972753" lon="2.708039"><ele>4.91</ele><time>2025-05-24T23:12:29Z</time></trkpt>
<trkpt lat="50.97486" lon="2.716919"><ele>7.5</ele><time>2025-05-24T23:12:35Z</time></trkpt>
<trkpt lat="50.976409" lon="2.722898"><ele>6.93</ele><time>2025-05-24T23:12:42Z</time></trkpt>
<trkpt lat="50.977199" lon="2.725525"><ele>4.01</ele><time>2025-05-24T23:12:49Z</time></trkpt>
<trkpt lat="50.977798" lon="2.727823"><ele>4.08</ele><time>2025-05-24T23:12:56Z</time></trkpt>
<trkpt lat="50.978264" lon="2.730075"><ele>3.25</ele><time>2025-05-24T23:13:03Z</time></trkpt>
<trkpt lat="50.979018" lon="2.73399"><ele>0.54</ele><time>2025-05-24T23:13:10Z</time></trkpt>
<trkpt lat="50.979653" lon="2.737744"><ele>0.66</ele><time>2025-05-24T23:13:17Z</time></trkpt>
<trkpt lat="50.979913" lon="2.739375"><ele>1.83</ele><time>2025-05-24T23:13:24Z</time></trkpt>
<trkpt lat="50.980142" lon="2.74071"><ele>2.0</ele><time>2025-05-24T23:13:31Z</time></trkpt>
<trkpt lat="50.980204" lon="2.741168"><ele>1.0</ele><time>2025-05-24T23:13:38Z</time></trkpt>
<trkpt lat="50.980218" lon="2.74148"><ele>1.26</ele><time>2025-05-24T23:13:45Z</time></trkpt>
<trkpt lat="50.980189" lon="2.742064"><ele>2.43</ele><time>2025-05-24T23:13:51Z</time></trkpt>
<trkpt lat="50.980185" lon="2.742181"><ele>2.85</ele><time>2025-05-24T23:13:58Z</time></trkpt>
<trkpt lat="50.980166" lon="2.744149"><ele>4.0</ele><time>2025-05-24T23:14:05Z</time></trkpt>
<trkpt lat="50.98019" lon="2.744924"><ele>3.5</ele><time>2025-05-24T23:14:12Z</time></trkpt>
<trkpt lat="50.98024" lon="2.745498"><ele>3.86</ele><time>2025-05-24T23:14:19Z</time></trkpt>
<trkpt lat="50.980218" lon="2.74556"><ele>3.79</ele><time>2025-05-24T23:14:26Z</time></trkpt>
<trkpt lat="50.980222" lon="2.745661"><ele>3.8</ele><time>2025-05-24T23:14:33Z</time></trkpt>
<trkpt lat="50.980244" lon="2.745766"><ele>3.88</ele><time>2025-05-24T23:14:40Z</time></trkpt>
<trkpt lat="50.980273" lon="2.745806"><ele>3.98</ele><time>2025-05-24T23:14:47Z</time></trkpt>
<trkpt lat="50.980362" lon="2.746444"><ele>4.0</ele><time>2025-05-24T23:14:53Z</time></trkpt>
<trkpt lat="50.980391" lon="2.746743"><ele>4.0</ele><time>2025-05-24T23:15:00Z</time></trkpt>
<trkpt lat="50.980395" lon="2.747685"><ele>4.66</ele><time>2025-05-24T23:15:06Z</time></trkpt>
<trkpt lat="50.980416" lon="2.747923"><ele>5.26</ele><time>2025-05-24T23:15:13Z</time></trkpt>
<trkpt lat="50.98055" lon="2.748639"><ele>7.08</ele><time>2025-05-24T23:15:19Z</time></trkpt>
<trkpt lat="50.980608" lon="2.748835"><ele>7.81</ele><time>2025-05-24T23:15:26Z</time></trkpt>
<trkpt lat="50.980626" lon="2.748895"><ele>8.0</ele><time>2025-05-24T23:15:33Z</time></trkpt>
<trkpt lat="50.979877" lon="2.749679"><ele>6.55</ele><time>2025-05-24T23:15:47Z</time></trkpt>
<trkpt lat="50.979796" lon="2.749748"><ele>6.17</ele><time>2025-05-24T23:16:01Z</time></trkpt>
<trkpt lat="50.978657" lon="2.750086"><ele>3.16</ele><time>2025-05-24T23:16:15Z</time></trkpt>
<trkpt lat="50.97678" lon="2.758312"><ele>1.59</ele><time>2025-05-24T23:16:29Z</time></trkpt>
<trkpt lat="50.974027" lon="2.770325"><ele>-0.41</ele><time>2025-05-24T23:16:43Z</time></trkpt>
<trkpt lat="50.973834" lon="2.770958"><ele>-0.09</ele><time>2025-05-24T23:16:58Z</time></trkpt>
<trkpt lat="50.973617" lon="2.771413"><ele>-0.89</ele><time>2025-05-24T23:17:12Z</time></trkpt>
<trkpt lat="50.973358" lon="2.771739"><ele>0.0</ele><time>2025-05-24T23:17:26Z</time></trkpt>
<trkpt lat="50.973143" lon="2.771936"><ele>0.0</ele><time>2025-05-24T23:17:40Z</time></trkpt>
<trkpt lat="50.963005" lon="2.778408"><ele>0.0</ele><time>2025-05-24T23:17:54Z</time></trkpt>
<trkpt lat="50.960146" lon="2.77982"><ele>2.18</ele><time>2025-05-24T23:18:08Z</time></trkpt>
<trkpt lat="50.959871" lon="2.779941"><ele>2.1</ele><time>2025-05-24T23:18:23Z</time></trkpt>
<trkpt lat="50.95926" lon="2.78012"><ele>2.66</ele><time>2025-05-24T23:18:37Z</time></trkpt>
<trkpt lat="50.959099" lon="2.780197"><ele>3.0</ele><time>2025-05-24T23:18:51Z</time></trkpt>
<trkpt lat="50.959001" lon="2.780274"><ele>3.0</ele><time>2025-05-24T23:19:05Z</time></trkpt>
<trkpt lat="50.958289" lon="2.781005"><ele>0.1</ele><time>2025-05-24T23:19:19Z</time></trkpt>
<trkpt lat="50.955844" lon="2.783312"><ele>1.0</ele><time>2025-05-24T23:19:34Z</time></trkpt>
<trkpt lat="50.955415" lon="2.78365"><ele>1.14</ele><time>2025-05-24T23:19:48Z</time></trkpt>
<trkpt lat="50.954228" lon="2.784505"><ele>2.0</ele><time>2025-05-24T23:20:02Z</time></trkpt>
<trkpt lat="50.953729" lon="2.784817"><ele>2.0</ele><time>2025-05-24T23:20:16Z</time></trkpt>
<trkpt lat="50.95192" lon="2.785721"><ele>2.91</ele><time>2025-05-24T23:20:30Z</time></trkpt>
<trkpt lat="50.951518" lon="2.78589"><ele>1.89</ele><time>2025-05-24T23:20:44Z</time></trkpt>
<trkpt lat="50.951011" lon="2.786048"><ele>1.95</ele><time>2025-05-24T23:20:59Z</time></trkpt>
<trkpt lat="50.950535" lon="2.786245"><ele>4.0</ele><time>2025-05-24T23:21:13Z</time></trkpt>
<trkpt lat="50.950427" lon="2.786249"><ele>4.0</ele><time>2025-05-24T23:21:27Z</time></trkpt>
<trkpt lat="50.950405" lon="2.786292"><ele>4.0</ele><time>2025-05-24T23:21:31Z</time></trkpt>
<trkpt lat="50.950279" lon="2.786376"><ele>4.0</ele><time>2025-05-24T23:21:35Z</time></trkpt>
<trkpt lat="50.949858" lon="2.786623"><ele>1.57</ele><time>2025-05-24T23:21:39Z</time></trkpt>
<trkpt lat="50.949439" lon="2.786946"><ele>2.02</ele><time>2025-05-24T23:21:43Z</time></trkpt>
<trkpt lat="50.949338" lon="2.787063"><ele>2.38</ele><time>2025-05-24T23:21:47Z</time></trkpt>
<trkpt lat="50.948558" lon="2.78768"><ele>3.07</ele><time>2025-05-24T23:21:51Z</time></trkpt>
<trkpt lat="50.948183" lon="2.788027"><ele>3.0</ele><time>2025-05-24T23:21:56Z</time></trkpt>
<trkpt lat="50.948049" lon="2.788199"><ele>3.0</ele><time>2025-05-24T23:22:00Z</time></trkpt>
<trkpt lat="50.947748" lon="2.788601"><ele>4.08</ele><time>2025-05-24T23:22:04Z</time></trkpt>
<trkpt lat="50.947623" lon="2.788718"><ele>4.73</ele><time>2025-05-24T23:22:08Z</time></trkpt>
<trkpt lat="50.947657" lon="2.788843"><ele>4.91</ele><time>2025-05-24T23:22:10Z</time></trkpt>
<trkpt lat="50.947597" lon="2.788908"><ele>5.0</ele><time>2025-05-24T23:22:15Z</time></trkpt>
<trkpt lat="50.947111" lon="2.789171"><ele>6.4</ele><time>2025-05-24T23:22:20Z</time></trkpt>
<trkpt lat="50.946631" lon="2.789355"><ele>6.78</ele><time>2025-05-24T23:22:25Z</time></trkpt>
<trkpt lat="50.946424" lon="2.789398"><ele>5.4</ele><time>2025-05-24T23:22:30Z</time></trkpt>
<trkpt lat="50.944986" lon="2.789898"><ele>4.97</ele><time>2025-05-24T23:22:35Z</time></trkpt>
<trkpt lat="50.944704" lon="2.790044"><ele>4.0</ele><time>2025-05-24T23:22:40Z</time></trkpt>
<trkpt lat="50.944522" lon="2.790186"><ele>4.0</ele><time>2025-05-24T23:22:45Z</time></trkpt>
<trkpt lat="50.944049" lon="2.790909"><ele>3.88</ele><time>2025-05-24T23:22:50Z</time></trkpt>
<trkpt lat="50.943503" lon="2.791738"><ele>2.0</ele><time>2025-05-24T23:22:56Z</time></trkpt>
<trkpt lat="50.943091" lon="2.792253"><ele>3.0</ele><time>2025-05-24T23:23:01Z</time></trkpt>
<trkpt lat="50.941522" lon="2.793827"><ele>4.96</ele><time>2025-05-24T23:23:06Z</time></trkpt>
<trkpt lat="50.940972" lon="2.794285"><ele>4.71</ele><time>2025-05-24T23:23:11Z</time></trkpt>
<trkpt lat="50.94061" lon="2.794553"><ele>3.39</ele><time>2025-05-24T23:23:16Z</time></trkpt>
<trkpt lat="50.939333" lon="2.795419"><ele>3.31</ele><time>2025-05-24T23:23:21Z</time></trkpt>
<trkpt lat="50.935454" lon="2.797455"><ele>3.84</ele><time>2025-05-24T23:23:26Z</time></trkpt>
<trkpt lat="50.935258" lon="2.797579"><ele>4.74</ele><time>2025-05-24T23:23:31Z</time></trkpt>
<trkpt lat="50.93495" lon="2.797852"><ele>5.0</ele><time>2025-05-24T23:23:36Z</time></trkpt>
<trkpt lat="50.934623" lon="2.798301"><ele>4.68</ele><time>2025-05-24T23:23:41Z</time></trkpt>
<trkpt lat="50.934431" lon="2.798629"><ele>4.0</ele><time>2025-05-24T23:23:46Z</time></trkpt>
<trkpt lat="50.934254" lon="2.799019"><ele>4.0</ele><time>2025-05-24T23:23:51Z</time></trkpt>
<trkpt lat="50.933689" lon="2.800408"><ele>1.13</ele><time>2025-05-24T23:23:56Z</time></trkpt>
<trkpt lat="50.933395" lon="2.801011"><ele>2.7</ele><time>2025-05-24T23:24:02Z</time></trkpt>
<trkpt lat="50.933116" lon="2.801502"><ele>3.87</ele><time>2025-05-24T23:24:07Z</time></trkpt>
<trkpt lat="50.931247" lon="2.804481"><ele>3.49</ele><time>2025-05-24T23:24:12Z</time></trkpt>
<trkpt lat="50.930679" lon="2.805474"><ele>3.84</ele><time>2025-05-24T23:24:17Z</time></trkpt>
<trkpt lat="50.930015" lon="2.806732"><ele>2.0</ele><time>2025-05-24T23:24:22Z</time></trkpt>
<trkpt lat="50.929747" lon="2.807198"><ele>3.82</ele><time>2025-05-24T23:24:27Z</time></trkpt>
<trkpt lat="50.92946" lon="2.8076"><ele>3.39</ele><time>2025-05-24T23:24:32Z</time></trkpt>
<trkpt lat="50.929175" lon="2.807942"><ele>3.03</ele><time>2025-05-24T23:24:37Z</time></trkpt>
<trkpt lat="50.928962" lon="2.808144"><ele>2.77</ele><time>2025-05-24T23:24:42Z</time></trkpt>
<trkpt lat="50.928461" lon="2.808556"><ele>4.08</ele><time>2025-05-24T23:24:47Z</time></trkpt>
<trkpt lat="50.928233" lon="2.808787"><ele>4.01</ele><time>2025-05-24T23:24:52Z</time></trkpt>
<trkpt lat="50.927854" lon="2.809244"><ele>2.47</ele><time>2025-05-24T23:24:57Z</time></trkpt>
<trkpt lat="50.924023" lon="2.815203"><ele>3.48</ele><time>2025-05-24T23:25:02Z</time></trkpt>
<trkpt lat="50.923789" lon="2.815506"><ele>3.88</ele><time>2025-05-24T23:25:08Z</time></trkpt>
<trkpt lat="50.923238" lon="2.816035"><ele>3.9</ele><time>2025-05-24T23:25:13Z</time></trkpt>
<trkpt lat="50.923073" lon="2.816157"><ele>4.0</ele><time>2025-05-24T23:25:18Z</time></trkpt>
<trkpt lat="50.922921" lon="2.816228"><ele>4.0</ele><time>2025-05-24T23:25:23Z</time></trkpt>
<trkpt lat="50.922423" lon="2.816242"><ele>4.72</ele><time>2025-05-24T23:25:28Z</time></trkpt>
<trkpt lat="50.921972" lon="2.816333"><ele>4.0</ele><time>2025-05-24T23:25:33Z</time></trkpt>
<trkpt lat="50.921575" lon="2.816463"><ele>3.73</ele><time>2025-05-24T23:25:38Z</time></trkpt>
<trkpt lat="50.920955" lon="2.816835"><ele>3.56</ele><time>2025-05-24T23:25:43Z</time></trkpt>
<trkpt lat="50.920577" lon="2.817172"><ele>4.92</ele><time>2025-05-24T23:25:48Z</time></trkpt>
<trkpt lat="50.916451" lon="2.821939"><ele>3.45</ele><time>2025-05-24T23:25:53Z</time></trkpt>
<trkpt lat="50.916034" lon="2.82246"><ele>2.0</ele><time>2025-05-24T23:25:58Z</time></trkpt>
<trkpt lat="50.915655" lon="2.823051"><ele>1.64</ele><time>2025-05-24T23:26:03Z</time></trkpt>
<trkpt lat="50.915307" lon="2.823763"><ele>2.55</ele><time>2025-05-24T23:26:08Z</time></trkpt>
<trkpt lat="50.914662" lon="2.825472"><ele>3.23</ele><time>2025-05-24T23:26:14Z</time></trkpt>
<trkpt lat="50.913916" lon="2.827484"><ele>7.0</ele><time>2025-05-24T23:26:19Z</time></trkpt>
<trkpt lat="50.913798" lon="2.82792"><ele>8.33</ele><time>2025-05-24T23:26:24Z</time></trkpt>
<trkpt lat="50.913689" lon="2.828397"><ele>9.72</ele><time>2025-05-24T23:26:29Z</time></trkpt>
<trkpt lat="50.913644" lon="2.828516"><ele>9.88</ele><time>2025-05-24T23:26:34Z</time></trkpt>
<trkpt lat="50.913557" lon="2.828676"><ele>10.15</ele><time>2025-05-24T23:26:39Z</time></trkpt>
<trkpt lat="50.913286" lon="2.829023"><ele>10.0</ele><time>2025-05-24T23:26:44Z</time></trkpt>
<trkpt lat="50.913119" lon="2.829275"><ele>10.3</ele><time>2025-05-24T23:26:49Z</time></trkpt>
<trkpt lat="50.913055" lon="2.829411"><ele>10.88</ele><time>2025-05-24T23:26:54Z</time></trkpt>
<trkpt lat="50.913031" lon="2.829551"><ele>10.91</ele><time>2025-05-24T23:26:59Z</time></trkpt>
<trkpt lat="50.912919" lon="2.829607"><ele>10.51</ele><time>2025-05-24T23:27:02Z</time></trkpt>
<trkpt lat="50.91259" lon="2.829998"><ele>9.33</ele><time>2025-05-24T23:27:05Z</time></trkpt>
<trkpt lat="50.912465" lon="2.830194"><ele>9.0</ele><time>2025-05-24T23:27:08Z</time></trkpt>
<trkpt lat="50.911592" lon="2.83096"><ele>9.19</ele><time>2025-05-24T23:27:11Z</time></trkpt>
<trkpt lat="50.91114" lon="2.831394"><ele>9.0</ele><time>2025-05-24T23:27:14Z</time></trkpt>
<trkpt lat="50.910857" lon="2.831716"><ele>9.0</ele><time>2025-05-24T23:27:17Z</time></trkpt>
<trkpt lat="50.911023" lon="2.831993"><ele>8.82</ele><time>2025-05-24T23:27:20Z</time></trkpt>
<trkpt lat="50.911415" lon="2.832526"><ele>6.99</ele><time>2025-05-24T23:27:24Z</time></trkpt>
<trkpt lat="50.911826" lon="2.832973"><ele>7.72</ele><time>2025-05-24T23:27:27Z</time></trkpt>
<trkpt lat="50.912889" lon="2.834016"><ele>8.78</ele><time>2025-05-24T23:27:30Z</time></trkpt>
<trkpt lat="50.913991" lon="2.835208"><ele>9.0</ele><time>2025-05-24T23:27:34Z</time></trkpt>
<trkpt lat="50.914307" lon="2.835572"><ele>9.48</ele><time>2025-05-24T23:27:37Z</time></trkpt>
<trkpt lat="50.914456" lon="2.835686"><ele>9.49</ele><time>2025-05-24T23:27:41Z</time></trkpt>
<trkpt lat="50.914571" lon="2.835709"><ele>8.99</ele><time>2025-05-24T23:27:44Z</time></trkpt>
<trkpt lat="50.914722" lon="2.83569"><ele>8.52</ele><time>2025-05-24T23:27:47Z</time></trkpt>
<trkpt lat="50.914774" lon="2.835913"><ele>7.71</ele><time>2025-05-24T23:27:54Z</time></trkpt>
<trkpt lat="50.914915" lon="2.836242"><ele>7.0</ele><time>2025-05-24T23:28:01Z</time></trkpt>
<trkpt lat="50.91535" lon="2.836921"><ele>8.74</ele><time>2025-05-24T23:28:08Z</time></trkpt>
<trkpt lat="50.915599" lon="2.837344"><ele>7.84</ele><time>2025-05-24T23:28:15Z</time></trkpt>
<trkpt lat="50.914847" lon="2.838353"><ele>7.38</ele><time>2025-05-24T23:28:22Z</time></trkpt>
<trkpt lat="50.914379" lon="2.839008"><ele>5.13</ele><time>2025-05-24T23:28:29Z</time></trkpt>
<trkpt lat="50.914333" lon="2.839181"><ele>4.95</ele><time>2025-05-24T23:28:36Z</time></trkpt>
<trkpt lat="50.914327" lon="2.839291"><ele>4.55</ele><time>2025-05-24T23:28:43Z</time></trkpt>
<trkpt lat="50.914061" lon="2.839356"><ele>4.32</ele><time>2025-05-24T23:28:52Z</time></trkpt>
<trkpt lat="50.913745" lon="2.839471"><ele>5.03</ele><time>2025-05-24T23:29:01Z</time></trkpt>
<trkpt lat="50.913361" lon="2.839664"><ele>6.9</ele><time>2025-05-24T23:29:10Z</time></trkpt>
<trkpt lat="50.913144" lon="2.839798"><ele>7.41</ele><time>2025-05-24T23:29:19Z</time></trkpt>
<trkpt lat="50.912639" lon="2.840197"><ele>5.14</ele><time>2025-05-24T23:29:28Z</time></trkpt>
<trkpt lat="50.907062" lon="2.845061"><ele>4.58</ele><time>2025-05-24T23:29:37Z</time></trkpt>
<trkpt lat="50.903916" lon="2.847836"><ele>5.1</ele><time>2025-05-24T23:29:46Z</time></trkpt>
<trkpt lat="50.903581" lon="2.848154"><ele>6.68</ele><time>2025-05-24T23:29:55Z</time></trkpt>
<trkpt lat="50.903217" lon="2.848571"><ele>7.36</ele><time>2025-05-24T23:30:04Z</time></trkpt>
<trkpt lat="50.902766" lon="2.8492"><ele>8.0</ele><time>2025-05-24T23:30:12Z</time></trkpt>
<trkpt lat="50.902485" lon="2.849724"><ele>8.06</ele><time>2025-05-24T23:30:21Z</time></trkpt>
<trkpt lat="50.902141" lon="2.850368"><ele>8.48</ele><time>2025-05-24T23:30:30Z</time></trkpt>
<trkpt lat="50.896958" lon="2.860491"><ele>7.78</ele><time>2025-05-24T23:30:39Z</time></trkpt>
<trkpt lat="50.896287" lon="2.861608"><ele>9.29</ele><time>2025-05-24T23:30:48Z</time></trkpt>
<trkpt lat="50.896167" lon="2.861835"><ele>9.92</ele><time>2025-05-24T23:30:57Z</time></trkpt>
<trkpt lat="50.895856" lon="2.862292"><ele>9.08</ele><time>2025-05-24T23:31:06Z</time></trkpt>
<trkpt lat="50.895905" lon="2.86239"><ele>9.26</ele><time>2025-05-24T23:31:13Z</time></trkpt>
<trkpt lat="50.896001" lon="2.862624"><ele>9.87</ele><time>2025-05-24T23:31:19Z</time></trkpt>
<trkpt lat="50.896404" lon="2.86329"><ele>9.16</ele><time>2025-05-24T23:31:26Z</time></trkpt>
<trkpt lat="50.896482" lon="2.863492"><ele>8.62</ele><time>2025-05-24T23:31:33Z</time></trkpt>
<trkpt lat="50.896519" lon="2.863725"><ele>7.84</ele><time>2025-05-24T23:31:39Z</time></trkpt>
<trkpt lat="50.896518" lon="2.863927"><ele>6.93</ele><time>2025-05-24T23:31:46Z</time></trkpt>
<trkpt lat="50.896489" lon="2.864142"><ele>6.72</ele><time>2025-05-24T23:31:52Z</time></trkpt>
<trkpt lat="50.896196" lon="2.865001"><ele>9.69</ele><time>2025-05-24T23:31:59Z</time></trkpt>
<trkpt lat="50.896046" lon="2.865619"><ele>7.0</ele><time>2025-05-24T23:32:06Z</time></trkpt>
<trkpt lat="50.895956" lon="2.866369"><ele>7.52</ele><time>2025-05-24T23:32:12Z</time></trkpt>
<trkpt lat="50.895883" lon="2.868263"><ele>10.95</ele><time>2025-05-24T23:32:19Z</time></trkpt>
<trkpt lat="50.89586" lon="2.869357"><ele>10.62</ele><time>2025-05-24T23:32:26Z</time></trkpt>
<trkpt lat="50.895895" lon="2.870049"><ele>10.78</ele><time>2025-05-24T23:32:32Z</time></trkpt>
<trkpt lat="50.896031" lon="2.870949"><ele>11.7</ele><time>2025-05-24T23:32:39Z</time></trkpt>
<trkpt lat="50.89619" lon="2.87163"><ele>12.62</ele><time>2025-05-24T23:32:46Z</time></trkpt>
<trkpt lat="50.896622" lon="2.87276"><ele>12.0</ele><time>2025-05-24T23:32:52Z</time></trkpt>
<trkpt lat="50.898432" lon="2.877263"><ele>18.0</ele><time>2025-05-24T23:32:59Z</time></trkpt>
<trkpt lat="50.898483" lon="2.87742"><ele>18.0</ele><time>2025-05-24T23:33:06Z</time></trkpt>
<trkpt lat="50.89859" lon="2.877857"><ele>18.0</ele><time>2025-05-24T23:33:12Z</time></trkpt>
<trkpt lat="50.898621" lon="2.878057"><ele>18.0</ele><time>2025-05-24T23:33:19Z</time></trkpt>
<trkpt lat="50.898663" lon="2.878619"><ele>17.53</ele><time>2025-05-24T23:33:26Z</time></trkpt>
<trkpt lat="50.898772" lon="2.881471"><ele>17.75</ele><time>2025-05-24T23:33:32Z</time></trkpt>
<trkpt lat="50.898838" lon="2.882071"><ele>18.63</ele><time>2025-05-24T23:33:39Z</time></trkpt>
<trkpt lat="50.898972" lon="2.882728"><ele>20.12</ele><time>2025-05-24T23:33:46Z</time></trkpt>
<trkpt lat="50.900394" lon="2.888448"><ele>23.0</ele><time>2025-05-24T23:33:52Z</time></trkpt>
<trkpt lat="50.900651" lon="2.889275"><ele>21.92</ele><time>2025-05-24T23:33:59Z</time></trkpt>
<trkpt lat="50.901291" lon="2.891166"><ele>19.35</ele><time>2025-05-24T23:34:06Z</time></trkpt>
<trkpt lat="50.901397" lon="2.891523"><ele>19.45</ele><time>2025-05-24T23:34:12Z</time></trkpt>
<trkpt lat="50.901472" lon="2.891846"><ele>19.7</ele><time>2025-05-24T23:34:19Z</time></trkpt>
<trkpt lat="50.901544" lon="2.89228"><ele>20.0</ele><time>2025-05-24T23:34:26Z</time></trkpt>
<trkpt lat="50.902716" lon="2.898578"><ele>17.88</ele><time>2025-05-24T23:34:32Z</time></trkpt>
<trkpt lat="50.903086" lon="2.899989"><ele>19.96</ele><time>2025-05-24T23:34:39Z</time></trkpt>
<trkpt lat="50.906297" lon="2.911435"><ele>9.34</ele><time>2025-05-24T23:34:45Z</time></trkpt>
<trkpt lat="50.90634" lon="2.911573"><ele>8.5</ele><time>2025-05-24T23:34:52Z</time></trkpt>
<trkpt lat="50.906397" lon="2.91168"><ele>7.95</ele><time>2025-05-24T23:34:59Z</time></trkpt>
<trkpt lat="50.906465" lon="2.911717"><ele>7.87</ele><time>2025-05-24T23:35:05Z</time></trkpt>
<trkpt lat="50.90645" lon="2.911836"><ele>7.52</ele><time>2025-05-24T23:35:07Z</time></trkpt>
<trkpt lat="50.906458" lon="2.911954"><ele>7.22</ele><time>2025-05-24T23:35:09Z</time></trkpt>
<trkpt lat="50.906533" lon="2.912175"><ele>7.12</ele><time>2025-05-24T23:35:11Z</time></trkpt>
<trkpt lat="50.906749" lon="2.912704"><ele>8.44</ele><time>2025-05-24T23:35:13Z</time></trkpt>
<trkpt lat="50.90664" lon="2.912737"><ele>8.66</ele><time>2025-05-24T23:35:25Z</time></trkpt>
<trkpt lat="50.905887" lon="2.912488"><ele>6.81</ele><time>2025-05-24T23:35:38Z</time></trkpt>
<trkpt lat="50.905664" lon="2.912955"><ele>7.22</ele><time>2025-05-24T23:35:43Z</time></trkpt>
<trkpt lat="50.90534" lon="2.913544"><ele>7.0</ele><time>2025-05-24T23:35:47Z</time></trkpt>
<trkpt lat="50.905011" lon="2.914108"><ele>6.96</ele><time>2025-05-24T23:35:52Z</time></trkpt>
<trkpt lat="50.90436" lon="2.915076"><ele>7.7</ele><time>2025-05-24T23:35:57Z</time></trkpt>
<trkpt lat="50.90404" lon="2.915621"><ele>7.11</ele><time>2025-05-24T23:36:01Z</time></trkpt>
<trkpt lat="50.903339" lon="2.916974"><ele>8.02</ele><time>2025-05-24T23:36:06Z</time></trkpt>
<trkpt lat="50.903147" lon="2.917215"><ele>7.35</ele><time>2025-05-24T23:36:11Z</time></trkpt>
<trkpt lat="50.902793" lon="2.917483"><ele>7.0</ele><time>2025-05-24T23:36:15Z</time></trkpt>
<trkpt lat="50.902152" lon="2.917885"><ele>9.0</ele><time>2025-05-24T23:36:20Z</time></trkpt>
<trkpt lat="50.901114" lon="2.918844"><ele>9.19</ele><time>2025-05-24T23:36:25Z</time></trkpt>
<trkpt lat="50.900616" lon="2.919456"><ele>7.78</ele><time>2025-05-24T23:36:29Z</time></trkpt>
<trkpt lat="50.900388" lon="2.919606"><ele>9.21</ele><time>2025-05-24T23:36:34Z</time></trkpt>
<trkpt lat="50.900158" lon="2.919835"><ele>10.28</ele><time>2025-05-24T23:36:39Z</time></trkpt>
<trkpt lat="50.899861" lon="2.920272"><ele>10.5</ele><time>2025-05-24T23:36:44Z</time></trkpt>
<trkpt lat="50.89956" lon="2.920784"><ele>11.59</ele><time>2025-05-24T23:36:48Z</time></trkpt>
<trkpt lat="50.899499" lon="2.920853"><ele>11.82</ele><time>2025-05-24T23:36:53Z</time></trkpt>
<trkpt lat="50.899432" lon="2.920885"><ele>12.01</ele><time>2025-05-24T23:36:58Z</time></trkpt>
<trkpt lat="50.89928" lon="2.920861"><ele>12.06</ele><time>2025-05-24T23:37:02Z</time></trkpt>
<trkpt lat="50.898822" lon="2.920497"><ele>12.05</ele><time>2025-05-24T23:37:07Z</time></trkpt>
<trkpt lat="50.898756" lon="2.920472"><ele>12.14</ele><time>2025-05-24T23:37:12Z</time></trkpt>
<trkpt lat="50.898536" lon="2.920518"><ele>12.14</ele><time>2025-05-24T23:37:16Z</time></trkpt>
<trkpt lat="50.89843" lon="2.920565"><ele>11.98</ele><time>2025-05-24T23:37:21Z</time></trkpt>
<trkpt lat="50.898323" lon="2.920626"><ele>11.78</ele><time>2025-05-24T23:37:26Z</time></trkpt>
<trkpt lat="50.898241" lon="2.920728"><ele>11.71</ele><time>2025-05-24T23:37:30Z</time></trkpt>
<trkpt lat="50.898184" lon="2.920847"><ele>11.49</ele><time>2025-05-24T23:37:35Z</time></trkpt>
<trkpt lat="50.897704" lon="2.922284"><ele>13.27</ele><time>2025-05-24T23:37:40Z</time></trkpt>
<trkpt lat="50.897561" lon="2.922599"><ele>13.43</ele><time>2025-05-24T23:37:45Z</time></trkpt>
<trkpt lat="50.897101" lon="2.923274"><ele>13.12</ele><time>2025-05-24T23:37:49Z</time></trkpt>
<trkpt lat="50.897036" lon="2.923404"><ele>13.0</ele><time>2025-05-24T23:37:54Z</time></trkpt>
<trkpt lat="50.896852" lon="2.92408"><ele>13.67</ele><time>2025-05-24T23:37:59Z</time></trkpt>
<trkpt lat="50.89672" lon="2.924406"><ele>12.33</ele><time>2025-05-24T23:38:03Z</time></trkpt>
<trkpt lat="50.896549" lon="2.924686"><ele>12.0</ele><time>2025-05-24T23:38:08Z</time></trkpt>
<trkpt lat="50.896024" lon="2.925256"><ele>13.0</ele><time>2025-05-24T23:38:13Z</time></trkpt>
<trkpt lat="50.896439" lon="2.926243"><ele>12.0</ele><time>2025-05-24T23:38:22Z</time></trkpt>
<trkpt lat="50.896795" lon="2.927189"><ele>13.42</ele><time>2025-05-24T23:38:31Z</time></trkpt>
<trkpt lat="50.89709" lon="2.928116"><ele>10.15</ele><time>2025-05-24T23:38:40Z</time></trkpt>
<trkpt lat="50.897617" lon="2.929998"><ele>8.15</ele><time>2025-05-24T23:38:49Z</time></trkpt>
<trkpt lat="50.897674" lon="2.930297"><ele>7.72</ele><time>2025-05-24T23:38:58Z</time></trkpt>
<trkpt lat="50.897994" lon="2.932426"><ele>9.22</ele><time>2025-05-24T23:39:08Z</time></trkpt>
<trkpt lat="50.898008" lon="2.932961"><ele>10.0</ele><time>2025-05-24T23:39:17Z</time></trkpt>
<trkpt lat="50.897849" lon="2.935885"><ele>13.21</ele><time>2025-05-24T23:39:26Z</time></trkpt>
<trkpt lat="50.89772" lon="2.937587"><ele>14.04</ele><time>2025-05-24T23:39:35Z</time></trkpt>
<trkpt lat="50.897617" lon="2.93924"><ele>18.04</ele><time>2025-05-24T23:39:44Z</time></trkpt>
<trkpt lat="50.897638" lon="2.939803"><ele>18.15</ele><time>2025-05-24T23:39:53Z</time></trkpt>
<trkpt lat="50.897734" lon="2.940991"><ele>18.07</ele><time>2025-05-24T23:40:03Z</time></trkpt>
<trkpt lat="50.897771" lon="2.941971"><ele>18.0</ele><time>2025-05-24T23:40:12Z</time></trkpt>
<trkpt lat="50.897763" lon="2.942174"><ele>18.0</ele><time>2025-05-24T23:40:21Z</time></trkpt>
<trkpt lat="50.896304" lon="2.9439"><ele>18.39</ele><time>2025-05-24T23:40:31Z</time></trkpt>
<trkpt lat="50.895565" lon="2.944591"><ele>17.03</ele><time>2025-05-24T23:40:42Z</time></trkpt>
<trkpt lat="50.893688" lon="2.946219"><ele>18.0</ele><time>2025-05-24T23:40:52Z</time></trkpt>
<trkpt lat="50.893399" lon="2.94651"><ele>18.43</ele><time>2025-05-24T23:41:03Z</time></trkpt>
<trkpt lat="50.892877" lon="2.947103"><ele>18.36</ele><time>2025-05-24T23:41:13Z</time></trkpt>
<trkpt lat="50.892391" lon="2.947781"><ele>17.0</ele><time>2025-05-24T23:41:23Z</time></trkpt>
<trkpt lat="50.892036" lon="2.94839"><ele>18.0</ele><time>2025-05-24T23:41:34Z</time></trkpt>
<trkpt lat="50.891871" lon="2.948715"><ele>17.64</ele><time>2025-05-24T23:41:44Z</time></trkpt>
<trkpt lat="50.891457" lon="2.949643"><ele>14.49</ele><time>2025-05-24T23:41:54Z</time></trkpt>
<trkpt lat="50.885765" lon="2.962855"><ele>22.25</ele><time>2025-05-24T23:42:05Z</time></trkpt>
<trkpt lat="50.886257" lon="2.964524"><ele>19.15</ele><time>2025-05-24T23:42:11Z</time></trkpt>
<trkpt lat="50.886296" lon="2.964759"><ele>19.8</ele><time>2025-05-24T23:42:18Z</time></trkpt>
<trkpt lat="50.886324" lon="2.965055"><ele>20.76</ele><time>2025-05-24T23:42:24Z</time></trkpt>
<trkpt lat="50.886338" lon="2.965421"><ele>21.33</ele><time>2025-05-24T23:42:31Z</time></trkpt>
<trkpt lat="50.886412" lon="2.967002"><ele>20.73</ele><time>2025-05-24T23:42:37Z</time></trkpt>
<trkpt lat="50.886458" lon="2.967371"><ele>20.0</ele><time>2025-05-24T23:42:44Z</time></trkpt>
<trkpt lat="50.88677" lon="2.969338"><ele>20.37</ele><time>2025-05-24T23:42:50Z</time></trkpt>
<trkpt lat="50.887324" lon="2.971008"><ele>21.37</ele><time>2025-05-24T23:42:57Z</time></trkpt>
<trkpt lat="50.887385" lon="2.971255"><ele>20.7</ele><time>2025-05-24T23:43:03Z</time></trkpt>
<trkpt lat="50.8875" lon="2.971968"><ele>19.0</ele><time>2025-05-24T23:43:10Z</time></trkpt>
<trkpt lat="50.887545" lon="2.972166"><ele>18.97</ele><time>2025-05-24T23:43:16Z</time></trkpt>
<trkpt lat="50.887648" lon="2.972501"><ele>19.0</ele><time>2025-05-24T23:43:22Z</time></trkpt>
<trkpt lat="50.888075" lon="2.973552"><ele>20.93</ele><time>2025-05-24T23:43:29Z</time></trkpt>
<trkpt lat="50.888245" lon="2.973896"><ele>21.32</ele><time>2025-05-24T23:43:35Z</time></trkpt>
<trkpt lat="50.888471" lon="2.974292"><ele>21.45</ele><time>2025-05-24T23:43:42Z</time></trkpt>
<trkpt lat="50.889163" lon="2.975408"><ele>24.45</ele><time>2025-05-24T23:43:48Z</time></trkpt>
<trkpt lat="50.889657" lon="2.976593"><ele>27.27</ele><time>2025-05-24T23:43:55Z</time></trkpt>
<trkpt lat="50.890023" lon="2.977349"><ele>29.17</ele><time>2025-05-24T23:44:01Z</time></trkpt>
<trkpt lat="50.890185" lon="2.977769"><ele>30.33</ele><time>2025-05-24T23:44:08Z</time></trkpt>
<trkpt lat="50.890604" lon="2.979274"><ele>34.5</ele><time>2025-05-24T23:44:14Z</time></trkpt>
<trkpt lat="50.890963" lon="2.980125"><ele>33.0</ele><time>2025-05-24T23:44:21Z</time></trkpt>
<trkpt lat="50.891234" lon="2.980883"><ele>31.92</ele><time>2025-05-24T23:44:27Z</time></trkpt>
<trkpt lat="50.892049" lon="2.982242"><ele>31.62</ele><time>2025-05-24T23:44:34Z</time></trkpt>
<trkpt lat="50.892604" lon="2.983283"><ele>29.67</ele><time>2025-05-24T23:44:40Z</time></trkpt>
<trkpt lat="50.892689" lon="2.983497"><ele>29.68</ele><time>2025-05-24T23:44:46Z</time></trkpt>
<trkpt lat="50.89278" lon="2.983812"><ele>29.26</ele><time>2025-05-24T23:44:53Z</time></trkpt>
<trkpt lat="50.893109" lon="2.985134"><ele>26.19</ele><time>2025-05-24T23:44:59Z</time></trkpt>
<trkpt lat="50.893195" lon="2.985717"><ele>26.21</ele><time>2025-05-24T23:45:06Z</time></trkpt>
<trkpt lat="50.893248" lon="2.986587"><ele>23.59</ele><time>2025-05-24T23:45:12Z</time></trkpt>
<trkpt lat="50.893297" lon="2.986934"><ele>23.13</ele><time>2025-05-24T23:45:19Z</time></trkpt>
<trkpt lat="50.893371" lon="2.98717"><ele>23.11</ele><time>2025-05-24T23:45:25Z</time></trkpt>
<trkpt lat="50.893551" lon="2.987631"><ele>24.47</ele><time>2025-05-24T23:45:32Z</time></trkpt>
<trkpt lat="50.893757" lon="2.988061"><ele>25.0</ele><time>2025-05-24T23:45:38Z</time></trkpt>
<trkpt lat="50.894669" lon="2.989491"><ele>25.02</ele><time>2025-05-24T23:45:45Z</time></trkpt>
<trkpt lat="50.894765" lon="2.989667"><ele>24.05</ele><time>2025-05-24T23:45:51Z</time></trkpt>
<trkpt lat="50.895035" lon="2.99031"><ele>21.9</ele><time>2025-05-24T23:45:58Z</time></trkpt>
<trkpt lat="50.89523" lon="2.990671"><ele>21.83</ele><time>2025-05-24T23:46:04Z</time></trkpt>
<trkpt lat="50.896135" lon="2.992164"><ele>25.71</ele><time>2025-05-24T23:46:11Z</time></trkpt>
<trkpt lat="50.897242" lon="2.994516"><ele>32.0</ele><time>2025-05-24T23:46:17Z</time></trkpt>
<trkpt lat="50.897416" lon="2.994844"><ele>32.31</ele><time>2025-05-24T23:46:23Z</time></trkpt>
<trkpt lat="50.898415" lon="2.996385"><ele>36.6</ele><time>2025-05-24T23:46:30Z</time></trkpt>
<trkpt lat="50.898616" lon="2.99673"><ele>37.02</ele><time>2025-05-24T23:46:36Z</time></trkpt>
<trkpt lat="50.898934" lon="2.997389"><ele>38.32</ele><time>2025-05-24T23:46:43Z</time></trkpt>
<trkpt lat="50.899907" lon="2.998886"><ele>39.67</ele><time>2025-05-24T23:46:49Z</time></trkpt>
<trkpt lat="50.900047" lon="2.999141"><ele>39.85</ele><time>2025-05-24T23:46:56Z</time></trkpt>
<trkpt lat="50.901653" lon="3.002569"><ele>41.2</ele><time>2025-05-24T23:47:02Z</time></trkpt>
<trkpt lat="50.902554" lon="3.005491"><ele>44.96</ele><time>2025-05-24T23:47:09Z</time></trkpt>
<trkpt lat="50.902667" lon="3.00597"><ele>46.19</ele><time>2025-05-24T23:47:15Z</time></trkpt>
<trkpt lat="50.902861" lon="3.007136"><ele>45.91</ele><time>2025-05-24T23:47:22Z</time></trkpt>
<trkpt lat="50.903149" lon="3.008198"><ele>47.0</ele><time>2025-05-24T23:47:28Z</time></trkpt>
<trkpt lat="50.903328" lon="3.00874"><ele>46.53</ele><time>2025-05-24T23:47:35Z</time></trkpt>
<trkpt lat="50.904052" lon="3.01028"><ele>48.0</ele><time>2025-05-24T23:47:41Z</time></trkpt>
<trkpt lat="50.905146" lon="3.013014"><ele>48.0</ele><time>2025-05-24T23:47:47Z</time></trkpt>
<trkpt lat="50.905496" lon="3.013807"><ele>49.55</ele><time>2025-05-24T23:47:54Z</time></trkpt>
<trkpt lat="50.906023" lon="3.014932"><ele>50.0</ele><time>2025-05-24T23:48:00Z</time></trkpt>
<trkpt lat="50.907819" lon="3.018867"><ele>48.63</ele><time>2025-05-24T23:48:07Z</time></trkpt>
<trkpt lat="50.908217" lon="3.019771"><ele>48.18</ele><time>2025-05-24T23:48:13Z</time></trkpt>
<trkpt lat="50.908271" lon="3.020007"><ele>49.0</ele><time>2025-05-24T23:48:20Z</time></trkpt>
<trkpt lat="50.908368" lon="3.020322"><ele>49.24</ele><time>2025-05-24T23:48:26Z</time></trkpt>
<trkpt lat="50.908478" lon="3.020557"><ele>49.48</ele><time>2025-05-24T23:48:33Z</time></trkpt>
<trkpt lat="50.908576" lon="3.020712"><ele>49.13</ele><time>2025-05-24T23:48:39Z</time></trkpt>
<trkpt lat="50.908663" lon="3.020809"><ele>49.0</ele><time>2025-05-24T23:48:46Z</time></trkpt>
<trkpt lat="50.908819" lon="3.021084"><ele>48.33</ele><time>2025-05-24T23:48:52Z</time></trkpt>
<trkpt lat="50.909429" lon="3.021845"><ele>47.0</ele><time>2025-05-24T23:48:59Z</time></trkpt>
<trkpt lat="50.910539" lon="3.023172"><ele>47.36</ele><time>2025-05-24T23:49:05Z</time></trkpt>
<trkpt lat="50.913733" lon="3.027412"><ele>38.88</ele><time>2025-05-24T23:49:12Z</time></trkpt>
<trkpt lat="50.91404" lon="3.027861"><ele>37.0</ele><time>2025-05-24T23:49:18Z</time></trkpt>
<trkpt lat="50.914238" lon="3.028191"><ele>37.13</ele><time>2025-05-24T23:49:24Z</time></trkpt>
<trkpt lat="50.914975" lon="3.029605"><ele>37.0</ele><time>2025-05-24T23:49:31Z</time></trkpt>
<trkpt lat="50.915382" lon="3.030256"><ele>36.62</ele><time>2025-05-24T23:49:37Z</time></trkpt>
<trkpt lat="50.916139" lon="3.031388"><ele>34.0</ele><time>2025-05-24T23:49:44Z</time></trkpt>
<trkpt lat="50.917145" lon="3.032963"><ele>30.72</ele><time>2025-05-24T23:49:50Z</time></trkpt>
<trkpt lat="50.920436" lon="3.038258"><ele>26.84</ele><time>2025-05-24T23:49:57Z</time></trkpt>
<trkpt lat="50.920791" lon="3.038843"><ele>28.68</ele><time>2025-05-24T23:50:03Z</time></trkpt>
<trkpt lat="50.923943" lon="3.04444"><ele>23.99</ele><time>2025-05-24T23:50:10Z</time></trkpt>
<trkpt lat="50.924073" lon="3.044744"><ele>24.08</ele><time>2025-05-24T23:50:16Z</time></trkpt>
<trkpt lat="50.924711" lon="3.046879"><ele>24.0</ele><time>2025-05-24T23:50:23Z</time></trkpt>
<trkpt lat="50.92485" lon="3.047243"><ele>24.0</ele><time>2025-05-24T23:50:29Z</time></trkpt>
<trkpt lat="50.924989" lon="3.04754"><ele>24.0</ele><time>2025-05-24T23:50:36Z</time></trkpt>
<trkpt lat="50.92515" lon="3.04783"><ele>24.0</ele><time>2025-05-24T23:50:42Z</time></trkpt>
<trkpt lat="50.925268" lon="3.047995"><ele>24.0</ele><time>2025-05-24T23:50:49Z</time></trkpt>
<trkpt lat="50.926659" lon="3.049589"><ele>25.0</ele><time>2025-05-24T23:50:55Z</time></trkpt>
<trkpt lat="50.926825" lon="3.050831"><ele>24.43</ele><time>2025-05-24T23:51:02Z</time></trkpt>
<trkpt lat="50.926891" lon="3.052214"><ele>26.78</ele><time>2025-05-24T23:51:08Z</time></trkpt>
<trkpt lat="50.927038" lon="3.053851"><ele>26.63</ele><time>2025-05-24T23:51:15Z</time></trkpt>
<trkpt lat="50.927132" lon="3.054654"><ele>25.0</ele><time>2025-05-24T23:51:22Z</time></trkpt>
<trkpt lat="50.927256" lon="3.055301"><ele>24.0</ele><time>2025-05-24T23:51:28Z</time></trkpt>
<trkpt lat="50.927546" lon="3.05646"><ele>24.91</ele><time>2025-05-24T23:51:35Z</time></trkpt>
<trkpt lat="50.927633" lon="3.056732"><ele>24.48</ele><time>2025-05-24T23:51:42Z</time></trkpt>
<trkpt lat="50.927747" lon="3.057019"><ele>24.92</ele><time>2025-05-24T23:51:48Z</time></trkpt>
<trkpt lat="50.928191" lon="3.058103"><ele>26.08</ele><time>2025-05-24T23:51:55Z</time></trkpt>
<trkpt lat="50.929041" lon="3.060015"><ele>24.03</ele><time>2025-05-24T23:52:01Z</time></trkpt>
<trkpt lat="50.929228" lon="3.060556"><ele>26.44</ele><time>2025-05-24T23:52:08Z</time></trkpt>
<trkpt lat="50.929734" lon="3.062433"><ele>27.92</ele><time>2025-05-24T23:52:15Z</time></trkpt>
<trkpt lat="50.929795" lon="3.062749"><ele>27.05</ele><time>2025-05-24T23:52:21Z</time></trkpt>
<trkpt lat="50.930065" lon="3.065883"><ele>25.76</ele><time>2025-05-24T23:52:28Z</time></trkpt>
<trkpt lat="50.930108" lon="3.066623"><ele>26.45</ele><time>2025-05-24T23:52:35Z</time></trkpt>
<trkpt lat="50.930076" lon="3.068086"><ele>25.03</ele><time>2025-05-24T23:52:41Z</time></trkpt>
<trkpt lat="50.930103" lon="3.06944"><ele>25.37</ele><time>2025-05-24T23:52:48Z</time></trkpt>
<trkpt lat="50.93018" lon="3.070978"><ele>24.82</ele><time>2025-05-24T23:52:55Z</time></trkpt>
<trkpt lat="50.930336" lon="3.07242"><ele>25.27</ele><time>2025-05-24T23:53:01Z</time></trkpt>
<trkpt lat="50.930334" lon="3.072669"><ele>24.59</ele><time>2025-05-24T23:53:08Z</time></trkpt>
<trkpt lat="50.930253" lon="3.073588"><ele>23.91</ele><time>2025-05-24T23:53:15Z</time></trkpt>
<trkpt lat="50.930204" lon="3.074975"><ele>23.82</ele><time>2025-05-24T23:53:21Z</time></trkpt>
<trkpt lat="50.929857" lon="3.077129"><ele>24.15</ele><time>2025-05-24T23:53:28Z</time></trkpt>
<trkpt lat="50.92976" lon="3.07786"><ele>24.53</ele><time>2025-05-24T23:53:34Z</time></trkpt>
<trkpt lat="50.929744" lon="3.078078"><ele>25.23</ele><time>2025-05-24T23:53:41Z</time></trkpt>
<trkpt lat="50.929749" lon="3.07827"><ele>26.49</ele><time>2025-05-24T23:53:48Z</time></trkpt>
<trkpt lat="50.929865" lon="3.079191"><ele>26.95</ele><time>2025-05-24T23:53:54Z</time></trkpt>
<trkpt lat="50.929864" lon="3.079398"><ele>26.57</ele><time>2025-05-24T23:54:01Z</time></trkpt>
<trkpt lat="50.929826" lon="3.079992"><ele>23.06</ele><time>2025-05-24T23:54:08Z</time></trkpt>
<trkpt lat="50.929788" lon="3.080198"><ele>23.0</ele><time>2025-05-24T23:54:14Z</time></trkpt>
<trkpt lat="50.929716" lon="3.080788"><ele>23.0</ele><time>2025-05-24T23:54:21Z</time></trkpt>
<trkpt lat="50.929498" lon="3.082964"><ele>21.19</ele><time>2025-05-24T23:54:28Z</time></trkpt>
<trkpt lat="50.929364" lon="3.083962"><ele>22.52</ele><time>2025-05-24T23:54:34Z</time></trkpt>
<trkpt lat="50.929265" lon="3.084345"><ele>21.36</ele><time>2025-05-24T23:54:41Z</time></trkpt>
<trkpt lat="50.929094" lon="3.084792"><ele>20.55</ele><time>2025-05-24T23:54:48Z</time></trkpt>
<trkpt lat="50.929091" lon="3.085001"><ele>20.0</ele><time>2025-05-24T23:54:54Z</time></trkpt>
<trkpt lat="50.929219" lon="3.086459"><ele>20.75</ele><time>2025-05-24T23:55:01Z</time></trkpt>
<trkpt lat="50.929308" lon="3.087016"><ele>20.26</ele><time>2025-05-24T23:55:07Z</time></trkpt>
<trkpt lat="50.929413" lon="3.087576"><ele>21.24</ele><time>2025-05-24T23:55:14Z</time></trkpt>
<trkpt lat="50.929848" lon="3.089375"><ele>20.14</ele><time>2025-05-24T23:55:21Z</time></trkpt>
<trkpt lat="50.930101" lon="3.090491"><ele>22.13</ele><time>2025-05-24T23:55:27Z</time></trkpt>
<trkpt lat="50.930352" lon="3.0918"><ele>20.73</ele><time>2025-05-24T23:55:34Z</time></trkpt>
<trkpt lat="50.930793" lon="3.093152"><ele>22.41</ele><time>2025-05-24T23:55:41Z</time></trkpt>
<trkpt lat="50.930816" lon="3.093264"><ele>22.17</ele><time>2025-05-24T23:55:47Z</time></trkpt>
<trkpt lat="50.930727" lon="3.093509"><ele>21.62</ele><time>2025-05-24T23:55:50Z</time></trkpt>
<trkpt lat="50.93088" lon="3.093776"><ele>21.41</ele><time>2025-05-24T23:55:57Z</time></trkpt>
<trkpt lat="50.931055" lon="3.094164"><ele>21.0</ele><time>2025-05-24T23:56:05Z</time></trkpt>
<trkpt lat="50.931199" lon="3.094562"><ele>21.71</ele><time>2025-05-24T23:56:13Z</time></trkpt>
<trkpt lat="50.931434" lon="3.095353"><ele>21.77</ele><time>2025-05-24T23:56:20Z</time></trkpt>
<trkpt lat="50.932324" lon="3.098134"><ele>20.0</ele><time>2025-05-24T23:56:28Z</time></trkpt>
<trkpt lat="50.932815" lon="3.099737"><ele>20.13</ele><time>2025-05-24T23:56:36Z</time></trkpt>
<trkpt lat="50.93298" lon="3.100195"><ele>20.73</ele><time>2025-05-24T23:56:43Z</time></trkpt>
<trkpt lat="50.933395" lon="3.10109"><ele>19.8</ele><time>2025-05-24T23:56:51Z</time></trkpt>
<trkpt lat="50.933585" lon="3.101511"><ele>19.09</ele><time>2025-05-24T23:56:59Z</time></trkpt>
<trkpt lat="50.93366" lon="3.101633"><ele>19.18</ele><time>2025-05-24T23:57:06Z</time></trkpt>
<trkpt lat="50.932555" lon="3.102115"><ele>17.47</ele><time>2025-05-24T23:57:11Z</time></trkpt>
<trkpt lat="50.931009" lon="3.102873"><ele>17.63</ele><time>2025-05-24T23:57:16Z</time></trkpt>
<trkpt lat="50.930654" lon="3.103082"><ele>17.09</ele><time>2025-05-24T23:57:21Z</time></trkpt>
<trkpt lat="50.929952" lon="3.103581"><ele>16.83</ele><time>2025-05-24T23:57:26Z</time></trkpt>
<trkpt lat="50.929578" lon="3.103909"><ele>17.56</ele><time>2025-05-24T23:57:31Z</time></trkpt>
<trkpt lat="50.92916" lon="3.10433"><ele>20.03</ele><time>2025-05-24T23:57:36Z</time></trkpt>
<trkpt lat="50.928579" lon="3.104981"><ele>19.18</ele><time>2025-05-24T23:57:41Z</time></trkpt>
<trkpt lat="50.928346" lon="3.105274"><ele>19.95</ele><time>2025-05-24T23:57:46Z</time></trkpt>
<trkpt lat="50.927731" lon="3.10625"><ele>22.0</ele><time>2025-05-24T23:57:51Z</time></trkpt>
<trkpt lat="50.927253" lon="3.107192"><ele>22.69</ele><time>2025-05-24T23:57:56Z</time></trkpt>
<trkpt lat="50.92706" lon="3.107632"><ele>22.08</ele><time>2025-05-24T23:58:01Z</time></trkpt>
<trkpt lat="50.926688" lon="3.108692"><ele>22.37</ele><time>2025-05-24T23:58:06Z</time></trkpt>
<trkpt lat="50.926427" lon="3.109579"><ele>22.0</ele><time>2025-05-24T23:58:11Z</time></trkpt>
<trkpt lat="50.926199" lon="3.110495"><ele>24.15</ele><time>2025-05-24T23:58:16Z</time></trkpt>
<trkpt lat="50.926009" lon="3.111538"><ele>24.54</ele><time>2025-05-24T23:58:21Z</time></trkpt>
<trkpt lat="50.925867" lon="3.112668"><ele>27.73</ele><time>2025-05-24T23:58:26Z</time></trkpt>
<trkpt lat="50.925601" lon="3.116125"><ele>27.84</ele><time>2025-05-24T23:58:31Z</time></trkpt>
<trkpt lat="50.92554" lon="3.116653"><ele>28.06</ele><time>2025-05-24T23:58:35Z</time></trkpt>
<trkpt lat="50.925453" lon="3.117741"><ele>28.74</ele><time>2025-05-24T23:58:40Z</time></trkpt>
<trkpt lat="50.925419" lon="3.118287"><ele>29.4</ele><time>2025-05-24T23:58:45Z</time></trkpt>
<trkpt lat="50.925384" lon="3.118724"><ele>30.41</ele><time>2025-05-24T23:58:50Z</time></trkpt>
<trkpt lat="50.925264" lon="3.121113"><ele>29.95</ele><time>2025-05-24T23:58:55Z</time></trkpt>
<trkpt lat="50.924872" lon="3.126446"><ele>23.63</ele><time>2025-05-24T23:59:00Z</time></trkpt>
<trkpt lat="50.924776" lon="3.127542"><ele>23.0</ele><time>2025-05-24T23:59:05Z</time></trkpt>
<trkpt lat="50.924568" lon="3.127594"><ele>22.81</ele><time>2025-05-24T23:59:12Z</time></trkpt>
<trkpt lat="50.924118" lon="3.127778"><ele>23.17</ele><time>2025-05-24T23:59:20Z</time></trkpt>
<trkpt lat="50.923878" lon="3.127824"><ele>24.04</ele><time>2025-05-24T23:59:27Z</time></trkpt>
<trkpt lat="50.923611" lon="3.127814"><ele>25.0</ele><time>2025-05-24T23:59:34Z</time></trkpt>
<trkpt lat="50.923459" lon="3.128699"><ele>22.68</ele><time>2025-05-24T23:59:40Z</time></trkpt>
<trkpt lat="50.922919" lon="3.128862"><ele>23.54</ele><time>2025-05-24T23:59:47Z</time></trkpt>
<trkpt lat="50.923614" lon="3.133549"><ele>22.98</ele><time>2025-05-24T23:59:53Z</time></trkpt>
<trkpt lat="50.923629" lon="3.13374"><ele>22.47</ele><time>2025-05-25T00:00:00Z</time></trkpt>
<trkpt lat="50.923619" lon="3.133879"><ele>22.03</ele><time>2025-05-25T00:00:06Z</time></trkpt>
<trkpt lat="50.922768" lon="3.138933"><ele>23.06</ele><time>2025-05-25T00:00:13Z</time></trkpt>
<trkpt lat="50.922667" lon="3.139247"><ele>23.11</ele><time>2025-05-25T00:00:19Z</time></trkpt>
<trkpt lat="50.922459" lon="3.139701"><ele>22.85</ele><time>2025-05-25T00:00:26Z</time></trkpt>
<trkpt lat="50.922429" lon="3.139822"><ele>22.48</ele><time>2025-05-25T00:00:32Z</time></trkpt>
<trkpt lat="50.922426" lon="3.139958"><ele>22.11</ele><time>2025-05-25T00:00:38Z</time></trkpt>
<trkpt lat="50.921858" lon="3.140168"><ele>23.43</ele><time>2025-05-25T00:00:49Z</time></trkpt>
<trkpt lat="50.920992" lon="3.140418"><ele>22.07</ele><time>2025-05-25T00:01:00Z</time></trkpt>
<trkpt lat="50.920783" lon="3.140449"><ele>21.13</ele><time>2025-05-25T00:01:10Z</time></trkpt>
<trkpt lat="50.918558" lon="3.140471"><ele>21.13</ele><time>2025-05-25T00:01:21Z</time></trkpt>
<trkpt lat="50.917394" lon="3.140427"><ele>23.0</ele><time>2025-05-25T00:01:32Z</time></trkpt>
<trkpt lat="50.915368" lon="3.140271"><ele>21.67</ele><time>2025-05-25T00:01:42Z</time></trkpt>
<trkpt lat="50.914272" lon="3.139743"><ele>19.55</ele><time>2025-05-25T00:01:53Z</time></trkpt>
<trkpt lat="50.913832" lon="3.139567"><ele>21.24</ele><time>2025-05-25T00:02:04Z</time></trkpt>
<trkpt lat="50.913582" lon="3.139519"><ele>20.0</ele><time>2025-05-25T00:02:14Z</time></trkpt>
<trkpt lat="50.913334" lon="3.139541"><ele>20.0</ele><time>2025-05-25T00:02:25Z</time></trkpt>
<trkpt lat="50.912512" lon="3.139834"><ele>19.64</ele><time>2025-05-25T00:02:36Z</time></trkpt>
<trkpt lat="50.911725" lon="3.140155"><ele>19.35</ele><time>2025-05-25T00:02:46Z</time></trkpt>
<trkpt lat="50.911565" lon="3.140247"><ele>19.43</ele><time>2025-05-25T00:02:57Z</time></trkpt>
<trkpt lat="50.911428" lon="3.140336"><ele>19.65</ele><time>2025-05-25T00:03:08Z</time></trkpt>
<trkpt lat="50.909843" lon="3.141946"><ele>18.14</ele><time>2025-05-25T00:03:18Z</time></trkpt>
<trkpt lat="50.909642" lon="3.142078"><ele>18.86</ele><time>2025-05-25T00:03:29Z</time></trkpt>
<trkpt lat="50.908544" lon="3.142632"><ele>21.83</ele><time>2025-05-25T00:03:40Z</time></trkpt>
<trkpt lat="50.90783" lon="3.142854"><ele>21.38</ele><time>2025-05-25T00:03:50Z</time></trkpt>
<trkpt lat="50.903547" lon="3.143904"><ele>24.0</ele><time>2025-05-25T00:04:01Z</time></trkpt>
<trkpt lat="50.902202" lon="3.144193"><ele>27.93</ele><time>2025-05-25T00:04:12Z</time></trkpt>
<trkpt lat="50.902224" lon="3.144304"><ele>27.99</ele><time>2025-05-25T00:04:15Z</time></trkpt>
<trkpt lat="50.902263" lon="3.144799"><ele>27.24</ele><time>2025-05-25T00:04:19Z</time></trkpt>
<trkpt lat="50.902242" lon="3.144939"><ele>26.95</ele><time>2025-05-25T00:04:22Z</time></trkpt>
<trkpt lat="50.902166" lon="3.145227"><ele>26.39</ele><time>2025-05-25T00:04:26Z</time></trkpt>
<trkpt lat="50.902013" lon="3.145553"><ele>24.77</ele><time>2025-05-25T00:04:30Z</time></trkpt>
<trkpt lat="50.90121" lon="3.146802"><ele>21.64</ele><time>2025-05-25T00:04:33Z</time></trkpt>
<trkpt lat="50.901122" lon="3.147007"><ele>21.74</ele><time>2025-05-25T00:04:37Z</time></trkpt>
<trkpt lat="50.901072" lon="3.147195"><ele>21.24</ele><time>2025-05-25T00:04:40Z</time></trkpt>
<trkpt lat="50.901042" lon="3.147544"><ele>21.21</ele><time>2025-05-25T00:04:44Z</time></trkpt>
<trkpt lat="50.901067" lon="3.148687"><ele>21.23</ele><time>2025-05-25T00:04:47Z</time></trkpt>
<trkpt lat="50.901023" lon="3.148934"><ele>21.68</ele><time>2025-05-25T00:04:51Z</time></trkpt>
<trkpt lat="50.900949" lon="3.148995"><ele>21.42</ele><time>2025-05-25T00:04:52Z</time></trkpt>
<trkpt lat="50.900656" lon="3.149082"><ele>21.0</ele><time>2025-05-25T00:04:54Z</time></trkpt>
<trkpt lat="50.900575" lon="3.149221"><ele>21.0</ele><time>2025-05-25T00:04:56Z</time></trkpt>
<trkpt lat="50.900543" lon="3.149341"><ele>21.05</ele><time>2025-05-25T00:04:59Z</time></trkpt>
<trkpt lat="50.900525" lon="3.14943"><ele>21.11</ele><time>2025-05-25T00:05:02Z</time></trkpt>
<trkpt lat="50.900517" lon="3.14964"><ele>21.04</ele><time>2025-05-25T00:05:05Z</time></trkpt>
<trkpt lat="50.900543" lon="3.150101"><ele>20.95</ele><time>2025-05-25T00:05:08Z</time></trkpt>
<trkpt lat="50.900712" lon="3.151617"><ele>22.36</ele><time>2025-05-25T00:05:10Z</time></trkpt>
<trkpt lat="50.900718" lon="3.151899"><ele>22.41</ele><time>2025-05-25T00:05:13Z</time></trkpt>
<trkpt lat="50.900648" lon="3.152553"><ele>21.35</ele><time>2025-05-25T00:05:16Z</time></trkpt>
<trkpt lat="50.900446" lon="3.153763"><ele>19.33</ele><time>2025-05-25T00:05:19Z</time></trkpt>
<trkpt lat="50.900419" lon="3.154753"><ele>20.56</ele><time>2025-05-25T00:05:21Z</time></trkpt>
<trkpt lat="50.9005" lon="3.155991"><ele>19.2</ele><time>2025-05-25T00:05:24Z</time></trkpt>
<trkpt lat="50.900571" lon="3.156461"><ele>20.26</ele><time>2025-05-25T00:05:27Z</time></trkpt>
<trkpt lat="50.900578" lon="3.156693"><ele>21.0</ele><time>2025-05-25T00:05:30Z</time></trkpt>
<trkpt lat="50.900538" lon="3.157251"><ele>21.0</ele><time>2025-05-25T00:05:32Z</time></trkpt>
<trkpt lat="50.900546" lon="3.157928"><ele>22.0</ele><time>2025-05-25T00:05:35Z</time></trkpt>
<trkpt lat="50.900687" lon="3.159821"><ele>25.49</ele><time>2025-05-25T00:05:38Z</time></trkpt>
<trkpt lat="50.900714" lon="3.159935"><ele>26.23</ele><time>2025-05-25T00:05:41Z</time></trkpt>
<trkpt lat="50.900746" lon="3.159996"><ele>26.67</ele><time>2025-05-25T00:05:43Z</time></trkpt>
<trkpt lat="50.901001" lon="3.160073"><ele>26.4</ele><time>2025-05-25T00:05:44Z</time></trkpt>
<trkpt lat="50.901035" lon="3.160116"><ele>26.27</ele><time>2025-05-25T00:05:46Z</time></trkpt>
<trkpt lat="50.901246" lon="3.161452"><ele>25.71</ele><time>2025-05-25T00:05:52Z</time></trkpt>
<trkpt lat="50.900865" lon="3.161513"><ele>25.05</ele><time>2025-05-25T00:05:57Z</time></trkpt>
<trkpt lat="50.897704" lon="3.16187"><ele>30.07</ele><time>2025-05-25T00:06:02Z</time></trkpt>
<trkpt lat="50.896992" lon="3.161979"><ele>29.15</ele><time>2025-05-25T00:06:07Z</time></trkpt>
<trkpt lat="50.894539" lon="3.162639"><ele>26.16</ele><time>2025-05-25T00:06:12Z</time></trkpt>
<trkpt lat="50.892685" lon="3.163104"><ele>26.61</ele><time>2025-05-25T00:06:18Z</time></trkpt>
<trkpt lat="50.892495" lon="3.163193"><ele>27.54</ele><time>2025-05-25T00:06:23Z</time></trkpt>
<trkpt lat="50.892374" lon="3.163328"><ele>27.93</ele><time>2025-05-25T00:06:28Z</time></trkpt>
<trkpt lat="50.889206" lon="3.168823"><ele>22.89</ele><time>2025-05-25T00:06:33Z</time></trkpt>
<trkpt lat="50.888852" lon="3.169425"><ele>22.42</ele><time>2025-05-25T00:06:38Z</time></trkpt>
<trkpt lat="50.888743" lon="3.169541"><ele>21.08</ele><time>2025-05-25T00:06:44Z</time></trkpt>
<trkpt lat="50.888577" lon="3.169658"><ele>19.15</ele><time>2025-05-25T00:06:49Z</time></trkpt>
<trkpt lat="50.8866" lon="3.170749"><ele>23.0</ele><time>2025-05-25T00:06:54Z</time></trkpt>
<trkpt lat="50.886167" lon="3.170937"><ele>21.4</ele><time>2025-05-25T00:06:59Z</time></trkpt>
<trkpt lat="50.885824" lon="3.170984"><ele>20.0</ele><time>2025-05-25T00:07:04Z</time></trkpt>
<trkpt lat="50.885696" lon="3.170972"><ele>20.0</ele><time>2025-05-25T00:07:09Z</time></trkpt>
<trkpt lat="50.884106" lon="3.170628"><ele>20.78</ele><time>2025-05-25T00:07:15Z</time></trkpt>
<trkpt lat="50.883899" lon="3.170636"><ele>20.03</ele><time>2025-05-25T00:07:20Z</time></trkpt>
<trkpt lat="50.883703" lon="3.170688"><ele>20.0</ele><time>2025-05-25T00:07:25Z</time></trkpt>
<trkpt lat="50.883503" lon="3.170786"><ele>20.39</ele><time>2025-05-25T00:07:30Z</time></trkpt>
<trkpt lat="50.883316" lon="3.170915"><ele>21.35</ele><time>2025-05-25T00:07:35Z</time></trkpt>
<trkpt lat="50.883134" lon="3.171123"><ele>22.72</ele><time>2025-05-25T00:07:41Z</time></trkpt>
<trkpt lat="50.882978" lon="3.17135"><ele>22.96</ele><time>2025-05-25T00:07:46Z</time></trkpt>
<trkpt lat="50.8828" lon="3.171715"><ele>23.92</ele><time>2025-05-25T00:07:51Z</time></trkpt>
<trkpt lat="50.882693" lon="3.172045"><ele>23.5</ele><time>2025-05-25T00:07:56Z</time></trkpt>
<trkpt lat="50.882122" lon="3.17416"><ele>21.98</ele><time>2025-05-25T00:08:01Z</time></trkpt>
<trkpt lat="50.881887" lon="3.174959"><ele>19.3</ele><time>2025-05-25T00:08:06Z</time></trkpt>
<trkpt lat="50.881769" lon="3.175291"><ele>18.6</ele><time>2025-05-25T00:08:12Z</time></trkpt>
<trkpt lat="50.881563" lon="3.17569"><ele>19.74</ele><time>2025-05-25T00:08:17Z</time></trkpt>
<trkpt lat="50.881424" lon="3.175921"><ele>20.78</ele><time>2025-05-25T00:08:22Z</time></trkpt>
<trkpt lat="50.881231" lon="3.176185"><ele>21.26</ele><time>2025-05-25T00:08:27Z</time></trkpt>
<trkpt lat="50.881029" lon="3.176403"><ele>20.88</ele><time>2025-05-25T00:08:32Z</time></trkpt>
<trkpt lat="50.880828" lon="3.176582"><ele>19.35</ele><time>2025-05-25T00:08:37Z</time></trkpt>
<trkpt lat="50.880652" lon="3.176707"><ele>18.69</ele><time>2025-05-25T00:08:43Z</time></trkpt>
<trkpt lat="50.879526" lon="3.177377"><ele>16.61</ele><time>2025-05-25T00:08:48Z</time></trkpt>
<trkpt lat="50.87905" lon="3.177635"><ele>17.84</ele><time>2025-05-25T00:08:53Z</time></trkpt>
<trkpt lat="50.878385" lon="3.177919"><ele>19.58</ele><time>2025-05-25T00:08:58Z</time></trkpt>
<trkpt lat="50.877512" lon="3.178278"><ele>20.75</ele><time>2025-05-25T00:09:03Z</time></trkpt>
<trkpt lat="50.877471" lon="3.178363"><ele>21.0</ele><time>2025-05-25T00:09:09Z</time></trkpt>
<trkpt lat="50.877489" lon="3.178399"><ele>21.0</ele><time>2025-05-25T00:09:17Z</time></trkpt>
<trkpt lat="50.877505" lon="3.178516"><ele>20.98</ele><time>2025-05-25T00:09:26Z</time></trkpt>
<trkpt lat="50.877581" lon="3.179403"><ele>22.56</ele><time>2025-05-25T00:09:34Z</time></trkpt>
<trkpt lat="50.877622" lon="3.179875"><ele>22.01</ele><time>2025-05-25T00:09:43Z</time></trkpt>
<trkpt lat="50.877619" lon="3.180073"><ele>21.31</ele><time>2025-05-25T00:09:51Z</time></trkpt>
<trkpt lat="50.877555" lon="3.180543"><ele>19.84</ele><time>2025-05-25T00:10:00Z</time></trkpt>
<trkpt lat="50.877538" lon="3.18084"><ele>19.86</ele><time>2025-05-25T00:10:08Z</time></trkpt>
<trkpt lat="50.877577" lon="3.181973"><ele>21.1</ele><time>2025-05-25T00:10:17Z</time></trkpt>
<trkpt lat="50.877585" lon="3.182164"><ele>21.79</ele><time>2025-05-25T00:10:25Z</time></trkpt>
<trkpt lat="50.877802" lon="3.183506"><ele>19.91</ele><time>2025-05-25T00:10:34Z</time></trkpt>
<trkpt lat="50.879083" lon="3.191075"><ele>21.17</ele><time>2025-05-25T00:10:43Z</time></trkpt>
<trkpt lat="50.879936" lon="3.198095"><ele>23.91</ele><time>2025-05-25T00:10:51Z</time></trkpt>
<trkpt lat="50.880011" lon="3.198678"><ele>25.19</ele><time>2025-05-25T00:11:00Z</time></trkpt>
<trkpt lat="50.880108" lon="3.19915"><ele>25.22</ele><time>2025-05-25T00:11:08Z</time></trkpt>
<trkpt lat="50.880126" lon="3.199237"><ele>24.84</ele><time>2025-05-25T00:11:17Z</time></trkpt>
<trkpt lat="50.880796" lon="3.2025"><ele>24.86</ele><time>2025-05-25T00:11:25Z</time></trkpt>
<trkpt lat="50.881659" lon="3.206807"><ele>26.03</ele><time>2025-05-25T00:11:34Z</time></trkpt>
<trkpt lat="50.881716" lon="3.207196"><ele>26.16</ele><time>2025-05-25T00:11:42Z</time></trkpt>
<trkpt lat="50.881879" lon="3.208673"><ele>27.59</ele><time>2025-05-25T00:11:51Z</time></trkpt>
<trkpt lat="50.881901" lon="3.208929"><ele>27.02</ele><time>2025-05-25T00:11:59Z</time></trkpt>
<trkpt lat="50.881905" lon="3.209365"><ele>27.85</ele><time>2025-05-25T00:12:08Z</time></trkpt>
<trkpt lat="50.881883" lon="3.209666"><ele>29.02</ele><time>2025-05-25T00:12:16Z</time></trkpt>
<trkpt lat="50.881607" lon="3.21206"><ele>29.87</ele><time>2025-05-25T00:12:25Z</time></trkpt>
<trkpt lat="50.881593" lon="3.212641"><ele>31.51</ele><time>2025-05-25T00:12:34Z</time></trkpt>
<trkpt lat="50.881604" lon="3.212875"><ele>32.35</ele><time>2025-05-25T00:12:42Z</time></trkpt>
<trkpt lat="50.881655" lon="3.213293"><ele>33.85</ele><time>2025-05-25T00:12:51Z</time></trkpt>
<trkpt lat="50.882486" lon="3.218191"><ele>36.41</ele><time>2025-05-25T00:12:59Z</time></trkpt>
<trkpt lat="50.882682" lon="3.219245"><ele>37.53</ele><time>2025-05-25T00:13:08Z</time></trkpt>
<trkpt lat="50.882895" lon="3.220004"><ele>38.85</ele><time>2025-05-25T00:13:16Z</time></trkpt>
<trkpt lat="50.882607" lon="3.220036"><ele>38.0</ele><time>2025-05-25T00:13:24Z</time></trkpt>
<trkpt lat="50.882186" lon="3.219979"><ele>37.73</ele><time>2025-05-25T00:13:31Z</time></trkpt>
<trkpt lat="50.881943" lon="3.219919"><ele>36.7</ele><time>2025-05-25T00:13:39Z</time></trkpt>
<trkpt lat="50.881752" lon="3.219905"><ele>35.51</ele><time>2025-05-25T00:13:46Z</time></trkpt>
<trkpt lat="50.881082" lon="3.219944"><ele>37.92</ele><time>2025-05-25T00:13:54Z</time></trkpt>
<trkpt lat="50.880432" lon="3.21972"><ele>38.56</ele><time>2025-05-25T00:14:01Z</time></trkpt>
<trkpt lat="50.880056" lon="3.219681"><ele>38.03</ele><time>2025-05-25T00:14:09Z</time></trkpt>
<trkpt lat="50.879753" lon="3.219713"><ele>37.11</ele><time>2025-05-25T00:14:17Z</time></trkpt>
<trkpt lat="50.878857" lon="3.220055"><ele>40.0</ele><time>2025-05-25T00:14:24Z</time></trkpt>
<trkpt lat="50.877606" lon="3.220418"><ele>35.56</ele><time>2025-05-25T00:14:32Z</time></trkpt>
<trkpt lat="50.877418" lon="3.220505"><ele>34.36</ele><time>2025-05-25T00:14:39Z</time></trkpt>
<trkpt lat="50.876347" lon="3.221375"><ele>29.85</ele><time>2025-05-25T00:14:47Z</time></trkpt>
<trkpt lat="50.875982" lon="3.221577"><ele>28.68</ele><time>2025-05-25T00:14:54Z</time></trkpt>
<trkpt lat="50.874174" lon="3.222179"><ele>26.13</ele><time>2025-05-25T00:15:02Z</time></trkpt>
<trkpt lat="50.873478" lon="3.222736"><ele>22.67</ele><time>2025-05-25T00:15:09Z</time></trkpt>
<trkpt lat="50.87333" lon="3.22288"><ele>22.01</ele><time>2025-05-25T00:15:17Z</time></trkpt>
<trkpt lat="50.873203" lon="3.223059"><ele>21.99</ele><time>2025-05-25T00:15:24Z</time></trkpt>
<trkpt lat="50.873017" lon="3.223263"><ele>21.25</ele><time>2025-05-25T00:15:32Z</time></trkpt>
<trkpt lat="50.872815" lon="3.223402"><ele>21.0</ele><time>2025-05-25T00:15:40Z</time></trkpt>
<trkpt lat="50.871619" lon="3.223918"><ele>21.74</ele><time>2025-05-25T00:15:47Z</time></trkpt>
<trkpt lat="50.87175" lon="3.225126"><ele>18.7</ele><time>2025-05-25T00:15:55Z</time></trkpt>
<trkpt lat="50.871793" lon="3.225389"><ele>18.73</ele><time>2025-05-25T00:16:03Z</time></trkpt>
<trkpt lat="50.871983" lon="3.22616"><ele>21.0</ele><time>2025-05-25T00:16:11Z</time></trkpt>
<trkpt lat="50.872068" lon="3.227037"><ele>20.67</ele><time>2025-05-25T00:16:18Z</time></trkpt>
<trkpt lat="50.872124" lon="3.228493"><ele>21.0</ele><time>2025-05-25T00:16:26Z</time></trkpt>
<trkpt lat="50.872149" lon="3.231452"><ele>19.08</ele><time>2025-05-25T00:16:34Z</time></trkpt>
<trkpt lat="50.87214" lon="3.231823"><ele>17.7</ele><time>2025-05-25T00:16:42Z</time></trkpt>
<trkpt lat="50.872108" lon="3.232272"><ele>18.0</ele><time>2025-05-25T00:16:50Z</time></trkpt>
<trkpt lat="50.87189" lon="3.233697"><ele>19.13</ele><time>2025-05-25T00:16:58Z</time></trkpt>
<trkpt lat="50.87161" lon="3.23527"><ele>17.0</ele><time>2025-05-25T00:17:06Z</time></trkpt>
<trkpt lat="50.871403" lon="3.236694"><ele>18.95</ele><time>2025-05-25T00:17:13Z</time></trkpt>
<trkpt lat="50.871392" lon="3.23683"><ele>18.99</ele><time>2025-05-25T00:17:21Z</time></trkpt>
<trkpt lat="50.871463" lon="3.239273"><ele>22.0</ele><time>2025-05-25T00:17:29Z</time></trkpt>
<trkpt lat="50.87145" lon="3.239568"><ele>22.0</ele><time>2025-05-25T00:17:37Z</time></trkpt>
<trkpt lat="50.87136" lon="3.239833"><ele>22.31</ele><time>2025-05-25T00:17:45Z</time></trkpt>
<trkpt lat="50.871548" lon="3.240193"><ele>22.43</ele><time>2025-05-25T00:17:49Z</time></trkpt>
<trkpt lat="50.871674" lon="3.240551"><ele>22.0</ele><time>2025-05-25T00:17:53Z</time></trkpt>
<trkpt lat="50.870795" lon="3.2414"><ele>21.0</ele><time>2025-05-25T00:18:09Z</time></trkpt>
<trkpt lat="50.87069" lon="3.241549"><ele>21.0</ele><time>2025-05-25T00:18:25Z</time></trkpt>
<trkpt lat="50.870739" lon="3.241675"><ele>21.0</ele><time>2025-05-25T00:18:36Z</time></trkpt>
<trkpt lat="50.87194" lon="3.245818"><ele>18.93</ele><time>2025-05-25T00:18:46Z</time></trkpt>
<trkpt lat="50.871965" lon="3.245966"><ele>19.55</ele><time>2025-05-25T00:18:56Z</time></trkpt>
<trkpt lat="50.871965" lon="3.246227"><ele>20.07</ele><time>2025-05-25T00:19:06Z</time></trkpt>
<trkpt lat="50.871926" lon="3.246402"><ele>19.89</ele><time>2025-05-25T00:19:16Z</time></trkpt>
<trkpt lat="50.871862" lon="3.246559"><ele>19.27</ele><time>2025-05-25T00:19:27Z</time></trkpt>
<trkpt lat="50.871209" lon="3.247665"><ele>19.8</ele><time>2025-05-25T00:19:37Z</time></trkpt>
<trkpt lat="50.870033" lon="3.249539"><ele>18.7</ele><time>2025-05-25T00:19:47Z</time></trkpt>
<trkpt lat="50.869328" lon="3.250145"><ele>17.22</ele><time>2025-05-25T00:19:57Z</time></trkpt>
<trkpt lat="50.86966" lon="3.25139"><ele>15.23</ele><time>2025-05-25T00:20:04Z</time></trkpt>
<trkpt lat="50.870802" lon="3.255064"><ele>19.89</ele><time>2025-05-25T00:20:12Z</time></trkpt>
<trkpt lat="50.870822" lon="3.255224"><ele>19.96</ele><time>2025-05-25T00:20:19Z</time></trkpt>
<trkpt lat="50.87082" lon="3.25542"><ele>19.95</ele><time>2025-05-25T00:20:26Z</time></trkpt>
<trkpt lat="50.870778" lon="3.255779"><ele>19.8</ele><time>2025-05-25T00:20:33Z</time></trkpt>
<trkpt lat="50.870773" lon="3.256159"><ele>19.0</ele><time>2025-05-25T00:20:40Z</time></trkpt>
<trkpt lat="50.870792" lon="3.25632"><ele>19.0</ele><time>2025-05-25T00:20:48Z</time></trkpt>
<trkpt lat="50.87112" lon="3.257871"><ele>19.03</ele><time>2025-05-25T00:20:55Z</time></trkpt>
<trkpt lat="50.871321" lon="3.258625"><ele>17.4</ele><time>2025-05-25T00:21:02Z</time></trkpt>
<trkpt lat="50.871436" lon="3.259277"><ele>15.4</ele><time>2025-05-25T00:21:09Z</time></trkpt>
<trkpt lat="50.871757" lon="3.260308"><ele>16.11</ele><time>2025-05-25T00:21:16Z</time></trkpt>
<trkpt lat="50.871958" lon="3.261175"><ele>17.95</ele><time>2025-05-25T00:21:24Z</time></trkpt>
<trkpt lat="50.871963" lon="3.261358"><ele>17.93</ele><time>2025-05-25T00:21:31Z</time></trkpt>
<trkpt lat="50.871744" lon="3.263858"><ele>16.55</ele><time>2025-05-25T00:21:38Z</time></trkpt>
<trkpt lat="50.871772" lon="3.263993"><ele>16.24</ele><time>2025-05-25T00:21:45Z</time></trkpt>
<trkpt lat="50.871941" lon="3.264492"><ele>16.36</ele><time>2025-05-25T00:21:52Z</time></trkpt>
<trkpt lat="50.871983" lon="3.264709"><ele>17.91</ele><time>2025-05-25T00:22:00Z</time></trkpt>
<trkpt lat="50.872018" lon="3.265024"><ele>20.73</ele><time>2025-05-25T00:22:07Z</time></trkpt>
<trkpt lat="50.872048" lon="3.265928"><ele>20.66</ele><time>2025-05-25T00:22:14Z</time></trkpt>
<trkpt lat="50.872641" lon="3.265618"><ele>19.49</ele><time>2025-05-25T00:22:19Z</time></trkpt>
<trkpt lat="50.873028" lon="3.265474"><ele>18.39</ele><time>2025-05-25T00:22:25Z</time></trkpt>
<trkpt lat="50.873418" lon="3.265382"><ele>16.89</ele><time>2025-05-25T00:22:30Z</time></trkpt>
<trkpt lat="50.873621" lon="3.265287"><ele>16.97</ele><time>2025-05-25T00:22:35Z</time></trkpt>
<trkpt lat="50.87379" lon="3.265157"><ele>17.0</ele><time>2025-05-25T00:22:40Z</time></trkpt>
<trkpt lat="50.874097" lon="3.265924"><ele>15.92</ele><time>2025-05-25T00:22:45Z</time></trkpt>
<trkpt lat="50.8745" lon="3.267011"><ele>17.24</ele><time>2025-05-25T00:22:50Z</time></trkpt>
<trkpt lat="50.874677" lon="3.267591"><ele>17.94</ele><time>2025-05-25T00:22:54Z</time></trkpt>
<trkpt lat="50.874956" lon="3.268711"><ele>16.9</ele><time>2025-05-25T00:22:59Z</time></trkpt>
<trkpt lat="50.875009" lon="3.269095"><ele>17.0</ele><time>2025-05-25T00:23:04Z</time></trkpt>
<trkpt lat="50.875023" lon="3.269308"><ele>17.0</ele><time>2025-05-25T00:23:08Z</time></trkpt>
<trkpt lat="50.875009" lon="3.269908"><ele>17.62</ele><time>2025-05-25T00:23:13Z</time></trkpt>
<trkpt lat="50.875076" lon="3.270389"><ele>17.16</ele><time>2025-05-25T00:23:17Z</time></trkpt>
<trkpt lat="50.875236" lon="3.270734"><ele>16.69</ele><time>2025-05-25T00:23:22Z</time></trkpt>
<trkpt lat="50.875335" lon="3.270908"><ele>17.07</ele><time>2025-05-25T00:23:27Z</time></trkpt>
<trkpt lat="50.875482" lon="3.270913"><ele>16.55</ele><time>2025-05-25T00:23:31Z</time></trkpt>
<trkpt lat="50.875886" lon="3.270834"><ele>15.81</ele><time>2025-05-25T00:23:35Z</time></trkpt>
<trkpt lat="50.876453" lon="3.270603"><ele>15.23</ele><time>2025-05-25T00:23:40Z</time></trkpt>
<trkpt lat="50.876842" lon="3.270307"><ele>17.03</ele><time>2025-05-25T00:23:44Z</time></trkpt>
<trkpt lat="50.877364" lon="3.269805"><ele>16.85</ele><time>2025-05-25T00:23:48Z</time></trkpt>
<trkpt lat="50.877856" lon="3.269243"><ele>17.0</ele><time>2025-05-25T00:23:52Z</time></trkpt>
<trkpt lat="50.878344" lon="3.268879"><ele>18.0</ele><time>2025-05-25T00:23:57Z</time></trkpt>
<trkpt lat="50.878406" lon="3.26887"><ele>18.19</ele><time>2025-05-25T00:24:01Z</time></trkpt>
<trkpt lat="50.878457" lon="3.268895"><ele>18.43</ele><time>2025-05-25T00:24:05Z</time></trkpt>
<trkpt lat="50.878636" lon="3.269188"><ele>18.02</ele><time>2025-05-25T00:24:09Z</time></trkpt>
<trkpt lat="50.878237" lon="3.269712"><ele>16.37</ele><time>2025-05-25T00:24:14Z</time></trkpt>
<trkpt lat="50.878105" lon="3.269827"><ele>16.44</ele><time>2025-05-25T00:24:19Z</time></trkpt>
<trkpt lat="50.876915" lon="3.271372"><ele>16.89</ele><time>2025-05-25T00:24:23Z</time></trkpt>
<trkpt lat="50.876593" lon="3.271686"><ele>16.32</ele><time>2025-05-25T00:24:28Z</time></trkpt>
<trkpt lat="50.876505" lon="3.271683"><ele>16.61</ele><time>2025-05-25T00:24:34Z</time></trkpt>
<trkpt lat="50.876441" lon="3.271734"><ele>16.86</ele><time>2025-05-25T00:24:40Z</time></trkpt>
<trkpt lat="50.876392" lon="3.271844"><ele>17.0</ele><time>2025-05-25T00:24:45Z</time></trkpt>
<trkpt lat="50.876383" lon="3.271949"><ele>17.04</ele><time>2025-05-25T00:24:51Z</time></trkpt>
<trkpt lat="50.876409" lon="3.27207"><ele>17.45</ele><time>2025-05-25T00:24:57Z</time></trkpt>
<trkpt lat="50.87628" lon="3.272514"><ele>18.44</ele><time>2025-05-25T00:25:03Z</time></trkpt>
<trkpt lat="50.875444" lon="3.274424"><ele>16.13</ele><time>2025-05-25T00:25:09Z</time></trkpt>
<trkpt lat="50.873629" lon="3.278683"><ele>11.48</ele><time>2025-05-25T00:25:15Z</time></trkpt>
<trkpt lat="50.872876" lon="3.280489"><ele>14.42</ele><time>2025-05-25T00:25:21Z</time></trkpt>
<trkpt lat="50.872319" lon="3.281906"><ele>15.65</ele><time>2025-05-25T00:25:27Z</time></trkpt>
<trkpt lat="50.871651" lon="3.283771"><ele>17.03</ele><time>2025-05-25T00:25:33Z</time></trkpt>
<trkpt lat="50.871181" lon="3.285175"><ele>16.38</ele><time>2025-05-25T00:25:39Z</time></trkpt>
<trkpt lat="50.870451" lon="3.287584"><ele>16.06</ele><time>2025-05-25T00:25:45Z</time></trkpt>
<trkpt lat="50.870015" lon="3.289165"><ele>14.06</ele><time>2025-05-25T00:25:51Z</time></trkpt>
<trkpt lat="50.869751" lon="3.290201"><ele>14.69</ele><time>2025-05-25T00:25:56Z</time></trkpt>
<trkpt lat="50.869725" lon="3.290239"><ele>14.97</ele><time>2025-05-25T00:26:02Z</time></trkpt>
<trkpt lat="50.869576" lon="3.290647"><ele>15.02</ele><time>2025-05-25T00:26:08Z</time></trkpt>
<trkpt lat="50.869522" lon="3.290665"><ele>15.04</ele><time>2025-05-25T00:26:13Z</time></trkpt>
<trkpt lat="50.869475" lon="3.290713"><ele>14.82</ele><time>2025-05-25T00:26:17Z</time></trkpt>
<trkpt lat="50.869441" lon="3.290785"><ele>14.35</ele><time>2025-05-25T00:26:22Z</time></trkpt>
<trkpt lat="50.869427" lon="3.290871"><ele>13.74</ele><time>2025-05-25T00:26:26Z</time></trkpt>
<trkpt lat="50.869447" lon="3.291013"><ele>12.71</ele><time>2025-05-25T00:26:31Z</time></trkpt>
<trkpt lat="50.869476" lon="3.291071"><ele>12.39</ele><time>2025-05-25T00:26:35Z</time></trkpt>
<trkpt lat="50.869431" lon="3.291529"><ele>11.54</ele><time>2025-05-25T00:26:40Z</time></trkpt>
<trkpt lat="50.869196" lon="3.29258"><ele>15.32</ele><time>2025-05-25T00:26:44Z</time></trkpt>
<trkpt lat="50.86888" lon="3.294128"><ele>14.06</ele><time>2025-05-25T00:26:49Z</time></trkpt>
<trkpt lat="50.868543" lon="3.295946"><ele>15.81</ele><time>2025-05-25T00:26:53Z</time></trkpt>
<trkpt lat="50.868245" lon="3.297752"><ele>13.36</ele><time>2025-05-25T00:26:58Z</time></trkpt>
<trkpt lat="50.868178" lon="3.298087"><ele>12.83</ele><time>2025-05-25T00:27:02Z</time></trkpt>
<trkpt lat="50.868038" lon="3.298999"><ele>13.0</ele><time>2025-05-25T00:27:06Z</time></trkpt>
<trkpt lat="50.867945" lon="3.299771"><ele>11.72</ele><time>2025-05-25T00:27:11Z</time></trkpt>
<trkpt lat="50.867624" lon="3.302901"><ele>7.44</ele><time>2025-05-25T00:27:15Z</time></trkpt>
<trkpt lat="50.867476" lon="3.304759"><ele>14.31</ele><time>2025-05-25T00:27:20Z</time></trkpt>
<trkpt lat="50.867318" lon="3.30708"><ele>8.99</ele><time>2025-05-25T00:27:24Z</time></trkpt>
<trkpt lat="50.867239" lon="3.30768"><ele>7.35</ele><time>2025-05-25T00:27:29Z</time></trkpt>
<trkpt lat="50.867186" lon="3.30781"><ele>7.26</ele><time>2025-05-25T00:27:33Z</time></trkpt>
<trkpt lat="50.867136" lon="3.307851"><ele>7.62</ele><time>2025-05-25T00:27:39Z</time></trkpt>
<trkpt lat="50.867093" lon="3.307923"><ele>7.93</ele><time>2025-05-25T00:27:44Z</time></trkpt>
<trkpt lat="50.867076" lon="3.308012"><ele>8.05</ele><time>2025-05-25T00:27:49Z</time></trkpt>
<trkpt lat="50.867085" lon="3.30813"><ele>7.85</ele><time>2025-05-25T00:27:54Z</time></trkpt>
<trkpt lat="50.867142" lon="3.308238"><ele>7.11</ele><time>2025-05-25T00:27:59Z</time></trkpt>
<trkpt lat="50.867165" lon="3.308469"><ele>7.11</ele><time>2025-05-25T00:28:04Z</time></trkpt>
<trkpt lat="50.86716" lon="3.308941"><ele>9.44</ele><time>2025-05-25T00:28:10Z</time></trkpt>
<trkpt lat="50.867115" lon="3.309616"><ele>10.77</ele><time>2025-05-25T00:28:15Z</time></trkpt>
<trkpt lat="50.866882" lon="3.312974"><ele>7.81</ele><time>2025-05-25T00:28:20Z</time></trkpt>
<trkpt lat="50.866783" lon="3.314204"><ele>6.26</ele><time>2025-05-25T00:28:25Z</time></trkpt>
<trkpt lat="50.866526" lon="3.316515"><ele>11.51</ele><time>2025-05-25T00:28:30Z</time></trkpt>
<trkpt lat="50.866309" lon="3.317828"><ele>13.71</ele><time>2025-05-25T00:28:36Z</time></trkpt>
<trkpt lat="50.866149" lon="3.318614"><ele>12.14</ele><time>2025-05-25T00:28:41Z</time></trkpt>
<trkpt lat="50.865849" lon="3.319836"><ele>13.53</ele><time>2025-05-25T00:28:46Z</time></trkpt>
<trkpt lat="50.865545" lon="3.320927"><ele>13.46</ele><time>2025-05-25T00:28:51Z</time></trkpt>
<trkpt lat="50.865031" lon="3.322384"><ele>11.0</ele><time>2025-05-25T00:28:56Z</time></trkpt>
<trkpt lat="50.864666" lon="3.323256"><ele>14.55</ele><time>2025-05-25T00:29:02Z</time></trkpt>
<trkpt lat="50.864314" lon="3.323998"><ele>14.06</ele><time>2025-05-25T00:29:07Z</time></trkpt>
<trkpt lat="50.86378" lon="3.324924"><ele>15.51</ele><time>2025-05-25T00:29:12Z</time></trkpt>
<trkpt lat="50.863588" lon="3.325245"><ele>17.0</ele><time>2025-05-25T00:29:17Z</time></trkpt>
<trkpt lat="50.863416" lon="3.325533"><ele>17.0</ele><time>2025-05-25T00:29:22Z</time></trkpt>
<trkpt lat="50.862883" lon="3.326313"><ele>15.17</ele><time>2025-05-25T00:29:28Z</time></trkpt>
<trkpt lat="50.862054" lon="3.327345"><ele>13.6</ele><time>2025-05-25T00:29:33Z</time></trkpt>
<trkpt lat="50.861878" lon="3.327519"><ele>13.98</ele><time>2025-05-25T00:29:38Z</time></trkpt>
<trkpt lat="50.861307" lon="3.328111"><ele>11.92</ele><time>2025-05-25T00:29:43Z</time></trkpt>
<trkpt lat="50.860845" lon="3.32855"><ele>13.96</ele><time>2025-05-25T00:29:48Z</time></trkpt>
<trkpt lat="50.859847" lon="3.329424"><ele>14.59</ele><time>2025-05-25T00:29:53Z</time></trkpt>
<trkpt lat="50.85891" lon="3.330174"><ele>16.03</ele><time>2025-05-25T00:29:59Z</time></trkpt>
<trkpt lat="50.854007" lon="3.333972"><ele>12.42</ele><time>2025-05-25T00:30:04Z</time></trkpt>
<trkpt lat="50.852517" lon="3.335138"><ele>16.42</ele><time>2025-05-25T00:30:09Z</time></trkpt>
<trkpt lat="50.852044" lon="3.33553"><ele>20.02</ele><time>2025-05-25T00:30:14Z</time></trkpt>
<trkpt lat="50.851497" lon="3.336023"><ele>17.28</ele><time>2025-05-25T00:30:19Z</time></trkpt>
<trkpt lat="50.851279" lon="3.336244"><ele>15.21</ele><time>2025-05-25T00:30:25Z</time></trkpt>
<trkpt lat="50.850849" lon="3.336724"><ele>14.19</ele><time>2025-05-25T00:30:30Z</time></trkpt>
<trkpt lat="50.850362" lon="3.33733"><ele>14.3</ele><time>2025-05-25T00:30:35Z</time></trkpt>
<trkpt lat="50.849699" lon="3.338307"><ele>14.65</ele><time>2025-05-25T00:30:40Z</time></trkpt>
<trkpt lat="50.849363" lon="3.338881"><ele>12.7</ele><time>2025-05-25T00:30:45Z</time></trkpt>
<trkpt lat="50.849064" lon="3.339441"><ele>12.0</ele><time>2025-05-25T00:30:51Z</time></trkpt>
<trkpt lat="50.848496" lon="3.340661"><ele>13.64</ele><time>2025-05-25T00:30:56Z</time></trkpt>
<trkpt lat="50.848247" lon="3.341301"><ele>13.16</ele><time>2025-05-25T00:31:01Z</time></trkpt>
<trkpt lat="50.84791" lon="3.342281"><ele>10.69</ele><time>2025-05-25T00:31:06Z</time></trkpt>
<trkpt lat="50.845769" lon="3.349144"><ele>12.94</ele><time>2025-05-25T00:31:11Z</time></trkpt>
<trkpt lat="50.845455" lon="3.350247"><ele>13.27</ele><time>2025-05-25T00:31:17Z</time></trkpt>
<trkpt lat="50.84538" lon="3.350577"><ele>11.74</ele><time>2025-05-25T00:31:22Z</time></trkpt>
<trkpt lat="50.844633" lon="3.350423"><ele>10.69</ele><time>2025-05-25T00:31:30Z</time></trkpt>
<trkpt lat="50.844014" lon="3.350338"><ele>12.22</ele><time>2025-05-25T00:31:39Z</time></trkpt>
<trkpt lat="50.838944" lon="3.349369"><ele>10.22</ele><time>2025-05-25T00:31:47Z</time></trkpt>
<trkpt lat="50.838798" lon="3.349398"><ele>10.82</ele><time>2025-05-25T00:31:55Z</time></trkpt>
<trkpt lat="50.838707" lon="3.349389"><ele>11.51</ele><time>2025-05-25T00:32:04Z</time></trkpt>
<trkpt lat="50.838543" lon="3.349298"><ele>12.51</ele><time>2025-05-25T00:32:12Z</time></trkpt>
<trkpt lat="50.837746" lon="3.349156"><ele>13.97</ele><time>2025-05-25T00:32:20Z</time></trkpt>
<trkpt lat="50.837526" lon="3.349165"><ele>14.0</ele><time>2025-05-25T00:32:29Z</time></trkpt>
<trkpt lat="50.836966" lon="3.349329"><ele>13.11</ele><time>2025-05-25T00:32:37Z</time></trkpt>
<trkpt lat="50.836489" lon="3.349529"><ele>12.84</ele><time>2025-05-25T00:32:46Z</time></trkpt>
<trkpt lat="50.836279" lon="3.349652"><ele>13.85</ele><time>2025-05-25T00:32:54Z</time></trkpt>
<trkpt lat="50.835929" lon="3.349939"><ele>14.12</ele><time>2025-05-25T00:33:02Z</time></trkpt>
<trkpt lat="50.835654" lon="3.350217"><ele>14.0</ele><time>2025-05-25T00:33:11Z</time></trkpt>
<trkpt lat="50.835465" lon="3.350459"><ele>14.11</ele><time>2025-05-25T00:33:19Z</time></trkpt>
<trkpt lat="50.835156" lon="3.35106"><ele>14.44</ele><time>2025-05-25T00:33:28Z</time></trkpt>
<trkpt lat="50.835025" lon="3.351349"><ele>14.91</ele><time>2025-05-25T00:33:36Z</time></trkpt>
<trkpt lat="50.834827" lon="3.351827"><ele>15.62</ele><time>2025-05-25T00:33:44Z</time></trkpt>
<trkpt lat="50.834662" lon="3.352419"><ele>16.0</ele><time>2025-05-25T00:33:53Z</time></trkpt>
<trkpt lat="50.834427" lon="3.352208"><ele>16.0</ele><time>2025-05-25T00:33:59Z</time></trkpt>
<trkpt lat="50.833341" lon="3.350725"><ele>12.94</ele><time>2025-05-25T00:34:05Z</time></trkpt>
<trkpt lat="50.83222" lon="3.349208"><ele>10.87</ele><time>2025-05-25T00:34:11Z</time></trkpt>
<trkpt lat="50.831733" lon="3.348577"><ele>13.14</ele><time>2025-05-25T00:34:17Z</time></trkpt>
<trkpt lat="50.831548" lon="3.348388"><ele>11.69</ele><time>2025-05-25T00:34:23Z</time></trkpt>
<trkpt lat="50.831239" lon="3.348159"><ele>12.37</ele><time>2025-05-25T00:34:29Z</time></trkpt>
<trkpt lat="50.830914" lon="3.348022"><ele>13.0</ele><time>2025-05-25T00:34:35Z</time></trkpt>
<trkpt lat="50.830569" lon="3.347968"><ele>13.0</ele><time>2025-05-25T00:34:41Z</time></trkpt>
<trkpt lat="50.827243" lon="3.347993"><ele>14.98</ele><time>2025-05-25T00:34:47Z</time></trkpt>
<trkpt lat="50.826929" lon="3.347969"><ele>18.02</ele><time>2025-05-25T00:34:53Z</time></trkpt>
<trkpt lat="50.826408" lon="3.347794"><ele>18.01</ele><time>2025-05-25T00:34:59Z</time></trkpt>
<trkpt lat="50.82624" lon="3.347771"><ele>16.41</ele><time>2025-05-25T00:35:05Z</time></trkpt>
<trkpt lat="50.826222" lon="3.347681"><ele>16.55</ele><time>2025-05-25T00:35:07Z</time></trkpt>
<trkpt lat="50.826162" lon="3.347597"><ele>16.2</ele><time>2025-05-25T00:35:09Z</time></trkpt>
<trkpt lat="50.826118" lon="3.347581"><ele>15.78</ele><time>2025-05-25T00:35:12Z</time></trkpt>
<trkpt lat="50.826051" lon="3.347605"><ele>15.4</ele><time>2025-05-25T00:35:14Z</time></trkpt>
<trkpt lat="50.826001" lon="3.347463"><ele>15.74</ele><time>2025-05-25T00:35:16Z</time></trkpt>
<trkpt lat="50.82446" lon="3.345442"><ele>20.91</ele><time>2025-05-25T00:35:19Z</time></trkpt>
<trkpt lat="50.824364" lon="3.345286"><ele>20.72</ele><time>2025-05-25T00:35:21Z</time></trkpt>
<trkpt lat="50.824283" lon="3.345103"><ele>20.42</ele><time>2025-05-25T00:35:23Z</time></trkpt>
<trkpt lat="50.824284" lon="3.345018"><ele>20.42</ele><time>2025-05-25T00:35:31Z</time></trkpt>
<trkpt lat="50.824241" lon="3.344898"><ele>19.63</ele><time>2025-05-25T00:35:39Z</time></trkpt>
<trkpt lat="50.824187" lon="3.344857"><ele>19.08</ele><time>2025-05-25T00:35:47Z</time></trkpt>
<trkpt lat="50.824109" lon="3.34486"><ele>18.26</ele><time>2025-05-25T00:35:55Z</time></trkpt>
<trkpt lat="50.824066" lon="3.3449"><ele>17.97</ele><time>2025-05-25T00:36:02Z</time></trkpt>
<trkpt lat="50.824026" lon="3.345003"><ele>17.99</ele><time>2025-05-25T00:36:10Z</time></trkpt>
<trkpt lat="50.824024" lon="3.345091"><ele>18.28</ele><time>2025-05-25T00:36:18Z</time></trkpt>
<trkpt lat="50.823935" lon="3.345226"><ele>18.03</ele><time>2025-05-25T00:36:26Z</time></trkpt>
<trkpt lat="50.823724" lon="3.34548"><ele>17.81</ele><time>2025-05-25T00:36:34Z</time></trkpt>
<trkpt lat="50.823181" lon="3.346004"><ele>17.24</ele><time>2025-05-25T00:36:42Z</time></trkpt>
<trkpt lat="50.822727" lon="3.346593"><ele>18.96</ele><time>2025-05-25T00:36:49Z</time></trkpt>
<trkpt lat="50.821784" lon="3.348166"><ele>23.0</ele><time>2025-05-25T00:36:57Z</time></trkpt>
<trkpt lat="50.821299" lon="3.348884"><ele>22.98</ele><time>2025-05-25T00:37:05Z</time></trkpt>
<trkpt lat="50.820782" lon="3.349514"><ele>23.12</ele><time>2025-05-25T00:37:13Z</time></trkpt>
<trkpt lat="50.820288" lon="3.350027"><ele>23.87</ele><time>2025-05-25T00:37:21Z</time></trkpt>
<trkpt lat="50.819718" lon="3.35053"><ele>21.13</ele><time>2025-05-25T00:37:29Z</time></trkpt>
<trkpt lat="50.816911" lon="3.352729"><ele>26.86</ele><time>2025-05-25T00:37:36Z</time></trkpt>
<trkpt lat="50.816108" lon="3.353346"><ele>25.97</ele><time>2025-05-25T00:37:44Z</time></trkpt>
<trkpt lat="50.815657" lon="3.353645"><ele>26.03</ele><time>2025-05-25T00:37:52Z</time></trkpt>
<trkpt lat="50.814887" lon="3.354254"><ele>22.5</ele><time>2025-05-25T00:38:00Z</time></trkpt>
<trkpt lat="50.80353" lon="3.362976"><ele>22.29</ele><time>2025-05-25T00:38:08Z</time></trkpt>
<trkpt lat="50.800319" lon="3.365418"><ele>23.35</ele><time>2025-05-25T00:38:16Z</time></trkpt>
<trkpt lat="50.800015" lon="3.365699"><ele>25.87</ele><time>2025-05-25T00:38:23Z</time></trkpt>
<trkpt lat="50.799893" lon="3.36584"><ele>26.38</ele><time>2025-05-25T00:38:31Z</time></trkpt>
<trkpt lat="50.799608" lon="3.366232"><ele>25.51</ele><time>2025-05-25T00:38:39Z</time></trkpt>
<trkpt lat="50.798705" lon="3.367642"><ele>26.3</ele><time>2025-05-25T00:38:47Z</time></trkpt>
<trkpt lat="50.798596" lon="3.367746"><ele>26.28</ele><time>2025-05-25T00:38:55Z</time></trkpt>
<trkpt lat="50.798546" lon="3.367706"><ele>26.69</ele><time>2025-05-25T00:38:58Z</time></trkpt>
<trkpt lat="50.798421" lon="3.367682"><ele>27.14</ele><time>2025-05-25T00:39:01Z</time></trkpt>
<trkpt lat="50.798332" lon="3.367734"><ele>27.16</ele><time>2025-05-25T00:39:04Z</time></trkpt>
<trkpt lat="50.798261" lon="3.367838"><ele>26.84</ele><time>2025-05-25T00:39:08Z</time></trkpt>
<trkpt lat="50.798221" lon="3.367984"><ele>26.56</ele><time>2025-05-25T00:39:11Z</time></trkpt>
<trkpt lat="50.798218" lon="3.368097"><ele>26.27</ele><time>2025-05-25T00:39:14Z</time></trkpt>
<trkpt lat="50.798106" lon="3.368244"><ele>26.14</ele><time>2025-05-25T00:39:17Z</time></trkpt>
<trkpt lat="50.797872" lon="3.368446"><ele>26.0</ele><time>2025-05-25T00:39:21Z</time></trkpt>
<trkpt lat="50.797234" lon="3.368867"><ele>29.91</ele><time>2025-05-25T00:39:24Z</time></trkpt>
<trkpt lat="50.795931" lon="3.369928"><ele>31.61</ele><time>2025-05-25T00:39:27Z</time></trkpt>
<trkpt lat="50.795002" lon="3.370913"><ele>34.29</ele><time>2025-05-25T00:39:30Z</time></trkpt>
<trkpt lat="50.794756" lon="3.371129"><ele>34.18</ele><time>2025-05-25T00:39:33Z</time></trkpt>
<trkpt lat="50.794118" lon="3.371627"><ele>35.65</ele><time>2025-05-25T00:39:37Z</time></trkpt>
<trkpt lat="50.793071" lon="3.37235"><ele>36.43</ele><time>2025-05-25T00:39:40Z</time></trkpt>
<trkpt lat="50.792911" lon="3.372499"><ele>36.48</ele><time>2025-05-25T00:39:43Z</time></trkpt>
<trkpt lat="50.792533" lon="3.372938"><ele>36.24</ele><time>2025-05-25T00:39:46Z</time></trkpt>
<trkpt lat="50.792322" lon="3.373258"><ele>34.46</ele><time>2025-05-25T00:39:50Z</time></trkpt>
<trkpt lat="50.792172" lon="3.37354"><ele>34.13</ele><time>2025-05-25T00:39:53Z</time></trkpt>
<trkpt lat="50.791657" lon="3.374669"><ele>36.07</ele><time>2025-05-25T00:39:56Z</time></trkpt>
<trkpt lat="50.791348" lon="3.37527"><ele>38.15</ele><time>2025-05-25T00:39:59Z</time></trkpt>
<trkpt lat="50.791022" lon="3.375807"><ele>38.97</ele><time>2025-05-25T00:40:02Z</time></trkpt>
<trkpt lat="50.790832" lon="3.37606"><ele>39.81</ele><time>2025-05-25T00:40:06Z</time></trkpt>
<trkpt lat="50.790541" lon="3.376377"><ele>39.05</ele><time>2025-05-25T00:40:09Z</time></trkpt>
<trkpt lat="50.790067" lon="3.376833"><ele>39.16</ele><time>2025-05-25T00:40:12Z</time></trkpt>
<trkpt lat="50.789702" lon="3.377319"><ele>40.0</ele><time>2025-05-25T00:40:15Z</time></trkpt>
<trkpt lat="50.789073" lon="3.378271"><ele>40.26</ele><time>2025-05-25T00:40:19Z</time></trkpt>
<trkpt lat="50.788083" lon="3.38003"><ele>41.8</ele><time>2025-05-25T00:40:22Z</time></trkpt>
<trkpt lat="50.787417" lon="3.380873"><ele>47.44</ele><time>2025-05-25T00:40:25Z</time></trkpt>
<trkpt lat="50.787246" lon="3.381206"><ele>48.94</ele><time>2025-05-25T00:40:28Z</time></trkpt>
<trkpt lat="50.787119" lon="3.38153"><ele>49.69</ele><time>2025-05-25T00:40:31Z</time></trkpt>
<trkpt lat="50.787018" lon="3.381852"><ele>50.0</ele><time>2025-05-25T00:40:35Z</time></trkpt>
<trkpt lat="50.786931" lon="3.382212"><ele>48.94</ele><time>2025-05-25T00:40:38Z</time></trkpt>
<trkpt lat="50.786745" lon="3.38315"><ele>52.15</ele><time>2025-05-25T00:40:41Z</time></trkpt>
<trkpt lat="50.786594" lon="3.383713"><ele>52.82</ele><time>2025-05-25T00:40:44Z</time></trkpt>
<trkpt lat="50.786452" lon="3.384149"><ele>53.54</ele><time>2025-05-25T00:40:48Z</time></trkpt>
<trkpt lat="50.786166" lon="3.384836"><ele>57.0</ele><time>2025-05-25T00:40:51Z</time></trkpt>
<trkpt lat="50.786035" lon="3.38509"><ele>56.95</ele><time>2025-05-25T00:40:54Z</time></trkpt>
<trkpt lat="50.785919" lon="3.385275"><ele>56.7</ele><time>2025-05-25T00:40:57Z</time></trkpt>
<trkpt lat="50.785663" lon="3.385615"><ele>53.69</ele><time>2025-05-25T00:41:01Z</time></trkpt>
<trkpt lat="50.785086" lon="3.386216"><ele>49.24</ele><time>2025-05-25T00:41:04Z</time></trkpt>
<trkpt lat="50.78493" lon="3.386428"><ele>47.25</ele><time>2025-05-25T00:41:07Z</time></trkpt>
<trkpt lat="50.784366" lon="3.387592"><ele>46.19</ele><time>2025-05-25T00:41:10Z</time></trkpt>
<trkpt lat="50.784213" lon="3.387799"><ele>46.0</ele><time>2025-05-25T00:41:13Z</time></trkpt>
<trkpt lat="50.783837" lon="3.388099"><ele>45.84</ele><time>2025-05-25T00:41:17Z</time></trkpt>
<trkpt lat="50.783084" lon="3.388493"><ele>43.94</ele><time>2025-05-25T00:41:20Z</time></trkpt>
<trkpt lat="50.782841" lon="3.388707"><ele>44.5</ele><time>2025-05-25T00:41:23Z</time></trkpt>
<trkpt lat="50.782669" lon="3.388907"><ele>44.0</ele><time>2025-05-25T00:41:26Z</time></trkpt>
<trkpt lat="50.782566" lon="3.389063"><ele>44.0</ele><time>2025-05-25T00:41:30Z</time></trkpt>
<trkpt lat="50.782435" lon="3.389316"><ele>43.64</ele><time>2025-05-25T00:41:33Z</time></trkpt>
<trkpt lat="50.782041" lon="3.390271"><ele>40.69</ele><time>2025-05-25T00:41:36Z</time></trkpt>
<trkpt lat="50.781772" lon="3.39079"><ele>37.76</ele><time>2025-05-25T00:41:39Z</time></trkpt>
<trkpt lat="50.780979" lon="3.392047"><ele>37.81</ele><time>2025-05-25T00:41:42Z</time></trkpt>
<trkpt lat="50.780849" lon="3.392238"><ele>37.94</ele><time>2025-05-25T00:41:46Z</time></trkpt>
<trkpt lat="50.780642" lon="3.39247"><ele>38.0</ele><time>2025-05-25T00:41:49Z</time></trkpt>
<trkpt lat="50.780338" lon="3.392743"><ele>38.69</ele><time>2025-05-25T00:41:52Z</time></trkpt>
<trkpt lat="50.780286" lon="3.39267"><ele>38.59</ele><time>2025-05-25T00:41:58Z</time></trkpt>
<trkpt lat="50.780225" lon="3.392654"><ele>38.56</ele><time>2025-05-25T00:42:03Z</time></trkpt>
<trkpt lat="50.780172" lon="3.392671"><ele>38.62</ele><time>2025-05-25T00:42:08Z</time></trkpt>
<trkpt lat="50.77723" lon="3.394034"><ele>36.97</ele><time>2025-05-25T00:42:14Z</time></trkpt>
<trkpt lat="50.777376" lon="3.394767"><ele>36.53</ele><time>2025-05-25T00:42:17Z</time></trkpt>
<trkpt lat="50.777487" lon="3.395504"><ele>36.96</ele><time>2025-05-25T00:42:21Z</time></trkpt>
<trkpt lat="50.77749" lon="3.395711"><ele>36.96</ele><time>2025-05-25T00:42:25Z</time></trkpt>
<trkpt lat="50.777442" lon="3.396513"><ele>35.34</ele><time>2025-05-25T00:42:28Z</time></trkpt>
<trkpt lat="50.777436" lon="3.396858"><ele>34.24</ele><time>2025-05-25T00:42:32Z</time></trkpt>
<trkpt lat="50.777454" lon="3.397386"><ele>33.0</ele><time>2025-05-25T00:42:35Z</time></trkpt>
<trkpt lat="50.777583" lon="3.399026"><ele>31.3</ele><time>2025-05-25T00:42:39Z</time></trkpt>
<trkpt lat="50.777574" lon="3.399122"><ele>31.27</ele><time>2025-05-25T00:42:43Z</time></trkpt>
<trkpt lat="50.77754" lon="3.399198"><ele>31.26</ele><time>2025-05-25T00:42:46Z</time></trkpt>
<trkpt lat="50.777437" lon="3.399266"><ele>31.5</ele><time>2025-05-25T00:42:50Z</time></trkpt>
<trkpt lat="50.777082" lon="3.399316"><ele>31.73</ele><time>2025-05-25T00:42:53Z</time></trkpt>
<trkpt lat="50.776325" lon="3.399614"><ele>31.23</ele><time>2025-05-25T00:42:57Z</time></trkpt>
<trkpt lat="50.775775" lon="3.399741"><ele>30.51</ele><time>2025-05-25T00:43:00Z</time></trkpt>
<trkpt lat="50.775413" lon="3.400014"><ele>28.0</ele><time>2025-05-25T00:43:04Z</time></trkpt>
<trkpt lat="50.775311" lon="3.400157"><ele>28.0</ele><time>2025-05-25T00:43:08Z</time></trkpt>
<trkpt lat="50.775298" lon="3.400241"><ele>28.0</ele><time>2025-05-25T00:43:11Z</time></trkpt>
<trkpt lat="50.775337" lon="3.400563"><ele>28.0</ele><time>2025-05-25T00:43:15Z</time></trkpt>
<trkpt lat="50.77538" lon="3.400768"><ele>28.0</ele><time>2025-05-25T00:43:18Z</time></trkpt>
<trkpt lat="50.775447" lon="3.400925"><ele>27.87</ele><time>2025-05-25T00:43:22Z</time></trkpt>
<trkpt lat="50.775527" lon="3.40101"><ele>27.93</ele><time>2025-05-25T00:43:25Z</time></trkpt>
<trkpt lat="50.775728" lon="3.401116"><ele>28.0</ele><time>2025-05-25T00:43:29Z</time></trkpt>
<trkpt lat="50.775849" lon="3.401207"><ele>28.06</ele><time>2025-05-25T00:43:33Z</time></trkpt>
<trkpt lat="50.775946" lon="3.401363"><ele>28.41</ele><time>2025-05-25T00:43:36Z</time></trkpt>
<trkpt lat="50.776007" lon="3.401509"><ele>28.63</ele><time>2025-05-25T00:43:40Z</time></trkpt>
<trkpt lat="50.776085" lon="3.401798"><ele>28.91</ele><time>2025-05-25T00:43:43Z</time></trkpt>
<trkpt lat="50.776204" lon="3.402527"><ele>29.24</ele><time>2025-05-25T00:43:47Z</time></trkpt>
<trkpt lat="50.776283" lon="3.402864"><ele>28.62</ele><time>2025-05-25T00:43:51Z</time></trkpt>
<trkpt lat="50.776576" lon="3.403794"><ele>28.34</ele><time>2025-05-25T00:43:54Z</time></trkpt>
<trkpt lat="50.776831" lon="3.404523"><ele>28.59</ele><time>2025-05-25T00:43:58Z</time></trkpt>
<trkpt lat="50.776899" lon="3.404815"><ele>28.56</ele><time>2025-05-25T00:44:01Z</time></trkpt>
<trkpt lat="50.776897" lon="3.404975"><ele>28.08</ele><time>2025-05-25T00:44:05Z</time></trkpt>
<trkpt lat="50.776863" lon="3.405146"><ele>27.47</ele><time>2025-05-25T00:44:08Z</time></trkpt>
<trkpt lat="50.776705" lon="3.405621"><ele>25.76</ele><time>2025-05-25T00:44:12Z</time></trkpt>
<trkpt lat="50.776652" lon="3.405819"><ele>25.1</ele><time>2025-05-25T00:44:16Z</time></trkpt>
<trkpt lat="50.77663" lon="3.405989"><ele>24.57</ele><time>2025-05-25T00:44:19Z</time></trkpt>
<trkpt lat="50.776621" lon="3.406374"><ele>24.16</ele><time>2025-05-25T00:44:23Z</time></trkpt>
<trkpt lat="50.776703" lon="3.407188"><ele>23.22</ele><time>2025-05-25T00:44:26Z</time></trkpt>
<trkpt lat="50.776676" lon="3.407332"><ele>23.03</ele><time>2025-05-25T00:44:30Z</time></trkpt>
<trkpt lat="50.776599" lon="3.407585"><ele>23.0</ele><time>2025-05-25T00:44:34Z</time></trkpt>
<trkpt lat="50.776373" lon="3.408242"><ele>22.96</ele><time>2025-05-25T00:44:37Z</time></trkpt>
<trkpt lat="50.776358" lon="3.408421"><ele>22.85</ele><time>2025-05-25T00:44:41Z</time></trkpt>
<trkpt lat="50.776383" lon="3.4086"><ele>22.96</ele><time>2025-05-25T00:44:44Z</time></trkpt>
<trkpt lat="50.776597" lon="3.409344"><ele>21.11</ele><time>2025-05-25T00:44:48Z</time></trkpt>
<trkpt lat="50.776646" lon="3.409612"><ele>20.37</ele><time>2025-05-25T00:44:51Z</time></trkpt>
<trkpt lat="50.775574" lon="3.410125"><ele>20.93</ele><time>2025-05-25T00:44:56Z</time></trkpt>
<trkpt lat="50.775086" lon="3.410407"><ele>18.62</ele><time>2025-05-25T00:45:01Z</time></trkpt>
<trkpt lat="50.774395" lon="3.410677"><ele>17.18</ele><time>2025-05-25T00:45:06Z</time></trkpt>
<trkpt lat="50.774269" lon="3.410831"><ele>17.63</ele><time>2025-05-25T00:45:11Z</time></trkpt>
<trkpt lat="50.774163" lon="3.411023"><ele>17.32</ele><time>2025-05-25T00:45:16Z</time></trkpt>
<trkpt lat="50.774026" lon="3.411443"><ele>17.0</ele><time>2025-05-25T00:45:21Z</time></trkpt>
<trkpt lat="50.774007" lon="3.411599"><ele>17.0</ele><time>2025-05-25T00:45:26Z</time></trkpt>
<trkpt lat="50.774025" lon="3.411772"><ele>17.0</ele><time>2025-05-25T00:45:31Z</time></trkpt>
<trkpt lat="50.774137" lon="3.412237"><ele>17.89</ele><time>2025-05-25T00:45:36Z</time></trkpt>
<trkpt lat="50.774146" lon="3.412329"><ele>17.92</ele><time>2025-05-25T00:45:40Z</time></trkpt>
<trkpt lat="50.774121" lon="3.412494"><ele>17.84</ele><time>2025-05-25T00:45:45Z</time></trkpt>
<trkpt lat="50.774082" lon="3.412593"><ele>18.03</ele><time>2025-05-25T00:45:50Z</time></trkpt>
<trkpt lat="50.774023" lon="3.412669"><ele>18.09</ele><time>2025-05-25T00:45:55Z</time></trkpt>
<trkpt lat="50.77338" lon="3.413111"><ele>15.97</ele><time>2025-05-25T00:46:00Z</time></trkpt>
<trkpt lat="50.772128" lon="3.413864"><ele>16.29</ele><time>2025-05-25T00:46:05Z</time></trkpt>
<trkpt lat="50.771725" lon="3.414068"><ele>15.0</ele><time>2025-05-25T00:46:10Z</time></trkpt>
<trkpt lat="50.771449" lon="3.414302"><ele>14.51</ele><time>2025-05-25T00:46:15Z</time></trkpt>
<trkpt lat="50.771465" lon="3.414713"><ele>14.0</ele><time>2025-05-25T00:46:19Z</time></trkpt>
<trkpt lat="50.771554" lon="3.415269"><ele>14.6</ele><time>2025-05-25T00:46:22Z</time></trkpt>
<trkpt lat="50.771634" lon="3.415477"><ele>14.25</ele><time>2025-05-25T00:46:26Z</time></trkpt>
<trkpt lat="50.77174" lon="3.415653"><ele>14.17</ele><time>2025-05-25T00:46:30Z</time></trkpt>
<trkpt lat="50.772341" lon="3.416428"><ele>13.14</ele><time>2025-05-25T00:46:34Z</time></trkpt>
<trkpt lat="50.772441" lon="3.416599"><ele>13.75</ele><time>2025-05-25T00:46:38Z</time></trkpt>
<trkpt lat="50.772628" lon="3.416997"><ele>14.73</ele><time>2025-05-25T00:46:42Z</time></trkpt>
<trkpt lat="50.772777" lon="3.417407"><ele>15.0</ele><time>2025-05-25T00:46:46Z</time></trkpt>
<trkpt lat="50.773181" lon="3.418807"><ele>12.61</ele><time>2025-05-25T00:46:50Z</time></trkpt>
<trkpt lat="50.773234" lon="3.41894"><ele>12.76</ele><time>2025-05-25T00:46:54Z</time></trkpt>
<trkpt lat="50.773476" lon="3.419415"><ele>15.41</ele><time>2025-05-25T00:46:58Z</time></trkpt>
<trkpt lat="50.77353" lon="3.419555"><ele>15.71</ele><time>2025-05-25T00:47:02Z</time></trkpt>
<trkpt lat="50.773569" lon="3.419771"><ele>15.7</ele><time>2025-05-25T00:47:05Z</time></trkpt>
<trkpt lat="50.773562" lon="3.419996"><ele>15.01</ele><time>2025-05-25T00:47:09Z</time></trkpt>
<trkpt lat="50.773436" lon="3.420476"><ele>14.36</ele><time>2025-05-25T00:47:13Z</time></trkpt>
<trkpt lat="50.773059" lon="3.421578"><ele>14.98</ele><time>2025-05-25T00:47:17Z</time></trkpt>
<trkpt lat="50.772937" lon="3.422207"><ele>15.02</ele><time>2025-05-25T00:47:21Z</time></trkpt>
<trkpt lat="50.772867" lon="3.422438"><ele>15.0</ele><time>2025-05-25T00:47:25Z</time></trkpt>
<trkpt lat="50.772524" lon="3.42297"><ele>14.09</ele><time>2025-05-25T00:47:29Z</time></trkpt>
<trkpt lat="50.772291" lon="3.423434"><ele>14.0</ele><time>2025-05-25T00:47:33Z</time></trkpt>
<trkpt lat="50.772222" lon="3.423612"><ele>14.0</ele><time>2025-05-25T00:47:37Z</time></trkpt>
<trkpt lat="50.77218" lon="3.423787"><ele>14.63</ele><time>2025-05-25T00:47:41Z</time></trkpt>
<trkpt lat="50.772165" lon="3.423888"><ele>15.0</ele><time>2025-05-25T00:47:45Z</time></trkpt>
<trkpt lat="50.772184" lon="3.424065"><ele>15.0</ele><time>2025-05-25T00:47:48Z</time></trkpt>
<trkpt lat="50.77257" lon="3.424909"><ele>14.07</ele><time>2025-05-25T00:47:52Z</time></trkpt>
<trkpt lat="50.772608" lon="3.425098"><ele>13.39</ele><time>2025-05-25T00:47:56Z</time></trkpt>
<trkpt lat="50.772602" lon="3.425275"><ele>13.01</ele><time>2025-05-25T00:48:00Z</time></trkpt>
<trkpt lat="50.772102" lon="3.42702"><ele>13.25</ele><time>2025-05-25T00:48:04Z</time></trkpt>
<trkpt lat="50.772028" lon="3.427404"><ele>13.76</ele><time>2025-05-25T00:48:08Z</time></trkpt>
<trkpt lat="50.77193" lon="3.428111"><ele>14.94</ele><time>2025-05-25T00:48:12Z</time></trkpt>
<trkpt lat="50.771921" lon="3.428406"><ele>14.83</ele><time>2025-05-25T00:48:16Z</time></trkpt>
<trkpt lat="50.771946" lon="3.428604"><ele>15.0</ele><time>2025-05-25T00:48:20Z</time></trkpt>
<trkpt lat="50.772054" lon="3.429005"><ele>15.23</ele><time>2025-05-25T00:48:24Z</time></trkpt>
<trkpt lat="50.77204" lon="3.429114"><ele>15.06</ele><time>2025-05-25T00:48:28Z</time></trkpt>
<trkpt lat="50.771907" lon="3.429554"><ele>13.66</ele><time>2025-05-25T00:48:31Z</time></trkpt>
<trkpt lat="50.771803" lon="3.430304"><ele>13.1</ele><time>2025-05-25T00:48:35Z</time></trkpt>
<trkpt lat="50.771718" lon="3.430657"><ele>14.07</ele><time>2025-05-25T00:48:39Z</time></trkpt>
<trkpt lat="50.771608" lon="3.430963"><ele>14.26</ele><time>2025-05-25T00:48:43Z</time></trkpt>
<trkpt lat="50.771428" lon="3.431339"><ele>14.14</ele><time>2025-05-25T00:48:47Z</time></trkpt>
<trkpt lat="50.771128" lon="3.431898"><ele>15.0</ele><time>2025-05-25T00:48:51Z</time></trkpt>
<trkpt lat="50.770988" lon="3.432234"><ele>16.0</ele><time>2025-05-25T00:48:55Z</time></trkpt>
<trkpt lat="50.770659" lon="3.432762"><ele>15.02</ele><time>2025-05-25T00:48:59Z</time></trkpt>
<trkpt lat="50.770611" lon="3.432813"><ele>15.0</ele><time>2025-05-25T00:49:03Z</time></trkpt>
<trkpt lat="50.770099" lon="3.433167"><ele>15.36</ele><time>2025-05-25T00:49:07Z</time></trkpt>
<trkpt lat="50.769392" lon="3.433882"><ele>11.05</ele><time>2025-05-25T00:49:11Z</time></trkpt>
<trkpt lat="50.769298" lon="3.433943"><ele>10.9</ele><time>2025-05-25T00:49:14Z</time></trkpt>
<trkpt lat="50.768942" lon="3.434085"><ele>10.29</ele><time>2025-05-25T00:49:18Z</time></trkpt>
<trkpt lat="50.768855" lon="3.434144"><ele>10.07</ele><time>2025-05-25T00:49:22Z</time></trkpt>
<trkpt lat="50.768748" lon="3.43425"><ele>9.55</ele><time>2025-05-25T00:49:26Z</time></trkpt>
<trkpt lat="50.768319" lon="3.434858"><ele>11.49</ele><time>2025-05-25T00:49:30Z</time></trkpt>
<trkpt lat="50.767818" lon="3.435487"><ele>12.1</ele><time>2025-05-25T00:49:34Z</time></trkpt>
<trkpt lat="50.767317" lon="3.436044"><ele>11.42</ele><time>2025-05-25T00:49:38Z</time></trkpt>
<trkpt lat="50.767208" lon="3.436128"><ele>10.95</ele><time>2025-05-25T00:49:42Z</time></trkpt>
<trkpt lat="50.76711" lon="3.436166"><ele>10.59</ele><time>2025-05-25T00:49:46Z</time></trkpt>
<trkpt lat="50.767005" lon="3.436146"><ele>10.22</ele><time>2025-05-25T00:49:50Z</time></trkpt>
<trkpt lat="50.766835" lon="3.436073"><ele>9.74</ele><time>2025-05-25T00:49:54Z</time></trkpt>
<trkpt lat="50.766755" lon="3.436074"><ele>9.45</ele><time>2025-05-25T00:49:57Z</time></trkpt>
<trkpt lat="50.76667" lon="3.436131"><ele>9.01</ele><time>2025-05-25T00:50:01Z</time></trkpt>
<trkpt lat="50.766534" lon="3.43628"><ele>8.52</ele><time>2025-05-25T00:50:05Z</time></trkpt>
<trkpt lat="50.765956" lon="3.437046"><ele>9.04</ele><time>2025-05-25T00:50:09Z</time></trkpt>
<trkpt lat="50.764446" lon="3.439144"><ele>15.0</ele><time>2025-05-25T00:50:13Z</time></trkpt>
<trkpt lat="50.764941" lon="3.440627"><ele>15.79</ele><time>2025-05-25T00:50:27Z</time></trkpt>
<trkpt lat="50.764854" lon="3.440697"><ele>15.47</ele><time>2025-05-25T00:50:31Z</time></trkpt>
<trkpt lat="50.7648" lon="3.440726"><ele>15.28</ele><time>2025-05-25T00:50:34Z</time></trkpt>
<trkpt lat="50.764655" lon="3.440731"><ele>14.76</ele><time>2025-05-25T00:50:38Z</time></trkpt>
<trkpt lat="50.763978" lon="3.440583"><ele>13.93</ele><time>2025-05-25T00:50:42Z</time></trkpt>
<trkpt lat="50.76375" lon="3.440555"><ele>13.5</ele><time>2025-05-25T00:50:45Z</time></trkpt>
<trkpt lat="50.763491" lon="3.440568"><ele>12.96</ele><time>2025-05-25T00:50:49Z</time></trkpt>
<trkpt lat="50.763306" lon="3.440603"><ele>12.85</ele><time>2025-05-25T00:50:53Z</time></trkpt>
<trkpt lat="50.763129" lon="3.440655"><ele>12.9</ele><time>2025-05-25T00:50:57Z</time></trkpt>
<trkpt lat="50.762849" lon="3.440791"><ele>11.51</ele><time>2025-05-25T00:51:00Z</time></trkpt>
<trkpt lat="50.762582" lon="3.440965"><ele>11.33</ele><time>2025-05-25T00:51:04Z</time></trkpt>
<trkpt lat="50.762428" lon="3.441103"><ele>11.73</ele><time>2025-05-25T00:51:08Z</time></trkpt>
<trkpt lat="50.762211" lon="3.441333"><ele>11.0</ele><time>2025-05-25T00:51:11Z</time></trkpt>
<trkpt lat="50.761795" lon="3.441832"><ele>10.86</ele><time>2025-05-25T00:51:15Z</time></trkpt>
<trkpt lat="50.761598" lon="3.442015"><ele>12.75</ele><time>2025-05-25T00:51:19Z</time></trkpt>
<trkpt lat="50.760353" lon="3.442757"><ele>11.66</ele><time>2025-05-25T00:51:22Z</time></trkpt>
<trkpt lat="50.759501" lon="3.443454"><ele>11.8</ele><time>2025-05-25T00:51:26Z</time></trkpt>
<trkpt lat="50.757393" lon="3.444669"><ele>13.23</ele><time>2025-05-25T00:51:30Z</time></trkpt>
<trkpt lat="50.757135" lon="3.444812"><ele>12.72</ele><time>2025-05-25T00:51:33Z</time></trkpt>
<trkpt lat="50.756477" lon="3.445204"><ele>15.37</ele><time>2025-05-25T00:51:37Z</time></trkpt>
<trkpt lat="50.75634" lon="3.445347"><ele>16.25</ele><time>2025-05-25T00:51:41Z</time></trkpt>
<trkpt lat="50.755647" lon="3.446231"><ele>16.38</ele><time>2025-05-25T00:51:44Z</time></trkpt>
<trkpt lat="50.755523" lon="3.446427"><ele>15.98</ele><time>2025-05-25T00:51:48Z</time></trkpt>
<trkpt lat="50.755427" lon="3.446647"><ele>15.53</ele><time>2025-05-25T00:51:52Z</time></trkpt>
<trkpt lat="50.755286" lon="3.44705"><ele>15.6</ele><time>2025-05-25T00:51:56Z</time></trkpt>
<trkpt lat="50.755211" lon="3.447208"><ele>14.81</ele><time>2025-05-25T00:51:59Z</time></trkpt>
<trkpt lat="50.755077" lon="3.447403"><ele>14.27</ele><time>2025-05-25T00:52:03Z</time></trkpt>
<trkpt lat="50.754896" lon="3.447599"><ele>14.38</ele><time>2025-05-25T00:52:07Z</time></trkpt>
<trkpt lat="50.754728" lon="3.447743"><ele>14.98</ele><time>2025-05-25T00:52:10Z</time></trkpt>
<trkpt lat="50.754632" lon="3.447792"><ele>14.62</ele><time>2025-05-25T00:52:14Z</time></trkpt>
<trkpt lat="50.753942" lon="3.44799"><ele>11.81</ele><time>2025-05-25T00:52:18Z</time></trkpt>
<trkpt lat="50.753883" lon="3.447971"><ele>12.06</ele><time>2025-05-25T00:52:37Z</time></trkpt>
<trkpt lat="50.753824" lon="3.448021"><ele>12.7</ele><time>2025-05-25T00:52:57Z</time></trkpt>
<trkpt lat="50.753715" lon="3.447997"><ele>13.88</ele><time>2025-05-25T00:53:17Z</time></trkpt>
<trkpt lat="50.738647" lon="3.451213"><ele>14.13</ele><time>2025-05-25T00:53:37Z</time></trkpt>
<trkpt lat="50.738485" lon="3.45293"><ele>15.91</ele><time>2025-05-25T00:53:40Z</time></trkpt>
<trkpt lat="50.738489" lon="3.45338"><ele>16.44</ele><time>2025-05-25T00:53:43Z</time></trkpt>
<trkpt lat="50.738541" lon="3.453651"><ele>16.32</ele><time>2025-05-25T00:53:46Z</time></trkpt>
<trkpt lat="50.739171" lon="3.454832"><ele>14.64</ele><time>2025-05-25T00:53:49Z</time></trkpt>
<trkpt lat="50.739263" lon="3.455022"><ele>14.69</ele><time>2025-05-25T00:53:52Z</time></trkpt>
<trkpt lat="50.739312" lon="3.455179"><ele>15.05</ele><time>2025-05-25T00:53:55Z</time></trkpt>
<trkpt lat="50.739342" lon="3.455401"><ele>15.42</ele><time>2025-05-25T00:53:59Z</time></trkpt>
<trkpt lat="50.739343" lon="3.455535"><ele>15.6</ele><time>2025-05-25T00:54:02Z</time></trkpt>
<trkpt lat="50.739235" lon="3.456899"><ele>18.25</ele><time>2025-05-25T00:54:05Z</time></trkpt>
<trkpt lat="50.739254" lon="3.45715"><ele>18.59</ele><time>2025-05-25T00:54:08Z</time></trkpt>
<trkpt lat="50.739296" lon="3.457296"><ele>18.53</ele><time>2025-05-25T00:54:11Z</time></trkpt>
<trkpt lat="50.73987" lon="3.458747"><ele>17.97</ele><time>2025-05-25T00:54:14Z</time></trkpt>
<trkpt lat="50.739962" lon="3.459128"><ele>17.27</ele><time>2025-05-25T00:54:17Z</time></trkpt>
<trkpt lat="50.740184" lon="3.461027"><ele>18.54</ele><time>2025-05-25T00:54:20Z</time></trkpt>
<trkpt lat="50.740203" lon="3.461328"><ele>18.06</ele><time>2025-05-25T00:54:24Z</time></trkpt>
<trkpt lat="50.74019" lon="3.46152"><ele>17.52</ele><time>2025-05-25T00:54:27Z</time></trkpt>
<trkpt lat="50.740068" lon="3.462236"><ele>15.75</ele><time>2025-05-25T00:54:30Z</time></trkpt>
<trkpt lat="50.740053" lon="3.462426"><ele>15.81</ele><time>2025-05-25T00:54:33Z</time></trkpt>
<trkpt lat="50.740064" lon="3.462559"><ele>15.72</ele><time>2025-05-25T00:54:36Z</time></trkpt>
<trkpt lat="50.740265" lon="3.463236"><ele>14.71</ele><time>2025-05-25T00:54:39Z</time></trkpt>
<trkpt lat="50.740307" lon="3.463467"><ele>14.9</ele><time>2025-05-25T00:54:42Z</time></trkpt>
<trkpt lat="50.740283" lon="3.463699"><ele>14.99</ele><time>2025-05-25T00:54:45Z</time></trkpt>
<trkpt lat="50.74017" lon="3.464041"><ele>15.39</ele><time>2025-05-25T00:54:49Z</time></trkpt>
<trkpt lat="50.739766" lon="3.464606"><ele>15.0</ele><time>2025-05-25T00:54:52Z</time></trkpt>
<trkpt lat="50.739323" lon="3.465401"><ele>14.69</ele><time>2025-05-25T00:54:55Z</time></trkpt>
<trkpt lat="50.738955" lon="3.465954"><ele>14.56</ele><time>2025-05-25T00:54:58Z</time></trkpt>
<trkpt lat="50.738787" lon="3.466113"><ele>13.63</ele><time>2025-05-25T00:55:01Z</time></trkpt>
<trkpt lat="50.738557" lon="3.466227"><ele>13.53</ele><time>2025-05-25T00:55:04Z</time></trkpt>
<trkpt lat="50.738349" lon="3.466251"><ele>13.97</ele><time>2025-05-25T00:55:07Z</time></trkpt>
<trkpt lat="50.738095" lon="3.466205"><ele>14.0</ele><time>2025-05-25T00:55:10Z</time></trkpt>
<trkpt lat="50.73795" lon="3.466236"><ele>14.38</ele><time>2025-05-25T00:55:14Z</time></trkpt>
<trkpt lat="50.737832" lon="3.46634"><ele>14.8</ele><time>2025-05-25T00:55:17Z</time></trkpt>
<trkpt lat="50.736811" lon="3.4682"><ele>14.96</ele><time>2025-05-25T00:55:20Z</time></trkpt>
<trkpt lat="50.736689" lon="3.468459"><ele>14.92</ele><time>2025-05-25T00:55:23Z</time></trkpt>
<trkpt lat="50.736602" lon="3.468717"><ele>15.23</ele><time>2025-05-25T00:55:26Z</time></trkpt>
<trkpt lat="50.736456" lon="3.469273"><ele>15.76</ele><time>2025-05-25T00:55:29Z</time></trkpt>
<trkpt lat="50.735905" lon="3.470728"><ele>17.0</ele><time>2025-05-25T00:55:32Z</time></trkpt>
<trkpt lat="50.73571" lon="3.471408"><ele>16.97</ele><time>2025-05-25T00:55:35Z</time></trkpt>
<trkpt lat="50.735597" lon="3.471703"><ele>16.15</ele><time>2025-05-25T00:55:39Z</time></trkpt>
<trkpt lat="50.735186" lon="3.472494"><ele>16.98</ele><time>2025-05-25T00:55:42Z</time></trkpt>
<trkpt lat="50.734706" lon="3.473199"><ele>17.49</ele><time>2025-05-25T00:55:45Z</time></trkpt>
<trkpt lat="50.734542" lon="3.473369"><ele>17.35</ele><time>2025-05-25T00:55:48Z</time></trkpt>
<trkpt lat="50.734171" lon="3.473896"><ele>18.0</ele><time>2025-05-25T00:55:51Z</time></trkpt>
<trkpt lat="50.734114" lon="3.473999"><ele>17.54</ele><time>2025-05-25T00:55:54Z</time></trkpt>
<trkpt lat="50.733838" lon="3.474715"><ele>13.81</ele><time>2025-05-25T00:55:57Z</time></trkpt>
<trkpt lat="50.73375" lon="3.474992"><ele>13.5</ele><time>2025-05-25T00:56:00Z</time></trkpt>
<trkpt lat="50.73367" lon="3.475311"><ele>13.9</ele><time>2025-05-25T00:56:04Z</time></trkpt>
<trkpt lat="50.733456" lon="3.476455"><ele>17.78</ele><time>2025-05-25T00:56:07Z</time></trkpt>
<trkpt lat="50.73342" lon="3.476583"><ele>18.23</ele><time>2025-05-25T00:56:10Z</time></trkpt>
<trkpt lat="50.733273" lon="3.476884"><ele>18.61</ele><time>2025-05-25T00:56:13Z</time></trkpt>
<trkpt lat="50.733072" lon="3.477119"><ele>18.69</ele><time>2025-05-25T00:56:16Z</time></trkpt>
<trkpt lat="50.73177" lon="3.478413"><ele>19.63</ele><time>2025-05-25T00:56:19Z</time></trkpt>
<trkpt lat="50.731072" lon="3.479081"><ele>21.0</ele><time>2025-05-25T00:56:22Z</time></trkpt>
<trkpt lat="50.730815" lon="3.479371"><ele>21.82</ele><time>2025-05-25T00:56:25Z</time></trkpt>
<trkpt lat="50.730535" lon="3.479776"><ele>22.9</ele><time>2025-05-25T00:56:29Z</time></trkpt>
<trkpt lat="50.729514" lon="3.4814"><ele>26.71</ele><time>2025-05-25T00:56:32Z</time></trkpt>
<trkpt lat="50.729409" lon="3.481603"><ele>26.35</ele><time>2025-05-25T00:56:35Z</time></trkpt>
<trkpt lat="50.729381" lon="3.48179"><ele>26.23</ele><time>2025-05-25T00:56:38Z</time></trkpt>
<trkpt lat="50.729139" lon="3.48425"><ele>31.83</ele><time>2025-05-25T00:56:41Z</time></trkpt>
<trkpt lat="50.729182" lon="3.484479"><ele>31.94</ele><time>2025-05-25T00:56:44Z</time></trkpt>
<trkpt lat="50.729294" lon="3.484811"><ele>31.37</ele><time>2025-05-25T00:56:47Z</time></trkpt>
<trkpt lat="50.730092" lon="3.487051"><ele>30.92</ele><time>2025-05-25T00:56:50Z</time></trkpt>
<trkpt lat="50.730182" lon="3.487371"><ele>30.69</ele><time>2025-05-25T00:56:54Z</time></trkpt>
<trkpt lat="50.730221" lon="3.487848"><ele>31.41</ele><time>2025-05-25T00:56:57Z</time></trkpt>
<trkpt lat="50.730184" lon="3.488077"><ele>31.72</ele><time>2025-05-25T00:57:00Z</time></trkpt>
<trkpt lat="50.730016" lon="3.488542"><ele>32.94</ele><time>2025-05-25T00:57:03Z</time></trkpt>
<trkpt lat="50.729263" lon="3.490483"><ele>37.08</ele><time>2025-05-25T00:57:06Z</time></trkpt>
<trkpt lat="50.72816" lon="3.493224"><ele>35.37</ele><time>2025-05-25T00:57:09Z</time></trkpt>
<trkpt lat="50.72802" lon="3.493635"><ele>34.99</ele><time>2025-05-25T00:57:12Z</time></trkpt>
<trkpt lat="50.727662" lon="3.494984"><ele>33.03</ele><time>2025-05-25T00:57:15Z</time></trkpt>
<trkpt lat="50.727501" lon="3.495505"><ele>33.81</ele><time>2025-05-25T00:57:19Z</time></trkpt>
<trkpt lat="50.727439" lon="3.495648"><ele>34.22</ele><time>2025-05-25T00:57:22Z</time></trkpt>
<trkpt lat="50.727276" lon="3.495928"><ele>34.8</ele><time>2025-05-25T00:57:25Z</time></trkpt>
<trkpt lat="50.7262" lon="3.497555"><ele>36.56</ele><time>2025-05-25T00:57:28Z</time></trkpt>
<trkpt lat="50.726078" lon="3.497797"><ele>38.0</ele><time>2025-05-25T00:57:31Z</time></trkpt>
<trkpt lat="50.725961" lon="3.498102"><ele>38.09</ele><time>2025-05-25T00:57:34Z</time></trkpt>
<trkpt lat="50.725881" lon="3.498392"><ele>39.04</ele><time>2025-05-25T00:57:37Z</time></trkpt>
<trkpt lat="50.725842" lon="3.498613"><ele>39.98</ele><time>2025-05-25T00:57:41Z</time></trkpt>
<trkpt lat="50.725844" lon="3.4998"><ele>43.0</ele><time>2025-05-25T00:57:44Z</time></trkpt>
<trkpt lat="50.725664" lon="3.501116"><ele>45.62</ele><time>2025-05-25T00:57:47Z</time></trkpt>
<trkpt lat="50.725612" lon="3.501832"><ele>47.6</ele><time>2025-05-25T00:57:50Z</time></trkpt>
<trkpt lat="50.725705" lon="3.50212"><ele>48.97</ele><time>2025-05-25T00:57:53Z</time></trkpt>
<trkpt lat="50.725767" lon="3.502401"><ele>50.25</ele><time>2025-05-25T00:57:56Z</time></trkpt>
<trkpt lat="50.725781" lon="3.50263"><ele>51.01</ele><time>2025-05-25T00:57:59Z</time></trkpt>
<trkpt lat="50.725759" lon="3.50291"><ele>51.32</ele><time>2025-05-25T00:58:02Z</time></trkpt>
<trkpt lat="50.725635" lon="3.503855"><ele>54.79</ele><time>2025-05-25T00:58:06Z</time></trkpt>
<trkpt lat="50.725539" lon="3.50445"><ele>56.96</ele><time>2025-05-25T00:58:09Z</time></trkpt>
<trkpt lat="50.725492" lon="3.504611"><ele>57.23</ele><time>2025-05-25T00:58:12Z</time></trkpt>
<trkpt lat="50.725217" lon="3.505097"><ele>57.13</ele><time>2025-05-25T00:58:15Z</time></trkpt>
<trkpt lat="50.725104" lon="3.505407"><ele>57.83</ele><time>2025-05-25T00:58:18Z</time></trkpt>
<trkpt lat="50.72497" lon="3.50587"><ele>59.02</ele><time>2025-05-25T00:58:21Z</time></trkpt>
<trkpt lat="50.724884" lon="3.506086"><ele>59.49</ele><time>2025-05-25T00:58:24Z</time></trkpt>
<trkpt lat="50.724795" lon="3.506227"><ele>59.57</ele><time>2025-05-25T00:58:27Z</time></trkpt>
<trkpt lat="50.724611" lon="3.506358"><ele>59.53</ele><time>2025-05-25T00:58:31Z</time></trkpt>
<trkpt lat="50.723875" lon="3.506169"><ele>56.95</ele><time>2025-05-25T00:58:34Z</time></trkpt>
<trkpt lat="50.723666" lon="3.506173"><ele>56.2</ele><time>2025-05-25T00:58:37Z</time></trkpt>
<trkpt lat="50.723469" lon="3.506247"><ele>56.0</ele><time>2025-05-25T00:58:40Z</time></trkpt>
<trkpt lat="50.723385" lon="3.506433"><ele>56.16</ele><time>2025-05-25T00:58:43Z</time></trkpt>
<trkpt lat="50.723063" lon="3.507318"><ele>55.03</ele><time>2025-05-25T00:58:46Z</time></trkpt>
<trkpt lat="50.722976" lon="3.507503"><ele>55.0</ele><time>2025-05-25T00:58:49Z</time></trkpt>
<trkpt lat="50.722859" lon="3.507625"><ele>54.68</ele><time>2025-05-25T00:58:52Z</time></trkpt>
<trkpt lat="50.722761" lon="3.507776"><ele>53.94</ele><time>2025-05-25T00:58:56Z</time></trkpt>
<trkpt lat="50.72254" lon="3.508194"><ele>52.72</ele><time>2025-05-25T00:58:59Z</time></trkpt>
<trkpt lat="50.722044" lon="3.509205"><ele>49.91</ele><time>2025-05-25T00:59:02Z</time></trkpt>
<trkpt lat="50.721151" lon="3.510723"><ele>45.66</ele><time>2025-05-25T00:59:05Z</time></trkpt>
<trkpt lat="50.717839" lon="3.513624"><ele>57.82</ele><time>2025-05-25T00:59:08Z</time></trkpt>
<trkpt lat="50.717582" lon="3.513806"><ele>59.62</ele><time>2025-05-25T00:59:11Z</time></trkpt>
<trkpt lat="50.716671" lon="3.514379"><ele>63.75</ele><time>2025-05-25T00:59:14Z</time></trkpt>
<trkpt lat="50.71633" lon="3.514579"><ele>64.8</ele><time>2025-05-25T00:59:17Z</time></trkpt>
<trkpt lat="50.715958" lon="3.514755"><ele>65.93</ele><time>2025-05-25T00:59:21Z</time></trkpt>
<trkpt lat="50.715671" lon="3.514858"><ele>64.93</ele><time>2025-05-25T00:59:24Z</time></trkpt>
<trkpt lat="50.71531" lon="3.514948"><ele>63.3</ele><time>2025-05-25T00:59:27Z</time></trkpt>
<trkpt lat="50.715072" lon="3.515"><ele>62.26</ele><time>2025-05-25T00:59:30Z</time></trkpt>
<trkpt lat="50.714688" lon="3.515043"><ele>60.86</ele><time>2025-05-25T00:59:33Z</time></trkpt>
<trkpt lat="50.714489" lon="3.515035"><ele>60.06</ele><time>2025-05-25T00:59:36Z</time></trkpt>
<trkpt lat="50.714" lon="3.514883"><ele>59.42</ele><time>2025-05-25T00:59:39Z</time></trkpt>
<trkpt lat="50.713657" lon="3.514857"><ele>58.68</ele><time>2025-05-25T00:59:42Z</time></trkpt>
<trkpt lat="50.713103" lon="3.514899"><ele>55.47</ele><time>2025-05-25T00:59:46Z</time></trkpt>
<trkpt lat="50.7118" lon="3.515093"><ele>48.48</ele><time>2025-05-25T00:59:49Z</time></trkpt>
<trkpt lat="50.708703" lon="3.515634"><ele>44.33</ele><time>2025-05-25T00:59:52Z</time></trkpt>
<trkpt lat="50.708563" lon="3.515675"><ele>43.83</ele><time>2025-05-25T00:59:55Z</time></trkpt>
<trkpt lat="50.708339" lon="3.515785"><ele>43.02</ele><time>2025-05-25T00:59:58Z</time></trkpt>
<trkpt lat="50.708072" lon="3.515999"><ele>42.06</ele><time>2025-05-25T01:00:01Z</time></trkpt>
<trkpt lat="50.707553" lon="3.516527"><ele>43.4</ele><time>2025-05-25T01:00:04Z</time></trkpt>
<trkpt lat="50.7066" lon="3.518032"><ele>42.76</ele><time>2025-05-25T01:00:07Z</time></trkpt>
<trkpt lat="50.70575" lon="3.519056"><ele>43.0</ele><time>2025-05-25T01:00:11Z</time></trkpt>
<trkpt lat="50.704897" lon="3.520028"><ele>45.63</ele><time>2025-05-25T01:00:14Z</time></trkpt>
<trkpt lat="50.704622" lon="3.520293"><ele>45.03</ele><time>2025-05-25T01:00:17Z</time></trkpt>
<trkpt lat="50.704264" lon="3.520537"><ele>44.96</ele><time>2025-05-25T01:00:20Z</time></trkpt>
<trkpt lat="50.703905" lon="3.520839"><ele>45.02</ele><time>2025-05-25T01:00:23Z</time></trkpt>
<trkpt lat="50.703171" lon="3.521632"><ele>51.63</ele><time>2025-05-25T01:00:26Z</time></trkpt>
<trkpt lat="50.702969" lon="3.521938"><ele>53.31</ele><time>2025-05-25T01:00:29Z</time></trkpt>
<trkpt lat="50.702711" lon="3.522268"><ele>53.0</ele><time>2025-05-25T01:00:32Z</time></trkpt>
<trkpt lat="50.702333" lon="3.522638"><ele>53.1</ele><time>2025-05-25T01:00:36Z</time></trkpt>
<trkpt lat="50.700629" lon="3.523912"><ele>61.0</ele><time>2025-05-25T01:00:39Z</time></trkpt>
<trkpt lat="50.700405" lon="3.524055"><ele>60.24</ele><time>2025-05-25T01:00:42Z</time></trkpt>
<trkpt lat="50.700436" lon="3.523484"><ele>58.88</ele><time>2025-05-25T01:00:46Z</time></trkpt>
<trkpt lat="50.700406" lon="3.522038"><ele>56.34</ele><time>2025-05-25T01:00:50Z</time></trkpt>
<trkpt lat="50.70035" lon="3.52134"><ele>54.0</ele><time>2025-05-25T01:00:54Z</time></trkpt>
<trkpt lat="50.70026" lon="3.520713"><ele>53.0</ele><time>2025-05-25T01:00:58Z</time></trkpt>
<trkpt lat="50.700139" lon="3.52008"><ele>53.0</ele><time>2025-05-25T01:01:02Z</time></trkpt>
<trkpt lat="50.700001" lon="3.519559"><ele>53.0</ele><time>2025-05-25T01:01:06Z</time></trkpt>
<trkpt lat="50.699849" lon="3.519079"><ele>53.0</ele><time>2025-05-25T01:01:10Z</time></trkpt>
<trkpt lat="50.699525" lon="3.518244"><ele>52.06</ele><time>2025-05-25T01:01:14Z</time></trkpt>
<trkpt lat="50.6994" lon="3.517974"><ele>51.0</ele><time>2025-05-25T01:01:18Z</time></trkpt>
<trkpt lat="50.699152" lon="3.517519"><ele>49.96</ele><time>2025-05-25T01:01:22Z</time></trkpt>
<trkpt lat="50.698874" lon="3.517058"><ele>48.0</ele><time>2025-05-25T01:01:26Z</time></trkpt>
<trkpt lat="50.696185" lon="3.513305"><ele>42.76</ele><time>2025-05-25T01:01:30Z</time></trkpt>
<trkpt lat="50.696019" lon="3.513603"><ele>43.0</ele><time>2025-05-25T01:01:33Z</time></trkpt>
<trkpt lat="50.69579" lon="3.514087"><ele>42.84</ele><time>2025-05-25T01:01:36Z</time></trkpt>
<trkpt lat="50.695684" lon="3.514333"><ele>42.46</ele><time>2025-05-25T01:01:38Z</time></trkpt>
<trkpt lat="50.695473" lon="3.514913"><ele>41.02</ele><time>2025-05-25T01:01:41Z</time></trkpt>
<trkpt lat="50.695256" lon="3.515685"><ele>39.0</ele><time>2025-05-25T01:01:43Z</time></trkpt>
<trkpt lat="50.695191" lon="3.515984"><ele>38.46</ele><time>2025-05-25T01:01:46Z</time></trkpt>
<trkpt lat="50.694914" lon="3.517713"><ele>39.62</ele><time>2025-05-25T01:01:48Z</time></trkpt>
<trkpt lat="50.694843" lon="3.518053"><ele>39.44</ele><time>2025-05-25T01:01:51Z</time></trkpt>
<trkpt lat="50.694755" lon="3.518379"><ele>40.0</ele><time>2025-05-25T01:01:54Z</time></trkpt>
<trkpt lat="50.694596" lon="3.518852"><ele>41.26</ele><time>2025-05-25T01:01:56Z</time></trkpt>
<trkpt lat="50.693425" lon="3.522493"><ele>41.0</ele><time>2025-05-25T01:01:59Z</time></trkpt>
<trkpt lat="50.693295" lon="3.52303"><ele>40.86</ele><time>2025-05-25T01:02:01Z</time></trkpt>
<trkpt lat="50.692442" lon="3.525289"><ele>40.54</ele><time>2025-05-25T01:02:04Z</time></trkpt>
<trkpt lat="50.692257" lon="3.525731"><ele>38.25</ele><time>2025-05-25T01:02:06Z</time></trkpt>
<trkpt lat="50.692172" lon="3.525894"><ele>38.22</ele><time>2025-05-25T01:02:09Z</time></trkpt>
<trkpt lat="50.691947" lon="3.526226"><ele>39.0</ele><time>2025-05-25T01:02:12Z</time></trkpt>
<trkpt lat="50.691834" lon="3.526361"><ele>38.6</ele><time>2025-05-25T01:02:14Z</time></trkpt>
<trkpt lat="50.691652" lon="3.526529"><ele>37.97</ele><time>2025-05-25T01:02:17Z</time></trkpt>
<trkpt lat="50.691489" lon="3.526644"><ele>37.94</ele><time>2025-05-25T01:02:19Z</time></trkpt>
<trkpt lat="50.69049" lon="3.527128"><ele>33.78</ele><time>2025-05-25T01:02:22Z</time></trkpt>
<trkpt lat="50.690228" lon="3.527285"><ele>31.87</ele><time>2025-05-25T01:02:24Z</time></trkpt>
<trkpt lat="50.690051" lon="3.527482"><ele>31.3</ele><time>2025-05-25T01:02:27Z</time></trkpt>
<trkpt lat="50.689901" lon="3.527765"><ele>32.57</ele><time>2025-05-25T01:02:29Z</time></trkpt>
<trkpt lat="50.689842" lon="3.527933"><ele>32.67</ele><time>2025-05-25T01:02:32Z</time></trkpt>
<trkpt lat="50.689709" lon="3.52854"><ele>33.0</ele><time>2025-05-25T01:02:35Z</time></trkpt>
<trkpt lat="50.689566" lon="3.529106"><ele>33.44</ele><time>2025-05-25T01:02:37Z</time></trkpt>
<trkpt lat="50.689492" lon="3.529334"><ele>33.77</ele><time>2025-05-25T01:02:40Z</time></trkpt>
<trkpt lat="50.689047" lon="3.530319"><ele>32.85</ele><time>2025-05-25T01:02:42Z</time></trkpt>
<trkpt lat="50.688957" lon="3.530557"><ele>32.0</ele><time>2025-05-25T01:02:45Z</time></trkpt>
<trkpt lat="50.688881" lon="3.530852"><ele>30.93</ele><time>2025-05-25T01:02:47Z</time></trkpt>
<trkpt lat="50.688568" lon="3.532529"><ele>31.31</ele><time>2025-05-25T01:02:50Z</time></trkpt>
<trkpt lat="50.688527" lon="3.532979"><ele>31.6</ele><time>2025-05-25T01:02:53Z</time></trkpt>
<trkpt lat="50.6885" lon="3.533813"><ele>30.68</ele><time>2025-05-25T01:02:55Z</time></trkpt>
<trkpt lat="50.688474" lon="3.533978"><ele>30.49</ele><time>2025-05-25T01:02:58Z</time></trkpt>
<trkpt lat="50.688379" lon="3.534248"><ele>30.54</ele><time>2025-05-25T01:03:00Z</time></trkpt>
<trkpt lat="50.688078" lon="3.534829"><ele>30.57</ele><time>2025-05-25T01:03:03Z</time></trkpt>
<trkpt lat="50.687748" lon="3.535521"><ele>29.12</ele><time>2025-05-25T01:03:05Z</time></trkpt>
<trkpt lat="50.687698" lon="3.535591"><ele>29.0</ele><time>2025-05-25T01:03:08Z</time></trkpt>
<trkpt lat="50.687569" lon="3.535654"><ele>29.0</ele><time>2025-05-25T01:03:10Z</time></trkpt>
<trkpt lat="50.687038" lon="3.535704"><ele>30.2</ele><time>2025-05-25T01:03:13Z</time></trkpt>
<trkpt lat="50.686858" lon="3.535745"><ele>31.0</ele><time>2025-05-25T01:03:16Z</time></trkpt>
<trkpt lat="50.686634" lon="3.53584"><ele>32.03</ele><time>2025-05-25T01:03:18Z</time></trkpt>
<trkpt lat="50.686542" lon="3.535918"><ele>32.3</ele><time>2025-05-25T01:03:21Z</time></trkpt>
<trkpt lat="50.686404" lon="3.536097"><ele>32.95</ele><time>2025-05-25T01:03:23Z</time></trkpt>
<trkpt lat="50.686196" lon="3.536527"><ele>32.31</ele><time>2025-05-25T01:03:26Z</time></trkpt>
<trkpt lat="50.685456" lon="3.538322"><ele>34.06</ele><time>2025-05-25T01:03:28Z</time></trkpt>
<trkpt lat="50.685299" lon="3.538846"><ele>35.76</ele><time>2025-05-25T01:03:31Z</time></trkpt>
<trkpt lat="50.68464" lon="3.541233"><ele>35.59</ele><time>2025-05-25T01:03:34Z</time></trkpt>
<trkpt lat="50.684509" lon="3.541615"><ele>36.1</ele><time>2025-05-25T01:03:36Z</time></trkpt>
<trkpt lat="50.68442" lon="3.541792"><ele>36.09</ele><time>2025-05-25T01:03:39Z</time></trkpt>
<trkpt lat="50.684279" lon="3.541998"><ele>36.67</ele><time>2025-05-25T01:03:41Z</time></trkpt>
<trkpt lat="50.683873" lon="3.542488"><ele>38.06</ele><time>2025-05-25T01:03:44Z</time></trkpt>
<trkpt lat="50.683674" lon="3.542793"><ele>38.77</ele><time>2025-05-25T01:03:46Z</time></trkpt>
<trkpt lat="50.680357" lon="3.540333"><ele>49.66</ele><time>2025-05-25T01:04:00Z</time></trkpt>
<trkpt lat="50.679975" lon="3.540001"><ele>52.0</ele><time>2025-05-25T01:04:15Z</time></trkpt>
<trkpt lat="50.679763" lon="3.539731"><ele>53.65</ele><time>2025-05-25T01:04:29Z</time></trkpt>
<trkpt lat="50.679606" lon="3.539475"><ele>55.72</ele><time>2025-05-25T01:04:43Z</time></trkpt>
<trkpt lat="50.678085" lon="3.536835"><ele>60.89</ele><time>2025-05-25T01:04:57Z</time></trkpt>
<trkpt lat="50.677928" lon="3.536597"><ele>61.32</ele><time>2025-05-25T01:05:11Z</time></trkpt>
<trkpt lat="50.677793" lon="3.536453"><ele>61.9</ele><time>2025-05-25T01:05:25Z</time></trkpt>
<trkpt lat="50.677673" lon="3.536398"><ele>62.36</ele><time>2025-05-25T01:05:33Z</time></trkpt>
<trkpt lat="50.677023" lon="3.536352"><ele>61.28</ele><time>2025-05-25T01:05:42Z</time></trkpt>
<trkpt lat="50.675159" lon="3.536163"><ele>55.57</ele><time>2025-05-25T01:05:51Z</time></trkpt>
<trkpt lat="50.674725" lon="3.53614"><ele>54.01</ele><time>2025-05-25T01:06:00Z</time></trkpt>
<trkpt lat="50.673366" lon="3.536585"><ele>51.59</ele><time>2025-05-25T01:06:08Z</time></trkpt>
<trkpt lat="50.673305" lon="3.536587"><ele>51.64</ele><time>2025-05-25T01:06:17Z</time></trkpt>
<trkpt lat="50.672685" lon="3.537533"><ele>50.88</ele><time>2025-05-25T01:06:22Z</time></trkpt>
<trkpt lat="50.672132" lon="3.538282"><ele>48.18</ele><time>2025-05-25T01:06:26Z</time></trkpt>
<trkpt lat="50.670773" lon="3.540273"><ele>40.0</ele><time>2025-05-25T01:06:31Z</time></trkpt>
<trkpt lat="50.670249" lon="3.540968"><ele>37.31</ele><time>2025-05-25T01:06:36Z</time></trkpt>
<trkpt lat="50.669784" lon="3.541512"><ele>33.34</ele><time>2025-05-25T01:06:40Z</time></trkpt>
<trkpt lat="50.668528" lon="3.542834"><ele>28.0</ele><time>2025-05-25T01:06:45Z</time></trkpt>
<trkpt lat="50.668233" lon="3.543027"><ele>28.32</ele><time>2025-05-25T01:06:50Z</time></trkpt>
<trkpt lat="50.667297" lon="3.543382"><ele>31.78</ele><time>2025-05-25T01:06:55Z</time></trkpt>
<trkpt lat="50.666734" lon="3.543576"><ele>31.24</ele><time>2025-05-25T01:06:59Z</time></trkpt>
<trkpt lat="50.666629" lon="3.543544"><ele>30.86</ele><time>2025-05-25T01:07:04Z</time></trkpt>
<trkpt lat="50.666968" lon="3.544112"><ele>32.08</ele><time>2025-05-25T01:07:07Z</time></trkpt>
<trkpt lat="50.666641" lon="3.545439"><ele>29.95</ele><time>2025-05-25T01:07:12Z</time></trkpt>
<trkpt lat="50.666466" lon="3.546341"><ele>28.56</ele><time>2025-05-25T01:07:17Z</time></trkpt>
<trkpt lat="50.666407" lon="3.546377"><ele>28.13</ele><time>2025-05-25T01:07:22Z</time></trkpt>
<trkpt lat="50.666331" lon="3.546638"><ele>28.0</ele><time>2025-05-25T01:07:27Z</time></trkpt>
<trkpt lat="50.666239" lon="3.54688"><ele>28.0</ele><time>2025-05-25T01:07:32Z</time></trkpt>
<trkpt lat="50.666017" lon="3.547259"><ele>29.47</ele><time>2025-05-25T01:07:37Z</time></trkpt>
<trkpt lat="50.663084" lon="3.550509"><ele>34.73</ele><time>2025-05-25T01:07:43Z</time></trkpt>
<trkpt lat="50.662369" lon="3.551447"><ele>36.1</ele><time>2025-05-25T01:07:48Z</time></trkpt>
<trkpt lat="50.660877" lon="3.553664"><ele>35.19</ele><time>2025-05-25T01:07:53Z</time></trkpt>
<trkpt lat="50.660692" lon="3.554046"><ele>35.49</ele><time>2025-05-25T01:07:58Z</time></trkpt>
<trkpt lat="50.660602" lon="3.554272"><ele>35.48</ele><time>2025-05-25T01:08:03Z</time></trkpt>
<trkpt lat="50.660449" lon="3.554791"><ele>36.13</ele><time>2025-05-25T01:08:08Z</time></trkpt>
<trkpt lat="50.659896" lon="3.557354"><ele>38.62</ele><time>2025-05-25T01:08:13Z</time></trkpt>
<trkpt lat="50.659741" lon="3.557917"><ele>39.57</ele><time>2025-05-25T01:08:18Z</time></trkpt>
<trkpt lat="50.659543" lon="3.558404"><ele>41.61</ele><time>2025-05-25T01:08:23Z</time></trkpt>
<trkpt lat="50.659302" lon="3.558816"><ele>42.22</ele><time>2025-05-25T01:08:29Z</time></trkpt>
<trkpt lat="50.659161" lon="3.55901"><ele>42.0</ele><time>2025-05-25T01:08:34Z</time></trkpt>
<trkpt lat="50.658725" lon="3.559494"><ele>43.0</ele><time>2025-05-25T01:08:39Z</time></trkpt>
<trkpt lat="50.65704" lon="3.561311"><ele>48.65</ele><time>2025-05-25T01:08:44Z</time></trkpt>
<trkpt lat="50.656102" lon="3.562163"><ele>45.78</ele><time>2025-05-25T01:08:49Z</time></trkpt>
<trkpt lat="50.655971" lon="3.562306"><ele>46.6</ele><time>2025-05-25T01:08:54Z</time></trkpt>
<trkpt lat="50.654459" lon="3.563952"><ele>45.0</ele><time>2025-05-25T01:08:59Z</time></trkpt>
<trkpt lat="50.6541" lon="3.564457"><ele>47.24</ele><time>2025-05-25T01:09:04Z</time></trkpt>
<trkpt lat="50.653852" lon="3.564845"><ele>47.92</ele><time>2025-05-25T01:09:09Z</time></trkpt>
<trkpt lat="50.653815" lon="3.565007"><ele>48.0</ele><time>2025-05-25T01:09:14Z</time></trkpt>
<trkpt lat="50.654075" lon="3.56804"><ele>53.67</ele><time>2025-05-25T01:09:57Z</time></trkpt>
<trkpt lat="50.65564" lon="3.586065"><ele>49.92</ele><time>2025-05-25T01:10:39Z</time></trkpt>
<trkpt lat="50.656099" lon="3.591511"><ele>50.49</ele><time>2025-05-25T01:11:21Z</time></trkpt>
<trkpt lat="50.655315" lon="3.592128"><ele>54.44</ele><time>2025-05-25T01:11:31Z</time></trkpt>
<trkpt lat="50.654038" lon="3.592563"><ele>59.69</ele><time>2025-05-25T01:11:42Z</time></trkpt>
<trkpt lat="50.65324" lon="3.592996"><ele>57.0</ele><time>2025-05-25T01:11:52Z</time></trkpt>
<trkpt lat="50.652857" lon="3.593228"><ele>56.38</ele><time>2025-05-25T01:12:03Z</time></trkpt>
<trkpt lat="50.652732" lon="3.593264"><ele>56.13</ele><time>2025-05-25T01:12:13Z</time></trkpt>
<trkpt lat="50.652576" lon="3.593248"><ele>55.8</ele><time>2025-05-25T01:12:23Z</time></trkpt>
<trkpt lat="50.651259" lon="3.593605"><ele>50.53</ele><time>2025-05-25T01:12:34Z</time></trkpt>
<trkpt lat="50.651652" lon="3.597188"><ele>49.99</ele><time>2025-05-25T01:12:41Z</time></trkpt>
<trkpt lat="50.651703" lon="3.597598"><ele>49.65</ele><time>2025-05-25T01:12:48Z</time></trkpt>
<trkpt lat="50.651962" lon="3.600288"><ele>48.16</ele><time>2025-05-25T01:12:55Z</time></trkpt>
<trkpt lat="50.651982" lon="3.600783"><ele>49.13</ele><time>2025-05-25T01:13:03Z</time></trkpt>
<trkpt lat="50.651976" lon="3.600921"><ele>49.11</ele><time>2025-05-25T01:13:10Z</time></trkpt>
<trkpt lat="50.651854" lon="3.601842"><ele>47.04</ele><time>2025-05-25T01:13:17Z</time></trkpt>
<trkpt lat="50.651836" lon="3.602112"><ele>46.01</ele><time>2025-05-25T01:13:24Z</time></trkpt>
<trkpt lat="50.651848" lon="3.602424"><ele>45.65</ele><time>2025-05-25T01:13:31Z</time></trkpt>
<trkpt lat="50.651885" lon="3.602723"><ele>45.61</ele><time>2025-05-25T01:13:39Z</time></trkpt>
<trkpt lat="50.652007" lon="3.60349"><ele>45.23</ele><time>2025-05-25T01:13:46Z</time></trkpt>
<trkpt lat="50.652183" lon="3.604436"><ele>42.06</ele><time>2025-05-25T01:13:53Z</time></trkpt>
<trkpt lat="50.652599" lon="3.605923"><ele>41.03</ele><time>2025-05-25T01:14:00Z</time></trkpt>
<trkpt lat="50.652851" lon="3.606645"><ele>40.34</ele><time>2025-05-25T01:14:07Z</time></trkpt>
<trkpt lat="50.652928" lon="3.606942"><ele>40.0</ele><time>2025-05-25T01:14:15Z</time></trkpt>
<trkpt lat="50.652449" lon="3.608185"><ele>37.0</ele><time>2025-05-25T01:14:24Z</time></trkpt>
<trkpt lat="50.651965" lon="3.609246"><ele>38.0</ele><time>2025-05-25T01:14:33Z</time></trkpt>
<trkpt lat="50.651087" lon="3.61081"><ele>37.0</ele><time>2025-05-25T01:14:42Z</time></trkpt>
<trkpt lat="50.65081" lon="3.611461"><ele>36.68</ele><time>2025-05-25T01:14:51Z</time></trkpt>
<trkpt lat="50.650688" lon="3.611672"><ele>36.0</ele><time>2025-05-25T01:15:00Z</time></trkpt>
<trkpt lat="50.650613" lon="3.611753"><ele>36.0</ele><time>2025-05-25T01:15:09Z</time></trkpt>
<trkpt lat="50.649463" lon="3.612596"><ele>39.57</ele><time>2025-05-25T01:15:18Z</time></trkpt>
<trkpt lat="50.648398" lon="3.613333"><ele>44.76</ele><time>2025-05-25T01:15:27Z</time></trkpt>
<trkpt lat="50.65032" lon="3.617238"><ele>36.06</ele><time>2025-05-25T01:15:31Z</time></trkpt>
<trkpt lat="50.650459" lon="3.617478"><ele>36.92</ele><time>2025-05-25T01:15:36Z</time></trkpt>
<trkpt lat="50.650814" lon="3.617948"><ele>41.51</ele><time>2025-05-25T01:15:41Z</time></trkpt>
<trkpt lat="50.651239" lon="3.618477"><ele>44.98</ele><time>2025-05-25T01:15:46Z</time></trkpt>
<trkpt lat="50.651455" lon="3.618833"><ele>46.8</ele><time>2025-05-25T01:15:50Z</time></trkpt>
<trkpt lat="50.651532" lon="3.619071"><ele>47.0</ele><time>2025-05-25T01:15:55Z</time></trkpt>
<trkpt lat="50.651791" lon="3.620093"><ele>48.45</ele><time>2025-05-25T01:16:00Z</time></trkpt>
<trkpt lat="50.651967" lon="3.620748"><ele>49.16</ele><time>2025-05-25T01:16:05Z</time></trkpt>
<trkpt lat="50.651901" lon="3.620829"><ele>49.0</ele><time>2025-05-25T01:16:11Z</time></trkpt>
<trkpt lat="50.651812" lon="3.620999"><ele>49.6</ele><time>2025-05-25T01:16:17Z</time></trkpt>
<trkpt lat="50.651468" lon="3.621427"><ele>51.39</ele><time>2025-05-25T01:16:23Z</time></trkpt>
<trkpt lat="50.650526" lon="3.622518"><ele>52.33</ele><time>2025-05-25T01:16:30Z</time></trkpt>
<trkpt lat="50.649892" lon="3.6231"><ele>54.61</ele><time>2025-05-25T01:16:36Z</time></trkpt>
<trkpt lat="50.649688" lon="3.623261"><ele>54.0</ele><time>2025-05-25T01:16:42Z</time></trkpt>
<trkpt lat="50.649119" lon="3.623608"><ele>54.0</ele><time>2025-05-25T01:16:49Z</time></trkpt>
<trkpt lat="50.646903" lon="3.624856"><ele>55.07</ele><time>2025-05-25T01:16:55Z</time></trkpt>
<trkpt lat="50.646024" lon="3.625411"><ele>55.21</ele><time>2025-05-25T01:17:01Z</time></trkpt>
<trkpt lat="50.644476" lon="3.626546"><ele>56.0</ele><time>2025-05-25T01:17:07Z</time></trkpt>
<trkpt lat="50.640646" lon="3.629465"><ele>51.47</ele><time>2025-05-25T01:17:14Z</time></trkpt>
<trkpt lat="50.640355" lon="3.62971"><ele>56.1</ele><time>2025-05-25T01:17:20Z</time></trkpt>
<trkpt lat="50.640277" lon="3.629799"><ele>57.57</ele><time>2025-05-25T01:17:26Z</time></trkpt>
<trkpt lat="50.639171" lon="3.631493"><ele>73.79</ele><time>2025-05-25T01:17:33Z</time></trkpt>
<trkpt lat="50.639098" lon="3.631579"><ele>74.03</ele><time>2025-05-25T01:17:39Z</time></trkpt>
<trkpt lat="50.638956" lon="3.631636"><ele>73.43</ele><time>2025-05-25T01:17:45Z</time></trkpt>
<trkpt lat="50.638793" lon="3.631622"><ele>72.71</ele><time>2025-05-25T01:17:52Z</time></trkpt>
<trkpt lat="50.638609" lon="3.631501"><ele>72.57</ele><time>2025-05-25T01:17:58Z</time></trkpt>
<trkpt lat="50.636888" lon="3.629785"><ele>74.12</ele><time>2025-05-25T01:18:04Z</time></trkpt>
<trkpt lat="50.636159" lon="3.6291"><ele>70.03</ele><time>2025-05-25T01:18:10Z</time></trkpt>
<trkpt lat="50.635657" lon="3.628562"><ele>62.94</ele><time>2025-05-25T01:18:17Z</time></trkpt>
<trkpt lat="50.635368" lon="3.628375"><ele>62.32</ele><time>2025-05-25T01:18:23Z</time></trkpt>
<trkpt lat="50.635228" lon="3.62835"><ele>61.82</ele><time>2025-05-25T01:18:29Z</time></trkpt>
<trkpt lat="50.635011" lon="3.62837"><ele>61.04</ele><time>2025-05-25T01:18:36Z</time></trkpt>
<trkpt lat="50.6292" lon="3.630152"><ele>56.78</ele><time>2025-05-25T01:18:42Z</time></trkpt>
<trkpt lat="50.62796" lon="3.6305"><ele>53.85</ele><time>2025-05-25T01:18:48Z</time></trkpt>
<trkpt lat="50.62554" lon="3.631246"><ele>50.0</ele><time>2025-05-25T01:18:54Z</time></trkpt>
<trkpt lat="50.625272" lon="3.631309"><ele>50.0</ele><time>2025-05-25T01:19:01Z</time></trkpt>
<trkpt lat="50.622978" lon="3.632012"><ele>52.28</ele><time>2025-05-25T01:19:07Z</time></trkpt>
<trkpt lat="50.622863" lon="3.632518"><ele>52.71</ele><time>2025-05-25T01:19:11Z</time></trkpt>
<trkpt lat="50.622796" lon="3.632677"><ele>52.98</ele><time>2025-05-25T01:19:16Z</time></trkpt>
<trkpt lat="50.62274" lon="3.632759"><ele>53.0</ele><time>2025-05-25T01:19:20Z</time></trkpt>
<trkpt lat="50.622108" lon="3.633745"><ele>55.48</ele><time>2025-05-25T01:19:25Z</time></trkpt>
<trkpt lat="50.621843" lon="3.634243"><ele>57.27</ele><time>2025-05-25T01:19:29Z</time></trkpt>
<trkpt lat="50.621281" lon="3.635555"><ele>64.61</ele><time>2025-05-25T01:19:33Z</time></trkpt>
<trkpt lat="50.621131" lon="3.635985"><ele>66.12</ele><time>2025-05-25T01:19:38Z</time></trkpt>
<trkpt lat="50.620686" lon="3.637454"><ele>70.44</ele><time>2025-05-25T01:19:42Z</time></trkpt>
<trkpt lat="50.620465" lon="3.637827"><ele>72.65</ele><time>2025-05-25T01:19:46Z</time></trkpt>
<trkpt lat="50.619747" lon="3.638905"><ele>72.94</ele><time>2025-05-25T01:19:51Z</time></trkpt>
<trkpt lat="50.618901" lon="3.640214"><ele>68.0</ele><time>2025-05-25T01:19:55Z</time></trkpt>
<trkpt lat="50.618681" lon="3.640586"><ele>67.75</ele><time>2025-05-25T01:20:00Z</time></trkpt>
<trkpt lat="50.616953" lon="3.643651"><ele>66.08</ele><time>2025-05-25T01:20:04Z</time></trkpt>
<trkpt lat="50.61608" lon="3.645254"><ele>65.3</ele><time>2025-05-25T01:20:08Z</time></trkpt>
<trkpt lat="50.614841" lon="3.648143"><ele>63.26</ele><time>2025-05-25T01:20:13Z</time></trkpt>
<trkpt lat="50.61416" lon="3.649532"><ele>56.69</ele><time>2025-05-25T01:20:17Z</time></trkpt>
<trkpt lat="50.613973" lon="3.64988"><ele>55.43</ele><time>2025-05-25T01:20:21Z</time></trkpt>
<trkpt lat="50.612741" lon="3.651884"><ele>49.06</ele><time>2025-05-25T01:20:26Z</time></trkpt>
<trkpt lat="50.612567" lon="3.652129"><ele>47.58</ele><time>2025-05-25T01:20:30Z</time></trkpt>
<trkpt lat="50.61236" lon="3.652347"><ele>47.0</ele><time>2025-05-25T01:20:35Z</time></trkpt>
<trkpt lat="50.612135" lon="3.652549"><ele>47.31</ele><time>2025-05-25T01:20:39Z</time></trkpt>
<trkpt lat="50.611573" lon="3.653005"><ele>47.0</ele><time>2025-05-25T01:20:43Z</time></trkpt>
<trkpt lat="50.611303" lon="3.653148"><ele>46.67</ele><time>2025-05-25T01:20:48Z</time></trkpt>
<trkpt lat="50.608351" lon="3.654082"><ele>44.28</ele><time>2025-05-25T01:20:52Z</time></trkpt>
<trkpt lat="50.608143" lon="3.654199"><ele>43.88</ele><time>2025-05-25T01:20:56Z</time></trkpt>
<trkpt lat="50.608023" lon="3.654296"><ele>43.41</ele><time>2025-05-25T01:21:01Z</time></trkpt>
<trkpt lat="50.607828" lon="3.654495"><ele>43.15</ele><time>2025-05-25T01:21:05Z</time></trkpt>
<trkpt lat="50.607179" lon="3.655263"><ele>45.94</ele><time>2025-05-25T01:21:10Z</time></trkpt>
<trkpt lat="50.606965" lon="3.655419"><ele>46.51</ele><time>2025-05-25T01:21:14Z</time></trkpt>
<trkpt lat="50.60683" lon="3.655474"><ele>47.12</ele><time>2025-05-25T01:21:18Z</time></trkpt>
<trkpt lat="50.605773" lon="3.655715"><ele>52.0</ele><time>2025-05-25T01:21:23Z</time></trkpt>
<trkpt lat="50.605375" lon="3.655809"><ele>51.35</ele><time>2025-05-25T01:21:27Z</time></trkpt>
<trkpt lat="50.605113" lon="3.655837"><ele>50.42</ele><time>2025-05-25T01:21:31Z</time></trkpt>
<trkpt lat="50.603532" lon="3.655772"><ele>49.0</ele><time>2025-05-25T01:21:36Z</time></trkpt>
<trkpt lat="50.603026" lon="3.655816"><ele>50.1</ele><time>2025-05-25T01:21:40Z</time></trkpt>
<trkpt lat="50.600573" lon="3.656465"><ele>56.72</ele><time>2025-05-25T01:21:45Z</time></trkpt>
<trkpt lat="50.600302" lon="3.656603"><ele>57.85</ele><time>2025-05-25T01:21:49Z</time></trkpt>
<trkpt lat="50.599955" lon="3.656859"><ele>58.89</ele><time>2025-05-25T01:21:53Z</time></trkpt>
<trkpt lat="50.599605" lon="3.657272"><ele>57.42</ele><time>2025-05-25T01:21:58Z</time></trkpt>
<trkpt lat="50.597489" lon="3.660418"><ele>55.02</ele><time>2025-05-25T01:22:02Z</time></trkpt>
<trkpt lat="50.597327" lon="3.660718"><ele>55.62</ele><time>2025-05-25T01:22:06Z</time></trkpt>
<trkpt lat="50.597191" lon="3.661091"><ele>55.06</ele><time>2025-05-25T01:22:11Z</time></trkpt>
<trkpt lat="50.597075" lon="3.661529"><ele>54.73</ele><time>2025-05-25T01:22:15Z</time></trkpt>
<trkpt lat="50.597018" lon="3.661894"><ele>54.26</ele><time>2025-05-25T01:22:20Z</time></trkpt>
<trkpt lat="50.596653" lon="3.666114"><ele>51.0</ele><time>2025-05-25T01:22:24Z</time></trkpt>
<trkpt lat="50.596644" lon="3.666529"><ele>51.47</ele><time>2025-05-25T01:22:28Z</time></trkpt>
<trkpt lat="50.596679" lon="3.667348"><ele>51.95</ele><time>2025-05-25T01:22:33Z</time></trkpt>
<trkpt lat="50.596662" lon="3.668468"><ele>47.98</ele><time>2025-05-25T01:22:37Z</time></trkpt>
<trkpt lat="50.596663" lon="3.6699"><ele>47.99</ele><time>2025-05-25T01:22:41Z</time></trkpt>
<trkpt lat="50.596661" lon="3.670307"><ele>47.87</ele><time>2025-05-25T01:22:46Z</time></trkpt>
<trkpt lat="50.596623" lon="3.670631"><ele>46.84</ele><time>2025-05-25T01:22:50Z</time></trkpt>
<trkpt lat="50.595567" lon="3.672208"><ele>45.04</ele><time>2025-05-25T01:22:55Z</time></trkpt>
<trkpt lat="50.595448" lon="3.672442"><ele>45.4</ele><time>2025-05-25T01:22:59Z</time></trkpt>
<trkpt lat="50.595338" lon="3.672724"><ele>46.19</ele><time>2025-05-25T01:23:03Z</time></trkpt>
<trkpt lat="50.595238" lon="3.673213"><ele>47.76</ele><time>2025-05-25T01:23:08Z</time></trkpt>
<trkpt lat="50.595193" lon="3.673626"><ele>48.83</ele><time>2025-05-25T01:23:12Z</time></trkpt>
<trkpt lat="50.595341" lon="3.676694"><ele>54.35</ele><time>2025-05-25T01:23:16Z</time></trkpt>
<trkpt lat="50.595338" lon="3.676997"><ele>53.2</ele><time>2025-05-25T01:23:21Z</time></trkpt>
<trkpt lat="50.595244" lon="3.677504"><ele>50.86</ele><time>2025-05-25T01:23:25Z</time></trkpt>
<trkpt lat="50.594954" lon="3.678596"><ele>47.5</ele><time>2025-05-25T01:23:30Z</time></trkpt>
<trkpt lat="50.594722" lon="3.679087"><ele>44.0</ele><time>2025-05-25T01:23:34Z</time></trkpt>
<trkpt lat="50.594521" lon="3.679409"><ele>44.24</ele><time>2025-05-25T01:23:38Z</time></trkpt>
<trkpt lat="50.594205" lon="3.680004"><ele>45.01</ele><time>2025-05-25T01:23:43Z</time></trkpt>
<trkpt lat="50.593428" lon="3.681399"><ele>47.66</ele><time>2025-05-25T01:23:47Z</time></trkpt>
<trkpt lat="50.593217" lon="3.68173"><ele>48.0</ele><time>2025-05-25T01:23:52Z</time></trkpt>
<trkpt lat="50.59289" lon="3.682185"><ele>48.51</ele><time>2025-05-25T01:23:56Z</time></trkpt>
<trkpt lat="50.592534" lon="3.682636"><ele>48.51</ele><time>2025-05-25T01:24:00Z</time></trkpt>
<trkpt lat="50.592204" lon="3.683128"><ele>47.69</ele><time>2025-05-25T01:24:05Z</time></trkpt>
<trkpt lat="50.59189" lon="3.683728"><ele>46.89</ele><time>2025-05-25T01:24:09Z</time></trkpt>
<trkpt lat="50.591511" lon="3.684653"><ele>47.44</ele><time>2025-05-25T01:24:13Z</time></trkpt>
<trkpt lat="50.591232" lon="3.685278"><ele>47.56</ele><time>2025-05-25T01:24:18Z</time></trkpt>
<trkpt lat="50.590587" lon="3.685765"><ele>47.11</ele><time>2025-05-25T01:24:22Z</time></trkpt>
<trkpt lat="50.590431" lon="3.685984"><ele>47.75</ele><time>2025-05-25T01:24:27Z</time></trkpt>
<trkpt lat="50.590329" lon="3.686247"><ele>48.0</ele><time>2025-05-25T01:24:31Z</time></trkpt>
<trkpt lat="50.590253" lon="3.686569"><ele>48.68</ele><time>2025-05-25T01:24:35Z</time></trkpt>
<trkpt lat="50.590236" lon="3.686701"><ele>49.0</ele><time>2025-05-25T01:24:40Z</time></trkpt>
<trkpt lat="50.588087" lon="3.686366"><ele>49.0</ele><time>2025-05-25T01:24:46Z</time></trkpt>
<trkpt lat="50.587606" lon="3.686323"><ele>48.38</ele><time>2025-05-25T01:24:52Z</time></trkpt>
<trkpt lat="50.587508" lon="3.686361"><ele>48.03</ele><time>2025-05-25T01:24:58Z</time></trkpt>
<trkpt lat="50.587468" lon="3.686515"><ele>48.0</ele><time>2025-05-25T01:25:05Z</time></trkpt>
<trkpt lat="50.587368" lon="3.6874"><ele>49.0</ele><time>2025-05-25T01:25:11Z</time></trkpt>
<trkpt lat="50.587179" lon="3.691642"><ele>51.99</ele><time>2025-05-25T01:25:18Z</time></trkpt>
<trkpt lat="50.588905" lon="3.691867"><ele>48.74</ele><time>2025-05-25T01:25:24Z</time></trkpt>
<trkpt lat="50.589418" lon="3.691979"><ele>49.0</ele><time>2025-05-25T01:25:30Z</time></trkpt>
<trkpt lat="50.589411" lon="3.692196"><ele>49.0</ele><time>2025-05-25T01:25:35Z</time></trkpt>
<trkpt lat="50.589446" lon="3.692299"><ele>49.0</ele><time>2025-05-25T01:25:40Z</time></trkpt>
<trkpt lat="50.590136" lon="3.693625"><ele>50.05</ele><time>2025-05-25T01:25:45Z</time></trkpt>
<trkpt lat="50.590758" lon="3.695066"><ele>49.73</ele><time>2025-05-25T01:25:49Z</time></trkpt>
<trkpt lat="50.591462" lon="3.696361"><ele>51.0</ele><time>2025-05-25T01:25:54Z</time></trkpt>
<trkpt lat="50.591654" lon="3.696626"><ele>50.15</ele><time>2025-05-25T01:25:59Z</time></trkpt>
<trkpt lat="50.591833" lon="3.696833"><ele>49.4</ele><time>2025-05-25T01:26:04Z</time></trkpt>
<trkpt lat="50.593368" lon="3.698371"><ele>49.0</ele><time>2025-05-25T01:26:08Z</time></trkpt>
<trkpt lat="50.593656" lon="3.698738"><ele>49.07</ele><time>2025-05-25T01:26:13Z</time></trkpt>
<trkpt lat="50.593886" lon="3.699149"><ele>49.06</ele><time>2025-05-25T01:26:18Z</time></trkpt>
<trkpt lat="50.595181" lon="3.701976"><ele>46.58</ele><time>2025-05-25T01:26:22Z</time></trkpt>
<trkpt lat="50.595556" lon="3.702939"><ele>46.0</ele><time>2025-05-25T01:26:27Z</time></trkpt>
<trkpt lat="50.59572" lon="3.703296"><ele>46.0</ele><time>2025-05-25T01:26:32Z</time></trkpt>
<trkpt lat="50.596903" lon="3.705425"><ele>44.32</ele><time>2025-05-25T01:26:37Z</time></trkpt>
<trkpt lat="50.596765" lon="3.70547"><ele>43.66</ele><time>2025-05-25T01:26:40Z</time></trkpt>
<trkpt lat="50.596705" lon="3.705525"><ele>43.25</ele><time>2025-05-25T01:26:44Z</time></trkpt>
<trkpt lat="50.596646" lon="3.705612"><ele>43.0</ele><time>2025-05-25T01:26:47Z</time></trkpt>
<trkpt lat="50.596596" lon="3.705744"><ele>43.0</ele><time>2025-05-25T01:26:51Z</time></trkpt>
<trkpt lat="50.596568" lon="3.705934"><ele>43.13</ele><time>2025-05-25T01:26:54Z</time></trkpt>
<trkpt lat="50.596362" lon="3.708131"><ele>43.0</ele><time>2025-05-25T01:26:58Z</time></trkpt>
<trkpt lat="50.596302" lon="3.708362"><ele>43.0</ele><time>2025-05-25T01:27:01Z</time></trkpt>
<trkpt lat="50.59625" lon="3.708499"><ele>43.0</ele><time>2025-05-25T01:27:05Z</time></trkpt>
<trkpt lat="50.596173" lon="3.708653"><ele>43.15</ele><time>2025-05-25T01:27:08Z</time></trkpt>
<trkpt lat="50.594047" lon="3.711932"><ele>43.43</ele><time>2025-05-25T01:27:12Z</time></trkpt>
<trkpt lat="50.593556" lon="3.712471"><ele>44.2</ele><time>2025-05-25T01:27:15Z</time></trkpt>
<trkpt lat="50.593524" lon="3.712536"><ele>44.18</ele><time>2025-05-25T01:27:19Z</time></trkpt>
<trkpt lat="50.593502" lon="3.712747"><ele>43.5</ele><time>2025-05-25T01:27:23Z</time></trkpt>
<trkpt lat="50.5935" lon="3.713926"><ele>42.6</ele><time>2025-05-25T01:27:26Z</time></trkpt>
<trkpt lat="50.593442" lon="3.714697"><ele>42.39</ele><time>2025-05-25T01:27:30Z</time></trkpt>
<trkpt lat="50.593402" lon="3.71567"><ele>45.31</ele><time>2025-05-25T01:27:33Z</time></trkpt>
<trkpt lat="50.593341" lon="3.716084"><ele>46.87</ele><time>2025-05-25T01:27:37Z</time></trkpt>
<trkpt lat="50.593299" lon="3.716218"><ele>47.12</ele><time>2025-05-25T01:27:40Z</time></trkpt>
<trkpt lat="50.59216" lon="3.719019"><ele>52.77</ele><time>2025-05-25T01:27:44Z</time></trkpt>
<trkpt lat="50.592072" lon="3.719393"><ele>52.9</ele><time>2025-05-25T01:27:47Z</time></trkpt>
<trkpt lat="50.592051" lon="3.719674"><ele>53.0</ele><time>2025-05-25T01:27:51Z</time></trkpt>
<trkpt lat="50.592055" lon="3.719836"><ele>53.0</ele><time>2025-05-25T01:27:54Z</time></trkpt>
<trkpt lat="50.592148" lon="3.720859"><ele>53.76</ele><time>2025-05-25T01:27:58Z</time></trkpt>
<trkpt lat="50.592145" lon="3.721202"><ele>54.0</ele><time>2025-05-25T01:28:01Z</time></trkpt>
<trkpt lat="50.592112" lon="3.721737"><ele>53.6</ele><time>2025-05-25T01:28:05Z</time></trkpt>
<trkpt lat="50.592101" lon="3.722189"><ele>52.68</ele><time>2025-05-25T01:28:08Z</time></trkpt>
<trkpt lat="50.59213" lon="3.722744"><ele>52.38</ele><time>2025-05-25T01:28:12Z</time></trkpt>
<trkpt lat="50.592212" lon="3.723284"><ele>52.96</ele><time>2025-05-25T01:28:15Z</time></trkpt>
<trkpt lat="50.592312" lon="3.723701"><ele>53.22</ele><time>2025-05-25T01:28:19Z</time></trkpt>
<trkpt lat="50.593052" lon="3.726074"><ele>54.13</ele><time>2025-05-25T01:28:23Z</time></trkpt>
<trkpt lat="50.593334" lon="3.727056"><ele>55.4</ele><time>2025-05-25T01:28:26Z</time></trkpt>
<trkpt lat="50.593389" lon="3.727418"><ele>56.2</ele><time>2025-05-25T01:28:30Z</time></trkpt>
<trkpt lat="50.5934" lon="3.727633"><ele>56.24</ele><time>2025-05-25T01:28:33Z</time></trkpt>
<trkpt lat="50.593407" lon="3.727812"><ele>56.26</ele><time>2025-05-25T01:28:37Z</time></trkpt>
<trkpt lat="50.593385" lon="3.728082"><ele>56.09</ele><time>2025-05-25T01:28:40Z</time></trkpt>
<trkpt lat="50.59331" lon="3.729477"><ele>55.92</ele><time>2025-05-25T01:28:44Z</time></trkpt>
<trkpt lat="50.593296" lon="3.730579"><ele>56.86</ele><time>2025-05-25T01:28:47Z</time></trkpt>
<trkpt lat="50.59331" lon="3.731685"><ele>57.92</ele><time>2025-05-25T01:28:51Z</time></trkpt>
<trkpt lat="50.593422" lon="3.736386"><ele>58.96</ele><time>2025-05-25T01:28:54Z</time></trkpt>
<trkpt lat="50.593184" lon="3.737312"><ele>60.1</ele><time>2025-05-25T01:28:58Z</time></trkpt>
<trkpt lat="50.592959" lon="3.73861"><ele>60.0</ele><time>2025-05-25T01:29:01Z</time></trkpt>
<trkpt lat="50.592945" lon="3.738889"><ele>60.0</ele><time>2025-05-25T01:29:05Z</time></trkpt>
<trkpt lat="50.593081" lon="3.73955"><ele>59.0</ele><time>2025-05-25T01:29:08Z</time></trkpt>
<trkpt lat="50.593057" lon="3.739855"><ele>58.99</ele><time>2025-05-25T01:29:12Z</time></trkpt>
<trkpt lat="50.59303" lon="3.739975"><ele>59.09</ele><time>2025-05-25T01:29:15Z</time></trkpt>
<trkpt lat="50.592621" lon="3.741177"><ele>58.13</ele><time>2025-05-25T01:29:19Z</time></trkpt>
<trkpt lat="50.592399" lon="3.741883"><ele>58.0</ele><time>2025-05-25T01:29:22Z</time></trkpt>
<trkpt lat="50.591816" lon="3.743896"><ele>56.0</ele><time>2025-05-25T01:29:26Z</time></trkpt>
<trkpt lat="50.591775" lon="3.74432"><ele>55.88</ele><time>2025-05-25T01:29:30Z</time></trkpt>
<trkpt lat="50.591752" lon="3.745298"><ele>56.05</ele><time>2025-05-25T01:29:33Z</time></trkpt>
<trkpt lat="50.591719" lon="3.74556"><ele>56.81</ele><time>2025-05-25T01:29:37Z</time></trkpt>
<trkpt lat="50.59146" lon="3.746781"><ele>57.15</ele><time>2025-05-25T01:29:40Z</time></trkpt>
<trkpt lat="50.591428" lon="3.747041"><ele>58.56</ele><time>2025-05-25T01:29:44Z</time></trkpt>
<trkpt lat="50.591447" lon="3.747346"><ele>59.79</ele><time>2025-05-25T01:29:47Z</time></trkpt>
<trkpt lat="50.591476" lon="3.74746"><ele>59.69</ele><time>2025-05-25T01:29:51Z</time></trkpt>
<trkpt lat="50.591534" lon="3.747587"><ele>59.79</ele><time>2025-05-25T01:29:54Z</time></trkpt>
<trkpt lat="50.591609" lon="3.747682"><ele>59.86</ele><time>2025-05-25T01:29:58Z</time></trkpt>
<trkpt lat="50.593067" lon="3.748908"><ele>60.03</ele><time>2025-05-25T01:30:01Z</time></trkpt>
<trkpt lat="50.593259" lon="3.749096"><ele>60.01</ele><time>2025-05-25T01:30:05Z</time></trkpt>
<trkpt lat="50.593414" lon="3.749285"><ele>60.85</ele><time>2025-05-25T01:30:08Z</time></trkpt>
<trkpt lat="50.594106" lon="3.750369"><ele>61.96</ele><time>2025-05-25T01:30:12Z</time></trkpt>
<trkpt lat="50.594624" lon="3.751078"><ele>60.59</ele><time>2025-05-25T01:30:15Z</time></trkpt>
<trkpt lat="50.594275" lon="3.751826"><ele>64.61</ele><time>2025-05-25T01:30:23Z</time></trkpt>
<trkpt lat="50.593573" lon="3.753336"><ele>61.0</ele><time>2025-05-25T01:30:30Z</time></trkpt>
<trkpt lat="50.593366" lon="3.753818"><ele>61.0</ele><time>2025-05-25T01:30:37Z</time></trkpt>
<trkpt lat="50.593395" lon="3.754276"><ele>60.61</ele><time>2025-05-25T01:30:43Z</time></trkpt>
<trkpt lat="50.593373" lon="3.754535"><ele>60.0</ele><time>2025-05-25T01:30:48Z</time></trkpt>
<trkpt lat="50.592973" lon="3.75558"><ele>59.3</ele><time>2025-05-25T01:30:54Z</time></trkpt>
<trkpt lat="50.592821" lon="3.756147"><ele>59.73</ele><time>2025-05-25T01:30:59Z</time></trkpt>
<trkpt lat="50.592343" lon="3.75825"><ele>54.7</ele><time>2025-05-25T01:31:05Z</time></trkpt>
<trkpt lat="50.592296" lon="3.758638"><ele>56.1</ele><time>2025-05-25T01:31:10Z</time></trkpt>
<trkpt lat="50.592355" lon="3.759043"><ele>56.73</ele><time>2025-05-25T01:31:16Z</time></trkpt>
<trkpt lat="50.592377" lon="3.759405"><ele>55.59</ele><time>2025-05-25T01:31:21Z</time></trkpt>
<trkpt lat="50.592385" lon="3.761026"><ele>54.41</ele><time>2025-05-25T01:31:27Z</time></trkpt>
<trkpt lat="50.59233" lon="3.762303"><ele>55.0</ele><time>2025-05-25T01:31:32Z</time></trkpt>
<trkpt lat="50.59237" lon="3.762873"><ele>55.0</ele><time>2025-05-25T01:31:38Z</time></trkpt>
<trkpt lat="50.592536" lon="3.763927"><ele>52.87</ele><time>2025-05-25T01:31:43Z</time></trkpt>
<trkpt lat="50.592566" lon="3.764337"><ele>53.38</ele><time>2025-05-25T01:31:49Z</time></trkpt>
<trkpt lat="50.592551" lon="3.764756"><ele>54.76</ele><time>2025-05-25T01:31:54Z</time></trkpt>
<trkpt lat="50.592351" lon="3.766699"><ele>57.61</ele><time>2025-05-25T01:32:00Z</time></trkpt>
<trkpt lat="50.591642" lon="3.773369"><ele>63.0</ele><time>2025-05-25T01:32:05Z</time></trkpt>
<trkpt lat="50.591531" lon="3.774135"><ele>62.0</ele><time>2025-05-25T01:32:11Z</time></trkpt>
<trkpt lat="50.591246" lon="3.776391"><ele>59.01</ele><time>2025-05-25T01:32:16Z</time></trkpt>
<trkpt lat="50.591149" lon="3.776909"><ele>60.0</ele><time>2025-05-25T01:32:22Z</time></trkpt>
<trkpt lat="50.590973" lon="3.777655"><ele>59.22</ele><time>2025-05-25T01:32:27Z</time></trkpt>
<trkpt lat="50.590144" lon="3.78094"><ele>54.33</ele><time>2025-05-25T01:32:33Z</time></trkpt>
<trkpt lat="50.589935" lon="3.781659"><ele>50.05</ele><time>2025-05-25T01:32:38Z</time></trkpt>
<trkpt lat="50.589739" lon="3.782214"><ele>49.03</ele><time>2025-05-25T01:32:44Z</time></trkpt>
<trkpt lat="50.589231" lon="3.783199"><ele>47.72</ele><time>2025-05-25T01:32:49Z</time></trkpt>
<trkpt lat="50.58867" lon="3.7841"><ele>45.0</ele><time>2025-05-25T01:32:55Z</time></trkpt>
<trkpt lat="50.588351" lon="3.784657"><ele>45.0</ele><time>2025-05-25T01:33:00Z</time></trkpt>
<trkpt lat="50.588259" lon="3.784857"><ele>43.98</ele><time>2025-05-25T01:33:06Z</time></trkpt>
<trkpt lat="50.588202" lon="3.785048"><ele>42.97</ele><time>2025-05-25T01:33:11Z</time></trkpt>
<trkpt lat="50.588047" lon="3.786103"><ele>41.97</ele><time>2025-05-25T01:33:17Z</time></trkpt>
<trkpt lat="50.58797" lon="3.786471"><ele>42.0</ele><time>2025-05-25T01:33:22Z</time></trkpt>
<trkpt lat="50.587823" lon="3.78698"><ele>42.11</ele><time>2025-05-25T01:33:28Z</time></trkpt>
<trkpt lat="50.587648" lon="3.78743"><ele>43.87</ele><time>2025-05-25T01:33:33Z</time></trkpt>
<trkpt lat="50.58691" lon="3.788871"><ele>46.13</ele><time>2025-05-25T01:33:39Z</time></trkpt>
<trkpt lat="50.58634" lon="3.787902"><ele>49.17</ele><time>2025-05-25T01:33:43Z</time></trkpt>
<trkpt lat="50.586127" lon="3.787613"><ele>49.91</ele><time>2025-05-25T01:33:48Z</time></trkpt>
<trkpt lat="50.585724" lon="3.787136"><ele>49.69</ele><time>2025-05-25T01:33:52Z</time></trkpt>
<trkpt lat="50.585557" lon="3.786901"><ele>49.0</ele><time>2025-05-25T01:33:56Z</time></trkpt>
<trkpt lat="50.585048" lon="3.786021"><ele>50.5</ele><time>2025-05-25T01:34:01Z</time></trkpt>
<trkpt lat="50.584983" lon="3.785871"><ele>50.26</ele><time>2025-05-25T01:34:05Z</time></trkpt>
<trkpt lat="50.584955" lon="3.785755"><ele>50.28</ele><time>2025-05-25T01:34:10Z</time></trkpt>
<trkpt lat="50.584953" lon="3.785546"><ele>50.13</ele><time>2025-05-25T01:34:14Z</time></trkpt>
<trkpt lat="50.584986" lon="3.785293"><ele>49.1</ele><time>2025-05-25T01:34:18Z</time></trkpt>
<trkpt lat="50.584985" lon="3.7852"><ele>49.05</ele><time>2025-05-25T01:34:23Z</time></trkpt>
<trkpt lat="50.584947" lon="3.785006"><ele>49.19</ele><time>2025-05-25T01:34:27Z</time></trkpt>
<trkpt lat="50.584891" lon="3.784868"><ele>49.58</ele><time>2025-05-25T01:34:31Z</time></trkpt>
<trkpt lat="50.58458" lon="3.784419"><ele>50.91</ele><time>2025-05-25T01:34:36Z</time></trkpt>
<trkpt lat="50.584355" lon="3.784173"><ele>50.02</ele><time>2025-05-25T01:34:40Z</time></trkpt>
<trkpt lat="50.583945" lon="3.783809"><ele>48.94</ele><time>2025-05-25T01:34:45Z</time></trkpt>
<trkpt lat="50.58376" lon="3.783573"><ele>49.47</ele><time>2025-05-25T01:34:49Z</time></trkpt>
<trkpt lat="50.583427" lon="3.784232"><ele>50.0</ele><time>2025-05-25T01:34:57Z</time></trkpt>
<trkpt lat="50.583392" lon="3.78433"><ele>50.0</ele><time>2025-05-25T01:35:05Z</time></trkpt>
<trkpt lat="50.583236" lon="3.785122"><ele>49.19</ele><time>2025-05-25T01:35:13Z</time></trkpt>
<trkpt lat="50.582705" lon="3.786102"><ele>49.97</ele><time>2025-05-25T01:35:21Z</time></trkpt>
<trkpt lat="50.582537" lon="3.786493"><ele>51.24</ele><time>2025-05-25T01:35:29Z</time></trkpt>
<trkpt lat="50.582403" lon="3.786964"><ele>51.96</ele><time>2025-05-25T01:35:37Z</time></trkpt>
<trkpt lat="50.582116" lon="3.788298"><ele>51.13</ele><time>2025-05-25T01:35:45Z</time></trkpt>
<trkpt lat="50.581234" lon="3.79002"><ele>53.56</ele><time>2025-05-25T01:35:53Z</time></trkpt>
<trkpt lat="50.580595" lon="3.791316"><ele>54.0</ele><time>2025-05-25T01:36:01Z</time></trkpt>
<trkpt lat="50.580122" lon="3.792075"><ele>54.3</ele><time>2025-05-25T01:36:09Z</time></trkpt>
<trkpt lat="50.579797" lon="3.792734"><ele>55.69</ele><time>2025-05-25T01:36:17Z</time></trkpt>
<trkpt lat="50.579698" lon="3.793022"><ele>56.98</ele><time>2025-05-25T01:36:26Z</time></trkpt>
<trkpt lat="50.57912" lon="3.795392"><ele>58.1</ele><time>2025-05-25T01:36:34Z</time></trkpt>
<trkpt lat="50.578134" lon="3.798194"><ele>56.28</ele><time>2025-05-25T01:36:42Z</time></trkpt>
<trkpt lat="50.578076" lon="3.798442"><ele>56.04</ele><time>2025-05-25T01:36:50Z</time></trkpt>
<trkpt lat="50.577809" lon="3.800182"><ele>55.0</ele><time>2025-05-25T01:36:58Z</time></trkpt>
<trkpt lat="50.57774" lon="3.801131"><ele>55.26</ele><time>2025-05-25T01:37:06Z</time></trkpt>
<trkpt lat="50.577691" lon="3.80162"><ele>54.22</ele><time>2025-05-25T01:37:14Z</time></trkpt>
<trkpt lat="50.577415" lon="3.803307"><ele>50.09</ele><time>2025-05-25T01:37:22Z</time></trkpt>
<trkpt lat="50.577371" lon="3.80375"><ele>50.0</ele><time>2025-05-25T01:37:30Z</time></trkpt>
<trkpt lat="50.57736" lon="3.80417"><ele>49.99</ele><time>2025-05-25T01:37:38Z</time></trkpt>
<trkpt lat="50.57737" lon="3.804953"><ele>49.91</ele><time>2025-05-25T01:37:46Z</time></trkpt>
<trkpt lat="50.577405" lon="3.806071"><ele>51.56</ele><time>2025-05-25T01:37:54Z</time></trkpt>
<trkpt lat="50.572719" lon="3.806105"><ele>51.44</ele><time>2025-05-25T01:38:18Z</time></trkpt>
<trkpt lat="50.57234" lon="3.807152"><ele>52.57</ele><time>2025-05-25T01:38:23Z</time></trkpt>
<trkpt lat="50.57225" lon="3.807348"><ele>52.1</ele><time>2025-05-25T01:38:29Z</time></trkpt>
<trkpt lat="50.572205" lon="3.807411"><ele>52.0</ele><time>2025-05-25T01:38:35Z</time></trkpt>
<trkpt lat="50.572093" lon="3.807484"><ele>52.0</ele><time>2025-05-25T01:38:40Z</time></trkpt>
<trkpt lat="50.571683" lon="3.807617"><ele>52.0</ele><time>2025-05-25T01:38:46Z</time></trkpt>
<trkpt lat="50.571538" lon="3.807721"><ele>52.37</ele><time>2025-05-25T01:38:51Z</time></trkpt>
<trkpt lat="50.571423" lon="3.807954"><ele>52.88</ele><time>2025-05-25T01:38:57Z</time></trkpt>
<trkpt lat="50.571066" lon="3.808865"><ele>52.15</ele><time>2025-05-25T01:39:02Z</time></trkpt>
<trkpt lat="50.571329" lon="3.809108"><ele>52.0</ele><time>2025-05-25T01:39:06Z</time></trkpt>
<trkpt lat="50.571784" lon="3.80962"><ele>52.42</ele><time>2025-05-25T01:39:10Z</time></trkpt>
<trkpt lat="50.572181" lon="3.810014"><ele>53.86</ele><time>2025-05-25T01:39:15Z</time></trkpt>
<trkpt lat="50.572249" lon="3.810113"><ele>53.9</ele><time>2025-05-25T01:39:19Z</time></trkpt>
<trkpt lat="50.571959" lon="3.810404"><ele>54.43</ele><time>2025-05-25T01:39:22Z</time></trkpt>
<trkpt lat="50.571278" lon="3.810947"><ele>51.99</ele><time>2025-05-25T01:39:25Z</time></trkpt>
<trkpt lat="50.570169" lon="3.81151"><ele>54.39</ele><time>2025-05-25T01:39:29Z</time></trkpt>
<trkpt lat="50.569854" lon="3.811747"><ele>54.47</ele><time>2025-05-25T01:39:32Z</time></trkpt>
<trkpt lat="50.569468" lon="3.812142"><ele>54.71</ele><time>2025-05-25T01:39:35Z</time></trkpt>
<trkpt lat="50.568959" lon="3.812745"><ele>54.09</ele><time>2025-05-25T01:39:38Z</time></trkpt>
<trkpt lat="50.568636" lon="3.813137"><ele>55.2</ele><time>2025-05-25T01:39:42Z</time></trkpt>
<trkpt lat="50.568244" lon="3.813675"><ele>55.23</ele><time>2025-05-25T01:39:45Z</time></trkpt>
<trkpt lat="50.568134" lon="3.813802"><ele>55.69</ele><time>2025-05-25T01:39:48Z</time></trkpt>
<trkpt lat="50.567352" lon="3.814485"><ele>55.61</ele><time>2025-05-25T01:39:51Z</time></trkpt>
<trkpt lat="50.567082" lon="3.814672"><ele>56.31</ele><time>2025-05-25T01:39:55Z</time></trkpt>
<trkpt lat="50.56694" lon="3.814713"><ele>55.95</ele><time>2025-05-25T01:39:58Z</time></trkpt>
<trkpt lat="50.566866" lon="3.814714"><ele>55.7</ele><time>2025-05-25T01:40:01Z</time></trkpt>
<trkpt lat="50.566602" lon="3.814643"><ele>54.76</ele><time>2025-05-25T01:40:05Z</time></trkpt>
<trkpt lat="50.566493" lon="3.814659"><ele>54.37</ele><time>2025-05-25T01:40:08Z</time></trkpt>
<trkpt lat="50.566366" lon="3.814761"><ele>54.07</ele><time>2025-05-25T01:40:11Z</time></trkpt>
<trkpt lat="50.566001" lon="3.815148"><ele>54.0</ele><time>2025-05-25T01:40:14Z</time></trkpt>
<trkpt lat="50.565881" lon="3.815331"><ele>54.03</ele><time>2025-05-25T01:40:18Z</time></trkpt>
<trkpt lat="50.565817" lon="3.815501"><ele>54.05</ele><time>2025-05-25T01:40:21Z</time></trkpt>
<trkpt lat="50.565781" lon="3.81573"><ele>54.7</ele><time>2025-05-25T01:40:24Z</time></trkpt>
<trkpt lat="50.565744" lon="3.816237"><ele>56.0</ele><time>2025-05-25T01:40:28Z</time></trkpt>
<trkpt lat="50.565675" lon="3.81652"><ele>56.47</ele><time>2025-05-25T01:40:31Z</time></trkpt>
<trkpt lat="50.565579" lon="3.816765"><ele>56.64</ele><time>2025-05-25T01:40:34Z</time></trkpt>
<trkpt lat="50.565455" lon="3.81695"><ele>55.62</ele><time>2025-05-25T01:40:37Z</time></trkpt>
<trkpt lat="50.565328" lon="3.817081"><ele>54.69</ele><time>2025-05-25T01:40:41Z</time></trkpt>
<trkpt lat="50.564824" lon="3.817498"><ele>56.63</ele><time>2025-05-25T01:40:44Z</time></trkpt>
<trkpt lat="50.564562" lon="3.817763"><ele>57.0</ele><time>2025-05-25T01:40:47Z</time></trkpt>
<trkpt lat="50.5644" lon="3.817963"><ele>57.0</ele><time>2025-05-25T01:40:50Z</time></trkpt>
<trkpt lat="50.564308" lon="3.818125"><ele>57.12</ele><time>2025-05-25T01:40:54Z</time></trkpt>
<trkpt lat="50.564244" lon="3.818373"><ele>57.72</ele><time>2025-05-25T01:40:57Z</time></trkpt>
<trkpt lat="50.564227" lon="3.818526"><ele>57.78</ele><time>2025-05-25T01:41:00Z</time></trkpt>
<trkpt lat="50.564219" lon="3.818851"><ele>58.67</ele><time>2025-05-25T01:41:04Z</time></trkpt>
<trkpt lat="50.564242" lon="3.818975"><ele>58.42</ele><time>2025-05-25T01:41:07Z</time></trkpt>
<trkpt lat="50.564484" lon="3.819316"><ele>56.25</ele><time>2025-05-25T01:41:10Z</time></trkpt>
<trkpt lat="50.564696" lon="3.819684"><ele>55.09</ele><time>2025-05-25T01:41:13Z</time></trkpt>
<trkpt lat="50.564876" lon="3.82004"><ele>55.55</ele><time>2025-05-25T01:41:17Z</time></trkpt>
<trkpt lat="50.564904" lon="3.820191"><ele>55.65</ele><time>2025-05-25T01:41:20Z</time></trkpt>
<trkpt lat="50.564906" lon="3.820309"><ele>55.58</ele><time>2025-05-25T01:41:23Z</time></trkpt>
<trkpt lat="50.564847" lon="3.820504"><ele>55.08</ele><time>2025-05-25T01:41:27Z</time></trkpt>
<trkpt lat="50.564769" lon="3.82064"><ele>54.95</ele><time>2025-05-25T01:41:30Z</time></trkpt>
<trkpt lat="50.564533" lon="3.820969"><ele>55.33</ele><time>2025-05-25T01:41:33Z</time></trkpt>
<trkpt lat="50.564471" lon="3.82109"><ele>55.83</ele><time>2025-05-25T01:41:36Z</time></trkpt>
<trkpt lat="50.564446" lon="3.821275"><ele>55.99</ele><time>2025-05-25T01:41:40Z</time></trkpt>
<trkpt lat="50.564453" lon="3.821756"><ele>56.98</ele><time>2025-05-25T01:41:43Z</time></trkpt>
<trkpt lat="50.564499" lon="3.822095"><ele>57.11</ele><time>2025-05-25T01:41:46Z</time></trkpt>
<trkpt lat="50.563422" lon="3.823168"><ele>55.19</ele><time>2025-05-25T01:41:52Z</time></trkpt>
<trkpt lat="50.563353" lon="3.823269"><ele>55.01</ele><time>2025-05-25T01:41:58Z</time></trkpt>
<trkpt lat="50.563331" lon="3.823349"><ele>55.0</ele><time>2025-05-25T01:42:05Z</time></trkpt>
<trkpt lat="50.563325" lon="3.823447"><ele>55.0</ele><time>2025-05-25T01:42:11Z</time></trkpt>
<trkpt lat="50.563557" lon="3.825525"><ele>57.0</ele><time>2025-05-25T01:42:17Z</time></trkpt>
<trkpt lat="50.563586" lon="3.825884"><ele>55.93</ele><time>2025-05-25T01:42:23Z</time></trkpt>
<trkpt lat="50.563522" lon="3.827646"><ele>55.68</ele><time>2025-05-25T01:42:29Z</time></trkpt>
<trkpt lat="50.563562" lon="3.827964"><ele>55.94</ele><time>2025-05-25T01:42:35Z</time></trkpt>
<trkpt lat="50.563964" lon="3.829924"><ele>56.19</ele><time>2025-05-25T01:42:41Z</time></trkpt>
<trkpt lat="50.564523" lon="3.832071"><ele>58.37</ele><time>2025-05-25T01:42:48Z</time></trkpt>
<trkpt lat="50.564563" lon="3.832262"><ele>57.42</ele><time>2025-05-25T01:42:54Z</time></trkpt>
<trkpt lat="50.564559" lon="3.832344"><ele>57.41</ele><time>2025-05-25T01:43:00Z</time></trkpt>
<trkpt lat="50.564498" lon="3.832449"><ele>57.19</ele><time>2025-05-25T01:43:06Z</time></trkpt>
<trkpt lat="50.563725" lon="3.833102"><ele>58.1</ele><time>2025-05-25T01:43:12Z</time></trkpt>
<trkpt lat="50.563601" lon="3.833247"><ele>58.69</ele><time>2025-05-25T01:43:18Z</time></trkpt>
<trkpt lat="50.563509" lon="3.833395"><ele>59.08</ele><time>2025-05-25T01:43:24Z</time></trkpt>
<trkpt lat="50.562287" lon="3.835679"><ele>69.02</ele><time>2025-05-25T01:43:31Z</time></trkpt>
<trkpt lat="50.561271" lon="3.837638"><ele>70.43</ele><time>2025-05-25T01:43:37Z</time></trkpt>
<trkpt lat="50.559672" lon="3.840345"><ele>69.57</ele><time>2025-05-25T01:43:43Z</time></trkpt>
<trkpt lat="50.559429" lon="3.841011"><ele>67.47</ele><time>2025-05-25T01:43:49Z</time></trkpt>
<trkpt lat="50.559296" lon="3.841248"><ele>66.39</ele><time>2025-05-25T01:43:55Z</time></trkpt>
<trkpt lat="50.558318" lon="3.84257"><ele>62.11</ele><time>2025-05-25T01:44:01Z</time></trkpt>
<trkpt lat="50.557486" lon="3.843444"><ele>65.05</ele><time>2025-05-25T01:44:07Z</time></trkpt>
<trkpt lat="50.557436" lon="3.843401"><ele>65.23</ele><time>2025-05-25T01:44:14Z</time></trkpt>
<trkpt lat="50.557355" lon="3.843424"><ele>65.52</ele><time>2025-05-25T01:44:21Z</time></trkpt>
<trkpt lat="50.557283" lon="3.843489"><ele>65.78</ele><time>2025-05-25T01:44:27Z</time></trkpt>
<trkpt lat="50.555307" lon="3.84597"><ele>68.79</ele><time>2025-05-25T01:44:34Z</time></trkpt>
<trkpt lat="50.555086" lon="3.846399"><ele>71.78</ele><time>2025-05-25T01:44:41Z</time></trkpt>
<trkpt lat="50.552158" lon="3.852566"><ele>80.94</ele><time>2025-05-25T01:44:47Z</time></trkpt>
<trkpt lat="50.551373" lon="3.854174"><ele>81.0</ele><time>2025-05-25T01:44:54Z</time></trkpt>
<trkpt lat="50.551203" lon="3.854417"><ele>81.0</ele><time>2025-05-25T01:45:00Z</time></trkpt>
<trkpt lat="50.551001" lon="3.854632"><ele>80.87</ele><time>2025-05-25T01:45:07Z</time></trkpt>
<trkpt lat="50.550694" lon="3.85484"><ele>80.92</ele><time>2025-05-25T01:45:14Z</time></trkpt>
<trkpt lat="50.548719" lon="3.855993"><ele>76.81</ele><time>2025-05-25T01:45:20Z</time></trkpt>
<trkpt lat="50.547393" lon="3.856874"><ele>77.0</ele><time>2025-05-25T01:45:27Z</time></trkpt>
<trkpt lat="50.547202" lon="3.857038"><ele>76.83</ele><time>2025-05-25T01:45:33Z</time></trkpt>
<trkpt lat="50.544506" lon="3.859795"><ele>72.0</ele><time>2025-05-25T01:45:40Z</time></trkpt>
<trkpt lat="50.544364" lon="3.859829"><ele>72.29</ele><time>2025-05-25T01:45:47Z</time></trkpt>
<trkpt lat="50.544216" lon="3.859878"><ele>72.82</ele><time>2025-05-25T01:45:48Z</time></trkpt>
<trkpt lat="50.544381" lon="3.860444"><ele>72.09</ele><time>2025-05-25T01:45:51Z</time></trkpt>
<trkpt lat="50.544591" lon="3.860979"><ele>71.72</ele><time>2025-05-25T01:45:54Z</time></trkpt>
<trkpt lat="50.544718" lon="3.861222"><ele>71.02</ele><time>2025-05-25T01:45:57Z</time></trkpt>
<trkpt lat="50.544809" lon="3.861356"><ele>71.0</ele><time>2025-05-25T01:46:00Z</time></trkpt>
<trkpt lat="50.545647" lon="3.86231"><ele>71.33</ele><time>2025-05-25T01:46:03Z</time></trkpt>
<trkpt lat="50.545735" lon="3.862431"><ele>71.65</ele><time>2025-05-25T01:46:06Z</time></trkpt>
<trkpt lat="50.546129" lon="3.863096"><ele>71.8</ele><time>2025-05-25T01:46:09Z</time></trkpt>
<trkpt lat="50.546347" lon="3.863386"><ele>71.19</ele><time>2025-05-25T01:46:12Z</time></trkpt>
<trkpt lat="50.54698" lon="3.863995"><ele>73.0</ele><time>2025-05-25T01:46:15Z</time></trkpt>
<trkpt lat="50.547167" lon="3.864276"><ele>73.08</ele><time>2025-05-25T01:46:17Z</time></trkpt>
<trkpt lat="50.54725" lon="3.864448"><ele>73.1</ele><time>2025-05-25T01:46:20Z</time></trkpt>
<trkpt lat="50.547373" lon="3.864781"><ele>73.53</ele><time>2025-05-25T01:46:23Z</time></trkpt>
<trkpt lat="50.548946" lon="3.869485"><ele>74.15</ele><time>2025-05-25T01:46:26Z</time></trkpt>
<trkpt lat="50.549177" lon="3.870308"><ele>76.92</ele><time>2025-05-25T01:46:29Z</time></trkpt>
<trkpt lat="50.549249" lon="3.870513"><ele>76.15</ele><time>2025-05-25T01:46:32Z</time></trkpt>
<trkpt lat="50.549445" lon="3.870945"><ele>72.59</ele><time>2025-05-25T01:46:35Z</time></trkpt>
<trkpt lat="50.550178" lon="3.872268"><ele>72.06</ele><time>2025-05-25T01:46:38Z</time></trkpt>
<trkpt lat="50.551865" lon="3.875812"><ele>68.57</ele><time>2025-05-25T01:46:41Z</time></trkpt>
<trkpt lat="50.552505" lon="3.877566"><ele>68.75</ele><time>2025-05-25T01:46:44Z</time></trkpt>
<trkpt lat="50.552929" lon="3.878517"><ele>67.0</ele><time>2025-05-25T01:46:47Z</time></trkpt>
<trkpt lat="50.553734" lon="3.880652"><ele>67.81</ele><time>2025-05-25T01:46:50Z</time></trkpt>
<trkpt lat="50.554077" lon="3.881523"><ele>66.52</ele><time>2025-05-25T01:46:53Z</time></trkpt>
<trkpt lat="50.55436" lon="3.882172"><ele>65.43</ele><time>2025-05-25T01:46:56Z</time></trkpt>
<trkpt lat="50.554675" lon="3.882827"><ele>63.14</ele><time>2025-05-25T01:46:59Z</time></trkpt>
<trkpt lat="50.554827" lon="3.883227"><ele>63.23</ele><time>2025-05-25T01:47:02Z</time></trkpt>
<trkpt lat="50.554992" lon="3.883793"><ele>63.92</ele><time>2025-05-25T01:47:05Z</time></trkpt>
<trkpt lat="50.555079" lon="3.884198"><ele>64.46</ele><time>2025-05-25T01:47:08Z</time></trkpt>
<trkpt lat="50.555366" lon="3.886046"><ele>60.55</ele><time>2025-05-25T01:47:11Z</time></trkpt>
<trkpt lat="50.555479" lon="3.886494"><ele>61.0</ele><time>2025-05-25T01:47:14Z</time></trkpt>
<trkpt lat="50.555635" lon="3.886921"><ele>62.28</ele><time>2025-05-25T01:47:17Z</time></trkpt>
<trkpt lat="50.555887" lon="3.88754"><ele>61.86</ele><time>2025-05-25T01:47:20Z</time></trkpt>
<trkpt lat="50.55613" lon="3.888004"><ele>60.93</ele><time>2025-05-25T01:47:23Z</time></trkpt>
<trkpt lat="50.556404" lon="3.888448"><ele>61.39</ele><time>2025-05-25T01:47:26Z</time></trkpt>
<trkpt lat="50.556685" lon="3.888834"><ele>61.8</ele><time>2025-05-25T01:47:28Z</time></trkpt>
<trkpt lat="50.556979" lon="3.88919"><ele>62.32</ele><time>2025-05-25T01:47:31Z</time></trkpt>
<trkpt lat="50.55729" lon="3.889638"><ele>64.0</ele><time>2025-05-25T01:47:34Z</time></trkpt>
<trkpt lat="50.557805" lon="3.890678"><ele>65.0</ele><time>2025-05-25T01:47:37Z</time></trkpt>
<trkpt lat="50.557868" lon="3.890834"><ele>65.0</ele><time>2025-05-25T01:47:40Z</time></trkpt>
<trkpt lat="50.557959" lon="3.89124"><ele>63.84</ele><time>2025-05-25T01:47:43Z</time></trkpt>
<trkpt lat="50.557985" lon="3.891494"><ele>63.37</ele><time>2025-05-25T01:47:46Z</time></trkpt>
<trkpt lat="50.557974" lon="3.891789"><ele>62.71</ele><time>2025-05-25T01:47:49Z</time></trkpt>
<trkpt lat="50.55784" lon="3.892711"><ele>63.76</ele><time>2025-05-25T01:47:52Z</time></trkpt>
<trkpt lat="50.557353" lon="3.895339"><ele>63.75</ele><time>2025-05-25T01:47:55Z</time></trkpt>
<trkpt lat="50.5573" lon="3.895689"><ele>64.72</ele><time>2025-05-25T01:47:58Z</time></trkpt>
<trkpt lat="50.557309" lon="3.896137"><ele>64.69</ele><time>2025-05-25T01:48:01Z</time></trkpt>
<trkpt lat="50.557395" lon="3.89657"><ele>64.13</ele><time>2025-05-25T01:48:04Z</time></trkpt>
<trkpt lat="50.557459" lon="3.896749"><ele>64.0</ele><time>2025-05-25T01:48:07Z</time></trkpt>
<trkpt lat="50.557507" lon="3.896847"><ele>64.0</ele><time>2025-05-25T01:48:10Z</time></trkpt>
<trkpt lat="50.557559" lon="3.896909"><ele>64.0</ele><time>2025-05-25T01:48:13Z</time></trkpt>
<trkpt lat="50.557547" lon="3.897058"><ele>64.41</ele><time>2025-05-25T01:48:19Z</time></trkpt>
<trkpt lat="50.557561" lon="3.897244"><ele>65.0</ele><time>2025-05-25T01:48:25Z</time></trkpt>
<trkpt lat="50.557853" lon="3.899648"><ele>65.73</ele><time>2025-05-25T01:48:32Z</time></trkpt>
<trkpt lat="50.557831" lon="3.899838"><ele>65.81</ele><time>2025-05-25T01:48:38Z</time></trkpt>
<trkpt lat="50.557863" lon="3.900085"><ele>65.69</ele><time>2025-05-25T01:48:42Z</time></trkpt>
<trkpt lat="50.557858" lon="3.901189"><ele>65.71</ele><time>2025-05-25T01:48:46Z</time></trkpt>
<trkpt lat="50.557933" lon="3.901764"><ele>65.44</ele><time>2025-05-25T01:48:51Z</time></trkpt>
<trkpt lat="50.557938" lon="3.901914"><ele>65.42</ele><time>2025-05-25T01:48:55Z</time></trkpt>
<trkpt lat="50.557707" lon="3.903876"><ele>65.21</ele><time>2025-05-25T01:48:59Z</time></trkpt>
<trkpt lat="50.557699" lon="3.903982"><ele>64.91</ele><time>2025-05-25T01:49:04Z</time></trkpt>
<trkpt lat="50.55774" lon="3.90425"><ele>64.47</ele><time>2025-05-25T01:49:08Z</time></trkpt>
<trkpt lat="50.557786" lon="3.904552"><ele>64.06</ele><time>2025-05-25T01:49:12Z</time></trkpt>
<trkpt lat="50.558236" lon="3.906922"><ele>65.35</ele><time>2025-05-25T01:49:16Z</time></trkpt>
<trkpt lat="50.558284" lon="3.907262"><ele>65.33</ele><time>2025-05-25T01:49:21Z</time></trkpt>
<trkpt lat="50.558381" lon="3.908086"><ele>65.94</ele><time>2025-05-25T01:49:25Z</time></trkpt>
<trkpt lat="50.558472" lon="3.909764"><ele>60.2</ele><time>2025-05-25T01:49:29Z</time></trkpt>
<trkpt lat="50.558493" lon="3.910035"><ele>58.52</ele><time>2025-05-25T01:49:34Z</time></trkpt>
<trkpt lat="50.558532" lon="3.91024"><ele>58.47</ele><time>2025-05-25T01:49:38Z</time></trkpt>
<trkpt lat="50.558626" lon="3.910497"><ele>58.35</ele><time>2025-05-25T01:49:42Z</time></trkpt>
<trkpt lat="50.558797" lon="3.910749"><ele>60.01</ele><time>2025-05-25T01:49:46Z</time></trkpt>
<trkpt lat="50.559415" lon="3.911323"><ele>64.37</ele><time>2025-05-25T01:49:51Z</time></trkpt>
<trkpt lat="50.559811" lon="3.911928"><ele>61.36</ele><time>2025-05-25T01:49:55Z</time></trkpt>
<trkpt lat="50.559995" lon="3.912289"><ele>60.98</ele><time>2025-05-25T01:49:59Z</time></trkpt>
<trkpt lat="50.560221" lon="3.912892"><ele>62.79</ele><time>2025-05-25T01:50:04Z</time></trkpt>
<trkpt lat="50.561361" lon="3.916504"><ele>63.06</ele><time>2025-05-25T01:50:08Z</time></trkpt>
<trkpt lat="50.561707" lon="3.917871"><ele>62.52</ele><time>2025-05-25T01:50:12Z</time></trkpt>
<trkpt lat="50.561835" lon="3.918531"><ele>59.11</ele><time>2025-05-25T01:50:16Z</time></trkpt>
<trkpt lat="50.561928" lon="3.919216"><ele>58.0</ele><time>2025-05-25T01:50:21Z</time></trkpt>
<trkpt lat="50.562026" lon="3.920397"><ele>56.87</ele><time>2025-05-25T01:50:25Z</time></trkpt>
<trkpt lat="50.562039" lon="3.921857"><ele>55.68</ele><time>2025-05-25T01:50:29Z</time></trkpt>
<trkpt lat="50.562106" lon="3.922682"><ele>56.96</ele><time>2025-05-25T01:50:34Z</time></trkpt>
<trkpt lat="50.562232" lon="3.923351"><ele>60.13</ele><time>2025-05-25T01:50:38Z</time></trkpt>
<trkpt lat="50.562499" lon="3.924247"><ele>63.71</ele><time>2025-05-25T01:50:42Z</time></trkpt>
<trkpt lat="50.562559" lon="3.924529"><ele>63.43</ele><time>2025-05-25T01:50:46Z</time></trkpt>
<trkpt lat="50.562574" lon="3.924815"><ele>63.87</ele><time>2025-05-25T01:50:51Z</time></trkpt>
<trkpt lat="50.562563" lon="3.925656"><ele>66.59</ele><time>2025-05-25T01:50:55Z</time></trkpt>
<trkpt lat="50.562548" lon="3.926874"><ele>69.17</ele><time>2025-05-25T01:50:59Z</time></trkpt>
<trkpt lat="50.562564" lon="3.927442"><ele>70.23</ele><time>2025-05-25T01:51:04Z</time></trkpt>
<trkpt lat="50.562613" lon="3.928147"><ele>69.07</ele><time>2025-05-25T01:51:08Z</time></trkpt>
<trkpt lat="50.563105" lon="3.930379"><ele>69.81</ele><time>2025-05-25T01:51:12Z</time></trkpt>
<trkpt lat="50.563452" lon="3.932113"><ele>72.61</ele><time>2025-05-25T01:51:16Z</time></trkpt>
<trkpt lat="50.56376" lon="3.933319"><ele>71.13</ele><time>2025-05-25T01:51:21Z</time></trkpt>
<trkpt lat="50.563837" lon="3.933722"><ele>72.03</ele><time>2025-05-25T01:51:25Z</time></trkpt>
<trkpt lat="50.563904" lon="3.934393"><ele>72.17</ele><time>2025-05-25T01:51:29Z</time></trkpt>
<trkpt lat="50.563917" lon="3.934707"><ele>72.0</ele><time>2025-05-25T01:51:34Z</time></trkpt>
<trkpt lat="50.563778" lon="3.936668"><ele>73.4</ele><time>2025-05-25T01:51:38Z</time></trkpt>
<trkpt lat="50.563755" lon="3.937407"><ele>74.0</ele><time>2025-05-25T01:51:42Z</time></trkpt>
<trkpt lat="50.563776" lon="3.938315"><ele>74.0</ele><time>2025-05-25T01:51:46Z</time></trkpt>
<trkpt lat="50.563795" lon="3.938852"><ele>74.86</ele><time>2025-05-25T01:51:51Z</time></trkpt>
<trkpt lat="50.56388" lon="3.939623"><ele>74.97</ele><time>2025-05-25T01:51:55Z</time></trkpt>
<trkpt lat="50.564016" lon="3.940629"><ele>75.66</ele><time>2025-05-25T01:51:59Z</time></trkpt>
<trkpt lat="50.56411" lon="3.942213"><ele>78.76</ele><time>2025-05-25T01:52:04Z</time></trkpt>
<trkpt lat="50.564165" lon="3.943208"><ele>77.45</ele><time>2025-05-25T01:52:08Z</time></trkpt>
<trkpt lat="50.564277" lon="3.944086"><ele>76.28</ele><time>2025-05-25T01:52:12Z</time></trkpt>
<trkpt lat="50.563972" lon="3.944217"><ele>76.05</ele><time>2025-05-25T01:52:17Z</time></trkpt>
<trkpt lat="50.563861" lon="3.944242"><ele>75.97</ele><time>2025-05-25T01:52:21Z</time></trkpt>
<trkpt lat="50.563479" lon="3.944172"><ele>75.5</ele><time>2025-05-25T01:52:26Z</time></trkpt>
<trkpt lat="50.563184" lon="3.944261"><ele>72.51</ele><time>2025-05-25T01:52:30Z</time></trkpt>
<trkpt lat="50.562895" lon="3.944421"><ele>69.46</ele><time>2025-05-25T01:52:35Z</time></trkpt>
<trkpt lat="50.56275" lon="3.944593"><ele>69.3</ele><time>2025-05-25T01:52:39Z</time></trkpt>
<trkpt lat="50.562697" lon="3.944818"><ele>70.22</ele><time>2025-05-25T01:52:44Z</time></trkpt>
<trkpt lat="50.562548" lon="3.945761"><ele>72.83</ele><time>2025-05-25T01:52:48Z</time></trkpt>
<trkpt lat="50.562139" lon="3.949378"><ele>74.0</ele><time>2025-05-25T01:52:53Z</time></trkpt>
<trkpt lat="50.561391" lon="3.953834"><ele>78.8</ele><time>2025-05-25T01:52:57Z</time></trkpt>
<trkpt lat="50.561343" lon="3.954265"><ele>80.52</ele><time>2025-05-25T01:53:02Z</time></trkpt>
<trkpt lat="50.561292" lon="3.955274"><ele>81.0</ele><time>2025-05-25T01:53:06Z</time></trkpt>
<trkpt lat="50.561313" lon="3.955961"><ele>81.85</ele><time>2025-05-25T01:53:11Z</time></trkpt>
<trkpt lat="50.561386" lon="3.956728"><ele>81.0</ele><time>2025-05-25T01:53:15Z</time></trkpt>
<trkpt lat="50.561511" lon="3.957556"><ele>81.76</ele><time>2025-05-25T01:53:20Z</time></trkpt>
<trkpt lat="50.561549" lon="3.957917"><ele>82.71</ele><time>2025-05-25T01:53:25Z</time></trkpt>
<trkpt lat="50.561568" lon="3.958383"><ele>84.11</ele><time>2025-05-25T01:53:29Z</time></trkpt>
<trkpt lat="50.561664" lon="3.964004"><ele>88.6</ele><time>2025-05-25T01:53:34Z</time></trkpt>
<trkpt lat="50.561962" lon="3.969345"><ele>89.64</ele><time>2025-05-25T01:53:38Z</time></trkpt>
<trkpt lat="50.562002" lon="3.969845"><ele>90.0</ele><time>2025-05-25T01:53:43Z</time></trkpt>
<trkpt lat="50.562065" lon="3.970304"><ele>89.9</ele><time>2025-05-25T01:53:47Z</time></trkpt>
<trkpt lat="50.562365" lon="3.971947"><ele>87.51</ele><time>2025-05-25T01:53:52Z</time></trkpt>
<trkpt lat="50.562428" lon="3.972235"><ele>87.48</ele><time>2025-05-25T01:53:56Z</time></trkpt>
<trkpt lat="50.562517" lon="3.972504"><ele>88.0</ele><time>2025-05-25T01:54:01Z</time></trkpt>
<trkpt lat="50.561878" lon="3.973033"><ele>86.76</ele><time>2025-05-25T01:54:10Z</time></trkpt>
<trkpt lat="50.56175" lon="3.973166"><ele>86.3</ele><time>2025-05-25T01:54:20Z</time></trkpt>
<trkpt lat="50.561634" lon="3.973334"><ele>86.11</ele><time>2025-05-25T01:54:29Z</time></trkpt>
<trkpt lat="50.561234" lon="3.974149"><ele>87.5</ele><time>2025-05-25T01:54:39Z</time></trkpt>
<trkpt lat="50.560337" lon="3.975898"><ele>91.0</ele><time>2025-05-25T01:54:48Z</time></trkpt>
<trkpt lat="50.559751" lon="3.977111"><ele>95.0</ele><time>2025-05-25T01:54:58Z</time></trkpt>
<trkpt lat="50.559655" lon="3.977476"><ele>96.69</ele><time>2025-05-25T01:55:07Z</time></trkpt>
<trkpt lat="50.559391" lon="3.978666"><ele>97.93</ele><time>2025-05-25T01:55:17Z</time></trkpt>
<trkpt lat="50.559253" lon="3.979107"><ele>96.93</ele><time>2025-05-25T01:55:26Z</time></trkpt>
<trkpt lat="50.558495" lon="3.981133"><ele>95.42</ele><time>2025-05-25T01:55:36Z</time></trkpt>
<trkpt lat="50.556589" lon="3.980179"><ele>95.0</ele><time>2025-05-25T01:55:49Z</time></trkpt>
<trkpt lat="50.555034" lon="3.979319"><ele>94.36</ele><time>2025-05-25T01:56:01Z</time></trkpt>
<trkpt lat="50.553125" lon="3.985534"><ele>94.33</ele><time>2025-05-25T01:56:06Z</time></trkpt>
<trkpt lat="50.552779" lon="3.987171"><ele>94.82</ele><time>2025-05-25T01:56:11Z</time></trkpt>
<trkpt lat="50.552497" lon="3.988297"><ele>94.15</ele><time>2025-05-25T01:56:16Z</time></trkpt>
<trkpt lat="50.552282" lon="3.989052"><ele>95.11</ele><time>2025-05-25T01:56:20Z</time></trkpt>
<trkpt lat="50.55199" lon="3.989902"><ele>93.81</ele><time>2025-05-25T01:56:25Z</time></trkpt>
<trkpt lat="50.551847" lon="3.990383"><ele>93.43</ele><time>2025-05-25T01:56:30Z</time></trkpt>
<trkpt lat="50.551779" lon="3.990864"><ele>93.36</ele><time>2025-05-25T01:56:34Z</time></trkpt>
<trkpt lat="50.551738" lon="3.991599"><ele>92.8</ele><time>2025-05-25T01:56:39Z</time></trkpt>
<trkpt lat="50.55173" lon="3.992129"><ele>91.88</ele><time>2025-05-25T01:56:44Z</time></trkpt>
<trkpt lat="50.551783" lon="3.992625"><ele>90.9</ele><time>2025-05-25T01:56:48Z</time></trkpt>
<trkpt lat="50.552011" lon="3.993889"><ele>90.0</ele><time>2025-05-25T01:56:53Z</time></trkpt>
<trkpt lat="50.552363" lon="3.995284"><ele>90.0</ele><time>2025-05-25T01:56:58Z</time></trkpt>
<trkpt lat="50.55264" lon="3.997002"><ele>88.79</ele><time>2025-05-25T01:57:03Z</time></trkpt>
<trkpt lat="50.552816" lon="3.997511"><ele>87.99</ele><time>2025-05-25T01:57:07Z</time></trkpt>
<trkpt lat="50.553276" lon="3.998697"><ele>88.1</ele><time>2025-05-25T01:57:12Z</time></trkpt>
<trkpt lat="50.553333" lon="3.998878"><ele>88.96</ele><time>2025-05-25T01:57:17Z</time></trkpt>
<trkpt lat="50.553022" lon="3.999404"><ele>87.13</ele><time>2025-05-25T01:57:21Z</time></trkpt>
<trkpt lat="50.552906" lon="3.999717"><ele>87.0</ele><time>2025-05-25T01:57:26Z</time></trkpt>
<trkpt lat="50.552855" lon="3.999979"><ele>86.33</ele><time>2025-05-25T01:57:31Z</time></trkpt>
<trkpt lat="50.5527" lon="4.001372"><ele>85.72</ele><time>2025-05-25T01:57:35Z</time></trkpt>
<trkpt lat="50.552665" lon="4.001553"><ele>85.59</ele><time>2025-05-25T01:57:40Z</time></trkpt>
<trkpt lat="50.55288" lon="4.001834"><ele>85.99</ele><time>2025-05-25T01:57:45Z</time></trkpt>
<trkpt lat="50.552314" lon="4.003026"><ele>83.96</ele><time>2025-05-25T01:57:49Z</time></trkpt>
<trkpt lat="50.552238" lon="4.003363"><ele>85.06</ele><time>2025-05-25T01:57:54Z</time></trkpt>
<trkpt lat="50.552069" lon="4.005558"><ele>86.0</ele><time>2025-05-25T01:57:59Z</time></trkpt>
<trkpt lat="50.551969" lon="4.006168"><ele>85.93</ele><time>2025-05-25T01:58:04Z</time></trkpt>
<trkpt lat="50.551815" lon="4.006871"><ele>87.0</ele><time>2025-05-25T01:58:08Z</time></trkpt>
<trkpt lat="50.551594" lon="4.006869"><ele>87.0</ele><time>2025-05-25T01:58:13Z</time></trkpt>
<trkpt lat="50.551091" lon="4.006931"><ele>87.07</ele><time>2025-05-25T01:58:18Z</time></trkpt>
<trkpt lat="50.551551" lon="4.008379"><ele>88.58</ele><time>2025-05-25T01:58:22Z</time></trkpt>
<trkpt lat="50.551669" lon="4.008796"><ele>88.34</ele><time>2025-05-25T01:58:27Z</time></trkpt>
<trkpt lat="50.551689" lon="4.008913"><ele>88.07</ele><time>2025-05-25T01:58:32Z</time></trkpt>
<trkpt lat="50.551688" lon="4.00903"><ele>88.04</ele><time>2025-05-25T01:58:36Z</time></trkpt>
<trkpt lat="50.551642" lon="4.009195"><ele>87.81</ele><time>2025-05-25T01:58:41Z</time></trkpt>
<trkpt lat="50.551242" lon="4.009937"><ele>88.18</ele><time>2025-05-25T01:58:45Z</time></trkpt>
<trkpt lat="50.550783" lon="4.010685"><ele>89.0</ele><time>2025-05-25T01:58:50Z</time></trkpt>
<trkpt lat="50.550471" lon="4.011103"><ele>90.28</ele><time>2025-05-25T01:58:54Z</time></trkpt>
<trkpt lat="50.55011" lon="4.011435"><ele>91.6</ele><time>2025-05-25T01:58:59Z</time></trkpt>
<trkpt lat="50.549851" lon="4.011619"><ele>92.09</ele><time>2025-05-25T01:59:04Z</time></trkpt>
<trkpt lat="50.54972" lon="4.011738"><ele>92.0</ele><time>2025-05-25T01:59:08Z</time></trkpt>
<trkpt lat="50.549139" lon="4.012549"><ele>91.18</ele><time>2025-05-25T01:59:13Z</time></trkpt>
<trkpt lat="50.548754" lon="4.013174"><ele>93.19</ele><time>2025-05-25T01:59:17Z</time></trkpt>
<trkpt lat="50.548623" lon="4.013591"><ele>93.96</ele><time>2025-05-25T01:59:22Z</time></trkpt>
<trkpt lat="50.548561" lon="4.013934"><ele>94.18</ele><time>2025-05-25T01:59:26Z</time></trkpt>
<trkpt lat="50.548367" lon="4.015342"><ele>92.77</ele><time>2025-05-25T01:59:31Z</time></trkpt>
<trkpt lat="50.548239" lon="4.015777"><ele>92.0</ele><time>2025-05-25T01:59:36Z</time></trkpt>
<trkpt lat="50.548132" lon="4.015936"><ele>91.9</ele><time>2025-05-25T01:59:40Z</time></trkpt>
<trkpt lat="50.546863" lon="4.017259"><ele>95.71</ele><time>2025-05-25T01:59:45Z</time></trkpt>
<trkpt lat="50.54607" lon="4.018115"><ele>94.21</ele><time>2025-05-25T01:59:49Z</time></trkpt>
<trkpt lat="50.545751" lon="4.018345"><ele>95.04</ele><time>2025-05-25T01:59:54Z</time></trkpt>
<trkpt lat="50.544765" lon="4.018878"><ele>95.99</ele><time>2025-05-25T01:59:59Z</time></trkpt>
<trkpt lat="50.544632" lon="4.018901"><ele>96.32</ele><time>2025-05-25T02:00:03Z</time></trkpt>
<trkpt lat="50.544491" lon="4.01887"><ele>96.83</ele><time>2025-05-25T02:00:08Z</time></trkpt>
<trkpt lat="50.544414" lon="4.01881"><ele>97.0</ele><time>2025-05-25T02:00:12Z</time></trkpt>
<trkpt lat="50.544174" lon="4.018456"><ele>97.0</ele><time>2025-05-25T02:00:17Z</time></trkpt>
<trkpt lat="50.544102" lon="4.018397"><ele>97.23</ele><time>2025-05-25T02:00:21Z</time></trkpt>
<trkpt lat="50.544" lon="4.018393"><ele>97.6</ele><time>2025-05-25T02:00:26Z</time></trkpt>
<trkpt lat="50.541378" lon="4.01962"><ele>100.08</ele><time>2025-05-25T02:00:31Z</time></trkpt>
<trkpt lat="50.540341" lon="4.020131"><ele>101.54</ele><time>2025-05-25T02:00:35Z</time></trkpt>
<trkpt lat="50.540197" lon="4.02023"><ele>102.29</ele><time>2025-05-25T02:00:40Z</time></trkpt>
<trkpt lat="50.540077" lon="4.02037"><ele>103.06</ele><time>2025-05-25T02:00:44Z</time></trkpt>
<trkpt lat="50.539903" lon="4.020624"><ele>104.08</ele><time>2025-05-25T02:00:49Z</time></trkpt>
<trkpt lat="50.539394" lon="4.021409"><ele>106.72</ele><time>2025-05-25T02:00:53Z</time></trkpt>
<trkpt lat="50.539152" lon="4.021678"><ele>107.22</ele><time>2025-05-25T02:00:58Z</time></trkpt>
<trkpt lat="50.535099" lon="4.025387"><ele>107.64</ele><time>2025-05-25T02:01:03Z</time></trkpt>
<trkpt lat="50.534259" lon="4.026417"><ele>105.5</ele><time>2025-05-25T02:01:07Z</time></trkpt>
<trkpt lat="50.533352" lon="4.027452"><ele>103.99</ele><time>2025-05-25T02:01:12Z</time></trkpt>
<trkpt lat="50.532296" lon="4.028765"><ele>100.12</ele><time>2025-05-25T02:01:16Z</time></trkpt>
<trkpt lat="50.530853" lon="4.030175"><ele>96.07</ele><time>2025-05-25T02:01:21Z</time></trkpt>
<trkpt lat="50.530718" lon="4.03028"><ele>95.59</ele><time>2025-05-25T02:01:25Z</time></trkpt>
<trkpt lat="50.530404" lon="4.030431"><ele>95.8</ele><time>2025-05-25T02:01:30Z</time></trkpt>
<trkpt lat="50.530209" lon="4.030449"><ele>95.66</ele><time>2025-05-25T02:01:35Z</time></trkpt>
<trkpt lat="50.530149" lon="4.03041"><ele>95.29</ele><time>2025-05-25T02:01:38Z</time></trkpt>
<trkpt lat="50.530085" lon="4.030404"><ele>94.93</ele><time>2025-05-25T02:01:41Z</time></trkpt>
<trkpt lat="50.530022" lon="4.030432"><ele>94.67</ele><time>2025-05-25T02:01:44Z</time></trkpt>
<trkpt lat="50.529969" lon="4.030492"><ele>94.77</ele><time>2025-05-25T02:01:47Z</time></trkpt>
<trkpt lat="50.529932" lon="4.030575"><ele>95.0</ele><time>2025-05-25T02:01:51Z</time></trkpt>
<trkpt lat="50.529914" lon="4.030673"><ele>95.0</ele><time>2025-05-25T02:01:54Z</time></trkpt>
<trkpt lat="50.529918" lon="4.030775"><ele>95.0</ele><time>2025-05-25T02:01:57Z</time></trkpt>
<trkpt lat="50.529913" lon="4.030881"><ele>94.83</ele><time>2025-05-25T02:02:00Z</time></trkpt>
<trkpt lat="50.529889" lon="4.030985"><ele>94.45</ele><time>2025-05-25T02:02:03Z</time></trkpt>
<trkpt lat="50.529833" lon="4.031103"><ele>94.03</ele><time>2025-05-25T02:02:06Z</time></trkpt>
<trkpt lat="50.528331" lon="4.032184"><ele>93.0</ele><time>2025-05-25T02:02:10Z</time></trkpt>
<trkpt lat="50.527882" lon="4.032541"><ele>93.53</ele><time>2025-05-25T02:02:13Z</time></trkpt>
<trkpt lat="50.527401" lon="4.032978"><ele>93.0</ele><time>2025-05-25T02:02:16Z</time></trkpt>
<trkpt lat="50.526988" lon="4.033404"><ele>92.15</ele><time>2025-05-25T02:02:19Z</time></trkpt>
<trkpt lat="50.525047" lon="4.035633"><ele>88.11</ele><time>2025-05-25T02:02:22Z</time></trkpt>
<trkpt lat="50.524831" lon="4.035885"><ele>90.29</ele><time>2025-05-25T02:02:26Z</time></trkpt>
<trkpt lat="50.52406" lon="4.036935"><ele>92.38</ele><time>2025-05-25T02:02:29Z</time></trkpt>
<trkpt lat="50.520818" lon="4.041419"><ele>100.1</ele><time>2025-05-25T02:02:32Z</time></trkpt>
<trkpt lat="50.520439" lon="4.041889"><ele>100.33</ele><time>2025-05-25T02:02:35Z</time></trkpt>
<trkpt lat="50.520094" lon="4.042256"><ele>102.66</ele><time>2025-05-25T02:02:38Z</time></trkpt>
<trkpt lat="50.519565" lon="4.042738"><ele>103.71</ele><time>2025-05-25T02:02:41Z</time></trkpt>
<trkpt lat="50.519098" lon="4.043065"><ele>104.01</ele><time>2025-05-25T02:02:45Z</time></trkpt>
<trkpt lat="50.518689" lon="4.043289"><ele>105.56</ele><time>2025-05-25T02:02:48Z</time></trkpt>
<trkpt lat="50.518515" lon="4.043321"><ele>105.95</ele><time>2025-05-25T02:02:51Z</time></trkpt>
<trkpt lat="50.518398" lon="4.043301"><ele>105.88</ele><time>2025-05-25T02:02:54Z</time></trkpt>
<trkpt lat="50.518246" lon="4.043233"><ele>106.27</ele><time>2025-05-25T02:02:57Z</time></trkpt>
<trkpt lat="50.518043" lon="4.043072"><ele>107.2</ele><time>2025-05-25T02:03:01Z</time></trkpt>
<trkpt lat="50.516985" lon="4.041233"><ele>104.58</ele><time>2025-05-25T02:03:04Z</time></trkpt>
<trkpt lat="50.51693" lon="4.041158"><ele>104.34</ele><time>2025-05-25T02:03:07Z</time></trkpt>
<trkpt lat="50.516877" lon="4.041134"><ele>104.16</ele><time>2025-05-25T02:03:10Z</time></trkpt>
<trkpt lat="50.516838" lon="4.041142"><ele>104.22</ele><time>2025-05-25T02:03:13Z</time></trkpt>
<trkpt lat="50.516748" lon="4.04118"><ele>104.5</ele><time>2025-05-25T02:03:16Z</time></trkpt>
<trkpt lat="50.516716" lon="4.041253"><ele>105.02</ele><time>2025-05-25T02:03:20Z</time></trkpt>
<trkpt lat="50.516207" lon="4.044769"><ele>107.89</ele><time>2025-05-25T02:03:23Z</time></trkpt>
<trkpt lat="50.51604" lon="4.045847"><ele>107.78</ele><time>2025-05-25T02:03:26Z</time></trkpt>
<trkpt lat="50.515939" lon="4.046384"><ele>107.76</ele><time>2025-05-25T02:03:29Z</time></trkpt>
<trkpt lat="50.515861" lon="4.046703"><ele>107.18</ele><time>2025-05-25T02:03:32Z</time></trkpt>
<trkpt lat="50.515799" lon="4.046885"><ele>106.88</ele><time>2025-05-25T02:03:35Z</time></trkpt>
<trkpt lat="50.515568" lon="4.047462"><ele>106.0</ele><time>2025-05-25T02:03:39Z</time></trkpt>
<trkpt lat="50.515106" lon="4.048498"><ele>105.62</ele><time>2025-05-25T02:03:42Z</time></trkpt>
<trkpt lat="50.515018" lon="4.048718"><ele>105.96</ele><time>2025-05-25T02:03:45Z</time></trkpt>
<trkpt lat="50.514477" lon="4.05044"><ele>103.3</ele><time>2025-05-25T02:03:48Z</time></trkpt>
<trkpt lat="50.514137" lon="4.050562"><ele>103.03</ele><time>2025-05-25T02:03:51Z</time></trkpt>
<trkpt lat="50.513363" lon="4.050633"><ele>106.45</ele><time>2025-05-25T02:03:54Z</time></trkpt>
<trkpt lat="50.513124" lon="4.050601"><ele>107.08</ele><time>2025-05-25T02:03:58Z</time></trkpt>
<trkpt lat="50.512773" lon="4.050502"><ele>107.03</ele><time>2025-05-25T02:04:01Z</time></trkpt>
<trkpt lat="50.512591" lon="4.050489"><ele>108.18</ele><time>2025-05-25T02:04:04Z</time></trkpt>
<trkpt lat="50.512473" lon="4.050536"><ele>108.83</ele><time>2025-05-25T02:04:07Z</time></trkpt>
<trkpt lat="50.512373" lon="4.05062"><ele>109.35</ele><time>2025-05-25T02:04:10Z</time></trkpt>
<trkpt lat="50.512085" lon="4.051067"><ele>113.47</ele><time>2025-05-25T02:04:13Z</time></trkpt>
<trkpt lat="50.511964" lon="4.051189"><ele>112.31</ele><time>2025-05-25T02:04:16Z</time></trkpt>
<trkpt lat="50.511807" lon="4.051216"><ele>110.52</ele><time>2025-05-25T02:04:19Z</time></trkpt>
<trkpt lat="50.511443" lon="4.051054"><ele>107.99</ele><time>2025-05-25T02:04:22Z</time></trkpt>
<trkpt lat="50.51139" lon="4.051058"><ele>107.81</ele><time>2025-05-25T02:04:26Z</time></trkpt>
<trkpt lat="50.511336" lon="4.051122"><ele>108.19</ele><time>2025-05-25T02:04:29Z</time></trkpt>
<trkpt lat="50.511159" lon="4.051697"><ele>109.94</ele><time>2025-05-25T02:04:32Z</time></trkpt>
<trkpt lat="50.510978" lon="4.052181"><ele>111.51</ele><time>2025-05-25T02:04:35Z</time></trkpt>
<trkpt lat="50.510732" lon="4.05274"><ele>111.05</ele><time>2025-05-25T02:04:38Z</time></trkpt>
<trkpt lat="50.51051" lon="4.053211"><ele>112.56</ele><time>2025-05-25T02:04:41Z</time></trkpt>
<trkpt lat="50.510475" lon="4.053248"><ele>112.69</ele><time>2025-05-25T02:04:44Z</time></trkpt>
<trkpt lat="50.510397" lon="4.053265"><ele>112.75</ele><time>2025-05-25T02:04:47Z</time></trkpt>
<trkpt lat="50.510322" lon="4.053216"><ele>112.58</ele><time>2025-05-25T02:04:51Z</time></trkpt>
<trkpt lat="50.509971" lon="4.052669"><ele>113.71</ele><time>2025-05-25T02:04:54Z</time></trkpt>
<trkpt lat="50.509898" lon="4.052594"><ele>113.7</ele><time>2025-05-25T02:04:57Z</time></trkpt>
<trkpt lat="50.509763" lon="4.052499"><ele>113.85</ele><time>2025-05-25T02:05:00Z</time></trkpt>
<trkpt lat="50.509409" lon="4.052328"><ele>113.33</ele><time>2025-05-25T02:05:03Z</time></trkpt>
<trkpt lat="50.509124" lon="4.052149"><ele>113.38</ele><time>2025-05-25T02:05:06Z</time></trkpt>
<trkpt lat="50.508172" lon="4.051385"><ele>114.0</ele><time>2025-05-25T02:05:09Z</time></trkpt>
<trkpt lat="50.507898" lon="4.050973"><ele>114.29</ele><time>2025-05-25T02:05:12Z</time></trkpt>
<trkpt lat="50.507233" lon="4.049888"><ele>114.36</ele><time>2025-05-25T02:05:15Z</time></trkpt>
<trkpt lat="50.507154" lon="4.049813"><ele>114.75</ele><time>2025-05-25T02:05:19Z</time></trkpt>
<trkpt lat="50.507088" lon="4.049803"><ele>114.85</ele><time>2025-05-25T02:05:22Z</time></trkpt>
<trkpt lat="50.506974" lon="4.049835"><ele>114.96</ele><time>2025-05-25T02:05:25Z</time></trkpt>
<trkpt lat="50.506053" lon="4.050268"><ele>116.79</ele><time>2025-05-25T02:05:28Z</time></trkpt>
<trkpt lat="50.505617" lon="4.050422"><ele>115.22</ele><time>2025-05-25T02:05:31Z</time></trkpt>
<trkpt lat="50.505176" lon="4.050529"><ele>115.46</ele><time>2025-05-25T02:05:34Z</time></trkpt>
<trkpt lat="50.499061" lon="4.051752"><ele>113.0</ele><time>2025-05-25T02:05:37Z</time></trkpt>
<trkpt lat="50.498367" lon="4.051961"><ele>111.17</ele><time>2025-05-25T02:05:40Z</time></trkpt>
<trkpt lat="50.49776" lon="4.052242"><ele>112.0</ele><time>2025-05-25T02:05:43Z</time></trkpt>
<trkpt lat="50.496232" lon="4.053014"><ele>107.43</ele><time>2025-05-25T02:05:47Z</time></trkpt>
<trkpt lat="50.495774" lon="4.053265"><ele>106.54</ele><time>2025-05-25T02:05:50Z</time></trkpt>
<trkpt lat="50.495601" lon="4.053421"><ele>106.43</ele><time>2025-05-25T02:05:53Z</time></trkpt>
<trkpt lat="50.494586" lon="4.054987"><ele>102.02</ele><time>2025-05-25T02:05:56Z</time></trkpt>
<trkpt lat="50.494515" lon="4.055087"><ele>102.0</ele><time>2025-05-25T02:05:59Z</time></trkpt>
<trkpt lat="50.494432" lon="4.055134"><ele>102.0</ele><time>2025-05-25T02:06:02Z</time></trkpt>
<trkpt lat="50.493909" lon="4.051686"><ele>103.14</ele><time>2025-05-25T02:06:13Z</time></trkpt>
<trkpt lat="50.493861" lon="4.051436"><ele>103.64</ele><time>2025-05-25T02:06:24Z</time></trkpt>
<trkpt lat="50.493745" lon="4.05099"><ele>102.75</ele><time>2025-05-25T02:06:36Z</time></trkpt>
<trkpt lat="50.493551" lon="4.050304"><ele>102.47</ele><time>2025-05-25T02:06:47Z</time></trkpt>
<trkpt lat="50.492385" lon="4.046203"><ele>95.0</ele><time>2025-05-25T02:06:58Z</time></trkpt>
<trkpt lat="50.491968" lon="4.044817"><ele>92.74</ele><time>2025-05-25T02:07:09Z</time></trkpt>
<trkpt lat="50.49159" lon="4.04366"><ele>92.18</ele><time>2025-05-25T02:07:20Z</time></trkpt>
<trkpt lat="50.490167" lon="4.039293"><ele>89.58</ele><time>2025-05-25T02:07:31Z</time></trkpt>
<trkpt lat="50.489906" lon="4.038695"><ele>89.1</ele><time>2025-05-25T02:07:42Z</time></trkpt>
<trkpt lat="50.489373" lon="4.03776"><ele>87.0</ele><time>2025-05-25T02:07:54Z</time></trkpt>
<trkpt lat="50.487486" lon="4.034502"><ele>86.0</ele><time>2025-05-25T02:08:05Z</time></trkpt>
<trkpt lat="50.486654" lon="4.032737"><ele>83.09</ele><time>2025-05-25T02:08:16Z</time></trkpt>
<trkpt lat="50.486399" lon="4.03193"><ele>80.11</ele><time>2025-05-25T02:08:27Z</time></trkpt>
<trkpt lat="50.486193" lon="4.03116"><ele>79.59</ele><time>2025-05-25T02:08:38Z</time></trkpt>
<trkpt lat="50.486159" lon="4.031122"><ele>79.35</ele><time>2025-05-25T02:08:49Z</time></trkpt>
<trkpt lat="50.486124" lon="4.03112"><ele>79.09</ele><time>2025-05-25T02:09:01Z</time></trkpt>
<trkpt lat="50.486035" lon="4.031174"><ele>78.73</ele><time>2025-05-25T02:09:12Z</time></trkpt>
<trkpt lat="50.485433" lon="4.031678"><ele>78.02</ele><time>2025-05-25T02:09:23Z</time></trkpt>
<trkpt lat="50.485036" lon="4.032071"><ele>79.85</ele><time>2025-05-25T02:09:34Z</time></trkpt>
<trkpt lat="50.484957" lon="4.032202"><ele>80.7</ele><time>2025-05-25T02:09:45Z</time></trkpt>
<trkpt lat="50.484921" lon="4.032338"><ele>81.13</ele><time>2025-05-25T02:09:56Z</time></trkpt>
<trkpt lat="50.484707" lon="4.033517"><ele>82.83</ele><time>2025-05-25T02:10:07Z</time></trkpt>
<trkpt lat="50.484162" lon="4.035669"><ele>81.4</ele><time>2025-05-25T02:10:19Z</time></trkpt>
<trkpt lat="50.483428" lon="4.034158"><ele>81.03</ele><time>2025-05-25T02:10:31Z</time></trkpt>
<trkpt lat="50.483351" lon="4.034148"><ele>81.07</ele><time>2025-05-25T02:10:32Z</time></trkpt>
<trkpt lat="50.483278" lon="4.034168"><ele>80.99</ele><time>2025-05-25T02:10:32Z</time></trkpt>
<trkpt lat="50.483226" lon="4.03423"><ele>80.86</ele><time>2025-05-25T02:10:33Z</time></trkpt>
<trkpt lat="50.483184" lon="4.034321"><ele>80.74</ele><time>2025-05-25T02:10:34Z</time></trkpt>
<trkpt lat="50.483137" lon="4.035293"><ele>82.35</ele><time>2025-05-25T02:10:39Z</time></trkpt>
<trkpt lat="50.48306" lon="4.03597"><ele>81.53</ele><time>2025-05-25T02:10:44Z</time></trkpt>
<trkpt lat="50.482974" lon="4.036572"><ele>81.37</ele><time>2025-05-25T02:10:49Z</time></trkpt>
<trkpt lat="50.482757" lon="4.037869"><ele>78.92</ele><time>2025-05-25T02:10:53Z</time></trkpt>
<trkpt lat="50.482704" lon="4.037991"><ele>78.74</ele><time>2025-05-25T02:10:58Z</time></trkpt>
<trkpt lat="50.482651" lon="4.038069"><ele>78.5</ele><time>2025-05-25T02:11:03Z</time></trkpt>
<trkpt lat="50.482571" lon="4.038151"><ele>77.91</ele><time>2025-05-25T02:11:08Z</time></trkpt>
<trkpt lat="50.482483" lon="4.038202"><ele>77.44</ele><time>2025-05-25T02:11:13Z</time></trkpt>
<trkpt lat="50.481813" lon="4.038332"><ele>77.0</ele><time>2025-05-25T02:11:18Z</time></trkpt>
<trkpt lat="50.481561" lon="4.038352"><ele>76.93</ele><time>2025-05-25T02:11:23Z</time></trkpt>
<trkpt lat="50.481409" lon="4.03831"><ele>77.08</ele><time>2025-05-25T02:11:28Z</time></trkpt>
<trkpt lat="50.481202" lon="4.038184"><ele>77.18</ele><time>2025-05-25T02:11:33Z</time></trkpt>
<trkpt lat="50.48072" lon="4.037681"><ele>73.59</ele><time>2025-05-25T02:11:38Z</time></trkpt>
<trkpt lat="50.480607" lon="4.037602"><ele>73.18</ele><time>2025-05-25T02:11:43Z</time></trkpt>
<trkpt lat="50.480474" lon="4.037546"><ele>72.71</ele><time>2025-05-25T02:11:47Z</time></trkpt>
<trkpt lat="50.479538" lon="4.03736"><ele>74.32</ele><time>2025-05-25T02:11:52Z</time></trkpt>
<trkpt lat="50.479111" lon="4.037296"><ele>75.65</ele><time>2025-05-25T02:11:57Z</time></trkpt>
<trkpt lat="50.478916" lon="4.037297"><ele>74.44</ele><time>2025-05-25T02:12:02Z</time></trkpt>
<trkpt lat="50.477621" lon="4.037486"><ele>74.05</ele><time>2025-05-25T02:12:07Z</time></trkpt>
<trkpt lat="50.477462" lon="4.037471"><ele>73.97</ele><time>2025-05-25T02:12:12Z</time></trkpt>
<trkpt lat="50.474045" lon="4.03666"><ele>61.97</ele><time>2025-05-25T02:12:17Z</time></trkpt>
<trkpt lat="50.471978" lon="4.036142"><ele>52.15</ele><time>2025-05-25T02:12:22Z</time></trkpt>
<trkpt lat="50.471823" lon="4.036122"><ele>51.05</ele><time>2025-05-25T02:12:27Z</time></trkpt>
<trkpt lat="50.471802" lon="4.035103"><ele>54.94</ele><time>2025-05-25T02:12:36Z</time></trkpt>
<trkpt lat="50.471864" lon="4.0332"><ele>52.13</ele><time>2025-05-25T02:12:45Z</time></trkpt>
<trkpt lat="50.471844" lon="4.03184"><ele>50.04</ele><time>2025-05-25T02:12:55Z</time></trkpt>
<trkpt lat="50.470109" lon="4.031951"><ele>47.42</ele><time>2025-05-25T02:12:59Z</time></trkpt>
<trkpt lat="50.46997" lon="4.032005"><ele>46.92</ele><time>2025-05-25T02:13:02Z</time></trkpt>
<trkpt lat="50.469784" lon="4.032174"><ele>46.14</ele><time>2025-05-25T02:13:06Z</time></trkpt>
<trkpt lat="50.469655" lon="4.032404"><ele>46.09</ele><time>2025-05-25T02:13:10Z</time></trkpt>
<trkpt lat="50.46956" lon="4.032766"><ele>47.35</ele><time>2025-05-25T02:13:14Z</time></trkpt>
<trkpt lat="50.469221" lon="4.034445"><ele>45.39</ele><time>2025-05-25T02:13:18Z</time></trkpt>
<trkpt lat="50.469151" lon="4.03464"><ele>45.65</ele><time>2025-05-25T02:13:22Z</time></trkpt>
<trkpt lat="50.46836" lon="4.0361"><ele>44.42</ele><time>2025-05-25T02:13:26Z</time></trkpt>
<trkpt lat="50.46814" lon="4.036385"><ele>42.61</ele><time>2025-05-25T02:13:30Z</time></trkpt>
<trkpt lat="50.467723" lon="4.036864"><ele>40.8</ele><time>2025-05-25T02:13:34Z</time></trkpt>
<trkpt lat="50.467647" lon="4.036971"><ele>40.53</ele><time>2025-05-25T02:13:38Z</time></trkpt>
<trkpt lat="50.46752" lon="4.037214"><ele>40.07</ele><time>2025-05-25T02:13:42Z</time></trkpt>
<trkpt lat="50.467426" lon="4.037725"><ele>42.4</ele><time>2025-05-25T02:13:46Z</time></trkpt>
<trkpt lat="50.467403" lon="4.037973"><ele>42.65</ele><time>2025-05-25T02:13:50Z</time></trkpt>
<trkpt lat="50.467429" lon="4.038317"><ele>43.69</ele><time>2025-05-25T02:13:54Z</time></trkpt>
<trkpt lat="50.467487" lon="4.038523"><ele>43.95</ele><time>2025-05-25T02:13:58Z</time></trkpt>
<trkpt lat="50.467549" lon="4.038627"><ele>43.94</ele><time>2025-05-25T02:14:01Z</time></trkpt>
<trkpt lat="50.468054" lon="4.03924"><ele>42.74</ele><time>2025-05-25T02:14:05Z</time></trkpt>
<trkpt lat="50.46848" lon="4.039646"><ele>41.15</ele><time>2025-05-25T02:14:09Z</time></trkpt>
<trkpt lat="50.467803" lon="4.041178"><ele>40.69</ele><time>2025-05-25T02:14:19Z</time></trkpt>
<trkpt lat="50.465174" lon="4.04469"><ele>41.93</ele><time>2025-05-25T02:14:29Z</time></trkpt>
<trkpt lat="50.464683" lon="4.045474"><ele>44.49</ele><time>2025-05-25T02:14:39Z</time></trkpt>
<trkpt lat="50.464514" lon="4.045947"><ele>45.9</ele><time>2025-05-25T02:14:49Z</time></trkpt>
<trkpt lat="50.464208" lon="4.046037"><ele>47.58</ele><time>2025-05-25T02:14:52Z</time></trkpt>
<trkpt lat="50.463823" lon="4.045053"><ele>48.24</ele><time>2025-05-25T02:15:04Z</time></trkpt>
<trkpt lat="50.463338" lon="4.0435"><ele>46.98</ele><time>2025-05-25T02:15:16Z</time></trkpt>
<trkpt lat="50.46255" lon="4.043975"><ele>50.82</ele><time>2025-05-25T02:15:24Z</time></trkpt>
<trkpt lat="50.462457" lon="4.043999"><ele>51.15</ele><time>2025-05-25T02:15:31Z</time></trkpt>
<trkpt lat="50.461781" lon="4.044413"><ele>52.47</ele><time>2025-05-25T02:15:39Z</time></trkpt>
<trkpt lat="50.460733" lon="4.044832"><ele>56.61</ele><time>2025-05-25T02:15:46Z</time></trkpt>
<trkpt lat="50.460287" lon="4.045069"><ele>57.97</ele><time>2025-05-25T02:15:54Z</time></trkpt>
<trkpt lat="50.459702" lon="4.045437"><ele>59.08</ele><time>2025-05-25T02:16:01Z</time></trkpt>
<trkpt lat="50.459549" lon="4.045513"><ele>60.06</ele><time>2025-05-25T02:16:09Z</time></trkpt>
<trkpt lat="50.459481" lon="4.045521"><ele>60.53</ele><time>2025-05-25T02:16:16Z</time></trkpt>
<trkpt lat="50.459214" lon="4.045437"><ele>61.46</ele><time>2025-05-25T02:16:23Z</time></trkpt>
<trkpt lat="50.457717" lon="4.044506"><ele>57.0</ele><time>2025-05-25T02:16:31Z</time></trkpt>
<trkpt lat="50.457451" lon="4.044285"><ele>56.6</ele><time>2025-05-25T02:16:38Z</time></trkpt>
<trkpt lat="50.4574" lon="4.044212"><ele>56.52</ele><time>2025-05-25T02:16:50Z</time></trkpt>
<trkpt lat="50.457341" lon="4.044214"><ele>56.74</ele><time>2025-05-25T02:17:02Z</time></trkpt>
<trkpt lat="50.4573" lon="4.044265"><ele>57.07</ele><time>2025-05-25T02:17:14Z</time></trkpt>
<trkpt lat="50.45729" lon="4.044382"><ele>57.53</ele><time>2025-05-25T02:17:25Z</time></trkpt>
<trkpt lat="50.457244" lon="4.044497"><ele>57.92</ele><time>2025-05-25T02:17:37Z</time></trkpt>
<trkpt lat="50.456689" lon="4.044947"><ele>59.1</ele><time>2025-05-25T02:17:49Z</time></trkpt>
<trkpt lat="50.454658" lon="4.04657"><ele>59.88</ele><time>2025-05-25T02:18:01Z</time></trkpt>
<trkpt lat="50.452343" lon="4.048503"><ele>62.43</ele><time>2025-05-25T02:18:12Z</time></trkpt>
<trkpt lat="50.451894" lon="4.048773"><ele>60.89</ele><time>2025-05-25T02:18:24Z</time></trkpt>
<trkpt lat="50.449624" lon="4.049747"><ele>60.65</ele><time>2025-05-25T02:18:36Z</time></trkpt>
<trkpt lat="50.447966" lon="4.050412"><ele>58.48</ele><time>2025-05-25T02:18:48Z</time></trkpt>
<trkpt lat="50.447758" lon="4.050432"><ele>58.59</ele><time>2025-05-25T02:18:59Z</time></trkpt>
<trkpt lat="50.446986" lon="4.050432"><ele>58.55</ele><time>2025-05-25T02:19:11Z</time></trkpt>
<trkpt lat="50.434583" lon="4.050384"><ele>74.31</ele><time>2025-05-25T02:19:23Z</time></trkpt>
<trkpt lat="50.431449" lon="4.05037"><ele>80.67</ele><time>2025-05-25T02:19:35Z</time></trkpt>
<trkpt lat="50.431356" lon="4.050397"><ele>80.81</ele><time>2025-05-25T02:19:46Z</time></trkpt>
<trkpt lat="50.430883" lon="4.050465"><ele>83.15</ele><time>2025-05-25T02:19:58Z</time></trkpt>
<trkpt lat="50.429339" lon="4.050498"><ele>85.17</ele><time>2025-05-25T02:20:10Z</time></trkpt>
<trkpt lat="50.423557" lon="4.050681"><ele>91.19</ele><time>2025-05-25T02:20:22Z</time></trkpt>
<trkpt lat="50.423328" lon="4.050712"><ele>91.98</ele><time>2025-05-25T02:20:33Z</time></trkpt>
<trkpt lat="50.422953" lon="4.050826"><ele>89.89</ele><time>2025-05-25T02:20:45Z</time></trkpt>
<trkpt lat="50.418392" lon="4.052506"><ele>82.0</ele><time>2025-05-25T02:20:57Z</time></trkpt>
<trkpt lat="50.418132" lon="4.052608"><ele>81.56</ele><time>2025-05-25T02:21:09Z</time></trkpt>
<trkpt lat="50.417839" lon="4.052679"><ele>81.64</ele><time>2025-05-25T02:21:21Z</time></trkpt>
<trkpt lat="50.415955" lon="4.053059"><ele>82.57</ele><time>2025-05-25T02:21:32Z</time></trkpt>
<trkpt lat="50.414743" lon="4.053518"><ele>82.9</ele><time>2025-05-25T02:21:44Z</time></trkpt>
<trkpt lat="50.414531" lon="4.053648"><ele>84.42</ele><time>2025-05-25T02:21:56Z</time></trkpt>
<trkpt lat="50.414305" lon="4.05387"><ele>85.47</ele><time>2025-05-25T02:22:08Z</time></trkpt>
<trkpt lat="50.413226" lon="4.055341"><ele>87.09</ele><time>2025-05-25T02:22:19Z</time></trkpt>
<trkpt lat="50.413043" lon="4.055565"><ele>87.95</ele><time>2025-05-25T02:22:31Z</time></trkpt>
<trkpt lat="50.412087" lon="4.05646"><ele>88.76</ele><time>2025-05-25T02:22:43Z</time></trkpt>
<trkpt lat="50.41178" lon="4.056723"><ele>87.82</ele><time>2025-05-25T02:22:55Z</time></trkpt>
<trkpt lat="50.410304" lon="4.057862"><ele>91.0</ele><time>2025-05-25T02:23:06Z</time></trkpt>
<trkpt lat="50.410076" lon="4.05811"><ele>90.42</ele><time>2025-05-25T02:23:18Z</time></trkpt>
<trkpt lat="50.410014" lon="4.058211"><ele>90.58</ele><time>2025-05-25T02:23:30Z</time></trkpt>
<trkpt lat="50.40987" lon="4.058533"><ele>91.34</ele><time>2025-05-25T02:23:42Z</time></trkpt>
<trkpt lat="50.409724" lon="4.058483"><ele>91.53</ele><time>2025-05-25T02:23:43Z</time></trkpt>
<trkpt lat="50.409462" lon="4.058443"><ele>91.39</ele><time>2025-05-25T02:23:44Z</time></trkpt>
<trkpt lat="50.409315" lon="4.058729"><ele>91.96</ele><time>2025-05-25T02:23:51Z</time></trkpt>
<trkpt lat="50.409082" lon="4.058923"><ele>91.69</ele><time>2025-05-25T02:23:58Z</time></trkpt>
<trkpt lat="50.408843" lon="4.059178"><ele>90.87</ele><time>2025-05-25T02:24:06Z</time></trkpt>
<trkpt lat="50.407852" lon="4.060363"><ele>92.22</ele><time>2025-05-25T02:24:13Z</time></trkpt>
<trkpt lat="50.407519" lon="4.060658"><ele>92.07</ele><time>2025-05-25T02:24:20Z</time></trkpt>
<trkpt lat="50.404465" lon="4.062876"><ele>99.0</ele><time>2025-05-25T02:24:27Z</time></trkpt>
<trkpt lat="50.403456" lon="4.063575"><ele>104.3</ele><time>2025-05-25T02:24:34Z</time></trkpt>
<trkpt lat="50.402888" lon="4.064019"><ele>106.4</ele><time>2025-05-25T02:24:42Z</time></trkpt>
<trkpt lat="50.401942" lon="4.064695"><ele>108.0</ele><time>2025-05-25T02:24:49Z</time></trkpt>
<trkpt lat="50.401472" lon="4.065074"><ele>109.0</ele><time>2025-05-25T02:24:56Z</time></trkpt>
<trkpt lat="50.401327" lon="4.065228"><ele>108.78</ele><time>2025-05-25T02:25:03Z</time></trkpt>
<trkpt lat="50.401179" lon="4.065427"><ele>108.78</ele><time>2025-05-25T02:25:11Z</time></trkpt>
<trkpt lat="50.400235" lon="4.06685"><ele>103.9</ele><time>2025-05-25T02:25:18Z</time></trkpt>
<trkpt lat="50.40005" lon="4.067081"><ele>102.69</ele><time>2025-05-25T02:25:25Z</time></trkpt>
<trkpt lat="50.399267" lon="4.067903"><ele>96.91</ele><time>2025-05-25T02:25:32Z</time></trkpt>
<trkpt lat="50.398957" lon="4.068252"><ele>94.36</ele><time>2025-05-25T02:25:40Z</time></trkpt>
<trkpt lat="50.397877" lon="4.069718"><ele>89.01</ele><time>2025-05-25T02:25:47Z</time></trkpt>
<trkpt lat="50.396662" lon="4.071502"><ele>86.01</ele><time>2025-05-25T02:25:54Z</time></trkpt>
<trkpt lat="50.396407" lon="4.071924"><ele>86.87</ele><time>2025-05-25T02:26:01Z</time></trkpt>
<trkpt lat="50.39632" lon="4.072088"><ele>87.51</ele><time>2025-05-25T02:26:08Z</time></trkpt>
<trkpt lat="50.395933" lon="4.073007"><ele>88.36</ele><time>2025-05-25T02:26:16Z</time></trkpt>
<trkpt lat="50.395577" lon="4.073747"><ele>87.0</ele><time>2025-05-25T02:26:23Z</time></trkpt>
<trkpt lat="50.394183" lon="4.0765"><ele>90.46</ele><time>2025-05-25T02:26:30Z</time></trkpt>
<trkpt lat="50.394013" lon="4.076763"><ele>91.71</ele><time>2025-05-25T02:26:37Z</time></trkpt>
<trkpt lat="50.393831" lon="4.077"><ele>92.41</ele><time>2025-05-25T02:26:45Z</time></trkpt>
<trkpt lat="50.393659" lon="4.077287"><ele>93.87</ele><time>2025-05-25T02:26:52Z</time></trkpt>
<trkpt lat="50.393192" lon="4.078195"><ele>95.0</ele><time>2025-05-25T02:26:59Z</time></trkpt>
<trkpt lat="50.393082" lon="4.078455"><ele>95.0</ele><time>2025-05-25T02:27:06Z</time></trkpt>
<trkpt lat="50.393027" lon="4.078682"><ele>95.23</ele><time>2025-05-25T02:27:14Z</time></trkpt>
<trkpt lat="50.393008" lon="4.078867"><ele>95.76</ele><time>2025-05-25T02:27:21Z</time></trkpt>
<trkpt lat="50.393" lon="4.079688"><ele>97.0</ele><time>2025-05-25T02:27:28Z</time></trkpt>
<trkpt lat="50.392991" lon="4.079834"><ele>97.4</ele><time>2025-05-25T02:27:35Z</time></trkpt>
<trkpt lat="50.392947" lon="4.080082"><ele>98.29</ele><time>2025-05-25T02:27:42Z</time></trkpt>
<trkpt lat="50.392433" lon="4.081461"><ele>102.26</ele><time>2025-05-25T02:27:50Z</time></trkpt>
<trkpt lat="50.391633" lon="4.08274"><ele>107.86</ele><time>2025-05-25T02:27:57Z</time></trkpt>
<trkpt lat="50.391658" lon="4.082819"><ele>108.14</ele><time>2025-05-25T02:27:58Z</time></trkpt>
<trkpt lat="50.389941" lon="4.084817"><ele>109.55</ele><time>2025-05-25T02:28:21Z</time></trkpt>
<trkpt lat="50.38801" lon="4.086995"><ele>110.18</ele><time>2025-05-25T02:28:44Z</time></trkpt>
<trkpt lat="50.387921" lon="4.086953"><ele>110.03</ele><time>2025-05-25T02:28:47Z</time></trkpt>
<trkpt lat="50.387265" lon="4.08677"><ele>109.15</ele><time>2025-05-25T02:28:51Z</time></trkpt>
<trkpt lat="50.386884" lon="4.086619"><ele>108.83</ele><time>2025-05-25T02:28:55Z</time></trkpt>
<trkpt lat="50.386432" lon="4.086403"><ele>109.65</ele><time>2025-05-25T02:28:58Z</time></trkpt>
<trkpt lat="50.386332" lon="4.086295"><ele>110.0</ele><time>2025-05-25T02:29:02Z</time></trkpt>
<trkpt lat="50.386284" lon="4.086429"><ele>109.86</ele><time>2025-05-25T02:29:07Z</time></trkpt>
<trkpt lat="50.385878" lon="4.087305"><ele>110.0</ele><time>2025-05-25T02:29:12Z</time></trkpt>
<trkpt lat="50.385624" lon="4.08793"><ele>110.89</ele><time>2025-05-25T02:29:17Z</time></trkpt>
<trkpt lat="50.384811" lon="4.089556"><ele>111.68</ele><time>2025-05-25T02:29:23Z</time></trkpt>
<trkpt lat="50.384694" lon="4.089748"><ele>111.81</ele><time>2025-05-25T02:29:28Z</time></trkpt>
<trkpt lat="50.384472" lon="4.089996"><ele>111.0</ele><time>2025-05-25T02:29:33Z</time></trkpt>
<trkpt lat="50.383939" lon="4.090397"><ele>109.65</ele><time>2025-05-25T02:29:38Z</time></trkpt>
<trkpt lat="50.383826" lon="4.090499"><ele>109.16</ele><time>2025-05-25T02:29:43Z</time></trkpt>
<trkpt lat="50.383752" lon="4.090611"><ele>109.2</ele><time>2025-05-25T02:29:49Z</time></trkpt>
<trkpt lat="50.383665" lon="4.090874"><ele>110.15</ele><time>2025-05-25T02:29:54Z</time></trkpt>
<trkpt lat="50.383641" lon="4.091033"><ele>110.72</ele><time>2025-05-25T02:29:59Z</time></trkpt>
<trkpt lat="50.383566" lon="4.09187"><ele>113.16</ele><time>2025-05-25T02:30:04Z</time></trkpt>
<trkpt lat="50.383504" lon="4.092092"><ele>113.39</ele><time>2025-05-25T02:30:10Z</time></trkpt>
<trkpt lat="50.383465" lon="4.092159"><ele>113.53</ele><time>2025-05-25T02:30:15Z</time></trkpt>
<trkpt lat="50.383331" lon="4.092267"><ele>114.01</ele><time>2025-05-25T02:30:20Z</time></trkpt>
<trkpt lat="50.383191" lon="4.092312"><ele>114.51</ele><time>2025-05-25T02:30:25Z</time></trkpt>
<trkpt lat="50.382855" lon="4.092352"><ele>114.61</ele><time>2025-05-25T02:30:30Z</time></trkpt>
<trkpt lat="50.382614" lon="4.092425"><ele>114.89</ele><time>2025-05-25T02:30:36Z</time></trkpt>
<trkpt lat="50.382362" lon="4.092607"><ele>116.19</ele><time>2025-05-25T02:30:41Z</time></trkpt>
<trkpt lat="50.382034" lon="4.092919"><ele>117.68</ele><time>2025-05-25T02:30:46Z</time></trkpt>
<trkpt lat="50.381538" lon="4.093539"><ele>119.46</ele><time>2025-05-25T02:30:51Z</time></trkpt>
<trkpt lat="50.381425" lon="4.093718"><ele>119.48</ele><time>2025-05-25T02:30:56Z</time></trkpt>
<trkpt lat="50.3813" lon="4.094033"><ele>119.32</ele><time>2025-05-25T02:31:02Z</time></trkpt>
<trkpt lat="50.380769" lon="4.095594"><ele>115.97</ele><time>2025-05-25T02:31:07Z</time></trkpt>
<trkpt lat="50.380315" lon="4.097037"><ele>113.96</ele><time>2025-05-25T02:31:12Z</time></trkpt>
<trkpt lat="50.380186" lon="4.097344"><ele>113.71</ele><time>2025-05-25T02:31:17Z</time></trkpt>
<trkpt lat="50.380039" lon="4.097596"><ele>113.51</ele><time>2025-05-25T02:31:23Z</time></trkpt>
<trkpt lat="50.379889" lon="4.097717"><ele>113.22</ele><time>2025-05-25T02:31:28Z</time></trkpt>
<trkpt lat="50.379504" lon="4.0979"><ele>113.35</ele><time>2025-05-25T02:31:33Z</time></trkpt>
<trkpt lat="50.379317" lon="4.097967"><ele>113.22</ele><time>2025-05-25T02:31:38Z</time></trkpt>
<trkpt lat="50.37893" lon="4.098053"><ele>113.85</ele><time>2025-05-25T02:31:43Z</time></trkpt>
<trkpt lat="50.378665" lon="4.098193"><ele>115.71</ele><time>2025-05-25T02:31:49Z</time></trkpt>
<trkpt lat="50.378459" lon="4.098365"><ele>116.0</ele><time>2025-05-25T02:31:54Z</time></trkpt>
<trkpt lat="50.378304" lon="4.098543"><ele>116.0</ele><time>2025-05-25T02:31:59Z</time></trkpt>
<trkpt lat="50.378214" lon="4.098615"><ele>115.99</ele><time>2025-05-25T02:32:04Z</time></trkpt>
<trkpt lat="50.377867" lon="4.09879"><ele>114.92</ele><time>2025-05-25T02:32:10Z</time></trkpt>
<trkpt lat="50.377709" lon="4.098897"><ele>114.0</ele><time>2025-05-25T02:32:15Z</time></trkpt>
<trkpt lat="50.377128" lon="4.099684"><ele>115.59</ele><time>2025-05-25T02:32:20Z</time></trkpt>
<trkpt lat="50.376867" lon="4.100408"><ele>118.13</ele><time>2025-05-25T02:32:25Z</time></trkpt>
<trkpt lat="50.376582" lon="4.101601"><ele>118.91</ele><time>2025-05-25T02:32:30Z</time></trkpt>
<trkpt lat="50.376492" lon="4.10186"><ele>119.0</ele><time>2025-05-25T02:32:36Z</time></trkpt>
<trkpt lat="50.374883" lon="4.105246"><ele>129.19</ele><time>2025-05-25T02:32:41Z</time></trkpt>
<trkpt lat="50.37459" lon="4.105974"><ele>132.51</ele><time>2025-05-25T02:32:46Z</time></trkpt>
<trkpt lat="50.374419" lon="4.106319"><ele>133.68</ele><time>2025-05-25T02:32:51Z</time></trkpt>
<trkpt lat="50.374307" lon="4.106489"><ele>133.87</ele><time>2025-05-25T02:32:56Z</time></trkpt>
<trkpt lat="50.374051" lon="4.106779"><ele>133.58</ele><time>2025-05-25T02:33:02Z</time></trkpt>
<trkpt lat="50.373246" lon="4.107429"><ele>136.0</ele><time>2025-05-25T02:33:07Z</time></trkpt>
<trkpt lat="50.372033" lon="4.108484"><ele>134.0</ele><time>2025-05-25T02:33:12Z</time></trkpt>
<trkpt lat="50.371784" lon="4.108722"><ele>134.98</ele><time>2025-05-25T02:33:17Z</time></trkpt>
<trkpt lat="50.371582" lon="4.108955"><ele>136.3</ele><time>2025-05-25T02:33:23Z</time></trkpt>
<trkpt lat="50.371489" lon="4.109088"><ele>136.64</ele><time>2025-05-25T02:33:28Z</time></trkpt>
<trkpt lat="50.371323" lon="4.108632"><ele>136.07</ele><time>2025-05-25T02:33:35Z</time></trkpt>
<trkpt lat="50.37081" lon="4.107531"><ele>133.09</ele><time>2025-05-25T02:33:41Z</time></trkpt>
<trkpt lat="50.370776" lon="4.107376"><ele>133.21</ele><time>2025-05-25T02:33:48Z</time></trkpt>
<trkpt lat="50.370328" lon="4.108458"><ele>133.18</ele><time>2025-05-25T02:33:51Z</time></trkpt>
<trkpt lat="50.370266" lon="4.108664"><ele>132.77</ele><time>2025-05-25T02:33:54Z</time></trkpt>
<trkpt lat="50.370213" lon="4.108933"><ele>131.76</ele><time>2025-05-25T02:33:57Z</time></trkpt>
<trkpt lat="50.370171" lon="4.109259"><ele>131.74</ele><time>2025-05-25T02:34:00Z</time></trkpt>
<trkpt lat="50.370157" lon="4.109529"><ele>132.3</ele><time>2025-05-25T02:34:03Z</time></trkpt>
<trkpt lat="50.370159" lon="4.109764"><ele>133.24</ele><time>2025-05-25T02:34:06Z</time></trkpt>
<trkpt lat="50.37022" lon="4.110417"><ele>133.29</ele><time>2025-05-25T02:34:09Z</time></trkpt>
<trkpt lat="50.367905" lon="4.112098"><ele>135.11</ele><time>2025-05-25T02:34:13Z</time></trkpt>
<trkpt lat="50.367615" lon="4.112285"><ele>135.18</ele><time>2025-05-25T02:34:17Z</time></trkpt>
<trkpt lat="50.367409" lon="4.112376"><ele>134.78</ele><time>2025-05-25T02:34:21Z</time></trkpt>
<trkpt lat="50.367102" lon="4.112429"><ele>134.6</ele><time>2025-05-25T02:34:25Z</time></trkpt>
<trkpt lat="50.366866" lon="4.11241"><ele>134.68</ele><time>2025-05-25T02:34:29Z</time></trkpt>
<trkpt lat="50.366112" lon="4.112217"><ele>134.98</ele><time>2025-05-25T02:34:33Z</time></trkpt>
<trkpt lat="50.365939" lon="4.11219"><ele>134.88</ele><time>2025-05-25T02:34:37Z</time></trkpt>
<trkpt lat="50.365779" lon="4.112202"><ele>134.53</ele><time>2025-05-25T02:34:41Z</time></trkpt>
<trkpt lat="50.365635" lon="4.112267"><ele>133.57</ele><time>2025-05-25T02:34:45Z</time></trkpt>
<trkpt lat="50.365424" lon="4.112441"><ele>132.53</ele><time>2025-05-25T02:34:49Z</time></trkpt>
<trkpt lat="50.365237" lon="4.112721"><ele>132.65</ele><time>2025-05-25T02:34:53Z</time></trkpt>
<trkpt lat="50.365057" lon="4.113181"><ele>134.11</ele><time>2025-05-25T02:34:57Z</time></trkpt>
<trkpt lat="50.364816" lon="4.114008"><ele>135.68</ele><time>2025-05-25T02:35:01Z</time></trkpt>
<trkpt lat="50.364757" lon="4.114265"><ele>135.56</ele><time>2025-05-25T02:35:05Z</time></trkpt>
<trkpt lat="50.364692" lon="4.114551"><ele>135.89</ele><time>2025-05-25T02:35:09Z</time></trkpt>
<trkpt lat="50.364582" lon="4.115289"><ele>136.48</ele><time>2025-05-25T02:35:13Z</time></trkpt>
<trkpt lat="50.36451" lon="4.115619"><ele>135.82</ele><time>2025-05-25T02:35:17Z</time></trkpt>
<trkpt lat="50.364456" lon="4.11577"><ele>135.26</ele><time>2025-05-25T02:35:21Z</time></trkpt>
<trkpt lat="50.364233" lon="4.116233"><ele>134.76</ele><time>2025-05-25T02:35:25Z</time></trkpt>
<trkpt lat="50.364045" lon="4.116518"><ele>135.7</ele><time>2025-05-25T02:35:29Z</time></trkpt>
<trkpt lat="50.362946" lon="4.117774"><ele>135.01</ele><time>2025-05-25T02:35:33Z</time></trkpt>
<trkpt lat="50.36273" lon="4.117903"><ele>135.0</ele><time>2025-05-25T02:35:37Z</time></trkpt>
<trkpt lat="50.362557" lon="4.117949"><ele>135.0</ele><time>2025-05-25T02:35:41Z</time></trkpt>
<trkpt lat="50.359012" lon="4.117542"><ele>135.0</ele><time>2025-05-25T02:35:45Z</time></trkpt>
<trkpt lat="50.358623" lon="4.117565"><ele>134.27</ele><time>2025-05-25T02:35:49Z</time></trkpt>
<trkpt lat="50.353026" lon="4.118739"><ele>139.46</ele><time>2025-05-25T02:35:53Z</time></trkpt>
<trkpt lat="50.35291" lon="4.118786"><ele>139.63</ele><time>2025-05-25T02:35:57Z</time></trkpt>
<trkpt lat="50.352793" lon="4.118873"><ele>139.94</ele><time>2025-05-25T02:36:01Z</time></trkpt>
<trkpt lat="50.352721" lon="4.118961"><ele>140.0</ele><time>2025-05-25T02:36:05Z</time></trkpt>
<trkpt lat="50.352384" lon="4.119691"><ele>140.0</ele><time>2025-05-25T02:36:09Z</time></trkpt>
<trkpt lat="50.35213" lon="4.120042"><ele>139.33</ele><time>2025-05-25T02:36:13Z</time></trkpt>
<trkpt lat="50.352057" lon="4.120233"><ele>139.59</ele><time>2025-05-25T02:36:17Z</time></trkpt>
<trkpt lat="50.351995" lon="4.120658"><ele>139.88</ele><time>2025-05-25T02:36:21Z</time></trkpt>
<trkpt lat="50.352002" lon="4.121172"><ele>141.0</ele><time>2025-05-25T02:36:25Z</time></trkpt>
<trkpt lat="50.35207" lon="4.121862"><ele>140.45</ele><time>2025-05-25T02:36:29Z</time></trkpt>
<trkpt lat="50.352115" lon="4.122057"><ele>141.02</ele><time>2025-05-25T02:36:33Z</time></trkpt>
<trkpt lat="50.352234" lon="4.122442"><ele>142.79</ele><time>2025-05-25T02:36:37Z</time></trkpt>
<trkpt lat="50.352362" lon="4.122959"><ele>144.0</ele><time>2025-05-25T02:36:41Z</time></trkpt>
<trkpt lat="50.352409" lon="4.123203"><ele>144.36</ele><time>2025-05-25T02:36:45Z</time></trkpt>
<trkpt lat="50.35242" lon="4.123339"><ele>144.71</ele><time>2025-05-25T02:36:49Z</time></trkpt>
<trkpt lat="50.35241" lon="4.123819"><ele>145.43</ele><time>2025-05-25T02:36:53Z</time></trkpt>
<trkpt lat="50.352391" lon="4.12394"><ele>145.61</ele><time>2025-05-25T02:36:57Z</time></trkpt>
<trkpt lat="50.352275" lon="4.124351"><ele>145.19</ele><time>2025-05-25T02:37:01Z</time></trkpt>
<trkpt lat="50.352247" lon="4.124639"><ele>145.09</ele><time>2025-05-25T02:37:05Z</time></trkpt>
<trkpt lat="50.35233" lon="4.126097"><ele>144.36</ele><time>2025-05-25T02:37:09Z</time></trkpt>
<trkpt lat="50.352121" lon="4.128537"><ele>147.0</ele><time>2025-05-25T02:37:13Z</time></trkpt>
<trkpt lat="50.352112" lon="4.128971"><ele>148.0</ele><time>2025-05-25T02:37:17Z</time></trkpt>
<trkpt lat="50.352173" lon="4.130185"><ele>150.55</ele><time>2025-05-25T02:37:21Z</time></trkpt>
<trkpt lat="50.35251" lon="4.132434"><ele>151.96</ele><time>2025-05-25T02:37:25Z</time></trkpt>
<trkpt lat="50.352528" lon="4.13269"><ele>151.9</ele><time>2025-05-25T02:37:29Z</time></trkpt>
<trkpt lat="50.352524" lon="4.132982"><ele>151.98</ele><time>2025-05-25T02:37:33Z</time></trkpt>
<trkpt lat="50.352471" lon="4.133386"><ele>153.0</ele><time>2025-05-25T02:37:37Z</time></trkpt>
<trkpt lat="50.351099" lon="4.138559"><ele>182.32</ele><time>2025-05-25T02:37:41Z</time></trkpt>
<trkpt lat="50.351068" lon="4.138767"><ele>181.82</ele><time>2025-05-25T02:37:45Z</time></trkpt>
<trkpt lat="50.351061" lon="4.138998"><ele>181.29</ele><time>2025-05-25T02:37:49Z</time></trkpt>
<trkpt lat="50.351096" lon="4.139346"><ele>181.02</ele><time>2025-05-25T02:37:53Z</time></trkpt>
<trkpt lat="50.351128" lon="4.139514"><ele>181.23</ele><time>2025-05-25T02:37:57Z</time></trkpt>
<trkpt lat="50.353522" lon="4.147288"><ele>169.36</ele><time>2025-05-25T02:38:01Z</time></trkpt>
<trkpt lat="50.354984" lon="4.150649"><ele>168.94</ele><time>2025-05-25T02:38:05Z</time></trkpt>
<trkpt lat="50.355135" lon="4.151138"><ele>168.44</ele><time>2025-05-25T02:38:09Z</time></trkpt>
<trkpt lat="50.355246" lon="4.151724"><ele>167.0</ele><time>2025-05-25T02:38:13Z</time></trkpt>
<trkpt lat="50.355288" lon="4.152066"><ele>167.05</ele><time>2025-05-25T02:38:17Z</time></trkpt>
<trkpt lat="50.35536" lon="4.15291"><ele>168.0</ele><time>2025-05-25T02:38:21Z</time></trkpt>
<trkpt lat="50.355366" lon="4.153147"><ele>167.9</ele><time>2025-05-25T02:38:25Z</time></trkpt>
<trkpt lat="50.355271" lon="4.153692"><ele>167.72</ele><time>2025-05-25T02:38:29Z</time></trkpt>
<trkpt lat="50.355252" lon="4.153987"><ele>167.19</ele><time>2025-05-25T02:38:33Z</time></trkpt>
<trkpt lat="50.35526" lon="4.154171"><ele>167.13</ele><time>2025-05-25T02:38:37Z</time></trkpt>
<trkpt lat="50.355404" lon="4.155163"><ele>167.09</ele><time>2025-05-25T02:38:41Z</time></trkpt>
<trkpt lat="50.355427" lon="4.155406"><ele>167.18</ele><time>2025-05-25T02:38:45Z</time></trkpt>
<trkpt lat="50.35544" lon="4.155964"><ele>166.95</ele><time>2025-05-25T02:38:49Z</time></trkpt>
<trkpt lat="50.35541" lon="4.156621"><ele>166.92</ele><time>2025-05-25T02:38:53Z</time></trkpt>
<trkpt lat="50.355432" lon="4.157096"><ele>166.01</ele><time>2025-05-25T02:38:57Z</time></trkpt>
<trkpt lat="50.355882" lon="4.159914"><ele>161.87</ele><time>2025-05-25T02:39:01Z</time></trkpt>
<trkpt lat="50.355951" lon="4.160515"><ele>163.28</ele><time>2025-05-25T02:39:05Z</time></trkpt>
<trkpt lat="50.355975" lon="4.161053"><ele>165.3</ele><time>2025-05-25T02:39:09Z</time></trkpt>
<trkpt lat="50.356039" lon="4.165682"><ele>170.54</ele><time>2025-05-25T02:39:13Z</time></trkpt>
<trkpt lat="50.356062" lon="4.166057"><ele>169.05</ele><time>2025-05-25T02:39:17Z</time></trkpt>
<trkpt lat="50.356129" lon="4.166649"><ele>168.94</ele><time>2025-05-25T02:39:21Z</time></trkpt>
<trkpt lat="50.356185" lon="4.1675"><ele>163.74</ele><time>2025-05-25T02:39:25Z</time></trkpt>
<trkpt lat="50.356182" lon="4.16782"><ele>161.53</ele><time>2025-05-25T02:39:29Z</time></trkpt>
<trkpt lat="50.356156" lon="4.16804"><ele>161.83</ele><time>2025-05-25T02:39:33Z</time></trkpt>
<trkpt lat="50.356088" lon="4.168352"><ele>163.08</ele><time>2025-05-25T02:39:37Z</time></trkpt>
<trkpt lat="50.355751" lon="4.169411"><ele>162.38</ele><time>2025-05-25T02:39:41Z</time></trkpt>
<trkpt lat="50.355686" lon="4.169547"><ele>162.53</ele><time>2025-05-25T02:39:45Z</time></trkpt>
<trkpt lat="50.355334" lon="4.170081"><ele>163.09</ele><time>2025-05-25T02:39:49Z</time></trkpt>
<trkpt lat="50.355126" lon="4.170524"><ele>164.89</ele><time>2025-05-25T02:39:53Z</time></trkpt>
<trkpt lat="50.355017" lon="4.170639"><ele>165.0</ele><time>2025-05-25T02:39:57Z</time></trkpt>
<trkpt lat="50.354656" lon="4.17079"><ele>166.24</ele><time>2025-05-25T02:40:01Z</time></trkpt>
<trkpt lat="50.354504" lon="4.170896"><ele>166.79</ele><time>2025-05-25T02:40:05Z</time></trkpt>
<trkpt lat="50.354418" lon="4.170995"><ele>167.09</ele><time>2025-05-25T02:40:09Z</time></trkpt>
<trkpt lat="50.354334" lon="4.171163"><ele>167.4</ele><time>2025-05-25T02:40:13Z</time></trkpt>
<trkpt lat="50.354263" lon="4.171421"><ele>167.77</ele><time>2025-05-25T02:40:17Z</time></trkpt>
<trkpt lat="50.354008" lon="4.172793"><ele>171.0</ele><time>2025-05-25T02:40:21Z</time></trkpt>
<trkpt lat="50.353857" lon="4.173771"><ele>170.58</ele><time>2025-05-25T02:40:25Z</time></trkpt>
<trkpt lat="50.35368" lon="4.174672"><ele>172.75</ele><time>2025-05-25T02:40:29Z</time></trkpt>
<trkpt lat="50.353425" lon="4.175761"><ele>169.66</ele><time>2025-05-25T02:40:33Z</time></trkpt>
<trkpt lat="50.353072" lon="4.177101"><ele>172.56</ele><time>2025-05-25T02:40:37Z</time></trkpt>
<trkpt lat="50.352936" lon="4.177796"><ele>173.6</ele><time>2025-05-25T02:40:41Z</time></trkpt>
<trkpt lat="50.352602" lon="4.179477"><ele>172.0</ele><time>2025-05-25T02:40:45Z</time></trkpt>
<trkpt lat="50.352426" lon="4.180228"><ele>171.78</ele><time>2025-05-25T02:40:49Z</time></trkpt>
<trkpt lat="50.351027" lon="4.18579"><ele>179.83</ele><time>2025-05-25T02:40:53Z</time></trkpt>
<trkpt lat="50.350689" lon="4.187084"><ele>184.48</ele><time>2025-05-25T02:40:57Z</time></trkpt>
<trkpt lat="50.3495" lon="4.190708"><ele>181.94</ele><time>2025-05-25T02:41:01Z</time></trkpt>
<trkpt lat="50.349335" lon="4.191382"><ele>178.04</ele><time>2025-05-25T02:41:05Z</time></trkpt>
<trkpt lat="50.34929" lon="4.191943"><ele>176.55</ele><time>2025-05-25T02:41:09Z</time></trkpt>
<trkpt lat="50.349254" lon="4.192828"><ele>177.05</ele><time>2025-05-25T02:41:13Z</time></trkpt>
<trkpt lat="50.349183" lon="4.193324"><ele>177.12</ele><time>2025-05-25T02:41:17Z</time></trkpt>
<trkpt lat="50.348818" lon="4.19473"><ele>176.02</ele><time>2025-05-25T02:41:21Z</time></trkpt>
<trkpt lat="50.348247" lon="4.197028"><ele>172.41</ele><time>2025-05-25T02:41:25Z</time></trkpt>
<trkpt lat="50.348213" lon="4.197288"><ele>173.0</ele><time>2025-05-25T02:41:29Z</time></trkpt>
<trkpt lat="50.348202" lon="4.197672"><ele>173.8</ele><time>2025-05-25T02:41:33Z</time></trkpt>
<trkpt lat="50.348263" lon="4.198517"><ele>174.0</ele><time>2025-05-25T02:41:37Z</time></trkpt>
<trkpt lat="50.348528" lon="4.200081"><ele>172.81</ele><time>2025-05-25T02:41:41Z</time></trkpt>
<trkpt lat="50.348659" lon="4.201388"><ele>170.82</ele><time>2025-05-25T02:41:45Z</time></trkpt>
<trkpt lat="50.348728" lon="4.201898"><ele>171.51</ele><time>2025-05-25T02:41:49Z</time></trkpt>
<trkpt lat="50.348911" lon="4.202806"><ele>172.92</ele><time>2025-05-25T02:41:53Z</time></trkpt>
<trkpt lat="50.348983" lon="4.203268"><ele>172.16</ele><time>2025-05-25T02:41:57Z</time></trkpt>
<trkpt lat="50.34899" lon="4.203591"><ele>172.0</ele><time>2025-05-25T02:42:01Z</time></trkpt>
<trkpt lat="50.348847" lon="4.205733"><ele>170.0</ele><time>2025-05-25T02:42:05Z</time></trkpt>
<trkpt lat="50.348823" lon="4.206464"><ele>169.3</ele><time>2025-05-25T02:42:09Z</time></trkpt>
<trkpt lat="50.348832" lon="4.206968"><ele>168.31</ele><time>2025-05-25T02:42:13Z</time></trkpt>
<trkpt lat="50.349011" lon="4.209727"><ele>162.57</ele><time>2025-05-25T02:42:17Z</time></trkpt>
<trkpt lat="50.349116" lon="4.210145"><ele>163.0</ele><time>2025-05-25T02:42:21Z</time></trkpt>
<trkpt lat="50.349261" lon="4.210474"><ele>164.05</ele><time>2025-05-25T02:42:25Z</time></trkpt>
<trkpt lat="50.349406" lon="4.210661"><ele>164.86</ele><time>2025-05-25T02:42:29Z</time></trkpt>
<trkpt lat="50.349722" lon="4.210983"><ele>164.92</ele><time>2025-05-25T02:42:33Z</time></trkpt>
<trkpt lat="50.349786" lon="4.211071"><ele>164.45</ele><time>2025-05-25T02:42:37Z</time></trkpt>
<trkpt lat="50.349844" lon="4.211197"><ele>164.44</ele><time>2025-05-25T02:42:41Z</time></trkpt>
<trkpt lat="50.349945" lon="4.211519"><ele>164.33</ele><time>2025-05-25T02:42:45Z</time></trkpt>
<trkpt lat="50.350102" lon="4.21224"><ele>164.37</ele><time>2025-05-25T02:42:49Z</time></trkpt>
<trkpt lat="50.3503" lon="4.213574"><ele>163.21</ele><time>2025-05-25T02:42:53Z</time></trkpt>
<trkpt lat="50.350392" lon="4.214707"><ele>162.82</ele><time>2025-05-25T02:42:57Z</time></trkpt>
<trkpt lat="50.35044" lon="4.214898"><ele>163.43</ele><time>2025-05-25T02:43:01Z</time></trkpt>
<trkpt lat="50.350487" lon="4.214982"><ele>163.74</ele><time>2025-05-25T02:43:05Z</time></trkpt>
<trkpt lat="50.350585" lon="4.215088"><ele>163.61</ele><time>2025-05-25T02:43:09Z</time></trkpt>
<trkpt lat="50.350704" lon="4.215123"><ele>163.26</ele><time>2025-05-25T02:43:13Z</time></trkpt>
<trkpt lat="50.350934" lon="4.215039"><ele>162.64</ele><time>2025-05-25T02:43:17Z</time></trkpt>
<trkpt lat="50.351266" lon="4.214855"><ele>161.73</ele><time>2025-05-25T02:43:21Z</time></trkpt>
<trkpt lat="50.351348" lon="4.214784"><ele>161.81</ele><time>2025-05-25T02:43:25Z</time></trkpt>
<trkpt lat="50.351425" lon="4.214372"><ele>162.0</ele><time>2025-05-25T02:43:29Z</time></trkpt>
<trkpt lat="50.351473" lon="4.214275"><ele>162.0</ele><time>2025-05-25T02:43:33Z</time></trkpt>
<trkpt lat="50.351597" lon="4.214148"><ele>162.0</ele><time>2025-05-25T02:43:37Z</time></trkpt>
<trkpt lat="50.351756" lon="4.214116"><ele>162.0</ele><time>2025-05-25T02:43:41Z</time></trkpt>
<trkpt lat="50.351875" lon="4.214182"><ele>161.96</ele><time>2025-05-25T02:43:45Z</time></trkpt>
<trkpt lat="50.351955" lon="4.214327"><ele>161.38</ele><time>2025-05-25T02:43:49Z</time></trkpt>
<trkpt lat="50.352152" lon="4.216011"><ele>158.98</ele><time>2025-05-25T02:43:53Z</time></trkpt>
<trkpt lat="50.352168" lon="4.216329"><ele>159.2</ele><time>2025-05-25T02:43:57Z</time></trkpt>
<trkpt lat="50.352085" lon="4.217052"><ele>159.61</ele><time>2025-05-25T02:44:01Z</time></trkpt>
<trkpt lat="50.3521" lon="4.217233"><ele>158.96</ele><time>2025-05-25T02:44:05Z</time></trkpt>
<trkpt lat="50.352132" lon="4.21741"><ele>158.32</ele><time>2025-05-25T02:44:09Z</time></trkpt>
<trkpt lat="50.352272" lon="4.217797"><ele>155.82</ele><time>2025-05-25T02:44:13Z</time></trkpt>
<trkpt lat="50.352703" lon="4.218693"><ele>154.19</ele><time>2025-05-25T02:44:17Z</time></trkpt>
<trkpt lat="50.352844" lon="4.21912"><ele>154.0</ele><time>2025-05-25T02:44:21Z</time></trkpt>
<trkpt lat="50.352917" lon="4.219564"><ele>153.28</ele><time>2025-05-25T02:44:25Z</time></trkpt>
<trkpt lat="50.352947" lon="4.220227"><ele>151.68</ele><time>2025-05-25T02:44:29Z</time></trkpt>
<trkpt lat="50.352983" lon="4.220525"><ele>152.17</ele><time>2025-05-25T02:44:33Z</time></trkpt>
<trkpt lat="50.353041" lon="4.220721"><ele>152.87</ele><time>2025-05-25T02:44:37Z</time></trkpt>
<trkpt lat="50.35309" lon="4.220831"><ele>153.0</ele><time>2025-05-25T02:44:41Z</time></trkpt>
<trkpt lat="50.353572" lon="4.221672"><ele>155.86</ele><time>2025-05-25T02:44:45Z</time></trkpt>
<trkpt lat="50.353636" lon="4.221834"><ele>156.0</ele><time>2025-05-25T02:44:49Z</time></trkpt>
<trkpt lat="50.353764" lon="4.22227"><ele>156.54</ele><time>2025-05-25T02:44:53Z</time></trkpt>
<trkpt lat="50.353798" lon="4.222436"><ele>156.85</ele><time>2025-05-25T02:44:57Z</time></trkpt>
<trkpt lat="50.353848" lon="4.222972"><ele>157.85</ele><time>2025-05-25T02:45:01Z</time></trkpt>
<trkpt lat="50.353862" lon="4.223705"><ele>157.93</ele><time>2025-05-25T02:45:05Z</time></trkpt>
<trkpt lat="50.353898" lon="4.22424"><ele>159.29</ele><time>2025-05-25T02:45:09Z</time></trkpt>
<trkpt lat="50.353866" lon="4.225081"><ele>160.08</ele><time>2025-05-25T02:45:13Z</time></trkpt>
<trkpt lat="50.353868" lon="4.225481"><ele>160.75</ele><time>2025-05-25T02:45:17Z</time></trkpt>
<trkpt lat="50.353883" lon="4.226184"><ele>163.0</ele><time>2025-05-25T02:45:21Z</time></trkpt>
<trkpt lat="50.353922" lon="4.226638"><ele>163.0</ele><time>2025-05-25T02:45:25Z</time></trkpt>
<trkpt lat="50.354062" lon="4.22731"><ele>162.62</ele><time>2025-05-25T02:45:29Z</time></trkpt>
<trkpt lat="50.354262" lon="4.228059"><ele>163.35</ele><time>2025-05-25T02:45:33Z</time></trkpt>
<trkpt lat="50.354354" lon="4.228292"><ele>163.38</ele><time>2025-05-25T02:45:37Z</time></trkpt>
<trkpt lat="50.35451" lon="4.228569"><ele>162.8</ele><time>2025-05-25T02:45:41Z</time></trkpt>
<trkpt lat="50.354757" lon="4.228995"><ele>161.0</ele><time>2025-05-25T02:45:45Z</time></trkpt>
<trkpt lat="50.35488" lon="4.229147"><ele>161.0</ele><time>2025-05-25T02:45:49Z</time></trkpt>
<trkpt lat="50.355159" lon="4.229665"><ele>160.43</ele><time>2025-05-25T02:45:53Z</time></trkpt>
<trkpt lat="50.355208" lon="4.229794"><ele>160.51</ele><time>2025-05-25T02:45:57Z</time></trkpt>
<trkpt lat="50.355236" lon="4.229932"><ele>160.9</ele><time>2025-05-25T02:46:01Z</time></trkpt>
<trkpt lat="50.355218" lon="4.230171"><ele>161.7</ele><time>2025-05-25T02:46:05Z</time></trkpt>
<trkpt lat="50.354641" lon="4.231343"><ele>159.71</ele><time>2025-05-25T02:46:09Z</time></trkpt>
<trkpt lat="50.354622" lon="4.231424"><ele>159.6</ele><time>2025-05-25T02:46:13Z</time></trkpt>
<trkpt lat="50.354622" lon="4.231518"><ele>159.47</ele><time>2025-05-25T02:46:17Z</time></trkpt>
<trkpt lat="50.35467" lon="4.231681"><ele>159.58</ele><time>2025-05-25T02:46:21Z</time></trkpt>
<trkpt lat="50.355121" lon="4.232351"><ele>157.77</ele><time>2025-05-25T02:46:25Z</time></trkpt>
<trkpt lat="50.355891" lon="4.233568"><ele>153.0</ele><time>2025-05-25T02:46:29Z</time></trkpt>
<trkpt lat="50.356647" lon="4.234902"><ele>154.21</ele><time>2025-05-25T02:46:33Z</time></trkpt>
<trkpt lat="50.357059" lon="4.235731"><ele>160.81</ele><time>2025-05-25T02:46:37Z</time></trkpt>
<trkpt lat="50.354066" lon="4.240051"><ele>146.36</ele><time>2025-05-25T02:46:41Z</time></trkpt>
<trkpt lat="50.353888" lon="4.240349"><ele>147.0</ele><time>2025-05-25T02:46:45Z</time></trkpt>
<trkpt lat="50.353202" lon="4.241631"><ele>143.53</ele><time>2025-05-25T02:46:48Z</time></trkpt>
<trkpt lat="50.353101" lon="4.241851"><ele>143.16</ele><time>2025-05-25T02:46:52Z</time></trkpt>
<trkpt lat="50.353025" lon="4.242153"><ele>143.75</ele><time>2025-05-25T02:46:56Z</time></trkpt>
<trkpt lat="50.352974" lon="4.242513"><ele>145.04</ele><time>2025-05-25T02:47:00Z</time></trkpt>
<trkpt lat="50.352907" lon="4.243412"><ele>148.15</ele><time>2025-05-25T02:47:04Z</time></trkpt>
<trkpt lat="50.352953" lon="4.244406"><ele>153.46</ele><time>2025-05-25T02:47:07Z</time></trkpt>
<trkpt lat="50.35303" lon="4.244658"><ele>152.49</ele><time>2025-05-25T02:47:11Z</time></trkpt>
<trkpt lat="50.35336" lon="4.245343"><ele>150.98</ele><time>2025-05-25T02:47:15Z</time></trkpt>
<trkpt lat="50.353625" lon="4.245744"><ele>153.78</ele><time>2025-05-25T02:47:19Z</time></trkpt>
<trkpt lat="50.353676" lon="4.245845"><ele>154.52</ele><time>2025-05-25T02:47:23Z</time></trkpt>
<trkpt lat="50.353736" lon="4.24608"><ele>156.19</ele><time>2025-05-25T02:47:26Z</time></trkpt>
<trkpt lat="50.353751" lon="4.246249"><ele>156.76</ele><time>2025-05-25T02:47:30Z</time></trkpt>
<trkpt lat="50.353756" lon="4.246804"><ele>156.41</ele><time>2025-05-25T02:47:34Z</time></trkpt>
<trkpt lat="50.353741" lon="4.247307"><ele>152.46</ele><time>2025-05-25T02:47:38Z</time></trkpt>
<trkpt lat="50.353694" lon="4.247704"><ele>150.35</ele><time>2025-05-25T02:47:41Z</time></trkpt>
<trkpt lat="50.353494" lon="4.248496"><ele>149.75</ele><time>2025-05-25T02:47:45Z</time></trkpt>
<trkpt lat="50.353331" lon="4.249051"><ele>150.98</ele><time>2025-05-25T02:47:49Z</time></trkpt>
<trkpt lat="50.35208" lon="4.251887"><ele>153.49</ele><time>2025-05-25T02:47:53Z</time></trkpt>
<trkpt lat="50.351816" lon="4.252422"><ele>154.38</ele><time>2025-05-25T02:47:57Z</time></trkpt>
<trkpt lat="50.351323" lon="4.253262"><ele>153.26</ele><time>2025-05-25T02:48:00Z</time></trkpt>
<trkpt lat="50.351077" lon="4.253822"><ele>152.3</ele><time>2025-05-25T02:48:04Z</time></trkpt>
<trkpt lat="50.350312" lon="4.25608"><ele>152.36</ele><time>2025-05-25T02:48:08Z</time></trkpt>
<trkpt lat="50.350036" lon="4.256986"><ele>150.09</ele><time>2025-05-25T02:48:12Z</time></trkpt>
<trkpt lat="50.349972" lon="4.257359"><ele>148.36</ele><time>2025-05-25T02:48:15Z</time></trkpt>
<trkpt lat="50.349818" lon="4.258712"><ele>143.86</ele><time>2025-05-25T02:48:19Z</time></trkpt>
<trkpt lat="50.349618" lon="4.258813"><ele>143.27</ele><time>2025-05-25T02:48:25Z</time></trkpt>
<trkpt lat="50.347125" lon="4.259957"><ele>124.5</ele><time>2025-05-25T02:48:30Z</time></trkpt>
<trkpt lat="50.347063" lon="4.260061"><ele>124.43</ele><time>2025-05-25T02:48:36Z</time></trkpt>
<trkpt lat="50.346629" lon="4.261222"><ele>123.86</ele><time>2025-05-25T02:48:41Z</time></trkpt>
<trkpt lat="50.346247" lon="4.262934"><ele>124.76</ele><time>2025-05-25T02:48:47Z</time></trkpt>
<trkpt lat="50.346092" lon="4.263533"><ele>124.93</ele><time>2025-05-25T02:48:52Z</time></trkpt>
<trkpt lat="50.346003" lon="4.26382"><ele>124.44</ele><time>2025-05-25T02:48:58Z</time></trkpt>
<trkpt lat="50.345908" lon="4.264071"><ele>125.56</ele><time>2025-05-25T02:49:03Z</time></trkpt>
<trkpt lat="50.345683" lon="4.26458"><ele>125.37</ele><time>2025-05-25T02:49:09Z</time></trkpt>
<trkpt lat="50.34556" lon="4.264951"><ele>124.06</ele><time>2025-05-25T02:49:15Z</time></trkpt>
<trkpt lat="50.345473" lon="4.265157"><ele>122.81</ele><time>2025-05-25T02:49:20Z</time></trkpt>
<trkpt lat="50.345379" lon="4.265091"><ele>121.46</ele><time>2025-05-25T02:49:27Z</time></trkpt>
<trkpt lat="50.34528" lon="4.26503"><ele>120.03</ele><time>2025-05-25T02:49:34Z</time></trkpt>
<trkpt lat="50.345233" lon="4.26499"><ele>119.64</ele><time>2025-05-25T02:49:41Z</time></trkpt>
<trkpt lat="50.34411" lon="4.264288"><ele>120.56</ele><time>2025-05-25T02:49:48Z</time></trkpt>
<trkpt lat="50.343832" lon="4.264025"><ele>121.81</ele><time>2025-05-25T02:49:55Z</time></trkpt>
<trkpt lat="50.342996" lon="4.263473"><ele>128.43</ele><time>2025-05-25T02:50:03Z</time></trkpt>
<trkpt lat="50.342131" lon="4.263146"><ele>134.34</ele><time>2025-05-25T02:50:10Z</time></trkpt>
<trkpt lat="50.342058" lon="4.26315"><ele>135.1</ele><time>2025-05-25T02:50:17Z</time></trkpt>
<trkpt lat="50.341935" lon="4.263229"><ele>135.87</ele><time>2025-05-25T02:50:24Z</time></trkpt>
<trkpt lat="50.341312" lon="4.263942"><ele>139.66</ele><time>2025-05-25T02:50:31Z</time></trkpt>
<trkpt lat="50.3412" lon="4.264141"><ele>142.08</ele><time>2025-05-25T02:50:38Z</time></trkpt>
<trkpt lat="50.34091" lon="4.264897"><ele>146.63</ele><time>2025-05-25T02:50:45Z</time></trkpt>
<trkpt lat="50.340581" lon="4.265671"><ele>149.1</ele><time>2025-05-25T02:50:52Z</time></trkpt>
<trkpt lat="50.339986" lon="4.266924"><ele>160.07</ele><time>2025-05-25T02:50:59Z</time></trkpt>
<trkpt lat="50.339788" lon="4.267209"><ele>159.05</ele><time>2025-05-25T02:51:06Z</time></trkpt>
<trkpt lat="50.339565" lon="4.267428"><ele>159.74</ele><time>2025-05-25T02:51:13Z</time></trkpt>
<trkpt lat="50.339346" lon="4.267553"><ele>160.9</ele><time>2025-05-25T02:51:20Z</time></trkpt>
<trkpt lat="50.339247" lon="4.267579"><ele>161.71</ele><time>2025-05-25T02:51:27Z</time></trkpt>
<trkpt lat="50.338995" lon="4.267564"><ele>163.61</ele><time>2025-05-25T02:51:35Z</time></trkpt>
<trkpt lat="50.338644" lon="4.267433"><ele>165.74</ele><time>2025-05-25T02:51:42Z</time></trkpt>
<trkpt lat="50.337617" lon="4.266879"><ele>166.58</ele><time>2025-05-25T02:51:49Z</time></trkpt>
<trkpt lat="50.33539" lon="4.265604"><ele>164.07</ele><time>2025-05-25T02:51:56Z</time></trkpt>
<trkpt lat="50.334058" lon="4.266643"><ele>163.0</ele><time>2025-05-25T02:52:12Z</time></trkpt>
<trkpt lat="50.333949" lon="4.266748"><ele>163.0</ele><time>2025-05-25T02:52:28Z</time></trkpt>
<trkpt lat="50.333774" lon="4.266984"><ele>163.85</ele><time>2025-05-25T02:52:44Z</time></trkpt>
<trkpt lat="50.332838" lon="4.268565"><ele>165.21</ele><time>2025-05-25T02:52:59Z</time></trkpt>
<trkpt lat="50.331709" lon="4.270364"><ele>165.0</ele><time>2025-05-25T02:53:15Z</time></trkpt>
<trkpt lat="50.3307" lon="4.271913"><ele>160.94</ele><time>2025-05-25T02:53:31Z</time></trkpt>
<trkpt lat="50.330509" lon="4.272147"><ele>161.73</ele><time>2025-05-25T02:53:47Z</time></trkpt>
<trkpt lat="50.326475" lon="4.275531"><ele>168.6</ele><time>2025-05-25T02:54:03Z</time></trkpt>
<trkpt lat="50.324162" lon="4.277778"><ele>174.94</ele><time>2025-05-25T02:54:19Z</time></trkpt>
<trkpt lat="50.323878" lon="4.278021"><ele>172.04</ele><time>2025-05-25T02:54:35Z</time></trkpt>
<trkpt lat="50.322085" lon="4.279437"><ele>170.02</ele><time>2025-05-25T02:54:51Z</time></trkpt>
<trkpt lat="50.321897" lon="4.279532"><ele>169.91</ele><time>2025-05-25T02:55:07Z</time></trkpt>
<trkpt lat="50.321356" lon="4.279651"><ele>172.03</ele><time>2025-05-25T02:55:23Z</time></trkpt>
<trkpt lat="50.321143" lon="4.279759"><ele>171.87</ele><time>2025-05-25T02:55:39Z</time></trkpt>
<trkpt lat="50.319314" lon="4.281357"><ele>175.0</ele><time>2025-05-25T02:55:55Z</time></trkpt>
<trkpt lat="50.319023" lon="4.281695"><ele>174.95</ele><time>2025-05-25T02:56:11Z</time></trkpt>
<trkpt lat="50.316017" lon="4.285601"><ele>182.34</ele><time>2025-05-25T02:56:27Z</time></trkpt>
<trkpt lat="50.315885" lon="4.285752"><ele>182.81</ele><time>2025-05-25T02:56:42Z</time></trkpt>
<trkpt lat="50.31562" lon="4.285987"><ele>183.43</ele><time>2025-05-25T02:56:58Z</time></trkpt>
<trkpt lat="50.315441" lon="4.285939"><ele>183.63</ele><time>2025-05-25T02:56:59Z</time></trkpt>
<trkpt lat="50.315216" lon="4.285347"><ele>184.0</ele><time>2025-05-25T02:57:02Z</time></trkpt>
<trkpt lat="50.315052" lon="4.285247"><ele>184.0</ele><time>2025-05-25T02:57:09Z</time></trkpt>
<trkpt lat="50.314939" lon="4.285214"><ele>184.0</ele><time>2025-05-25T02:57:16Z</time></trkpt>
<trkpt lat="50.31468" lon="4.285295"><ele>183.99</ele><time>2025-05-25T02:57:23Z</time></trkpt>
<trkpt lat="50.312006" lon="4.286402"><ele>175.27</ele><time>2025-05-25T02:57:30Z</time></trkpt>
<trkpt lat="50.311625" lon="4.28659"><ele>174.46</ele><time>2025-05-25T02:57:37Z</time></trkpt>
<trkpt lat="50.310436" lon="4.287402"><ele>168.72</ele><time>2025-05-25T02:57:44Z</time></trkpt>
<trkpt lat="50.310341" lon="4.287424"><ele>168.44</ele><time>2025-05-25T02:57:51Z</time></trkpt>
<trkpt lat="50.309891" lon="4.287412"><ele>167.61</ele><time>2025-05-25T02:57:58Z</time></trkpt>
<trkpt lat="50.309596" lon="4.287386"><ele>166.28</ele><time>2025-05-25T02:58:05Z</time></trkpt>
<trkpt lat="50.309213" lon="4.287304"><ele>164.28</ele><time>2025-05-25T02:58:12Z</time></trkpt>
<trkpt lat="50.309051" lon="4.287304"><ele>164.41</ele><time>2025-05-25T02:58:19Z</time></trkpt>
<trkpt lat="50.308892" lon="4.287382"><ele>164.99</ele><time>2025-05-25T02:58:25Z</time></trkpt>
<trkpt lat="50.308812" lon="4.287472"><ele>165.0</ele><time>2025-05-25T02:58:32Z</time></trkpt>
<trkpt lat="50.308717" lon="4.287626"><ele>164.55</ele><time>2025-05-25T02:58:39Z</time></trkpt>
<trkpt lat="50.307978" lon="4.288301"><ele>167.44</ele><time>2025-05-25T02:58:46Z</time></trkpt>
<trkpt lat="50.307628" lon="4.288743"><ele>170.14</ele><time>2025-05-25T02:58:53Z</time></trkpt>
<trkpt lat="50.306945" lon="4.289339"><ele>167.76</ele><time>2025-05-25T02:59:00Z</time></trkpt>
<trkpt lat="50.304382" lon="4.290837"><ele>171.01</ele><time>2025-05-25T02:59:07Z</time></trkpt>
<trkpt lat="50.302043" lon="4.292404"><ele>169.65</ele><time>2025-05-25T02:59:14Z</time></trkpt>
<trkpt lat="50.301708" lon="4.292558"><ele>168.94</ele><time>2025-05-25T02:59:21Z</time></trkpt>
<trkpt lat="50.297797" lon="4.29334"><ele>161.07</ele><time>2025-05-25T02:59:28Z</time></trkpt>
<trkpt lat="50.297466" lon="4.293379"><ele>161.12</ele><time>2025-05-25T02:59:35Z</time></trkpt>
<trkpt lat="50.290081" lon="4.293049"><ele>168.02</ele><time>2025-05-25T02:59:42Z</time></trkpt>
<trkpt lat="50.289881" lon="4.293759"><ele>167.43</ele><time>2025-05-25T02:59:49Z</time></trkpt>
<trkpt lat="50.289803" lon="4.293972"><ele>167.71</ele><time>2025-05-25T02:59:55Z</time></trkpt>
<trkpt lat="50.289201" lon="4.295336"><ele>171.03</ele><time>2025-05-25T03:00:02Z</time></trkpt>
<trkpt lat="50.289093" lon="4.295631"><ele>171.8</ele><time>2025-05-25T03:00:09Z</time></trkpt>
<trkpt lat="50.28886" lon="4.296368"><ele>172.21</ele><time>2025-05-25T03:00:16Z</time></trkpt>
<trkpt lat="50.288756" lon="4.29665"><ele>172.02</ele><time>2025-05-25T03:00:22Z</time></trkpt>
<trkpt lat="50.288401" lon="4.297481"><ele>174.76</ele><time>2025-05-25T03:00:29Z</time></trkpt>
<trkpt lat="50.28797" lon="4.298745"><ele>172.85</ele><time>2025-05-25T03:00:36Z</time></trkpt>
<trkpt lat="50.287778" lon="4.299247"><ele>171.71</ele><time>2025-05-25T03:00:43Z</time></trkpt>
<trkpt lat="50.287589" lon="4.29957"><ele>170.32</ele><time>2025-05-25T03:00:49Z</time></trkpt>
<trkpt lat="50.287091" lon="4.300286"><ele>167.98</ele><time>2025-05-25T03:00:56Z</time></trkpt>
<trkpt lat="50.287005" lon="4.300449"><ele>167.87</ele><time>2025-05-25T03:01:03Z</time></trkpt>
<trkpt lat="50.286694" lon="4.301268"><ele>167.9</ele><time>2025-05-25T03:01:09Z</time></trkpt>
<trkpt lat="50.286649" lon="4.30122"><ele>168.06</ele><time>2025-05-25T03:01:10Z</time></trkpt>
<trkpt lat="50.286138" lon="4.302047"><ele>169.63</ele><time>2025-05-25T03:01:15Z</time></trkpt>
<trkpt lat="50.285026" lon="4.303776"><ele>167.41</ele><time>2025-05-25T03:01:19Z</time></trkpt>
<trkpt lat="50.284588" lon="4.304487"><ele>167.0</ele><time>2025-05-25T03:01:24Z</time></trkpt>
<trkpt lat="50.28433" lon="4.304864"><ele>166.79</ele><time>2025-05-25T03:01:29Z</time></trkpt>
<trkpt lat="50.283946" lon="4.305357"><ele>167.02</ele><time>2025-05-25T03:01:34Z</time></trkpt>
<trkpt lat="50.283735" lon="4.305554"><ele>167.44</ele><time>2025-05-25T03:01:38Z</time></trkpt>
<trkpt lat="50.283547" lon="4.305686"><ele>166.54</ele><time>2025-05-25T03:01:43Z</time></trkpt>
<trkpt lat="50.282972" lon="4.306028"><ele>163.19</ele><time>2025-05-25T03:01:48Z</time></trkpt>
<trkpt lat="50.282775" lon="4.30621"><ele>161.99</ele><time>2025-05-25T03:01:53Z</time></trkpt>
<trkpt lat="50.282677" lon="4.306329"><ele>161.63</ele><time>2025-05-25T03:01:58Z</time></trkpt>
<trkpt lat="50.282608" lon="4.306449"><ele>161.34</ele><time>2025-05-25T03:02:02Z</time></trkpt>
<trkpt lat="50.282542" lon="4.306638"><ele>160.52</ele><time>2025-05-25T03:02:07Z</time></trkpt>
<trkpt lat="50.282485" lon="4.306865"><ele>160.57</ele><time>2025-05-25T03:02:12Z</time></trkpt>
<trkpt lat="50.282467" lon="4.307203"><ele>161.57</ele><time>2025-05-25T03:02:17Z</time></trkpt>
<trkpt lat="50.282478" lon="4.307901"><ele>161.92</ele><time>2025-05-25T03:02:21Z</time></trkpt>
<trkpt lat="50.282488" lon="4.30838"><ele>161.92</ele><time>2025-05-25T03:02:26Z</time></trkpt>
<trkpt lat="50.282509" lon="4.308662"><ele>162.04</ele><time>2025-05-25T03:02:31Z</time></trkpt>
<trkpt lat="50.282598" lon="4.309175"><ele>162.34</ele><time>2025-05-25T03:02:36Z</time></trkpt>
<trkpt lat="50.282684" lon="4.309396"><ele>162.12</ele><time>2025-05-25T03:02:41Z</time></trkpt>
<trkpt lat="50.28282" lon="4.309656"><ele>160.93</ele><time>2025-05-25T03:02:45Z</time></trkpt>
<trkpt lat="50.282984" lon="4.309914"><ele>158.82</ele><time>2025-05-25T03:02:50Z</time></trkpt>
<trkpt lat="50.283389" lon="4.310432"><ele>157.65</ele><time>2025-05-25T03:02:55Z</time></trkpt>
<trkpt lat="50.283652" lon="4.310738"><ele>158.29</ele><time>2025-05-25T03:03:00Z</time></trkpt>
<trkpt lat="50.284852" lon="4.311993"><ele>161.85</ele><time>2025-05-25T03:03:04Z</time></trkpt>
<trkpt lat="50.284344" lon="4.312679"><ele>158.72</ele><time>2025-05-25T03:03:13Z</time></trkpt>
<trkpt lat="50.284253" lon="4.312773"><ele>158.71</ele><time>2025-05-25T03:03:21Z</time></trkpt>
<trkpt lat="50.284038" lon="4.312936"><ele>159.46</ele><time>2025-05-25T03:03:30Z</time></trkpt>
<trkpt lat="50.283855" lon="4.313168"><ele>159.93</ele><time>2025-05-25T03:03:38Z</time></trkpt>
<trkpt lat="50.282433" lon="4.315114"><ele>166.76</ele><time>2025-05-25T03:03:47Z</time></trkpt>
<trkpt lat="50.281989" lon="4.315787"><ele>167.84</ele><time>2025-05-25T03:03:55Z</time></trkpt>
<trkpt lat="50.281828" lon="4.315982"><ele>167.04</ele><time>2025-05-25T03:04:04Z</time></trkpt>
<trkpt lat="50.281299" lon="4.3164"><ele>163.99</ele><time>2025-05-25T03:04:12Z</time></trkpt>
<trkpt lat="50.280619" lon="4.316833"><ele>163.09</ele><time>2025-05-25T03:04:21Z</time></trkpt>
<trkpt lat="50.280489" lon="4.316991"><ele>162.83</ele><time>2025-05-25T03:04:29Z</time></trkpt>
<trkpt lat="50.279791" lon="4.318089"><ele>160.13</ele><time>2025-05-25T03:04:38Z</time></trkpt>
<trkpt lat="50.279644" lon="4.318395"><ele>159.0</ele><time>2025-05-25T03:04:46Z</time></trkpt>
<trkpt lat="50.27861" lon="4.318838"><ele>160.83</ele><time>2025-05-25T03:04:55Z</time></trkpt>
<trkpt lat="50.278228" lon="4.319024"><ele>162.89</ele><time>2025-05-25T03:05:04Z</time></trkpt>
<trkpt lat="50.278111" lon="4.319125"><ele>162.95</ele><time>2025-05-25T03:05:13Z</time></trkpt>
<trkpt lat="50.277597" lon="4.319749"><ele>164.21</ele><time>2025-05-25T03:05:21Z</time></trkpt>
<trkpt lat="50.277453" lon="4.319899"><ele>164.7</ele><time>2025-05-25T03:05:30Z</time></trkpt>
<trkpt lat="50.27661" lon="4.320595"><ele>165.8</ele><time>2025-05-25T03:05:39Z</time></trkpt>
<trkpt lat="50.276283" lon="4.32082"><ele>165.76</ele><time>2025-05-25T03:05:48Z</time></trkpt>
<trkpt lat="50.275086" lon="4.321497"><ele>168.77</ele><time>2025-05-25T03:05:56Z</time></trkpt>
<trkpt lat="50.273225" lon="4.322771"><ele>172.37</ele><time>2025-05-25T03:06:05Z</time></trkpt>
<trkpt lat="50.27197" lon="4.323629"><ele>176.06</ele><time>2025-05-25T03:06:14Z</time></trkpt>
<trkpt lat="50.271454" lon="4.324067"><ele>179.49</ele><time>2025-05-25T03:06:23Z</time></trkpt>
<trkpt lat="50.270854" lon="4.324641"><ele>182.0</ele><time>2025-05-25T03:06:31Z</time></trkpt>
<trkpt lat="50.270699" lon="4.324839"><ele>182.42</ele><time>2025-05-25T03:06:40Z</time></trkpt>
<trkpt lat="50.269863" lon="4.326173"><ele>184.49</ele><time>2025-05-25T03:06:49Z</time></trkpt>
<trkpt lat="50.269717" lon="4.326436"><ele>184.85</ele><time>2025-05-25T03:06:58Z</time></trkpt>
<trkpt lat="50.269402" lon="4.327098"><ele>184.53</ele><time>2025-05-25T03:07:07Z</time></trkpt>
<trkpt lat="50.269166" lon="4.327692"><ele>184.31</ele><time>2025-05-25T03:07:15Z</time></trkpt>
<trkpt lat="50.269087" lon="4.327938"><ele>184.0</ele><time>2025-05-25T03:07:24Z</time></trkpt>
<trkpt lat="50.268383" lon="4.33087"><ele>181.95</ele><time>2025-05-25T03:07:33Z</time></trkpt>
<trkpt lat="50.267875" lon="4.331962"><ele>184.24</ele><time>2025-05-25T03:07:41Z</time></trkpt>
<trkpt lat="50.266476" lon="4.334704"><ele>185.0</ele><time>2025-05-25T03:07:48Z</time></trkpt>
<trkpt lat="50.265948" lon="4.335706"><ele>186.41</ele><time>2025-05-25T03:07:56Z</time></trkpt>
<trkpt lat="50.265679" lon="4.336169"><ele>187.0</ele><time>2025-05-25T03:08:04Z</time></trkpt>
<trkpt lat="50.265078" lon="4.33705"><ele>188.38</ele><time>2025-05-25T03:08:12Z</time></trkpt>
<trkpt lat="50.264967" lon="4.337245"><ele>189.0</ele><time>2025-05-25T03:08:20Z</time></trkpt>
<trkpt lat="50.264808" lon="4.337623"><ele>189.44</ele><time>2025-05-25T03:08:27Z</time></trkpt>
<trkpt lat="50.264468" lon="4.338796"><ele>193.58</ele><time>2025-05-25T03:08:35Z</time></trkpt>
<trkpt lat="50.26439" lon="4.339024"><ele>194.19</ele><time>2025-05-25T03:08:43Z</time></trkpt>
<trkpt lat="50.264277" lon="4.339175"><ele>194.6</ele><time>2025-05-25T03:08:51Z</time></trkpt>
<trkpt lat="50.264282" lon="4.339386"><ele>194.45</ele><time>2025-05-25T03:08:56Z</time></trkpt>
<trkpt lat="50.264257" lon="4.339618"><ele>194.33</ele><time>2025-05-25T03:09:01Z</time></trkpt>
<trkpt lat="50.26338" lon="4.344376"><ele>188.08</ele><time>2025-05-25T03:09:06Z</time></trkpt>
<trkpt lat="50.263386" lon="4.345078"><ele>188.23</ele><time>2025-05-25T03:09:12Z</time></trkpt>
<trkpt lat="50.263442" lon="4.347156"><ele>186.63</ele><time>2025-05-25T03:09:17Z</time></trkpt>
<trkpt lat="50.263581" lon="4.351825"><ele>187.0</ele><time>2025-05-25T03:09:22Z</time></trkpt>
<trkpt lat="50.263559" lon="4.352304"><ele>185.71</ele><time>2025-05-25T03:09:27Z</time></trkpt>
<trkpt lat="50.262836" lon="4.358446"><ele>178.91</ele><time>2025-05-25T03:09:33Z</time></trkpt>
<trkpt lat="50.262716" lon="4.358975"><ele>178.0</ele><time>2025-05-25T03:09:38Z</time></trkpt>
<trkpt lat="50.262589" lon="4.359405"><ele>178.58</ele><time>2025-05-25T03:09:43Z</time></trkpt>
<trkpt lat="50.262142" lon="4.360315"><ele>178.96</ele><time>2025-05-25T03:09:48Z</time></trkpt>
<trkpt lat="50.26211" lon="4.360422"><ele>178.79</ele><time>2025-05-25T03:09:54Z</time></trkpt>
<trkpt lat="50.262101" lon="4.360617"><ele>178.56</ele><time>2025-05-25T03:09:59Z</time></trkpt>
<trkpt lat="50.262132" lon="4.360717"><ele>178.67</ele><time>2025-05-25T03:10:04Z</time></trkpt>
<trkpt lat="50.26218" lon="4.360804"><ele>178.85</ele><time>2025-05-25T03:10:09Z</time></trkpt>
<trkpt lat="50.263422" lon="4.362767"><ele>177.03</ele><time>2025-05-25T03:10:15Z</time></trkpt>
<trkpt lat="50.263495" lon="4.362926"><ele>177.0</ele><time>2025-05-25T03:10:20Z</time></trkpt>
<trkpt lat="50.263604" lon="4.363292"><ele>176.98</ele><time>2025-05-25T03:10:25Z</time></trkpt>
<trkpt lat="50.26301" lon="4.364171"><ele>174.18</ele><time>2025-05-25T03:10:27Z</time></trkpt>
<trkpt lat="50.262886" lon="4.364322"><ele>175.17</ele><time>2025-05-25T03:10:29Z</time></trkpt>
<trkpt lat="50.262816" lon="4.364475"><ele>175.97</ele><time>2025-05-25T03:10:30Z</time></trkpt>
<trkpt lat="50.262796" lon="4.364613"><ele>176.54</ele><time>2025-05-25T03:10:32Z</time></trkpt>
<trkpt lat="50.262816" lon="4.364918"><ele>178.18</ele><time>2025-05-25T03:10:34Z</time></trkpt>
<trkpt lat="50.262861" lon="4.365093"><ele>178.5</ele><time>2025-05-25T03:10:36Z</time></trkpt>
<trkpt lat="50.262921" lon="4.365248"><ele>178.43</ele><time>2025-05-25T03:10:38Z</time></trkpt>
<trkpt lat="50.26332" lon="4.366003"><ele>178.66</ele><time>2025-05-25T03:10:39Z</time></trkpt>
<trkpt lat="50.263363" lon="4.366157"><ele>178.68</ele><time>2025-05-25T03:10:41Z</time></trkpt>
<trkpt lat="50.263351" lon="4.366447"><ele>178.61</ele><time>2025-05-25T03:10:43Z</time></trkpt>
<trkpt lat="50.263415" lon="4.367724"><ele>175.14</ele><time>2025-05-25T03:10:45Z</time></trkpt>
<trkpt lat="50.263467" lon="4.36813"><ele>175.27</ele><time>2025-05-25T03:10:47Z</time></trkpt>
<trkpt lat="50.263563" lon="4.368504"><ele>176.0</ele><time>2025-05-25T03:10:48Z</time></trkpt>
<trkpt lat="50.263749" lon="4.369071"><ele>178.15</ele><time>2025-05-25T03:10:50Z</time></trkpt>
<trkpt lat="50.263937" lon="4.3699"><ele>182.75</ele><time>2025-05-25T03:10:52Z</time></trkpt>
<trkpt lat="50.263967" lon="4.370089"><ele>183.28</ele><time>2025-05-25T03:10:54Z</time></trkpt>
<trkpt lat="50.263992" lon="4.371159"><ele>183.46</ele><time>2025-05-25T03:10:55Z</time></trkpt>
<trkpt lat="50.263979" lon="4.371372"><ele>182.74</ele><time>2025-05-25T03:10:57Z</time></trkpt>
<trkpt lat="50.263944" lon="4.371544"><ele>181.79</ele><time>2025-05-25T03:10:59Z</time></trkpt>
<trkpt lat="50.261571" lon="4.371"><ele>183.81</ele><time>2025-05-25T03:11:04Z</time></trkpt>
<trkpt lat="50.261281" lon="4.370997"><ele>183.95</ele><time>2025-05-25T03:11:09Z</time></trkpt>
<trkpt lat="50.26098" lon="4.371038"><ele>184.21</ele><time>2025-05-25T03:11:14Z</time></trkpt>
<trkpt lat="50.260681" lon="4.371155"><ele>185.55</ele><time>2025-05-25T03:11:19Z</time></trkpt>
<trkpt lat="50.260307" lon="4.37138"><ele>186.89</ele><time>2025-05-25T03:11:24Z</time></trkpt>
<trkpt lat="50.259604" lon="4.371895"><ele>188.85</ele><time>2025-05-25T03:11:28Z</time></trkpt>
<trkpt lat="50.258372" lon="4.372869"><ele>195.0</ele><time>2025-05-25T03:11:33Z</time></trkpt>
<trkpt lat="50.258189" lon="4.373054"><ele>195.52</ele><time>2025-05-25T03:11:38Z</time></trkpt>
<trkpt lat="50.258018" lon="4.373269"><ele>196.13</ele><time>2025-05-25T03:11:43Z</time></trkpt>
<trkpt lat="50.256993" lon="4.374643"><ele>199.82</ele><time>2025-05-25T03:11:48Z</time></trkpt>
<trkpt lat="50.256737" lon="4.374924"><ele>200.54</ele><time>2025-05-25T03:11:53Z</time></trkpt>
<trkpt lat="50.256523" lon="4.375101"><ele>201.19</ele><time>2025-05-25T03:11:58Z</time></trkpt>
<trkpt lat="50.256306" lon="4.37524"><ele>202.2</ele><time>2025-05-25T03:12:03Z</time></trkpt>
<trkpt lat="50.254719" lon="4.376119"><ele>208.01</ele><time>2025-05-25T03:12:08Z</time></trkpt>
<trkpt lat="50.254255" lon="4.376434"><ele>208.95</ele><time>2025-05-25T03:12:13Z</time></trkpt>
<trkpt lat="50.252467" lon="4.377936"><ele>198.38</ele><time>2025-05-25T03:12:18Z</time></trkpt>
<trkpt lat="50.251597" lon="4.378687"><ele>199.5</ele><time>2025-05-25T03:12:22Z</time></trkpt>
<trkpt lat="50.251209" lon="4.379102"><ele>201.0</ele><time>2025-05-25T03:12:27Z</time></trkpt>
<trkpt lat="50.251044" lon="4.379351"><ele>201.48</ele><time>2025-05-25T03:12:32Z</time></trkpt>
<trkpt lat="50.250362" lon="4.380661"><ele>204.81</ele><time>2025-05-25T03:12:37Z</time></trkpt>
<trkpt lat="50.250121" lon="4.381018"><ele>205.85</ele><time>2025-05-25T03:12:42Z</time></trkpt>
<trkpt lat="50.249497" lon="4.38181"><ele>210.62</ele><time>2025-05-25T03:12:47Z</time></trkpt>
<trkpt lat="50.249447" lon="4.38191"><ele>210.98</ele><time>2025-05-25T03:12:52Z</time></trkpt>
<trkpt lat="50.249423" lon="4.382008"><ele>211.0</ele><time>2025-05-25T03:12:57Z</time></trkpt>
<trkpt lat="50.249329" lon="4.382801"><ele>209.95</ele><time>2025-05-25T03:13:02Z</time></trkpt>
<trkpt lat="50.249327" lon="4.382993"><ele>209.55</ele><time>2025-05-25T03:13:07Z</time></trkpt>
<trkpt lat="50.249373" lon="4.383242"><ele>208.59</ele><time>2025-05-25T03:13:11Z</time></trkpt>
<trkpt lat="50.249441" lon="4.383426"><ele>208.01</ele><time>2025-05-25T03:13:16Z</time></trkpt>
<trkpt lat="50.249624" lon="4.383771"><ele>207.15</ele><time>2025-05-25T03:13:21Z</time></trkpt>
<trkpt lat="50.249703" lon="4.383965"><ele>207.0</ele><time>2025-05-25T03:13:26Z</time></trkpt>
<trkpt lat="50.249756" lon="4.384149"><ele>206.99</ele><time>2025-05-25T03:13:31Z</time></trkpt>
<trkpt lat="50.249799" lon="4.384406"><ele>208.1</ele><time>2025-05-25T03:13:36Z</time></trkpt>
<trkpt lat="50.249813" lon="4.3847"><ele>208.33</ele><time>2025-05-25T03:13:41Z</time></trkpt>
<trkpt lat="50.249793" lon="4.385053"><ele>207.51</ele><time>2025-05-25T03:13:46Z</time></trkpt>
<trkpt lat="50.249762" lon="4.385296"><ele>207.33</ele><time>2025-05-25T03:13:51Z</time></trkpt>
<trkpt lat="50.249575" lon="4.38604"><ele>208.39</ele><time>2025-05-25T03:13:56Z</time></trkpt>
<trkpt lat="50.249426" lon="4.386443"><ele>209.26</ele><time>2025-05-25T03:14:00Z</time></trkpt>
<trkpt lat="50.249339" lon="4.386609"><ele>210.18</ele><time>2025-05-25T03:14:05Z</time></trkpt>
<trkpt lat="50.249194" lon="4.38683"><ele>210.9</ele><time>2025-05-25T03:14:10Z</time></trkpt>
<trkpt lat="50.248491" lon="4.387787"><ele>212.41</ele><time>2025-05-25T03:14:15Z</time></trkpt>
<trkpt lat="50.248318" lon="4.388052"><ele>213.05</ele><time>2025-05-25T03:14:20Z</time></trkpt>
<trkpt lat="50.248189" lon="4.388297"><ele>213.1</ele><time>2025-05-25T03:14:25Z</time></trkpt>
<trkpt lat="50.24797" lon="4.388795"><ele>212.95</ele><time>2025-05-25T03:14:30Z</time></trkpt>
<trkpt lat="50.247396" lon="4.390746"><ele>211.0</ele><time>2025-05-25T03:14:35Z</time></trkpt>
<trkpt lat="50.246591" lon="4.393611"><ele>218.0</ele><time>2025-05-25T03:14:40Z</time></trkpt>
<trkpt lat="50.246351" lon="4.394518"><ele>222.04</ele><time>2025-05-25T03:14:45Z</time></trkpt>
<trkpt lat="50.246201" lon="4.395206"><ele>223.68</ele><time>2025-05-25T03:14:50Z</time></trkpt>
<trkpt lat="50.244677" lon="4.403017"><ele>219.7</ele><time>2025-05-25T03:14:54Z</time></trkpt>
<trkpt lat="50.244471" lon="4.404206"><ele>214.95</ele><time>2025-05-25T03:14:59Z</time></trkpt>
<trkpt lat="50.244451" lon="4.404622"><ele>214.02</ele><time>2025-05-25T03:15:04Z</time></trkpt>
<trkpt lat="50.244469" lon="4.405021"><ele>214.93</ele><time>2025-05-25T03:15:09Z</time></trkpt>
<trkpt lat="50.24458" lon="4.405684"><ele>213.25</ele><time>2025-05-25T03:15:14Z</time></trkpt>
<trkpt lat="50.246237" lon="4.414512"><ele>185.41</ele><time>2025-05-25T03:15:19Z</time></trkpt>
<trkpt lat="50.24626" lon="4.414852"><ele>184.57</ele><time>2025-05-25T03:15:24Z</time></trkpt>
<trkpt lat="50.246265" lon="4.415307"><ele>185.21</ele><time>2025-05-25T03:15:29Z</time></trkpt>
<trkpt lat="50.245384" lon="4.42145"><ele>181.88</ele><time>2025-05-25T03:15:34Z</time></trkpt>
<trkpt lat="50.245364" lon="4.421956"><ele>183.54</ele><time>2025-05-25T03:15:39Z</time></trkpt>
<trkpt lat="50.245368" lon="4.422671"><ele>179.65</ele><time>2025-05-25T03:15:43Z</time></trkpt>
<trkpt lat="50.245408" lon="4.423545"><ele>175.11</ele><time>2025-05-25T03:15:48Z</time></trkpt>
<trkpt lat="50.245477" lon="4.423885"><ele>173.9</ele><time>2025-05-25T03:15:53Z</time></trkpt>
<trkpt lat="50.245571" lon="4.424098"><ele>173.82</ele><time>2025-05-25T03:15:58Z</time></trkpt>
<trkpt lat="50.245712" lon="4.424319"><ele>174.73</ele><time>2025-05-25T03:16:03Z</time></trkpt>
<trkpt lat="50.246462" lon="4.425232"><ele>173.07</ele><time>2025-05-25T03:16:08Z</time></trkpt>
<trkpt lat="50.246459" lon="4.425502"><ele>170.53</ele><time>2025-05-25T03:16:13Z</time></trkpt>
<trkpt lat="50.247416" lon="4.425555"><ele>171.0</ele><time>2025-05-25T03:16:17Z</time></trkpt>
<trkpt lat="50.248375" lon="4.425759"><ele>167.15</ele><time>2025-05-25T03:16:22Z</time></trkpt>
<trkpt lat="50.2489" lon="4.425965"><ele>166.44</ele><time>2025-05-25T03:16:27Z</time></trkpt>
<trkpt lat="50.249363" lon="4.426194"><ele>165.79</ele><time>2025-05-25T03:16:31Z</time></trkpt>
<trkpt lat="50.249815" lon="4.426478"><ele>167.57</ele><time>2025-05-25T03:16:36Z</time></trkpt>
<trkpt lat="50.2521" lon="4.428486"><ele>166.01</ele><time>2025-05-25T03:16:40Z</time></trkpt>
<trkpt lat="50.253011" lon="4.429296"><ele>167.3</ele><time>2025-05-25T03:16:45Z</time></trkpt>
<trkpt lat="50.253371" lon="4.429665"><ele>167.31</ele><time>2025-05-25T03:16:49Z</time></trkpt>
<trkpt lat="50.253584" lon="4.429902"><ele>167.26</ele><time>2025-05-25T03:16:54Z</time></trkpt>
<trkpt lat="50.253695" lon="4.430034"><ele>166.31</ele><time>2025-05-25T03:16:58Z</time></trkpt>
<trkpt lat="50.253955" lon="4.430426"><ele>164.87</ele><time>2025-05-25T03:17:03Z</time></trkpt>
<trkpt lat="50.254256" lon="4.430943"><ele>163.6</ele><time>2025-05-25T03:17:07Z</time></trkpt>
<trkpt lat="50.254472" lon="4.431404"><ele>163.14</ele><time>2025-05-25T03:17:12Z</time></trkpt>
<trkpt lat="50.254543" lon="4.431604"><ele>163.85</ele><time>2025-05-25T03:17:16Z</time></trkpt>
<trkpt lat="50.25467" lon="4.431958"><ele>164.01</ele><time>2025-05-25T03:17:21Z</time></trkpt>
<trkpt lat="50.255145" lon="4.433021"><ele>170.63</ele><time>2025-05-25T03:17:25Z</time></trkpt>
<trkpt lat="50.255352" lon="4.433399"><ele>171.82</ele><time>2025-05-25T03:17:30Z</time></trkpt>
<trkpt lat="50.255775" lon="4.433986"><ele>173.03</ele><time>2025-05-25T03:17:34Z</time></trkpt>
<trkpt lat="50.256229" lon="4.434442"><ele>167.89</ele><time>2025-05-25T03:17:39Z</time></trkpt>
<trkpt lat="50.256632" lon="4.43475"><ele>168.76</ele><time>2025-05-25T03:17:43Z</time></trkpt>
<trkpt lat="50.25701" lon="4.434963"><ele>166.79</ele><time>2025-05-25T03:17:48Z</time></trkpt>
<trkpt lat="50.257348" lon="4.435091"><ele>165.0</ele><time>2025-05-25T03:17:52Z</time></trkpt>
<trkpt lat="50.257658" lon="4.435172"><ele>166.14</ele><time>2025-05-25T03:17:57Z</time></trkpt>
<trkpt lat="50.2585" lon="4.435315"><ele>165.86</ele><time>2025-05-25T03:18:01Z</time></trkpt>
<trkpt lat="50.258884" lon="4.4353"><ele>163.05</ele><time>2025-05-25T03:18:06Z</time></trkpt>
<trkpt lat="50.259411" lon="4.435173"><ele>164.63</ele><time>2025-05-25T03:18:10Z</time></trkpt>
<trkpt lat="50.260392" lon="4.434845"><ele>165.76</ele><time>2025-05-25T03:18:15Z</time></trkpt>
<trkpt lat="50.260724" lon="4.434785"><ele>168.4</ele><time>2025-05-25T03:18:19Z</time></trkpt>
<trkpt lat="50.26133" lon="4.434778"><ele>173.58</ele><time>2025-05-25T03:18:24Z</time></trkpt>
<trkpt lat="50.261607" lon="4.434818"><ele>175.36</ele><time>2025-05-25T03:18:28Z</time></trkpt>
<trkpt lat="50.264605" lon="4.435632"><ele>176.42</ele><time>2025-05-25T03:18:33Z</time></trkpt>
<trkpt lat="50.264857" lon="4.435725"><ele>174.54</ele><time>2025-05-25T03:18:38Z</time></trkpt>
<trkpt lat="50.265094" lon="4.435842"><ele>171.97</ele><time>2025-05-25T03:18:42Z</time></trkpt>
<trkpt lat="50.265353" lon="4.436015"><ele>168.42</ele><time>2025-05-25T03:18:47Z</time></trkpt>
<trkpt lat="50.265608" lon="4.436229"><ele>167.0</ele><time>2025-05-25T03:18:51Z</time></trkpt>
<trkpt lat="50.26583" lon="4.436454"><ele>167.0</ele><time>2025-05-25T03:18:56Z</time></trkpt>
<trkpt lat="50.266106" lon="4.436812"><ele>166.01</ele><time>2025-05-25T03:19:00Z</time></trkpt>
<trkpt lat="50.266297" lon="4.437129"><ele>165.34</ele><time>2025-05-25T03:19:05Z</time></trkpt>
<trkpt lat="50.266493" lon="4.437524"><ele>164.95</ele><time>2025-05-25T03:19:09Z</time></trkpt>
<trkpt lat="50.266652" lon="4.437894"><ele>164.93</ele><time>2025-05-25T03:19:14Z</time></trkpt>
<trkpt lat="50.26675" lon="4.438164"><ele>165.03</ele><time>2025-05-25T03:19:18Z</time></trkpt>
<trkpt lat="50.266873" lon="4.438601"><ele>165.48</ele><time>2025-05-25T03:19:23Z</time></trkpt>
<trkpt lat="50.267144" lon="4.440081"><ele>166.44</ele><time>2025-05-25T03:19:27Z</time></trkpt>
<trkpt lat="50.267908" lon="4.444083"><ele>177.94</ele><time>2025-05-25T03:19:32Z</time></trkpt>
<trkpt lat="50.267941" lon="4.444385"><ele>178.04</ele><time>2025-05-25T03:19:36Z</time></trkpt>
<trkpt lat="50.268004" lon="4.445232"><ele>179.83</ele><time>2025-05-25T03:19:41Z</time></trkpt>
<trkpt lat="50.268009" lon="4.445662"><ele>181.06</ele><time>2025-05-25T03:19:45Z</time></trkpt>
<trkpt lat="50.267969" lon="4.446779"><ele>181.0</ele><time>2025-05-25T03:19:50Z</time></trkpt>
<trkpt lat="50.267884" lon="4.447511"><ele>180.66</ele><time>2025-05-25T03:19:54Z</time></trkpt>
<trkpt lat="50.267294" lon="4.451532"><ele>189.73</ele><time>2025-05-25T03:19:59Z</time></trkpt>
<trkpt lat="50.2671" lon="4.452502"><ele>188.87</ele><time>2025-05-25T03:20:03Z</time></trkpt>
<trkpt lat="50.267065" lon="4.452738"><ele>187.9</ele><time>2025-05-25T03:20:08Z</time></trkpt>
<trkpt lat="50.266954" lon="4.453812"><ele>189.75</ele><time>2025-05-25T03:20:12Z</time></trkpt>
<trkpt lat="50.266814" lon="4.453788"><ele>190.28</ele><time>2025-05-25T03:20:23Z</time></trkpt>
<trkpt lat="50.266585" lon="4.453871"><ele>191.02</ele><time>2025-05-25T03:20:34Z</time></trkpt>
<trkpt lat="50.266428" lon="4.454068"><ele>191.55</ele><time>2025-05-25T03:20:45Z</time></trkpt>
<trkpt lat="50.266295" lon="4.454401"><ele>194.41</ele><time>2025-05-25T03:20:56Z</time></trkpt>
<trkpt lat="50.266202" lon="4.45472"><ele>195.67</ele><time>2025-05-25T03:21:07Z</time></trkpt>
<trkpt lat="50.266185" lon="4.455088"><ele>196.73</ele><time>2025-05-25T03:21:18Z</time></trkpt>
<trkpt lat="50.266205" lon="4.456559"><ele>197.11</ele><time>2025-05-25T03:21:28Z</time></trkpt>
<trkpt lat="50.266065" lon="4.45815"><ele>200.55</ele><time>2025-05-25T03:21:39Z</time></trkpt>
<trkpt lat="50.265787" lon="4.459115"><ele>206.5</ele><time>2025-05-25T03:21:50Z</time></trkpt>
<trkpt lat="50.26569" lon="4.459655"><ele>209.58</ele><time>2025-05-25T03:22:01Z</time></trkpt>
<trkpt lat="50.265634" lon="4.460158"><ele>213.99</ele><time>2025-05-25T03:22:12Z</time></trkpt>
<trkpt lat="50.265613" lon="4.461258"><ele>215.91</ele><time>2025-05-25T03:22:23Z</time></trkpt>
<trkpt lat="50.26549" lon="4.46211"><ele>222.15</ele><time>2025-05-25T03:22:34Z</time></trkpt>
<trkpt lat="50.265485" lon="4.46225"><ele>223.12</ele><time>2025-05-25T03:22:44Z</time></trkpt>
<trkpt lat="50.265484" lon="4.465176"><ele>233.29</ele><time>2025-05-25T03:22:55Z</time></trkpt>
<trkpt lat="50.265439" lon="4.466397"><ele>238.31</ele><time>2025-05-25T03:23:06Z</time></trkpt>
<trkpt lat="50.265222" lon="4.468845"><ele>250.15</ele><time>2025-05-25T03:23:17Z</time></trkpt>
<trkpt lat="50.265012" lon="4.471395"><ele>259.78</ele><time>2025-05-25T03:23:28Z</time></trkpt>
<trkpt lat="50.264946" lon="4.471955"><ele>260.82</ele><time>2025-05-25T03:23:39Z</time></trkpt>
<trkpt lat="50.264834" lon="4.472517"><ele>263.43</ele><time>2025-05-25T03:23:50Z</time></trkpt>
<trkpt lat="50.263749" lon="4.476167"><ele>265.9</ele><time>2025-05-25T03:24:00Z</time></trkpt>
<trkpt lat="50.263648" lon="4.476524"><ele>265.38</ele><time>2025-05-25T03:24:11Z</time></trkpt>
<trkpt lat="50.263483" lon="4.477232"><ele>264.54</ele><time>2025-05-25T03:24:22Z</time></trkpt>
<trkpt lat="50.263121" lon="4.480793"><ele>261.0</ele><time>2025-05-25T03:24:33Z</time></trkpt>
<trkpt lat="50.262499" lon="4.487701"><ele>257.45</ele><time>2025-05-25T03:24:44Z</time></trkpt>
<trkpt lat="50.261907" lon="4.491131"><ele>249.73</ele><time>2025-05-25T03:24:55Z</time></trkpt>
<trkpt lat="50.261827" lon="4.491652"><ele>249.55</ele><time>2025-05-25T03:25:06Z</time></trkpt>
<trkpt lat="50.261615" lon="4.493829"><ele>251.03</ele><time>2025-05-25T03:25:16Z</time></trkpt>
<trkpt lat="50.261659" lon="4.494591"><ele>250.41</ele><time>2025-05-25T03:25:27Z</time></trkpt>
<trkpt lat="50.261845" lon="4.496439"><ele>247.32</ele><time>2025-05-25T03:25:38Z</time></trkpt>
<trkpt lat="50.2622" lon="4.497851"><ele>245.92</ele><time>2025-05-25T03:25:49Z</time></trkpt>
<trkpt lat="50.26268" lon="4.499164"><ele>244.59</ele><time>2025-05-25T03:26:00Z</time></trkpt>
<trkpt lat="50.262881" lon="4.499614"><ele>246.12</ele><time>2025-05-25T03:26:11Z</time></trkpt>
<trkpt lat="50.263228" lon="4.500273"><ele>248.0</ele><time>2025-05-25T03:26:22Z</time></trkpt>
<trkpt lat="50.263526" lon="4.500774"><ele>251.08</ele><time>2025-05-25T03:26:32Z</time></trkpt>
<trkpt lat="50.26381" lon="4.501199"><ele>254.14</ele><time>2025-05-25T03:26:43Z</time></trkpt>
<trkpt lat="50.264828" lon="4.502523"><ele>258.03</ele><time>2025-05-25T03:26:54Z</time></trkpt>
<trkpt lat="50.264994" lon="4.502734"><ele>258.83</ele><time>2025-05-25T03:27:05Z</time></trkpt>
<trkpt lat="50.265354" lon="4.503286"><ele>261.38</ele><time>2025-05-25T03:27:16Z</time></trkpt>
<trkpt lat="50.265647" lon="4.503824"><ele>260.72</ele><time>2025-05-25T03:27:27Z</time></trkpt>
<trkpt lat="50.266105" lon="4.504792"><ele>260.73</ele><time>2025-05-25T03:27:38Z</time></trkpt>
<trkpt lat="50.266522" lon="4.505865"><ele>257.89</ele><time>2025-05-25T03:27:48Z</time></trkpt>
<trkpt lat="50.272004" lon="4.520245"><ele>263.33</ele><time>2025-05-25T03:27:59Z</time></trkpt>
<trkpt lat="50.273176" lon="4.52325"><ele>262.3</ele><time>2025-05-25T03:28:10Z</time></trkpt>
<trkpt lat="50.275244" lon="4.528742"><ele>275.41</ele><time>2025-05-25T03:28:21Z</time></trkpt>
<trkpt lat="50.277344" lon="4.534176"><ele>263.97</ele><time>2025-05-25T03:28:32Z</time></trkpt>
<trkpt lat="50.280879" lon="4.543544"><ele>251.53</ele><time>2025-05-25T03:28:43Z</time></trkpt>
<trkpt lat="50.281999" lon="4.548826"><ele>242.66</ele><time>2025-05-25T03:28:54Z</time></trkpt>
<trkpt lat="50.282927" lon="4.553342"><ele>226.37</ele><time>2025-05-25T03:29:04Z</time></trkpt>
<trkpt lat="50.283181" lon="4.554543"><ele>224.78</ele><time>2025-05-25T03:29:15Z</time></trkpt>
<trkpt lat="50.283245" lon="4.554982"><ele>228.96</ele><time>2025-05-25T03:29:26Z</time></trkpt>
<trkpt lat="50.283274" lon="4.555577"><ele>233.59</ele><time>2025-05-25T03:29:37Z</time></trkpt>
<trkpt lat="50.283247" lon="4.556184"><ele>235.09</ele><time>2025-05-25T03:29:48Z</time></trkpt>
<trkpt lat="50.283008" lon="4.559961"><ele>233.29</ele><time>2025-05-25T03:29:59Z</time></trkpt>
<trkpt lat="50.282637" lon="4.566439"><ele>256.27</ele><time>2025-05-25T03:30:10Z</time></trkpt>
<trkpt lat="50.282633" lon="4.566696"><ele>257.74</ele><time>2025-05-25T03:30:20Z</time></trkpt>
<trkpt lat="50.282667" lon="4.567042"><ele>261.12</ele><time>2025-05-25T03:30:31Z</time></trkpt>
<trkpt lat="50.282692" lon="4.567156"><ele>262.43</ele><time>2025-05-25T03:30:42Z</time></trkpt>
<trkpt lat="50.282799" lon="4.567518"><ele>267.35</ele><time>2025-05-25T03:30:53Z</time></trkpt>
<trkpt lat="50.28536" lon="4.574416"><ele>268.57</ele><time>2025-05-25T03:31:04Z</time></trkpt>
<trkpt lat="50.286808" lon="4.578434"><ele>262.44</ele><time>2025-05-25T03:31:15Z</time></trkpt>
<trkpt lat="50.288364" lon="4.585402"><ele>257.77</ele><time>2025-05-25T03:31:26Z</time></trkpt>
<trkpt lat="50.288739" lon="4.587147"><ele>259.53</ele><time>2025-05-25T03:31:37Z</time></trkpt>
<trkpt lat="50.289327" lon="4.589712"><ele>266.98</ele><time>2025-05-25T03:31:47Z</time></trkpt>
<trkpt lat="50.290774" lon="4.596483"><ele>263.84</ele><time>2025-05-25T03:31:58Z</time></trkpt>
<trkpt lat="50.290968" lon="4.597405"><ele>261.0</ele><time>2025-05-25T03:32:09Z</time></trkpt>
<trkpt lat="50.292983" lon="4.60637"><ele>255.49</ele><time>2025-05-25T03:32:20Z</time></trkpt>
<trkpt lat="50.294905" lon="4.61525"><ele>242.86</ele><time>2025-05-25T03:32:31Z</time></trkpt>
<trkpt lat="50.296937" lon="4.624458"><ele>238.05</ele><time>2025-05-25T03:32:42Z</time></trkpt>
<trkpt lat="50.298822" lon="4.633128"><ele>250.28</ele><time>2025-05-25T03:32:53Z</time></trkpt>
<trkpt lat="50.294823" lon="4.637114"><ele>253.0</ele><time>2025-05-25T03:33:02Z</time></trkpt>
<trkpt lat="50.292211" lon="4.639761"><ele>255.86</ele><time>2025-05-25T03:33:12Z</time></trkpt>
<trkpt lat="50.291125" lon="4.640982"><ele>257.54</ele><time>2025-05-25T03:33:22Z</time></trkpt>
<trkpt lat="50.290985" lon="4.641172"><ele>258.0</ele><time>2025-05-25T03:33:32Z</time></trkpt>
<trkpt lat="50.289714" lon="4.643127"><ele>259.78</ele><time>2025-05-25T03:33:41Z</time></trkpt>
<trkpt lat="50.28947" lon="4.64339"><ele>260.82</ele><time>2025-05-25T03:33:51Z</time></trkpt>
<trkpt lat="50.289409" lon="4.643353"><ele>261.13</ele><time>2025-05-25T03:33:54Z</time></trkpt>
<trkpt lat="50.289351" lon="4.643349"><ele>261.33</ele><time>2025-05-25T03:33:57Z</time></trkpt>
<trkpt lat="50.289265" lon="4.643402"><ele>261.64</ele><time>2025-05-25T03:34:00Z</time></trkpt>
<trkpt lat="50.289208" lon="4.643494"><ele>261.85</ele><time>2025-05-25T03:34:03Z</time></trkpt>
<trkpt lat="50.289186" lon="4.643579"><ele>261.93</ele><time>2025-05-25T03:34:06Z</time></trkpt>
<trkpt lat="50.289196" lon="4.64376"><ele>261.89</ele><time>2025-05-25T03:34:09Z</time></trkpt>
<trkpt lat="50.289051" lon="4.644136"><ele>261.53</ele><time>2025-05-25T03:34:12Z</time></trkpt>
<trkpt lat="50.287636" lon="4.646149"><ele>264.51</ele><time>2025-05-25T03:34:15Z</time></trkpt>
<trkpt lat="50.286137" lon="4.648239"><ele>271.75</ele><time>2025-05-25T03:34:18Z</time></trkpt>
<trkpt lat="50.285352" lon="4.649234"><ele>270.51</ele><time>2025-05-25T03:34:20Z</time></trkpt>
<trkpt lat="50.285635" lon="4.650254"><ele>272.0</ele><time>2025-05-25T03:34:28Z</time></trkpt>
<trkpt lat="50.285833" lon="4.651972"><ele>274.0</ele><time>2025-05-25T03:34:35Z</time></trkpt>
<trkpt lat="50.285913" lon="4.655392"><ele>272.42</ele><time>2025-05-25T03:34:43Z</time></trkpt>
<trkpt lat="50.286" lon="4.656228"><ele>271.6</ele><time>2025-05-25T03:34:50Z</time></trkpt>
<trkpt lat="50.286172" lon="4.656838"><ele>271.22</ele><time>2025-05-25T03:34:58Z</time></trkpt>
<trkpt lat="50.286167" lon="4.657004"><ele>271.2</ele><time>2025-05-25T03:35:05Z</time></trkpt>
<trkpt lat="50.286008" lon="4.657809"><ele>270.0</ele><time>2025-05-25T03:35:12Z</time></trkpt>
<trkpt lat="50.285897" lon="4.658199"><ele>269.88</ele><time>2025-05-25T03:35:20Z</time></trkpt>
<trkpt lat="50.285851" lon="4.658487"><ele>269.93</ele><time>2025-05-25T03:35:27Z</time></trkpt>
<trkpt lat="50.285828" lon="4.658773"><ele>269.44</ele><time>2025-05-25T03:35:35Z</time></trkpt>
<trkpt lat="50.285626" lon="4.659513"><ele>269.0</ele><time>2025-05-25T03:35:42Z</time></trkpt>
<trkpt lat="50.285509" lon="4.65981"><ele>268.52</ele><time>2025-05-25T03:35:49Z</time></trkpt>
<trkpt lat="50.285248" lon="4.660101"><ele>267.0</ele><time>2025-05-25T03:35:57Z</time></trkpt>
<trkpt lat="50.284981" lon="4.66025"><ele>267.0</ele><time>2025-05-25T03:36:04Z</time></trkpt>
<trkpt lat="50.284776" lon="4.660305"><ele>266.9</ele><time>2025-05-25T03:36:12Z</time></trkpt>
<trkpt lat="50.284181" lon="4.660562"><ele>263.1</ele><time>2025-05-25T03:36:19Z</time></trkpt>
<trkpt lat="50.283558" lon="4.660952"><ele>259.42</ele><time>2025-05-25T03:36:27Z</time></trkpt>
<trkpt lat="50.283488" lon="4.661017"><ele>259.66</ele><time>2025-05-25T03:36:34Z</time></trkpt>
<trkpt lat="50.283459" lon="4.661083"><ele>259.9</ele><time>2025-05-25T03:36:41Z</time></trkpt>
<trkpt lat="50.283568" lon="4.661227"><ele>260.42</ele><time>2025-05-25T03:36:47Z</time></trkpt>
<trkpt lat="50.283696" lon="4.661639"><ele>261.93</ele><time>2025-05-25T03:36:53Z</time></trkpt>
<trkpt lat="50.283869" lon="4.662036"><ele>262.28</ele><time>2025-05-25T03:36:58Z</time></trkpt>
<trkpt lat="50.284141" lon="4.662466"><ele>262.01</ele><time>2025-05-25T03:37:04Z</time></trkpt>
<trkpt lat="50.284204" lon="4.66252"><ele>262.2</ele><time>2025-05-25T03:37:10Z</time></trkpt>
<trkpt lat="50.284653" lon="4.662685"><ele>263.25</ele><time>2025-05-25T03:37:15Z</time></trkpt>
<trkpt lat="50.284949" lon="4.662835"><ele>263.82</ele><time>2025-05-25T03:37:21Z</time></trkpt>
<trkpt lat="50.285203" lon="4.663161"><ele>262.89</ele><time>2025-05-25T03:37:26Z</time></trkpt>
<trkpt lat="50.28584" lon="4.664182"><ele>259.94</ele><time>2025-05-25T03:37:32Z</time></trkpt>
<trkpt lat="50.287606" lon="4.666625"><ele>265.38</ele><time>2025-05-25T03:37:38Z</time></trkpt>
<trkpt lat="50.288271" lon="4.667342"><ele>267.0</ele><time>2025-05-25T03:37:43Z</time></trkpt>
<trkpt lat="50.288854" lon="4.667972"><ele>267.0</ele><time>2025-05-25T03:37:49Z</time></trkpt>
<trkpt lat="50.289132" lon="4.668418"><ele>268.0</ele><time>2025-05-25T03:37:54Z</time></trkpt>
<trkpt lat="50.289391" lon="4.66906"><ele>268.19</ele><time>2025-05-25T03:38:00Z</time></trkpt>
<trkpt lat="50.291122" lon="4.672177"><ele>248.38</ele><time>2025-05-25T03:38:06Z</time></trkpt>
<trkpt lat="50.291466" lon="4.672759"><ele>246.54</ele><time>2025-05-25T03:38:11Z</time></trkpt>
<trkpt lat="50.291861" lon="4.673262"><ele>245.86</ele><time>2025-05-25T03:38:17Z</time></trkpt>
<trkpt lat="50.293869" lon="4.675553"><ele>249.92</ele><time>2025-05-25T03:38:23Z</time></trkpt>
<trkpt lat="50.295265" lon="4.677745"><ele>241.12</ele><time>2025-05-25T03:38:28Z</time></trkpt>
<trkpt lat="50.295181" lon="4.678482"><ele>236.81</ele><time>2025-05-25T03:38:31Z</time></trkpt>
<trkpt lat="50.295169" lon="4.678711"><ele>235.89</ele><time>2025-05-25T03:38:33Z</time></trkpt>
<trkpt lat="50.295188" lon="4.678885"><ele>235.02</ele><time>2025-05-25T03:38:36Z</time></trkpt>
<trkpt lat="50.295231" lon="4.679038"><ele>234.01</ele><time>2025-05-25T03:38:38Z</time></trkpt>
<trkpt lat="50.295341" lon="4.679226"><ele>232.07</ele><time>2025-05-25T03:38:41Z</time></trkpt>
<trkpt lat="50.295444" lon="4.679329"><ele>230.28</ele><time>2025-05-25T03:38:43Z</time></trkpt>
<trkpt lat="50.295631" lon="4.679427"><ele>228.44</ele><time>2025-05-25T03:38:46Z</time></trkpt>
<trkpt lat="50.295819" lon="4.679476"><ele>228.95</ele><time>2025-05-25T03:38:48Z</time></trkpt>
<trkpt lat="50.296657" lon="4.679545"><ele>226.0</ele><time>2025-05-25T03:38:51Z</time></trkpt>
<trkpt lat="50.296954" lon="4.679668"><ele>225.96</ele><time>2025-05-25T03:38:53Z</time></trkpt>
<trkpt lat="50.297108" lon="4.679719"><ele>225.41</ele><time>2025-05-25T03:38:56Z</time></trkpt>
<trkpt lat="50.297216" lon="4.679799"><ele>225.3</ele><time>2025-05-25T03:38:59Z</time></trkpt>
<trkpt lat="50.297396" lon="4.680093"><ele>226.54</ele><time>2025-05-25T03:39:01Z</time></trkpt>
<trkpt lat="50.29726" lon="4.680513"><ele>228.1</ele><time>2025-05-25T03:39:05Z</time></trkpt>
<trkpt lat="50.297214" lon="4.680653"><ele>228.72</ele><time>2025-05-25T03:39:08Z</time></trkpt>
<trkpt lat="50.297039" lon="4.681262"><ele>233.42</ele><time>2025-05-25T03:39:12Z</time></trkpt>
<trkpt lat="50.296923" lon="4.68195"><ele>236.79</ele><time>2025-05-25T03:39:15Z</time></trkpt>
<trkpt lat="50.296861" lon="4.682581"><ele>238.39</ele><time>2025-05-25T03:39:19Z</time></trkpt>
<trkpt lat="50.296787" lon="4.68395"><ele>239.42</ele><time>2025-05-25T03:39:22Z</time></trkpt>
<trkpt lat="50.29674" lon="4.683988"><ele>239.05</ele><time>2025-05-25T03:39:26Z</time></trkpt>
<trkpt lat="50.296174" lon="4.684205"><ele>231.0</ele><time>2025-05-25T03:39:30Z</time></trkpt>
<trkpt lat="50.295483" lon="4.684556"><ele>239.15</ele><time>2025-05-25T03:39:33Z</time></trkpt>
<trkpt lat="50.294965" lon="4.684851"><ele>245.54</ele><time>2025-05-25T03:39:37Z</time></trkpt>
<trkpt lat="50.294858" lon="4.684951"><ele>245.18</ele><time>2025-05-25T03:39:40Z</time></trkpt>
<trkpt lat="50.294801" lon="4.685053"><ele>245.0</ele><time>2025-05-25T03:39:44Z</time></trkpt>
<trkpt lat="50.294746" lon="4.6852"><ele>245.0</ele><time>2025-05-25T03:39:47Z</time></trkpt>
<trkpt lat="50.294659" lon="4.685511"><ele>244.35</ele><time>2025-05-25T03:39:51Z</time></trkpt>
<trkpt lat="50.294515" lon="4.685892"><ele>245.96</ele><time>2025-05-25T03:39:55Z</time></trkpt>
<trkpt lat="50.294369" lon="4.686153"><ele>247.65</ele><time>2025-05-25T03:39:58Z</time></trkpt>
<trkpt lat="50.293722" lon="4.687184"><ele>250.27</ele><time>2025-05-25T03:40:02Z</time></trkpt>
<trkpt lat="50.293411" lon="4.68759"><ele>248.95</ele><time>2025-05-25T03:40:05Z</time></trkpt>
<trkpt lat="50.292971" lon="4.6881"><ele>249.16</ele><time>2025-05-25T03:40:09Z</time></trkpt>
<trkpt lat="50.292596" lon="4.688597"><ele>250.33</ele><time>2025-05-25T03:40:12Z</time></trkpt>
<trkpt lat="50.292346" lon="4.689016"><ele>251.76</ele><time>2025-05-25T03:40:16Z</time></trkpt>
<trkpt lat="50.292365" lon="4.689241"><ele>252.27</ele><time>2025-05-25T03:40:23Z</time></trkpt>
<trkpt lat="50.292587" lon="4.690583"><ele>251.9</ele><time>2025-05-25T03:40:29Z</time></trkpt>
<trkpt lat="50.293236" lon="4.693019"><ele>251.35</ele><time>2025-05-25T03:40:36Z</time></trkpt>
<trkpt lat="50.294359" lon="4.697364"><ele>246.18</ele><time>2025-05-25T03:40:42Z</time></trkpt>
<trkpt lat="50.295202" lon="4.70149"><ele>240.09</ele><time>2025-05-25T03:40:49Z</time></trkpt>
<trkpt lat="50.29609" lon="4.704799"><ele>232.64</ele><time>2025-05-25T03:40:56Z</time></trkpt>
<trkpt lat="50.296204" lon="4.705424"><ele>232.0</ele><time>2025-05-25T03:41:02Z</time></trkpt>
<trkpt lat="50.29636" lon="4.706659"><ele>232.1</ele><time>2025-05-25T03:41:09Z</time></trkpt>
<trkpt lat="50.29646" lon="4.708425"><ele>228.74</ele><time>2025-05-25T03:41:16Z</time></trkpt>
<trkpt lat="50.296612" lon="4.709788"><ele>228.95</ele><time>2025-05-25T03:41:22Z</time></trkpt>
<trkpt lat="50.296702" lon="4.712149"><ele>226.49</ele><time>2025-05-25T03:41:29Z</time></trkpt>
<trkpt lat="50.2969" lon="4.713428"><ele>225.69</ele><time>2025-05-25T03:41:35Z</time></trkpt>
<trkpt lat="50.296883" lon="4.714002"><ele>220.43</ele><time>2025-05-25T03:41:42Z</time></trkpt>
<trkpt lat="50.297066" lon="4.716539"><ele>205.2</ele><time>2025-05-25T03:41:49Z</time></trkpt>
<trkpt lat="50.297105" lon="4.716682"><ele>205.05</ele><time>2025-05-25T03:41:55Z</time></trkpt>
<trkpt lat="50.297404" lon="4.717392"><ele>207.21</ele><time>2025-05-25T03:42:02Z</time></trkpt>
<trkpt lat="50.297593" lon="4.717897"><ele>207.66</ele><time>2025-05-25T03:42:09Z</time></trkpt>
<trkpt lat="50.297613" lon="4.718321"><ele>207.03</ele><time>2025-05-25T03:42:15Z</time></trkpt>
<trkpt lat="50.297608" lon="4.719068"><ele>210.68</ele><time>2025-05-25T03:42:22Z</time></trkpt>
<trkpt lat="50.297162" lon="4.719042"><ele>212.08</ele><time>2025-05-25T03:42:25Z</time></trkpt>
<trkpt lat="50.296762" lon="4.719121"><ele>214.0</ele><time>2025-05-25T03:42:28Z</time></trkpt>
<trkpt lat="50.296567" lon="4.719198"><ele>214.07</ele><time>2025-05-25T03:42:32Z</time></trkpt>
<trkpt lat="50.296401" lon="4.719291"><ele>214.02</ele><time>2025-05-25T03:42:35Z</time></trkpt>
<trkpt lat="50.296281" lon="4.719393"><ele>213.61</ele><time>2025-05-25T03:42:38Z</time></trkpt>
<trkpt lat="50.296198" lon="4.719484"><ele>213.31</ele><time>2025-05-25T03:42:42Z</time></trkpt>
<trkpt lat="50.296005" lon="4.719759"><ele>211.85</ele><time>2025-05-25T03:42:45Z</time></trkpt>
<trkpt lat="50.295041" lon="4.721338"><ele>208.85</ele><time>2025-05-25T03:42:48Z</time></trkpt>
<trkpt lat="50.294748" lon="4.72173"><ele>211.51</ele><time>2025-05-25T03:42:52Z</time></trkpt>
<trkpt lat="50.294624" lon="4.721843"><ele>212.65</ele><time>2025-05-25T03:42:55Z</time></trkpt>
<trkpt lat="50.294398" lon="4.721983"><ele>215.33</ele><time>2025-05-25T03:42:58Z</time></trkpt>
<trkpt lat="50.289189" lon="4.724191"><ele>242.57</ele><time>2025-05-25T03:43:02Z</time></trkpt>
<trkpt lat="50.288981" lon="4.724295"><ele>242.95</ele><time>2025-05-25T03:43:05Z</time></trkpt>
<trkpt lat="50.288869" lon="4.724374"><ele>243.1</ele><time>2025-05-25T03:43:08Z</time></trkpt>
<trkpt lat="50.288733" lon="4.724532"><ele>244.67</ele><time>2025-05-25T03:43:12Z</time></trkpt>
<trkpt lat="50.288617" lon="4.724718"><ele>246.88</ele><time>2025-05-25T03:43:15Z</time></trkpt>
<trkpt lat="50.288445" lon="4.725172"><ele>251.0</ele><time>2025-05-25T03:43:18Z</time></trkpt>
<trkpt lat="50.288366" lon="4.725469"><ele>252.36</ele><time>2025-05-25T03:43:22Z</time></trkpt>
<trkpt lat="50.288279" lon="4.725829"><ele>253.98</ele><time>2025-05-25T03:43:25Z</time></trkpt>
<trkpt lat="50.28814" lon="4.726582"><ele>259.86</ele><time>2025-05-25T03:43:28Z</time></trkpt>
<trkpt lat="50.287865" lon="4.728643"><ele>263.23</ele><time>2025-05-25T03:43:32Z</time></trkpt>
<trkpt lat="50.287801" lon="4.728983"><ele>265.45</ele><time>2025-05-25T03:43:35Z</time></trkpt>
<trkpt lat="50.287703" lon="4.729381"><ele>265.77</ele><time>2025-05-25T03:43:38Z</time></trkpt>
<trkpt lat="50.287503" lon="4.73004"><ele>268.26</ele><time>2025-05-25T03:43:42Z</time></trkpt>
<trkpt lat="50.287269" lon="4.730664"><ele>272.76</ele><time>2025-05-25T03:43:45Z</time></trkpt>
<trkpt lat="50.287204" lon="4.730785"><ele>272.93</ele><time>2025-05-25T03:43:48Z</time></trkpt>
<trkpt lat="50.287063" lon="4.730976"><ele>272.5</ele><time>2025-05-25T03:43:52Z</time></trkpt>
<trkpt lat="50.28688" lon="4.731079"><ele>273.12</ele><time>2025-05-25T03:43:55Z</time></trkpt>
<trkpt lat="50.286667" lon="4.731134"><ele>273.91</ele><time>2025-05-25T03:43:58Z</time></trkpt>
<trkpt lat="50.284684" lon="4.731455"><ele>275.69</ele><time>2025-05-25T03:44:02Z</time></trkpt>
<trkpt lat="50.283727" lon="4.740968"><ele>277.22</ele><time>2025-05-25T03:44:37Z</time></trkpt>
<trkpt lat="50.282597" lon="4.741707"><ele>272.55</ele><time>2025-05-25T03:44:45Z</time></trkpt>
<trkpt lat="50.280041" lon="4.743078"><ele>278.38</ele><time>2025-05-25T03:44:53Z</time></trkpt>
<trkpt lat="50.279953" lon="4.743179"><ele>277.77</ele><time>2025-05-25T03:45:00Z</time></trkpt>
<trkpt lat="50.27985" lon="4.744616"><ele>274.38</ele><time>2025-05-25T03:45:04Z</time></trkpt>
<trkpt lat="50.279742" lon="4.74583"><ele>278.13</ele><time>2025-05-25T03:45:08Z</time></trkpt>
<trkpt lat="50.279467" lon="4.747711"><ele>271.71</ele><time>2025-05-25T03:45:12Z</time></trkpt>
<trkpt lat="50.27901" lon="4.750446"><ele>261.01</ele><time>2025-05-25T03:45:16Z</time></trkpt>
<trkpt lat="50.278707" lon="4.752101"><ele>251.52</ele><time>2025-05-25T03:45:19Z</time></trkpt>
<trkpt lat="50.278587" lon="4.753025"><ele>245.83</ele><time>2025-05-25T03:45:23Z</time></trkpt>
<trkpt lat="50.278613" lon="4.753408"><ele>245.02</ele><time>2025-05-25T03:45:27Z</time></trkpt>
<trkpt lat="50.279002" lon="4.755439"><ele>248.4</ele><time>2025-05-25T03:45:31Z</time></trkpt>
<trkpt lat="50.280369" lon="4.761893"><ele>237.62</ele><time>2025-05-25T03:45:35Z</time></trkpt>
<trkpt lat="50.280761" lon="4.763325"><ele>233.52</ele><time>2025-05-25T03:45:38Z</time></trkpt>
<trkpt lat="50.281463" lon="4.765422"><ele>231.43</ele><time>2025-05-25T03:45:42Z</time></trkpt>
<trkpt lat="50.281864" lon="4.766512"><ele>229.93</ele><time>2025-05-25T03:45:46Z</time></trkpt>
<trkpt lat="50.282658" lon="4.768508"><ele>228.07</ele><time>2025-05-25T03:45:50Z</time></trkpt>
<trkpt lat="50.282814" lon="4.768862"><ele>230.37</ele><time>2025-05-25T03:45:54Z</time></trkpt>
<trkpt lat="50.282863" lon="4.768999"><ele>230.08</ele><time>2025-05-25T03:45:57Z</time></trkpt>
<trkpt lat="50.282893" lon="4.769159"><ele>229.76</ele><time>2025-05-25T03:46:01Z</time></trkpt>
<trkpt lat="50.28288" lon="4.769435"><ele>229.9</ele><time>2025-05-25T03:46:05Z</time></trkpt>
<trkpt lat="50.282711" lon="4.77062"><ele>235.24</ele><time>2025-05-25T03:46:09Z</time></trkpt>
<trkpt lat="50.28232" lon="4.772359"><ele>239.81</ele><time>2025-05-25T03:46:12Z</time></trkpt>
<trkpt lat="50.281849" lon="4.774276"><ele>247.08</ele><time>2025-05-25T03:46:16Z</time></trkpt>
<trkpt lat="50.281714" lon="4.77511"><ele>250.83</ele><time>2025-05-25T03:46:20Z</time></trkpt>
<trkpt lat="50.281615" lon="4.775829"><ele>250.82</ele><time>2025-05-25T03:46:24Z</time></trkpt>
<trkpt lat="50.281559" lon="4.776635"><ele>252.84</ele><time>2025-05-25T03:46:28Z</time></trkpt>
<trkpt lat="50.281496" lon="4.777038"><ele>252.28</ele><time>2025-05-25T03:46:31Z</time></trkpt>
<trkpt lat="50.281343" lon="4.777515"><ele>249.85</ele><time>2025-05-25T03:46:35Z</time></trkpt>
<trkpt lat="50.280988" lon="4.778443"><ele>244.6</ele><time>2025-05-25T03:46:39Z</time></trkpt>
<trkpt lat="50.280906" lon="4.7787"><ele>243.36</ele><time>2025-05-25T03:46:43Z</time></trkpt>
<trkpt lat="50.280828" lon="4.779029"><ele>241.5</ele><time>2025-05-25T03:46:47Z</time></trkpt>
<trkpt lat="50.280412" lon="4.781612"><ele>233.2</ele><time>2025-05-25T03:46:50Z</time></trkpt>
<trkpt lat="50.280396" lon="4.78192"><ele>232.48</ele><time>2025-05-25T03:46:54Z</time></trkpt>
<trkpt lat="50.280401" lon="4.782304"><ele>231.31</ele><time>2025-05-25T03:46:58Z</time></trkpt>
<trkpt lat="50.280492" lon="4.783685"><ele>227.19</ele><time>2025-05-25T03:47:02Z</time></trkpt>
<trkpt lat="50.280617" lon="4.785081"><ele>226.55</ele><time>2025-05-25T03:47:06Z</time></trkpt>
<trkpt lat="50.280822" lon="4.786997"><ele>224.81</ele><time>2025-05-25T03:47:09Z</time></trkpt>
<trkpt lat="50.280818" lon="4.787686"><ele>222.33</ele><time>2025-05-25T03:47:13Z</time></trkpt>
<trkpt lat="50.280835" lon="4.787951"><ele>222.01</ele><time>2025-05-25T03:47:17Z</time></trkpt>
<trkpt lat="50.280922" lon="4.788264"><ele>221.57</ele><time>2025-05-25T03:47:21Z</time></trkpt>
<trkpt lat="50.281017" lon="4.788468"><ele>221.66</ele><time>2025-05-25T03:47:25Z</time></trkpt>
<trkpt lat="50.281023" lon="4.788811"><ele>220.96</ele><time>2025-05-25T03:47:28Z</time></trkpt>
<trkpt lat="50.281006" lon="4.789337"><ele>220.01</ele><time>2025-05-25T03:47:32Z</time></trkpt>
<trkpt lat="50.280946" lon="4.790181"><ele>214.9</ele><time>2025-05-25T03:47:36Z</time></trkpt>
<trkpt lat="50.280887" lon="4.790529"><ele>212.38</ele><time>2025-05-25T03:47:40Z</time></trkpt>
<trkpt lat="50.280816" lon="4.791284"><ele>209.02</ele><time>2025-05-25T03:47:43Z</time></trkpt>
<trkpt lat="50.280747" lon="4.791826"><ele>207.51</ele><time>2025-05-25T03:47:47Z</time></trkpt>
<trkpt lat="50.280513" lon="4.792636"><ele>202.36</ele><time>2025-05-25T03:47:51Z</time></trkpt>
<trkpt lat="50.28045" lon="4.792752"><ele>201.71</ele><time>2025-05-25T03:47:55Z</time></trkpt>
<trkpt lat="50.280204" lon="4.793002"><ele>200.79</ele><time>2025-05-25T03:47:59Z</time></trkpt>
<trkpt lat="50.279932" lon="4.793232"><ele>199.36</ele><time>2025-05-25T03:48:02Z</time></trkpt>
<trkpt lat="50.279894" lon="4.793341"><ele>199.0</ele><time>2025-05-25T03:48:06Z</time></trkpt>
<trkpt lat="50.279724" lon="4.793518"><ele>199.0</ele><time>2025-05-25T03:48:10Z</time></trkpt>
<trkpt lat="50.279585" lon="4.793626"><ele>198.45</ele><time>2025-05-25T03:48:14Z</time></trkpt>
<trkpt lat="50.279439" lon="4.793685"><ele>197.72</ele><time>2025-05-25T03:48:18Z</time></trkpt>
<trkpt lat="50.278802" lon="4.793772"><ele>199.8</ele><time>2025-05-25T03:48:21Z</time></trkpt>
<trkpt lat="50.27859" lon="4.793914"><ele>202.0</ele><time>2025-05-25T03:48:25Z</time></trkpt>
<trkpt lat="50.278439" lon="4.793977"><ele>202.0</ele><time>2025-05-25T03:48:29Z</time></trkpt>
<trkpt lat="50.278396" lon="4.793994"><ele>202.0</ele><time>2025-05-25T03:48:33Z</time></trkpt>
<trkpt lat="50.278368" lon="4.794259"><ele>202.29</ele><time>2025-05-25T03:48:35Z</time></trkpt>
<trkpt lat="50.278441" lon="4.795096"><ele>201.61</ele><time>2025-05-25T03:48:38Z</time></trkpt>
<trkpt lat="50.278399" lon="4.795616"><ele>201.31</ele><time>2025-05-25T03:48:40Z</time></trkpt>
<trkpt lat="50.278348" lon="4.795962"><ele>199.99</ele><time>2025-05-25T03:48:43Z</time></trkpt>
<trkpt lat="50.278258" lon="4.796367"><ele>198.33</ele><time>2025-05-25T03:48:45Z</time></trkpt>
<trkpt lat="50.277924" lon="4.797061"><ele>200.23</ele><time>2025-05-25T03:48:48Z</time></trkpt>
<trkpt lat="50.277711" lon="4.79745"><ele>201.14</ele><time>2025-05-25T03:48:50Z</time></trkpt>
<trkpt lat="50.277569" lon="4.797844"><ele>201.81</ele><time>2025-05-25T03:48:52Z</time></trkpt>
<trkpt lat="50.277491" lon="4.798267"><ele>203.87</ele><time>2025-05-25T03:48:55Z</time></trkpt>
<trkpt lat="50.277408" lon="4.798868"><ele>205.31</ele><time>2025-05-25T03:48:57Z</time></trkpt>
<trkpt lat="50.277299" lon="4.799175"><ele>204.97</ele><time>2025-05-25T03:49:00Z</time></trkpt>
<trkpt lat="50.277" lon="4.799585"><ele>202.69</ele><time>2025-05-25T03:49:02Z</time></trkpt>
<trkpt lat="50.276304" lon="4.800294"><ele>198.19</ele><time>2025-05-25T03:49:05Z</time></trkpt>
<trkpt lat="50.275983" lon="4.800761"><ele>197.8</ele><time>2025-05-25T03:49:07Z</time></trkpt>
<trkpt lat="50.27576" lon="4.800946"><ele>200.34</ele><time>2025-05-25T03:49:10Z</time></trkpt>
<trkpt lat="50.275471" lon="4.801083"><ele>202.83</ele><time>2025-05-25T03:49:12Z</time></trkpt>
<trkpt lat="50.274375" lon="4.801974"><ele>208.92</ele><time>2025-05-25T03:49:15Z</time></trkpt>
<trkpt lat="50.274101" lon="4.802228"><ele>208.99</ele><time>2025-05-25T03:49:17Z</time></trkpt>
<trkpt lat="50.27348" lon="4.802715"><ele>208.8</ele><time>2025-05-25T03:49:19Z</time></trkpt>
<trkpt lat="50.273392" lon="4.802831"><ele>208.6</ele><time>2025-05-25T03:49:22Z</time></trkpt>
<trkpt lat="50.273343" lon="4.803005"><ele>208.15</ele><time>2025-05-25T03:49:24Z</time></trkpt>
<trkpt lat="50.273319" lon="4.803769"><ele>203.84</ele><time>2025-05-25T03:49:27Z</time></trkpt>
<trkpt lat="50.273297" lon="4.803908"><ele>203.0</ele><time>2025-05-25T03:49:29Z</time></trkpt>
<trkpt lat="50.273028" lon="4.804885"><ele>206.21</ele><time>2025-05-25T03:49:32Z</time></trkpt>
<trkpt lat="50.272662" lon="4.805877"><ele>208.23</ele><time>2025-05-25T03:49:34Z</time></trkpt>
<trkpt lat="50.272353" lon="4.80682"><ele>206.18</ele><time>2025-05-25T03:49:37Z</time></trkpt>
<trkpt lat="50.272174" lon="4.807275"><ele>203.82</ele><time>2025-05-25T03:49:39Z</time></trkpt>
<trkpt lat="50.271911" lon="4.807758"><ele>201.6</ele><time>2025-05-25T03:49:42Z</time></trkpt>
<trkpt lat="50.2716" lon="4.80841"><ele>195.94</ele><time>2025-05-25T03:49:44Z</time></trkpt>
<trkpt lat="50.271478" lon="4.808688"><ele>192.53</ele><time>2025-05-25T03:49:47Z</time></trkpt>
<trkpt lat="50.27139" lon="4.80899"><ele>189.02</ele><time>2025-05-25T03:49:49Z</time></trkpt>
<trkpt lat="50.271343" lon="4.809305"><ele>189.08</ele><time>2025-05-25T03:49:51Z</time></trkpt>
<trkpt lat="50.271321" lon="4.809808"><ele>188.66</ele><time>2025-05-25T03:49:54Z</time></trkpt>
<trkpt lat="50.271335" lon="4.811502"><ele>178.79</ele><time>2025-05-25T03:49:56Z</time></trkpt>
<trkpt lat="50.2713" lon="4.811842"><ele>175.67</ele><time>2025-05-25T03:49:59Z</time></trkpt>
<trkpt lat="50.271066" lon="4.813169"><ele>163.97</ele><time>2025-05-25T03:50:01Z</time></trkpt>
<trkpt lat="50.270964" lon="4.81337"><ele>161.35</ele><time>2025-05-25T03:50:04Z</time></trkpt>
<trkpt lat="50.270862" lon="4.813512"><ele>159.52</ele><time>2025-05-25T03:50:06Z</time></trkpt>
<trkpt lat="50.270735" lon="4.813627"><ele>159.7</ele><time>2025-05-25T03:50:09Z</time></trkpt>
<trkpt lat="50.270686" lon="4.813705"><ele>159.86</ele><time>2025-05-25T03:50:11Z</time></trkpt>
<trkpt lat="50.270513" lon="4.814264"><ele>158.65</ele><time>2025-05-25T03:50:14Z</time></trkpt>
<trkpt lat="50.270368" lon="4.814541"><ele>157.65</ele><time>2025-05-25T03:50:16Z</time></trkpt>
<trkpt lat="50.270074" lon="4.815028"><ele>157.54</ele><time>2025-05-25T03:50:18Z</time></trkpt>
<trkpt lat="50.269991" lon="4.815258"><ele>159.0</ele><time>2025-05-25T03:50:21Z</time></trkpt>
<trkpt lat="50.269878" lon="4.815928"><ele>164.78</ele><time>2025-05-25T03:50:23Z</time></trkpt>
<trkpt lat="50.269282" lon="4.816395"><ele>171.36</ele><time>2025-05-25T03:50:26Z</time></trkpt>
<trkpt lat="50.26873" lon="4.816795"><ele>171.09</ele><time>2025-05-25T03:50:28Z</time></trkpt>
<trkpt lat="50.267993" lon="4.817251"><ele>175.37</ele><time>2025-05-25T03:50:31Z</time></trkpt>
<trkpt lat="50.267718" lon="4.817364"><ele>177.07</ele><time>2025-05-25T03:50:33Z</time></trkpt>
<trkpt lat="50.267116" lon="4.817399"><ele>176.41</ele><time>2025-05-25T03:50:36Z</time></trkpt>
<trkpt lat="50.264646" lon="4.817398"><ele>174.27</ele><time>2025-05-25T03:50:38Z</time></trkpt>
<trkpt lat="50.264502" lon="4.817428"><ele>174.91</ele><time>2025-05-25T03:50:41Z</time></trkpt>
<trkpt lat="50.26439" lon="4.817506"><ele>176.27</ele><time>2025-05-25T03:50:43Z</time></trkpt>
<trkpt lat="50.264363" lon="4.817549"><ele>177.0</ele><time>2025-05-25T03:50:45Z</time></trkpt>
<trkpt lat="50.264324" lon="4.817679"><ele>179.0</ele><time>2025-05-25T03:50:48Z</time></trkpt>
<trkpt lat="50.264291" lon="4.817926"><ele>182.39</ele><time>2025-05-25T03:50:50Z</time></trkpt>
<trkpt lat="50.264234" lon="4.818798"><ele>188.91</ele><time>2025-05-25T03:50:53Z</time></trkpt>
<trkpt lat="50.264207" lon="4.818972"><ele>189.14</ele><time>2025-05-25T03:50:55Z</time></trkpt>
<trkpt lat="50.26407" lon="4.819532"><ele>190.16</ele><time>2025-05-25T03:50:58Z</time></trkpt>
<trkpt lat="50.263835" lon="4.82036"><ele>194.27</ele><time>2025-05-25T03:51:00Z</time></trkpt>
<trkpt lat="50.263367" lon="4.821578"><ele>202.67</ele><time>2025-05-25T03:51:03Z</time></trkpt>
<trkpt lat="50.263374" lon="4.821868"><ele>202.99</ele><time>2025-05-25T03:51:05Z</time></trkpt>
<trkpt lat="50.263425" lon="4.822317"><ele>204.24</ele><time>2025-05-25T03:51:08Z</time></trkpt>
<trkpt lat="50.263438" lon="4.822851"><ele>204.83</ele><time>2025-05-25T03:51:10Z</time></trkpt>
<trkpt lat="50.263397" lon="4.823342"><ele>204.82</ele><time>2025-05-25T03:51:12Z</time></trkpt>
<trkpt lat="50.263309" lon="4.823848"><ele>204.3</ele><time>2025-05-25T03:51:15Z</time></trkpt>
<trkpt lat="50.262932" lon="4.825107"><ele>212.5</ele><time>2025-05-25T03:51:17Z</time></trkpt>
<trkpt lat="50.26273" lon="4.82555"><ele>216.15</ele><time>2025-05-25T03:51:20Z</time></trkpt>
<trkpt lat="50.262299" lon="4.826187"><ele>216.37</ele><time>2025-05-25T03:51:22Z</time></trkpt>
<trkpt lat="50.260635" lon="4.826533"><ele>211.34</ele><time>2025-05-25T03:51:34Z</time></trkpt>
<trkpt lat="50.260576" lon="4.82663"><ele>210.35</ele><time>2025-05-25T03:51:35Z</time></trkpt>
<trkpt lat="50.260619" lon="4.827721"><ele>210.02</ele><time>2025-05-25T03:51:38Z</time></trkpt>
<trkpt lat="50.260252" lon="4.828665"><ele>208.91</ele><time>2025-05-25T03:51:42Z</time></trkpt>
<trkpt lat="50.260159" lon="4.828826"><ele>208.49</ele><time>2025-05-25T03:51:45Z</time></trkpt>
<trkpt lat="50.260038" lon="4.828927"><ele>207.66</ele><time>2025-05-25T03:51:49Z</time></trkpt>
<trkpt lat="50.259888" lon="4.828931"><ele>206.9</ele><time>2025-05-25T03:51:52Z</time></trkpt>
<trkpt lat="50.259336" lon="4.828456"><ele>204.84</ele><time>2025-05-25T03:51:56Z</time></trkpt>
<trkpt lat="50.258805" lon="4.828085"><ele>206.12</ele><time>2025-05-25T03:51:59Z</time></trkpt>
<trkpt lat="50.258619" lon="4.827967"><ele>207.28</ele><time>2025-05-25T03:52:03Z</time></trkpt>
<trkpt lat="50.25845" lon="4.827895"><ele>209.74</ele><time>2025-05-25T03:52:06Z</time></trkpt>
<trkpt lat="50.258271" lon="4.827887"><ele>212.46</ele><time>2025-05-25T03:52:10Z</time></trkpt>
<trkpt lat="50.257963" lon="4.827902"><ele>214.74</ele><time>2025-05-25T03:52:13Z</time></trkpt>
<trkpt lat="50.257492" lon="4.828037"><ele>215.99</ele><time>2025-05-25T03:52:17Z</time></trkpt>
<trkpt lat="50.257288" lon="4.828163"><ele>218.01</ele><time>2025-05-25T03:52:20Z</time></trkpt>
<trkpt lat="50.256935" lon="4.828571"><ele>218.79</ele><time>2025-05-25T03:52:24Z</time></trkpt>
<trkpt lat="50.256684" lon="4.828759"><ele>217.16</ele><time>2025-05-25T03:52:27Z</time></trkpt>
<trkpt lat="50.256448" lon="4.828866"><ele>216.28</ele><time>2025-05-25T03:52:31Z</time></trkpt>
<trkpt lat="50.256223" lon="4.82894"><ele>216.6</ele><time>2025-05-25T03:52:34Z</time></trkpt>
<trkpt lat="50.255781" lon="4.829145"><ele>219.19</ele><time>2025-05-25T03:52:38Z</time></trkpt>
<trkpt lat="50.255564" lon="4.82932"><ele>219.42</ele><time>2025-05-25T03:52:41Z</time></trkpt>
<trkpt lat="50.255404" lon="4.829497"><ele>220.72</ele><time>2025-05-25T03:52:45Z</time></trkpt>
<trkpt lat="50.255284" lon="4.829671"><ele>221.95</ele><time>2025-05-25T03:52:48Z</time></trkpt>
<trkpt lat="50.253551" lon="4.833071"><ele>244.11</ele><time>2025-05-25T03:52:52Z</time></trkpt>
<trkpt lat="50.253366" lon="4.833464"><ele>246.94</ele><time>2025-05-25T03:52:55Z</time></trkpt>
<trkpt lat="50.253264" lon="4.833637"><ele>248.26</ele><time>2025-05-25T03:52:59Z</time></trkpt>
<trkpt lat="50.252491" lon="4.83425"><ele>250.33</ele><time>2025-05-25T03:53:02Z</time></trkpt>
<trkpt lat="50.249066" lon="4.836599"><ele>244.82</ele><time>2025-05-25T03:53:06Z</time></trkpt>
<trkpt lat="50.247975" lon="4.83739"><ele>243.08</ele><time>2025-05-25T03:53:09Z</time></trkpt>
<trkpt lat="50.248607" lon="4.840168"><ele>233.57</ele><time>2025-05-25T03:53:18Z</time></trkpt>
<trkpt lat="50.248626" lon="4.840446"><ele>234.74</ele><time>2025-05-25T03:53:27Z</time></trkpt>
<trkpt lat="50.248588" lon="4.840608"><ele>234.92</ele><time>2025-05-25T03:53:35Z</time></trkpt>
<trkpt lat="50.248477" lon="4.840844"><ele>234.1</ele><time>2025-05-25T03:53:44Z</time></trkpt>
<trkpt lat="50.24807" lon="4.84146"><ele>230.17</ele><time>2025-05-25T03:53:52Z</time></trkpt>
<trkpt lat="50.247963" lon="4.841678"><ele>229.0</ele><time>2025-05-25T03:54:01Z</time></trkpt>
<trkpt lat="50.247861" lon="4.842006"><ele>228.12</ele><time>2025-05-25T03:54:10Z</time></trkpt>
<trkpt lat="50.24692" lon="4.845798"><ele>230.0</ele><time>2025-05-25T03:54:18Z</time></trkpt>
<trkpt lat="50.246856" lon="4.845947"><ele>229.87</ele><time>2025-05-25T03:54:27Z</time></trkpt>
<trkpt lat="50.246784" lon="4.846062"><ele>229.52</ele><time>2025-05-25T03:54:35Z</time></trkpt>
<trkpt lat="50.246895" lon="4.846414"><ele>229.81</ele><time>2025-05-25T03:54:40Z</time></trkpt>
<trkpt lat="50.247014" lon="4.847273"><ele>228.32</ele><time>2025-05-25T03:54:44Z</time></trkpt>
<trkpt lat="50.2475" lon="4.851524"><ele>224.51</ele><time>2025-05-25T03:54:49Z</time></trkpt>
<trkpt lat="50.247647" lon="4.852649"><ele>223.05</ele><time>2025-05-25T03:54:53Z</time></trkpt>
<trkpt lat="50.24774" lon="4.85319"><ele>223.24</ele><time>2025-05-25T03:54:57Z</time></trkpt>
<trkpt lat="50.248045" lon="4.854295"><ele>220.48</ele><time>2025-05-25T03:55:02Z</time></trkpt>
<trkpt lat="50.248604" lon="4.85603"><ele>217.56</ele><time>2025-05-25T03:55:06Z</time></trkpt>
<trkpt lat="50.250471" lon="4.862047"><ele>211.32</ele><time>2025-05-25T03:55:11Z</time></trkpt>
<trkpt lat="50.251205" lon="4.864463"><ele>209.66</ele><time>2025-05-25T03:55:15Z</time></trkpt>
<trkpt lat="50.252525" lon="4.868673"><ele>207.93</ele><time>2025-05-25T03:55:19Z</time></trkpt>
<trkpt lat="50.252847" lon="4.869799"><ele>206.47</ele><time>2025-05-25T03:55:24Z</time></trkpt>
<trkpt lat="50.25316" lon="4.872581"><ele>193.95</ele><time>2025-05-25T03:55:28Z</time></trkpt>
<trkpt lat="50.253164" lon="4.872911"><ele>193.57</ele><time>2025-05-25T03:55:33Z</time></trkpt>
<trkpt lat="50.253135" lon="4.873119"><ele>193.18</ele><time>2025-05-25T03:55:37Z</time></trkpt>
<trkpt lat="50.252867" lon="4.874002"><ele>187.95</ele><time>2025-05-25T03:55:41Z</time></trkpt>
<trkpt lat="50.252827" lon="4.874249"><ele>187.1</ele><time>2025-05-25T03:55:46Z</time></trkpt>
<trkpt lat="50.252779" lon="4.876031"><ele>182.57</ele><time>2025-05-25T03:55:50Z</time></trkpt>
<trkpt lat="50.252749" lon="4.876297"><ele>181.33</ele><time>2025-05-25T03:55:55Z</time></trkpt>
<trkpt lat="50.252694" lon="4.876541"><ele>180.07</ele><time>2025-05-25T03:55:59Z</time></trkpt>
<trkpt lat="50.252548" lon="4.876888"><ele>179.83</ele><time>2025-05-25T03:56:04Z</time></trkpt>
<trkpt lat="50.252077" lon="4.877736"><ele>178.7</ele><time>2025-05-25T03:56:08Z</time></trkpt>
<trkpt lat="50.251857" lon="4.878182"><ele>177.23</ele><time>2025-05-25T03:56:12Z</time></trkpt>
<trkpt lat="50.251729" lon="4.878519"><ele>175.04</ele><time>2025-05-25T03:56:17Z</time></trkpt>
<trkpt lat="50.251611" lon="4.878961"><ele>171.4</ele><time>2025-05-25T03:56:21Z</time></trkpt>
<trkpt lat="50.251399" lon="4.880542"><ele>172.06</ele><time>2025-05-25T03:56:26Z</time></trkpt>
<trkpt lat="50.251272" lon="4.881699"><ele>173.37</ele><time>2025-05-25T03:56:30Z</time></trkpt>
<trkpt lat="50.251224" lon="4.881962"><ele>172.92</ele><time>2025-05-25T03:56:34Z</time></trkpt>
<trkpt lat="50.251096" lon="4.883035"><ele>170.05</ele><time>2025-05-25T03:56:39Z</time></trkpt>
<trkpt lat="50.250703" lon="4.884983"><ele>164.68</ele><time>2025-05-25T03:56:43Z</time></trkpt>
<trkpt lat="50.250664" lon="4.885278"><ele>162.79</ele><time>2025-05-25T03:56:48Z</time></trkpt>
<trkpt lat="50.250625" lon="4.885799"><ele>160.0</ele><time>2025-05-25T03:56:52Z</time></trkpt>
<trkpt lat="50.250625" lon="4.886229"><ele>161.0</ele><time>2025-05-25T03:56:56Z</time></trkpt>
<trkpt lat="50.25067" lon="4.886643"><ele>161.65</ele><time>2025-05-25T03:57:01Z</time></trkpt>
<trkpt lat="50.25077" lon="4.887167"><ele>161.88</ele><time>2025-05-25T03:57:05Z</time></trkpt>
<trkpt lat="50.250878" lon="4.887547"><ele>162.24</ele><time>2025-05-25T03:57:10Z</time></trkpt>
<trkpt lat="50.251144" lon="4.888297"><ele>160.38</ele><time>2025-05-25T03:57:14Z</time></trkpt>
<trkpt lat="50.251264" lon="4.888722"><ele>158.93</ele><time>2025-05-25T03:57:19Z</time></trkpt>
<trkpt lat="50.251597" lon="4.890709"><ele>156.33</ele><time>2025-05-25T03:57:23Z</time></trkpt>
<trkpt lat="50.251687" lon="4.891154"><ele>155.2</ele><time>2025-05-25T03:57:27Z</time></trkpt>
<trkpt lat="50.251786" lon="4.891551"><ele>154.64</ele><time>2025-05-25T03:57:32Z</time></trkpt>
<trkpt lat="50.252354" lon="4.893173"><ele>154.95</ele><time>2025-05-25T03:57:36Z</time></trkpt>
<trkpt lat="50.253434" lon="4.89709"><ele>152.39</ele><time>2025-05-25T03:57:41Z</time></trkpt>
<trkpt lat="50.253577" lon="4.897827"><ele>151.2</ele><time>2025-05-25T03:57:45Z</time></trkpt>
<trkpt lat="50.253635" lon="4.898229"><ele>149.53</ele><time>2025-05-25T03:57:49Z</time></trkpt>
<trkpt lat="50.253745" lon="4.89946"><ele>149.44</ele><time>2025-05-25T03:57:54Z</time></trkpt>
<trkpt lat="50.254272" lon="4.902306"><ele>140.64</ele><time>2025-05-25T03:57:58Z</time></trkpt>
<trkpt lat="50.254394" lon="4.902768"><ele>140.03</ele><time>2025-05-25T03:58:03Z</time></trkpt>
<trkpt lat="50.25454" lon="4.903079"><ele>140.21</ele><time>2025-05-25T03:58:07Z</time></trkpt>
<trkpt lat="50.255566" lon="4.904824"><ele>141.06</ele><time>2025-05-25T03:58:11Z</time></trkpt>
<trkpt lat="50.257179" lon="4.906837"><ele>135.28</ele><time>2025-05-25T03:58:16Z</time></trkpt>
<trkpt lat="50.257292" lon="4.907007"><ele>134.91</ele><time>2025-05-25T03:58:20Z</time></trkpt>
<trkpt lat="50.257369" lon="4.907181"><ele>132.68</ele><time>2025-05-25T03:58:25Z</time></trkpt>
<trkpt lat="50.257774" lon="4.908683"><ele>120.03</ele><time>2025-05-25T03:58:29Z</time></trkpt>
<trkpt lat="50.257895" lon="4.909073"><ele>117.69</ele><time>2025-05-25T03:58:34Z</time></trkpt>
<trkpt lat="50.257989" lon="4.909295"><ele>116.54</ele><time>2025-05-25T03:58:38Z</time></trkpt>
<trkpt lat="50.258326" lon="4.909818"><ele>110.75</ele><time>2025-05-25T03:58:42Z</time></trkpt>
<trkpt lat="50.258467" lon="4.910016"><ele>106.97</ele><time>2025-05-25T03:58:47Z</time></trkpt>
<trkpt lat="50.258601" lon="4.910213"><ele>103.36</ele><time>2025-05-25T03:58:51Z</time></trkpt>
<trkpt lat="50.258747" lon="4.910372"><ele>102.49</ele><time>2025-05-25T03:58:56Z</time></trkpt>
<trkpt lat="50.258831" lon="4.910434"><ele>102.32</ele><time>2025-05-25T03:59:00Z</time></trkpt>
<trkpt lat="50.259031" lon="4.910509"><ele>101.14</ele><time>2025-05-25T03:59:04Z</time></trkpt>
<trkpt lat="50.259231" lon="4.910503"><ele>99.36</ele><time>2025-05-25T03:59:09Z</time></trkpt>
<trkpt lat="50.259407" lon="4.910413"><ele>97.93</ele><time>2025-05-25T03:59:13Z</time></trkpt>
<trkpt lat="50.259955" lon="4.909924"><ele>101.93</ele><time>2025-05-25T03:59:18Z</time></trkpt>
<trkpt lat="50.26002" lon="4.909909"><ele>101.95</ele><time>2025-05-25T03:59:22Z</time></trkpt>
<trkpt lat="50.260041" lon="4.909965"><ele>101.96</ele><time>2025-05-25T03:59:26Z</time></trkpt>
<trkpt lat="50.260096" lon="4.909982"><ele>101.95</ele><time>2025-05-25T03:59:29Z</time></trkpt>
<trkpt lat="50.260209" lon="4.910473"><ele>101.4</ele><time>2025-05-25T03:59:33Z</time></trkpt>
<trkpt lat="50.26023" lon="4.910585"><ele>101.31</ele><time>2025-05-25T03:59:37Z</time></trkpt>
<trkpt lat="50.260488" lon="4.911925"><ele>99.27</ele><time>2025-05-25T03:59:41Z</time></trkpt>
<trkpt lat="50.260492" lon="4.911996"><ele>99.26</ele><time>2025-05-25T03:59:44Z</time></trkpt>
<trkpt lat="50.260485" lon="4.912082"><ele>98.9</ele><time>2025-05-25T03:59:50Z</time></trkpt>
<trkpt lat="50.260467" lon="4.912126"><ele>98.7</ele><time>2025-05-25T03:59:55Z</time></trkpt>
<trkpt lat="50.260404" lon="4.912191"><ele>98.25</ele><time>2025-05-25T04:00:00Z</time></trkpt>
<trkpt lat="50.260019" lon="4.912331"><ele>95.14</ele><time>2025-05-25T04:00:06Z</time></trkpt>
<trkpt lat="50.259704" lon="4.912396"><ele>93.6</ele><time>2025-05-25T04:00:11Z</time></trkpt>
<trkpt lat="50.259591" lon="4.912398"><ele>93.46</ele><time>2025-05-25T04:00:16Z</time></trkpt>
<trkpt lat="50.258864" lon="4.912638"><ele>91.91</ele><time>2025-05-25T04:00:22Z</time></trkpt>
<trkpt lat="50.258347" lon="4.912869"><ele>92.29</ele><time>2025-05-25T04:00:27Z</time></trkpt>
<trkpt lat="50.257213" lon="4.913245"><ele>91.64</ele><time>2025-05-25T04:00:32Z</time></trkpt>
<trkpt lat="50.256424" lon="4.913501"><ele>90.6</ele><time>2025-05-25T04:00:38Z</time></trkpt>
<trkpt lat="50.256298" lon="4.913579"><ele>90.92</ele><time>2025-05-25T04:00:43Z</time></trkpt>
<trkpt lat="50.256218" lon="4.913657"><ele>91.06</ele><time>2025-05-25T04:00:48Z</time></trkpt>
<trkpt lat="50.256147" lon="4.913757"><ele>91.07</ele><time>2025-05-25T04:00:54Z</time></trkpt>
<trkpt lat="50.255667" lon="4.914608"><ele>93.0</ele><time>2025-05-25T04:00:59Z</time></trkpt>
<trkpt lat="50.255454" lon="4.914867"><ele>92.64</ele><time>2025-05-25T04:01:04Z</time></trkpt>
<trkpt lat="50.254988" lon="4.914956"><ele>92.92</ele><time>2025-05-25T04:01:10Z</time></trkpt>
<trkpt lat="50.25465" lon="4.915063"><ele>95.45</ele><time>2025-05-25T04:01:15Z</time></trkpt>
<trkpt lat="50.254285" lon="4.915282"><ele>95.87</ele><time>2025-05-25T04:01:21Z</time></trkpt>
<trkpt lat="50.25409" lon="4.91543"><ele>95.4</ele><time>2025-05-25T04:01:26Z</time></trkpt>
<trkpt lat="50.253688" lon="4.91589"><ele>95.06</ele><time>2025-05-25T04:01:31Z</time></trkpt>
<trkpt lat="50.253535" lon="4.916084"><ele>94.48</ele><time>2025-05-25T04:01:37Z</time></trkpt>
<trkpt lat="50.253301" lon="4.916307"><ele>93.0</ele><time>2025-05-25T04:01:42Z</time></trkpt>
<trkpt lat="50.252026" lon="4.917172"><ele>92.93</ele><time>2025-05-25T04:01:47Z</time></trkpt>
<trkpt lat="50.251606" lon="4.917489"><ele>92.01</ele><time>2025-05-25T04:01:53Z</time></trkpt>
<trkpt lat="50.251103" lon="4.917961"><ele>91.31</ele><time>2025-05-25T04:01:58Z</time></trkpt>
<trkpt lat="50.250796" lon="4.918272"><ele>94.37</ele><time>2025-05-25T04:02:03Z</time></trkpt>
<trkpt lat="50.250473" lon="4.918659"><ele>98.23</ele><time>2025-05-25T04:02:09Z</time></trkpt>
<trkpt lat="50.250305" lon="4.918796"><ele>97.96</ele><time>2025-05-25T04:02:14Z</time></trkpt>
<trkpt lat="50.249781" lon="4.919206"><ele>100.59</ele><time>2025-05-25T04:02:19Z</time></trkpt>
<trkpt lat="50.249472" lon="4.919522"><ele>101.92</ele><time>2025-05-25T04:02:25Z</time></trkpt>
<trkpt lat="50.24889" lon="4.920212"><ele>98.33</ele><time>2025-05-25T04:02:30Z</time></trkpt>
<trkpt lat="50.248589" lon="4.920499"><ele>96.37</ele><time>2025-05-25T04:02:35Z</time></trkpt>
<trkpt lat="50.248418" lon="4.920613"><ele>96.14</ele><time>2025-05-25T04:02:41Z</time></trkpt>
<trkpt lat="50.247812" lon="4.920873"><ele>96.43</ele><time>2025-05-25T04:02:46Z</time></trkpt>
<trkpt lat="50.247196" lon="4.921135"><ele>98.6</ele><time>2025-05-25T04:02:51Z</time></trkpt>
<trkpt lat="50.247065" lon="4.921161"><ele>99.15</ele><time>2025-05-25T04:02:57Z</time></trkpt>
<trkpt lat="50.245463" lon="4.921155"><ele>100.94</ele><time>2025-05-25T04:03:02Z</time></trkpt>
<trkpt lat="50.244776" lon="4.920937"><ele>95.93</ele><time>2025-05-25T04:03:08Z</time></trkpt>
<trkpt lat="50.244664" lon="4.920931"><ele>94.93</ele><time>2025-05-25T04:03:13Z</time></trkpt>
<trkpt lat="50.244361" lon="4.921038"><ele>94.04</ele><time>2025-05-25T04:03:18Z</time></trkpt>
<trkpt lat="50.244196" lon="4.921147"><ele>95.58</ele><time>2025-05-25T04:03:24Z</time></trkpt>
<trkpt lat="50.243941" lon="4.921239"><ele>95.74</ele><time>2025-05-25T04:03:29Z</time></trkpt>
<trkpt lat="50.243505" lon="4.921296"><ele>93.49</ele><time>2025-05-25T04:03:34Z</time></trkpt>
<trkpt lat="50.243274" lon="4.921238"><ele>92.46</ele><time>2025-05-25T04:03:40Z</time></trkpt>
<trkpt lat="50.243242" lon="4.921776"><ele>95.33</ele><time>2025-05-25T04:03:43Z</time></trkpt>
<trkpt lat="50.243229" lon="4.922673"><ele>103.13</ele><time>2025-05-25T04:03:46Z</time></trkpt>
<trkpt lat="50.243251" lon="4.924109"><ele>111.45</ele><time>2025-05-25T04:03:49Z</time></trkpt>
<trkpt lat="50.243242" lon="4.925286"><ele>116.3</ele><time>2025-05-25T04:03:52Z</time></trkpt>
<trkpt lat="50.243249" lon="4.925851"><ele>117.01</ele><time>2025-05-25T04:03:55Z</time></trkpt>
<trkpt lat="50.243315" lon="4.926094"><ele>117.26</ele><time>2025-05-25T04:03:59Z</time></trkpt>
<trkpt lat="50.243763" lon="4.926819"><ele>125.32</ele><time>2025-05-25T04:04:02Z</time></trkpt>
<trkpt lat="50.24405" lon="4.927373"><ele>126.4</ele><time>2025-05-25T04:04:05Z</time></trkpt>
<trkpt lat="50.2447" lon="4.928776"><ele>120.29</ele><time>2025-05-25T04:04:08Z</time></trkpt>
<trkpt lat="50.244809" lon="4.92896"><ele>120.7</ele><time>2025-05-25T04:04:11Z</time></trkpt>
<trkpt lat="50.244927" lon="4.92908"><ele>121.58</ele><time>2025-05-25T04:04:14Z</time></trkpt>
<trkpt lat="50.245497" lon="4.929528"><ele>123.88</ele><time>2025-05-25T04:04:18Z</time></trkpt>
<trkpt lat="50.245638" lon="4.929675"><ele>124.33</ele><time>2025-05-25T04:04:21Z</time></trkpt>
<trkpt lat="50.245757" lon="4.929848"><ele>123.6</ele><time>2025-05-25T04:04:24Z</time></trkpt>
<trkpt lat="50.246746" lon="4.932159"><ele>132.27</ele><time>2025-05-25T04:04:27Z</time></trkpt>
<trkpt lat="50.246803" lon="4.932438"><ele>133.98</ele><time>2025-05-25T04:04:30Z</time></trkpt>
<trkpt lat="50.246801" lon="4.93267"><ele>136.73</ele><time>2025-05-25T04:04:33Z</time></trkpt>
<trkpt lat="50.24677" lon="4.932858"><ele>138.76</ele><time>2025-05-25T04:04:37Z</time></trkpt>
<trkpt lat="50.246701" lon="4.933046"><ele>140.27</ele><time>2025-05-25T04:04:40Z</time></trkpt>
<trkpt lat="50.246591" lon="4.93322"><ele>142.31</ele><time>2025-05-25T04:04:43Z</time></trkpt>
<trkpt lat="50.245956" lon="4.934046"><ele>146.09</ele><time>2025-05-25T04:04:46Z</time></trkpt>
<trkpt lat="50.245856" lon="4.934201"><ele>147.05</ele><time>2025-05-25T04:04:49Z</time></trkpt>
<trkpt lat="50.245714" lon="4.934488"><ele>147.6</ele><time>2025-05-25T04:04:52Z</time></trkpt>
<trkpt lat="50.245595" lon="4.934854"><ele>146.59</ele><time>2025-05-25T04:04:56Z</time></trkpt>
<trkpt lat="50.24539" lon="4.93558"><ele>152.96</ele><time>2025-05-25T04:04:59Z</time></trkpt>
<trkpt lat="50.245343" lon="4.935849"><ele>154.09</ele><time>2025-05-25T04:05:02Z</time></trkpt>
<trkpt lat="50.245314" lon="4.936133"><ele>154.16</ele><time>2025-05-25T04:05:05Z</time></trkpt>
<trkpt lat="50.245285" lon="4.936967"><ele>151.02</ele><time>2025-05-25T04:05:08Z</time></trkpt>
<trkpt lat="50.245318" lon="4.937489"><ele>151.01</ele><time>2025-05-25T04:05:11Z</time></trkpt>
<trkpt lat="50.245344" lon="4.938502"><ele>155.71</ele><time>2025-05-25T04:05:15Z</time></trkpt>
<trkpt lat="50.245395" lon="4.93891"><ele>156.47</ele><time>2025-05-25T04:05:18Z</time></trkpt>
<trkpt lat="50.245469" lon="4.939287"><ele>156.84</ele><time>2025-05-25T04:05:21Z</time></trkpt>
<trkpt lat="50.245518" lon="4.939658"><ele>156.38</ele><time>2025-05-25T04:05:24Z</time></trkpt>
<trkpt lat="50.245556" lon="4.94028"><ele>158.04</ele><time>2025-05-25T04:05:27Z</time></trkpt>
<trkpt lat="50.245713" lon="4.941393"><ele>159.39</ele><time>2025-05-25T04:05:30Z</time></trkpt>
<trkpt lat="50.245728" lon="4.941893"><ele>156.76</ele><time>2025-05-25T04:05:34Z</time></trkpt>
<trkpt lat="50.245689" lon="4.943142"><ele>159.78</ele><time>2025-05-25T04:05:37Z</time></trkpt>
<trkpt lat="50.245695" lon="4.943461"><ele>161.96</ele><time>2025-05-25T04:05:40Z</time></trkpt>
<trkpt lat="50.24572" lon="4.943713"><ele>162.92</ele><time>2025-05-25T04:05:43Z</time></trkpt>
<trkpt lat="50.246169" lon="4.946601"><ele>177.46</ele><time>2025-05-25T04:05:46Z</time></trkpt>
<trkpt lat="50.246193" lon="4.94686"><ele>177.59</ele><time>2025-05-25T04:05:49Z</time></trkpt>
<trkpt lat="50.246205" lon="4.947143"><ele>177.2</ele><time>2025-05-25T04:05:53Z</time></trkpt>
<trkpt lat="50.246181" lon="4.94817"><ele>179.24</ele><time>2025-05-25T04:05:56Z</time></trkpt>
<trkpt lat="50.246187" lon="4.948558"><ele>177.74</ele><time>2025-05-25T04:05:59Z</time></trkpt>
<trkpt lat="50.24634" lon="4.950737"><ele>177.93</ele><time>2025-05-25T04:06:02Z</time></trkpt>
<trkpt lat="50.246306" lon="4.951174"><ele>179.75</ele><time>2025-05-25T04:06:05Z</time></trkpt>
<trkpt lat="50.246167" lon="4.951726"><ele>185.6</ele><time>2025-05-25T04:06:09Z</time></trkpt>
<trkpt lat="50.245592" lon="4.953778"><ele>195.51</ele><time>2025-05-25T04:06:12Z</time></trkpt>
<trkpt lat="50.245528" lon="4.954112"><ele>197.5</ele><time>2025-05-25T04:06:15Z</time></trkpt>
<trkpt lat="50.245455" lon="4.9551"><ele>201.95</ele><time>2025-05-25T04:06:18Z</time></trkpt>
<trkpt lat="50.245414" lon="4.955466"><ele>204.01</ele><time>2025-05-25T04:06:21Z</time></trkpt>
<trkpt lat="50.245348" lon="4.955821"><ele>205.21</ele><time>2025-05-25T04:06:24Z</time></trkpt>
<trkpt lat="50.245235" lon="4.956252"><ele>207.04</ele><time>2025-05-25T04:06:28Z</time></trkpt>
<trkpt lat="50.244838" lon="4.957537"><ele>213.8</ele><time>2025-05-25T04:06:31Z</time></trkpt>
<trkpt lat="50.24471" lon="4.958001"><ele>216.8</ele><time>2025-05-25T04:06:34Z</time></trkpt>
<trkpt lat="50.244652" lon="4.95827"><ele>220.14</ele><time>2025-05-25T04:06:37Z</time></trkpt>
<trkpt lat="50.244584" lon="4.958905"><ele>224.02</ele><time>2025-05-25T04:06:40Z</time></trkpt>
<trkpt lat="50.244557" lon="4.959412"><ele>225.85</ele><time>2025-05-25T04:06:43Z</time></trkpt>
<trkpt lat="50.244514" lon="4.959867"><ele>227.26</ele><time>2025-05-25T04:06:47Z</time></trkpt>
<trkpt lat="50.244416" lon="4.96035"><ele>226.88</ele><time>2025-05-25T04:06:50Z</time></trkpt>
<trkpt lat="50.243994" lon="4.961953"><ele>231.91</ele><time>2025-05-25T04:06:53Z</time></trkpt>
<trkpt lat="50.243917" lon="4.962473"><ele>229.85</ele><time>2025-05-25T04:06:56Z</time></trkpt>
<trkpt lat="50.243914" lon="4.963046"><ele>230.02</ele><time>2025-05-25T04:06:59Z</time></trkpt>
<trkpt lat="50.243959" lon="4.963484"><ele>235.28</ele><time>2025-05-25T04:07:02Z</time></trkpt>
<trkpt lat="50.24424" lon="4.964811"><ele>247.03</ele><time>2025-05-25T04:07:06Z</time></trkpt>
<trkpt lat="50.244255" lon="4.965179"><ele>247.84</ele><time>2025-05-25T04:07:09Z</time></trkpt>
<trkpt lat="50.24424" lon="4.965513"><ele>248.34</ele><time>2025-05-25T04:07:12Z</time></trkpt>
<trkpt lat="50.244202" lon="4.965724"><ele>249.84</ele><time>2025-05-25T04:07:15Z</time></trkpt>
<trkpt lat="50.24403" lon="4.966263"><ele>257.49</ele><time>2025-05-25T04:07:18Z</time></trkpt>
<trkpt lat="50.243921" lon="4.966511"><ele>260.79</ele><time>2025-05-25T04:07:21Z</time></trkpt>
<trkpt lat="50.243807" lon="4.966721"><ele>262.07</ele><time>2025-05-25T04:07:25Z</time></trkpt>
<trkpt lat="50.243646" lon="4.966937"><ele>262.8</ele><time>2025-05-25T04:07:28Z</time></trkpt>
<trkpt lat="50.243488" lon="4.96708"><ele>261.58</ele><time>2025-05-25T04:07:31Z</time></trkpt>
<trkpt lat="50.243322" lon="4.967192"><ele>260.38</ele><time>2025-05-25T04:07:34Z</time></trkpt>
<trkpt lat="50.243003" lon="4.967311"><ele>264.89</ele><time>2025-05-25T04:07:37Z</time></trkpt>
<trkpt lat="50.240316" lon="4.967824"><ele>275.75</ele><time>2025-05-25T04:07:40Z</time></trkpt>
<trkpt lat="50.239985" lon="4.967949"><ele>279.02</ele><time>2025-05-25T04:07:44Z</time></trkpt>
<trkpt lat="50.239851" lon="4.968061"><ele>278.99</ele><time>2025-05-25T04:07:47Z</time></trkpt>
<trkpt lat="50.239626" lon="4.96835"><ele>278.02</ele><time>2025-05-25T04:07:50Z</time></trkpt>
<trkpt lat="50.239525" lon="4.968563"><ele>278.58</ele><time>2025-05-25T04:07:53Z</time></trkpt>
<trkpt lat="50.239451" lon="4.968768"><ele>280.1</ele><time>2025-05-25T04:07:56Z</time></trkpt>
<trkpt lat="50.239387" lon="4.969047"><ele>281.78</ele><time>2025-05-25T04:07:59Z</time></trkpt>
<trkpt lat="50.239228" lon="4.971294"><ele>287.78</ele><time>2025-05-25T04:08:03Z</time></trkpt>
<trkpt lat="50.239125" lon="4.973016"><ele>287.02</ele><time>2025-05-25T04:08:06Z</time></trkpt>
<trkpt lat="50.238296" lon="4.985179"><ele>261.08</ele><time>2025-05-25T04:08:09Z</time></trkpt>
<trkpt lat="50.238076" lon="4.988841"><ele>261.9</ele><time>2025-05-25T04:08:12Z</time></trkpt>
<trkpt lat="50.238015" lon="4.990376"><ele>262.74</ele><time>2025-05-25T04:08:15Z</time></trkpt>
<trkpt lat="50.237983" lon="4.993077"><ele>263.57</ele><time>2025-05-25T04:08:18Z</time></trkpt>
<trkpt lat="50.23795" lon="4.998218"><ele>254.99</ele><time>2025-05-25T04:08:22Z</time></trkpt>
<trkpt lat="50.23791" lon="4.998567"><ele>251.87</ele><time>2025-05-25T04:08:25Z</time></trkpt>
<trkpt lat="50.237873" lon="4.99869"><ele>250.59</ele><time>2025-05-25T04:08:28Z</time></trkpt>
<trkpt lat="50.237762" lon="4.998865"><ele>247.98</ele><time>2025-05-25T04:08:31Z</time></trkpt>
<trkpt lat="50.237584" lon="4.998985"><ele>243.6</ele><time>2025-05-25T04:08:34Z</time></trkpt>
<trkpt lat="50.237469" lon="4.999007"><ele>241.87</ele><time>2025-05-25T04:08:37Z</time></trkpt>
<trkpt lat="50.235153" lon="4.999004"><ele>241.23</ele><time>2025-05-25T04:08:41Z</time></trkpt>
<trkpt lat="50.235016" lon="4.999034"><ele>241.03</ele><time>2025-05-25T04:08:44Z</time></trkpt>
<trkpt lat="50.234826" lon="4.999155"><ele>238.49</ele><time>2025-05-25T04:08:47Z</time></trkpt>
<trkpt lat="50.234692" lon="4.999299"><ele>237.09</ele><time>2025-05-25T04:08:50Z</time></trkpt>
<trkpt lat="50.234443" lon="4.999619"><ele>234.99</ele><time>2025-05-25T04:08:53Z</time></trkpt>
<trkpt lat="50.233413" lon="5.000924"><ele>231.23</ele><time>2025-05-25T04:08:56Z</time></trkpt>
<trkpt lat="50.233296" lon="5.001091"><ele>231.79</ele><time>2025-05-25T04:09:00Z</time></trkpt>
<trkpt lat="50.233231" lon="5.001216"><ele>231.25</ele><time>2025-05-25T04:09:03Z</time></trkpt>
<trkpt lat="50.233138" lon="5.001464"><ele>230.03</ele><time>2025-05-25T04:09:06Z</time></trkpt>
<trkpt lat="50.233091" lon="5.001854"><ele>228.45</ele><time>2025-05-25T04:09:09Z</time></trkpt>
<trkpt lat="50.233113" lon="5.002167"><ele>227.4</ele><time>2025-05-25T04:09:12Z</time></trkpt>
<trkpt lat="50.233286" lon="5.003557"><ele>223.69</ele><time>2025-05-25T04:09:15Z</time></trkpt>
<trkpt lat="50.233277" lon="5.003898"><ele>222.16</ele><time>2025-05-25T04:09:19Z</time></trkpt>
<trkpt lat="50.233191" lon="5.0042"><ele>219.71</ele><time>2025-05-25T04:09:22Z</time></trkpt>
<trkpt lat="50.233153" lon="5.004286"><ele>218.55</ele><time>2025-05-25T04:09:25Z</time></trkpt>
<trkpt lat="50.23299" lon="5.004471"><ele>215.29</ele><time>2025-05-25T04:09:28Z</time></trkpt>
<trkpt lat="50.232905" lon="5.004527"><ele>214.38</ele><time>2025-05-25T04:09:31Z</time></trkpt>
<trkpt lat="50.232805" lon="5.004558"><ele>213.3</ele><time>2025-05-25T04:09:34Z</time></trkpt>
<trkpt lat="50.232704" lon="5.004558"><ele>212.47</ele><time>2025-05-25T04:09:38Z</time></trkpt>
<trkpt lat="50.232601" lon="5.004527"><ele>211.73</ele><time>2025-05-25T04:09:41Z</time></trkpt>
<trkpt lat="50.232499" lon="5.004462"><ele>211.0</ele><time>2025-05-25T04:09:44Z</time></trkpt>
<trkpt lat="50.232412" lon="5.004368"><ele>211.28</ele><time>2025-05-25T04:09:47Z</time></trkpt>
<trkpt lat="50.232171" lon="5.004023"><ele>212.0</ele><time>2025-05-25T04:09:50Z</time></trkpt>
<trkpt lat="50.232014" lon="5.00384"><ele>212.44</ele><time>2025-05-25T04:09:53Z</time></trkpt>
<trkpt lat="50.231921" lon="5.00378"><ele>213.13</ele><time>2025-05-25T04:09:57Z</time></trkpt>
<trkpt lat="50.23178" lon="5.003788"><ele>212.71</ele><time>2025-05-25T04:10:00Z</time></trkpt>
<trkpt lat="50.231622" lon="5.003855"><ele>211.15</ele><time>2025-05-25T04:10:03Z</time></trkpt>
<trkpt lat="50.231486" lon="5.003967"><ele>209.7</ele><time>2025-05-25T04:10:06Z</time></trkpt>
<trkpt lat="50.231363" lon="5.004118"><ele>208.91</ele><time>2025-05-25T04:10:09Z</time></trkpt>
<trkpt lat="50.231111" lon="5.00458"><ele>208.98</ele><time>2025-05-25T04:10:12Z</time></trkpt>
<trkpt lat="50.23101" lon="5.00472"><ele>208.54</ele><time>2025-05-25T04:10:16Z</time></trkpt>
<trkpt lat="50.230547" lon="5.00521"><ele>203.44</ele><time>2025-05-25T04:10:19Z</time></trkpt>
<trkpt lat="50.230393" lon="5.005421"><ele>202.38</ele><time>2025-05-25T04:10:22Z</time></trkpt>
<trkpt lat="50.23027" lon="5.005749"><ele>199.93</ele><time>2025-05-25T04:10:25Z</time></trkpt>
<trkpt lat="50.229405" lon="5.009029"><ele>189.71</ele><time>2025-05-25T04:10:28Z</time></trkpt>
<trkpt lat="50.228582" lon="5.01213"><ele>214.79</ele><time>2025-05-25T04:10:31Z</time></trkpt>
<trkpt lat="50.228525" lon="5.012284"><ele>215.24</ele><time>2025-05-25T04:10:35Z</time></trkpt>
<trkpt lat="50.228461" lon="5.012387"><ele>216.16</ele><time>2025-05-25T04:10:38Z</time></trkpt>
<trkpt lat="50.228377" lon="5.012486"><ele>217.37</ele><time>2025-05-25T04:10:41Z</time></trkpt>
<trkpt lat="50.228229" lon="5.012587"><ele>219.56</ele><time>2025-05-25T04:10:44Z</time></trkpt>
<trkpt lat="50.228105" lon="5.012623"><ele>221.27</ele><time>2025-05-25T04:10:47Z</time></trkpt>
<trkpt lat="50.226579" lon="5.012629"><ele>232.7</ele><time>2025-05-25T04:10:50Z</time></trkpt>
<trkpt lat="50.226473" lon="5.012651"><ele>235.37</ele><time>2025-05-25T04:10:54Z</time></trkpt>
<trkpt lat="50.226251" lon="5.01276"><ele>239.04</ele><time>2025-05-25T04:10:57Z</time></trkpt>
<trkpt lat="50.226124" lon="5.012862"><ele>240.52</ele><time>2025-05-25T04:11:00Z</time></trkpt>
<trkpt lat="50.226005" lon="5.013003"><ele>240.43</ele><time>2025-05-25T04:11:03Z</time></trkpt>
<trkpt lat="50.225878" lon="5.013196"><ele>241.18</ele><time>2025-05-25T04:11:06Z</time></trkpt>
<trkpt lat="50.225775" lon="5.013435"><ele>242.28</ele><time>2025-05-25T04:11:09Z</time></trkpt>
<trkpt lat="50.225159" lon="5.015668"><ele>249.85</ele><time>2025-05-25T04:11:13Z</time></trkpt>
<trkpt lat="50.225031" lon="5.01597"><ele>250.83</ele><time>2025-05-25T04:11:16Z</time></trkpt>
<trkpt lat="50.224797" lon="5.01638"><ele>255.15</ele><time>2025-05-25T04:11:19Z</time></trkpt>
<trkpt lat="50.224526" lon="5.016662"><ele>256.99</ele><time>2025-05-25T04:11:22Z</time></trkpt>
<trkpt lat="50.224301" lon="5.016861"><ele>257.0</ele><time>2025-05-25T04:11:25Z</time></trkpt>
<trkpt lat="50.22159" lon="5.018903"><ele>279.0</ele><time>2025-05-25T04:11:28Z</time></trkpt>
<trkpt lat="50.221994" lon="5.020253"><ele>276.8</ele><time>2025-05-25T04:11:36Z</time></trkpt>
<trkpt lat="50.222299" lon="5.021186"><ele>278.73</ele><time>2025-05-25T04:11:43Z</time></trkpt>
<trkpt lat="50.222609" lon="5.022247"><ele>277.61</ele><time>2025-05-25T04:11:50Z</time></trkpt>
<trkpt lat="50.224845" lon="5.029581"><ele>277.07</ele><time>2025-05-25T04:11:58Z</time></trkpt>
<trkpt lat="50.224505" lon="5.030485"><ele>275.25</ele><time>2025-05-25T04:12:05Z</time></trkpt>
<trkpt lat="50.224433" lon="5.030753"><ele>274.92</ele><time>2025-05-25T04:12:12Z</time></trkpt>
<trkpt lat="50.224108" lon="5.03259"><ele>271.9</ele><time>2025-05-25T04:12:20Z</time></trkpt>
<trkpt lat="50.224038" lon="5.032896"><ele>272.08</ele><time>2025-05-25T04:12:27Z</time></trkpt>
<trkpt lat="50.223922" lon="5.033283"><ele>271.96</ele><time>2025-05-25T04:12:34Z</time></trkpt>
<trkpt lat="50.223781" lon="5.033836"><ele>274.2</ele><time>2025-05-25T04:12:42Z</time></trkpt>
<trkpt lat="50.22373" lon="5.034183"><ele>275.66</ele><time>2025-05-25T04:12:49Z</time></trkpt>
<trkpt lat="50.223682" lon="5.035278"><ele>277.0</ele><time>2025-05-25T04:12:56Z</time></trkpt>
<trkpt lat="50.22375" lon="5.035623"><ele>277.0</ele><time>2025-05-25T04:13:03Z</time></trkpt>
<trkpt lat="50.228694" lon="5.050519"><ele>297.67</ele><time>2025-05-25T04:13:11Z</time></trkpt>
<trkpt lat="50.228795" lon="5.050759"><ele>298.3</ele><time>2025-05-25T04:13:18Z</time></trkpt>
<trkpt lat="50.229324" lon="5.052374"><ele>299.3</ele><time>2025-05-25T04:13:25Z</time></trkpt>
<trkpt lat="50.229686" lon="5.053543"><ele>292.9</ele><time>2025-05-25T04:13:33Z</time></trkpt>
<trkpt lat="50.232015" lon="5.060689"><ele>291.76</ele><time>2025-05-25T04:13:40Z</time></trkpt>
<trkpt lat="50.233407" lon="5.064795"><ele>308.27</ele><time>2025-05-25T04:13:47Z</time></trkpt>
<trkpt lat="50.233545" lon="5.065011"><ele>308.42</ele><time>2025-05-25T04:13:55Z</time></trkpt>
<trkpt lat="50.236129" lon="5.067761"><ele>310.05</ele><time>2025-05-25T04:14:02Z</time></trkpt>
<trkpt lat="50.236267" lon="5.06799"><ele>309.1</ele><time>2025-05-25T04:14:09Z</time></trkpt>
<trkpt lat="50.236473" lon="5.068567"><ele>307.72</ele><time>2025-05-25T04:14:16Z</time></trkpt>
<trkpt lat="50.236581" lon="5.068893"><ele>307.37</ele><time>2025-05-25T04:14:24Z</time></trkpt>
<trkpt lat="50.236607" lon="5.069025"><ele>307.18</ele><time>2025-05-25T04:14:31Z</time></trkpt>
<trkpt lat="50.236625" lon="5.06926"><ele>306.51</ele><time>2025-05-25T04:14:38Z</time></trkpt>
<trkpt lat="50.236738" lon="5.069235"><ele>307.01</ele><time>2025-05-25T04:14:39Z</time></trkpt>
<trkpt lat="50.236735" lon="5.069651"><ele>305.5</ele><time>2025-05-25T04:14:43Z</time></trkpt>
<trkpt lat="50.236325" lon="5.073154"><ele>297.73</ele><time>2025-05-25T04:14:46Z</time></trkpt>
<trkpt lat="50.235877" lon="5.077158"><ele>290.55</ele><time>2025-05-25T04:14:50Z</time></trkpt>
<trkpt lat="50.235771" lon="5.077799"><ele>288.72</ele><time>2025-05-25T04:14:53Z</time></trkpt>
<trkpt lat="50.235319" lon="5.0799"><ele>290.8</ele><time>2025-05-25T04:14:57Z</time></trkpt>
<trkpt lat="50.235296" lon="5.080053"><ele>291.92</ele><time>2025-05-25T04:15:01Z</time></trkpt>
<trkpt lat="50.23527" lon="5.080801"><ele>295.05</ele><time>2025-05-25T04:15:04Z</time></trkpt>
<trkpt lat="50.235301" lon="5.081155"><ele>296.15</ele><time>2025-05-25T04:15:08Z</time></trkpt>
<trkpt lat="50.235539" lon="5.082711"><ele>301.92</ele><time>2025-05-25T04:15:11Z</time></trkpt>
<trkpt lat="50.235811" lon="5.084024"><ele>305.73</ele><time>2025-05-25T04:15:15Z</time></trkpt>
<trkpt lat="50.235917" lon="5.084461"><ele>305.91</ele><time>2025-05-25T04:15:19Z</time></trkpt>
<trkpt lat="50.236018" lon="5.084789"><ele>306.82</ele><time>2025-05-25T04:15:22Z</time></trkpt>
<trkpt lat="50.23621" lon="5.085323"><ele>309.07</ele><time>2025-05-25T04:15:26Z</time></trkpt>
<trkpt lat="50.236651" lon="5.086438"><ele>313.53</ele><time>2025-05-25T04:15:29Z</time></trkpt>
<trkpt lat="50.23742" lon="5.088294"><ele>318.15</ele><time>2025-05-25T04:15:33Z</time></trkpt>
<trkpt lat="50.237473" lon="5.088475"><ele>318.56</ele><time>2025-05-25T04:15:37Z</time></trkpt>
<trkpt lat="50.237548" lon="5.088927"><ele>319.96</ele><time>2025-05-25T04:15:40Z</time></trkpt>
<trkpt lat="50.237582" lon="5.089416"><ele>322.51</ele><time>2025-05-25T04:15:44Z</time></trkpt>
<trkpt lat="50.237545" lon="5.090041"><ele>327.5</ele><time>2025-05-25T04:15:47Z</time></trkpt>
<trkpt lat="50.237546" lon="5.090407"><ele>328.8</ele><time>2025-05-25T04:15:51Z</time></trkpt>
<trkpt lat="50.237822" lon="5.091626"><ele>329.54</ele><time>2025-05-25T04:15:55Z</time></trkpt>
<trkpt lat="50.237908" lon="5.092068"><ele>329.98</ele><time>2025-05-25T04:15:58Z</time></trkpt>
<trkpt lat="50.237945" lon="5.092344"><ele>330.66</ele><time>2025-05-25T04:16:02Z</time></trkpt>
<trkpt lat="50.238209" lon="5.09536"><ele>331.0</ele><time>2025-05-25T04:16:06Z</time></trkpt>
<trkpt lat="50.23838" lon="5.096614"><ele>329.33</ele><time>2025-05-25T04:16:09Z</time></trkpt>
<trkpt lat="50.238845" lon="5.099736"><ele>326.1</ele><time>2025-05-25T04:16:13Z</time></trkpt>
<trkpt lat="50.239066" lon="5.100529"><ele>324.73</ele><time>2025-05-25T04:16:16Z</time></trkpt>
<trkpt lat="50.23935" lon="5.101427"><ele>324.95</ele><time>2025-05-25T04:16:20Z</time></trkpt>
<trkpt lat="50.239397" lon="5.101595"><ele>324.87</ele><time>2025-05-25T04:16:24Z</time></trkpt>
<trkpt lat="50.239418" lon="5.101738"><ele>324.9</ele><time>2025-05-25T04:16:27Z</time></trkpt>
<trkpt lat="50.239421" lon="5.101862"><ele>324.91</ele><time>2025-05-25T04:16:31Z</time></trkpt>
<trkpt lat="50.239399" lon="5.102058"><ele>324.9</ele><time>2025-05-25T04:16:34Z</time></trkpt>
<trkpt lat="50.239325" lon="5.102299"><ele>325.28</ele><time>2025-05-25T04:16:38Z</time></trkpt>
<trkpt lat="50.239156" lon="5.102698"><ele>326.71</ele><time>2025-05-25T04:16:42Z</time></trkpt>
<trkpt lat="50.239114" lon="5.10284"><ele>327.18</ele><time>2025-05-25T04:16:45Z</time></trkpt>
<trkpt lat="50.239085" lon="5.103005"><ele>327.58</ele><time>2025-05-25T04:16:49Z</time></trkpt>
<trkpt lat="50.239082" lon="5.104312"><ele>329.7</ele><time>2025-05-25T04:16:52Z</time></trkpt>
<trkpt lat="50.239609" lon="5.10561"><ele>334.59</ele><time>2025-05-25T04:16:56Z</time></trkpt>
<trkpt lat="50.239729" lon="5.105861"><ele>334.9</ele><time>2025-05-25T04:17:00Z</time></trkpt>
<trkpt lat="50.239911" lon="5.106162"><ele>334.55</ele><time>2025-05-25T04:17:03Z</time></trkpt>
<trkpt lat="50.240065" lon="5.106364"><ele>334.09</ele><time>2025-05-25T04:17:07Z</time></trkpt>
<trkpt lat="50.240212" lon="5.106516"><ele>333.54</ele><time>2025-05-25T04:17:10Z</time></trkpt>
<trkpt lat="50.240948" lon="5.107028"><ele>336.29</ele><time>2025-05-25T04:17:14Z</time></trkpt>
<trkpt lat="50.241284" lon="5.107285"><ele>336.62</ele><time>2025-05-25T04:17:18Z</time></trkpt>
<trkpt lat="50.241422" lon="5.107426"><ele>337.12</ele><time>2025-05-25T04:17:21Z</time></trkpt>
<trkpt lat="50.241582" lon="5.107651"><ele>337.15</ele><time>2025-05-25T04:17:25Z</time></trkpt>
<trkpt lat="50.241742" lon="5.107958"><ele>337.27</ele><time>2025-05-25T04:17:29Z</time></trkpt>
<trkpt lat="50.242511" lon="5.109601"><ele>337.92</ele><time>2025-05-25T04:17:32Z</time></trkpt>
<trkpt lat="50.243004" lon="5.110831"><ele>337.0</ele><time>2025-05-25T04:17:36Z</time></trkpt>
<trkpt lat="50.243173" lon="5.111354"><ele>337.58</ele><time>2025-05-25T04:17:39Z</time></trkpt>
<trkpt lat="50.243568" lon="5.112549"><ele>338.0</ele><time>2025-05-25T04:17:43Z</time></trkpt>
<trkpt lat="50.244123" lon="5.114821"><ele>334.84</ele><time>2025-05-25T04:17:47Z</time></trkpt>
<trkpt lat="50.244308" lon="5.115389"><ele>334.09</ele><time>2025-05-25T04:17:50Z</time></trkpt>
<trkpt lat="50.245566" lon="5.118445"><ele>329.96</ele><time>2025-05-25T04:17:54Z</time></trkpt>
<trkpt lat="50.245722" lon="5.118973"><ele>329.0</ele><time>2025-05-25T04:17:57Z</time></trkpt>
<trkpt lat="50.245884" lon="5.119607"><ele>328.82</ele><time>2025-05-25T04:18:01Z</time></trkpt>
<trkpt lat="50.246036" lon="5.120077"><ele>328.27</ele><time>2025-05-25T04:18:05Z</time></trkpt>
<trkpt lat="50.246408" lon="5.121034"><ele>327.72</ele><time>2025-05-25T04:18:08Z</time></trkpt>
<trkpt lat="50.246572" lon="5.121297"><ele>328.67</ele><time>2025-05-25T04:18:12Z</time></trkpt>
<trkpt lat="50.246713" lon="5.121658"><ele>329.8</ele><time>2025-05-25T04:18:16Z</time></trkpt>
<trkpt lat="50.24705" lon="5.122391"><ele>327.24</ele><time>2025-05-25T04:18:19Z</time></trkpt>
<trkpt lat="50.24729" lon="5.122957"><ele>326.76</ele><time>2025-05-25T04:18:23Z</time></trkpt>
<trkpt lat="50.247681" lon="5.124043"><ele>325.65</ele><time>2025-05-25T04:18:27Z</time></trkpt>
<trkpt lat="50.2478" lon="5.124417"><ele>325.1</ele><time>2025-05-25T04:18:31Z</time></trkpt>
<trkpt lat="50.247856" lon="5.124649"><ele>325.0</ele><time>2025-05-25T04:18:35Z</time></trkpt>
<trkpt lat="50.247901" lon="5.124868"><ele>324.47</ele><time>2025-05-25T04:18:38Z</time></trkpt>
<trkpt lat="50.247953" lon="5.125303"><ele>323.91</ele><time>2025-05-25T04:18:42Z</time></trkpt>
<trkpt lat="50.248148" lon="5.128151"><ele>313.86</ele><time>2025-05-25T04:18:46Z</time></trkpt>
<trkpt lat="50.248211" lon="5.12853"><ele>313.37</ele><time>2025-05-25T04:18:50Z</time></trkpt>
<trkpt lat="50.248321" lon="5.12897"><ele>313.88</ele><time>2025-05-25T04:18:54Z</time></trkpt>
<trkpt lat="50.248297" lon="5.129606"><ele>308.61</ele><time>2025-05-25T04:18:57Z</time></trkpt>
<trkpt lat="50.248255" lon="5.129995"><ele>308.15</ele><time>2025-05-25T04:19:01Z</time></trkpt>
<trkpt lat="50.247961" lon="5.130755"><ele>306.66</ele><time>2025-05-25T04:19:05Z</time></trkpt>
<trkpt lat="50.24777" lon="5.131147"><ele>307.13</ele><time>2025-05-25T04:19:09Z</time></trkpt>
<trkpt lat="50.247195" lon="5.131992"><ele>311.42</ele><time>2025-05-25T04:19:13Z</time></trkpt>
<trkpt lat="50.246922" lon="5.132422"><ele>312.92</ele><time>2025-05-25T04:19:16Z</time></trkpt>
<trkpt lat="50.249325" lon="5.13454"><ele>316.37</ele><time>2025-05-25T04:19:27Z</time></trkpt>
<trkpt lat="50.249391" lon="5.134683"><ele>316.11</ele><time>2025-05-25T04:19:38Z</time></trkpt>
<trkpt lat="50.251384" lon="5.140332"><ele>314.01</ele><time>2025-05-25T04:19:48Z</time></trkpt>
<trkpt lat="50.252606" lon="5.143855"><ele>309.74</ele><time>2025-05-25T04:19:59Z</time></trkpt>
<trkpt lat="50.252741" lon="5.144175"><ele>308.97</ele><time>2025-05-25T04:20:10Z</time></trkpt>
<trkpt lat="50.255097" lon="5.147448"><ele>304.0</ele><time>2025-05-25T04:20:21Z</time></trkpt>
<trkpt lat="50.255169" lon="5.147478"><ele>304.0</ele><time>2025-05-25T04:20:31Z</time></trkpt>
<trkpt lat="50.255186" lon="5.149144"><ele>305.34</ele><time>2025-05-25T04:20:38Z</time></trkpt>
<trkpt lat="50.255358" lon="5.164678"><ele>272.58</ele><time>2025-05-25T04:20:44Z</time></trkpt>
<trkpt lat="50.255339" lon="5.165057"><ele>273.54</ele><time>2025-05-25T04:20:50Z</time></trkpt>
<trkpt lat="50.2553" lon="5.16535"><ele>275.42</ele><time>2025-05-25T04:20:57Z</time></trkpt>
<trkpt lat="50.255223" lon="5.165618"><ele>277.98</ele><time>2025-05-25T04:21:03Z</time></trkpt>
<trkpt lat="50.255149" lon="5.165838"><ele>279.33</ele><time>2025-05-25T04:21:09Z</time></trkpt>
<trkpt lat="50.2548" lon="5.16665"><ele>282.48</ele><time>2025-05-25T04:21:16Z</time></trkpt>
<trkpt lat="50.254691" lon="5.167067"><ele>284.99</ele><time>2025-05-25T04:21:22Z</time></trkpt>
<trkpt lat="50.254651" lon="5.167444"><ele>287.05</ele><time>2025-05-25T04:21:28Z</time></trkpt>
<trkpt lat="50.254643" lon="5.167801"><ele>289.37</ele><time>2025-05-25T04:21:35Z</time></trkpt>
<trkpt lat="50.254661" lon="5.168965"><ele>293.22</ele><time>2025-05-25T04:21:41Z</time></trkpt>
<trkpt lat="50.254649" lon="5.169348"><ele>293.92</ele><time>2025-05-25T04:21:47Z</time></trkpt>
<trkpt lat="50.254544" lon="5.170228"><ele>296.28</ele><time>2025-05-25T04:21:54Z</time></trkpt>
<trkpt lat="50.254385" lon="5.170998"><ele>297.26</ele><time>2025-05-25T04:22:00Z</time></trkpt>
<trkpt lat="50.253678" lon="5.174117"><ele>316.58</ele><time>2025-05-25T04:22:07Z</time></trkpt>
<trkpt lat="50.253613" lon="5.174309"><ele>317.51</ele><time>2025-05-25T04:22:13Z</time></trkpt>
<trkpt lat="50.253486" lon="5.174597"><ele>318.25</ele><time>2025-05-25T04:22:19Z</time></trkpt>
<trkpt lat="50.253324" lon="5.174871"><ele>319.5</ele><time>2025-05-25T04:22:26Z</time></trkpt>
<trkpt lat="50.253254" lon="5.174958"><ele>319.57</ele><time>2025-05-25T04:22:32Z</time></trkpt>
<trkpt lat="50.253083" lon="5.175127"><ele>319.1</ele><time>2025-05-25T04:22:38Z</time></trkpt>
<trkpt lat="50.25291" lon="5.175259"><ele>318.48</ele><time>2025-05-25T04:22:45Z</time></trkpt>
<trkpt lat="50.252724" lon="5.175351"><ele>317.4</ele><time>2025-05-25T04:22:51Z</time></trkpt>
<trkpt lat="50.252538" lon="5.175404"><ele>316.21</ele><time>2025-05-25T04:22:57Z</time></trkpt>
<trkpt lat="50.251224" lon="5.175436"><ele>309.33</ele><time>2025-05-25T04:23:04Z</time></trkpt>
<trkpt lat="50.243316" lon="5.17562"><ele>297.78</ele><time>2025-05-25T04:23:10Z</time></trkpt>
<trkpt lat="50.242327" lon="5.17566"><ele>298.62</ele><time>2025-05-25T04:23:16Z</time></trkpt>
<trkpt lat="50.241118" lon="5.176041"><ele>293.3</ele><time>2025-05-25T04:23:23Z</time></trkpt>
<trkpt lat="50.238115" lon="5.177065"><ele>275.33</ele><time>2025-05-25T04:23:29Z</time></trkpt>
<trkpt lat="50.237459" lon="5.177366"><ele>279.03</ele><time>2025-05-25T04:23:35Z</time></trkpt>
<trkpt lat="50.237282" lon="5.177496"><ele>281.35</ele><time>2025-05-25T04:23:42Z</time></trkpt>
<trkpt lat="50.237088" lon="5.177677"><ele>283.3</ele><time>2025-05-25T04:23:48Z</time></trkpt>
<trkpt lat="50.236827" lon="5.178024"><ele>286.74</ele><time>2025-05-25T04:23:54Z</time></trkpt>
<trkpt lat="50.23662" lon="5.178394"><ele>288.68</ele><time>2025-05-25T04:24:01Z</time></trkpt>
<trkpt lat="50.236337" lon="5.178984"><ele>292.74</ele><time>2025-05-25T04:24:07Z</time></trkpt>
<trkpt lat="50.23605" lon="5.179673"><ele>297.38</ele><time>2025-05-25T04:24:13Z</time></trkpt>
<trkpt lat="50.235842" lon="5.180341"><ele>304.05</ele><time>2025-05-25T04:24:20Z</time></trkpt>
<trkpt lat="50.235106" lon="5.183064"><ele>316.61</ele><time>2025-05-25T04:24:26Z</time></trkpt>
<trkpt lat="50.234995" lon="5.183346"><ele>316.12</ele><time>2025-05-25T04:24:32Z</time></trkpt>
<trkpt lat="50.234796" lon="5.18365"><ele>318.18</ele><time>2025-05-25T04:24:39Z</time></trkpt>
<trkpt lat="50.234671" lon="5.183779"><ele>319.42</ele><time>2025-05-25T04:24:45Z</time></trkpt>
<trkpt lat="50.234541" lon="5.183877"><ele>321.6</ele><time>2025-05-25T04:24:52Z</time></trkpt>
<trkpt lat="50.234388" lon="5.183952"><ele>323.99</ele><time>2025-05-25T04:24:58Z</time></trkpt>
<trkpt lat="50.234145" lon="5.184005"><ele>327.15</ele><time>2025-05-25T04:25:04Z</time></trkpt>
<trkpt lat="50.234036" lon="5.183995"><ele>327.94</ele><time>2025-05-25T04:25:11Z</time></trkpt>
<trkpt lat="50.233897" lon="5.18396"><ele>328.94</ele><time>2025-05-25T04:25:17Z</time></trkpt>
<trkpt lat="50.2337" lon="5.183863"><ele>330.36</ele><time>2025-05-25T04:25:23Z</time></trkpt>
<trkpt lat="50.230267" lon="5.180585"><ele>322.78</ele><time>2025-05-25T04:25:30Z</time></trkpt>
<trkpt lat="50.230018" lon="5.180321"><ele>320.2</ele><time>2025-05-25T04:25:36Z</time></trkpt>
<trkpt lat="50.228604" lon="5.178956"><ele>314.41</ele><time>2025-05-25T04:25:47Z</time></trkpt>
<trkpt lat="50.227575" lon="5.178036"><ele>308.93</ele><time>2025-05-25T04:25:59Z</time></trkpt>
<trkpt lat="50.224913" lon="5.176047"><ele>290.45</ele><time>2025-05-25T04:26:10Z</time></trkpt>
<trkpt lat="50.224622" lon="5.175888"><ele>289.15</ele><time>2025-05-25T04:26:22Z</time></trkpt>
<trkpt lat="50.224351" lon="5.175889"><ele>287.26</ele><time>2025-05-25T04:26:33Z</time></trkpt>
<trkpt lat="50.22421" lon="5.175944"><ele>285.98</ele><time>2025-05-25T04:26:44Z</time></trkpt>
<trkpt lat="50.223943" lon="5.176165"><ele>282.58</ele><time>2025-05-25T04:26:56Z</time></trkpt>
<trkpt lat="50.223827" lon="5.176309"><ele>282.0</ele><time>2025-05-25T04:27:07Z</time></trkpt>
<trkpt lat="50.223724" lon="5.176489"><ele>281.64</ele><time>2025-05-25T04:27:18Z</time></trkpt>
<trkpt lat="50.220913" lon="5.181803"><ele>253.51</ele><time>2025-05-25T04:27:30Z</time></trkpt>
<trkpt lat="50.218049" lon="5.187143"><ele>222.26</ele><time>2025-05-25T04:27:41Z</time></trkpt>
<trkpt lat="50.217327" lon="5.188523"><ele>221.0</ele><time>2025-05-25T04:27:53Z</time></trkpt>
<trkpt lat="50.216942" lon="5.1892"><ele>219.87</ele><time>2025-05-25T04:28:04Z</time></trkpt>
<trkpt lat="50.216567" lon="5.189779"><ele>217.64</ele><time>2025-05-25T04:28:15Z</time></trkpt>
<trkpt lat="50.215985" lon="5.19049"><ele>210.33</ele><time>2025-05-25T04:28:27Z</time></trkpt>
<trkpt lat="50.215071" lon="5.191422"><ele>200.68</ele><time>2025-05-25T04:28:38Z</time></trkpt>
<trkpt lat="50.210209" lon="5.196514"><ele>175.24</ele><time>2025-05-25T04:28:49Z</time></trkpt>
<trkpt lat="50.207092" lon="5.199817"><ele>193.81</ele><time>2025-05-25T04:29:01Z</time></trkpt>
<trkpt lat="50.200424" lon="5.206758"><ele>246.33</ele><time>2025-05-25T04:29:12Z</time></trkpt>
<trkpt lat="50.19892" lon="5.208359"><ele>256.9</ele><time>2025-05-25T04:29:24Z</time></trkpt>
<trkpt lat="50.198315" lon="5.208686"><ele>256.73</ele><time>2025-05-25T04:29:35Z</time></trkpt>
<trkpt lat="50.198698" lon="5.209094"><ele>257.36</ele><time>2025-05-25T04:29:40Z</time></trkpt>
<trkpt lat="50.198981" lon="5.209041"><ele>258.88</ele><time>2025-05-25T04:29:46Z</time></trkpt>
<trkpt lat="50.199275" lon="5.209262"><ele>259.57</ele><time>2025-05-25T04:29:51Z</time></trkpt>
<trkpt lat="50.199533" lon="5.209607"><ele>259.26</ele><time>2025-05-25T04:29:57Z</time></trkpt>
<trkpt lat="50.199765" lon="5.210032"><ele>259.85</ele><time>2025-05-25T04:30:02Z</time></trkpt>
<trkpt lat="50.200038" lon="5.210866"><ele>257.75</ele><time>2025-05-25T04:30:08Z</time></trkpt>
<trkpt lat="50.200525" lon="5.212064"><ele>253.55</ele><time>2025-05-25T04:30:13Z</time></trkpt>
<trkpt lat="50.2015" lon="5.21285"><ele>252.7</ele><time>2025-05-25T04:30:18Z</time></trkpt>
<trkpt lat="50.202965" lon="5.213854"><ele>253.13</ele><time>2025-05-25T04:30:24Z</time></trkpt>
<trkpt lat="50.204117" lon="5.214922"><ele>244.41</ele><time>2025-05-25T04:30:29Z</time></trkpt>
<trkpt lat="50.205284" lon="5.216408"><ele>242.07</ele><time>2025-05-25T04:30:35Z</time></trkpt>
<trkpt lat="50.206709" lon="5.219605"><ele>248.85</ele><time>2025-05-25T04:30:40Z</time></trkpt>
<trkpt lat="50.20572" lon="5.220664"><ele>242.19</ele><time>2025-05-25T04:30:44Z</time></trkpt>
<trkpt lat="50.205204" lon="5.22109"><ele>240.98</ele><time>2025-05-25T04:30:47Z</time></trkpt>
<trkpt lat="50.202306" lon="5.223456"><ele>225.3</ele><time>2025-05-25T04:30:51Z</time></trkpt>
<trkpt lat="50.201956" lon="5.223564"><ele>224.04</ele><time>2025-05-25T04:30:55Z</time></trkpt>
<trkpt lat="50.201582" lon="5.223831"><ele>223.0</ele><time>2025-05-25T04:30:59Z</time></trkpt>
<trkpt lat="50.201434" lon="5.224037"><ele>222.91</ele><time>2025-05-25T04:31:02Z</time></trkpt>
<trkpt lat="50.201267" lon="5.224349"><ele>222.48</ele><time>2025-05-25T04:31:06Z</time></trkpt>
<trkpt lat="50.201104" lon="5.224704"><ele>221.08</ele><time>2025-05-25T04:31:10Z</time></trkpt>
<trkpt lat="50.200776" lon="5.225306"><ele>216.51</ele><time>2025-05-25T04:31:13Z</time></trkpt>
<trkpt lat="50.20049" lon="5.226098"><ele>214.04</ele><time>2025-05-25T04:31:17Z</time></trkpt>
<trkpt lat="50.20043" lon="5.226502"><ele>213.78</ele><time>2025-05-25T04:31:21Z</time></trkpt>
<trkpt lat="50.200213" lon="5.227389"><ele>212.77</ele><time>2025-05-25T04:31:24Z</time></trkpt>
<trkpt lat="50.200124" lon="5.227875"><ele>211.45</ele><time>2025-05-25T04:31:28Z</time></trkpt>
<trkpt lat="50.20009" lon="5.228404"><ele>211.0</ele><time>2025-05-25T04:31:32Z</time></trkpt>
<trkpt lat="50.199919" lon="5.228831"><ele>210.21</ele><time>2025-05-25T04:31:35Z</time></trkpt>
<trkpt lat="50.199674" lon="5.229678"><ele>207.82</ele><time>2025-05-25T04:31:39Z</time></trkpt>
<trkpt lat="50.199552" lon="5.230045"><ele>205.39</ele><time>2025-05-25T04:31:43Z</time></trkpt>
<trkpt lat="50.199329" lon="5.230539"><ele>203.64</ele><time>2025-05-25T04:31:47Z</time></trkpt>
<trkpt lat="50.199218" lon="5.230877"><ele>203.03</ele><time>2025-05-25T04:31:50Z</time></trkpt>
<trkpt lat="50.199061" lon="5.231473"><ele>200.67</ele><time>2025-05-25T04:31:54Z</time></trkpt>
<trkpt lat="50.198894" lon="5.231978"><ele>197.91</ele><time>2025-05-25T04:31:58Z</time></trkpt>
<trkpt lat="50.198442" lon="5.23308"><ele>195.27</ele><time>2025-05-25T04:32:01Z</time></trkpt>
<trkpt lat="50.198078" lon="5.234407"><ele>191.93</ele><time>2025-05-25T04:32:05Z</time></trkpt>
<trkpt lat="50.197937" lon="5.234851"><ele>189.64</ele><time>2025-05-25T04:32:09Z</time></trkpt>
<trkpt lat="50.197755" lon="5.235306"><ele>186.74</ele><time>2025-05-25T04:32:12Z</time></trkpt>
<trkpt lat="50.19749" lon="5.235857"><ele>184.0</ele><time>2025-05-25T04:32:16Z</time></trkpt>
<trkpt lat="50.197347" lon="5.236207"><ele>184.71</ele><time>2025-05-25T04:32:20Z</time></trkpt>
<trkpt lat="50.197131" lon="5.236865"><ele>186.33</ele><time>2025-05-25T04:32:23Z</time></trkpt>
<trkpt lat="50.196918" lon="5.237403"><ele>186.74</ele><time>2025-05-25T04:32:27Z</time></trkpt>
<trkpt lat="50.196668" lon="5.237907"><ele>190.46</ele><time>2025-05-25T04:32:31Z</time></trkpt>
<trkpt lat="50.196397" lon="5.238385"><ele>194.16</ele><time>2025-05-25T04:32:35Z</time></trkpt>
<trkpt lat="50.196302" lon="5.238612"><ele>195.94</ele><time>2025-05-25T04:32:38Z</time></trkpt>
<trkpt lat="50.196169" lon="5.239429"><ele>203.26</ele><time>2025-05-25T04:32:42Z</time></trkpt>
<trkpt lat="50.196127" lon="5.239527"><ele>204.42</ele><time>2025-05-25T04:32:46Z</time></trkpt>
<trkpt lat="50.196069" lon="5.239604"><ele>205.48</ele><time>2025-05-25T04:32:49Z</time></trkpt>
<trkpt lat="50.195977" lon="5.239666"><ele>206.85</ele><time>2025-05-25T04:32:53Z</time></trkpt>
<trkpt lat="50.195888" lon="5.239674"><ele>207.77</ele><time>2025-05-25T04:32:57Z</time></trkpt>
<trkpt lat="50.195685" lon="5.239621"><ele>209.88</ele><time>2025-05-25T04:33:00Z</time></trkpt>
<trkpt lat="50.195152" lon="5.239381"><ele>214.58</ele><time>2025-05-25T04:33:04Z</time></trkpt>
<trkpt lat="50.195075" lon="5.239381"><ele>215.35</ele><time>2025-05-25T04:33:08Z</time></trkpt>
<trkpt lat="50.195006" lon="5.239414"><ele>216.5</ele><time>2025-05-25T04:33:11Z</time></trkpt>
<trkpt lat="50.194942" lon="5.239496"><ele>218.36</ele><time>2025-05-25T04:33:15Z</time></trkpt>
<trkpt lat="50.1949" lon="5.23963"><ele>220.21</ele><time>2025-05-25T04:33:19Z</time></trkpt>
<trkpt lat="50.194907" lon="5.239767"><ele>221.49</ele><time>2025-05-25T04:33:23Z</time></trkpt>
<trkpt lat="50.19495" lon="5.239862"><ele>222.05</ele><time>2025-05-25T04:33:26Z</time></trkpt>
<trkpt lat="50.195164" lon="5.240182"><ele>221.09</ele><time>2025-05-25T04:33:30Z</time></trkpt>
<trkpt lat="50.195348" lon="5.240554"><ele>221.73</ele><time>2025-05-25T04:33:34Z</time></trkpt>
<trkpt lat="50.195432" lon="5.240822"><ele>221.87</ele><time>2025-05-25T04:33:37Z</time></trkpt>
<trkpt lat="50.195497" lon="5.241148"><ele>222.81</ele><time>2025-05-25T04:33:41Z</time></trkpt>
<trkpt lat="50.195746" lon="5.242868"><ele>241.77</ele><time>2025-05-25T04:33:45Z</time></trkpt>
<trkpt lat="50.195837" lon="5.243231"><ele>247.07</ele><time>2025-05-25T04:33:48Z</time></trkpt>
<trkpt lat="50.196115" lon="5.243934"><ele>251.37</ele><time>2025-05-25T04:33:52Z</time></trkpt>
<trkpt lat="50.19646" lon="5.244991"><ele>258.81</ele><time>2025-05-25T04:33:56Z</time></trkpt>
<trkpt lat="50.197024" lon="5.246971"><ele>271.33</ele><time>2025-05-25T04:33:59Z</time></trkpt>
<trkpt lat="50.197195" lon="5.247498"><ele>273.18</ele><time>2025-05-25T04:34:03Z</time></trkpt>
<trkpt lat="50.197306" lon="5.248044"><ele>275.05</ele><time>2025-05-25T04:34:07Z</time></trkpt>
<trkpt lat="50.197469" lon="5.249149"><ele>278.94</ele><time>2025-05-25T04:34:11Z</time></trkpt>
<trkpt lat="50.197442" lon="5.249455"><ele>280.86</ele><time>2025-05-25T04:34:14Z</time></trkpt>
<trkpt lat="50.197374" lon="5.249725"><ele>282.11</ele><time>2025-05-25T04:34:18Z</time></trkpt>
<trkpt lat="50.196923" lon="5.250975"><ele>279.77</ele><time>2025-05-25T04:34:22Z</time></trkpt>
<trkpt lat="50.196981" lon="5.251023"><ele>280.43</ele><time>2025-05-25T04:34:22Z</time></trkpt>
<trkpt lat="50.196991" lon="5.251231"><ele>279.99</ele><time>2025-05-25T04:34:31Z</time></trkpt>
<trkpt lat="50.197266" lon="5.253388"><ele>273.13</ele><time>2025-05-25T04:34:41Z</time></trkpt>
<trkpt lat="50.197303" lon="5.253776"><ele>272.41</ele><time>2025-05-25T04:34:50Z</time></trkpt>
<trkpt lat="50.197302" lon="5.253967"><ele>271.72</ele><time>2025-05-25T04:34:59Z</time></trkpt>
<trkpt lat="50.197043" lon="5.253873"><ele>272.05</ele><time>2025-05-25T04:35:01Z</time></trkpt>
<trkpt lat="50.196901" lon="5.253855"><ele>272.1</ele><time>2025-05-25T04:35:04Z</time></trkpt>
<trkpt lat="50.196699" lon="5.253911"><ele>272.0</ele><time>2025-05-25T04:35:06Z</time></trkpt>
<trkpt lat="50.196592" lon="5.253989"><ele>272.27</ele><time>2025-05-25T04:35:08Z</time></trkpt>
<trkpt lat="50.196434" lon="5.254151"><ele>272.83</ele><time>2025-05-25T04:35:11Z</time></trkpt>
<trkpt lat="50.196306" lon="5.254352"><ele>274.27</ele><time>2025-05-25T04:35:13Z</time></trkpt>
<trkpt lat="50.196228" lon="5.254553"><ele>275.16</ele><time>2025-05-25T04:35:15Z</time></trkpt>
<trkpt lat="50.196143" lon="5.254954"><ele>276.41</ele><time>2025-05-25T04:35:18Z</time></trkpt>
<trkpt lat="50.195623" lon="5.258946"><ele>291.96</ele><time>2025-05-25T04:35:20Z</time></trkpt>
<trkpt lat="50.195573" lon="5.259196"><ele>293.04</ele><time>2025-05-25T04:35:22Z</time></trkpt>
<trkpt lat="50.195503" lon="5.259322"><ele>293.37</ele><time>2025-05-25T04:35:24Z</time></trkpt>
<trkpt lat="50.195535" lon="5.259549"><ele>294.3</ele><time>2025-05-25T04:35:33Z</time></trkpt>
<trkpt lat="50.19545" lon="5.260137"><ele>295.92</ele><time>2025-05-25T04:35:42Z</time></trkpt>
<trkpt lat="50.195418" lon="5.260269"><ele>295.99</ele><time>2025-05-25T04:35:51Z</time></trkpt>
<trkpt lat="50.195325" lon="5.260486"><ele>296.21</ele><time>2025-05-25T04:36:00Z</time></trkpt>
<trkpt lat="50.194066" lon="5.262462"><ele>291.68</ele><time>2025-05-25T04:36:09Z</time></trkpt>
<trkpt lat="50.193496" lon="5.263589"><ele>286.58</ele><time>2025-05-25T04:36:18Z</time></trkpt>
<trkpt lat="50.193365" lon="5.263922"><ele>285.21</ele><time>2025-05-25T04:36:27Z</time></trkpt>
<trkpt lat="50.193269" lon="5.264318"><ele>284.54</ele><time>2025-05-25T04:36:35Z</time></trkpt>
<trkpt lat="50.193212" lon="5.264671"><ele>284.12</ele><time>2025-05-25T04:36:44Z</time></trkpt>
<trkpt lat="50.192987" lon="5.268449"><ele>275.51</ele><time>2025-05-25T04:36:53Z</time></trkpt>
<trkpt lat="50.192953" lon="5.268738"><ele>275.09</ele><time>2025-05-25T04:37:02Z</time></trkpt>
<trkpt lat="50.192065" lon="5.271913"><ele>267.43</ele><time>2025-05-25T04:37:11Z</time></trkpt>
<trkpt lat="50.191964" lon="5.272375"><ele>268.07</ele><time>2025-05-25T04:37:20Z</time></trkpt>
<trkpt lat="50.191453" lon="5.274981"><ele>261.53</ele><time>2025-05-25T04:37:29Z</time></trkpt>
<trkpt lat="50.191387" lon="5.275412"><ele>260.99</ele><time>2025-05-25T04:37:38Z</time></trkpt>
<trkpt lat="50.191302" lon="5.276666"><ele>259.69</ele><time>2025-05-25T04:37:46Z</time></trkpt>
<trkpt lat="50.191185" lon="5.277202"><ele>259.95</ele><time>2025-05-25T04:37:55Z</time></trkpt>
<trkpt lat="50.191009" lon="5.277707"><ele>261.75</ele><time>2025-05-25T04:38:04Z</time></trkpt>
<trkpt lat="50.190412" lon="5.278662"><ele>264.18</ele><time>2025-05-25T04:38:13Z</time></trkpt>
<trkpt lat="50.190315" lon="5.278952"><ele>265.23</ele><time>2025-05-25T04:38:22Z</time></trkpt>
<trkpt lat="50.189883" lon="5.280604"><ele>265.58</ele><time>2025-05-25T04:38:31Z</time></trkpt>
<trkpt lat="50.189299" lon="5.285518"><ele>264.0</ele><time>2025-05-25T04:38:40Z</time></trkpt>
<trkpt lat="50.189257" lon="5.285765"><ele>264.0</ele><time>2025-05-25T04:38:49Z</time></trkpt>
<trkpt lat="50.189058" lon="5.286355"><ele>265.0</ele><time>2025-05-25T04:38:57Z</time></trkpt>
<trkpt lat="50.188781" lon="5.287051"><ele>265.0</ele><time>2025-05-25T04:39:06Z</time></trkpt>
<trkpt lat="50.188383" lon="5.287942"><ele>268.59</ele><time>2025-05-25T04:39:15Z</time></trkpt>
<trkpt lat="50.187937" lon="5.288784"><ele>270.2</ele><time>2025-05-25T04:39:24Z</time></trkpt>
<trkpt lat="50.187298" lon="5.289834"><ele>273.8</ele><time>2025-05-25T04:39:33Z</time></trkpt>
<trkpt lat="50.185917" lon="5.292692"><ele>276.21</ele><time>2025-05-25T04:39:42Z</time></trkpt>
<trkpt lat="50.185531" lon="5.293783"><ele>274.29</ele><time>2025-05-25T04:39:51Z</time></trkpt>
<trkpt lat="50.185338" lon="5.294441"><ele>272.01</ele><time>2025-05-25T04:40:00Z</time></trkpt>
<trkpt lat="50.185194" lon="5.295048"><ele>270.4</ele><time>2025-05-25T04:40:08Z</time></trkpt>
<trkpt lat="50.184944" lon="5.295936"><ele>266.06</ele><time>2025-05-25T04:40:17Z</time></trkpt>
<trkpt lat="50.184765" lon="5.296837"><ele>258.01</ele><time>2025-05-25T04:40:26Z</time></trkpt>
<trkpt lat="50.184696" lon="5.297052"><ele>255.94</ele><time>2025-05-25T04:40:35Z</time></trkpt>
<trkpt lat="50.184563" lon="5.297136"><ele>255.5</ele><time>2025-05-25T04:40:44Z</time></trkpt>
<trkpt lat="50.184205" lon="5.297138"><ele>255.04</ele><time>2025-05-25T04:40:53Z</time></trkpt>
<trkpt lat="50.183898" lon="5.29698"><ele>255.77</ele><time>2025-05-25T04:41:02Z</time></trkpt>
<trkpt lat="50.18379" lon="5.297427"><ele>253.17</ele><time>2025-05-25T04:41:05Z</time></trkpt>
<trkpt lat="50.183756" lon="5.297596"><ele>252.82</ele><time>2025-05-25T04:41:07Z</time></trkpt>
<trkpt lat="50.183776" lon="5.297736"><ele>252.49</ele><time>2025-05-25T04:41:10Z</time></trkpt>
<trkpt lat="50.183831" lon="5.297816"><ele>251.79</ele><time>2025-05-25T04:41:13Z</time></trkpt>
<trkpt lat="50.183943" lon="5.29788"><ele>251.09</ele><time>2025-05-25T04:41:16Z</time></trkpt>
<trkpt lat="50.184635" lon="5.297948"><ele>248.86</ele><time>2025-05-25T04:41:19Z</time></trkpt>
<trkpt lat="50.184744" lon="5.297979"><ele>248.09</ele><time>2025-05-25T04:41:22Z</time></trkpt>
<trkpt lat="50.185122" lon="5.298232"><ele>245.1</ele><time>2025-05-25T04:41:25Z</time></trkpt>
<trkpt lat="50.185466" lon="5.298532"><ele>242.26</ele><time>2025-05-25T04:41:28Z</time></trkpt>
<trkpt lat="50.185665" lon="5.298736"><ele>242.07</ele><time>2025-05-25T04:41:31Z</time></trkpt>
<trkpt lat="50.185801" lon="5.298981"><ele>242.52</ele><time>2025-05-25T04:41:33Z</time></trkpt>
<trkpt lat="50.185857" lon="5.299272"><ele>241.92</ele><time>2025-05-25T04:41:36Z</time></trkpt>
<trkpt lat="50.18604" lon="5.29998"><ele>242.36</ele><time>2025-05-25T04:41:39Z</time></trkpt>
<trkpt lat="50.186173" lon="5.300324"><ele>241.26</ele><time>2025-05-25T04:41:42Z</time></trkpt>
<trkpt lat="50.186434" lon="5.300815"><ele>238.11</ele><time>2025-05-25T04:41:45Z</time></trkpt>
<trkpt lat="50.186455" lon="5.300957"><ele>236.17</ele><time>2025-05-25T04:41:48Z</time></trkpt>
<trkpt lat="50.186449" lon="5.301085"><ele>233.95</ele><time>2025-05-25T04:41:51Z</time></trkpt>
<trkpt lat="50.186421" lon="5.301196"><ele>231.88</ele><time>2025-05-25T04:41:54Z</time></trkpt>
<trkpt lat="50.18638" lon="5.301264"><ele>230.19</ele><time>2025-05-25T04:41:57Z</time></trkpt>
<trkpt lat="50.186301" lon="5.301326"><ele>227.92</ele><time>2025-05-25T04:41:59Z</time></trkpt>
<trkpt lat="50.186178" lon="5.301323"><ele>225.53</ele><time>2025-05-25T04:42:02Z</time></trkpt>
<trkpt lat="50.186074" lon="5.301247"><ele>224.7</ele><time>2025-05-25T04:42:05Z</time></trkpt>
<trkpt lat="50.185999" lon="5.301127"><ele>224.9</ele><time>2025-05-25T04:42:08Z</time></trkpt>
<trkpt lat="50.185941" lon="5.300964"><ele>226.67</ele><time>2025-05-25T04:42:11Z</time></trkpt>
<trkpt lat="50.185759" lon="5.300284"><ele>232.51</ele><time>2025-05-25T04:42:14Z</time></trkpt>
<trkpt lat="50.185668" lon="5.300138"><ele>230.96</ele><time>2025-05-25T04:42:17Z</time></trkpt>
<trkpt lat="50.185576" lon="5.300062"><ele>228.93</ele><time>2025-05-25T04:42:20Z</time></trkpt>
<trkpt lat="50.185471" lon="5.300009"><ele>226.47</ele><time>2025-05-25T04:42:23Z</time></trkpt>
<trkpt lat="50.185353" lon="5.300003"><ele>223.15</ele><time>2025-05-25T04:42:26Z</time></trkpt>
<trkpt lat="50.185176" lon="5.300099"><ele>217.62</ele><time>2025-05-25T04:42:28Z</time></trkpt>
<trkpt lat="50.184154" lon="5.300909"><ele>209.95</ele><time>2025-05-25T04:42:31Z</time></trkpt>
<trkpt lat="50.183935" lon="5.301156"><ele>209.17</ele><time>2025-05-25T04:42:34Z</time></trkpt>
<trkpt lat="50.183786" lon="5.301459"><ele>209.0</ele><time>2025-05-25T04:42:37Z</time></trkpt>
<trkpt lat="50.183405" lon="5.302464"><ele>210.61</ele><time>2025-05-25T04:42:40Z</time></trkpt>
<trkpt lat="50.183853" lon="5.303199"><ele>210.65</ele><time>2025-05-25T04:42:46Z</time></trkpt>
<trkpt lat="50.183971" lon="5.303354"><ele>210.76</ele><time>2025-05-25T04:42:53Z</time></trkpt>
<trkpt lat="50.184366" lon="5.303749"><ele>210.14</ele><time>2025-05-25T04:42:59Z</time></trkpt>
<trkpt lat="50.184995" lon="5.304303"><ele>210.5</ele><time>2025-05-25T04:43:05Z</time></trkpt>
<trkpt lat="50.18514" lon="5.304466"><ele>211.08</ele><time>2025-05-25T04:43:12Z</time></trkpt>
<trkpt lat="50.185267" lon="5.304662"><ele>211.78</ele><time>2025-05-25T04:43:18Z</time></trkpt>
<trkpt lat="50.185647" lon="5.305407"><ele>211.82</ele><time>2025-05-25T04:43:24Z</time></trkpt>
<trkpt lat="50.185821" lon="5.305663"><ele>212.02</ele><time>2025-05-25T04:43:30Z</time></trkpt>
<trkpt lat="50.18758" lon="5.30809"><ele>216.45</ele><time>2025-05-25T04:43:37Z</time></trkpt>
<trkpt lat="50.187398" lon="5.308402"><ele>217.0</ele><time>2025-05-25T04:43:42Z</time></trkpt>
<trkpt lat="50.187335" lon="5.308512"><ele>217.0</ele><time>2025-05-25T04:43:46Z</time></trkpt>
<trkpt lat="50.186763" lon="5.309493"><ele>216.0</ele><time>2025-05-25T04:43:51Z</time></trkpt>
<trkpt lat="50.186573" lon="5.30988"><ele>215.62</ele><time>2025-05-25T04:43:56Z</time></trkpt>
<trkpt lat="50.185509" lon="5.312711"><ele>217.21</ele><time>2025-05-25T04:44:01Z</time></trkpt>
<trkpt lat="50.185418" lon="5.313018"><ele>218.79</ele><time>2025-05-25T04:44:05Z</time></trkpt>
<trkpt lat="50.185235" lon="5.313804"><ele>224.79</ele><time>2025-05-25T04:44:10Z</time></trkpt>
<trkpt lat="50.18506" lon="5.314433"><ele>226.19</ele><time>2025-05-25T04:44:15Z</time></trkpt>
<trkpt lat="50.184749" lon="5.315173"><ele>227.03</ele><time>2025-05-25T04:44:20Z</time></trkpt>
<trkpt lat="50.183186" lon="5.31807"><ele>228.01</ele><time>2025-05-25T04:44:25Z</time></trkpt>
<trkpt lat="50.183023" lon="5.318344"><ele>228.84</ele><time>2025-05-25T04:44:29Z</time></trkpt>
<trkpt lat="50.182324" lon="5.319157"><ele>231.3</ele><time>2025-05-25T04:44:34Z</time></trkpt>
<trkpt lat="50.182174" lon="5.31936"><ele>232.86</ele><time>2025-05-25T04:44:39Z</time></trkpt>
<trkpt lat="50.181733" lon="5.320116"><ele>233.23</ele><time>2025-05-25T04:44:44Z</time></trkpt>
<trkpt lat="50.181501" lon="5.320593"><ele>232.23</ele><time>2025-05-25T04:44:48Z</time></trkpt>
<trkpt lat="50.181429" lon="5.320886"><ele>232.93</ele><time>2025-05-25T04:44:53Z</time></trkpt>
<trkpt lat="50.181364" lon="5.321733"><ele>238.08</ele><time>2025-05-25T04:44:58Z</time></trkpt>
<trkpt lat="50.181329" lon="5.322077"><ele>239.35</ele><time>2025-05-25T04:45:03Z</time></trkpt>
<trkpt lat="50.181269" lon="5.322446"><ele>238.12</ele><time>2025-05-25T04:45:08Z</time></trkpt>
<trkpt lat="50.180961" lon="5.323693"><ele>233.27</ele><time>2025-05-25T04:45:12Z</time></trkpt>
<trkpt lat="50.180835" lon="5.324138"><ele>232.92</ele><time>2025-05-25T04:45:17Z</time></trkpt>
<trkpt lat="50.180696" lon="5.324535"><ele>233.34</ele><time>2025-05-25T04:45:22Z</time></trkpt>
<trkpt lat="50.179965" lon="5.325907"><ele>233.89</ele><time>2025-05-25T04:45:27Z</time></trkpt>
<trkpt lat="50.179444" lon="5.327211"><ele>237.87</ele><time>2025-05-25T04:45:31Z</time></trkpt>
<trkpt lat="50.179006" lon="5.328174"><ele>244.09</ele><time>2025-05-25T04:45:36Z</time></trkpt>
<trkpt lat="50.178671" lon="5.329044"><ele>245.74</ele><time>2025-05-25T04:45:41Z</time></trkpt>
<trkpt lat="50.178365" lon="5.330073"><ele>244.13</ele><time>2025-05-25T04:45:46Z</time></trkpt>
<trkpt lat="50.178011" lon="5.331655"><ele>246.55</ele><time>2025-05-25T04:45:51Z</time></trkpt>
<trkpt lat="50.177774" lon="5.332956"><ele>249.18</ele><time>2025-05-25T04:45:55Z</time></trkpt>
<trkpt lat="50.177781" lon="5.334453"><ele>253.11</ele><time>2025-05-25T04:46:00Z</time></trkpt>
<trkpt lat="50.178019" lon="5.336617"><ele>248.25</ele><time>2025-05-25T04:46:05Z</time></trkpt>
<trkpt lat="50.178029" lon="5.336892"><ele>247.59</ele><time>2025-05-25T04:46:10Z</time></trkpt>
<trkpt lat="50.178019" lon="5.337168"><ele>246.51</ele><time>2025-05-25T04:46:14Z</time></trkpt>
<trkpt lat="50.17796" lon="5.337469"><ele>245.28</ele><time>2025-05-25T04:46:19Z</time></trkpt>
<trkpt lat="50.177889" lon="5.337716"><ele>243.22</ele><time>2025-05-25T04:46:24Z</time></trkpt>
<trkpt lat="50.175866" lon="5.344473"><ele>245.88</ele><time>2025-05-25T04:46:29Z</time></trkpt>
<trkpt lat="50.175664" lon="5.344977"><ele>245.44</ele><time>2025-05-25T04:46:34Z</time></trkpt>
<trkpt lat="50.175316" lon="5.345657"><ele>246.72</ele><time>2025-05-25T04:46:38Z</time></trkpt>
<trkpt lat="50.174923" lon="5.346314"><ele>249.28</ele><time>2025-05-25T04:46:43Z</time></trkpt>
<trkpt lat="50.174795" lon="5.3465"><ele>249.74</ele><time>2025-05-25T04:46:48Z</time></trkpt>
<trkpt lat="50.173986" lon="5.347272"><ele>247.65</ele><time>2025-05-25T04:46:53Z</time></trkpt>
<trkpt lat="50.173896" lon="5.347384"><ele>247.98</ele><time>2025-05-25T04:46:58Z</time></trkpt>
<trkpt lat="50.17355" lon="5.347974"><ele>248.44</ele><time>2025-05-25T04:47:02Z</time></trkpt>
<trkpt lat="50.172729" lon="5.349595"><ele>252.08</ele><time>2025-05-25T04:47:07Z</time></trkpt>
<trkpt lat="50.17239" lon="5.350327"><ele>250.53</ele><time>2025-05-25T04:47:12Z</time></trkpt>
<trkpt lat="50.172291" lon="5.350604"><ele>249.62</ele><time>2025-05-25T04:47:17Z</time></trkpt>
<trkpt lat="50.172204" lon="5.350954"><ele>250.37</ele><time>2025-05-25T04:47:21Z</time></trkpt>
<trkpt lat="50.172177" lon="5.351137"><ele>250.84</ele><time>2025-05-25T04:47:26Z</time></trkpt>
<trkpt lat="50.171081" lon="5.362745"><ele>259.09</ele><time>2025-05-25T04:47:31Z</time></trkpt>
<trkpt lat="50.171041" lon="5.36301"><ele>259.76</ele><time>2025-05-25T04:47:36Z</time></trkpt>
<trkpt lat="50.170961" lon="5.363296"><ele>260.15</ele><time>2025-05-25T04:47:41Z</time></trkpt>
<trkpt lat="50.171058" lon="5.363361"><ele>259.38</ele><time>2025-05-25T04:47:45Z</time></trkpt>
<trkpt lat="50.171129" lon="5.363382"><ele>259.0</ele><time>2025-05-25T04:47:50Z</time></trkpt>
<trkpt lat="50.171694" lon="5.363392"><ele>259.02</ele><time>2025-05-25T04:47:54Z</time></trkpt>
<trkpt lat="50.172284" lon="5.36345"><ele>259.87</ele><time>2025-05-25T04:47:59Z</time></trkpt>
<trkpt lat="50.175445" lon="5.363845"><ele>270.24</ele><time>2025-05-25T04:48:04Z</time></trkpt>
<trkpt lat="50.175385" lon="5.365871"><ele>278.5</ele><time>2025-05-25T04:48:08Z</time></trkpt>
<trkpt lat="50.175414" lon="5.366154"><ele>280.33</ele><time>2025-05-25T04:48:12Z</time></trkpt>
<trkpt lat="50.175438" lon="5.366256"><ele>280.89</ele><time>2025-05-25T04:48:16Z</time></trkpt>
<trkpt lat="50.175635" lon="5.366711"><ele>283.47</ele><time>2025-05-25T04:48:20Z</time></trkpt>
<trkpt lat="50.175675" lon="5.366887"><ele>283.48</ele><time>2025-05-25T04:48:24Z</time></trkpt>
<trkpt lat="50.175685" lon="5.367052"><ele>284.1</ele><time>2025-05-25T04:48:28Z</time></trkpt>
<trkpt lat="50.175657" lon="5.368505"><ele>289.01</ele><time>2025-05-25T04:48:32Z</time></trkpt>
<trkpt lat="50.175592" lon="5.369127"><ele>294.33</ele><time>2025-05-25T04:48:36Z</time></trkpt>
<trkpt lat="50.175559" lon="5.369861"><ele>299.47</ele><time>2025-05-25T04:48:40Z</time></trkpt>
<trkpt lat="50.175545" lon="5.370221"><ele>300.98</ele><time>2025-05-25T04:48:44Z</time></trkpt>
<trkpt lat="50.175572" lon="5.370392"><ele>301.32</ele><time>2025-05-25T04:48:48Z</time></trkpt>
<trkpt lat="50.175653" lon="5.370511"><ele>301.43</ele><time>2025-05-25T04:48:52Z</time></trkpt>
<trkpt lat="50.175778" lon="5.370566"><ele>301.28</ele><time>2025-05-25T04:48:56Z</time></trkpt>
<trkpt lat="50.176225" lon="5.370609"><ele>300.97</ele><time>2025-05-25T04:49:00Z</time></trkpt>
<trkpt lat="50.176389" lon="5.370664"><ele>300.78</ele><time>2025-05-25T04:49:04Z</time></trkpt>
<trkpt lat="50.176498" lon="5.370811"><ele>301.08</ele><time>2025-05-25T04:49:08Z</time></trkpt>
<trkpt lat="50.176918" lon="5.371484"><ele>303.53</ele><time>2025-05-25T04:49:12Z</time></trkpt>
<trkpt lat="50.177328" lon="5.371956"><ele>304.3</ele><time>2025-05-25T04:49:16Z</time></trkpt>
<trkpt lat="50.177578" lon="5.372292"><ele>304.68</ele><time>2025-05-25T04:49:20Z</time></trkpt>
<trkpt lat="50.177701" lon="5.372502"><ele>306.3</ele><time>2025-05-25T04:49:24Z</time></trkpt>
<trkpt lat="50.177792" lon="5.372699"><ele>308.05</ele><time>2025-05-25T04:49:28Z</time></trkpt>
<trkpt lat="50.177973" lon="5.373144"><ele>310.94</ele><time>2025-05-25T04:49:32Z</time></trkpt>
<trkpt lat="50.178115" lon="5.373357"><ele>311.81</ele><time>2025-05-25T04:49:36Z</time></trkpt>
<trkpt lat="50.1783" lon="5.373578"><ele>312.11</ele><time>2025-05-25T04:49:40Z</time></trkpt>
<trkpt lat="50.179407" lon="5.37465"><ele>316.04</ele><time>2025-05-25T04:49:44Z</time></trkpt>
<trkpt lat="50.181357" lon="5.376639"><ele>323.82</ele><time>2025-05-25T04:49:48Z</time></trkpt>
<trkpt lat="50.181742" lon="5.377"><ele>324.18</ele><time>2025-05-25T04:49:52Z</time></trkpt>
<trkpt lat="50.181959" lon="5.377135"><ele>324.95</ele><time>2025-05-25T04:49:56Z</time></trkpt>
<trkpt lat="50.182451" lon="5.377179"><ele>321.89</ele><time>2025-05-25T04:50:00Z</time></trkpt>
<trkpt lat="50.182613" lon="5.377259"><ele>321.93</ele><time>2025-05-25T04:50:04Z</time></trkpt>
<trkpt lat="50.18288" lon="5.377482"><ele>322.5</ele><time>2025-05-25T04:50:08Z</time></trkpt>
<trkpt lat="50.182912" lon="5.377567"><ele>323.12</ele><time>2025-05-25T04:50:12Z</time></trkpt>
<trkpt lat="50.18292" lon="5.377677"><ele>324.07</ele><time>2025-05-25T04:50:16Z</time></trkpt>
<trkpt lat="50.182631" lon="5.378426"><ele>333.08</ele><time>2025-05-25T04:50:20Z</time></trkpt>
<trkpt lat="50.182421" lon="5.379222"><ele>339.02</ele><time>2025-05-25T04:50:24Z</time></trkpt>
<trkpt lat="50.182364" lon="5.379585"><ele>342.73</ele><time>2025-05-25T04:50:28Z</time></trkpt>
<trkpt lat="50.182366" lon="5.379897"><ele>345.5</ele><time>2025-05-25T04:50:32Z</time></trkpt>
<trkpt lat="50.182396" lon="5.380121"><ele>347.35</ele><time>2025-05-25T04:50:36Z</time></trkpt>
<trkpt lat="50.182514" lon="5.380793"><ele>352.33</ele><time>2025-05-25T04:50:40Z</time></trkpt>
<trkpt lat="50.182662" lon="5.38145"><ele>355.39</ele><time>2025-05-25T04:50:44Z</time></trkpt>
<trkpt lat="50.182807" lon="5.3823"><ele>356.89</ele><time>2025-05-25T04:50:48Z</time></trkpt>
<trkpt lat="50.18283" lon="5.382859"><ele>355.71</ele><time>2025-05-25T04:50:52Z</time></trkpt>
<trkpt lat="50.18284" lon="5.383522"><ele>354.3</ele><time>2025-05-25T04:50:56Z</time></trkpt>
<trkpt lat="50.182892" lon="5.383923"><ele>354.52</ele><time>2025-05-25T04:51:00Z</time></trkpt>
<trkpt lat="50.18335" lon="5.386639"><ele>362.74</ele><time>2025-05-25T04:51:04Z</time></trkpt>
<trkpt lat="50.183368" lon="5.386877"><ele>363.63</ele><time>2025-05-25T04:51:08Z</time></trkpt>
<trkpt lat="50.183357" lon="5.387113"><ele>364.52</ele><time>2025-05-25T04:51:12Z</time></trkpt>
<trkpt lat="50.183321" lon="5.387369"><ele>365.68</ele><time>2025-05-25T04:51:16Z</time></trkpt>
<trkpt lat="50.18315" lon="5.388085"><ele>369.39</ele><time>2025-05-25T04:51:20Z</time></trkpt>
<trkpt lat="50.183109" lon="5.38847"><ele>370.42</ele><time>2025-05-25T04:51:24Z</time></trkpt>
<trkpt lat="50.183155" lon="5.395507"><ele>371.82</ele><time>2025-05-25T04:51:28Z</time></trkpt>
<trkpt lat="50.183171" lon="5.395818"><ele>370.64</ele><time>2025-05-25T04:51:32Z</time></trkpt>
<trkpt lat="50.183211" lon="5.396042"><ele>369.69</ele><time>2025-05-25T04:51:36Z</time></trkpt>
<trkpt lat="50.183276" lon="5.396251"><ele>369.71</ele><time>2025-05-25T04:51:40Z</time></trkpt>
<trkpt lat="50.184466" lon="5.398955"><ele>372.55</ele><time>2025-05-25T04:51:44Z</time></trkpt>
<trkpt lat="50.185238" lon="5.401"><ele>382.2</ele><time>2025-05-25T04:51:48Z</time></trkpt>
<trkpt lat="50.185519" lon="5.401762"><ele>383.43</ele><time>2025-05-25T04:51:52Z</time></trkpt>
<trkpt lat="50.185591" lon="5.402069"><ele>384.32</ele><time>2025-05-25T04:51:56Z</time></trkpt>
<trkpt lat="50.185748" lon="5.402937"><ele>385.7</ele><time>2025-05-25T04:52:00Z</time></trkpt>
<trkpt lat="50.18585" lon="5.403485"><ele>387.0</ele><time>2025-05-25T04:52:04Z</time></trkpt>
<trkpt lat="50.185923" lon="5.404006"><ele>388.0</ele><time>2025-05-25T04:52:08Z</time></trkpt>
<trkpt lat="50.185932" lon="5.404202"><ele>387.87</ele><time>2025-05-25T04:52:12Z</time></trkpt>
<trkpt lat="50.185916" lon="5.404636"><ele>386.51</ele><time>2025-05-25T04:52:16Z</time></trkpt>
<trkpt lat="50.185798" lon="5.405824"><ele>383.87</ele><time>2025-05-25T04:52:20Z</time></trkpt>
<trkpt lat="50.185666" lon="5.406335"><ele>381.71</ele><time>2025-05-25T04:52:24Z</time></trkpt>
<trkpt lat="50.185646" lon="5.406478"><ele>380.79</ele><time>2025-05-25T04:52:28Z</time></trkpt>
<trkpt lat="50.185645" lon="5.406669"><ele>379.63</ele><time>2025-05-25T04:52:32Z</time></trkpt>
<trkpt lat="50.185717" lon="5.406884"><ele>378.6</ele><time>2025-05-25T04:52:36Z</time></trkpt>
<trkpt lat="50.185767" lon="5.406987"><ele>378.21</ele><time>2025-05-25T04:52:40Z</time></trkpt>
<trkpt lat="50.186438" lon="5.407673"><ele>375.67</ele><time>2025-05-25T04:52:44Z</time></trkpt>
<trkpt lat="50.186707" lon="5.407913"><ele>376.73</ele><time>2025-05-25T04:52:48Z</time></trkpt>
<trkpt lat="50.18713" lon="5.40834"><ele>377.31</ele><time>2025-05-25T04:52:52Z</time></trkpt>
<trkpt lat="50.187775" lon="5.408906"><ele>375.0</ele><time>2025-05-25T04:52:56Z</time></trkpt>
<trkpt lat="50.187883" lon="5.409037"><ele>374.82</ele><time>2025-05-25T04:53:00Z</time></trkpt>
<trkpt lat="50.187995" lon="5.409206"><ele>375.14</ele><time>2025-05-25T04:53:04Z</time></trkpt>
<trkpt lat="50.188096" lon="5.409429"><ele>375.81</ele><time>2025-05-25T04:53:08Z</time></trkpt>
<trkpt lat="50.188196" lon="5.409746"><ele>375.41</ele><time>2025-05-25T04:53:12Z</time></trkpt>
<trkpt lat="50.188319" lon="5.410042"><ele>373.89</ele><time>2025-05-25T04:53:16Z</time></trkpt>
<trkpt lat="50.188654" lon="5.41069"><ele>372.67</ele><time>2025-05-25T04:53:20Z</time></trkpt>
<trkpt lat="50.190057" lon="5.413165"><ele>363.33</ele><time>2025-05-25T04:53:24Z</time></trkpt>
<trkpt lat="50.190147" lon="5.413358"><ele>363.44</ele><time>2025-05-25T04:53:28Z</time></trkpt>
<trkpt lat="50.190339" lon="5.413914"><ele>361.28</ele><time>2025-05-25T04:53:32Z</time></trkpt>
<trkpt lat="50.190431" lon="5.414071"><ele>361.15</ele><time>2025-05-25T04:53:36Z</time></trkpt>
<trkpt lat="50.190804" lon="5.414546"><ele>360.66</ele><time>2025-05-25T04:53:40Z</time></trkpt>
<trkpt lat="50.191614" lon="5.415382"><ele>354.92</ele><time>2025-05-25T04:53:44Z</time></trkpt>
<trkpt lat="50.193981" lon="5.417918"><ele>342.99</ele><time>2025-05-25T04:53:48Z</time></trkpt>
<trkpt lat="50.195174" lon="5.419245"><ele>340.36</ele><time>2025-05-25T04:53:52Z</time></trkpt>
<trkpt lat="50.198906" lon="5.423459"><ele>319.94</ele><time>2025-05-25T04:53:56Z</time></trkpt>
<trkpt lat="50.200001" lon="5.424725"><ele>314.98</ele><time>2025-05-25T04:54:00Z</time></trkpt>
<trkpt lat="50.200247" lon="5.425084"><ele>311.65</ele><time>2025-05-25T04:54:04Z</time></trkpt>
<trkpt lat="50.200341" lon="5.425173"><ele>310.07</ele><time>2025-05-25T04:54:08Z</time></trkpt>
<trkpt lat="50.200472" lon="5.425197"><ele>308.49</ele><time>2025-05-25T04:54:12Z</time></trkpt>
<trkpt lat="50.20092" lon="5.425114"><ele>305.37</ele><time>2025-05-25T04:54:16Z</time></trkpt>
<trkpt lat="50.201064" lon="5.425125"><ele>303.98</ele><time>2025-05-25T04:54:20Z</time></trkpt>
<trkpt lat="50.201311" lon="5.42524"><ele>301.7</ele><time>2025-05-25T04:54:24Z</time></trkpt>
<trkpt lat="50.200827" lon="5.429098"><ele>309.75</ele><time>2025-05-25T04:54:27Z</time></trkpt>
<trkpt lat="50.200723" lon="5.42952"><ele>312.0</ele><time>2025-05-25T04:54:30Z</time></trkpt>
<trkpt lat="50.19923" lon="5.433944"><ele>315.54</ele><time>2025-05-25T04:54:34Z</time></trkpt>
<trkpt lat="50.19908" lon="5.434301"><ele>315.67</ele><time>2025-05-25T04:54:37Z</time></trkpt>
<trkpt lat="50.198938" lon="5.434588"><ele>315.82</ele><time>2025-05-25T04:54:40Z</time></trkpt>
<trkpt lat="50.19875" lon="5.434893"><ele>315.39</ele><time>2025-05-25T04:54:43Z</time></trkpt>
<trkpt lat="50.197838" lon="5.43611"><ele>317.0</ele><time>2025-05-25T04:54:47Z</time></trkpt>
<trkpt lat="50.197656" lon="5.436409"><ele>316.49</ele><time>2025-05-25T04:54:50Z</time></trkpt>
<trkpt lat="50.19743" lon="5.437026"><ele>314.92</ele><time>2025-05-25T04:54:53Z</time></trkpt>
<trkpt lat="50.196361" lon="5.442769"><ele>320.17</ele><time>2025-05-25T04:54:56Z</time></trkpt>
<trkpt lat="50.196244" lon="5.443244"><ele>322.24</ele><time>2025-05-25T04:55:00Z</time></trkpt>
<trkpt lat="50.196085" lon="5.443711"><ele>324.13</ele><time>2025-05-25T04:55:03Z</time></trkpt>
<trkpt lat="50.192692" lon="5.451013"><ele>340.25</ele><time>2025-05-25T04:55:06Z</time></trkpt>
<trkpt lat="50.190983" lon="5.454865"><ele>342.49</ele><time>2025-05-25T04:55:09Z</time></trkpt>
<trkpt lat="50.190829" lon="5.455257"><ele>344.11</ele><time>2025-05-25T04:55:13Z</time></trkpt>
<trkpt lat="50.190698" lon="5.455688"><ele>348.66</ele><time>2025-05-25T04:55:16Z</time></trkpt>
<trkpt lat="50.190636" lon="5.456009"><ele>350.89</ele><time>2025-05-25T04:55:19Z</time></trkpt>
<trkpt lat="50.190348" lon="5.458912"><ele>358.33</ele><time>2025-05-25T04:55:23Z</time></trkpt>
<trkpt lat="50.190291" lon="5.459306"><ele>355.42</ele><time>2025-05-25T04:55:26Z</time></trkpt>
<trkpt lat="50.189872" lon="5.461039"><ele>361.19</ele><time>2025-05-25T04:55:29Z</time></trkpt>
<trkpt lat="50.189677" lon="5.461823"><ele>357.73</ele><time>2025-05-25T04:55:32Z</time></trkpt>
<trkpt lat="50.189588" lon="5.462255"><ele>354.39</ele><time>2025-05-25T04:55:36Z</time></trkpt>
<trkpt lat="50.189462" lon="5.463169"><ele>352.08</ele><time>2025-05-25T04:55:39Z</time></trkpt>
<trkpt lat="50.189353" lon="5.463778"><ele>351.19</ele><time>2025-05-25T04:55:42Z</time></trkpt>
<trkpt lat="50.189306" lon="5.464253"><ele>352.96</ele><time>2025-05-25T04:55:45Z</time></trkpt>
<trkpt lat="50.189321" lon="5.464542"><ele>354.83</ele><time>2025-05-25T04:55:49Z</time></trkpt>
<trkpt lat="50.18936" lon="5.464887"><ele>358.17</ele><time>2025-05-25T04:55:52Z</time></trkpt>
<trkpt lat="50.1897" lon="5.467208"><ele>354.13</ele><time>2025-05-25T04:55:55Z</time></trkpt>
<trkpt lat="50.189718" lon="5.467513"><ele>354.03</ele><time>2025-05-25T04:55:58Z</time></trkpt>
<trkpt lat="50.189717" lon="5.467804"><ele>354.06</ele><time>2025-05-25T04:56:02Z</time></trkpt>
<trkpt lat="50.189691" lon="5.468186"><ele>354.76</ele><time>2025-05-25T04:56:05Z</time></trkpt>
<trkpt lat="50.189602" lon="5.468653"><ele>355.89</ele><time>2025-05-25T04:56:08Z</time></trkpt>
<trkpt lat="50.188813" lon="5.471761"><ele>356.45</ele><time>2025-05-25T04:56:11Z</time></trkpt>
<trkpt lat="50.188763" lon="5.471956"><ele>356.14</ele><time>2025-05-25T04:56:15Z</time></trkpt>
<trkpt lat="50.188594" lon="5.472926"><ele>360.04</ele><time>2025-05-25T04:56:18Z</time></trkpt>
<trkpt lat="50.188469" lon="5.474656"><ele>365.88</ele><time>2025-05-25T04:56:21Z</time></trkpt>
<trkpt lat="50.188356" lon="5.475927"><ele>369.64</ele><time>2025-05-25T04:56:24Z</time></trkpt>
<trkpt lat="50.187418" lon="5.481522"><ele>389.0</ele><time>2025-05-25T04:56:28Z</time></trkpt>
<trkpt lat="50.187404" lon="5.481679"><ele>388.97</ele><time>2025-05-25T04:56:31Z</time></trkpt>
<trkpt lat="50.187388" lon="5.481861"><ele>388.58</ele><time>2025-05-25T04:56:34Z</time></trkpt>
<trkpt lat="50.187401" lon="5.482167"><ele>387.04</ele><time>2025-05-25T04:56:37Z</time></trkpt>
<trkpt lat="50.187893" lon="5.484663"><ele>381.16</ele><time>2025-05-25T04:56:41Z</time></trkpt>
<trkpt lat="50.187938" lon="5.485633"><ele>381.82</ele><time>2025-05-25T04:56:44Z</time></trkpt>
<trkpt lat="50.187871" lon="5.48604"><ele>379.51</ele><time>2025-05-25T04:56:47Z</time></trkpt>
<trkpt lat="50.187654" lon="5.486721"><ele>373.84</ele><time>2025-05-25T04:56:50Z</time></trkpt>
<trkpt lat="50.187602" lon="5.486972"><ele>372.26</ele><time>2025-05-25T04:56:54Z</time></trkpt>
<trkpt lat="50.187672" lon="5.4874"><ele>367.9</ele><time>2025-05-25T04:56:57Z</time></trkpt>
<trkpt lat="50.188282" lon="5.48947"><ele>358.3</ele><time>2025-05-25T04:57:00Z</time></trkpt>
<trkpt lat="50.188582" lon="5.490682"><ele>351.42</ele><time>2025-05-25T04:57:03Z</time></trkpt>
<trkpt lat="50.18882" lon="5.491319"><ele>346.43</ele><time>2025-05-25T04:57:07Z</time></trkpt>
<trkpt lat="50.189015" lon="5.491946"><ele>342.64</ele><time>2025-05-25T04:57:10Z</time></trkpt>
<trkpt lat="50.189361" lon="5.493334"><ele>337.2</ele><time>2025-05-25T04:57:13Z</time></trkpt>
<trkpt lat="50.189679" lon="5.494515"><ele>334.85</ele><time>2025-05-25T04:57:16Z</time></trkpt>
<trkpt lat="50.189708" lon="5.494802"><ele>334.66</ele><time>2025-05-25T04:57:20Z</time></trkpt>
<trkpt lat="50.1897" lon="5.495165"><ele>333.87</ele><time>2025-05-25T04:57:23Z</time></trkpt>
<trkpt lat="50.189622" lon="5.495518"><ele>332.41</ele><time>2025-05-25T04:57:26Z</time></trkpt>
<trkpt lat="50.189353" lon="5.496199"><ele>328.46</ele><time>2025-05-25T04:57:29Z</time></trkpt>
<trkpt lat="50.189259" lon="5.497118"><ele>326.71</ele><time>2025-05-25T04:57:33Z</time></trkpt>
<trkpt lat="50.189192" lon="5.497431"><ele>325.24</ele><time>2025-05-25T04:57:36Z</time></trkpt>
<trkpt lat="50.188938" lon="5.498334"><ele>317.0</ele><time>2025-05-25T04:57:39Z</time></trkpt>
<trkpt lat="50.18886" lon="5.498742"><ele>315.21</ele><time>2025-05-25T04:57:43Z</time></trkpt>
<trkpt lat="50.188752" lon="5.500601"><ele>309.78</ele><time>2025-05-25T04:57:46Z</time></trkpt>
<trkpt lat="50.188693" lon="5.501184"><ele>303.1</ele><time>2025-05-25T04:57:49Z</time></trkpt>
<trkpt lat="50.188585" lon="5.501541"><ele>299.54</ele><time>2025-05-25T04:57:52Z</time></trkpt>
<trkpt lat="50.188488" lon="5.5017"><ele>297.68</ele><time>2025-05-25T04:57:56Z</time></trkpt>
<trkpt lat="50.188403" lon="5.501752"><ele>297.49</ele><time>2025-05-25T04:57:59Z</time></trkpt>
<trkpt lat="50.188295" lon="5.501773"><ele>297.14</ele><time>2025-05-25T04:58:02Z</time></trkpt>
<trkpt lat="50.18812" lon="5.501608"><ele>297.99</ele><time>2025-05-25T04:58:05Z</time></trkpt>
<trkpt lat="50.187328" lon="5.500637"><ele>299.48</ele><time>2025-05-25T04:58:09Z</time></trkpt>
<trkpt lat="50.187123" lon="5.500547"><ele>300.18</ele><time>2025-05-25T04:58:12Z</time></trkpt>
<trkpt lat="50.186996" lon="5.500643"><ele>299.26</ele><time>2025-05-25T04:58:15Z</time></trkpt>
<trkpt lat="50.186929" lon="5.500755"><ele>298.68</ele><time>2025-05-25T04:58:18Z</time></trkpt>
<trkpt lat="50.186944" lon="5.501044"><ele>295.74</ele><time>2025-05-25T04:58:22Z</time></trkpt>
<trkpt lat="50.187328" lon="5.501678"><ele>286.99</ele><time>2025-05-25T04:58:25Z</time></trkpt>
<trkpt lat="50.187622" lon="5.502366"><ele>281.23</ele><time>2025-05-25T04:58:28Z</time></trkpt>
<trkpt lat="50.187776" lon="5.503099"><ele>274.89</ele><time>2025-05-25T04:58:31Z</time></trkpt>
<trkpt lat="50.187826" lon="5.50427"><ele>273.2</ele><time>2025-05-25T04:58:35Z</time></trkpt>
<trkpt lat="50.187828" lon="5.506812"><ele>266.34</ele><time>2025-05-25T04:58:38Z</time></trkpt>
<trkpt lat="50.187957" lon="5.50911"><ele>258.94</ele><time>2025-05-25T04:58:41Z</time></trkpt>
<trkpt lat="50.187927" lon="5.509572"><ele>259.93</ele><time>2025-05-25T04:58:44Z</time></trkpt>
<trkpt lat="50.187864" lon="5.509933"><ele>261.14</ele><time>2025-05-25T04:58:48Z</time></trkpt>
<trkpt lat="50.187832" lon="5.510056"><ele>261.61</ele><time>2025-05-25T04:58:51Z</time></trkpt>
<trkpt lat="50.187635" lon="5.510575"><ele>263.07</ele><time>2025-05-25T04:58:54Z</time></trkpt>
<trkpt lat="50.187564" lon="5.510888"><ele>263.97</ele><time>2025-05-25T04:58:57Z</time></trkpt>
<trkpt lat="50.187525" lon="5.511322"><ele>264.84</ele><time>2025-05-25T04:59:01Z</time></trkpt>
<trkpt lat="50.18746" lon="5.511769"><ele>265.21</ele><time>2025-05-25T04:59:04Z</time></trkpt>
<trkpt lat="50.187342" lon="5.512155"><ele>264.76</ele><time>2025-05-25T04:59:07Z</time></trkpt>
<trkpt lat="50.186941" lon="5.512844"><ele>264.03</ele><time>2025-05-25T04:59:10Z</time></trkpt>
<trkpt lat="50.186066" lon="5.513615"><ele>264.79</ele><time>2025-05-25T04:59:14Z</time></trkpt>
<trkpt lat="50.185913" lon="5.513779"><ele>261.6</ele><time>2025-05-25T04:59:17Z</time></trkpt>
<trkpt lat="50.185728" lon="5.514051"><ele>258.37</ele><time>2025-05-25T04:59:20Z</time></trkpt>
<trkpt lat="50.185643" lon="5.51426"><ele>256.45</ele><time>2025-05-25T04:59:23Z</time></trkpt>
<trkpt lat="50.185209" lon="5.515633"><ele>244.26</ele><time>2025-05-25T04:59:27Z</time></trkpt>
<trkpt lat="50.185063" lon="5.51614"><ele>241.46</ele><time>2025-05-25T04:59:30Z</time></trkpt>
<trkpt lat="50.184992" lon="5.516567"><ele>240.41</ele><time>2025-05-25T04:59:33Z</time></trkpt>
<trkpt lat="50.184985" lon="5.516787"><ele>240.16</ele><time>2025-05-25T04:59:36Z</time></trkpt>
<trkpt lat="50.184999" lon="5.517067"><ele>240.46</ele><time>2025-05-25T04:59:40Z</time></trkpt>
<trkpt lat="50.185039" lon="5.517444"><ele>242.77</ele><time>2025-05-25T04:59:43Z</time></trkpt>
<trkpt lat="50.185134" lon="5.517797"><ele>242.98</ele><time>2025-05-25T04:59:46Z</time></trkpt>
<trkpt lat="50.185316" lon="5.518273"><ele>245.18</ele><time>2025-05-25T04:59:49Z</time></trkpt>
<trkpt lat="50.18554" lon="5.51873"><ele>247.05</ele><time>2025-05-25T04:59:53Z</time></trkpt>
<trkpt lat="50.185599" lon="5.518887"><ele>248.04</ele><time>2025-05-25T04:59:56Z</time></trkpt>
<trkpt lat="50.185704" lon="5.519329"><ele>247.8</ele><time>2025-05-25T04:59:59Z</time></trkpt>
<trkpt lat="50.185725" lon="5.519543"><ele>248.61</ele><time>2025-05-25T05:00:03Z</time></trkpt>
<trkpt lat="50.185735" lon="5.519908"><ele>249.2</ele><time>2025-05-25T05:00:06Z</time></trkpt>
<trkpt lat="50.185727" lon="5.520084"><ele>248.93</ele><time>2025-05-25T05:00:09Z</time></trkpt>
<trkpt lat="50.185347" lon="5.521867"><ele>245.24</ele><time>2025-05-25T05:00:12Z</time></trkpt>
<trkpt lat="50.185197" lon="5.522712"><ele>245.6</ele><time>2025-05-25T05:00:16Z</time></trkpt>
<trkpt lat="50.185111" lon="5.523334"><ele>250.61</ele><time>2025-05-25T05:00:19Z</time></trkpt>
<trkpt lat="50.185105" lon="5.523639"><ele>248.55</ele><time>2025-05-25T05:00:22Z</time></trkpt>
<trkpt lat="50.185229" lon="5.524766"><ele>236.15</ele><time>2025-05-25T05:00:25Z</time></trkpt>
<trkpt lat="50.185393" lon="5.525998"><ele>228.73</ele><time>2025-05-25T05:00:29Z</time></trkpt>
<trkpt lat="50.18552" lon="5.526728"><ele>228.23</ele><time>2025-05-25T05:00:32Z</time></trkpt>
<trkpt lat="50.185657" lon="5.527328"><ele>236.58</ele><time>2025-05-25T05:00:35Z</time></trkpt>
<trkpt lat="50.185732" lon="5.527555"><ele>237.39</ele><time>2025-05-25T05:00:38Z</time></trkpt>
<trkpt lat="50.185952" lon="5.528034"><ele>235.51</ele><time>2025-05-25T05:00:42Z</time></trkpt>
<trkpt lat="50.186232" lon="5.528644"><ele>233.64</ele><time>2025-05-25T05:00:45Z</time></trkpt>
<trkpt lat="50.186419" lon="5.529154"><ele>229.46</ele><time>2025-05-25T05:00:48Z</time></trkpt>
<trkpt lat="50.186553" lon="5.529607"><ele>227.99</ele><time>2025-05-25T05:00:51Z</time></trkpt>
<trkpt lat="50.186952" lon="5.531115"><ele>219.09</ele><time>2025-05-25T05:00:55Z</time></trkpt>
<trkpt lat="50.187041" lon="5.5314"><ele>219.65</ele><time>2025-05-25T05:00:58Z</time></trkpt>
<trkpt lat="50.187148" lon="5.53166"><ele>218.78</ele><time>2025-05-25T05:01:01Z</time></trkpt>
<trkpt lat="50.187695" lon="5.53267"><ele>221.04</ele><time>2025-05-25T05:01:04Z</time></trkpt>
<trkpt lat="50.187807" lon="5.532974"><ele>221.04</ele><time>2025-05-25T05:01:08Z</time></trkpt>
<trkpt lat="50.187907" lon="5.533438"><ele>221.73</ele><time>2025-05-25T05:01:11Z</time></trkpt>
<trkpt lat="50.188062" lon="5.534525"><ele>219.88</ele><time>2025-05-25T05:01:14Z</time></trkpt>
<trkpt lat="50.188127" lon="5.534791"><ele>219.92</ele><time>2025-05-25T05:01:17Z</time></trkpt>
<trkpt lat="50.188218" lon="5.535036"><ele>219.27</ele><time>2025-05-25T05:01:21Z</time></trkpt>
<trkpt lat="50.188499" lon="5.535563"><ele>220.36</ele><time>2025-05-25T05:01:24Z</time></trkpt>
<trkpt lat="50.189595" lon="5.537509"><ele>218.59</ele><time>2025-05-25T05:01:27Z</time></trkpt>
<trkpt lat="50.189739" lon="5.53786"><ele>216.76</ele><time>2025-05-25T05:01:30Z</time></trkpt>
<trkpt lat="50.18978" lon="5.538032"><ele>216.23</ele><time>2025-05-25T05:01:34Z</time></trkpt>
<trkpt lat="50.189819" lon="5.538412"><ele>213.67</ele><time>2025-05-25T05:01:37Z</time></trkpt>
<trkpt lat="50.189892" lon="5.539883"><ele>209.59</ele><time>2025-05-25T05:01:40Z</time></trkpt>
<trkpt lat="50.18971" lon="5.539984"><ele>211.38</ele><time>2025-05-25T05:01:44Z</time></trkpt>
<trkpt lat="50.189591" lon="5.540082"><ele>213.31</ele><time>2025-05-25T05:01:47Z</time></trkpt>
<trkpt lat="50.18724" lon="5.542703"><ele>220.05</ele><time>2025-05-25T05:01:51Z</time></trkpt>
<trkpt lat="50.187022" lon="5.542995"><ele>220.22</ele><time>2025-05-25T05:01:54Z</time></trkpt>
<trkpt lat="50.186647" lon="5.543577"><ele>223.63</ele><time>2025-05-25T05:01:57Z</time></trkpt>
<trkpt lat="50.186284" lon="5.54422"><ele>225.9</ele><time>2025-05-25T05:02:01Z</time></trkpt>
<trkpt lat="50.18609" lon="5.544624"><ele>224.87</ele><time>2025-05-25T05:02:04Z</time></trkpt>
<trkpt lat="50.185954" lon="5.544985"><ele>224.73</ele><time>2025-05-25T05:02:08Z</time></trkpt>
<trkpt lat="50.185074" lon="5.547799"><ele>222.16</ele><time>2025-05-25T05:02:11Z</time></trkpt>
<trkpt lat="50.184845" lon="5.548826"><ele>216.96</ele><time>2025-05-25T05:02:15Z</time></trkpt>
<trkpt lat="50.183982" lon="5.553175"><ele>222.65</ele><time>2025-05-25T05:02:18Z</time></trkpt>
<trkpt lat="50.183809" lon="5.553824"><ele>221.29</ele><time>2025-05-25T05:02:21Z</time></trkpt>
<trkpt lat="50.183239" lon="5.555809"><ele>222.49</ele><time>2025-05-25T05:02:25Z</time></trkpt>
<trkpt lat="50.182957" lon="5.556678"><ele>223.34</ele><time>2025-05-25T05:02:28Z</time></trkpt>
<trkpt lat="50.182524" lon="5.557804"><ele>220.84</ele><time>2025-05-25T05:02:32Z</time></trkpt>
<trkpt lat="50.182185" lon="5.558884"><ele>229.3</ele><time>2025-05-25T05:02:35Z</time></trkpt>
<trkpt lat="50.18173" lon="5.560532"><ele>233.75</ele><time>2025-05-25T05:02:39Z</time></trkpt>
<trkpt lat="50.181405" lon="5.561774"><ele>236.37</ele><time>2025-05-25T05:02:42Z</time></trkpt>
<trkpt lat="50.180718" lon="5.564113"><ele>241.62</ele><time>2025-05-25T05:02:45Z</time></trkpt>
<trkpt lat="50.180514" lon="5.564619"><ele>245.09</ele><time>2025-05-25T05:02:49Z</time></trkpt>
<trkpt lat="50.180388" lon="5.565156"><ele>247.94</ele><time>2025-05-25T05:02:52Z</time></trkpt>
<trkpt lat="50.180085" lon="5.566237"><ele>260.3</ele><time>2025-05-25T05:02:56Z</time></trkpt>
<trkpt lat="50.180044" lon="5.566613"><ele>267.41</ele><time>2025-05-25T05:02:59Z</time></trkpt>
<trkpt lat="50.18005" lon="5.567391"><ele>267.28</ele><time>2025-05-25T05:03:03Z</time></trkpt>
<trkpt lat="50.180382" lon="5.568758"><ele>252.73</ele><time>2025-05-25T05:03:06Z</time></trkpt>
<trkpt lat="50.180751" lon="5.569609"><ele>246.56</ele><time>2025-05-25T05:03:09Z</time></trkpt>
<trkpt lat="50.181226" lon="5.570435"><ele>247.26</ele><time>2025-05-25T05:03:13Z</time></trkpt>
<trkpt lat="50.181885" lon="5.571234"><ele>247.98</ele><time>2025-05-25T05:03:16Z</time></trkpt>
<trkpt lat="50.182151" lon="5.571532"><ele>248.1</ele><time>2025-05-25T05:03:20Z</time></trkpt>
<trkpt lat="50.182496" lon="5.57171"><ele>244.83</ele><time>2025-05-25T05:03:23Z</time></trkpt>
<trkpt lat="50.183017" lon="5.571836"><ele>238.33</ele><time>2025-05-25T05:03:27Z</time></trkpt>
<trkpt lat="50.183309" lon="5.571999"><ele>238.82</ele><time>2025-05-25T05:03:30Z</time></trkpt>
<trkpt lat="50.183388" lon="5.572068"><ele>241.44</ele><time>2025-05-25T05:03:33Z</time></trkpt>
<trkpt lat="50.183459" lon="5.572149"><ele>244.8</ele><time>2025-05-25T05:03:37Z</time></trkpt>
<trkpt lat="50.183541" lon="5.572316"><ele>248.84</ele><time>2025-05-25T05:03:40Z</time></trkpt>
<trkpt lat="50.183619" lon="5.572545"><ele>251.39</ele><time>2025-05-25T05:03:44Z</time></trkpt>
<trkpt lat="50.183689" lon="5.573141"><ele>250.64</ele><time>2025-05-25T05:03:47Z</time></trkpt>
<trkpt lat="50.183665" lon="5.573318"><ele>248.56</ele><time>2025-05-25T05:03:51Z</time></trkpt>
<trkpt lat="50.18363" lon="5.573453"><ele>244.72</ele><time>2025-05-25T05:03:54Z</time></trkpt>
<trkpt lat="50.1835" lon="5.573629"><ele>239.45</ele><time>2025-05-25T05:03:57Z</time></trkpt>
<trkpt lat="50.183369" lon="5.573754"><ele>235.45</ele><time>2025-05-25T05:04:01Z</time></trkpt>
<trkpt lat="50.183231" lon="5.573843"><ele>232.9</ele><time>2025-05-25T05:04:04Z</time></trkpt>
<trkpt lat="50.182911" lon="5.573899"><ele>233.32</ele><time>2025-05-25T05:04:08Z</time></trkpt>
<trkpt lat="50.182722" lon="5.57388"><ele>235.8</ele><time>2025-05-25T05:04:11Z</time></trkpt>
<trkpt lat="50.182522" lon="5.573822"><ele>240.63</ele><time>2025-05-25T05:04:15Z</time></trkpt>
<trkpt lat="50.181916" lon="5.573561"><ele>249.87</ele><time>2025-05-25T05:04:18Z</time></trkpt>
<trkpt lat="50.181717" lon="5.573508"><ele>250.73</ele><time>2025-05-25T05:04:22Z</time></trkpt>
<trkpt lat="50.180938" lon="5.57357"><ele>246.25</ele><time>2025-05-25T05:04:25Z</time></trkpt>
<trkpt lat="50.180794" lon="5.573621"><ele>243.53</ele><time>2025-05-25T05:04:28Z</time></trkpt>
<trkpt lat="50.180621" lon="5.57373"><ele>237.74</ele><time>2025-05-25T05:04:32Z</time></trkpt>
<trkpt lat="50.180488" lon="5.573877"><ele>230.93</ele><time>2025-05-25T05:04:35Z</time></trkpt>
<trkpt lat="50.180382" lon="5.57405"><ele>230.16</ele><time>2025-05-25T05:04:39Z</time></trkpt>
<trkpt lat="50.180286" lon="5.574272"><ele>229.29</ele><time>2025-05-25T05:04:42Z</time></trkpt>
<trkpt lat="50.180228" lon="5.574481"><ele>228.27</ele><time>2025-05-25T05:04:46Z</time></trkpt>
<trkpt lat="50.179955" lon="5.576017"><ele>220.82</ele><time>2025-05-25T05:04:49Z</time></trkpt>
<trkpt lat="50.180085" lon="5.576073"><ele>220.45</ele><time>2025-05-25T05:04:52Z</time></trkpt>
<trkpt lat="50.180401" lon="5.576062"><ele>221.62</ele><time>2025-05-25T05:04:54Z</time></trkpt>
<trkpt lat="50.180722" lon="5.575909"><ele>221.09</ele><time>2025-05-25T05:04:57Z</time></trkpt>
<trkpt lat="50.18107" lon="5.575682"><ele>220.0</ele><time>2025-05-25T05:05:00Z</time></trkpt>
<trkpt lat="50.181148" lon="5.575683"><ele>220.4</ele><time>2025-05-25T05:05:02Z</time></trkpt>
<trkpt lat="50.181197" lon="5.57581"><ele>220.93</ele><time>2025-05-25T05:05:05Z</time></trkpt>
<trkpt lat="50.181288" lon="5.576226"><ele>221.28</ele><time>2025-05-25T05:05:08Z</time></trkpt>
<trkpt lat="50.18141" lon="5.576624"><ele>221.31</ele><time>2025-05-25T05:05:10Z</time></trkpt>
<trkpt lat="50.181716" lon="5.577275"><ele>222.88</ele><time>2025-05-25T05:05:13Z</time></trkpt>
<trkpt lat="50.18181" lon="5.577506"><ele>224.58</ele><time>2025-05-25T05:05:16Z</time></trkpt>
<trkpt lat="50.181892" lon="5.577757"><ele>225.3</ele><time>2025-05-25T05:05:19Z</time></trkpt>
<trkpt lat="50.182182" lon="5.578841"><ele>231.1</ele><time>2025-05-25T05:05:21Z</time></trkpt>
<trkpt lat="50.182239" lon="5.579131"><ele>230.76</ele><time>2025-05-25T05:05:24Z</time></trkpt>
<trkpt lat="50.1823" lon="5.579656"><ele>228.68</ele><time>2025-05-25T05:05:27Z</time></trkpt>
<trkpt lat="50.182322" lon="5.580261"><ele>228.23</ele><time>2025-05-25T05:05:29Z</time></trkpt>
<trkpt lat="50.182322" lon="5.580883"><ele>228.64</ele><time>2025-05-25T05:05:32Z</time></trkpt>
<trkpt lat="50.182235" lon="5.582082"><ele>228.48</ele><time>2025-05-25T05:05:35Z</time></trkpt>
<trkpt lat="50.182184" lon="5.582389"><ele>229.88</ele><time>2025-05-25T05:05:37Z</time></trkpt>
<trkpt lat="50.1821" lon="5.582696"><ele>229.97</ele><time>2025-05-25T05:05:40Z</time></trkpt>
<trkpt lat="50.182" lon="5.582943"><ele>228.9</ele><time>2025-05-25T05:05:43Z</time></trkpt>
<trkpt lat="50.181782" lon="5.583268"><ele>229.57</ele><time>2025-05-25T05:05:45Z</time></trkpt>
<trkpt lat="50.181649" lon="5.58341"><ele>231.72</ele><time>2025-05-25T05:05:48Z</time></trkpt>
<trkpt lat="50.181063" lon="5.583721"><ele>228.6</ele><time>2025-05-25T05:05:51Z</time></trkpt>
<trkpt lat="50.180645" lon="5.583846"><ele>226.33</ele><time>2025-05-25T05:05:54Z</time></trkpt>
<trkpt lat="50.180224" lon="5.583912"><ele>226.33</ele><time>2025-05-25T05:05:56Z</time></trkpt>
<trkpt lat="50.178507" lon="5.58373"><ele>230.81</ele><time>2025-05-25T05:05:59Z</time></trkpt>
<trkpt lat="50.178228" lon="5.583755"><ele>228.6</ele><time>2025-05-25T05:06:02Z</time></trkpt>
<trkpt lat="50.178033" lon="5.583809"><ele>227.18</ele><time>2025-05-25T05:06:04Z</time></trkpt>
<trkpt lat="50.177783" lon="5.58392"><ele>225.51</ele><time>2025-05-25T05:06:07Z</time></trkpt>
<trkpt lat="50.177463" lon="5.584179"><ele>224.72</ele><time>2025-05-25T05:06:10Z</time></trkpt>
<trkpt lat="50.17729" lon="5.584384"><ele>223.9</ele><time>2025-05-25T05:06:12Z</time></trkpt>
<trkpt lat="50.177137" lon="5.58465"><ele>224.99</ele><time>2025-05-25T05:06:15Z</time></trkpt>
<trkpt lat="50.176995" lon="5.585008"><ele>227.54</ele><time>2025-05-25T05:06:18Z</time></trkpt>
<trkpt lat="50.176925" lon="5.585241"><ele>226.92</ele><time>2025-05-25T05:06:20Z</time></trkpt>
<trkpt lat="50.176802" lon="5.585925"><ele>227.16</ele><time>2025-05-25T05:06:23Z</time></trkpt>
<trkpt lat="50.176719" lon="5.587549"><ele>231.54</ele><time>2025-05-25T05:06:26Z</time></trkpt>
<trkpt lat="50.176652" lon="5.588263"><ele>232.38</ele><time>2025-05-25T05:06:29Z</time></trkpt>
<trkpt lat="50.17658" lon="5.588749"><ele>233.84</ele><time>2025-05-25T05:06:31Z</time></trkpt>
<trkpt lat="50.176382" lon="5.589666"><ele>237.8</ele><time>2025-05-25T05:06:34Z</time></trkpt>
<trkpt lat="50.17622" lon="5.590123"><ele>240.68</ele><time>2025-05-25T05:06:37Z</time></trkpt>
<trkpt lat="50.17609" lon="5.59037"><ele>239.8</ele><time>2025-05-25T05:06:39Z</time></trkpt>
<trkpt lat="50.17574" lon="5.590913"><ele>237.51</ele><time>2025-05-25T05:06:42Z</time></trkpt>
<trkpt lat="50.175576" lon="5.59126"><ele>237.15</ele><time>2025-05-25T05:06:45Z</time></trkpt>
<trkpt lat="50.175412" lon="5.591879"><ele>239.54</ele><time>2025-05-25T05:06:47Z</time></trkpt>
<trkpt lat="50.175309" lon="5.592389"><ele>242.99</ele><time>2025-05-25T05:06:50Z</time></trkpt>
<trkpt lat="50.175254" lon="5.59288"><ele>245.4</ele><time>2025-05-25T05:06:53Z</time></trkpt>
<trkpt lat="50.175216" lon="5.594258"><ele>245.31</ele><time>2025-05-25T05:06:55Z</time></trkpt>
<trkpt lat="50.175246" lon="5.59531"><ele>248.13</ele><time>2025-05-25T05:06:58Z</time></trkpt>
<trkpt lat="50.175294" lon="5.595681"><ele>247.91</ele><time>2025-05-25T05:07:01Z</time></trkpt>
<trkpt lat="50.175386" lon="5.595953"><ele>248.19</ele><time>2025-05-25T05:07:03Z</time></trkpt>
<trkpt lat="50.175473" lon="5.596096"><ele>248.24</ele><time>2025-05-25T05:07:06Z</time></trkpt>
<trkpt lat="50.175829" lon="5.596536"><ele>248.8</ele><time>2025-05-25T05:07:09Z</time></trkpt>
<trkpt lat="50.176393" lon="5.597069"><ele>243.65</ele><time>2025-05-25T05:07:12Z</time></trkpt>
<trkpt lat="50.176629" lon="5.597384"><ele>242.24</ele><time>2025-05-25T05:07:14Z</time></trkpt>
<trkpt lat="50.176805" lon="5.597674"><ele>239.48</ele><time>2025-05-25T05:07:17Z</time></trkpt>
<trkpt lat="50.177397" lon="5.598827"><ele>239.9</ele><time>2025-05-25T05:07:20Z</time></trkpt>
<trkpt lat="50.177525" lon="5.599041"><ele>240.4</ele><time>2025-05-25T05:07:22Z</time></trkpt>
<trkpt lat="50.177778" lon="5.599361"><ele>243.42</ele><time>2025-05-25T05:07:25Z</time></trkpt>
<trkpt lat="50.17805" lon="5.599596"><ele>247.84</ele><time>2025-05-25T05:07:28Z</time></trkpt>
<trkpt lat="50.178353" lon="5.599759"><ele>253.74</ele><time>2025-05-25T05:07:30Z</time></trkpt>
<trkpt lat="50.178613" lon="5.599809"><ele>254.25</ele><time>2025-05-25T05:07:33Z</time></trkpt>
<trkpt lat="50.179188" lon="5.599832"><ele>256.08</ele><time>2025-05-25T05:07:36Z</time></trkpt>
<trkpt lat="50.180077" lon="5.599669"><ele>255.24</ele><time>2025-05-25T05:07:38Z</time></trkpt>
<trkpt lat="50.180791" lon="5.599666"><ele>258.8</ele><time>2025-05-25T05:07:41Z</time></trkpt>
<trkpt lat="50.181209" lon="5.599729"><ele>262.97</ele><time>2025-05-25T05:07:44Z</time></trkpt>
<trkpt lat="50.181418" lon="5.599814"><ele>261.17</ele><time>2025-05-25T05:07:47Z</time></trkpt>
<trkpt lat="50.181654" lon="5.599969"><ele>256.45</ele><time>2025-05-25T05:07:49Z</time></trkpt>
<trkpt lat="50.18219" lon="5.60052"><ele>249.93</ele><time>2025-05-25T05:07:52Z</time></trkpt>
<trkpt lat="50.18227" lon="5.60064"><ele>249.19</ele><time>2025-05-25T05:07:55Z</time></trkpt>
<trkpt lat="50.182468" lon="5.601022"><ele>247.4</ele><time>2025-05-25T05:07:57Z</time></trkpt>
<trkpt lat="50.182781" lon="5.601722"><ele>244.34</ele><time>2025-05-25T05:08:00Z</time></trkpt>
<trkpt lat="50.183011" lon="5.602306"><ele>243.25</ele><time>2025-05-25T05:08:03Z</time></trkpt>
<trkpt lat="50.183093" lon="5.602647"><ele>241.92</ele><time>2025-05-25T05:08:05Z</time></trkpt>
<trkpt lat="50.183128" lon="5.602924"><ele>241.26</ele><time>2025-05-25T05:08:08Z</time></trkpt>
<trkpt lat="50.183141" lon="5.603218"><ele>240.36</ele><time>2025-05-25T05:08:11Z</time></trkpt>
<trkpt lat="50.183079" lon="5.604249"><ele>239.61</ele><time>2025-05-25T05:08:13Z</time></trkpt>
<trkpt lat="50.182972" lon="5.604905"><ele>241.58</ele><time>2025-05-25T05:08:16Z</time></trkpt>
<trkpt lat="50.182862" lon="5.605339"><ele>243.89</ele><time>2025-05-25T05:08:19Z</time></trkpt>
<trkpt lat="50.182732" lon="5.605702"><ele>243.48</ele><time>2025-05-25T05:08:21Z</time></trkpt>
<trkpt lat="50.182549" lon="5.60607"><ele>239.34</ele><time>2025-05-25T05:08:24Z</time></trkpt>
<trkpt lat="50.182345" lon="5.606397"><ele>240.66</ele><time>2025-05-25T05:08:27Z</time></trkpt>
<trkpt lat="50.182109" lon="5.606697"><ele>241.94</ele><time>2025-05-25T05:08:30Z</time></trkpt>
<trkpt lat="50.181854" lon="5.606955"><ele>244.34</ele><time>2025-05-25T05:08:32Z</time></trkpt>
<trkpt lat="50.181666" lon="5.607115"><ele>244.29</ele><time>2025-05-25T05:08:35Z</time></trkpt>
<trkpt lat="50.180656" lon="5.607804"><ele>241.4</ele><time>2025-05-25T05:08:38Z</time></trkpt>
<trkpt lat="50.180306" lon="5.60815"><ele>241.39</ele><time>2025-05-25T05:08:40Z</time></trkpt>
<trkpt lat="50.179985" lon="5.608393"><ele>242.72</ele><time>2025-05-25T05:08:43Z</time></trkpt>
<trkpt lat="50.179642" lon="5.608553"><ele>247.2</ele><time>2025-05-25T05:08:46Z</time></trkpt>
<trkpt lat="50.179401" lon="5.60862"><ele>249.47</ele><time>2025-05-25T05:08:48Z</time></trkpt>
<trkpt lat="50.179118" lon="5.608631"><ele>250.52</ele><time>2025-05-25T05:08:51Z</time></trkpt>
<trkpt lat="50.17882" lon="5.608591"><ele>248.33</ele><time>2025-05-25T05:08:54Z</time></trkpt>
<trkpt lat="50.177493" lon="5.608231"><ele>244.12</ele><time>2025-05-25T05:08:56Z</time></trkpt>
<trkpt lat="50.176862" lon="5.608306"><ele>250.37</ele><time>2025-05-25T05:08:59Z</time></trkpt>
<trkpt lat="50.176695" lon="5.608282"><ele>251.95</ele><time>2025-05-25T05:09:02Z</time></trkpt>
<trkpt lat="50.176536" lon="5.608207"><ele>251.05</ele><time>2025-05-25T05:09:05Z</time></trkpt>
<trkpt lat="50.17635" lon="5.608063"><ele>248.35</ele><time>2025-05-25T05:09:07Z</time></trkpt>
<trkpt lat="50.176177" lon="5.607904"><ele>245.22</ele><time>2025-05-25T05:09:10Z</time></trkpt>
<trkpt lat="50.175975" lon="5.60762"><ele>241.55</ele><time>2025-05-25T05:09:13Z</time></trkpt>
<trkpt lat="50.175597" lon="5.607445"><ele>243.55</ele><time>2025-05-25T05:09:15Z</time></trkpt>
<trkpt lat="50.175291" lon="5.607248"><ele>244.13</ele><time>2025-05-25T05:09:18Z</time></trkpt>
<trkpt lat="50.175215" lon="5.60712"><ele>242.87</ele><time>2025-05-25T05:09:21Z</time></trkpt>
<trkpt lat="50.175031" lon="5.606918"><ele>243.23</ele><time>2025-05-25T05:09:23Z</time></trkpt>
<trkpt lat="50.174742" lon="5.60675"><ele>247.35</ele><time>2025-05-25T05:09:26Z</time></trkpt>
<trkpt lat="50.174648" lon="5.606749"><ele>247.97</ele><time>2025-05-25T05:09:29Z</time></trkpt>
<trkpt lat="50.174568" lon="5.606803"><ele>248.07</ele><time>2025-05-25T05:09:31Z</time></trkpt>
<trkpt lat="50.174535" lon="5.606909"><ele>247.8</ele><time>2025-05-25T05:09:34Z</time></trkpt>
<trkpt lat="50.174551" lon="5.607045"><ele>247.03</ele><time>2025-05-25T05:09:37Z</time></trkpt>
<trkpt lat="50.175498" lon="5.608507"><ele>245.29</ele><time>2025-05-25T05:09:39Z</time></trkpt>
<trkpt lat="50.175668" lon="5.608899"><ele>244.63</ele><time>2025-05-25T05:09:42Z</time></trkpt>
<trkpt lat="50.175723" lon="5.609121"><ele>246.1</ele><time>2025-05-25T05:09:45Z</time></trkpt>
<trkpt lat="50.175775" lon="5.609567"><ele>247.68</ele><time>2025-05-25T05:09:48Z</time></trkpt>
<trkpt lat="50.175782" lon="5.610012"><ele>250.76</ele><time>2025-05-25T05:09:50Z</time></trkpt>
<trkpt lat="50.175771" lon="5.610594"><ele>248.54</ele><time>2025-05-25T05:09:53Z</time></trkpt>
<trkpt lat="50.17572" lon="5.611098"><ele>246.11</ele><time>2025-05-25T05:09:56Z</time></trkpt>
<trkpt lat="50.175519" lon="5.612166"><ele>246.07</ele><time>2025-05-25T05:09:58Z</time></trkpt>
<trkpt lat="50.175397" lon="5.61266"><ele>247.71</ele><time>2025-05-25T05:10:01Z</time></trkpt>
<trkpt lat="50.175303" lon="5.61296"><ele>247.1</ele><time>2025-05-25T05:10:04Z</time></trkpt>
<trkpt lat="50.174934" lon="5.613988"><ele>247.21</ele><time>2025-05-25T05:10:06Z</time></trkpt>
<trkpt lat="50.174701" lon="5.614469"><ele>245.69</ele><time>2025-05-25T05:10:09Z</time></trkpt>
<trkpt lat="50.174372" lon="5.615033"><ele>244.87</ele><time>2025-05-25T05:10:12Z</time></trkpt>
<trkpt lat="50.174154" lon="5.615349"><ele>246.73</ele><time>2025-05-25T05:10:14Z</time></trkpt>
<trkpt lat="50.17395" lon="5.615608"><ele>246.23</ele><time>2025-05-25T05:10:17Z</time></trkpt>
<trkpt lat="50.173445" lon="5.616158"><ele>248.82</ele><time>2025-05-25T05:10:20Z</time></trkpt>
<trkpt lat="50.172342" lon="5.617098"><ele>249.65</ele><time>2025-05-25T05:10:23Z</time></trkpt>
<trkpt lat="50.171959" lon="5.617279"><ele>245.79</ele><time>2025-05-25T05:10:25Z</time></trkpt>
<trkpt lat="50.171734" lon="5.617326"><ele>245.7</ele><time>2025-05-25T05:10:28Z</time></trkpt>
<trkpt lat="50.171355" lon="5.617353"><ele>243.18</ele><time>2025-05-25T05:10:31Z</time></trkpt>
<trkpt lat="50.17079" lon="5.617345"><ele>243.26</ele><time>2025-05-25T05:10:33Z</time></trkpt>
<trkpt lat="50.170224" lon="5.617258"><ele>239.45</ele><time>2025-05-25T05:10:36Z</time></trkpt>
<trkpt lat="50.167947" lon="5.616725"><ele>240.04</ele><time>2025-05-25T05:10:39Z</time></trkpt>
<trkpt lat="50.167682" lon="5.616702"><ele>240.8</ele><time>2025-05-25T05:10:41Z</time></trkpt>
<trkpt lat="50.167521" lon="5.616745"><ele>241.46</ele><time>2025-05-25T05:10:44Z</time></trkpt>
<trkpt lat="50.167356" lon="5.616858"><ele>239.47</ele><time>2025-05-25T05:10:47Z</time></trkpt>
<trkpt lat="50.167237" lon="5.617014"><ele>238.69</ele><time>2025-05-25T05:10:49Z</time></trkpt>
<trkpt lat="50.167147" lon="5.617235"><ele>240.23</ele><time>2025-05-25T05:10:52Z</time></trkpt>
<trkpt lat="50.167115" lon="5.617435"><ele>241.01</ele><time>2025-05-25T05:10:55Z</time></trkpt>
<trkpt lat="50.167114" lon="5.617671"><ele>242.85</ele><time>2025-05-25T05:10:58Z</time></trkpt>
<trkpt lat="50.167309" lon="5.619647"><ele>242.05</ele><time>2025-05-25T05:11:00Z</time></trkpt>
<trkpt lat="50.167332" lon="5.620031"><ele>244.46</ele><time>2025-05-25T05:11:03Z</time></trkpt>
<trkpt lat="50.1674" lon="5.622297"><ele>244.24</ele><time>2025-05-25T05:11:06Z</time></trkpt>
<trkpt lat="50.167657" lon="5.623752"><ele>239.96</ele><time>2025-05-25T05:11:08Z</time></trkpt>
<trkpt lat="50.167712" lon="5.624062"><ele>239.29</ele><time>2025-05-25T05:11:11Z</time></trkpt>
<trkpt lat="50.167875" lon="5.624999"><ele>245.44</ele><time>2025-05-25T05:11:14Z</time></trkpt>
<trkpt lat="50.167997" lon="5.625323"><ele>245.15</ele><time>2025-05-25T05:11:16Z</time></trkpt>
<trkpt lat="50.16892" lon="5.626893"><ele>247.44</ele><time>2025-05-25T05:11:19Z</time></trkpt>
<trkpt lat="50.168979" lon="5.627036"><ele>247.6</ele><time>2025-05-25T05:11:22Z</time></trkpt>
<trkpt lat="50.169053" lon="5.627287"><ele>247.13</ele><time>2025-05-25T05:11:24Z</time></trkpt>
<trkpt lat="50.16918" lon="5.627916"><ele>244.05</ele><time>2025-05-25T05:11:27Z</time></trkpt>
<trkpt lat="50.16923" lon="5.628068"><ele>245.15</ele><time>2025-05-25T05:11:30Z</time></trkpt>
<trkpt lat="50.169372" lon="5.628383"><ele>246.3</ele><time>2025-05-25T05:11:32Z</time></trkpt>
<trkpt lat="50.169555" lon="5.628714"><ele>246.43</ele><time>2025-05-25T05:11:35Z</time></trkpt>
<trkpt lat="50.17014" lon="5.629521"><ele>257.03</ele><time>2025-05-25T05:11:38Z</time></trkpt>
<trkpt lat="50.170516" lon="5.630001"><ele>258.42</ele><time>2025-05-25T05:11:41Z</time></trkpt>
<trkpt lat="50.170772" lon="5.630291"><ele>260.85</ele><time>2025-05-25T05:11:43Z</time></trkpt>
<trkpt lat="50.171076" lon="5.630558"><ele>266.03</ele><time>2025-05-25T05:11:46Z</time></trkpt>
<trkpt lat="50.17133" lon="5.630739"><ele>272.01</ele><time>2025-05-25T05:11:49Z</time></trkpt>
<trkpt lat="50.171524" lon="5.630839"><ele>274.16</ele><time>2025-05-25T05:11:51Z</time></trkpt>
<trkpt lat="50.172432" lon="5.631102"><ele>279.86</ele><time>2025-05-25T05:11:54Z</time></trkpt>
<trkpt lat="50.172914" lon="5.631308"><ele>281.04</ele><time>2025-05-25T05:11:57Z</time></trkpt>
<trkpt lat="50.173058" lon="5.631395"><ele>279.76</ele><time>2025-05-25T05:11:59Z</time></trkpt>
<trkpt lat="50.173264" lon="5.631591"><ele>275.48</ele><time>2025-05-25T05:12:02Z</time></trkpt>
<trkpt lat="50.173614" lon="5.631984"><ele>275.29</ele><time>2025-05-25T05:12:05Z</time></trkpt>
<trkpt lat="50.174643" lon="5.633417"><ele>284.45</ele><time>2025-05-25T05:12:07Z</time></trkpt>
<trkpt lat="50.174856" lon="5.633769"><ele>289.47</ele><time>2025-05-25T05:12:10Z</time></trkpt>
<trkpt lat="50.174942" lon="5.633951"><ele>291.9</ele><time>2025-05-25T05:12:13Z</time></trkpt>
<trkpt lat="50.175013" lon="5.634151"><ele>294.6</ele><time>2025-05-25T05:12:16Z</time></trkpt>
<trkpt lat="50.175288" lon="5.635233"><ele>303.22</ele><time>2025-05-25T05:12:18Z</time></trkpt>
<trkpt lat="50.17545" lon="5.63567"><ele>305.5</ele><time>2025-05-25T05:12:21Z</time></trkpt>
<trkpt lat="50.176034" lon="5.636831"><ele>314.43</ele><time>2025-05-25T05:12:24Z</time></trkpt>
<trkpt lat="50.176733" lon="5.638611"><ele>329.42</ele><time>2025-05-25T05:12:26Z</time></trkpt>
<trkpt lat="50.177257" lon="5.639539"><ele>329.61</ele><time>2025-05-25T05:12:29Z</time></trkpt>
<trkpt lat="50.177419" lon="5.639865"><ele>329.22</ele><time>2025-05-25T05:12:32Z</time></trkpt>
<trkpt lat="50.177465" lon="5.640006"><ele>329.71</ele><time>2025-05-25T05:12:34Z</time></trkpt>
<trkpt lat="50.177659" lon="5.641029"><ele>336.4</ele><time>2025-05-25T05:12:37Z</time></trkpt>
<trkpt lat="50.177841" lon="5.64173"><ele>340.56</ele><time>2025-05-25T05:12:40Z</time></trkpt>
<trkpt lat="50.178019" lon="5.642333"><ele>343.2</ele><time>2025-05-25T05:12:42Z</time></trkpt>
<trkpt lat="50.178244" lon="5.643004"><ele>347.9</ele><time>2025-05-25T05:12:45Z</time></trkpt>
<trkpt lat="50.17857" lon="5.643731"><ele>357.55</ele><time>2025-05-25T05:12:48Z</time></trkpt>
<trkpt lat="50.178838" lon="5.644176"><ele>359.85</ele><time>2025-05-25T05:12:50Z</time></trkpt>
<trkpt lat="50.179101" lon="5.644482"><ele>360.42</ele><time>2025-05-25T05:12:53Z</time></trkpt>
<trkpt lat="50.179732" lon="5.645093"><ele>366.19</ele><time>2025-05-25T05:12:56Z</time></trkpt>
<trkpt lat="50.180062" lon="5.64552"><ele>368.1</ele><time>2025-05-25T05:12:59Z</time></trkpt>
<trkpt lat="50.180223" lon="5.645765"><ele>372.21</ele><time>2025-05-25T05:13:01Z</time></trkpt>
<trkpt lat="50.180425" lon="5.64621"><ele>376.98</ele><time>2025-05-25T05:13:04Z</time></trkpt>
<trkpt lat="50.180554" lon="5.646638"><ele>377.75</ele><time>2025-05-25T05:13:07Z</time></trkpt>
<trkpt lat="50.180654" lon="5.647126"><ele>378.23</ele><time>2025-05-25T05:13:09Z</time></trkpt>
<trkpt lat="50.180649" lon="5.647449"><ele>382.3</ele><time>2025-05-25T05:13:12Z</time></trkpt>
<trkpt lat="50.180472" lon="5.649052"><ele>395.49</ele><time>2025-05-25T05:13:15Z</time></trkpt>
<trkpt lat="50.180465" lon="5.649629"><ele>396.66</ele><time>2025-05-25T05:13:17Z</time></trkpt>
<trkpt lat="50.18052" lon="5.649932"><ele>395.84</ele><time>2025-05-25T05:13:20Z</time></trkpt>
<trkpt lat="50.180671" lon="5.650391"><ele>395.72</ele><time>2025-05-25T05:13:23Z</time></trkpt>
<trkpt lat="50.181163" lon="5.651394"><ele>399.69</ele><time>2025-05-25T05:13:25Z</time></trkpt>
<trkpt lat="50.181493" lon="5.652232"><ele>401.65</ele><time>2025-05-25T05:13:28Z</time></trkpt>
<trkpt lat="50.181685" lon="5.652811"><ele>401.07</ele><time>2025-05-25T05:13:31Z</time></trkpt>
<trkpt lat="50.181755" lon="5.653236"><ele>401.11</ele><time>2025-05-25T05:13:34Z</time></trkpt>
<trkpt lat="50.181861" lon="5.655182"><ele>411.2</ele><time>2025-05-25T05:13:36Z</time></trkpt>
<trkpt lat="50.181861" lon="5.655985"><ele>415.15</ele><time>2025-05-25T05:13:39Z</time></trkpt>
<trkpt lat="50.181817" lon="5.65657"><ele>421.2</ele><time>2025-05-25T05:13:42Z</time></trkpt>
<trkpt lat="50.181766" lon="5.656919"><ele>422.58</ele><time>2025-05-25T05:13:44Z</time></trkpt>
<trkpt lat="50.181688" lon="5.657242"><ele>422.4</ele><time>2025-05-25T05:13:47Z</time></trkpt>
<trkpt lat="50.181565" lon="5.657504"><ele>421.68</ele><time>2025-05-25T05:13:50Z</time></trkpt>
<trkpt lat="50.180908" lon="5.658608"><ele>423.19</ele><time>2025-05-25T05:13:52Z</time></trkpt>
<trkpt lat="50.180708" lon="5.65908"><ele>423.74</ele><time>2025-05-25T05:13:55Z</time></trkpt>
<trkpt lat="50.180589" lon="5.659465"><ele>423.4</ele><time>2025-05-25T05:13:58Z</time></trkpt>
<trkpt lat="50.180374" lon="5.660688"><ele>431.93</ele><time>2025-05-25T05:14:00Z</time></trkpt>
<trkpt lat="50.18024" lon="5.661211"><ele>433.58</ele><time>2025-05-25T05:14:03Z</time></trkpt>
<trkpt lat="50.179993" lon="5.661965"><ele>436.05</ele><time>2025-05-25T05:14:06Z</time></trkpt>
<trkpt lat="50.179722" lon="5.662676"><ele>438.36</ele><time>2025-05-25T05:14:08Z</time></trkpt>
<trkpt lat="50.179561" lon="5.663036"><ele>439.55</ele><time>2025-05-25T05:14:11Z</time></trkpt>
<trkpt lat="50.1784" lon="5.663992"><ele>448.09</ele><time>2025-05-25T05:14:14Z</time></trkpt>
<trkpt lat="50.178202" lon="5.664193"><ele>448.52</ele><time>2025-05-25T05:14:17Z</time></trkpt>
<trkpt lat="50.17761" lon="5.664976"><ele>447.84</ele><time>2025-05-25T05:14:19Z</time></trkpt>
<trkpt lat="50.177018" lon="5.665961"><ele>444.39</ele><time>2025-05-25T05:14:22Z</time></trkpt>
<trkpt lat="50.176806" lon="5.666226"><ele>444.62</ele><time>2025-05-25T05:14:25Z</time></trkpt>
<trkpt lat="50.176616" lon="5.666353"><ele>445.58</ele><time>2025-05-25T05:14:27Z</time></trkpt>
<trkpt lat="50.175954" lon="5.666556"><ele>443.86</ele><time>2025-05-25T05:14:30Z</time></trkpt>
<trkpt lat="50.175742" lon="5.666655"><ele>444.29</ele><time>2025-05-25T05:14:33Z</time></trkpt>
<trkpt lat="50.175529" lon="5.666827"><ele>444.81</ele><time>2025-05-25T05:14:35Z</time></trkpt>
<trkpt lat="50.17508" lon="5.667259"><ele>444.13</ele><time>2025-05-25T05:14:38Z</time></trkpt>
<trkpt lat="50.17397" lon="5.668513"><ele>439.58</ele><time>2025-05-25T05:14:41Z</time></trkpt>
<trkpt lat="50.17334" lon="5.669167"><ele>440.98</ele><time>2025-05-25T05:14:43Z</time></trkpt>
<trkpt lat="50.172735" lon="5.669755"><ele>448.08</ele><time>2025-05-25T05:14:46Z</time></trkpt>
<trkpt lat="50.17204" lon="5.670373"><ele>445.68</ele><time>2025-05-25T05:14:49Z</time></trkpt>
<trkpt lat="50.171363" lon="5.67094"><ele>445.58</ele><time>2025-05-25T05:14:52Z</time></trkpt>
<trkpt lat="50.170795" lon="5.671269"><ele>442.29</ele><time>2025-05-25T05:14:54Z</time></trkpt>
<trkpt lat="50.170643" lon="5.671386"><ele>441.62</ele><time>2025-05-25T05:14:57Z</time></trkpt>
<trkpt lat="50.170494" lon="5.671526"><ele>440.83</ele><time>2025-05-25T05:15:00Z</time></trkpt>
<trkpt lat="50.170343" lon="5.671712"><ele>439.83</ele><time>2025-05-25T05:15:02Z</time></trkpt>
<trkpt lat="50.17017" lon="5.671958"><ele>438.5</ele><time>2025-05-25T05:15:05Z</time></trkpt>
<trkpt lat="50.170057" lon="5.67217"><ele>437.63</ele><time>2025-05-25T05:15:08Z</time></trkpt>
<trkpt lat="50.169642" lon="5.672818"><ele>431.84</ele><time>2025-05-25T05:15:10Z</time></trkpt>
<trkpt lat="50.168349" lon="5.674057"><ele>420.05</ele><time>2025-05-25T05:15:13Z</time></trkpt>
<trkpt lat="50.16768" lon="5.674828"><ele>416.43</ele><time>2025-05-25T05:15:16Z</time></trkpt>
<trkpt lat="50.166674" lon="5.676049"><ele>420.97</ele><time>2025-05-25T05:15:18Z</time></trkpt>
<trkpt lat="50.166405" lon="5.676336"><ele>421.94</ele><time>2025-05-25T05:15:21Z</time></trkpt>
<trkpt lat="50.165529" lon="5.676988"><ele>424.84</ele><time>2025-05-25T05:15:24Z</time></trkpt>
<trkpt lat="50.165223" lon="5.677186"><ele>423.96</ele><time>2025-05-25T05:15:27Z</time></trkpt>
<trkpt lat="50.164922" lon="5.677287"><ele>422.72</ele><time>2025-05-25T05:15:29Z</time></trkpt>
<trkpt lat="50.164149" lon="5.677466"><ele>422.0</ele><time>2025-05-25T05:15:32Z</time></trkpt>
<trkpt lat="50.163872" lon="5.677553"><ele>421.94</ele><time>2025-05-25T05:15:35Z</time></trkpt>
<trkpt lat="50.163696" lon="5.677658"><ele>421.3</ele><time>2025-05-25T05:15:37Z</time></trkpt>
<trkpt lat="50.163586" lon="5.677755"><ele>420.83</ele><time>2025-05-25T05:15:40Z</time></trkpt>
<trkpt lat="50.163433" lon="5.67795"><ele>419.49</ele><time>2025-05-25T05:15:43Z</time></trkpt>
<trkpt lat="50.162804" lon="5.679124"><ele>418.0</ele><time>2025-05-25T05:15:45Z</time></trkpt>
<trkpt lat="50.162449" lon="5.679936"><ele>415.05</ele><time>2025-05-25T05:15:48Z</time></trkpt>
<trkpt lat="50.162337" lon="5.680148"><ele>414.41</ele><time>2025-05-25T05:15:51Z</time></trkpt>
<trkpt lat="50.16225" lon="5.680277"><ele>414.1</ele><time>2025-05-25T05:15:53Z</time></trkpt>
<trkpt lat="50.162044" lon="5.680504"><ele>411.9</ele><time>2025-05-25T05:15:56Z</time></trkpt>
<trkpt lat="50.161339" lon="5.681184"><ele>408.73</ele><time>2025-05-25T05:15:59Z</time></trkpt>
<trkpt lat="50.161215" lon="5.681281"><ele>408.39</ele><time>2025-05-25T05:16:01Z</time></trkpt>
<trkpt lat="50.161005" lon="5.681372"><ele>407.68</ele><time>2025-05-25T05:16:04Z</time></trkpt>
<trkpt lat="50.160357" lon="5.681459"><ele>405.03</ele><time>2025-05-25T05:16:07Z</time></trkpt>
<trkpt lat="50.16012" lon="5.681559"><ele>404.39</ele><time>2025-05-25T05:16:10Z</time></trkpt>
<trkpt lat="50.159723" lon="5.681853"><ele>404.99</ele><time>2025-05-25T05:16:12Z</time></trkpt>
<trkpt lat="50.159541" lon="5.68202"><ele>404.73</ele><time>2025-05-25T05:16:15Z</time></trkpt>
<trkpt lat="50.159161" lon="5.68244"><ele>402.19</ele><time>2025-05-25T05:16:18Z</time></trkpt>
<trkpt lat="50.159061" lon="5.68261"><ele>400.98</ele><time>2025-05-25T05:16:20Z</time></trkpt>
<trkpt lat="50.158983" lon="5.682807"><ele>400.0</ele><time>2025-05-25T05:16:23Z</time></trkpt>
<trkpt lat="50.158929" lon="5.682953"><ele>400.0</ele><time>2025-05-25T05:16:26Z</time></trkpt>
<trkpt lat="50.158636" lon="5.683538"><ele>401.0</ele><time>2025-05-25T05:16:28Z</time></trkpt>
<trkpt lat="50.158207" lon="5.684282"><ele>402.87</ele><time>2025-05-25T05:16:31Z</time></trkpt>
<trkpt lat="50.157916" lon="5.684682"><ele>404.5</ele><time>2025-05-25T05:16:34Z</time></trkpt>
<trkpt lat="50.1576" lon="5.685061"><ele>405.0</ele><time>2025-05-25T05:16:36Z</time></trkpt>
<trkpt lat="50.156126" lon="5.686553"><ele>410.5</ele><time>2025-05-25T05:16:39Z</time></trkpt>
<trkpt lat="50.15518" lon="5.687528"><ele>415.25</ele><time>2025-05-25T05:16:42Z</time></trkpt>
<trkpt lat="50.154705" lon="5.688165"><ele>415.73</ele><time>2025-05-25T05:16:45Z</time></trkpt>
<trkpt lat="50.149755" lon="5.695076"><ele>401.12</ele><time>2025-05-25T05:16:47Z</time></trkpt>
<trkpt lat="50.149588" lon="5.695372"><ele>401.0</ele><time>2025-05-25T05:16:50Z</time></trkpt>
<trkpt lat="50.149469" lon="5.69573"><ele>401.0</ele><time>2025-05-25T05:16:53Z</time></trkpt>
<trkpt lat="50.149407" lon="5.696118"><ele>401.0</ele><time>2025-05-25T05:16:55Z</time></trkpt>
<trkpt lat="50.148737" lon="5.703859"><ele>410.45</ele><time>2025-05-25T05:16:58Z</time></trkpt>
<trkpt lat="50.148688" lon="5.70418"><ele>410.29</ele><time>2025-05-25T05:17:01Z</time></trkpt>
<trkpt lat="50.147756" lon="5.708711"><ele>415.08</ele><time>2025-05-25T05:17:03Z</time></trkpt>
<trkpt lat="50.147708" lon="5.70907"><ele>415.25</ele><time>2025-05-25T05:17:06Z</time></trkpt>
<trkpt lat="50.147684" lon="5.709492"><ele>414.51</ele><time>2025-05-25T05:17:09Z</time></trkpt>
<trkpt lat="50.147724" lon="5.71172"><ele>408.74</ele><time>2025-05-25T05:17:11Z</time></trkpt>
<trkpt lat="50.147783" lon="5.712298"><ele>406.62</ele><time>2025-05-25T05:17:14Z</time></trkpt>
<trkpt lat="50.148157" lon="5.714111"><ele>402.05</ele><time>2025-05-25T05:17:17Z</time></trkpt>
<trkpt lat="50.148279" lon="5.715364"><ele>396.41</ele><time>2025-05-25T05:17:19Z</time></trkpt>
<trkpt lat="50.148292" lon="5.715693"><ele>394.95</ele><time>2025-05-25T05:17:22Z</time></trkpt>
<trkpt lat="50.148283" lon="5.715997"><ele>393.95</ele><time>2025-05-25T05:17:25Z</time></trkpt>
<trkpt lat="50.148257" lon="5.716251"><ele>393.82</ele><time>2025-05-25T05:17:28Z</time></trkpt>
<trkpt lat="50.148154" lon="5.716767"><ele>393.45</ele><time>2025-05-25T05:17:30Z</time></trkpt>
<trkpt lat="50.148079" lon="5.717014"><ele>393.16</ele><time>2025-05-25T05:17:33Z</time></trkpt>
<trkpt lat="50.147944" lon="5.71736"><ele>392.31</ele><time>2025-05-25T05:17:36Z</time></trkpt>
<trkpt lat="50.147773" lon="5.717668"><ele>392.43</ele><time>2025-05-25T05:17:38Z</time></trkpt>
<trkpt lat="50.14735" lon="5.718255"><ele>391.7</ele><time>2025-05-25T05:17:41Z</time></trkpt>
<trkpt lat="50.147132" lon="5.718477"><ele>392.32</ele><time>2025-05-25T05:17:44Z</time></trkpt>
<trkpt lat="50.146761" lon="5.718682"><ele>389.17</ele><time>2025-05-25T05:17:46Z</time></trkpt>
<trkpt lat="50.146051" lon="5.718996"><ele>381.78</ele><time>2025-05-25T05:17:49Z</time></trkpt>
<trkpt lat="50.145877" lon="5.719047"><ele>381.16</ele><time>2025-05-25T05:17:52Z</time></trkpt>
<trkpt lat="50.144802" lon="5.719017"><ele>376.36</ele><time>2025-05-25T05:17:54Z</time></trkpt>
<trkpt lat="50.144244" lon="5.719054"><ele>373.76</ele><time>2025-05-25T05:17:57Z</time></trkpt>
<trkpt lat="50.14403" lon="5.71903"><ele>373.51</ele><time>2025-05-25T05:18:00Z</time></trkpt>
<trkpt lat="50.143909" lon="5.71898"><ele>373.33</ele><time>2025-05-25T05:18:03Z</time></trkpt>
<trkpt lat="50.142841" lon="5.718092"><ele>365.13</ele><time>2025-05-25T05:18:05Z</time></trkpt>
<trkpt lat="50.142149" lon="5.717733"><ele>363.26</ele><time>2025-05-25T05:18:08Z</time></trkpt>
<trkpt lat="50.141842" lon="5.717633"><ele>361.07</ele><time>2025-05-25T05:18:11Z</time></trkpt>
<trkpt lat="50.141577" lon="5.717593"><ele>359.46</ele><time>2025-05-25T05:18:13Z</time></trkpt>
<trkpt lat="50.140695" lon="5.71756"><ele>353.47</ele><time>2025-05-25T05:18:16Z</time></trkpt>
<trkpt lat="50.140558" lon="5.717533"><ele>352.61</ele><time>2025-05-25T05:18:19Z</time></trkpt>
<trkpt lat="50.140444" lon="5.717476"><ele>351.22</ele><time>2025-05-25T05:18:21Z</time></trkpt>
<trkpt lat="50.140211" lon="5.717304"><ele>347.71</ele><time>2025-05-25T05:18:24Z</time></trkpt>
<trkpt lat="50.139504" lon="5.716424"><ele>339.55</ele><time>2025-05-25T05:18:27Z</time></trkpt>
<trkpt lat="50.139412" lon="5.71633"><ele>338.01</ele><time>2025-05-25T05:18:29Z</time></trkpt>
<trkpt lat="50.13932" lon="5.716269"><ele>336.9</ele><time>2025-05-25T05:18:32Z</time></trkpt>
<trkpt lat="50.139082" lon="5.716212"><ele>335.74</ele><time>2025-05-25T05:18:35Z</time></trkpt>
<trkpt lat="50.138944" lon="5.716217"><ele>336.17</ele><time>2025-05-25T05:18:37Z</time></trkpt>
<trkpt lat="50.138644" lon="5.716285"><ele>334.56</ele><time>2025-05-25T05:18:40Z</time></trkpt>
<trkpt lat="50.13854" lon="5.716336"><ele>333.77</ele><time>2025-05-25T05:18:43Z</time></trkpt>
<trkpt lat="50.138455" lon="5.71642"><ele>333.79</ele><time>2025-05-25T05:18:46Z</time></trkpt>
<trkpt lat="50.138085" lon="5.716906"><ele>333.32</ele><time>2025-05-25T05:18:48Z</time></trkpt>
<trkpt lat="50.137692" lon="5.717245"><ele>325.57</ele><time>2025-05-25T05:18:51Z</time></trkpt>
<trkpt lat="50.137645" lon="5.717322"><ele>324.38</ele><time>2025-05-25T05:18:54Z</time></trkpt>
<trkpt lat="50.137614" lon="5.717532"><ele>323.68</ele><time>2025-05-25T05:18:56Z</time></trkpt>
<trkpt lat="50.137616" lon="5.717621"><ele>323.7</ele><time>2025-05-25T05:18:59Z</time></trkpt>
<trkpt lat="50.137692" lon="5.717841"><ele>326.08</ele><time>2025-05-25T05:19:02Z</time></trkpt>
<trkpt lat="50.137819" lon="5.718062"><ele>329.72</ele><time>2025-05-25T05:19:04Z</time></trkpt>
<trkpt lat="50.137948" lon="5.718343"><ele>332.13</ele><time>2025-05-25T05:19:07Z</time></trkpt>
<trkpt lat="50.138131" lon="5.719105"><ele>323.89</ele><time>2025-05-25T05:19:10Z</time></trkpt>
<trkpt lat="50.138351" lon="5.719912"><ele>321.96</ele><time>2025-05-25T05:19:12Z</time></trkpt>
<trkpt lat="50.138395" lon="5.720162"><ele>321.93</ele><time>2025-05-25T05:19:15Z</time></trkpt>
<trkpt lat="50.138413" lon="5.720434"><ele>320.35</ele><time>2025-05-25T05:19:18Z</time></trkpt>
<trkpt lat="50.138393" lon="5.721391"><ele>317.9</ele><time>2025-05-25T05:19:21Z</time></trkpt>
<trkpt lat="50.138365" lon="5.721574"><ele>317.3</ele><time>2025-05-25T05:19:23Z</time></trkpt>
<trkpt lat="50.138211" lon="5.722256"><ele>318.52</ele><time>2025-05-25T05:19:26Z</time></trkpt>
<trkpt lat="50.138159" lon="5.722402"><ele>318.84</ele><time>2025-05-25T05:19:29Z</time></trkpt>
<trkpt lat="50.138089" lon="5.722509"><ele>317.74</ele><time>2025-05-25T05:19:31Z</time></trkpt>
<trkpt lat="50.137998" lon="5.722576"><ele>315.77</ele><time>2025-05-25T05:19:34Z</time></trkpt>
<trkpt lat="50.137488" lon="5.722836"><ele>307.03</ele><time>2025-05-25T05:19:37Z</time></trkpt>
<trkpt lat="50.137292" lon="5.722865"><ele>306.67</ele><time>2025-05-25T05:19:39Z</time></trkpt>
<trkpt lat="50.136976" lon="5.722813"><ele>307.43</ele><time>2025-05-25T05:19:42Z</time></trkpt>
<trkpt lat="50.136848" lon="5.722768"><ele>307.57</ele><time>2025-05-25T05:19:45Z</time></trkpt>
<trkpt lat="50.136666" lon="5.722651"><ele>307.17</ele><time>2025-05-25T05:19:47Z</time></trkpt>
<trkpt lat="50.13543" lon="5.722175"><ele>302.0</ele><time>2025-05-25T05:19:50Z</time></trkpt>
<trkpt lat="50.135028" lon="5.722058"><ele>304.26</ele><time>2025-05-25T05:19:53Z</time></trkpt>
<trkpt lat="50.134943" lon="5.722064"><ele>304.64</ele><time>2025-05-25T05:19:56Z</time></trkpt>
<trkpt lat="50.134328" lon="5.722415"><ele>305.68</ele><time>2025-05-25T05:19:58Z</time></trkpt>
<trkpt lat="50.133857" lon="5.722579"><ele>304.17</ele><time>2025-05-25T05:20:01Z</time></trkpt>
<trkpt lat="50.131696" lon="5.723079"><ele>306.5</ele><time>2025-05-25T05:20:04Z</time></trkpt>
<trkpt lat="50.131441" lon="5.723169"><ele>306.63</ele><time>2025-05-25T05:20:06Z</time></trkpt>
<trkpt lat="50.131328" lon="5.723309"><ele>305.98</ele><time>2025-05-25T05:20:09Z</time></trkpt>
<trkpt lat="50.131217" lon="5.723597"><ele>305.74</ele><time>2025-05-25T05:20:12Z</time></trkpt>
<trkpt lat="50.131182" lon="5.723955"><ele>307.0</ele><time>2025-05-25T05:20:14Z</time></trkpt>
<trkpt lat="50.131288" lon="5.724389"><ele>310.0</ele><time>2025-05-25T05:20:17Z</time></trkpt>
<trkpt lat="50.131884" lon="5.725825"><ele>316.5</ele><time>2025-05-25T05:20:20Z</time></trkpt>
<trkpt lat="50.132013" lon="5.726323"><ele>317.45</ele><time>2025-05-25T05:20:22Z</time></trkpt>
<trkpt lat="50.13209" lon="5.726886"><ele>314.74</ele><time>2025-05-25T05:20:25Z</time></trkpt>
<trkpt lat="50.132473" lon="5.732067"><ele>314.36</ele><time>2025-05-25T05:20:28Z</time></trkpt>
<trkpt lat="50.13252" lon="5.733335"><ele>318.66</ele><time>2025-05-25T05:20:30Z</time></trkpt>
<trkpt lat="50.13253" lon="5.73487"><ele>317.23</ele><time>2025-05-25T05:20:33Z</time></trkpt>
<trkpt lat="50.132642" lon="5.736151"><ele>318.16</ele><time>2025-05-25T05:20:36Z</time></trkpt>
<trkpt lat="50.132864" lon="5.737722"><ele>319.45</ele><time>2025-05-25T05:20:39Z</time></trkpt>
<trkpt lat="50.133052" lon="5.738563"><ele>320.28</ele><time>2025-05-25T05:20:41Z</time></trkpt>
<trkpt lat="50.133128" lon="5.738837"><ele>319.17</ele><time>2025-05-25T05:20:44Z</time></trkpt>
<trkpt lat="50.133237" lon="5.739067"><ele>318.16</ele><time>2025-05-25T05:20:47Z</time></trkpt>
<trkpt lat="50.133396" lon="5.739253"><ele>317.41</ele><time>2025-05-25T05:20:49Z</time></trkpt>
<trkpt lat="50.133737" lon="5.739489"><ele>319.21</ele><time>2025-05-25T05:20:52Z</time></trkpt>
<trkpt lat="50.134214" lon="5.739733"><ele>323.05</ele><time>2025-05-25T05:20:55Z</time></trkpt>
<trkpt lat="50.134654" lon="5.740033"><ele>322.41</ele><time>2025-05-25T05:20:57Z</time></trkpt>
<trkpt lat="50.134915" lon="5.740441"><ele>321.24</ele><time>2025-05-25T05:21:00Z</time></trkpt>
<trkpt lat="50.135047" lon="5.740738"><ele>320.39</ele><time>2025-05-25T05:21:03Z</time></trkpt>
<trkpt lat="50.135128" lon="5.74114"><ele>317.02</ele><time>2025-05-25T05:21:05Z</time></trkpt>
<trkpt lat="50.135146" lon="5.741727"><ele>318.16</ele><time>2025-05-25T05:21:08Z</time></trkpt>
<trkpt lat="50.135129" lon="5.742013"><ele>317.07</ele><time>2025-05-25T05:21:11Z</time></trkpt>
<trkpt lat="50.134673" lon="5.744323"><ele>315.06</ele><time>2025-05-25T05:21:14Z</time></trkpt>
<trkpt lat="50.134212" lon="5.745702"><ele>307.9</ele><time>2025-05-25T05:21:16Z</time></trkpt>
<trkpt lat="50.134092" lon="5.745975"><ele>306.7</ele><time>2025-05-25T05:21:19Z</time></trkpt>
<trkpt lat="50.133853" lon="5.746405"><ele>304.18</ele><time>2025-05-25T05:21:22Z</time></trkpt>
<trkpt lat="50.133751" lon="5.746623"><ele>304.92</ele><time>2025-05-25T05:21:24Z</time></trkpt>
<trkpt lat="50.133727" lon="5.746754"><ele>305.0</ele><time>2025-05-25T05:21:27Z</time></trkpt>
<trkpt lat="50.133731" lon="5.746892"><ele>305.0</ele><time>2025-05-25T05:21:30Z</time></trkpt>
<trkpt lat="50.133763" lon="5.747022"><ele>305.15</ele><time>2025-05-25T05:21:32Z</time></trkpt>
<trkpt lat="50.133823" lon="5.747125"><ele>305.49</ele><time>2025-05-25T05:21:35Z</time></trkpt>
<trkpt lat="50.133896" lon="5.747201"><ele>306.01</ele><time>2025-05-25T05:21:38Z</time></trkpt>
<trkpt lat="50.134599" lon="5.74762"><ele>311.94</ele><time>2025-05-25T05:21:40Z</time></trkpt>
<trkpt lat="50.134728" lon="5.747722"><ele>311.89</ele><time>2025-05-25T05:21:43Z</time></trkpt>
<trkpt lat="50.134835" lon="5.747881"><ele>312.26</ele><time>2025-05-25T05:21:46Z</time></trkpt>
<trkpt lat="50.134913" lon="5.748069"><ele>312.65</ele><time>2025-05-25T05:21:48Z</time></trkpt>
<trkpt lat="50.134952" lon="5.748272"><ele>311.76</ele><time>2025-05-25T05:21:51Z</time></trkpt>
<trkpt lat="50.134957" lon="5.748506"><ele>311.38</ele><time>2025-05-25T05:21:54Z</time></trkpt>
<trkpt lat="50.134617" lon="5.750591"><ele>316.62</ele><time>2025-05-25T05:21:57Z</time></trkpt>
<trkpt lat="50.134593" lon="5.750867"><ele>316.42</ele><time>2025-05-25T05:21:59Z</time></trkpt>
<trkpt lat="50.134597" lon="5.751132"><ele>315.44</ele><time>2025-05-25T05:22:02Z</time></trkpt>
<trkpt lat="50.134644" lon="5.751344"><ele>314.28</ele><time>2025-05-25T05:22:05Z</time></trkpt>
<trkpt lat="50.13471" lon="5.751548"><ele>312.86</ele><time>2025-05-25T05:22:07Z</time></trkpt>
<trkpt lat="50.134861" lon="5.751811"><ele>313.98</ele><time>2025-05-25T05:22:10Z</time></trkpt>
<trkpt lat="50.135061" lon="5.751971"><ele>315.33</ele><time>2025-05-25T05:22:13Z</time></trkpt>
<trkpt lat="50.135268" lon="5.752078"><ele>315.52</ele><time>2025-05-25T05:22:15Z</time></trkpt>
<trkpt lat="50.13601" lon="5.752359"><ele>321.44</ele><time>2025-05-25T05:22:18Z</time></trkpt>
<trkpt lat="50.136896" lon="5.7528"><ele>327.19</ele><time>2025-05-25T05:22:21Z</time></trkpt>
<trkpt lat="50.137571" lon="5.752986"><ele>333.59</ele><time>2025-05-25T05:22:23Z</time></trkpt>
<trkpt lat="50.13779" lon="5.753076"><ele>333.47</ele><time>2025-05-25T05:22:26Z</time></trkpt>
<trkpt lat="50.137881" lon="5.753168"><ele>331.33</ele><time>2025-05-25T05:22:29Z</time></trkpt>
<trkpt lat="50.138049" lon="5.753602"><ele>322.21</ele><time>2025-05-25T05:22:32Z</time></trkpt>
<trkpt lat="50.138206" lon="5.754099"><ele>319.84</ele><time>2025-05-25T05:22:34Z</time></trkpt>
<trkpt lat="50.138225" lon="5.754209"><ele>319.8</ele><time>2025-05-25T05:22:37Z</time></trkpt>
<trkpt lat="50.138225" lon="5.75432"><ele>319.15</ele><time>2025-05-25T05:22:40Z</time></trkpt>
<trkpt lat="50.138214" lon="5.754413"><ele>318.46</ele><time>2025-05-25T05:22:42Z</time></trkpt>
<trkpt lat="50.138184" lon="5.754504"><ele>319.04</ele><time>2025-05-25T05:22:45Z</time></trkpt>
<trkpt lat="50.138135" lon="5.75459"><ele>320.13</ele><time>2025-05-25T05:22:48Z</time></trkpt>
<trkpt lat="50.137501" lon="5.75519"><ele>325.43</ele><time>2025-05-25T05:22:50Z</time></trkpt>
<trkpt lat="50.13734" lon="5.755315"><ele>326.42</ele><time>2025-05-25T05:22:53Z</time></trkpt>
<trkpt lat="50.136372" lon="5.755741"><ele>327.67</ele><time>2025-05-25T05:22:56Z</time></trkpt>
<trkpt lat="50.135569" lon="5.756129"><ele>326.54</ele><time>2025-05-25T05:22:58Z</time></trkpt>
<trkpt lat="50.1352" lon="5.756161"><ele>326.97</ele><time>2025-05-25T05:23:01Z</time></trkpt>
<trkpt lat="50.134461" lon="5.756338"><ele>327.85</ele><time>2025-05-25T05:23:04Z</time></trkpt>
<trkpt lat="50.13422" lon="5.756487"><ele>328.13</ele><time>2025-05-25T05:23:06Z</time></trkpt>
<trkpt lat="50.13401" lon="5.756709"><ele>326.29</ele><time>2025-05-25T05:23:09Z</time></trkpt>
<trkpt lat="50.133888" lon="5.756935"><ele>324.02</ele><time>2025-05-25T05:23:12Z</time></trkpt>
<trkpt lat="50.133785" lon="5.757272"><ele>321.06</ele><time>2025-05-25T05:23:15Z</time></trkpt>
<trkpt lat="50.133762" lon="5.757575"><ele>320.0</ele><time>2025-05-25T05:23:17Z</time></trkpt>
<trkpt lat="50.133808" lon="5.757906"><ele>320.06</ele><time>2025-05-25T05:23:20Z</time></trkpt>
<trkpt lat="50.133901" lon="5.758147"><ele>321.01</ele><time>2025-05-25T05:23:23Z</time></trkpt>
<trkpt lat="50.13401" lon="5.75832"><ele>323.11</ele><time>2025-05-25T05:23:25Z</time></trkpt>
<trkpt lat="50.134352" lon="5.758693"><ele>329.49</ele><time>2025-05-25T05:23:28Z</time></trkpt>
<trkpt lat="50.134674" lon="5.758936"><ele>332.13</ele><time>2025-05-25T05:23:31Z</time></trkpt>
<trkpt lat="50.134866" lon="5.759116"><ele>336.48</ele><time>2025-05-25T05:23:33Z</time></trkpt>
<trkpt lat="50.135055" lon="5.759376"><ele>337.61</ele><time>2025-05-25T05:23:36Z</time></trkpt>
<trkpt lat="50.135199" lon="5.759721"><ele>338.45</ele><time>2025-05-25T05:23:39Z</time></trkpt>
<trkpt lat="50.135242" lon="5.760046"><ele>336.49</ele><time>2025-05-25T05:23:41Z</time></trkpt>
<trkpt lat="50.135202" lon="5.760428"><ele>332.02</ele><time>2025-05-25T05:23:44Z</time></trkpt>
<trkpt lat="50.13509" lon="5.760788"><ele>327.39</ele><time>2025-05-25T05:23:47Z</time></trkpt>
<trkpt lat="50.134917" lon="5.761093"><ele>323.83</ele><time>2025-05-25T05:23:50Z</time></trkpt>
<trkpt lat="50.134108" lon="5.761853"><ele>320.64</ele><time>2025-05-25T05:23:52Z</time></trkpt>
<trkpt lat="50.133948" lon="5.762028"><ele>319.21</ele><time>2025-05-25T05:23:55Z</time></trkpt>
<trkpt lat="50.133818" lon="5.762202"><ele>318.23</ele><time>2025-05-25T05:23:58Z</time></trkpt>
<trkpt lat="50.133751" lon="5.76236"><ele>318.5</ele><time>2025-05-25T05:24:00Z</time></trkpt>
<trkpt lat="50.133709" lon="5.762538"><ele>319.42</ele><time>2025-05-25T05:24:03Z</time></trkpt>
<trkpt lat="50.133691" lon="5.762735"><ele>321.16</ele><time>2025-05-25T05:24:06Z</time></trkpt>
<trkpt lat="50.133705" lon="5.763188"><ele>324.13</ele><time>2025-05-25T05:24:08Z</time></trkpt>
<trkpt lat="50.133742" lon="5.763553"><ele>325.88</ele><time>2025-05-25T05:24:11Z</time></trkpt>
<trkpt lat="50.134144" lon="5.765055"><ele>326.34</ele><time>2025-05-25T05:24:14Z</time></trkpt>
<trkpt lat="50.134168" lon="5.765245"><ele>327.07</ele><time>2025-05-25T05:24:16Z</time></trkpt>
<trkpt lat="50.134185" lon="5.765411"><ele>327.51</ele><time>2025-05-25T05:24:19Z</time></trkpt>
<trkpt lat="50.134168" lon="5.76644"><ele>330.46</ele><time>2025-05-25T05:24:22Z</time></trkpt>
<trkpt lat="50.134114" lon="5.766652"><ele>330.19</ele><time>2025-05-25T05:24:25Z</time></trkpt>
<trkpt lat="50.134036" lon="5.766819"><ele>332.19</ele><time>2025-05-25T05:24:27Z</time></trkpt>
<trkpt lat="50.133941" lon="5.766935"><ele>331.82</ele><time>2025-05-25T05:24:30Z</time></trkpt>
<trkpt lat="50.133689" lon="5.767086"><ele>330.11</ele><time>2025-05-25T05:24:33Z</time></trkpt>
<trkpt lat="50.133336" lon="5.767187"><ele>327.52</ele><time>2025-05-25T05:24:35Z</time></trkpt>
<trkpt lat="50.133187" lon="5.76719"><ele>328.54</ele><time>2025-05-25T05:24:38Z</time></trkpt>
<trkpt lat="50.132976" lon="5.767167"><ele>329.05</ele><time>2025-05-25T05:24:41Z</time></trkpt>
<trkpt lat="50.132443" lon="5.767051"><ele>328.17</ele><time>2025-05-25T05:24:43Z</time></trkpt>
<trkpt lat="50.13226" lon="5.767036"><ele>326.89</ele><time>2025-05-25T05:24:46Z</time></trkpt>
<trkpt lat="50.132078" lon="5.767073"><ele>326.2</ele><time>2025-05-25T05:24:49Z</time></trkpt>
<trkpt lat="50.131901" lon="5.767142"><ele>326.44</ele><time>2025-05-25T05:24:51Z</time></trkpt>
<trkpt lat="50.131733" lon="5.767253"><ele>331.79</ele><time>2025-05-25T05:24:54Z</time></trkpt>
<trkpt lat="50.131578" lon="5.767407"><ele>341.65</ele><time>2025-05-25T05:24:57Z</time></trkpt>
<trkpt lat="50.131441" lon="5.767596"><ele>351.89</ele><time>2025-05-25T05:24:59Z</time></trkpt>
<trkpt lat="50.131324" lon="5.767816"><ele>358.21</ele><time>2025-05-25T05:25:02Z</time></trkpt>
<trkpt lat="50.13123" lon="5.768059"><ele>356.07</ele><time>2025-05-25T05:25:05Z</time></trkpt>
<trkpt lat="50.130505" lon="5.770392"><ele>323.24</ele><time>2025-05-25T05:25:08Z</time></trkpt>
<trkpt lat="50.130482" lon="5.770537"><ele>321.67</ele><time>2025-05-25T05:25:10Z</time></trkpt>
<trkpt lat="50.130478" lon="5.770704"><ele>321.14</ele><time>2025-05-25T05:25:13Z</time></trkpt>
<trkpt lat="50.130508" lon="5.771037"><ele>320.46</ele><time>2025-05-25T05:25:16Z</time></trkpt>
<trkpt lat="50.130552" lon="5.771201"><ele>321.27</ele><time>2025-05-25T05:25:18Z</time></trkpt>
<trkpt lat="50.13065" lon="5.7714"><ele>324.04</ele><time>2025-05-25T05:25:21Z</time></trkpt>
<trkpt lat="50.130986" lon="5.771938"><ele>325.83</ele><time>2025-05-25T05:25:24Z</time></trkpt>
<trkpt lat="50.13134" lon="5.772426"><ele>319.61</ele><time>2025-05-25T05:25:26Z</time></trkpt>
<trkpt lat="50.131508" lon="5.772793"><ele>320.46</ele><time>2025-05-25T05:25:29Z</time></trkpt>
<trkpt lat="50.13162" lon="5.773292"><ele>321.85</ele><time>2025-05-25T05:25:32Z</time></trkpt>
<trkpt lat="50.131656" lon="5.773703"><ele>323.34</ele><time>2025-05-25T05:25:34Z</time></trkpt>
<trkpt lat="50.13163" lon="5.774878"><ele>325.55</ele><time>2025-05-25T05:25:37Z</time></trkpt>
<trkpt lat="50.131623" lon="5.776671"><ele>331.74</ele><time>2025-05-25T05:25:40Z</time></trkpt>
<trkpt lat="50.131601" lon="5.7777"><ele>334.14</ele><time>2025-05-25T05:25:43Z</time></trkpt>
<trkpt lat="50.131568" lon="5.778095"><ele>336.87</ele><time>2025-05-25T05:25:45Z</time></trkpt>
<trkpt lat="50.131508" lon="5.778257"><ele>336.48</ele><time>2025-05-25T05:25:48Z</time></trkpt>
<trkpt lat="50.131427" lon="5.778418"><ele>336.51</ele><time>2025-05-25T05:25:51Z</time></trkpt>
<trkpt lat="50.131207" lon="5.778585"><ele>333.56</ele><time>2025-05-25T05:25:53Z</time></trkpt>
<trkpt lat="50.130538" lon="5.778727"><ele>326.59</ele><time>2025-05-25T05:25:56Z</time></trkpt>
<trkpt lat="50.130276" lon="5.778837"><ele>322.97</ele><time>2025-05-25T05:25:59Z</time></trkpt>
<trkpt lat="50.130178" lon="5.778951"><ele>322.29</ele><time>2025-05-25T05:26:01Z</time></trkpt>
<trkpt lat="50.130052" lon="5.779227"><ele>322.69</ele><time>2025-05-25T05:26:04Z</time></trkpt>
<trkpt lat="50.12979" lon="5.780747"><ele>321.5</ele><time>2025-05-25T05:26:07Z</time></trkpt>
<trkpt lat="50.129657" lon="5.78161"><ele>322.9</ele><time>2025-05-25T05:26:09Z</time></trkpt>
<trkpt lat="50.129581" lon="5.783233"><ele>331.38</ele><time>2025-05-25T05:26:12Z</time></trkpt>
<trkpt lat="50.129541" lon="5.783551"><ele>332.56</ele><time>2025-05-25T05:26:15Z</time></trkpt>
<trkpt lat="50.129133" lon="5.784802"><ele>332.78</ele><time>2025-05-25T05:26:17Z</time></trkpt>
<trkpt lat="50.128927" lon="5.785293"><ele>330.38</ele><time>2025-05-25T05:26:20Z</time></trkpt>
<trkpt lat="50.128497" lon="5.786036"><ele>326.15</ele><time>2025-05-25T05:26:23Z</time></trkpt>
<trkpt lat="50.128375" lon="5.786389"><ele>325.91</ele><time>2025-05-25T05:26:26Z</time></trkpt>
<trkpt lat="50.128301" lon="5.786813"><ele>327.64</ele><time>2025-05-25T05:26:28Z</time></trkpt>
<trkpt lat="50.128309" lon="5.787189"><ele>328.97</ele><time>2025-05-25T05:26:31Z</time></trkpt>
<trkpt lat="50.128386" lon="5.787498"><ele>331.18</ele><time>2025-05-25T05:26:34Z</time></trkpt>
<trkpt lat="50.12851" lon="5.787734"><ele>331.17</ele><time>2025-05-25T05:26:36Z</time></trkpt>
<trkpt lat="50.12883" lon="5.787983"><ele>331.94</ele><time>2025-05-25T05:26:39Z</time></trkpt>
<trkpt lat="50.129015" lon="5.788058"><ele>333.8</ele><time>2025-05-25T05:26:42Z</time></trkpt>
<trkpt lat="50.129311" lon="5.788078"><ele>337.63</ele><time>2025-05-25T05:26:44Z</time></trkpt>
<trkpt lat="50.130414" lon="5.788083"><ele>332.52</ele><time>2025-05-25T05:26:47Z</time></trkpt>
<trkpt lat="50.130894" lon="5.788141"><ele>328.54</ele><time>2025-05-25T05:26:50Z</time></trkpt>
<trkpt lat="50.131027" lon="5.788181"><ele>328.05</ele><time>2025-05-25T05:26:52Z</time></trkpt>
<trkpt lat="50.131129" lon="5.788307"><ele>326.44</ele><time>2025-05-25T05:26:55Z</time></trkpt>
<trkpt lat="50.13123" lon="5.78855"><ele>326.09</ele><time>2025-05-25T05:26:58Z</time></trkpt>
<trkpt lat="50.131311" lon="5.788747"><ele>325.65</ele><time>2025-05-25T05:27:01Z</time></trkpt>
<trkpt lat="50.131394" lon="5.788891"><ele>325.03</ele><time>2025-05-25T05:27:03Z</time></trkpt>
<trkpt lat="50.131483" lon="5.788995"><ele>325.84</ele><time>2025-05-25T05:27:06Z</time></trkpt>
<trkpt lat="50.1316" lon="5.789069"><ele>326.07</ele><time>2025-05-25T05:27:09Z</time></trkpt>
<trkpt lat="50.131724" lon="5.789112"><ele>326.37</ele><time>2025-05-25T05:27:11Z</time></trkpt>
<trkpt lat="50.132177" lon="5.789169"><ele>328.01</ele><time>2025-05-25T05:27:14Z</time></trkpt>
<trkpt lat="50.132264" lon="5.789268"><ele>328.46</ele><time>2025-05-25T05:27:17Z</time></trkpt>
<trkpt lat="50.132297" lon="5.789432"><ele>328.97</ele><time>2025-05-25T05:27:18Z</time></trkpt>
<trkpt lat="50.132288" lon="5.789548"><ele>329.0</ele><time>2025-05-25T05:27:19Z</time></trkpt>
<trkpt lat="50.132228" lon="5.789704"><ele>329.0</ele><time>2025-05-25T05:27:21Z</time></trkpt>
<trkpt lat="50.132169" lon="5.789778"><ele>329.04</ele><time>2025-05-25T05:27:22Z</time></trkpt>
<trkpt lat="50.131916" lon="5.789651"><ele>328.95</ele><time>2025-05-25T05:27:25Z</time></trkpt>
<trkpt lat="50.131842" lon="5.789652"><ele>328.81</ele><time>2025-05-25T05:27:29Z</time></trkpt>
<trkpt lat="50.131239" lon="5.789858"><ele>333.14</ele><time>2025-05-25T05:27:33Z</time></trkpt>
<trkpt lat="50.130955" lon="5.789936"><ele>337.35</ele><time>2025-05-25T05:27:37Z</time></trkpt>
<trkpt lat="50.130492" lon="5.790009"><ele>341.9</ele><time>2025-05-25T05:27:40Z</time></trkpt>
<trkpt lat="50.130177" lon="5.790158"><ele>341.23</ele><time>2025-05-25T05:27:44Z</time></trkpt>
<trkpt lat="50.129964" lon="5.790314"><ele>342.02</ele><time>2025-05-25T05:27:48Z</time></trkpt>
<trkpt lat="50.129828" lon="5.790444"><ele>342.42</ele><time>2025-05-25T05:27:52Z</time></trkpt>
<trkpt lat="50.129152" lon="5.790884"><ele>346.89</ele><time>2025-05-25T05:27:55Z</time></trkpt>
<trkpt lat="50.129032" lon="5.79103"><ele>347.67</ele><time>2025-05-25T05:27:59Z</time></trkpt>
<trkpt lat="50.127591" lon="5.793617"><ele>360.98</ele><time>2025-05-25T05:28:03Z</time></trkpt>
<trkpt lat="50.127353" lon="5.794179"><ele>364.18</ele><time>2025-05-25T05:28:07Z</time></trkpt>
<trkpt lat="50.127157" lon="5.794772"><ele>368.69</ele><time>2025-05-25T05:28:10Z</time></trkpt>
<trkpt lat="50.126987" lon="5.795463"><ele>371.01</ele><time>2025-05-25T05:28:14Z</time></trkpt>
<trkpt lat="50.126897" lon="5.796105"><ele>374.86</ele><time>2025-05-25T05:28:18Z</time></trkpt>
<trkpt lat="50.126866" lon="5.796447"><ele>376.52</ele><time>2025-05-25T05:28:22Z</time></trkpt>
<trkpt lat="50.126855" lon="5.796775"><ele>377.61</ele><time>2025-05-25T05:28:25Z</time></trkpt>
<trkpt lat="50.126897" lon="5.797277"><ele>377.48</ele><time>2025-05-25T05:28:29Z</time></trkpt>
<trkpt lat="50.126951" lon="5.797584"><ele>378.67</ele><time>2025-05-25T05:28:33Z</time></trkpt>
<trkpt lat="50.127064" lon="5.797958"><ele>376.38</ele><time>2025-05-25T05:28:37Z</time></trkpt>
<trkpt lat="50.127248" lon="5.798454"><ele>377.71</ele><time>2025-05-25T05:28:40Z</time></trkpt>
<trkpt lat="50.127351" lon="5.798688"><ele>378.56</ele><time>2025-05-25T05:28:44Z</time></trkpt>
<trkpt lat="50.127593" lon="5.799093"><ele>381.29</ele><time>2025-05-25T05:28:48Z</time></trkpt>
<trkpt lat="50.127811" lon="5.799337"><ele>383.35</ele><time>2025-05-25T05:28:52Z</time></trkpt>
<trkpt lat="50.127983" lon="5.799486"><ele>383.0</ele><time>2025-05-25T05:28:55Z</time></trkpt>
<trkpt lat="50.128612" lon="5.799756"><ele>379.61</ele><time>2025-05-25T05:28:59Z</time></trkpt>
<trkpt lat="50.128741" lon="5.799923"><ele>383.54</ele><time>2025-05-25T05:29:03Z</time></trkpt>
<trkpt lat="50.128788" lon="5.800026"><ele>385.3</ele><time>2025-05-25T05:29:07Z</time></trkpt>
<trkpt lat="50.128837" lon="5.800353"><ele>386.08</ele><time>2025-05-25T05:29:10Z</time></trkpt>
<trkpt lat="50.128826" lon="5.800504"><ele>386.59</ele><time>2025-05-25T05:29:14Z</time></trkpt>
<trkpt lat="50.12879" lon="5.800666"><ele>385.99</ele><time>2025-05-25T05:29:18Z</time></trkpt>
<trkpt lat="50.128684" lon="5.800866"><ele>384.77</ele><time>2025-05-25T05:29:22Z</time></trkpt>
<trkpt lat="50.128512" lon="5.800985"><ele>384.62</ele><time>2025-05-25T05:29:25Z</time></trkpt>
<trkpt lat="50.128422" lon="5.801001"><ele>385.15</ele><time>2025-05-25T05:29:29Z</time></trkpt>
<trkpt lat="50.127615" lon="5.800995"><ele>396.08</ele><time>2025-05-25T05:29:33Z</time></trkpt>
<trkpt lat="50.126945" lon="5.800915"><ele>399.54</ele><time>2025-05-25T05:29:37Z</time></trkpt>
<trkpt lat="50.126363" lon="5.800953"><ele>400.92</ele><time>2025-05-25T05:29:40Z</time></trkpt>
<trkpt lat="50.12593" lon="5.801083"><ele>404.05</ele><time>2025-05-25T05:29:44Z</time></trkpt>
<trkpt lat="50.125349" lon="5.801356"><ele>408.59</ele><time>2025-05-25T05:29:48Z</time></trkpt>
<trkpt lat="50.124916" lon="5.801505"><ele>413.32</ele><time>2025-05-25T05:29:52Z</time></trkpt>
<trkpt lat="50.124753" lon="5.8016"><ele>412.85</ele><time>2025-05-25T05:29:55Z</time></trkpt>
<trkpt lat="50.124582" lon="5.801741"><ele>410.9</ele><time>2025-05-25T05:29:59Z</time></trkpt>
<trkpt lat="50.124465" lon="5.80181"><ele>411.12</ele><time>2025-05-25T05:30:03Z</time></trkpt>
<trkpt lat="50.124342" lon="5.801827"><ele>411.48</ele><time>2025-05-25T05:30:07Z</time></trkpt>
<trkpt lat="50.124341" lon="5.801943"><ele>409.41</ele><time>2025-05-25T05:30:10Z</time></trkpt>
<trkpt lat="50.124299" lon="5.802038"><ele>407.68</ele><time>2025-05-25T05:30:13Z</time></trkpt>
<trkpt lat="50.124223" lon="5.802079"><ele>407.27</ele><time>2025-05-25T05:30:16Z</time></trkpt>
<trkpt lat="50.124097" lon="5.802073"><ele>407.19</ele><time>2025-05-25T05:30:19Z</time></trkpt>
<trkpt lat="50.123933" lon="5.801933"><ele>408.49</ele><time>2025-05-25T05:30:22Z</time></trkpt>
<trkpt lat="50.123481" lon="5.80143"><ele>408.21</ele><time>2025-05-25T05:30:25Z</time></trkpt>
<trkpt lat="50.12332" lon="5.801317"><ele>406.52</ele><time>2025-05-25T05:30:28Z</time></trkpt>
<trkpt lat="50.1229" lon="5.801081"><ele>402.8</ele><time>2025-05-25T05:30:32Z</time></trkpt>
<trkpt lat="50.122328" lon="5.800662"><ele>401.23</ele><time>2025-05-25T05:30:35Z</time></trkpt>
<trkpt lat="50.121614" lon="5.800218"><ele>395.73</ele><time>2025-05-25T05:30:38Z</time></trkpt>
<trkpt lat="50.121204" lon="5.799783"><ele>398.98</ele><time>2025-05-25T05:30:41Z</time></trkpt>
<trkpt lat="50.121069" lon="5.799705"><ele>398.83</ele><time>2025-05-25T05:30:44Z</time></trkpt>
<trkpt lat="50.120923" lon="5.799708"><ele>396.66</ele><time>2025-05-25T05:30:47Z</time></trkpt>
<trkpt lat="50.120751" lon="5.799759"><ele>393.47</ele><time>2025-05-25T05:30:50Z</time></trkpt>
<trkpt lat="50.120465" lon="5.799672"><ele>394.0</ele><time>2025-05-25T05:30:53Z</time></trkpt>
<trkpt lat="50.120379" lon="5.799674"><ele>393.7</ele><time>2025-05-25T05:30:56Z</time></trkpt>
<trkpt lat="50.120194" lon="5.799854"><ele>388.8</ele><time>2025-05-25T05:30:59Z</time></trkpt>
<trkpt lat="50.12008" lon="5.799922"><ele>387.66</ele><time>2025-05-25T05:31:03Z</time></trkpt>
<trkpt lat="50.119736" lon="5.800066"><ele>389.58</ele><time>2025-05-25T05:31:06Z</time></trkpt>
<trkpt lat="50.11953" lon="5.800257"><ele>387.16</ele><time>2025-05-25T05:31:09Z</time></trkpt>
<trkpt lat="50.119285" lon="5.800421"><ele>382.02</ele><time>2025-05-25T05:31:12Z</time></trkpt>
<trkpt lat="50.118735" lon="5.80045"><ele>381.24</ele><time>2025-05-25T05:31:15Z</time></trkpt>
<trkpt lat="50.118537" lon="5.800591"><ele>380.33</ele><time>2025-05-25T05:31:18Z</time></trkpt>
<trkpt lat="50.117657" lon="5.801395"><ele>381.76</ele><time>2025-05-25T05:31:21Z</time></trkpt>
<trkpt lat="50.117591" lon="5.80147"><ele>381.56</ele><time>2025-05-25T05:31:24Z</time></trkpt>
<trkpt lat="50.117477" lon="5.801693"><ele>381.02</ele><time>2025-05-25T05:31:27Z</time></trkpt>
<trkpt lat="50.117397" lon="5.802089"><ele>383.84</ele><time>2025-05-25T05:31:30Z</time></trkpt>
<trkpt lat="50.117375" lon="5.802278"><ele>385.14</ele><time>2025-05-25T05:31:33Z</time></trkpt>
<trkpt lat="50.117365" lon="5.80261"><ele>386.86</ele><time>2025-05-25T05:31:37Z</time></trkpt>
<trkpt lat="50.11739" lon="5.802923"><ele>388.93</ele><time>2025-05-25T05:31:40Z</time></trkpt>
<trkpt lat="50.117565" lon="5.80402"><ele>391.98</ele><time>2025-05-25T05:31:43Z</time></trkpt>
<trkpt lat="50.117591" lon="5.804289"><ele>389.5</ele><time>2025-05-25T05:31:46Z</time></trkpt>
<trkpt lat="50.117558" lon="5.804507"><ele>387.1</ele><time>2025-05-25T05:31:49Z</time></trkpt>
<trkpt lat="50.117485" lon="5.804655"><ele>385.84</ele><time>2025-05-25T05:31:52Z</time></trkpt>
<trkpt lat="50.117419" lon="5.80473"><ele>385.15</ele><time>2025-05-25T05:31:55Z</time></trkpt>
<trkpt lat="50.117273" lon="5.804807"><ele>383.6</ele><time>2025-05-25T05:31:58Z</time></trkpt>
<trkpt lat="50.11678" lon="5.804744"><ele>382.68</ele><time>2025-05-25T05:32:01Z</time></trkpt>
<trkpt lat="50.116582" lon="5.804784"><ele>383.82</ele><time>2025-05-25T05:32:04Z</time></trkpt>
<trkpt lat="50.116466" lon="5.804853"><ele>385.0</ele><time>2025-05-25T05:32:08Z</time></trkpt>
<trkpt lat="50.115854" lon="5.80545"><ele>394.15</ele><time>2025-05-25T05:32:11Z</time></trkpt>
<trkpt lat="50.115587" lon="5.805631"><ele>398.45</ele><time>2025-05-25T05:32:14Z</time></trkpt>
<trkpt lat="50.115344" lon="5.805667"><ele>400.52</ele><time>2025-05-25T05:32:17Z</time></trkpt>
<trkpt lat="50.115058" lon="5.805617"><ele>399.55</ele><time>2025-05-25T05:32:20Z</time></trkpt>
<trkpt lat="50.114382" lon="5.805349"><ele>395.72</ele><time>2025-05-25T05:32:23Z</time></trkpt>
<trkpt lat="50.114104" lon="5.805408"><ele>394.31</ele><time>2025-05-25T05:32:26Z</time></trkpt>
<trkpt lat="50.113859" lon="5.805564"><ele>392.71</ele><time>2025-05-25T05:32:29Z</time></trkpt>
<trkpt lat="50.113606" lon="5.805881"><ele>391.11</ele><time>2025-05-25T05:32:32Z</time></trkpt>
<trkpt lat="50.113368" lon="5.806369"><ele>387.62</ele><time>2025-05-25T05:32:35Z</time></trkpt>
<trkpt lat="50.113191" lon="5.806954"><ele>389.53</ele><time>2025-05-25T05:32:39Z</time></trkpt>
<trkpt lat="50.112945" lon="5.808542"><ele>394.42</ele><time>2025-05-25T05:32:42Z</time></trkpt>
<trkpt lat="50.112845" lon="5.808854"><ele>393.04</ele><time>2025-05-25T05:32:45Z</time></trkpt>
<trkpt lat="50.112767" lon="5.809044"><ele>391.93</ele><time>2025-05-25T05:32:48Z</time></trkpt>
<trkpt lat="50.112481" lon="5.809494"><ele>390.07</ele><time>2025-05-25T05:32:51Z</time></trkpt>
<trkpt lat="50.112201" lon="5.809868"><ele>387.85</ele><time>2025-05-25T05:32:54Z</time></trkpt>
<trkpt lat="50.112137" lon="5.809979"><ele>387.95</ele><time>2025-05-25T05:32:57Z</time></trkpt>
<trkpt lat="50.112078" lon="5.810175"><ele>388.37</ele><time>2025-05-25T05:33:00Z</time></trkpt>
<trkpt lat="50.112032" lon="5.810393"><ele>389.1</ele><time>2025-05-25T05:33:03Z</time></trkpt>
<trkpt lat="50.111972" lon="5.810995"><ele>392.63</ele><time>2025-05-25T05:33:06Z</time></trkpt>
<trkpt lat="50.112012" lon="5.811465"><ele>395.5</ele><time>2025-05-25T05:33:10Z</time></trkpt>
<trkpt lat="50.112193" lon="5.812117"><ele>400.26</ele><time>2025-05-25T05:33:13Z</time></trkpt>
<trkpt lat="50.11246" lon="5.812855"><ele>403.19</ele><time>2025-05-25T05:33:16Z</time></trkpt>
<trkpt lat="50.112593" lon="5.813418"><ele>403.65</ele><time>2025-05-25T05:33:19Z</time></trkpt>
<trkpt lat="50.112661" lon="5.814123"><ele>407.75</ele><time>2025-05-25T05:33:22Z</time></trkpt>
<trkpt lat="50.112625" lon="5.81476"><ele>407.73</ele><time>2025-05-25T05:33:25Z</time></trkpt>
<trkpt lat="50.112513" lon="5.815651"><ele>408.85</ele><time>2025-05-25T05:33:28Z</time></trkpt>
<trkpt lat="50.112524" lon="5.816055"><ele>411.86</ele><time>2025-05-25T05:33:31Z</time></trkpt>
<trkpt lat="50.112589" lon="5.816444"><ele>413.35</ele><time>2025-05-25T05:33:34Z</time></trkpt>
<trkpt lat="50.112708" lon="5.816901"><ele>415.74</ele><time>2025-05-25T05:33:37Z</time></trkpt>
<trkpt lat="50.113033" lon="5.817781"><ele>419.77</ele><time>2025-05-25T05:33:41Z</time></trkpt>
<trkpt lat="50.113063" lon="5.817935"><ele>420.69</ele><time>2025-05-25T05:33:44Z</time></trkpt>
<trkpt lat="50.113088" lon="5.818267"><ele>423.11</ele><time>2025-05-25T05:33:47Z</time></trkpt>
<trkpt lat="50.113085" lon="5.818432"><ele>423.53</ele><time>2025-05-25T05:33:50Z</time></trkpt>
<trkpt lat="50.112907" lon="5.819881"><ele>424.92</ele><time>2025-05-25T05:33:53Z</time></trkpt>
<trkpt lat="50.11291" lon="5.820178"><ele>426.02</ele><time>2025-05-25T05:33:56Z</time></trkpt>
<trkpt lat="50.113007" lon="5.821043"><ele>433.29</ele><time>2025-05-25T05:33:59Z</time></trkpt>
<trkpt lat="50.113027" lon="5.822064"><ele>433.52</ele><time>2025-05-25T05:34:02Z</time></trkpt>
<trkpt lat="50.113145" lon="5.823441"><ele>439.23</ele><time>2025-05-25T05:34:05Z</time></trkpt>
<trkpt lat="50.113152" lon="5.823675"><ele>440.07</ele><time>2025-05-25T05:34:08Z</time></trkpt>
<trkpt lat="50.113134" lon="5.823963"><ele>441.55</ele><time>2025-05-25T05:34:11Z</time></trkpt>
<trkpt lat="50.113075" lon="5.824272"><ele>442.8</ele><time>2025-05-25T05:34:15Z</time></trkpt>
<trkpt lat="50.112945" lon="5.824646"><ele>444.29</ele><time>2025-05-25T05:34:18Z</time></trkpt>
<trkpt lat="50.112777" lon="5.824946"><ele>445.8</ele><time>2025-05-25T05:34:21Z</time></trkpt>
<trkpt lat="50.112397" lon="5.82552"><ele>450.11</ele><time>2025-05-25T05:34:24Z</time></trkpt>
<trkpt lat="50.111101" lon="5.827462"><ele>454.83</ele><time>2025-05-25T05:34:27Z</time></trkpt>
<trkpt lat="50.110946" lon="5.827858"><ele>455.52</ele><time>2025-05-25T05:34:30Z</time></trkpt>
<trkpt lat="50.110838" lon="5.828306"><ele>455.93</ele><time>2025-05-25T05:34:33Z</time></trkpt>
<trkpt lat="50.110805" lon="5.828795"><ele>455.9</ele><time>2025-05-25T05:34:36Z</time></trkpt>
<trkpt lat="50.110915" lon="5.832119"><ele>450.66</ele><time>2025-05-25T05:34:39Z</time></trkpt>
<trkpt lat="50.11091" lon="5.832416"><ele>449.39</ele><time>2025-05-25T05:34:42Z</time></trkpt>
<trkpt lat="50.110881" lon="5.832782"><ele>446.97</ele><time>2025-05-25T05:34:46Z</time></trkpt>
<trkpt lat="50.110759" lon="5.833334"><ele>443.27</ele><time>2025-05-25T05:34:49Z</time></trkpt>
<trkpt lat="50.109941" lon="5.835696"><ele>436.0</ele><time>2025-05-25T05:34:52Z</time></trkpt>
<trkpt lat="50.109737" lon="5.836221"><ele>435.05</ele><time>2025-05-25T05:34:55Z</time></trkpt>
<trkpt lat="50.109513" lon="5.836644"><ele>433.39</ele><time>2025-05-25T05:34:58Z</time></trkpt>
<trkpt lat="50.109372" lon="5.836862"><ele>432.3</ele><time>2025-05-25T05:35:01Z</time></trkpt>
<trkpt lat="50.109171" lon="5.837118"><ele>430.76</ele><time>2025-05-25T05:35:04Z</time></trkpt>
<trkpt lat="50.108442" lon="5.837912"><ele>426.71</ele><time>2025-05-25T05:35:07Z</time></trkpt>
<trkpt lat="50.108016" lon="5.83826"><ele>424.83</ele><time>2025-05-25T05:35:10Z</time></trkpt>
<trkpt lat="50.107806" lon="5.838578"><ele>421.42</ele><time>2025-05-25T05:35:13Z</time></trkpt>
<trkpt lat="50.107688" lon="5.838872"><ele>420.35</ele><time>2025-05-25T05:35:17Z</time></trkpt>
<trkpt lat="50.107594" lon="5.839295"><ele>422.75</ele><time>2025-05-25T05:35:20Z</time></trkpt>
<trkpt lat="50.107562" lon="5.839632"><ele>425.46</ele><time>2025-05-25T05:35:23Z</time></trkpt>
<trkpt lat="50.107579" lon="5.840008"><ele>428.62</ele><time>2025-05-25T05:35:26Z</time></trkpt>
<trkpt lat="50.107821" lon="5.841212"><ele>429.53</ele><time>2025-05-25T05:35:29Z</time></trkpt>
<trkpt lat="50.107926" lon="5.841974"><ele>430.15</ele><time>2025-05-25T05:35:32Z</time></trkpt>
<trkpt lat="50.107989" lon="5.842708"><ele>433.41</ele><time>2025-05-25T05:35:35Z</time></trkpt>
<trkpt lat="50.108008" lon="5.843332"><ele>435.51</ele><time>2025-05-25T05:35:38Z</time></trkpt>
<trkpt lat="50.108" lon="5.843916"><ele>435.2</ele><time>2025-05-25T05:35:41Z</time></trkpt>
<trkpt lat="50.107949" lon="5.844518"><ele>435.64</ele><time>2025-05-25T05:35:44Z</time></trkpt>
<trkpt lat="50.107911" lon="5.844776"><ele>436.81</ele><time>2025-05-25T05:35:48Z</time></trkpt>
<trkpt lat="50.107307" lon="5.847705"><ele>448.35</ele><time>2025-05-25T05:35:51Z</time></trkpt>
<trkpt lat="50.107258" lon="5.84786"><ele>448.91</ele><time>2025-05-25T05:35:54Z</time></trkpt>
<trkpt lat="50.107185" lon="5.848007"><ele>449.13</ele><time>2025-05-25T05:35:57Z</time></trkpt>
<trkpt lat="50.107058" lon="5.848186"><ele>449.59</ele><time>2025-05-25T05:36:00Z</time></trkpt>
<trkpt lat="50.105415" lon="5.849443"><ele>446.03</ele><time>2025-05-25T05:36:03Z</time></trkpt>
<trkpt lat="50.105177" lon="5.849555"><ele>446.27</ele><time>2025-05-25T05:36:06Z</time></trkpt>
<trkpt lat="50.105042" lon="5.849587"><ele>447.08</ele><time>2025-05-25T05:36:09Z</time></trkpt>
<trkpt lat="50.104276" lon="5.849568"><ele>444.5</ele><time>2025-05-25T05:36:12Z</time></trkpt>
<trkpt lat="50.104088" lon="5.849582"><ele>444.15</ele><time>2025-05-25T05:36:15Z</time></trkpt>
<trkpt lat="50.103836" lon="5.849681"><ele>444.12</ele><time>2025-05-25T05:36:19Z</time></trkpt>
<trkpt lat="50.103633" lon="5.849861"><ele>443.5</ele><time>2025-05-25T05:36:22Z</time></trkpt>
<trkpt lat="50.103515" lon="5.850012"><ele>442.61</ele><time>2025-05-25T05:36:25Z</time></trkpt>
<trkpt lat="50.103415" lon="5.850198"><ele>441.58</ele><time>2025-05-25T05:36:28Z</time></trkpt>
<trkpt lat="50.103314" lon="5.850464"><ele>440.33</ele><time>2025-05-25T05:36:31Z</time></trkpt>
<trkpt lat="50.103262" lon="5.850675"><ele>440.0</ele><time>2025-05-25T05:36:34Z</time></trkpt>
<trkpt lat="50.102031" lon="5.857081"><ele>456.18</ele><time>2025-05-25T05:36:37Z</time></trkpt>
<trkpt lat="50.101846" lon="5.858047"><ele>457.36</ele><time>2025-05-25T05:36:40Z</time></trkpt>
<trkpt lat="50.10177" lon="5.858368"><ele>457.63</ele><time>2025-05-25T05:36:43Z</time></trkpt>
<trkpt lat="50.101684" lon="5.85867"><ele>457.95</ele><time>2025-05-25T05:36:46Z</time></trkpt>
<trkpt lat="50.101456" lon="5.859257"><ele>460.16</ele><time>2025-05-25T05:36:49Z</time></trkpt>
<trkpt lat="50.101325" lon="5.859514"><ele>460.6</ele><time>2025-05-25T05:36:53Z</time></trkpt>
<trkpt lat="50.101093" lon="5.859889"><ele>460.47</ele><time>2025-05-25T05:36:56Z</time></trkpt>
<trkpt lat="50.100278" lon="5.861012"><ele>461.0</ele><time>2025-05-25T05:36:59Z</time></trkpt>
<trkpt lat="50.09807" lon="5.864052"><ele>471.5</ele><time>2025-05-25T05:37:02Z</time></trkpt>
<trkpt lat="50.097799" lon="5.86448"><ele>469.08</ele><time>2025-05-25T05:37:05Z</time></trkpt>
<trkpt lat="50.097606" lon="5.864881"><ele>468.16</ele><time>2025-05-25T05:37:08Z</time></trkpt>
<trkpt lat="50.097411" lon="5.865377"><ele>467.36</ele><time>2025-05-25T05:37:11Z</time></trkpt>
<trkpt lat="50.097286" lon="5.865804"><ele>466.25</ele><time>2025-05-25T05:37:14Z</time></trkpt>
<trkpt lat="50.097071" lon="5.866833"><ele>471.14</ele><time>2025-05-25T05:37:17Z</time></trkpt>
<trkpt lat="50.097035" lon="5.866954"><ele>471.73</ele><time>2025-05-25T05:37:20Z</time></trkpt>
<trkpt lat="50.096953" lon="5.867107"><ele>473.12</ele><time>2025-05-25T05:37:24Z</time></trkpt>
<trkpt lat="50.097174" lon="5.867652"><ele>471.89</ele><time>2025-05-25T05:37:28Z</time></trkpt>
<trkpt lat="50.097356" lon="5.868341"><ele>470.01</ele><time>2025-05-25T05:37:33Z</time></trkpt>
<trkpt lat="50.097566" lon="5.869762"><ele>461.8</ele><time>2025-05-25T05:37:37Z</time></trkpt>
<trkpt lat="50.097613" lon="5.869992"><ele>461.99</ele><time>2025-05-25T05:37:41Z</time></trkpt>
<trkpt lat="50.097753" lon="5.870501"><ele>464.03</ele><time>2025-05-25T05:37:46Z</time></trkpt>
<trkpt lat="50.100824" lon="5.878918"><ele>460.07</ele><time>2025-05-25T05:37:50Z</time></trkpt>
<trkpt lat="50.10091" lon="5.879123"><ele>459.45</ele><time>2025-05-25T05:37:55Z</time></trkpt>
<trkpt lat="50.101042" lon="5.879326"><ele>459.07</ele><time>2025-05-25T05:37:59Z</time></trkpt>
<trkpt lat="50.101219" lon="5.879502"><ele>458.74</ele><time>2025-05-25T05:38:04Z</time></trkpt>
<trkpt lat="50.101574" lon="5.879681"><ele>457.33</ele><time>2025-05-25T05:38:08Z</time></trkpt>
<trkpt lat="50.101708" lon="5.879785"><ele>457.34</ele><time>2025-05-25T05:38:12Z</time></trkpt>
<trkpt lat="50.101779" lon="5.879867"><ele>457.71</ele><time>2025-05-25T05:38:17Z</time></trkpt>
<trkpt lat="50.101857" lon="5.880005"><ele>458.02</ele><time>2025-05-25T05:38:21Z</time></trkpt>
<trkpt lat="50.102377" lon="5.881213"><ele>463.44</ele><time>2025-05-25T05:38:26Z</time></trkpt>
<trkpt lat="50.103196" lon="5.882756"><ele>464.91</ele><time>2025-05-25T05:38:30Z</time></trkpt>
<trkpt lat="50.103286" lon="5.882998"><ele>465.14</ele><time>2025-05-25T05:38:35Z</time></trkpt>
<trkpt lat="50.103375" lon="5.883422"><ele>466.17</ele><time>2025-05-25T05:38:39Z</time></trkpt>
<trkpt lat="50.103434" lon="5.884"><ele>468.68</ele><time>2025-05-25T05:38:44Z</time></trkpt>
<trkpt lat="50.10353" lon="5.884455"><ele>470.61</ele><time>2025-05-25T05:38:48Z</time></trkpt>
<trkpt lat="50.104668" lon="5.887756"><ele>471.92</ele><time>2025-05-25T05:38:52Z</time></trkpt>
<trkpt lat="50.104707" lon="5.887971"><ele>472.73</ele><time>2025-05-25T05:38:57Z</time></trkpt>
<trkpt lat="50.104714" lon="5.888095"><ele>473.31</ele><time>2025-05-25T05:39:01Z</time></trkpt>
<trkpt lat="50.104697" lon="5.888296"><ele>474.82</ele><time>2025-05-25T05:39:06Z</time></trkpt>
<trkpt lat="50.104475" lon="5.889332"><ele>472.81</ele><time>2025-05-25T05:39:10Z</time></trkpt>
<trkpt lat="50.104385" lon="5.8899"><ele>472.93</ele><time>2025-05-25T05:39:15Z</time></trkpt>
<trkpt lat="50.104348" lon="5.890595"><ele>476.09</ele><time>2025-05-25T05:39:19Z</time></trkpt>
<trkpt lat="50.104373" lon="5.891117"><ele>478.49</ele><time>2025-05-25T05:39:23Z</time></trkpt>
<trkpt lat="50.104623" lon="5.894203"><ele>485.13</ele><time>2025-05-25T05:39:28Z</time></trkpt>
<trkpt lat="50.104611" lon="5.894426"><ele>485.93</ele><time>2025-05-25T05:39:32Z</time></trkpt>
<trkpt lat="50.104582" lon="5.894635"><ele>486.0</ele><time>2025-05-25T05:39:37Z</time></trkpt>
<trkpt lat="50.104475" lon="5.895041"><ele>487.02</ele><time>2025-05-25T05:39:41Z</time></trkpt>
<trkpt lat="50.104168" lon="5.896122"><ele>491.05</ele><time>2025-05-25T05:39:46Z</time></trkpt>
<trkpt lat="50.10412" lon="5.896418"><ele>492.02</ele><time>2025-05-25T05:39:50Z</time></trkpt>
<trkpt lat="50.104093" lon="5.89666"><ele>493.43</ele><time>2025-05-25T05:39:55Z</time></trkpt>
<trkpt lat="50.103951" lon="5.898748"><ele>494.39</ele><time>2025-05-25T05:39:59Z</time></trkpt>
<trkpt lat="50.10394" lon="5.899212"><ele>493.35</ele><time>2025-05-25T05:40:03Z</time></trkpt>
<trkpt lat="50.103994" lon="5.900693"><ele>488.21</ele><time>2025-05-25T05:40:08Z</time></trkpt>
<trkpt lat="50.104003" lon="5.901285"><ele>487.21</ele><time>2025-05-25T05:40:12Z</time></trkpt>
<trkpt lat="50.103994" lon="5.901804"><ele>485.71</ele><time>2025-05-25T05:40:17Z</time></trkpt>
<trkpt lat="50.10385" lon="5.904548"><ele>482.05</ele><time>2025-05-25T05:40:21Z</time></trkpt>
<trkpt lat="50.103845" lon="5.905241"><ele>483.16</ele><time>2025-05-25T05:40:26Z</time></trkpt>
<trkpt lat="50.103947" lon="5.909103"><ele>472.39</ele><time>2025-05-25T05:40:30Z</time></trkpt>
<trkpt lat="50.103873" lon="5.911204"><ele>472.94</ele><time>2025-05-25T05:40:34Z</time></trkpt>
<trkpt lat="50.103926" lon="5.912129"><ele>471.2</ele><time>2025-05-25T05:40:39Z</time></trkpt>
<trkpt lat="50.103976" lon="5.91257"><ele>470.94</ele><time>2025-05-25T05:40:43Z</time></trkpt>
<trkpt lat="50.104114" lon="5.913328"><ele>469.4</ele><time>2025-05-25T05:40:48Z</time></trkpt>
<trkpt lat="50.104239" lon="5.914285"><ele>469.33</ele><time>2025-05-25T05:40:52Z</time></trkpt>
<trkpt lat="50.104352" lon="5.915002"><ele>470.0</ele><time>2025-05-25T05:40:57Z</time></trkpt>
<trkpt lat="50.104431" lon="5.915414"><ele>469.46</ele><time>2025-05-25T05:41:01Z</time></trkpt>
<trkpt lat="50.105008" lon="5.917814"><ele>472.97</ele><time>2025-05-25T05:41:06Z</time></trkpt>
<trkpt lat="50.105073" lon="5.918235"><ele>472.73</ele><time>2025-05-25T05:41:10Z</time></trkpt>
<trkpt lat="50.105098" lon="5.918547"><ele>473.42</ele><time>2025-05-25T05:41:14Z</time></trkpt>
<trkpt lat="50.105085" lon="5.919049"><ele>475.27</ele><time>2025-05-25T05:41:19Z</time></trkpt>
<trkpt lat="50.104624" lon="5.921851"><ele>473.77</ele><time>2025-05-25T05:41:23Z</time></trkpt>
<trkpt lat="50.104481" lon="5.923181"><ele>469.55</ele><time>2025-05-25T05:41:28Z</time></trkpt>
<trkpt lat="50.104378" lon="5.924608"><ele>467.31</ele><time>2025-05-25T05:41:32Z</time></trkpt>
<trkpt lat="50.104321" lon="5.925104"><ele>466.24</ele><time>2025-05-25T05:41:37Z</time></trkpt>
<trkpt lat="50.104266" lon="5.925421"><ele>465.77</ele><time>2025-05-25T05:41:41Z</time></trkpt>
<trkpt lat="50.104183" lon="5.925822"><ele>464.98</ele><time>2025-05-25T05:41:46Z</time></trkpt>
<trkpt lat="50.103963" lon="5.926673"><ele>459.52</ele><time>2025-05-25T05:41:50Z</time></trkpt>
<trkpt lat="50.103748" lon="5.927371"><ele>456.42</ele><time>2025-05-25T05:41:54Z</time></trkpt>
<trkpt lat="50.103405" lon="5.928286"><ele>452.44</ele><time>2025-05-25T05:41:59Z</time></trkpt>
<trkpt lat="50.103353" lon="5.928525"><ele>451.45</ele><time>2025-05-25T05:42:03Z</time></trkpt>
<trkpt lat="50.103334" lon="5.928794"><ele>449.67</ele><time>2025-05-25T05:42:08Z</time></trkpt>
<trkpt lat="50.103401" lon="5.930019"><ele>444.5</ele><time>2025-05-25T05:42:12Z</time></trkpt>
<trkpt lat="50.103402" lon="5.930867"><ele>443.17</ele><time>2025-05-25T05:42:17Z</time></trkpt>
<trkpt lat="50.103345" lon="5.93295"><ele>437.28</ele><time>2025-05-25T05:42:21Z</time></trkpt>
<trkpt lat="50.103352" lon="5.933201"><ele>435.86</ele><time>2025-05-25T05:42:25Z</time></trkpt>
<trkpt lat="50.103383" lon="5.93343"><ele>435.17</ele><time>2025-05-25T05:42:30Z</time></trkpt>
<trkpt lat="50.103463" lon="5.933735"><ele>436.42</ele><time>2025-05-25T05:42:34Z</time></trkpt>
<trkpt lat="50.103731" lon="5.934264"><ele>439.9</ele><time>2025-05-25T05:42:39Z</time></trkpt>
<trkpt lat="50.103847" lon="5.93461"><ele>441.74</ele><time>2025-05-25T05:42:43Z</time></trkpt>
<trkpt lat="50.103893" lon="5.934862"><ele>442.5</ele><time>2025-05-25T05:42:48Z</time></trkpt>
<trkpt lat="50.104012" lon="5.935913"><ele>444.27</ele><time>2025-05-25T05:42:52Z</time></trkpt>
<trkpt lat="50.104109" lon="5.937462"><ele>449.1</ele><time>2025-05-25T05:42:57Z</time></trkpt>
<trkpt lat="50.104119" lon="5.938354"><ele>451.83</ele><time>2025-05-25T05:43:01Z</time></trkpt>
<trkpt lat="50.10408" lon="5.93892"><ele>451.31</ele><time>2025-05-25T05:43:05Z</time></trkpt>
<trkpt lat="50.103943" lon="5.939663"><ele>452.79</ele><time>2025-05-25T05:43:10Z</time></trkpt>
<trkpt lat="50.103929" lon="5.939882"><ele>453.58</ele><time>2025-05-25T05:43:14Z</time></trkpt>
<trkpt lat="50.103946" lon="5.941015"><ele>456.07</ele><time>2025-05-25T05:43:19Z</time></trkpt>
<trkpt lat="50.103965" lon="5.941317"><ele>457.08</ele><time>2025-05-25T05:43:23Z</time></trkpt>
<trkpt lat="50.10407" lon="5.942084"><ele>458.85</ele><time>2025-05-25T05:43:28Z</time></trkpt>
<trkpt lat="50.104283" lon="5.942754"><ele>459.49</ele><time>2025-05-25T05:43:32Z</time></trkpt>
<trkpt lat="50.10431" lon="5.942945"><ele>460.08</ele><time>2025-05-25T05:43:36Z</time></trkpt>
<trkpt lat="50.104303" lon="5.943089"><ele>460.63</ele><time>2025-05-25T05:43:41Z</time></trkpt>
<trkpt lat="50.10426" lon="5.943257"><ele>461.39</ele><time>2025-05-25T05:43:45Z</time></trkpt>
<trkpt lat="50.104203" lon="5.943379"><ele>462.04</ele><time>2025-05-25T05:43:50Z</time></trkpt>
<trkpt lat="50.104111" lon="5.943481"><ele>462.23</ele><time>2025-05-25T05:43:54Z</time></trkpt>
<trkpt lat="50.10353" lon="5.943847"><ele>460.14</ele><time>2025-05-25T05:43:59Z</time></trkpt>
<trkpt lat="50.103415" lon="5.943966"><ele>461.26</ele><time>2025-05-25T05:44:03Z</time></trkpt>
<trkpt lat="50.103365" lon="5.944097"><ele>462.38</ele><time>2025-05-25T05:44:08Z</time></trkpt>
<trkpt lat="50.103351" lon="5.944203"><ele>463.19</ele><time>2025-05-25T05:44:12Z</time></trkpt>
<trkpt lat="50.103362" lon="5.944354"><ele>464.24</ele><time>2025-05-25T05:44:16Z</time></trkpt>
<trkpt lat="50.103598" lon="5.945173"><ele>468.62</ele><time>2025-05-25T05:44:21Z</time></trkpt>
<trkpt lat="50.103708" lon="5.945498"><ele>470.94</ele><time>2025-05-25T05:44:25Z</time></trkpt>
<trkpt lat="50.103872" lon="5.945879"><ele>471.95</ele><time>2025-05-25T05:44:30Z</time></trkpt>
<trkpt lat="50.104012" lon="5.94627"><ele>472.25</ele><time>2025-05-25T05:44:34Z</time></trkpt>
<trkpt lat="50.104114" lon="5.946614"><ele>473.62</ele><time>2025-05-25T05:44:39Z</time></trkpt>
<trkpt lat="50.104248" lon="5.947117"><ele>475.21</ele><time>2025-05-25T05:44:43Z</time></trkpt>
<trkpt lat="50.10461" lon="5.948267"><ele>476.69</ele><time>2025-05-25T05:44:47Z</time></trkpt>
<trkpt lat="50.105298" lon="5.950009"><ele>478.93</ele><time>2025-05-25T05:44:52Z</time></trkpt>
<trkpt lat="50.105568" lon="5.950793"><ele>478.0</ele><time>2025-05-25T05:44:56Z</time></trkpt>
<trkpt lat="50.106212" lon="5.952986"><ele>479.52</ele><time>2025-05-25T05:45:01Z</time></trkpt>
<trkpt lat="50.106796" lon="5.955089"><ele>478.61</ele><time>2025-05-25T05:45:05Z</time></trkpt>
<trkpt lat="50.107354" lon="5.956704"><ele>478.47</ele><time>2025-05-25T05:45:10Z</time></trkpt>
<trkpt lat="50.107518" lon="5.957255"><ele>479.2</ele><time>2025-05-25T05:45:14Z</time></trkpt>
<trkpt lat="50.107547" lon="5.957419"><ele>479.51</ele><time>2025-05-25T05:45:19Z</time></trkpt>
<trkpt lat="50.107589" lon="5.957857"><ele>480.64</ele><time>2025-05-25T05:45:23Z</time></trkpt>
<trkpt lat="50.107767" lon="5.960242"><ele>485.92</ele><time>2025-05-25T05:45:27Z</time></trkpt>
<trkpt lat="50.108571" lon="5.966523"><ele>490.0</ele><time>2025-05-25T05:45:32Z</time></trkpt>
<trkpt lat="50.110261" lon="5.976357"><ele>482.93</ele><time>2025-05-25T05:45:36Z</time></trkpt>
<trkpt lat="50.110391" lon="5.976823"><ele>481.25</ele><time>2025-05-25T05:45:41Z</time></trkpt>
<trkpt lat="50.110928" lon="5.978302"><ele>477.02</ele><time>2025-05-25T05:45:45Z</time></trkpt>
<trkpt lat="50.111067" lon="5.978753"><ele>475.66</ele><time>2025-05-25T05:45:50Z</time></trkpt>
<trkpt lat="50.111179" lon="5.979289"><ele>474.91</ele><time>2025-05-25T05:45:54Z</time></trkpt>
<trkpt lat="50.109525" lon="5.978044"><ele>474.3</ele><time>2025-05-25T05:46:04Z</time></trkpt>
<trkpt lat="50.109254" lon="5.977865"><ele>472.84</ele><time>2025-05-25T05:46:14Z</time></trkpt>
<trkpt lat="50.108766" lon="5.977589"><ele>470.62</ele><time>2025-05-25T05:46:23Z</time></trkpt>
<trkpt lat="50.108426" lon="5.977362"><ele>472.33</ele><time>2025-05-25T05:46:33Z</time></trkpt>
<trkpt lat="50.107199" lon="5.976468"><ele>473.55</ele><time>2025-05-25T05:46:43Z</time></trkpt>
<trkpt lat="50.106857" lon="5.97625"><ele>472.5</ele><time>2025-05-25T05:46:53Z</time></trkpt>
<trkpt lat="50.106016" lon="5.975782"><ele>473.04</ele><time>2025-05-25T05:47:03Z</time></trkpt>
<trkpt lat="50.104785" lon="5.975228"><ele>473.36</ele><time>2025-05-25T05:47:12Z</time></trkpt>
<trkpt lat="50.104651" lon="5.975191"><ele>472.86</ele><time>2025-05-25T05:47:22Z</time></trkpt>
<trkpt lat="50.104494" lon="5.975225"><ele>470.91</ele><time>2025-05-25T05:47:32Z</time></trkpt>
<trkpt lat="50.104146" lon="5.975111"><ele>468.53</ele><time>2025-05-25T05:47:41Z</time></trkpt>
<trkpt lat="50.103021" lon="5.975011"><ele>469.08</ele><time>2025-05-25T05:47:49Z</time></trkpt>
<trkpt lat="50.10227" lon="5.974943"><ele>472.2</ele><time>2025-05-25T05:47:57Z</time></trkpt>
<trkpt lat="50.10202" lon="5.974874"><ele>470.67</ele><time>2025-05-25T05:48:06Z</time></trkpt>
<trkpt lat="50.101617" lon="5.974681"><ele>468.17</ele><time>2025-05-25T05:48:14Z</time></trkpt>
<trkpt lat="50.101504" lon="5.974607"><ele>468.66</ele><time>2025-05-25T05:48:23Z</time></trkpt>
<trkpt lat="50.101252" lon="5.974387"><ele>470.7</ele><time>2025-05-25T05:48:31Z</time></trkpt>
<trkpt lat="50.101034" lon="5.974142"><ele>472.28</ele><time>2025-05-25T05:48:39Z</time></trkpt>
<trkpt lat="50.098684" lon="5.971216"><ele>475.11</ele><time>2025-05-25T05:48:48Z</time></trkpt>
<trkpt lat="50.097437" lon="5.973106"><ele>480.59</ele><time>2025-05-25T05:48:51Z</time></trkpt>
<trkpt lat="50.09711" lon="5.973485"><ele>477.86</ele><time>2025-05-25T05:48:55Z</time></trkpt>
<trkpt lat="50.096709" lon="5.973843"><ele>474.47</ele><time>2025-05-25T05:48:59Z</time></trkpt>
<trkpt lat="50.096509" lon="5.974079"><ele>472.48</ele><time>2025-05-25T05:49:02Z</time></trkpt>
<trkpt lat="50.095741" lon="5.974677"><ele>466.39</ele><time>2025-05-25T05:49:06Z</time></trkpt>
<trkpt lat="50.095539" lon="5.974779"><ele>466.35</ele><time>2025-05-25T05:49:09Z</time></trkpt>
<trkpt lat="50.095303" lon="5.974792"><ele>465.59</ele><time>2025-05-25T05:49:13Z</time></trkpt>
<trkpt lat="50.095154" lon="5.974747"><ele>465.22</ele><time>2025-05-25T05:49:17Z</time></trkpt>
<trkpt lat="50.094952" lon="5.974593"><ele>463.78</ele><time>2025-05-25T05:49:20Z</time></trkpt>
<trkpt lat="50.094729" lon="5.974384"><ele>462.76</ele><time>2025-05-25T05:49:24Z</time></trkpt>
<trkpt lat="50.094589" lon="5.974295"><ele>461.72</ele><time>2025-05-25T05:49:27Z</time></trkpt>
<trkpt lat="50.094465" lon="5.974264"><ele>460.82</ele><time>2025-05-25T05:49:31Z</time></trkpt>
<trkpt lat="50.094246" lon="5.974299"><ele>458.8</ele><time>2025-05-25T05:49:34Z</time></trkpt>
<trkpt lat="50.094127" lon="5.974375"><ele>457.67</ele><time>2025-05-25T05:49:38Z</time></trkpt>
<trkpt lat="50.093999" lon="5.974492"><ele>455.54</ele><time>2025-05-25T05:49:42Z</time></trkpt>
<trkpt lat="50.093819" lon="5.974729"><ele>453.02</ele><time>2025-05-25T05:49:45Z</time></trkpt>
<trkpt lat="50.093324" lon="5.975466"><ele>449.63</ele><time>2025-05-25T05:49:49Z</time></trkpt>
<trkpt lat="50.092941" lon="5.975941"><ele>448.49</ele><time>2025-05-25T05:49:52Z</time></trkpt>
<trkpt lat="50.092756" lon="5.976119"><ele>448.87</ele><time>2025-05-25T05:49:56Z</time></trkpt>
<trkpt lat="50.091616" lon="5.977088"><ele>441.57</ele><time>2025-05-25T05:50:00Z</time></trkpt>
<trkpt lat="50.091361" lon="5.97738"><ele>439.7</ele><time>2025-05-25T05:50:03Z</time></trkpt>
<trkpt lat="50.091122" lon="5.977828"><ele>437.15</ele><time>2025-05-25T05:50:07Z</time></trkpt>
<trkpt lat="50.09095" lon="5.978311"><ele>435.98</ele><time>2025-05-25T05:50:10Z</time></trkpt>
<trkpt lat="50.090879" lon="5.978594"><ele>436.0</ele><time>2025-05-25T05:50:14Z</time></trkpt>
<trkpt lat="50.090831" lon="5.978925"><ele>436.03</ele><time>2025-05-25T05:50:17Z</time></trkpt>
<trkpt lat="50.090815" lon="5.979204"><ele>435.98</ele><time>2025-05-25T05:50:21Z</time></trkpt>
<trkpt lat="50.090828" lon="5.9797"><ele>435.0</ele><time>2025-05-25T05:50:25Z</time></trkpt>
<trkpt lat="50.090889" lon="5.980105"><ele>434.7</ele><time>2025-05-25T05:50:28Z</time></trkpt>
<trkpt lat="50.090951" lon="5.980334"><ele>434.22</ele><time>2025-05-25T05:50:32Z</time></trkpt>
<trkpt lat="50.092117" lon="5.983844"><ele>412.02</ele><time>2025-05-25T05:50:35Z</time></trkpt>
<trkpt lat="50.092373" lon="5.984414"><ele>410.39</ele><time>2025-05-25T05:50:39Z</time></trkpt>
<trkpt lat="50.092561" lon="5.98472"><ele>410.67</ele><time>2025-05-25T05:50:43Z</time></trkpt>
<trkpt lat="50.092781" lon="5.985028"><ele>409.84</ele><time>2025-05-25T05:50:46Z</time></trkpt>
<trkpt lat="50.093925" lon="5.986211"><ele>407.78</ele><time>2025-05-25T05:50:50Z</time></trkpt>
<trkpt lat="50.093997" lon="5.986332"><ele>408.03</ele><time>2025-05-25T05:50:53Z</time></trkpt>
<trkpt lat="50.094835" lon="5.987139"><ele>409.49</ele><time>2025-05-25T05:50:56Z</time></trkpt>
<trkpt lat="50.095077" lon="5.987434"><ele>408.87</ele><time>2025-05-25T05:50:58Z</time></trkpt>
<trkpt lat="50.095314" lon="5.987821"><ele>410.57</ele><time>2025-05-25T05:51:01Z</time></trkpt>
<trkpt lat="50.095539" lon="5.988242"><ele>410.89</ele><time>2025-05-25T05:51:03Z</time></trkpt>
<trkpt lat="50.095726" lon="5.988748"><ele>410.14</ele><time>2025-05-25T05:51:05Z</time></trkpt>
<trkpt lat="50.095856" lon="5.989184"><ele>409.54</ele><time>2025-05-25T05:51:08Z</time></trkpt>
<trkpt lat="50.095938" lon="5.989604"><ele>409.21</ele><time>2025-05-25T05:51:10Z</time></trkpt>
<trkpt lat="50.096038" lon="5.990355"><ele>410.41</ele><time>2025-05-25T05:51:13Z</time></trkpt>
<trkpt lat="50.096088" lon="5.991251"><ele>409.32</ele><time>2025-05-25T05:51:15Z</time></trkpt>
<trkpt lat="50.096084" lon="5.9917"><ele>409.45</ele><time>2025-05-25T05:51:17Z</time></trkpt>
<trkpt lat="50.096063" lon="5.992132"><ele>410.47</ele><time>2025-05-25T05:51:20Z</time></trkpt>
<trkpt lat="50.09592" lon="5.994374"><ele>409.35</ele><time>2025-05-25T05:51:22Z</time></trkpt>
<trkpt lat="50.095924" lon="5.994614"><ele>409.67</ele><time>2025-05-25T05:51:25Z</time></trkpt>
<trkpt lat="50.095954" lon="5.994887"><ele>409.39</ele><time>2025-05-25T05:51:27Z</time></trkpt>
<trkpt lat="50.096032" lon="5.995241"><ele>406.89</ele><time>2025-05-25T05:51:29Z</time></trkpt>
<trkpt lat="50.096188" lon="5.995646"><ele>403.19</ele><time>2025-05-25T05:51:32Z</time></trkpt>
<trkpt lat="50.096344" lon="5.995911"><ele>402.82</ele><time>2025-05-25T05:51:34Z</time></trkpt>
<trkpt lat="50.096439" lon="5.996039"><ele>402.52</ele><time>2025-05-25T05:51:37Z</time></trkpt>
<trkpt lat="50.096684" lon="5.996273"><ele>402.1</ele><time>2025-05-25T05:51:39Z</time></trkpt>
<trkpt lat="50.097082" lon="5.996508"><ele>400.51</ele><time>2025-05-25T05:51:41Z</time></trkpt>
<trkpt lat="50.097269" lon="5.996578"><ele>398.64</ele><time>2025-05-25T05:51:44Z</time></trkpt>
<trkpt lat="50.097497" lon="5.996637"><ele>395.14</ele><time>2025-05-25T05:51:46Z</time></trkpt>
<trkpt lat="50.097865" lon="5.99666"><ele>392.05</ele><time>2025-05-25T05:51:49Z</time></trkpt>
<trkpt lat="50.098549" lon="5.996703"><ele>393.0</ele><time>2025-05-25T05:51:51Z</time></trkpt>
<trkpt lat="50.098598" lon="5.996731"><ele>393.0</ele><time>2025-05-25T05:51:53Z</time></trkpt>
<trkpt lat="50.09862" lon="5.996848"><ele>392.97</ele><time>2025-05-25T05:51:56Z</time></trkpt>
<trkpt lat="50.098587" lon="5.99759"><ele>393.06</ele><time>2025-05-25T05:51:58Z</time></trkpt>
<trkpt lat="50.098554" lon="5.997923"><ele>393.51</ele><time>2025-05-25T05:52:01Z</time></trkpt>
<trkpt lat="50.098521" lon="5.998171"><ele>394.11</ele><time>2025-05-25T05:52:03Z</time></trkpt>
<trkpt lat="50.098407" lon="5.998684"><ele>394.67</ele><time>2025-05-25T05:52:05Z</time></trkpt>
<trkpt lat="50.098285" lon="5.999072"><ele>393.48</ele><time>2025-05-25T05:52:08Z</time></trkpt>
<trkpt lat="50.097876" lon="6.00036"><ele>397.33</ele><time>2025-05-25T05:52:10Z</time></trkpt>
<trkpt lat="50.097761" lon="6.000836"><ele>402.83</ele><time>2025-05-25T05:52:12Z</time></trkpt>
<trkpt lat="50.097636" lon="6.001551"><ele>404.4</ele><time>2025-05-25T05:52:15Z</time></trkpt>
<trkpt lat="50.097591" lon="6.002034"><ele>402.56</ele><time>2025-05-25T05:52:17Z</time></trkpt>
<trkpt lat="50.097508" lon="6.003595"><ele>401.73</ele><time>2025-05-25T05:52:20Z</time></trkpt>
<trkpt lat="50.097489" lon="6.004552"><ele>395.41</ele><time>2025-05-25T05:52:22Z</time></trkpt>
<trkpt lat="50.097514" lon="6.005122"><ele>393.83</ele><time>2025-05-25T05:52:24Z</time></trkpt>
<trkpt lat="50.097615" lon="6.006523"><ele>396.5</ele><time>2025-05-25T05:52:27Z</time></trkpt>
<trkpt lat="50.097597" lon="6.006938"><ele>399.17</ele><time>2025-05-25T05:52:29Z</time></trkpt>
<trkpt lat="50.097548" lon="6.007259"><ele>403.32</ele><time>2025-05-25T05:52:31Z</time></trkpt>
<trkpt lat="50.097464" lon="6.007593"><ele>404.32</ele><time>2025-05-25T05:52:34Z</time></trkpt>
<trkpt lat="50.09724" lon="6.008198"><ele>400.5</ele><time>2025-05-25T05:52:36Z</time></trkpt>
<trkpt lat="50.097133" lon="6.008626"><ele>396.8</ele><time>2025-05-25T05:52:39Z</time></trkpt>
<trkpt lat="50.097076" lon="6.008976"><ele>394.28</ele><time>2025-05-25T05:52:41Z</time></trkpt>
<trkpt lat="50.096968" lon="6.01029"><ele>398.02</ele><time>2025-05-25T05:52:43Z</time></trkpt>
<trkpt lat="50.096909" lon="6.01071"><ele>397.37</ele><time>2025-05-25T05:52:46Z</time></trkpt>
<trkpt lat="50.096802" lon="6.011189"><ele>396.71</ele><time>2025-05-25T05:52:48Z</time></trkpt>
<trkpt lat="50.096692" lon="6.011549"><ele>396.79</ele><time>2025-05-25T05:52:50Z</time></trkpt>
<trkpt lat="50.095313" lon="6.015255"><ele>390.75</ele><time>2025-05-25T05:52:53Z</time></trkpt>
<trkpt lat="50.095225" lon="6.015626"><ele>389.73</ele><time>2025-05-25T05:52:55Z</time></trkpt>
<trkpt lat="50.095169" lon="6.015994"><ele>387.63</ele><time>2025-05-25T05:52:57Z</time></trkpt>
<trkpt lat="50.09514" lon="6.016318"><ele>387.73</ele><time>2025-05-25T05:53:00Z</time></trkpt>
<trkpt lat="50.095129" lon="6.016694"><ele>390.19</ele><time>2025-05-25T05:53:02Z</time></trkpt>
<trkpt lat="50.095141" lon="6.01694"><ele>393.85</ele><time>2025-05-25T05:53:05Z</time></trkpt>
<trkpt lat="50.095177" lon="6.017242"><ele>397.04</ele><time>2025-05-25T05:53:07Z</time></trkpt>
<trkpt lat="50.095244" lon="6.017512"><ele>398.06</ele><time>2025-05-25T05:53:09Z</time></trkpt>
<trkpt lat="50.095345" lon="6.017832"><ele>398.82</ele><time>2025-05-25T05:53:12Z</time></trkpt>
<trkpt lat="50.09545" lon="6.018084"><ele>397.35</ele><time>2025-05-25T05:53:14Z</time></trkpt>
<trkpt lat="50.095596" lon="6.018342"><ele>394.26</ele><time>2025-05-25T05:53:16Z</time></trkpt>
<trkpt lat="50.096104" lon="6.019"><ele>390.46</ele><time>2025-05-25T05:53:19Z</time></trkpt>
<trkpt lat="50.096313" lon="6.019302"><ele>388.04</ele><time>2025-05-25T05:53:21Z</time></trkpt>
<trkpt lat="50.096444" lon="6.019663"><ele>386.43</ele><time>2025-05-25T05:53:24Z</time></trkpt>
<trkpt lat="50.096503" lon="6.019939"><ele>386.31</ele><time>2025-05-25T05:53:26Z</time></trkpt>
<trkpt lat="50.096527" lon="6.020268"><ele>385.52</ele><time>2025-05-25T05:53:28Z</time></trkpt>
<trkpt lat="50.096523" lon="6.020429"><ele>385.01</ele><time>2025-05-25T05:53:31Z</time></trkpt>
<trkpt lat="50.096483" lon="6.020727"><ele>383.96</ele><time>2025-05-25T05:53:33Z</time></trkpt>
<trkpt lat="50.096442" lon="6.020888"><ele>383.22</ele><time>2025-05-25T05:53:35Z</time></trkpt>
<trkpt lat="50.096308" lon="6.021216"><ele>382.68</ele><time>2025-05-25T05:53:38Z</time></trkpt>
<trkpt lat="50.095878" lon="6.022105"><ele>381.29</ele><time>2025-05-25T05:53:40Z</time></trkpt>
<trkpt lat="50.095694" lon="6.022527"><ele>381.64</ele><time>2025-05-25T05:53:43Z</time></trkpt>
<trkpt lat="50.095556" lon="6.022888"><ele>383.2</ele><time>2025-05-25T05:53:45Z</time></trkpt>
<trkpt lat="50.095253" lon="6.023762"><ele>386.14</ele><time>2025-05-25T05:53:47Z</time></trkpt>
<trkpt lat="50.095199" lon="6.023952"><ele>387.02</ele><time>2025-05-25T05:53:50Z</time></trkpt>
<trkpt lat="50.095158" lon="6.024185"><ele>388.29</ele><time>2025-05-25T05:53:52Z</time></trkpt>
<trkpt lat="50.095134" lon="6.02451"><ele>389.77</ele><time>2025-05-25T05:53:54Z</time></trkpt>
<trkpt lat="50.095128" lon="6.025195"><ele>388.32</ele><time>2025-05-25T05:53:57Z</time></trkpt>
<trkpt lat="50.095052" lon="6.025766"><ele>382.25</ele><time>2025-05-25T05:53:59Z</time></trkpt>
<trkpt lat="50.095047" lon="6.025932"><ele>381.33</ele><time>2025-05-25T05:54:02Z</time></trkpt>
<trkpt lat="50.095082" lon="6.026248"><ele>380.92</ele><time>2025-05-25T05:54:04Z</time></trkpt>
<trkpt lat="50.095217" lon="6.026166"><ele>384.8</ele><time>2025-05-25T05:54:06Z</time></trkpt>
<trkpt lat="50.095408" lon="6.026154"><ele>392.72</ele><time>2025-05-25T05:54:08Z</time></trkpt>
<trkpt lat="50.096986" lon="6.026824"><ele>395.24</ele><time>2025-05-25T05:54:10Z</time></trkpt>
<trkpt lat="50.097581" lon="6.02712"><ele>388.81</ele><time>2025-05-25T05:54:12Z</time></trkpt>
<trkpt lat="50.09818" lon="6.02734"><ele>397.28</ele><time>2025-05-25T05:54:14Z</time></trkpt>
<trkpt lat="50.09855" lon="6.027539"><ele>402.66</ele><time>2025-05-25T05:54:16Z</time></trkpt>
<trkpt lat="50.098788" lon="6.027756"><ele>403.69</ele><time>2025-05-25T05:54:18Z</time></trkpt>
<trkpt lat="50.098969" lon="6.027959"><ele>404.54</ele><time>2025-05-25T05:54:20Z</time></trkpt>
<trkpt lat="50.09917" lon="6.028222"><ele>405.09</ele><time>2025-05-25T05:54:22Z</time></trkpt>
<trkpt lat="50.099284" lon="6.028414"><ele>404.47</ele><time>2025-05-25T05:54:24Z</time></trkpt>
<trkpt lat="50.099472" lon="6.028796"><ele>402.05</ele><time>2025-05-25T05:54:26Z</time></trkpt>
<trkpt lat="50.099617" lon="6.02919"><ele>403.21</ele><time>2025-05-25T05:54:28Z</time></trkpt>
<trkpt lat="50.099728" lon="6.029574"><ele>403.8</ele><time>2025-05-25T05:54:30Z</time></trkpt>
<trkpt lat="50.100011" lon="6.03078"><ele>407.49</ele><time>2025-05-25T05:54:32Z</time></trkpt>
<trkpt lat="50.100143" lon="6.03113"><ele>413.12</ele><time>2025-05-25T05:54:34Z</time></trkpt>
<trkpt lat="50.100357" lon="6.031534"><ele>415.97</ele><time>2025-05-25T05:54:36Z</time></trkpt>
<trkpt lat="50.100569" lon="6.031818"><ele>415.69</ele><time>2025-05-25T05:54:38Z</time></trkpt>
<trkpt lat="50.101377" lon="6.032603"><ele>411.52</ele><time>2025-05-25T05:54:40Z</time></trkpt>
<trkpt lat="50.101546" lon="6.032795"><ele>409.76</ele><time>2025-05-25T05:54:42Z</time></trkpt>
<trkpt lat="50.101673" lon="6.032997"><ele>410.83</ele><time>2025-05-25T05:54:44Z</time></trkpt>
<trkpt lat="50.101796" lon="6.03322"><ele>411.83</ele><time>2025-05-25T05:54:46Z</time></trkpt>
<trkpt lat="50.101949" lon="6.033661"><ele>412.56</ele><time>2025-05-25T05:54:48Z</time></trkpt>
<trkpt lat="50.102178" lon="6.034647"><ele>410.6</ele><time>2025-05-25T05:54:50Z</time></trkpt>
<trkpt lat="50.102335" lon="6.035152"><ele>412.77</ele><time>2025-05-25T05:54:52Z</time></trkpt>
<trkpt lat="50.102415" lon="6.035342"><ele>412.67</ele><time>2025-05-25T05:54:54Z</time></trkpt>
<trkpt lat="50.102621" lon="6.035758"><ele>410.17</ele><time>2025-05-25T05:54:57Z</time></trkpt>
<trkpt lat="50.102762" lon="6.035981"><ele>407.4</ele><time>2025-05-25T05:54:59Z</time></trkpt>
<trkpt lat="50.103441" lon="6.036835"><ele>412.84</ele><time>2025-05-25T05:55:01Z</time></trkpt>
<trkpt lat="50.103518" lon="6.036944"><ele>414.0</ele><time>2025-05-25T05:55:03Z</time></trkpt>
<trkpt lat="50.103629" lon="6.037198"><ele>413.86</ele><time>2025-05-25T05:55:05Z</time></trkpt>
<trkpt lat="50.103712" lon="6.03747"><ele>413.79</ele><time>2025-05-25T05:55:07Z</time></trkpt>
<trkpt lat="50.103758" lon="6.037712"><ele>412.42</ele><time>2025-05-25T05:55:09Z</time></trkpt>
<trkpt lat="50.103876" lon="6.038747"><ele>414.46</ele><time>2025-05-25T05:55:11Z</time></trkpt>
<trkpt lat="50.103935" lon="6.039076"><ele>415.32</ele><time>2025-05-25T05:55:13Z</time></trkpt>
<trkpt lat="50.104034" lon="6.039537"><ele>412.53</ele><time>2025-05-25T05:55:15Z</time></trkpt>
<trkpt lat="50.104132" lon="6.039908"><ele>410.04</ele><time>2025-05-25T05:55:17Z</time></trkpt>
<trkpt lat="50.104196" lon="6.040081"><ele>409.8</ele><time>2025-05-25T05:55:19Z</time></trkpt>
<trkpt lat="50.104268" lon="6.040197"><ele>410.98</ele><time>2025-05-25T05:55:21Z</time></trkpt>
<trkpt lat="50.104409" lon="6.040367"><ele>411.05</ele><time>2025-05-25T05:55:23Z</time></trkpt>
<trkpt lat="50.10454" lon="6.040457"><ele>411.08</ele><time>2025-05-25T05:55:25Z</time></trkpt>
<trkpt lat="50.104632" lon="6.040492"><ele>411.26</ele><time>2025-05-25T05:55:27Z</time></trkpt>
<trkpt lat="50.104724" lon="6.04051"><ele>411.64</ele><time>2025-05-25T05:55:29Z</time></trkpt>
<trkpt lat="50.105116" lon="6.040464"><ele>416.28</ele><time>2025-05-25T05:55:31Z</time></trkpt>
<trkpt lat="50.105354" lon="6.040467"><ele>419.16</ele><time>2025-05-25T05:55:33Z</time></trkpt>
<trkpt lat="50.105945" lon="6.040535"><ele>419.8</ele><time>2025-05-25T05:55:35Z</time></trkpt>
<trkpt lat="50.106093" lon="6.040573"><ele>417.74</ele><time>2025-05-25T05:55:37Z</time></trkpt>
<trkpt lat="50.106274" lon="6.040663"><ele>416.13</ele><time>2025-05-25T05:55:39Z</time></trkpt>
<trkpt lat="50.106465" lon="6.040803"><ele>416.42</ele><time>2025-05-25T05:55:41Z</time></trkpt>
<trkpt lat="50.106693" lon="6.041073"><ele>415.42</ele><time>2025-05-25T05:55:43Z</time></trkpt>
<trkpt lat="50.106861" lon="6.041346"><ele>414.11</ele><time>2025-05-25T05:55:45Z</time></trkpt>
<trkpt lat="50.107183" lon="6.042037"><ele>417.96</ele><time>2025-05-25T05:55:47Z</time></trkpt>
<trkpt lat="50.107432" lon="6.042445"><ele>422.9</ele><time>2025-05-25T05:55:49Z</time></trkpt>
<trkpt lat="50.108191" lon="6.043522"><ele>429.16</ele><time>2025-05-25T05:55:51Z</time></trkpt>
<trkpt lat="50.109041" lon="6.044829"><ele>423.95</ele><time>2025-05-25T05:55:53Z</time></trkpt>
<trkpt lat="50.109204" lon="6.045002"><ele>423.0</ele><time>2025-05-25T05:55:55Z</time></trkpt>
<trkpt lat="50.109452" lon="6.045178"><ele>423.03</ele><time>2025-05-25T05:55:57Z</time></trkpt>
<trkpt lat="50.109625" lon="6.045264"><ele>423.65</ele><time>2025-05-25T05:55:59Z</time></trkpt>
<trkpt lat="50.1098" lon="6.045258"><ele>424.28</ele><time>2025-05-25T05:56:01Z</time></trkpt>
<trkpt lat="50.109909" lon="6.045194"><ele>424.67</ele><time>2025-05-25T05:56:03Z</time></trkpt>
<trkpt lat="50.10998" lon="6.045108"><ele>424.93</ele><time>2025-05-25T05:56:05Z</time></trkpt>
<trkpt lat="50.110149" lon="6.044818"><ele>422.71</ele><time>2025-05-25T05:56:07Z</time></trkpt>
<trkpt lat="50.110329" lon="6.045467"><ele>419.2</ele><time>2025-05-25T05:56:10Z</time></trkpt>
<trkpt lat="50.110397" lon="6.04577"><ele>419.44</ele><time>2025-05-25T05:56:13Z</time></trkpt>
<trkpt lat="50.110514" lon="6.046472"><ele>423.63</ele><time>2025-05-25T05:56:16Z</time></trkpt>
<trkpt lat="50.110658" lon="6.047564"><ele>434.64</ele><time>2025-05-25T05:56:19Z</time></trkpt>
<trkpt lat="50.110829" lon="6.048665"><ele>437.21</ele><time>2025-05-25T05:56:23Z</time></trkpt>
<trkpt lat="50.110936" lon="6.049136"><ele>438.27</ele><time>2025-05-25T05:56:26Z</time></trkpt>
<trkpt lat="50.111051" lon="6.049516"><ele>440.44</ele><time>2025-05-25T05:56:29Z</time></trkpt>
<trkpt lat="50.111433" lon="6.05065"><ele>447.29</ele><time>2025-05-25T05:56:32Z</time></trkpt>
<trkpt lat="50.111479" lon="6.050879"><ele>447.95</ele><time>2025-05-25T05:56:35Z</time></trkpt>
<trkpt lat="50.1115" lon="6.051125"><ele>449.2</ele><time>2025-05-25T05:56:38Z</time></trkpt>
<trkpt lat="50.1115" lon="6.051321"><ele>449.2</ele><time>2025-05-25T05:56:41Z</time></trkpt>
<trkpt lat="50.111463" lon="6.05164"><ele>449.23</ele><time>2025-05-25T05:56:44Z</time></trkpt>
<trkpt lat="50.111187" lon="6.053001"><ele>456.5</ele><time>2025-05-25T05:56:47Z</time></trkpt>
<trkpt lat="50.11115" lon="6.053505"><ele>459.51</ele><time>2025-05-25T05:56:50Z</time></trkpt>
<trkpt lat="50.111175" lon="6.053892"><ele>460.4</ele><time>2025-05-25T05:56:53Z</time></trkpt>
<trkpt lat="50.111507" lon="6.055631"><ele>451.73</ele><time>2025-05-25T05:56:56Z</time></trkpt>
<trkpt lat="50.111546" lon="6.055987"><ele>452.42</ele><time>2025-05-25T05:56:59Z</time></trkpt>
<trkpt lat="50.111545" lon="6.056484"><ele>454.24</ele><time>2025-05-25T05:57:02Z</time></trkpt>
<trkpt lat="50.111471" lon="6.056991"><ele>456.57</ele><time>2025-05-25T05:57:05Z</time></trkpt>
<trkpt lat="50.111115" lon="6.058177"><ele>455.12</ele><time>2025-05-25T05:57:08Z</time></trkpt>
<trkpt lat="50.110696" lon="6.059011"><ele>455.78</ele><time>2025-05-25T05:57:11Z</time></trkpt>
<trkpt lat="50.110642" lon="6.059243"><ele>455.6</ele><time>2025-05-25T05:57:14Z</time></trkpt>
<trkpt lat="50.110643" lon="6.059433"><ele>455.38</ele><time>2025-05-25T05:57:17Z</time></trkpt>
<trkpt lat="50.110814" lon="6.060703"><ele>460.22</ele><time>2025-05-25T05:57:20Z</time></trkpt>
<trkpt lat="50.111013" lon="6.06294"><ele>481.56</ele><time>2025-05-25T05:57:23Z</time></trkpt>
<trkpt lat="50.111021" lon="6.063632"><ele>478.62</ele><time>2025-05-25T05:57:26Z</time></trkpt>
<trkpt lat="50.111002" lon="6.06393"><ele>477.91</ele><time>2025-05-25T05:57:29Z</time></trkpt>
<trkpt lat="50.110884" lon="6.06473"><ele>478.29</ele><time>2025-05-25T05:57:32Z</time></trkpt>
<trkpt lat="50.110327" lon="6.066808"><ele>483.15</ele><time>2025-05-25T05:57:35Z</time></trkpt>
<trkpt lat="50.110251" lon="6.067026"><ele>484.75</ele><time>2025-05-25T05:57:38Z</time></trkpt>
<trkpt lat="50.109745" lon="6.067895"><ele>487.5</ele><time>2025-05-25T05:57:41Z</time></trkpt>
<trkpt lat="50.109586" lon="6.068216"><ele>486.62</ele><time>2025-05-25T05:57:44Z</time></trkpt>
<trkpt lat="50.108773" lon="6.070164"><ele>492.42</ele><time>2025-05-25T05:57:47Z</time></trkpt>
<trkpt lat="50.108629" lon="6.07058"><ele>492.0</ele><time>2025-05-25T05:57:50Z</time></trkpt>
<trkpt lat="50.108529" lon="6.071019"><ele>492.2</ele><time>2025-05-25T05:57:54Z</time></trkpt>
<trkpt lat="50.108057" lon="6.074151"><ele>501.01</ele><time>2025-05-25T05:57:57Z</time></trkpt>
<trkpt lat="50.107808" lon="6.076307"><ele>504.11</ele><time>2025-05-25T05:58:00Z</time></trkpt>
<trkpt lat="50.107694" lon="6.076708"><ele>505.45</ele><time>2025-05-25T05:58:03Z</time></trkpt>
<trkpt lat="50.107601" lon="6.076918"><ele>506.54</ele><time>2025-05-25T05:58:06Z</time></trkpt>
<trkpt lat="50.107436" lon="6.0772"><ele>508.13</ele><time>2025-05-25T05:58:09Z</time></trkpt>
<trkpt lat="50.10723" lon="6.07743"><ele>509.72</ele><time>2025-05-25T05:58:12Z</time></trkpt>
<trkpt lat="50.106669" lon="6.077931"><ele>516.09</ele><time>2025-05-25T05:58:15Z</time></trkpt>
<trkpt lat="50.106567" lon="6.078054"><ele>516.63</ele><time>2025-05-25T05:58:18Z</time></trkpt>
<trkpt lat="50.106471" lon="6.078204"><ele>517.74</ele><time>2025-05-25T05:58:21Z</time></trkpt>
<trkpt lat="50.106035" lon="6.079134"><ele>519.76</ele><time>2025-05-25T05:58:24Z</time></trkpt>
<trkpt lat="50.105897" lon="6.079391"><ele>522.43</ele><time>2025-05-25T05:58:27Z</time></trkpt>
<trkpt lat="50.105786" lon="6.079538"><ele>523.34</ele><time>2025-05-25T05:58:30Z</time></trkpt>
<trkpt lat="50.105613" lon="6.079687"><ele>524.59</ele><time>2025-05-25T05:58:33Z</time></trkpt>
<trkpt lat="50.105244" lon="6.079854"><ele>525.11</ele><time>2025-05-25T05:58:36Z</time></trkpt>
<trkpt lat="50.103811" lon="6.080424"><ele>533.08</ele><time>2025-05-25T05:58:39Z</time></trkpt>
<trkpt lat="50.103421" lon="6.080682"><ele>535.37</ele><time>2025-05-25T05:58:42Z</time></trkpt>
<trkpt lat="50.101554" lon="6.082338"><ele>529.93</ele><time>2025-05-25T05:58:45Z</time></trkpt>
<trkpt lat="50.101436" lon="6.082485"><ele>529.06</ele><time>2025-05-25T05:58:48Z</time></trkpt>
<trkpt lat="50.101345" lon="6.082648"><ele>527.86</ele><time>2025-05-25T05:58:51Z</time></trkpt>
<trkpt lat="50.101109" lon="6.083186"><ele>527.0</ele><time>2025-05-25T05:58:54Z</time></trkpt>
<trkpt lat="50.101052" lon="6.083361"><ele>527.0</ele><time>2025-05-25T05:58:57Z</time></trkpt>
<trkpt lat="50.101018" lon="6.083518"><ele>527.0</ele><time>2025-05-25T05:59:00Z</time></trkpt>
<trkpt lat="50.101003" lon="6.08385"><ele>527.86</ele><time>2025-05-25T05:59:03Z</time></trkpt>
<trkpt lat="50.101086" lon="6.084254"><ele>528.03</ele><time>2025-05-25T05:59:06Z</time></trkpt>
<trkpt lat="50.10154" lon="6.083895"><ele>526.44</ele><time>2025-05-25T05:59:10Z</time></trkpt>
<trkpt lat="50.10211" lon="6.083557"><ele>527.19</ele><time>2025-05-25T05:59:14Z</time></trkpt>
<trkpt lat="50.102803" lon="6.083289"><ele>530.41</ele><time>2025-05-25T05:59:18Z</time></trkpt>
<trkpt lat="50.103337" lon="6.083178"><ele>531.13</ele><time>2025-05-25T05:59:22Z</time></trkpt>
<trkpt lat="50.103842" lon="6.08316"><ele>535.11</ele><time>2025-05-25T05:59:26Z</time></trkpt>
<trkpt lat="50.104507" lon="6.083234"><ele>537.92</ele><time>2025-05-25T05:59:29Z</time></trkpt>
<trkpt lat="50.104744" lon="6.083295"><ele>537.64</ele><time>2025-05-25T05:59:33Z</time></trkpt>
<trkpt lat="50.105265" lon="6.08349"><ele>533.48</ele><time>2025-05-25T05:59:37Z</time></trkpt>
<trkpt lat="50.105839" lon="6.083784"><ele>532.74</ele><time>2025-05-25T05:59:41Z</time></trkpt>
<trkpt lat="50.106376" lon="6.084143"><ele>532.04</ele><time>2025-05-25T05:59:45Z</time></trkpt>
<trkpt lat="50.106751" lon="6.08443"><ele>530.09</ele><time>2025-05-25T05:59:49Z</time></trkpt>
<trkpt lat="50.107738" lon="6.085287"><ele>529.99</ele><time>2025-05-25T05:59:53Z</time></trkpt>
<trkpt lat="50.10857" lon="6.086009"><ele>524.59</ele><time>2025-05-25T05:59:56Z</time></trkpt>
<trkpt lat="50.109189" lon="6.086503"><ele>519.33</ele><time>2025-05-25T06:00:00Z</time></trkpt>
<trkpt lat="50.10965" lon="6.086814"><ele>518.79</ele><time>2025-05-25T06:00:04Z</time></trkpt>
<trkpt lat="50.110145" lon="6.087091"><ele>518.01</ele><time>2025-05-25T06:00:08Z</time></trkpt>
<trkpt lat="50.11062" lon="6.087308"><ele>516.77</ele><time>2025-05-25T06:00:12Z</time></trkpt>
<trkpt lat="50.111371" lon="6.087557"><ele>514.46</ele><time>2025-05-25T06:00:16Z</time></trkpt>
<trkpt lat="50.111498" lon="6.088294"><ele>515.61</ele><time>2025-05-25T06:00:36Z</time></trkpt>
<trkpt lat="50.111949" lon="6.088743"><ele>514.53</ele><time>2025-05-25T06:00:40Z</time></trkpt>
<trkpt lat="50.112408" lon="6.089117"><ele>513.85</ele><time>2025-05-25T06:00:43Z</time></trkpt>
<trkpt lat="50.113022" lon="6.089549"><ele>514.83</ele><time>2025-05-25T06:00:46Z</time></trkpt>
<trkpt lat="50.113356" lon="6.089931"><ele>516.43</ele><time>2025-05-25T06:00:50Z</time></trkpt>
<trkpt lat="50.11397" lon="6.090949"><ele>520.05</ele><time>2025-05-25T06:00:53Z</time></trkpt>
<trkpt lat="50.114215" lon="6.091293"><ele>523.24</ele><time>2025-05-25T06:00:56Z</time></trkpt>
<trkpt lat="50.114948" lon="6.091905"><ele>528.81</ele><time>2025-05-25T06:01:00Z</time></trkpt>
<trkpt lat="50.11536" lon="6.092284"><ele>529.41</ele><time>2025-05-25T06:01:03Z</time></trkpt>
<trkpt lat="50.116155" lon="6.092916"><ele>526.61</ele><time>2025-05-25T06:01:07Z</time></trkpt>
<trkpt lat="50.116732" lon="6.093266"><ele>521.94</ele><time>2025-05-25T06:01:10Z</time></trkpt>
<trkpt lat="50.116936" lon="6.093204"><ele>521.55</ele><time>2025-05-25T06:01:13Z</time></trkpt>
<trkpt lat="50.117072" lon="6.093389"><ele>521.91</ele><time>2025-05-25T06:01:16Z</time></trkpt>
<trkpt lat="50.117215" lon="6.093539"><ele>521.28</ele><time>2025-05-25T06:01:19Z</time></trkpt>
<trkpt lat="50.117445" lon="6.09369"><ele>519.06</ele><time>2025-05-25T06:01:22Z</time></trkpt>
<trkpt lat="50.117706" lon="6.093809"><ele>517.12</ele><time>2025-05-25T06:01:24Z</time></trkpt>
<trkpt lat="50.118176" lon="6.094131"><ele>514.57</ele><time>2025-05-25T06:01:27Z</time></trkpt>
<trkpt lat="50.118568" lon="6.094515"><ele>514.74</ele><time>2025-05-25T06:01:30Z</time></trkpt>
<trkpt lat="50.119278" lon="6.095396"><ele>512.06</ele><time>2025-05-25T06:01:33Z</time></trkpt>
<trkpt lat="50.119581" lon="6.095843"><ele>513.4</ele><time>2025-05-25T06:01:36Z</time></trkpt>
<trkpt lat="50.119899" lon="6.096363"><ele>512.39</ele><time>2025-05-25T06:01:38Z</time></trkpt>
<trkpt lat="50.120296" lon="6.097076"><ele>512.07</ele><time>2025-05-25T06:01:41Z</time></trkpt>
<trkpt lat="50.120723" lon="6.097939"><ele>509.79</ele><time>2025-05-25T06:01:44Z</time></trkpt>
<trkpt lat="50.121965" lon="6.101075"><ele>509.0</ele><time>2025-05-25T06:01:47Z</time></trkpt>
<trkpt lat="50.122538" lon="6.102424"><ele>505.73</ele><time>2025-05-25T06:01:50Z</time></trkpt>
<trkpt lat="50.123547" lon="6.104424"><ele>504.07</ele><time>2025-05-25T06:01:53Z</time></trkpt>
<trkpt lat="50.123823" lon="6.104878"><ele>503.87</ele><time>2025-05-25T06:01:55Z</time></trkpt>
<trkpt lat="50.123932" lon="6.105114"><ele>503.19</ele><time>2025-05-25T06:01:58Z</time></trkpt>
<trkpt lat="50.123965" lon="6.105253"><ele>502.52</ele><time>2025-05-25T06:02:01Z</time></trkpt>
<trkpt lat="50.123968" lon="6.10555"><ele>501.45</ele><time>2025-05-25T06:02:04Z</time></trkpt>
<trkpt lat="50.123934" lon="6.105918"><ele>500.11</ele><time>2025-05-25T06:02:07Z</time></trkpt>
<trkpt lat="50.123877" lon="6.10628"><ele>496.66</ele><time>2025-05-25T06:02:09Z</time></trkpt>
<trkpt lat="50.123607" lon="6.107448"><ele>488.19</ele><time>2025-05-25T06:02:12Z</time></trkpt>
<trkpt lat="50.12356" lon="6.107757"><ele>485.98</ele><time>2025-05-25T06:02:15Z</time></trkpt>
<trkpt lat="50.123528" lon="6.10819"><ele>485.22</ele><time>2025-05-25T06:02:18Z</time></trkpt>
<trkpt lat="50.123386" lon="6.108601"><ele>482.08</ele><time>2025-05-25T06:02:21Z</time></trkpt>
<trkpt lat="50.123377" lon="6.108687"><ele>481.41</ele><time>2025-05-25T06:02:23Z</time></trkpt>
<trkpt lat="50.12339" lon="6.108849"><ele>480.11</ele><time>2025-05-25T06:02:26Z</time></trkpt>
<trkpt lat="50.123448" lon="6.10899"><ele>479.01</ele><time>2025-05-25T06:02:29Z</time></trkpt>
<trkpt lat="50.123522" lon="6.109064"><ele>478.49</ele><time>2025-05-25T06:02:32Z</time></trkpt>
<trkpt lat="50.123715" lon="6.109098"><ele>478.24</ele><time>2025-05-25T06:02:35Z</time></trkpt>
<trkpt lat="50.124047" lon="6.109216"><ele>477.07</ele><time>2025-05-25T06:02:37Z</time></trkpt>
<trkpt lat="50.124448" lon="6.109437"><ele>476.02</ele><time>2025-05-25T06:02:40Z</time></trkpt>
<trkpt lat="50.124577" lon="6.109529"><ele>475.69</ele><time>2025-05-25T06:02:43Z</time></trkpt>
<trkpt lat="50.124729" lon="6.109698"><ele>475.14</ele><time>2025-05-25T06:02:46Z</time></trkpt>
<trkpt lat="50.12495" lon="6.110124"><ele>475.19</ele><time>2025-05-25T06:02:49Z</time></trkpt>
<trkpt lat="50.124985" lon="6.110235"><ele>475.05</ele><time>2025-05-25T06:02:51Z</time></trkpt>
<trkpt lat="50.125016" lon="6.11045"><ele>474.52</ele><time>2025-05-25T06:02:54Z</time></trkpt>
<trkpt lat="50.125008" lon="6.110884"><ele>472.88</ele><time>2025-05-25T06:02:57Z</time></trkpt>
<trkpt lat="50.125032" lon="6.111084"><ele>472.33</ele><time>2025-05-25T06:03:00Z</time></trkpt>
<trkpt lat="50.125104" lon="6.111326"><ele>472.75</ele><time>2025-05-25T06:03:03Z</time></trkpt>
<trkpt lat="50.125439" lon="6.11204"><ele>476.66</ele><time>2025-05-25T06:03:05Z</time></trkpt>
<trkpt lat="50.12553" lon="6.112291"><ele>478.61</ele><time>2025-05-25T06:03:08Z</time></trkpt>
<trkpt lat="50.126298" lon="6.115434"><ele>475.13</ele><time>2025-05-25T06:03:11Z</time></trkpt>
<trkpt lat="50.126428" lon="6.115797"><ele>472.54</ele><time>2025-05-25T06:03:14Z</time></trkpt>
<trkpt lat="50.126972" lon="6.116691"><ele>470.93</ele><time>2025-05-25T06:03:17Z</time></trkpt>
<trkpt lat="50.127081" lon="6.116931"><ele>470.05</ele><time>2025-05-25T06:03:20Z</time></trkpt>
<trkpt lat="50.127172" lon="6.117189"><ele>469.6</ele><time>2025-05-25T06:03:22Z</time></trkpt>
<trkpt lat="50.12748" lon="6.118472"><ele>464.18</ele><time>2025-05-25T06:03:25Z</time></trkpt>
<trkpt lat="50.127597" lon="6.118805"><ele>462.84</ele><time>2025-05-25T06:03:28Z</time></trkpt>
<trkpt lat="50.128569" lon="6.120873"><ele>451.57</ele><time>2025-05-25T06:03:31Z</time></trkpt>
<trkpt lat="50.12874" lon="6.121301"><ele>446.73</ele><time>2025-05-25T06:03:34Z</time></trkpt>
<trkpt lat="50.128821" lon="6.121571"><ele>443.13</ele><time>2025-05-25T06:03:36Z</time></trkpt>
<trkpt lat="50.128925" lon="6.122045"><ele>439.8</ele><time>2025-05-25T06:03:39Z</time></trkpt>
<trkpt lat="50.128954" lon="6.122286"><ele>438.66</ele><time>2025-05-25T06:03:42Z</time></trkpt>
<trkpt lat="50.128957" lon="6.122749"><ele>435.94</ele><time>2025-05-25T06:03:45Z</time></trkpt>
<trkpt lat="50.128893" lon="6.123295"><ele>433.17</ele><time>2025-05-25T06:03:48Z</time></trkpt>
<trkpt lat="50.128941" lon="6.123595"><ele>432.43</ele><time>2025-05-25T06:03:50Z</time></trkpt>
<trkpt lat="50.129025" lon="6.123937"><ele>431.23</ele><time>2025-05-25T06:03:53Z</time></trkpt>
<trkpt lat="50.129077" lon="6.124275"><ele>429.22</ele><time>2025-05-25T06:03:56Z</time></trkpt>
<trkpt lat="50.129204" lon="6.125743"><ele>422.92</ele><time>2025-05-25T06:03:59Z</time></trkpt>
<trkpt lat="50.12921" lon="6.126098"><ele>421.94</ele><time>2025-05-25T06:04:02Z</time></trkpt>
<trkpt lat="50.129188" lon="6.126511"><ele>421.1</ele><time>2025-05-25T06:04:04Z</time></trkpt>
<trkpt lat="50.129146" lon="6.126851"><ele>420.49</ele><time>2025-05-25T06:04:07Z</time></trkpt>
<trkpt lat="50.129091" lon="6.127108"><ele>419.37</ele><time>2025-05-25T06:04:10Z</time></trkpt>
<trkpt lat="50.129021" lon="6.127318"><ele>418.17</ele><time>2025-05-25T06:04:13Z</time></trkpt>
<trkpt lat="50.128941" lon="6.127478"><ele>416.45</ele><time>2025-05-25T06:04:16Z</time></trkpt>
<trkpt lat="50.128745" lon="6.127724"><ele>415.26</ele><time>2025-05-25T06:04:18Z</time></trkpt>
<trkpt lat="50.128445" lon="6.127928"><ele>418.1</ele><time>2025-05-25T06:04:21Z</time></trkpt>
<trkpt lat="50.128371" lon="6.128012"><ele>418.66</ele><time>2025-05-25T06:04:24Z</time></trkpt>
<trkpt lat="50.128287" lon="6.128145"><ele>419.36</ele><time>2025-05-25T06:04:27Z</time></trkpt>
<trkpt lat="50.128238" lon="6.128303"><ele>419.86</ele><time>2025-05-25T06:04:30Z</time></trkpt>
<trkpt lat="50.128175" lon="6.128634"><ele>417.85</ele><time>2025-05-25T06:04:32Z</time></trkpt>
<trkpt lat="50.128155" lon="6.128899"><ele>415.3</ele><time>2025-05-25T06:04:35Z</time></trkpt>
<trkpt lat="50.128165" lon="6.129205"><ele>412.1</ele><time>2025-05-25T06:04:38Z</time></trkpt>
<trkpt lat="50.128283" lon="6.129743"><ele>405.33</ele><time>2025-05-25T06:04:41Z</time></trkpt>
<trkpt lat="50.12832" lon="6.130052"><ele>402.43</ele><time>2025-05-25T06:04:44Z</time></trkpt>
<trkpt lat="50.128324" lon="6.130543"><ele>402.2</ele><time>2025-05-25T06:04:46Z</time></trkpt>
<trkpt lat="50.128254" lon="6.131166"><ele>398.76</ele><time>2025-05-25T06:04:49Z</time></trkpt>
<trkpt lat="50.127972" lon="6.132157"><ele>392.58</ele><time>2025-05-25T06:04:52Z</time></trkpt>
<trkpt lat="50.127896" lon="6.132665"><ele>383.13</ele><time>2025-05-25T06:04:55Z</time></trkpt>
<trkpt lat="50.127862" lon="6.133139"><ele>377.88</ele><time>2025-05-25T06:04:58Z</time></trkpt>
<trkpt lat="50.127801" lon="6.133496"><ele>375.52</ele><time>2025-05-25T06:05:01Z</time></trkpt>
<trkpt lat="50.12772" lon="6.133758"><ele>375.07</ele><time>2025-05-25T06:05:03Z</time></trkpt>
<trkpt lat="50.127619" lon="6.13395"><ele>375.53</ele><time>2025-05-25T06:05:06Z</time></trkpt>
<trkpt lat="50.127271" lon="6.134309"><ele>371.96</ele><time>2025-05-25T06:05:09Z</time></trkpt>
<trkpt lat="50.127207" lon="6.134409"><ele>369.19</ele><time>2025-05-25T06:05:12Z</time></trkpt>
<trkpt lat="50.127176" lon="6.134508"><ele>367.48</ele><time>2025-05-25T06:05:15Z</time></trkpt>
<trkpt lat="50.127172" lon="6.134618"><ele>366.3</ele><time>2025-05-25T06:05:17Z</time></trkpt>
<trkpt lat="50.127196" lon="6.134728"><ele>365.03</ele><time>2025-05-25T06:05:20Z</time></trkpt>
<trkpt lat="50.127235" lon="6.134793"><ele>364.2</ele><time>2025-05-25T06:05:23Z</time></trkpt>
<trkpt lat="50.12729" lon="6.134835"><ele>363.64</ele><time>2025-05-25T06:05:26Z</time></trkpt>
<trkpt lat="50.127443" lon="6.134867"><ele>363.06</ele><time>2025-05-25T06:05:29Z</time></trkpt>
<trkpt lat="50.127675" lon="6.134846"><ele>361.57</ele><time>2025-05-25T06:05:31Z</time></trkpt>
<trkpt lat="50.127837" lon="6.134801"><ele>359.67</ele><time>2025-05-25T06:05:34Z</time></trkpt>
<trkpt lat="50.128265" lon="6.134813"><ele>350.01</ele><time>2025-05-25T06:05:37Z</time></trkpt>
<trkpt lat="50.128908" lon="6.134434"><ele>343.8</ele><time>2025-05-25T06:05:40Z</time></trkpt>
<trkpt lat="50.129189" lon="6.134207"><ele>342.07</ele><time>2025-05-25T06:05:43Z</time></trkpt>
<trkpt lat="50.129246" lon="6.134207"><ele>340.81</ele><time>2025-05-25T06:05:45Z</time></trkpt>
<trkpt lat="50.129288" lon="6.134253"><ele>339.31</ele><time>2025-05-25T06:05:48Z</time></trkpt>
<trkpt lat="50.129302" lon="6.134307"><ele>338.32</ele><time>2025-05-25T06:05:51Z</time></trkpt>
<trkpt lat="50.129327" lon="6.134635"><ele>334.0</ele><time>2025-05-25T06:05:54Z</time></trkpt>
<trkpt lat="50.129399" lon="6.134913"><ele>330.21</ele><time>2025-05-25T06:05:57Z</time></trkpt>
<trkpt lat="50.12984" lon="6.136048"><ele>321.36</ele><time>2025-05-25T06:05:59Z</time></trkpt>
<trkpt lat="50.129926" lon="6.136176"><ele>320.77</ele><time>2025-05-25T06:06:02Z</time></trkpt>
<trkpt lat="50.130555" lon="6.136586"><ele>321.29</ele><time>2025-05-25T06:06:05Z</time></trkpt>
<trkpt lat="50.130713" lon="6.136733"><ele>321.0</ele><time>2025-05-25T06:06:08Z</time></trkpt>
<trkpt lat="50.130807" lon="6.137097"><ele>321.55</ele><time>2025-05-25T06:06:11Z</time></trkpt>
<trkpt lat="50.130918" lon="6.137255"><ele>321.7</ele><time>2025-05-25T06:06:14Z</time></trkpt>
<trkpt lat="50.130918" lon="6.137255"><ele>321.7</ele><time>2025-05-25T06:06:14Z</time></trkpt>
<trkpt lat="50.131029" lon="6.137273"><ele>321.3</ele><time>2025-05-25T06:06:15Z</time></trkpt>
<trkpt lat="50.131158" lon="6.137245"><ele>320.83</ele><time>2025-05-25T06:06:17Z</time></trkpt>
<trkpt lat="50.132352" lon="6.136752"><ele>320.47</ele><time>2025-05-25T06:06:18Z</time></trkpt>
<trkpt lat="50.132911" lon="6.137004"><ele>320.19</ele><time>2025-05-25T06:06:20Z</time></trkpt>
<trkpt lat="50.134001" lon="6.137066"><ele>319.69</ele><time>2025-05-25T06:06:22Z</time></trkpt>
<trkpt lat="50.134202" lon="6.137132"><ele>319.05</ele><time>2025-05-25T06:06:23Z</time></trkpt>
<trkpt lat="50.134363" lon="6.137218"><ele>318.74</ele><time>2025-05-25T06:06:25Z</time></trkpt>
<trkpt lat="50.134531" lon="6.1374"><ele>319.31</ele><time>2025-05-25T06:06:27Z</time></trkpt>
<trkpt lat="50.1347" lon="6.137474"><ele>319.92</ele><time>2025-05-25T06:06:28Z</time></trkpt>
<trkpt lat="50.13501" lon="6.137596"><ele>318.67</ele><time>2025-05-25T06:06:30Z</time></trkpt>
<trkpt lat="50.135159" lon="6.137637"><ele>318.79</ele><time>2025-05-25T06:06:31Z</time></trkpt>
<trkpt lat="50.135209" lon="6.137623"><ele>318.89</ele><time>2025-05-25T06:06:33Z</time></trkpt>
<trkpt lat="50.135257" lon="6.137584"><ele>318.98</ele><time>2025-05-25T06:06:35Z</time></trkpt>
<trkpt lat="50.135293" lon="6.137512"><ele>319.05</ele><time>2025-05-25T06:06:36Z</time></trkpt>
<trkpt lat="50.135313" lon="6.13742"><ele>319.13</ele><time>2025-05-25T06:06:38Z</time></trkpt>
<trkpt lat="50.135348" lon="6.137009"><ele>318.48</ele><time>2025-05-25T06:06:40Z</time></trkpt>
<trkpt lat="50.135403" lon="6.136667"><ele>318.45</ele><time>2025-05-25T06:06:41Z</time></trkpt>
<trkpt lat="50.135533" lon="6.13614"><ele>318.08</ele><time>2025-05-25T06:06:43Z</time></trkpt>
<trkpt lat="50.13564" lon="6.135863"><ele>318.59</ele><time>2025-05-25T06:06:44Z</time></trkpt>
<trkpt lat="50.135784" lon="6.135623"><ele>318.94</ele><time>2025-05-25T06:06:46Z</time></trkpt>
<trkpt lat="50.135948" lon="6.135412"><ele>319.7</ele><time>2025-05-25T06:06:48Z</time></trkpt>
<trkpt lat="50.136124" lon="6.135259"><ele>319.0</ele><time>2025-05-25T06:06:49Z</time></trkpt>
<trkpt lat="50.136568" lon="6.135077"><ele>318.82</ele><time>2025-05-25T06:06:51Z</time></trkpt>
<trkpt lat="50.137012" lon="6.134969"><ele>318.33</ele><time>2025-05-25T06:06:53Z</time></trkpt>
<trkpt lat="50.137246" lon="6.134932"><ele>319.15</ele><time>2025-05-25T06:06:54Z</time></trkpt>
<trkpt lat="50.137551" lon="6.135016"><ele>321.38</ele><time>2025-05-25T06:06:56Z</time></trkpt>
<trkpt lat="50.137699" lon="6.135028"><ele>322.5</ele><time>2025-05-25T06:06:57Z</time></trkpt>
<trkpt lat="50.13784" lon="6.134991"><ele>323.67</ele><time>2025-05-25T06:06:59Z</time></trkpt>
<trkpt lat="50.137957" lon="6.134918"><ele>324.93</ele><time>2025-05-25T06:07:01Z</time></trkpt>
<trkpt lat="50.138306" lon="6.134527"><ele>329.87</ele><time>2025-05-25T06:07:02Z</time></trkpt>
<trkpt lat="50.13858" lon="6.134207"><ele>330.1</ele><time>2025-05-25T06:07:04Z</time></trkpt>
<trkpt lat="50.138646" lon="6.134073"><ele>329.74</ele><time>2025-05-25T06:07:06Z</time></trkpt>
<trkpt lat="50.138543" lon="6.133587"><ele>325.11</ele><time>2025-05-25T06:07:08Z</time></trkpt>
<trkpt lat="50.138562" lon="6.133393"><ele>324.04</ele><time>2025-05-25T06:07:10Z</time></trkpt>
<trkpt lat="50.138633" lon="6.133244"><ele>323.97</ele><time>2025-05-25T06:07:12Z</time></trkpt>
<trkpt lat="50.138786" lon="6.13308"><ele>325.04</ele><time>2025-05-25T06:07:14Z</time></trkpt>
<trkpt lat="50.139203" lon="6.132789"><ele>326.04</ele><time>2025-05-25T06:07:17Z</time></trkpt>
<trkpt lat="50.139422" lon="6.132705"><ele>325.47</ele><time>2025-05-25T06:07:19Z</time></trkpt>
<trkpt lat="50.139805" lon="6.132649"><ele>326.07</ele><time>2025-05-25T06:07:21Z</time></trkpt>
<trkpt lat="50.139963" lon="6.132685"><ele>326.33</ele><time>2025-05-25T06:07:23Z</time></trkpt>
<trkpt lat="50.14047" lon="6.132966"><ele>321.82</ele><time>2025-05-25T06:07:25Z</time></trkpt>
<trkpt lat="50.140486" lon="6.133034"><ele>321.73</ele><time>2025-05-25T06:07:28Z</time></trkpt>
<trkpt lat="50.140481" lon="6.133095"><ele>321.95</ele><time>2025-05-25T06:07:30Z</time></trkpt>
<trkpt lat="50.140358" lon="6.133428"><ele>324.13</ele><time>2025-05-25T06:07:32Z</time></trkpt>
<trkpt lat="50.14035" lon="6.133513"><ele>324.21</ele><time>2025-05-25T06:07:34Z</time></trkpt>
<trkpt lat="50.14038" lon="6.133784"><ele>323.9</ele><time>2025-05-25T06:07:36Z</time></trkpt>
<trkpt lat="50.140498" lon="6.134399"><ele>323.9</ele><time>2025-05-25T06:07:38Z</time></trkpt>
<trkpt lat="50.140476" lon="6.134893"><ele>324.26</ele><time>2025-05-25T06:07:41Z</time></trkpt>
<trkpt lat="50.140299" lon="6.135468"><ele>322.39</ele><time>2025-05-25T06:07:43Z</time></trkpt>
<trkpt lat="50.140291" lon="6.135656"><ele>322.41</ele><time>2025-05-25T06:07:45Z</time></trkpt>
<trkpt lat="50.140346" lon="6.135836"><ele>323.26</ele><time>2025-05-25T06:07:47Z</time></trkpt>
<trkpt lat="50.140775" lon="6.136405"><ele>324.82</ele><time>2025-05-25T06:07:49Z</time></trkpt>
<trkpt lat="50.14098" lon="6.137501"><ele>330.69</ele><time>2025-05-25T06:07:52Z</time></trkpt>
<trkpt lat="50.141152" lon="6.138645"><ele>336.91</ele><time>2025-05-25T06:07:54Z</time></trkpt>
<trkpt lat="50.141223" lon="6.138757"><ele>338.29</ele><time>2025-05-25T06:07:56Z</time></trkpt>
<trkpt lat="50.141399" lon="6.139128"><ele>341.36</ele><time>2025-05-25T06:07:58Z</time></trkpt>
<trkpt lat="50.141513" lon="6.139234"><ele>343.2</ele><time>2025-05-25T06:08:00Z</time></trkpt>
<trkpt lat="50.141752" lon="6.139348"><ele>347.34</ele><time>2025-05-25T06:08:03Z</time></trkpt>
<trkpt lat="50.141974" lon="6.139322"><ele>351.7</ele><time>2025-05-25T06:08:05Z</time></trkpt>
<trkpt lat="50.142004" lon="6.139336"><ele>351.95</ele><time>2025-05-25T06:08:07Z</time></trkpt>
<trkpt lat="50.142038" lon="6.139391"><ele>351.85</ele><time>2025-05-25T06:08:09Z</time></trkpt>
<trkpt lat="50.142086" lon="6.139572"><ele>350.44</ele><time>2025-05-25T06:08:11Z</time></trkpt>
<trkpt lat="50.142256" lon="6.139676"><ele>351.98</ele><time>2025-05-25T06:08:14Z</time></trkpt>
<trkpt lat="50.142713" lon="6.139888"><ele>353.69</ele><time>2025-05-25T06:08:16Z</time></trkpt>
<trkpt lat="50.14287" lon="6.139936"><ele>352.3</ele><time>2025-05-25T06:08:18Z</time></trkpt>
<trkpt lat="50.143004" lon="6.139923"><ele>351.39</ele><time>2025-05-25T06:08:20Z</time></trkpt>
<trkpt lat="50.143128" lon="6.139858"><ele>352.07</ele><time>2025-05-25T06:08:22Z</time></trkpt>
<trkpt lat="50.14345" lon="6.13959"><ele>352.71</ele><time>2025-05-25T06:08:25Z</time></trkpt>
<trkpt lat="50.143716" lon="6.139198"><ele>346.74</ele><time>2025-05-25T06:08:27Z</time></trkpt>
<trkpt lat="50.143911" lon="6.138988"><ele>337.55</ele><time>2025-05-25T06:08:29Z</time></trkpt>
<trkpt lat="50.143975" lon="6.138858"><ele>337.8</ele><time>2025-05-25T06:08:31Z</time></trkpt>
<trkpt lat="50.144046" lon="6.138515"><ele>339.26</ele><time>2025-05-25T06:08:33Z</time></trkpt>
<trkpt lat="50.144121" lon="6.138335"><ele>337.78</ele><time>2025-05-25T06:08:35Z</time></trkpt>
<trkpt lat="50.144264" lon="6.138189"><ele>336.88</ele><time>2025-05-25T06:08:38Z</time></trkpt>
<trkpt lat="50.144362" lon="6.138159"><ele>337.51</ele><time>2025-05-25T06:08:40Z</time></trkpt>
<trkpt lat="50.144477" lon="6.138181"><ele>338.08</ele><time>2025-05-25T06:08:42Z</time></trkpt>
<trkpt lat="50.144855" lon="6.138379"><ele>338.14</ele><time>2025-05-25T06:08:44Z</time></trkpt>
<trkpt lat="50.145012" lon="6.138411"><ele>338.33</ele><time>2025-05-25T06:08:46Z</time></trkpt>
<trkpt lat="50.145365" lon="6.138374"><ele>339.89</ele><time>2025-05-25T06:08:49Z</time></trkpt>
<trkpt lat="50.145898" lon="6.138401"><ele>344.49</ele><time>2025-05-25T06:08:51Z</time></trkpt>
<trkpt lat="50.146192" lon="6.13837"><ele>343.17</ele><time>2025-05-25T06:08:53Z</time></trkpt>
<trkpt lat="50.146462" lon="6.13826"><ele>339.98</ele><time>2025-05-25T06:08:55Z</time></trkpt>
<trkpt lat="50.146943" lon="6.137876"><ele>344.87</ele><time>2025-05-25T06:08:57Z</time></trkpt>
<trkpt lat="50.147326" lon="6.137637"><ele>346.04</ele><time>2025-05-25T06:09:00Z</time></trkpt>
<trkpt lat="50.147578" lon="6.137547"><ele>345.55</ele><time>2025-05-25T06:09:02Z</time></trkpt>
<trkpt lat="50.14789" lon="6.137506"><ele>346.22</ele><time>2025-05-25T06:09:04Z</time></trkpt>
<trkpt lat="50.148899" lon="6.137514"><ele>353.67</ele><time>2025-05-25T06:09:06Z</time></trkpt>
<trkpt lat="50.149165" lon="6.13754"><ele>354.14</ele><time>2025-05-25T06:09:08Z</time></trkpt>
<trkpt lat="50.149603" lon="6.137645"><ele>353.1</ele><time>2025-05-25T06:09:11Z</time></trkpt>
<trkpt lat="50.149741" lon="6.137643"><ele>352.82</ele><time>2025-05-25T06:09:13Z</time></trkpt>
<trkpt lat="50.149876" lon="6.137601"><ele>352.92</ele><time>2025-05-25T06:09:15Z</time></trkpt>
<trkpt lat="50.150095" lon="6.137479"><ele>353.67</ele><time>2025-05-25T06:09:17Z</time></trkpt>
<trkpt lat="50.150284" lon="6.137282"><ele>355.0</ele><time>2025-05-25T06:09:19Z</time></trkpt>
<trkpt lat="50.150429" lon="6.137097"><ele>354.33</ele><time>2025-05-25T06:09:22Z</time></trkpt>
<trkpt lat="50.150621" lon="6.136727"><ele>354.83</ele><time>2025-05-25T06:09:24Z</time></trkpt>
<trkpt lat="50.151001" lon="6.135737"><ele>355.87</ele><time>2025-05-25T06:09:26Z</time></trkpt>
<trkpt lat="50.151264" lon="6.134802"><ele>359.69</ele><time>2025-05-25T06:09:28Z</time></trkpt>
<trkpt lat="50.151444" lon="6.134019"><ele>357.41</ele><time>2025-05-25T06:09:30Z</time></trkpt>
<trkpt lat="50.151797" lon="6.132756"><ele>362.55</ele><time>2025-05-25T06:09:33Z</time></trkpt>
<trkpt lat="50.152126" lon="6.132213"><ele>356.73</ele><time>2025-05-25T06:09:35Z</time></trkpt>
<trkpt lat="50.152291" lon="6.131992"><ele>356.55</ele><time>2025-05-25T06:09:37Z</time></trkpt>
<trkpt lat="50.152519" lon="6.131789"><ele>352.93</ele><time>2025-05-25T06:09:39Z</time></trkpt>
<trkpt lat="50.15285" lon="6.131564"><ele>347.32</ele><time>2025-05-25T06:09:41Z</time></trkpt>
<trkpt lat="50.153129" lon="6.13131"><ele>349.01</ele><time>2025-05-25T06:09:43Z</time></trkpt>
<trkpt lat="50.153252" lon="6.131244"><ele>350.45</ele><time>2025-05-25T06:09:46Z</time></trkpt>
<trkpt lat="50.153457" lon="6.131179"><ele>349.15</ele><time>2025-05-25T06:09:48Z</time></trkpt>
<trkpt lat="50.153694" lon="6.131135"><ele>345.91</ele><time>2025-05-25T06:09:50Z</time></trkpt>
<trkpt lat="50.154395" lon="6.131076"><ele>345.77</ele><time>2025-05-25T06:09:52Z</time></trkpt>
<trkpt lat="50.154581" lon="6.13113"><ele>344.69</ele><time>2025-05-25T06:09:54Z</time></trkpt>
<trkpt lat="50.154787" lon="6.131245"><ele>343.05</ele><time>2025-05-25T06:09:57Z</time></trkpt>
<trkpt lat="50.154948" lon="6.131389"><ele>341.61</ele><time>2025-05-25T06:09:59Z</time></trkpt>
<trkpt lat="50.155577" lon="6.132044"><ele>343.58</ele><time>2025-05-25T06:10:01Z</time></trkpt>
<trkpt lat="50.155684" lon="6.132217"><ele>340.48</ele><time>2025-05-25T06:10:03Z</time></trkpt>
<trkpt lat="50.155757" lon="6.132377"><ele>339.55</ele><time>2025-05-25T06:10:05Z</time></trkpt>
<trkpt lat="50.15616" lon="6.133437"><ele>337.0</ele><time>2025-05-25T06:10:08Z</time></trkpt>
<trkpt lat="50.156417" lon="6.134184"><ele>339.34</ele><time>2025-05-25T06:10:10Z</time></trkpt>
<trkpt lat="50.156541" lon="6.134679"><ele>340.19</ele><time>2025-05-25T06:10:12Z</time></trkpt>
<trkpt lat="50.157164" lon="6.137447"><ele>347.75</ele><time>2025-05-25T06:10:14Z</time></trkpt>
<trkpt lat="50.157159" lon="6.137661"><ele>347.19</ele><time>2025-05-25T06:10:16Z</time></trkpt>
<trkpt lat="50.157104" lon="6.138161"><ele>345.86</ele><time>2025-05-25T06:10:19Z</time></trkpt>
<trkpt lat="50.157087" lon="6.1386"><ele>345.57</ele><time>2025-05-25T06:10:21Z</time></trkpt>
<trkpt lat="50.157168" lon="6.139681"><ele>348.48</ele><time>2025-05-25T06:10:23Z</time></trkpt>
<trkpt lat="50.157159" lon="6.139858"><ele>347.11</ele><time>2025-05-25T06:10:25Z</time></trkpt>
<trkpt lat="50.157139" lon="6.139954"><ele>346.13</ele><time>2025-05-25T06:10:27Z</time></trkpt>
<trkpt lat="50.156976" lon="6.140285"><ele>343.48</ele><time>2025-05-25T06:10:30Z</time></trkpt>
<trkpt lat="50.156812" lon="6.14054"><ele>342.54</ele><time>2025-05-25T06:10:32Z</time></trkpt>
<trkpt lat="50.156843" lon="6.140991"><ele>342.7</ele><time>2025-05-25T06:10:34Z</time></trkpt>
<trkpt lat="50.15691" lon="6.141318"><ele>342.76</ele><time>2025-05-25T06:10:36Z</time></trkpt>
<trkpt lat="50.157052" lon="6.141694"><ele>342.88</ele><time>2025-05-25T06:10:38Z</time></trkpt>
<trkpt lat="50.157176" lon="6.141914"><ele>341.82</ele><time>2025-05-25T06:10:41Z</time></trkpt>
<trkpt lat="50.157783" lon="6.14294"><ele>342.38</ele><time>2025-05-25T06:10:43Z</time></trkpt>
<trkpt lat="50.157882" lon="6.143065"><ele>343.5</ele><time>2025-05-25T06:10:45Z</time></trkpt>
<trkpt lat="50.158061" lon="6.143236"><ele>344.94</ele><time>2025-05-25T06:10:47Z</time></trkpt>
<trkpt lat="50.158703" lon="6.143675"><ele>351.3</ele><time>2025-05-25T06:10:50Z</time></trkpt>
<trkpt lat="50.158903" lon="6.143772"><ele>350.47</ele><time>2025-05-25T06:10:52Z</time></trkpt>
<trkpt lat="50.159129" lon="6.143848"><ele>349.28</ele><time>2025-05-25T06:10:54Z</time></trkpt>
<trkpt lat="50.159315" lon="6.143868"><ele>349.35</ele><time>2025-05-25T06:10:56Z</time></trkpt>
<trkpt lat="50.159629" lon="6.143801"><ele>352.81</ele><time>2025-05-25T06:10:59Z</time></trkpt>
<trkpt lat="50.159873" lon="6.143678"><ele>354.98</ele><time>2025-05-25T06:11:01Z</time></trkpt>
<trkpt lat="50.160137" lon="6.143479"><ele>358.01</ele><time>2025-05-25T06:11:03Z</time></trkpt>
<trkpt lat="50.160296" lon="6.143387"><ele>359.65</ele><time>2025-05-25T06:11:05Z</time></trkpt>
<trkpt lat="50.160522" lon="6.14332"><ele>359.03</ele><time>2025-05-25T06:11:08Z</time></trkpt>
<trkpt lat="50.160636" lon="6.143319"><ele>358.3</ele><time>2025-05-25T06:11:10Z</time></trkpt>
<trkpt lat="50.160772" lon="6.143351"><ele>356.71</ele><time>2025-05-25T06:11:12Z</time></trkpt>
<trkpt lat="50.161374" lon="6.14359"><ele>349.43</ele><time>2025-05-25T06:11:14Z</time></trkpt>
<trkpt lat="50.161648" lon="6.143662"><ele>349.55</ele><time>2025-05-25T06:11:17Z</time></trkpt>
<trkpt lat="50.161731" lon="6.143665"><ele>350.55</ele><time>2025-05-25T06:11:19Z</time></trkpt>
<trkpt lat="50.162052" lon="6.143585"><ele>356.72</ele><time>2025-05-25T06:11:21Z</time></trkpt>
<trkpt lat="50.162199" lon="6.143573"><ele>358.58</ele><time>2025-05-25T06:11:23Z</time></trkpt>
<trkpt lat="50.16305" lon="6.143604"><ele>364.14</ele><time>2025-05-25T06:11:26Z</time></trkpt>
<trkpt lat="50.163385" lon="6.143499"><ele>369.89</ele><time>2025-05-25T06:11:28Z</time></trkpt>
<trkpt lat="50.163617" lon="6.143317"><ele>375.05</ele><time>2025-05-25T06:11:30Z</time></trkpt>
<trkpt lat="50.163917" lon="6.142951"><ele>372.22</ele><time>2025-05-25T06:11:32Z</time></trkpt>
<trkpt lat="50.164384" lon="6.142259"><ele>368.91</ele><time>2025-05-25T06:11:35Z</time></trkpt>
<trkpt lat="50.165056" lon="6.141514"><ele>363.25</ele><time>2025-05-25T06:11:37Z</time></trkpt>
<trkpt lat="50.165284" lon="6.141198"><ele>360.58</ele><time>2025-05-25T06:11:39Z</time></trkpt>
<trkpt lat="50.16597" lon="6.140618"><ele>358.21</ele><time>2025-05-25T06:11:41Z</time></trkpt>
<trkpt lat="50.166473" lon="6.140144"><ele>363.06</ele><time>2025-05-25T06:11:44Z</time></trkpt>
<trkpt lat="50.166795" lon="6.139877"><ele>361.21</ele><time>2025-05-25T06:11:46Z</time></trkpt>
<trkpt lat="50.167216" lon="6.139595"><ele>359.7</ele><time>2025-05-25T06:11:48Z</time></trkpt>
<trkpt lat="50.167536" lon="6.139438"><ele>356.23</ele><time>2025-05-25T06:11:50Z</time></trkpt>
<trkpt lat="50.167806" lon="6.139314"><ele>352.5</ele><time>2025-05-25T06:11:53Z</time></trkpt>
<trkpt lat="50.168051" lon="6.139273"><ele>350.99</ele><time>2025-05-25T06:11:55Z</time></trkpt>
<trkpt lat="50.168487" lon="6.139279"><ele>357.83</ele><time>2025-05-25T06:11:57Z</time></trkpt>
<trkpt lat="50.168824" lon="6.139334"><ele>364.25</ele><time>2025-05-25T06:11:59Z</time></trkpt>
<trkpt lat="50.169173" lon="6.139428"><ele>367.91</ele><time>2025-05-25T06:12:02Z</time></trkpt>
<trkpt lat="50.169397" lon="6.1396"><ele>368.79</ele><time>2025-05-25T06:12:04Z</time></trkpt>
<trkpt lat="50.169639" lon="6.139904"><ele>365.79</ele><time>2025-05-25T06:12:06Z</time></trkpt>
<trkpt lat="50.169779" lon="6.140116"><ele>363.71</ele><time>2025-05-25T06:12:08Z</time></trkpt>
<trkpt lat="50.169938" lon="6.140413"><ele>360.48</ele><time>2025-05-25T06:12:11Z</time></trkpt>
<trkpt lat="50.170095" lon="6.140856"><ele>359.28</ele><time>2025-05-25T06:12:13Z</time></trkpt>
<trkpt lat="50.170314" lon="6.141926"><ele>356.99</ele><time>2025-05-25T06:12:15Z</time></trkpt>
<trkpt lat="50.170415" lon="6.142262"><ele>356.75</ele><time>2025-05-25T06:12:17Z</time></trkpt>
<trkpt lat="50.170498" lon="6.142425"><ele>357.87</ele><time>2025-05-25T06:12:19Z</time></trkpt>
<trkpt lat="50.171206" lon="6.143549"><ele>360.25</ele><time>2025-05-25T06:12:22Z</time></trkpt>
<trkpt lat="50.1717" lon="6.144141"><ele>362.57</ele><time>2025-05-25T06:12:24Z</time></trkpt>
<trkpt lat="50.171873" lon="6.144306"><ele>363.96</ele><time>2025-05-25T06:12:26Z</time></trkpt>
<trkpt lat="50.172008" lon="6.144402"><ele>364.99</ele><time>2025-05-25T06:12:28Z</time></trkpt>
<trkpt lat="50.172122" lon="6.144445"><ele>365.91</ele><time>2025-05-25T06:12:31Z</time></trkpt>
<trkpt lat="50.17228" lon="6.144336"><ele>368.08</ele><time>2025-05-25T06:12:33Z</time></trkpt>
<trkpt lat="50.172474" lon="6.144129"><ele>371.2</ele><time>2025-05-25T06:12:35Z</time></trkpt>
<trkpt lat="50.172578" lon="6.144057"><ele>371.45</ele><time>2025-05-25T06:12:37Z</time></trkpt>
<trkpt lat="50.173029" lon="6.143901"><ele>370.8</ele><time>2025-05-25T06:12:40Z</time></trkpt>
<trkpt lat="50.174246" lon="6.14332"><ele>367.43</ele><time>2025-05-25T06:12:42Z</time></trkpt>
<trkpt lat="50.174433" lon="6.143266"><ele>361.87</ele><time>2025-05-25T06:12:44Z</time></trkpt>
<trkpt lat="50.174853" lon="6.14309"><ele>355.56</ele><time>2025-05-25T06:12:46Z</time></trkpt>
<trkpt lat="50.175176" lon="6.143364"><ele>349.14</ele><time>2025-05-25T06:12:49Z</time></trkpt>
<trkpt lat="50.175573" lon="6.143773"><ele>348.7</ele><time>2025-05-25T06:12:51Z</time></trkpt>
<trkpt lat="50.175817" lon="6.144088"><ele>351.08</ele><time>2025-05-25T06:12:53Z</time></trkpt>
<trkpt lat="50.176099" lon="6.144336"><ele>354.0</ele><time>2025-05-25T06:12:55Z</time></trkpt>
<trkpt lat="50.176596" lon="6.143868"><ele>372.33</ele><time>2025-05-25T06:13:14Z</time></trkpt>
<trkpt lat="50.176788" lon="6.143803"><ele>378.74</ele><time>2025-05-25T06:13:33Z</time></trkpt>
<trkpt lat="50.177331" lon="6.143921"><ele>384.9</ele><time>2025-05-25T06:13:52Z</time></trkpt>
<trkpt lat="50.177526" lon="6.143987"><ele>385.21</ele><time>2025-05-25T06:14:10Z</time></trkpt>
<trkpt lat="50.177659" lon="6.143969"><ele>389.17</ele><time>2025-05-25T06:14:29Z</time></trkpt>
<trkpt lat="50.177796" lon="6.143904"><ele>394.14</ele><time>2025-05-25T06:14:48Z</time></trkpt>
<trkpt lat="50.177873" lon="6.143838"><ele>397.82</ele><time>2025-05-25T06:15:06Z</time></trkpt>
<trkpt lat="50.177908" lon="6.143771"><ele>400.48</ele><time>2025-05-25T06:15:25Z</time></trkpt>
<trkpt lat="50.177888" lon="6.143674"><ele>402.65</ele><time>2025-05-25T06:15:44Z</time></trkpt>
<trkpt lat="50.177833" lon="6.143632"><ele>402.61</ele><time>2025-05-25T06:16:03Z</time></trkpt>
<trkpt lat="50.177565" lon="6.14361"><ele>396.66</ele><time>2025-05-25T06:16:21Z</time></trkpt>
<trkpt lat="50.177359" lon="6.143385"><ele>399.16</ele><time>2025-05-25T06:16:40Z</time></trkpt>
<trkpt lat="50.177166" lon="6.143031"><ele>401.06</ele><time>2025-05-25T06:16:59Z</time></trkpt>
<trkpt lat="50.177139" lon="6.142762"><ele>403.2</ele><time>2025-05-25T06:17:18Z</time></trkpt>
<trkpt lat="50.177372" lon="6.142516"><ele>408.07</ele><time>2025-05-25T06:17:36Z</time></trkpt>
<trkpt lat="50.178307" lon="6.14169"><ele>425.5</ele><time>2025-05-25T06:17:55Z</time></trkpt>
<trkpt lat="50.178891" lon="6.141121"><ele>436.94</ele><time>2025-05-25T06:18:14Z</time></trkpt>
<trkpt lat="50.179399" lon="6.140767"><ele>444.59</ele><time>2025-05-25T06:18:32Z</time></trkpt>
<trkpt lat="50.179859" lon="6.140617"><ele>455.9</ele><time>2025-05-25T06:18:51Z</time></trkpt>
<trkpt lat="50.181199" lon="6.140896"><ele>474.69</ele><time>2025-05-25T06:19:10Z</time></trkpt>
<trkpt lat="50.181529" lon="6.141057"><ele>477.9</ele><time>2025-05-25T06:19:29Z</time></trkpt>
<trkpt lat="50.181852" lon="6.14111"><ele>480.35</ele><time>2025-05-25T06:19:47Z</time></trkpt>
<trkpt lat="50.182271" lon="6.141046"><ele>479.82</ele><time>2025-05-25T06:20:06Z</time></trkpt>
<trkpt lat="50.182834" lon="6.140799"><ele>478.12</ele><time>2025-05-25T06:20:25Z</time></trkpt>
<trkpt lat="50.183432" lon="6.140102"><ele>469.34</ele><time>2025-05-25T06:20:43Z</time></trkpt>
<trkpt lat="50.184243" lon="6.139437"><ele>464.75</ele><time>2025-05-25T06:21:02Z</time></trkpt>
<trkpt lat="50.184648" lon="6.138911"><ele>463.27</ele><time>2025-05-25T06:21:21Z</time></trkpt>
<trkpt lat="50.184957" lon="6.138331"><ele>462.32</ele><time>2025-05-25T06:21:40Z</time></trkpt>
<trkpt lat="50.185232" lon="6.137902"><ele>462.88</ele><time>2025-05-25T06:21:58Z</time></trkpt>
<trkpt lat="50.185541" lon="6.137623"><ele>462.61</ele><time>2025-05-25T06:22:17Z</time></trkpt>
<trkpt lat="50.186183" lon="6.137121"><ele>464.63</ele><time>2025-05-25T06:22:36Z</time></trkpt>
<trkpt lat="50.186264" lon="6.137031"><ele>464.98</ele><time>2025-05-25T06:22:55Z</time></trkpt>
<trkpt lat="50.186264" lon="6.137031"><ele>464.98</ele><time>2025-05-25T06:22:55Z</time></trkpt>
<trkpt lat="50.186183" lon="6.137121"><ele>464.63</ele><time>2025-05-25T06:22:57Z</time></trkpt>
<trkpt lat="50.186394" lon="6.137425"><ele>464.29</ele><time>2025-05-25T06:23:04Z</time></trkpt>
<trkpt lat="50.186824" lon="6.137952"><ele>462.61</ele><time>2025-05-25T06:23:12Z</time></trkpt>
<trkpt lat="50.187222" lon="6.138266"><ele>457.97</ele><time>2025-05-25T06:23:19Z</time></trkpt>
<trkpt lat="50.18737" lon="6.13845"><ele>455.96</ele><time>2025-05-25T06:23:27Z</time></trkpt>
<trkpt lat="50.187627" lon="6.138922"><ele>453.2</ele><time>2025-05-25T06:23:35Z</time></trkpt>
<trkpt lat="50.187877" lon="6.139175"><ele>454.36</ele><time>2025-05-25T06:23:42Z</time></trkpt>
<trkpt lat="50.188024" lon="6.139297"><ele>455.2</ele><time>2025-05-25T06:23:50Z</time></trkpt>
<trkpt lat="50.188085" lon="6.139519"><ele>454.16</ele><time>2025-05-25T06:23:57Z</time></trkpt>
<trkpt lat="50.188116" lon="6.140107"><ele>451.78</ele><time>2025-05-25T06:24:05Z</time></trkpt>
<trkpt lat="50.188175" lon="6.140447"><ele>452.38</ele><time>2025-05-25T06:24:12Z</time></trkpt>
<trkpt lat="50.188352" lon="6.141123"><ele>453.23</ele><time>2025-05-25T06:24:20Z</time></trkpt>
<trkpt lat="50.188632" lon="6.141789"><ele>452.54</ele><time>2025-05-25T06:24:28Z</time></trkpt>
<trkpt lat="50.188944" lon="6.142397"><ele>448.7</ele><time>2025-05-25T06:24:35Z</time></trkpt>
<trkpt lat="50.189332" lon="6.142971"><ele>445.38</ele><time>2025-05-25T06:24:43Z</time></trkpt>
<trkpt lat="50.190137" lon="6.144026"><ele>440.02</ele><time>2025-05-25T06:24:50Z</time></trkpt>
<trkpt lat="50.19043" lon="6.144308"><ele>436.83</ele><time>2025-05-25T06:24:58Z</time></trkpt>
<trkpt lat="50.190851" lon="6.144618"><ele>434.49</ele><time>2025-05-25T06:25:05Z</time></trkpt>
<trkpt lat="50.191696" lon="6.144913"><ele>432.16</ele><time>2025-05-25T06:25:13Z</time></trkpt>
<trkpt lat="50.191912" lon="6.14503"><ele>432.64</ele><time>2025-05-25T06:25:21Z</time></trkpt>
<trkpt lat="50.192009" lon="6.145142"><ele>433.19</ele><time>2025-05-25T06:25:28Z</time></trkpt>
<trkpt lat="50.192111" lon="6.145317"><ele>433.65</ele><time>2025-05-25T06:25:36Z</time></trkpt>
<trkpt lat="50.192196" lon="6.145771"><ele>432.95</ele><time>2025-05-25T06:25:43Z</time></trkpt>
<trkpt lat="50.192281" lon="6.146129"><ele>430.51</ele><time>2025-05-25T06:25:51Z</time></trkpt>
<trkpt lat="50.192332" lon="6.146236"><ele>429.76</ele><time>2025-05-25T06:25:58Z</time></trkpt>
<trkpt lat="50.192414" lon="6.146326"><ele>428.85</ele><time>2025-05-25T06:26:06Z</time></trkpt>
<trkpt lat="50.192656" lon="6.146512"><ele>425.99</ele><time>2025-05-25T06:26:13Z</time></trkpt>
<trkpt lat="50.192779" lon="6.146667"><ele>423.99</ele><time>2025-05-25T06:26:21Z</time></trkpt>
<trkpt lat="50.192843" lon="6.146834"><ele>422.33</ele><time>2025-05-25T06:26:29Z</time></trkpt>
<trkpt lat="50.192901" lon="6.147069"><ele>419.76</ele><time>2025-05-25T06:26:36Z</time></trkpt>
<trkpt lat="50.193035" lon="6.148109"><ele>414.39</ele><time>2025-05-25T06:26:44Z</time></trkpt>
<trkpt lat="50.193231" lon="6.148833"><ele>410.38</ele><time>2025-05-25T06:26:51Z</time></trkpt>
<trkpt lat="50.19323" lon="6.148969"><ele>410.0</ele><time>2025-05-25T06:26:59Z</time></trkpt>
<trkpt lat="50.193532" lon="6.149694"><ele>410.64</ele><time>2025-05-25T06:27:03Z</time></trkpt>
<trkpt lat="50.193624" lon="6.149766"><ele>411.06</ele><time>2025-05-25T06:27:07Z</time></trkpt>
<trkpt lat="50.193825" lon="6.149769"><ele>409.5</ele><time>2025-05-25T06:27:12Z</time></trkpt>
<trkpt lat="50.193956" lon="6.149802"><ele>407.37</ele><time>2025-05-25T06:27:16Z</time></trkpt>
<trkpt lat="50.194024" lon="6.149929"><ele>405.96</ele><time>2025-05-25T06:27:20Z</time></trkpt>
<trkpt lat="50.194134" lon="6.150678"><ele>407.91</ele><time>2025-05-25T06:27:24Z</time></trkpt>
<trkpt lat="50.194164" lon="6.15098"><ele>405.98</ele><time>2025-05-25T06:27:29Z</time></trkpt>
<trkpt lat="50.194188" lon="6.151702"><ele>396.2</ele><time>2025-05-25T06:27:33Z</time></trkpt>
<trkpt lat="50.194179" lon="6.152136"><ele>394.95</ele><time>2025-05-25T06:27:37Z</time></trkpt>
<trkpt lat="50.19408" lon="6.152947"><ele>393.94</ele><time>2025-05-25T06:27:41Z</time></trkpt>
<trkpt lat="50.194053" lon="6.153554"><ele>393.23</ele><time>2025-05-25T06:27:46Z</time></trkpt>
<trkpt lat="50.194005" lon="6.15404"><ele>392.11</ele><time>2025-05-25T06:27:50Z</time></trkpt>
<trkpt lat="50.193933" lon="6.154493"><ele>387.74</ele><time>2025-05-25T06:27:54Z</time></trkpt>
<trkpt lat="50.193849" lon="6.15472"><ele>384.89</ele><time>2025-05-25T06:27:58Z</time></trkpt>
<trkpt lat="50.193767" lon="6.154876"><ele>382.03</ele><time>2025-05-25T06:28:03Z</time></trkpt>
<trkpt lat="50.193623" lon="6.155025"><ele>379.46</ele><time>2025-05-25T06:28:07Z</time></trkpt>
<trkpt lat="50.193432" lon="6.155131"><ele>377.13</ele><time>2025-05-25T06:28:11Z</time></trkpt>
<trkpt lat="50.193396" lon="6.155239"><ele>375.4</ele><time>2025-05-25T06:28:15Z</time></trkpt>
<trkpt lat="50.193398" lon="6.155288"><ele>374.58</ele><time>2025-05-25T06:28:19Z</time></trkpt>
<trkpt lat="50.19355" lon="6.155211"><ele>375.56</ele><time>2025-05-25T06:28:23Z</time></trkpt>
<trkpt lat="50.194026" lon="6.154898"><ele>378.26</ele><time>2025-05-25T06:28:27Z</time></trkpt>
<trkpt lat="50.194134" lon="6.154757"><ele>378.85</ele><time>2025-05-25T06:28:30Z</time></trkpt>
<trkpt lat="50.194222" lon="6.154544"><ele>380.85</ele><time>2025-05-25T06:28:34Z</time></trkpt>
<trkpt lat="50.194284" lon="6.154305"><ele>382.22</ele><time>2025-05-25T06:28:37Z</time></trkpt>
<trkpt lat="50.194426" lon="6.153509"><ele>385.46</ele><time>2025-05-25T06:28:41Z</time></trkpt>
<trkpt lat="50.194756" lon="6.152414"><ele>372.79</ele><time>2025-05-25T06:28:44Z</time></trkpt>
<trkpt lat="50.195045" lon="6.151517"><ele>365.04</ele><time>2025-05-25T06:28:48Z</time></trkpt>
<trkpt lat="50.195285" lon="6.15101"><ele>363.59</ele><time>2025-05-25T06:28:51Z</time></trkpt>
<trkpt lat="50.195809" lon="6.150193"><ele>356.35</ele><time>2025-05-25T06:28:55Z</time></trkpt>
<trkpt lat="50.19614" lon="6.149568"><ele>356.24</ele><time>2025-05-25T06:28:58Z</time></trkpt>
<trkpt lat="50.196277" lon="6.149482"><ele>355.07</ele><time>2025-05-25T06:29:02Z</time></trkpt>
<trkpt lat="50.196827" lon="6.149365"><ele>355.56</ele><time>2025-05-25T06:29:05Z</time></trkpt>
<trkpt lat="50.196928" lon="6.149347"><ele>357.04</ele><time>2025-05-25T06:29:09Z</time></trkpt>
<trkpt lat="50.197102" lon="6.149304"><ele>363.2</ele><time>2025-05-25T06:29:12Z</time></trkpt>
<trkpt lat="50.197174" lon="6.149254"><ele>365.7</ele><time>2025-05-25T06:29:16Z</time></trkpt>
<trkpt lat="50.197201" lon="6.149425"><ele>368.03</ele><time>2025-05-25T06:29:20Z</time></trkpt>
<trkpt lat="50.197182" lon="6.149701"><ele>368.2</ele><time>2025-05-25T06:29:24Z</time></trkpt>
<trkpt lat="50.19706" lon="6.150269"><ele>363.8</ele><time>2025-05-25T06:29:28Z</time></trkpt>
<trkpt lat="50.196909" lon="6.151275"><ele>357.95</ele><time>2025-05-25T06:29:32Z</time></trkpt>
<trkpt lat="50.196899" lon="6.151552"><ele>356.04</ele><time>2025-05-25T06:29:36Z</time></trkpt>
<trkpt lat="50.196934" lon="6.151927"><ele>355.88</ele><time>2025-05-25T06:29:40Z</time></trkpt>
<trkpt lat="50.197031" lon="6.152246"><ele>355.91</ele><time>2025-05-25T06:29:44Z</time></trkpt>
<trkpt lat="50.197441" lon="6.153064"><ele>354.73</ele><time>2025-05-25T06:29:48Z</time></trkpt>
<trkpt lat="50.198187" lon="6.154974"><ele>351.61</ele><time>2025-05-25T06:29:52Z</time></trkpt>
<trkpt lat="50.198872" lon="6.156615"><ele>357.5</ele><time>2025-05-25T06:29:56Z</time></trkpt>
<trkpt lat="50.19971" lon="6.1579"><ele>361.95</ele><time>2025-05-25T06:30:00Z</time></trkpt>
<trkpt lat="50.200036" lon="6.15837"><ele>364.39</ele><time>2025-05-25T06:30:04Z</time></trkpt>
<trkpt lat="50.200557" lon="6.158942"><ele>367.37</ele><time>2025-05-25T06:30:07Z</time></trkpt>
<trkpt lat="50.20074" lon="6.159105"><ele>366.56</ele><time>2025-05-25T06:30:11Z</time></trkpt>
<trkpt lat="50.201146" lon="6.159389"><ele>364.7</ele><time>2025-05-25T06:30:15Z</time></trkpt>
<trkpt lat="50.201337" lon="6.159549"><ele>366.33</ele><time>2025-05-25T06:30:19Z</time></trkpt>
<trkpt lat="50.201526" lon="6.159796"><ele>366.54</ele><time>2025-05-25T06:30:23Z</time></trkpt>
<trkpt lat="50.201785" lon="6.160302"><ele>367.66</ele><time>2025-05-25T06:30:27Z</time></trkpt>
<trkpt lat="50.202066" lon="6.161024"><ele>370.49</ele><time>2025-05-25T06:30:31Z</time></trkpt>
<trkpt lat="50.202211" lon="6.161462"><ele>372.62</ele><time>2025-05-25T06:30:35Z</time></trkpt>
<trkpt lat="50.20227" lon="6.161702"><ele>372.99</ele><time>2025-05-25T06:30:39Z</time></trkpt>
<trkpt lat="50.202305" lon="6.161959"><ele>372.58</ele><time>2025-05-25T06:30:43Z</time></trkpt>
<trkpt lat="50.202304" lon="6.162332"><ele>374.1</ele><time>2025-05-25T06:30:47Z</time></trkpt>
<trkpt lat="50.202268" lon="6.162661"><ele>375.66</ele><time>2025-05-25T06:30:51Z</time></trkpt>
<trkpt lat="50.2022" lon="6.16296"><ele>377.16</ele><time>2025-05-25T06:30:55Z</time></trkpt>
<trkpt lat="50.202041" lon="6.163413"><ele>378.88</ele><time>2025-05-25T06:30:59Z</time></trkpt>
<trkpt lat="50.202066" lon="6.163557"><ele>379.73</ele><time>2025-05-25T06:31:03Z</time></trkpt>
<trkpt lat="50.202148" lon="6.163653"><ele>379.83</ele><time>2025-05-25T06:31:07Z</time></trkpt>
<trkpt lat="50.202247" lon="6.163709"><ele>379.37</ele><time>2025-05-25T06:31:11Z</time></trkpt>
<trkpt lat="50.202537" lon="6.163698"><ele>375.04</ele><time>2025-05-25T06:31:15Z</time></trkpt>
<trkpt lat="50.202638" lon="6.163823"><ele>374.2</ele><time>2025-05-25T06:31:19Z</time></trkpt>
<trkpt lat="50.202887" lon="6.164829"><ele>381.17</ele><time>2025-05-25T06:31:23Z</time></trkpt>
<trkpt lat="50.203019" lon="6.165236"><ele>375.34</ele><time>2025-05-25T06:31:27Z</time></trkpt>
<trkpt lat="50.203039" lon="6.165422"><ele>375.19</ele><time>2025-05-25T06:31:31Z</time></trkpt>
<trkpt lat="50.203016" lon="6.165594"><ele>377.93</ele><time>2025-05-25T06:31:35Z</time></trkpt>
<trkpt lat="50.202955" lon="6.165782"><ele>383.2</ele><time>2025-05-25T06:31:39Z</time></trkpt>
<trkpt lat="50.202921" lon="6.166066"><ele>387.82</ele><time>2025-05-25T06:31:43Z</time></trkpt>
<trkpt lat="50.202961" lon="6.166228"><ele>386.88</ele><time>2025-05-25T06:31:47Z</time></trkpt>
<trkpt lat="50.20305" lon="6.166333"><ele>383.48</ele><time>2025-05-25T06:31:51Z</time></trkpt>
<trkpt lat="50.203219" lon="6.16641"><ele>379.64</ele><time>2025-05-25T06:31:55Z</time></trkpt>
<trkpt lat="50.203314" lon="6.166533"><ele>379.11</ele><time>2025-05-25T06:31:59Z</time></trkpt>
<trkpt lat="50.20387" lon="6.167713"><ele>384.58</ele><time>2025-05-25T06:32:03Z</time></trkpt>
<trkpt lat="50.204203" lon="6.16833"><ele>385.17</ele><time>2025-05-25T06:32:07Z</time></trkpt>
<trkpt lat="50.2049" lon="6.169506"><ele>386.93</ele><time>2025-05-25T06:32:11Z</time></trkpt>
<trkpt lat="50.205792" lon="6.170447"><ele>382.15</ele><time>2025-05-25T06:32:15Z</time></trkpt>
<trkpt lat="50.206053" lon="6.170615"><ele>378.58</ele><time>2025-05-25T06:32:18Z</time></trkpt>
<trkpt lat="50.206197" lon="6.17068"><ele>375.8</ele><time>2025-05-25T06:32:22Z</time></trkpt>
<trkpt lat="50.206706" lon="6.171075"><ele>368.12</ele><time>2025-05-25T06:32:26Z</time></trkpt>
<trkpt lat="50.207081" lon="6.171252"><ele>364.05</ele><time>2025-05-25T06:32:30Z</time></trkpt>
<trkpt lat="50.207664" lon="6.171336"><ele>364.68</ele><time>2025-05-25T06:32:34Z</time></trkpt>
<trkpt lat="50.207978" lon="6.171297"><ele>364.25</ele><time>2025-05-25T06:32:38Z</time></trkpt>
<trkpt lat="50.208669" lon="6.17125"><ele>362.5</ele><time>2025-05-25T06:32:42Z</time></trkpt>
<trkpt lat="50.208921" lon="6.171265"><ele>362.66</ele><time>2025-05-25T06:32:46Z</time></trkpt>
<trkpt lat="50.209067" lon="6.171208"><ele>362.05</ele><time>2025-05-25T06:32:50Z</time></trkpt>
<trkpt lat="50.20944" lon="6.170968"><ele>361.43</ele><time>2025-05-25T06:32:54Z</time></trkpt>
<trkpt lat="50.210515" lon="6.170358"><ele>366.53</ele><time>2025-05-25T06:32:58Z</time></trkpt>
<trkpt lat="50.210752" lon="6.170204"><ele>366.17</ele><time>2025-05-25T06:33:02Z</time></trkpt>
<trkpt lat="50.210827" lon="6.170213"><ele>366.51</ele><time>2025-05-25T06:33:06Z</time></trkpt>
<trkpt lat="50.210903" lon="6.170306"><ele>367.48</ele><time>2025-05-25T06:33:10Z</time></trkpt>
<trkpt lat="50.210922" lon="6.170369"><ele>368.08</ele><time>2025-05-25T06:33:14Z</time></trkpt>
<trkpt lat="50.211096" lon="6.171164"><ele>375.24</ele><time>2025-05-25T06:33:18Z</time></trkpt>
<trkpt lat="50.211136" lon="6.171453"><ele>376.14</ele><time>2025-05-25T06:33:22Z</time></trkpt>
<trkpt lat="50.211134" lon="6.171726"><ele>377.32</ele><time>2025-05-25T06:33:26Z</time></trkpt>
<trkpt lat="50.211089" lon="6.172008"><ele>379.44</ele><time>2025-05-25T06:33:30Z</time></trkpt>
<trkpt lat="50.211112" lon="6.172134"><ele>380.36</ele><time>2025-05-25T06:33:34Z</time></trkpt>
<trkpt lat="50.211173" lon="6.172233"><ele>380.6</ele><time>2025-05-25T06:33:38Z</time></trkpt>
<trkpt lat="50.212099" lon="6.173034"><ele>375.25</ele><time>2025-05-25T06:33:42Z</time></trkpt>
<trkpt lat="50.212287" lon="6.173312"><ele>375.14</ele><time>2025-05-25T06:33:46Z</time></trkpt>
<trkpt lat="50.212398" lon="6.173541"><ele>375.6</ele><time>2025-05-25T06:33:50Z</time></trkpt>
<trkpt lat="50.212498" lon="6.17381"><ele>376.45</ele><time>2025-05-25T06:33:54Z</time></trkpt>
<trkpt lat="50.212552" lon="6.174053"><ele>376.46</ele><time>2025-05-25T06:33:58Z</time></trkpt>
<trkpt lat="50.212584" lon="6.174289"><ele>376.62</ele><time>2025-05-25T06:34:02Z</time></trkpt>
<trkpt lat="50.212622" lon="6.174945"><ele>379.41</ele><time>2025-05-25T06:34:06Z</time></trkpt>
<trkpt lat="50.212782" lon="6.175987"><ele>380.95</ele><time>2025-05-25T06:34:10Z</time></trkpt>
<trkpt lat="50.212887" lon="6.176529"><ele>378.65</ele><time>2025-05-25T06:34:14Z</time></trkpt>
<trkpt lat="50.213056" lon="6.176928"><ele>373.98</ele><time>2025-05-25T06:34:18Z</time></trkpt>
<trkpt lat="50.213397" lon="6.17741"><ele>367.31</ele><time>2025-05-25T06:34:22Z</time></trkpt>
<trkpt lat="50.213482" lon="6.177574"><ele>366.39</ele><time>2025-05-25T06:34:25Z</time></trkpt>
<trkpt lat="50.213595" lon="6.177942"><ele>364.55</ele><time>2025-05-25T06:34:29Z</time></trkpt>
<trkpt lat="50.213726" lon="6.17879"><ele>363.5</ele><time>2025-05-25T06:34:33Z</time></trkpt>
<trkpt lat="50.213771" lon="6.178943"><ele>364.39</ele><time>2025-05-25T06:34:37Z</time></trkpt>
<trkpt lat="50.213836" lon="6.17909"><ele>365.45</ele><time>2025-05-25T06:34:41Z</time></trkpt>
<trkpt lat="50.213878" lon="6.179123"><ele>365.68</ele><time>2025-05-25T06:34:45Z</time></trkpt>
<trkpt lat="50.214172" lon="6.179128"><ele>365.74</ele><time>2025-05-25T06:34:49Z</time></trkpt>
<trkpt lat="50.21428" lon="6.1791"><ele>365.83</ele><time>2025-05-25T06:34:53Z</time></trkpt>
<trkpt lat="50.214534" lon="6.179095"><ele>366.23</ele><time>2025-05-25T06:34:57Z</time></trkpt>
<trkpt lat="50.214725" lon="6.17917"><ele>367.03</ele><time>2025-05-25T06:35:01Z</time></trkpt>
<trkpt lat="50.21507" lon="6.17938"><ele>368.79</ele><time>2025-05-25T06:35:05Z</time></trkpt>
<trkpt lat="50.215242" lon="6.179391"><ele>369.49</ele><time>2025-05-25T06:35:09Z</time></trkpt>
<trkpt lat="50.215647" lon="6.179319"><ele>369.1</ele><time>2025-05-25T06:35:13Z</time></trkpt>
<trkpt lat="50.215851" lon="6.179373"><ele>369.44</ele><time>2025-05-25T06:35:17Z</time></trkpt>
<trkpt lat="50.216143" lon="6.179551"><ele>369.38</ele><time>2025-05-25T06:35:21Z</time></trkpt>
<trkpt lat="50.216304" lon="6.179718"><ele>369.98</ele><time>2025-05-25T06:35:25Z</time></trkpt>
<trkpt lat="50.216605" lon="6.18013"><ele>373.5</ele><time>2025-05-25T06:35:29Z</time></trkpt>
<trkpt lat="50.216669" lon="6.180172"><ele>373.88</ele><time>2025-05-25T06:35:33Z</time></trkpt>
<trkpt lat="50.216721" lon="6.180157"><ele>374.26</ele><time>2025-05-25T06:35:37Z</time></trkpt>
<trkpt lat="50.21682" lon="6.180079"><ele>374.74</ele><time>2025-05-25T06:35:41Z</time></trkpt>
<trkpt lat="50.217127" lon="6.179588"><ele>377.8</ele><time>2025-05-25T06:35:45Z</time></trkpt>
<trkpt lat="50.217236" lon="6.179515"><ele>379.55</ele><time>2025-05-25T06:35:49Z</time></trkpt>
<trkpt lat="50.218423" lon="6.179027"><ele>388.28</ele><time>2025-05-25T06:35:53Z</time></trkpt>
<trkpt lat="50.218611" lon="6.178996"><ele>389.53</ele><time>2025-05-25T06:35:57Z</time></trkpt>
<trkpt lat="50.218738" lon="6.179022"><ele>391.52</ele><time>2025-05-25T06:36:01Z</time></trkpt>
<trkpt lat="50.219294" lon="6.179283"><ele>397.75</ele><time>2025-05-25T06:36:05Z</time></trkpt>
<trkpt lat="50.220671" lon="6.180402"><ele>409.58</ele><time>2025-05-25T06:36:09Z</time></trkpt>
<trkpt lat="50.220827" lon="6.180512"><ele>410.15</ele><time>2025-05-25T06:36:13Z</time></trkpt>
<trkpt lat="50.220995" lon="6.180651"><ele>411.07</ele><time>2025-05-25T06:36:17Z</time></trkpt>
<trkpt lat="50.221369" lon="6.18116"><ele>415.29</ele><time>2025-05-25T06:36:21Z</time></trkpt>
<trkpt lat="50.221599" lon="6.181369"><ele>417.72</ele><time>2025-05-25T06:36:25Z</time></trkpt>
<trkpt lat="50.221887" lon="6.1815"><ele>420.14</ele><time>2025-05-25T06:36:29Z</time></trkpt>
<trkpt lat="50.222394" lon="6.18163"><ele>424.86</ele><time>2025-05-25T06:36:32Z</time></trkpt>
<trkpt lat="50.222729" lon="6.181774"><ele>427.53</ele><time>2025-05-25T06:36:36Z</time></trkpt>
<trkpt lat="50.222988" lon="6.18202"><ele>431.05</ele><time>2025-05-25T06:36:40Z</time></trkpt>
<trkpt lat="50.223145" lon="6.182254"><ele>433.66</ele><time>2025-05-25T06:36:44Z</time></trkpt>
<trkpt lat="50.223419" lon="6.182756"><ele>440.41</ele><time>2025-05-25T06:36:48Z</time></trkpt>
<trkpt lat="50.223503" lon="6.182879"><ele>440.76</ele><time>2025-05-25T06:36:52Z</time></trkpt>
<trkpt lat="50.223618" lon="6.182995"><ele>440.8</ele><time>2025-05-25T06:36:56Z</time></trkpt>
<trkpt lat="50.224285" lon="6.183098"><ele>445.37</ele><time>2025-05-25T06:37:00Z</time></trkpt>
<trkpt lat="50.22458" lon="6.183177"><ele>446.1</ele><time>2025-05-25T06:37:04Z</time></trkpt>
<trkpt lat="50.224566" lon="6.183542"><ele>448.31</ele><time>2025-05-25T06:37:08Z</time></trkpt>
<trkpt lat="50.224589" lon="6.183941"><ele>450.67</ele><time>2025-05-25T06:37:11Z</time></trkpt>
<trkpt lat="50.22457" lon="6.184531"><ele>454.0</ele><time>2025-05-25T06:37:14Z</time></trkpt>
<trkpt lat="50.224485" lon="6.185223"><ele>457.8</ele><time>2025-05-25T06:37:18Z</time></trkpt>
<trkpt lat="50.225107" lon="6.18534"><ele>456.84</ele><time>2025-05-25T06:37:23Z</time></trkpt>
<trkpt lat="50.225207" lon="6.185426"><ele>456.79</ele><time>2025-05-25T06:37:28Z</time></trkpt>
<trkpt lat="50.225347" lon="6.185651"><ele>456.18</ele><time>2025-05-25T06:37:33Z</time></trkpt>
<trkpt lat="50.22569" lon="6.186518"><ele>460.89</ele><time>2025-05-25T06:37:38Z</time></trkpt>
<trkpt lat="50.225876" lon="6.186883"><ele>463.21</ele><time>2025-05-25T06:37:43Z</time></trkpt>
<trkpt lat="50.226091" lon="6.187167"><ele>464.55</ele><time>2025-05-25T06:37:48Z</time></trkpt>
<trkpt lat="50.226458" lon="6.187561"><ele>465.19</ele><time>2025-05-25T06:37:53Z</time></trkpt>
<trkpt lat="50.227305" lon="6.188246"><ele>472.67</ele><time>2025-05-25T06:37:59Z</time></trkpt>
<trkpt lat="50.227554" lon="6.188477"><ele>475.42</ele><time>2025-05-25T06:38:04Z</time></trkpt>
<trkpt lat="50.227944" lon="6.188944"><ele>478.2</ele><time>2025-05-25T06:38:09Z</time></trkpt>
<trkpt lat="50.228131" lon="6.189226"><ele>476.13</ele><time>2025-05-25T06:38:14Z</time></trkpt>
<trkpt lat="50.228627" lon="6.189878"><ele>474.18</ele><time>2025-05-25T06:38:19Z</time></trkpt>
<trkpt lat="50.22874" lon="6.189942"><ele>475.05</ele><time>2025-05-25T06:38:24Z</time></trkpt>
<trkpt lat="50.228837" lon="6.189947"><ele>475.43</ele><time>2025-05-25T06:38:29Z</time></trkpt>
<trkpt lat="50.229247" lon="6.189808"><ele>473.94</ele><time>2025-05-25T06:38:34Z</time></trkpt>
<trkpt lat="50.229598" lon="6.189948"><ele>471.36</ele><time>2025-05-25T06:38:39Z</time></trkpt>
<trkpt lat="50.229716" lon="6.190047"><ele>470.57</ele><time>2025-05-25T06:38:44Z</time></trkpt>
<trkpt lat="50.229908" lon="6.190308"><ele>470.51</ele><time>2025-05-25T06:38:49Z</time></trkpt>
<trkpt lat="50.230107" lon="6.190676"><ele>468.68</ele><time>2025-05-25T06:38:55Z</time></trkpt>
<trkpt lat="50.230405" lon="6.191338"><ele>468.42</ele><time>2025-05-25T06:39:00Z</time></trkpt>
<trkpt lat="50.230602" lon="6.191881"><ele>466.13</ele><time>2025-05-25T06:39:05Z</time></trkpt>
<trkpt lat="50.230904" lon="6.192926"><ele>463.14</ele><time>2025-05-25T06:39:10Z</time></trkpt>
<trkpt lat="50.231057" lon="6.193235"><ele>462.26</ele><time>2025-05-25T06:39:15Z</time></trkpt>
<trkpt lat="50.231076" lon="6.193174"><ele>459.1</ele><time>2025-05-25T06:39:15Z</time></trkpt>
<trkpt lat="50.231076" lon="6.193174"><ele>459.1</ele><time>2025-05-25T06:39:15Z</time></trkpt>
<trkpt lat="50.231272" lon="6.192527"><ele>455.94</ele><time>2025-05-25T06:39:17Z</time></trkpt>
<trkpt lat="50.231349" lon="6.192163"><ele>454.03</ele><time>2025-05-25T06:39:19Z</time></trkpt>
<trkpt lat="50.231377" lon="6.191931"><ele>452.13</ele><time>2025-05-25T06:39:21Z</time></trkpt>
<trkpt lat="50.231381" lon="6.191592"><ele>450.87</ele><time>2025-05-25T06:39:23Z</time></trkpt>
<trkpt lat="50.231328" lon="6.190996"><ele>448.92</ele><time>2025-05-25T06:39:25Z</time></trkpt>
<trkpt lat="50.231192" lon="6.190259"><ele>448.26</ele><time>2025-05-25T06:39:27Z</time></trkpt>
<trkpt lat="50.231158" lon="6.189794"><ele>448.24</ele><time>2025-05-25T06:39:29Z</time></trkpt>
<trkpt lat="50.231185" lon="6.189612"><ele>447.3</ele><time>2025-05-25T06:39:31Z</time></trkpt>
<trkpt lat="50.231636" lon="6.188363"><ele>440.27</ele><time>2025-05-25T06:39:33Z</time></trkpt>
<trkpt lat="50.231708" lon="6.1882"><ele>440.28</ele><time>2025-05-25T06:39:35Z</time></trkpt>
<trkpt lat="50.23184" lon="6.188015"><ele>439.74</ele><time>2025-05-25T06:39:37Z</time></trkpt>
<trkpt lat="50.23192" lon="6.187962"><ele>439.0</ele><time>2025-05-25T06:39:39Z</time></trkpt>
<trkpt lat="50.23199" lon="6.187943"><ele>438.21</ele><time>2025-05-25T06:39:41Z</time></trkpt>
<trkpt lat="50.232083" lon="6.187957"><ele>436.89</ele><time>2025-05-25T06:39:43Z</time></trkpt>
<trkpt lat="50.232202" lon="6.188015"><ele>434.71</ele><time>2025-05-25T06:39:45Z</time></trkpt>
<trkpt lat="50.232371" lon="6.188141"><ele>433.61</ele><time>2025-05-25T06:39:46Z</time></trkpt>
<trkpt lat="50.23266" lon="6.188479"><ele>431.01</ele><time>2025-05-25T06:39:48Z</time></trkpt>
<trkpt lat="50.23285" lon="6.188757"><ele>428.8</ele><time>2025-05-25T06:39:50Z</time></trkpt>
<trkpt lat="50.233208" lon="6.18937"><ele>424.05</ele><time>2025-05-25T06:39:52Z</time></trkpt>
<trkpt lat="50.233271" lon="6.189446"><ele>423.53</ele><time>2025-05-25T06:39:54Z</time></trkpt>
<trkpt lat="50.233683" lon="6.189862"><ele>421.01</ele><time>2025-05-25T06:39:56Z</time></trkpt>
<trkpt lat="50.233954" lon="6.190086"><ele>419.23</ele><time>2025-05-25T06:39:58Z</time></trkpt>
<trkpt lat="50.234041" lon="6.190137"><ele>418.8</ele><time>2025-05-25T06:40:00Z</time></trkpt>
<trkpt lat="50.234203" lon="6.190191"><ele>418.03</ele><time>2025-05-25T06:40:02Z</time></trkpt>
<trkpt lat="50.234573" lon="6.190237"><ele>413.82</ele><time>2025-05-25T06:40:04Z</time></trkpt>
<trkpt lat="50.234772" lon="6.190234"><ele>410.68</ele><time>2025-05-25T06:40:06Z</time></trkpt>
<trkpt lat="50.234841" lon="6.190218"><ele>409.53</ele><time>2025-05-25T06:40:08Z</time></trkpt>
<trkpt lat="50.23495" lon="6.190154"><ele>407.95</ele><time>2025-05-25T06:40:10Z</time></trkpt>
<trkpt lat="50.235025" lon="6.190035"><ele>407.39</ele><time>2025-05-25T06:40:12Z</time></trkpt>
<trkpt lat="50.235271" lon="6.18918"><ele>402.18</ele><time>2025-05-25T06:40:14Z</time></trkpt>
<trkpt lat="50.23536" lon="6.188923"><ele>401.4</ele><time>2025-05-25T06:40:16Z</time></trkpt>
<trkpt lat="50.235489" lon="6.18867"><ele>401.46</ele><time>2025-05-25T06:40:18Z</time></trkpt>
<trkpt lat="50.236474" lon="6.187373"><ele>392.79</ele><time>2025-05-25T06:40:20Z</time></trkpt>
<trkpt lat="50.236596" lon="6.187133"><ele>390.84</ele><time>2025-05-25T06:40:22Z</time></trkpt>
<trkpt lat="50.236641" lon="6.186945"><ele>390.56</ele><time>2025-05-25T06:40:24Z</time></trkpt>
<trkpt lat="50.236658" lon="6.186609"><ele>389.98</ele><time>2025-05-25T06:40:26Z</time></trkpt>
<trkpt lat="50.236575" lon="6.185824"><ele>389.29</ele><time>2025-05-25T06:40:28Z</time></trkpt>
<trkpt lat="50.236574" lon="6.185381"><ele>389.3</ele><time>2025-05-25T06:40:30Z</time></trkpt>
<trkpt lat="50.236608" lon="6.185136"><ele>389.19</ele><time>2025-05-25T06:40:32Z</time></trkpt>
<trkpt lat="50.236669" lon="6.184951"><ele>388.48</ele><time>2025-05-25T06:40:34Z</time></trkpt>
<trkpt lat="50.237247" lon="6.184032"><ele>382.0</ele><time>2025-05-25T06:40:35Z</time></trkpt>
<trkpt lat="50.237305" lon="6.183973"><ele>381.0</ele><time>2025-05-25T06:40:37Z</time></trkpt>
<trkpt lat="50.237538" lon="6.183785"><ele>377.51</ele><time>2025-05-25T06:40:39Z</time></trkpt>
<trkpt lat="50.237818" lon="6.183593"><ele>379.35</ele><time>2025-05-25T06:40:41Z</time></trkpt>
<trkpt lat="50.238451" lon="6.183209"><ele>386.31</ele><time>2025-05-25T06:40:43Z</time></trkpt>
<trkpt lat="50.239518" lon="6.182825"><ele>391.7</ele><time>2025-05-25T06:40:45Z</time></trkpt>
<trkpt lat="50.240049" lon="6.182478"><ele>400.27</ele><time>2025-05-25T06:40:47Z</time></trkpt>
<trkpt lat="50.240265" lon="6.182376"><ele>401.46</ele><time>2025-05-25T06:40:49Z</time></trkpt>
<trkpt lat="50.240695" lon="6.182272"><ele>399.08</ele><time>2025-05-25T06:40:51Z</time></trkpt>
<trkpt lat="50.240973" lon="6.182265"><ele>399.0</ele><time>2025-05-25T06:40:53Z</time></trkpt>
<trkpt lat="50.241145" lon="6.182288"><ele>400.36</ele><time>2025-05-25T06:40:55Z</time></trkpt>
<trkpt lat="50.24146" lon="6.182387"><ele>401.73</ele><time>2025-05-25T06:40:57Z</time></trkpt>
<trkpt lat="50.242262" lon="6.182817"><ele>407.75</ele><time>2025-05-25T06:40:59Z</time></trkpt>
<trkpt lat="50.242525" lon="6.182898"><ele>403.17</ele><time>2025-05-25T06:41:01Z</time></trkpt>
<trkpt lat="50.242906" lon="6.182926"><ele>402.87</ele><time>2025-05-25T06:41:03Z</time></trkpt>
<trkpt lat="50.243046" lon="6.182899"><ele>403.93</ele><time>2025-05-25T06:41:05Z</time></trkpt>
<trkpt lat="50.243161" lon="6.182849"><ele>405.07</ele><time>2025-05-25T06:41:07Z</time></trkpt>
<trkpt lat="50.243293" lon="6.182755"><ele>405.99</ele><time>2025-05-25T06:41:09Z</time></trkpt>
<trkpt lat="50.243392" lon="6.182654"><ele>406.98</ele><time>2025-05-25T06:41:11Z</time></trkpt>
<trkpt lat="50.243514" lon="6.18248"><ele>406.78</ele><time>2025-05-25T06:41:13Z</time></trkpt>
<trkpt lat="50.243958" lon="6.181533"><ele>404.54</ele><time>2025-05-25T06:41:15Z</time></trkpt>
<trkpt lat="50.244301" lon="6.180866"><ele>410.07</ele><time>2025-05-25T06:41:17Z</time></trkpt>
<trkpt lat="50.244428" lon="6.18067"><ele>410.97</ele><time>2025-05-25T06:41:19Z</time></trkpt>
<trkpt lat="50.244614" lon="6.180508"><ele>412.68</ele><time>2025-05-25T06:41:21Z</time></trkpt>
<trkpt lat="50.244869" lon="6.180405"><ele>415.52</ele><time>2025-05-25T06:41:23Z</time></trkpt>
<trkpt lat="50.245023" lon="6.180408"><ele>416.74</ele><time>2025-05-25T06:41:24Z</time></trkpt>
<trkpt lat="50.245427" lon="6.180533"><ele>416.57</ele><time>2025-05-25T06:41:26Z</time></trkpt>
<trkpt lat="50.246003" lon="6.180771"><ele>425.41</ele><time>2025-05-25T06:41:28Z</time></trkpt>
<trkpt lat="50.246256" lon="6.180784"><ele>428.48</ele><time>2025-05-25T06:41:30Z</time></trkpt>
<trkpt lat="50.246353" lon="6.180764"><ele>429.45</ele><time>2025-05-25T06:41:32Z</time></trkpt>
<trkpt lat="50.247209" lon="6.18044"><ele>428.09</ele><time>2025-05-25T06:41:34Z</time></trkpt>
<trkpt lat="50.247305" lon="6.180374"><ele>428.39</ele><time>2025-05-25T06:41:36Z</time></trkpt>
<trkpt lat="50.247305" lon="6.180374"><ele>428.39</ele><time>2025-05-25T06:41:36Z</time></trkpt>
<trkpt lat="50.247382" lon="6.180275"><ele>429.3</ele><time>2025-05-25T06:41:39Z</time></trkpt>
<trkpt lat="50.24743" lon="6.180131"><ele>430.2</ele><time>2025-05-25T06:41:41Z</time></trkpt>
<trkpt lat="50.24747" lon="6.1799"><ele>431.09</ele><time>2025-05-25T06:41:43Z</time></trkpt>
<trkpt lat="50.247559" lon="6.178661"><ele>441.56</ele><time>2025-05-25T06:41:45Z</time></trkpt>
<trkpt lat="50.247639" lon="6.177961"><ele>446.04</ele><time>2025-05-25T06:41:48Z</time></trkpt>
<trkpt lat="50.247724" lon="6.177497"><ele>445.74</ele><time>2025-05-25T06:41:50Z</time></trkpt>
<trkpt lat="50.247932" lon="6.176551"><ele>444.65</ele><time>2025-05-25T06:41:52Z</time></trkpt>
<trkpt lat="50.247932" lon="6.176163"><ele>446.82</ele><time>2025-05-25T06:41:54Z</time></trkpt>
<trkpt lat="50.247866" lon="6.175537"><ele>450.09</ele><time>2025-05-25T06:41:57Z</time></trkpt>
<trkpt lat="50.247885" lon="6.175267"><ele>449.69</ele><time>2025-05-25T06:41:59Z</time></trkpt>
<trkpt lat="50.247915" lon="6.175084"><ele>449.03</ele><time>2025-05-25T06:42:01Z</time></trkpt>
<trkpt lat="50.247965" lon="6.174924"><ele>449.33</ele><time>2025-05-25T06:42:04Z</time></trkpt>
<trkpt lat="50.248062" lon="6.174719"><ele>450.93</ele><time>2025-05-25T06:42:06Z</time></trkpt>
<trkpt lat="50.24815" lon="6.174598"><ele>450.92</ele><time>2025-05-25T06:42:08Z</time></trkpt>
<trkpt lat="50.249643" lon="6.173315"><ele>463.85</ele><time>2025-05-25T06:42:10Z</time></trkpt>
<trkpt lat="50.249794" lon="6.173122"><ele>467.01</ele><time>2025-05-25T06:42:13Z</time></trkpt>
<trkpt lat="50.249882" lon="6.172896"><ele>470.6</ele><time>2025-05-25T06:42:15Z</time></trkpt>
<trkpt lat="50.249959" lon="6.172572"><ele>473.33</ele><time>2025-05-25T06:42:17Z</time></trkpt>
<trkpt lat="50.250739" lon="6.168534"><ele>482.71</ele><time>2025-05-25T06:42:19Z</time></trkpt>
<trkpt lat="50.250796" lon="6.168355"><ele>483.18</ele><time>2025-05-25T06:42:22Z</time></trkpt>
<trkpt lat="50.250922" lon="6.168105"><ele>484.38</ele><time>2025-05-25T06:42:24Z</time></trkpt>
<trkpt lat="50.251096" lon="6.167902"><ele>484.61</ele><time>2025-05-25T06:42:26Z</time></trkpt>
<trkpt lat="50.251333" lon="6.167688"><ele>484.52</ele><time>2025-05-25T06:42:29Z</time></trkpt>
<trkpt lat="50.251567" lon="6.167503"><ele>484.99</ele><time>2025-05-25T06:42:31Z</time></trkpt>
<trkpt lat="50.251781" lon="6.167423"><ele>484.59</ele><time>2025-05-25T06:42:33Z</time></trkpt>
<trkpt lat="50.252206" lon="6.167443"><ele>484.0</ele><time>2025-05-25T06:42:35Z</time></trkpt>
<trkpt lat="50.252493" lon="6.167482"><ele>483.94</ele><time>2025-05-25T06:42:38Z</time></trkpt>
<trkpt lat="50.253105" lon="6.167686"><ele>487.42</ele><time>2025-05-25T06:42:40Z</time></trkpt>
<trkpt lat="50.253478" lon="6.167482"><ele>485.8</ele><time>2025-05-25T06:42:41Z</time></trkpt>
<trkpt lat="50.254073" lon="6.167274"><ele>485.91</ele><time>2025-05-25T06:42:43Z</time></trkpt>
<trkpt lat="50.254239" lon="6.16715"><ele>486.52</ele><time>2025-05-25T06:42:44Z</time></trkpt>
<trkpt lat="50.254419" lon="6.166955"><ele>487.77</ele><time>2025-05-25T06:42:45Z</time></trkpt>
<trkpt lat="50.254524" lon="6.16677"><ele>488.51</ele><time>2025-05-25T06:42:47Z</time></trkpt>
<trkpt lat="50.2546" lon="6.166578"><ele>489.1</ele><time>2025-05-25T06:42:48Z</time></trkpt>
<trkpt lat="50.254755" lon="6.165959"><ele>490.26</ele><time>2025-05-25T06:42:49Z</time></trkpt>
<trkpt lat="50.254809" lon="6.165804"><ele>489.83</ele><time>2025-05-25T06:42:51Z</time></trkpt>
<trkpt lat="50.254905" lon="6.165606"><ele>490.16</ele><time>2025-05-25T06:42:52Z</time></trkpt>
<trkpt lat="50.255074" lon="6.165358"><ele>487.82</ele><time>2025-05-25T06:42:53Z</time></trkpt>
<trkpt lat="50.255074" lon="6.165358"><ele>487.82</ele><time>2025-05-25T06:42:53Z</time></trkpt>
<trkpt lat="50.255203" lon="6.165231"><ele>485.72</ele><time>2025-05-25T06:42:56Z</time></trkpt>
<trkpt lat="50.255501" lon="6.165064"><ele>483.69</ele><time>2025-05-25T06:42:58Z</time></trkpt>
<trkpt lat="50.2559" lon="6.164923"><ele>482.48</ele><time>2025-05-25T06:43:00Z</time></trkpt>
<trkpt lat="50.25742" lon="6.164645"><ele>476.73</ele><time>2025-05-25T06:43:03Z</time></trkpt>
<trkpt lat="50.257615" lon="6.164538"><ele>476.09</ele><time>2025-05-25T06:43:05Z</time></trkpt>
<trkpt lat="50.25777" lon="6.164351"><ele>475.63</ele><time>2025-05-25T06:43:07Z</time></trkpt>
<trkpt lat="50.2579" lon="6.164057"><ele>476.32</ele><time>2025-05-25T06:43:09Z</time></trkpt>
<trkpt lat="50.258011" lon="6.163741"><ele>478.05</ele><time>2025-05-25T06:43:12Z</time></trkpt>
<trkpt lat="50.258122" lon="6.163274"><ele>479.91</ele><time>2025-05-25T06:43:14Z</time></trkpt>
<trkpt lat="50.258122" lon="6.162969"><ele>479.72</ele><time>2025-05-25T06:43:16Z</time></trkpt>
<trkpt lat="50.258101" lon="6.162808"><ele>479.49</ele><time>2025-05-25T06:43:19Z</time></trkpt>
<trkpt lat="50.256976" lon="6.157652"><ele>473.71</ele><time>2025-05-25T06:43:21Z</time></trkpt>
<trkpt lat="50.256959" lon="6.157412"><ele>473.11</ele><time>2025-05-25T06:43:23Z</time></trkpt>
<trkpt lat="50.25714" lon="6.157033"><ele>473.52</ele><time>2025-05-25T06:43:25Z</time></trkpt>
<trkpt lat="50.257288" lon="6.156794"><ele>474.06</ele><time>2025-05-25T06:43:28Z</time></trkpt>
<trkpt lat="50.257453" lon="6.156639"><ele>475.2</ele><time>2025-05-25T06:43:30Z</time></trkpt>
<trkpt lat="50.257766" lon="6.156459"><ele>472.56</ele><time>2025-05-25T06:43:32Z</time></trkpt>
<trkpt lat="50.258295" lon="6.156317"><ele>464.53</ele><time>2025-05-25T06:43:35Z</time></trkpt>
<trkpt lat="50.258577" lon="6.156113"><ele>461.14</ele><time>2025-05-25T06:43:37Z</time></trkpt>
<trkpt lat="50.2587" lon="6.155961"><ele>459.02</ele><time>2025-05-25T06:43:39Z</time></trkpt>
<trkpt lat="50.258821" lon="6.155784"><ele>457.18</ele><time>2025-05-25T06:43:41Z</time></trkpt>
<trkpt lat="50.258989" lon="6.155451"><ele>456.15</ele><time>2025-05-25T06:43:44Z</time></trkpt>
<trkpt lat="50.259143" lon="6.155057"><ele>454.49</ele><time>2025-05-25T06:43:46Z</time></trkpt>
<trkpt lat="50.259286" lon="6.154626"><ele>453.07</ele><time>2025-05-25T06:43:48Z</time></trkpt>
<trkpt lat="50.259469" lon="6.154221"><ele>451.77</ele><time>2025-05-25T06:43:50Z</time></trkpt>
<trkpt lat="50.259622" lon="6.153626"><ele>449.73</ele><time>2025-05-25T06:43:53Z</time></trkpt>
<trkpt lat="50.259713" lon="6.153053"><ele>446.95</ele><time>2025-05-25T06:43:55Z</time></trkpt>
<trkpt lat="50.259761" lon="6.152677"><ele>444.5</ele><time>2025-05-25T06:43:57Z</time></trkpt>
<trkpt lat="50.259778" lon="6.152402"><ele>442.7</ele><time>2025-05-25T06:44:00Z</time></trkpt>
<trkpt lat="50.259779" lon="6.151675"><ele>439.42</ele><time>2025-05-25T06:44:02Z</time></trkpt>
<trkpt lat="50.259653" lon="6.149274"><ele>428.56</ele><time>2025-05-25T06:44:04Z</time></trkpt>
<trkpt lat="50.259679" lon="6.149108"><ele>426.92</ele><time>2025-05-25T06:44:06Z</time></trkpt>
<trkpt lat="50.259355" lon="6.149098"><ele>429.47</ele><time>2025-05-25T06:44:09Z</time></trkpt>
<trkpt lat="50.259148" lon="6.149203"><ele>430.93</ele><time>2025-05-25T06:44:11Z</time></trkpt>
<trkpt lat="50.258978" lon="6.149358"><ele>430.32</ele><time>2025-05-25T06:44:13Z</time></trkpt>
<trkpt lat="50.258731" lon="6.149664"><ele>428.17</ele><time>2025-05-25T06:44:15Z</time></trkpt>
<trkpt lat="50.258627" lon="6.149704"><ele>427.11</ele><time>2025-05-25T06:44:17Z</time></trkpt>
<trkpt lat="50.258534" lon="6.1497"><ele>426.34</ele><time>2025-05-25T06:44:19Z</time></trkpt>
<trkpt lat="50.257865" lon="6.149268"><ele>422.73</ele><time>2025-05-25T06:44:21Z</time></trkpt>
<trkpt lat="50.257671" lon="6.149225"><ele>423.29</ele><time>2025-05-25T06:44:23Z</time></trkpt>
<trkpt lat="50.257532" lon="6.149236"><ele>423.47</ele><time>2025-05-25T06:44:25Z</time></trkpt>
<trkpt lat="50.256938" lon="6.149443"><ele>426.0</ele><time>2025-05-25T06:44:27Z</time></trkpt>
<trkpt lat="50.256657" lon="6.149499"><ele>427.36</ele><time>2025-05-25T06:44:29Z</time></trkpt>
<trkpt lat="50.255838" lon="6.149551"><ele>426.39</ele><time>2025-05-25T06:44:32Z</time></trkpt>
<trkpt lat="50.255299" lon="6.149789"><ele>424.86</ele><time>2025-05-25T06:44:34Z</time></trkpt>
<trkpt lat="50.25501" lon="6.149872"><ele>425.62</ele><time>2025-05-25T06:44:36Z</time></trkpt>
<trkpt lat="50.254894" lon="6.149854"><ele>424.84</ele><time>2025-05-25T06:44:38Z</time></trkpt>
<trkpt lat="50.25368" lon="6.149415"><ele>424.39</ele><time>2025-05-25T06:44:40Z</time></trkpt>
<trkpt lat="50.25311" lon="6.149241"><ele>427.61</ele><time>2025-05-25T06:44:42Z</time></trkpt>
<trkpt lat="50.25248" lon="6.149102"><ele>423.25</ele><time>2025-05-25T06:44:44Z</time></trkpt>
<trkpt lat="50.252017" lon="6.149032"><ele>422.77</ele><time>2025-05-25T06:44:46Z</time></trkpt>
<trkpt lat="50.251743" lon="6.148936"><ele>422.34</ele><time>2025-05-25T06:44:48Z</time></trkpt>
<trkpt lat="50.251391" lon="6.148727"><ele>418.25</ele><time>2025-05-25T06:44:50Z</time></trkpt>
<trkpt lat="50.251148" lon="6.148611"><ele>415.27</ele><time>2025-05-25T06:44:53Z</time></trkpt>
<trkpt lat="50.250968" lon="6.148602"><ele>415.48</ele><time>2025-05-25T06:44:55Z</time></trkpt>
<trkpt lat="50.250888" lon="6.14862"><ele>415.84</ele><time>2025-05-25T06:44:57Z</time></trkpt>
<trkpt lat="50.250748" lon="6.148559"><ele>415.75</ele><time>2025-05-25T06:44:59Z</time></trkpt>
<trkpt lat="50.250554" lon="6.148416"><ele>414.61</ele><time>2025-05-25T06:45:01Z</time></trkpt>
<trkpt lat="50.250558" lon="6.148269"><ele>413.54</ele><time>2025-05-25T06:45:10Z</time></trkpt>
<trkpt lat="50.250533" lon="6.148105"><ele>412.52</ele><time>2025-05-25T06:45:18Z</time></trkpt>
<trkpt lat="50.250598" lon="6.148042"><ele>412.1</ele><time>2025-05-25T06:45:23Z</time></trkpt>
<trkpt lat="50.250618" lon="6.147949"><ele>411.75</ele><time>2025-05-25T06:45:27Z</time></trkpt>
<trkpt lat="50.250619" lon="6.147853"><ele>411.33</ele><time>2025-05-25T06:45:31Z</time></trkpt>
<trkpt lat="50.251019" lon="6.147864"><ele>410.95</ele><time>2025-05-25T06:45:36Z</time></trkpt>
<trkpt lat="50.251127" lon="6.147789"><ele>410.02</ele><time>2025-05-25T06:45:40Z</time></trkpt>
<trkpt lat="50.251789" lon="6.146914"><ele>408.16</ele><time>2025-05-25T06:45:44Z</time></trkpt>
<trkpt lat="50.251898" lon="6.146806"><ele>408.92</ele><time>2025-05-25T06:45:49Z</time></trkpt>
<trkpt lat="50.252106" lon="6.146741"><ele>408.3</ele><time>2025-05-25T06:45:53Z</time></trkpt>
<trkpt lat="50.251893" lon="6.146066"><ele>417.98</ele><time>2025-05-25T06:46:04Z</time></trkpt>
<trkpt lat="50.251395" lon="6.145266"><ele>423.2</ele><time>2025-05-25T06:46:15Z</time></trkpt>
<trkpt lat="50.251422" lon="6.145124"><ele>425.32</ele><time>2025-05-25T06:46:23Z</time></trkpt>
<trkpt lat="50.251422" lon="6.144994"><ele>427.05</ele><time>2025-05-25T06:46:31Z</time></trkpt>
<trkpt lat="50.251223" lon="6.144332"><ele>430.02</ele><time>2025-05-25T06:46:39Z</time></trkpt>
<trkpt lat="50.251246" lon="6.143892"><ele>433.43</ele><time>2025-05-25T06:46:46Z</time></trkpt>
<trkpt lat="50.251444" lon="6.14215"><ele>442.72</ele><time>2025-05-25T06:46:54Z</time></trkpt>
<trkpt lat="50.251494" lon="6.14134"><ele>449.42</ele><time>2025-05-25T06:47:02Z</time></trkpt>
<trkpt lat="50.251517" lon="6.14051"><ele>454.71</ele><time>2025-05-25T06:47:10Z</time></trkpt>
<trkpt lat="50.25159" lon="6.139811"><ele>459.04</ele><time>2025-05-25T06:47:17Z</time></trkpt>
<trkpt lat="50.251634" lon="6.139148"><ele>464.95</ele><time>2025-05-25T06:47:25Z</time></trkpt>
<trkpt lat="50.251592" lon="6.138827"><ele>466.02</ele><time>2025-05-25T06:47:33Z</time></trkpt>
<trkpt lat="50.251436" lon="6.138448"><ele>468.07</ele><time>2025-05-25T06:47:40Z</time></trkpt>
<trkpt lat="50.251204" lon="6.137698"><ele>470.76</ele><time>2025-05-25T06:47:48Z</time></trkpt>
<trkpt lat="50.250562" lon="6.136464"><ele>483.44</ele><time>2025-05-25T06:47:55Z</time></trkpt>
<trkpt lat="50.250266" lon="6.135996"><ele>483.41</ele><time>2025-05-25T06:48:02Z</time></trkpt>
<trkpt lat="50.249565" lon="6.135246"><ele>487.11</ele><time>2025-05-25T06:48:10Z</time></trkpt>
<trkpt lat="50.248694" lon="6.134129"><ele>494.36</ele><time>2025-05-25T06:48:17Z</time></trkpt>
<trkpt lat="50.248089" lon="6.13339"><ele>495.02</ele><time>2025-05-25T06:48:25Z</time></trkpt>
<trkpt lat="50.247997" lon="6.133305"><ele>495.02</ele><time>2025-05-25T06:48:32Z</time></trkpt>
<trkpt lat="50.247793" lon="6.133177"><ele>495.53</ele><time>2025-05-25T06:48:38Z</time></trkpt>
<trkpt lat="50.247562" lon="6.132986"><ele>497.81</ele><time>2025-05-25T06:48:44Z</time></trkpt>
<trkpt lat="50.247357" lon="6.132773"><ele>500.01</ele><time>2025-05-25T06:48:50Z</time></trkpt>
<trkpt lat="50.247041" lon="6.132182"><ele>500.6</ele><time>2025-05-25T06:48:56Z</time></trkpt>
<trkpt lat="50.246929" lon="6.131879"><ele>501.05</ele><time>2025-05-25T06:49:02Z</time></trkpt>
<trkpt lat="50.246817" lon="6.131634"><ele>501.34</ele><time>2025-05-25T06:49:07Z</time></trkpt>
<trkpt lat="50.246202" lon="6.130439"><ele>502.67</ele><time>2025-05-25T06:49:13Z</time></trkpt>
<trkpt lat="50.245701" lon="6.129182"><ele>505.0</ele><time>2025-05-25T06:49:19Z</time></trkpt>
<trkpt lat="50.245575" lon="6.128829"><ele>504.78</ele><time>2025-05-25T06:49:25Z</time></trkpt>
<trkpt lat="50.2454" lon="6.128145"><ele>502.76</ele><time>2025-05-25T06:49:31Z</time></trkpt>
<trkpt lat="50.2453" lon="6.127516"><ele>502.87</ele><time>2025-05-25T06:49:37Z</time></trkpt>
<trkpt lat="50.245102" lon="6.125272"><ele>515.52</ele><time>2025-05-25T06:49:43Z</time></trkpt>
<trkpt lat="50.245248" lon="6.125232"><ele>500.71</ele><time>2025-05-25T06:49:45Z</time></trkpt>
<trkpt lat="50.245248" lon="6.125232"><ele>500.71</ele><time>2025-05-25T06:49:45Z</time></trkpt>
<trkpt lat="50.247611" lon="6.124584"><ele>485.91</ele><time>2025-05-25T06:49:52Z</time></trkpt>
<trkpt lat="50.248191" lon="6.124448"><ele>477.06</ele><time>2025-05-25T06:49:59Z</time></trkpt>
<trkpt lat="50.24833" lon="6.124353"><ele>475.38</ele><time>2025-05-25T06:50:06Z</time></trkpt>
<trkpt lat="50.248647" lon="6.124049"><ele>473.36</ele><time>2025-05-25T06:50:12Z</time></trkpt>
<trkpt lat="50.24914" lon="6.124113"><ele>466.11</ele><time>2025-05-25T06:50:19Z</time></trkpt>
<trkpt lat="50.249388" lon="6.124108"><ele>464.19</ele><time>2025-05-25T06:50:26Z</time></trkpt>
<trkpt lat="50.250303" lon="6.123787"><ele>457.95</ele><time>2025-05-25T06:50:33Z</time></trkpt>
<trkpt lat="50.25064" lon="6.123752"><ele>454.73</ele><time>2025-05-25T06:50:40Z</time></trkpt>
<trkpt lat="50.250946" lon="6.123805"><ele>454.21</ele><time>2025-05-25T06:50:46Z</time></trkpt>
<trkpt lat="50.251568" lon="6.123812"><ele>446.59</ele><time>2025-05-25T06:50:53Z</time></trkpt>
<trkpt lat="50.252269" lon="6.123784"><ele>445.38</ele><time>2025-05-25T06:51:00Z</time></trkpt>
<trkpt lat="50.253017" lon="6.123447"><ele>440.6</ele><time>2025-05-25T06:51:07Z</time></trkpt>
<trkpt lat="50.253231" lon="6.123378"><ele>439.63</ele><time>2025-05-25T06:51:14Z</time></trkpt>
<trkpt lat="50.253366" lon="6.123376"><ele>439.09</ele><time>2025-05-25T06:51:20Z</time></trkpt>
<trkpt lat="50.253853" lon="6.123433"><ele>435.77</ele><time>2025-05-25T06:51:27Z</time></trkpt>
<trkpt lat="50.254262" lon="6.12361"><ele>435.61</ele><time>2025-05-25T06:51:34Z</time></trkpt>
<trkpt lat="50.254786" lon="6.123545"><ele>425.79</ele><time>2025-05-25T06:51:41Z</time></trkpt>
<trkpt lat="50.254994" lon="6.123482"><ele>421.19</ele><time>2025-05-25T06:51:48Z</time></trkpt>
<trkpt lat="50.255268" lon="6.123152"><ele>420.32</ele><time>2025-05-25T06:51:54Z</time></trkpt>
<trkpt lat="50.255463" lon="6.122885"><ele>420.95</ele><time>2025-05-25T06:52:01Z</time></trkpt>
<trkpt lat="50.255732" lon="6.122327"><ele>423.85</ele><time>2025-05-25T06:52:08Z</time></trkpt>
<trkpt lat="50.25602" lon="6.121882"><ele>425.63</ele><time>2025-05-25T06:52:15Z</time></trkpt>
<trkpt lat="50.256247" lon="6.121417"><ele>426.46</ele><time>2025-05-25T06:52:22Z</time></trkpt>
<trkpt lat="50.256546" lon="6.12101"><ele>426.72</ele><time>2025-05-25T06:52:28Z</time></trkpt>
<trkpt lat="50.257754" lon="6.11925"><ele>432.85</ele><time>2025-05-25T06:52:35Z</time></trkpt>
<trkpt lat="50.257902" lon="6.118889"><ele>433.11</ele><time>2025-05-25T06:52:42Z</time></trkpt>
<trkpt lat="50.25807" lon="6.118203"><ele>435.35</ele><time>2025-05-25T06:52:49Z</time></trkpt>
<trkpt lat="50.258223" lon="6.117781"><ele>438.97</ele><time>2025-05-25T06:52:56Z</time></trkpt>
<trkpt lat="50.258406" lon="6.117459"><ele>443.7</ele><time>2025-05-25T06:53:02Z</time></trkpt>
<trkpt lat="50.258691" lon="6.117095"><ele>448.53</ele><time>2025-05-25T06:53:09Z</time></trkpt>
<trkpt lat="50.258915" lon="6.116666"><ele>451.91</ele><time>2025-05-25T06:53:16Z</time></trkpt>
<trkpt lat="50.259421" lon="6.115574"><ele>457.96</ele><time>2025-05-25T06:53:23Z</time></trkpt>
<trkpt lat="50.259756" lon="6.1148"><ele>457.41</ele><time>2025-05-25T06:53:30Z</time></trkpt>
<trkpt lat="50.260614" lon="6.113343"><ele>469.15</ele><time>2025-05-25T06:53:36Z</time></trkpt>
<trkpt lat="50.261981" lon="6.111187"><ele>468.0</ele><time>2025-05-25T06:53:43Z</time></trkpt>
<trkpt lat="50.262103" lon="6.110936"><ele>467.37</ele><time>2025-05-25T06:53:50Z</time></trkpt>
<trkpt lat="50.262369" lon="6.111077"><ele>467.35</ele><time>2025-05-25T06:53:52Z</time></trkpt>
<trkpt lat="50.262369" lon="6.111073"><ele>466.8</ele><time>2025-05-25T06:54:07Z</time></trkpt>
<trkpt lat="50.262369" lon="6.111073"><ele>466.8</ele><time>2025-05-25T06:54:07Z</time></trkpt>
<trkpt lat="50.262428" lon="6.110735"><ele>466.26</ele><time>2025-05-25T06:54:18Z</time></trkpt>
<trkpt lat="50.262519" lon="6.109704"><ele>467.0</ele><time>2025-05-25T06:54:29Z</time></trkpt>
<trkpt lat="50.262815" lon="6.108384"><ele>468.24</ele><time>2025-05-25T06:54:39Z</time></trkpt>
<trkpt lat="50.263117" lon="6.107615"><ele>472.94</ele><time>2025-05-25T06:54:50Z</time></trkpt>
<trkpt lat="50.264574" lon="6.104621"><ele>486.46</ele><time>2025-05-25T06:55:01Z</time></trkpt>
<trkpt lat="50.26595" lon="6.102268"><ele>485.52</ele><time>2025-05-25T06:55:12Z</time></trkpt>
<trkpt lat="50.266221" lon="6.101532"><ele>482.45</ele><time>2025-05-25T06:55:22Z</time></trkpt>
<trkpt lat="50.266239" lon="6.101357"><ele>480.85</ele><time>2025-05-25T06:55:33Z</time></trkpt>
<trkpt lat="50.266419" lon="6.100435"><ele>475.89</ele><time>2025-05-25T06:55:38Z</time></trkpt>
<trkpt lat="50.266478" lon="6.099967"><ele>475.08</ele><time>2025-05-25T06:55:43Z</time></trkpt>
<trkpt lat="50.266508" lon="6.099499"><ele>473.34</ele><time>2025-05-25T06:55:48Z</time></trkpt>
<trkpt lat="50.266577" lon="6.099132"><ele>471.06</ele><time>2025-05-25T06:55:53Z</time></trkpt>
<trkpt lat="50.266623" lon="6.098721"><ele>467.15</ele><time>2025-05-25T06:55:58Z</time></trkpt>
<trkpt lat="50.266498" lon="6.096868"><ele>451.0</ele><time>2025-05-25T06:56:03Z</time></trkpt>
<trkpt lat="50.266557" lon="6.096127"><ele>447.69</ele><time>2025-05-25T06:56:08Z</time></trkpt>
<trkpt lat="50.266599" lon="6.096051"><ele>447.54</ele><time>2025-05-25T06:56:13Z</time></trkpt>
<trkpt lat="50.266589" lon="6.095951"><ele>447.14</ele><time>2025-05-25T06:56:14Z</time></trkpt>
<trkpt lat="50.266597" lon="6.095816"><ele>446.7</ele><time>2025-05-25T06:56:15Z</time></trkpt>
<trkpt lat="50.266725" lon="6.095168"><ele>444.92</ele><time>2025-05-25T06:56:16Z</time></trkpt>
<trkpt lat="50.266798" lon="6.094888"><ele>445.33</ele><time>2025-05-25T06:56:17Z</time></trkpt>
<trkpt lat="50.266904" lon="6.094516"><ele>446.99</ele><time>2025-05-25T06:56:19Z</time></trkpt>
<trkpt lat="50.267105" lon="6.094113"><ele>450.39</ele><time>2025-05-25T06:56:20Z</time></trkpt>
<trkpt lat="50.267145" lon="6.093985"><ele>451.31</ele><time>2025-05-25T06:56:21Z</time></trkpt>
<trkpt lat="50.26717" lon="6.093795"><ele>452.34</ele><time>2025-05-25T06:56:22Z</time></trkpt>
<trkpt lat="50.26717" lon="6.093535"><ele>453.22</ele><time>2025-05-25T06:56:23Z</time></trkpt>
<trkpt lat="50.267147" lon="6.093339"><ele>453.71</ele><time>2025-05-25T06:56:24Z</time></trkpt>
<trkpt lat="50.266646" lon="6.093186"><ele>452.45</ele><time>2025-05-25T06:56:29Z</time></trkpt>
<trkpt lat="50.266138" lon="6.092878"><ele>450.19</ele><time>2025-05-25T06:56:33Z</time></trkpt>
<trkpt lat="50.26589" lon="6.092555"><ele>449.37</ele><time>2025-05-25T06:56:38Z</time></trkpt>
<trkpt lat="50.265355" lon="6.091702"><ele>448.56</ele><time>2025-05-25T06:56:43Z</time></trkpt>
<trkpt lat="50.265106" lon="6.090962"><ele>450.92</ele><time>2025-05-25T06:56:48Z</time></trkpt>
<trkpt lat="50.264917" lon="6.090681"><ele>450.7</ele><time>2025-05-25T06:56:52Z</time></trkpt>
<trkpt lat="50.264423" lon="6.090088"><ele>453.31</ele><time>2025-05-25T06:56:57Z</time></trkpt>
<trkpt lat="50.264024" lon="6.089479"><ele>459.99</ele><time>2025-05-25T06:57:02Z</time></trkpt>
<trkpt lat="50.263849" lon="6.089127"><ele>463.55</ele><time>2025-05-25T06:57:06Z</time></trkpt>
<trkpt lat="50.263558" lon="6.08787"><ele>465.76</ele><time>2025-05-25T06:57:11Z</time></trkpt>
<trkpt lat="50.263168" lon="6.085003"><ele>476.6</ele><time>2025-05-25T06:57:16Z</time></trkpt>
<trkpt lat="50.262783" lon="6.083653"><ele>483.77</ele><time>2025-05-25T06:57:21Z</time></trkpt>
<trkpt lat="50.262831" lon="6.083256"><ele>483.7</ele><time>2025-05-25T06:57:25Z</time></trkpt>
<trkpt lat="50.262636" lon="6.082331"><ele>485.51</ele><time>2025-05-25T06:57:30Z</time></trkpt>
<trkpt lat="50.26219" lon="6.078705"><ele>475.06</ele><time>2025-05-25T06:57:35Z</time></trkpt>
<trkpt lat="50.261974" lon="6.077398"><ele>471.89</ele><time>2025-05-25T06:57:39Z</time></trkpt>
<trkpt lat="50.262044" lon="6.07644"><ele>473.6</ele><time>2025-05-25T06:57:44Z</time></trkpt>
<trkpt lat="50.262275" lon="6.075671"><ele>475.19</ele><time>2025-05-25T06:57:49Z</time></trkpt>
<trkpt lat="50.262078" lon="6.075025"><ele>472.52</ele><time>2025-05-25T06:57:51Z</time></trkpt>
<trkpt lat="50.261947" lon="6.074691"><ele>472.02</ele><time>2025-05-25T06:57:54Z</time></trkpt>
<trkpt lat="50.26102" lon="6.072899"><ele>469.67</ele><time>2025-05-25T06:57:56Z</time></trkpt>
<trkpt lat="50.260714" lon="6.07214"><ele>468.42</ele><time>2025-05-25T06:57:58Z</time></trkpt>
<trkpt lat="50.260441" lon="6.071287"><ele>465.35</ele><time>2025-05-25T06:58:01Z</time></trkpt>
<trkpt lat="50.260354" lon="6.070904"><ele>465.59</ele><time>2025-05-25T06:58:03Z</time></trkpt>
<trkpt lat="50.260259" lon="6.070267"><ele>466.87</ele><time>2025-05-25T06:58:05Z</time></trkpt>
<trkpt lat="50.260182" lon="6.069979"><ele>466.24</ele><time>2025-05-25T06:58:08Z</time></trkpt>
<trkpt lat="50.260059" lon="6.069704"><ele>464.38</ele><time>2025-05-25T06:58:10Z</time></trkpt>
<trkpt lat="50.259972" lon="6.069573"><ele>463.42</ele><time>2025-05-25T06:58:12Z</time></trkpt>
<trkpt lat="50.25954" lon="6.069167"><ele>464.65</ele><time>2025-05-25T06:58:15Z</time></trkpt>
<trkpt lat="50.259413" lon="6.069001"><ele>465.93</ele><time>2025-05-25T06:58:17Z</time></trkpt>
<trkpt lat="50.25938" lon="6.068885"><ele>466.71</ele><time>2025-05-25T06:58:20Z</time></trkpt>
<trkpt lat="50.259517" lon="6.068242"><ele>467.39</ele><time>2025-05-25T06:58:27Z</time></trkpt>
<trkpt lat="50.259704" lon="6.067426"><ele>466.13</ele><time>2025-05-25T06:58:34Z</time></trkpt>
<trkpt lat="50.259857" lon="6.067091"><ele>466.47</ele><time>2025-05-25T06:58:42Z</time></trkpt>
<trkpt lat="50.260593" lon="6.065662"><ele>470.62</ele><time>2025-05-25T06:58:49Z</time></trkpt>
<trkpt lat="50.260842" lon="6.065213"><ele>473.46</ele><time>2025-05-25T06:58:56Z</time></trkpt>
<trkpt lat="50.261014" lon="6.064909"><ele>474.67</ele><time>2025-05-25T06:59:04Z</time></trkpt>
<trkpt lat="50.26134" lon="6.064404"><ele>476.17</ele><time>2025-05-25T06:59:11Z</time></trkpt>
<trkpt lat="50.261601" lon="6.064108"><ele>477.98</ele><time>2025-05-25T06:59:18Z</time></trkpt>
<trkpt lat="50.261833" lon="6.063894"><ele>479.58</ele><time>2025-05-25T06:59:25Z</time></trkpt>
<trkpt lat="50.26246" lon="6.063485"><ele>481.52</ele><time>2025-05-25T06:59:33Z</time></trkpt>
<trkpt lat="50.263181" lon="6.062713"><ele>484.23</ele><time>2025-05-25T06:59:40Z</time></trkpt>
<trkpt lat="50.264317" lon="6.061502"><ele>486.73</ele><time>2025-05-25T06:59:47Z</time></trkpt>
<trkpt lat="50.264619" lon="6.06106"><ele>487.63</ele><time>2025-05-25T06:59:55Z</time></trkpt>
<trkpt lat="50.264739" lon="6.06071"><ele>487.97</ele><time>2025-05-25T07:00:02Z</time></trkpt>
<trkpt lat="50.264892" lon="6.060183"><ele>486.05</ele><time>2025-05-25T07:00:09Z</time></trkpt>
<trkpt lat="50.265943" lon="6.058791"><ele>478.69</ele><time>2025-05-25T07:00:13Z</time></trkpt>
<trkpt lat="50.266091" lon="6.058517"><ele>477.56</ele><time>2025-05-25T07:00:17Z</time></trkpt>
<trkpt lat="50.266198" lon="6.058268"><ele>477.63</ele><time>2025-05-25T07:00:21Z</time></trkpt>
<trkpt lat="50.266277" lon="6.057968"><ele>476.88</ele><time>2025-05-25T07:00:25Z</time></trkpt>
<trkpt lat="50.266395" lon="6.05772"><ele>476.67</ele><time>2025-05-25T07:00:29Z</time></trkpt>
<trkpt lat="50.266562" lon="6.05745"><ele>477.2</ele><time>2025-05-25T07:00:33Z</time></trkpt>
<trkpt lat="50.266745" lon="6.057262"><ele>477.32</ele><time>2025-05-25T07:00:37Z</time></trkpt>
<trkpt lat="50.26712" lon="6.057159"><ele>474.15</ele><time>2025-05-25T07:00:41Z</time></trkpt>
<trkpt lat="50.267296" lon="6.057206"><ele>472.68</ele><time>2025-05-25T07:00:45Z</time></trkpt>
<trkpt lat="50.267851" lon="6.057493"><ele>473.96</ele><time>2025-05-25T07:00:49Z</time></trkpt>
<trkpt lat="50.267961" lon="6.057497"><ele>473.98</ele><time>2025-05-25T07:00:53Z</time></trkpt>
<trkpt lat="50.268068" lon="6.057442"><ele>473.83</ele><time>2025-05-25T07:00:57Z</time></trkpt>
<trkpt lat="50.268151" lon="6.057278"><ele>473.54</ele><time>2025-05-25T07:01:01Z</time></trkpt>
<trkpt lat="50.268265" lon="6.056462"><ele>472.75</ele><time>2025-05-25T07:01:05Z</time></trkpt>
<trkpt lat="50.268416" lon="6.055869"><ele>474.47</ele><time>2025-05-25T07:01:09Z</time></trkpt>
<trkpt lat="50.268614" lon="6.055377"><ele>477.67</ele><time>2025-05-25T07:01:13Z</time></trkpt>
<trkpt lat="50.268927" lon="6.054773"><ele>482.11</ele><time>2025-05-25T07:01:18Z</time></trkpt>
<trkpt lat="50.269062" lon="6.054601"><ele>482.89</ele><time>2025-05-25T07:01:24Z</time></trkpt>
<trkpt lat="50.269356" lon="6.054344"><ele>483.52</ele><time>2025-05-25T07:01:30Z</time></trkpt>
<trkpt lat="50.270105" lon="6.054002"><ele>486.15</ele><time>2025-05-25T07:01:36Z</time></trkpt>
<trkpt lat="50.270409" lon="6.053769"><ele>486.51</ele><time>2025-05-25T07:01:42Z</time></trkpt>
<trkpt lat="50.270852" lon="6.053292"><ele>488.98</ele><time>2025-05-25T07:01:48Z</time></trkpt>
<trkpt lat="50.271867" lon="6.052129"><ele>491.39</ele><time>2025-05-25T07:01:54Z</time></trkpt>
<trkpt lat="50.272109" lon="6.051786"><ele>492.18</ele><time>2025-05-25T07:02:00Z</time></trkpt>
<trkpt lat="50.272645" lon="6.050656"><ele>493.52</ele><time>2025-05-25T07:02:06Z</time></trkpt>
<trkpt lat="50.272845" lon="6.050075"><ele>492.69</ele><time>2025-05-25T07:02:12Z</time></trkpt>
<trkpt lat="50.273291" lon="6.049032"><ele>493.85</ele><time>2025-05-25T07:02:18Z</time></trkpt>
<trkpt lat="50.273572" lon="6.047997"><ele>498.93</ele><time>2025-05-25T07:02:23Z</time></trkpt>
<trkpt lat="50.273819" lon="6.047394"><ele>501.5</ele><time>2025-05-25T07:02:29Z</time></trkpt>
<trkpt lat="50.273849" lon="6.047246"><ele>501.71</ele><time>2025-05-25T07:02:35Z</time></trkpt>
<trkpt lat="50.273922" lon="6.04661"><ele>502.23</ele><time>2025-05-25T07:02:41Z</time></trkpt>
<trkpt lat="50.274008" lon="6.046032"><ele>504.14</ele><time>2025-05-25T07:02:47Z</time></trkpt>
<trkpt lat="50.274112" lon="6.045616"><ele>506.24</ele><time>2025-05-25T07:02:53Z</time></trkpt>
<trkpt lat="50.274522" lon="6.045462"><ele>509.58</ele><time>2025-05-25T07:02:58Z</time></trkpt>
<trkpt lat="50.274507" lon="6.045235"><ele>510.93</ele><time>2025-05-25T07:03:05Z</time></trkpt>
<trkpt lat="50.274554" lon="6.044932"><ele>511.7</ele><time>2025-05-25T07:03:13Z</time></trkpt>
<trkpt lat="50.275079" lon="6.04337"><ele>517.87</ele><time>2025-05-25T07:03:20Z</time></trkpt>
<trkpt lat="50.276094" lon="6.042083"><ele>518.44</ele><time>2025-05-25T07:03:28Z</time></trkpt>
<trkpt lat="50.27713" lon="6.040828"><ele>526.01</ele><time>2025-05-25T07:03:35Z</time></trkpt>
<trkpt lat="50.277644" lon="6.040152"><ele>527.0</ele><time>2025-05-25T07:03:42Z</time></trkpt>
<trkpt lat="50.277925" lon="6.039701"><ele>528.0</ele><time>2025-05-25T07:03:50Z</time></trkpt>
<trkpt lat="50.278626" lon="6.038273"><ele>530.15</ele><time>2025-05-25T07:03:57Z</time></trkpt>
<trkpt lat="50.279721" lon="6.036579"><ele>531.32</ele><time>2025-05-25T07:04:05Z</time></trkpt>
<trkpt lat="50.279968" lon="6.036107"><ele>531.26</ele><time>2025-05-25T07:04:12Z</time></trkpt>
<trkpt lat="50.280267" lon="6.035458"><ele>533.74</ele><time>2025-05-25T07:04:19Z</time></trkpt>
<trkpt lat="50.280319" lon="6.035388"><ele>534.27</ele><time>2025-05-25T07:04:27Z</time></trkpt>
<trkpt lat="50.280496" lon="6.035292"><ele>534.94</ele><time>2025-05-25T07:04:34Z</time></trkpt>
<trkpt lat="50.281259" lon="6.034961"><ele>542.66</ele><time>2025-05-25T07:04:42Z</time></trkpt>
<trkpt lat="50.281638" lon="6.034719"><ele>544.0</ele><time>2025-05-25T07:04:49Z</time></trkpt>
<trkpt lat="50.281727" lon="6.034677"><ele>544.62</ele><time>2025-05-25T07:04:57Z</time></trkpt>
<trkpt lat="50.281727" lon="6.034677"><ele>544.62</ele><time>2025-05-25T07:04:57Z</time></trkpt>
<trkpt lat="50.281638" lon="6.034719"><ele>544.0</ele><time>2025-05-25T07:04:58Z</time></trkpt>
<trkpt lat="50.282444" lon="6.035612"><ele>544.96</ele><time>2025-05-25T07:05:05Z</time></trkpt>
<trkpt lat="50.282672" lon="6.035962"><ele>545.0</ele><time>2025-05-25T07:05:12Z</time></trkpt>
<trkpt lat="50.282879" lon="6.036218"><ele>544.61</ele><time>2025-05-25T07:05:19Z</time></trkpt>
<trkpt lat="50.283023" lon="6.036479"><ele>543.39</ele><time>2025-05-25T07:05:26Z</time></trkpt>
<trkpt lat="50.283608" lon="6.037942"><ele>545.98</ele><time>2025-05-25T07:05:33Z</time></trkpt>
<trkpt lat="50.284236" lon="6.038673"><ele>550.22</ele><time>2025-05-25T07:05:40Z</time></trkpt>
<trkpt lat="50.283689" lon="6.044141"><ele>546.28</ele><time>2025-05-25T07:06:02Z</time></trkpt>
<trkpt lat="50.283596" lon="6.045483"><ele>545.21</ele><time>2025-05-25T07:06:23Z</time></trkpt>
<trkpt lat="50.283267" lon="6.048401"><ele>543.24</ele><time>2025-05-25T07:06:45Z</time></trkpt>
<trkpt lat="50.282648" lon="6.050057"><ele>545.33</ele><time>2025-05-25T07:07:06Z</time></trkpt>
<trkpt lat="50.284376" lon="6.051024"><ele>546.44</ele><time>2025-05-25T07:07:20Z</time></trkpt>
<trkpt lat="50.284646" lon="6.051832"><ele>549.72</ele><time>2025-05-25T07:07:34Z</time></trkpt>
<trkpt lat="50.286976" lon="6.055085"><ele>556.92</ele><time>2025-05-25T07:08:10Z</time></trkpt>
<trkpt lat="50.287454" lon="6.054127"><ele>551.83</ele><time>2025-05-25T07:08:13Z</time></trkpt>
<trkpt lat="50.290355" lon="6.051428"><ele>544.21</ele><time>2025-05-25T07:08:16Z</time></trkpt>
<trkpt lat="50.290624" lon="6.051106"><ele>541.73</ele><time>2025-05-25T07:08:19Z</time></trkpt>
<trkpt lat="50.290804" lon="6.050776"><ele>540.11</ele><time>2025-05-25T07:08:22Z</time></trkpt>
<trkpt lat="50.29087" lon="6.050589"><ele>540.26</ele><time>2025-05-25T07:08:24Z</time></trkpt>
<trkpt lat="50.290924" lon="6.050358"><ele>541.13</ele><time>2025-05-25T07:08:27Z</time></trkpt>
<trkpt lat="50.290982" lon="6.049901"><ele>542.08</ele><time>2025-05-25T07:08:30Z</time></trkpt>
<trkpt lat="50.291062" lon="6.048113"><ele>545.15</ele><time>2025-05-25T07:08:33Z</time></trkpt>
<trkpt lat="50.291088" lon="6.047844"><ele>544.8</ele><time>2025-05-25T07:08:36Z</time></trkpt>
<trkpt lat="50.291184" lon="6.047307"><ele>542.85</ele><time>2025-05-25T07:08:39Z</time></trkpt>
<trkpt lat="50.291332" lon="6.046633"><ele>542.52</ele><time>2025-05-25T07:08:42Z</time></trkpt>
<trkpt lat="50.291436" lon="6.046319"><ele>542.22</ele><time>2025-05-25T07:08:44Z</time></trkpt>
<trkpt lat="50.291678" lon="6.045804"><ele>541.01</ele><time>2025-05-25T07:08:47Z</time></trkpt>
<trkpt lat="50.292012" lon="6.045281"><ele>538.53</ele><time>2025-05-25T07:08:50Z</time></trkpt>
<trkpt lat="50.292188" lon="6.045147"><ele>537.87</ele><time>2025-05-25T07:08:53Z</time></trkpt>
<trkpt lat="50.292283" lon="6.04517"><ele>539.03</ele><time>2025-05-25T07:08:56Z</time></trkpt>
<trkpt lat="50.292412" lon="6.045117"><ele>539.34</ele><time>2025-05-25T07:08:56Z</time></trkpt>
<trkpt lat="50.292473" lon="6.044745"><ele>534.95</ele><time>2025-05-25T07:09:00Z</time></trkpt>
<trkpt lat="50.292542" lon="6.044442"><ele>533.75</ele><time>2025-05-25T07:09:04Z</time></trkpt>
<trkpt lat="50.292612" lon="6.044221"><ele>533.89</ele><time>2025-05-25T07:09:07Z</time></trkpt>
<trkpt lat="50.293431" lon="6.042215"><ele>524.74</ele><time>2025-05-25T07:09:11Z</time></trkpt>
<trkpt lat="50.29364" lon="6.041799"><ele>528.32</ele><time>2025-05-25T07:09:15Z</time></trkpt>
<trkpt lat="50.293732" lon="6.041662"><ele>529.25</ele><time>2025-05-25T07:09:18Z</time></trkpt>
<trkpt lat="50.294118" lon="6.041193"><ele>526.96</ele><time>2025-05-25T07:09:22Z</time></trkpt>
<trkpt lat="50.294587" lon="6.040793"><ele>527.31</ele><time>2025-05-25T07:09:26Z</time></trkpt>
<trkpt lat="50.295018" lon="6.040514"><ele>525.27</ele><time>2025-05-25T07:09:29Z</time></trkpt>
<trkpt lat="50.295249" lon="6.040403"><ele>523.74</ele><time>2025-05-25T07:09:33Z</time></trkpt>
<trkpt lat="50.296635" lon="6.039994"><ele>524.87</ele><time>2025-05-25T07:09:37Z</time></trkpt>
<trkpt lat="50.29765" lon="6.039664"><ele>525.47</ele><time>2025-05-25T07:09:40Z</time></trkpt>
<trkpt lat="50.299013" lon="6.039351"><ele>523.4</ele><time>2025-05-25T07:09:44Z</time></trkpt>
<trkpt lat="50.30188" lon="6.038941"><ele>503.48</ele><time>2025-05-25T07:09:48Z</time></trkpt>
<trkpt lat="50.302139" lon="6.038819"><ele>504.17</ele><time>2025-05-25T07:09:52Z</time></trkpt>
<trkpt lat="50.302501" lon="6.038548"><ele>504.1</ele><time>2025-05-25T07:09:55Z</time></trkpt>
<trkpt lat="50.302847" lon="6.038188"><ele>501.41</ele><time>2025-05-25T07:09:59Z</time></trkpt>
<trkpt lat="50.303072" lon="6.037897"><ele>498.66</ele><time>2025-05-25T07:10:03Z</time></trkpt>
<trkpt lat="50.303247" lon="6.037577"><ele>494.64</ele><time>2025-05-25T07:10:06Z</time></trkpt>
<trkpt lat="50.30352" lon="6.036796"><ele>492.69</ele><time>2025-05-25T07:10:10Z</time></trkpt>
<trkpt lat="50.303687" lon="6.036395"><ele>494.53</ele><time>2025-05-25T07:10:14Z</time></trkpt>
<trkpt lat="50.303932" lon="6.035979"><ele>497.59</ele><time>2025-05-25T07:10:17Z</time></trkpt>
<trkpt lat="50.304206" lon="6.035677"><ele>499.48</ele><time>2025-05-25T07:10:21Z</time></trkpt>
<trkpt lat="50.304495" lon="6.035465"><ele>499.23</ele><time>2025-05-25T07:10:25Z</time></trkpt>
<trkpt lat="50.304714" lon="6.035363"><ele>497.77</ele><time>2025-05-25T07:10:28Z</time></trkpt>
<trkpt lat="50.305309" lon="6.03523"><ele>499.57</ele><time>2025-05-25T07:10:32Z</time></trkpt>
<trkpt lat="50.30563" lon="6.035082"><ele>505.17</ele><time>2025-05-25T07:10:36Z</time></trkpt>
<trkpt lat="50.305833" lon="6.034868"><ele>508.42</ele><time>2025-05-25T07:10:39Z</time></trkpt>
<trkpt lat="50.306017" lon="6.034571"><ele>511.75</ele><time>2025-05-25T07:10:43Z</time></trkpt>
<trkpt lat="50.30646" lon="6.033549"><ele>511.72</ele><time>2025-05-25T07:10:47Z</time></trkpt>
<trkpt lat="50.307339" lon="6.031908"><ele>502.04</ele><time>2025-05-25T07:10:50Z</time></trkpt>
<trkpt lat="50.307465" lon="6.031608"><ele>499.06</ele><time>2025-05-25T07:10:54Z</time></trkpt>
<trkpt lat="50.307536" lon="6.031298"><ele>498.23</ele><time>2025-05-25T07:10:58Z</time></trkpt>
<trkpt lat="50.307575" lon="6.030888"><ele>497.98</ele><time>2025-05-25T07:11:01Z</time></trkpt>
<trkpt lat="50.308172" lon="6.022313"><ele>492.58</ele><time>2025-05-25T07:11:05Z</time></trkpt>
<trkpt lat="50.308185" lon="6.021618"><ele>488.74</ele><time>2025-05-25T07:11:09Z</time></trkpt>
<trkpt lat="50.308172" lon="6.020916"><ele>487.03</ele><time>2025-05-25T07:11:12Z</time></trkpt>
<trkpt lat="50.308049" lon="6.017383"><ele>484.05</ele><time>2025-05-25T07:11:16Z</time></trkpt>
<trkpt lat="50.308059" lon="6.017029"><ele>482.57</ele><time>2025-05-25T07:11:20Z</time></trkpt>
<trkpt lat="50.308485" lon="6.013335"><ele>473.0</ele><time>2025-05-25T07:11:23Z</time></trkpt>
<trkpt lat="50.308578" lon="6.012956"><ele>471.64</ele><time>2025-05-25T07:11:27Z</time></trkpt>
<trkpt lat="50.308649" lon="6.012821"><ele>471.15</ele><time>2025-05-25T07:11:31Z</time></trkpt>
<trkpt lat="50.308714" lon="6.012742"><ele>470.95</ele><time>2025-05-25T07:11:34Z</time></trkpt>
<trkpt lat="50.30882" lon="6.012677"><ele>470.73</ele><time>2025-05-25T07:11:38Z</time></trkpt>
<trkpt lat="50.308944" lon="6.012675"><ele>470.23</ele><time>2025-05-25T07:11:42Z</time></trkpt>
<trkpt lat="50.309523" lon="6.012887"><ele>466.11</ele><time>2025-05-25T07:11:45Z</time></trkpt>
<trkpt lat="50.30966" lon="6.012919"><ele>465.73</ele><time>2025-05-25T07:11:49Z</time></trkpt>
<trkpt lat="50.310426" lon="6.013045"><ele>462.98</ele><time>2025-05-25T07:11:53Z</time></trkpt>
<trkpt lat="50.310648" lon="6.013047"><ele>463.0</ele><time>2025-05-25T07:11:56Z</time></trkpt>
<trkpt lat="50.310924" lon="6.012927"><ele>463.33</ele><time>2025-05-25T07:12:00Z</time></trkpt>
<trkpt lat="50.311521" lon="6.012502"><ele>463.52</ele><time>2025-05-25T07:12:04Z</time></trkpt>
<trkpt lat="50.311654" lon="6.012442"><ele>463.04</ele><time>2025-05-25T07:12:07Z</time></trkpt>
<trkpt lat="50.311714" lon="6.012438"><ele>463.0</ele><time>2025-05-25T07:12:11Z</time></trkpt>
<trkpt lat="50.311828" lon="6.012478"><ele>463.0</ele><time>2025-05-25T07:12:15Z</time></trkpt>
<trkpt lat="50.311972" lon="6.012564"><ele>462.97</ele><time>2025-05-25T07:12:18Z</time></trkpt>
<trkpt lat="50.311996" lon="6.012469"><ele>463.37</ele><time>2025-05-25T07:12:19Z</time></trkpt>
<trkpt lat="50.31199" lon="6.012458"><ele>463.18</ele><time>2025-05-25T07:12:19Z</time></trkpt>
<trkpt lat="50.31199" lon="6.012458"><ele>463.18</ele><time>2025-05-25T07:12:19Z</time></trkpt>
<trkpt lat="50.311925" lon="6.01233"><ele>463.0</ele><time>2025-05-25T07:12:20Z</time></trkpt>
<trkpt lat="50.311754" lon="6.012257"><ele>463.0</ele><time>2025-05-25T07:12:21Z</time></trkpt>
<trkpt lat="50.311521" lon="6.012502"><ele>463.52</ele><time>2025-05-25T07:12:23Z</time></trkpt>
<trkpt lat="50.311654" lon="6.012442"><ele>463.04</ele><time>2025-05-25T07:12:24Z</time></trkpt>
<trkpt lat="50.311714" lon="6.012438"><ele>463.0</ele><time>2025-05-25T07:12:25Z</time></trkpt>
<trkpt lat="50.311828" lon="6.012478"><ele>463.0</ele><time>2025-05-25T07:12:25Z</time></trkpt>
<trkpt lat="50.311972" lon="6.012564"><ele>462.97</ele><time>2025-05-25T07:12:26Z</time></trkpt>
<trkpt lat="50.31214" lon="6.01183"><ele>464.11</ele><time>2025-05-25T07:12:34Z</time></trkpt>
<trkpt lat="50.312172" lon="6.011622"><ele>464.3</ele><time>2025-05-25T07:12:42Z</time></trkpt>
<trkpt lat="50.312187" lon="6.009582"><ele>460.11</ele><time>2025-05-25T07:12:50Z</time></trkpt>
<trkpt lat="50.312251" lon="6.007782"><ele>457.21</ele><time>2025-05-25T07:12:58Z</time></trkpt>
<trkpt lat="50.312346" lon="6.006299"><ele>453.19</ele><time>2025-05-25T07:13:05Z</time></trkpt>
<trkpt lat="50.31284" lon="6.000174"><ele>458.44</ele><time>2025-05-25T07:13:13Z</time></trkpt>
<trkpt lat="50.312903" lon="5.999135"><ele>454.79</ele><time>2025-05-25T07:13:21Z</time></trkpt>
<trkpt lat="50.312939" lon="5.99792"><ele>457.82</ele><time>2025-05-25T07:13:29Z</time></trkpt>
<trkpt lat="50.312933" lon="5.996985"><ele>460.24</ele><time>2025-05-25T07:13:37Z</time></trkpt>
<trkpt lat="50.312906" lon="5.996147"><ele>459.85</ele><time>2025-05-25T07:13:45Z</time></trkpt>
<trkpt lat="50.312874" lon="5.995525"><ele>459.05</ele><time>2025-05-25T07:13:52Z</time></trkpt>
<trkpt lat="50.312604" lon="5.9907"><ele>455.91</ele><time>2025-05-25T07:14:00Z</time></trkpt>
<trkpt lat="50.312597" lon="5.9898"><ele>456.87</ele><time>2025-05-25T07:14:08Z</time></trkpt>
<trkpt lat="50.312667" lon="5.987299"><ele>460.0</ele><time>2025-05-25T07:14:16Z</time></trkpt>
<trkpt lat="50.31265" lon="5.986448"><ele>457.82</ele><time>2025-05-25T07:14:24Z</time></trkpt>
<trkpt lat="50.312556" lon="5.985707"><ele>457.55</ele><time>2025-05-25T07:14:31Z</time></trkpt>
<trkpt lat="50.312422" lon="5.985113"><ele>456.3</ele><time>2025-05-25T07:14:39Z</time></trkpt>
<trkpt lat="50.311599" lon="5.982504"><ele>447.26</ele><time>2025-05-25T07:14:47Z</time></trkpt>
<trkpt lat="50.311214" lon="5.98104"><ele>446.2</ele><time>2025-05-25T07:14:55Z</time></trkpt>
<trkpt lat="50.310947" lon="5.97995"><ele>444.41</ele><time>2025-05-25T07:15:03Z</time></trkpt>
<trkpt lat="50.31068" lon="5.978764"><ele>446.65</ele><time>2025-05-25T07:15:11Z</time></trkpt>
<trkpt lat="50.310183" lon="5.976183"><ele>443.97</ele><time>2025-05-25T07:15:18Z</time></trkpt>
<trkpt lat="50.309847" lon="5.974438"><ele>444.91</ele><time>2025-05-25T07:15:26Z</time></trkpt>
<trkpt lat="50.30923" lon="5.972193"><ele>443.44</ele><time>2025-05-25T07:15:34Z</time></trkpt>
<trkpt lat="50.309016" lon="5.971381"><ele>446.0</ele><time>2025-05-25T07:15:42Z</time></trkpt>
<trkpt lat="50.308908" lon="5.970733"><ele>446.0</ele><time>2025-05-25T07:15:50Z</time></trkpt>
<trkpt lat="50.308824" lon="5.970314"><ele>446.64</ele><time>2025-05-25T07:15:58Z</time></trkpt>
<trkpt lat="50.308205" lon="5.968799"><ele>447.54</ele><time>2025-05-25T07:16:05Z</time></trkpt>
<trkpt lat="50.308129" lon="5.968516"><ele>447.36</ele><time>2025-05-25T07:16:13Z</time></trkpt>
<trkpt lat="50.308129" lon="5.968516"><ele>447.36</ele><time>2025-05-25T07:16:13Z</time></trkpt>
<trkpt lat="50.308106" lon="5.96843"><ele>447.18</ele><time>2025-05-25T07:16:15Z</time></trkpt>
<trkpt lat="50.308139" lon="5.968414"><ele>447.3</ele><time>2025-05-25T07:16:18Z</time></trkpt>
<trkpt lat="50.30854" lon="5.967946"><ele>447.26</ele><time>2025-05-25T07:16:22Z</time></trkpt>
<trkpt lat="50.308583" lon="5.967718"><ele>447.27</ele><time>2025-05-25T07:16:26Z</time></trkpt>
<trkpt lat="50.308679" lon="5.967606"><ele>447.96</ele><time>2025-05-25T07:16:30Z</time></trkpt>
<trkpt lat="50.308842" lon="5.967547"><ele>448.8</ele><time>2025-05-25T07:16:34Z</time></trkpt>
<trkpt lat="50.309568" lon="5.967638"><ele>455.17</ele><time>2025-05-25T07:16:38Z</time></trkpt>
<trkpt lat="50.309781" lon="5.967745"><ele>456.4</ele><time>2025-05-25T07:16:42Z</time></trkpt>
<trkpt lat="50.30992" lon="5.967829"><ele>457.48</ele><time>2025-05-25T07:16:46Z</time></trkpt>
<trkpt lat="50.310057" lon="5.967874"><ele>458.61</ele><time>2025-05-25T07:16:50Z</time></trkpt>
<trkpt lat="50.310223" lon="5.967778"><ele>460.4</ele><time>2025-05-25T07:16:54Z</time></trkpt>
<trkpt lat="50.310283" lon="5.96769"><ele>460.74</ele><time>2025-05-25T07:16:58Z</time></trkpt>
<trkpt lat="50.310353" lon="5.967516"><ele>460.87</ele><time>2025-05-25T07:17:02Z</time></trkpt>
<trkpt lat="50.310368" lon="5.967354"><ele>460.8</ele><time>2025-05-25T07:17:05Z</time></trkpt>
<trkpt lat="50.310456" lon="5.967123"><ele>460.92</ele><time>2025-05-25T07:17:09Z</time></trkpt>
<trkpt lat="50.31056" lon="5.966933"><ele>461.05</ele><time>2025-05-25T07:17:13Z</time></trkpt>
<trkpt lat="50.310784" lon="5.966625"><ele>463.32</ele><time>2025-05-25T07:17:17Z</time></trkpt>
<trkpt lat="50.311009" lon="5.966517"><ele>465.02</ele><time>2025-05-25T07:17:21Z</time></trkpt>
<trkpt lat="50.311178" lon="5.966466"><ele>466.27</ele><time>2025-05-25T07:17:25Z</time></trkpt>
<trkpt lat="50.311496" lon="5.966445"><ele>469.48</ele><time>2025-05-25T07:17:29Z</time></trkpt>
<trkpt lat="50.311712" lon="5.9663"><ele>471.33</ele><time>2025-05-25T07:17:33Z</time></trkpt>
<trkpt lat="50.31198" lon="5.96596"><ele>473.54</ele><time>2025-05-25T07:17:37Z</time></trkpt>
<trkpt lat="50.312092" lon="5.965734"><ele>474.19</ele><time>2025-05-25T07:17:41Z</time></trkpt>
<trkpt lat="50.31217" lon="5.96553"><ele>474.87</ele><time>2025-05-25T07:17:45Z</time></trkpt>
<trkpt lat="50.3122" lon="5.965369"><ele>475.48</ele><time>2025-05-25T07:17:49Z</time></trkpt>
<trkpt lat="50.312203" lon="5.964434"><ele>474.77</ele><time>2025-05-25T07:17:52Z</time></trkpt>
<trkpt lat="50.312015" lon="5.963561"><ele>475.94</ele><time>2025-05-25T07:17:56Z</time></trkpt>
<trkpt lat="50.311994" lon="5.963311"><ele>476.7</ele><time>2025-05-25T07:18:00Z</time></trkpt>
<trkpt lat="50.312009" lon="5.963053"><ele>478.71</ele><time>2025-05-25T07:18:04Z</time></trkpt>
<trkpt lat="50.312129" lon="5.962002"><ele>485.12</ele><time>2025-05-25T07:18:08Z</time></trkpt>
<trkpt lat="50.312233" lon="5.961355"><ele>486.16</ele><time>2025-05-25T07:18:12Z</time></trkpt>
<trkpt lat="50.312358" lon="5.96068"><ele>489.51</ele><time>2025-05-25T07:18:16Z</time></trkpt>
<trkpt lat="50.312438" lon="5.960166"><ele>493.6</ele><time>2025-05-25T07:18:20Z</time></trkpt>
<trkpt lat="50.312529" lon="5.959871"><ele>495.73</ele><time>2025-05-25T07:18:24Z</time></trkpt>
<trkpt lat="50.312701" lon="5.959439"><ele>497.47</ele><time>2025-05-25T07:18:28Z</time></trkpt>
<trkpt lat="50.312824" lon="5.959226"><ele>499.62</ele><time>2025-05-25T07:18:32Z</time></trkpt>
<trkpt lat="50.313878" lon="5.959892"><ele>517.58</ele><time>2025-05-25T07:18:36Z</time></trkpt>
<trkpt lat="50.314192" lon="5.960114"><ele>524.9</ele><time>2025-05-25T07:18:40Z</time></trkpt>
<trkpt lat="50.314424" lon="5.960326"><ele>530.07</ele><time>2025-05-25T07:18:43Z</time></trkpt>
<trkpt lat="50.317225" lon="5.963956"><ele>569.05</ele><time>2025-05-25T07:18:47Z</time></trkpt>
<trkpt lat="50.317277" lon="5.964007"><ele>570.19</ele><time>2025-05-25T07:18:51Z</time></trkpt>
<trkpt lat="50.317359" lon="5.96404"><ele>571.95</ele><time>2025-05-25T07:18:55Z</time></trkpt>
<trkpt lat="50.319809" lon="5.963779"><ele>575.64</ele><time>2025-05-25T07:18:59Z</time></trkpt>
<trkpt lat="50.320066" lon="5.963789"><ele>567.25</ele><time>2025-05-25T07:19:03Z</time></trkpt>
<trkpt lat="50.320318" lon="5.963865"><ele>560.62</ele><time>2025-05-25T07:19:07Z</time></trkpt>
<trkpt lat="50.320812" lon="5.964078"><ele>556.16</ele><time>2025-05-25T07:19:11Z</time></trkpt>
<trkpt lat="50.320894" lon="5.964002"><ele>555.69</ele><time>2025-05-25T07:19:15Z</time></trkpt>
<trkpt lat="50.320968" lon="5.963853"><ele>555.71</ele><time>2025-05-25T07:19:19Z</time></trkpt>
<trkpt lat="50.321259" lon="5.963105"><ele>558.2</ele><time>2025-05-25T07:19:23Z</time></trkpt>
<trkpt lat="50.322577" lon="5.960139"><ele>560.05</ele><time>2025-05-25T07:19:27Z</time></trkpt>
<trkpt lat="50.322735" lon="5.959732"><ele>562.51</ele><time>2025-05-25T07:19:30Z</time></trkpt>
<trkpt lat="50.322951" lon="5.958962"><ele>562.33</ele><time>2025-05-25T07:19:34Z</time></trkpt>
<trkpt lat="50.322951" lon="5.958962"><ele>562.33</ele><time>2025-05-25T07:19:34Z</time></trkpt>
<trkpt lat="50.322999" lon="5.958774"><ele>561.76</ele><time>2025-05-25T07:19:39Z</time></trkpt>
<trkpt lat="50.323041" lon="5.958238"><ele>559.18</ele><time>2025-05-25T07:19:43Z</time></trkpt>
<trkpt lat="50.323053" lon="5.95758"><ele>557.69</ele><time>2025-05-25T07:19:48Z</time></trkpt>
<trkpt lat="50.32289" lon="5.956248"><ele>554.3</ele><time>2025-05-25T07:19:52Z</time></trkpt>
<trkpt lat="50.322812" lon="5.95587"><ele>551.4</ele><time>2025-05-25T07:19:57Z</time></trkpt>
<trkpt lat="50.322612" lon="5.955174"><ele>545.66</ele><time>2025-05-25T07:20:01Z</time></trkpt>
<trkpt lat="50.321408" lon="5.951127"><ele>527.95</ele><time>2025-05-25T07:20:06Z</time></trkpt>
<trkpt lat="50.321058" lon="5.950161"><ele>531.95</ele><time>2025-05-25T07:20:10Z</time></trkpt>
<trkpt lat="50.320908" lon="5.949573"><ele>528.39</ele><time>2025-05-25T07:20:15Z</time></trkpt>
<trkpt lat="50.320515" lon="5.947623"><ele>521.39</ele><time>2025-05-25T07:20:19Z</time></trkpt>
<trkpt lat="50.319249" lon="5.940864"><ele>489.6</ele><time>2025-05-25T07:20:24Z</time></trkpt>
<trkpt lat="50.319109" lon="5.940201"><ele>484.98</ele><time>2025-05-25T07:20:28Z</time></trkpt>
<trkpt lat="50.319053" lon="5.939806"><ele>486.59</ele><time>2025-05-25T07:20:33Z</time></trkpt>
<trkpt lat="50.31892" lon="5.937812"><ele>482.81</ele><time>2025-05-25T07:20:38Z</time></trkpt>
<trkpt lat="50.318776" lon="5.934709"><ele>477.65</ele><time>2025-05-25T07:20:42Z</time></trkpt>
<trkpt lat="50.318794" lon="5.934123"><ele>477.45</ele><time>2025-05-25T07:20:47Z</time></trkpt>
<trkpt lat="50.318843" lon="5.933408"><ele>478.44</ele><time>2025-05-25T07:20:51Z</time></trkpt>
<trkpt lat="50.318939" lon="5.932365"><ele>478.1</ele><time>2025-05-25T07:20:56Z</time></trkpt>
<trkpt lat="50.319191" lon="5.930462"><ele>468.09</ele><time>2025-05-25T07:21:00Z</time></trkpt>
<trkpt lat="50.319191" lon="5.929842"><ele>464.43</ele><time>2025-05-25T07:21:05Z</time></trkpt>
<trkpt lat="50.319128" lon="5.929547"><ele>463.37</ele><time>2025-05-25T07:21:09Z</time></trkpt>
<trkpt lat="50.319056" lon="5.929314"><ele>461.68</ele><time>2025-05-25T07:21:14Z</time></trkpt>
<trkpt lat="50.318767" lon="5.928744"><ele>452.07</ele><time>2025-05-25T07:21:18Z</time></trkpt>
<trkpt lat="50.318729" lon="5.92859"><ele>448.89</ele><time>2025-05-25T07:21:23Z</time></trkpt>
<trkpt lat="50.31872" lon="5.928454"><ele>446.35</ele><time>2025-05-25T07:21:27Z</time></trkpt>
<trkpt lat="50.319068" lon="5.926218"><ele>429.86</ele><time>2025-05-25T07:21:32Z</time></trkpt>
<trkpt lat="50.319161" lon="5.925802"><ele>428.68</ele><time>2025-05-25T07:21:36Z</time></trkpt>
<trkpt lat="50.3196" lon="5.924171"><ele>415.16</ele><time>2025-05-25T07:21:41Z</time></trkpt>
<trkpt lat="50.319943" lon="5.922974"><ele>403.35</ele><time>2025-05-25T07:21:45Z</time></trkpt>
<trkpt lat="50.320767" lon="5.920691"><ele>393.24</ele><time>2025-05-25T07:21:50Z</time></trkpt>
<trkpt lat="50.320817" lon="5.920441"><ele>392.64</ele><time>2025-05-25T07:21:54Z</time></trkpt>
<trkpt lat="50.32088" lon="5.919779"><ele>388.91</ele><time>2025-05-25T07:21:59Z</time></trkpt>
<trkpt lat="50.320902" lon="5.919591"><ele>387.31</ele><time>2025-05-25T07:22:03Z</time></trkpt>
<trkpt lat="50.320928" lon="5.919496"><ele>386.35</ele><time>2025-05-25T07:22:08Z</time></trkpt>
<trkpt lat="50.320954" lon="5.919512"><ele>385.72</ele><time>2025-05-25T07:22:39Z</time></trkpt>
<trkpt lat="50.320954" lon="5.919512"><ele>385.72</ele><time>2025-05-25T07:22:39Z</time></trkpt>
<trkpt lat="50.320928" lon="5.919496"><ele>386.35</ele><time>2025-05-25T07:22:40Z</time></trkpt>
<trkpt lat="50.321618" lon="5.91866"><ele>382.03</ele><time>2025-05-25T07:22:43Z</time></trkpt>
<trkpt lat="50.322172" lon="5.918054"><ele>376.36</ele><time>2025-05-25T07:22:45Z</time></trkpt>
<trkpt lat="50.32235" lon="5.917678"><ele>373.72</ele><time>2025-05-25T07:22:47Z</time></trkpt>
<trkpt lat="50.322457" lon="5.917386"><ele>372.31</ele><time>2025-05-25T07:22:50Z</time></trkpt>
<trkpt lat="50.322577" lon="5.916794"><ele>370.44</ele><time>2025-05-25T07:22:52Z</time></trkpt>
<trkpt lat="50.322668" lon="5.91652"><ele>369.26</ele><time>2025-05-25T07:22:55Z</time></trkpt>
<trkpt lat="50.322967" lon="5.915875"><ele>362.16</ele><time>2025-05-25T07:22:57Z</time></trkpt>
<trkpt lat="50.323304" lon="5.915345"><ele>355.34</ele><time>2025-05-25T07:22:59Z</time></trkpt>
<trkpt lat="50.323417" lon="5.91513"><ele>354.39</ele><time>2025-05-25T07:23:02Z</time></trkpt>
<trkpt lat="50.323498" lon="5.914823"><ele>352.8</ele><time>2025-05-25T07:23:04Z</time></trkpt>
<trkpt lat="50.323723" lon="5.913498"><ele>345.15</ele><time>2025-05-25T07:23:06Z</time></trkpt>
<trkpt lat="50.323742" lon="5.913306"><ele>344.58</ele><time>2025-05-25T07:23:09Z</time></trkpt>
<trkpt lat="50.323679" lon="5.912497"><ele>345.02</ele><time>2025-05-25T07:23:11Z</time></trkpt>
<trkpt lat="50.32367" lon="5.911899"><ele>341.9</ele><time>2025-05-25T07:23:13Z</time></trkpt>
<trkpt lat="50.323629" lon="5.911628"><ele>339.6</ele><time>2025-05-25T07:23:16Z</time></trkpt>
<trkpt lat="50.323515" lon="5.911287"><ele>338.2</ele><time>2025-05-25T07:23:18Z</time></trkpt>
<trkpt lat="50.323151" lon="5.910704"><ele>334.73</ele><time>2025-05-25T07:23:20Z</time></trkpt>
<trkpt lat="50.323545" lon="5.910073"><ele>330.26</ele><time>2025-05-25T07:23:23Z</time></trkpt>
<trkpt lat="50.323779" lon="5.909634"><ele>326.17</ele><time>2025-05-25T07:23:25Z</time></trkpt>
<trkpt lat="50.323838" lon="5.909433"><ele>324.09</ele><time>2025-05-25T07:23:27Z</time></trkpt>
<trkpt lat="50.323871" lon="5.909247"><ele>322.55</ele><time>2025-05-25T07:23:30Z</time></trkpt>
<trkpt lat="50.324033" lon="5.909164"><ele>321.98</ele><time>2025-05-25T07:23:33Z</time></trkpt>
<trkpt lat="50.324146" lon="5.909071"><ele>321.63</ele><time>2025-05-25T07:23:36Z</time></trkpt>
<trkpt lat="50.32472" lon="5.908429"><ele>317.35</ele><time>2025-05-25T07:23:39Z</time></trkpt>
<trkpt lat="50.325179" lon="5.908087"><ele>314.22</ele><time>2025-05-25T07:23:42Z</time></trkpt>
<trkpt lat="50.325284" lon="5.907948"><ele>313.64</ele><time>2025-05-25T07:23:45Z</time></trkpt>
<trkpt lat="50.325839" lon="5.906845"><ele>310.67</ele><time>2025-05-25T07:23:48Z</time></trkpt>
<trkpt lat="50.325983" lon="5.906644"><ele>310.41</ele><time>2025-05-25T07:23:51Z</time></trkpt>
<trkpt lat="50.327443" lon="5.905718"><ele>314.1</ele><time>2025-05-25T07:23:54Z</time></trkpt>
<trkpt lat="50.32759" lon="5.905594"><ele>314.66</ele><time>2025-05-25T07:23:57Z</time></trkpt>
<trkpt lat="50.327794" lon="5.90529"><ele>316.33</ele><time>2025-05-25T07:24:00Z</time></trkpt>
<trkpt lat="50.327861" lon="5.905132"><ele>316.98</ele><time>2025-05-25T07:24:03Z</time></trkpt>
<trkpt lat="50.328168" lon="5.904149"><ele>310.49</ele><time>2025-05-25T07:24:06Z</time></trkpt>
<trkpt lat="50.32831" lon="5.903671"><ele>309.16</ele><time>2025-05-25T07:24:09Z</time></trkpt>
<trkpt lat="50.328387" lon="5.903491"><ele>308.9</ele><time>2025-05-25T07:24:12Z</time></trkpt>
<trkpt lat="50.32847" lon="5.903344"><ele>309.04</ele><time>2025-05-25T07:24:15Z</time></trkpt>
<trkpt lat="50.328629" lon="5.90314"><ele>309.1</ele><time>2025-05-25T07:24:18Z</time></trkpt>
<trkpt lat="50.328857" lon="5.902942"><ele>309.47</ele><time>2025-05-25T07:24:21Z</time></trkpt>
<trkpt lat="50.329081" lon="5.902787"><ele>310.18</ele><time>2025-05-25T07:24:24Z</time></trkpt>
<trkpt lat="50.329295" lon="5.902683"><ele>311.42</ele><time>2025-05-25T07:24:27Z</time></trkpt>
<trkpt lat="50.330119" lon="5.902499"><ele>310.99</ele><time>2025-05-25T07:24:30Z</time></trkpt>
<trkpt lat="50.33052" lon="5.902375"><ele>309.65</ele><time>2025-05-25T07:24:33Z</time></trkpt>
<trkpt lat="50.330827" lon="5.902253"><ele>311.15</ele><time>2025-05-25T07:24:36Z</time></trkpt>
<trkpt lat="50.331447" lon="5.90195"><ele>312.46</ele><time>2025-05-25T07:24:39Z</time></trkpt>
<trkpt lat="50.33194" lon="5.90173"><ele>313.89</ele><time>2025-05-25T07:24:42Z</time></trkpt>
<trkpt lat="50.333486" lon="5.90142"><ele>309.11</ele><time>2025-05-25T07:24:45Z</time></trkpt>
<trkpt lat="50.334318" lon="5.901271"><ele>309.5</ele><time>2025-05-25T07:24:48Z</time></trkpt>
<trkpt lat="50.33452" lon="5.90127"><ele>309.9</ele><time>2025-05-25T07:24:51Z</time></trkpt>
<trkpt lat="50.334732" lon="5.901306"><ele>310.52</ele><time>2025-05-25T07:24:54Z</time></trkpt>
<trkpt lat="50.33491" lon="5.901371"><ele>310.54</ele><time>2025-05-25T07:24:57Z</time></trkpt>
<trkpt lat="50.335703" lon="5.901858"><ele>311.27</ele><time>2025-05-25T07:25:00Z</time></trkpt>
<trkpt lat="50.336501" lon="5.902304"><ele>311.31</ele><time>2025-05-25T07:25:03Z</time></trkpt>
<trkpt lat="50.337405" lon="5.902861"><ele>303.23</ele><time>2025-05-25T07:25:06Z</time></trkpt>
<trkpt lat="50.33821" lon="5.903298"><ele>296.83</ele><time>2025-05-25T07:25:09Z</time></trkpt>
<trkpt lat="50.338899" lon="5.903673"><ele>298.48</ele><time>2025-05-25T07:25:12Z</time></trkpt>
<trkpt lat="50.339153" lon="5.903789"><ele>300.23</ele><time>2025-05-25T07:25:15Z</time></trkpt>
<trkpt lat="50.339651" lon="5.903867"><ele>300.07</ele><time>2025-05-25T07:25:18Z</time></trkpt>
<trkpt lat="50.339976" lon="5.903856"><ele>300.68</ele><time>2025-05-25T07:25:21Z</time></trkpt>
<trkpt lat="50.340245" lon="5.903762"><ele>301.85</ele><time>2025-05-25T07:25:24Z</time></trkpt>
<trkpt lat="50.340457" lon="5.90365"><ele>302.02</ele><time>2025-05-25T07:25:27Z</time></trkpt>
<trkpt lat="50.340735" lon="5.903382"><ele>302.29</ele><time>2025-05-25T07:25:30Z</time></trkpt>
<trkpt lat="50.340983" lon="5.90302"><ele>302.36</ele><time>2025-05-25T07:25:33Z</time></trkpt>
<trkpt lat="50.341155" lon="5.90263"><ele>301.8</ele><time>2025-05-25T07:25:36Z</time></trkpt>
<trkpt lat="50.341305" lon="5.902223"><ele>300.8</ele><time>2025-05-25T07:25:39Z</time></trkpt>
<trkpt lat="50.341471" lon="5.901594"><ele>302.47</ele><time>2025-05-25T07:25:42Z</time></trkpt>
<trkpt lat="50.341611" lon="5.900828"><ele>303.31</ele><time>2025-05-25T07:25:45Z</time></trkpt>
<trkpt lat="50.341724" lon="5.900407"><ele>301.11</ele><time>2025-05-25T07:25:48Z</time></trkpt>
<trkpt lat="50.341862" lon="5.900163"><ele>300.95</ele><time>2025-05-25T07:25:51Z</time></trkpt>
<trkpt lat="50.342073" lon="5.899924"><ele>299.92</ele><time>2025-05-25T07:25:54Z</time></trkpt>
<trkpt lat="50.342287" lon="5.899756"><ele>298.88</ele><time>2025-05-25T07:25:57Z</time></trkpt>
<trkpt lat="50.342799" lon="5.899462"><ele>293.39</ele><time>2025-05-25T07:26:00Z</time></trkpt>
<trkpt lat="50.343032" lon="5.899362"><ele>293.67</ele><time>2025-05-25T07:26:03Z</time></trkpt>
<trkpt lat="50.343386" lon="5.899252"><ele>296.05</ele><time>2025-05-25T07:26:06Z</time></trkpt>
<trkpt lat="50.343765" lon="5.899185"><ele>297.2</ele><time>2025-05-25T07:26:09Z</time></trkpt>
<trkpt lat="50.344114" lon="5.899158"><ele>296.91</ele><time>2025-05-25T07:26:12Z</time></trkpt>
<trkpt lat="50.344774" lon="5.899194"><ele>300.08</ele><time>2025-05-25T07:26:15Z</time></trkpt>
<trkpt lat="50.344937" lon="5.899183"><ele>301.71</ele><time>2025-05-25T07:26:18Z</time></trkpt>
<trkpt lat="50.345134" lon="5.899132"><ele>303.49</ele><time>2025-05-25T07:26:21Z</time></trkpt>
<trkpt lat="50.345334" lon="5.89902"><ele>303.15</ele><time>2025-05-25T07:26:24Z</time></trkpt>
<trkpt lat="50.345478" lon="5.89889"><ele>301.64</ele><time>2025-05-25T07:26:27Z</time></trkpt>
<trkpt lat="50.345636" lon="5.898686"><ele>300.57</ele><time>2025-05-25T07:26:30Z</time></trkpt>
<trkpt lat="50.345806" lon="5.898403"><ele>300.24</ele><time>2025-05-25T07:26:33Z</time></trkpt>
<trkpt lat="50.34606" lon="5.897761"><ele>303.75</ele><time>2025-05-25T07:26:36Z</time></trkpt>
<trkpt lat="50.346161" lon="5.897342"><ele>301.78</ele><time>2025-05-25T07:26:39Z</time></trkpt>
<trkpt lat="50.346219" lon="5.896961"><ele>301.32</ele><time>2025-05-25T07:26:42Z</time></trkpt>
<trkpt lat="50.34626" lon="5.896278"><ele>300.14</ele><time>2025-05-25T07:26:45Z</time></trkpt>
<trkpt lat="50.346372" lon="5.893594"><ele>298.57</ele><time>2025-05-25T07:26:48Z</time></trkpt>
<trkpt lat="50.346474" lon="5.892608"><ele>291.34</ele><time>2025-05-25T07:26:51Z</time></trkpt>
<trkpt lat="50.346564" lon="5.892188"><ele>290.51</ele><time>2025-05-25T07:26:54Z</time></trkpt>
<trkpt lat="50.346675" lon="5.891871"><ele>289.35</ele><time>2025-05-25T07:26:57Z</time></trkpt>
<trkpt lat="50.346823" lon="5.891561"><ele>287.54</ele><time>2025-05-25T07:27:00Z</time></trkpt>
<trkpt lat="50.347009" lon="5.891291"><ele>287.91</ele><time>2025-05-25T07:27:03Z</time></trkpt>
<trkpt lat="50.347231" lon="5.891069"><ele>289.73</ele><time>2025-05-25T07:27:06Z</time></trkpt>
<trkpt lat="50.347588" lon="5.890776"><ele>290.91</ele><time>2025-05-25T07:27:09Z</time></trkpt>
<trkpt lat="50.348095" lon="5.890474"><ele>291.47</ele><time>2025-05-25T07:27:12Z</time></trkpt>
<trkpt lat="50.348382" lon="5.890355"><ele>290.33</ele><time>2025-05-25T07:27:15Z</time></trkpt>
<trkpt lat="50.348964" lon="5.890277"><ele>291.51</ele><time>2025-05-25T07:27:18Z</time></trkpt>
<trkpt lat="50.351208" lon="5.89026"><ele>290.95</ele><time>2025-05-25T07:27:21Z</time></trkpt>
<trkpt lat="50.351655" lon="5.89029"><ele>292.36</ele><time>2025-05-25T07:27:24Z</time></trkpt>
<trkpt lat="50.352157" lon="5.890362"><ele>291.75</ele><time>2025-05-25T07:27:27Z</time></trkpt>
<trkpt lat="50.352789" lon="5.890371"><ele>285.72</ele><time>2025-05-25T07:27:30Z</time></trkpt>
<trkpt lat="50.353129" lon="5.89028"><ele>285.83</ele><time>2025-05-25T07:27:33Z</time></trkpt>
<trkpt lat="50.353477" lon="5.89015"><ele>286.67</ele><time>2025-05-25T07:27:36Z</time></trkpt>
<trkpt lat="50.354596" lon="5.889656"><ele>287.42</ele><time>2025-05-25T07:27:39Z</time></trkpt>
<trkpt lat="50.354812" lon="5.889539"><ele>286.36</ele><time>2025-05-25T07:27:42Z</time></trkpt>
<trkpt lat="50.355206" lon="5.88921"><ele>285.65</ele><time>2025-05-25T07:27:45Z</time></trkpt>
<trkpt lat="50.356107" lon="5.888131"><ele>284.31</ele><time>2025-05-25T07:27:48Z</time></trkpt>
<trkpt lat="50.356393" lon="5.887859"><ele>282.8</ele><time>2025-05-25T07:27:51Z</time></trkpt>
<trkpt lat="50.356617" lon="5.887678"><ele>282.15</ele><time>2025-05-25T07:27:54Z</time></trkpt>
<trkpt lat="50.356863" lon="5.887548"><ele>283.64</ele><time>2025-05-25T07:27:57Z</time></trkpt>
<trkpt lat="50.357523" lon="5.887298"><ele>284.54</ele><time>2025-05-25T07:28:00Z</time></trkpt>
<trkpt lat="50.357842" lon="5.887257"><ele>286.2</ele><time>2025-05-25T07:28:03Z</time></trkpt>
<trkpt lat="50.358132" lon="5.887297"><ele>288.28</ele><time>2025-05-25T07:28:06Z</time></trkpt>
<trkpt lat="50.358428" lon="5.887422"><ele>288.32</ele><time>2025-05-25T07:28:09Z</time></trkpt>
<trkpt lat="50.359842" lon="5.888309"><ele>284.98</ele><time>2025-05-25T07:28:12Z</time></trkpt>
<trkpt lat="50.360105" lon="5.888457"><ele>282.6</ele><time>2025-05-25T07:28:15Z</time></trkpt>
<trkpt lat="50.360816" lon="5.888799"><ele>279.51</ele><time>2025-05-25T07:28:18Z</time></trkpt>
<trkpt lat="50.361126" lon="5.888922"><ele>279.35</ele><time>2025-05-25T07:28:21Z</time></trkpt>
<trkpt lat="50.361308" lon="5.888964"><ele>281.89</ele><time>2025-05-25T07:28:24Z</time></trkpt>
<trkpt lat="50.361725" lon="5.888974"><ele>282.74</ele><time>2025-05-25T07:28:27Z</time></trkpt>
<trkpt lat="50.362074" lon="5.888856"><ele>280.29</ele><time>2025-05-25T07:28:30Z</time></trkpt>
<trkpt lat="50.362398" lon="5.888643"><ele>280.44</ele><time>2025-05-25T07:28:33Z</time></trkpt>
<trkpt lat="50.362609" lon="5.888442"><ele>278.89</ele><time>2025-05-25T07:28:36Z</time></trkpt>
<trkpt lat="50.362718" lon="5.888313"><ele>278.61</ele><time>2025-05-25T07:28:39Z</time></trkpt>
<trkpt lat="50.362718" lon="5.888313"><ele>278.61</ele><time>2025-05-25T07:28:39Z</time></trkpt>
<trkpt lat="50.363499" lon="5.887347"><ele>277.92</ele><time>2025-05-25T07:28:42Z</time></trkpt>
<trkpt lat="50.363623" lon="5.887147"><ele>277.47</ele><time>2025-05-25T07:28:45Z</time></trkpt>
<trkpt lat="50.363695" lon="5.886999"><ele>277.21</ele><time>2025-05-25T07:28:47Z</time></trkpt>
<trkpt lat="50.363787" lon="5.886696"><ele>274.35</ele><time>2025-05-25T07:28:50Z</time></trkpt>
<trkpt lat="50.363822" lon="5.886331"><ele>273.23</ele><time>2025-05-25T07:28:53Z</time></trkpt>
<trkpt lat="50.363793" lon="5.885691"><ele>271.14</ele><time>2025-05-25T07:28:56Z</time></trkpt>
<trkpt lat="50.363752" lon="5.885485"><ele>270.12</ele><time>2025-05-25T07:28:59Z</time></trkpt>
<trkpt lat="50.36371" lon="5.885362"><ele>269.41</ele><time>2025-05-25T07:29:02Z</time></trkpt>
<trkpt lat="50.363635" lon="5.885222"><ele>268.8</ele><time>2025-05-25T07:29:05Z</time></trkpt>
<trkpt lat="50.36296" lon="5.884471"><ele>269.16</ele><time>2025-05-25T07:29:08Z</time></trkpt>
<trkpt lat="50.362469" lon="5.883879"><ele>272.63</ele><time>2025-05-25T07:29:11Z</time></trkpt>
<trkpt lat="50.362215" lon="5.883514"><ele>274.53</ele><time>2025-05-25T07:29:14Z</time></trkpt>
<trkpt lat="50.361898" lon="5.88296"><ele>276.53</ele><time>2025-05-25T07:29:17Z</time></trkpt>
<trkpt lat="50.361617" lon="5.882298"><ele>274.99</ele><time>2025-05-25T07:29:20Z</time></trkpt>
<trkpt lat="50.361384" lon="5.881414"><ele>276.16</ele><time>2025-05-25T07:29:23Z</time></trkpt>
<trkpt lat="50.361207" lon="5.88059"><ele>275.09</ele><time>2025-05-25T07:29:26Z</time></trkpt>
<trkpt lat="50.360888" lon="5.878975"><ele>276.67</ele><time>2025-05-25T07:29:29Z</time></trkpt>
<trkpt lat="50.360746" lon="5.878106"><ele>277.74</ele><time>2025-05-25T07:29:31Z</time></trkpt>
<trkpt lat="50.360735" lon="5.877675"><ele>276.52</ele><time>2025-05-25T07:29:34Z</time></trkpt>
<trkpt lat="50.360788" lon="5.877165"><ele>272.93</ele><time>2025-05-25T07:29:37Z</time></trkpt>
<trkpt lat="50.3609" lon="5.876531"><ele>269.18</ele><time>2025-05-25T07:29:40Z</time></trkpt>
<trkpt lat="50.361058" lon="5.875964"><ele>270.09</ele><time>2025-05-25T07:29:43Z</time></trkpt>
<trkpt lat="50.361366" lon="5.875182"><ele>269.79</ele><time>2025-05-25T07:29:46Z</time></trkpt>
<trkpt lat="50.36161" lon="5.87467"><ele>269.18</ele><time>2025-05-25T07:29:49Z</time></trkpt>
<trkpt lat="50.361846" lon="5.874314"><ele>268.7</ele><time>2025-05-25T07:29:52Z</time></trkpt>
<trkpt lat="50.361959" lon="5.874169"><ele>267.88</ele><time>2025-05-25T07:29:55Z</time></trkpt>
<trkpt lat="50.362222" lon="5.873903"><ele>266.0</ele><time>2025-05-25T07:29:58Z</time></trkpt>
<trkpt lat="50.362482" lon="5.873718"><ele>267.75</ele><time>2025-05-25T07:30:01Z</time></trkpt>
<trkpt lat="50.362482" lon="5.873718"><ele>267.75</ele><time>2025-05-25T07:30:01Z</time></trkpt>
<trkpt lat="50.362574" lon="5.873666"><ele>268.22</ele><time>2025-05-25T07:30:07Z</time></trkpt>
<trkpt lat="50.362887" lon="5.873653"><ele>268.79</ele><time>2025-05-25T07:30:13Z</time></trkpt>
<trkpt lat="50.363062" lon="5.873696"><ele>268.8</ele><time>2025-05-25T07:30:19Z</time></trkpt>
<trkpt lat="50.363329" lon="5.873841"><ele>266.86</ele><time>2025-05-25T07:30:26Z</time></trkpt>
<trkpt lat="50.363736" lon="5.87401"><ele>265.58</ele><time>2025-05-25T07:30:32Z</time></trkpt>
<trkpt lat="50.364298" lon="5.874297"><ele>266.06</ele><time>2025-05-25T07:30:38Z</time></trkpt>
<trkpt lat="50.365265" lon="5.874749"><ele>263.67</ele><time>2025-05-25T07:30:44Z</time></trkpt>
<trkpt lat="50.365526" lon="5.874817"><ele>262.39</ele><time>2025-05-25T07:30:50Z</time></trkpt>
<trkpt lat="50.365668" lon="5.874807"><ele>261.98</ele><time>2025-05-25T07:30:57Z</time></trkpt>
<trkpt lat="50.365934" lon="5.874729"><ele>261.23</ele><time>2025-05-25T07:31:03Z</time></trkpt>
<trkpt lat="50.366073" lon="5.874652"><ele>260.53</ele><time>2025-05-25T07:31:09Z</time></trkpt>
<trkpt lat="50.366231" lon="5.874529"><ele>259.96</ele><time>2025-05-25T07:31:15Z</time></trkpt>
<trkpt lat="50.366329" lon="5.87441"><ele>259.7</ele><time>2025-05-25T07:31:21Z</time></trkpt>
<trkpt lat="50.366433" lon="5.874183"><ele>260.73</ele><time>2025-05-25T07:31:28Z</time></trkpt>
<trkpt lat="50.366747" lon="5.873076"><ele>265.42</ele><time>2025-05-25T07:31:34Z</time></trkpt>
<trkpt lat="50.366901" lon="5.872726"><ele>263.59</ele><time>2025-05-25T07:31:40Z</time></trkpt>
<trkpt lat="50.367316" lon="5.871989"><ele>261.52</ele><time>2025-05-25T07:31:46Z</time></trkpt>
<trkpt lat="50.36757" lon="5.871632"><ele>259.75</ele><time>2025-05-25T07:31:53Z</time></trkpt>
<trkpt lat="50.367688" lon="5.871507"><ele>262.87</ele><time>2025-05-25T07:31:59Z</time></trkpt>
<trkpt lat="50.367792" lon="5.871416"><ele>264.14</ele><time>2025-05-25T07:32:05Z</time></trkpt>
<trkpt lat="50.367941" lon="5.871339"><ele>266.42</ele><time>2025-05-25T07:32:11Z</time></trkpt>
<trkpt lat="50.368094" lon="5.871302"><ele>267.05</ele><time>2025-05-25T07:32:17Z</time></trkpt>
<trkpt lat="50.368243" lon="5.871302"><ele>266.51</ele><time>2025-05-25T07:32:24Z</time></trkpt>
<trkpt lat="50.369228" lon="5.871584"><ele>259.05</ele><time>2025-05-25T07:32:30Z</time></trkpt>
<trkpt lat="50.369647" lon="5.871668"><ele>255.27</ele><time>2025-05-25T07:32:36Z</time></trkpt>
<trkpt lat="50.370009" lon="5.87164"><ele>254.28</ele><time>2025-05-25T07:32:42Z</time></trkpt>
<trkpt lat="50.371639" lon="5.871216"><ele>253.06</ele><time>2025-05-25T07:32:48Z</time></trkpt>
<trkpt lat="50.372208" lon="5.871064"><ele>251.18</ele><time>2025-05-25T07:32:55Z</time></trkpt>
<trkpt lat="50.372346" lon="5.871943"><ele>252.54</ele><time>2025-05-25T07:33:08Z</time></trkpt>
<trkpt lat="50.372449" lon="5.872048"><ele>253.3</ele><time>2025-05-25T07:33:13Z</time></trkpt>
<trkpt lat="50.372592" lon="5.872102"><ele>253.04</ele><time>2025-05-25T07:33:17Z</time></trkpt>
<trkpt lat="50.373032" lon="5.872187"><ele>252.62</ele><time>2025-05-25T07:33:22Z</time></trkpt>
<trkpt lat="50.373323" lon="5.872242"><ele>252.25</ele><time>2025-05-25T07:33:26Z</time></trkpt>
<trkpt lat="50.373652" lon="5.872343"><ele>252.01</ele><time>2025-05-25T07:33:31Z</time></trkpt>
<trkpt lat="50.373992" lon="5.872487"><ele>250.77</ele><time>2025-05-25T07:33:36Z</time></trkpt>
<trkpt lat="50.374458" lon="5.872745"><ele>249.56</ele><time>2025-05-25T07:33:40Z</time></trkpt>
<trkpt lat="50.375101" lon="5.873042"><ele>248.99</ele><time>2025-05-25T07:33:45Z</time></trkpt>
<trkpt lat="50.375239" lon="5.873153"><ele>247.59</ele><time>2025-05-25T07:33:49Z</time></trkpt>
<trkpt lat="50.375474" lon="5.873416"><ele>247.14</ele><time>2025-05-25T07:33:54Z</time></trkpt>
<trkpt lat="50.375752" lon="5.873759"><ele>246.27</ele><time>2025-05-25T07:33:59Z</time></trkpt>
<trkpt lat="50.376519" lon="5.874688"><ele>247.81</ele><time>2025-05-25T07:34:03Z</time></trkpt>
<trkpt lat="50.376845" lon="5.874969"><ele>247.89</ele><time>2025-05-25T07:34:08Z</time></trkpt>
<trkpt lat="50.376893" lon="5.875039"><ele>247.86</ele><time>2025-05-25T07:34:12Z</time></trkpt>
<trkpt lat="50.376908" lon="5.875125"><ele>248.35</ele><time>2025-05-25T07:34:17Z</time></trkpt>
<trkpt lat="50.377027" lon="5.875169"><ele>247.8</ele><time>2025-05-25T07:34:23Z</time></trkpt>
<trkpt lat="50.377892" lon="5.875999"><ele>249.74</ele><time>2025-05-25T07:34:30Z</time></trkpt>
<trkpt lat="50.379643" lon="5.877398"><ele>251.65</ele><time>2025-05-25T07:34:36Z</time></trkpt>
<trkpt lat="50.380927" lon="5.878613"><ele>256.34</ele><time>2025-05-25T07:34:42Z</time></trkpt>
<trkpt lat="50.3812" lon="5.878869"><ele>254.82</ele><time>2025-05-25T07:34:48Z</time></trkpt>
<trkpt lat="50.381253" lon="5.878947"><ele>255.18</ele><time>2025-05-25T07:34:54Z</time></trkpt>
<trkpt lat="50.381291" lon="5.87907"><ele>256.84</ele><time>2025-05-25T07:35:01Z</time></trkpt>
<trkpt lat="50.381322" lon="5.879194"><ele>258.52</ele><time>2025-05-25T07:35:07Z</time></trkpt>
<trkpt lat="50.381364" lon="5.87933"><ele>260.29</ele><time>2025-05-25T07:35:13Z</time></trkpt>
<trkpt lat="50.381434" lon="5.879415"><ele>260.43</ele><time>2025-05-25T07:35:19Z</time></trkpt>
<trkpt lat="50.382291" lon="5.879813"><ele>255.97</ele><time>2025-05-25T07:35:26Z</time></trkpt>
<trkpt lat="50.382718" lon="5.880089"><ele>258.49</ele><time>2025-05-25T07:35:32Z</time></trkpt>
<trkpt lat="50.382878" lon="5.880164"><ele>258.82</ele><time>2025-05-25T07:35:38Z</time></trkpt>
<trkpt lat="50.383058" lon="5.880213"><ele>258.58</ele><time>2025-05-25T07:35:44Z</time></trkpt>
<trkpt lat="50.383364" lon="5.880283"><ele>259.11</ele><time>2025-05-25T07:35:51Z</time></trkpt>
<trkpt lat="50.384108" lon="5.880356"><ele>258.12</ele><time>2025-05-25T07:35:57Z</time></trkpt>
<trkpt lat="50.384667" lon="5.880457"><ele>258.74</ele><time>2025-05-25T07:36:03Z</time></trkpt>
<trkpt lat="50.386674" lon="5.8809"><ele>254.7</ele><time>2025-05-25T07:36:09Z</time></trkpt>
<trkpt lat="50.389683" lon="5.881593"><ele>253.06</ele><time>2025-05-25T07:36:16Z</time></trkpt>
<trkpt lat="50.389884" lon="5.88161"><ele>253.97</ele><time>2025-05-25T07:36:22Z</time></trkpt>
<trkpt lat="50.390132" lon="5.881568"><ele>253.94</ele><time>2025-05-25T07:36:28Z</time></trkpt>
<trkpt lat="50.390293" lon="5.881515"><ele>251.71</ele><time>2025-05-25T07:36:34Z</time></trkpt>
<trkpt lat="50.390293" lon="5.881515"><ele>251.71</ele><time>2025-05-25T07:36:34Z</time></trkpt>
<trkpt lat="50.391281" lon="5.881183"><ele>251.19</ele><time>2025-05-25T07:36:38Z</time></trkpt>
<trkpt lat="50.391522" lon="5.881054"><ele>252.66</ele><time>2025-05-25T07:36:42Z</time></trkpt>
<trkpt lat="50.391638" lon="5.880941"><ele>251.9</ele><time>2025-05-25T07:36:46Z</time></trkpt>
<trkpt lat="50.39192" lon="5.880545"><ele>247.49</ele><time>2025-05-25T07:36:49Z</time></trkpt>
<trkpt lat="50.3924" lon="5.880156"><ele>246.89</ele><time>2025-05-25T07:36:53Z</time></trkpt>
<trkpt lat="50.392758" lon="5.879716"><ele>245.75</ele><time>2025-05-25T07:36:57Z</time></trkpt>
<trkpt lat="50.392945" lon="5.87945"><ele>248.24</ele><time>2025-05-25T07:37:01Z</time></trkpt>
<trkpt lat="50.393599" lon="5.878116"><ele>244.93</ele><time>2025-05-25T07:37:04Z</time></trkpt>
<trkpt lat="50.393714" lon="5.878045"><ele>244.57</ele><time>2025-05-25T07:37:08Z</time></trkpt>
<trkpt lat="50.39378" lon="5.878046"><ele>245.03</ele><time>2025-05-25T07:37:12Z</time></trkpt>
<trkpt lat="50.393884" lon="5.8781"><ele>246.91</ele><time>2025-05-25T07:37:16Z</time></trkpt>
<trkpt lat="50.394771" lon="5.878859"><ele>252.7</ele><time>2025-05-25T07:37:19Z</time></trkpt>
<trkpt lat="50.395091" lon="5.879087"><ele>252.27</ele><time>2025-05-25T07:37:23Z</time></trkpt>
<trkpt lat="50.395474" lon="5.879272"><ele>248.62</ele><time>2025-05-25T07:37:27Z</time></trkpt>
<trkpt lat="50.395713" lon="5.879334"><ele>246.43</ele><time>2025-05-25T07:37:31Z</time></trkpt>
<trkpt lat="50.395924" lon="5.879351"><ele>244.44</ele><time>2025-05-25T07:37:34Z</time></trkpt>
<trkpt lat="50.396184" lon="5.879324"><ele>242.99</ele><time>2025-05-25T07:37:38Z</time></trkpt>
<trkpt lat="50.396514" lon="5.879246"><ele>243.2</ele><time>2025-05-25T07:37:42Z</time></trkpt>
<trkpt lat="50.397066" lon="5.879056"><ele>238.2</ele><time>2025-05-25T07:37:46Z</time></trkpt>
<trkpt lat="50.397493" lon="5.87876"><ele>232.61</ele><time>2025-05-25T07:37:49Z</time></trkpt>
<trkpt lat="50.397821" lon="5.878485"><ele>233.44</ele><time>2025-05-25T07:37:53Z</time></trkpt>
<trkpt lat="50.398132" lon="5.878145"><ele>232.94</ele><time>2025-05-25T07:37:57Z</time></trkpt>
<trkpt lat="50.398347" lon="5.877862"><ele>233.52</ele><time>2025-05-25T07:38:01Z</time></trkpt>
<trkpt lat="50.398584" lon="5.877474"><ele>234.15</ele><time>2025-05-25T07:38:04Z</time></trkpt>
<trkpt lat="50.398808" lon="5.877039"><ele>233.76</ele><time>2025-05-25T07:38:08Z</time></trkpt>
<trkpt lat="50.398964" lon="5.876678"><ele>233.01</ele><time>2025-05-25T07:38:12Z</time></trkpt>
<trkpt lat="50.399075" lon="5.876369"><ele>231.04</ele><time>2025-05-25T07:38:16Z</time></trkpt>
<trkpt lat="50.399261" lon="5.875709"><ele>230.29</ele><time>2025-05-25T07:38:19Z</time></trkpt>
<trkpt lat="50.399359" lon="5.875159"><ele>231.19</ele><time>2025-05-25T07:38:23Z</time></trkpt>
<trkpt lat="50.399417" lon="5.874381"><ele>230.03</ele><time>2025-05-25T07:38:27Z</time></trkpt>
<trkpt lat="50.399421" lon="5.87404"><ele>229.5</ele><time>2025-05-25T07:38:31Z</time></trkpt>
<trkpt lat="50.399406" lon="5.873679"><ele>228.62</ele><time>2025-05-25T07:38:34Z</time></trkpt>
<trkpt lat="50.39911" lon="5.87043"><ele>221.94</ele><time>2025-05-25T07:38:38Z</time></trkpt>
<trkpt lat="50.399118" lon="5.870184"><ele>221.47</ele><time>2025-05-25T07:38:42Z</time></trkpt>
<trkpt lat="50.399176" lon="5.869738"><ele>223.08</ele><time>2025-05-25T07:38:46Z</time></trkpt>
<trkpt lat="50.399276" lon="5.869335"><ele>224.02</ele><time>2025-05-25T07:38:49Z</time></trkpt>
<trkpt lat="50.39951" lon="5.868824"><ele>224.94</ele><time>2025-05-25T07:38:53Z</time></trkpt>
<trkpt lat="50.400917" lon="5.86624"><ele>225.35</ele><time>2025-05-25T07:38:57Z</time></trkpt>
<trkpt lat="50.401347" lon="5.865626"><ele>226.96</ele><time>2025-05-25T07:39:01Z</time></trkpt>
<trkpt lat="50.402118" lon="5.864624"><ele>226.03</ele><time>2025-05-25T07:39:05Z</time></trkpt>
<trkpt lat="50.402304" lon="5.864312"><ele>225.16</ele><time>2025-05-25T07:39:08Z</time></trkpt>
<trkpt lat="50.402814" lon="5.863349"><ele>223.51</ele><time>2025-05-25T07:39:12Z</time></trkpt>
<trkpt lat="50.402891" lon="5.863247"><ele>224.15</ele><time>2025-05-25T07:39:16Z</time></trkpt>
<trkpt lat="50.402977" lon="5.863175"><ele>224.49</ele><time>2025-05-25T07:39:20Z</time></trkpt>
<trkpt lat="50.403172" lon="5.863107"><ele>224.37</ele><time>2025-05-25T07:39:23Z</time></trkpt>
<trkpt lat="50.403449" lon="5.863154"><ele>224.71</ele><time>2025-05-25T07:39:27Z</time></trkpt>
<trkpt lat="50.403681" lon="5.863153"><ele>225.04</ele><time>2025-05-25T07:39:31Z</time></trkpt>
<trkpt lat="50.403789" lon="5.863137"><ele>225.41</ele><time>2025-05-25T07:39:35Z</time></trkpt>
<trkpt lat="50.404047" lon="5.863022"><ele>224.62</ele><time>2025-05-25T07:39:38Z</time></trkpt>
<trkpt lat="50.406523" lon="5.860981"><ele>219.8</ele><time>2025-05-25T07:39:42Z</time></trkpt>
<trkpt lat="50.406816" lon="5.860863"><ele>219.89</ele><time>2025-05-25T07:39:46Z</time></trkpt>
<trkpt lat="50.406816" lon="5.860863"><ele>219.89</ele><time>2025-05-25T07:39:46Z</time></trkpt>
<trkpt lat="50.406951" lon="5.860825"><ele>220.04</ele><time>2025-05-25T07:39:49Z</time></trkpt>
<trkpt lat="50.407294" lon="5.860779"><ele>221.76</ele><time>2025-05-25T07:39:51Z</time></trkpt>
<trkpt lat="50.407438" lon="5.860797"><ele>221.77</ele><time>2025-05-25T07:39:54Z</time></trkpt>
<trkpt lat="50.408425" lon="5.861091"><ele>224.53</ele><time>2025-05-25T07:39:57Z</time></trkpt>
<trkpt lat="50.408931" lon="5.861122"><ele>223.3</ele><time>2025-05-25T07:40:00Z</time></trkpt>
<trkpt lat="50.409248" lon="5.861069"><ele>223.99</ele><time>2025-05-25T07:40:02Z</time></trkpt>
<trkpt lat="50.41023" lon="5.860652"><ele>222.52</ele><time>2025-05-25T07:40:05Z</time></trkpt>
<trkpt lat="50.413583" lon="5.860456"><ele>235.55</ele><time>2025-05-25T07:40:08Z</time></trkpt>
<trkpt lat="50.41381" lon="5.860418"><ele>236.35</ele><time>2025-05-25T07:40:11Z</time></trkpt>
<trkpt lat="50.414028" lon="5.860298"><ele>236.46</ele><time>2025-05-25T07:40:14Z</time></trkpt>
<trkpt lat="50.414181" lon="5.860103"><ele>236.16</ele><time>2025-05-25T07:40:16Z</time></trkpt>
<trkpt lat="50.41428" lon="5.859835"><ele>237.82</ele><time>2025-05-25T07:40:19Z</time></trkpt>
<trkpt lat="50.414321" lon="5.859664"><ele>238.88</ele><time>2025-05-25T07:40:22Z</time></trkpt>
<trkpt lat="50.414358" lon="5.859382"><ele>240.36</ele><time>2025-05-25T07:40:25Z</time></trkpt>
<trkpt lat="50.414351" lon="5.859134"><ele>241.49</ele><time>2025-05-25T07:40:27Z</time></trkpt>
<trkpt lat="50.414306" lon="5.858862"><ele>242.69</ele><time>2025-05-25T07:40:30Z</time></trkpt>
<trkpt lat="50.41415" lon="5.858425"><ele>245.24</ele><time>2025-05-25T07:40:33Z</time></trkpt>
<trkpt lat="50.41387" lon="5.85777"><ele>244.89</ele><time>2025-05-25T07:40:36Z</time></trkpt>
<trkpt lat="50.413788" lon="5.857515"><ele>245.22</ele><time>2025-05-25T07:40:39Z</time></trkpt>
<trkpt lat="50.413769" lon="5.857288"><ele>245.57</ele><time>2025-05-25T07:40:41Z</time></trkpt>
<trkpt lat="50.413765" lon="5.857082"><ele>246.4</ele><time>2025-05-25T07:40:44Z</time></trkpt>
<trkpt lat="50.413809" lon="5.855996"><ele>251.84</ele><time>2025-05-25T07:40:47Z</time></trkpt>
<trkpt lat="50.414071" lon="5.850631"><ele>274.41</ele><time>2025-05-25T07:40:50Z</time></trkpt>
<trkpt lat="50.414052" lon="5.85033"><ele>277.56</ele><time>2025-05-25T07:40:52Z</time></trkpt>
<trkpt lat="50.413979" lon="5.850094"><ele>279.49</ele><time>2025-05-25T07:40:55Z</time></trkpt>
<trkpt lat="50.413891" lon="5.849952"><ele>279.9</ele><time>2025-05-25T07:40:58Z</time></trkpt>
<trkpt lat="50.413806" lon="5.849869"><ele>280.02</ele><time>2025-05-25T07:41:01Z</time></trkpt>
<trkpt lat="50.41356" lon="5.849777"><ele>278.24</ele><time>2025-05-25T07:41:03Z</time></trkpt>
<trkpt lat="50.41335" lon="5.849838"><ele>277.72</ele><time>2025-05-25T07:41:06Z</time></trkpt>
<trkpt lat="50.413166" lon="5.849972"><ele>279.24</ele><time>2025-05-25T07:41:09Z</time></trkpt>
<trkpt lat="50.41269" lon="5.850707"><ele>286.41</ele><time>2025-05-25T07:41:12Z</time></trkpt>
<trkpt lat="50.412518" lon="5.850845"><ele>287.73</ele><time>2025-05-25T07:41:15Z</time></trkpt>
<trkpt lat="50.412414" lon="5.850875"><ele>287.39</ele><time>2025-05-25T07:41:17Z</time></trkpt>
<trkpt lat="50.412211" lon="5.850833"><ele>286.92</ele><time>2025-05-25T07:41:20Z</time></trkpt>
<trkpt lat="50.412111" lon="5.85077"><ele>286.65</ele><time>2025-05-25T07:41:23Z</time></trkpt>
<trkpt lat="50.412016" lon="5.85066"><ele>286.76</ele><time>2025-05-25T07:41:26Z</time></trkpt>
<trkpt lat="50.411672" lon="5.849972"><ele>289.26</ele><time>2025-05-25T07:41:28Z</time></trkpt>
<trkpt lat="50.41135" lon="5.849306"><ele>292.36</ele><time>2025-05-25T07:41:31Z</time></trkpt>
<trkpt lat="50.411054" lon="5.848584"><ele>295.65</ele><time>2025-05-25T07:41:34Z</time></trkpt>
<trkpt lat="50.410991" lon="5.848345"><ele>297.16</ele><time>2025-05-25T07:41:37Z</time></trkpt>
<trkpt lat="50.41097" lon="5.848149"><ele>298.29</ele><time>2025-05-25T07:41:39Z</time></trkpt>
<trkpt lat="50.41098" lon="5.847947"><ele>299.49</ele><time>2025-05-25T07:41:42Z</time></trkpt>
<trkpt lat="50.411011" lon="5.847771"><ele>300.59</ele><time>2025-05-25T07:41:45Z</time></trkpt>
<trkpt lat="50.411206" lon="5.847207"><ele>302.98</ele><time>2025-05-25T07:41:48Z</time></trkpt>
<trkpt lat="50.411295" lon="5.847075"><ele>302.65</ele><time>2025-05-25T07:41:51Z</time></trkpt>
<trkpt lat="50.411403" lon="5.846996"><ele>302.23</ele><time>2025-05-25T07:41:53Z</time></trkpt>
<trkpt lat="50.411569" lon="5.846941"><ele>302.65</ele><time>2025-05-25T07:41:56Z</time></trkpt>
<trkpt lat="50.411752" lon="5.846844"><ele>303.42</ele><time>2025-05-25T07:41:59Z</time></trkpt>
<trkpt lat="50.412366" lon="5.846209"><ele>306.04</ele><time>2025-05-25T07:42:02Z</time></trkpt>
<trkpt lat="50.412521" lon="5.846095"><ele>307.17</ele><time>2025-05-25T07:42:04Z</time></trkpt>
<trkpt lat="50.412718" lon="5.846004"><ele>308.97</ele><time>2025-05-25T07:42:07Z</time></trkpt>
<trkpt lat="50.41297" lon="5.845846"><ele>310.36</ele><time>2025-05-25T07:42:10Z</time></trkpt>
<trkpt lat="50.413076" lon="5.845949"><ele>310.73</ele><time>2025-05-25T07:42:15Z</time></trkpt>
<trkpt lat="50.413329" lon="5.846052"><ele>312.18</ele><time>2025-05-25T07:42:20Z</time></trkpt>
<trkpt lat="50.413533" lon="5.846212"><ele>314.25</ele><time>2025-05-25T07:42:24Z</time></trkpt>
<trkpt lat="50.414017" lon="5.846788"><ele>316.67</ele><time>2025-05-25T07:42:29Z</time></trkpt>
<trkpt lat="50.414131" lon="5.846975"><ele>317.26</ele><time>2025-05-25T07:42:34Z</time></trkpt>
<trkpt lat="50.414572" lon="5.847916"><ele>316.11</ele><time>2025-05-25T07:42:39Z</time></trkpt>
<trkpt lat="50.414899" lon="5.84846"><ele>313.1</ele><time>2025-05-25T07:42:44Z</time></trkpt>
<trkpt lat="50.415045" lon="5.848616"><ele>312.1</ele><time>2025-05-25T07:42:48Z</time></trkpt>
<trkpt lat="50.415244" lon="5.848699"><ele>312.17</ele><time>2025-05-25T07:42:53Z</time></trkpt>
<trkpt lat="50.415471" lon="5.848665"><ele>314.0</ele><time>2025-05-25T07:42:58Z</time></trkpt>
<trkpt lat="50.416101" lon="5.848431"><ele>315.65</ele><time>2025-05-25T07:43:03Z</time></trkpt>
<trkpt lat="50.416497" lon="5.84838"><ele>313.77</ele><time>2025-05-25T07:43:08Z</time></trkpt>
<trkpt lat="50.416956" lon="5.848503"><ele>316.0</ele><time>2025-05-25T07:43:13Z</time></trkpt>
<trkpt lat="50.417351" lon="5.84877"><ele>319.79</ele><time>2025-05-25T07:43:17Z</time></trkpt>
<trkpt lat="50.417561" lon="5.848949"><ele>319.95</ele><time>2025-05-25T07:43:22Z</time></trkpt>
<trkpt lat="50.417692" lon="5.84909"><ele>319.47</ele><time>2025-05-25T07:43:27Z</time></trkpt>
<trkpt lat="50.418016" lon="5.850031"><ele>316.35</ele><time>2025-05-25T07:43:32Z</time></trkpt>
<trkpt lat="50.419159" lon="5.853533"><ele>327.95</ele><time>2025-05-25T07:43:37Z</time></trkpt>
<trkpt lat="50.419303" lon="5.853832"><ele>328.19</ele><time>2025-05-25T07:43:41Z</time></trkpt>
<trkpt lat="50.419559" lon="5.854262"><ele>329.68</ele><time>2025-05-25T07:43:46Z</time></trkpt>
<trkpt lat="50.419782" lon="5.854542"><ele>329.94</ele><time>2025-05-25T07:43:51Z</time></trkpt>
<trkpt lat="50.42053" lon="5.85522"><ele>335.01</ele><time>2025-05-25T07:43:56Z</time></trkpt>
<trkpt lat="50.420741" lon="5.855457"><ele>334.8</ele><time>2025-05-25T07:44:01Z</time></trkpt>
<trkpt lat="50.420896" lon="5.855682"><ele>334.09</ele><time>2025-05-25T07:44:05Z</time></trkpt>
<trkpt lat="50.421815" lon="5.857254"><ele>331.24</ele><time>2025-05-25T07:44:10Z</time></trkpt>
<trkpt lat="50.422089" lon="5.857615"><ele>330.73</ele><time>2025-05-25T07:44:15Z</time></trkpt>
<trkpt lat="50.422292" lon="5.857873"><ele>330.73</ele><time>2025-05-25T07:44:20Z</time></trkpt>
<trkpt lat="50.422835" lon="5.858399"><ele>330.97</ele><time>2025-05-25T07:44:25Z</time></trkpt>
<trkpt lat="50.422975" lon="5.858609"><ele>330.72</ele><time>2025-05-25T07:44:29Z</time></trkpt>
<trkpt lat="50.423209" lon="5.859057"><ele>331.05</ele><time>2025-05-25T07:44:34Z</time></trkpt>
<trkpt lat="50.423363" lon="5.859262"><ele>331.94</ele><time>2025-05-25T07:44:39Z</time></trkpt>
<trkpt lat="50.424044" lon="5.859758"><ele>332.17</ele><time>2025-05-25T07:44:44Z</time></trkpt>
<trkpt lat="50.424253" lon="5.859867"><ele>331.44</ele><time>2025-05-25T07:44:49Z</time></trkpt>
<trkpt lat="50.424438" lon="5.859871"><ele>331.39</ele><time>2025-05-25T07:44:54Z</time></trkpt>
<trkpt lat="50.424862" lon="5.859727"><ele>334.45</ele><time>2025-05-25T07:44:58Z</time></trkpt>
<trkpt lat="50.425058" lon="5.859706"><ele>335.02</ele><time>2025-05-25T07:45:03Z</time></trkpt>
<trkpt lat="50.425407" lon="5.859715"><ele>334.57</ele><time>2025-05-25T07:45:08Z</time></trkpt>
<trkpt lat="50.425604" lon="5.85968"><ele>336.08</ele><time>2025-05-25T07:45:13Z</time></trkpt>
<trkpt lat="50.427387" lon="5.858912"><ele>355.33</ele><time>2025-05-25T07:45:18Z</time></trkpt>
<trkpt lat="50.427795" lon="5.8587"><ele>359.3</ele><time>2025-05-25T07:45:22Z</time></trkpt>
<trkpt lat="50.428324" lon="5.858481"><ele>360.9</ele><time>2025-05-25T07:45:27Z</time></trkpt>
<trkpt lat="50.428591" lon="5.858394"><ele>364.14</ele><time>2025-05-25T07:45:32Z</time></trkpt>
<trkpt lat="50.428683" lon="5.858393"><ele>365.19</ele><time>2025-05-25T07:45:37Z</time></trkpt>
<trkpt lat="50.428816" lon="5.858467"><ele>365.77</ele><time>2025-05-25T07:45:42Z</time></trkpt>
<trkpt lat="50.428816" lon="5.858467"><ele>365.77</ele><time>2025-05-25T07:45:42Z</time></trkpt>
<trkpt lat="50.428932" lon="5.858573"><ele>366.9</ele><time>2025-05-25T07:45:45Z</time></trkpt>
<trkpt lat="50.429028" lon="5.85874"><ele>366.84</ele><time>2025-05-25T07:45:47Z</time></trkpt>
<trkpt lat="50.429093" lon="5.858966"><ele>367.85</ele><time>2025-05-25T07:45:50Z</time></trkpt>
<trkpt lat="50.429117" lon="5.859175"><ele>371.41</ele><time>2025-05-25T07:45:53Z</time></trkpt>
<trkpt lat="50.429113" lon="5.859429"><ele>375.18</ele><time>2025-05-25T07:45:56Z</time></trkpt>
<trkpt lat="50.429055" lon="5.859617"><ele>377.02</ele><time>2025-05-25T07:45:59Z</time></trkpt>
<trkpt lat="50.428864" lon="5.859938"><ele>378.63</ele><time>2025-05-25T07:46:02Z</time></trkpt>
<trkpt lat="50.428622" lon="5.86028"><ele>380.2</ele><time>2025-05-25T07:46:05Z</time></trkpt>
<trkpt lat="50.42841" lon="5.860631"><ele>382.38</ele><time>2025-05-25T07:46:08Z</time></trkpt>
<trkpt lat="50.428225" lon="5.861032"><ele>384.52</ele><time>2025-05-25T07:46:10Z</time></trkpt>
<trkpt lat="50.428026" lon="5.861557"><ele>386.34</ele><time>2025-05-25T07:46:13Z</time></trkpt>
<trkpt lat="50.42673" lon="5.86413"><ele>392.86</ele><time>2025-05-25T07:46:16Z</time></trkpt>
<trkpt lat="50.426647" lon="5.864382"><ele>395.26</ele><time>2025-05-25T07:46:19Z</time></trkpt>
<trkpt lat="50.426536" lon="5.865202"><ele>398.7</ele><time>2025-05-25T07:46:22Z</time></trkpt>
<trkpt lat="50.426483" lon="5.865762"><ele>400.19</ele><time>2025-05-25T07:46:25Z</time></trkpt>
<trkpt lat="50.426482" lon="5.866022"><ele>400.79</ele><time>2025-05-25T07:46:28Z</time></trkpt>
<trkpt lat="50.426516" lon="5.866301"><ele>401.38</ele><time>2025-05-25T07:46:31Z</time></trkpt>
<trkpt lat="50.426641" lon="5.866674"><ele>403.21</ele><time>2025-05-25T07:46:33Z</time></trkpt>
<trkpt lat="50.427045" lon="5.867469"><ele>409.04</ele><time>2025-05-25T07:46:36Z</time></trkpt>
<trkpt lat="50.42787" lon="5.868925"><ele>423.96</ele><time>2025-05-25T07:46:39Z</time></trkpt>
<trkpt lat="50.428296" lon="5.869754"><ele>429.86</ele><time>2025-05-25T07:46:42Z</time></trkpt>
<trkpt lat="50.428807" lon="5.870633"><ele>436.17</ele><time>2025-05-25T07:46:45Z</time></trkpt>
<trkpt lat="50.429336" lon="5.871283"><ele>441.8</ele><time>2025-05-25T07:46:48Z</time></trkpt>
<trkpt lat="50.430299" lon="5.872254"><ele>443.13</ele><time>2025-05-25T07:46:51Z</time></trkpt>
<trkpt lat="50.430299" lon="5.872254"><ele>443.13</ele><time>2025-05-25T07:46:51Z</time></trkpt>
<trkpt lat="50.430851" lon="5.872799"><ele>440.96</ele><time>2025-05-25T07:46:54Z</time></trkpt>
<trkpt lat="50.431721" lon="5.873313"><ele>445.54</ele><time>2025-05-25T07:46:58Z</time></trkpt>
<trkpt lat="50.431978" lon="5.873397"><ele>447.02</ele><time>2025-05-25T07:47:01Z</time></trkpt>
<trkpt lat="50.432127" lon="5.873351"><ele>449.51</ele><time>2025-05-25T07:47:05Z</time></trkpt>
<trkpt lat="50.432222" lon="5.87326"><ele>451.53</ele><time>2025-05-25T07:47:08Z</time></trkpt>
<trkpt lat="50.432279" lon="5.873157"><ele>452.27</ele><time>2025-05-25T07:47:12Z</time></trkpt>
<trkpt lat="50.432336" lon="5.872929"><ele>453.64</ele><time>2025-05-25T07:47:15Z</time></trkpt>
<trkpt lat="50.432348" lon="5.872734"><ele>454.68</ele><time>2025-05-25T07:47:19Z</time></trkpt>
<trkpt lat="50.432327" lon="5.872566"><ele>455.43</ele><time>2025-05-25T07:47:22Z</time></trkpt>
<trkpt lat="50.432278" lon="5.872451"><ele>455.43</ele><time>2025-05-25T07:47:26Z</time></trkpt>
<trkpt lat="50.431918" lon="5.871855"><ele>456.42</ele><time>2025-05-25T07:47:29Z</time></trkpt>
<trkpt lat="50.431847" lon="5.871676"><ele>456.89</ele><time>2025-05-25T07:47:33Z</time></trkpt>
<trkpt lat="50.431809" lon="5.871529"><ele>457.53</ele><time>2025-05-25T07:47:37Z</time></trkpt>
<trkpt lat="50.431835" lon="5.871299"><ele>459.46</ele><time>2025-05-25T07:47:40Z</time></trkpt>
<trkpt lat="50.4319" lon="5.871121"><ele>461.45</ele><time>2025-05-25T07:47:44Z</time></trkpt>
<trkpt lat="50.431974" lon="5.871031"><ele>462.9</ele><time>2025-05-25T07:47:47Z</time></trkpt>
<trkpt lat="50.432158" lon="5.870984"><ele>465.22</ele><time>2025-05-25T07:47:51Z</time></trkpt>
<trkpt lat="50.432584" lon="5.87104"><ele>467.82</ele><time>2025-05-25T07:47:54Z</time></trkpt>
<trkpt lat="50.432882" lon="5.87104"><ele>468.89</ele><time>2025-05-25T07:47:58Z</time></trkpt>
<trkpt lat="50.433156" lon="5.870989"><ele>470.6</ele><time>2025-05-25T07:48:01Z</time></trkpt>
<trkpt lat="50.433416" lon="5.870867"><ele>473.39</ele><time>2025-05-25T07:48:05Z</time></trkpt>
<trkpt lat="50.433801" lon="5.870609"><ele>476.62</ele><time>2025-05-25T07:48:08Z</time></trkpt>
<trkpt lat="50.434059" lon="5.8704"><ele>478.73</ele><time>2025-05-25T07:48:12Z</time></trkpt>
<trkpt lat="50.434321" lon="5.870227"><ele>481.38</ele><time>2025-05-25T07:48:15Z</time></trkpt>
<trkpt lat="50.434567" lon="5.87015"><ele>482.9</ele><time>2025-05-25T07:48:19Z</time></trkpt>
<trkpt lat="50.434654" lon="5.870068"><ele>483.51</ele><time>2025-05-25T07:48:22Z</time></trkpt>
<trkpt lat="50.434939" lon="5.86916"><ele>490.83</ele><time>2025-05-25T07:48:26Z</time></trkpt>
<trkpt lat="50.435031" lon="5.869073"><ele>491.67</ele><time>2025-05-25T07:48:29Z</time></trkpt>
<trkpt lat="50.435151" lon="5.869118"><ele>491.35</ele><time>2025-05-25T07:48:33Z</time></trkpt>
<trkpt lat="50.435279" lon="5.869198"><ele>490.78</ele><time>2025-05-25T07:48:36Z</time></trkpt>
<trkpt lat="50.435796" lon="5.869646"><ele>487.55</ele><time>2025-05-25T07:48:40Z</time></trkpt>
<trkpt lat="50.435963" lon="5.869745"><ele>487.8</ele><time>2025-05-25T07:48:43Z</time></trkpt>
<trkpt lat="50.436174" lon="5.869833"><ele>488.83</ele><time>2025-05-25T07:48:47Z</time></trkpt>
<trkpt lat="50.436432" lon="5.869908"><ele>489.64</ele><time>2025-05-25T07:48:50Z</time></trkpt>
<trkpt lat="50.437508" lon="5.87008"><ele>493.74</ele><time>2025-05-25T07:48:54Z</time></trkpt>
<trkpt lat="50.438573" lon="5.87021"><ele>501.86</ele><time>2025-05-25T07:48:57Z</time></trkpt>
<trkpt lat="50.441236" lon="5.870626"><ele>511.6</ele><time>2025-05-25T07:49:01Z</time></trkpt>
<trkpt lat="50.442037" lon="5.870857"><ele>515.53</ele><time>2025-05-25T07:49:04Z</time></trkpt>
<trkpt lat="50.442669" lon="5.871118"><ele>519.22</ele><time>2025-05-25T07:49:08Z</time></trkpt>
<trkpt lat="50.442989" lon="5.871287"><ele>520.0</ele><time>2025-05-25T07:49:11Z</time></trkpt>
<trkpt lat="50.443732" lon="5.87184"><ele>523.43</ele><time>2025-05-25T07:49:15Z</time></trkpt>
<trkpt lat="50.444259" lon="5.872262"><ele>526.47</ele><time>2025-05-25T07:49:19Z</time></trkpt>
<trkpt lat="50.44566" lon="5.873285"><ele>538.54</ele><time>2025-05-25T07:49:22Z</time></trkpt>
<trkpt lat="50.445892" lon="5.873497"><ele>539.41</ele><time>2025-05-25T07:49:26Z</time></trkpt>
<trkpt lat="50.44622" lon="5.873863"><ele>538.48</ele><time>2025-05-25T07:49:29Z</time></trkpt>
<trkpt lat="50.446523" lon="5.874287"><ele>539.74</ele><time>2025-05-25T07:49:33Z</time></trkpt>
<trkpt lat="50.446958" lon="5.875072"><ele>540.05</ele><time>2025-05-25T07:49:36Z</time></trkpt>
<trkpt lat="50.447554" lon="5.876263"><ele>546.39</ele><time>2025-05-25T07:49:40Z</time></trkpt>
<trkpt lat="50.448712" lon="5.878582"><ele>554.05</ele><time>2025-05-25T07:49:43Z</time></trkpt>
<trkpt lat="50.448879" lon="5.878881"><ele>556.86</ele><time>2025-05-25T07:49:47Z</time></trkpt>
<trkpt lat="50.449067" lon="5.879166"><ele>558.93</ele><time>2025-05-25T07:49:50Z</time></trkpt>
<trkpt lat="50.449553" lon="5.879726"><ele>565.55</ele><time>2025-05-25T07:49:54Z</time></trkpt>
<trkpt lat="50.449911" lon="5.880034"><ele>569.72</ele><time>2025-05-25T07:49:57Z</time></trkpt>
<trkpt lat="50.450058" lon="5.880125"><ele>571.11</ele><time>2025-05-25T07:50:01Z</time></trkpt>
<trkpt lat="50.451102" lon="5.880612"><ele>562.27</ele><time>2025-05-25T07:50:04Z</time></trkpt>
<trkpt lat="50.451505" lon="5.880772"><ele>564.93</ele><time>2025-05-25T07:50:08Z</time></trkpt>
<trkpt lat="50.453516" lon="5.881483"><ele>564.66</ele><time>2025-05-25T07:50:11Z</time></trkpt>
<trkpt lat="50.453953" lon="5.881602"><ele>561.23</ele><time>2025-05-25T07:50:15Z</time></trkpt>
<trkpt lat="50.457088" lon="5.882283"><ele>547.67</ele><time>2025-05-25T07:50:18Z</time></trkpt>
<trkpt lat="50.457888" lon="5.882468"><ele>544.07</ele><time>2025-05-25T07:50:22Z</time></trkpt>
<trkpt lat="50.458106" lon="5.882485"><ele>542.1</ele><time>2025-05-25T07:50:25Z</time></trkpt>
<trkpt lat="50.458106" lon="5.882485"><ele>542.1</ele><time>2025-05-25T07:50:25Z</time></trkpt>
<trkpt lat="50.458197" lon="5.882476"><ele>541.52</ele><time>2025-05-25T07:50:29Z</time></trkpt>
<trkpt lat="50.458444" lon="5.88233"><ele>538.38</ele><time>2025-05-25T07:50:32Z</time></trkpt>
<trkpt lat="50.458691" lon="5.882071"><ele>533.72</ele><time>2025-05-25T07:50:35Z</time></trkpt>
<trkpt lat="50.458816" lon="5.881889"><ele>532.05</ele><time>2025-05-25T07:50:38Z</time></trkpt>
<trkpt lat="50.45897" lon="5.881586"><ele>530.21</ele><time>2025-05-25T07:50:41Z</time></trkpt>
<trkpt lat="50.459058" lon="5.881306"><ele>529.39</ele><time>2025-05-25T07:50:45Z</time></trkpt>
<trkpt lat="50.459097" lon="5.881055"><ele>529.1</ele><time>2025-05-25T07:50:48Z</time></trkpt>
<trkpt lat="50.459107" lon="5.880668"><ele>528.43</ele><time>2025-05-25T07:50:51Z</time></trkpt>
<trkpt lat="50.459087" lon="5.880266"><ele>527.86</ele><time>2025-05-25T07:50:54Z</time></trkpt>
<trkpt lat="50.459046" lon="5.879155"><ele>522.2</ele><time>2025-05-25T07:50:57Z</time></trkpt>
<trkpt lat="50.459052" lon="5.878816"><ele>519.23</ele><time>2025-05-25T07:51:00Z</time></trkpt>
<trkpt lat="50.459073" lon="5.878557"><ele>517.49</ele><time>2025-05-25T07:51:04Z</time></trkpt>
<trkpt lat="50.459109" lon="5.878277"><ele>515.99</ele><time>2025-05-25T07:51:07Z</time></trkpt>
<trkpt lat="50.459232" lon="5.877656"><ele>514.22</ele><time>2025-05-25T07:51:10Z</time></trkpt>
<trkpt lat="50.459584" lon="5.876018"><ele>506.65</ele><time>2025-05-25T07:51:13Z</time></trkpt>
<trkpt lat="50.459764" lon="5.874733"><ele>503.51</ele><time>2025-05-25T07:51:16Z</time></trkpt>
<trkpt lat="50.459942" lon="5.871051"><ele>495.44</ele><time>2025-05-25T07:51:20Z</time></trkpt>
<trkpt lat="50.460002" lon="5.870391"><ele>493.54</ele><time>2025-05-25T07:51:23Z</time></trkpt>
<trkpt lat="50.460037" lon="5.870256"><ele>493.14</ele><time>2025-05-25T07:51:26Z</time></trkpt>
<trkpt lat="50.460101" lon="5.870114"><ele>491.82</ele><time>2025-05-25T07:51:29Z</time></trkpt>
<trkpt lat="50.460282" lon="5.869937"><ele>487.38</ele><time>2025-05-25T07:51:32Z</time></trkpt>
<trkpt lat="50.460484" lon="5.869928"><ele>484.01</ele><time>2025-05-25T07:51:36Z</time></trkpt>
<trkpt lat="50.460592" lon="5.869977"><ele>481.98</ele><time>2025-05-25T07:51:39Z</time></trkpt>
<trkpt lat="50.461144" lon="5.8705"><ele>477.96</ele><time>2025-05-25T07:51:42Z</time></trkpt>
<trkpt lat="50.461536" lon="5.870804"><ele>475.53</ele><time>2025-05-25T07:51:45Z</time></trkpt>
<trkpt lat="50.463007" lon="5.87186"><ele>467.17</ele><time>2025-05-25T07:51:48Z</time></trkpt>
<trkpt lat="50.464767" lon="5.872735"><ele>456.55</ele><time>2025-05-25T07:51:51Z</time></trkpt>
<trkpt lat="50.465229" lon="5.872937"><ele>452.1</ele><time>2025-05-25T07:51:55Z</time></trkpt>
<trkpt lat="50.465568" lon="5.872906"><ele>450.44</ele><time>2025-05-25T07:51:58Z</time></trkpt>
<trkpt lat="50.465845" lon="5.87278"><ele>449.87</ele><time>2025-05-25T07:52:01Z</time></trkpt>
<trkpt lat="50.466303" lon="5.872401"><ele>441.91</ele><time>2025-05-25T07:52:04Z</time></trkpt>
<trkpt lat="50.466336" lon="5.872451"><ele>444.45</ele><time>2025-05-25T07:52:05Z</time></trkpt>
<trkpt lat="50.466336" lon="5.872451"><ele>444.45</ele><time>2025-05-25T07:52:05Z</time></trkpt>
<trkpt lat="50.46677" lon="5.873095"><ele>447.0</ele><time>2025-05-25T07:52:19Z</time></trkpt>
<trkpt lat="50.467719" lon="5.874339"><ele>451.64</ele><time>2025-05-25T07:52:33Z</time></trkpt>
<trkpt lat="50.469981" lon="5.877374"><ele>455.14</ele><time>2025-05-25T07:52:47Z</time></trkpt>
<trkpt lat="50.47249" lon="5.880775"><ele>453.87</ele><time>2025-05-25T07:53:01Z</time></trkpt>
<trkpt lat="50.476512" lon="5.88616"><ele>432.64</ele><time>2025-05-25T07:53:16Z</time></trkpt>
<trkpt lat="50.477052" lon="5.886916"><ele>433.86</ele><time>2025-05-25T07:53:30Z</time></trkpt>
<trkpt lat="50.479364" lon="5.890014"><ele>444.61</ele><time>2025-05-25T07:53:44Z</time></trkpt>
<trkpt lat="50.484614" lon="5.897185"><ele>420.04</ele><time>2025-05-25T07:53:58Z</time></trkpt>
<trkpt lat="50.484718" lon="5.89733"><ele>420.02</ele><time>2025-05-25T07:54:13Z</time></trkpt>
<trkpt lat="50.485059" lon="5.897816"><ele>416.71</ele><time>2025-05-25T07:54:27Z</time></trkpt>
<trkpt lat="50.485059" lon="5.897816"><ele>416.71</ele><time>2025-05-25T07:54:27Z</time></trkpt>
<trkpt lat="50.485099" lon="5.897873"><ele>413.39</ele><time>2025-05-25T07:54:27Z</time></trkpt>
<trkpt lat="50.485276" lon="5.897548"><ele>412.67</ele><time>2025-05-25T07:54:29Z</time></trkpt>
<trkpt lat="50.485431" lon="5.897742"><ele>411.04</ele><time>2025-05-25T07:54:35Z</time></trkpt>
<trkpt lat="50.485519" lon="5.897803"><ele>411.26</ele><time>2025-05-25T07:54:42Z</time></trkpt>
<trkpt lat="50.485613" lon="5.897793"><ele>411.78</ele><time>2025-05-25T07:54:49Z</time></trkpt>
<trkpt lat="50.485695" lon="5.897752"><ele>412.36</ele><time>2025-05-25T07:54:55Z</time></trkpt>
<trkpt lat="50.486239" lon="5.897315"><ele>411.66</ele><time>2025-05-25T07:55:02Z</time></trkpt>
<trkpt lat="50.486465" lon="5.897106"><ele>410.44</ele><time>2025-05-25T07:55:09Z</time></trkpt>
<trkpt lat="50.487714" lon="5.896105"><ele>398.4</ele><time>2025-05-25T07:55:15Z</time></trkpt>
<trkpt lat="50.488267" lon="5.895692"><ele>392.22</ele><time>2025-05-25T07:55:22Z</time></trkpt>
<trkpt lat="50.488514" lon="5.895641"><ele>391.42</ele><time>2025-05-25T07:55:29Z</time></trkpt>
<trkpt lat="50.491322" lon="5.895901"><ele>361.05</ele><time>2025-05-25T07:55:35Z</time></trkpt>
<trkpt lat="50.492336" lon="5.895927"><ele>346.13</ele><time>2025-05-25T07:55:42Z</time></trkpt>
<trkpt lat="50.492939" lon="5.895846"><ele>345.03</ele><time>2025-05-25T07:55:49Z</time></trkpt>
<trkpt lat="50.493482" lon="5.895663"><ele>342.85</ele><time>2025-05-25T07:55:55Z</time></trkpt>
<trkpt lat="50.493774" lon="5.895477"><ele>340.43</ele><time>2025-05-25T07:56:02Z</time></trkpt>
<trkpt lat="50.494653" lon="5.894991"><ele>336.44</ele><time>2025-05-25T07:56:09Z</time></trkpt>
<trkpt lat="50.494789" lon="5.894923"><ele>335.03</ele><time>2025-05-25T07:56:15Z</time></trkpt>
<trkpt lat="50.494833" lon="5.894951"><ele>334.92</ele><time>2025-05-25T07:56:22Z</time></trkpt>
<trkpt lat="50.494888" lon="5.895233"><ele>335.65</ele><time>2025-05-25T07:56:33Z</time></trkpt>
<trkpt lat="50.495141" lon="5.896117"><ele>337.98</ele><time>2025-05-25T07:56:45Z</time></trkpt>
<trkpt lat="50.495236" lon="5.896577"><ele>337.87</ele><time>2025-05-25T07:56:56Z</time></trkpt>
<trkpt lat="50.49532" lon="5.897105"><ele>339.43</ele><time>2025-05-25T07:57:07Z</time></trkpt>
<trkpt lat="50.495369" lon="5.897607"><ele>340.06</ele><time>2025-05-25T07:57:18Z</time></trkpt>
<trkpt lat="50.495484" lon="5.898206"><ele>340.8</ele><time>2025-05-25T07:57:29Z</time></trkpt>
<trkpt lat="50.495709" lon="5.899084"><ele>343.7</ele><time>2025-05-25T07:57:41Z</time></trkpt>
<trkpt lat="50.496044" lon="5.900741"><ele>344.4</ele><time>2025-05-25T07:57:52Z</time></trkpt>
<trkpt lat="50.496109" lon="5.900758"><ele>344.01</ele><time>2025-05-25T07:57:59Z</time></trkpt>
<trkpt lat="50.496296" lon="5.90074"><ele>343.11</ele><time>2025-05-25T07:58:07Z</time></trkpt>
<trkpt lat="50.496417" lon="5.90068"><ele>342.3</ele><time>2025-05-25T07:58:14Z</time></trkpt>
<trkpt lat="50.49758" lon="5.899332"><ele>333.02</ele><time>2025-05-25T07:58:22Z</time></trkpt>
<trkpt lat="50.497764" lon="5.899335"><ele>331.71</ele><time>2025-05-25T07:58:30Z</time></trkpt>
<trkpt lat="50.498003" lon="5.899386"><ele>331.79</ele><time>2025-05-25T07:58:37Z</time></trkpt>
<trkpt lat="50.498533" lon="5.899429"><ele>331.49</ele><time>2025-05-25T07:58:45Z</time></trkpt>
<trkpt lat="50.498868" lon="5.899462"><ele>330.14</ele><time>2025-05-25T07:58:52Z</time></trkpt>
<trkpt lat="50.499008" lon="5.899443"><ele>329.99</ele><time>2025-05-25T07:59:00Z</time></trkpt>
<trkpt lat="50.499114" lon="5.899404"><ele>329.73</ele><time>2025-05-25T07:59:07Z</time></trkpt>
<trkpt lat="50.49966" lon="5.899621"><ele>328.86</ele><time>2025-05-25T07:59:15Z</time></trkpt>
<trkpt lat="50.501345" lon="5.89999"><ele>327.96</ele><time>2025-05-25T07:59:23Z</time></trkpt>
<trkpt lat="50.50305" lon="5.900752"><ele>322.03</ele><time>2025-05-25T07:59:30Z</time></trkpt>
<trkpt lat="50.504737" lon="5.901655"><ele>317.9</ele><time>2025-05-25T07:59:38Z</time></trkpt>
<trkpt lat="50.504908" lon="5.901608"><ele>317.12</ele><time>2025-05-25T07:59:45Z</time></trkpt>
<trkpt lat="50.50507" lon="5.901503"><ele>315.76</ele><time>2025-05-25T07:59:53Z</time></trkpt>
<trkpt lat="50.505428" lon="5.901168"><ele>311.13</ele><time>2025-05-25T08:00:00Z</time></trkpt>
<trkpt lat="50.505879" lon="5.901762"><ele>311.4</ele><time>2025-05-25T08:00:05Z</time></trkpt>
<trkpt lat="50.50767" lon="5.903589"><ele>307.61</ele><time>2025-05-25T08:00:09Z</time></trkpt>
<trkpt lat="50.508286" lon="5.90427"><ele>304.28</ele><time>2025-05-25T08:00:14Z</time></trkpt>
<trkpt lat="50.510775" lon="5.907586"><ele>327.74</ele><time>2025-05-25T08:00:18Z</time></trkpt>
<trkpt lat="50.5111" lon="5.908043"><ele>328.86</ele><time>2025-05-25T08:00:23Z</time></trkpt>
<trkpt lat="50.511346" lon="5.908439"><ele>330.86</ele><time>2025-05-25T08:00:28Z</time></trkpt>
<trkpt lat="50.512415" lon="5.910463"><ele>343.29</ele><time>2025-05-25T08:00:32Z</time></trkpt>
<trkpt lat="50.512639" lon="5.910803"><ele>344.83</ele><time>2025-05-25T08:00:37Z</time></trkpt>
<trkpt lat="50.512821" lon="5.910993"><ele>345.32</ele><time>2025-05-25T08:00:41Z</time></trkpt>
<trkpt lat="50.513035" lon="5.911141"><ele>346.16</ele><time>2025-05-25T08:00:46Z</time></trkpt>
<trkpt lat="50.513193" lon="5.91119"><ele>347.21</ele><time>2025-05-25T08:00:50Z</time></trkpt>
<trkpt lat="50.513728" lon="5.91135"><ele>351.55</ele><time>2025-05-25T08:00:55Z</time></trkpt>
<trkpt lat="50.514265" lon="5.911794"><ele>354.33</ele><time>2025-05-25T08:00:59Z</time></trkpt>
<trkpt lat="50.515156" lon="5.912616"><ele>355.43</ele><time>2025-05-25T08:01:04Z</time></trkpt>
<trkpt lat="50.515998" lon="5.913201"><ele>361.84</ele><time>2025-05-25T08:01:08Z</time></trkpt>
<trkpt lat="50.516606" lon="5.913573"><ele>367.37</ele><time>2025-05-25T08:01:13Z</time></trkpt>
<trkpt lat="50.517299" lon="5.914088"><ele>372.28</ele><time>2025-05-25T08:01:17Z</time></trkpt>
<trkpt lat="50.517696" lon="5.914331"><ele>372.53</ele><time>2025-05-25T08:01:22Z</time></trkpt>
<trkpt lat="50.517801" lon="5.91446"><ele>372.94</ele><time>2025-05-25T08:01:26Z</time></trkpt>
<trkpt lat="50.517884" lon="5.914639"><ele>372.3</ele><time>2025-05-25T08:01:31Z</time></trkpt>
<trkpt lat="50.517926" lon="5.914823"><ele>371.64</ele><time>2025-05-25T08:01:35Z</time></trkpt>
<trkpt lat="50.517952" lon="5.915114"><ele>370.18</ele><time>2025-05-25T08:01:40Z</time></trkpt>
<trkpt lat="50.517952" lon="5.915268"><ele>369.07</ele><time>2025-05-25T08:01:44Z</time></trkpt>
<trkpt lat="50.517995" lon="5.915444"><ele>367.8</ele><time>2025-05-25T08:01:45Z</time></trkpt>
<trkpt lat="50.518124" lon="5.915512"><ele>367.31</ele><time>2025-05-25T08:01:46Z</time></trkpt>
<trkpt lat="50.518463" lon="5.915044"><ele>370.23</ele><time>2025-05-25T08:01:47Z</time></trkpt>
<trkpt lat="50.518548" lon="5.914953"><ele>371.28</ele><time>2025-05-25T08:01:49Z</time></trkpt>
<trkpt lat="50.518605" lon="5.914925"><ele>371.79</ele><time>2025-05-25T08:01:50Z</time></trkpt>
<trkpt lat="50.518666" lon="5.914932"><ele>372.13</ele><time>2025-05-25T08:01:56Z</time></trkpt>
<trkpt lat="50.518751" lon="5.914872"><ele>373.39</ele><time>2025-05-25T08:02:02Z</time></trkpt>
<trkpt lat="50.518797" lon="5.914753"><ele>375.0</ele><time>2025-05-25T08:02:09Z</time></trkpt>
<trkpt lat="50.518802" lon="5.914663"><ele>375.8</ele><time>2025-05-25T08:02:15Z</time></trkpt>
<trkpt lat="50.518781" lon="5.914563"><ele>376.37</ele><time>2025-05-25T08:02:21Z</time></trkpt>
<trkpt lat="50.519127" lon="5.914138"><ele>379.1</ele><time>2025-05-25T08:02:27Z</time></trkpt>
<trkpt lat="50.519285" lon="5.913918"><ele>379.08</ele><time>2025-05-25T08:02:33Z</time></trkpt>
<trkpt lat="50.519492" lon="5.913418"><ele>376.66</ele><time>2025-05-25T08:02:39Z</time></trkpt>
<trkpt lat="50.519714" lon="5.912799"><ele>374.06</ele><time>2025-05-25T08:02:45Z</time></trkpt>
<trkpt lat="50.520025" lon="5.91216"><ele>370.98</ele><time>2025-05-25T08:02:52Z</time></trkpt>
<trkpt lat="50.520265" lon="5.911711"><ele>369.24</ele><time>2025-05-25T08:02:58Z</time></trkpt>
<trkpt lat="50.520838" lon="5.910997"><ele>365.99</ele><time>2025-05-25T08:03:04Z</time></trkpt>
<trkpt lat="50.521846" lon="5.909911"><ele>364.0</ele><time>2025-05-25T08:03:10Z</time></trkpt>
<trkpt lat="50.522065" lon="5.909643"><ele>364.0</ele><time>2025-05-25T08:03:16Z</time></trkpt>
<trkpt lat="50.522334" lon="5.910029"><ele>363.0</ele><time>2025-05-25T08:03:19Z</time></trkpt>
<trkpt lat="50.523059" lon="5.911689"><ele>361.0</ele><time>2025-05-25T08:03:23Z</time></trkpt>
<trkpt lat="50.523306" lon="5.912069"><ele>361.04</ele><time>2025-05-25T08:03:26Z</time></trkpt>
<trkpt lat="50.523523" lon="5.912298"><ele>358.86</ele><time>2025-05-25T08:03:29Z</time></trkpt>
<trkpt lat="50.523882" lon="5.91254"><ele>356.88</ele><time>2025-05-25T08:03:33Z</time></trkpt>
<trkpt lat="50.52397" lon="5.91258"><ele>356.42</ele><time>2025-05-25T08:03:36Z</time></trkpt>
<trkpt lat="50.524536" lon="5.912722"><ele>352.54</ele><time>2025-05-25T08:03:39Z</time></trkpt>
<trkpt lat="50.525237" lon="5.912891"><ele>349.65</ele><time>2025-05-25T08:03:42Z</time></trkpt>
<trkpt lat="50.525621" lon="5.91312"><ele>349.54</ele><time>2025-05-25T08:03:46Z</time></trkpt>
<trkpt lat="50.526871" lon="5.914204"><ele>347.6</ele><time>2025-05-25T08:03:49Z</time></trkpt>
<trkpt lat="50.527247" lon="5.91453"><ele>347.72</ele><time>2025-05-25T08:03:52Z</time></trkpt>
<trkpt lat="50.527575" lon="5.914688"><ele>348.0</ele><time>2025-05-25T08:03:56Z</time></trkpt>
<trkpt lat="50.528357" lon="5.914739"><ele>348.99</ele><time>2025-05-25T08:03:59Z</time></trkpt>
<trkpt lat="50.528777" lon="5.91478"><ele>346.41</ele><time>2025-05-25T08:04:02Z</time></trkpt>
<trkpt lat="50.52912" lon="5.91481"><ele>341.36</ele><time>2025-05-25T08:04:05Z</time></trkpt>
<trkpt lat="50.529574" lon="5.915058"><ele>341.16</ele><time>2025-05-25T08:04:09Z</time></trkpt>
<trkpt lat="50.529941" lon="5.915451"><ele>338.12</ele><time>2025-05-25T08:04:12Z</time></trkpt>
<trkpt lat="50.531199" lon="5.917696"><ele>327.07</ele><time>2025-05-25T08:04:15Z</time></trkpt>
<trkpt lat="50.531707" lon="5.918413"><ele>323.14</ele><time>2025-05-25T08:04:19Z</time></trkpt>
<trkpt lat="50.532009" lon="5.919016"><ele>324.36</ele><time>2025-05-25T08:04:22Z</time></trkpt>
<trkpt lat="50.532384" lon="5.921238"><ele>309.86</ele><time>2025-05-25T08:04:25Z</time></trkpt>
<trkpt lat="50.532457" lon="5.921473"><ele>308.06</ele><time>2025-05-25T08:04:29Z</time></trkpt>
<trkpt lat="50.532778" lon="5.922218"><ele>305.05</ele><time>2025-05-25T08:04:32Z</time></trkpt>
<trkpt lat="50.533361" lon="5.923491"><ele>298.5</ele><time>2025-05-25T08:04:35Z</time></trkpt>
<trkpt lat="50.533512" lon="5.92369"><ele>299.92</ele><time>2025-05-25T08:04:38Z</time></trkpt>
<trkpt lat="50.533777" lon="5.923986"><ele>300.49</ele><time>2025-05-25T08:04:42Z</time></trkpt>
<trkpt lat="50.534118" lon="5.92418"><ele>298.95</ele><time>2025-05-25T08:04:45Z</time></trkpt>
<trkpt lat="50.535514" lon="5.924227"><ele>291.01</ele><time>2025-05-25T08:04:48Z</time></trkpt>
<trkpt lat="50.536561" lon="5.924091"><ele>278.89</ele><time>2025-05-25T08:04:52Z</time></trkpt>
<trkpt lat="50.537185" lon="5.923945"><ele>274.0</ele><time>2025-05-25T08:04:55Z</time></trkpt>
<trkpt lat="50.537322" lon="5.92394"><ele>274.0</ele><time>2025-05-25T08:04:58Z</time></trkpt>
<trkpt lat="50.538061" lon="5.924056"><ele>270.89</ele><time>2025-05-25T08:05:01Z</time></trkpt>
<trkpt lat="50.538204" lon="5.924009"><ele>268.32</ele><time>2025-05-25T08:05:05Z</time></trkpt>
<trkpt lat="50.538495" lon="5.923825"><ele>264.21</ele><time>2025-05-25T08:05:08Z</time></trkpt>
<trkpt lat="50.538646" lon="5.923727"><ele>262.59</ele><time>2025-05-25T08:05:11Z</time></trkpt>
<trkpt lat="50.539163" lon="5.923349"><ele>264.13</ele><time>2025-05-25T08:05:15Z</time></trkpt>
<trkpt lat="50.539299" lon="5.923196"><ele>264.66</ele><time>2025-05-25T08:05:18Z</time></trkpt>
<trkpt lat="50.539767" lon="5.922504"><ele>262.51</ele><time>2025-05-25T08:05:21Z</time></trkpt>
<trkpt lat="50.539883" lon="5.922409"><ele>263.03</ele><time>2025-05-25T08:05:24Z</time></trkpt>
<trkpt lat="50.540159" lon="5.922302"><ele>263.84</ele><time>2025-05-25T08:05:28Z</time></trkpt>
<trkpt lat="50.540314" lon="5.922312"><ele>264.78</ele><time>2025-05-25T08:05:31Z</time></trkpt>
<trkpt lat="50.540439" lon="5.922365"><ele>265.61</ele><time>2025-05-25T08:05:34Z</time></trkpt>
<trkpt lat="50.540567" lon="5.922451"><ele>266.61</ele><time>2025-05-25T08:05:38Z</time></trkpt>
<trkpt lat="50.540694" lon="5.922622"><ele>267.38</ele><time>2025-05-25T08:05:41Z</time></trkpt>
<trkpt lat="50.540793" lon="5.922815"><ele>267.44</ele><time>2025-05-25T08:05:44Z</time></trkpt>
<trkpt lat="50.540984" lon="5.923141"><ele>266.46</ele><time>2025-05-25T08:05:48Z</time></trkpt>
<trkpt lat="50.541096" lon="5.923282"><ele>266.05</ele><time>2025-05-25T08:05:51Z</time></trkpt>
<trkpt lat="50.54123" lon="5.923394"><ele>266.83</ele><time>2025-05-25T08:05:54Z</time></trkpt>
<trkpt lat="50.541484" lon="5.923479"><ele>269.78</ele><time>2025-05-25T08:05:57Z</time></trkpt>
<trkpt lat="50.541618" lon="5.923472"><ele>271.39</ele><time>2025-05-25T08:06:01Z</time></trkpt>
<trkpt lat="50.541825" lon="5.923414"><ele>273.04</ele><time>2025-05-25T08:06:04Z</time></trkpt>
<trkpt lat="50.542581" lon="5.923034"><ele>279.84</ele><time>2025-05-25T08:06:07Z</time></trkpt>
<trkpt lat="50.54323" lon="5.922657"><ele>287.31</ele><time>2025-05-25T08:06:11Z</time></trkpt>
<trkpt lat="50.544321" lon="5.92207"><ele>292.28</ele><time>2025-05-25T08:06:14Z</time></trkpt>
<trkpt lat="50.544543" lon="5.922044"><ele>295.09</ele><time>2025-05-25T08:06:17Z</time></trkpt>
<trkpt lat="50.544643" lon="5.922065"><ele>296.73</ele><time>2025-05-25T08:06:20Z</time></trkpt>
<trkpt lat="50.544855" lon="5.922168"><ele>299.13</ele><time>2025-05-25T08:06:24Z</time></trkpt>
<trkpt lat="50.545296" lon="5.922502"><ele>301.56</ele><time>2025-05-25T08:06:27Z</time></trkpt>
<trkpt lat="50.545296" lon="5.922502"><ele>301.56</ele><time>2025-05-25T08:06:27Z</time></trkpt>
<trkpt lat="50.545538" lon="5.922684"><ele>303.99</ele><time>2025-05-25T08:06:34Z</time></trkpt>
<trkpt lat="50.546003" lon="5.923257"><ele>312.89</ele><time>2025-05-25T08:06:41Z</time></trkpt>
<trkpt lat="50.547313" lon="5.925045"><ele>328.97</ele><time>2025-05-25T08:06:48Z</time></trkpt>
<trkpt lat="50.547769" lon="5.925859"><ele>336.19</ele><time>2025-05-25T08:06:55Z</time></trkpt>
<trkpt lat="50.548381" lon="5.927023"><ele>341.79</ele><time>2025-05-25T08:07:01Z</time></trkpt>
<trkpt lat="50.549669" lon="5.92894"><ele>351.61</ele><time>2025-05-25T08:07:08Z</time></trkpt>
<trkpt lat="50.550544" lon="5.929837"><ele>355.54</ele><time>2025-05-25T08:07:15Z</time></trkpt>
<trkpt lat="50.550855" lon="5.93006"><ele>356.06</ele><time>2025-05-25T08:07:22Z</time></trkpt>
<trkpt lat="50.552213" lon="5.930701"><ele>360.93</ele><time>2025-05-25T08:07:29Z</time></trkpt>
<trkpt lat="50.552543" lon="5.930959"><ele>362.6</ele><time>2025-05-25T08:07:36Z</time></trkpt>
<trkpt lat="50.553624" lon="5.932023"><ele>367.96</ele><time>2025-05-25T08:07:43Z</time></trkpt>
<trkpt lat="50.554141" lon="5.932572"><ele>368.9</ele><time>2025-05-25T08:07:50Z</time></trkpt>
<trkpt lat="50.555125" lon="5.933482"><ele>372.0</ele><time>2025-05-25T08:07:57Z</time></trkpt>
<trkpt lat="50.555285" lon="5.933686"><ele>372.27</ele><time>2025-05-25T08:08:03Z</time></trkpt>
<trkpt lat="50.555438" lon="5.933957"><ele>373.0</ele><time>2025-05-25T08:08:10Z</time></trkpt>
<trkpt lat="50.555948" lon="5.93508"><ele>374.95</ele><time>2025-05-25T08:08:17Z</time></trkpt>
<trkpt lat="50.556579" lon="5.93657"><ele>377.06</ele><time>2025-05-25T08:08:24Z</time></trkpt>
<trkpt lat="50.557215" lon="5.937975"><ele>379.97</ele><time>2025-05-25T08:08:31Z</time></trkpt>
<trkpt lat="50.557433" lon="5.938706"><ele>382.1</ele><time>2025-05-25T08:08:38Z</time></trkpt>
<trkpt lat="50.557628" lon="5.93938"><ele>383.77</ele><time>2025-05-25T08:08:45Z</time></trkpt>
<trkpt lat="50.557777" lon="5.940594"><ele>385.0</ele><time>2025-05-25T08:08:52Z</time></trkpt>
<trkpt lat="50.55785" lon="5.941823"><ele>383.11</ele><time>2025-05-25T08:08:58Z</time></trkpt>
<trkpt lat="50.55775" lon="5.944519"><ele>378.2</ele><time>2025-05-25T08:09:05Z</time></trkpt>
<trkpt lat="50.557823" lon="5.945252"><ele>376.44</ele><time>2025-05-25T08:09:12Z</time></trkpt>
<trkpt lat="50.557904" lon="5.945766"><ele>373.77</ele><time>2025-05-25T08:09:19Z</time></trkpt>
<trkpt lat="50.557952" lon="5.945883"><ele>373.05</ele><time>2025-05-25T08:09:26Z</time></trkpt>
<trkpt lat="50.557847" lon="5.946629"><ele>372.85</ele><time>2025-05-25T08:09:28Z</time></trkpt>
<trkpt lat="50.557822" lon="5.946986"><ele>372.99</ele><time>2025-05-25T08:09:31Z</time></trkpt>
<trkpt lat="50.557861" lon="5.947785"><ele>374.7</ele><time>2025-05-25T08:09:33Z</time></trkpt>
<trkpt lat="50.557981" lon="5.948758"><ele>376.07</ele><time>2025-05-25T08:09:35Z</time></trkpt>
<trkpt lat="50.558079" lon="5.949198"><ele>376.94</ele><time>2025-05-25T08:09:37Z</time></trkpt>
<trkpt lat="50.558157" lon="5.949438"><ele>377.24</ele><time>2025-05-25T08:09:40Z</time></trkpt>
<trkpt lat="50.558257" lon="5.949674"><ele>377.15</ele><time>2025-05-25T08:09:42Z</time></trkpt>
<trkpt lat="50.558389" lon="5.949914"><ele>377.98</ele><time>2025-05-25T08:09:44Z</time></trkpt>
<trkpt lat="50.55864" lon="5.950365"><ele>378.42</ele><time>2025-05-25T08:09:47Z</time></trkpt>
<trkpt lat="50.55886" lon="5.950908"><ele>379.37</ele><time>2025-05-25T08:09:49Z</time></trkpt>
<trkpt lat="50.558949" lon="5.951228"><ele>379.98</ele><time>2025-05-25T08:09:51Z</time></trkpt>
<trkpt lat="50.559109" lon="5.952024"><ele>381.72</ele><time>2025-05-25T08:09:53Z</time></trkpt>
<trkpt lat="50.559167" lon="5.952504"><ele>383.01</ele><time>2025-05-25T08:09:56Z</time></trkpt>
<trkpt lat="50.559207" lon="5.953255"><ele>383.93</ele><time>2025-05-25T08:09:58Z</time></trkpt>
<trkpt lat="50.559207" lon="5.953255"><ele>383.93</ele><time>2025-05-25T08:09:58Z</time></trkpt>
<trkpt lat="50.559212" lon="5.953361"><ele>384.85</ele><time>2025-05-25T08:10:03Z</time></trkpt>
<trkpt lat="50.559211" lon="5.954154"><ele>386.0</ele><time>2025-05-25T08:10:09Z</time></trkpt>
<trkpt lat="50.559171" lon="5.954732"><ele>387.02</ele><time>2025-05-25T08:10:14Z</time></trkpt>
<trkpt lat="50.559063" lon="5.955868"><ele>385.54</ele><time>2025-05-25T08:10:19Z</time></trkpt>
<trkpt lat="50.558951" lon="5.957177"><ele>381.72</ele><time>2025-05-25T08:10:24Z</time></trkpt>
<trkpt lat="50.558941" lon="5.957669"><ele>381.13</ele><time>2025-05-25T08:10:30Z</time></trkpt>
<trkpt lat="50.558993" lon="5.958061"><ele>381.26</ele><time>2025-05-25T08:10:35Z</time></trkpt>
<trkpt lat="50.559239" lon="5.958994"><ele>378.48</ele><time>2025-05-25T08:10:40Z</time></trkpt>
<trkpt lat="50.559327" lon="5.959459"><ele>377.79</ele><time>2025-05-25T08:10:45Z</time></trkpt>
<trkpt lat="50.559359" lon="5.959963"><ele>375.75</ele><time>2025-05-25T08:10:51Z</time></trkpt>
<trkpt lat="50.559377" lon="5.960779"><ele>374.24</ele><time>2025-05-25T08:10:56Z</time></trkpt>
<trkpt lat="50.559456" lon="5.96133"><ele>372.95</ele><time>2025-05-25T08:11:01Z</time></trkpt>
<trkpt lat="50.559648" lon="5.96224"><ele>373.0</ele><time>2025-05-25T08:11:06Z</time></trkpt>
<trkpt lat="50.559774" lon="5.96298"><ele>371.81</ele><time>2025-05-25T08:11:12Z</time></trkpt>
<trkpt lat="50.559788" lon="5.963274"><ele>371.58</ele><time>2025-05-25T08:11:17Z</time></trkpt>
<trkpt lat="50.559776" lon="5.963569"><ele>371.61</ele><time>2025-05-25T08:11:22Z</time></trkpt>
<trkpt lat="50.559705" lon="5.964116"><ele>372.94</ele><time>2025-05-25T08:11:27Z</time></trkpt>
<trkpt lat="50.559222" lon="5.965797"><ele>382.6</ele><time>2025-05-25T08:11:33Z</time></trkpt>
<trkpt lat="50.559856" lon="5.966594"><ele>380.52</ele><time>2025-05-25T08:11:37Z</time></trkpt>
<trkpt lat="50.55998" lon="5.966727"><ele>380.29</ele><time>2025-05-25T08:11:41Z</time></trkpt>
<trkpt lat="50.560036" lon="5.966757"><ele>380.07</ele><time>2025-05-25T08:11:45Z</time></trkpt>
<trkpt lat="50.560714" lon="5.966618"><ele>375.68</ele><time>2025-05-25T08:11:50Z</time></trkpt>
<trkpt lat="50.56131" lon="5.966576"><ele>375.58</ele><time>2025-05-25T08:11:54Z</time></trkpt>
<trkpt lat="50.561475" lon="5.966589"><ele>375.33</ele><time>2025-05-25T08:11:58Z</time></trkpt>
<trkpt lat="50.561944" lon="5.966767"><ele>373.0</ele><time>2025-05-25T08:12:03Z</time></trkpt>
<trkpt lat="50.562746" lon="5.966738"><ele>373.83</ele><time>2025-05-25T08:12:07Z</time></trkpt>
<trkpt lat="50.562932" lon="5.96667"><ele>376.23</ele><time>2025-05-25T08:12:11Z</time></trkpt>
<trkpt lat="50.563306" lon="5.96643"><ele>377.19</ele><time>2025-05-25T08:12:16Z</time></trkpt>
<trkpt lat="50.56345" lon="5.966394"><ele>377.45</ele><time>2025-05-25T08:12:20Z</time></trkpt>
<trkpt lat="50.563701" lon="5.966382"><ele>377.98</ele><time>2025-05-25T08:12:24Z</time></trkpt>
<trkpt lat="50.564247" lon="5.966443"><ele>378.39</ele><time>2025-05-25T08:12:29Z</time></trkpt>
<trkpt lat="50.564827" lon="5.966614"><ele>378.43</ele><time>2025-05-25T08:12:33Z</time></trkpt>
<trkpt lat="50.565729" lon="5.967123"><ele>379.24</ele><time>2025-05-25T08:12:37Z</time></trkpt>
<trkpt lat="50.566773" lon="5.967629"><ele>375.14</ele><time>2025-05-25T08:12:42Z</time></trkpt>
<trkpt lat="50.567084" lon="5.967919"><ele>374.99</ele><time>2025-05-25T08:12:46Z</time></trkpt>
<trkpt lat="50.567408" lon="5.968173"><ele>373.08</ele><time>2025-05-25T08:12:50Z</time></trkpt>
<trkpt lat="50.567811" lon="5.968361"><ele>372.1</ele><time>2025-05-25T08:12:54Z</time></trkpt>
<trkpt lat="50.568268" lon="5.968542"><ele>373.51</ele><time>2025-05-25T08:12:59Z</time></trkpt>
<trkpt lat="50.569162" lon="5.968379"><ele>375.0</ele><time>2025-05-25T08:13:03Z</time></trkpt>
<trkpt lat="50.569448" lon="5.968413"><ele>373.99</ele><time>2025-05-25T08:13:07Z</time></trkpt>
<trkpt lat="50.572037" lon="5.969486"><ele>367.33</ele><time>2025-05-25T08:13:12Z</time></trkpt>
<trkpt lat="50.57208" lon="5.969506"><ele>367.49</ele><time>2025-05-25T08:13:16Z</time></trkpt>
<trkpt lat="50.572738" lon="5.969764"><ele>368.0</ele><time>2025-05-25T08:13:20Z</time></trkpt>
<trkpt lat="50.572875" lon="5.969792"><ele>368.35</ele><time>2025-05-25T08:13:25Z</time></trkpt>
<trkpt lat="50.572983" lon="5.969801"><ele>368.74</ele><time>2025-05-25T08:13:29Z</time></trkpt>
<trkpt lat="50.573239" lon="5.969716"><ele>369.0</ele><time>2025-05-25T08:13:33Z</time></trkpt>
<trkpt lat="50.574536" lon="5.968761"><ele>370.59</ele><time>2025-05-25T08:13:38Z</time></trkpt>
<trkpt lat="50.5757" lon="5.967823"><ele>371.31</ele><time>2025-05-25T08:13:42Z</time></trkpt>
<trkpt lat="50.577157" lon="5.967542"><ele>375.38</ele><time>2025-05-25T08:13:46Z</time></trkpt>
<trkpt lat="50.577462" lon="5.967421"><ele>376.0</ele><time>2025-05-25T08:13:51Z</time></trkpt>
<trkpt lat="50.578412" lon="5.966898"><ele>373.21</ele><time>2025-05-25T08:13:55Z</time></trkpt>
<trkpt lat="50.58068" lon="5.965593"><ele>364.4</ele><time>2025-05-25T08:13:59Z</time></trkpt>
<trkpt lat="50.58135" lon="5.965254"><ele>358.14</ele><time>2025-05-25T08:14:04Z</time></trkpt>
<trkpt lat="50.585576" lon="5.963334"><ele>339.01</ele><time>2025-05-25T08:14:08Z</time></trkpt>
<trkpt lat="50.585972" lon="5.963203"><ele>337.73</ele><time>2025-05-25T08:14:12Z</time></trkpt>
<trkpt lat="50.586322" lon="5.963142"><ele>335.64</ele><time>2025-05-25T08:14:16Z</time></trkpt>
<trkpt lat="50.586618" lon="5.963147"><ele>333.95</ele><time>2025-05-25T08:14:21Z</time></trkpt>
<trkpt lat="50.58683" lon="5.963187"><ele>331.59</ele><time>2025-05-25T08:14:25Z</time></trkpt>
<trkpt lat="50.587211" lon="5.96333"><ele>324.24</ele><time>2025-05-25T08:14:29Z</time></trkpt>
<trkpt lat="50.587476" lon="5.963485"><ele>322.17</ele><time>2025-05-25T08:14:34Z</time></trkpt>
<trkpt lat="50.58771" lon="5.963677"><ele>320.73</ele><time>2025-05-25T08:14:38Z</time></trkpt>
<trkpt lat="50.587963" lon="5.963965"><ele>317.9</ele><time>2025-05-25T08:14:42Z</time></trkpt>
<trkpt lat="50.588217" lon="5.964303"><ele>313.14</ele><time>2025-05-25T08:14:47Z</time></trkpt>
<trkpt lat="50.588514" lon="5.964832"><ele>313.01</ele><time>2025-05-25T08:14:51Z</time></trkpt>
<trkpt lat="50.589482" lon="5.966953"><ele>304.05</ele><time>2025-05-25T08:14:55Z</time></trkpt>
<trkpt lat="50.589759" lon="5.967529"><ele>302.86</ele><time>2025-05-25T08:15:00Z</time></trkpt>
<trkpt lat="50.589997" lon="5.967941"><ele>297.12</ele><time>2025-05-25T08:15:04Z</time></trkpt>
<trkpt lat="50.590231" lon="5.9683"><ele>293.53</ele><time>2025-05-25T08:15:08Z</time></trkpt>
<trkpt lat="50.590471" lon="5.968612"><ele>291.76</ele><time>2025-05-25T08:15:13Z</time></trkpt>
<trkpt lat="50.590742" lon="5.968921"><ele>284.83</ele><time>2025-05-25T08:15:17Z</time></trkpt>
<trkpt lat="50.591536" lon="5.969722"><ele>279.21</ele><time>2025-05-25T08:15:21Z</time></trkpt>
<trkpt lat="50.591819" lon="5.97007"><ele>274.98</ele><time>2025-05-25T08:15:25Z</time></trkpt>
<trkpt lat="50.592038" lon="5.970409"><ele>271.77</ele><time>2025-05-25T08:15:30Z</time></trkpt>
<trkpt lat="50.592361" lon="5.971086"><ele>268.47</ele><time>2025-05-25T08:15:34Z</time></trkpt>
<trkpt lat="50.593448" lon="5.973844"><ele>244.38</ele><time>2025-05-25T08:15:38Z</time></trkpt>
<trkpt lat="50.59388" lon="5.974893"><ele>242.02</ele><time>2025-05-25T08:15:43Z</time></trkpt>
<trkpt lat="50.594011" lon="5.975182"><ele>243.02</ele><time>2025-05-25T08:15:47Z</time></trkpt>
<trkpt lat="50.594191" lon="5.975426"><ele>243.32</ele><time>2025-05-25T08:15:51Z</time></trkpt>
<trkpt lat="50.594415" lon="5.975672"><ele>242.99</ele><time>2025-05-25T08:15:56Z</time></trkpt>
<trkpt lat="50.594697" lon="5.975904"><ele>242.4</ele><time>2025-05-25T08:16:00Z</time></trkpt>
<trkpt lat="50.594913" lon="5.976009"><ele>242.15</ele><time>2025-05-25T08:16:04Z</time></trkpt>
<trkpt lat="50.595171" lon="5.976071"><ele>244.71</ele><time>2025-05-25T08:16:09Z</time></trkpt>
<trkpt lat="50.595434" lon="5.976075"><ele>246.04</ele><time>2025-05-25T08:16:13Z</time></trkpt>
<trkpt lat="50.595434" lon="5.976075"><ele>246.04</ele><time>2025-05-25T08:16:13Z</time></trkpt>
<trkpt lat="50.595553" lon="5.976077"><ele>247.38</ele><time>2025-05-25T08:16:18Z</time></trkpt>
<trkpt lat="50.595767" lon="5.976019"><ele>245.07</ele><time>2025-05-25T08:16:23Z</time></trkpt>
<trkpt lat="50.595964" lon="5.975929"><ele>243.54</ele><time>2025-05-25T08:16:29Z</time></trkpt>
<trkpt lat="50.596788" lon="5.975424"><ele>240.28</ele><time>2025-05-25T08:16:34Z</time></trkpt>
<trkpt lat="50.597297" lon="5.975139"><ele>238.54</ele><time>2025-05-25T08:16:39Z</time></trkpt>
<trkpt lat="50.598731" lon="5.974204"><ele>232.98</ele><time>2025-05-25T08:16:44Z</time></trkpt>
<trkpt lat="50.599673" lon="5.973307"><ele>230.16</ele><time>2025-05-25T08:16:49Z</time></trkpt>
<trkpt lat="50.600394" lon="5.972671"><ele>229.04</ele><time>2025-05-25T08:16:55Z</time></trkpt>
<trkpt lat="50.600839" lon="5.972335"><ele>229.21</ele><time>2025-05-25T08:17:00Z</time></trkpt>
<trkpt lat="50.601016" lon="5.972226"><ele>228.04</ele><time>2025-05-25T08:17:05Z</time></trkpt>
<trkpt lat="50.602383" lon="5.971713"><ele>223.0</ele><time>2025-05-25T08:17:10Z</time></trkpt>
<trkpt lat="50.602319" lon="5.970608"><ele>221.65</ele><time>2025-05-25T08:17:16Z</time></trkpt>
<trkpt lat="50.602311" lon="5.970223"><ele>222.5</ele><time>2025-05-25T08:17:21Z</time></trkpt>
<trkpt lat="50.602356" lon="5.969871"><ele>223.71</ele><time>2025-05-25T08:17:26Z</time></trkpt>
<trkpt lat="50.602407" lon="5.969699"><ele>224.83</ele><time>2025-05-25T08:17:31Z</time></trkpt>
<trkpt lat="50.602502" lon="5.969495"><ele>225.61</ele><time>2025-05-25T08:17:37Z</time></trkpt>
<trkpt lat="50.603162" lon="5.968635"><ele>221.66</ele><time>2025-05-25T08:17:42Z</time></trkpt>
<trkpt lat="50.603373" lon="5.968247"><ele>219.83</ele><time>2025-05-25T08:17:47Z</time></trkpt>
<trkpt lat="50.603512" lon="5.967911"><ele>219.64</ele><time>2025-05-25T08:17:53Z</time></trkpt>
<trkpt lat="50.603893" lon="5.966794"><ele>218.02</ele><time>2025-05-25T08:17:58Z</time></trkpt>
<trkpt lat="50.604074" lon="5.966365"><ele>217.64</ele><time>2025-05-25T08:18:03Z</time></trkpt>
<trkpt lat="50.604416" lon="5.965699"><ele>218.9</ele><time>2025-05-25T08:18:08Z</time></trkpt>
<trkpt lat="50.60458" lon="5.965445"><ele>217.64</ele><time>2025-05-25T08:18:14Z</time></trkpt>
<trkpt lat="50.604756" lon="5.965223"><ele>216.93</ele><time>2025-05-25T08:18:19Z</time></trkpt>
<trkpt lat="50.605103" lon="5.964873"><ele>215.91</ele><time>2025-05-25T08:18:24Z</time></trkpt>
<trkpt lat="50.60637" lon="5.963716"><ele>214.35</ele><time>2025-05-25T08:18:30Z</time></trkpt>
<trkpt lat="50.606681" lon="5.96336"><ele>215.0</ele><time>2025-05-25T08:18:35Z</time></trkpt>
<trkpt lat="50.607017" lon="5.962873"><ele>215.91</ele><time>2025-05-25T08:18:40Z</time></trkpt>
<trkpt lat="50.607198" lon="5.962537"><ele>215.92</ele><time>2025-05-25T08:18:46Z</time></trkpt>
<trkpt lat="50.607421" lon="5.962041"><ele>215.1</ele><time>2025-05-25T08:18:51Z</time></trkpt>
<trkpt lat="50.607556" lon="5.961676"><ele>215.0</ele><time>2025-05-25T08:18:56Z</time></trkpt>
<trkpt lat="50.608104" lon="5.95965"><ele>214.65</ele><time>2025-05-25T08:19:01Z</time></trkpt>
<trkpt lat="50.60863" lon="5.957628"><ele>216.36</ele><time>2025-05-25T08:19:07Z</time></trkpt>
<trkpt lat="50.608781" lon="5.957076"><ele>215.71</ele><time>2025-05-25T08:19:12Z</time></trkpt>
<trkpt lat="50.608838" lon="5.956806"><ele>216.0</ele><time>2025-05-25T08:19:17Z</time></trkpt>
<trkpt lat="50.608911" lon="5.956438"><ele>215.84</ele><time>2025-05-25T08:19:23Z</time></trkpt>
<trkpt lat="50.609013" lon="5.955711"><ele>215.66</ele><time>2025-05-25T08:19:28Z</time></trkpt>
<trkpt lat="50.609065" lon="5.954842"><ele>217.03</ele><time>2025-05-25T08:19:33Z</time></trkpt>
<trkpt lat="50.609054" lon="5.954386"><ele>219.32</ele><time>2025-05-25T08:19:38Z</time></trkpt>
<trkpt lat="50.608896" lon="5.952057"><ele>208.62</ele><time>2025-05-25T08:19:44Z</time></trkpt>
<trkpt lat="50.60888" lon="5.951274"><ele>210.94</ele><time>2025-05-25T08:19:49Z</time></trkpt>
<trkpt lat="50.608913" lon="5.950819"><ele>211.0</ele><time>2025-05-25T08:19:54Z</time></trkpt>
<trkpt lat="50.609029" lon="5.950021"><ele>210.5</ele><time>2025-05-25T08:20:00Z</time></trkpt>
<trkpt lat="50.609098" lon="5.949678"><ele>209.49</ele><time>2025-05-25T08:20:05Z</time></trkpt>
<trkpt lat="50.609196" lon="5.949297"><ele>208.36</ele><time>2025-05-25T08:20:10Z</time></trkpt>
<trkpt lat="50.609464" lon="5.948498"><ele>207.0</ele><time>2025-05-25T08:20:16Z</time></trkpt>
<trkpt lat="50.609793" lon="5.947896"><ele>205.74</ele><time>2025-05-25T08:20:21Z</time></trkpt>
<trkpt lat="50.610723" lon="5.946367"><ele>207.0</ele><time>2025-05-25T08:20:26Z</time></trkpt>
<trkpt lat="50.611306" lon="5.945449"><ele>205.88</ele><time>2025-05-25T08:20:31Z</time></trkpt>
<trkpt lat="50.611444" lon="5.945268"><ele>206.2</ele><time>2025-05-25T08:20:37Z</time></trkpt>
<trkpt lat="50.61166" lon="5.94509"><ele>206.98</ele><time>2025-05-25T08:20:42Z</time></trkpt>
<trkpt lat="50.612094" lon="5.944935"><ele>206.59</ele><time>2025-05-25T08:20:47Z</time></trkpt>
<trkpt lat="50.612391" lon="5.944825"><ele>207.24</ele><time>2025-05-25T08:20:53Z</time></trkpt>
<trkpt lat="50.613219" lon="5.944556"><ele>205.0</ele><time>2025-05-25T08:20:58Z</time></trkpt>
<trkpt lat="50.613885" lon="5.944284"><ele>204.98</ele><time>2025-05-25T08:21:03Z</time></trkpt>
<trkpt lat="50.618581" lon="5.942542"><ele>206.17</ele><time>2025-05-25T08:21:08Z</time></trkpt>
<trkpt lat="50.619622" lon="5.942165"><ele>205.51</ele><time>2025-05-25T08:21:14Z</time></trkpt>
<trkpt lat="50.620294" lon="5.941897"><ele>202.77</ele><time>2025-05-25T08:21:19Z</time></trkpt>
<trkpt lat="50.620425" lon="5.941921"><ele>202.38</ele><time>2025-05-25T08:21:24Z</time></trkpt>
<trkpt lat="50.620594" lon="5.942006"><ele>202.08</ele><time>2025-05-25T08:21:30Z</time></trkpt>
<trkpt lat="50.620701" lon="5.942132"><ele>202.15</ele><time>2025-05-25T08:21:35Z</time></trkpt>
<trkpt lat="50.620838" lon="5.942356"><ele>202.49</ele><time>2025-05-25T08:21:40Z</time></trkpt>
<trkpt lat="50.620916" lon="5.942381"><ele>202.7</ele><time>2025-05-25T08:21:46Z</time></trkpt>
<trkpt lat="50.621285" lon="5.942351"><ele>204.25</ele><time>2025-05-25T08:21:51Z</time></trkpt>
<trkpt lat="50.621471" lon="5.942269"><ele>204.75</ele><time>2025-05-25T08:21:56Z</time></trkpt>
<trkpt lat="50.622211" lon="5.941394"><ele>201.02</ele><time>2025-05-25T08:22:01Z</time></trkpt>
<trkpt lat="50.622469" lon="5.940947"><ele>201.89</ele><time>2025-05-25T08:22:07Z</time></trkpt>
<trkpt lat="50.622631" lon="5.940546"><ele>202.9</ele><time>2025-05-25T08:22:12Z</time></trkpt>
<trkpt lat="50.622784" lon="5.940102"><ele>201.5</ele><time>2025-05-25T08:22:17Z</time></trkpt>
<trkpt lat="50.622922" lon="5.939846"><ele>202.75</ele><time>2025-05-25T08:22:23Z</time></trkpt>
<trkpt lat="50.62296" lon="5.939725"><ele>202.64</ele><time>2025-05-25T08:22:28Z</time></trkpt>
<trkpt lat="50.622932" lon="5.939573"><ele>201.92</ele><time>2025-05-25T08:22:33Z</time></trkpt>
<trkpt lat="50.622888" lon="5.93946"><ele>201.21</ele><time>2025-05-25T08:22:38Z</time></trkpt>
<trkpt lat="50.622769" lon="5.939323"><ele>200.4</ele><time>2025-05-25T08:22:44Z</time></trkpt>
<trkpt lat="50.622845" lon="5.938996"><ele>201.73</ele><time>2025-05-25T08:22:46Z</time></trkpt>
<trkpt lat="50.622877" lon="5.938161"><ele>206.09</ele><time>2025-05-25T08:22:48Z</time></trkpt>
<trkpt lat="50.622892" lon="5.937854"><ele>207.68</ele><time>2025-05-25T08:22:51Z</time></trkpt>
<trkpt lat="50.622901" lon="5.93773"><ele>208.17</ele><time>2025-05-25T08:22:53Z</time></trkpt>
<trkpt lat="50.622947" lon="5.93757"><ele>208.75</ele><time>2025-05-25T08:22:55Z</time></trkpt>
<trkpt lat="50.623155" lon="5.937546"><ele>208.84</ele><time>2025-05-25T08:23:02Z</time></trkpt>
<trkpt lat="50.623726" lon="5.937645"><ele>208.65</ele><time>2025-05-25T08:23:10Z</time></trkpt>
<trkpt lat="50.624994" lon="5.937933"><ele>215.92</ele><time>2025-05-25T08:23:17Z</time></trkpt>
<trkpt lat="50.625059" lon="5.937886"><ele>217.05</ele><time>2025-05-25T08:23:24Z</time></trkpt>
<trkpt lat="50.625059" lon="5.937886"><ele>217.05</ele><time>2025-05-25T08:23:24Z</time></trkpt>
<trkpt lat="50.625076" lon="5.93786"><ele>217.29</ele><time>2025-05-25T08:23:29Z</time></trkpt>
<trkpt lat="50.625107" lon="5.937678"><ele>218.28</ele><time>2025-05-25T08:23:35Z</time></trkpt>
<trkpt lat="50.62508" lon="5.937485"><ele>218.49</ele><time>2025-05-25T08:23:40Z</time></trkpt>
<trkpt lat="50.62504" lon="5.937394"><ele>218.11</ele><time>2025-05-25T08:23:46Z</time></trkpt>
<trkpt lat="50.624433" lon="5.936484"><ele>220.88</ele><time>2025-05-25T08:23:52Z</time></trkpt>
<trkpt lat="50.624096" lon="5.935801"><ele>227.21</ele><time>2025-05-25T08:23:57Z</time></trkpt>
<trkpt lat="50.623935" lon="5.935625"><ele>229.16</ele><time>2025-05-25T08:24:03Z</time></trkpt>
<trkpt lat="50.623807" lon="5.93554"><ele>230.02</ele><time>2025-05-25T08:24:09Z</time></trkpt>
<trkpt lat="50.623471" lon="5.935416"><ele>229.75</ele><time>2025-05-25T08:24:14Z</time></trkpt>
<trkpt lat="50.623266" lon="5.935299"><ele>229.85</ele><time>2025-05-25T08:24:20Z</time></trkpt>
<trkpt lat="50.623121" lon="5.93511"><ele>231.25</ele><time>2025-05-25T08:24:25Z</time></trkpt>
<trkpt lat="50.622966" lon="5.934793"><ele>233.28</ele><time>2025-05-25T08:24:31Z</time></trkpt>
<trkpt lat="50.622848" lon="5.934378"><ele>235.66</ele><time>2025-05-25T08:24:37Z</time></trkpt>
<trkpt lat="50.622801" lon="5.93396"><ele>238.74</ele><time>2025-05-25T08:24:42Z</time></trkpt>
<trkpt lat="50.622782" lon="5.933455"><ele>241.63</ele><time>2025-05-25T08:24:48Z</time></trkpt>
<trkpt lat="50.622789" lon="5.932506"><ele>246.11</ele><time>2025-05-25T08:24:54Z</time></trkpt>
<trkpt lat="50.62281" lon="5.931984"><ele>247.11</ele><time>2025-05-25T08:24:59Z</time></trkpt>
<trkpt lat="50.622902" lon="5.929657"><ele>256.0</ele><time>2025-05-25T08:25:05Z</time></trkpt>
<trkpt lat="50.62288" lon="5.929164"><ele>257.75</ele><time>2025-05-25T08:25:10Z</time></trkpt>
<trkpt lat="50.622845" lon="5.928909"><ele>257.93</ele><time>2025-05-25T08:25:16Z</time></trkpt>
<trkpt lat="50.622454" lon="5.927048"><ele>266.32</ele><time>2025-05-25T08:25:22Z</time></trkpt>
<trkpt lat="50.622404" lon="5.926684"><ele>267.94</ele><time>2025-05-25T08:25:27Z</time></trkpt>
<trkpt lat="50.622394" lon="5.926087"><ele>270.08</ele><time>2025-05-25T08:25:33Z</time></trkpt>
<trkpt lat="50.622422" lon="5.925952"><ele>270.57</ele><time>2025-05-25T08:25:39Z</time></trkpt>
<trkpt lat="50.622471" lon="5.925892"><ele>270.79</ele><time>2025-05-25T08:25:44Z</time></trkpt>
<trkpt lat="50.623328" lon="5.925548"><ele>269.05</ele><time>2025-05-25T08:25:50Z</time></trkpt>
<trkpt lat="50.623519" lon="5.925491"><ele>269.23</ele><time>2025-05-25T08:25:55Z</time></trkpt>
<trkpt lat="50.624479" lon="5.925376"><ele>271.66</ele><time>2025-05-25T08:26:01Z</time></trkpt>
<trkpt lat="50.624581" lon="5.925301"><ele>271.12</ele><time>2025-05-25T08:26:07Z</time></trkpt>
<trkpt lat="50.624699" lon="5.925172"><ele>270.62</ele><time>2025-05-25T08:26:12Z</time></trkpt>
<trkpt lat="50.624811" lon="5.924888"><ele>270.46</ele><time>2025-05-25T08:26:18Z</time></trkpt>
<trkpt lat="50.62483" lon="5.924766"><ele>270.58</ele><time>2025-05-25T08:26:24Z</time></trkpt>
<trkpt lat="50.624645" lon="5.922579"><ele>268.92</ele><time>2025-05-25T08:26:29Z</time></trkpt>
<trkpt lat="50.624389" lon="5.919863"><ele>271.49</ele><time>2025-05-25T08:26:35Z</time></trkpt>
<trkpt lat="50.624451" lon="5.919832"><ele>271.92</ele><time>2025-05-25T08:26:36Z</time></trkpt>
<trkpt lat="50.624451" lon="5.919832"><ele>271.92</ele><time>2025-05-25T08:26:36Z</time></trkpt>
<trkpt lat="50.625096" lon="5.919505"><ele>272.34</ele><time>2025-05-25T08:26:43Z</time></trkpt>
<trkpt lat="50.625199" lon="5.919497"><ele>272.72</ele><time>2025-05-25T08:26:49Z</time></trkpt>
<trkpt lat="50.625314" lon="5.919522"><ele>273.13</ele><time>2025-05-25T08:26:56Z</time></trkpt>
<trkpt lat="50.625568" lon="5.919722"><ele>274.09</ele><time>2025-05-25T08:27:02Z</time></trkpt>
<trkpt lat="50.625686" lon="5.919768"><ele>275.1</ele><time>2025-05-25T08:27:08Z</time></trkpt>
<trkpt lat="50.625746" lon="5.919772"><ele>275.55</ele><time>2025-05-25T08:27:15Z</time></trkpt>
<trkpt lat="50.625973" lon="5.919718"><ele>277.01</ele><time>2025-05-25T08:27:21Z</time></trkpt>
<trkpt lat="50.627803" lon="5.91937"><ele>280.0</ele><time>2025-05-25T08:27:28Z</time></trkpt>
<trkpt lat="50.628955" lon="5.918901"><ele>279.76</ele><time>2025-05-25T08:27:34Z</time></trkpt>
<trkpt lat="50.629397" lon="5.918874"><ele>277.39</ele><time>2025-05-25T08:27:40Z</time></trkpt>
<trkpt lat="50.63041" lon="5.918998"><ele>276.1</ele><time>2025-05-25T08:27:47Z</time></trkpt>
<trkpt lat="50.630843" lon="5.919067"><ele>270.91</ele><time>2025-05-25T08:27:53Z</time></trkpt>
<trkpt lat="50.63209" lon="5.919414"><ele>266.25</ele><time>2025-05-25T08:28:00Z</time></trkpt>
<trkpt lat="50.632311" lon="5.919258"><ele>263.27</ele><time>2025-05-25T08:28:06Z</time></trkpt>
<trkpt lat="50.632434" lon="5.919089"><ele>260.6</ele><time>2025-05-25T08:28:12Z</time></trkpt>
<trkpt lat="50.632491" lon="5.918817"><ele>258.84</ele><time>2025-05-25T08:28:19Z</time></trkpt>
<trkpt lat="50.632526" lon="5.918285"><ele>256.45</ele><time>2025-05-25T08:28:25Z</time></trkpt>
<trkpt lat="50.63256" lon="5.917987"><ele>255.13</ele><time>2025-05-25T08:28:32Z</time></trkpt>
<trkpt lat="50.632666" lon="5.917737"><ele>253.64</ele><time>2025-05-25T08:28:38Z</time></trkpt>
<trkpt lat="50.633053" lon="5.917284"><ele>250.02</ele><time>2025-05-25T08:28:44Z</time></trkpt>
<trkpt lat="50.633594" lon="5.91671"><ele>248.12</ele><time>2025-05-25T08:28:51Z</time></trkpt>
<trkpt lat="50.633902" lon="5.916348"><ele>244.76</ele><time>2025-05-25T08:28:57Z</time></trkpt>
<trkpt lat="50.634187" lon="5.915896"><ele>243.83</ele><time>2025-05-25T08:29:04Z</time></trkpt>
<trkpt lat="50.634946" lon="5.914423"><ele>251.69</ele><time>2025-05-25T08:29:10Z</time></trkpt>
<trkpt lat="50.635056" lon="5.914298"><ele>252.93</ele><time>2025-05-25T08:29:16Z</time></trkpt>
<trkpt lat="50.635101" lon="5.9143"><ele>253.24</ele><time>2025-05-25T08:29:22Z</time></trkpt>
<trkpt lat="50.635157" lon="5.914242"><ele>253.86</ele><time>2025-05-25T08:29:29Z</time></trkpt>
<trkpt lat="50.635173" lon="5.914193"><ele>254.15</ele><time>2025-05-25T08:29:35Z</time></trkpt>
<trkpt lat="50.635172" lon="5.914108"><ele>254.24</ele><time>2025-05-25T08:29:41Z</time></trkpt>
<trkpt lat="50.635193" lon="5.913955"><ele>254.39</ele><time>2025-05-25T08:29:47Z</time></trkpt>
<trkpt lat="50.635775" lon="5.912923"><ele>261.79</ele><time>2025-05-25T08:29:53Z</time></trkpt>
<trkpt lat="50.635906" lon="5.912614"><ele>262.85</ele><time>2025-05-25T08:29:59Z</time></trkpt>
<trkpt lat="50.636767" lon="5.910115"><ele>265.64</ele><time>2025-05-25T08:30:05Z</time></trkpt>
<trkpt lat="50.637101" lon="5.909159"><ele>267.56</ele><time>2025-05-25T08:30:11Z</time></trkpt>
<trkpt lat="50.637354" lon="5.908535"><ele>268.0</ele><time>2025-05-25T08:30:18Z</time></trkpt>
<trkpt lat="50.638204" lon="5.907092"><ele>275.47</ele><time>2025-05-25T08:30:24Z</time></trkpt>
<trkpt lat="50.638669" lon="5.906356"><ele>278.0</ele><time>2025-05-25T08:30:30Z</time></trkpt>
<trkpt lat="50.639318" lon="5.905271"><ele>279.1</ele><time>2025-05-25T08:30:36Z</time></trkpt>
<trkpt lat="50.63937" lon="5.905044"><ele>280.08</ele><time>2025-05-25T08:30:42Z</time></trkpt>
<trkpt lat="50.63954" lon="5.90364"><ele>277.45</ele><time>2025-05-25T08:30:48Z</time></trkpt>
<trkpt lat="50.639592" lon="5.9023"><ele>279.06</ele><time>2025-05-25T08:30:54Z</time></trkpt>
<trkpt lat="50.639618" lon="5.901962"><ele>280.19</ele><time>2025-05-25T08:31:00Z</time></trkpt>
<trkpt lat="50.639675" lon="5.901614"><ele>281.85</ele><time>2025-05-25T08:31:06Z</time></trkpt>
<trkpt lat="50.639825" lon="5.900743"><ele>281.43</ele><time>2025-05-25T08:31:13Z</time></trkpt>
<trkpt lat="50.639908" lon="5.900379"><ele>280.15</ele><time>2025-05-25T08:31:19Z</time></trkpt>
<trkpt lat="50.640237" lon="5.899629"><ele>276.62</ele><time>2025-05-25T08:31:25Z</time></trkpt>
<trkpt lat="50.640053" lon="5.899061"><ele>276.27</ele><time>2025-05-25T08:31:29Z</time></trkpt>
<trkpt lat="50.640357" lon="5.898412"><ele>280.0</ele><time>2025-05-25T08:31:33Z</time></trkpt>
<trkpt lat="50.640481" lon="5.898201"><ele>280.73</ele><time>2025-05-25T08:31:37Z</time></trkpt>
<trkpt lat="50.640632" lon="5.898002"><ele>281.27</ele><time>2025-05-25T08:31:41Z</time></trkpt>
<trkpt lat="50.641739" lon="5.89683"><ele>286.57</ele><time>2025-05-25T08:31:45Z</time></trkpt>
<trkpt lat="50.642268" lon="5.896271"><ele>288.17</ele><time>2025-05-25T08:31:49Z</time></trkpt>
<trkpt lat="50.642517" lon="5.895949"><ele>289.06</ele><time>2025-05-25T08:31:53Z</time></trkpt>
<trkpt lat="50.642539" lon="5.895912"><ele>289.14</ele><time>2025-05-25T08:31:57Z</time></trkpt>
<trkpt lat="50.642986" lon="5.895315"><ele>289.13</ele><time>2025-05-25T08:32:01Z</time></trkpt>
<trkpt lat="50.643822" lon="5.89414"><ele>291.76</ele><time>2025-05-25T08:32:05Z</time></trkpt>
<trkpt lat="50.643949" lon="5.89391"><ele>292.22</ele><time>2025-05-25T08:32:09Z</time></trkpt>
<trkpt lat="50.643989" lon="5.893643"><ele>293.24</ele><time>2025-05-25T08:32:13Z</time></trkpt>
<trkpt lat="50.643921" lon="5.893135"><ele>293.95</ele><time>2025-05-25T08:32:17Z</time></trkpt>
<trkpt lat="50.643921" lon="5.892996"><ele>294.42</ele><time>2025-05-25T08:32:21Z</time></trkpt>
<trkpt lat="50.644001" lon="5.892743"><ele>295.53</ele><time>2025-05-25T08:32:25Z</time></trkpt>
<trkpt lat="50.644062" lon="5.892769"><ele>295.65</ele><time>2025-05-25T08:32:28Z</time></trkpt>
<trkpt lat="50.644125" lon="5.892763"><ele>295.9</ele><time>2025-05-25T08:32:32Z</time></trkpt>
<trkpt lat="50.644184" lon="5.892725"><ele>296.25</ele><time>2025-05-25T08:32:36Z</time></trkpt>
<trkpt lat="50.64423" lon="5.892662"><ele>296.64</ele><time>2025-05-25T08:32:39Z</time></trkpt>
<trkpt lat="50.644262" lon="5.892579"><ele>297.06</ele><time>2025-05-25T08:32:43Z</time></trkpt>
<trkpt lat="50.644273" lon="5.892396"><ele>297.61</ele><time>2025-05-25T08:32:47Z</time></trkpt>
<trkpt lat="50.644997" lon="5.892268"><ele>299.98</ele><time>2025-05-25T08:32:50Z</time></trkpt>
<trkpt lat="50.645138" lon="5.892231"><ele>300.98</ele><time>2025-05-25T08:32:54Z</time></trkpt>
<trkpt lat="50.645225" lon="5.892176"><ele>301.65</ele><time>2025-05-25T08:32:58Z</time></trkpt>
<trkpt lat="50.645323" lon="5.892065"><ele>302.25</ele><time>2025-05-25T08:33:02Z</time></trkpt>
<trkpt lat="50.645476" lon="5.891783"><ele>303.43</ele><time>2025-05-25T08:33:05Z</time></trkpt>
<trkpt lat="50.645851" lon="5.891248"><ele>304.03</ele><time>2025-05-25T08:33:09Z</time></trkpt>
<trkpt lat="50.646189" lon="5.890838"><ele>304.29</ele><time>2025-05-25T08:33:13Z</time></trkpt>
<trkpt lat="50.646635" lon="5.89038"><ele>303.48</ele><time>2025-05-25T08:33:16Z</time></trkpt>
<trkpt lat="50.646815" lon="5.890199"><ele>303.0</ele><time>2025-05-25T08:33:20Z</time></trkpt>
<trkpt lat="50.64797" lon="5.888687"><ele>308.89</ele><time>2025-05-25T08:33:24Z</time></trkpt>
<trkpt lat="50.648784" lon="5.887577"><ele>316.93</ele><time>2025-05-25T08:33:27Z</time></trkpt>
<trkpt lat="50.649482" lon="5.886176"><ele>318.86</ele><time>2025-05-25T08:33:31Z</time></trkpt>
<trkpt lat="50.65027" lon="5.884783"><ele>324.62</ele><time>2025-05-25T08:33:35Z</time></trkpt>
<trkpt lat="50.650801" lon="5.883859"><ele>329.22</ele><time>2025-05-25T08:33:38Z</time></trkpt>
<trkpt lat="50.651078" lon="5.883584"><ele>331.98</ele><time>2025-05-25T08:33:42Z</time></trkpt>
<trkpt lat="50.651165" lon="5.88341"><ele>332.58</ele><time>2025-05-25T08:33:46Z</time></trkpt>
<trkpt lat="50.651239" lon="5.883429"><ele>332.36</ele><time>2025-05-25T08:33:52Z</time></trkpt>
<trkpt lat="50.651289" lon="5.883385"><ele>332.29</ele><time>2025-05-25T08:33:59Z</time></trkpt>
<trkpt lat="50.65131" lon="5.883333"><ele>332.28</ele><time>2025-05-25T08:34:05Z</time></trkpt>
<trkpt lat="50.651312" lon="5.883219"><ele>331.45</ele><time>2025-05-25T08:34:12Z</time></trkpt>
<trkpt lat="50.651288" lon="5.88316"><ele>331.11</ele><time>2025-05-25T08:34:18Z</time></trkpt>
<trkpt lat="50.65134" lon="5.883101"><ele>330.5</ele><time>2025-05-25T08:34:25Z</time></trkpt>
<trkpt lat="50.651416" lon="5.883088"><ele>330.04</ele><time>2025-05-25T08:34:31Z</time></trkpt>
<trkpt lat="50.65317" lon="5.883109"><ele>317.75</ele><time>2025-05-25T08:34:38Z</time></trkpt>
<trkpt lat="50.654703" lon="5.883096"><ele>307.57</ele><time>2025-05-25T08:34:44Z</time></trkpt>
<trkpt lat="50.656045" lon="5.883125"><ele>301.99</ele><time>2025-05-25T08:34:51Z</time></trkpt>
<trkpt lat="50.657043" lon="5.883129"><ele>300.85</ele><time>2025-05-25T08:34:58Z</time></trkpt>
<trkpt lat="50.657159" lon="5.883148"><ele>302.32</ele><time>2025-05-25T08:35:04Z</time></trkpt>
<trkpt lat="50.657317" lon="5.883189"><ele>302.92</ele><time>2025-05-25T08:35:11Z</time></trkpt>
<trkpt lat="50.658022" lon="5.883732"><ele>301.49</ele><time>2025-05-25T08:35:17Z</time></trkpt>
<trkpt lat="50.658366" lon="5.884021"><ele>302.42</ele><time>2025-05-25T08:35:24Z</time></trkpt>
<trkpt lat="50.65866" lon="5.88424"><ele>302.22</ele><time>2025-05-25T08:35:30Z</time></trkpt>
<trkpt lat="50.659016" lon="5.88458"><ele>300.86</ele><time>2025-05-25T08:35:37Z</time></trkpt>
<trkpt lat="50.6595" lon="5.883655"><ele>301.44</ele><time>2025-05-25T08:35:50Z</time></trkpt>
<trkpt lat="50.659568" lon="5.883541"><ele>301.36</ele><time>2025-05-25T08:36:03Z</time></trkpt>
<trkpt lat="50.660094" lon="5.882648"><ele>297.19</ele><time>2025-05-25T08:36:16Z</time></trkpt>
<trkpt lat="50.660313" lon="5.882182"><ele>295.6</ele><time>2025-05-25T08:36:29Z</time></trkpt>
<trkpt lat="50.660689" lon="5.881364"><ele>292.0</ele><time>2025-05-25T08:36:42Z</time></trkpt>
<trkpt lat="50.661745" lon="5.879183"><ele>284.61</ele><time>2025-05-25T08:36:55Z</time></trkpt>
<trkpt lat="50.661995" lon="5.878701"><ele>285.5</ele><time>2025-05-25T08:37:07Z</time></trkpt>
<trkpt lat="50.662682" lon="5.877347"><ele>281.65</ele><time>2025-05-25T08:37:20Z</time></trkpt>
<trkpt lat="50.664509" lon="5.874682"><ele>272.65</ele><time>2025-05-25T08:37:33Z</time></trkpt>
<trkpt lat="50.66631" lon="5.872934"><ele>263.97</ele><time>2025-05-25T08:37:46Z</time></trkpt>
<trkpt lat="50.666316" lon="5.872927"><ele>261.48</ele><time>2025-05-25T08:37:59Z</time></trkpt>
<trkpt lat="50.666316" lon="5.872927"><ele>261.48</ele><time>2025-05-25T08:37:59Z</time></trkpt>
<trkpt lat="50.66631" lon="5.872934"><ele>263.97</ele><time>2025-05-25T08:37:59Z</time></trkpt>
<trkpt lat="50.668375" lon="5.875945"><ele>253.7</ele><time>2025-05-25T08:38:04Z</time></trkpt>
<trkpt lat="50.671272" lon="5.880275"><ele>262.84</ele><time>2025-05-25T08:38:09Z</time></trkpt>
<trkpt lat="50.671785" lon="5.881139"><ele>262.15</ele><time>2025-05-25T08:38:14Z</time></trkpt>
<trkpt lat="50.672257" lon="5.882048"><ele>258.88</ele><time>2025-05-25T08:38:19Z</time></trkpt>
<trkpt lat="50.672664" lon="5.882926"><ele>256.15</ele><time>2025-05-25T08:38:25Z</time></trkpt>
<trkpt lat="50.67311" lon="5.8838"><ele>252.19</ele><time>2025-05-25T08:38:30Z</time></trkpt>
<trkpt lat="50.673388" lon="5.884235"><ele>252.25</ele><time>2025-05-25T08:38:35Z</time></trkpt>
<trkpt lat="50.673564" lon="5.884405"><ele>252.86</ele><time>2025-05-25T08:38:40Z</time></trkpt>
<trkpt lat="50.673782" lon="5.884544"><ele>254.37</ele><time>2025-05-25T08:38:45Z</time></trkpt>
<trkpt lat="50.674257" lon="5.884702"><ele>256.25</ele><time>2025-05-25T08:38:50Z</time></trkpt>
<trkpt lat="50.674611" lon="5.884683"><ele>256.86</ele><time>2025-05-25T08:38:55Z</time></trkpt>
<trkpt lat="50.675005" lon="5.884555"><ele>255.97</ele><time>2025-05-25T08:39:00Z</time></trkpt>
<trkpt lat="50.675713" lon="5.884252"><ele>253.88</ele><time>2025-05-25T08:39:05Z</time></trkpt>
<trkpt lat="50.675832" lon="5.88423"><ele>254.45</ele><time>2025-05-25T08:39:10Z</time></trkpt>
<trkpt lat="50.675875" lon="5.884256"><ele>254.45</ele><time>2025-05-25T08:39:15Z</time></trkpt>
<trkpt lat="50.675916" lon="5.884347"><ele>254.81</ele><time>2025-05-25T08:39:20Z</time></trkpt>
<trkpt lat="50.676181" lon="5.885227"><ele>254.75</ele><time>2025-05-25T08:39:25Z</time></trkpt>
<trkpt lat="50.676337" lon="5.885604"><ele>254.19</ele><time>2025-05-25T08:39:30Z</time></trkpt>
<trkpt lat="50.676542" lon="5.886045"><ele>253.58</ele><time>2025-05-25T08:39:35Z</time></trkpt>
<trkpt lat="50.680143" lon="5.889929"><ele>244.46</ele><time>2025-05-25T08:39:40Z</time></trkpt>
<trkpt lat="50.680547" lon="5.890098"><ele>243.38</ele><time>2025-05-25T08:39:45Z</time></trkpt>
<trkpt lat="50.682496" lon="5.89074"><ele>244.64</ele><time>2025-05-25T08:39:50Z</time></trkpt>
<trkpt lat="50.683152" lon="5.89093"><ele>247.74</ele><time>2025-05-25T08:39:55Z</time></trkpt>
<trkpt lat="50.686134" lon="5.892624"><ele>247.55</ele><time>2025-05-25T08:40:00Z</time></trkpt>
<trkpt lat="50.686753" lon="5.893004"><ele>246.88</ele><time>2025-05-25T08:40:05Z</time></trkpt>
<trkpt lat="50.68711" lon="5.893182"><ele>244.95</ele><time>2025-05-25T08:40:10Z</time></trkpt>
<trkpt lat="50.688373" lon="5.893724"><ele>238.21</ele><time>2025-05-25T08:40:15Z</time></trkpt>
<trkpt lat="50.688461" lon="5.893793"><ele>237.89</ele><time>2025-05-25T08:40:20Z</time></trkpt>
<trkpt lat="50.688645" lon="5.894074"><ele>236.88</ele><time>2025-05-25T08:40:25Z</time></trkpt>
<trkpt lat="50.688991" lon="5.894985"><ele>236.58</ele><time>2025-05-25T08:40:30Z</time></trkpt>
<trkpt lat="50.6891" lon="5.895198"><ele>236.78</ele><time>2025-05-25T08:40:35Z</time></trkpt>
<trkpt lat="50.689283" lon="5.895361"><ele>236.88</ele><time>2025-05-25T08:40:40Z</time></trkpt>
<trkpt lat="50.689484" lon="5.895451"><ele>236.77</ele><time>2025-05-25T08:40:45Z</time></trkpt>
<trkpt lat="50.690741" lon="5.895876"><ele>244.36</ele><time>2025-05-25T08:40:50Z</time></trkpt>
<trkpt lat="50.690951" lon="5.896019"><ele>244.91</ele><time>2025-05-25T08:40:55Z</time></trkpt>
<trkpt lat="50.691189" lon="5.896278"><ele>245.71</ele><time>2025-05-25T08:41:00Z</time></trkpt>
<trkpt lat="50.691309" lon="5.896576"><ele>246.67</ele><time>2025-05-25T08:41:05Z</time></trkpt>
<trkpt lat="50.691356" lon="5.896893"><ele>248.53</ele><time>2025-05-25T08:41:10Z</time></trkpt>
<trkpt lat="50.691337" lon="5.897869"><ele>254.14</ele><time>2025-05-25T08:41:15Z</time></trkpt>
<trkpt lat="50.691318" lon="5.89856"><ele>257.1</ele><time>2025-05-25T08:41:20Z</time></trkpt>
<trkpt lat="50.691359" lon="5.898892"><ele>259.58</ele><time>2025-05-25T08:41:25Z</time></trkpt>
<trkpt lat="50.691454" lon="5.899049"><ele>261.51</ele><time>2025-05-25T08:41:30Z</time></trkpt>
<trkpt lat="50.69151" lon="5.899082"><ele>262.97</ele><time>2025-05-25T08:41:35Z</time></trkpt>
<trkpt lat="50.69151" lon="5.899082"><ele>262.97</ele><time>2025-05-25T08:41:35Z</time></trkpt>
<trkpt lat="50.691601" lon="5.899093"><ele>263.78</ele><time>2025-05-25T08:41:38Z</time></trkpt>
<trkpt lat="50.69173" lon="5.899056"><ele>265.61</ele><time>2025-05-25T08:41:42Z</time></trkpt>
<trkpt lat="50.691937" lon="5.898917"><ele>268.86</ele><time>2025-05-25T08:41:46Z</time></trkpt>
<trkpt lat="50.692529" lon="5.89832"><ele>268.11</ele><time>2025-05-25T08:41:50Z</time></trkpt>
<trkpt lat="50.692658" lon="5.898141"><ele>267.75</ele><time>2025-05-25T08:41:54Z</time></trkpt>
<trkpt lat="50.692982" lon="5.897598"><ele>267.91</ele><time>2025-05-25T08:41:58Z</time></trkpt>
<trkpt lat="50.693163" lon="5.897302"><ele>268.17</ele><time>2025-05-25T08:42:02Z</time></trkpt>
<trkpt lat="50.69331" lon="5.897015"><ele>267.35</ele><time>2025-05-25T08:42:05Z</time></trkpt>
<trkpt lat="50.694092" lon="5.894903"><ele>264.88</ele><time>2025-05-25T08:42:09Z</time></trkpt>
<trkpt lat="50.694264" lon="5.894505"><ele>262.36</ele><time>2025-05-25T08:42:13Z</time></trkpt>
<trkpt lat="50.6944" lon="5.89435"><ele>261.03</ele><time>2025-05-25T08:42:17Z</time></trkpt>
<trkpt lat="50.694814" lon="5.894284"><ele>259.22</ele><time>2025-05-25T08:42:21Z</time></trkpt>
<trkpt lat="50.694952" lon="5.894213"><ele>257.7</ele><time>2025-05-25T08:42:25Z</time></trkpt>
<trkpt lat="50.695063" lon="5.89412"><ele>256.89</ele><time>2025-05-25T08:42:28Z</time></trkpt>
<trkpt lat="50.695167" lon="5.893966"><ele>256.15</ele><time>2025-05-25T08:42:32Z</time></trkpt>
<trkpt lat="50.695672" lon="5.89273"><ele>249.14</ele><time>2025-05-25T08:42:36Z</time></trkpt>
<trkpt lat="50.696021" lon="5.891839"><ele>244.92</ele><time>2025-05-25T08:42:40Z</time></trkpt>
<trkpt lat="50.696332" lon="5.891113"><ele>242.6</ele><time>2025-05-25T08:42:44Z</time></trkpt>
<trkpt lat="50.696634" lon="5.890712"><ele>239.12</ele><time>2025-05-25T08:42:48Z</time></trkpt>
<trkpt lat="50.698491" lon="5.888601"><ele>232.55</ele><time>2025-05-25T08:42:51Z</time></trkpt>
<trkpt lat="50.698865" lon="5.888301"><ele>232.8</ele><time>2025-05-25T08:42:55Z</time></trkpt>
<trkpt lat="50.699787" lon="5.88774"><ele>236.83</ele><time>2025-05-25T08:42:59Z</time></trkpt>
<trkpt lat="50.699989" lon="5.887571"><ele>235.54</ele><time>2025-05-25T08:43:03Z</time></trkpt>
<trkpt lat="50.700167" lon="5.88733"><ele>233.55</ele><time>2025-05-25T08:43:07Z</time></trkpt>
<trkpt lat="50.700411" lon="5.88673"><ele>232.04</ele><time>2025-05-25T08:43:11Z</time></trkpt>
<trkpt lat="50.700887" lon="5.885461"><ele>228.66</ele><time>2025-05-25T08:43:15Z</time></trkpt>
<trkpt lat="50.700962" lon="5.885073"><ele>227.66</ele><time>2025-05-25T08:43:18Z</time></trkpt>
<trkpt lat="50.701084" lon="5.882953"><ele>219.86</ele><time>2025-05-25T08:43:22Z</time></trkpt>
<trkpt lat="50.701016" lon="5.880511"><ele>216.16</ele><time>2025-05-25T08:43:26Z</time></trkpt>
<trkpt lat="50.701045" lon="5.880537"><ele>215.85</ele><time>2025-05-25T08:43:41Z</time></trkpt>
<trkpt lat="50.701045" lon="5.880537"><ele>215.85</ele><time>2025-05-25T08:43:41Z</time></trkpt>
<trkpt lat="50.701016" lon="5.880511"><ele>216.16</ele><time>2025-05-25T08:43:42Z</time></trkpt>
<trkpt lat="50.700974" lon="5.879758"><ele>217.87</ele><time>2025-05-25T08:43:44Z</time></trkpt>
<trkpt lat="50.700938" lon="5.879427"><ele>218.02</ele><time>2025-05-25T08:43:46Z</time></trkpt>
<trkpt lat="50.700842" lon="5.879068"><ele>218.03</ele><time>2025-05-25T08:43:49Z</time></trkpt>
<trkpt lat="50.700655" lon="5.87862"><ele>218.97</ele><time>2025-05-25T08:43:51Z</time></trkpt>
<trkpt lat="50.700246" lon="5.877804"><ele>221.79</ele><time>2025-05-25T08:43:53Z</time></trkpt>
<trkpt lat="50.700363" lon="5.877772"><ele>221.41</ele><time>2025-05-25T08:43:59Z</time></trkpt>
<trkpt lat="50.700749" lon="5.877794"><ele>219.3</ele><time>2025-05-25T08:44:04Z</time></trkpt>
<trkpt lat="50.701164" lon="5.877887"><ele>222.38</ele><time>2025-05-25T08:44:10Z</time></trkpt>
<trkpt lat="50.702083" lon="5.877841"><ele>224.0</ele><time>2025-05-25T08:44:15Z</time></trkpt>
<trkpt lat="50.703462" lon="5.877881"><ele>228.83</ele><time>2025-05-25T08:44:21Z</time></trkpt>
<trkpt lat="50.703632" lon="5.877905"><ele>228.54</ele><time>2025-05-25T08:44:27Z</time></trkpt>
<trkpt lat="50.704275" lon="5.877887"><ele>229.63</ele><time>2025-05-25T08:44:32Z</time></trkpt>
<trkpt lat="50.704404" lon="5.877872"><ele>230.41</ele><time>2025-05-25T08:44:38Z</time></trkpt>
<trkpt lat="50.704806" lon="5.87775"><ele>231.4</ele><time>2025-05-25T08:44:44Z</time></trkpt>
<trkpt lat="50.705292" lon="5.877723"><ele>233.25</ele><time>2025-05-25T08:44:49Z</time></trkpt>
<trkpt lat="50.705467" lon="5.877658"><ele>234.11</ele><time>2025-05-25T08:44:55Z</time></trkpt>
<trkpt lat="50.705903" lon="5.87737"><ele>237.75</ele><time>2025-05-25T08:45:00Z</time></trkpt>
<trkpt lat="50.706108" lon="5.876326"><ele>241.96</ele><time>2025-05-25T08:45:06Z</time></trkpt>
<trkpt lat="50.706181" lon="5.876039"><ele>243.27</ele><time>2025-05-25T08:45:12Z</time></trkpt>
<trkpt lat="50.706342" lon="5.875554"><ele>247.33</ele><time>2025-05-25T08:45:17Z</time></trkpt>
<trkpt lat="50.706515" lon="5.875127"><ele>250.82</ele><time>2025-05-25T08:45:23Z</time></trkpt>
<trkpt lat="50.706906" lon="5.874519"><ele>259.52</ele><time>2025-05-25T08:45:29Z</time></trkpt>
<trkpt lat="50.707138" lon="5.874237"><ele>260.0</ele><time>2025-05-25T08:45:34Z</time></trkpt>
<trkpt lat="50.707315" lon="5.874714"><ele>260.0</ele><time>2025-05-25T08:45:40Z</time></trkpt>
<trkpt lat="50.707751" lon="5.876204"><ele>259.4</ele><time>2025-05-25T08:45:45Z</time></trkpt>
<trkpt lat="50.70784" lon="5.876678"><ele>260.56</ele><time>2025-05-25T08:45:50Z</time></trkpt>
<trkpt lat="50.708017" lon="5.878063"><ele>262.69</ele><time>2025-05-25T08:45:56Z</time></trkpt>
<trkpt lat="50.708159" lon="5.878974"><ele>261.11</ele><time>2025-05-25T08:46:01Z</time></trkpt>
<trkpt lat="50.708303" lon="5.879602"><ele>262.78</ele><time>2025-05-25T08:46:07Z</time></trkpt>
<trkpt lat="50.708436" lon="5.880055"><ele>264.01</ele><time>2025-05-25T08:46:12Z</time></trkpt>
<trkpt lat="50.708673" lon="5.880749"><ele>269.15</ele><time>2025-05-25T08:46:18Z</time></trkpt>
<trkpt lat="50.708754" lon="5.881007"><ele>269.84</ele><time>2025-05-25T08:46:23Z</time></trkpt>
<trkpt lat="50.709043" lon="5.882255"><ele>271.21</ele><time>2025-05-25T08:46:28Z</time></trkpt>
<trkpt lat="50.709646" lon="5.884359"><ele>280.92</ele><time>2025-05-25T08:46:34Z</time></trkpt>
<trkpt lat="50.709593" lon="5.884656"><ele>281.41</ele><time>2025-05-25T08:46:35Z</time></trkpt>
<trkpt lat="50.709579" lon="5.885051"><ele>282.67</ele><time>2025-05-25T08:46:36Z</time></trkpt>
<trkpt lat="50.709593" lon="5.885256"><ele>283.46</ele><time>2025-05-25T08:46:37Z</time></trkpt>
<trkpt lat="50.709547" lon="5.885377"><ele>283.95</ele><time>2025-05-25T08:46:43Z</time></trkpt>
<trkpt lat="50.709561" lon="5.885516"><ele>284.77</ele><time>2025-05-25T08:46:49Z</time></trkpt>
<trkpt lat="50.709633" lon="5.885614"><ele>285.07</ele><time>2025-05-25T08:46:54Z</time></trkpt>
<trkpt lat="50.709706" lon="5.885621"><ele>285.01</ele><time>2025-05-25T08:47:00Z</time></trkpt>
<trkpt lat="50.709741" lon="5.8856"><ele>284.94</ele><time>2025-05-25T08:47:06Z</time></trkpt>
<trkpt lat="50.709855" lon="5.885762"><ele>284.88</ele><time>2025-05-25T08:47:12Z</time></trkpt>
<trkpt lat="50.709887" lon="5.885885"><ele>285.18</ele><time>2025-05-25T08:47:18Z</time></trkpt>
<trkpt lat="50.70989" lon="5.885957"><ele>285.44</ele><time>2025-05-25T08:47:23Z</time></trkpt>
<trkpt lat="50.709812" lon="5.886515"><ele>287.13</ele><time>2025-05-25T08:47:29Z</time></trkpt>
<trkpt lat="50.709778" lon="5.886901"><ele>287.8</ele><time>2025-05-25T08:47:35Z</time></trkpt>
<trkpt lat="50.710738" lon="5.903156"><ele>259.87</ele><time>2025-05-25T08:47:41Z</time></trkpt>
<trkpt lat="50.710785" lon="5.90369"><ele>258.26</ele><time>2025-05-25T08:47:46Z</time></trkpt>
<trkpt lat="50.710868" lon="5.904127"><ele>256.14</ele><time>2025-05-25T08:47:52Z</time></trkpt>
<trkpt lat="50.71103" lon="5.904749"><ele>253.61</ele><time>2025-05-25T08:47:58Z</time></trkpt>
<trkpt lat="50.711864" lon="5.907089"><ele>245.48</ele><time>2025-05-25T08:48:04Z</time></trkpt>
<trkpt lat="50.712065" lon="5.907608"><ele>243.44</ele><time>2025-05-25T08:48:10Z</time></trkpt>
<trkpt lat="50.712334" lon="5.908178"><ele>239.49</ele><time>2025-05-25T08:48:15Z</time></trkpt>
<trkpt lat="50.712857" lon="5.909088"><ele>234.71</ele><time>2025-05-25T08:48:21Z</time></trkpt>
<trkpt lat="50.713286" lon="5.909717"><ele>231.34</ele><time>2025-05-25T08:48:27Z</time></trkpt>
<trkpt lat="50.7157" lon="5.913706"><ele>213.66</ele><time>2025-05-25T08:48:33Z</time></trkpt>
<trkpt lat="50.715783" lon="5.913636"><ele>213.91</ele><time>2025-05-25T08:48:57Z</time></trkpt>
<trkpt lat="50.71589" lon="5.913592"><ele>214.07</ele><time>2025-05-25T08:49:22Z</time></trkpt>
<trkpt lat="50.720476" lon="5.912624"><ele>205.55</ele><time>2025-05-25T08:49:47Z</time></trkpt>
<trkpt lat="50.720804" lon="5.912466"><ele>206.12</ele><time>2025-05-25T08:50:11Z</time></trkpt>
<trkpt lat="50.721035" lon="5.912306"><ele>205.97</ele><time>2025-05-25T08:50:36Z</time></trkpt>
<trkpt lat="50.721174" lon="5.912182"><ele>205.95</ele><time>2025-05-25T08:51:01Z</time></trkpt>
<trkpt lat="50.721583" lon="5.911734"><ele>206.53</ele><time>2025-05-25T08:51:25Z</time></trkpt>
<trkpt lat="50.728731" lon="5.903422"><ele>194.13</ele><time>2025-05-25T08:51:50Z</time></trkpt>
<trkpt lat="50.732879" lon="5.898607"><ele>192.27</ele><time>2025-05-25T08:52:14Z</time></trkpt>
<trkpt lat="50.735167" lon="5.89601"><ele>190.91</ele><time>2025-05-25T08:52:39Z</time></trkpt>
<trkpt lat="50.73635" lon="5.894762"><ele>188.13</ele><time>2025-05-25T08:53:04Z</time></trkpt>
<trkpt lat="50.736381" lon="5.89473"><ele>186.5</ele><time>2025-05-25T08:53:28Z</time></trkpt>
<trkpt lat="50.736381" lon="5.89473"><ele>186.5</ele><time>2025-05-25T08:53:28Z</time></trkpt>
<trkpt lat="50.738217" lon="5.892813"><ele>184.87</ele><time>2025-05-25T08:53:44Z</time></trkpt>
<trkpt lat="50.738356" lon="5.892649"><ele>185.51</ele><time>2025-05-25T08:53:59Z</time></trkpt>
<trkpt lat="50.73846" lon="5.892491"><ele>186.0</ele><time>2025-05-25T08:54:14Z</time></trkpt>
<trkpt lat="50.738615" lon="5.892116"><ele>186.02</ele><time>2025-05-25T08:54:30Z</time></trkpt>
<trkpt lat="50.740311" lon="5.886612"><ele>184.41</ele><time>2025-05-25T08:54:45Z</time></trkpt>
<trkpt lat="50.740798" lon="5.887035"><ele>188.95</ele><time>2025-05-25T08:54:50Z</time></trkpt>
<trkpt lat="50.741128" lon="5.887322"><ele>190.58</ele><time>2025-05-25T08:54:54Z</time></trkpt>
<trkpt lat="50.742122" lon="5.888188"><ele>181.52</ele><time>2025-05-25T08:54:58Z</time></trkpt>
<trkpt lat="50.742302" lon="5.888322"><ele>180.48</ele><time>2025-05-25T08:55:03Z</time></trkpt>
<trkpt lat="50.74243" lon="5.888383"><ele>179.46</ele><time>2025-05-25T08:55:07Z</time></trkpt>
<trkpt lat="50.742505" lon="5.888357"><ele>179.0</ele><time>2025-05-25T08:55:12Z</time></trkpt>
<trkpt lat="50.742642" lon="5.888247"><ele>179.62</ele><time>2025-05-25T08:55:16Z</time></trkpt>
<trkpt lat="50.74516" lon="5.88561"><ele>176.46</ele><time>2025-05-25T08:55:20Z</time></trkpt>
<trkpt lat="50.745388" lon="5.885327"><ele>176.93</ele><time>2025-05-25T08:55:25Z</time></trkpt>
<trkpt lat="50.746219" lon="5.884042"><ele>176.06</ele><time>2025-05-25T08:55:29Z</time></trkpt>
<trkpt lat="50.746354" lon="5.88388"><ele>176.15</ele><time>2025-05-25T08:55:33Z</time></trkpt>
<trkpt lat="50.746885" lon="5.88338"><ele>174.87</ele><time>2025-05-25T08:55:38Z</time></trkpt>
<trkpt lat="50.746986" lon="5.883244"><ele>174.8</ele><time>2025-05-25T08:55:42Z</time></trkpt>
<trkpt lat="50.747293" lon="5.882731"><ele>171.91</ele><time>2025-05-25T08:55:47Z</time></trkpt>
<trkpt lat="50.747636" lon="5.882386"><ele>172.41</ele><time>2025-05-25T08:55:49Z</time></trkpt>
<trkpt lat="50.747691" lon="5.882462"><ele>169.72</ele><time>2025-05-25T08:55:49Z</time></trkpt>
<trkpt lat="50.747691" lon="5.882462"><ele>169.72</ele><time>2025-05-25T08:55:49Z</time></trkpt>
<trkpt lat="50.74825" lon="5.883231"><ele>167.03</ele><time>2025-05-25T08:55:52Z</time></trkpt>
<trkpt lat="50.748404" lon="5.883561"><ele>165.79</ele><time>2025-05-25T08:55:54Z</time></trkpt>
<trkpt lat="50.748546" lon="5.884028"><ele>164.35</ele><time>2025-05-25T08:55:56Z</time></trkpt>
<trkpt lat="50.748863" lon="5.885211"><ele>162.85</ele><time>2025-05-25T08:55:59Z</time></trkpt>
<trkpt lat="50.74909" lon="5.886212"><ele>172.16</ele><time>2025-05-25T08:56:01Z</time></trkpt>
<trkpt lat="50.749129" lon="5.886281"><ele>174.09</ele><time>2025-05-25T08:56:03Z</time></trkpt>
<trkpt lat="50.749224" lon="5.88634"><ele>176.12</ele><time>2025-05-25T08:56:05Z</time></trkpt>
<trkpt lat="50.749353" lon="5.886358"><ele>176.92</ele><time>2025-05-25T08:56:08Z</time></trkpt>
<trkpt lat="50.749501" lon="5.886335"><ele>176.36</ele><time>2025-05-25T08:56:10Z</time></trkpt>
<trkpt lat="50.749607" lon="5.88639"><ele>177.44</ele><time>2025-05-25T08:56:12Z</time></trkpt>
<trkpt lat="50.749619" lon="5.886458"><ele>179.51</ele><time>2025-05-25T08:56:15Z</time></trkpt>
<trkpt lat="50.749607" lon="5.886513"><ele>181.24</ele><time>2025-05-25T08:56:17Z</time></trkpt>
<trkpt lat="50.749569" lon="5.88656"><ele>182.75</ele><time>2025-05-25T08:56:19Z</time></trkpt>
<trkpt lat="50.749363" lon="5.886634"><ele>184.24</ele><time>2025-05-25T08:56:21Z</time></trkpt>
<trkpt lat="50.749206" lon="5.886739"><ele>184.47</ele><time>2025-05-25T08:56:24Z</time></trkpt>
<trkpt lat="50.748529" lon="5.88732"><ele>184.78</ele><time>2025-05-25T08:56:26Z</time></trkpt>
<trkpt lat="50.747647" lon="5.887924"><ele>184.1</ele><time>2025-05-25T08:56:28Z</time></trkpt>
<trkpt lat="50.747458" lon="5.888119"><ele>185.38</ele><time>2025-05-25T08:56:31Z</time></trkpt>
<trkpt lat="50.747248" lon="5.8885"><ele>188.59</ele><time>2025-05-25T08:56:33Z</time></trkpt>
<trkpt lat="50.747113" lon="5.888894"><ele>191.67</ele><time>2025-05-25T08:56:35Z</time></trkpt>
<trkpt lat="50.747039" lon="5.889246"><ele>193.24</ele><time>2025-05-25T08:56:37Z</time></trkpt>
<trkpt lat="50.747028" lon="5.889438"><ele>195.03</ele><time>2025-05-25T08:56:40Z</time></trkpt>
<trkpt lat="50.747039" lon="5.889603"><ele>196.51</ele><time>2025-05-25T08:56:42Z</time></trkpt>
<trkpt lat="50.74711" lon="5.890193"><ele>201.74</ele><time>2025-05-25T08:56:44Z</time></trkpt>
<trkpt lat="50.747044" lon="5.891384"><ele>210.39</ele><time>2025-05-25T08:56:47Z</time></trkpt>
<trkpt lat="50.747071" lon="5.891427"><ele>211.3</ele><time>2025-05-25T08:56:49Z</time></trkpt>
<trkpt lat="50.747151" lon="5.891348"><ele>211.46</ele><time>2025-05-25T08:56:51Z</time></trkpt>
<trkpt lat="50.747679" lon="5.890545"><ele>217.09</ele><time>2025-05-25T08:56:53Z</time></trkpt>
<trkpt lat="50.747739" lon="5.890547"><ele>218.82</ele><time>2025-05-25T08:56:56Z</time></trkpt>
<trkpt lat="50.747762" lon="5.890611"><ele>219.74</ele><time>2025-05-25T08:56:58Z</time></trkpt>
<trkpt lat="50.747391" lon="5.892585"><ele>230.98</ele><time>2025-05-25T08:57:00Z</time></trkpt>
<trkpt lat="50.747293" lon="5.892976"><ele>235.39</ele><time>2025-05-25T08:57:03Z</time></trkpt>
<trkpt lat="50.747012" lon="5.893466"><ele>239.79</ele><time>2025-05-25T08:57:05Z</time></trkpt>
<trkpt lat="50.746909" lon="5.893604"><ele>240.67</ele><time>2025-05-25T08:57:07Z</time></trkpt>
<trkpt lat="50.74681" lon="5.893692"><ele>241.19</ele><time>2025-05-25T08:57:09Z</time></trkpt>
<trkpt lat="50.74666" lon="5.893726"><ele>240.63</ele><time>2025-05-25T08:57:12Z</time></trkpt>
<trkpt lat="50.74658" lon="5.89371"><ele>240.01</ele><time>2025-05-25T08:57:14Z</time></trkpt>
<trkpt lat="50.746393" lon="5.893606"><ele>237.98</ele><time>2025-05-25T08:57:16Z</time></trkpt>
<trkpt lat="50.746306" lon="5.893595"><ele>237.29</ele><time>2025-05-25T08:57:19Z</time></trkpt>
<trkpt lat="50.746217" lon="5.893634"><ele>237.01</ele><time>2025-05-25T08:57:21Z</time></trkpt>
<trkpt lat="50.746158" lon="5.893697"><ele>237.27</ele><time>2025-05-25T08:57:23Z</time></trkpt>
<trkpt lat="50.745586" lon="5.894771"><ele>242.57</ele><time>2025-05-25T08:57:25Z</time></trkpt>
<trkpt lat="50.745552" lon="5.894877"><ele>243.09</ele><time>2025-05-25T08:57:28Z</time></trkpt>
<trkpt lat="50.74554" lon="5.895001"><ele>243.95</ele><time>2025-05-25T08:57:30Z</time></trkpt>
<trkpt lat="50.745565" lon="5.895192"><ele>246.79</ele><time>2025-05-25T08:57:32Z</time></trkpt>
<trkpt lat="50.745617" lon="5.89531"><ele>248.44</ele><time>2025-05-25T08:57:35Z</time></trkpt>
<trkpt lat="50.746481" lon="5.897189"><ele>242.31</ele><time>2025-05-25T08:57:37Z</time></trkpt>
<trkpt lat="50.746854" lon="5.898076"><ele>237.85</ele><time>2025-05-25T08:57:39Z</time></trkpt>
<trkpt lat="50.747693" lon="5.899883"><ele>229.35</ele><time>2025-05-25T08:57:41Z</time></trkpt>
<trkpt lat="50.748725" lon="5.90148"><ele>219.48</ele><time>2025-05-25T08:57:44Z</time></trkpt>
<trkpt lat="50.748947" lon="5.901799"><ele>217.68</ele><time>2025-05-25T08:57:46Z</time></trkpt>
<trkpt lat="50.750547" lon="5.903747"><ele>201.56</ele><time>2025-05-25T08:57:48Z</time></trkpt>
<trkpt lat="50.750638" lon="5.903879"><ele>200.41</ele><time>2025-05-25T08:57:51Z</time></trkpt>
<trkpt lat="50.750712" lon="5.904085"><ele>198.86</ele><time>2025-05-25T08:57:53Z</time></trkpt>
<trkpt lat="50.750722" lon="5.90423"><ele>198.08</ele><time>2025-05-25T08:57:55Z</time></trkpt>
<trkpt lat="50.750713" lon="5.904371"><ele>197.38</ele><time>2025-05-25T08:57:57Z</time></trkpt>
<trkpt lat="50.750687" lon="5.904486"><ele>196.85</ele><time>2025-05-25T08:58:00Z</time></trkpt>
<trkpt lat="50.750584" lon="5.904685"><ele>196.13</ele><time>2025-05-25T08:58:02Z</time></trkpt>
<trkpt lat="50.750456" lon="5.904781"><ele>196.07</ele><time>2025-05-25T08:58:04Z</time></trkpt>
<trkpt lat="50.750049" lon="5.904838"><ele>196.64</ele><time>2025-05-25T08:58:07Z</time></trkpt>
<trkpt lat="50.749438" lon="5.904861"><ele>192.45</ele><time>2025-05-25T08:58:09Z</time></trkpt>
<trkpt lat="50.74904" lon="5.90493"><ele>189.19</ele><time>2025-05-25T08:58:11Z</time></trkpt>
<trkpt lat="50.748857" lon="5.905023"><ele>187.69</ele><time>2025-05-25T08:58:13Z</time></trkpt>
<trkpt lat="50.748744" lon="5.905235"><ele>186.11</ele><time>2025-05-25T08:58:16Z</time></trkpt>
<trkpt lat="50.748714" lon="5.905455"><ele>184.87</ele><time>2025-05-25T08:58:18Z</time></trkpt>
<trkpt lat="50.748726" lon="5.905636"><ele>184.13</ele><time>2025-05-25T08:58:20Z</time></trkpt>
<trkpt lat="50.748891" lon="5.906094"><ele>182.12</ele><time>2025-05-25T08:58:23Z</time></trkpt>
<trkpt lat="50.749402" lon="5.907395"><ele>172.77</ele><time>2025-05-25T08:58:25Z</time></trkpt>
<trkpt lat="50.749609" lon="5.908015"><ele>171.29</ele><time>2025-05-25T08:58:27Z</time></trkpt>
<trkpt lat="50.749724" lon="5.908507"><ele>172.62</ele><time>2025-05-25T08:58:29Z</time></trkpt>
<trkpt lat="50.749824" lon="5.909127"><ele>174.18</ele><time>2025-05-25T08:58:32Z</time></trkpt>
<trkpt lat="50.750078" lon="5.911652"><ele>172.74</ele><time>2025-05-25T08:58:34Z</time></trkpt>
<trkpt lat="50.750107" lon="5.912164"><ele>173.4</ele><time>2025-05-25T08:58:36Z</time></trkpt>
<trkpt lat="50.750059" lon="5.913127"><ele>181.3</ele><time>2025-05-25T08:58:39Z</time></trkpt>
<trkpt lat="50.750053" lon="5.913371"><ele>183.08</ele><time>2025-05-25T08:58:41Z</time></trkpt>
<trkpt lat="50.750073" lon="5.913619"><ele>184.82</ele><time>2025-05-25T08:58:43Z</time></trkpt>
<trkpt lat="50.750104" lon="5.913792"><ele>186.33</ele><time>2025-05-25T08:58:45Z</time></trkpt>
<trkpt lat="50.750199" lon="5.91414"><ele>189.92</ele><time>2025-05-25T08:58:48Z</time></trkpt>
<trkpt lat="50.750247" lon="5.91441"><ele>193.52</ele><time>2025-05-25T08:58:50Z</time></trkpt>
<trkpt lat="50.750411" lon="5.916331"><ele>198.62</ele><time>2025-05-25T08:58:52Z</time></trkpt>
<trkpt lat="50.75085" lon="5.918185"><ele>188.48</ele><time>2025-05-25T08:58:55Z</time></trkpt>
<trkpt lat="50.750941" lon="5.919098"><ele>184.15</ele><time>2025-05-25T08:58:57Z</time></trkpt>
<trkpt lat="50.750966" lon="5.919923"><ele>183.93</ele><time>2025-05-25T08:58:59Z</time></trkpt>
<trkpt lat="50.751057" lon="5.921815"><ele>178.75</ele><time>2025-05-25T08:59:01Z</time></trkpt>
<trkpt lat="50.751154" lon="5.922499"><ele>175.85</ele><time>2025-05-25T08:59:04Z</time></trkpt>
<trkpt lat="50.751688" lon="5.924636"><ele>168.23</ele><time>2025-05-25T08:59:06Z</time></trkpt>
<trkpt lat="50.751893" lon="5.92538"><ele>164.82</ele><time>2025-05-25T08:59:08Z</time></trkpt>
<trkpt lat="50.751922" lon="5.925521"><ele>164.2</ele><time>2025-05-25T08:59:11Z</time></trkpt>
<trkpt lat="50.751955" lon="5.925823"><ele>163.96</ele><time>2025-05-25T08:59:13Z</time></trkpt>
<trkpt lat="50.751933" lon="5.926254"><ele>162.49</ele><time>2025-05-25T08:59:15Z</time></trkpt>
<trkpt lat="50.751742" lon="5.927326"><ele>157.63</ele><time>2025-05-25T08:59:17Z</time></trkpt>
<trkpt lat="50.751685" lon="5.927746"><ele>155.28</ele><time>2025-05-25T08:59:20Z</time></trkpt>
<trkpt lat="50.75166" lon="5.928103"><ele>153.83</ele><time>2025-05-25T08:59:22Z</time></trkpt>
<trkpt lat="50.751665" lon="5.928549"><ele>153.0</ele><time>2025-05-25T08:59:24Z</time></trkpt>
<trkpt lat="50.751718" lon="5.929105"><ele>152.82</ele><time>2025-05-25T08:59:27Z</time></trkpt>
<trkpt lat="50.751771" lon="5.929434"><ele>153.59</ele><time>2025-05-25T08:59:29Z</time></trkpt>
<trkpt lat="50.751771" lon="5.930043"><ele>156.78</ele><time>2025-05-25T08:59:31Z</time></trkpt>
<trkpt lat="50.751659" lon="5.931161"><ele>161.06</ele><time>2025-05-25T08:59:34Z</time></trkpt>
<trkpt lat="50.75159" lon="5.931546"><ele>162.39</ele><time>2025-05-25T08:59:36Z</time></trkpt>
<trkpt lat="50.751469" lon="5.931969"><ele>163.04</ele><time>2025-05-25T08:59:38Z</time></trkpt>
<trkpt lat="50.751346" lon="5.932296"><ele>162.4</ele><time>2025-05-25T08:59:40Z</time></trkpt>
<trkpt lat="50.750828" lon="5.933433"><ele>158.0</ele><time>2025-05-25T08:59:43Z</time></trkpt>
<trkpt lat="50.750763" lon="5.933672"><ele>157.78</ele><time>2025-05-25T08:59:45Z</time></trkpt>
<trkpt lat="50.750721" lon="5.933967"><ele>156.55</ele><time>2025-05-25T08:59:47Z</time></trkpt>
<trkpt lat="50.750698" lon="5.934401"><ele>153.36</ele><time>2025-05-25T08:59:50Z</time></trkpt>
<trkpt lat="50.750639" lon="5.934828"><ele>150.67</ele><time>2025-05-25T08:59:52Z</time></trkpt>
<trkpt lat="50.75061" lon="5.934937"><ele>149.63</ele><time>2025-05-25T08:59:54Z</time></trkpt>
<trkpt lat="50.750549" lon="5.935088"><ele>148.32</ele><time>2025-05-25T08:59:56Z</time></trkpt>
<trkpt lat="50.750465" lon="5.935211"><ele>146.83</ele><time>2025-05-25T08:59:59Z</time></trkpt>
<trkpt lat="50.749686" lon="5.935906"><ele>141.64</ele><time>2025-05-25T09:00:01Z</time></trkpt>
<trkpt lat="50.749368" lon="5.936153"><ele>141.89</ele><time>2025-05-25T09:00:03Z</time></trkpt>
<trkpt lat="50.749171" lon="5.93625"><ele>141.99</ele><time>2025-05-25T09:00:06Z</time></trkpt>
<trkpt lat="50.749027" lon="5.936238"><ele>143.0</ele><time>2025-05-25T09:00:08Z</time></trkpt>
<trkpt lat="50.749103" lon="5.936376"><ele>142.46</ele><time>2025-05-25T09:00:11Z</time></trkpt>
<trkpt lat="50.74914" lon="5.936578"><ele>141.51</ele><time>2025-05-25T09:00:15Z</time></trkpt>
<trkpt lat="50.749132" lon="5.9368"><ele>140.77</ele><time>2025-05-25T09:00:19Z</time></trkpt>
<trkpt lat="50.749146" lon="5.937037"><ele>139.48</ele><time>2025-05-25T09:00:22Z</time></trkpt>
<trkpt lat="50.749259" lon="5.937455"><ele>136.83</ele><time>2025-05-25T09:00:26Z</time></trkpt>
<trkpt lat="50.750421" lon="5.940728"><ele>127.59</ele><time>2025-05-25T09:00:29Z</time></trkpt>
<trkpt lat="50.75089" lon="5.942048"><ele>132.23</ele><time>2025-05-25T09:00:33Z</time></trkpt>
<trkpt lat="50.750902" lon="5.942116"><ele>132.88</ele><time>2025-05-25T09:00:37Z</time></trkpt>
<trkpt lat="50.750912" lon="5.942244"><ele>133.95</ele><time>2025-05-25T09:00:40Z</time></trkpt>
<trkpt lat="50.750898" lon="5.942389"><ele>134.43</ele><time>2025-05-25T09:00:44Z</time></trkpt>
<trkpt lat="50.750628" lon="5.943358"><ele>138.37</ele><time>2025-05-25T09:00:47Z</time></trkpt>
<trkpt lat="50.750596" lon="5.943561"><ele>138.43</ele><time>2025-05-25T09:00:51Z</time></trkpt>
<trkpt lat="50.75059" lon="5.943762"><ele>139.04</ele><time>2025-05-25T09:00:55Z</time></trkpt>
<trkpt lat="50.750616" lon="5.943945"><ele>139.87</ele><time>2025-05-25T09:00:58Z</time></trkpt>
<trkpt lat="50.75067" lon="5.944116"><ele>140.65</ele><time>2025-05-25T09:01:02Z</time></trkpt>
<trkpt lat="50.750722" lon="5.944232"><ele>141.25</ele><time>2025-05-25T09:01:05Z</time></trkpt>
<trkpt lat="50.750914" lon="5.944515"><ele>143.16</ele><time>2025-05-25T09:01:09Z</time></trkpt>
<trkpt lat="50.751125" lon="5.944877"><ele>145.65</ele><time>2025-05-25T09:01:12Z</time></trkpt>
<trkpt lat="50.751185" lon="5.94503"><ele>146.14</ele><time>2025-05-25T09:01:16Z</time></trkpt>
<trkpt lat="50.751247" lon="5.945266"><ele>147.45</ele><time>2025-05-25T09:01:20Z</time></trkpt>
<trkpt lat="50.751278" lon="5.945466"><ele>148.48</ele><time>2025-05-25T09:01:23Z</time></trkpt>
<trkpt lat="50.751295" lon="5.945773"><ele>149.76</ele><time>2025-05-25T09:01:27Z</time></trkpt>
<trkpt lat="50.751345" lon="5.947815"><ele>160.84</ele><time>2025-05-25T09:01:30Z</time></trkpt>
<trkpt lat="50.751351" lon="5.948028"><ele>160.87</ele><time>2025-05-25T09:01:34Z</time></trkpt>
<trkpt lat="50.751392" lon="5.948448"><ele>161.0</ele><time>2025-05-25T09:01:38Z</time></trkpt>
<trkpt lat="50.751472" lon="5.948924"><ele>160.72</ele><time>2025-05-25T09:01:41Z</time></trkpt>
<trkpt lat="50.751889" lon="5.950725"><ele>169.61</ele><time>2025-05-25T09:01:45Z</time></trkpt>
<trkpt lat="50.752148" lon="5.952122"><ele>173.47</ele><time>2025-05-25T09:01:48Z</time></trkpt>
<trkpt lat="50.75238" lon="5.954034"><ele>175.0</ele><time>2025-05-25T09:01:52Z</time></trkpt>
<trkpt lat="50.752469" lon="5.955286"><ele>174.0</ele><time>2025-05-25T09:01:56Z</time></trkpt>
<trkpt lat="50.752581" lon="5.95603"><ele>174.33</ele><time>2025-05-25T09:01:59Z</time></trkpt>
<trkpt lat="50.752955" lon="5.95759"><ele>175.68</ele><time>2025-05-25T09:02:03Z</time></trkpt>
<trkpt lat="50.753148" lon="5.958545"><ele>177.35</ele><time>2025-05-25T09:02:06Z</time></trkpt>
<trkpt lat="50.753218" lon="5.958996"><ele>180.33</ele><time>2025-05-25T09:02:10Z</time></trkpt>
<trkpt lat="50.753452" lon="5.961206"><ele>181.85</ele><time>2025-05-25T09:02:14Z</time></trkpt>
<trkpt lat="50.753544" lon="5.961804"><ele>182.65</ele><time>2025-05-25T09:02:17Z</time></trkpt>
<trkpt lat="50.753897" lon="5.963812"><ele>190.75</ele><time>2025-05-25T09:02:21Z</time></trkpt>
<trkpt lat="50.753965" lon="5.964292"><ele>191.72</ele><time>2025-05-25T09:02:24Z</time></trkpt>
<trkpt lat="50.753978" lon="5.964587"><ele>192.83</ele><time>2025-05-25T09:02:28Z</time></trkpt>
<trkpt lat="50.753944" lon="5.966995"><ele>199.18</ele><time>2025-05-25T09:02:32Z</time></trkpt>
<trkpt lat="50.753963" lon="5.968434"><ele>204.36</ele><time>2025-05-25T09:02:35Z</time></trkpt>
<trkpt lat="50.753878" lon="5.968746"><ele>205.95</ele><time>2025-05-25T09:02:39Z</time></trkpt>
<trkpt lat="50.753352" lon="5.9701"><ele>207.2</ele><time>2025-05-25T09:02:42Z</time></trkpt>
<trkpt lat="50.752604" lon="5.972099"><ele>207.69</ele><time>2025-05-25T09:02:46Z</time></trkpt>
<trkpt lat="50.752026" lon="5.973409"><ele>205.0</ele><time>2025-05-25T09:02:50Z</time></trkpt>
<trkpt lat="50.751861" lon="5.97369"><ele>204.12</ele><time>2025-05-25T09:02:53Z</time></trkpt>
<trkpt lat="50.75179" lon="5.973793"><ele>203.24</ele><time>2025-05-25T09:02:57Z</time></trkpt>
<trkpt lat="50.751702" lon="5.973878"><ele>202.29</ele><time>2025-05-25T09:03:00Z</time></trkpt>
<trkpt lat="50.751489" lon="5.974019"><ele>200.72</ele><time>2025-05-25T09:03:04Z</time></trkpt>
<trkpt lat="50.751322" lon="5.974086"><ele>199.76</ele><time>2025-05-25T09:03:07Z</time></trkpt>
<trkpt lat="50.751123" lon="5.974121"><ele>199.04</ele><time>2025-05-25T09:03:11Z</time></trkpt>
<trkpt lat="50.750602" lon="5.97412"><ele>196.33</ele><time>2025-05-25T09:03:15Z</time></trkpt>
<trkpt lat="50.750447" lon="5.974171"><ele>194.45</ele><time>2025-05-25T09:03:18Z</time></trkpt>
<trkpt lat="50.750373" lon="5.974222"><ele>193.49</ele><time>2025-05-25T09:03:22Z</time></trkpt>
<trkpt lat="50.749445" lon="5.975524"><ele>186.0</ele><time>2025-05-25T09:03:25Z</time></trkpt>
<trkpt lat="50.748793" lon="5.976507"><ele>185.89</ele><time>2025-05-25T09:03:29Z</time></trkpt>
<trkpt lat="50.748703" lon="5.976728"><ele>186.76</ele><time>2025-05-25T09:03:33Z</time></trkpt>
<trkpt lat="50.748667" lon="5.976915"><ele>187.59</ele><time>2025-05-25T09:03:36Z</time></trkpt>
<trkpt lat="50.748658" lon="5.977277"><ele>190.88</ele><time>2025-05-25T09:03:40Z</time></trkpt>
<trkpt lat="50.748683" lon="5.977735"><ele>193.1</ele><time>2025-05-25T09:03:43Z</time></trkpt>
<trkpt lat="50.748711" lon="5.977932"><ele>193.45</ele><time>2025-05-25T09:03:47Z</time></trkpt>
<trkpt lat="50.748847" lon="5.978399"><ele>194.94</ele><time>2025-05-25T09:03:51Z</time></trkpt>
<trkpt lat="50.749169" lon="5.97932"><ele>196.47</ele><time>2025-05-25T09:03:54Z</time></trkpt>
<trkpt lat="50.749203" lon="5.979526"><ele>196.35</ele><time>2025-05-25T09:03:58Z</time></trkpt>
<trkpt lat="50.749218" lon="5.979735"><ele>196.32</ele><time>2025-05-25T09:04:01Z</time></trkpt>
<trkpt lat="50.749215" lon="5.979952"><ele>195.52</ele><time>2025-05-25T09:04:05Z</time></trkpt>
<trkpt lat="50.749192" lon="5.980164"><ele>195.72</ele><time>2025-05-25T09:04:09Z</time></trkpt>
<trkpt lat="50.748595" lon="5.982483"><ele>199.89</ele><time>2025-05-25T09:04:12Z</time></trkpt>
<trkpt lat="50.747419" lon="5.987515"><ele>213.09</ele><time>2025-05-25T09:04:16Z</time></trkpt>
<trkpt lat="50.746977" lon="5.989332"><ele>212.9</ele><time>2025-05-25T09:04:19Z</time></trkpt>
<trkpt lat="50.746898" lon="5.989642"><ele>213.54</ele><time>2025-05-25T09:04:23Z</time></trkpt>
<trkpt lat="50.746741" lon="5.99007"><ele>214.77</ele><time>2025-05-25T09:04:27Z</time></trkpt>
<trkpt lat="50.746681" lon="5.990284"><ele>216.1</ele><time>2025-05-25T09:04:30Z</time></trkpt>
<trkpt lat="50.746676" lon="5.990464"><ele>217.4</ele><time>2025-05-25T09:04:34Z</time></trkpt>
<trkpt lat="50.746725" lon="5.990689"><ele>218.9</ele><time>2025-05-25T09:04:37Z</time></trkpt>
<trkpt lat="50.746855" lon="5.99101"><ele>221.63</ele><time>2025-05-25T09:04:41Z</time></trkpt>
<trkpt lat="50.74689" lon="5.991216"><ele>222.61</ele><time>2025-05-25T09:04:44Z</time></trkpt>
<trkpt lat="50.746885" lon="5.991389"><ele>222.57</ele><time>2025-05-25T09:04:48Z</time></trkpt>
<trkpt lat="50.74681" lon="5.991777"><ele>220.84</ele><time>2025-05-25T09:04:52Z</time></trkpt>
<trkpt lat="50.746578" lon="5.992426"><ele>217.36</ele><time>2025-05-25T09:04:55Z</time></trkpt>
<trkpt lat="50.746166" lon="5.993438"><ele>213.0</ele><time>2025-05-25T09:04:59Z</time></trkpt>
<trkpt lat="50.746149" lon="5.993661"><ele>213.0</ele><time>2025-05-25T09:05:02Z</time></trkpt>
<trkpt lat="50.746189" lon="5.993879"><ele>213.0</ele><time>2025-05-25T09:05:06Z</time></trkpt>
<trkpt lat="50.746776" lon="5.995084"><ele>212.88</ele><time>2025-05-25T09:05:10Z</time></trkpt>
<trkpt lat="50.746855" lon="5.995366"><ele>211.99</ele><time>2025-05-25T09:05:13Z</time></trkpt>
<trkpt lat="50.746866" lon="5.995498"><ele>211.37</ele><time>2025-05-25T09:05:17Z</time></trkpt>
<trkpt lat="50.746853" lon="5.995693"><ele>210.65</ele><time>2025-05-25T09:05:20Z</time></trkpt>
<trkpt lat="50.746801" lon="5.995908"><ele>210.0</ele><time>2025-05-25T09:05:24Z</time></trkpt>
<trkpt lat="50.74648" lon="5.996621"><ele>204.98</ele><time>2025-05-25T09:05:28Z</time></trkpt>
<trkpt lat="50.746391" lon="5.996763"><ele>204.01</ele><time>2025-05-25T09:05:31Z</time></trkpt>
<trkpt lat="50.746437" lon="5.996932"><ele>204.35</ele><time>2025-05-25T09:05:36Z</time></trkpt>
<trkpt lat="50.746502" lon="5.997303"><ele>204.98</ele><time>2025-05-25T09:05:41Z</time></trkpt>
<trkpt lat="50.746552" lon="5.997473"><ele>205.55</ele><time>2025-05-25T09:05:47Z</time></trkpt>
<trkpt lat="50.746872" lon="5.998149"><ele>207.07</ele><time>2025-05-25T09:05:52Z</time></trkpt>
<trkpt lat="50.747227" lon="5.999236"><ele>213.27</ele><time>2025-05-25T09:05:57Z</time></trkpt>
<trkpt lat="50.747629" lon="6.000125"><ele>214.71</ele><time>2025-05-25T09:06:02Z</time></trkpt>
<trkpt lat="50.747791" lon="6.000444"><ele>215.6</ele><time>2025-05-25T09:06:07Z</time></trkpt>
<trkpt lat="50.747994" lon="6.000921"><ele>217.56</ele><time>2025-05-25T09:06:12Z</time></trkpt>
<trkpt lat="50.748018" lon="6.00127"><ele>218.87</ele><time>2025-05-25T09:06:16Z</time></trkpt>
<trkpt lat="50.748232" lon="6.002544"><ele>219.42</ele><time>2025-05-25T09:06:19Z</time></trkpt>
<trkpt lat="50.74831" lon="6.002933"><ele>218.83</ele><time>2025-05-25T09:06:23Z</time></trkpt>
<trkpt lat="50.748818" lon="6.004579"><ele>220.75</ele><time>2025-05-25T09:06:26Z</time></trkpt>
<trkpt lat="50.749108" lon="6.005576"><ele>220.38</ele><time>2025-05-25T09:06:30Z</time></trkpt>
<trkpt lat="50.749866" lon="6.008277"><ele>229.11</ele><time>2025-05-25T09:06:33Z</time></trkpt>
<trkpt lat="50.750184" lon="6.009445"><ele>232.33</ele><time>2025-05-25T09:06:37Z</time></trkpt>
<trkpt lat="50.750261" lon="6.009802"><ele>234.45</ele><time>2025-05-25T09:06:40Z</time></trkpt>
<trkpt lat="50.750289" lon="6.009846"><ele>234.95</ele><time>2025-05-25T09:06:44Z</time></trkpt>
<trkpt lat="50.750534" lon="6.009938"><ele>236.68</ele><time>2025-05-25T09:06:47Z</time></trkpt>
<trkpt lat="50.750576" lon="6.010068"><ele>237.13</ele><time>2025-05-25T09:06:51Z</time></trkpt>
<trkpt lat="50.750523" lon="6.010512"><ele>237.1</ele><time>2025-05-25T09:06:54Z</time></trkpt>
<trkpt lat="50.750521" lon="6.010759"><ele>237.86</ele><time>2025-05-25T09:06:58Z</time></trkpt>
<trkpt lat="50.750918" lon="6.013736"><ele>253.75</ele><time>2025-05-25T09:07:02Z</time></trkpt>
<trkpt lat="50.751016" lon="6.014063"><ele>255.07</ele><time>2025-05-25T09:07:05Z</time></trkpt>
<trkpt lat="50.752332" lon="6.016998"><ele>266.99</ele><time>2025-05-25T09:07:09Z</time></trkpt>
<trkpt lat="50.752694" lon="6.017662"><ele>275.89</ele><time>2025-05-25T09:07:12Z</time></trkpt>
<trkpt lat="50.752732" lon="6.017775"><ele>276.69</ele><time>2025-05-25T09:07:16Z</time></trkpt>
<trkpt lat="50.752763" lon="6.018066"><ele>280.75</ele><time>2025-05-25T09:07:19Z</time></trkpt>
<trkpt lat="50.752748" lon="6.018165"><ele>281.47</ele><time>2025-05-25T09:07:23Z</time></trkpt>
<trkpt lat="50.752647" lon="6.018372"><ele>281.94</ele><time>2025-05-25T09:07:26Z</time></trkpt>
<trkpt lat="50.752146" lon="6.018956"><ele>289.45</ele><time>2025-05-25T09:07:30Z</time></trkpt>
<trkpt lat="50.752034" lon="6.019026"><ele>289.8</ele><time>2025-05-25T09:07:33Z</time></trkpt>
<trkpt lat="50.751968" lon="6.019025"><ele>289.55</ele><time>2025-05-25T09:07:37Z</time></trkpt>
<trkpt lat="50.751866" lon="6.018994"><ele>289.03</ele><time>2025-05-25T09:07:40Z</time></trkpt>
<trkpt lat="50.751662" lon="6.018826"><ele>287.5</ele><time>2025-05-25T09:07:44Z</time></trkpt>
<trkpt lat="50.75158" lon="6.018831"><ele>286.71</ele><time>2025-05-25T09:07:47Z</time></trkpt>
<trkpt lat="50.751537" lon="6.018919"><ele>286.87</ele><time>2025-05-25T09:07:51Z</time></trkpt>
<trkpt lat="50.751533" lon="6.018977"><ele>287.35</ele><time>2025-05-25T09:07:55Z</time></trkpt>
<trkpt lat="50.751563" lon="6.019086"><ele>288.56</ele><time>2025-05-25T09:07:58Z</time></trkpt>
<trkpt lat="50.752347" lon="6.019765"><ele>301.44</ele><time>2025-05-25T09:08:02Z</time></trkpt>
<trkpt lat="50.752468" lon="6.019803"><ele>302.67</ele><time>2025-05-25T09:08:05Z</time></trkpt>
<trkpt lat="50.752628" lon="6.01979"><ele>303.76</ele><time>2025-05-25T09:08:09Z</time></trkpt>
<trkpt lat="50.752773" lon="6.01971"><ele>303.84</ele><time>2025-05-25T09:08:12Z</time></trkpt>
<trkpt lat="50.752873" lon="6.019597"><ele>303.36</ele><time>2025-05-25T09:08:16Z</time></trkpt>
<trkpt lat="50.753651" lon="6.018302"><ele>306.89</ele><time>2025-05-25T09:08:19Z</time></trkpt>
<trkpt lat="50.753721" lon="6.018121"><ele>307.7</ele><time>2025-05-25T09:08:23Z</time></trkpt>
<trkpt lat="50.753762" lon="6.017931"><ele>307.81</ele><time>2025-05-25T09:08:26Z</time></trkpt>
<trkpt lat="50.75382" lon="6.017461"><ele>306.62</ele><time>2025-05-25T09:08:30Z</time></trkpt>
<trkpt lat="50.75385" lon="6.017408"><ele>306.98</ele><time>2025-05-25T09:08:33Z</time></trkpt>
<trkpt lat="50.753886" lon="6.017393"><ele>307.55</ele><time>2025-05-25T09:08:37Z</time></trkpt>
<trkpt lat="50.753934" lon="6.017419"><ele>308.73</ele><time>2025-05-25T09:08:40Z</time></trkpt>
<trkpt lat="50.753969" lon="6.017493"><ele>309.71</ele><time>2025-05-25T09:08:44Z</time></trkpt>
<trkpt lat="50.753969" lon="6.018035"><ele>312.63</ele><time>2025-05-25T09:08:48Z</time></trkpt>
<trkpt lat="50.753995" lon="6.019022"><ele>320.27</ele><time>2025-05-25T09:08:51Z</time></trkpt>
<trkpt lat="50.753979" lon="6.019338"><ele>321.46</ele><time>2025-05-25T09:08:55Z</time></trkpt>
<trkpt lat="50.753949" lon="6.019487"><ele>321.8</ele><time>2025-05-25T09:08:58Z</time></trkpt>
<trkpt lat="50.75353" lon="6.020813"><ele>327.99</ele><time>2025-05-25T09:09:02Z</time></trkpt>
<trkpt lat="50.753483" lon="6.021014"><ele>329.27</ele><time>2025-05-25T09:09:05Z</time></trkpt>
<trkpt lat="50.75349" lon="6.021198"><ele>330.08</ele><time>2025-05-25T09:09:09Z</time></trkpt>
<trkpt lat="50.753523" lon="6.021253"><ele>330.39</ele><time>2025-05-25T09:09:12Z</time></trkpt>
<trkpt lat="50.753605" lon="6.021265"><ele>331.37</ele><time>2025-05-25T09:09:16Z</time></trkpt>
<trkpt lat="50.754127" lon="6.021029"><ele>335.6</ele><time>2025-05-25T09:09:19Z</time></trkpt>
<trkpt lat="50.754506" lon="6.020879"><ele>327.67</ele><time>2025-05-25T09:09:23Z</time></trkpt>
<trkpt lat="50.754506" lon="6.020879"><ele>327.67</ele><time>2025-05-25T09:09:23Z</time></trkpt>
<trkpt lat="50.754127" lon="6.021029"><ele>335.6</ele><time>2025-05-25T09:09:26Z</time></trkpt>
<trkpt lat="50.753605" lon="6.021265"><ele>331.37</ele><time>2025-05-25T09:09:29Z</time></trkpt>
<trkpt lat="50.753523" lon="6.021253"><ele>330.39</ele><time>2025-05-25T09:09:33Z</time></trkpt>
<trkpt lat="50.75349" lon="6.021198"><ele>330.08</ele><time>2025-05-25T09:09:36Z</time></trkpt>
<trkpt lat="50.753483" lon="6.021014"><ele>329.27</ele><time>2025-05-25T09:09:39Z</time></trkpt>
<trkpt lat="50.75353" lon="6.020813"><ele>327.99</ele><time>2025-05-25T09:09:42Z</time></trkpt>
<trkpt lat="50.753949" lon="6.019487"><ele>321.8</ele><time>2025-05-25T09:09:46Z</time></trkpt>
<trkpt lat="50.753979" lon="6.019338"><ele>321.46</ele><time>2025-05-25T09:09:49Z</time></trkpt>
<trkpt lat="50.753995" lon="6.019022"><ele>320.27</ele><time>2025-05-25T09:09:52Z</time></trkpt>
<trkpt lat="50.753969" lon="6.018035"><ele>312.63</ele><time>2025-05-25T09:09:55Z</time></trkpt>
<trkpt lat="50.753969" lon="6.017493"><ele>309.71</ele><time>2025-05-25T09:09:59Z</time></trkpt>
<trkpt lat="50.753934" lon="6.017419"><ele>308.73</ele><time>2025-05-25T09:10:02Z</time></trkpt>
<trkpt lat="50.753886" lon="6.017393"><ele>307.55</ele><time>2025-05-25T09:10:05Z</time></trkpt>
<trkpt lat="50.75385" lon="6.017408"><ele>306.98</ele><time>2025-05-25T09:10:09Z</time></trkpt>
<trkpt lat="50.75382" lon="6.017461"><ele>306.62</ele><time>2025-05-25T09:10:12Z</time></trkpt>
<trkpt lat="50.753762" lon="6.017931"><ele>307.81</ele><time>2025-05-25T09:10:15Z</time></trkpt>
<trkpt lat="50.753721" lon="6.018121"><ele>307.7</ele><time>2025-05-25T09:10:18Z</time></trkpt>
<trkpt lat="50.753651" lon="6.018302"><ele>306.89</ele><time>2025-05-25T09:10:22Z</time></trkpt>
<trkpt lat="50.752873" lon="6.019597"><ele>303.36</ele><time>2025-05-25T09:10:25Z</time></trkpt>
<trkpt lat="50.752773" lon="6.01971"><ele>303.84</ele><time>2025-05-25T09:10:28Z</time></trkpt>
<trkpt lat="50.752628" lon="6.01979"><ele>303.76</ele><time>2025-05-25T09:10:31Z</time></trkpt>
<trkpt lat="50.752468" lon="6.019803"><ele>302.67</ele><time>2025-05-25T09:10:35Z</time></trkpt>
<trkpt lat="50.752347" lon="6.019765"><ele>301.44</ele><time>2025-05-25T09:10:38Z</time></trkpt>
<trkpt lat="50.751563" lon="6.019086"><ele>288.56</ele><time>2025-05-25T09:10:41Z</time></trkpt>
<trkpt lat="50.751533" lon="6.018977"><ele>287.35</ele><time>2025-05-25T09:10:44Z</time></trkpt>
<trkpt lat="50.751537" lon="6.018919"><ele>286.87</ele><time>2025-05-25T09:10:48Z</time></trkpt>
<trkpt lat="50.75158" lon="6.018831"><ele>286.71</ele><time>2025-05-25T09:10:51Z</time></trkpt>
<trkpt lat="50.751662" lon="6.018826"><ele>287.5</ele><time>2025-05-25T09:10:54Z</time></trkpt>
<trkpt lat="50.751866" lon="6.018994"><ele>289.03</ele><time>2025-05-25T09:10:57Z</time></trkpt>
<trkpt lat="50.751968" lon="6.019025"><ele>289.55</ele><time>2025-05-25T09:11:01Z</time></trkpt>
<trkpt lat="50.752034" lon="6.019026"><ele>289.8</ele><time>2025-05-25T09:11:04Z</time></trkpt>
<trkpt lat="50.752146" lon="6.018956"><ele>289.45</ele><time>2025-05-25T09:11:07Z</time></trkpt>
<trkpt lat="50.752647" lon="6.018372"><ele>281.94</ele><time>2025-05-25T09:11:10Z</time></trkpt>
<trkpt lat="50.752748" lon="6.018165"><ele>281.47</ele><time>2025-05-25T09:11:14Z</time></trkpt>
<trkpt lat="50.752763" lon="6.018066"><ele>280.75</ele><time>2025-05-25T09:11:17Z</time></trkpt>
<trkpt lat="50.752732" lon="6.017775"><ele>276.69</ele><time>2025-05-25T09:11:20Z</time></trkpt>
<trkpt lat="50.752694" lon="6.017662"><ele>275.89</ele><time>2025-05-25T09:11:23Z</time></trkpt>
<trkpt lat="50.752332" lon="6.016998"><ele>266.99</ele><time>2025-05-25T09:11:27Z</time></trkpt>
<trkpt lat="50.751016" lon="6.014063"><ele>255.07</ele><time>2025-05-25T09:11:30Z</time></trkpt>
<trkpt lat="50.750918" lon="6.013736"><ele>253.75</ele><time>2025-05-25T09:11:33Z</time></trkpt>
<trkpt lat="50.750521" lon="6.010759"><ele>237.86</ele><time>2025-05-25T09:11:36Z</time></trkpt>
<trkpt lat="50.750523" lon="6.010512"><ele>237.1</ele><time>2025-05-25T09:11:40Z</time></trkpt>
<trkpt lat="50.750576" lon="6.010068"><ele>237.13</ele><time>2025-05-25T09:11:43Z</time></trkpt>
<trkpt lat="50.750534" lon="6.009938"><ele>236.68</ele><time>2025-05-25T09:11:46Z</time></trkpt>
<trkpt lat="50.750289" lon="6.009846"><ele>234.95</ele><time>2025-05-25T09:11:49Z</time></trkpt>
<trkpt lat="50.750261" lon="6.009802"><ele>234.45</ele><time>2025-05-25T09:11:53Z</time></trkpt>
<trkpt lat="50.750184" lon="6.009445"><ele>232.33</ele><time>2025-05-25T09:11:56Z</time></trkpt>
<trkpt lat="50.749866" lon="6.008277"><ele>229.11</ele><time>2025-05-25T09:11:59Z</time></trkpt>
<trkpt lat="50.749108" lon="6.005576"><ele>220.38</ele><time>2025-05-25T09:12:02Z</time></trkpt>
<trkpt lat="50.748818" lon="6.004579"><ele>220.75</ele><time>2025-05-25T09:12:06Z</time></trkpt>
<trkpt lat="50.74831" lon="6.002933"><ele>218.83</ele><time>2025-05-25T09:12:09Z</time></trkpt>
<trkpt lat="50.748232" lon="6.002544"><ele>219.42</ele><time>2025-05-25T09:12:12Z</time></trkpt>
<trkpt lat="50.748018" lon="6.00127"><ele>218.87</ele><time>2025-05-25T09:12:15Z</time></trkpt>
<trkpt lat="50.747994" lon="6.000921"><ele>217.56</ele><time>2025-05-25T09:12:19Z</time></trkpt>
<trkpt lat="50.747791" lon="6.000444"><ele>215.6</ele><time>2025-05-25T09:12:24Z</time></trkpt>
<trkpt lat="50.747629" lon="6.000125"><ele>214.71</ele><time>2025-05-25T09:12:29Z</time></trkpt>
<trkpt lat="50.747227" lon="5.999236"><ele>213.27</ele><time>2025-05-25T09:12:34Z</time></trkpt>
<trkpt lat="50.746872" lon="5.998149"><ele>207.07</ele><time>2025-05-25T09:12:39Z</time></trkpt>
<trkpt lat="50.746552" lon="5.997473"><ele>205.55</ele><time>2025-05-25T09:12:44Z</time></trkpt>
<trkpt lat="50.746502" lon="5.997303"><ele>204.98</ele><time>2025-05-25T09:12:49Z</time></trkpt>
<trkpt lat="50.746437" lon="5.996932"><ele>204.35</ele><time>2025-05-25T09:12:54Z</time></trkpt>
<trkpt lat="50.746391" lon="5.996763"><ele>204.01</ele><time>2025-05-25T09:13:00Z</time></trkpt>
<trkpt lat="50.74648" lon="5.996621"><ele>204.98</ele><time>2025-05-25T09:13:03Z</time></trkpt>
<trkpt lat="50.746801" lon="5.995908"><ele>210.0</ele><time>2025-05-25T09:13:07Z</time></trkpt>
<trkpt lat="50.746853" lon="5.995693"><ele>210.65</ele><time>2025-05-25T09:13:10Z</time></trkpt>
<trkpt lat="50.746866" lon="5.995498"><ele>211.37</ele><time>2025-05-25T09:13:14Z</time></trkpt>
<trkpt lat="50.746855" lon="5.995366"><ele>211.99</ele><time>2025-05-25T09:13:18Z</time></trkpt>
<trkpt lat="50.746776" lon="5.995084"><ele>212.88</ele><time>2025-05-25T09:13:21Z</time></trkpt>
<trkpt lat="50.746189" lon="5.993879"><ele>213.0</ele><time>2025-05-25T09:13:25Z</time></trkpt>
<trkpt lat="50.746149" lon="5.993661"><ele>213.0</ele><time>2025-05-25T09:13:29Z</time></trkpt>
<trkpt lat="50.746166" lon="5.993438"><ele>213.0</ele><time>2025-05-25T09:13:32Z</time></trkpt>
<trkpt lat="50.746578" lon="5.992426"><ele>217.36</ele><time>2025-05-25T09:13:36Z</time></trkpt>
<trkpt lat="50.74681" lon="5.991777"><ele>220.84</ele><time>2025-05-25T09:13:40Z</time></trkpt>
<trkpt lat="50.746885" lon="5.991389"><ele>222.57</ele><time>2025-05-25T09:13:43Z</time></trkpt>
<trkpt lat="50.74689" lon="5.991216"><ele>222.61</ele><time>2025-05-25T09:13:47Z</time></trkpt>
<trkpt lat="50.746855" lon="5.99101"><ele>221.63</ele><time>2025-05-25T09:13:50Z</time></trkpt>
<trkpt lat="50.746725" lon="5.990689"><ele>218.9</ele><time>2025-05-25T09:13:54Z</time></trkpt>
<trkpt lat="50.746676" lon="5.990464"><ele>217.4</ele><time>2025-05-25T09:13:58Z</time></trkpt>
<trkpt lat="50.746681" lon="5.990284"><ele>216.1</ele><time>2025-05-25T09:14:01Z</time></trkpt>
<trkpt lat="50.746741" lon="5.99007"><ele>214.77</ele><time>2025-05-25T09:14:05Z</time></trkpt>
<trkpt lat="50.746898" lon="5.989642"><ele>213.54</ele><time>2025-05-25T09:14:09Z</time></trkpt>
<trkpt lat="50.746977" lon="5.989332"><ele>212.9</ele><time>2025-05-25T09:14:12Z</time></trkpt>
<trkpt lat="50.747419" lon="5.987515"><ele>213.09</ele><time>2025-05-25T09:14:16Z</time></trkpt>
<trkpt lat="50.748595" lon="5.982483"><ele>199.89</ele><time>2025-05-25T09:14:20Z</time></trkpt>
<trkpt lat="50.749192" lon="5.980164"><ele>195.72</ele><time>2025-05-25T09:14:23Z</time></trkpt>
<trkpt lat="50.749215" lon="5.979952"><ele>195.52</ele><time>2025-05-25T09:14:27Z</time></trkpt>
<trkpt lat="50.749218" lon="5.979735"><ele>196.32</ele><time>2025-05-25T09:14:30Z</time></trkpt>
<trkpt lat="50.749203" lon="5.979526"><ele>196.35</ele><time>2025-05-25T09:14:34Z</time></trkpt>
<trkpt lat="50.749169" lon="5.97932"><ele>196.47</ele><time>2025-05-25T09:14:38Z</time></trkpt>
<trkpt lat="50.748847" lon="5.978399"><ele>194.94</ele><time>2025-05-25T09:14:41Z</time></trkpt>
<trkpt lat="50.748711" lon="5.977932"><ele>193.45</ele><time>2025-05-25T09:14:45Z</time></trkpt>
<trkpt lat="50.748683" lon="5.977735"><ele>193.1</ele><time>2025-05-25T09:14:49Z</time></trkpt>
<trkpt lat="50.748658" lon="5.977277"><ele>190.88</ele><time>2025-05-25T09:14:52Z</time></trkpt>
<trkpt lat="50.748667" lon="5.976915"><ele>187.59</ele><time>2025-05-25T09:14:56Z</time></trkpt>
<trkpt lat="50.748703" lon="5.976728"><ele>186.76</ele><time>2025-05-25T09:14:59Z</time></trkpt>
<trkpt lat="50.748793" lon="5.976507"><ele>185.89</ele><time>2025-05-25T09:15:03Z</time></trkpt>
<trkpt lat="50.749445" lon="5.975524"><ele>186.0</ele><time>2025-05-25T09:15:07Z</time></trkpt>
<trkpt lat="50.750373" lon="5.974222"><ele>193.49</ele><time>2025-05-25T09:15:10Z</time></trkpt>
<trkpt lat="50.750447" lon="5.974171"><ele>194.45</ele><time>2025-05-25T09:15:14Z</time></trkpt>
<trkpt lat="50.750602" lon="5.97412"><ele>196.33</ele><time>2025-05-25T09:15:18Z</time></trkpt>
<trkpt lat="50.751123" lon="5.974121"><ele>199.04</ele><time>2025-05-25T09:15:21Z</time></trkpt>
<trkpt lat="50.751322" lon="5.974086"><ele>199.76</ele><time>2025-05-25T09:15:25Z</time></trkpt>
<trkpt lat="50.751489" lon="5.974019"><ele>200.72</ele><time>2025-05-25T09:15:29Z</time></trkpt>
<trkpt lat="50.751702" lon="5.973878"><ele>202.29</ele><time>2025-05-25T09:15:32Z</time></trkpt>
<trkpt lat="50.75179" lon="5.973793"><ele>203.24</ele><time>2025-05-25T09:15:36Z</time></trkpt>
<trkpt lat="50.751861" lon="5.97369"><ele>204.12</ele><time>2025-05-25T09:15:39Z</time></trkpt>
<trkpt lat="50.752026" lon="5.973409"><ele>205.0</ele><time>2025-05-25T09:15:43Z</time></trkpt>
<trkpt lat="50.752604" lon="5.972099"><ele>207.69</ele><time>2025-05-25T09:15:47Z</time></trkpt>
<trkpt lat="50.753352" lon="5.9701"><ele>207.2</ele><time>2025-05-25T09:15:50Z</time></trkpt>
<trkpt lat="50.753878" lon="5.968746"><ele>205.95</ele><time>2025-05-25T09:15:54Z</time></trkpt>
<trkpt lat="50.753963" lon="5.968434"><ele>204.36</ele><time>2025-05-25T09:15:58Z</time></trkpt>
<trkpt lat="50.753944" lon="5.966995"><ele>199.18</ele><time>2025-05-25T09:16:01Z</time></trkpt>
<trkpt lat="50.753978" lon="5.964587"><ele>192.83</ele><time>2025-05-25T09:16:05Z</time></trkpt>
<trkpt lat="50.753965" lon="5.964292"><ele>191.72</ele><time>2025-05-25T09:16:09Z</time></trkpt>
<trkpt lat="50.753897" lon="5.963812"><ele>190.75</ele><time>2025-05-25T09:16:12Z</time></trkpt>
<trkpt lat="50.753544" lon="5.961804"><ele>182.65</ele><time>2025-05-25T09:16:16Z</time></trkpt>
<trkpt lat="50.753452" lon="5.961206"><ele>181.85</ele><time>2025-05-25T09:16:19Z</time></trkpt>
<trkpt lat="50.753218" lon="5.958996"><ele>180.33</ele><time>2025-05-25T09:16:23Z</time></trkpt>
<trkpt lat="50.753148" lon="5.958545"><ele>177.35</ele><time>2025-05-25T09:16:27Z</time></trkpt>
<trkpt lat="50.752955" lon="5.95759"><ele>175.68</ele><time>2025-05-25T09:16:30Z</time></trkpt>
<trkpt lat="50.752581" lon="5.95603"><ele>174.33</ele><time>2025-05-25T09:16:34Z</time></trkpt>
<trkpt lat="50.752469" lon="5.955286"><ele>174.0</ele><time>2025-05-25T09:16:38Z</time></trkpt>
<trkpt lat="50.75238" lon="5.954034"><ele>175.0</ele><time>2025-05-25T09:16:41Z</time></trkpt>
<trkpt lat="50.752148" lon="5.952122"><ele>173.47</ele><time>2025-05-25T09:16:45Z</time></trkpt>
<trkpt lat="50.751889" lon="5.950725"><ele>169.61</ele><time>2025-05-25T09:16:48Z</time></trkpt>
<trkpt lat="50.751472" lon="5.948924"><ele>160.72</ele><time>2025-05-25T09:16:52Z</time></trkpt>
<trkpt lat="50.751392" lon="5.948448"><ele>161.0</ele><time>2025-05-25T09:16:56Z</time></trkpt>
<trkpt lat="50.751351" lon="5.948028"><ele>160.87</ele><time>2025-05-25T09:16:59Z</time></trkpt>
<trkpt lat="50.751345" lon="5.947815"><ele>160.84</ele><time>2025-05-25T09:17:03Z</time></trkpt>
<trkpt lat="50.751295" lon="5.945773"><ele>149.76</ele><time>2025-05-25T09:17:07Z</time></trkpt>
<trkpt lat="50.751278" lon="5.945466"><ele>148.48</ele><time>2025-05-25T09:17:10Z</time></trkpt>
<trkpt lat="50.751247" lon="5.945266"><ele>147.45</ele><time>2025-05-25T09:17:14Z</time></trkpt>
<trkpt lat="50.751185" lon="5.94503"><ele>146.14</ele><time>2025-05-25T09:17:18Z</time></trkpt>
<trkpt lat="50.751125" lon="5.944877"><ele>145.65</ele><time>2025-05-25T09:17:21Z</time></trkpt>
<trkpt lat="50.750914" lon="5.944515"><ele>143.16</ele><time>2025-05-25T09:17:25Z</time></trkpt>
<trkpt lat="50.750722" lon="5.944232"><ele>141.25</ele><time>2025-05-25T09:17:28Z</time></trkpt>
<trkpt lat="50.75067" lon="5.944116"><ele>140.65</ele><time>2025-05-25T09:17:32Z</time></trkpt>
<trkpt lat="50.750616" lon="5.943945"><ele>139.87</ele><time>2025-05-25T09:17:36Z</time></trkpt>
<trkpt lat="50.75059" lon="5.943762"><ele>139.04</ele><time>2025-05-25T09:17:39Z</time></trkpt>
<trkpt lat="50.750596" lon="5.943561"><ele>138.43</ele><time>2025-05-25T09:17:43Z</time></trkpt>
<trkpt lat="50.750628" lon="5.943358"><ele>138.37</ele><time>2025-05-25T09:17:47Z</time></trkpt>
<trkpt lat="50.750898" lon="5.942389"><ele>134.43</ele><time>2025-05-25T09:17:50Z</time></trkpt>
<trkpt lat="50.750912" lon="5.942244"><ele>133.95</ele><time>2025-05-25T09:17:54Z</time></trkpt>
<trkpt lat="50.750902" lon="5.942116"><ele>132.88</ele><time>2025-05-25T09:17:57Z</time></trkpt>
<trkpt lat="50.75089" lon="5.942048"><ele>132.23</ele><time>2025-05-25T09:18:01Z</time></trkpt>
<trkpt lat="50.750421" lon="5.940728"><ele>127.59</ele><time>2025-05-25T09:18:05Z</time></trkpt>
<trkpt lat="50.749259" lon="5.937455"><ele>136.83</ele><time>2025-05-25T09:18:08Z</time></trkpt>
<trkpt lat="50.749146" lon="5.937037"><ele>139.48</ele><time>2025-05-25T09:18:12Z</time></trkpt>
<trkpt lat="50.749132" lon="5.9368"><ele>140.77</ele><time>2025-05-25T09:18:16Z</time></trkpt>
<trkpt lat="50.74914" lon="5.936578"><ele>141.51</ele><time>2025-05-25T09:18:19Z</time></trkpt>
<trkpt lat="50.749229" lon="5.936234"><ele>141.9</ele><time>2025-05-25T09:18:23Z</time></trkpt>
<trkpt lat="50.749171" lon="5.93625"><ele>141.99</ele><time>2025-05-25T09:18:26Z</time></trkpt>
<trkpt lat="50.749027" lon="5.936238"><ele>143.0</ele><time>2025-05-25T09:18:29Z</time></trkpt>
<trkpt lat="50.747629" lon="5.93576"><ele>147.26</ele><time>2025-05-25T09:18:33Z</time></trkpt>
<trkpt lat="50.747429" lon="5.935748"><ele>147.48</ele><time>2025-05-25T09:18:36Z</time></trkpt>
<trkpt lat="50.747239" lon="5.93582"><ele>147.94</ele><time>2025-05-25T09:18:39Z</time></trkpt>
<trkpt lat="50.747053" lon="5.935988"><ele>148.12</ele><time>2025-05-25T09:18:42Z</time></trkpt>
<trkpt lat="50.745806" lon="5.937801"><ele>156.1</ele><time>2025-05-25T09:18:46Z</time></trkpt>
<trkpt lat="50.745367" lon="5.9383"><ele>158.35</ele><time>2025-05-25T09:18:49Z</time></trkpt>
<trkpt lat="50.744707" lon="5.936975"><ele>160.21</ele><time>2025-05-25T09:18:52Z</time></trkpt>
<trkpt lat="50.744439" lon="5.936317"><ele>160.98</ele><time>2025-05-25T09:18:56Z</time></trkpt>
<trkpt lat="50.744249" lon="5.93595"><ele>160.71</ele><time>2025-05-25T09:19:00Z</time></trkpt>
<trkpt lat="50.744063" lon="5.935721"><ele>160.78</ele><time>2025-05-25T09:19:04Z</time></trkpt>
<trkpt lat="50.743942" lon="5.935621"><ele>160.81</ele><time>2025-05-25T09:19:07Z</time></trkpt>
<trkpt lat="50.742546" lon="5.934856"><ele>160.37</ele><time>2025-05-25T09:19:11Z</time></trkpt>
<trkpt lat="50.742266" lon="5.934669"><ele>159.51</ele><time>2025-05-25T09:19:15Z</time></trkpt>
<trkpt lat="50.740966" lon="5.933795"><ele>162.41</ele><time>2025-05-25T09:19:18Z</time></trkpt>
<trkpt lat="50.740794" lon="5.933634"><ele>164.27</ele><time>2025-05-25T09:19:22Z</time></trkpt>
<trkpt lat="50.74063" lon="5.933451"><ele>165.46</ele><time>2025-05-25T09:19:26Z</time></trkpt>
<trkpt lat="50.740287" lon="5.932965"><ele>169.29</ele><time>2025-05-25T09:19:30Z</time></trkpt>
<trkpt lat="50.739647" lon="5.931974"><ele>174.49</ele><time>2025-05-25T09:19:33Z</time></trkpt>
<trkpt lat="50.7394" lon="5.931527"><ele>176.45</ele><time>2025-05-25T09:19:37Z</time></trkpt>
<trkpt lat="50.739049" lon="5.930791"><ele>177.94</ele><time>2025-05-25T09:19:41Z</time></trkpt>
<trkpt lat="50.738917" lon="5.930447"><ele>178.59</ele><time>2025-05-25T09:19:45Z</time></trkpt>
<trkpt lat="50.737286" lon="5.925425"><ele>186.29</ele><time>2025-05-25T09:19:48Z</time></trkpt>
<trkpt lat="50.737227" lon="5.9253"><ele>186.86</ele><time>2025-05-25T09:19:52Z</time></trkpt>
<trkpt lat="50.737172" lon="5.925232"><ele>186.98</ele><time>2025-05-25T09:19:56Z</time></trkpt>
<trkpt lat="50.737078" lon="5.925174"><ele>186.85</ele><time>2025-05-25T09:19:59Z</time></trkpt>
<trkpt lat="50.732989" lon="5.923557"><ele>190.43</ele><time>2025-05-25T09:20:03Z</time></trkpt>
<trkpt lat="50.732862" lon="5.923461"><ele>191.24</ele><time>2025-05-25T09:20:07Z</time></trkpt>
<trkpt lat="50.732782" lon="5.92337"><ele>191.85</ele><time>2025-05-25T09:20:11Z</time></trkpt>
<trkpt lat="50.731983" lon="5.922239"><ele>191.0</ele><time>2025-05-25T09:20:14Z</time></trkpt>
<trkpt lat="50.73179" lon="5.921868"><ele>192.0</ele><time>2025-05-25T09:20:18Z</time></trkpt>
<trkpt lat="50.731435" lon="5.920798"><ele>196.02</ele><time>2025-05-25T09:20:22Z</time></trkpt>
<trkpt lat="50.731375" lon="5.920674"><ele>196.2</ele><time>2025-05-25T09:20:25Z</time></trkpt>
<trkpt lat="50.731221" lon="5.920457"><ele>198.34</ele><time>2025-05-25T09:20:29Z</time></trkpt>
<trkpt lat="50.730732" lon="5.920072"><ele>203.37</ele><time>2025-05-25T09:20:33Z</time></trkpt>
<trkpt lat="50.73061" lon="5.920018"><ele>203.8</ele><time>2025-05-25T09:20:37Z</time></trkpt>
<trkpt lat="50.730415" lon="5.919987"><ele>204.04</ele><time>2025-05-25T09:20:40Z</time></trkpt>
<trkpt lat="50.730305" lon="5.919982"><ele>204.06</ele><time>2025-05-25T09:20:44Z</time></trkpt>
<trkpt lat="50.730266" lon="5.920004"><ele>203.96</ele><time>2025-05-25T09:20:48Z</time></trkpt>
<trkpt lat="50.730188" lon="5.920074"><ele>203.68</ele><time>2025-05-25T09:20:51Z</time></trkpt>
<trkpt lat="50.73014" lon="5.920156"><ele>203.5</ele><time>2025-05-25T09:20:55Z</time></trkpt>
<trkpt lat="50.729444" lon="5.922384"><ele>208.58</ele><time>2025-05-25T09:20:59Z</time></trkpt>
<trkpt lat="50.729378" lon="5.922559"><ele>210.16</ele><time>2025-05-25T09:21:03Z</time></trkpt>
<trkpt lat="50.729293" lon="5.922674"><ele>211.81</ele><time>2025-05-25T09:21:06Z</time></trkpt>
<trkpt lat="50.72921" lon="5.922741"><ele>213.25</ele><time>2025-05-25T09:21:10Z</time></trkpt>
<trkpt lat="50.729112" lon="5.922786"><ele>214.4</ele><time>2025-05-25T09:21:14Z</time></trkpt>
<trkpt lat="50.727115" lon="5.922993"><ele>226.54</ele><time>2025-05-25T09:21:17Z</time></trkpt>
<trkpt lat="50.72703" lon="5.922953"><ele>226.24</ele><time>2025-05-25T09:21:21Z</time></trkpt>
<trkpt lat="50.7268" lon="5.922745"><ele>226.6</ele><time>2025-05-25T09:21:25Z</time></trkpt>
<trkpt lat="50.726668" lon="5.92268"><ele>226.36</ele><time>2025-05-25T09:21:29Z</time></trkpt>
<trkpt lat="50.725945" lon="5.92243"><ele>228.35</ele><time>2025-05-25T09:21:32Z</time></trkpt>
<trkpt lat="50.724982" lon="5.922103"><ele>228.99</ele><time>2025-05-25T09:21:36Z</time></trkpt>
<trkpt lat="50.724407" lon="5.921477"><ele>234.68</ele><time>2025-05-25T09:21:40Z</time></trkpt>
<trkpt lat="50.724347" lon="5.9214"><ele>234.96</ele><time>2025-05-25T09:21:43Z</time></trkpt>
<trkpt lat="50.724197" lon="5.921123"><ele>235.1</ele><time>2025-05-25T09:21:47Z</time></trkpt>
<trkpt lat="50.723875" lon="5.920391"><ele>239.68</ele><time>2025-05-25T09:21:51Z</time></trkpt>
<trkpt lat="50.723708" lon="5.919958"><ele>242.51</ele><time>2025-05-25T09:21:55Z</time></trkpt>
<trkpt lat="50.723666" lon="5.919904"><ele>243.02</ele><time>2025-05-25T09:21:58Z</time></trkpt>
<trkpt lat="50.723591" lon="5.919906"><ele>243.29</ele><time>2025-05-25T09:22:02Z</time></trkpt>
<trkpt lat="50.723305" lon="5.92007"><ele>242.57</ele><time>2025-05-25T09:22:06Z</time></trkpt>
<trkpt lat="50.72308" lon="5.920369"><ele>241.36</ele><time>2025-05-25T09:22:10Z</time></trkpt>
<trkpt lat="50.722854" lon="5.920745"><ele>242.0</ele><time>2025-05-25T09:22:13Z</time></trkpt>
<trkpt lat="50.721716" lon="5.919756"><ele>241.52</ele><time>2025-05-25T09:22:23Z</time></trkpt>
<trkpt lat="50.71858" lon="5.917078"><ele>231.96</ele><time>2025-05-25T09:22:32Z</time></trkpt>
<trkpt lat="50.717125" lon="5.91582"><ele>221.49</ele><time>2025-05-25T09:22:42Z</time></trkpt>
<trkpt lat="50.716834" lon="5.915501"><ele>219.49</ele><time>2025-05-25T09:22:51Z</time></trkpt>
<trkpt lat="50.716186" lon="5.91449"><ele>211.43</ele><time>2025-05-25T09:23:01Z</time></trkpt>
<trkpt lat="50.7157" lon="5.913706"><ele>213.66</ele><time>2025-05-25T09:23:10Z</time></trkpt>
<trkpt lat="50.713286" lon="5.909717"><ele>231.34</ele><time>2025-05-25T09:23:20Z</time></trkpt>
<trkpt lat="50.712857" lon="5.909088"><ele>234.71</ele><time>2025-05-25T09:23:29Z</time></trkpt>
<trkpt lat="50.712334" lon="5.908178"><ele>239.49</ele><time>2025-05-25T09:23:39Z</time></trkpt>
<trkpt lat="50.712065" lon="5.907608"><ele>243.44</ele><time>2025-05-25T09:23:48Z</time></trkpt>
<trkpt lat="50.711864" lon="5.907089"><ele>245.48</ele><time>2025-05-25T09:23:58Z</time></trkpt>
<trkpt lat="50.71103" lon="5.904749"><ele>253.61</ele><time>2025-05-25T09:24:07Z</time></trkpt>
<trkpt lat="50.710868" lon="5.904127"><ele>256.14</ele><time>2025-05-25T09:24:17Z</time></trkpt>
<trkpt lat="50.710785" lon="5.90369"><ele>258.26</ele><time>2025-05-25T09:24:26Z</time></trkpt>
<trkpt lat="50.710738" lon="5.903156"><ele>259.87</ele><time>2025-05-25T09:24:36Z</time></trkpt>
<trkpt lat="50.70981" lon="5.887374"><ele>287.68</ele><time>2025-05-25T09:24:45Z</time></trkpt>
<trkpt lat="50.709855" lon="5.886585"><ele>287.23</ele><time>2025-05-25T09:24:55Z</time></trkpt>
<trkpt lat="50.709936" lon="5.886056"><ele>285.8</ele><time>2025-05-25T09:25:04Z</time></trkpt>
<trkpt lat="50.709938" lon="5.885891"><ele>285.21</ele><time>2025-05-25T09:25:14Z</time></trkpt>
<trkpt lat="50.709908" lon="5.885719"><ele>284.72</ele><time>2025-05-25T09:25:23Z</time></trkpt>
<trkpt lat="50.709807" lon="5.885457"><ele>284.34</ele><time>2025-05-25T09:25:33Z</time></trkpt>
<trkpt lat="50.709791" lon="5.885312"><ele>283.88</ele><time>2025-05-25T09:25:34Z</time></trkpt>
<trkpt lat="50.709718" lon="5.885219"><ele>283.77</ele><time>2025-05-25T09:25:35Z</time></trkpt>
<trkpt lat="50.709634" lon="5.884978"><ele>282.6</ele><time>2025-05-25T09:25:36Z</time></trkpt>
<trkpt lat="50.709646" lon="5.884359"><ele>280.92</ele><time>2025-05-25T09:25:37Z</time></trkpt>
<trkpt lat="50.709043" lon="5.882255"><ele>271.21</ele><time>2025-05-25T09:25:42Z</time></trkpt>
<trkpt lat="50.708754" lon="5.881007"><ele>269.84</ele><time>2025-05-25T09:25:48Z</time></trkpt>
<trkpt lat="50.708673" lon="5.880749"><ele>269.15</ele><time>2025-05-25T09:25:53Z</time></trkpt>
<trkpt lat="50.708436" lon="5.880055"><ele>264.01</ele><time>2025-05-25T09:25:59Z</time></trkpt>
<trkpt lat="50.708303" lon="5.879602"><ele>262.78</ele><time>2025-05-25T09:26:04Z</time></trkpt>
<trkpt lat="50.708159" lon="5.878974"><ele>261.11</ele><time>2025-05-25T09:26:10Z</time></trkpt>
<trkpt lat="50.708017" lon="5.878063"><ele>262.69</ele><time>2025-05-25T09:26:15Z</time></trkpt>
<trkpt lat="50.70784" lon="5.876678"><ele>260.56</ele><time>2025-05-25T09:26:20Z</time></trkpt>
<trkpt lat="50.707751" lon="5.876204"><ele>259.4</ele><time>2025-05-25T09:26:26Z</time></trkpt>
<trkpt lat="50.707315" lon="5.874714"><ele>260.0</ele><time>2025-05-25T09:26:31Z</time></trkpt>
<trkpt lat="50.707138" lon="5.874237"><ele>260.0</ele><time>2025-05-25T09:26:37Z</time></trkpt>
<trkpt lat="50.706906" lon="5.874519"><ele>259.52</ele><time>2025-05-25T09:26:42Z</time></trkpt>
<trkpt lat="50.706515" lon="5.875127"><ele>250.82</ele><time>2025-05-25T09:26:48Z</time></trkpt>
<trkpt lat="50.706342" lon="5.875554"><ele>247.33</ele><time>2025-05-25T09:26:54Z</time></trkpt>
<trkpt lat="50.706181" lon="5.876039"><ele>243.27</ele><time>2025-05-25T09:26:59Z</time></trkpt>
<trkpt lat="50.706108" lon="5.876326"><ele>241.96</ele><time>2025-05-25T09:27:05Z</time></trkpt>
<trkpt lat="50.705903" lon="5.87737"><ele>237.75</ele><time>2025-05-25T09:27:10Z</time></trkpt>
<trkpt lat="50.705467" lon="5.877658"><ele>234.11</ele><time>2025-05-25T09:27:16Z</time></trkpt>
<trkpt lat="50.705292" lon="5.877723"><ele>233.25</ele><time>2025-05-25T09:27:22Z</time></trkpt>
<trkpt lat="50.704806" lon="5.87775"><ele>231.4</ele><time>2025-05-25T09:27:27Z</time></trkpt>
<trkpt lat="50.704404" lon="5.877872"><ele>230.41</ele><time>2025-05-25T09:27:33Z</time></trkpt>
<trkpt lat="50.704275" lon="5.877887"><ele>229.63</ele><time>2025-05-25T09:27:39Z</time></trkpt>
<trkpt lat="50.703632" lon="5.877905"><ele>228.54</ele><time>2025-05-25T09:27:44Z</time></trkpt>
<trkpt lat="50.703462" lon="5.877881"><ele>228.83</ele><time>2025-05-25T09:27:50Z</time></trkpt>
<trkpt lat="50.702083" lon="5.877841"><ele>224.0</ele><time>2025-05-25T09:27:55Z</time></trkpt>
<trkpt lat="50.701164" lon="5.877887"><ele>222.38</ele><time>2025-05-25T09:28:01Z</time></trkpt>
<trkpt lat="50.700749" lon="5.877794"><ele>219.3</ele><time>2025-05-25T09:28:07Z</time></trkpt>
<trkpt lat="50.700363" lon="5.877772"><ele>221.41</ele><time>2025-05-25T09:28:12Z</time></trkpt>
<trkpt lat="50.700246" lon="5.877804"><ele>221.79</ele><time>2025-05-25T09:28:18Z</time></trkpt>
<trkpt lat="50.700655" lon="5.87862"><ele>218.97</ele><time>2025-05-25T09:28:22Z</time></trkpt>
<trkpt lat="50.700842" lon="5.879068"><ele>218.03</ele><time>2025-05-25T09:28:27Z</time></trkpt>
<trkpt lat="50.700938" lon="5.879427"><ele>218.02</ele><time>2025-05-25T09:28:32Z</time></trkpt>
<trkpt lat="50.700974" lon="5.879758"><ele>217.87</ele><time>2025-05-25T09:28:36Z</time></trkpt>
<trkpt lat="50.701016" lon="5.880511"><ele>216.16</ele><time>2025-05-25T09:28:41Z</time></trkpt>
<trkpt lat="50.701084" lon="5.882953"><ele>219.86</ele><time>2025-05-25T09:28:45Z</time></trkpt>
<trkpt lat="50.700962" lon="5.885073"><ele>227.66</ele><time>2025-05-25T09:28:50Z</time></trkpt>
<trkpt lat="50.700887" lon="5.885461"><ele>228.66</ele><time>2025-05-25T09:28:55Z</time></trkpt>
<trkpt lat="50.700411" lon="5.88673"><ele>232.04</ele><time>2025-05-25T09:28:59Z</time></trkpt>
<trkpt lat="50.700167" lon="5.88733"><ele>233.55</ele><time>2025-05-25T09:29:04Z</time></trkpt>
<trkpt lat="50.699989" lon="5.887571"><ele>235.54</ele><time>2025-05-25T09:29:08Z</time></trkpt>
<trkpt lat="50.699787" lon="5.88774"><ele>236.83</ele><time>2025-05-25T09:29:13Z</time></trkpt>
<trkpt lat="50.698865" lon="5.888301"><ele>232.8</ele><time>2025-05-25T09:29:18Z</time></trkpt>
<trkpt lat="50.698491" lon="5.888601"><ele>232.55</ele><time>2025-05-25T09:29:22Z</time></trkpt>
<trkpt lat="50.696634" lon="5.890712"><ele>239.12</ele><time>2025-05-25T09:29:27Z</time></trkpt>
<trkpt lat="50.696332" lon="5.891113"><ele>242.6</ele><time>2025-05-25T09:29:31Z</time></trkpt>
<trkpt lat="50.696021" lon="5.891839"><ele>244.92</ele><time>2025-05-25T09:29:36Z</time></trkpt>
<trkpt lat="50.695672" lon="5.89273"><ele>249.14</ele><time>2025-05-25T09:29:40Z</time></trkpt>
<trkpt lat="50.695167" lon="5.893966"><ele>256.15</ele><time>2025-05-25T09:29:45Z</time></trkpt>
<trkpt lat="50.695063" lon="5.89412"><ele>256.89</ele><time>2025-05-25T09:29:50Z</time></trkpt>
<trkpt lat="50.694952" lon="5.894213"><ele>257.7</ele><time>2025-05-25T09:29:54Z</time></trkpt>
<trkpt lat="50.694814" lon="5.894284"><ele>259.22</ele><time>2025-05-25T09:29:59Z</time></trkpt>
<trkpt lat="50.6944" lon="5.89435"><ele>261.03</ele><time>2025-05-25T09:30:03Z</time></trkpt>
<trkpt lat="50.694264" lon="5.894505"><ele>262.36</ele><time>2025-05-25T09:30:08Z</time></trkpt>
<trkpt lat="50.694092" lon="5.894903"><ele>264.88</ele><time>2025-05-25T09:30:13Z</time></trkpt>
<trkpt lat="50.69331" lon="5.897015"><ele>267.35</ele><time>2025-05-25T09:30:17Z</time></trkpt>
<trkpt lat="50.693163" lon="5.897302"><ele>268.17</ele><time>2025-05-25T09:30:22Z</time></trkpt>
<trkpt lat="50.692982" lon="5.897598"><ele>267.91</ele><time>2025-05-25T09:30:26Z</time></trkpt>
<trkpt lat="50.692658" lon="5.898141"><ele>267.75</ele><time>2025-05-25T09:30:31Z</time></trkpt>
<trkpt lat="50.692529" lon="5.89832"><ele>268.11</ele><time>2025-05-25T09:30:35Z</time></trkpt>
<trkpt lat="50.691937" lon="5.898917"><ele>268.86</ele><time>2025-05-25T09:30:40Z</time></trkpt>
<trkpt lat="50.69173" lon="5.899056"><ele>265.61</ele><time>2025-05-25T09:30:45Z</time></trkpt>
<trkpt lat="50.691601" lon="5.899093"><ele>263.78</ele><time>2025-05-25T09:30:49Z</time></trkpt>
<trkpt lat="50.691491" lon="5.899079"><ele>262.15</ele><time>2025-05-25T09:30:54Z</time></trkpt>
<trkpt lat="50.691454" lon="5.899049"><ele>261.51</ele><time>2025-05-25T09:30:58Z</time></trkpt>
<trkpt lat="50.691359" lon="5.898892"><ele>259.58</ele><time>2025-05-25T09:31:03Z</time></trkpt>
<trkpt lat="50.691318" lon="5.89856"><ele>257.1</ele><time>2025-05-25T09:31:08Z</time></trkpt>
<trkpt lat="50.691337" lon="5.897869"><ele>254.14</ele><time>2025-05-25T09:31:12Z</time></trkpt>
<trkpt lat="50.691356" lon="5.896893"><ele>248.53</ele><time>2025-05-25T09:31:17Z</time></trkpt>
<trkpt lat="50.691309" lon="5.896576"><ele>246.67</ele><time>2025-05-25T09:31:21Z</time></trkpt>
<trkpt lat="50.691189" lon="5.896278"><ele>245.71</ele><time>2025-05-25T09:31:26Z</time></trkpt>
<trkpt lat="50.690951" lon="5.896019"><ele>244.91</ele><time>2025-05-25T09:31:31Z</time></trkpt>
<trkpt lat="50.690741" lon="5.895876"><ele>244.36</ele><time>2025-05-25T09:31:35Z</time></trkpt>
<trkpt lat="50.689484" lon="5.895451"><ele>236.77</ele><time>2025-05-25T09:31:40Z</time></trkpt>
<trkpt lat="50.689283" lon="5.895361"><ele>236.88</ele><time>2025-05-25T09:31:44Z</time></trkpt>
<trkpt lat="50.6891" lon="5.895198"><ele>236.78</ele><time>2025-05-25T09:31:49Z</time></trkpt>
<trkpt lat="50.688991" lon="5.894985"><ele>236.58</ele><time>2025-05-25T09:31:53Z</time></trkpt>
<trkpt lat="50.688645" lon="5.894074"><ele>236.88</ele><time>2025-05-25T09:31:58Z</time></trkpt>
<trkpt lat="50.688461" lon="5.893793"><ele>237.89</ele><time>2025-05-25T09:32:03Z</time></trkpt>
<trkpt lat="50.688373" lon="5.893724"><ele>238.21</ele><time>2025-05-25T09:32:07Z</time></trkpt>
<trkpt lat="50.68711" lon="5.893182"><ele>244.95</ele><time>2025-05-25T09:32:12Z</time></trkpt>
<trkpt lat="50.686753" lon="5.893004"><ele>246.88</ele><time>2025-05-25T09:32:16Z</time></trkpt>
<trkpt lat="50.686134" lon="5.892624"><ele>247.55</ele><time>2025-05-25T09:32:21Z</time></trkpt>
<trkpt lat="50.683152" lon="5.89093"><ele>247.74</ele><time>2025-05-25T09:32:26Z</time></trkpt>
<trkpt lat="50.682496" lon="5.89074"><ele>244.64</ele><time>2025-05-25T09:32:30Z</time></trkpt>
<trkpt lat="50.680547" lon="5.890098"><ele>243.38</ele><time>2025-05-25T09:32:35Z</time></trkpt>
<trkpt lat="50.680143" lon="5.889929"><ele>244.46</ele><time>2025-05-25T09:32:39Z</time></trkpt>
<trkpt lat="50.676542" lon="5.886045"><ele>253.58</ele><time>2025-05-25T09:32:44Z</time></trkpt>
<trkpt lat="50.676337" lon="5.885604"><ele>254.19</ele><time>2025-05-25T09:32:48Z</time></trkpt>
<trkpt lat="50.676181" lon="5.885227"><ele>254.75</ele><time>2025-05-25T09:32:53Z</time></trkpt>
<trkpt lat="50.675916" lon="5.884347"><ele>254.81</ele><time>2025-05-25T09:32:58Z</time></trkpt>
<trkpt lat="50.675875" lon="5.884256"><ele>254.45</ele><time>2025-05-25T09:33:02Z</time></trkpt>
<trkpt lat="50.675832" lon="5.88423"><ele>254.45</ele><time>2025-05-25T09:33:07Z</time></trkpt>
<trkpt lat="50.675713" lon="5.884252"><ele>253.88</ele><time>2025-05-25T09:33:11Z</time></trkpt>
<trkpt lat="50.675005" lon="5.884555"><ele>255.97</ele><time>2025-05-25T09:33:16Z</time></trkpt>
<trkpt lat="50.674611" lon="5.884683"><ele>256.86</ele><time>2025-05-25T09:33:21Z</time></trkpt>
<trkpt lat="50.674257" lon="5.884702"><ele>256.25</ele><time>2025-05-25T09:33:25Z</time></trkpt>
<trkpt lat="50.673782" lon="5.884544"><ele>254.37</ele><time>2025-05-25T09:33:30Z</time></trkpt>
<trkpt lat="50.673564" lon="5.884405"><ele>252.86</ele><time>2025-05-25T09:33:34Z</time></trkpt>
<trkpt lat="50.673388" lon="5.884235"><ele>252.25</ele><time>2025-05-25T09:33:39Z</time></trkpt>
<trkpt lat="50.67311" lon="5.8838"><ele>252.19</ele><time>2025-05-25T09:33:44Z</time></trkpt>
<trkpt lat="50.672664" lon="5.882926"><ele>256.15</ele><time>2025-05-25T09:33:48Z</time></trkpt>
<trkpt lat="50.672257" lon="5.882048"><ele>258.88</ele><time>2025-05-25T09:33:53Z</time></trkpt>
<trkpt lat="50.671785" lon="5.881139"><ele>262.15</ele><time>2025-05-25T09:33:57Z</time></trkpt>
<trkpt lat="50.671272" lon="5.880275"><ele>262.84</ele><time>2025-05-25T09:34:02Z</time></trkpt>
<trkpt lat="50.668375" lon="5.875945"><ele>253.7</ele><time>2025-05-25T09:34:06Z</time></trkpt>
<trkpt lat="50.66631" lon="5.872934"><ele>263.97</ele><time>2025-05-25T09:34:11Z</time></trkpt>
<trkpt lat="50.664582" lon="5.87063"><ele>254.13</ele><time>2025-05-25T09:34:16Z</time></trkpt>
<trkpt lat="50.663853" lon="5.869691"><ele>253.13</ele><time>2025-05-25T09:34:20Z</time></trkpt>
<trkpt lat="50.663579" lon="5.869368"><ele>253.95</ele><time>2025-05-25T09:34:25Z</time></trkpt>
<trkpt lat="50.662691" lon="5.868648"><ele>252.96</ele><time>2025-05-25T09:34:29Z</time></trkpt>
<trkpt lat="50.662409" lon="5.868478"><ele>253.33</ele><time>2025-05-25T09:34:34Z</time></trkpt>
<trkpt lat="50.660989" lon="5.867841"><ele>254.44</ele><time>2025-05-25T09:34:39Z</time></trkpt>
<trkpt lat="50.66079" lon="5.867837"><ele>254.69</ele><time>2025-05-25T09:34:43Z</time></trkpt>
<trkpt lat="50.660183" lon="5.868093"><ele>249.14</ele><time>2025-05-25T09:34:48Z</time></trkpt>
<trkpt lat="50.66007" lon="5.868129"><ele>248.04</ele><time>2025-05-25T09:34:52Z</time></trkpt>
<trkpt lat="50.659954" lon="5.868132"><ele>247.0</ele><time>2025-05-25T09:34:57Z</time></trkpt>
<trkpt lat="50.659757" lon="5.868066"><ele>245.34</ele><time>2025-05-25T09:35:01Z</time></trkpt>
<trkpt lat="50.659524" lon="5.867846"><ele>243.79</ele><time>2025-05-25T09:35:06Z</time></trkpt>
<trkpt lat="50.659265" lon="5.867559"><ele>240.92</ele><time>2025-05-25T09:35:11Z</time></trkpt>
<trkpt lat="50.658964" lon="5.867369"><ele>238.41</ele><time>2025-05-25T09:35:15Z</time></trkpt>
<trkpt lat="50.657338" lon="5.867071"><ele>251.13</ele><time>2025-05-25T09:35:20Z</time></trkpt>
<trkpt lat="50.656901" lon="5.866891"><ele>252.35</ele><time>2025-05-25T09:35:24Z</time></trkpt>
<trkpt lat="50.656516" lon="5.866673"><ele>255.06</ele><time>2025-05-25T09:35:29Z</time></trkpt>
<trkpt lat="50.656183" lon="5.866383"><ele>258.75</ele><time>2025-05-25T09:35:34Z</time></trkpt>
<trkpt lat="50.655953" lon="5.866032"><ele>260.1</ele><time>2025-05-25T09:35:38Z</time></trkpt>
<trkpt lat="50.655543" lon="5.865233"><ele>260.09</ele><time>2025-05-25T09:35:43Z</time></trkpt>
<trkpt lat="50.655059" lon="5.864428"><ele>263.26</ele><time>2025-05-25T09:35:47Z</time></trkpt>
<trkpt lat="50.655069" lon="5.864383"><ele>262.86</ele><time>2025-05-25T09:35:50Z</time></trkpt>
<trkpt lat="50.65506" lon="5.864336"><ele>262.65</ele><time>2025-05-25T09:35:52Z</time></trkpt>
<trkpt lat="50.655014" lon="5.864303"><ele>262.86</ele><time>2025-05-25T09:35:54Z</time></trkpt>
<trkpt lat="50.654983" lon="5.864328"><ele>263.22</ele><time>2025-05-25T09:35:56Z</time></trkpt>
<trkpt lat="50.654971" lon="5.864379"><ele>263.64</ele><time>2025-05-25T09:35:59Z</time></trkpt>
<trkpt lat="50.654723" lon="5.864322"><ele>264.11</ele><time>2025-05-25T09:36:01Z</time></trkpt>
<trkpt lat="50.654293" lon="5.864047"><ele>263.92</ele><time>2025-05-25T09:36:03Z</time></trkpt>
<trkpt lat="50.654196" lon="5.864039"><ele>264.38</ele><time>2025-05-25T09:36:06Z</time></trkpt>
<trkpt lat="50.653604" lon="5.864433"><ele>268.05</ele><time>2025-05-25T09:36:08Z</time></trkpt>
<trkpt lat="50.653502" lon="5.864475"><ele>268.79</ele><time>2025-05-25T09:36:10Z</time></trkpt>
<trkpt lat="50.653303" lon="5.864477"><ele>270.11</ele><time>2025-05-25T09:36:12Z</time></trkpt>
<trkpt lat="50.653305" lon="5.864424"><ele>270.11</ele><time>2025-05-25T09:36:17Z</time></trkpt>
<trkpt lat="50.653273" lon="5.864358"><ele>270.28</ele><time>2025-05-25T09:36:21Z</time></trkpt>
<trkpt lat="50.653049" lon="5.863875"><ele>272.05</ele><time>2025-05-25T09:36:26Z</time></trkpt>
<trkpt lat="50.652909" lon="5.863685"><ele>273.44</ele><time>2025-05-25T09:36:30Z</time></trkpt>
<trkpt lat="50.652813" lon="5.863636"><ele>274.54</ele><time>2025-05-25T09:36:35Z</time></trkpt>
<trkpt lat="50.652628" lon="5.863599"><ele>276.08</ele><time>2025-05-25T09:36:39Z</time></trkpt>
<trkpt lat="50.652126" lon="5.863576"><ele>278.74</ele><time>2025-05-25T09:36:44Z</time></trkpt>
<trkpt lat="50.651829" lon="5.863568"><ele>280.99</ele><time>2025-05-25T09:36:48Z</time></trkpt>
<trkpt lat="50.651665" lon="5.863515"><ele>282.36</ele><time>2025-05-25T09:36:53Z</time></trkpt>
<trkpt lat="50.651066" lon="5.863053"><ele>287.32</ele><time>2025-05-25T09:36:57Z</time></trkpt>
<trkpt lat="50.651035" lon="5.862996"><ele>287.55</ele><time>2025-05-25T09:37:05Z</time></trkpt>
<trkpt lat="50.650987" lon="5.862989"><ele>287.89</ele><time>2025-05-25T09:37:13Z</time></trkpt>
<trkpt lat="50.650635" lon="5.862857"><ele>291.14</ele><time>2025-05-25T09:37:21Z</time></trkpt>
<trkpt lat="50.649818" lon="5.86284"><ele>298.51</ele><time>2025-05-25T09:37:29Z</time></trkpt>
<trkpt lat="50.64769" lon="5.86278"><ele>312.63</ele><time>2025-05-25T09:37:37Z</time></trkpt>
<trkpt lat="50.647247" lon="5.862844"><ele>314.91</ele><time>2025-05-25T09:37:45Z</time></trkpt>
<trkpt lat="50.647157" lon="5.862892"><ele>314.9</ele><time>2025-05-25T09:37:53Z</time></trkpt>
<trkpt lat="50.647099" lon="5.862951"><ele>314.72</ele><time>2025-05-25T09:38:01Z</time></trkpt>
<trkpt lat="50.647058" lon="5.862866"><ele>314.81</ele><time>2025-05-25T09:38:09Z</time></trkpt>
<trkpt lat="50.646994" lon="5.862839"><ele>314.82</ele><time>2025-05-25T09:38:17Z</time></trkpt>
<trkpt lat="50.646925" lon="5.86289"><ele>314.39</ele><time>2025-05-25T09:38:24Z</time></trkpt>
<trkpt lat="50.646897" lon="5.863"><ele>313.69</ele><time>2025-05-25T09:38:32Z</time></trkpt>
<trkpt lat="50.646782" lon="5.862983"><ele>312.51</ele><time>2025-05-25T09:38:39Z</time></trkpt>
<trkpt lat="50.646583" lon="5.862887"><ele>310.28</ele><time>2025-05-25T09:38:47Z</time></trkpt>
<trkpt lat="50.646282" lon="5.8626"><ele>306.71</ele><time>2025-05-25T09:38:54Z</time></trkpt>
<trkpt lat="50.645673" lon="5.862192"><ele>300.0</ele><time>2025-05-25T09:39:02Z</time></trkpt>
<trkpt lat="50.644999" lon="5.861583"><ele>298.59</ele><time>2025-05-25T09:39:09Z</time></trkpt>
<trkpt lat="50.644699" lon="5.861426"><ele>297.72</ele><time>2025-05-25T09:39:17Z</time></trkpt>
<trkpt lat="50.644508" lon="5.861351"><ele>298.27</ele><time>2025-05-25T09:39:25Z</time></trkpt>
<trkpt lat="50.64419" lon="5.861305"><ele>296.77</ele><time>2025-05-25T09:39:32Z</time></trkpt>
<trkpt lat="50.643273" lon="5.861312"><ele>288.62</ele><time>2025-05-25T09:39:40Z</time></trkpt>
<trkpt lat="50.641964" lon="5.861431"><ele>282.84</ele><time>2025-05-25T09:39:47Z</time></trkpt>
<trkpt lat="50.641772" lon="5.861466"><ele>283.62</ele><time>2025-05-25T09:39:55Z</time></trkpt>
<trkpt lat="50.641563" lon="5.861546"><ele>283.52</ele><time>2025-05-25T09:40:02Z</time></trkpt>
<trkpt lat="50.64119" lon="5.861738"><ele>283.46</ele><time>2025-05-25T09:40:10Z</time></trkpt>
<trkpt lat="50.640885" lon="5.861942"><ele>285.44</ele><time>2025-05-25T09:40:17Z</time></trkpt>
<trkpt lat="50.639025" lon="5.863152"><ele>270.63</ele><time>2025-05-25T09:40:25Z</time></trkpt>
<trkpt lat="50.638625" lon="5.863415"><ele>267.1</ele><time>2025-05-25T09:40:33Z</time></trkpt>
<trkpt lat="50.638477" lon="5.863511"><ele>266.52</ele><time>2025-05-25T09:40:40Z</time></trkpt>
<trkpt lat="50.638083" lon="5.863666"><ele>266.2</ele><time>2025-05-25T09:40:48Z</time></trkpt>
<trkpt lat="50.636024" lon="5.863583"><ele>254.59</ele><time>2025-05-25T09:40:55Z</time></trkpt>
<trkpt lat="50.635818" lon="5.863488"><ele>255.76</ele><time>2025-05-25T09:41:03Z</time></trkpt>
<trkpt lat="50.635627" lon="5.863303"><ele>257.04</ele><time>2025-05-25T09:41:10Z</time></trkpt>
<trkpt lat="50.634194" lon="5.861288"><ele>247.75</ele><time>2025-05-25T09:41:18Z</time></trkpt>
<trkpt lat="50.63263" lon="5.859089"><ele>242.59</ele><time>2025-05-25T09:41:25Z</time></trkpt>
<trkpt lat="50.63188" lon="5.858089"><ele>236.7</ele><time>2025-05-25T09:41:33Z</time></trkpt>
<trkpt lat="50.629988" lon="5.855769"><ele>228.77</ele><time>2025-05-25T09:41:41Z</time></trkpt>
<trkpt lat="50.629777" lon="5.855475"><ele>227.71</ele><time>2025-05-25T09:41:48Z</time></trkpt>
<trkpt lat="50.629631" lon="5.855314"><ele>227.13</ele><time>2025-05-25T09:41:56Z</time></trkpt>
<trkpt lat="50.628701" lon="5.854139"><ele>230.42</ele><time>2025-05-25T09:42:03Z</time></trkpt>
<trkpt lat="50.629589" lon="5.852569"><ele>233.21</ele><time>2025-05-25T09:42:07Z</time></trkpt>
<trkpt lat="50.629787" lon="5.85216"><ele>235.7</ele><time>2025-05-25T09:42:11Z</time></trkpt>
<trkpt lat="50.62986" lon="5.851792"><ele>235.51</ele><time>2025-05-25T09:42:16Z</time></trkpt>
<trkpt lat="50.629857" lon="5.851503"><ele>236.13</ele><time>2025-05-25T09:42:20Z</time></trkpt>
<trkpt lat="50.629804" lon="5.851265"><ele>237.25</ele><time>2025-05-25T09:42:24Z</time></trkpt>
<trkpt lat="50.629625" lon="5.85081"><ele>238.35</ele><time>2025-05-25T09:42:28Z</time></trkpt>
<trkpt lat="50.629126" lon="5.849789"><ele>241.2</ele><time>2025-05-25T09:42:32Z</time></trkpt>
<trkpt lat="50.628944" lon="5.849902"><ele>242.76</ele><time>2025-05-25T09:42:35Z</time></trkpt>
<trkpt lat="50.628374" lon="5.850536"><ele>243.83</ele><time>2025-05-25T09:42:39Z</time></trkpt>
<trkpt lat="50.628185" lon="5.850696"><ele>246.43</ele><time>2025-05-25T09:42:42Z</time></trkpt>
<trkpt lat="50.627893" lon="5.850843"><ele>248.49</ele><time>2025-05-25T09:42:45Z</time></trkpt>
<trkpt lat="50.627339" lon="5.850943"><ele>244.49</ele><time>2025-05-25T09:42:48Z</time></trkpt>
<trkpt lat="50.627139" lon="5.85105"><ele>241.76</ele><time>2025-05-25T09:42:52Z</time></trkpt>
<trkpt lat="50.626511" lon="5.850901"><ele>237.28</ele><time>2025-05-25T09:42:55Z</time></trkpt>
<trkpt lat="50.625992" lon="5.850727"><ele>233.14</ele><time>2025-05-25T09:42:58Z</time></trkpt>
<trkpt lat="50.625766" lon="5.850676"><ele>231.9</ele><time>2025-05-25T09:43:02Z</time></trkpt>
<trkpt lat="50.625271" lon="5.850635"><ele>231.49</ele><time>2025-05-25T09:43:05Z</time></trkpt>
<trkpt lat="50.624843" lon="5.850702"><ele>236.24</ele><time>2025-05-25T09:43:08Z</time></trkpt>
<trkpt lat="50.624591" lon="5.850772"><ele>238.71</ele><time>2025-05-25T09:43:11Z</time></trkpt>
<trkpt lat="50.624262" lon="5.850926"><ele>238.86</ele><time>2025-05-25T09:43:15Z</time></trkpt>
<trkpt lat="50.623893" lon="5.851147"><ele>238.45</ele><time>2025-05-25T09:43:18Z</time></trkpt>
<trkpt lat="50.622924" lon="5.851855"><ele>235.59</ele><time>2025-05-25T09:43:21Z</time></trkpt>
<trkpt lat="50.622419" lon="5.852186"><ele>234.81</ele><time>2025-05-25T09:43:24Z</time></trkpt>
<trkpt lat="50.621929" lon="5.852474"><ele>235.43</ele><time>2025-05-25T09:43:28Z</time></trkpt>
<trkpt lat="50.621094" lon="5.8529"><ele>226.02</ele><time>2025-05-25T09:43:31Z</time></trkpt>
<trkpt lat="50.620497" lon="5.853149"><ele>223.96</ele><time>2025-05-25T09:43:34Z</time></trkpt>
<trkpt lat="50.619214" lon="5.85351"><ele>225.79</ele><time>2025-05-25T09:43:37Z</time></trkpt>
<trkpt lat="50.618342" lon="5.853652"><ele>227.24</ele><time>2025-05-25T09:43:41Z</time></trkpt>
<trkpt lat="50.615888" lon="5.853793"><ele>220.58</ele><time>2025-05-25T09:43:44Z</time></trkpt>
<trkpt lat="50.615349" lon="5.853765"><ele>221.04</ele><time>2025-05-25T09:43:47Z</time></trkpt>
<trkpt lat="50.615167" lon="5.853719"><ele>219.85</ele><time>2025-05-25T09:43:50Z</time></trkpt>
<trkpt lat="50.614724" lon="5.853535"><ele>215.85</ele><time>2025-05-25T09:43:54Z</time></trkpt>
<trkpt lat="50.61448" lon="5.853369"><ele>214.88</ele><time>2025-05-25T09:43:57Z</time></trkpt>
<trkpt lat="50.613683" lon="5.852646"><ele>212.93</ele><time>2025-05-25T09:44:00Z</time></trkpt>
<trkpt lat="50.613345" lon="5.852367"><ele>213.49</ele><time>2025-05-25T09:44:04Z</time></trkpt>
<trkpt lat="50.613158" lon="5.852247"><ele>213.01</ele><time>2025-05-25T09:44:07Z</time></trkpt>
<trkpt lat="50.612946" lon="5.852142"><ele>213.34</ele><time>2025-05-25T09:44:10Z</time></trkpt>
<trkpt lat="50.612524" lon="5.85201"><ele>213.97</ele><time>2025-05-25T09:44:13Z</time></trkpt>
<trkpt lat="50.611963" lon="5.851977"><ele>211.54</ele><time>2025-05-25T09:44:17Z</time></trkpt>
<trkpt lat="50.609454" lon="5.852072"><ele>208.1</ele><time>2025-05-25T09:44:20Z</time></trkpt>
<trkpt lat="50.608656" lon="5.852041"><ele>215.4</ele><time>2025-05-25T09:44:23Z</time></trkpt>
<trkpt lat="50.607939" lon="5.851947"><ele>220.94</ele><time>2025-05-25T09:44:26Z</time></trkpt>
<trkpt lat="50.607192" lon="5.851804"><ele>223.56</ele><time>2025-05-25T09:44:30Z</time></trkpt>
<trkpt lat="50.606594" lon="5.851656"><ele>224.33</ele><time>2025-05-25T09:44:33Z</time></trkpt>
<trkpt lat="50.606" lon="5.851467"><ele>227.43</ele><time>2025-05-25T09:44:36Z</time></trkpt>
<trkpt lat="50.605109" lon="5.851109"><ele>228.62</ele><time>2025-05-25T09:44:39Z</time></trkpt>
<trkpt lat="50.604549" lon="5.850842"><ele>230.97</ele><time>2025-05-25T09:44:43Z</time></trkpt>
<trkpt lat="50.603992" lon="5.85054"><ele>229.2</ele><time>2025-05-25T09:44:46Z</time></trkpt>
<trkpt lat="50.603577" lon="5.850287"><ele>227.81</ele><time>2025-05-25T09:44:49Z</time></trkpt>
<trkpt lat="50.602875" lon="5.849811"><ele>228.12</ele><time>2025-05-25T09:44:52Z</time></trkpt>
<trkpt lat="50.601923" lon="5.849081"><ele>227.0</ele><time>2025-05-25T09:44:56Z</time></trkpt>
<trkpt lat="50.597645" lon="5.84561"><ele>220.93</ele><time>2025-05-25T09:44:59Z</time></trkpt>
<trkpt lat="50.597122" lon="5.845167"><ele>211.9</ele><time>2025-05-25T09:45:02Z</time></trkpt>
<trkpt lat="50.596235" lon="5.844503"><ele>204.38</ele><time>2025-05-25T09:45:06Z</time></trkpt>
<trkpt lat="50.595624" lon="5.844146"><ele>198.62</ele><time>2025-05-25T09:45:09Z</time></trkpt>
<trkpt lat="50.595025" lon="5.843902"><ele>200.91</ele><time>2025-05-25T09:45:12Z</time></trkpt>
<trkpt lat="50.59465" lon="5.843803"><ele>196.85</ele><time>2025-05-25T09:45:15Z</time></trkpt>
<trkpt lat="50.593984" lon="5.84372"><ele>191.44</ele><time>2025-05-25T09:45:19Z</time></trkpt>
<trkpt lat="50.59368" lon="5.843716"><ele>188.18</ele><time>2025-05-25T09:45:22Z</time></trkpt>
<trkpt lat="50.593265" lon="5.843736"><ele>187.44</ele><time>2025-05-25T09:45:25Z</time></trkpt>
<trkpt lat="50.592785" lon="5.843808"><ele>186.58</ele><time>2025-05-25T09:45:28Z</time></trkpt>
<trkpt lat="50.59225" lon="5.843921"><ele>185.62</ele><time>2025-05-25T09:45:32Z</time></trkpt>
<trkpt lat="50.590142" lon="5.844372"><ele>182.04</ele><time>2025-05-25T09:45:35Z</time></trkpt>
<trkpt lat="50.589484" lon="5.844482"><ele>175.88</ele><time>2025-05-25T09:45:38Z</time></trkpt>
<trkpt lat="50.588912" lon="5.844632"><ele>171.52</ele><time>2025-05-25T09:45:41Z</time></trkpt>
<trkpt lat="50.587831" lon="5.844777"><ele>163.51</ele><time>2025-05-25T09:45:45Z</time></trkpt>
<trkpt lat="50.587466" lon="5.844789"><ele>160.82</ele><time>2025-05-25T09:45:48Z</time></trkpt>
<trkpt lat="50.586912" lon="5.844794"><ele>161.52</ele><time>2025-05-25T09:45:51Z</time></trkpt>
<trkpt lat="50.585366" lon="5.844726"><ele>158.68</ele><time>2025-05-25T09:45:55Z</time></trkpt>
<trkpt lat="50.585174" lon="5.844734"><ele>160.14</ele><time>2025-05-25T09:45:58Z</time></trkpt>
<trkpt lat="50.584927" lon="5.844808"><ele>163.19</ele><time>2025-05-25T09:46:01Z</time></trkpt>
<trkpt lat="50.584546" lon="5.845002"><ele>166.26</ele><time>2025-05-25T09:46:04Z</time></trkpt>
<trkpt lat="50.58437" lon="5.84514"><ele>166.36</ele><time>2025-05-25T09:46:08Z</time></trkpt>
<trkpt lat="50.584177" lon="5.845353"><ele>166.25</ele><time>2025-05-25T09:46:11Z</time></trkpt>
<trkpt lat="50.584003" lon="5.845592"><ele>167.58</ele><time>2025-05-25T09:46:14Z</time></trkpt>
<trkpt lat="50.583868" lon="5.845828"><ele>168.81</ele><time>2025-05-25T09:46:17Z</time></trkpt>
<trkpt lat="50.583302" lon="5.84709"><ele>174.46</ele><time>2025-05-25T09:46:21Z</time></trkpt>
<trkpt lat="50.583081" lon="5.847537"><ele>176.74</ele><time>2025-05-25T09:46:24Z</time></trkpt>
<trkpt lat="50.582893" lon="5.847856"><ele>178.87</ele><time>2025-05-25T09:46:27Z</time></trkpt>
<trkpt lat="50.582662" lon="5.848149"><ele>180.42</ele><time>2025-05-25T09:46:30Z</time></trkpt>
<trkpt lat="50.582221" lon="5.84862"><ele>181.98</ele><time>2025-05-25T09:46:34Z</time></trkpt>
<trkpt lat="50.581945" lon="5.848926"><ele>183.86</ele><time>2025-05-25T09:46:37Z</time></trkpt>
<trkpt lat="50.581587" lon="5.849462"><ele>186.57</ele><time>2025-05-25T09:46:40Z</time></trkpt>
<trkpt lat="50.580371" lon="5.85137"><ele>195.39</ele><time>2025-05-25T09:46:43Z</time></trkpt>
<trkpt lat="50.580051" lon="5.851908"><ele>197.82</ele><time>2025-05-25T09:46:47Z</time></trkpt>
<trkpt lat="50.579395" lon="5.853308"><ele>203.84</ele><time>2025-05-25T09:46:50Z</time></trkpt>
<trkpt lat="50.579019" lon="5.854044"><ele>207.06</ele><time>2025-05-25T09:46:53Z</time></trkpt>
<trkpt lat="50.578757" lon="5.8545"><ele>209.48</ele><time>2025-05-25T09:46:57Z</time></trkpt>
<trkpt lat="50.578517" lon="5.854868"><ele>210.33</ele><time>2025-05-25T09:47:00Z</time></trkpt>
<trkpt lat="50.578111" lon="5.855432"><ele>217.11</ele><time>2025-05-25T09:47:03Z</time></trkpt>
<trkpt lat="50.577696" lon="5.855935"><ele>223.89</ele><time>2025-05-25T09:47:06Z</time></trkpt>
<trkpt lat="50.577349" lon="5.856303"><ele>226.25</ele><time>2025-05-25T09:47:10Z</time></trkpt>
<trkpt lat="50.576934" lon="5.856685"><ele>231.31</ele><time>2025-05-25T09:47:13Z</time></trkpt>
<trkpt lat="50.576574" lon="5.856971"><ele>235.42</ele><time>2025-05-25T09:47:16Z</time></trkpt>
<trkpt lat="50.576036" lon="5.857328"><ele>235.64</ele><time>2025-05-25T09:47:19Z</time></trkpt>
<trkpt lat="50.575288" lon="5.857688"><ele>242.55</ele><time>2025-05-25T09:47:23Z</time></trkpt>
<trkpt lat="50.574707" lon="5.857874"><ele>246.42</ele><time>2025-05-25T09:47:26Z</time></trkpt>
<trkpt lat="50.574436" lon="5.857937"><ele>248.24</ele><time>2025-05-25T09:47:29Z</time></trkpt>
<trkpt lat="50.573934" lon="5.85801"><ele>254.48</ele><time>2025-05-25T09:47:32Z</time></trkpt>
<trkpt lat="50.573403" lon="5.858021"><ele>254.0</ele><time>2025-05-25T09:47:36Z</time></trkpt>
<trkpt lat="50.572871" lon="5.857983"><ele>260.65</ele><time>2025-05-25T09:47:39Z</time></trkpt>
<trkpt lat="50.572336" lon="5.857908"><ele>264.09</ele><time>2025-05-25T09:47:42Z</time></trkpt>
<trkpt lat="50.566098" lon="5.856666"><ele>291.23</ele><time>2025-05-25T09:47:45Z</time></trkpt>
<trkpt lat="50.565596" lon="5.856599"><ele>297.67</ele><time>2025-05-25T09:47:49Z</time></trkpt>
<trkpt lat="50.565203" lon="5.856585"><ele>300.35</ele><time>2025-05-25T09:47:52Z</time></trkpt>
<trkpt lat="50.564856" lon="5.856611"><ele>302.55</ele><time>2025-05-25T09:47:55Z</time></trkpt>
<trkpt lat="50.564498" lon="5.856678"><ele>304.8</ele><time>2025-05-25T09:47:59Z</time></trkpt>
<trkpt lat="50.564031" lon="5.856806"><ele>306.74</ele><time>2025-05-25T09:48:02Z</time></trkpt>
<trkpt lat="50.563144" lon="5.856977"><ele>317.29</ele><time>2025-05-25T09:48:04Z</time></trkpt>
<trkpt lat="50.561634" lon="5.85738"><ele>323.17</ele><time>2025-05-25T09:48:06Z</time></trkpt>
<trkpt lat="50.561185" lon="5.857474"><ele>324.83</ele><time>2025-05-25T09:48:08Z</time></trkpt>
<trkpt lat="50.560231" lon="5.857691"><ele>325.26</ele><time>2025-05-25T09:48:11Z</time></trkpt>
<trkpt lat="50.559955" lon="5.85774"><ele>325.12</ele><time>2025-05-25T09:48:13Z</time></trkpt>
<trkpt lat="50.559791" lon="5.857733"><ele>325.51</ele><time>2025-05-25T09:48:15Z</time></trkpt>
<trkpt lat="50.559556" lon="5.857666"><ele>324.95</ele><time>2025-05-25T09:48:17Z</time></trkpt>
<trkpt lat="50.559313" lon="5.857535"><ele>323.73</ele><time>2025-05-25T09:48:19Z</time></trkpt>
<trkpt lat="50.559079" lon="5.857324"><ele>323.88</ele><time>2025-05-25T09:48:22Z</time></trkpt>
<trkpt lat="50.558935" lon="5.857143"><ele>324.33</ele><time>2025-05-25T09:48:24Z</time></trkpt>
<trkpt lat="50.558796" lon="5.856916"><ele>323.93</ele><time>2025-05-25T09:48:26Z</time></trkpt>
<trkpt lat="50.5586" lon="5.856523"><ele>322.87</ele><time>2025-05-25T09:48:28Z</time></trkpt>
<trkpt lat="50.558431" lon="5.856357"><ele>320.62</ele><time>2025-05-25T09:48:30Z</time></trkpt>
<trkpt lat="50.558251" lon="5.856232"><ele>320.0</ele><time>2025-05-25T09:48:33Z</time></trkpt>
<trkpt lat="50.558071" lon="5.856186"><ele>320.0</ele><time>2025-05-25T09:48:35Z</time></trkpt>
<trkpt lat="50.557641" lon="5.856206"><ele>319.51</ele><time>2025-05-25T09:48:37Z</time></trkpt>
<trkpt lat="50.557427" lon="5.856269"><ele>318.89</ele><time>2025-05-25T09:48:39Z</time></trkpt>
<trkpt lat="50.557159" lon="5.856395"><ele>319.03</ele><time>2025-05-25T09:48:41Z</time></trkpt>
<trkpt lat="50.556911" lon="5.856569"><ele>320.38</ele><time>2025-05-25T09:48:44Z</time></trkpt>
<trkpt lat="50.556587" lon="5.85686"><ele>321.91</ele><time>2025-05-25T09:48:46Z</time></trkpt>
<trkpt lat="50.556356" lon="5.85716"><ele>322.78</ele><time>2025-05-25T09:48:48Z</time></trkpt>
<trkpt lat="50.555948" lon="5.857708"><ele>324.33</ele><time>2025-05-25T09:48:50Z</time></trkpt>
<trkpt lat="50.55588" lon="5.857704"><ele>324.57</ele><time>2025-05-25T09:48:56Z</time></trkpt>
<trkpt lat="50.55583" lon="5.857739"><ele>324.9</ele><time>2025-05-25T09:49:01Z</time></trkpt>
<trkpt lat="50.555679" lon="5.857753"><ele>326.58</ele><time>2025-05-25T09:49:07Z</time></trkpt>
<trkpt lat="50.55555" lon="5.857636"><ele>327.54</ele><time>2025-05-25T09:49:13Z</time></trkpt>
<trkpt lat="50.555492" lon="5.857558"><ele>327.72</ele><time>2025-05-25T09:49:18Z</time></trkpt>
<trkpt lat="50.554658" lon="5.856104"><ele>333.46</ele><time>2025-05-25T09:49:24Z</time></trkpt>
<trkpt lat="50.549957" lon="5.847854"><ele>325.58</ele><time>2025-05-25T09:49:30Z</time></trkpt>
<trkpt lat="50.549604" lon="5.84728"><ele>322.82</ele><time>2025-05-25T09:49:35Z</time></trkpt>
<trkpt lat="50.549425" lon="5.846993"><ele>320.12</ele><time>2025-05-25T09:49:41Z</time></trkpt>
<trkpt lat="50.549173" lon="5.846523"><ele>317.0</ele><time>2025-05-25T09:49:47Z</time></trkpt>
<trkpt lat="50.54913" lon="5.846642"><ele>317.82</ele><time>2025-05-25T09:49:48Z</time></trkpt>
<trkpt lat="50.549089" lon="5.846831"><ele>318.76</ele><time>2025-05-25T09:49:48Z</time></trkpt>
<trkpt lat="50.549017" lon="5.847073"><ele>320.47</ele><time>2025-05-25T09:49:51Z</time></trkpt>
<trkpt lat="50.548929" lon="5.847279"><ele>322.27</ele><time>2025-05-25T09:49:54Z</time></trkpt>
<trkpt lat="50.547816" lon="5.8489"><ele>329.0</ele><time>2025-05-25T09:49:57Z</time></trkpt>
<trkpt lat="50.547701" lon="5.849099"><ele>328.72</ele><time>2025-05-25T09:50:00Z</time></trkpt>
<trkpt lat="50.547561" lon="5.849396"><ele>328.22</ele><time>2025-05-25T09:50:03Z</time></trkpt>
<trkpt lat="50.547417" lon="5.84982"><ele>327.6</ele><time>2025-05-25T09:50:05Z</time></trkpt>
<trkpt lat="50.547362" lon="5.850039"><ele>327.0</ele><time>2025-05-25T09:50:08Z</time></trkpt>
<trkpt lat="50.54732" lon="5.850286"><ele>326.73</ele><time>2025-05-25T09:50:11Z</time></trkpt>
<trkpt lat="50.547273" lon="5.85079"><ele>328.2</ele><time>2025-05-25T09:50:14Z</time></trkpt>
<trkpt lat="50.547219" lon="5.851137"><ele>330.07</ele><time>2025-05-25T09:50:17Z</time></trkpt>
<trkpt lat="50.547145" lon="5.851378"><ele>330.4</ele><time>2025-05-25T09:50:20Z</time></trkpt>
<trkpt lat="50.547012" lon="5.851658"><ele>330.46</ele><time>2025-05-25T09:50:23Z</time></trkpt>
<trkpt lat="50.546936" lon="5.851769"><ele>330.31</ele><time>2025-05-25T09:50:25Z</time></trkpt>
<trkpt lat="50.546731" lon="5.851982"><ele>329.6</ele><time>2025-05-25T09:50:28Z</time></trkpt>
<trkpt lat="50.54654" lon="5.852094"><ele>329.08</ele><time>2025-05-25T09:50:31Z</time></trkpt>
<trkpt lat="50.546303" lon="5.852142"><ele>328.1</ele><time>2025-05-25T09:50:34Z</time></trkpt>
<trkpt lat="50.54601" lon="5.852098"><ele>325.82</ele><time>2025-05-25T09:50:37Z</time></trkpt>
<trkpt lat="50.545455" lon="5.851899"><ele>320.55</ele><time>2025-05-25T09:50:40Z</time></trkpt>
<trkpt lat="50.545176" lon="5.851768"><ele>317.03</ele><time>2025-05-25T09:50:43Z</time></trkpt>
<trkpt lat="50.544771" lon="5.851518"><ele>311.07</ele><time>2025-05-25T09:50:45Z</time></trkpt>
<trkpt lat="50.544181" lon="5.851072"><ele>308.04</ele><time>2025-05-25T09:50:48Z</time></trkpt>
<trkpt lat="50.543999" lon="5.851007"><ele>306.79</ele><time>2025-05-25T09:50:51Z</time></trkpt>
<trkpt lat="50.542711" lon="5.85079"><ele>302.0</ele><time>2025-05-25T09:50:54Z</time></trkpt>
<trkpt lat="50.542426" lon="5.850696"><ele>301.47</ele><time>2025-05-25T09:50:57Z</time></trkpt>
<trkpt lat="50.542299" lon="5.850619"><ele>300.55</ele><time>2025-05-25T09:51:00Z</time></trkpt>
<trkpt lat="50.542133" lon="5.850479"><ele>299.59</ele><time>2025-05-25T09:51:03Z</time></trkpt>
<trkpt lat="50.540776" lon="5.848842"><ele>296.07</ele><time>2025-05-25T09:51:05Z</time></trkpt>
<trkpt lat="50.540471" lon="5.848561"><ele>297.0</ele><time>2025-05-25T09:51:08Z</time></trkpt>
<trkpt lat="50.539842" lon="5.848175"><ele>296.43</ele><time>2025-05-25T09:51:11Z</time></trkpt>
<trkpt lat="50.539207" lon="5.847924"><ele>293.67</ele><time>2025-05-25T09:51:14Z</time></trkpt>
<trkpt lat="50.538946" lon="5.847787"><ele>293.8</ele><time>2025-05-25T09:51:17Z</time></trkpt>
<trkpt lat="50.538865" lon="5.847691"><ele>293.6</ele><time>2025-05-25T09:51:20Z</time></trkpt>
<trkpt lat="50.538806" lon="5.84758"><ele>292.99</ele><time>2025-05-25T09:51:22Z</time></trkpt>
<trkpt lat="50.538715" lon="5.847315"><ele>292.37</ele><time>2025-05-25T09:51:25Z</time></trkpt>
<trkpt lat="50.537594" lon="5.842947"><ele>287.27</ele><time>2025-05-25T09:51:28Z</time></trkpt>
<trkpt lat="50.537073" lon="5.841226"><ele>285.08</ele><time>2025-05-25T09:51:31Z</time></trkpt>
<trkpt lat="50.537025" lon="5.840911"><ele>284.7</ele><time>2025-05-25T09:51:34Z</time></trkpt>
<trkpt lat="50.536859" lon="5.838706"><ele>278.34</ele><time>2025-05-25T09:51:37Z</time></trkpt>
<trkpt lat="50.536809" lon="5.838315"><ele>276.97</ele><time>2025-05-25T09:51:40Z</time></trkpt>
<trkpt lat="50.536758" lon="5.838139"><ele>276.53</ele><time>2025-05-25T09:51:42Z</time></trkpt>
<trkpt lat="50.536671" lon="5.838005"><ele>276.02</ele><time>2025-05-25T09:51:45Z</time></trkpt>
<trkpt lat="50.536534" lon="5.837859"><ele>275.66</ele><time>2025-05-25T09:51:48Z</time></trkpt>
<trkpt lat="50.53565" lon="5.837196"><ele>272.31</ele><time>2025-05-25T09:51:51Z</time></trkpt>
<trkpt lat="50.535112" lon="5.8368"><ele>267.9</ele><time>2025-05-25T09:51:54Z</time></trkpt>
<trkpt lat="50.534456" lon="5.836425"><ele>257.03</ele><time>2025-05-25T09:51:57Z</time></trkpt>
<trkpt lat="50.534108" lon="5.836281"><ele>254.37</ele><time>2025-05-25T09:52:00Z</time></trkpt>
<trkpt lat="50.533966" lon="5.836294"><ele>252.83</ele><time>2025-05-25T09:52:02Z</time></trkpt>
<trkpt lat="50.533791" lon="5.836421"><ele>250.15</ele><time>2025-05-25T09:52:05Z</time></trkpt>
<trkpt lat="50.533664" lon="5.83657"><ele>247.82</ele><time>2025-05-25T09:52:08Z</time></trkpt>
<trkpt lat="50.533565" lon="5.836757"><ele>246.94</ele><time>2025-05-25T09:52:11Z</time></trkpt>
<trkpt lat="50.533504" lon="5.836937"><ele>246.83</ele><time>2025-05-25T09:52:14Z</time></trkpt>
<trkpt lat="50.53335" lon="5.837658"><ele>246.9</ele><time>2025-05-25T09:52:17Z</time></trkpt>
<trkpt lat="50.533251" lon="5.83787"><ele>246.41</ele><time>2025-05-25T09:52:20Z</time></trkpt>
<trkpt lat="50.533123" lon="5.838035"><ele>245.48</ele><time>2025-05-25T09:52:22Z</time></trkpt>
<trkpt lat="50.532649" lon="5.838385"><ele>248.02</ele><time>2025-05-25T09:52:25Z</time></trkpt>
<trkpt lat="50.532543" lon="5.837757"><ele>247.55</ele><time>2025-05-25T09:52:30Z</time></trkpt>
<trkpt lat="50.532493" lon="5.837562"><ele>246.48</ele><time>2025-05-25T09:52:34Z</time></trkpt>
<trkpt lat="50.531855" lon="5.835682"><ele>242.7</ele><time>2025-05-25T09:52:38Z</time></trkpt>
<trkpt lat="50.531647" lon="5.834979"><ele>243.27</ele><time>2025-05-25T09:52:43Z</time></trkpt>
<trkpt lat="50.531571" lon="5.834634"><ele>242.18</ele><time>2025-05-25T09:52:47Z</time></trkpt>
<trkpt lat="50.531521" lon="5.83425"><ele>240.17</ele><time>2025-05-25T09:52:51Z</time></trkpt>
<trkpt lat="50.531423" lon="5.832123"><ele>233.99</ele><time>2025-05-25T09:52:56Z</time></trkpt>
<trkpt lat="50.531421" lon="5.832071"><ele>233.61</ele><time>2025-05-25T09:53:00Z</time></trkpt>
<trkpt lat="50.531389" lon="5.831257"><ele>232.0</ele><time>2025-05-25T09:53:04Z</time></trkpt>
<trkpt lat="50.531346" lon="5.830927"><ele>232.91</ele><time>2025-05-25T09:53:09Z</time></trkpt>
<trkpt lat="50.531312" lon="5.830777"><ele>232.99</ele><time>2025-05-25T09:53:13Z</time></trkpt>
<trkpt lat="50.530691" lon="5.82904"><ele>226.37</ele><time>2025-05-25T09:53:17Z</time></trkpt>
<trkpt lat="50.530141" lon="5.826993"><ele>216.28</ele><time>2025-05-25T09:53:22Z</time></trkpt>
<trkpt lat="50.530006" lon="5.826642"><ele>213.45</ele><time>2025-05-25T09:53:26Z</time></trkpt>
<trkpt lat="50.529355" lon="5.825217"><ele>207.43</ele><time>2025-05-25T09:53:30Z</time></trkpt>
<trkpt lat="50.52928" lon="5.824984"><ele>206.41</ele><time>2025-05-25T09:53:35Z</time></trkpt>
<trkpt lat="50.529108" lon="5.824157"><ele>200.49</ele><time>2025-05-25T09:53:39Z</time></trkpt>
<trkpt lat="50.528943" lon="5.823365"><ele>194.64</ele><time>2025-05-25T09:53:43Z</time></trkpt>
<trkpt lat="50.528888" lon="5.823176"><ele>192.46</ele><time>2025-05-25T09:53:48Z</time></trkpt>
<trkpt lat="50.528788" lon="5.823042"><ele>193.4</ele><time>2025-05-25T09:53:52Z</time></trkpt>
<trkpt lat="50.528551" lon="5.82288"><ele>195.51</ele><time>2025-05-25T09:53:56Z</time></trkpt>
<trkpt lat="50.528468" lon="5.822767"><ele>195.35</ele><time>2025-05-25T09:54:01Z</time></trkpt>
<trkpt lat="50.528417" lon="5.822648"><ele>193.64</ele><time>2025-05-25T09:54:05Z</time></trkpt>
<trkpt lat="50.528184" lon="5.821718"><ele>179.99</ele><time>2025-05-25T09:54:09Z</time></trkpt>
<trkpt lat="50.528028" lon="5.820581"><ele>174.08</ele><time>2025-05-25T09:54:14Z</time></trkpt>
<trkpt lat="50.527941" lon="5.820236"><ele>171.85</ele><time>2025-05-25T09:54:18Z</time></trkpt>
<trkpt lat="50.527822" lon="5.819873"><ele>170.09</ele><time>2025-05-25T09:54:22Z</time></trkpt>
<trkpt lat="50.527761" lon="5.819726"><ele>169.15</ele><time>2025-05-25T09:54:27Z</time></trkpt>
<trkpt lat="50.527681" lon="5.819621"><ele>169.34</ele><time>2025-05-25T09:54:31Z</time></trkpt>
<trkpt lat="50.527395" lon="5.819236"><ele>174.05</ele><time>2025-05-25T09:54:35Z</time></trkpt>
<trkpt lat="50.527481" lon="5.819078"><ele>173.11</ele><time>2025-05-25T09:54:37Z</time></trkpt>
<trkpt lat="50.527508" lon="5.818992"><ele>173.14</ele><time>2025-05-25T09:54:38Z</time></trkpt>
<trkpt lat="50.527291" lon="5.819299"><ele>175.94</ele><time>2025-05-25T09:54:41Z</time></trkpt>
<trkpt lat="50.527155" lon="5.81961"><ele>176.57</ele><time>2025-05-25T09:54:45Z</time></trkpt>
<trkpt lat="50.526611" lon="5.820479"><ele>177.72</ele><time>2025-05-25T09:54:51Z</time></trkpt>
<trkpt lat="50.526426" lon="5.820721"><ele>178.62</ele><time>2025-05-25T09:54:57Z</time></trkpt>
<trkpt lat="50.526244" lon="5.820916"><ele>178.73</ele><time>2025-05-25T09:55:03Z</time></trkpt>
<trkpt lat="50.526099" lon="5.821028"><ele>178.53</ele><time>2025-05-25T09:55:09Z</time></trkpt>
<trkpt lat="50.525979" lon="5.821087"><ele>177.91</ele><time>2025-05-25T09:55:15Z</time></trkpt>
<trkpt lat="50.525834" lon="5.821119"><ele>177.94</ele><time>2025-05-25T09:55:21Z</time></trkpt>
<trkpt lat="50.525458" lon="5.821076"><ele>180.0</ele><time>2025-05-25T09:55:27Z</time></trkpt>
<trkpt lat="50.524694" lon="5.820897"><ele>186.51</ele><time>2025-05-25T09:55:33Z</time></trkpt>
<trkpt lat="50.523594" lon="5.820384"><ele>188.72</ele><time>2025-05-25T09:55:39Z</time></trkpt>
<trkpt lat="50.523408" lon="5.820253"><ele>186.16</ele><time>2025-05-25T09:55:45Z</time></trkpt>
<trkpt lat="50.52326" lon="5.820111"><ele>184.32</ele><time>2025-05-25T09:55:51Z</time></trkpt>
<trkpt lat="50.522112" lon="5.818684"><ele>180.18</ele><time>2025-05-25T09:55:57Z</time></trkpt>
<trkpt lat="50.52166" lon="5.81799"><ele>183.26</ele><time>2025-05-25T09:56:03Z</time></trkpt>
<trkpt lat="50.521447" lon="5.817714"><ele>185.66</ele><time>2025-05-25T09:56:09Z</time></trkpt>
<trkpt lat="50.521178" lon="5.817463"><ele>190.29</ele><time>2025-05-25T09:56:15Z</time></trkpt>
<trkpt lat="50.520812" lon="5.817187"><ele>192.44</ele><time>2025-05-25T09:56:21Z</time></trkpt>
<trkpt lat="50.520498" lon="5.817019"><ele>194.6</ele><time>2025-05-25T09:56:27Z</time></trkpt>
<trkpt lat="50.520505" lon="5.816945"><ele>195.99</ele><time>2025-05-25T09:56:31Z</time></trkpt>
<trkpt lat="50.520493" lon="5.816891"><ele>196.82</ele><time>2025-05-25T09:56:35Z</time></trkpt>
<trkpt lat="50.520402" lon="5.816732"><ele>199.47</ele><time>2025-05-25T09:56:39Z</time></trkpt>
<trkpt lat="50.520242" lon="5.81656"><ele>202.63</ele><time>2025-05-25T09:56:42Z</time></trkpt>
<trkpt lat="50.51941" lon="5.815877"><ele>209.17</ele><time>2025-05-25T09:56:46Z</time></trkpt>
<trkpt lat="50.519038" lon="5.815618"><ele>207.48</ele><time>2025-05-25T09:56:50Z</time></trkpt>
<trkpt lat="50.518508" lon="5.81531"><ele>212.01</ele><time>2025-05-25T09:56:54Z</time></trkpt>
<trkpt lat="50.515628" lon="5.813855"><ele>220.36</ele><time>2025-05-25T09:56:58Z</time></trkpt>
<trkpt lat="50.51556" lon="5.813791"><ele>221.05</ele><time>2025-05-25T09:57:02Z</time></trkpt>
<trkpt lat="50.515506" lon="5.813645"><ele>222.61</ele><time>2025-05-25T09:57:06Z</time></trkpt>
<trkpt lat="50.515513" lon="5.813536"><ele>223.8</ele><time>2025-05-25T09:57:09Z</time></trkpt>
<trkpt lat="50.515565" lon="5.813409"><ele>225.16</ele><time>2025-05-25T09:57:13Z</time></trkpt>
<trkpt lat="50.516254" lon="5.812749"><ele>229.21</ele><time>2025-05-25T09:57:17Z</time></trkpt>
<trkpt lat="50.516389" lon="5.812589"><ele>230.36</ele><time>2025-05-25T09:57:21Z</time></trkpt>
<trkpt lat="50.516457" lon="5.812434"><ele>231.42</ele><time>2025-05-25T09:57:25Z</time></trkpt>
<trkpt lat="50.516482" lon="5.812323"><ele>232.06</ele><time>2025-05-25T09:57:29Z</time></trkpt>
<trkpt lat="50.516488" lon="5.812107"><ele>232.76</ele><time>2025-05-25T09:57:32Z</time></trkpt>
<trkpt lat="50.516469" lon="5.811986"><ele>233.07</ele><time>2025-05-25T09:57:36Z</time></trkpt>
<trkpt lat="50.516412" lon="5.8118"><ele>234.22</ele><time>2025-05-25T09:57:40Z</time></trkpt>
<trkpt lat="50.516375" lon="5.811732"><ele>234.85</ele><time>2025-05-25T09:57:44Z</time></trkpt>
<trkpt lat="50.516197" lon="5.811537"><ele>236.56</ele><time>2025-05-25T09:57:48Z</time></trkpt>
<trkpt lat="50.516047" lon="5.811415"><ele>237.88</ele><time>2025-05-25T09:57:52Z</time></trkpt>
<trkpt lat="50.514211" lon="5.810121"><ele>245.56</ele><time>2025-05-25T09:57:56Z</time></trkpt>
<trkpt lat="50.513758" lon="5.809752"><ele>248.68</ele><time>2025-05-25T09:57:59Z</time></trkpt>
<trkpt lat="50.513249" lon="5.809175"><ele>257.91</ele><time>2025-05-25T09:58:03Z</time></trkpt>
<trkpt lat="50.511635" lon="5.806922"><ele>265.0</ele><time>2025-05-25T09:58:07Z</time></trkpt>
<trkpt lat="50.510041" lon="5.805385"><ele>272.22</ele><time>2025-05-25T09:58:11Z</time></trkpt>
<trkpt lat="50.509881" lon="5.805224"><ele>274.58</ele><time>2025-05-25T09:58:15Z</time></trkpt>
<trkpt lat="50.508152" lon="5.803081"><ele>282.06</ele><time>2025-05-25T09:58:19Z</time></trkpt>
<trkpt lat="50.508008" lon="5.802875"><ele>284.64</ele><time>2025-05-25T09:58:22Z</time></trkpt>
<trkpt lat="50.507948" lon="5.802726"><ele>285.89</ele><time>2025-05-25T09:58:26Z</time></trkpt>
<trkpt lat="50.507923" lon="5.802617"><ele>286.26</ele><time>2025-05-25T09:58:30Z</time></trkpt>
<trkpt lat="50.507917" lon="5.80248"><ele>286.53</ele><time>2025-05-25T09:58:34Z</time></trkpt>
<trkpt lat="50.507944" lon="5.802266"><ele>286.9</ele><time>2025-05-25T09:58:38Z</time></trkpt>
<trkpt lat="50.508348" lon="5.800799"><ele>300.28</ele><time>2025-05-25T09:58:42Z</time></trkpt>
<trkpt lat="50.508472" lon="5.800302"><ele>305.23</ele><time>2025-05-25T09:58:45Z</time></trkpt>
<trkpt lat="50.508482" lon="5.800104"><ele>306.98</ele><time>2025-05-25T09:58:49Z</time></trkpt>
<trkpt lat="50.508473" lon="5.800003"><ele>307.96</ele><time>2025-05-25T09:58:53Z</time></trkpt>
<trkpt lat="50.508423" lon="5.799826"><ele>308.15</ele><time>2025-05-25T09:58:57Z</time></trkpt>
<trkpt lat="50.508354" lon="5.799707"><ele>308.78</ele><time>2025-05-25T09:59:01Z</time></trkpt>
<trkpt lat="50.507441" lon="5.798802"><ele>310.08</ele><time>2025-05-25T09:59:05Z</time></trkpt>
<trkpt lat="50.506705" lon="5.797999"><ele>315.24</ele><time>2025-05-25T09:59:09Z</time></trkpt>
<trkpt lat="50.5065" lon="5.797861"><ele>316.68</ele><time>2025-05-25T09:59:12Z</time></trkpt>
<trkpt lat="50.505538" lon="5.797344"><ele>322.13</ele><time>2025-05-25T09:59:16Z</time></trkpt>
<trkpt lat="50.505357" lon="5.797213"><ele>323.46</ele><time>2025-05-25T09:59:20Z</time></trkpt>
<trkpt lat="50.505198" lon="5.797042"><ele>325.23</ele><time>2025-05-25T09:59:24Z</time></trkpt>
<trkpt lat="50.505093" lon="5.796865"><ele>326.61</ele><time>2025-05-25T09:59:28Z</time></trkpt>
<trkpt lat="50.504981" lon="5.796614"><ele>328.26</ele><time>2025-05-25T09:59:32Z</time></trkpt>
<trkpt lat="50.504325" lon="5.794643"><ele>335.43</ele><time>2025-05-25T09:59:35Z</time></trkpt>
<trkpt lat="50.503993" lon="5.793591"><ele>332.97</ele><time>2025-05-25T09:59:39Z</time></trkpt>
<trkpt lat="50.503814" lon="5.793098"><ele>332.61</ele><time>2025-05-25T09:59:43Z</time></trkpt>
<trkpt lat="50.503064" lon="5.791567"><ele>326.08</ele><time>2025-05-25T09:59:47Z</time></trkpt>
<trkpt lat="50.502975" lon="5.791294"><ele>325.42</ele><time>2025-05-25T09:59:51Z</time></trkpt>
<trkpt lat="50.502929" lon="5.790988"><ele>325.53</ele><time>2025-05-25T09:59:55Z</time></trkpt>
<trkpt lat="50.502743" lon="5.788932"><ele>328.6</ele><time>2025-05-25T09:59:59Z</time></trkpt>
<trkpt lat="50.502707" lon="5.788731"><ele>327.81</ele><time>2025-05-25T10:00:02Z</time></trkpt>
<trkpt lat="50.502631" lon="5.788516"><ele>326.94</ele><time>2025-05-25T10:00:06Z</time></trkpt>
<trkpt lat="50.502587" lon="5.788457"><ele>326.62</ele><time>2025-05-25T10:00:10Z</time></trkpt>
<trkpt lat="50.502437" lon="5.788408"><ele>325.55</ele><time>2025-05-25T10:00:14Z</time></trkpt>
<trkpt lat="50.502313" lon="5.788238"><ele>324.99</ele><time>2025-05-25T10:00:18Z</time></trkpt>
<trkpt lat="50.502218" lon="5.788146"><ele>324.65</ele><time>2025-05-25T10:00:22Z</time></trkpt>
<trkpt lat="50.501836" lon="5.788022"><ele>323.34</ele><time>2025-05-25T10:00:25Z</time></trkpt>
<trkpt lat="50.501586" lon="5.787786"><ele>322.67</ele><time>2025-05-25T10:00:29Z</time></trkpt>
<trkpt lat="50.501482" lon="5.787787"><ele>322.28</ele><time>2025-05-25T10:00:31Z</time></trkpt>
<trkpt lat="50.501371" lon="5.78775"><ele>321.91</ele><time>2025-05-25T10:00:33Z</time></trkpt>
<trkpt lat="50.50092" lon="5.787507"><ele>319.27</ele><time>2025-05-25T10:00:35Z</time></trkpt>
<trkpt lat="50.500747" lon="5.787452"><ele>318.92</ele><time>2025-05-25T10:00:36Z</time></trkpt>
<trkpt lat="50.500638" lon="5.787443"><ele>318.64</ele><time>2025-05-25T10:00:38Z</time></trkpt>
<trkpt lat="50.500366" lon="5.787473"><ele>318.19</ele><time>2025-05-25T10:00:40Z</time></trkpt>
<trkpt lat="50.500296" lon="5.787506"><ele>317.94</ele><time>2025-05-25T10:00:41Z</time></trkpt>
<trkpt lat="50.499583" lon="5.788303"><ele>319.66</ele><time>2025-05-25T10:00:43Z</time></trkpt>
<trkpt lat="50.499459" lon="5.788387"><ele>319.77</ele><time>2025-05-25T10:00:45Z</time></trkpt>
<trkpt lat="50.499068" lon="5.788451"><ele>318.65</ele><time>2025-05-25T10:00:47Z</time></trkpt>
<trkpt lat="50.498612" lon="5.788569"><ele>315.3</ele><time>2025-05-25T10:00:48Z</time></trkpt>
<trkpt lat="50.498421" lon="5.788564"><ele>313.96</ele><time>2025-05-25T10:00:50Z</time></trkpt>
<trkpt lat="50.498157" lon="5.788456"><ele>314.11</ele><time>2025-05-25T10:00:52Z</time></trkpt>
<trkpt lat="50.497878" lon="5.788255"><ele>314.74</ele><time>2025-05-25T10:00:54Z</time></trkpt>
<trkpt lat="50.497446" lon="5.787681"><ele>310.82</ele><time>2025-05-25T10:00:55Z</time></trkpt>
<trkpt lat="50.497307" lon="5.787439"><ele>309.22</ele><time>2025-05-25T10:00:57Z</time></trkpt>
<trkpt lat="50.497249" lon="5.787292"><ele>308.38</ele><time>2025-05-25T10:00:59Z</time></trkpt>
<trkpt lat="50.497187" lon="5.787058"><ele>307.41</ele><time>2025-05-25T10:01:01Z</time></trkpt>
<trkpt lat="50.497044" lon="5.786279"><ele>306.54</ele><time>2025-05-25T10:01:02Z</time></trkpt>
<trkpt lat="50.497" lon="5.786107"><ele>306.24</ele><time>2025-05-25T10:01:04Z</time></trkpt>
<trkpt lat="50.49694" lon="5.785961"><ele>306.58</ele><time>2025-05-25T10:01:06Z</time></trkpt>
<trkpt lat="50.496864" lon="5.78586"><ele>306.84</ele><time>2025-05-25T10:01:08Z</time></trkpt>
<trkpt lat="50.496774" lon="5.785828"><ele>306.21</ele><time>2025-05-25T10:01:09Z</time></trkpt>
<trkpt lat="50.496699" lon="5.785838"><ele>305.31</ele><time>2025-05-25T10:01:11Z</time></trkpt>
<trkpt lat="50.496633" lon="5.785863"><ele>304.8</ele><time>2025-05-25T10:01:13Z</time></trkpt>
<trkpt lat="50.496486" lon="5.785969"><ele>304.19</ele><time>2025-05-25T10:01:15Z</time></trkpt>
<trkpt lat="50.496412" lon="5.786075"><ele>303.31</ele><time>2025-05-25T10:01:16Z</time></trkpt>
<trkpt lat="50.496274" lon="5.786386"><ele>301.6</ele><time>2025-05-25T10:01:18Z</time></trkpt>
<trkpt lat="50.496217" lon="5.786444"><ele>301.06</ele><time>2025-05-25T10:01:20Z</time></trkpt>
<trkpt lat="50.496153" lon="5.786468"><ele>300.62</ele><time>2025-05-25T10:01:22Z</time></trkpt>
<trkpt lat="50.495185" lon="5.786471"><ele>288.32</ele><time>2025-05-25T10:01:23Z</time></trkpt>
<trkpt lat="50.494606" lon="5.786515"><ele>280.64</ele><time>2025-05-25T10:01:25Z</time></trkpt>
<trkpt lat="50.494369" lon="5.786478"><ele>278.22</ele><time>2025-05-25T10:01:27Z</time></trkpt>
<trkpt lat="50.494121" lon="5.786342"><ele>276.85</ele><time>2025-05-25T10:01:29Z</time></trkpt>
<trkpt lat="50.493634" lon="5.785856"><ele>274.16</ele><time>2025-05-25T10:01:30Z</time></trkpt>
<trkpt lat="50.493338" lon="5.785503"><ele>271.65</ele><time>2025-05-25T10:01:32Z</time></trkpt>
<trkpt lat="50.492999" lon="5.784949"><ele>270.56</ele><time>2025-05-25T10:01:34Z</time></trkpt>
<trkpt lat="50.492874" lon="5.784848"><ele>269.47</ele><time>2025-05-25T10:01:36Z</time></trkpt>
<trkpt lat="50.492754" lon="5.784822"><ele>268.23</ele><time>2025-05-25T10:01:37Z</time></trkpt>
<trkpt lat="50.492638" lon="5.784861"><ele>267.75</ele><time>2025-05-25T10:01:39Z</time></trkpt>
<trkpt lat="50.49214" lon="5.78523"><ele>268.6</ele><time>2025-05-25T10:01:41Z</time></trkpt>
<trkpt lat="50.49202" lon="5.785258"><ele>269.46</ele><time>2025-05-25T10:01:43Z</time></trkpt>
<trkpt lat="50.491908" lon="5.785211"><ele>270.26</ele><time>2025-05-25T10:01:44Z</time></trkpt>
<trkpt lat="50.491851" lon="5.785146"><ele>270.67</ele><time>2025-05-25T10:01:46Z</time></trkpt>
<trkpt lat="50.491778" lon="5.785001"><ele>271.2</ele><time>2025-05-25T10:01:48Z</time></trkpt>
<trkpt lat="50.491605" lon="5.78454"><ele>273.44</ele><time>2025-05-25T10:01:50Z</time></trkpt>
<trkpt lat="50.491499" lon="5.78432"><ele>274.65</ele><time>2025-05-25T10:01:51Z</time></trkpt>
<trkpt lat="50.491383" lon="5.784175"><ele>275.97</ele><time>2025-05-25T10:01:53Z</time></trkpt>
<trkpt lat="50.490569" lon="5.78351"><ele>280.32</ele><time>2025-05-25T10:01:55Z</time></trkpt>
<trkpt lat="50.490496" lon="5.783486"><ele>280.66</ele><time>2025-05-25T10:01:57Z</time></trkpt>
<trkpt lat="50.49028" lon="5.783699"><ele>280.36</ele><time>2025-05-25T10:01:58Z</time></trkpt>
<trkpt lat="50.489702" lon="5.784449"><ele>272.98</ele><time>2025-05-25T10:02:00Z</time></trkpt>
<trkpt lat="50.489593" lon="5.784738"><ele>272.43</ele><time>2025-05-25T10:02:02Z</time></trkpt>
<trkpt lat="50.489513" lon="5.785069"><ele>272.51</ele><time>2025-05-25T10:02:04Z</time></trkpt>
<trkpt lat="50.489374" lon="5.785392"><ele>273.41</ele><time>2025-05-25T10:02:05Z</time></trkpt>
<trkpt lat="50.487712" lon="5.788073"><ele>287.0</ele><time>2025-05-25T10:02:07Z</time></trkpt>
<trkpt lat="50.487645" lon="5.788194"><ele>287.0</ele><time>2025-05-25T10:02:09Z</time></trkpt>
<trkpt lat="50.487553" lon="5.78846"><ele>287.45</ele><time>2025-05-25T10:02:11Z</time></trkpt>
<trkpt lat="50.487912" lon="5.788802"><ele>288.69</ele><time>2025-05-25T10:02:13Z</time></trkpt>
<trkpt lat="50.488053" lon="5.788964"><ele>289.27</ele><time>2025-05-25T10:02:16Z</time></trkpt>
<trkpt lat="50.488169" lon="5.789176"><ele>289.22</ele><time>2025-05-25T10:02:19Z</time></trkpt>
<trkpt lat="50.488269" lon="5.789473"><ele>289.46</ele><time>2025-05-25T10:02:22Z</time></trkpt>
<trkpt lat="50.488344" lon="5.789984"><ele>289.91</ele><time>2025-05-25T10:02:25Z</time></trkpt>
<trkpt lat="50.488377" lon="5.790154"><ele>289.84</ele><time>2025-05-25T10:02:27Z</time></trkpt>
<trkpt lat="50.487482" lon="5.790412"><ele>294.0</ele><time>2025-05-25T10:02:32Z</time></trkpt>
<trkpt lat="50.487148" lon="5.790511"><ele>294.49</ele><time>2025-05-25T10:02:37Z</time></trkpt>
<trkpt lat="50.487008" lon="5.790533"><ele>295.48</ele><time>2025-05-25T10:02:42Z</time></trkpt>
<trkpt lat="50.486827" lon="5.790494"><ele>296.2</ele><time>2025-05-25T10:02:46Z</time></trkpt>
<trkpt lat="50.485027" lon="5.789945"><ele>303.7</ele><time>2025-05-25T10:02:51Z</time></trkpt>
<trkpt lat="50.483979" lon="5.789637"><ele>313.35</ele><time>2025-05-25T10:02:56Z</time></trkpt>
<trkpt lat="50.483765" lon="5.789631"><ele>315.79</ele><time>2025-05-25T10:03:00Z</time></trkpt>
<trkpt lat="50.483581" lon="5.789737"><ele>318.07</ele><time>2025-05-25T10:03:05Z</time></trkpt>
<trkpt lat="50.482639" lon="5.79058"><ele>322.54</ele><time>2025-05-25T10:03:10Z</time></trkpt>
<trkpt lat="50.482465" lon="5.79069"><ele>323.8</ele><time>2025-05-25T10:03:14Z</time></trkpt>
<trkpt lat="50.481999" lon="5.790901"><ele>327.61</ele><time>2025-05-25T10:03:19Z</time></trkpt>
<trkpt lat="50.481729" lon="5.791094"><ele>328.77</ele><time>2025-05-25T10:03:24Z</time></trkpt>
<trkpt lat="50.481513" lon="5.791301"><ele>330.79</ele><time>2025-05-25T10:03:29Z</time></trkpt>
<trkpt lat="50.480894" lon="5.79199"><ele>337.56</ele><time>2025-05-25T10:03:33Z</time></trkpt>
<trkpt lat="50.480682" lon="5.7922"><ele>339.59</ele><time>2025-05-25T10:03:38Z</time></trkpt>
<trkpt lat="50.480128" lon="5.792598"><ele>342.89</ele><time>2025-05-25T10:03:43Z</time></trkpt>
<trkpt lat="50.479683" lon="5.792838"><ele>346.42</ele><time>2025-05-25T10:03:47Z</time></trkpt>
<trkpt lat="50.479434" lon="5.792939"><ele>349.06</ele><time>2025-05-25T10:03:52Z</time></trkpt>
<trkpt lat="50.478591" lon="5.793126"><ele>352.54</ele><time>2025-05-25T10:03:57Z</time></trkpt>
<trkpt lat="50.478141" lon="5.79327"><ele>358.85</ele><time>2025-05-25T10:04:01Z</time></trkpt>
<trkpt lat="50.477836" lon="5.793433"><ele>361.94</ele><time>2025-05-25T10:04:06Z</time></trkpt>
<trkpt lat="50.477352" lon="5.793756"><ele>366.59</ele><time>2025-05-25T10:04:11Z</time></trkpt>
<trkpt lat="50.477127" lon="5.793939"><ele>369.03</ele><time>2025-05-25T10:04:16Z</time></trkpt>
<trkpt lat="50.476967" lon="5.794117"><ele>370.75</ele><time>2025-05-25T10:04:20Z</time></trkpt>
<trkpt lat="50.476415" lon="5.795018"><ele>373.88</ele><time>2025-05-25T10:04:25Z</time></trkpt>
<trkpt lat="50.476222" lon="5.795228"><ele>375.53</ele><time>2025-05-25T10:04:30Z</time></trkpt>
<trkpt lat="50.475992" lon="5.795386"><ele>376.65</ele><time>2025-05-25T10:04:34Z</time></trkpt>
<trkpt lat="50.475746" lon="5.795471"><ele>377.1</ele><time>2025-05-25T10:04:39Z</time></trkpt>
<trkpt lat="50.475437" lon="5.795494"><ele>377.65</ele><time>2025-05-25T10:04:44Z</time></trkpt>
<trkpt lat="50.475352" lon="5.795448"><ele>378.12</ele><time>2025-05-25T10:04:48Z</time></trkpt>
<trkpt lat="50.475206" lon="5.795305"><ele>379.13</ele><time>2025-05-25T10:04:53Z</time></trkpt>
<trkpt lat="50.475214" lon="5.795368"><ele>378.83</ele><time>2025-05-25T10:04:54Z</time></trkpt>
<trkpt lat="50.475187" lon="5.795433"><ele>378.59</ele><time>2025-05-25T10:04:54Z</time></trkpt>
<trkpt lat="50.47513" lon="5.795459"><ele>378.53</ele><time>2025-05-25T10:04:58Z</time></trkpt>
<trkpt lat="50.474966" lon="5.795444"><ele>378.73</ele><time>2025-05-25T10:05:03Z</time></trkpt>
<trkpt lat="50.473706" lon="5.795262"><ele>376.11</ele><time>2025-05-25T10:05:07Z</time></trkpt>
<trkpt lat="50.473485" lon="5.795184"><ele>376.07</ele><time>2025-05-25T10:05:11Z</time></trkpt>
<trkpt lat="50.470975" lon="5.794079"><ele>379.12</ele><time>2025-05-25T10:05:16Z</time></trkpt>
<trkpt lat="50.470436" lon="5.793954"><ele>380.96</ele><time>2025-05-25T10:05:20Z</time></trkpt>
<trkpt lat="50.470255" lon="5.793968"><ele>381.45</ele><time>2025-05-25T10:05:24Z</time></trkpt>
<trkpt lat="50.469871" lon="5.794057"><ele>381.67</ele><time>2025-05-25T10:05:29Z</time></trkpt>
<trkpt lat="50.467855" lon="5.794842"><ele>383.88</ele><time>2025-05-25T10:05:33Z</time></trkpt>
<trkpt lat="50.467618" lon="5.794995"><ele>383.45</ele><time>2025-05-25T10:05:37Z</time></trkpt>
<trkpt lat="50.467433" lon="5.795191"><ele>382.55</ele><time>2025-05-25T10:05:41Z</time></trkpt>
<trkpt lat="50.46732" lon="5.795364"><ele>382.33</ele><time>2025-05-25T10:05:46Z</time></trkpt>
<trkpt lat="50.466497" lon="5.797139"><ele>389.33</ele><time>2025-05-25T10:05:50Z</time></trkpt>
<trkpt lat="50.465193" lon="5.799994"><ele>385.62</ele><time>2025-05-25T10:05:54Z</time></trkpt>
<trkpt lat="50.464901" lon="5.799628"><ele>386.23</ele><time>2025-05-25T10:06:03Z</time></trkpt>
<trkpt lat="50.464425" lon="5.798857"><ele>389.27</ele><time>2025-05-25T10:06:11Z</time></trkpt>
<trkpt lat="50.464369" lon="5.798757"><ele>390.15</ele><time>2025-05-25T10:06:19Z</time></trkpt>
<trkpt lat="50.463982" lon="5.798118"><ele>396.1</ele><time>2025-05-25T10:06:27Z</time></trkpt>
<trkpt lat="50.463475" lon="5.797211"><ele>406.56</ele><time>2025-05-25T10:06:35Z</time></trkpt>
<trkpt lat="50.463244" lon="5.796885"><ele>411.68</ele><time>2025-05-25T10:06:43Z</time></trkpt>
<trkpt lat="50.463071" lon="5.796725"><ele>412.78</ele><time>2025-05-25T10:06:51Z</time></trkpt>
<trkpt lat="50.461878" lon="5.795763"><ele>425.54</ele><time>2025-05-25T10:06:59Z</time></trkpt>
<trkpt lat="50.461545" lon="5.79663"><ele>419.27</ele><time>2025-05-25T10:07:10Z</time></trkpt>
<trkpt lat="50.460828" lon="5.798584"><ele>419.02</ele><time>2025-05-25T10:07:21Z</time></trkpt>
<trkpt lat="50.460684" lon="5.798909"><ele>418.54</ele><time>2025-05-25T10:07:32Z</time></trkpt>
<trkpt lat="50.460431" lon="5.799319"><ele>418.9</ele><time>2025-05-25T10:07:42Z</time></trkpt>
<trkpt lat="50.459004" lon="5.801468"><ele>423.64</ele><time>2025-05-25T10:07:53Z</time></trkpt>
<trkpt lat="50.458947" lon="5.801388"><ele>424.38</ele><time>2025-05-25T10:07:57Z</time></trkpt>
<trkpt lat="50.458865" lon="5.801322"><ele>425.26</ele><time>2025-05-25T10:08:02Z</time></trkpt>
<trkpt lat="50.457998" lon="5.800927"><ele>431.75</ele><time>2025-05-25T10:08:06Z</time></trkpt>
<trkpt lat="50.457687" lon="5.800836"><ele>433.66</ele><time>2025-05-25T10:08:10Z</time></trkpt>
<trkpt lat="50.457202" lon="5.800742"><ele>437.1</ele><time>2025-05-25T10:08:15Z</time></trkpt>
<trkpt lat="50.456845" lon="5.800646"><ele>438.79</ele><time>2025-05-25T10:08:19Z</time></trkpt>
<trkpt lat="50.456839" lon="5.800827"><ele>438.39</ele><time>2025-05-25T10:08:23Z</time></trkpt>
<trkpt lat="50.456887" lon="5.801341"><ele>436.55</ele><time>2025-05-25T10:08:28Z</time></trkpt>
<trkpt lat="50.456879" lon="5.801539"><ele>436.06</ele><time>2025-05-25T10:08:32Z</time></trkpt>
<trkpt lat="50.45667" lon="5.802544"><ele>437.96</ele><time>2025-05-25T10:08:37Z</time></trkpt>
<trkpt lat="50.456474" lon="5.803401"><ele>438.39</ele><time>2025-05-25T10:08:41Z</time></trkpt>
<trkpt lat="50.456398" lon="5.803632"><ele>438.94</ele><time>2025-05-25T10:08:46Z</time></trkpt>
<trkpt lat="50.456299" lon="5.803811"><ele>439.23</ele><time>2025-05-25T10:08:50Z</time></trkpt>
<trkpt lat="50.45621" lon="5.803915"><ele>439.61</ele><time>2025-05-25T10:08:54Z</time></trkpt>
<trkpt lat="50.455906" lon="5.804155"><ele>441.48</ele><time>2025-05-25T10:08:59Z</time></trkpt>
<trkpt lat="50.455733" lon="5.803624"><ele>442.45</ele><time>2025-05-25T10:09:03Z</time></trkpt>
<trkpt lat="50.455577" lon="5.803296"><ele>444.82</ele><time>2025-05-25T10:09:06Z</time></trkpt>
<trkpt lat="50.455361" lon="5.803045"><ele>447.4</ele><time>2025-05-25T10:09:10Z</time></trkpt>
<trkpt lat="50.455157" lon="5.80288"><ele>448.0</ele><time>2025-05-25T10:09:14Z</time></trkpt>
<trkpt lat="50.45319" lon="5.801892"><ele>459.03</ele><time>2025-05-25T10:09:17Z</time></trkpt>
<trkpt lat="50.452954" lon="5.80173"><ele>461.1</ele><time>2025-05-25T10:09:21Z</time></trkpt>
<trkpt lat="50.452836" lon="5.801592"><ele>462.1</ele><time>2025-05-25T10:09:25Z</time></trkpt>
<trkpt lat="50.452647" lon="5.801273"><ele>463.19</ele><time>2025-05-25T10:09:28Z</time></trkpt>
<trkpt lat="50.451956" lon="5.799686"><ele>470.75</ele><time>2025-05-25T10:09:32Z</time></trkpt>
<trkpt lat="50.451649" lon="5.799002"><ele>472.19</ele><time>2025-05-25T10:09:36Z</time></trkpt>
<trkpt lat="50.451561" lon="5.798845"><ele>473.3</ele><time>2025-05-25T10:09:40Z</time></trkpt>
<trkpt lat="50.451456" lon="5.798703"><ele>474.94</ele><time>2025-05-25T10:09:43Z</time></trkpt>
<trkpt lat="50.451361" lon="5.79861"><ele>476.2</ele><time>2025-05-25T10:09:47Z</time></trkpt>
<trkpt lat="50.450172" lon="5.797733"><ele>487.68</ele><time>2025-05-25T10:09:51Z</time></trkpt>
<trkpt lat="50.449158" lon="5.796992"><ele>495.2</ele><time>2025-05-25T10:09:54Z</time></trkpt>
<trkpt lat="50.448915" lon="5.79684"><ele>495.19</ele><time>2025-05-25T10:09:58Z</time></trkpt>
<trkpt lat="50.441804" lon="5.793538"><ele>538.12</ele><time>2025-05-25T10:10:02Z</time></trkpt>
<trkpt lat="50.441119" lon="5.793335"><ele>538.03</ele><time>2025-05-25T10:10:05Z</time></trkpt>
<trkpt lat="50.437125" lon="5.792769"><ele>508.97</ele><time>2025-05-25T10:10:09Z</time></trkpt>
<trkpt lat="50.435182" lon="5.792492"><ele>509.92</ele><time>2025-05-25T10:10:13Z</time></trkpt>
<trkpt lat="50.429221" lon="5.791643"><ele>520.84</ele><time>2025-05-25T10:10:17Z</time></trkpt>
<trkpt lat="50.428842" lon="5.791639"><ele>524.91</ele><time>2025-05-25T10:10:20Z</time></trkpt>
<trkpt lat="50.428719" lon="5.791701"><ele>524.92</ele><time>2025-05-25T10:10:24Z</time></trkpt>
<trkpt lat="50.428616" lon="5.791783"><ele>524.59</ele><time>2025-05-25T10:10:28Z</time></trkpt>
<trkpt lat="50.428516" lon="5.791897"><ele>523.83</ele><time>2025-05-25T10:10:31Z</time></trkpt>
<trkpt lat="50.428436" lon="5.792027"><ele>522.89</ele><time>2025-05-25T10:10:35Z</time></trkpt>
<trkpt lat="50.428369" lon="5.792176"><ele>521.57</ele><time>2025-05-25T10:10:39Z</time></trkpt>
<trkpt lat="50.428283" lon="5.792442"><ele>519.99</ele><time>2025-05-25T10:10:42Z</time></trkpt>
<trkpt lat="50.427741" lon="5.794559"><ele>511.18</ele><time>2025-05-25T10:10:46Z</time></trkpt>
<trkpt lat="50.427585" lon="5.794971"><ele>507.32</ele><time>2025-05-25T10:10:50Z</time></trkpt>
<trkpt lat="50.427501" lon="5.795147"><ele>507.53</ele><time>2025-05-25T10:10:54Z</time></trkpt>
<trkpt lat="50.427256" lon="5.795502"><ele>503.72</ele><time>2025-05-25T10:10:57Z</time></trkpt>
<trkpt lat="50.427068" lon="5.795699"><ele>500.66</ele><time>2025-05-25T10:11:01Z</time></trkpt>
<trkpt lat="50.425905" lon="5.796694"><ele>491.25</ele><time>2025-05-25T10:11:05Z</time></trkpt>
<trkpt lat="50.425602" lon="5.796931"><ele>491.11</ele><time>2025-05-25T10:11:08Z</time></trkpt>
<trkpt lat="50.425232" lon="5.797172"><ele>491.68</ele><time>2025-05-25T10:11:12Z</time></trkpt>
<trkpt lat="50.422998" lon="5.7984"><ele>476.38</ele><time>2025-05-25T10:11:16Z</time></trkpt>
<trkpt lat="50.422649" lon="5.798612"><ele>471.67</ele><time>2025-05-25T10:11:19Z</time></trkpt>
<trkpt lat="50.422167" lon="5.799052"><ele>464.0</ele><time>2025-05-25T10:11:23Z</time></trkpt>
<trkpt lat="50.420877" lon="5.80042"><ele>450.8</ele><time>2025-05-25T10:11:27Z</time></trkpt>
<trkpt lat="50.420628" lon="5.800696"><ele>448.89</ele><time>2025-05-25T10:11:31Z</time></trkpt>
<trkpt lat="50.420325" lon="5.80112"><ele>446.14</ele><time>2025-05-25T10:11:34Z</time></trkpt>
<trkpt lat="50.419978" lon="5.801685"><ele>443.16</ele><time>2025-05-25T10:11:38Z</time></trkpt>
<trkpt lat="50.419387" lon="5.802731"><ele>441.98</ele><time>2025-05-25T10:11:42Z</time></trkpt>
<trkpt lat="50.418917" lon="5.803816"><ele>440.08</ele><time>2025-05-25T10:11:45Z</time></trkpt>
<trkpt lat="50.418083" lon="5.805916"><ele>415.77</ele><time>2025-05-25T10:11:49Z</time></trkpt>
<trkpt lat="50.417953" lon="5.806278"><ele>415.42</ele><time>2025-05-25T10:11:53Z</time></trkpt>
<trkpt lat="50.417889" lon="5.806556"><ele>414.48</ele><time>2025-05-25T10:11:56Z</time></trkpt>
<trkpt lat="50.417868" lon="5.80679"><ele>413.95</ele><time>2025-05-25T10:12:00Z</time></trkpt>
<trkpt lat="50.417876" lon="5.807025"><ele>414.12</ele><time>2025-05-25T10:12:04Z</time></trkpt>
<trkpt lat="50.418034" lon="5.808534"><ele>415.37</ele><time>2025-05-25T10:12:08Z</time></trkpt>
<trkpt lat="50.418042" lon="5.808777"><ele>416.24</ele><time>2025-05-25T10:12:11Z</time></trkpt>
<trkpt lat="50.41799" lon="5.809009"><ele>417.29</ele><time>2025-05-25T10:12:15Z</time></trkpt>
<trkpt lat="50.417886" lon="5.809159"><ele>417.8</ele><time>2025-05-25T10:12:19Z</time></trkpt>
<trkpt lat="50.417719" lon="5.809284"><ele>417.89</ele><time>2025-05-25T10:12:22Z</time></trkpt>
<trkpt lat="50.417531" lon="5.809356"><ele>417.42</ele><time>2025-05-25T10:12:26Z</time></trkpt>
<trkpt lat="50.417294" lon="5.809402"><ele>417.98</ele><time>2025-05-25T10:12:30Z</time></trkpt>
<trkpt lat="50.417123" lon="5.809405"><ele>416.94</ele><time>2025-05-25T10:12:33Z</time></trkpt>
<trkpt lat="50.416946" lon="5.809322"><ele>412.93</ele><time>2025-05-25T10:12:37Z</time></trkpt>
<trkpt lat="50.416754" lon="5.809177"><ele>408.55</ele><time>2025-05-25T10:12:41Z</time></trkpt>
<trkpt lat="50.416554" lon="5.808977"><ele>403.9</ele><time>2025-05-25T10:12:45Z</time></trkpt>
<trkpt lat="50.416384" lon="5.808754"><ele>399.69</ele><time>2025-05-25T10:12:48Z</time></trkpt>
<trkpt lat="50.416071" lon="5.808275"><ele>396.04</ele><time>2025-05-25T10:12:52Z</time></trkpt>
<trkpt lat="50.415759" lon="5.807724"><ele>392.58</ele><time>2025-05-25T10:12:56Z</time></trkpt>
<trkpt lat="50.415472" lon="5.807131"><ele>391.05</ele><time>2025-05-25T10:12:59Z</time></trkpt>
<trkpt lat="50.415104" lon="5.806263"><ele>384.05</ele><time>2025-05-25T10:13:03Z</time></trkpt>
<trkpt lat="50.415041" lon="5.806083"><ele>384.64</ele><time>2025-05-25T10:13:07Z</time></trkpt>
<trkpt lat="50.414914" lon="5.805593"><ele>377.98</ele><time>2025-05-25T10:13:10Z</time></trkpt>
<trkpt lat="50.414749" lon="5.804853"><ele>373.28</ele><time>2025-05-25T10:13:14Z</time></trkpt>
<trkpt lat="50.414697" lon="5.804726"><ele>373.22</ele><time>2025-05-25T10:13:18Z</time></trkpt>
<trkpt lat="50.414524" lon="5.804556"><ele>373.05</ele><time>2025-05-25T10:13:22Z</time></trkpt>
<trkpt lat="50.414351" lon="5.804506"><ele>373.22</ele><time>2025-05-25T10:13:25Z</time></trkpt>
<trkpt lat="50.414201" lon="5.804526"><ele>372.82</ele><time>2025-05-25T10:13:29Z</time></trkpt>
<trkpt lat="50.414062" lon="5.804599"><ele>370.39</ele><time>2025-05-25T10:13:33Z</time></trkpt>
<trkpt lat="50.413771" lon="5.804925"><ele>366.23</ele><time>2025-05-25T10:13:36Z</time></trkpt>
<trkpt lat="50.413629" lon="5.805161"><ele>366.38</ele><time>2025-05-25T10:13:40Z</time></trkpt>
<trkpt lat="50.41339" lon="5.805676"><ele>363.36</ele><time>2025-05-25T10:13:44Z</time></trkpt>
<trkpt lat="50.413244" lon="5.805904"><ele>360.58</ele><time>2025-05-25T10:13:47Z</time></trkpt>
<trkpt lat="50.413057" lon="5.806117"><ele>358.08</ele><time>2025-05-25T10:13:51Z</time></trkpt>
<trkpt lat="50.411414" lon="5.807573"><ele>340.73</ele><time>2025-05-25T10:13:55Z</time></trkpt>
<trkpt lat="50.411075" lon="5.807831"><ele>339.12</ele><time>2025-05-25T10:13:59Z</time></trkpt>
<trkpt lat="50.410816" lon="5.807941"><ele>337.92</ele><time>2025-05-25T10:14:02Z</time></trkpt>
<trkpt lat="50.410548" lon="5.807984"><ele>334.41</ele><time>2025-05-25T10:14:06Z</time></trkpt>
<trkpt lat="50.410178" lon="5.807957"><ele>330.57</ele><time>2025-05-25T10:14:10Z</time></trkpt>
<trkpt lat="50.409378" lon="5.807603"><ele>324.98</ele><time>2025-05-25T10:14:13Z</time></trkpt>
<trkpt lat="50.409309" lon="5.807518"><ele>324.61</ele><time>2025-05-25T10:14:17Z</time></trkpt>
<trkpt lat="50.409456" lon="5.807414"><ele>323.69</ele><time>2025-05-25T10:14:20Z</time></trkpt>
<trkpt lat="50.409654" lon="5.807205"><ele>322.92</ele><time>2025-05-25T10:14:22Z</time></trkpt>
<trkpt lat="50.409752" lon="5.807042"><ele>322.56</ele><time>2025-05-25T10:14:24Z</time></trkpt>
<trkpt lat="50.409835" lon="5.806828"><ele>322.81</ele><time>2025-05-25T10:14:27Z</time></trkpt>
<trkpt lat="50.410745" lon="5.803855"><ele>312.31</ele><time>2025-05-25T10:14:29Z</time></trkpt>
<trkpt lat="50.410875" lon="5.803592"><ele>309.94</ele><time>2025-05-25T10:14:32Z</time></trkpt>
<trkpt lat="50.41102" lon="5.803378"><ele>308.15</ele><time>2025-05-25T10:14:34Z</time></trkpt>
<trkpt lat="50.41141" lon="5.802937"><ele>305.27</ele><time>2025-05-25T10:14:37Z</time></trkpt>
<trkpt lat="50.411626" lon="5.802656"><ele>304.42</ele><time>2025-05-25T10:14:39Z</time></trkpt>
<trkpt lat="50.411906" lon="5.802096"><ele>304.66</ele><time>2025-05-25T10:14:41Z</time></trkpt>
<trkpt lat="50.412275" lon="5.800898"><ele>302.08</ele><time>2025-05-25T10:14:44Z</time></trkpt>
<trkpt lat="50.412505" lon="5.7999"><ele>296.02</ele><time>2025-05-25T10:14:46Z</time></trkpt>
<trkpt lat="50.412643" lon="5.799031"><ele>290.11</ele><time>2025-05-25T10:14:49Z</time></trkpt>
<trkpt lat="50.412855" lon="5.798212"><ele>291.31</ele><time>2025-05-25T10:14:51Z</time></trkpt>
<trkpt lat="50.413184" lon="5.797303"><ele>293.04</ele><time>2025-05-25T10:14:54Z</time></trkpt>
<trkpt lat="50.413289" lon="5.796859"><ele>289.33</ele><time>2025-05-25T10:14:56Z</time></trkpt>
<trkpt lat="50.413387" lon="5.796326"><ele>284.27</ele><time>2025-05-25T10:14:58Z</time></trkpt>
<trkpt lat="50.413476" lon="5.795933"><ele>284.35</ele><time>2025-05-25T10:15:01Z</time></trkpt>
<trkpt lat="50.413736" lon="5.794979"><ele>282.03</ele><time>2025-05-25T10:15:03Z</time></trkpt>
<trkpt lat="50.413788" lon="5.794678"><ele>281.09</ele><time>2025-05-25T10:15:06Z</time></trkpt>
<trkpt lat="50.413921" lon="5.793344"><ele>277.54</ele><time>2025-05-25T10:15:08Z</time></trkpt>
<trkpt lat="50.414088" lon="5.792277"><ele>274.63</ele><time>2025-05-25T10:15:11Z</time></trkpt>
<trkpt lat="50.414155" lon="5.792"><ele>274.17</ele><time>2025-05-25T10:15:13Z</time></trkpt>
<trkpt lat="50.41424" lon="5.791799"><ele>273.06</ele><time>2025-05-25T10:15:15Z</time></trkpt>
<trkpt lat="50.414331" lon="5.791674"><ele>271.51</ele><time>2025-05-25T10:15:18Z</time></trkpt>
<trkpt lat="50.414417" lon="5.791611"><ele>269.92</ele><time>2025-05-25T10:15:20Z</time></trkpt>
<trkpt lat="50.414514" lon="5.791577"><ele>269.48</ele><time>2025-05-25T10:15:23Z</time></trkpt>
<trkpt lat="50.414641" lon="5.791581"><ele>270.34</ele><time>2025-05-25T10:15:25Z</time></trkpt>
<trkpt lat="50.414777" lon="5.791647"><ele>271.94</ele><time>2025-05-25T10:15:28Z</time></trkpt>
<trkpt lat="50.414879" lon="5.791763"><ele>273.05</ele><time>2025-05-25T10:15:30Z</time></trkpt>
<trkpt lat="50.414934" lon="5.79189"><ele>274.73</ele><time>2025-05-25T10:15:32Z</time></trkpt>
<trkpt lat="50.414977" lon="5.792061"><ele>277.38</ele><time>2025-05-25T10:15:35Z</time></trkpt>
<trkpt lat="50.415008" lon="5.792304"><ele>280.28</ele><time>2025-05-25T10:15:37Z</time></trkpt>
<trkpt lat="50.415027" lon="5.793053"><ele>285.39</ele><time>2025-05-25T10:15:40Z</time></trkpt>
<trkpt lat="50.41506" lon="5.79322"><ele>285.07</ele><time>2025-05-25T10:15:42Z</time></trkpt>
<trkpt lat="50.415106" lon="5.793322"><ele>283.05</ele><time>2025-05-25T10:15:45Z</time></trkpt>
<trkpt lat="50.415166" lon="5.79338"><ele>279.68</ele><time>2025-05-25T10:15:47Z</time></trkpt>
<trkpt lat="50.415263" lon="5.793434"><ele>273.73</ele><time>2025-05-25T10:15:49Z</time></trkpt>
<trkpt lat="50.415382" lon="5.79343"><ele>271.94</ele><time>2025-05-25T10:15:52Z</time></trkpt>
<trkpt lat="50.415472" lon="5.79338"><ele>270.94</ele><time>2025-05-25T10:15:54Z</time></trkpt>
<trkpt lat="50.415524" lon="5.79331"><ele>270.14</ele><time>2025-05-25T10:15:57Z</time></trkpt>
<trkpt lat="50.415583" lon="5.793154"><ele>269.86</ele><time>2025-05-25T10:15:59Z</time></trkpt>
<trkpt lat="50.415844" lon="5.791789"><ele>263.59</ele><time>2025-05-25T10:16:02Z</time></trkpt>
<trkpt lat="50.415883" lon="5.791279"><ele>262.65</ele><time>2025-05-25T10:16:04Z</time></trkpt>
<trkpt lat="50.415878" lon="5.790963"><ele>263.19</ele><time>2025-05-25T10:16:06Z</time></trkpt>
<trkpt lat="50.415838" lon="5.790689"><ele>263.65</ele><time>2025-05-25T10:16:09Z</time></trkpt>
<trkpt lat="50.415751" lon="5.790374"><ele>265.34</ele><time>2025-05-25T10:16:11Z</time></trkpt>
<trkpt lat="50.415382" lon="5.789216"><ele>259.81</ele><time>2025-05-25T10:16:14Z</time></trkpt>
<trkpt lat="50.415222" lon="5.788828"><ele>255.0</ele><time>2025-05-25T10:16:16Z</time></trkpt>
<trkpt lat="50.415103" lon="5.788599"><ele>253.23</ele><time>2025-05-25T10:16:19Z</time></trkpt>
<trkpt lat="50.414976" lon="5.788422"><ele>250.72</ele><time>2025-05-25T10:16:21Z</time></trkpt>
<trkpt lat="50.414874" lon="5.788331"><ele>249.71</ele><time>2025-05-25T10:16:23Z</time></trkpt>
<trkpt lat="50.414723" lon="5.788272"><ele>250.2</ele><time>2025-05-25T10:16:26Z</time></trkpt>
<trkpt lat="50.414577" lon="5.788267"><ele>249.47</ele><time>2025-05-25T10:16:28Z</time></trkpt>
<trkpt lat="50.414035" lon="5.788385"><ele>244.87</ele><time>2025-05-25T10:16:31Z</time></trkpt>
<trkpt lat="50.4138" lon="5.788404"><ele>243.59</ele><time>2025-05-25T10:16:33Z</time></trkpt>
<trkpt lat="50.413673" lon="5.788353"><ele>243.24</ele><time>2025-05-25T10:16:36Z</time></trkpt>
<trkpt lat="50.413574" lon="5.788264"><ele>242.76</ele><time>2025-05-25T10:16:38Z</time></trkpt>
<trkpt lat="50.413493" lon="5.788132"><ele>241.76</ele><time>2025-05-25T10:16:40Z</time></trkpt>
<trkpt lat="50.412387" lon="5.785505"><ele>223.14</ele><time>2025-05-25T10:16:43Z</time></trkpt>
<trkpt lat="50.412219" lon="5.784965"><ele>223.82</ele><time>2025-05-25T10:16:45Z</time></trkpt>
<trkpt lat="50.41215" lon="5.78466"><ele>222.48</ele><time>2025-05-25T10:16:48Z</time></trkpt>
<trkpt lat="50.412064" lon="5.783914"><ele>223.25</ele><time>2025-05-25T10:16:50Z</time></trkpt>
<trkpt lat="50.41205" lon="5.783651"><ele>224.85</ele><time>2025-05-25T10:16:53Z</time></trkpt>
<trkpt lat="50.412058" lon="5.783427"><ele>225.89</ele><time>2025-05-25T10:16:55Z</time></trkpt>
<trkpt lat="50.412126" lon="5.783043"><ele>225.28</ele><time>2025-05-25T10:16:57Z</time></trkpt>
<trkpt lat="50.412222" lon="5.782792"><ele>225.05</ele><time>2025-05-25T10:17:00Z</time></trkpt>
<trkpt lat="50.412542" lon="5.782215"><ele>223.33</ele><time>2025-05-25T10:17:02Z</time></trkpt>
<trkpt lat="50.412852" lon="5.781726"><ele>217.21</ele><time>2025-05-25T10:17:05Z</time></trkpt>
<trkpt lat="50.413071" lon="5.781452"><ele>214.78</ele><time>2025-05-25T10:17:07Z</time></trkpt>
<trkpt lat="50.413331" lon="5.781179"><ele>215.43</ele><time>2025-05-25T10:17:10Z</time></trkpt>
<trkpt lat="50.413762" lon="5.780853"><ele>215.83</ele><time>2025-05-25T10:17:12Z</time></trkpt>
<trkpt lat="50.413974" lon="5.780736"><ele>216.42</ele><time>2025-05-25T10:17:14Z</time></trkpt>
<trkpt lat="50.414156" lon="5.780703"><ele>218.09</ele><time>2025-05-25T10:17:17Z</time></trkpt>
<trkpt lat="50.414586" lon="5.780673"><ele>221.76</ele><time>2025-05-25T10:17:19Z</time></trkpt>
<trkpt lat="50.415118" lon="5.780585"><ele>219.33</ele><time>2025-05-25T10:17:22Z</time></trkpt>
<trkpt lat="50.415349" lon="5.780518"><ele>219.35</ele><time>2025-05-25T10:17:24Z</time></trkpt>
<trkpt lat="50.415833" lon="5.780277"><ele>221.97</ele><time>2025-05-25T10:17:27Z</time></trkpt>
<trkpt lat="50.416396" lon="5.779799"><ele>219.06</ele><time>2025-05-25T10:17:29Z</time></trkpt>
<trkpt lat="50.416597" lon="5.779598"><ele>217.27</ele><time>2025-05-25T10:17:31Z</time></trkpt>
<trkpt lat="50.41676" lon="5.779398"><ele>215.85</ele><time>2025-05-25T10:17:34Z</time></trkpt>
<trkpt lat="50.416879" lon="5.779204"><ele>215.79</ele><time>2025-05-25T10:17:36Z</time></trkpt>
<trkpt lat="50.417006" lon="5.778943"><ele>215.32</ele><time>2025-05-25T10:17:39Z</time></trkpt>
<trkpt lat="50.417132" lon="5.778538"><ele>212.95</ele><time>2025-05-25T10:17:41Z</time></trkpt>
<trkpt lat="50.417463" lon="5.777274"><ele>207.36</ele><time>2025-05-25T10:17:44Z</time></trkpt>
<trkpt lat="50.417405" lon="5.777259"><ele>205.32</ele><time>2025-05-25T10:17:46Z</time></trkpt>
<trkpt lat="50.417374" lon="5.777298"><ele>204.73</ele><time>2025-05-25T10:17:49Z</time></trkpt>
<trkpt lat="50.416895" lon="5.778531"><ele>206.71</ele><time>2025-05-25T10:17:52Z</time></trkpt>
<trkpt lat="50.416713" lon="5.778901"><ele>206.51</ele><time>2025-05-25T10:17:54Z</time></trkpt>
<trkpt lat="50.416616" lon="5.77903"><ele>206.02</ele><time>2025-05-25T10:17:57Z</time></trkpt>
<trkpt lat="50.41651" lon="5.779125"><ele>205.5</ele><time>2025-05-25T10:18:00Z</time></trkpt>
<trkpt lat="50.416391" lon="5.779192"><ele>204.58</ele><time>2025-05-25T10:18:03Z</time></trkpt>
<trkpt lat="50.415572" lon="5.77961"><ele>201.79</ele><time>2025-05-25T10:18:05Z</time></trkpt>
<trkpt lat="50.415165" lon="5.779928"><ele>203.3</ele><time>2025-05-25T10:18:08Z</time></trkpt>
<trkpt lat="50.41507" lon="5.779966"><ele>203.64</ele><time>2025-05-25T10:18:11Z</time></trkpt>
<trkpt lat="50.414994" lon="5.779946"><ele>202.98</ele><time>2025-05-25T10:18:13Z</time></trkpt>
<trkpt lat="50.414908" lon="5.779845"><ele>200.36</ele><time>2025-05-25T10:18:16Z</time></trkpt>
<trkpt lat="50.414801" lon="5.779507"><ele>192.97</ele><time>2025-05-25T10:18:19Z</time></trkpt>
<trkpt lat="50.414681" lon="5.779228"><ele>189.26</ele><time>2025-05-25T10:18:22Z</time></trkpt>
<trkpt lat="50.413751" lon="5.777626"><ele>187.49</ele><time>2025-05-25T10:18:24Z</time></trkpt>
<trkpt lat="50.41357" lon="5.777258"><ele>188.45</ele><time>2025-05-25T10:18:27Z</time></trkpt>
<trkpt lat="50.413507" lon="5.777024"><ele>188.41</ele><time>2025-05-25T10:18:30Z</time></trkpt>
<trkpt lat="50.413298" lon="5.775755"><ele>189.42</ele><time>2025-05-25T10:18:32Z</time></trkpt>
<trkpt lat="50.413181" lon="5.775198"><ele>189.9</ele><time>2025-05-25T10:18:35Z</time></trkpt>
<trkpt lat="50.412969" lon="5.774567"><ele>189.65</ele><time>2025-05-25T10:18:38Z</time></trkpt>
<trkpt lat="50.411197" lon="5.769911"><ele>197.91</ele><time>2025-05-25T10:18:40Z</time></trkpt>
<trkpt lat="50.411096" lon="5.769696"><ele>196.74</ele><time>2025-05-25T10:18:43Z</time></trkpt>
<trkpt lat="50.410996" lon="5.769533"><ele>194.98</ele><time>2025-05-25T10:18:46Z</time></trkpt>
<trkpt lat="50.410894" lon="5.769438"><ele>194.31</ele><time>2025-05-25T10:18:49Z</time></trkpt>
<trkpt lat="50.410733" lon="5.769339"><ele>195.54</ele><time>2025-05-25T10:18:51Z</time></trkpt>
<trkpt lat="50.409728" lon="5.769172"><ele>201.88</ele><time>2025-05-25T10:18:54Z</time></trkpt>
<trkpt lat="50.409341" lon="5.769161"><ele>209.32</ele><time>2025-05-25T10:18:57Z</time></trkpt>
<trkpt lat="50.409172" lon="5.769279"><ele>210.47</ele><time>2025-05-25T10:18:59Z</time></trkpt>
<trkpt lat="50.409049" lon="5.769405"><ele>209.55</ele><time>2025-05-25T10:19:02Z</time></trkpt>
<trkpt lat="50.408929" lon="5.769566"><ele>209.48</ele><time>2025-05-25T10:19:05Z</time></trkpt>
<trkpt lat="50.40845" lon="5.770525"><ele>211.27</ele><time>2025-05-25T10:19:08Z</time></trkpt>
<trkpt lat="50.408338" lon="5.770714"><ele>210.66</ele><time>2025-05-25T10:19:10Z</time></trkpt>
<trkpt lat="50.408151" lon="5.770932"><ele>208.11</ele><time>2025-05-25T10:19:13Z</time></trkpt>
<trkpt lat="50.408035" lon="5.770986"><ele>207.92</ele><time>2025-05-25T10:19:16Z</time></trkpt>
<trkpt lat="50.407913" lon="5.771011"><ele>208.28</ele><time>2025-05-25T10:19:18Z</time></trkpt>
<trkpt lat="50.407789" lon="5.771"><ele>209.14</ele><time>2025-05-25T10:19:21Z</time></trkpt>
<trkpt lat="50.407658" lon="5.770953"><ele>208.6</ele><time>2025-05-25T10:19:24Z</time></trkpt>
<trkpt lat="50.407407" lon="5.770778"><ele>207.25</ele><time>2025-05-25T10:19:27Z</time></trkpt>
<trkpt lat="50.407304" lon="5.770663"><ele>206.24</ele><time>2025-05-25T10:19:29Z</time></trkpt>
<trkpt lat="50.407196" lon="5.77048"><ele>204.48</ele><time>2025-05-25T10:19:32Z</time></trkpt>
<trkpt lat="50.407111" lon="5.770271"><ele>203.2</ele><time>2025-05-25T10:19:35Z</time></trkpt>
<trkpt lat="50.407074" lon="5.77008"><ele>202.93</ele><time>2025-05-25T10:19:37Z</time></trkpt>
<trkpt lat="50.406884" lon="5.767652"><ele>207.15</ele><time>2025-05-25T10:19:40Z</time></trkpt>
<trkpt lat="50.406856" lon="5.767115"><ele>208.94</ele><time>2025-05-25T10:19:43Z</time></trkpt>
<trkpt lat="50.406864" lon="5.766819"><ele>210.29</ele><time>2025-05-25T10:19:45Z</time></trkpt>
<trkpt lat="50.406981" lon="5.765634"><ele>216.06</ele><time>2025-05-25T10:19:48Z</time></trkpt>
<trkpt lat="50.406977" lon="5.765318"><ele>217.22</ele><time>2025-05-25T10:19:51Z</time></trkpt>
<trkpt lat="50.406927" lon="5.764952"><ele>216.72</ele><time>2025-05-25T10:19:54Z</time></trkpt>
<trkpt lat="50.406878" lon="5.764739"><ele>216.27</ele><time>2025-05-25T10:19:56Z</time></trkpt>
<trkpt lat="50.406588" lon="5.763891"><ele>214.28</ele><time>2025-05-25T10:19:59Z</time></trkpt>
<trkpt lat="50.406373" lon="5.763386"><ele>213.29</ele><time>2025-05-25T10:20:02Z</time></trkpt>
<trkpt lat="50.406164" lon="5.762942"><ele>214.96</ele><time>2025-05-25T10:20:04Z</time></trkpt>
<trkpt lat="50.405971" lon="5.762583"><ele>215.47</ele><time>2025-05-25T10:20:07Z</time></trkpt>
<trkpt lat="50.404949" lon="5.760986"><ele>220.06</ele><time>2025-05-25T10:20:10Z</time></trkpt>
<trkpt lat="50.404811" lon="5.760862"><ele>222.99</ele><time>2025-05-25T10:20:13Z</time></trkpt>
<trkpt lat="50.404671" lon="5.760786"><ele>223.91</ele><time>2025-05-25T10:20:15Z</time></trkpt>
<trkpt lat="50.40442" lon="5.760731"><ele>222.7</ele><time>2025-05-25T10:20:18Z</time></trkpt>
<trkpt lat="50.404257" lon="5.760765"><ele>222.56</ele><time>2025-05-25T10:20:21Z</time></trkpt>
<trkpt lat="50.403779" lon="5.760946"><ele>228.48</ele><time>2025-05-25T10:20:23Z</time></trkpt>
<trkpt lat="50.40329" lon="5.761312"><ele>229.63</ele><time>2025-05-25T10:20:26Z</time></trkpt>
<trkpt lat="50.402507" lon="5.762014"><ele>223.16</ele><time>2025-05-25T10:20:29Z</time></trkpt>
<trkpt lat="50.402048" lon="5.762332"><ele>221.82</ele><time>2025-05-25T10:20:32Z</time></trkpt>
<trkpt lat="50.401914" lon="5.762368"><ele>221.1</ele><time>2025-05-25T10:20:34Z</time></trkpt>
<trkpt lat="50.401652" lon="5.762315"><ele>218.6</ele><time>2025-05-25T10:20:37Z</time></trkpt>
<trkpt lat="50.401533" lon="5.762244"><ele>217.66</ele><time>2025-05-25T10:20:40Z</time></trkpt>
<trkpt lat="50.401399" lon="5.762075"><ele>216.17</ele><time>2025-05-25T10:20:42Z</time></trkpt>
<trkpt lat="50.401314" lon="5.761926"><ele>215.15</ele><time>2025-05-25T10:20:45Z</time></trkpt>
<trkpt lat="50.401224" lon="5.761708"><ele>213.21</ele><time>2025-05-25T10:20:48Z</time></trkpt>
<trkpt lat="50.401159" lon="5.761324"><ele>214.3</ele><time>2025-05-25T10:20:51Z</time></trkpt>
<trkpt lat="50.401118" lon="5.760935"><ele>214.2</ele><time>2025-05-25T10:20:53Z</time></trkpt>
<trkpt lat="50.401151" lon="5.760495"><ele>214.96</ele><time>2025-05-25T10:20:56Z</time></trkpt>
<trkpt lat="50.401259" lon="5.760024"><ele>215.39</ele><time>2025-05-25T10:20:59Z</time></trkpt>
<trkpt lat="50.401437" lon="5.75943"><ele>215.49</ele><time>2025-05-25T10:21:01Z</time></trkpt>
<trkpt lat="50.401882" lon="5.758364"><ele>221.15</ele><time>2025-05-25T10:21:04Z</time></trkpt>
<trkpt lat="50.401937" lon="5.758146"><ele>220.54</ele><time>2025-05-25T10:21:07Z</time></trkpt>
<trkpt lat="50.401955" lon="5.757879"><ele>219.57</ele><time>2025-05-25T10:21:09Z</time></trkpt>
<trkpt lat="50.401939" lon="5.757656"><ele>218.53</ele><time>2025-05-25T10:21:12Z</time></trkpt>
<trkpt lat="50.40189" lon="5.75736"><ele>218.1</ele><time>2025-05-25T10:21:15Z</time></trkpt>
<trkpt lat="50.401502" lon="5.755628"><ele>218.05</ele><time>2025-05-25T10:21:18Z</time></trkpt>
<trkpt lat="50.401406" lon="5.755263"><ele>218.66</ele><time>2025-05-25T10:21:20Z</time></trkpt>
<trkpt lat="50.401268" lon="5.754528"><ele>221.49</ele><time>2025-05-25T10:21:23Z</time></trkpt>
<trkpt lat="50.40102" lon="5.752632"><ele>222.5</ele><time>2025-05-25T10:21:26Z</time></trkpt>
<trkpt lat="50.400706" lon="5.751092"><ele>224.18</ele><time>2025-05-25T10:21:28Z</time></trkpt>
<trkpt lat="50.400492" lon="5.750538"><ele>227.54</ele><time>2025-05-25T10:21:31Z</time></trkpt>
<trkpt lat="50.400244" lon="5.750132"><ele>226.37</ele><time>2025-05-25T10:21:34Z</time></trkpt>
<trkpt lat="50.399958" lon="5.749829"><ele>225.01</ele><time>2025-05-25T10:21:37Z</time></trkpt>
<trkpt lat="50.399124" lon="5.749224"><ele>221.89</ele><time>2025-05-25T10:21:39Z</time></trkpt>
<trkpt lat="50.398986" lon="5.749185"><ele>221.53</ele><time>2025-05-25T10:21:42Z</time></trkpt>
<trkpt lat="50.398011" lon="5.749177"><ele>222.71</ele><time>2025-05-25T10:21:45Z</time></trkpt>
<trkpt lat="50.397691" lon="5.749239"><ele>221.69</ele><time>2025-05-25T10:21:47Z</time></trkpt>
<trkpt lat="50.397359" lon="5.74937"><ele>223.37</ele><time>2025-05-25T10:21:50Z</time></trkpt>
<trkpt lat="50.396892" lon="5.749659"><ele>234.8</ele><time>2025-05-25T10:21:53Z</time></trkpt>
<trkpt lat="50.396756" lon="5.749782"><ele>234.71</ele><time>2025-05-25T10:21:56Z</time></trkpt>
<trkpt lat="50.396482" lon="5.750298"><ele>231.94</ele><time>2025-05-25T10:21:58Z</time></trkpt>
<trkpt lat="50.396263" lon="5.750768"><ele>230.15</ele><time>2025-05-25T10:22:01Z</time></trkpt>
<trkpt lat="50.396157" lon="5.751067"><ele>227.55</ele><time>2025-05-25T10:22:04Z</time></trkpt>
<trkpt lat="50.395689" lon="5.7534"><ele>218.04</ele><time>2025-05-25T10:22:06Z</time></trkpt>
<trkpt lat="50.395681" lon="5.753687"><ele>220.59</ele><time>2025-05-25T10:22:09Z</time></trkpt>
<trkpt lat="50.395724" lon="5.754037"><ele>223.34</ele><time>2025-05-25T10:22:12Z</time></trkpt>
<trkpt lat="50.396087" lon="5.755762"><ele>224.02</ele><time>2025-05-25T10:22:14Z</time></trkpt>
<trkpt lat="50.396377" lon="5.757362"><ele>218.96</ele><time>2025-05-25T10:22:17Z</time></trkpt>
<trkpt lat="50.396402" lon="5.757677"><ele>219.36</ele><time>2025-05-25T10:22:20Z</time></trkpt>
<trkpt lat="50.396412" lon="5.758087"><ele>220.89</ele><time>2025-05-25T10:22:23Z</time></trkpt>
<trkpt lat="50.396395" lon="5.758298"><ele>221.93</ele><time>2025-05-25T10:22:25Z</time></trkpt>
<trkpt lat="50.396349" lon="5.758532"><ele>223.46</ele><time>2025-05-25T10:22:28Z</time></trkpt>
<trkpt lat="50.396294" lon="5.758691"><ele>224.35</ele><time>2025-05-25T10:22:31Z</time></trkpt>
<trkpt lat="50.396205" lon="5.758862"><ele>224.7</ele><time>2025-05-25T10:22:33Z</time></trkpt>
<trkpt lat="50.396098" lon="5.759015"><ele>226.62</ele><time>2025-05-25T10:22:36Z</time></trkpt>
<trkpt lat="50.395911" lon="5.759155"><ele>229.97</ele><time>2025-05-25T10:22:39Z</time></trkpt>
<trkpt lat="50.39572" lon="5.75922"><ele>232.58</ele><time>2025-05-25T10:22:42Z</time></trkpt>
<trkpt lat="50.395378" lon="5.759216"><ele>233.95</ele><time>2025-05-25T10:22:44Z</time></trkpt>
<trkpt lat="50.395111" lon="5.759109"><ele>231.01</ele><time>2025-05-25T10:22:47Z</time></trkpt>
<trkpt lat="50.394849" lon="5.758915"><ele>226.14</ele><time>2025-05-25T10:22:50Z</time></trkpt>
<trkpt lat="50.393958" lon="5.757965"><ele>224.51</ele><time>2025-05-25T10:22:52Z</time></trkpt>
<trkpt lat="50.393801" lon="5.757835"><ele>224.27</ele><time>2025-05-25T10:22:55Z</time></trkpt>
<trkpt lat="50.393624" lon="5.757758"><ele>224.07</ele><time>2025-05-25T10:22:58Z</time></trkpt>
<trkpt lat="50.393343" lon="5.75772"><ele>224.77</ele><time>2025-05-25T10:23:01Z</time></trkpt>
<trkpt lat="50.393194" lon="5.757756"><ele>225.89</ele><time>2025-05-25T10:23:03Z</time></trkpt>
<trkpt lat="50.392283" lon="5.758184"><ele>233.54</ele><time>2025-05-25T10:23:06Z</time></trkpt>
<trkpt lat="50.391707" lon="5.758423"><ele>233.07</ele><time>2025-05-25T10:23:09Z</time></trkpt>
<trkpt lat="50.389724" lon="5.75967"><ele>228.28</ele><time>2025-05-25T10:23:11Z</time></trkpt>
<trkpt lat="50.389541" lon="5.759735"><ele>227.84</ele><time>2025-05-25T10:23:14Z</time></trkpt>
<trkpt lat="50.38923" lon="5.759754"><ele>228.11</ele><time>2025-05-25T10:23:17Z</time></trkpt>
<trkpt lat="50.389093" lon="5.759725"><ele>228.3</ele><time>2025-05-25T10:23:19Z</time></trkpt>
<trkpt lat="50.388923" lon="5.759656"><ele>228.37</ele><time>2025-05-25T10:23:22Z</time></trkpt>
<trkpt lat="50.38873" lon="5.759511"><ele>227.48</ele><time>2025-05-25T10:23:25Z</time></trkpt>
<trkpt lat="50.388526" lon="5.759304"><ele>227.35</ele><time>2025-05-25T10:23:28Z</time></trkpt>
<trkpt lat="50.388199" lon="5.758863"><ele>226.8</ele><time>2025-05-25T10:23:30Z</time></trkpt>
<trkpt lat="50.387863" lon="5.758005"><ele>233.16</ele><time>2025-05-25T10:23:33Z</time></trkpt>
<trkpt lat="50.387674" lon="5.757645"><ele>239.52</ele><time>2025-05-25T10:23:36Z</time></trkpt>
<trkpt lat="50.387507" lon="5.757422"><ele>246.86</ele><time>2025-05-25T10:23:38Z</time></trkpt>
<trkpt lat="50.387345" lon="5.757257"><ele>249.56</ele><time>2025-05-25T10:23:41Z</time></trkpt>
<trkpt lat="50.387128" lon="5.757114"><ele>250.8</ele><time>2025-05-25T10:23:44Z</time></trkpt>
<trkpt lat="50.386613" lon="5.756863"><ele>246.04</ele><time>2025-05-25T10:23:47Z</time></trkpt>
<trkpt lat="50.386312" lon="5.75666"><ele>242.18</ele><time>2025-05-25T10:23:49Z</time></trkpt>
<trkpt lat="50.385142" lon="5.755291"><ele>244.23</ele><time>2025-05-25T10:23:52Z</time></trkpt>
<trkpt lat="50.384148" lon="5.753895"><ele>238.85</ele><time>2025-05-25T10:23:55Z</time></trkpt>
<trkpt lat="50.383857" lon="5.753397"><ele>240.14</ele><time>2025-05-25T10:23:57Z</time></trkpt>
<trkpt lat="50.38374" lon="5.75316"><ele>240.68</ele><time>2025-05-25T10:24:00Z</time></trkpt>
<trkpt lat="50.38363" lon="5.752869"><ele>240.21</ele><time>2025-05-25T10:24:03Z</time></trkpt>
<trkpt lat="50.383544" lon="5.75258"><ele>241.37</ele><time>2025-05-25T10:24:06Z</time></trkpt>
<trkpt lat="50.383434" lon="5.752071"><ele>241.26</ele><time>2025-05-25T10:24:08Z</time></trkpt>
<trkpt lat="50.383398" lon="5.751821"><ele>239.56</ele><time>2025-05-25T10:24:11Z</time></trkpt>
<trkpt lat="50.383388" lon="5.751491"><ele>237.78</ele><time>2025-05-25T10:24:14Z</time></trkpt>
<trkpt lat="50.383401" lon="5.750667"><ele>239.32</ele><time>2025-05-25T10:24:16Z</time></trkpt>
<trkpt lat="50.383386" lon="5.750331"><ele>241.85</ele><time>2025-05-25T10:24:19Z</time></trkpt>
<trkpt lat="50.383308" lon="5.75"><ele>242.28</ele><time>2025-05-25T10:24:22Z</time></trkpt>
<trkpt lat="50.383219" lon="5.749704"><ele>245.18</ele><time>2025-05-25T10:24:25Z</time></trkpt>
<trkpt lat="50.383099" lon="5.749396"><ele>245.67</ele><time>2025-05-25T10:24:27Z</time></trkpt>
<trkpt lat="50.382999" lon="5.749242"><ele>244.71</ele><time>2025-05-25T10:24:30Z</time></trkpt>
<trkpt lat="50.382892" lon="5.749118"><ele>242.6</ele><time>2025-05-25T10:24:33Z</time></trkpt>
<trkpt lat="50.382735" lon="5.749005"><ele>238.15</ele><time>2025-05-25T10:24:35Z</time></trkpt>
<trkpt lat="50.380531" lon="5.747995"><ele>239.64</ele><time>2025-05-25T10:24:38Z</time></trkpt>
<trkpt lat="50.380383" lon="5.747877"><ele>240.53</ele><time>2025-05-25T10:24:41Z</time></trkpt>
<trkpt lat="50.379489" lon="5.746761"><ele>246.02</ele><time>2025-05-25T10:24:43Z</time></trkpt>
<trkpt lat="50.378392" lon="5.745151"><ele>250.08</ele><time>2025-05-25T10:24:46Z</time></trkpt>
<trkpt lat="50.378254" lon="5.74486"><ele>250.59</ele><time>2025-05-25T10:24:49Z</time></trkpt>
<trkpt lat="50.378177" lon="5.744568"><ele>250.98</ele><time>2025-05-25T10:24:52Z</time></trkpt>
<trkpt lat="50.378104" lon="5.74401"><ele>251.51</ele><time>2025-05-25T10:24:54Z</time></trkpt>
<trkpt lat="50.378088" lon="5.743519"><ele>250.29</ele><time>2025-05-25T10:24:57Z</time></trkpt>
<trkpt lat="50.378112" lon="5.743279"><ele>250.11</ele><time>2025-05-25T10:25:00Z</time></trkpt>
<trkpt lat="50.378162" lon="5.743063"><ele>251.08</ele><time>2025-05-25T10:25:02Z</time></trkpt>
<trkpt lat="50.378611" lon="5.741882"><ele>256.32</ele><time>2025-05-25T10:25:05Z</time></trkpt>
<trkpt lat="50.378671" lon="5.74155"><ele>255.39</ele><time>2025-05-25T10:25:08Z</time></trkpt>
<trkpt lat="50.378673" lon="5.741414"><ele>254.6</ele><time>2025-05-25T10:25:11Z</time></trkpt>
<trkpt lat="50.378586" lon="5.74099"><ele>249.16</ele><time>2025-05-25T10:25:13Z</time></trkpt>
<trkpt lat="50.377995" lon="5.739168"><ele>253.25</ele><time>2025-05-25T10:25:16Z</time></trkpt>
<trkpt lat="50.377746" lon="5.738315"><ele>252.09</ele><time>2025-05-25T10:25:19Z</time></trkpt>
<trkpt lat="50.377401" lon="5.736974"><ele>251.26</ele><time>2025-05-25T10:25:21Z</time></trkpt>
<trkpt lat="50.377338" lon="5.736609"><ele>253.46</ele><time>2025-05-25T10:25:24Z</time></trkpt>
<trkpt lat="50.377353" lon="5.736172"><ele>254.42</ele><time>2025-05-25T10:25:27Z</time></trkpt>
<trkpt lat="50.377447" lon="5.735305"><ele>253.14</ele><time>2025-05-25T10:25:30Z</time></trkpt>
<trkpt lat="50.377556" lon="5.734464"><ele>256.63</ele><time>2025-05-25T10:25:32Z</time></trkpt>
<trkpt lat="50.377574" lon="5.734106"><ele>257.62</ele><time>2025-05-25T10:25:35Z</time></trkpt>
<trkpt lat="50.37757" lon="5.733887"><ele>257.29</ele><time>2025-05-25T10:25:38Z</time></trkpt>
<trkpt lat="50.377549" lon="5.733706"><ele>258.66</ele><time>2025-05-25T10:25:40Z</time></trkpt>
<trkpt lat="50.377499" lon="5.733488"><ele>259.32</ele><time>2025-05-25T10:25:43Z</time></trkpt>
<trkpt lat="50.377404" lon="5.7332"><ele>259.82</ele><time>2025-05-25T10:25:46Z</time></trkpt>
<trkpt lat="50.377322" lon="5.73302"><ele>258.9</ele><time>2025-05-25T10:25:48Z</time></trkpt>
<trkpt lat="50.376816" lon="5.732103"><ele>258.73</ele><time>2025-05-25T10:25:51Z</time></trkpt>
<trkpt lat="50.376607" lon="5.731805"><ele>260.9</ele><time>2025-05-25T10:25:54Z</time></trkpt>
<trkpt lat="50.376417" lon="5.731679"><ele>257.73</ele><time>2025-05-25T10:25:57Z</time></trkpt>
<trkpt lat="50.376117" lon="5.73155"><ele>253.39</ele><time>2025-05-25T10:25:59Z</time></trkpt>
<trkpt lat="50.376001" lon="5.731456"><ele>253.18</ele><time>2025-05-25T10:26:02Z</time></trkpt>
<trkpt lat="50.375458" lon="5.730697"><ele>253.22</ele><time>2025-05-25T10:26:05Z</time></trkpt>
<trkpt lat="50.375396" lon="5.730569"><ele>253.04</ele><time>2025-05-25T10:26:07Z</time></trkpt>
<trkpt lat="50.375339" lon="5.730377"><ele>254.81</ele><time>2025-05-25T10:26:10Z</time></trkpt>
<trkpt lat="50.375296" lon="5.730083"><ele>258.2</ele><time>2025-05-25T10:26:13Z</time></trkpt>
<trkpt lat="50.375253" lon="5.729576"><ele>257.64</ele><time>2025-05-25T10:26:16Z</time></trkpt>
<trkpt lat="50.375274" lon="5.728757"><ele>256.45</ele><time>2025-05-25T10:26:18Z</time></trkpt>
<trkpt lat="50.375176" lon="5.726877"><ele>259.81</ele><time>2025-05-25T10:26:21Z</time></trkpt>
<trkpt lat="50.375118" lon="5.726491"><ele>260.45</ele><time>2025-05-25T10:26:24Z</time></trkpt>
<trkpt lat="50.375058" lon="5.726301"><ele>260.88</ele><time>2025-05-25T10:26:26Z</time></trkpt>
<trkpt lat="50.374965" lon="5.726124"><ele>260.41</ele><time>2025-05-25T10:26:29Z</time></trkpt>
<trkpt lat="50.374734" lon="5.725836"><ele>261.13</ele><time>2025-05-25T10:26:32Z</time></trkpt>
<trkpt lat="50.373032" lon="5.723927"><ele>261.42</ele><time>2025-05-25T10:26:35Z</time></trkpt>
<trkpt lat="50.372788" lon="5.723731"><ele>264.04</ele><time>2025-05-25T10:26:37Z</time></trkpt>
<trkpt lat="50.372629" lon="5.723664"><ele>264.69</ele><time>2025-05-25T10:26:40Z</time></trkpt>
<trkpt lat="50.3711" lon="5.723359"><ele>272.26</ele><time>2025-05-25T10:26:43Z</time></trkpt>
<trkpt lat="50.370757" lon="5.723313"><ele>270.7</ele><time>2025-05-25T10:26:45Z</time></trkpt>
<trkpt lat="50.370392" lon="5.72333"><ele>267.26</ele><time>2025-05-25T10:26:48Z</time></trkpt>
<trkpt lat="50.370196" lon="5.723288"><ele>265.49</ele><time>2025-05-25T10:26:51Z</time></trkpt>
<trkpt lat="50.370019" lon="5.723199"><ele>264.62</ele><time>2025-05-25T10:26:54Z</time></trkpt>
<trkpt lat="50.369051" lon="5.722308"><ele>264.91</ele><time>2025-05-25T10:26:56Z</time></trkpt>
<trkpt lat="50.368915" lon="5.722213"><ele>265.23</ele><time>2025-05-25T10:26:59Z</time></trkpt>
<trkpt lat="50.368669" lon="5.722133"><ele>264.19</ele><time>2025-05-25T10:27:02Z</time></trkpt>
<trkpt lat="50.368051" lon="5.722081"><ele>260.06</ele><time>2025-05-25T10:27:04Z</time></trkpt>
<trkpt lat="50.367903" lon="5.722037"><ele>261.62</ele><time>2025-05-25T10:27:07Z</time></trkpt>
<trkpt lat="50.367543" lon="5.723354"><ele>265.63</ele><time>2025-05-25T10:27:14Z</time></trkpt>
<trkpt lat="50.367183" lon="5.723653"><ele>268.39</ele><time>2025-05-25T10:27:17Z</time></trkpt>
<trkpt lat="50.366871" lon="5.723705"><ele>269.58</ele><time>2025-05-25T10:27:20Z</time></trkpt>
<trkpt lat="50.366147" lon="5.723497"><ele>274.36</ele><time>2025-05-25T10:27:24Z</time></trkpt>
<trkpt lat="50.365611" lon="5.723318"><ele>272.02</ele><time>2025-05-25T10:27:27Z</time></trkpt>
<trkpt lat="50.364759" lon="5.722915"><ele>269.12</ele><time>2025-05-25T10:27:31Z</time></trkpt>
<trkpt lat="50.364619" lon="5.722858"><ele>268.39</ele><time>2025-05-25T10:27:34Z</time></trkpt>
<trkpt lat="50.364438" lon="5.722839"><ele>267.34</ele><time>2025-05-25T10:27:37Z</time></trkpt>
<trkpt lat="50.364199" lon="5.722879"><ele>267.23</ele><time>2025-05-25T10:27:41Z</time></trkpt>
<trkpt lat="50.363586" lon="5.723068"><ele>269.09</ele><time>2025-05-25T10:27:44Z</time></trkpt>
<trkpt lat="50.362524" lon="5.723223"><ele>273.18</ele><time>2025-05-25T10:27:47Z</time></trkpt>
<trkpt lat="50.362014" lon="5.723387"><ele>276.28</ele><time>2025-05-25T10:27:51Z</time></trkpt>
<trkpt lat="50.361416" lon="5.723657"><ele>276.84</ele><time>2025-05-25T10:27:54Z</time></trkpt>
<trkpt lat="50.360662" lon="5.723924"><ele>275.77</ele><time>2025-05-25T10:27:58Z</time></trkpt>
<trkpt lat="50.359645" lon="5.72383"><ele>281.03</ele><time>2025-05-25T10:28:01Z</time></trkpt>
<trkpt lat="50.359122" lon="5.723749"><ele>278.2</ele><time>2025-05-25T10:28:04Z</time></trkpt>
<trkpt lat="50.358512" lon="5.723724"><ele>280.78</ele><time>2025-05-25T10:28:08Z</time></trkpt>
<trkpt lat="50.357729" lon="5.723776"><ele>285.63</ele><time>2025-05-25T10:28:11Z</time></trkpt>
<trkpt lat="50.357264" lon="5.723872"><ele>285.15</ele><time>2025-05-25T10:28:14Z</time></trkpt>
<trkpt lat="50.356881" lon="5.724002"><ele>289.53</ele><time>2025-05-25T10:28:18Z</time></trkpt>
<trkpt lat="50.356641" lon="5.724211"><ele>289.53</ele><time>2025-05-25T10:28:21Z</time></trkpt>
<trkpt lat="50.355092" lon="5.725997"><ele>281.64</ele><time>2025-05-25T10:28:24Z</time></trkpt>
<trkpt lat="50.354929" lon="5.726138"><ele>281.85</ele><time>2025-05-25T10:28:28Z</time></trkpt>
<trkpt lat="50.354735" lon="5.726239"><ele>285.43</ele><time>2025-05-25T10:28:31Z</time></trkpt>
<trkpt lat="50.354497" lon="5.726296"><ele>285.96</ele><time>2025-05-25T10:28:35Z</time></trkpt>
<trkpt lat="50.354009" lon="5.726229"><ele>290.74</ele><time>2025-05-25T10:28:38Z</time></trkpt>
<trkpt lat="50.353698" lon="5.726258"><ele>293.15</ele><time>2025-05-25T10:28:41Z</time></trkpt>
<trkpt lat="50.35308" lon="5.726362"><ele>291.86</ele><time>2025-05-25T10:28:45Z</time></trkpt>
<trkpt lat="50.352407" lon="5.726671"><ele>280.62</ele><time>2025-05-25T10:28:48Z</time></trkpt>
<trkpt lat="50.352184" lon="5.726691"><ele>283.79</ele><time>2025-05-25T10:28:51Z</time></trkpt>
<trkpt lat="50.351956" lon="5.726642"><ele>285.31</ele><time>2025-05-25T10:28:55Z</time></trkpt>
<trkpt lat="50.351414" lon="5.72634"><ele>287.18</ele><time>2025-05-25T10:28:58Z</time></trkpt>
<trkpt lat="50.351219" lon="5.7263"><ele>287.53</ele><time>2025-05-25T10:29:02Z</time></trkpt>
<trkpt lat="50.350036" lon="5.726374"><ele>283.32</ele><time>2025-05-25T10:29:05Z</time></trkpt>
<trkpt lat="50.349856" lon="5.726409"><ele>284.04</ele><time>2025-05-25T10:29:08Z</time></trkpt>
<trkpt lat="50.349387" lon="5.726586"><ele>285.74</ele><time>2025-05-25T10:29:12Z</time></trkpt>
<trkpt lat="50.349127" lon="5.726717"><ele>284.09</ele><time>2025-05-25T10:29:15Z</time></trkpt>
<trkpt lat="50.348833" lon="5.726975"><ele>281.23</ele><time>2025-05-25T10:29:18Z</time></trkpt>
<trkpt lat="50.347955" lon="5.727914"><ele>281.89</ele><time>2025-05-25T10:29:22Z</time></trkpt>
<trkpt lat="50.34778" lon="5.728101"><ele>280.5</ele><time>2025-05-25T10:29:25Z</time></trkpt>
<trkpt lat="50.346462" lon="5.729116"><ele>278.97</ele><time>2025-05-25T10:29:29Z</time></trkpt>
<trkpt lat="50.346141" lon="5.729401"><ele>279.42</ele><time>2025-05-25T10:29:32Z</time></trkpt>
<trkpt lat="50.345989" lon="5.729642"><ele>281.05</ele><time>2025-05-25T10:29:35Z</time></trkpt>
<trkpt lat="50.345431" lon="5.73092"><ele>279.89</ele><time>2025-05-25T10:29:39Z</time></trkpt>
<trkpt lat="50.345318" lon="5.731102"><ele>279.77</ele><time>2025-05-25T10:29:42Z</time></trkpt>
<trkpt lat="50.34516" lon="5.731306"><ele>281.4</ele><time>2025-05-25T10:29:45Z</time></trkpt>
<trkpt lat="50.344394" lon="5.731909"><ele>285.69</ele><time>2025-05-25T10:29:49Z</time></trkpt>
<trkpt lat="50.344251" lon="5.731992"><ele>286.63</ele><time>2025-05-25T10:29:52Z</time></trkpt>
<trkpt lat="50.344115" lon="5.732037"><ele>287.5</ele><time>2025-05-25T10:29:56Z</time></trkpt>
<trkpt lat="50.343946" lon="5.732018"><ele>289.37</ele><time>2025-05-25T10:29:59Z</time></trkpt>
<trkpt lat="50.341225" lon="5.731276"><ele>284.41</ele><time>2025-05-25T10:30:02Z</time></trkpt>
<trkpt lat="50.340968" lon="5.731227"><ele>289.86</ele><time>2025-05-25T10:30:06Z</time></trkpt>
<trkpt lat="50.34067" lon="5.73123"><ele>296.32</ele><time>2025-05-25T10:30:09Z</time></trkpt>
<trkpt lat="50.34004" lon="5.731374"><ele>299.23</ele><time>2025-05-25T10:30:12Z</time></trkpt>
<trkpt lat="50.33977" lon="5.731475"><ele>298.17</ele><time>2025-05-25T10:30:16Z</time></trkpt>
<trkpt lat="50.339645" lon="5.731549"><ele>297.11</ele><time>2025-05-25T10:30:19Z</time></trkpt>
<trkpt lat="50.338933" lon="5.73223"><ele>291.44</ele><time>2025-05-25T10:30:23Z</time></trkpt>
<trkpt lat="50.338611" lon="5.732444"><ele>292.81</ele><time>2025-05-25T10:30:26Z</time></trkpt>
<trkpt lat="50.338275" lon="5.732529"><ele>293.32</ele><time>2025-05-25T10:30:29Z</time></trkpt>
<trkpt lat="50.337763" lon="5.732699"><ele>293.55</ele><time>2025-05-25T10:30:33Z</time></trkpt>
<trkpt lat="50.337452" lon="5.732935"><ele>295.37</ele><time>2025-05-25T10:30:36Z</time></trkpt>
<trkpt lat="50.33531" lon="5.735087"><ele>307.45</ele><time>2025-05-25T10:30:39Z</time></trkpt>
<trkpt lat="50.335169" lon="5.735351"><ele>308.09</ele><time>2025-05-25T10:30:43Z</time></trkpt>
<trkpt lat="50.335001" lon="5.735867"><ele>305.48</ele><time>2025-05-25T10:30:46Z</time></trkpt>
<trkpt lat="50.334775" lon="5.736798"><ele>304.36</ele><time>2025-05-25T10:30:49Z</time></trkpt>
<trkpt lat="50.334675" lon="5.737629"><ele>304.63</ele><time>2025-05-25T10:30:53Z</time></trkpt>
<trkpt lat="50.334651" lon="5.737931"><ele>305.25</ele><time>2025-05-25T10:30:56Z</time></trkpt>
<trkpt lat="50.334655" lon="5.738192"><ele>306.23</ele><time>2025-05-25T10:31:00Z</time></trkpt>
<trkpt lat="50.334693" lon="5.738443"><ele>305.73</ele><time>2025-05-25T10:31:03Z</time></trkpt>
<trkpt lat="50.334753" lon="5.738696"><ele>304.3</ele><time>2025-05-25T10:31:06Z</time></trkpt>
<trkpt lat="50.334906" lon="5.739172"><ele>301.74</ele><time>2025-05-25T10:31:10Z</time></trkpt>
<trkpt lat="50.334956" lon="5.739433"><ele>302.18</ele><time>2025-05-25T10:31:13Z</time></trkpt>
<trkpt lat="50.334973" lon="5.739641"><ele>303.2</ele><time>2025-05-25T10:31:16Z</time></trkpt>
<trkpt lat="50.334964" lon="5.739859"><ele>305.01</ele><time>2025-05-25T10:31:20Z</time></trkpt>
<trkpt lat="50.334679" lon="5.741882"><ele>303.83</ele><time>2025-05-25T10:31:23Z</time></trkpt>
<trkpt lat="50.334625" lon="5.742103"><ele>304.37</ele><time>2025-05-25T10:31:27Z</time></trkpt>
<trkpt lat="50.334526" lon="5.742327"><ele>305.89</ele><time>2025-05-25T10:31:30Z</time></trkpt>
<trkpt lat="50.333793" lon="5.743672"><ele>320.41</ele><time>2025-05-25T10:31:33Z</time></trkpt>
<trkpt lat="50.333281" lon="5.744727"><ele>315.51</ele><time>2025-05-25T10:31:37Z</time></trkpt>
<trkpt lat="50.332647" lon="5.746207"><ele>312.75</ele><time>2025-05-25T10:31:40Z</time></trkpt>
<trkpt lat="50.331873" lon="5.747748"><ele>310.7</ele><time>2025-05-25T10:31:43Z</time></trkpt>
<trkpt lat="50.331747" lon="5.747942"><ele>310.27</ele><time>2025-05-25T10:31:47Z</time></trkpt>
<trkpt lat="50.33162" lon="5.748084"><ele>309.16</ele><time>2025-05-25T10:31:50Z</time></trkpt>
<trkpt lat="50.331374" lon="5.748243"><ele>310.04</ele><time>2025-05-25T10:31:54Z</time></trkpt>
<trkpt lat="50.331179" lon="5.748398"><ele>313.24</ele><time>2025-05-25T10:31:57Z</time></trkpt>
<trkpt lat="50.330685" lon="5.748944"><ele>312.97</ele><time>2025-05-25T10:32:00Z</time></trkpt>
<trkpt lat="50.330534" lon="5.749081"><ele>313.7</ele><time>2025-05-25T10:32:04Z</time></trkpt>
<trkpt lat="50.330368" lon="5.749168"><ele>316.02</ele><time>2025-05-25T10:32:07Z</time></trkpt>
<trkpt lat="50.329815" lon="5.749356"><ele>321.48</ele><time>2025-05-25T10:32:10Z</time></trkpt>
<trkpt lat="50.329629" lon="5.749466"><ele>321.29</ele><time>2025-05-25T10:32:14Z</time></trkpt>
<trkpt lat="50.327971" lon="5.750728"><ele>317.92</ele><time>2025-05-25T10:32:17Z</time></trkpt>
<trkpt lat="50.327851" lon="5.750768"><ele>318.55</ele><time>2025-05-25T10:32:21Z</time></trkpt>
<trkpt lat="50.3277" lon="5.750777"><ele>319.21</ele><time>2025-05-25T10:32:24Z</time></trkpt>
<trkpt lat="50.327113" lon="5.750535"><ele>317.45</ele><time>2025-05-25T10:32:27Z</time></trkpt>
<trkpt lat="50.326877" lon="5.750566"><ele>313.45</ele><time>2025-05-25T10:32:31Z</time></trkpt>
<trkpt lat="50.326623" lon="5.750716"><ele>312.67</ele><time>2025-05-25T10:32:34Z</time></trkpt>
<trkpt lat="50.326387" lon="5.749835"><ele>321.1</ele><time>2025-05-25T10:32:39Z</time></trkpt>
<trkpt lat="50.326043" lon="5.748355"><ele>332.96</ele><time>2025-05-25T10:32:43Z</time></trkpt>
<trkpt lat="50.325428" lon="5.745752"><ele>345.64</ele><time>2025-05-25T10:32:47Z</time></trkpt>
<trkpt lat="50.325334" lon="5.7455"><ele>347.54</ele><time>2025-05-25T10:32:52Z</time></trkpt>
<trkpt lat="50.325203" lon="5.745267"><ele>348.28</ele><time>2025-05-25T10:32:56Z</time></trkpt>
<trkpt lat="50.32206" lon="5.741343"><ele>349.0</ele><time>2025-05-25T10:33:01Z</time></trkpt>
<trkpt lat="50.32154" lon="5.740646"><ele>349.45</ele><time>2025-05-25T10:33:05Z</time></trkpt>
<trkpt lat="50.321474" lon="5.740503"><ele>349.75</ele><time>2025-05-25T10:33:10Z</time></trkpt>
<trkpt lat="50.321364" lon="5.740117"><ele>350.0</ele><time>2025-05-25T10:33:14Z</time></trkpt>
<trkpt lat="50.321323" lon="5.739636"><ele>351.07</ele><time>2025-05-25T10:33:19Z</time></trkpt>
<trkpt lat="50.321321" lon="5.738808"><ele>353.78</ele><time>2025-05-25T10:33:23Z</time></trkpt>
<trkpt lat="50.321369" lon="5.738426"><ele>354.8</ele><time>2025-05-25T10:33:28Z</time></trkpt>
<trkpt lat="50.321478" lon="5.738038"><ele>355.76</ele><time>2025-05-25T10:33:32Z</time></trkpt>
<trkpt lat="50.321558" lon="5.737836"><ele>356.66</ele><time>2025-05-25T10:33:37Z</time></trkpt>
<trkpt lat="50.321665" lon="5.737629"><ele>357.54</ele><time>2025-05-25T10:33:41Z</time></trkpt>
<trkpt lat="50.321901" lon="5.737246"><ele>359.76</ele><time>2025-05-25T10:33:45Z</time></trkpt>
<trkpt lat="50.322032" lon="5.737047"><ele>361.89</ele><time>2025-05-25T10:33:50Z</time></trkpt>
<trkpt lat="50.322205" lon="5.73685"><ele>364.53</ele><time>2025-05-25T10:33:54Z</time></trkpt>
<trkpt lat="50.322472" lon="5.736607"><ele>367.14</ele><time>2025-05-25T10:33:59Z</time></trkpt>
<trkpt lat="50.322602" lon="5.736462"><ele>367.37</ele><time>2025-05-25T10:34:03Z</time></trkpt>
<trkpt lat="50.322685" lon="5.73634"><ele>367.33</ele><time>2025-05-25T10:34:08Z</time></trkpt>
<trkpt lat="50.322745" lon="5.736196"><ele>367.12</ele><time>2025-05-25T10:34:12Z</time></trkpt>
<trkpt lat="50.322938" lon="5.735497"><ele>372.09</ele><time>2025-05-25T10:34:17Z</time></trkpt>
<trkpt lat="50.322981" lon="5.735107"><ele>372.27</ele><time>2025-05-25T10:34:21Z</time></trkpt>
<trkpt lat="50.323035" lon="5.734863"><ele>372.57</ele><time>2025-05-25T10:34:26Z</time></trkpt>
<trkpt lat="50.323287" lon="5.734359"><ele>376.81</ele><time>2025-05-25T10:34:30Z</time></trkpt>
<trkpt lat="50.323373" lon="5.734136"><ele>378.39</ele><time>2025-05-25T10:34:35Z</time></trkpt>
<trkpt lat="50.323425" lon="5.733356"><ele>378.98</ele><time>2025-05-25T10:34:39Z</time></trkpt>
<trkpt lat="50.323429" lon="5.732976"><ele>379.88</ele><time>2025-05-25T10:34:43Z</time></trkpt>
<trkpt lat="50.323379" lon="5.732458"><ele>381.48</ele><time>2025-05-25T10:34:48Z</time></trkpt>
<trkpt lat="50.323341" lon="5.732336"><ele>381.64</ele><time>2025-05-25T10:34:52Z</time></trkpt>
<trkpt lat="50.323301" lon="5.732282"><ele>381.9</ele><time>2025-05-25T10:34:57Z</time></trkpt>
<trkpt lat="50.323017" lon="5.731969"><ele>385.87</ele><time>2025-05-25T10:35:01Z</time></trkpt>
<trkpt lat="50.322928" lon="5.73191"><ele>386.83</ele><time>2025-05-25T10:35:06Z</time></trkpt>
<trkpt lat="50.322487" lon="5.731834"><ele>387.73</ele><time>2025-05-25T10:35:10Z</time></trkpt>
<trkpt lat="50.321853" lon="5.731606"><ele>385.63</ele><time>2025-05-25T10:35:15Z</time></trkpt>
<trkpt lat="50.321299" lon="5.731196"><ele>383.2</ele><time>2025-05-25T10:35:19Z</time></trkpt>
<trkpt lat="50.320896" lon="5.730941"><ele>381.29</ele><time>2025-05-25T10:35:24Z</time></trkpt>
<trkpt lat="50.320296" lon="5.730627"><ele>380.55</ele><time>2025-05-25T10:35:28Z</time></trkpt>
<trkpt lat="50.320018" lon="5.730454"><ele>378.55</ele><time>2025-05-25T10:35:33Z</time></trkpt>
<trkpt lat="50.319065" lon="5.729711"><ele>378.44</ele><time>2025-05-25T10:35:37Z</time></trkpt>
<trkpt lat="50.317882" lon="5.728625"><ele>382.93</ele><time>2025-05-25T10:35:42Z</time></trkpt>
<trkpt lat="50.31716" lon="5.727994"><ele>387.22</ele><time>2025-05-25T10:35:46Z</time></trkpt>
<trkpt lat="50.316702" lon="5.727647"><ele>390.22</ele><time>2025-05-25T10:35:50Z</time></trkpt>
<trkpt lat="50.314925" lon="5.726473"><ele>403.3</ele><time>2025-05-25T10:35:55Z</time></trkpt>
<trkpt lat="50.314371" lon="5.726146"><ele>403.26</ele><time>2025-05-25T10:35:59Z</time></trkpt>
<trkpt lat="50.31295" lon="5.725445"><ele>400.82</ele><time>2025-05-25T10:36:04Z</time></trkpt>
<trkpt lat="50.312787" lon="5.725332"><ele>399.42</ele><time>2025-05-25T10:36:08Z</time></trkpt>
<trkpt lat="50.312604" lon="5.725154"><ele>398.9</ele><time>2025-05-25T10:36:13Z</time></trkpt>
<trkpt lat="50.312404" lon="5.724909"><ele>398.58</ele><time>2025-05-25T10:36:17Z</time></trkpt>
<trkpt lat="50.311751" lon="5.723963"><ele>396.47</ele><time>2025-05-25T10:36:22Z</time></trkpt>
<trkpt lat="50.31155" lon="5.723613"><ele>396.85</ele><time>2025-05-25T10:36:26Z</time></trkpt>
<trkpt lat="50.311386" lon="5.723197"><ele>397.02</ele><time>2025-05-25T10:36:31Z</time></trkpt>
<trkpt lat="50.310889" lon="5.721138"><ele>400.39</ele><time>2025-05-25T10:36:35Z</time></trkpt>
<trkpt lat="50.310614" lon="5.720313"><ele>399.92</ele><time>2025-05-25T10:36:40Z</time></trkpt>
<trkpt lat="50.310242" lon="5.719612"><ele>397.87</ele><time>2025-05-25T10:36:44Z</time></trkpt>
<trkpt lat="50.308796" lon="5.717607"><ele>394.39</ele><time>2025-05-25T10:36:48Z</time></trkpt>
<trkpt lat="50.308684" lon="5.717417"><ele>393.92</ele><time>2025-05-25T10:36:53Z</time></trkpt>
<trkpt lat="50.307092" lon="5.714142"><ele>392.0</ele><time>2025-05-25T10:36:57Z</time></trkpt>
<trkpt lat="50.307015" lon="5.714014"><ele>392.0</ele><time>2025-05-25T10:37:02Z</time></trkpt>
<trkpt lat="50.306685" lon="5.71324"><ele>389.04</ele><time>2025-05-25T10:37:06Z</time></trkpt>
<trkpt lat="50.306603" lon="5.712949"><ele>389.0</ele><time>2025-05-25T10:37:11Z</time></trkpt>
<trkpt lat="50.30615" lon="5.709872"><ele>390.25</ele><time>2025-05-25T10:37:15Z</time></trkpt>
<trkpt lat="50.30564" lon="5.709962"><ele>393.05</ele><time>2025-05-25T10:37:24Z</time></trkpt>
<trkpt lat="50.304492" lon="5.710078"><ele>398.7</ele><time>2025-05-25T10:37:32Z</time></trkpt>
<trkpt lat="50.30426" lon="5.710144"><ele>401.31</ele><time>2025-05-25T10:37:40Z</time></trkpt>
<trkpt lat="50.304098" lon="5.710226"><ele>402.88</ele><time>2025-05-25T10:37:48Z</time></trkpt>
<trkpt lat="50.303911" lon="5.710369"><ele>404.71</ele><time>2025-05-25T10:37:57Z</time></trkpt>
<trkpt lat="50.303488" lon="5.70919"><ele>416.19</ele><time>2025-05-25T10:38:00Z</time></trkpt>
<trkpt lat="50.30343" lon="5.708903"><ele>419.17</ele><time>2025-05-25T10:38:03Z</time></trkpt>
<trkpt lat="50.303419" lon="5.708599"><ele>420.39</ele><time>2025-05-25T10:38:06Z</time></trkpt>
<trkpt lat="50.303375" lon="5.708379"><ele>420.82</ele><time>2025-05-25T10:38:09Z</time></trkpt>
<trkpt lat="50.303334" lon="5.708249"><ele>420.39</ele><time>2025-05-25T10:38:12Z</time></trkpt>
<trkpt lat="50.303231" lon="5.708059"><ele>419.02</ele><time>2025-05-25T10:38:15Z</time></trkpt>
<trkpt lat="50.303091" lon="5.707894"><ele>418.42</ele><time>2025-05-25T10:38:18Z</time></trkpt>
<trkpt lat="50.302829" lon="5.707766"><ele>417.1</ele><time>2025-05-25T10:38:21Z</time></trkpt>
<trkpt lat="50.302143" lon="5.712778"><ele>422.42</ele><time>2025-05-25T10:38:24Z</time></trkpt>
<trkpt lat="50.302129" lon="5.71342"><ele>427.55</ele><time>2025-05-25T10:38:27Z</time></trkpt>
<trkpt lat="50.302302" lon="5.716239"><ele>429.29</ele><time>2025-05-25T10:38:31Z</time></trkpt>
<trkpt lat="50.302295" lon="5.716503"><ele>429.37</ele><time>2025-05-25T10:38:34Z</time></trkpt>
<trkpt lat="50.302272" lon="5.71669"><ele>429.27</ele><time>2025-05-25T10:38:37Z</time></trkpt>
<trkpt lat="50.302232" lon="5.716856"><ele>428.39</ele><time>2025-05-25T10:38:41Z</time></trkpt>
<trkpt lat="50.301653" lon="5.718234"><ele>429.11</ele><time>2025-05-25T10:38:44Z</time></trkpt>
<trkpt lat="50.301436" lon="5.718797"><ele>429.27</ele><time>2025-05-25T10:38:47Z</time></trkpt>
<trkpt lat="50.301348" lon="5.71916"><ele>427.87</ele><time>2025-05-25T10:38:51Z</time></trkpt>
<trkpt lat="50.301321" lon="5.719514"><ele>425.5</ele><time>2025-05-25T10:38:54Z</time></trkpt>
<trkpt lat="50.301351" lon="5.719856"><ele>423.04</ele><time>2025-05-25T10:38:57Z</time></trkpt>
<trkpt lat="50.301534" lon="5.720866"><ele>415.71</ele><time>2025-05-25T10:39:01Z</time></trkpt>
<trkpt lat="50.301933" lon="5.723022"><ele>413.08</ele><time>2025-05-25T10:39:04Z</time></trkpt>
<trkpt lat="50.301949" lon="5.723259"><ele>413.0</ele><time>2025-05-25T10:39:07Z</time></trkpt>
<trkpt lat="50.301921" lon="5.72349"><ele>413.08</ele><time>2025-05-25T10:39:11Z</time></trkpt>
<trkpt lat="50.301784" lon="5.723958"><ele>414.19</ele><time>2025-05-25T10:39:14Z</time></trkpt>
<trkpt lat="50.301766" lon="5.724086"><ele>413.48</ele><time>2025-05-25T10:39:17Z</time></trkpt>
<trkpt lat="50.301772" lon="5.72433"><ele>411.68</ele><time>2025-05-25T10:39:20Z</time></trkpt>
<trkpt lat="50.301817" lon="5.724511"><ele>410.02</ele><time>2025-05-25T10:39:24Z</time></trkpt>
<trkpt lat="50.301937" lon="5.724715"><ele>408.02</ele><time>2025-05-25T10:39:27Z</time></trkpt>
<trkpt lat="50.302012" lon="5.724777"><ele>407.5</ele><time>2025-05-25T10:39:30Z</time></trkpt>
<trkpt lat="50.302169" lon="5.72485"><ele>407.31</ele><time>2025-05-25T10:39:34Z</time></trkpt>
<trkpt lat="50.302356" lon="5.724904"><ele>407.86</ele><time>2025-05-25T10:39:37Z</time></trkpt>
<trkpt lat="50.302502" lon="5.724979"><ele>407.53</ele><time>2025-05-25T10:39:40Z</time></trkpt>
<trkpt lat="50.302689" lon="5.725153"><ele>408.19</ele><time>2025-05-25T10:39:44Z</time></trkpt>
<trkpt lat="50.30362" lon="5.726397"><ele>401.1</ele><time>2025-05-25T10:39:47Z</time></trkpt>
<trkpt lat="50.30373" lon="5.72662"><ele>399.41</ele><time>2025-05-25T10:39:50Z</time></trkpt>
<trkpt lat="50.303795" lon="5.726864"><ele>398.56</ele><time>2025-05-25T10:39:54Z</time></trkpt>
<trkpt lat="50.303795" lon="5.727283"><ele>393.54</ele><time>2025-05-25T10:39:57Z</time></trkpt>
<trkpt lat="50.303578" lon="5.730719"><ele>402.55</ele><time>2025-05-25T10:40:00Z</time></trkpt>
<trkpt lat="50.30277" lon="5.729834"><ele>400.15</ele><time>2025-05-25T10:40:03Z</time></trkpt>
<trkpt lat="50.302549" lon="5.729687"><ele>396.97</ele><time>2025-05-25T10:40:06Z</time></trkpt>
<trkpt lat="50.301119" lon="5.728909"><ele>402.02</ele><time>2025-05-25T10:40:08Z</time></trkpt>
<trkpt lat="50.300545" lon="5.728634"><ele>403.19</ele><time>2025-05-25T10:40:11Z</time></trkpt>
<trkpt lat="50.300445" lon="5.728572"><ele>404.2</ele><time>2025-05-25T10:40:13Z</time></trkpt>
<trkpt lat="50.300324" lon="5.728459"><ele>405.5</ele><time>2025-05-25T10:40:16Z</time></trkpt>
<trkpt lat="50.299745" lon="5.727707"><ele>404.74</ele><time>2025-05-25T10:40:19Z</time></trkpt>
<trkpt lat="50.299102" lon="5.727156"><ele>404.23</ele><time>2025-05-25T10:40:21Z</time></trkpt>
<trkpt lat="50.298586" lon="5.726648"><ele>406.1</ele><time>2025-05-25T10:40:24Z</time></trkpt>
<trkpt lat="50.298305" lon="5.726416"><ele>406.4</ele><time>2025-05-25T10:40:27Z</time></trkpt>
<trkpt lat="50.297046" lon="5.725797"><ele>406.46</ele><time>2025-05-25T10:40:29Z</time></trkpt>
<trkpt lat="50.296765" lon="5.72564"><ele>407.4</ele><time>2025-05-25T10:40:32Z</time></trkpt>
<trkpt lat="50.296669" lon="5.725526"><ele>408.09</ele><time>2025-05-25T10:40:34Z</time></trkpt>
<trkpt lat="50.29658" lon="5.725378"><ele>409.46</ele><time>2025-05-25T10:40:37Z</time></trkpt>
<trkpt lat="50.296522" lon="5.72523"><ele>410.73</ele><time>2025-05-25T10:40:40Z</time></trkpt>
<trkpt lat="50.296438" lon="5.724816"><ele>412.7</ele><time>2025-05-25T10:40:42Z</time></trkpt>
<trkpt lat="50.296353" lon="5.724244"><ele>411.46</ele><time>2025-05-25T10:40:45Z</time></trkpt>
<trkpt lat="50.296299" lon="5.723993"><ele>409.43</ele><time>2025-05-25T10:40:48Z</time></trkpt>
<trkpt lat="50.29619" lon="5.723797"><ele>407.53</ele><time>2025-05-25T10:40:50Z</time></trkpt>
<trkpt lat="50.296082" lon="5.723693"><ele>406.66</ele><time>2025-05-25T10:40:53Z</time></trkpt>
<trkpt lat="50.295963" lon="5.723662"><ele>406.8</ele><time>2025-05-25T10:40:55Z</time></trkpt>
<trkpt lat="50.295849" lon="5.723669"><ele>407.17</ele><time>2025-05-25T10:40:58Z</time></trkpt>
<trkpt lat="50.295721" lon="5.723743"><ele>407.88</ele><time>2025-05-25T10:41:01Z</time></trkpt>
<trkpt lat="50.294906" lon="5.724344"><ele>413.64</ele><time>2025-05-25T10:41:03Z</time></trkpt>
<trkpt lat="50.294666" lon="5.72445"><ele>414.22</ele><time>2025-05-25T10:41:06Z</time></trkpt>
<trkpt lat="50.294543" lon="5.724457"><ele>414.69</ele><time>2025-05-25T10:41:09Z</time></trkpt>
<trkpt lat="50.294405" lon="5.724431"><ele>415.37</ele><time>2025-05-25T10:41:11Z</time></trkpt>
<trkpt lat="50.2931" lon="5.723806"><ele>415.11</ele><time>2025-05-25T10:41:14Z</time></trkpt>
<trkpt lat="50.291737" lon="5.723101"><ele>417.08</ele><time>2025-05-25T10:41:16Z</time></trkpt>
<trkpt lat="50.291542" lon="5.722914"><ele>418.56</ele><time>2025-05-25T10:41:19Z</time></trkpt>
<trkpt lat="50.289975" lon="5.720832"><ele>430.09</ele><time>2025-05-25T10:41:22Z</time></trkpt>
<trkpt lat="50.289772" lon="5.720647"><ele>430.82</ele><time>2025-05-25T10:41:24Z</time></trkpt>
<trkpt lat="50.289602" lon="5.720537"><ele>431.77</ele><time>2025-05-25T10:41:27Z</time></trkpt>
<trkpt lat="50.289453" lon="5.720474"><ele>432.36</ele><time>2025-05-25T10:41:29Z</time></trkpt>
<trkpt lat="50.289268" lon="5.720444"><ele>433.09</ele><time>2025-05-25T10:41:32Z</time></trkpt>
<trkpt lat="50.289124" lon="5.720448"><ele>433.86</ele><time>2025-05-25T10:41:35Z</time></trkpt>
<trkpt lat="50.288796" lon="5.720555"><ele>435.99</ele><time>2025-05-25T10:41:37Z</time></trkpt>
<trkpt lat="50.287532" lon="5.721376"><ele>442.88</ele><time>2025-05-25T10:41:40Z</time></trkpt>
<trkpt lat="50.287244" lon="5.721483"><ele>443.03</ele><time>2025-05-25T10:41:43Z</time></trkpt>
<trkpt lat="50.287126" lon="5.721502"><ele>443.0</ele><time>2025-05-25T10:41:45Z</time></trkpt>
<trkpt lat="50.286847" lon="5.721483"><ele>443.47</ele><time>2025-05-25T10:41:48Z</time></trkpt>
<trkpt lat="50.285752" lon="5.721189"><ele>454.65</ele><time>2025-05-25T10:41:50Z</time></trkpt>
<trkpt lat="50.285592" lon="5.721164"><ele>455.22</ele><time>2025-05-25T10:41:53Z</time></trkpt>
<trkpt lat="50.285453" lon="5.721169"><ele>455.79</ele><time>2025-05-25T10:41:56Z</time></trkpt>
<trkpt lat="50.285298" lon="5.721194"><ele>456.53</ele><time>2025-05-25T10:41:58Z</time></trkpt>
<trkpt lat="50.285078" lon="5.721282"><ele>458.23</ele><time>2025-05-25T10:42:01Z</time></trkpt>
<trkpt lat="50.284328" lon="5.721695"><ele>462.62</ele><time>2025-05-25T10:42:04Z</time></trkpt>
<trkpt lat="50.284251" lon="5.721696"><ele>462.9</ele><time>2025-05-25T10:42:06Z</time></trkpt>
<trkpt lat="50.28413" lon="5.721645"><ele>462.98</ele><time>2025-05-25T10:42:09Z</time></trkpt>
<trkpt lat="50.283938" lon="5.721406"><ele>462.72</ele><time>2025-05-25T10:42:11Z</time></trkpt>
<trkpt lat="50.283502" lon="5.7205"><ele>462.49</ele><time>2025-05-25T10:42:14Z</time></trkpt>
<trkpt lat="50.28322" lon="5.719988"><ele>465.22</ele><time>2025-05-25T10:42:17Z</time></trkpt>
<trkpt lat="50.283136" lon="5.719773"><ele>466.13</ele><time>2025-05-25T10:42:19Z</time></trkpt>
<trkpt lat="50.283078" lon="5.719592"><ele>466.76</ele><time>2025-05-25T10:42:22Z</time></trkpt>
<trkpt lat="50.282939" lon="5.718929"><ele>467.32</ele><time>2025-05-25T10:42:25Z</time></trkpt>
<trkpt lat="50.282711" lon="5.717523"><ele>467.66</ele><time>2025-05-25T10:42:27Z</time></trkpt>
<trkpt lat="50.282646" lon="5.717248"><ele>468.42</ele><time>2025-05-25T10:42:30Z</time></trkpt>
<trkpt lat="50.28249" lon="5.716759"><ele>470.16</ele><time>2025-05-25T10:42:32Z</time></trkpt>
<trkpt lat="50.282273" lon="5.716151"><ele>472.64</ele><time>2025-05-25T10:42:35Z</time></trkpt>
<trkpt lat="50.282126" lon="5.715805"><ele>473.35</ele><time>2025-05-25T10:42:38Z</time></trkpt>
<trkpt lat="50.281644" lon="5.714804"><ele>474.54</ele><time>2025-05-25T10:42:40Z</time></trkpt>
<trkpt lat="50.28154" lon="5.714867"><ele>475.89</ele><time>2025-05-25T10:42:43Z</time></trkpt>
<trkpt lat="50.281366" lon="5.715138"><ele>478.7</ele><time>2025-05-25T10:42:45Z</time></trkpt>
<trkpt lat="50.281222" lon="5.715649"><ele>481.74</ele><time>2025-05-25T10:42:48Z</time></trkpt>
<trkpt lat="50.280715" lon="5.714774"><ele>482.46</ele><time>2025-05-25T10:42:52Z</time></trkpt>
<trkpt lat="50.280306" lon="5.713952"><ele>481.12</ele><time>2025-05-25T10:42:56Z</time></trkpt>
<trkpt lat="50.280141" lon="5.713556"><ele>480.98</ele><time>2025-05-25T10:43:00Z</time></trkpt>
<trkpt lat="50.279863" lon="5.712974"><ele>481.69</ele><time>2025-05-25T10:43:04Z</time></trkpt>
<trkpt lat="50.279729" lon="5.71276"><ele>481.82</ele><time>2025-05-25T10:43:08Z</time></trkpt>
<trkpt lat="50.277519" lon="5.709655"><ele>481.69</ele><time>2025-05-25T10:43:12Z</time></trkpt>
<trkpt lat="50.276713" lon="5.708787"><ele>483.47</ele><time>2025-05-25T10:43:16Z</time></trkpt>
<trkpt lat="50.276436" lon="5.708443"><ele>484.99</ele><time>2025-05-25T10:43:20Z</time></trkpt>
<trkpt lat="50.276282" lon="5.708112"><ele>484.56</ele><time>2025-05-25T10:43:24Z</time></trkpt>
<trkpt lat="50.275863" lon="5.7065"><ele>482.18</ele><time>2025-05-25T10:43:28Z</time></trkpt>
<trkpt lat="50.275762" lon="5.706169"><ele>482.18</ele><time>2025-05-25T10:43:32Z</time></trkpt>
<trkpt lat="50.275146" lon="5.705046"><ele>487.07</ele><time>2025-05-25T10:43:36Z</time></trkpt>
<trkpt lat="50.274397" lon="5.703751"><ele>492.09</ele><time>2025-05-25T10:43:40Z</time></trkpt>
<trkpt lat="50.273609" lon="5.702993"><ele>498.0</ele><time>2025-05-25T10:43:44Z</time></trkpt>
<trkpt lat="50.273446" lon="5.702773"><ele>497.99</ele><time>2025-05-25T10:43:48Z</time></trkpt>
<trkpt lat="50.273238" lon="5.702227"><ele>498.69</ele><time>2025-05-25T10:43:51Z</time></trkpt>
<trkpt lat="50.272968" lon="5.701428"><ele>497.46</ele><time>2025-05-25T10:43:55Z</time></trkpt>
<trkpt lat="50.272068" lon="5.698935"><ele>507.5</ele><time>2025-05-25T10:43:59Z</time></trkpt>
<trkpt lat="50.271958" lon="5.698687"><ele>508.89</ele><time>2025-05-25T10:44:03Z</time></trkpt>
<trkpt lat="50.27061" lon="5.696388"><ele>517.61</ele><time>2025-05-25T10:44:07Z</time></trkpt>
<trkpt lat="50.270311" lon="5.69591"><ele>519.85</ele><time>2025-05-25T10:44:11Z</time></trkpt>
<trkpt lat="50.268873" lon="5.69377"><ele>528.48</ele><time>2025-05-25T10:44:15Z</time></trkpt>
<trkpt lat="50.268794" lon="5.693627"><ele>529.28</ele><time>2025-05-25T10:44:19Z</time></trkpt>
<trkpt lat="50.268687" lon="5.693517"><ele>529.97</ele><time>2025-05-25T10:44:23Z</time></trkpt>
<trkpt lat="50.268554" lon="5.693509"><ele>530.63</ele><time>2025-05-25T10:44:27Z</time></trkpt>
<trkpt lat="50.268422" lon="5.693567"><ele>531.31</ele><time>2025-05-25T10:44:31Z</time></trkpt>
<trkpt lat="50.268248" lon="5.693707"><ele>533.07</ele><time>2025-05-25T10:44:35Z</time></trkpt>
<trkpt lat="50.267479" lon="5.694397"><ele>542.41</ele><time>2025-05-25T10:44:39Z</time></trkpt>
<trkpt lat="50.267347" lon="5.694475"><ele>542.66</ele><time>2025-05-25T10:44:43Z</time></trkpt>
<trkpt lat="50.267109" lon="5.69452"><ele>542.43</ele><time>2025-05-25T10:44:47Z</time></trkpt>
<trkpt lat="50.266929" lon="5.694462"><ele>542.07</ele><time>2025-05-25T10:44:51Z</time></trkpt>
<trkpt lat="50.266213" lon="5.694059"><ele>538.22</ele><time>2025-05-25T10:44:55Z</time></trkpt>
<trkpt lat="50.266075" lon="5.694016"><ele>537.79</ele><time>2025-05-25T10:44:59Z</time></trkpt>
<trkpt lat="50.265399" lon="5.694017"><ele>539.02</ele><time>2025-05-25T10:45:03Z</time></trkpt>
<trkpt lat="50.265152" lon="5.693977"><ele>539.32</ele><time>2025-05-25T10:45:07Z</time></trkpt>
<trkpt lat="50.26494" lon="5.693861"><ele>538.8</ele><time>2025-05-25T10:45:11Z</time></trkpt>
<trkpt lat="50.264411" lon="5.693402"><ele>537.39</ele><time>2025-05-25T10:45:15Z</time></trkpt>
<trkpt lat="50.26433" lon="5.693352"><ele>537.51</ele><time>2025-05-25T10:45:19Z</time></trkpt>
<trkpt lat="50.264074" lon="5.693259"><ele>536.53</ele><time>2025-05-25T10:45:23Z</time></trkpt>
<trkpt lat="50.263947" lon="5.693257"><ele>535.6</ele><time>2025-05-25T10:45:27Z</time></trkpt>
<trkpt lat="50.263779" lon="5.693301"><ele>534.02</ele><time>2025-05-25T10:45:31Z</time></trkpt>
<trkpt lat="50.263488" lon="5.693474"><ele>531.46</ele><time>2025-05-25T10:45:35Z</time></trkpt>
<trkpt lat="50.262914" lon="5.693932"><ele>528.91</ele><time>2025-05-25T10:45:39Z</time></trkpt>
<trkpt lat="50.262514" lon="5.694355"><ele>528.52</ele><time>2025-05-25T10:45:43Z</time></trkpt>
<trkpt lat="50.262434" lon="5.694396"><ele>528.21</ele><time>2025-05-25T10:45:47Z</time></trkpt>
<trkpt lat="50.262348" lon="5.694387"><ele>527.61</ele><time>2025-05-25T10:45:51Z</time></trkpt>
<trkpt lat="50.262255" lon="5.694335"><ele>526.8</ele><time>2025-05-25T10:45:55Z</time></trkpt>
<trkpt lat="50.262187" lon="5.69423"><ele>527.0</ele><time>2025-05-25T10:45:59Z</time></trkpt>
<trkpt lat="50.262155" lon="5.694105"><ele>527.81</ele><time>2025-05-25T10:46:03Z</time></trkpt>
<trkpt lat="50.262169" lon="5.693968"><ele>527.6</ele><time>2025-05-25T10:46:07Z</time></trkpt>
<trkpt lat="50.262324" lon="5.693482"><ele>528.03</ele><time>2025-05-25T10:46:11Z</time></trkpt>
<trkpt lat="50.262406" lon="5.693059"><ele>529.99</ele><time>2025-05-25T10:46:15Z</time></trkpt>
<trkpt lat="50.262444" lon="5.692007"><ele>533.22</ele><time>2025-05-25T10:46:19Z</time></trkpt>
<trkpt lat="50.262428" lon="5.691753"><ele>533.0</ele><time>2025-05-25T10:46:23Z</time></trkpt>
<trkpt lat="50.26238" lon="5.6915"><ele>531.72</ele><time>2025-05-25T10:46:27Z</time></trkpt>
<trkpt lat="50.262095" lon="5.69072"><ele>532.28</ele><time>2025-05-25T10:46:31Z</time></trkpt>
<trkpt lat="50.261865" lon="5.690231"><ele>534.41</ele><time>2025-05-25T10:46:35Z</time></trkpt>
<trkpt lat="50.261343" lon="5.68922"><ele>533.88</ele><time>2025-05-25T10:46:39Z</time></trkpt>
<trkpt lat="50.261183" lon="5.688994"><ele>533.99</ele><time>2025-05-25T10:46:43Z</time></trkpt>
<trkpt lat="50.260143" lon="5.687925"><ele>536.23</ele><time>2025-05-25T10:46:47Z</time></trkpt>
<trkpt lat="50.259959" lon="5.687359"><ele>533.99</ele><time>2025-05-25T10:46:51Z</time></trkpt>
<trkpt lat="50.259794" lon="5.686727"><ele>530.87</ele><time>2025-05-25T10:46:55Z</time></trkpt>
<trkpt lat="50.25968" lon="5.686378"><ele>530.27</ele><time>2025-05-25T10:46:59Z</time></trkpt>
<trkpt lat="50.259555" lon="5.686073"><ele>529.93</ele><time>2025-05-25T10:47:03Z</time></trkpt>
<trkpt lat="50.258261" lon="5.683383"><ele>519.06</ele><time>2025-05-25T10:47:07Z</time></trkpt>
<trkpt lat="50.258094" lon="5.683109"><ele>518.1</ele><time>2025-05-25T10:47:11Z</time></trkpt>
<trkpt lat="50.25791" lon="5.682882"><ele>516.43</ele><time>2025-05-25T10:47:15Z</time></trkpt>
<trkpt lat="50.257539" lon="5.682521"><ele>514.08</ele><time>2025-05-25T10:47:19Z</time></trkpt>
<trkpt lat="50.25747" lon="5.682384"><ele>513.27</ele><time>2025-05-25T10:47:23Z</time></trkpt>
<trkpt lat="50.257166" lon="5.680876"><ele>503.86</ele><time>2025-05-25T10:47:27Z</time></trkpt>
<trkpt lat="50.25711" lon="5.680486"><ele>501.31</ele><time>2025-05-25T10:47:31Z</time></trkpt>
<trkpt lat="50.256963" lon="5.680308"><ele>501.08</ele><time>2025-05-25T10:47:35Z</time></trkpt>
<trkpt lat="50.256906" lon="5.680303"><ele>501.32</ele><time>2025-05-25T10:47:39Z</time></trkpt>
<trkpt lat="50.256094" lon="5.680624"><ele>506.32</ele><time>2025-05-25T10:47:43Z</time></trkpt>
<trkpt lat="50.255756" lon="5.680888"><ele>509.67</ele><time>2025-05-25T10:47:47Z</time></trkpt>
<trkpt lat="50.255481" lon="5.681206"><ele>512.68</ele><time>2025-05-25T10:47:51Z</time></trkpt>
<trkpt lat="50.255175" lon="5.681686"><ele>516.19</ele><time>2025-05-25T10:47:55Z</time></trkpt>
<trkpt lat="50.254714" lon="5.682199"><ele>524.81</ele><time>2025-05-25T10:47:59Z</time></trkpt>
<trkpt lat="50.254434" lon="5.68248"><ele>528.85</ele><time>2025-05-25T10:48:03Z</time></trkpt>
<trkpt lat="50.253814" lon="5.682383"><ele>528.15</ele><time>2025-05-25T10:48:08Z</time></trkpt>
<trkpt lat="50.25366" lon="5.682238"><ele>527.12</ele><time>2025-05-25T10:48:13Z</time></trkpt>
<trkpt lat="50.252538" lon="5.680455"><ele>538.76</ele><time>2025-05-25T10:48:19Z</time></trkpt>
<trkpt lat="50.252305" lon="5.680246"><ele>541.69</ele><time>2025-05-25T10:48:24Z</time></trkpt>
<trkpt lat="50.252007" lon="5.680043"><ele>542.15</ele><time>2025-05-25T10:48:29Z</time></trkpt>
<trkpt lat="50.251843" lon="5.679972"><ele>542.59</ele><time>2025-05-25T10:48:35Z</time></trkpt>
<trkpt lat="50.251581" lon="5.679925"><ele>543.85</ele><time>2025-05-25T10:48:40Z</time></trkpt>
<trkpt lat="50.251325" lon="5.679971"><ele>544.92</ele><time>2025-05-25T10:48:45Z</time></trkpt>
<trkpt lat="50.251193" lon="5.680036"><ele>545.13</ele><time>2025-05-25T10:48:51Z</time></trkpt>
<trkpt lat="50.250972" lon="5.680219"><ele>545.89</ele><time>2025-05-25T10:48:56Z</time></trkpt>
<trkpt lat="50.25086" lon="5.680345"><ele>546.24</ele><time>2025-05-25T10:49:01Z</time></trkpt>
<trkpt lat="50.250679" lon="5.680634"><ele>547.84</ele><time>2025-05-25T10:49:06Z</time></trkpt>
<trkpt lat="50.250565" lon="5.680905"><ele>549.48</ele><time>2025-05-25T10:49:12Z</time></trkpt>
<trkpt lat="50.250182" lon="5.682255"><ele>554.34</ele><time>2025-05-25T10:49:17Z</time></trkpt>
<trkpt lat="50.249791" lon="5.683505"><ele>558.48</ele><time>2025-05-25T10:49:22Z</time></trkpt>
<trkpt lat="50.249689" lon="5.683718"><ele>559.98</ele><time>2025-05-25T10:49:28Z</time></trkpt>
<trkpt lat="50.249471" lon="5.684101"><ele>561.65</ele><time>2025-05-25T10:49:33Z</time></trkpt>
<trkpt lat="50.248735" lon="5.685264"><ele>567.95</ele><time>2025-05-25T10:49:38Z</time></trkpt>
<trkpt lat="50.247859" lon="5.686715"><ele>571.17</ele><time>2025-05-25T10:49:44Z</time></trkpt>
<trkpt lat="50.247741" lon="5.686944"><ele>572.27</ele><time>2025-05-25T10:49:49Z</time></trkpt>
<trkpt lat="50.247645" lon="5.68718"><ele>573.84</ele><time>2025-05-25T10:49:54Z</time></trkpt>
<trkpt lat="50.243303" lon="5.700628"><ele>607.04</ele><time>2025-05-25T10:49:59Z</time></trkpt>
<trkpt lat="50.242932" lon="5.701635"><ele>608.84</ele><time>2025-05-25T10:50:05Z</time></trkpt>
<trkpt lat="50.242888" lon="5.701737"><ele>609.0</ele><time>2025-05-25T10:50:10Z</time></trkpt>
<trkpt lat="50.242779" lon="5.701959"><ele>609.05</ele><time>2025-05-25T10:50:15Z</time></trkpt>
<trkpt lat="50.242626" lon="5.702207"><ele>609.95</ele><time>2025-05-25T10:50:21Z</time></trkpt>
<trkpt lat="50.242086" lon="5.702933"><ele>609.29</ele><time>2025-05-25T10:50:26Z</time></trkpt>
<trkpt lat="50.241613" lon="5.703405"><ele>612.26</ele><time>2025-05-25T10:50:31Z</time></trkpt>
<trkpt lat="50.2413" lon="5.70365"><ele>615.92</ele><time>2025-05-25T10:50:37Z</time></trkpt>
<trkpt lat="50.24073" lon="5.704011"><ele>622.11</ele><time>2025-05-25T10:50:42Z</time></trkpt>
<trkpt lat="50.240112" lon="5.704293"><ele>625.27</ele><time>2025-05-25T10:50:47Z</time></trkpt>
<trkpt lat="50.23661" lon="5.705687"><ele>639.0</ele><time>2025-05-25T10:50:53Z</time></trkpt>
<trkpt lat="50.235952" lon="5.705977"><ele>643.09</ele><time>2025-05-25T10:50:58Z</time></trkpt>
<trkpt lat="50.23524" lon="5.70625"><ele>644.57</ele><time>2025-05-25T10:51:03Z</time></trkpt>
<trkpt lat="50.235012" lon="5.706357"><ele>644.99</ele><time>2025-05-25T10:51:08Z</time></trkpt>
<trkpt lat="50.234081" lon="5.70702"><ele>638.53</ele><time>2025-05-25T10:51:14Z</time></trkpt>
<trkpt lat="50.230629" lon="5.709762"><ele>626.3</ele><time>2025-05-25T10:51:19Z</time></trkpt>
<trkpt lat="50.22754" lon="5.712229"><ele>605.14</ele><time>2025-05-25T10:51:24Z</time></trkpt>
<trkpt lat="50.227325" lon="5.712447"><ele>604.37</ele><time>2025-05-25T10:51:30Z</time></trkpt>
<trkpt lat="50.22726" lon="5.712553"><ele>603.94</ele><time>2025-05-25T10:51:35Z</time></trkpt>
<trkpt lat="50.227204" lon="5.7127"><ele>603.26</ele><time>2025-05-25T10:51:40Z</time></trkpt>
<trkpt lat="50.226831" lon="5.714408"><ele>600.13</ele><time>2025-05-25T10:51:46Z</time></trkpt>
<trkpt lat="50.226562" lon="5.714373"><ele>599.13</ele><time>2025-05-25T10:51:52Z</time></trkpt>
<trkpt lat="50.226367" lon="5.714302"><ele>597.39</ele><time>2025-05-25T10:51:59Z</time></trkpt>
<trkpt lat="50.225789" lon="5.713984"><ele>596.0</ele><time>2025-05-25T10:52:06Z</time></trkpt>
<trkpt lat="50.225539" lon="5.713906"><ele>596.0</ele><time>2025-05-25T10:52:13Z</time></trkpt>
<trkpt lat="50.224716" lon="5.71387"><ele>596.06</ele><time>2025-05-25T10:52:20Z</time></trkpt>
<trkpt lat="50.224021" lon="5.713691"><ele>595.48</ele><time>2025-05-25T10:52:26Z</time></trkpt>
<trkpt lat="50.223593" lon="5.713634"><ele>595.15</ele><time>2025-05-25T10:52:33Z</time></trkpt>
<trkpt lat="50.223241" lon="5.713641"><ele>596.41</ele><time>2025-05-25T10:52:40Z</time></trkpt>
<trkpt lat="50.222887" lon="5.713717"><ele>597.98</ele><time>2025-05-25T10:52:47Z</time></trkpt>
<trkpt lat="50.222577" lon="5.713827"><ele>600.23</ele><time>2025-05-25T10:52:52Z</time></trkpt>
<trkpt lat="50.222408" lon="5.713766"><ele>601.66</ele><time>2025-05-25T10:52:57Z</time></trkpt>
<trkpt lat="50.219203" lon="5.711456"><ele>579.72</ele><time>2025-05-25T10:53:01Z</time></trkpt>
<trkpt lat="50.218858" lon="5.711178"><ele>574.69</ele><time>2025-05-25T10:53:06Z</time></trkpt>
<trkpt lat="50.217495" lon="5.710244"><ele>573.72</ele><time>2025-05-25T10:53:11Z</time></trkpt>
<trkpt lat="50.212497" lon="5.706649"><ele>537.92</ele><time>2025-05-25T10:53:16Z</time></trkpt>
<trkpt lat="50.209828" lon="5.704656"><ele>541.14</ele><time>2025-05-25T10:53:21Z</time></trkpt>
<trkpt lat="50.20919" lon="5.704082"><ele>535.75</ele><time>2025-05-25T10:53:26Z</time></trkpt>
<trkpt lat="50.208887" lon="5.703972"><ele>534.29</ele><time>2025-05-25T10:53:31Z</time></trkpt>
<trkpt lat="50.206855" lon="5.703731"><ele>521.68</ele><time>2025-05-25T10:53:36Z</time></trkpt>
<trkpt lat="50.206649" lon="5.70364"><ele>520.32</ele><time>2025-05-25T10:53:41Z</time></trkpt>
<trkpt lat="50.205833" lon="5.702813"><ele>512.0</ele><time>2025-05-25T10:53:46Z</time></trkpt>
<trkpt lat="50.205656" lon="5.702688"><ele>512.96</ele><time>2025-05-25T10:53:51Z</time></trkpt>
<trkpt lat="50.205588" lon="5.702669"><ele>513.28</ele><time>2025-05-25T10:53:55Z</time></trkpt>
<trkpt lat="50.205446" lon="5.702684"><ele>512.68</ele><time>2025-05-25T10:54:00Z</time></trkpt>
<trkpt lat="50.205133" lon="5.702861"><ele>511.06</ele><time>2025-05-25T10:54:05Z</time></trkpt>
<trkpt lat="50.205011" lon="5.703014"><ele>510.29</ele><time>2025-05-25T10:54:10Z</time></trkpt>
<trkpt lat="50.204477" lon="5.70405"><ele>507.88</ele><time>2025-05-25T10:54:15Z</time></trkpt>
<trkpt lat="50.20411" lon="5.70501"><ele>506.4</ele><time>2025-05-25T10:54:20Z</time></trkpt>
<trkpt lat="50.203636" lon="5.706274"><ele>504.09</ele><time>2025-05-25T10:54:25Z</time></trkpt>
<trkpt lat="50.202777" lon="5.708667"><ele>497.81</ele><time>2025-05-25T10:54:30Z</time></trkpt>
<trkpt lat="50.202093" lon="5.710498"><ele>498.81</ele><time>2025-05-25T10:54:35Z</time></trkpt>
<trkpt lat="50.200664" lon="5.712973"><ele>502.16</ele><time>2025-05-25T10:54:40Z</time></trkpt>
<trkpt lat="50.200417" lon="5.713327"><ele>500.55</ele><time>2025-05-25T10:54:45Z</time></trkpt>
<trkpt lat="50.199541" lon="5.713935"><ele>491.01</ele><time>2025-05-25T10:54:49Z</time></trkpt>
<trkpt lat="50.197812" lon="5.713976"><ele>478.41</ele><time>2025-05-25T10:54:54Z</time></trkpt>
<trkpt lat="50.196378" lon="5.714069"><ele>473.2</ele><time>2025-05-25T10:54:59Z</time></trkpt>
<trkpt lat="50.196032" lon="5.714118"><ele>474.57</ele><time>2025-05-25T10:55:04Z</time></trkpt>
<trkpt lat="50.195651" lon="5.714253"><ele>473.99</ele><time>2025-05-25T10:55:09Z</time></trkpt>
<trkpt lat="50.193559" lon="5.715243"><ele>461.14</ele><time>2025-05-25T10:55:14Z</time></trkpt>
<trkpt lat="50.192858" lon="5.715551"><ele>461.13</ele><time>2025-05-25T10:55:19Z</time></trkpt>
<trkpt lat="50.192527" lon="5.715673"><ele>458.91</ele><time>2025-05-25T10:55:24Z</time></trkpt>
<trkpt lat="50.192267" lon="5.715696"><ele>458.04</ele><time>2025-05-25T10:55:29Z</time></trkpt>
<trkpt lat="50.191993" lon="5.715656"><ele>455.83</ele><time>2025-05-25T10:55:34Z</time></trkpt>
<trkpt lat="50.191536" lon="5.715338"><ele>458.06</ele><time>2025-05-25T10:55:39Z</time></trkpt>
<trkpt lat="50.190809" lon="5.715057"><ele>458.83</ele><time>2025-05-25T10:55:44Z</time></trkpt>
<trkpt lat="50.190545" lon="5.715017"><ele>457.74</ele><time>2025-05-25T10:55:48Z</time></trkpt>
<trkpt lat="50.189697" lon="5.71502"><ele>456.53</ele><time>2025-05-25T10:55:53Z</time></trkpt>
<trkpt lat="50.188946" lon="5.714811"><ele>452.14</ele><time>2025-05-25T10:55:58Z</time></trkpt>
<trkpt lat="50.188323" lon="5.714577"><ele>451.93</ele><time>2025-05-25T10:56:03Z</time></trkpt>
<trkpt lat="50.188137" lon="5.714463"><ele>450.75</ele><time>2025-05-25T10:56:08Z</time></trkpt>
<trkpt lat="50.187853" lon="5.714402"><ele>446.63</ele><time>2025-05-25T10:56:13Z</time></trkpt>
<trkpt lat="50.187461" lon="5.714706"><ele>439.13</ele><time>2025-05-25T10:56:18Z</time></trkpt>
<trkpt lat="50.185592" lon="5.717312"><ele>440.28</ele><time>2025-05-25T10:56:23Z</time></trkpt>
<trkpt lat="50.185046" lon="5.718008"><ele>435.15</ele><time>2025-05-25T10:56:28Z</time></trkpt>
<trkpt lat="50.184904" lon="5.71815"><ele>434.59</ele><time>2025-05-25T10:56:33Z</time></trkpt>
<trkpt lat="50.18475" lon="5.718194"><ele>436.87</ele><time>2025-05-25T10:56:38Z</time></trkpt>
<trkpt lat="50.182426" lon="5.717869"><ele>454.0</ele><time>2025-05-25T10:56:42Z</time></trkpt>
<trkpt lat="50.182151" lon="5.717782"><ele>454.26</ele><time>2025-05-25T10:56:47Z</time></trkpt>
<trkpt lat="50.181935" lon="5.717685"><ele>455.45</ele><time>2025-05-25T10:56:52Z</time></trkpt>
<trkpt lat="50.180362" lon="5.715634"><ele>458.56</ele><time>2025-05-25T10:56:57Z</time></trkpt>
<trkpt lat="50.17997" lon="5.715086"><ele>462.37</ele><time>2025-05-25T10:57:02Z</time></trkpt>
<trkpt lat="50.179347" lon="5.714307"><ele>467.48</ele><time>2025-05-25T10:57:07Z</time></trkpt>
<trkpt lat="50.179109" lon="5.714155"><ele>468.91</ele><time>2025-05-25T10:57:12Z</time></trkpt>
<trkpt lat="50.178771" lon="5.714003"><ele>467.83</ele><time>2025-05-25T10:57:17Z</time></trkpt>
<trkpt lat="50.176938" lon="5.713439"><ele>444.71</ele><time>2025-05-25T10:57:22Z</time></trkpt>
<trkpt lat="50.175983" lon="5.713307"><ele>434.98</ele><time>2025-05-25T10:57:27Z</time></trkpt>
<trkpt lat="50.175524" lon="5.713295"><ele>431.41</ele><time>2025-05-25T10:57:32Z</time></trkpt>
<trkpt lat="50.175265" lon="5.713412"><ele>428.23</ele><time>2025-05-25T10:57:37Z</time></trkpt>
<trkpt lat="50.173868" lon="5.714481"><ele>428.05</ele><time>2025-05-25T10:57:41Z</time></trkpt>
<trkpt lat="50.173646" lon="5.714547"><ele>427.49</ele><time>2025-05-25T10:57:46Z</time></trkpt>
<trkpt lat="50.173356" lon="5.71455"><ele>426.46</ele><time>2025-05-25T10:57:51Z</time></trkpt>
<trkpt lat="50.172704" lon="5.714398"><ele>423.87</ele><time>2025-05-25T10:57:56Z</time></trkpt>
<trkpt lat="50.17209" lon="5.714175"><ele>419.98</ele><time>2025-05-25T10:58:01Z</time></trkpt>
<trkpt lat="50.170914" lon="5.713539"><ele>416.71</ele><time>2025-05-25T10:58:06Z</time></trkpt>
<trkpt lat="50.170662" lon="5.713461"><ele>417.95</ele><time>2025-05-25T10:58:11Z</time></trkpt>
<trkpt lat="50.170462" lon="5.713508"><ele>418.83</ele><time>2025-05-25T10:58:16Z</time></trkpt>
<trkpt lat="50.170199" lon="5.71362"><ele>418.64</ele><time>2025-05-25T10:58:21Z</time></trkpt>
<trkpt lat="50.169508" lon="5.7141"><ele>415.07</ele><time>2025-05-25T10:58:26Z</time></trkpt>
<trkpt lat="50.169272" lon="5.714375"><ele>413.83</ele><time>2025-05-25T10:58:31Z</time></trkpt>
<trkpt lat="50.169041" lon="5.714707"><ele>415.35</ele><time>2025-05-25T10:58:35Z</time></trkpt>
<trkpt lat="50.168767" lon="5.715011"><ele>416.8</ele><time>2025-05-25T10:58:40Z</time></trkpt>
<trkpt lat="50.168521" lon="5.715245"><ele>416.88</ele><time>2025-05-25T10:58:45Z</time></trkpt>
<trkpt lat="50.167603" lon="5.715921"><ele>418.0</ele><time>2025-05-25T10:58:50Z</time></trkpt>
<trkpt lat="50.167189" lon="5.716361"><ele>416.19</ele><time>2025-05-25T10:58:55Z</time></trkpt>
<trkpt lat="50.16643" lon="5.717236"><ele>410.43</ele><time>2025-05-25T10:59:00Z</time></trkpt>
<trkpt lat="50.166263" lon="5.717386"><ele>409.1</ele><time>2025-05-25T10:59:05Z</time></trkpt>
<trkpt lat="50.166053" lon="5.717453"><ele>407.38</ele><time>2025-05-25T10:59:10Z</time></trkpt>
<trkpt lat="50.165824" lon="5.716434"><ele>406.77</ele><time>2025-05-25T10:59:13Z</time></trkpt>
<trkpt lat="50.165649" lon="5.715946"><ele>406.21</ele><time>2025-05-25T10:59:16Z</time></trkpt>
<trkpt lat="50.165475" lon="5.715599"><ele>404.66</ele><time>2025-05-25T10:59:20Z</time></trkpt>
<trkpt lat="50.165157" lon="5.715046"><ele>403.13</ele><time>2025-05-25T10:59:23Z</time></trkpt>
<trkpt lat="50.165057" lon="5.714806"><ele>402.55</ele><time>2025-05-25T10:59:26Z</time></trkpt>
<trkpt lat="50.165003" lon="5.714637"><ele>402.03</ele><time>2025-05-25T10:59:30Z</time></trkpt>
<trkpt lat="50.164993" lon="5.714415"><ele>402.01</ele><time>2025-05-25T10:59:33Z</time></trkpt>
<trkpt lat="50.164549" lon="5.714245"><ele>398.36</ele><time>2025-05-25T10:59:35Z</time></trkpt>
<trkpt lat="50.163921" lon="5.713947"><ele>400.83</ele><time>2025-05-25T10:59:38Z</time></trkpt>
<trkpt lat="50.163792" lon="5.713848"><ele>401.89</ele><time>2025-05-25T10:59:40Z</time></trkpt>
<trkpt lat="50.163626" lon="5.71368"><ele>403.09</ele><time>2025-05-25T10:59:43Z</time></trkpt>
<trkpt lat="50.163392" lon="5.713337"><ele>405.94</ele><time>2025-05-25T10:59:45Z</time></trkpt>
<trkpt lat="50.162291" lon="5.711207"><ele>415.0</ele><time>2025-05-25T10:59:48Z</time></trkpt>
<trkpt lat="50.162181" lon="5.711082"><ele>416.34</ele><time>2025-05-25T10:59:50Z</time></trkpt>
<trkpt lat="50.162053" lon="5.710998"><ele>417.42</ele><time>2025-05-25T10:59:53Z</time></trkpt>
<trkpt lat="50.161877" lon="5.711002"><ele>419.33</ele><time>2025-05-25T10:59:55Z</time></trkpt>
<trkpt lat="50.161709" lon="5.711067"><ele>421.38</ele><time>2025-05-25T10:59:57Z</time></trkpt>
<trkpt lat="50.161539" lon="5.711285"><ele>422.92</ele><time>2025-05-25T11:00:00Z</time></trkpt>
<trkpt lat="50.161425" lon="5.711522"><ele>424.22</ele><time>2025-05-25T11:00:02Z</time></trkpt>
<trkpt lat="50.160887" lon="5.713936"><ele>424.02</ele><time>2025-05-25T11:00:05Z</time></trkpt>
<trkpt lat="50.160803" lon="5.714157"><ele>422.92</ele><time>2025-05-25T11:00:07Z</time></trkpt>
<trkpt lat="50.16075" lon="5.714239"><ele>422.26</ele><time>2025-05-25T11:00:10Z</time></trkpt>
<trkpt lat="50.160623" lon="5.714379"><ele>421.29</ele><time>2025-05-25T11:00:12Z</time></trkpt>
<trkpt lat="50.160538" lon="5.714435"><ele>421.1</ele><time>2025-05-25T11:00:15Z</time></trkpt>
<trkpt lat="50.160371" lon="5.714495"><ele>421.48</ele><time>2025-05-25T11:00:17Z</time></trkpt>
<trkpt lat="50.160228" lon="5.714486"><ele>421.85</ele><time>2025-05-25T11:00:20Z</time></trkpt>
<trkpt lat="50.160096" lon="5.714435"><ele>422.03</ele><time>2025-05-25T11:00:22Z</time></trkpt>
<trkpt lat="50.157913" lon="5.713209"><ele>405.53</ele><time>2025-05-25T11:00:24Z</time></trkpt>
<trkpt lat="50.1576" lon="5.713045"><ele>403.32</ele><time>2025-05-25T11:00:27Z</time></trkpt>
<trkpt lat="50.157465" lon="5.713044"><ele>402.96</ele><time>2025-05-25T11:00:29Z</time></trkpt>
<trkpt lat="50.15737" lon="5.713113"><ele>403.21</ele><time>2025-05-25T11:00:32Z</time></trkpt>
<trkpt lat="50.157291" lon="5.713216"><ele>403.58</ele><time>2025-05-25T11:00:34Z</time></trkpt>
<trkpt lat="50.157219" lon="5.713352"><ele>403.93</ele><time>2025-05-25T11:00:37Z</time></trkpt>
<trkpt lat="50.157153" lon="5.713601"><ele>403.04</ele><time>2025-05-25T11:00:39Z</time></trkpt>
<trkpt lat="50.157171" lon="5.714437"><ele>399.06</ele><time>2025-05-25T11:00:42Z</time></trkpt>
<trkpt lat="50.157153" lon="5.714682"><ele>397.93</ele><time>2025-05-25T11:00:44Z</time></trkpt>
<trkpt lat="50.15707" lon="5.71518"><ele>394.45</ele><time>2025-05-25T11:00:46Z</time></trkpt>
<trkpt lat="50.156854" lon="5.715833"><ele>390.0</ele><time>2025-05-25T11:00:49Z</time></trkpt>
<trkpt lat="50.156715" lon="5.71616"><ele>389.35</ele><time>2025-05-25T11:00:51Z</time></trkpt>
<trkpt lat="50.156556" lon="5.716458"><ele>387.5</ele><time>2025-05-25T11:00:54Z</time></trkpt>
<trkpt lat="50.156379" lon="5.716705"><ele>385.96</ele><time>2025-05-25T11:00:56Z</time></trkpt>
<trkpt lat="50.155196" lon="5.717746"><ele>376.77</ele><time>2025-05-25T11:00:59Z</time></trkpt>
<trkpt lat="50.154993" lon="5.717816"><ele>375.33</ele><time>2025-05-25T11:01:01Z</time></trkpt>
<trkpt lat="50.154842" lon="5.717788"><ele>376.23</ele><time>2025-05-25T11:01:04Z</time></trkpt>
<trkpt lat="50.154689" lon="5.717695"><ele>376.37</ele><time>2025-05-25T11:01:06Z</time></trkpt>
<trkpt lat="50.154102" lon="5.716831"><ele>367.28</ele><time>2025-05-25T11:01:09Z</time></trkpt>
<trkpt lat="50.154007" lon="5.716774"><ele>366.8</ele><time>2025-05-25T11:01:11Z</time></trkpt>
<trkpt lat="50.153908" lon="5.716772"><ele>366.96</ele><time>2025-05-25T11:01:13Z</time></trkpt>
<trkpt lat="50.153821" lon="5.716805"><ele>366.02</ele><time>2025-05-25T11:01:16Z</time></trkpt>
<trkpt lat="50.15373" lon="5.716915"><ele>364.71</ele><time>2025-05-25T11:01:18Z</time></trkpt>
<trkpt lat="50.153662" lon="5.717042"><ele>363.51</ele><time>2025-05-25T11:01:21Z</time></trkpt>
<trkpt lat="50.153582" lon="5.717372"><ele>362.51</ele><time>2025-05-25T11:01:23Z</time></trkpt>
<trkpt lat="50.153489" lon="5.717881"><ele>363.95</ele><time>2025-05-25T11:01:26Z</time></trkpt>
<trkpt lat="50.153417" lon="5.718152"><ele>363.66</ele><time>2025-05-25T11:01:28Z</time></trkpt>
<trkpt lat="50.153318" lon="5.718364"><ele>361.67</ele><time>2025-05-25T11:01:31Z</time></trkpt>
<trkpt lat="50.153185" lon="5.718538"><ele>358.79</ele><time>2025-05-25T11:01:33Z</time></trkpt>
<trkpt lat="50.152807" lon="5.718957"><ele>353.94</ele><time>2025-05-25T11:01:36Z</time></trkpt>
<trkpt lat="50.152175" lon="5.719604"><ele>350.21</ele><time>2025-05-25T11:01:38Z</time></trkpt>
<trkpt lat="50.152015" lon="5.719739"><ele>350.0</ele><time>2025-05-25T11:01:40Z</time></trkpt>
<trkpt lat="50.151787" lon="5.719872"><ele>349.72</ele><time>2025-05-25T11:01:43Z</time></trkpt>
<trkpt lat="50.150483" lon="5.720361"><ele>349.79</ele><time>2025-05-25T11:01:45Z</time></trkpt>
<trkpt lat="50.150302" lon="5.720329"><ele>351.74</ele><time>2025-05-25T11:01:48Z</time></trkpt>
<trkpt lat="50.150229" lon="5.720291"><ele>352.35</ele><time>2025-05-25T11:01:50Z</time></trkpt>
<trkpt lat="50.150117" lon="5.720168"><ele>353.15</ele><time>2025-05-25T11:01:53Z</time></trkpt>
<trkpt lat="50.150023" lon="5.719968"><ele>353.83</ele><time>2025-05-25T11:01:55Z</time></trkpt>
<trkpt lat="50.149811" lon="5.719413"><ele>355.25</ele><time>2025-05-25T11:01:58Z</time></trkpt>
<trkpt lat="50.149684" lon="5.719204"><ele>355.29</ele><time>2025-05-25T11:02:00Z</time></trkpt>
<trkpt lat="50.149606" lon="5.719145"><ele>355.34</ele><time>2025-05-25T11:02:02Z</time></trkpt>
<trkpt lat="50.149444" lon="5.719118"><ele>355.83</ele><time>2025-05-25T11:02:05Z</time></trkpt>
<trkpt lat="50.14929" lon="5.719173"><ele>358.24</ele><time>2025-05-25T11:02:07Z</time></trkpt>
<trkpt lat="50.149186" lon="5.719263"><ele>359.77</ele><time>2025-05-25T11:02:10Z</time></trkpt>
<trkpt lat="50.149151" lon="5.719333"><ele>360.3</ele><time>2025-05-25T11:02:12Z</time></trkpt>
<trkpt lat="50.149094" lon="5.719572"><ele>360.8</ele><time>2025-05-25T11:02:15Z</time></trkpt>
<trkpt lat="50.148991" lon="5.720873"><ele>361.97</ele><time>2025-05-25T11:02:17Z</time></trkpt>
<trkpt lat="50.14896" lon="5.721136"><ele>364.16</ele><time>2025-05-25T11:02:20Z</time></trkpt>
<trkpt lat="50.148922" lon="5.721256"><ele>364.98</ele><time>2025-05-25T11:02:22Z</time></trkpt>
<trkpt lat="50.148807" lon="5.721433"><ele>366.43</ele><time>2025-05-25T11:02:25Z</time></trkpt>
<trkpt lat="50.148698" lon="5.721529"><ele>367.16</ele><time>2025-05-25T11:02:27Z</time></trkpt>
<trkpt lat="50.148397" lon="5.721653"><ele>369.48</ele><time>2025-05-25T11:02:29Z</time></trkpt>
<trkpt lat="50.148227" lon="5.721654"><ele>371.13</ele><time>2025-05-25T11:02:32Z</time></trkpt>
<trkpt lat="50.148077" lon="5.721591"><ele>373.0</ele><time>2025-05-25T11:02:34Z</time></trkpt>
<trkpt lat="50.147925" lon="5.721446"><ele>375.1</ele><time>2025-05-25T11:02:37Z</time></trkpt>
<trkpt lat="50.147846" lon="5.721305"><ele>376.56</ele><time>2025-05-25T11:02:39Z</time></trkpt>
<trkpt lat="50.147196" lon="5.719122"><ele>389.98</ele><time>2025-05-25T11:02:42Z</time></trkpt>
<trkpt lat="50.147084" lon="5.718884"><ele>390.03</ele><time>2025-05-25T11:02:44Z</time></trkpt>
<trkpt lat="50.146924" lon="5.718603"><ele>390.91</ele><time>2025-05-25T11:02:47Z</time></trkpt>
<trkpt lat="50.146761" lon="5.718682"><ele>389.17</ele><time>2025-05-25T11:02:49Z</time></trkpt>
<trkpt lat="50.146051" lon="5.718996"><ele>381.78</ele><time>2025-05-25T11:02:51Z</time></trkpt>
<trkpt lat="50.145877" lon="5.719047"><ele>381.16</ele><time>2025-05-25T11:02:53Z</time></trkpt>
<trkpt lat="50.144802" lon="5.719017"><ele>376.36</ele><time>2025-05-25T11:02:55Z</time></trkpt>
<trkpt lat="50.144244" lon="5.719054"><ele>373.76</ele><time>2025-05-25T11:02:58Z</time></trkpt>
<trkpt lat="50.14403" lon="5.71903"><ele>373.51</ele><time>2025-05-25T11:03:00Z</time></trkpt>
<trkpt lat="50.143909" lon="5.71898"><ele>373.33</ele><time>2025-05-25T11:03:02Z</time></trkpt>
<trkpt lat="50.142841" lon="5.718092"><ele>365.13</ele><time>2025-05-25T11:03:04Z</time></trkpt>
<trkpt lat="50.142149" lon="5.717733"><ele>363.26</ele><time>2025-05-25T11:03:06Z</time></trkpt>
<trkpt lat="50.141842" lon="5.717633"><ele>361.07</ele><time>2025-05-25T11:03:08Z</time></trkpt>
<trkpt lat="50.141577" lon="5.717593"><ele>359.46</ele><time>2025-05-25T11:03:11Z</time></trkpt>
<trkpt lat="50.140695" lon="5.71756"><ele>353.47</ele><time>2025-05-25T11:03:13Z</time></trkpt>
<trkpt lat="50.140558" lon="5.717533"><ele>352.61</ele><time>2025-05-25T11:03:15Z</time></trkpt>
<trkpt lat="50.140444" lon="5.717476"><ele>351.22</ele><time>2025-05-25T11:03:17Z</time></trkpt>
<trkpt lat="50.140211" lon="5.717304"><ele>347.71</ele><time>2025-05-25T11:03:19Z</time></trkpt>
<trkpt lat="50.139504" lon="5.716424"><ele>339.55</ele><time>2025-05-25T11:03:21Z</time></trkpt>
<trkpt lat="50.139412" lon="5.71633"><ele>338.01</ele><time>2025-05-25T11:03:24Z</time></trkpt>
<trkpt lat="50.13932" lon="5.716269"><ele>336.9</ele><time>2025-05-25T11:03:26Z</time></trkpt>
<trkpt lat="50.139082" lon="5.716212"><ele>335.74</ele><time>2025-05-25T11:03:28Z</time></trkpt>
<trkpt lat="50.138944" lon="5.716217"><ele>336.17</ele><time>2025-05-25T11:03:30Z</time></trkpt>
<trkpt lat="50.138644" lon="5.716285"><ele>334.56</ele><time>2025-05-25T11:03:32Z</time></trkpt>
<trkpt lat="50.13854" lon="5.716336"><ele>333.77</ele><time>2025-05-25T11:03:34Z</time></trkpt>
<trkpt lat="50.138455" lon="5.71642"><ele>333.79</ele><time>2025-05-25T11:03:37Z</time></trkpt>
<trkpt lat="50.138085" lon="5.716906"><ele>333.32</ele><time>2025-05-25T11:03:39Z</time></trkpt>
<trkpt lat="50.137692" lon="5.717245"><ele>325.57</ele><time>2025-05-25T11:03:41Z</time></trkpt>
<trkpt lat="50.137645" lon="5.717322"><ele>324.38</ele><time>2025-05-25T11:03:43Z</time></trkpt>
<trkpt lat="50.137614" lon="5.717532"><ele>323.68</ele><time>2025-05-25T11:03:45Z</time></trkpt>
<trkpt lat="50.137616" lon="5.717621"><ele>323.7</ele><time>2025-05-25T11:03:47Z</time></trkpt>
<trkpt lat="50.137692" lon="5.717841"><ele>326.08</ele><time>2025-05-25T11:03:50Z</time></trkpt>
<trkpt lat="50.137819" lon="5.718062"><ele>329.72</ele><time>2025-05-25T11:03:52Z</time></trkpt>
<trkpt lat="50.137948" lon="5.718343"><ele>332.13</ele><time>2025-05-25T11:03:54Z</time></trkpt>
<trkpt lat="50.138131" lon="5.719105"><ele>323.89</ele><time>2025-05-25T11:03:56Z</time></trkpt>
<trkpt lat="50.138351" lon="5.719912"><ele>321.96</ele><time>2025-05-25T11:03:58Z</time></trkpt>
<trkpt lat="50.138395" lon="5.720162"><ele>321.93</ele><time>2025-05-25T11:04:00Z</time></trkpt>
<trkpt lat="50.138413" lon="5.720434"><ele>320.35</ele><time>2025-05-25T11:04:03Z</time></trkpt>
<trkpt lat="50.138393" lon="5.721391"><ele>317.9</ele><time>2025-05-25T11:04:05Z</time></trkpt>
<trkpt lat="50.138365" lon="5.721574"><ele>317.3</ele><time>2025-05-25T11:04:07Z</time></trkpt>
<trkpt lat="50.138211" lon="5.722256"><ele>318.52</ele><time>2025-05-25T11:04:09Z</time></trkpt>
<trkpt lat="50.138159" lon="5.722402"><ele>318.84</ele><time>2025-05-25T11:04:11Z</time></trkpt>
<trkpt lat="50.138089" lon="5.722509"><ele>317.74</ele><time>2025-05-25T11:04:13Z</time></trkpt>
<trkpt lat="50.137998" lon="5.722576"><ele>315.77</ele><time>2025-05-25T11:04:16Z</time></trkpt>
<trkpt lat="50.137488" lon="5.722836"><ele>307.03</ele><time>2025-05-25T11:04:18Z</time></trkpt>
<trkpt lat="50.137292" lon="5.722865"><ele>306.67</ele><time>2025-05-25T11:04:20Z</time></trkpt>
<trkpt lat="50.136976" lon="5.722813"><ele>307.43</ele><time>2025-05-25T11:04:22Z</time></trkpt>
<trkpt lat="50.136848" lon="5.722768"><ele>307.57</ele><time>2025-05-25T11:04:24Z</time></trkpt>
<trkpt lat="50.136666" lon="5.722651"><ele>307.17</ele><time>2025-05-25T11:04:27Z</time></trkpt>
<trkpt lat="50.136826" lon="5.721662"><ele>301.57</ele><time>2025-05-25T11:04:30Z</time></trkpt>
<trkpt lat="50.136463" lon="5.721484"><ele>303.36</ele><time>2025-05-25T11:04:35Z</time></trkpt>
<trkpt lat="50.136126" lon="5.721265"><ele>306.77</ele><time>2025-05-25T11:04:40Z</time></trkpt>
<trkpt lat="50.135675" lon="5.72086"><ele>319.8</ele><time>2025-05-25T11:04:45Z</time></trkpt>
<trkpt lat="50.134532" lon="5.720704"><ele>333.76</ele><time>2025-05-25T11:04:49Z</time></trkpt>
<trkpt lat="50.134082" lon="5.720779"><ele>336.55</ele><time>2025-05-25T11:04:54Z</time></trkpt>
<trkpt lat="50.1337" lon="5.720999"><ele>334.11</ele><time>2025-05-25T11:04:59Z</time></trkpt>
<trkpt lat="50.133563" lon="5.720983"><ele>335.19</ele><time>2025-05-25T11:05:03Z</time></trkpt>
<trkpt lat="50.133361" lon="5.720904"><ele>337.78</ele><time>2025-05-25T11:05:08Z</time></trkpt>
<trkpt lat="50.133217" lon="5.720819"><ele>338.75</ele><time>2025-05-25T11:05:13Z</time></trkpt>
<trkpt lat="50.133096" lon="5.720801"><ele>338.6</ele><time>2025-05-25T11:05:18Z</time></trkpt>
<trkpt lat="50.132751" lon="5.720862"><ele>337.67</ele><time>2025-05-25T11:05:22Z</time></trkpt>
<trkpt lat="50.132617" lon="5.72085"><ele>338.31</ele><time>2025-05-25T11:05:27Z</time></trkpt>
<trkpt lat="50.132524" lon="5.720815"><ele>339.23</ele><time>2025-05-25T11:05:32Z</time></trkpt>
<trkpt lat="50.131947" lon="5.720296"><ele>345.62</ele><time>2025-05-25T11:05:37Z</time></trkpt>
<trkpt lat="50.131571" lon="5.719854"><ele>348.07</ele><time>2025-05-25T11:05:41Z</time></trkpt>
<trkpt lat="50.131084" lon="5.719216"><ele>353.14</ele><time>2025-05-25T11:05:46Z</time></trkpt>
<trkpt lat="50.130385" lon="5.718189"><ele>362.76</ele><time>2025-05-25T11:05:51Z</time></trkpt>
<trkpt lat="50.129962" lon="5.717421"><ele>371.63</ele><time>2025-05-25T11:05:56Z</time></trkpt>
<trkpt lat="50.129831" lon="5.717301"><ele>371.86</ele><time>2025-05-25T11:06:00Z</time></trkpt>
<trkpt lat="50.128848" lon="5.716841"><ele>372.81</ele><time>2025-05-25T11:06:05Z</time></trkpt>
<trkpt lat="50.128665" lon="5.716809"><ele>373.05</ele><time>2025-05-25T11:06:10Z</time></trkpt>
<trkpt lat="50.128515" lon="5.71682"><ele>373.18</ele><time>2025-05-25T11:06:15Z</time></trkpt>
<trkpt lat="50.12838" lon="5.716884"><ele>373.17</ele><time>2025-05-25T11:06:19Z</time></trkpt>
<trkpt lat="50.127918" lon="5.717513"><ele>381.85</ele><time>2025-05-25T11:06:24Z</time></trkpt>
<trkpt lat="50.127806" lon="5.717728"><ele>382.0</ele><time>2025-05-25T11:06:29Z</time></trkpt>
<trkpt lat="50.127668" lon="5.717873"><ele>381.84</ele><time>2025-05-25T11:06:34Z</time></trkpt>
<trkpt lat="50.127464" lon="5.717849"><ele>382.48</ele><time>2025-05-25T11:06:38Z</time></trkpt>
<trkpt lat="50.12735" lon="5.717885"><ele>381.53</ele><time>2025-05-25T11:06:43Z</time></trkpt>
<trkpt lat="50.127242" lon="5.717971"><ele>380.45</ele><time>2025-05-25T11:06:48Z</time></trkpt>
<trkpt lat="50.127185" lon="5.718118"><ele>379.57</ele><time>2025-05-25T11:06:53Z</time></trkpt>
<trkpt lat="50.127156" lon="5.718282"><ele>379.1</ele><time>2025-05-25T11:06:57Z</time></trkpt>
<trkpt lat="50.127163" lon="5.718807"><ele>380.7</ele><time>2025-05-25T11:07:02Z</time></trkpt>
<trkpt lat="50.127149" lon="5.71903"><ele>381.51</ele><time>2025-05-25T11:07:07Z</time></trkpt>
<trkpt lat="50.127113" lon="5.719212"><ele>382.16</ele><time>2025-05-25T11:07:12Z</time></trkpt>
<trkpt lat="50.127035" lon="5.719439"><ele>382.98</ele><time>2025-05-25T11:07:16Z</time></trkpt>
<trkpt lat="50.126726" lon="5.720054"><ele>383.29</ele><time>2025-05-25T11:07:21Z</time></trkpt>
<trkpt lat="50.126299" lon="5.720511"><ele>388.27</ele><time>2025-05-25T11:07:26Z</time></trkpt>
<trkpt lat="50.1261" lon="5.720626"><ele>388.83</ele><time>2025-05-25T11:07:31Z</time></trkpt>
<trkpt lat="50.125988" lon="5.720638"><ele>389.72</ele><time>2025-05-25T11:07:35Z</time></trkpt>
<trkpt lat="50.125908" lon="5.72057"><ele>390.45</ele><time>2025-05-25T11:07:40Z</time></trkpt>
<trkpt lat="50.125841" lon="5.720454"><ele>391.31</ele><time>2025-05-25T11:07:45Z</time></trkpt>
<trkpt lat="50.125804" lon="5.7203"><ele>392.34</ele><time>2025-05-25T11:07:50Z</time></trkpt>
<trkpt lat="50.125826" lon="5.719496"><ele>393.1</ele><time>2025-05-25T11:07:54Z</time></trkpt>
<trkpt lat="50.125815" lon="5.71927"><ele>393.98</ele><time>2025-05-25T11:07:59Z</time></trkpt>
<trkpt lat="50.125775" lon="5.719043"><ele>395.79</ele><time>2025-05-25T11:08:04Z</time></trkpt>
<trkpt lat="50.12478" lon="5.715978"><ele>409.11</ele><time>2025-05-25T11:08:09Z</time></trkpt>
<trkpt lat="50.124694" lon="5.715796"><ele>409.51</ele><time>2025-05-25T11:08:13Z</time></trkpt>
<trkpt lat="50.124623" lon="5.71572"><ele>410.78</ele><time>2025-05-25T11:08:18Z</time></trkpt>
<trkpt lat="50.124521" lon="5.715683"><ele>412.62</ele><time>2025-05-25T11:08:23Z</time></trkpt>
<trkpt lat="50.124428" lon="5.715705"><ele>414.23</ele><time>2025-05-25T11:08:27Z</time></trkpt>
<trkpt lat="50.124323" lon="5.715779"><ele>415.74</ele><time>2025-05-25T11:08:32Z</time></trkpt>
<trkpt lat="50.124189" lon="5.71597"><ele>417.63</ele><time>2025-05-25T11:08:37Z</time></trkpt>
<trkpt lat="50.123844" lon="5.716714"><ele>424.18</ele><time>2025-05-25T11:08:42Z</time></trkpt>
<trkpt lat="50.123398" lon="5.717598"><ele>427.3</ele><time>2025-05-25T11:08:46Z</time></trkpt>
<trkpt lat="50.123229" lon="5.717891"><ele>427.86</ele><time>2025-05-25T11:08:51Z</time></trkpt>
<trkpt lat="50.121374" lon="5.720174"><ele>440.03</ele><time>2025-05-25T11:08:56Z</time></trkpt>
<trkpt lat="50.121163" lon="5.720362"><ele>441.06</ele><time>2025-05-25T11:09:01Z</time></trkpt>
<trkpt lat="50.120588" lon="5.720497"><ele>443.07</ele><time>2025-05-25T11:09:05Z</time></trkpt>
<trkpt lat="50.120418" lon="5.720511"><ele>443.58</ele><time>2025-05-25T11:09:10Z</time></trkpt>
<trkpt lat="50.120185" lon="5.720465"><ele>444.0</ele><time>2025-05-25T11:09:15Z</time></trkpt>
<trkpt lat="50.117059" lon="5.719154"><ele>446.0</ele><time>2025-05-25T11:09:20Z</time></trkpt>
<trkpt lat="50.116837" lon="5.719113"><ele>446.39</ele><time>2025-05-25T11:09:24Z</time></trkpt>
<trkpt lat="50.112764" lon="5.719337"><ele>454.18</ele><time>2025-05-25T11:09:29Z</time></trkpt>
<trkpt lat="50.112385" lon="5.719287"><ele>455.55</ele><time>2025-05-25T11:09:34Z</time></trkpt>
<trkpt lat="50.110761" lon="5.718721"><ele>455.81</ele><time>2025-05-25T11:09:39Z</time></trkpt>
<trkpt lat="50.109605" lon="5.718335"><ele>469.43</ele><time>2025-05-25T11:09:43Z</time></trkpt>
<trkpt lat="50.109266" lon="5.718137"><ele>467.5</ele><time>2025-05-25T11:09:48Z</time></trkpt>
<trkpt lat="50.108362" lon="5.717327"><ele>474.66</ele><time>2025-05-25T11:09:53Z</time></trkpt>
<trkpt lat="50.107643" lon="5.716646"><ele>476.33</ele><time>2025-05-25T11:09:58Z</time></trkpt>
<trkpt lat="50.107446" lon="5.71655"><ele>474.96</ele><time>2025-05-25T11:10:02Z</time></trkpt>
<trkpt lat="50.107297" lon="5.716518"><ele>474.19</ele><time>2025-05-25T11:10:07Z</time></trkpt>
<trkpt lat="50.107056" lon="5.716516"><ele>473.59</ele><time>2025-05-25T11:10:12Z</time></trkpt>
<trkpt lat="50.106881" lon="5.716576"><ele>474.1</ele><time>2025-05-25T11:10:17Z</time></trkpt>
<trkpt lat="50.105871" lon="5.717051"><ele>476.9</ele><time>2025-05-25T11:10:21Z</time></trkpt>
<trkpt lat="50.104987" lon="5.717438"><ele>475.97</ele><time>2025-05-25T11:10:26Z</time></trkpt>
<trkpt lat="50.104804" lon="5.717468"><ele>475.46</ele><time>2025-05-25T11:10:31Z</time></trkpt>
<trkpt lat="50.103085" lon="5.716729"><ele>470.0</ele><time>2025-05-25T11:10:36Z</time></trkpt>
<trkpt lat="50.102008" lon="5.716235"><ele>468.45</ele><time>2025-05-25T11:10:40Z</time></trkpt>
<trkpt lat="50.101735" lon="5.716049"><ele>468.53</ele><time>2025-05-25T11:10:45Z</time></trkpt>
<trkpt lat="50.101345" lon="5.715694"><ele>470.16</ele><time>2025-05-25T11:10:50Z</time></trkpt>
<trkpt lat="50.100996" lon="5.715219"><ele>470.2</ele><time>2025-05-25T11:10:55Z</time></trkpt>
<trkpt lat="50.100138" lon="5.713926"><ele>471.56</ele><time>2025-05-25T11:10:59Z</time></trkpt>
<trkpt lat="50.099616" lon="5.713226"><ele>471.99</ele><time>2025-05-25T11:11:04Z</time></trkpt>
<trkpt lat="50.098899" lon="5.712394"><ele>473.96</ele><time>2025-05-25T11:11:09Z</time></trkpt>
<trkpt lat="50.097859" lon="5.71112"><ele>474.0</ele><time>2025-05-25T11:11:14Z</time></trkpt>
<trkpt lat="50.097516" lon="5.710727"><ele>474.0</ele><time>2025-05-25T11:11:18Z</time></trkpt>
<trkpt lat="50.097241" lon="5.710518"><ele>473.19</ele><time>2025-05-25T11:11:23Z</time></trkpt>
<trkpt lat="50.095372" lon="5.709419"><ele>472.63</ele><time>2025-05-25T11:11:28Z</time></trkpt>
<trkpt lat="50.095031" lon="5.709285"><ele>472.42</ele><time>2025-05-25T11:11:32Z</time></trkpt>
<trkpt lat="50.093904" lon="5.708901"><ele>472.0</ele><time>2025-05-25T11:11:37Z</time></trkpt>
<trkpt lat="50.09354" lon="5.708708"><ele>471.0</ele><time>2025-05-25T11:11:42Z</time></trkpt>
<trkpt lat="50.092918" lon="5.70827"><ele>468.9</ele><time>2025-05-25T11:11:47Z</time></trkpt>
<trkpt lat="50.092545" lon="5.707993"><ele>467.16</ele><time>2025-05-25T11:11:51Z</time></trkpt>
<trkpt lat="50.092146" lon="5.707729"><ele>465.4</ele><time>2025-05-25T11:11:56Z</time></trkpt>
<trkpt lat="50.091888" lon="5.70762"><ele>463.93</ele><time>2025-05-25T11:12:01Z</time></trkpt>
<trkpt lat="50.090823" lon="5.7073"><ele>460.92</ele><time>2025-05-25T11:12:06Z</time></trkpt>
<trkpt lat="50.090544" lon="5.707188"><ele>459.08</ele><time>2025-05-25T11:12:10Z</time></trkpt>
<trkpt lat="50.090276" lon="5.70704"><ele>457.99</ele><time>2025-05-25T11:12:15Z</time></trkpt>
<trkpt lat="50.089595" lon="5.706489"><ele>452.63</ele><time>2025-05-25T11:12:20Z</time></trkpt>
<trkpt lat="50.089156" lon="5.706221"><ele>448.93</ele><time>2025-05-25T11:12:25Z</time></trkpt>
<trkpt lat="50.088948" lon="5.706032"><ele>447.48</ele><time>2025-05-25T11:12:29Z</time></trkpt>
<trkpt lat="50.088354" lon="5.705408"><ele>445.53</ele><time>2025-05-25T11:12:34Z</time></trkpt>
<trkpt lat="50.087735" lon="5.704794"><ele>441.28</ele><time>2025-05-25T11:12:39Z</time></trkpt>
<trkpt lat="50.087412" lon="5.70452"><ele>438.36</ele><time>2025-05-25T11:12:44Z</time></trkpt>
<trkpt lat="50.087347" lon="5.704511"><ele>437.9</ele><time>2025-05-25T11:12:48Z</time></trkpt>
<trkpt lat="50.086337" lon="5.704757"><ele>431.71</ele><time>2025-05-25T11:12:53Z</time></trkpt>
<trkpt lat="50.086228" lon="5.704856"><ele>431.22</ele><time>2025-05-25T11:12:58Z</time></trkpt>
<trkpt lat="50.085957" lon="5.705287"><ele>431.55</ele><time>2025-05-25T11:13:03Z</time></trkpt>
<trkpt lat="50.085143" lon="5.706084"><ele>436.97</ele><time>2025-05-25T11:13:07Z</time></trkpt>
<trkpt lat="50.085016" lon="5.706181"><ele>437.88</ele><time>2025-05-25T11:13:12Z</time></trkpt>
<trkpt lat="50.084876" lon="5.706251"><ele>438.45</ele><time>2025-05-25T11:13:17Z</time></trkpt>
<trkpt lat="50.084783" lon="5.706268"><ele>438.78</ele><time>2025-05-25T11:13:22Z</time></trkpt>
<trkpt lat="50.084616" lon="5.706238"><ele>439.38</ele><time>2025-05-25T11:13:26Z</time></trkpt>
<trkpt lat="50.082902" lon="5.705668"><ele>446.37</ele><time>2025-05-25T11:13:31Z</time></trkpt>
<trkpt lat="50.082352" lon="5.705572"><ele>449.56</ele><time>2025-05-25T11:13:36Z</time></trkpt>
<trkpt lat="50.081446" lon="5.705476"><ele>454.87</ele><time>2025-05-25T11:13:41Z</time></trkpt>
<trkpt lat="50.081271" lon="5.705505"><ele>456.49</ele><time>2025-05-25T11:13:45Z</time></trkpt>
<trkpt lat="50.07983" lon="5.706207"><ele>460.36</ele><time>2025-05-25T11:13:50Z</time></trkpt>
<trkpt lat="50.078673" lon="5.706724"><ele>466.78</ele><time>2025-05-25T11:13:55Z</time></trkpt>
<trkpt lat="50.078331" lon="5.706842"><ele>466.99</ele><time>2025-05-25T11:14:00Z</time></trkpt>
<trkpt lat="50.078085" lon="5.70686"><ele>466.38</ele><time>2025-05-25T11:14:04Z</time></trkpt>
<trkpt lat="50.077868" lon="5.706806"><ele>466.5</ele><time>2025-05-25T11:14:09Z</time></trkpt>
<trkpt lat="50.076062" lon="5.705909"><ele>463.1</ele><time>2025-05-25T11:14:14Z</time></trkpt>
<trkpt lat="50.075413" lon="5.705614"><ele>459.48</ele><time>2025-05-25T11:14:19Z</time></trkpt>
<trkpt lat="50.073308" lon="5.704535"><ele>460.18</ele><time>2025-05-25T11:14:23Z</time></trkpt>
<trkpt lat="50.072814" lon="5.704318"><ele>465.06</ele><time>2025-05-25T11:14:28Z</time></trkpt>
<trkpt lat="50.071727" lon="5.7043"><ele>474.41</ele><time>2025-05-25T11:14:33Z</time></trkpt>
<trkpt lat="50.070918" lon="5.704195"><ele>476.18</ele><time>2025-05-25T11:14:38Z</time></trkpt>
<trkpt lat="50.067381" lon="5.703545"><ele>469.43</ele><time>2025-05-25T11:14:42Z</time></trkpt>
<trkpt lat="50.066764" lon="5.703271"><ele>469.42</ele><time>2025-05-25T11:14:47Z</time></trkpt>
<trkpt lat="50.066335" lon="5.703043"><ele>469.95</ele><time>2025-05-25T11:14:52Z</time></trkpt>
<trkpt lat="50.063111" lon="5.700713"><ele>465.8</ele><time>2025-05-25T11:14:56Z</time></trkpt>
<trkpt lat="50.061415" lon="5.699413"><ele>468.68</ele><time>2025-05-25T11:15:01Z</time></trkpt>
<trkpt lat="50.059618" lon="5.697992"><ele>476.3</ele><time>2025-05-25T11:15:06Z</time></trkpt>
<trkpt lat="50.059122" lon="5.69752"><ele>478.07</ele><time>2025-05-25T11:15:11Z</time></trkpt>
<trkpt lat="50.058564" lon="5.696888"><ele>478.17</ele><time>2025-05-25T11:15:15Z</time></trkpt>
<trkpt lat="50.057893" lon="5.695958"><ele>477.28</ele><time>2025-05-25T11:15:20Z</time></trkpt>
<trkpt lat="50.057523" lon="5.695429"><ele>476.45</ele><time>2025-05-25T11:15:25Z</time></trkpt>
<trkpt lat="50.057094" lon="5.695134"><ele>474.38</ele><time>2025-05-25T11:15:30Z</time></trkpt>
<trkpt lat="50.055799" lon="5.694602"><ele>462.63</ele><time>2025-05-25T11:15:34Z</time></trkpt>
<trkpt lat="50.055099" lon="5.694087"><ele>458.07</ele><time>2025-05-25T11:15:39Z</time></trkpt>
<trkpt lat="50.054045" lon="5.693064"><ele>452.11</ele><time>2025-05-25T11:15:44Z</time></trkpt>
<trkpt lat="50.053933" lon="5.692913"><ele>451.32</ele><time>2025-05-25T11:15:49Z</time></trkpt>
<trkpt lat="50.05347" lon="5.692079"><ele>448.48</ele><time>2025-05-25T11:15:53Z</time></trkpt>
<trkpt lat="50.053335" lon="5.691751"><ele>447.71</ele><time>2025-05-25T11:15:58Z</time></trkpt>
<trkpt lat="50.053138" lon="5.691189"><ele>448.63</ele><time>2025-05-25T11:16:03Z</time></trkpt>
<trkpt lat="50.052879" lon="5.690278"><ele>450.82</ele><time>2025-05-25T11:16:08Z</time></trkpt>
<trkpt lat="50.052846" lon="5.690063"><ele>451.0</ele><time>2025-05-25T11:16:12Z</time></trkpt>
<trkpt lat="50.052513" lon="5.689909"><ele>447.16</ele><time>2025-05-25T11:16:16Z</time></trkpt>
<trkpt lat="50.052388" lon="5.689829"><ele>445.13</ele><time>2025-05-25T11:16:19Z</time></trkpt>
<trkpt lat="50.05222" lon="5.689647"><ele>441.98</ele><time>2025-05-25T11:16:22Z</time></trkpt>
<trkpt lat="50.051643" lon="5.688769"><ele>439.26</ele><time>2025-05-25T11:16:25Z</time></trkpt>
<trkpt lat="50.05144" lon="5.688534"><ele>438.6</ele><time>2025-05-25T11:16:29Z</time></trkpt>
<trkpt lat="50.051295" lon="5.688442"><ele>437.59</ele><time>2025-05-25T11:16:32Z</time></trkpt>
<trkpt lat="50.050962" lon="5.687748"><ele>433.9</ele><time>2025-05-25T11:16:40Z</time></trkpt>
<trkpt lat="50.048745" lon="5.682385"><ele>418.56</ele><time>2025-05-25T11:16:48Z</time></trkpt>
<trkpt lat="50.048045" lon="5.680745"><ele>417.24</ele><time>2025-05-25T11:16:56Z</time></trkpt>
<trkpt lat="50.047636" lon="5.68003"><ele>417.82</ele><time>2025-05-25T11:17:04Z</time></trkpt>
<trkpt lat="50.046337" lon="5.67832"><ele>420.78</ele><time>2025-05-25T11:17:12Z</time></trkpt>
<trkpt lat="50.045972" lon="5.678021"><ele>415.74</ele><time>2025-05-25T11:17:19Z</time></trkpt>
<trkpt lat="50.044954" lon="5.677259"><ele>421.9</ele><time>2025-05-25T11:17:27Z</time></trkpt>
<trkpt lat="50.044539" lon="5.676742"><ele>422.82</ele><time>2025-05-25T11:17:35Z</time></trkpt>
<trkpt lat="50.044272" lon="5.676231"><ele>422.59</ele><time>2025-05-25T11:17:43Z</time></trkpt>
<trkpt lat="50.044127" lon="5.675708"><ele>423.9</ele><time>2025-05-25T11:17:51Z</time></trkpt>
<trkpt lat="50.043994" lon="5.67513"><ele>424.5</ele><time>2025-05-25T11:17:59Z</time></trkpt>
<trkpt lat="50.043847" lon="5.674756"><ele>425.42</ele><time>2025-05-25T11:18:07Z</time></trkpt>
<trkpt lat="50.043699" lon="5.674446"><ele>424.95</ele><time>2025-05-25T11:18:15Z</time></trkpt>
<trkpt lat="50.04332" lon="5.67393"><ele>424.66</ele><time>2025-05-25T11:18:23Z</time></trkpt>
<trkpt lat="50.041606" lon="5.671872"><ele>422.56</ele><time>2025-05-25T11:18:31Z</time></trkpt>
<trkpt lat="50.041076" lon="5.671037"><ele>424.62</ele><time>2025-05-25T11:18:39Z</time></trkpt>
<trkpt lat="50.039925" lon="5.669041"><ele>433.33</ele><time>2025-05-25T11:18:47Z</time></trkpt>
<trkpt lat="50.039854" lon="5.668739"><ele>433.76</ele><time>2025-05-25T11:18:54Z</time></trkpt>
<trkpt lat="50.03919" lon="5.668909"><ele>434.83</ele><time>2025-05-25T11:18:59Z</time></trkpt>
<trkpt lat="50.038993" lon="5.669028"><ele>435.63</ele><time>2025-05-25T11:19:03Z</time></trkpt>
<trkpt lat="50.038552" lon="5.66964"><ele>438.21</ele><time>2025-05-25T11:19:08Z</time></trkpt>
<trkpt lat="50.038359" lon="5.669837"><ele>438.53</ele><time>2025-05-25T11:19:12Z</time></trkpt>
<trkpt lat="50.038107" lon="5.669226"><ele>439.84</ele><time>2025-05-25T11:19:20Z</time></trkpt>
<trkpt lat="50.03775" lon="5.668429"><ele>440.9</ele><time>2025-05-25T11:19:27Z</time></trkpt>
<trkpt lat="50.037416" lon="5.667757"><ele>440.33</ele><time>2025-05-25T11:19:35Z</time></trkpt>
<trkpt lat="50.037036" lon="5.667105"><ele>443.73</ele><time>2025-05-25T11:19:43Z</time></trkpt>
<trkpt lat="50.035205" lon="5.664121"><ele>446.0</ele><time>2025-05-25T11:19:51Z</time></trkpt>
<trkpt lat="50.034878" lon="5.663593"><ele>448.53</ele><time>2025-05-25T11:19:59Z</time></trkpt>
<trkpt lat="50.033667" lon="5.661649"><ele>455.8</ele><time>2025-05-25T11:20:06Z</time></trkpt>
<trkpt lat="50.032701" lon="5.660036"><ele>464.15</ele><time>2025-05-25T11:20:14Z</time></trkpt>
<trkpt lat="50.032492" lon="5.659604"><ele>465.98</ele><time>2025-05-25T11:20:22Z</time></trkpt>
<trkpt lat="50.028754" lon="5.650183"><ele>485.97</ele><time>2025-05-25T11:20:30Z</time></trkpt>
<trkpt lat="50.026517" lon="5.644525"><ele>493.17</ele><time>2025-05-25T11:20:37Z</time></trkpt>
<trkpt lat="50.026368" lon="5.64421"><ele>494.55</ele><time>2025-05-25T11:20:45Z</time></trkpt>
<trkpt lat="50.026235" lon="5.643966"><ele>494.61</ele><time>2025-05-25T11:20:53Z</time></trkpt>
<trkpt lat="50.026084" lon="5.643763"><ele>493.44</ele><time>2025-05-25T11:21:01Z</time></trkpt>
<trkpt lat="50.025892" lon="5.64355"><ele>493.0</ele><time>2025-05-25T11:21:09Z</time></trkpt>
<trkpt lat="50.02287" lon="5.640567"><ele>501.0</ele><time>2025-05-25T11:21:16Z</time></trkpt>
<trkpt lat="50.022464" lon="5.640073"><ele>499.48</ele><time>2025-05-25T11:21:24Z</time></trkpt>
<trkpt lat="50.021238" lon="5.638091"><ele>492.52</ele><time>2025-05-25T11:21:32Z</time></trkpt>
<trkpt lat="50.021131" lon="5.637956"><ele>492.07</ele><time>2025-05-25T11:21:40Z</time></trkpt>
<trkpt lat="50.021043" lon="5.637909"><ele>491.63</ele><time>2025-05-25T11:21:47Z</time></trkpt>
<trkpt lat="50.020947" lon="5.63792"><ele>491.12</ele><time>2025-05-25T11:21:55Z</time></trkpt>
<trkpt lat="50.02088" lon="5.637963"><ele>490.89</ele><time>2025-05-25T11:22:03Z</time></trkpt>
<trkpt lat="50.020352" lon="5.638514"><ele>486.8</ele><time>2025-05-25T11:22:11Z</time></trkpt>
<trkpt lat="50.020147" lon="5.638759"><ele>485.53</ele><time>2025-05-25T11:22:18Z</time></trkpt>
<trkpt lat="50.01902" lon="5.639845"><ele>483.91</ele><time>2025-05-25T11:22:26Z</time></trkpt>
<trkpt lat="50.018929" lon="5.63996"><ele>484.0</ele><time>2025-05-25T11:22:34Z</time></trkpt>
<trkpt lat="50.018609" lon="5.640497"><ele>482.21</ele><time>2025-05-25T11:22:42Z</time></trkpt>
<trkpt lat="50.018454" lon="5.640652"><ele>481.43</ele><time>2025-05-25T11:22:50Z</time></trkpt>
<trkpt lat="50.018216" lon="5.6406"><ele>480.16</ele><time>2025-05-25T11:22:57Z</time></trkpt>
<trkpt lat="50.017868" lon="5.640231"><ele>480.55</ele><time>2025-05-25T11:23:05Z</time></trkpt>
<trkpt lat="50.017703" lon="5.640094"><ele>480.12</ele><time>2025-05-25T11:23:13Z</time></trkpt>
<trkpt lat="50.017345" lon="5.639873"><ele>477.79</ele><time>2025-05-25T11:23:21Z</time></trkpt>
<trkpt lat="50.016625" lon="5.640259"><ele>477.44</ele><time>2025-05-25T11:23:28Z</time></trkpt>
<trkpt lat="50.016423" lon="5.640472"><ele>480.94</ele><time>2025-05-25T11:23:36Z</time></trkpt>
<trkpt lat="50.016337" lon="5.640404"><ele>481.47</ele><time>2025-05-25T11:23:39Z</time></trkpt>
<trkpt lat="50.016082" lon="5.639852"><ele>480.2</ele><time>2025-05-25T11:23:41Z</time></trkpt>
<trkpt lat="50.016024" lon="5.639696"><ele>479.85</ele><time>2025-05-25T11:23:44Z</time></trkpt>
<trkpt lat="50.015898" lon="5.639194"><ele>480.79</ele><time>2025-05-25T11:23:47Z</time></trkpt>
<trkpt lat="50.015793" lon="5.638488"><ele>481.66</ele><time>2025-05-25T11:23:49Z</time></trkpt>
<trkpt lat="50.015777" lon="5.638043"><ele>482.23</ele><time>2025-05-25T11:23:52Z</time></trkpt>
<trkpt lat="50.015797" lon="5.637656"><ele>482.24</ele><time>2025-05-25T11:23:55Z</time></trkpt>
<trkpt lat="50.015868" lon="5.637248"><ele>481.5</ele><time>2025-05-25T11:23:57Z</time></trkpt>
<trkpt lat="50.015953" lon="5.636858"><ele>481.97</ele><time>2025-05-25T11:24:00Z</time></trkpt>
<trkpt lat="50.016086" lon="5.636399"><ele>483.05</ele><time>2025-05-25T11:24:02Z</time></trkpt>
<trkpt lat="50.016291" lon="5.635879"><ele>480.39</ele><time>2025-05-25T11:24:05Z</time></trkpt>
<trkpt lat="50.016062" lon="5.635738"><ele>484.0</ele><time>2025-05-25T11:24:07Z</time></trkpt>
<trkpt lat="50.015845" lon="5.635602"><ele>484.0</ele><time>2025-05-25T11:24:10Z</time></trkpt>
<trkpt lat="50.015653" lon="5.635518"><ele>483.86</ele><time>2025-05-25T11:24:12Z</time></trkpt>
<trkpt lat="50.015614" lon="5.635676"><ele>484.0</ele><time>2025-05-25T11:24:16Z</time></trkpt>
<trkpt lat="50.015284" lon="5.636604"><ele>485.96</ele><time>2025-05-25T11:24:21Z</time></trkpt>
<trkpt lat="50.015248" lon="5.636763"><ele>486.11</ele><time>2025-05-25T11:24:25Z</time></trkpt>
<trkpt lat="50.015166" lon="5.636874"><ele>486.4</ele><time>2025-05-25T11:24:29Z</time></trkpt>
<trkpt lat="50.015031" lon="5.637122"><ele>487.53</ele><time>2025-05-25T11:24:33Z</time></trkpt>
<trkpt lat="50.014994" lon="5.637318"><ele>488.05</ele><time>2025-05-25T11:24:38Z</time></trkpt>
<trkpt lat="50.014996" lon="5.637468"><ele>488.02</ele><time>2025-05-25T11:24:42Z</time></trkpt>
<trkpt lat="50.015069" lon="5.638041"><ele>489.01</ele><time>2025-05-25T11:24:46Z</time></trkpt>
<trkpt lat="50.015049" lon="5.638428"><ele>487.54</ele><time>2025-05-25T11:24:50Z</time></trkpt>
<trkpt lat="50.014148" lon="5.641882"><ele>495.0</ele><time>2025-05-25T11:24:54Z</time></trkpt>
<trkpt lat="50.014005" lon="5.64235"><ele>495.22</ele><time>2025-05-25T11:24:59Z</time></trkpt>
<trkpt lat="50.013939" lon="5.642422"><ele>495.05</ele><time>2025-05-25T11:25:04Z</time></trkpt>
<trkpt lat="50.012232" lon="5.641904"><ele>496.0</ele><time>2025-05-25T11:25:09Z</time></trkpt>
<trkpt lat="50.011731" lon="5.64207"><ele>494.01</ele><time>2025-05-25T11:25:15Z</time></trkpt>
<trkpt lat="50.011357" lon="5.642267"><ele>491.86</ele><time>2025-05-25T11:25:20Z</time></trkpt>
<trkpt lat="50.011106" lon="5.642672"><ele>491.41</ele><time>2025-05-25T11:25:25Z</time></trkpt>
<trkpt lat="50.010446" lon="5.643462"><ele>496.77</ele><time>2025-05-25T11:25:30Z</time></trkpt>
<trkpt lat="50.009875" lon="5.644089"><ele>508.73</ele><time>2025-05-25T11:25:36Z</time></trkpt>
<trkpt lat="50.009357" lon="5.644415"><ele>506.21</ele><time>2025-05-25T11:25:41Z</time></trkpt>
<trkpt lat="50.009132" lon="5.644652"><ele>506.13</ele><time>2025-05-25T11:25:46Z</time></trkpt>
<trkpt lat="50.008885" lon="5.645018"><ele>508.07</ele><time>2025-05-25T11:25:52Z</time></trkpt>
<trkpt lat="50.007737" lon="5.646256"><ele>514.0</ele><time>2025-05-25T11:25:57Z</time></trkpt>
<trkpt lat="50.006954" lon="5.647687"><ele>512.33</ele><time>2025-05-25T11:26:02Z</time></trkpt>
<trkpt lat="50.004944" lon="5.652552"><ele>505.81</ele><time>2025-05-25T11:26:07Z</time></trkpt>
<trkpt lat="50.004078" lon="5.654429"><ele>504.58</ele><time>2025-05-25T11:26:13Z</time></trkpt>
<trkpt lat="50.003441" lon="5.654775"><ele>507.77</ele><time>2025-05-25T11:26:18Z</time></trkpt>
<trkpt lat="50.003075" lon="5.655224"><ele>509.75</ele><time>2025-05-25T11:26:23Z</time></trkpt>
<trkpt lat="50.002723" lon="5.65622"><ele>512.88</ele><time>2025-05-25T11:26:29Z</time></trkpt>
<trkpt lat="50.00231" lon="5.658013"><ele>518.58</ele><time>2025-05-25T11:26:34Z</time></trkpt>
<trkpt lat="50.002186" lon="5.658627"><ele>520.06</ele><time>2025-05-25T11:26:39Z</time></trkpt>
<trkpt lat="50.001979" lon="5.658537"><ele>520.0</ele><time>2025-05-25T11:26:43Z</time></trkpt>
<trkpt lat="50.001818" lon="5.658534"><ele>519.87</ele><time>2025-05-25T11:26:47Z</time></trkpt>
<trkpt lat="50.001637" lon="5.658591"><ele>519.93</ele><time>2025-05-25T11:26:52Z</time></trkpt>
<trkpt lat="50.000662" lon="5.659239"><ele>525.0</ele><time>2025-05-25T11:26:56Z</time></trkpt>
<trkpt lat="50.000602" lon="5.659103"><ele>525.0</ele><time>2025-05-25T11:26:57Z</time></trkpt>
<trkpt lat="50.000495" lon="5.659083"><ele>525.0</ele><time>2025-05-25T11:27:05Z</time></trkpt>
<trkpt lat="49.999054" lon="5.658007"><ele>530.23</ele><time>2025-05-25T11:27:13Z</time></trkpt>
<trkpt lat="49.998911" lon="5.657924"><ele>530.45</ele><time>2025-05-25T11:27:22Z</time></trkpt>
<trkpt lat="49.99874" lon="5.657895"><ele>531.81</ele><time>2025-05-25T11:27:30Z</time></trkpt>
<trkpt lat="49.998537" lon="5.657895"><ele>533.38</ele><time>2025-05-25T11:27:38Z</time></trkpt>
<trkpt lat="49.998339" lon="5.657943"><ele>534.56</ele><time>2025-05-25T11:27:46Z</time></trkpt>
<trkpt lat="49.998055" lon="5.658134"><ele>535.0</ele><time>2025-05-25T11:27:54Z</time></trkpt>
<trkpt lat="49.997805" lon="5.658436"><ele>535.86</ele><time>2025-05-25T11:28:03Z</time></trkpt>
<trkpt lat="49.997539" lon="5.658674"><ele>538.35</ele><time>2025-05-25T11:28:11Z</time></trkpt>
<trkpt lat="49.996196" lon="5.659197"><ele>537.97</ele><time>2025-05-25T11:28:19Z</time></trkpt>
<trkpt lat="49.995801" lon="5.659229"><ele>539.0</ele><time>2025-05-25T11:28:27Z</time></trkpt>
<trkpt lat="49.994766" lon="5.658952"><ele>540.57</ele><time>2025-05-25T11:28:36Z</time></trkpt>
<trkpt lat="49.985299" lon="5.656499"><ele>525.37</ele><time>2025-05-25T11:28:44Z</time></trkpt>
<trkpt lat="49.982195" lon="5.655672"><ele>530.84</ele><time>2025-05-25T11:28:52Z</time></trkpt>
<trkpt lat="49.981555" lon="5.655542"><ele>526.95</ele><time>2025-05-25T11:29:00Z</time></trkpt>
<trkpt lat="49.980974" lon="5.655707"><ele>529.04</ele><time>2025-05-25T11:29:09Z</time></trkpt>
<trkpt lat="49.979929" lon="5.656174"><ele>522.03</ele><time>2025-05-25T11:29:17Z</time></trkpt>
<trkpt lat="49.979798" lon="5.656282"><ele>520.54</ele><time>2025-05-25T11:29:25Z</time></trkpt>
<trkpt lat="49.97957" lon="5.656575"><ele>519.58</ele><time>2025-05-25T11:29:33Z</time></trkpt>
<trkpt lat="49.979445" lon="5.656659"><ele>518.98</ele><time>2025-05-25T11:29:42Z</time></trkpt>
<trkpt lat="49.978517" lon="5.656622"><ele>517.96</ele><time>2025-05-25T11:29:50Z</time></trkpt>
<trkpt lat="49.977569" lon="5.657951"><ele>528.73</ele><time>2025-05-25T11:29:55Z</time></trkpt>
<trkpt lat="49.977435" lon="5.658115"><ele>531.1</ele><time>2025-05-25T11:29:59Z</time></trkpt>
<trkpt lat="49.977296" lon="5.658249"><ele>533.12</ele><time>2025-05-25T11:30:04Z</time></trkpt>
<trkpt lat="49.977146" lon="5.658357"><ele>534.19</ele><time>2025-05-25T11:30:09Z</time></trkpt>
<trkpt lat="49.976376" lon="5.658729"><ele>534.57</ele><time>2025-05-25T11:30:13Z</time></trkpt>
<trkpt lat="49.976001" lon="5.659006"><ele>534.6</ele><time>2025-05-25T11:30:18Z</time></trkpt>
<trkpt lat="49.975735" lon="5.659322"><ele>533.72</ele><time>2025-05-25T11:30:23Z</time></trkpt>
<trkpt lat="49.975546" lon="5.659663"><ele>533.08</ele><time>2025-05-25T11:30:28Z</time></trkpt>
<trkpt lat="49.975399" lon="5.659938"><ele>536.24</ele><time>2025-05-25T11:30:32Z</time></trkpt>
<trkpt lat="49.975322" lon="5.660138"><ele>539.85</ele><time>2025-05-25T11:30:37Z</time></trkpt>
<trkpt lat="49.975079" lon="5.661202"><ele>544.4</ele><time>2025-05-25T11:30:42Z</time></trkpt>
<trkpt lat="49.974626" lon="5.663216"><ele>539.11</ele><time>2025-05-25T11:30:46Z</time></trkpt>
<trkpt lat="49.974577" lon="5.663168"><ele>538.74</ele><time>2025-05-25T11:30:47Z</time></trkpt>
<trkpt lat="49.974534" lon="5.663185"><ele>538.33</ele><time>2025-05-25T11:30:50Z</time></trkpt>
<trkpt lat="49.974078" lon="5.663202"><ele>535.0</ele><time>2025-05-25T11:30:54Z</time></trkpt>
<trkpt lat="49.973657" lon="5.663345"><ele>533.32</ele><time>2025-05-25T11:30:57Z</time></trkpt>
<trkpt lat="49.973375" lon="5.663519"><ele>530.45</ele><time>2025-05-25T11:31:01Z</time></trkpt>
<trkpt lat="49.972884" lon="5.663911"><ele>525.98</ele><time>2025-05-25T11:31:04Z</time></trkpt>
<trkpt lat="49.972595" lon="5.664039"><ele>522.6</ele><time>2025-05-25T11:31:08Z</time></trkpt>
<trkpt lat="49.972365" lon="5.664059"><ele>521.96</ele><time>2025-05-25T11:31:11Z</time></trkpt>
<trkpt lat="49.972266" lon="5.664039"><ele>522.3</ele><time>2025-05-25T11:31:14Z</time></trkpt>
<trkpt lat="49.971382" lon="5.663661"><ele>523.8</ele><time>2025-05-25T11:31:18Z</time></trkpt>
<trkpt lat="49.971222" lon="5.663652"><ele>523.34</ele><time>2025-05-25T11:31:21Z</time></trkpt>
<trkpt lat="49.971119" lon="5.663694"><ele>523.02</ele><time>2025-05-25T11:31:25Z</time></trkpt>
<trkpt lat="49.971029" lon="5.663781"><ele>522.82</ele><time>2025-05-25T11:31:28Z</time></trkpt>
<trkpt lat="49.970954" lon="5.663924"><ele>522.43</ele><time>2025-05-25T11:31:32Z</time></trkpt>
<trkpt lat="49.970838" lon="5.664451"><ele>521.99</ele><time>2025-05-25T11:31:35Z</time></trkpt>
<trkpt lat="49.970752" lon="5.664937"><ele>518.87</ele><time>2025-05-25T11:31:39Z</time></trkpt>
<trkpt lat="49.970552" lon="5.666048"><ele>512.23</ele><time>2025-05-25T11:31:42Z</time></trkpt>
<trkpt lat="49.969836" lon="5.667618"><ele>509.75</ele><time>2025-05-25T11:31:46Z</time></trkpt>
<trkpt lat="49.969718" lon="5.667978"><ele>509.27</ele><time>2025-05-25T11:31:49Z</time></trkpt>
<trkpt lat="49.968919" lon="5.671881"><ele>502.8</ele><time>2025-05-25T11:31:53Z</time></trkpt>
<trkpt lat="49.968663" lon="5.672923"><ele>500.48</ele><time>2025-05-25T11:31:56Z</time></trkpt>
<trkpt lat="49.968202" lon="5.674427"><ele>499.46</ele><time>2025-05-25T11:32:00Z</time></trkpt>
<trkpt lat="49.967845" lon="5.675627"><ele>499.24</ele><time>2025-05-25T11:32:03Z</time></trkpt>
<trkpt lat="49.967528" lon="5.677312"><ele>495.78</ele><time>2025-05-25T11:32:07Z</time></trkpt>
<trkpt lat="49.967361" lon="5.678038"><ele>495.5</ele><time>2025-05-25T11:32:10Z</time></trkpt>
<trkpt lat="49.967335" lon="5.678111"><ele>495.4</ele><time>2025-05-25T11:32:14Z</time></trkpt>
<trkpt lat="49.967057" lon="5.67858"><ele>493.81</ele><time>2025-05-25T11:32:17Z</time></trkpt>
<trkpt lat="49.966884" lon="5.678934"><ele>491.62</ele><time>2025-05-25T11:32:21Z</time></trkpt>
<trkpt lat="49.966671" lon="5.679639"><ele>488.32</ele><time>2025-05-25T11:32:24Z</time></trkpt>
<trkpt lat="49.966604" lon="5.679775"><ele>487.63</ele><time>2025-05-25T11:32:28Z</time></trkpt>
<trkpt lat="49.966533" lon="5.679861"><ele>487.26</ele><time>2025-05-25T11:32:31Z</time></trkpt>
<trkpt lat="49.966238" lon="5.680079"><ele>486.07</ele><time>2025-05-25T11:32:35Z</time></trkpt>
<trkpt lat="49.966118" lon="5.679577"><ele>485.05</ele><time>2025-05-25T11:32:41Z</time></trkpt>
<trkpt lat="49.966073" lon="5.679473"><ele>484.98</ele><time>2025-05-25T11:32:48Z</time></trkpt>
<trkpt lat="49.96593" lon="5.679265"><ele>485.65</ele><time>2025-05-25T11:32:55Z</time></trkpt>
<trkpt lat="49.965762" lon="5.679123"><ele>486.33</ele><time>2025-05-25T11:33:02Z</time></trkpt>
<trkpt lat="49.965566" lon="5.679017"><ele>486.46</ele><time>2025-05-25T11:33:09Z</time></trkpt>
<trkpt lat="49.965203" lon="5.678869"><ele>488.59</ele><time>2025-05-25T11:33:16Z</time></trkpt>
<trkpt lat="49.96505" lon="5.678842"><ele>489.67</ele><time>2025-05-25T11:33:23Z</time></trkpt>
<trkpt lat="49.964659" lon="5.679056"><ele>491.0</ele><time>2025-05-25T11:33:30Z</time></trkpt>
<trkpt lat="49.964338" lon="5.67913"><ele>491.43</ele><time>2025-05-25T11:33:37Z</time></trkpt>
<trkpt lat="49.964235" lon="5.679117"><ele>491.89</ele><time>2025-05-25T11:33:44Z</time></trkpt>
<trkpt lat="49.964024" lon="5.679042"><ele>493.48</ele><time>2025-05-25T11:33:51Z</time></trkpt>
<trkpt lat="49.963487" lon="5.678765"><ele>496.45</ele><time>2025-05-25T11:33:58Z</time></trkpt>
<trkpt lat="49.962696" lon="5.678205"><ele>498.84</ele><time>2025-05-25T11:34:05Z</time></trkpt>
<trkpt lat="49.961825" lon="5.677452"><ele>496.47</ele><time>2025-05-25T11:34:12Z</time></trkpt>
<trkpt lat="49.96113" lon="5.676789"><ele>493.47</ele><time>2025-05-25T11:34:19Z</time></trkpt>
<trkpt lat="49.954901" lon="5.670271"><ele>507.05</ele><time>2025-05-25T11:34:25Z</time></trkpt>
<trkpt lat="49.954682" lon="5.670021"><ele>508.86</ele><time>2025-05-25T11:34:32Z</time></trkpt>
<trkpt lat="49.95287" lon="5.667421"><ele>503.81</ele><time>2025-05-25T11:34:39Z</time></trkpt>
<trkpt lat="49.95247" lon="5.66693"><ele>504.83</ele><time>2025-05-25T11:34:46Z</time></trkpt>
<trkpt lat="49.952003" lon="5.666398"><ele>504.2</ele><time>2025-05-25T11:34:53Z</time></trkpt>
<trkpt lat="49.951851" lon="5.666246"><ele>502.99</ele><time>2025-05-25T11:35:00Z</time></trkpt>
<trkpt lat="49.950259" lon="5.665482"><ele>494.93</ele><time>2025-05-25T11:35:07Z</time></trkpt>
<trkpt lat="49.94736" lon="5.664115"><ele>502.19</ele><time>2025-05-25T11:35:14Z</time></trkpt>
<trkpt lat="49.947207" lon="5.664003"><ele>502.5</ele><time>2025-05-25T11:35:21Z</time></trkpt>
<trkpt lat="49.946214" lon="5.665757"><ele>504.43</ele><time>2025-05-25T11:35:25Z</time></trkpt>
<trkpt lat="49.945737" lon="5.666505"><ele>504.48</ele><time>2025-05-25T11:35:28Z</time></trkpt>
<trkpt lat="49.945338" lon="5.667023"><ele>505.78</ele><time>2025-05-25T11:35:32Z</time></trkpt>
<trkpt lat="49.944878" lon="5.667544"><ele>510.91</ele><time>2025-05-25T11:35:36Z</time></trkpt>
<trkpt lat="49.9441" lon="5.668476"><ele>516.42</ele><time>2025-05-25T11:35:40Z</time></trkpt>
<trkpt lat="49.943722" lon="5.668758"><ele>514.8</ele><time>2025-05-25T11:35:44Z</time></trkpt>
<trkpt lat="49.943145" lon="5.669068"><ele>514.51</ele><time>2025-05-25T11:35:47Z</time></trkpt>
<trkpt lat="49.942977" lon="5.669125"><ele>516.32</ele><time>2025-05-25T11:35:51Z</time></trkpt>
<trkpt lat="49.942534" lon="5.669186"><ele>521.62</ele><time>2025-05-25T11:35:55Z</time></trkpt>
<trkpt lat="49.940499" lon="5.669458"><ele>505.55</ele><time>2025-05-25T11:35:59Z</time></trkpt>
<trkpt lat="49.934124" lon="5.670384"><ele>479.1</ele><time>2025-05-25T11:36:03Z</time></trkpt>
<trkpt lat="49.933878" lon="5.670334"><ele>480.02</ele><time>2025-05-25T11:36:06Z</time></trkpt>
<trkpt lat="49.933342" lon="5.669957"><ele>478.94</ele><time>2025-05-25T11:36:10Z</time></trkpt>
<trkpt lat="49.933149" lon="5.669907"><ele>478.65</ele><time>2025-05-25T11:36:14Z</time></trkpt>
<trkpt lat="49.932122" lon="5.669862"><ele>471.39</ele><time>2025-05-25T11:36:18Z</time></trkpt>
<trkpt lat="49.93154" lon="5.669791"><ele>470.21</ele><time>2025-05-25T11:36:21Z</time></trkpt>
<trkpt lat="49.928289" lon="5.669241"><ele>460.74</ele><time>2025-05-25T11:36:25Z</time></trkpt>
<trkpt lat="49.928071" lon="5.669241"><ele>462.1</ele><time>2025-05-25T11:36:29Z</time></trkpt>
<trkpt lat="49.927792" lon="5.669391"><ele>461.34</ele><time>2025-05-25T11:36:33Z</time></trkpt>
<trkpt lat="49.925524" lon="5.671677"><ele>450.89</ele><time>2025-05-25T11:36:37Z</time></trkpt>
<trkpt lat="49.925415" lon="5.671766"><ele>450.11</ele><time>2025-05-25T11:36:40Z</time></trkpt>
<trkpt lat="49.925122" lon="5.671935"><ele>449.61</ele><time>2025-05-25T11:36:44Z</time></trkpt>
<trkpt lat="49.924972" lon="5.671984"><ele>450.0</ele><time>2025-05-25T11:36:48Z</time></trkpt>
<trkpt lat="49.924706" lon="5.672009"><ele>450.06</ele><time>2025-05-25T11:36:52Z</time></trkpt>
<trkpt lat="49.923716" lon="5.672026"><ele>450.31</ele><time>2025-05-25T11:36:55Z</time></trkpt>
<trkpt lat="49.923148" lon="5.672113"><ele>451.38</ele><time>2025-05-25T11:36:59Z</time></trkpt>
<trkpt lat="49.922716" lon="5.672255"><ele>454.73</ele><time>2025-05-25T11:37:03Z</time></trkpt>
<trkpt lat="49.922376" lon="5.672428"><ele>457.58</ele><time>2025-05-25T11:37:07Z</time></trkpt>
<trkpt lat="49.922203" lon="5.672559"><ele>458.29</ele><time>2025-05-25T11:37:11Z</time></trkpt>
<trkpt lat="49.92127" lon="5.673595"><ele>454.58</ele><time>2025-05-25T11:37:14Z</time></trkpt>
<trkpt lat="49.921075" lon="5.67379"><ele>453.51</ele><time>2025-05-25T11:37:18Z</time></trkpt>
<trkpt lat="49.920927" lon="5.673817"><ele>453.53</ele><time>2025-05-25T11:37:22Z</time></trkpt>
<trkpt lat="49.920829" lon="5.673755"><ele>454.4</ele><time>2025-05-25T11:37:26Z</time></trkpt>
<trkpt lat="49.920755" lon="5.673626"><ele>454.73</ele><time>2025-05-25T11:37:29Z</time></trkpt>
<trkpt lat="49.919937" lon="5.671738"><ele>446.67</ele><time>2025-05-25T11:37:33Z</time></trkpt>
<trkpt lat="49.919832" lon="5.671508"><ele>445.32</ele><time>2025-05-25T11:37:37Z</time></trkpt>
<trkpt lat="49.919708" lon="5.67131"><ele>444.0</ele><time>2025-05-25T11:37:41Z</time></trkpt>
<trkpt lat="49.919618" lon="5.671193"><ele>444.0</ele><time>2025-05-25T11:37:45Z</time></trkpt>
<trkpt lat="49.919428" lon="5.671011"><ele>444.43</ele><time>2025-05-25T11:37:48Z</time></trkpt>
<trkpt lat="49.919111" lon="5.670771"><ele>445.18</ele><time>2025-05-25T11:37:52Z</time></trkpt>
<trkpt lat="49.91889" lon="5.670165"><ele>447.0</ele><time>2025-05-25T11:37:56Z</time></trkpt>
<trkpt lat="49.918804" lon="5.670028"><ele>447.3</ele><time>2025-05-25T11:38:00Z</time></trkpt>
<trkpt lat="49.918624" lon="5.669808"><ele>447.98</ele><time>2025-05-25T11:38:04Z</time></trkpt>
<trkpt lat="49.918274" lon="5.669559"><ele>450.43</ele><time>2025-05-25T11:38:07Z</time></trkpt>
<trkpt lat="49.918089" lon="5.669387"><ele>451.76</ele><time>2025-05-25T11:38:11Z</time></trkpt>
<trkpt lat="49.917994" lon="5.669249"><ele>452.73</ele><time>2025-05-25T11:38:15Z</time></trkpt>
<trkpt lat="49.917903" lon="5.669072"><ele>453.65</ele><time>2025-05-25T11:38:19Z</time></trkpt>
<trkpt lat="49.917616" lon="5.668213"><ele>455.32</ele><time>2025-05-25T11:38:22Z</time></trkpt>
<trkpt lat="49.917087" lon="5.666921"><ele>465.93</ele><time>2025-05-25T11:38:26Z</time></trkpt>
<trkpt lat="49.916921" lon="5.666676"><ele>468.04</ele><time>2025-05-25T11:38:30Z</time></trkpt>
<trkpt lat="49.916758" lon="5.666574"><ele>467.44</ele><time>2025-05-25T11:38:34Z</time></trkpt>
<trkpt lat="49.916563" lon="5.666494"><ele>467.73</ele><time>2025-05-25T11:38:38Z</time></trkpt>
<trkpt lat="49.916012" lon="5.666423"><ele>473.89</ele><time>2025-05-25T11:38:41Z</time></trkpt>
<trkpt lat="49.915677" lon="5.666295"><ele>475.3</ele><time>2025-05-25T11:38:45Z</time></trkpt>
<trkpt lat="49.915054" lon="5.665997"><ele>477.73</ele><time>2025-05-25T11:38:49Z</time></trkpt>
<trkpt lat="49.914833" lon="5.665815"><ele>478.0</ele><time>2025-05-25T11:38:53Z</time></trkpt>
<trkpt lat="49.914665" lon="5.665557"><ele>478.0</ele><time>2025-05-25T11:38:56Z</time></trkpt>
<trkpt lat="49.914422" lon="5.66502"><ele>480.08</ele><time>2025-05-25T11:39:00Z</time></trkpt>
<trkpt lat="49.914147" lon="5.664469"><ele>484.77</ele><time>2025-05-25T11:39:04Z</time></trkpt>
<trkpt lat="49.913392" lon="5.663306"><ele>486.17</ele><time>2025-05-25T11:39:08Z</time></trkpt>
<trkpt lat="49.91292" lon="5.662667"><ele>488.05</ele><time>2025-05-25T11:39:12Z</time></trkpt>
<trkpt lat="49.912551" lon="5.662296"><ele>486.07</ele><time>2025-05-25T11:39:15Z</time></trkpt>
<trkpt lat="49.911034" lon="5.660951"><ele>493.99</ele><time>2025-05-25T11:39:19Z</time></trkpt>
<trkpt lat="49.910789" lon="5.660877"><ele>493.71</ele><time>2025-05-25T11:39:23Z</time></trkpt>
<trkpt lat="49.909781" lon="5.660938"><ele>492.0</ele><time>2025-05-25T11:39:27Z</time></trkpt>
<trkpt lat="49.909258" lon="5.661053"><ele>490.54</ele><time>2025-05-25T11:39:30Z</time></trkpt>
<trkpt lat="49.90887" lon="5.661206"><ele>488.52</ele><time>2025-05-25T11:39:34Z</time></trkpt>
<trkpt lat="49.90841" lon="5.661456"><ele>483.58</ele><time>2025-05-25T11:39:38Z</time></trkpt>
<trkpt lat="49.907613" lon="5.662063"><ele>480.43</ele><time>2025-05-25T11:39:42Z</time></trkpt>
<trkpt lat="49.907167" lon="5.662466"><ele>479.78</ele><time>2025-05-25T11:39:46Z</time></trkpt>
<trkpt lat="49.906823" lon="5.662614"><ele>478.54</ele><time>2025-05-25T11:39:49Z</time></trkpt>
<trkpt lat="49.902572" lon="5.663522"><ele>473.18</ele><time>2025-05-25T11:39:53Z</time></trkpt>
<trkpt lat="49.9024" lon="5.663465"><ele>473.14</ele><time>2025-05-25T11:39:57Z</time></trkpt>
<trkpt lat="49.902195" lon="5.663302"><ele>473.0</ele><time>2025-05-25T11:40:01Z</time></trkpt>
<trkpt lat="49.901273" lon="5.662384"><ele>477.32</ele><time>2025-05-25T11:40:05Z</time></trkpt>
<trkpt lat="49.90091" lon="5.661998"><ele>477.25</ele><time>2025-05-25T11:40:08Z</time></trkpt>
<trkpt lat="49.900753" lon="5.661886"><ele>477.31</ele><time>2025-05-25T11:40:12Z</time></trkpt>
<trkpt lat="49.900456" lon="5.661801"><ele>478.86</ele><time>2025-05-25T11:40:16Z</time></trkpt>
<trkpt lat="49.899113" lon="5.661605"><ele>484.97</ele><time>2025-05-25T11:40:20Z</time></trkpt>
<trkpt lat="49.896699" lon="5.661327"><ele>475.56</ele><time>2025-05-25T11:40:23Z</time></trkpt>
<trkpt lat="49.896088" lon="5.661278"><ele>474.92</ele><time>2025-05-25T11:40:27Z</time></trkpt>
<trkpt lat="49.895874" lon="5.661372"><ele>474.15</ele><time>2025-05-25T11:40:31Z</time></trkpt>
<trkpt lat="49.895708" lon="5.661509"><ele>473.35</ele><time>2025-05-25T11:40:35Z</time></trkpt>
<trkpt lat="49.895395" lon="5.661894"><ele>470.37</ele><time>2025-05-25T11:40:39Z</time></trkpt>
<trkpt lat="49.895161" lon="5.662245"><ele>467.28</ele><time>2025-05-25T11:40:42Z</time></trkpt>
<trkpt lat="49.895025" lon="5.662327"><ele>465.02</ele><time>2025-05-25T11:40:46Z</time></trkpt>
<trkpt lat="49.894954" lon="5.662323"><ele>463.98</ele><time>2025-05-25T11:40:50Z</time></trkpt>
<trkpt lat="49.894831" lon="5.662241"><ele>462.5</ele><time>2025-05-25T11:40:54Z</time></trkpt>
<trkpt lat="49.894744" lon="5.662144"><ele>461.59</ele><time>2025-05-25T11:40:57Z</time></trkpt>
<trkpt lat="49.894618" lon="5.661949"><ele>460.09</ele><time>2025-05-25T11:41:01Z</time></trkpt>
<trkpt lat="49.894328" lon="5.661396"><ele>456.32</ele><time>2025-05-25T11:41:05Z</time></trkpt>
<trkpt lat="49.894154" lon="5.661127"><ele>453.9</ele><time>2025-05-25T11:41:09Z</time></trkpt>
<trkpt lat="49.892462" lon="5.659177"><ele>440.71</ele><time>2025-05-25T11:41:13Z</time></trkpt>
<trkpt lat="49.89237" lon="5.659116"><ele>440.08</ele><time>2025-05-25T11:41:16Z</time></trkpt>
<trkpt lat="49.89228" lon="5.659096"><ele>439.27</ele><time>2025-05-25T11:41:20Z</time></trkpt>
<trkpt lat="49.892183" lon="5.659116"><ele>438.57</ele><time>2025-05-25T11:41:24Z</time></trkpt>
<trkpt lat="49.892057" lon="5.65919"><ele>437.69</ele><time>2025-05-25T11:41:28Z</time></trkpt>
<trkpt lat="49.890514" lon="5.660236"><ele>428.02</ele><time>2025-05-25T11:41:31Z</time></trkpt>
<trkpt lat="49.890358" lon="5.660341"><ele>426.12</ele><time>2025-05-25T11:41:35Z</time></trkpt>
<trkpt lat="49.889691" lon="5.660599"><ele>423.19</ele><time>2025-05-25T11:41:39Z</time></trkpt>
<trkpt lat="49.889491" lon="5.660603"><ele>420.99</ele><time>2025-05-25T11:41:43Z</time></trkpt>
<trkpt lat="49.889348" lon="5.660582"><ele>419.99</ele><time>2025-05-25T11:41:47Z</time></trkpt>
<trkpt lat="49.888588" lon="5.66025"><ele>415.71</ele><time>2025-05-25T11:41:50Z</time></trkpt>
<trkpt lat="49.887676" lon="5.659809"><ele>407.58</ele><time>2025-05-25T11:41:54Z</time></trkpt>
<trkpt lat="49.887482" lon="5.659776"><ele>407.03</ele><time>2025-05-25T11:41:58Z</time></trkpt>
<trkpt lat="49.886947" lon="5.659751"><ele>398.85</ele><time>2025-05-25T11:42:02Z</time></trkpt>
<trkpt lat="49.886834" lon="5.659655"><ele>397.1</ele><time>2025-05-25T11:42:05Z</time></trkpt>
<trkpt lat="49.8868" lon="5.659535"><ele>397.23</ele><time>2025-05-25T11:42:09Z</time></trkpt>
<trkpt lat="49.886764" lon="5.658938"><ele>397.41</ele><time>2025-05-25T11:42:13Z</time></trkpt>
<trkpt lat="49.886714" lon="5.658826"><ele>396.68</ele><time>2025-05-25T11:42:17Z</time></trkpt>
<trkpt lat="49.886632" lon="5.658732"><ele>395.37</ele><time>2025-05-25T11:42:21Z</time></trkpt>
<trkpt lat="49.886515" lon="5.658688"><ele>393.27</ele><time>2025-05-25T11:42:24Z</time></trkpt>
<trkpt lat="49.886386" lon="5.658669"><ele>390.97</ele><time>2025-05-25T11:42:28Z</time></trkpt>
<trkpt lat="49.886122" lon="5.658712"><ele>388.38</ele><time>2025-05-25T11:42:32Z</time></trkpt>
<trkpt lat="49.885926" lon="5.65878"><ele>388.45</ele><time>2025-05-25T11:42:36Z</time></trkpt>
<trkpt lat="49.885821" lon="5.658852"><ele>388.48</ele><time>2025-05-25T11:42:40Z</time></trkpt>
<trkpt lat="49.885452" lon="5.659347"><ele>394.32</ele><time>2025-05-25T11:42:43Z</time></trkpt>
<trkpt lat="49.885191" lon="5.659603"><ele>399.46</ele><time>2025-05-25T11:42:47Z</time></trkpt>
<trkpt lat="49.883965" lon="5.660497"><ele>406.48</ele><time>2025-05-25T11:42:51Z</time></trkpt>
<trkpt lat="49.883804" lon="5.660549"><ele>407.39</ele><time>2025-05-25T11:42:55Z</time></trkpt>
<trkpt lat="49.883526" lon="5.660417"><ele>408.39</ele><time>2025-05-25T11:42:58Z</time></trkpt>
<trkpt lat="49.883377" lon="5.660297"><ele>407.45</ele><time>2025-05-25T11:43:02Z</time></trkpt>
<trkpt lat="49.883223" lon="5.660052"><ele>406.04</ele><time>2025-05-25T11:43:06Z</time></trkpt>
<trkpt lat="49.883065" lon="5.659715"><ele>407.06</ele><time>2025-05-25T11:43:10Z</time></trkpt>
<trkpt lat="49.882959" lon="5.659623"><ele>407.58</ele><time>2025-05-25T11:43:14Z</time></trkpt>
<trkpt lat="49.882871" lon="5.65962"><ele>407.79</ele><time>2025-05-25T11:43:17Z</time></trkpt>
<trkpt lat="49.882643" lon="5.659793"><ele>408.1</ele><time>2025-05-25T11:43:21Z</time></trkpt>
<trkpt lat="49.882502" lon="5.659869"><ele>408.46</ele><time>2025-05-25T11:43:25Z</time></trkpt>
<trkpt lat="49.882355" lon="5.6599"><ele>408.55</ele><time>2025-05-25T11:43:29Z</time></trkpt>
<trkpt lat="49.881883" lon="5.659808"><ele>406.92</ele><time>2025-05-25T11:43:32Z</time></trkpt>
<trkpt lat="49.88129" lon="5.659804"><ele>407.81</ele><time>2025-05-25T11:43:36Z</time></trkpt>
<trkpt lat="49.881129" lon="5.659749"><ele>407.99</ele><time>2025-05-25T11:43:40Z</time></trkpt>
<trkpt lat="49.8809" lon="5.659576"><ele>408.25</ele><time>2025-05-25T11:43:44Z</time></trkpt>
<trkpt lat="49.880463" lon="5.659017"><ele>410.39</ele><time>2025-05-25T11:43:48Z</time></trkpt>
<trkpt lat="49.880411" lon="5.658941"><ele>410.82</ele><time>2025-05-25T11:43:51Z</time></trkpt>
<trkpt lat="49.880372" lon="5.658846"><ele>411.1</ele><time>2025-05-25T11:43:55Z</time></trkpt>
<trkpt lat="49.880328" lon="5.658634"><ele>411.33</ele><time>2025-05-25T11:43:59Z</time></trkpt>
<trkpt lat="49.880325" lon="5.658514"><ele>411.98</ele><time>2025-05-25T11:44:03Z</time></trkpt>
<trkpt lat="49.880539" lon="5.657405"><ele>420.28</ele><time>2025-05-25T11:44:06Z</time></trkpt>
<trkpt lat="49.880663" lon="5.656682"><ele>423.36</ele><time>2025-05-25T11:44:10Z</time></trkpt>
<trkpt lat="49.88086" lon="5.656004"><ele>424.52</ele><time>2025-05-25T11:44:14Z</time></trkpt>
<trkpt lat="49.880891" lon="5.655791"><ele>425.6</ele><time>2025-05-25T11:44:18Z</time></trkpt>
<trkpt lat="49.880893" lon="5.655483"><ele>427.32</ele><time>2025-05-25T11:44:22Z</time></trkpt>
<trkpt lat="49.880838" lon="5.655249"><ele>429.22</ele><time>2025-05-25T11:44:25Z</time></trkpt>
<trkpt lat="49.880758" lon="5.655063"><ele>430.28</ele><time>2025-05-25T11:44:29Z</time></trkpt>
<trkpt lat="49.880269" lon="5.654138"><ele>431.08</ele><time>2025-05-25T11:44:33Z</time></trkpt>
<trkpt lat="49.880005" lon="5.653656"><ele>433.39</ele><time>2025-05-25T11:44:37Z</time></trkpt>
<trkpt lat="49.878976" lon="5.652102"><ele>442.43</ele><time>2025-05-25T11:44:41Z</time></trkpt>
<trkpt lat="49.878733" lon="5.6517"><ele>442.44</ele><time>2025-05-25T11:44:44Z</time></trkpt>
<trkpt lat="49.878567" lon="5.651356"><ele>441.54</ele><time>2025-05-25T11:44:48Z</time></trkpt>
<trkpt lat="49.878349" lon="5.650792"><ele>440.12</ele><time>2025-05-25T11:44:52Z</time></trkpt>
<trkpt lat="49.87822" lon="5.650368"><ele>438.79</ele><time>2025-05-25T11:44:56Z</time></trkpt>
<trkpt lat="49.877844" lon="5.648882"><ele>437.5</ele><time>2025-05-25T11:44:59Z</time></trkpt>
<trkpt lat="49.877776" lon="5.648729"><ele>437.58</ele><time>2025-05-25T11:45:03Z</time></trkpt>
<trkpt lat="49.877654" lon="5.648575"><ele>438.39</ele><time>2025-05-25T11:45:07Z</time></trkpt>
<trkpt lat="49.877339" lon="5.648301"><ele>439.45</ele><time>2025-05-25T11:45:11Z</time></trkpt>
<trkpt lat="49.876692" lon="5.647829"><ele>437.8</ele><time>2025-05-25T11:45:15Z</time></trkpt>
<trkpt lat="49.876033" lon="5.647228"><ele>435.43</ele><time>2025-05-25T11:45:18Z</time></trkpt>
<trkpt lat="49.875508" lon="5.646575"><ele>435.53</ele><time>2025-05-25T11:45:22Z</time></trkpt>
<trkpt lat="49.873329" lon="5.643442"><ele>429.61</ele><time>2025-05-25T11:45:26Z</time></trkpt>
<trkpt lat="49.873063" lon="5.643022"><ele>432.1</ele><time>2025-05-25T11:45:30Z</time></trkpt>
<trkpt lat="49.872853" lon="5.642619"><ele>435.45</ele><time>2025-05-25T11:45:33Z</time></trkpt>
<trkpt lat="49.872521" lon="5.641683"><ele>441.94</ele><time>2025-05-25T11:45:37Z</time></trkpt>
<trkpt lat="49.872338" lon="5.641254"><ele>442.58</ele><time>2025-05-25T11:45:41Z</time></trkpt>
<trkpt lat="49.870587" lon="5.638311"><ele>447.93</ele><time>2025-05-25T11:45:45Z</time></trkpt>
<trkpt lat="49.870419" lon="5.638123"><ele>448.47</ele><time>2025-05-25T11:45:49Z</time></trkpt>
<trkpt lat="49.870559" lon="5.642353"><ele>458.41</ele><time>2025-05-25T11:45:52Z</time></trkpt>
<trkpt lat="49.870547" lon="5.642741"><ele>459.12</ele><time>2025-05-25T11:45:55Z</time></trkpt>
<trkpt lat="49.870467" lon="5.643222"><ele>461.27</ele><time>2025-05-25T11:45:58Z</time></trkpt>
<trkpt lat="49.870344" lon="5.643613"><ele>462.8</ele><time>2025-05-25T11:46:01Z</time></trkpt>
<trkpt lat="49.870266" lon="5.643797"><ele>463.42</ele><time>2025-05-25T11:46:04Z</time></trkpt>
<trkpt lat="49.870092" lon="5.644107"><ele>463.29</ele><time>2025-05-25T11:46:07Z</time></trkpt>
<trkpt lat="49.869872" lon="5.64437"><ele>462.54</ele><time>2025-05-25T11:46:11Z</time></trkpt>
<trkpt lat="49.869619" lon="5.644588"><ele>462.05</ele><time>2025-05-25T11:46:14Z</time></trkpt>
<trkpt lat="49.86934" lon="5.644724"><ele>463.38</ele><time>2025-05-25T11:46:17Z</time></trkpt>
<trkpt lat="49.86915" lon="5.644764"><ele>464.1</ele><time>2025-05-25T11:46:20Z</time></trkpt>
<trkpt lat="49.868843" lon="5.644761"><ele>465.72</ele><time>2025-05-25T11:46:23Z</time></trkpt>
<trkpt lat="49.866149" lon="5.643914"><ele>481.86</ele><time>2025-05-25T11:46:26Z</time></trkpt>
<trkpt lat="49.865595" lon="5.643795"><ele>483.72</ele><time>2025-05-25T11:46:29Z</time></trkpt>
<trkpt lat="49.865213" lon="5.643915"><ele>486.96</ele><time>2025-05-25T11:46:32Z</time></trkpt>
<trkpt lat="49.864515" lon="5.644346"><ele>490.45</ele><time>2025-05-25T11:46:36Z</time></trkpt>
<trkpt lat="49.864138" lon="5.644483"><ele>489.89</ele><time>2025-05-25T11:46:39Z</time></trkpt>
<trkpt lat="49.863737" lon="5.644484"><ele>488.38</ele><time>2025-05-25T11:46:42Z</time></trkpt>
<trkpt lat="49.863192" lon="5.644402"><ele>489.98</ele><time>2025-05-25T11:46:45Z</time></trkpt>
<trkpt lat="49.862856" lon="5.6442"><ele>494.36</ele><time>2025-05-25T11:46:48Z</time></trkpt>
<trkpt lat="49.862569" lon="5.643934"><ele>495.92</ele><time>2025-05-25T11:46:51Z</time></trkpt>
<trkpt lat="49.862109" lon="5.643496"><ele>500.01</ele><time>2025-05-25T11:46:54Z</time></trkpt>
<trkpt lat="49.861174" lon="5.642483"><ele>497.33</ele><time>2025-05-25T11:46:57Z</time></trkpt>
<trkpt lat="49.860604" lon="5.642035"><ele>500.67</ele><time>2025-05-25T11:47:00Z</time></trkpt>
<trkpt lat="49.860151" lon="5.64182"><ele>496.18</ele><time>2025-05-25T11:47:04Z</time></trkpt>
<trkpt lat="49.859636" lon="5.641711"><ele>493.89</ele><time>2025-05-25T11:47:07Z</time></trkpt>
<trkpt lat="49.859121" lon="5.641702"><ele>494.29</ele><time>2025-05-25T11:47:10Z</time></trkpt>
<trkpt lat="49.858789" lon="5.641745"><ele>495.8</ele><time>2025-05-25T11:47:13Z</time></trkpt>
<trkpt lat="49.858456" lon="5.641875"><ele>497.22</ele><time>2025-05-25T11:47:16Z</time></trkpt>
<trkpt lat="49.858103" lon="5.642049"><ele>498.45</ele><time>2025-05-25T11:47:19Z</time></trkpt>
<trkpt lat="49.857854" lon="5.642312"><ele>500.58</ele><time>2025-05-25T11:47:22Z</time></trkpt>
<trkpt lat="49.857725" lon="5.642513"><ele>501.85</ele><time>2025-05-25T11:47:25Z</time></trkpt>
<trkpt lat="49.857442" lon="5.643024"><ele>502.76</ele><time>2025-05-25T11:47:29Z</time></trkpt>
<trkpt lat="49.857308" lon="5.643299"><ele>501.98</ele><time>2025-05-25T11:47:32Z</time></trkpt>
<trkpt lat="49.857186" lon="5.643594"><ele>499.57</ele><time>2025-05-25T11:47:35Z</time></trkpt>
<trkpt lat="49.857083" lon="5.643928"><ele>496.65</ele><time>2025-05-25T11:47:38Z</time></trkpt>
<trkpt lat="49.85549" lon="5.650736"><ele>472.05</ele><time>2025-05-25T11:47:41Z</time></trkpt>
<trkpt lat="49.855329" lon="5.651331"><ele>474.45</ele><time>2025-05-25T11:47:44Z</time></trkpt>
<trkpt lat="49.855134" lon="5.651712"><ele>474.2</ele><time>2025-05-25T11:47:47Z</time></trkpt>
<trkpt lat="49.85465" lon="5.652381"><ele>470.6</ele><time>2025-05-25T11:47:50Z</time></trkpt>
<trkpt lat="49.854559" lon="5.65257"><ele>469.05</ele><time>2025-05-25T11:47:53Z</time></trkpt>
<trkpt lat="49.854426" lon="5.652918"><ele>468.57</ele><time>2025-05-25T11:47:57Z</time></trkpt>
<trkpt lat="49.854339" lon="5.653376"><ele>469.04</ele><time>2025-05-25T11:48:00Z</time></trkpt>
<trkpt lat="49.854312" lon="5.653653"><ele>468.75</ele><time>2025-05-25T11:48:03Z</time></trkpt>
<trkpt lat="49.85431" lon="5.653842"><ele>468.1</ele><time>2025-05-25T11:48:06Z</time></trkpt>
<trkpt lat="49.854326" lon="5.654017"><ele>467.24</ele><time>2025-05-25T11:48:09Z</time></trkpt>
<trkpt lat="49.854453" lon="5.654824"><ele>465.23</ele><time>2025-05-25T11:48:12Z</time></trkpt>
<trkpt lat="49.854486" lon="5.655207"><ele>464.63</ele><time>2025-05-25T11:48:15Z</time></trkpt>
<trkpt lat="49.854496" lon="5.655645"><ele>462.06</ele><time>2025-05-25T11:48:18Z</time></trkpt>
<trkpt lat="49.854484" lon="5.655939"><ele>461.1</ele><time>2025-05-25T11:48:22Z</time></trkpt>
<trkpt lat="49.85444" lon="5.656413"><ele>462.13</ele><time>2025-05-25T11:48:25Z</time></trkpt>
<trkpt lat="49.854361" lon="5.656821"><ele>463.99</ele><time>2025-05-25T11:48:28Z</time></trkpt>
<trkpt lat="49.854274" lon="5.657143"><ele>465.6</ele><time>2025-05-25T11:48:31Z</time></trkpt>
<trkpt lat="49.854077" lon="5.657699"><ele>464.31</ele><time>2025-05-25T11:48:34Z</time></trkpt>
<trkpt lat="49.853848" lon="5.658276"><ele>461.0</ele><time>2025-05-25T11:48:37Z</time></trkpt>
<trkpt lat="49.8536" lon="5.658778"><ele>461.96</ele><time>2025-05-25T11:48:40Z</time></trkpt>
<trkpt lat="49.853408" lon="5.659103"><ele>460.5</ele><time>2025-05-25T11:48:43Z</time></trkpt>
<trkpt lat="49.853008" lon="5.659636"><ele>459.0</ele><time>2025-05-25T11:48:46Z</time></trkpt>
<trkpt lat="49.852649" lon="5.660046"><ele>459.37</ele><time>2025-05-25T11:48:50Z</time></trkpt>
<trkpt lat="49.852328" lon="5.660415"><ele>460.74</ele><time>2025-05-25T11:48:53Z</time></trkpt>
<trkpt lat="49.852025" lon="5.660756"><ele>461.7</ele><time>2025-05-25T11:48:56Z</time></trkpt>
<trkpt lat="49.851712" lon="5.66122"><ele>462.26</ele><time>2025-05-25T11:48:59Z</time></trkpt>
<trkpt lat="49.851569" lon="5.661625"><ele>463.9</ele><time>2025-05-25T11:49:02Z</time></trkpt>
<trkpt lat="49.851517" lon="5.661913"><ele>463.59</ele><time>2025-05-25T11:49:05Z</time></trkpt>
<trkpt lat="49.851501" lon="5.662175"><ele>463.93</ele><time>2025-05-25T11:49:08Z</time></trkpt>
<trkpt lat="49.851507" lon="5.662343"><ele>464.43</ele><time>2025-05-25T11:49:11Z</time></trkpt>
<trkpt lat="49.85158" lon="5.662786"><ele>465.69</ele><time>2025-05-25T11:49:15Z</time></trkpt>
<trkpt lat="49.851661" lon="5.663131"><ele>465.98</ele><time>2025-05-25T11:49:18Z</time></trkpt>
<trkpt lat="49.851848" lon="5.663625"><ele>467.0</ele><time>2025-05-25T11:49:21Z</time></trkpt>
<trkpt lat="49.85303" lon="5.665975"><ele>463.14</ele><time>2025-05-25T11:49:24Z</time></trkpt>
<trkpt lat="49.853226" lon="5.666417"><ele>463.45</ele><time>2025-05-25T11:49:27Z</time></trkpt>
<trkpt lat="49.85349" lon="5.667347"><ele>462.67</ele><time>2025-05-25T11:49:30Z</time></trkpt>
<trkpt lat="49.853567" lon="5.667774"><ele>462.16</ele><time>2025-05-25T11:49:33Z</time></trkpt>
<trkpt lat="49.853581" lon="5.668146"><ele>461.07</ele><time>2025-05-25T11:49:36Z</time></trkpt>
<trkpt lat="49.853546" lon="5.66843"><ele>460.92</ele><time>2025-05-25T11:49:39Z</time></trkpt>
<trkpt lat="49.853453" lon="5.668667"><ele>460.34</ele><time>2025-05-25T11:49:43Z</time></trkpt>
<trkpt lat="49.853356" lon="5.668808"><ele>460.02</ele><time>2025-05-25T11:49:46Z</time></trkpt>
<trkpt lat="49.852447" lon="5.669792"><ele>454.05</ele><time>2025-05-25T11:49:49Z</time></trkpt>
<trkpt lat="49.852349" lon="5.669935"><ele>452.29</ele><time>2025-05-25T11:49:52Z</time></trkpt>
<trkpt lat="49.852267" lon="5.670099"><ele>450.76</ele><time>2025-05-25T11:49:55Z</time></trkpt>
<trkpt lat="49.852173" lon="5.670422"><ele>448.59</ele><time>2025-05-25T11:49:58Z</time></trkpt>
<trkpt lat="49.85195" lon="5.672049"><ele>441.88</ele><time>2025-05-25T11:50:01Z</time></trkpt>
<trkpt lat="49.851855" lon="5.672502"><ele>443.09</ele><time>2025-05-25T11:50:04Z</time></trkpt>
<trkpt lat="49.851664" lon="5.673211"><ele>442.37</ele><time>2025-05-25T11:50:08Z</time></trkpt>
<trkpt lat="49.8514" lon="5.674082"><ele>437.86</ele><time>2025-05-25T11:50:11Z</time></trkpt>
<trkpt lat="49.851267" lon="5.674629"><ele>436.92</ele><time>2025-05-25T11:50:14Z</time></trkpt>
<trkpt lat="49.851183" lon="5.6751"><ele>435.66</ele><time>2025-05-25T11:50:17Z</time></trkpt>
<trkpt lat="49.85105" lon="5.675457"><ele>433.96</ele><time>2025-05-25T11:50:20Z</time></trkpt>
<trkpt lat="49.850914" lon="5.675768"><ele>429.77</ele><time>2025-05-25T11:50:23Z</time></trkpt>
<trkpt lat="49.850809" lon="5.676099"><ele>426.39</ele><time>2025-05-25T11:50:26Z</time></trkpt>
<trkpt lat="49.850766" lon="5.676361"><ele>425.99</ele><time>2025-05-25T11:50:29Z</time></trkpt>
<trkpt lat="49.850749" lon="5.676627"><ele>424.12</ele><time>2025-05-25T11:50:32Z</time></trkpt>
<trkpt lat="49.850733" lon="5.677133"><ele>420.37</ele><time>2025-05-25T11:50:36Z</time></trkpt>
<trkpt lat="49.850672" lon="5.67765"><ele>416.86</ele><time>2025-05-25T11:50:39Z</time></trkpt>
<trkpt lat="49.850494" lon="5.678446"><ele>414.65</ele><time>2025-05-25T11:50:42Z</time></trkpt>
<trkpt lat="49.85024" lon="5.679116"><ele>411.29</ele><time>2025-05-25T11:50:45Z</time></trkpt>
<trkpt lat="49.849981" lon="5.679619"><ele>410.63</ele><time>2025-05-25T11:50:48Z</time></trkpt>
<trkpt lat="49.849454" lon="5.680463"><ele>408.77</ele><time>2025-05-25T11:50:51Z</time></trkpt>
<trkpt lat="49.849298" lon="5.680972"><ele>405.1</ele><time>2025-05-25T11:50:54Z</time></trkpt>
<trkpt lat="49.849274" lon="5.681464"><ele>402.28</ele><time>2025-05-25T11:50:57Z</time></trkpt>
<trkpt lat="49.849292" lon="5.681757"><ele>400.49</ele><time>2025-05-25T11:51:01Z</time></trkpt>
<trkpt lat="49.849338" lon="5.682025"><ele>400.28</ele><time>2025-05-25T11:51:04Z</time></trkpt>
<trkpt lat="49.849759" lon="5.683507"><ele>395.53</ele><time>2025-05-25T11:51:07Z</time></trkpt>
<trkpt lat="49.85015" lon="5.684992"><ele>390.97</ele><time>2025-05-25T11:51:10Z</time></trkpt>
<trkpt lat="49.850284" lon="5.685934"><ele>385.27</ele><time>2025-05-25T11:51:13Z</time></trkpt>
<trkpt lat="49.850371" lon="5.687548"><ele>383.69</ele><time>2025-05-25T11:51:16Z</time></trkpt>
<trkpt lat="49.850418" lon="5.68786"><ele>386.16</ele><time>2025-05-25T11:51:19Z</time></trkpt>
<trkpt lat="49.850503" lon="5.688257"><ele>386.08</ele><time>2025-05-25T11:51:22Z</time></trkpt>
<trkpt lat="49.850814" lon="5.689367"><ele>386.61</ele><time>2025-05-25T11:51:25Z</time></trkpt>
<trkpt lat="49.851419" lon="5.691312"><ele>383.82</ele><time>2025-05-25T11:51:29Z</time></trkpt>
<trkpt lat="49.851981" lon="5.692737"><ele>384.98</ele><time>2025-05-25T11:51:32Z</time></trkpt>
<trkpt lat="49.852107" lon="5.693142"><ele>387.68</ele><time>2025-05-25T11:51:35Z</time></trkpt>
<trkpt lat="49.852161" lon="5.693364"><ele>388.97</ele><time>2025-05-25T11:51:38Z</time></trkpt>
<trkpt lat="49.852223" lon="5.693876"><ele>389.06</ele><time>2025-05-25T11:51:41Z</time></trkpt>
<trkpt lat="49.852314" lon="5.695568"><ele>380.89</ele><time>2025-05-25T11:51:44Z</time></trkpt>
<trkpt lat="49.852304" lon="5.695849"><ele>378.49</ele><time>2025-05-25T11:51:47Z</time></trkpt>
<trkpt lat="49.852165" lon="5.696174"><ele>375.77</ele><time>2025-05-25T11:51:50Z</time></trkpt>
<trkpt lat="49.852111" lon="5.696287"><ele>375.37</ele><time>2025-05-25T11:51:54Z</time></trkpt>
<trkpt lat="49.851992" lon="5.696437"><ele>375.0</ele><time>2025-05-25T11:51:57Z</time></trkpt>
<trkpt lat="49.851836" lon="5.696554"><ele>375.39</ele><time>2025-05-25T11:52:00Z</time></trkpt>
<trkpt lat="49.851702" lon="5.696602"><ele>375.87</ele><time>2025-05-25T11:52:03Z</time></trkpt>
<trkpt lat="49.851532" lon="5.69658"><ele>375.82</ele><time>2025-05-25T11:52:06Z</time></trkpt>
<trkpt lat="49.851411" lon="5.696529"><ele>375.99</ele><time>2025-05-25T11:52:09Z</time></trkpt>
<trkpt lat="49.851323" lon="5.696475"><ele>376.38</ele><time>2025-05-25T11:52:12Z</time></trkpt>
<trkpt lat="49.851172" lon="5.696319"><ele>377.89</ele><time>2025-05-25T11:52:15Z</time></trkpt>
<trkpt lat="49.850069" lon="5.694978"><ele>387.27</ele><time>2025-05-25T11:52:18Z</time></trkpt>
<trkpt lat="49.84994" lon="5.694893"><ele>387.19</ele><time>2025-05-25T11:52:22Z</time></trkpt>
<trkpt lat="49.849628" lon="5.694826"><ele>386.65</ele><time>2025-05-25T11:52:25Z</time></trkpt>
<trkpt lat="49.849494" lon="5.694844"><ele>385.63</ele><time>2025-05-25T11:52:28Z</time></trkpt>
<trkpt lat="49.849353" lon="5.6949"><ele>383.5</ele><time>2025-05-25T11:52:31Z</time></trkpt>
<trkpt lat="49.848836" lon="5.695314"><ele>379.86</ele><time>2025-05-25T11:52:34Z</time></trkpt>
<trkpt lat="49.8487" lon="5.695488"><ele>381.05</ele><time>2025-05-25T11:52:37Z</time></trkpt>
<trkpt lat="49.848624" lon="5.69564"><ele>381.46</ele><time>2025-05-25T11:52:40Z</time></trkpt>
<trkpt lat="49.848478" lon="5.696015"><ele>383.87</ele><time>2025-05-25T11:52:43Z</time></trkpt>
<trkpt lat="49.848295" lon="5.696369"><ele>386.24</ele><time>2025-05-25T11:52:47Z</time></trkpt>
<trkpt lat="49.848081" lon="5.696632"><ele>383.57</ele><time>2025-05-25T11:52:50Z</time></trkpt>
<trkpt lat="49.847479" lon="5.69727"><ele>386.95</ele><time>2025-05-25T11:52:53Z</time></trkpt>
<trkpt lat="49.847328" lon="5.69755"><ele>388.48</ele><time>2025-05-25T11:52:56Z</time></trkpt>
<trkpt lat="49.847216" lon="5.697877"><ele>387.78</ele><time>2025-05-25T11:52:59Z</time></trkpt>
<trkpt lat="49.847166" lon="5.698174"><ele>385.11</ele><time>2025-05-25T11:53:02Z</time></trkpt>
<trkpt lat="49.847096" lon="5.699041"><ele>378.34</ele><time>2025-05-25T11:53:05Z</time></trkpt>
<trkpt lat="49.847038" lon="5.699455"><ele>376.97</ele><time>2025-05-25T11:53:08Z</time></trkpt>
<trkpt lat="49.846965" lon="5.699713"><ele>376.88</ele><time>2025-05-25T11:53:11Z</time></trkpt>
<trkpt lat="49.846865" lon="5.699907"><ele>375.48</ele><time>2025-05-25T11:53:15Z</time></trkpt>
<trkpt lat="49.846692" lon="5.700125"><ele>373.19</ele><time>2025-05-25T11:53:18Z</time></trkpt>
<trkpt lat="49.846421" lon="5.700402"><ele>373.38</ele><time>2025-05-25T11:53:21Z</time></trkpt>
<trkpt lat="49.845657" lon="5.701276"><ele>379.34</ele><time>2025-05-25T11:53:24Z</time></trkpt>
<trkpt lat="49.845501" lon="5.701535"><ele>379.79</ele><time>2025-05-25T11:53:27Z</time></trkpt>
<trkpt lat="49.845359" lon="5.701833"><ele>379.19</ele><time>2025-05-25T11:53:30Z</time></trkpt>
<trkpt lat="49.844948" lon="5.703119"><ele>377.47</ele><time>2025-05-25T11:53:33Z</time></trkpt>
<trkpt lat="49.844844" lon="5.7035"><ele>376.89</ele><time>2025-05-25T11:53:36Z</time></trkpt>
<trkpt lat="49.844781" lon="5.703839"><ele>376.3</ele><time>2025-05-25T11:53:40Z</time></trkpt>
<trkpt lat="49.84462" lon="5.705239"><ele>373.73</ele><time>2025-05-25T11:53:43Z</time></trkpt>
<trkpt lat="49.844567" lon="5.705461"><ele>375.07</ele><time>2025-05-25T11:53:46Z</time></trkpt>
<trkpt lat="49.844315" lon="5.706224"><ele>377.62</ele><time>2025-05-25T11:53:49Z</time></trkpt>
<trkpt lat="49.844226" lon="5.706598"><ele>375.87</ele><time>2025-05-25T11:53:52Z</time></trkpt>
<trkpt lat="49.844213" lon="5.706851"><ele>375.0</ele><time>2025-05-25T11:53:55Z</time></trkpt>
<trkpt lat="49.844239" lon="5.707097"><ele>373.93</ele><time>2025-05-25T11:53:58Z</time></trkpt>
<trkpt lat="49.84451" lon="5.708513"><ele>371.37</ele><time>2025-05-25T11:54:01Z</time></trkpt>
<trkpt lat="49.844776" lon="5.709784"><ele>369.36</ele><time>2025-05-25T11:54:04Z</time></trkpt>
<trkpt lat="49.844844" lon="5.710221"><ele>371.36</ele><time>2025-05-25T11:54:08Z</time></trkpt>
<trkpt lat="49.844882" lon="5.710684"><ele>372.54</ele><time>2025-05-25T11:54:11Z</time></trkpt>
<trkpt lat="49.844874" lon="5.711195"><ele>372.45</ele><time>2025-05-25T11:54:14Z</time></trkpt>
<trkpt lat="49.844812" lon="5.711908"><ele>373.81</ele><time>2025-05-25T11:54:17Z</time></trkpt>
<trkpt lat="49.84477" lon="5.712421"><ele>376.9</ele><time>2025-05-25T11:54:20Z</time></trkpt>
<trkpt lat="49.844699" lon="5.712962"><ele>377.25</ele><time>2025-05-25T11:54:23Z</time></trkpt>
<trkpt lat="49.844127" lon="5.715894"><ele>376.43</ele><time>2025-05-25T11:54:26Z</time></trkpt>
<trkpt lat="49.844093" lon="5.71613"><ele>377.61</ele><time>2025-05-25T11:54:29Z</time></trkpt>
<trkpt lat="49.844026" lon="5.717698"><ele>379.33</ele><time>2025-05-25T11:54:33Z</time></trkpt>
<trkpt lat="49.843916" lon="5.718734"><ele>381.64</ele><time>2025-05-25T11:54:36Z</time></trkpt>
<trkpt lat="49.843902" lon="5.719074"><ele>378.61</ele><time>2025-05-25T11:54:39Z</time></trkpt>
<trkpt lat="49.844005" lon="5.720262"><ele>376.22</ele><time>2025-05-25T11:54:42Z</time></trkpt>
<trkpt lat="49.844003" lon="5.72051"><ele>375.8</ele><time>2025-05-25T11:54:45Z</time></trkpt>
<trkpt lat="49.843954" lon="5.720801"><ele>376.65</ele><time>2025-05-25T11:54:48Z</time></trkpt>
<trkpt lat="49.843874" lon="5.721049"><ele>378.17</ele><time>2025-05-25T11:54:51Z</time></trkpt>
<trkpt lat="49.843731" lon="5.721383"><ele>378.16</ele><time>2025-05-25T11:54:54Z</time></trkpt>
<trkpt lat="49.843618" lon="5.721542"><ele>378.4</ele><time>2025-05-25T11:54:58Z</time></trkpt>
<trkpt lat="49.843339" lon="5.721849"><ele>377.34</ele><time>2025-05-25T11:55:01Z</time></trkpt>
<trkpt lat="49.842481" lon="5.722709"><ele>380.07</ele><time>2025-05-25T11:55:04Z</time></trkpt>
<trkpt lat="49.842298" lon="5.722802"><ele>380.73</ele><time>2025-05-25T11:55:07Z</time></trkpt>
<trkpt lat="49.842083" lon="5.722835"><ele>380.1</ele><time>2025-05-25T11:55:10Z</time></trkpt>
<trkpt lat="49.841993" lon="5.72282"><ele>379.48</ele><time>2025-05-25T11:55:13Z</time></trkpt>
<trkpt lat="49.841867" lon="5.722765"><ele>378.75</ele><time>2025-05-25T11:55:16Z</time></trkpt>
<trkpt lat="49.84176" lon="5.722686"><ele>378.45</ele><time>2025-05-25T11:55:19Z</time></trkpt>
<trkpt lat="49.841636" lon="5.722526"><ele>377.67</ele><time>2025-05-25T11:55:22Z</time></trkpt>
<trkpt lat="49.840791" lon="5.720888"><ele>378.02</ele><time>2025-05-25T11:55:26Z</time></trkpt>
<trkpt lat="49.84057" lon="5.720507"><ele>381.97</ele><time>2025-05-25T11:55:29Z</time></trkpt>
<trkpt lat="49.84046" lon="5.720366"><ele>380.39</ele><time>2025-05-25T11:55:32Z</time></trkpt>
<trkpt lat="49.840216" lon="5.720143"><ele>375.62</ele><time>2025-05-25T11:55:35Z</time></trkpt>
<trkpt lat="49.839973" lon="5.72001"><ele>371.63</ele><time>2025-05-25T11:55:38Z</time></trkpt>
<trkpt lat="49.839775" lon="5.719957"><ele>370.32</ele><time>2025-05-25T11:55:41Z</time></trkpt>
<trkpt lat="49.839582" lon="5.719936"><ele>368.8</ele><time>2025-05-25T11:55:44Z</time></trkpt>
<trkpt lat="49.839453" lon="5.719962"><ele>367.36</ele><time>2025-05-25T11:55:47Z</time></trkpt>
<trkpt lat="49.839189" lon="5.720072"><ele>367.46</ele><time>2025-05-25T11:55:51Z</time></trkpt>
<trkpt lat="49.838592" lon="5.72042"><ele>375.05</ele><time>2025-05-25T11:55:54Z</time></trkpt>
<trkpt lat="49.838323" lon="5.720434"><ele>375.62</ele><time>2025-05-25T11:55:57Z</time></trkpt>
<trkpt lat="49.83721" lon="5.720263"><ele>379.86</ele><time>2025-05-25T11:56:00Z</time></trkpt>
<trkpt lat="49.836995" lon="5.720263"><ele>378.31</ele><time>2025-05-25T11:56:03Z</time></trkpt>
<trkpt lat="49.835997" lon="5.720494"><ele>379.64</ele><time>2025-05-25T11:56:06Z</time></trkpt>
<trkpt lat="49.835809" lon="5.720588"><ele>379.57</ele><time>2025-05-25T11:56:09Z</time></trkpt>
<trkpt lat="49.835669" lon="5.720716"><ele>377.04</ele><time>2025-05-25T11:56:12Z</time></trkpt>
<trkpt lat="49.835538" lon="5.720872"><ele>374.75</ele><time>2025-05-25T11:56:15Z</time></trkpt>
<trkpt lat="49.835435" lon="5.721082"><ele>373.27</ele><time>2025-05-25T11:56:19Z</time></trkpt>
<trkpt lat="49.835347" lon="5.721492"><ele>370.07</ele><time>2025-05-25T11:56:22Z</time></trkpt>
<trkpt lat="49.835338" lon="5.721704"><ele>369.62</ele><time>2025-05-25T11:56:25Z</time></trkpt>
<trkpt lat="49.835376" lon="5.722244"><ele>373.17</ele><time>2025-05-25T11:56:28Z</time></trkpt>
<trkpt lat="49.835457" lon="5.722941"><ele>373.55</ele><time>2025-05-25T11:56:31Z</time></trkpt>
<trkpt lat="49.835528" lon="5.723381"><ele>375.33</ele><time>2025-05-25T11:56:34Z</time></trkpt>
<trkpt lat="49.835767" lon="5.72444"><ele>377.86</ele><time>2025-05-25T11:56:37Z</time></trkpt>
<trkpt lat="49.835923" lon="5.725061"><ele>378.21</ele><time>2025-05-25T11:56:40Z</time></trkpt>
<trkpt lat="49.83607" lon="5.725707"><ele>378.65</ele><time>2025-05-25T11:56:44Z</time></trkpt>
<trkpt lat="49.836169" lon="5.726334"><ele>379.86</ele><time>2025-05-25T11:56:47Z</time></trkpt>
<trkpt lat="49.836223" lon="5.726943"><ele>380.85</ele><time>2025-05-25T11:56:50Z</time></trkpt>
<trkpt lat="49.836229" lon="5.727158"><ele>380.75</ele><time>2025-05-25T11:56:53Z</time></trkpt>
<trkpt lat="49.836225" lon="5.72738"><ele>381.32</ele><time>2025-05-25T11:56:56Z</time></trkpt>
<trkpt lat="49.836197" lon="5.727687"><ele>381.78</ele><time>2025-05-25T11:56:59Z</time></trkpt>
<trkpt lat="49.836135" lon="5.728147"><ele>381.54</ele><time>2025-05-25T11:57:02Z</time></trkpt>
<trkpt lat="49.835972" lon="5.728872"><ele>384.74</ele><time>2025-05-25T11:57:05Z</time></trkpt>
<trkpt lat="49.835844" lon="5.729244"><ele>384.11</ele><time>2025-05-25T11:57:08Z</time></trkpt>
<trkpt lat="49.835716" lon="5.729541"><ele>385.22</ele><time>2025-05-25T11:57:12Z</time></trkpt>
<trkpt lat="49.835567" lon="5.729739"><ele>385.0</ele><time>2025-05-25T11:57:15Z</time></trkpt>
<trkpt lat="49.835234" lon="5.730035"><ele>382.17</ele><time>2025-05-25T11:57:18Z</time></trkpt>
<trkpt lat="49.835079" lon="5.730108"><ele>383.89</ele><time>2025-05-25T11:57:21Z</time></trkpt>
<trkpt lat="49.834864" lon="5.730155"><ele>386.22</ele><time>2025-05-25T11:57:24Z</time></trkpt>
<trkpt lat="49.83461" lon="5.730145"><ele>388.21</ele><time>2025-05-25T11:57:27Z</time></trkpt>
<trkpt lat="49.834423" lon="5.730104"><ele>388.79</ele><time>2025-05-25T11:57:30Z</time></trkpt>
<trkpt lat="49.834282" lon="5.730013"><ele>386.88</ele><time>2025-05-25T11:57:33Z</time></trkpt>
<trkpt lat="49.834118" lon="5.729861"><ele>383.88</ele><time>2025-05-25T11:57:37Z</time></trkpt>
<trkpt lat="49.833826" lon="5.729403"><ele>374.38</ele><time>2025-05-25T11:57:40Z</time></trkpt>
<trkpt lat="49.8337" lon="5.729249"><ele>372.42</ele><time>2025-05-25T11:57:43Z</time></trkpt>
<trkpt lat="49.83355" lon="5.729129"><ele>371.41</ele><time>2025-05-25T11:57:46Z</time></trkpt>
<trkpt lat="49.833262" lon="5.729024"><ele>372.18</ele><time>2025-05-25T11:57:49Z</time></trkpt>
<trkpt lat="49.833016" lon="5.729054"><ele>371.62</ele><time>2025-05-25T11:57:52Z</time></trkpt>
<trkpt lat="49.832784" lon="5.729199"><ele>371.16</ele><time>2025-05-25T11:57:55Z</time></trkpt>
<trkpt lat="49.832708" lon="5.729284"><ele>371.17</ele><time>2025-05-25T11:57:58Z</time></trkpt>
<trkpt lat="49.832619" lon="5.72943"><ele>371.38</ele><time>2025-05-25T11:58:01Z</time></trkpt>
<trkpt lat="49.832124" lon="5.730401"><ele>373.54</ele><time>2025-05-25T11:58:05Z</time></trkpt>
<trkpt lat="49.832013" lon="5.730685"><ele>373.96</ele><time>2025-05-25T11:58:08Z</time></trkpt>
<trkpt lat="49.831941" lon="5.730927"><ele>373.98</ele><time>2025-05-25T11:58:11Z</time></trkpt>
<trkpt lat="49.831862" lon="5.731344"><ele>373.95</ele><time>2025-05-25T11:58:14Z</time></trkpt>
<trkpt lat="49.831692" lon="5.732679"><ele>374.51</ele><time>2025-05-25T11:58:17Z</time></trkpt>
<trkpt lat="49.831371" lon="5.734839"><ele>375.16</ele><time>2025-05-25T11:58:20Z</time></trkpt>
<trkpt lat="49.831367" lon="5.735868"><ele>369.92</ele><time>2025-05-25T11:58:23Z</time></trkpt>
<trkpt lat="49.831447" lon="5.737248"><ele>363.0</ele><time>2025-05-25T11:58:26Z</time></trkpt>
<trkpt lat="49.831691" lon="5.737626"><ele>362.78</ele><time>2025-05-25T11:58:30Z</time></trkpt>
<trkpt lat="49.831854" lon="5.737794"><ele>360.99</ele><time>2025-05-25T11:58:33Z</time></trkpt>
<trkpt lat="49.831995" lon="5.73788"><ele>360.18</ele><time>2025-05-25T11:58:36Z</time></trkpt>
<trkpt lat="49.832112" lon="5.737923"><ele>360.6</ele><time>2025-05-25T11:58:39Z</time></trkpt>
<trkpt lat="49.83237" lon="5.737962"><ele>361.88</ele><time>2025-05-25T11:58:42Z</time></trkpt>
<trkpt lat="49.83252" lon="5.73795"><ele>362.65</ele><time>2025-05-25T11:58:45Z</time></trkpt>
<trkpt lat="49.832637" lon="5.738003"><ele>362.9</ele><time>2025-05-25T11:58:48Z</time></trkpt>
<trkpt lat="49.833592" lon="5.738865"><ele>364.02</ele><time>2025-05-25T11:58:51Z</time></trkpt>
<trkpt lat="49.833685" lon="5.738985"><ele>364.17</ele><time>2025-05-25T11:58:55Z</time></trkpt>
<trkpt lat="49.833638" lon="5.739078"><ele>364.37</ele><time>2025-05-25T11:58:56Z</time></trkpt>
<trkpt lat="49.833638" lon="5.739078"><ele>364.37</ele><time>2025-05-25T11:58:56Z</time></trkpt>
<trkpt lat="49.833803" lon="5.738811"><ele>365.17</ele><time>2025-05-25T11:59:01Z</time></trkpt>
<trkpt lat="49.83396" lon="5.738649"><ele>366.8</ele><time>2025-05-25T11:59:06Z</time></trkpt>
<trkpt lat="49.834179" lon="5.738505"><ele>367.53</ele><time>2025-05-25T11:59:12Z</time></trkpt>
<trkpt lat="49.834371" lon="5.738441"><ele>370.27</ele><time>2025-05-25T11:59:17Z</time></trkpt>
<trkpt lat="49.835638" lon="5.73826"><ele>373.36</ele><time>2025-05-25T11:59:23Z</time></trkpt>
<trkpt lat="49.835867" lon="5.738249"><ele>374.42</ele><time>2025-05-25T11:59:28Z</time></trkpt>
<trkpt lat="49.836085" lon="5.738278"><ele>375.42</ele><time>2025-05-25T11:59:34Z</time></trkpt>
<trkpt lat="49.836435" lon="5.738362"><ele>376.54</ele><time>2025-05-25T11:59:39Z</time></trkpt>
<trkpt lat="49.837125" lon="5.738611"><ele>383.9</ele><time>2025-05-25T11:59:45Z</time></trkpt>
<trkpt lat="49.837805" lon="5.738964"><ele>389.95</ele><time>2025-05-25T11:59:50Z</time></trkpt>
<trkpt lat="49.837865" lon="5.739042"><ele>389.63</ele><time>2025-05-25T11:59:56Z</time></trkpt>
<trkpt lat="49.838192" lon="5.739279"><ele>394.02</ele><time>2025-05-25T12:00:01Z</time></trkpt>
<trkpt lat="49.838428" lon="5.739504"><ele>395.58</ele><time>2025-05-25T12:00:07Z</time></trkpt>
<trkpt lat="49.838716" lon="5.739818"><ele>389.66</ele><time>2025-05-25T12:00:12Z</time></trkpt>
<trkpt lat="49.839883" lon="5.741455"><ele>396.07</ele><time>2025-05-25T12:00:18Z</time></trkpt>
<trkpt lat="49.8399" lon="5.741674"><ele>393.74</ele><time>2025-05-25T12:00:20Z</time></trkpt>
<trkpt lat="49.840036" lon="5.742023"><ele>393.72</ele><time>2025-05-25T12:00:21Z</time></trkpt>
<trkpt lat="49.840257" lon="5.742424"><ele>398.82</ele><time>2025-05-25T12:00:23Z</time></trkpt>
<trkpt lat="49.840352" lon="5.742552"><ele>399.54</ele><time>2025-05-25T12:00:25Z</time></trkpt>
<trkpt lat="49.840435" lon="5.74263"><ele>400.13</ele><time>2025-05-25T12:00:27Z</time></trkpt>
<trkpt lat="49.840548" lon="5.742691"><ele>400.95</ele><time>2025-05-25T12:00:29Z</time></trkpt>
<trkpt lat="49.840478" lon="5.74304"><ele>399.91</ele><time>2025-05-25T12:00:31Z</time></trkpt>
<trkpt lat="49.840475" lon="5.743626"><ele>401.01</ele><time>2025-05-25T12:00:34Z</time></trkpt>
<trkpt lat="49.840426" lon="5.743893"><ele>400.27</ele><time>2025-05-25T12:00:36Z</time></trkpt>
<trkpt lat="49.840322" lon="5.744179"><ele>397.33</ele><time>2025-05-25T12:00:38Z</time></trkpt>
<trkpt lat="49.840083" lon="5.744665"><ele>394.33</ele><time>2025-05-25T12:00:41Z</time></trkpt>
<trkpt lat="49.83999" lon="5.74502"><ele>396.84</ele><time>2025-05-25T12:00:43Z</time></trkpt>
<trkpt lat="49.840003" lon="5.745525"><ele>399.89</ele><time>2025-05-25T12:00:46Z</time></trkpt>
<trkpt lat="49.840101" lon="5.745958"><ele>400.47</ele><time>2025-05-25T12:00:48Z</time></trkpt>
<trkpt lat="49.840249" lon="5.746403"><ele>398.04</ele><time>2025-05-25T12:00:51Z</time></trkpt>
<trkpt lat="49.840387" lon="5.746624"><ele>395.97</ele><time>2025-05-25T12:00:53Z</time></trkpt>
<trkpt lat="49.840584" lon="5.746857"><ele>392.9</ele><time>2025-05-25T12:00:56Z</time></trkpt>
<trkpt lat="49.841019" lon="5.74708"><ele>387.53</ele><time>2025-05-25T12:00:58Z</time></trkpt>
<trkpt lat="49.841412" lon="5.747107"><ele>387.57</ele><time>2025-05-25T12:01:01Z</time></trkpt>
<trkpt lat="49.843599" lon="5.746763"><ele>371.74</ele><time>2025-05-25T12:01:03Z</time></trkpt>
<trkpt lat="49.843793" lon="5.746754"><ele>371.03</ele><time>2025-05-25T12:01:06Z</time></trkpt>
<trkpt lat="49.843994" lon="5.7468"><ele>370.72</ele><time>2025-05-25T12:01:08Z</time></trkpt>
<trkpt lat="49.845108" lon="5.747384"><ele>364.58</ele><time>2025-05-25T12:01:10Z</time></trkpt>
<trkpt lat="49.845368" lon="5.747456"><ele>366.28</ele><time>2025-05-25T12:01:13Z</time></trkpt>
<trkpt lat="49.845865" lon="5.74752"><ele>368.17</ele><time>2025-05-25T12:01:15Z</time></trkpt>
<trkpt lat="49.846235" lon="5.747652"><ele>372.39</ele><time>2025-05-25T12:01:18Z</time></trkpt>
<trkpt lat="49.846524" lon="5.747859"><ele>375.51</ele><time>2025-05-25T12:01:20Z</time></trkpt>
<trkpt lat="49.846826" lon="5.748157"><ele>379.11</ele><time>2025-05-25T12:01:23Z</time></trkpt>
<trkpt lat="49.847053" lon="5.748433"><ele>379.99</ele><time>2025-05-25T12:01:25Z</time></trkpt>
<trkpt lat="49.847358" lon="5.748956"><ele>378.42</ele><time>2025-05-25T12:01:28Z</time></trkpt>
<trkpt lat="49.847527" lon="5.74942"><ele>378.41</ele><time>2025-05-25T12:01:30Z</time></trkpt>
<trkpt lat="49.847657" lon="5.750002"><ele>377.64</ele><time>2025-05-25T12:01:33Z</time></trkpt>
<trkpt lat="49.847703" lon="5.750307"><ele>377.38</ele><time>2025-05-25T12:01:35Z</time></trkpt>
<trkpt lat="49.847724" lon="5.750538"><ele>376.57</ele><time>2025-05-25T12:01:38Z</time></trkpt>
<trkpt lat="49.847716" lon="5.751395"><ele>376.28</ele><time>2025-05-25T12:01:40Z</time></trkpt>
<trkpt lat="49.847707" lon="5.752281"><ele>379.1</ele><time>2025-05-25T12:01:43Z</time></trkpt>
<trkpt lat="49.847771" lon="5.752431"><ele>378.29</ele><time>2025-05-25T12:01:45Z</time></trkpt>
<trkpt lat="49.847857" lon="5.752531"><ele>377.92</ele><time>2025-05-25T12:01:47Z</time></trkpt>
<trkpt lat="49.848" lon="5.75237"><ele>378.47</ele><time>2025-05-25T12:01:53Z</time></trkpt>
<trkpt lat="49.849817" lon="5.749953"><ele>373.48</ele><time>2025-05-25T12:01:58Z</time></trkpt>
<trkpt lat="49.850242" lon="5.749277"><ele>368.39</ele><time>2025-05-25T12:02:03Z</time></trkpt>
<trkpt lat="49.851286" lon="5.747219"><ele>365.87</ele><time>2025-05-25T12:02:08Z</time></trkpt>
<trkpt lat="49.851846" lon="5.746315"><ele>367.8</ele><time>2025-05-25T12:02:14Z</time></trkpt>
<trkpt lat="49.852098" lon="5.746019"><ele>374.61</ele><time>2025-05-25T12:02:19Z</time></trkpt>
<trkpt lat="49.852331" lon="5.745812"><ele>375.98</ele><time>2025-05-25T12:02:24Z</time></trkpt>
<trkpt lat="49.852593" lon="5.745673"><ele>374.63</ele><time>2025-05-25T12:02:29Z</time></trkpt>
<trkpt lat="49.852878" lon="5.745565"><ele>372.32</ele><time>2025-05-25T12:02:35Z</time></trkpt>
<trkpt lat="49.853234" lon="5.745514"><ele>374.42</ele><time>2025-05-25T12:02:40Z</time></trkpt>
<trkpt lat="49.85353" lon="5.745512"><ele>377.2</ele><time>2025-05-25T12:02:45Z</time></trkpt>
<trkpt lat="49.853798" lon="5.745589"><ele>377.35</ele><time>2025-05-25T12:02:50Z</time></trkpt>
<trkpt lat="49.853964" lon="5.745718"><ele>376.47</ele><time>2025-05-25T12:02:56Z</time></trkpt>
<trkpt lat="49.854113" lon="5.745879"><ele>375.58</ele><time>2025-05-25T12:03:01Z</time></trkpt>
<trkpt lat="49.854791" lon="5.747079"><ele>366.52</ele><time>2025-05-25T12:03:06Z</time></trkpt>
<trkpt lat="49.854948" lon="5.747407"><ele>365.87</ele><time>2025-05-25T12:03:11Z</time></trkpt>
<trkpt lat="49.85513" lon="5.747889"><ele>367.91</ele><time>2025-05-25T12:03:17Z</time></trkpt>
<trkpt lat="49.855254" lon="5.748266"><ele>368.8</ele><time>2025-05-25T12:03:22Z</time></trkpt>
<trkpt lat="49.855341" lon="5.74864"><ele>367.56</ele><time>2025-05-25T12:03:27Z</time></trkpt>
<trkpt lat="49.855493" lon="5.74962"><ele>364.85</ele><time>2025-05-25T12:03:32Z</time></trkpt>
<trkpt lat="49.855659" lon="5.750425"><ele>366.24</ele><time>2025-05-25T12:03:38Z</time></trkpt>
<trkpt lat="49.856009" lon="5.75157"><ele>375.0</ele><time>2025-05-25T12:03:43Z</time></trkpt>
<trkpt lat="49.856688" lon="5.753627"><ele>374.63</ele><time>2025-05-25T12:03:48Z</time></trkpt>
<trkpt lat="49.856778" lon="5.754013"><ele>373.12</ele><time>2025-05-25T12:03:53Z</time></trkpt>
<trkpt lat="49.856855" lon="5.754615"><ele>369.64</ele><time>2025-05-25T12:03:58Z</time></trkpt>
<trkpt lat="49.856864" lon="5.755031"><ele>367.46</ele><time>2025-05-25T12:04:04Z</time></trkpt>
<trkpt lat="49.856797" lon="5.756045"><ele>363.82</ele><time>2025-05-25T12:04:09Z</time></trkpt>
<trkpt lat="49.856784" lon="5.756453"><ele>364.24</ele><time>2025-05-25T12:04:14Z</time></trkpt>
<trkpt lat="49.856867" lon="5.756782"><ele>365.58</ele><time>2025-05-25T12:04:19Z</time></trkpt>
<trkpt lat="49.856927" lon="5.756916"><ele>365.91</ele><time>2025-05-25T12:04:25Z</time></trkpt>
<trkpt lat="49.857074" lon="5.757104"><ele>365.05</ele><time>2025-05-25T12:04:30Z</time></trkpt>
<trkpt lat="49.857253" lon="5.757199"><ele>364.49</ele><time>2025-05-25T12:04:35Z</time></trkpt>
<trkpt lat="49.857253" lon="5.757199"><ele>364.49</ele><time>2025-05-25T12:04:35Z</time></trkpt>
<trkpt lat="49.857313" lon="5.75723"><ele>363.93</ele><time>2025-05-25T12:04:38Z</time></trkpt>
<trkpt lat="49.8575" lon="5.757219"><ele>364.01</ele><time>2025-05-25T12:04:42Z</time></trkpt>
<trkpt lat="49.8576" lon="5.757187"><ele>363.41</ele><time>2025-05-25T12:04:45Z</time></trkpt>
<trkpt lat="49.858657" lon="5.75674"><ele>358.45</ele><time>2025-05-25T12:04:48Z</time></trkpt>
<trkpt lat="49.859147" lon="5.756418"><ele>355.21</ele><time>2025-05-25T12:04:51Z</time></trkpt>
<trkpt lat="49.859574" lon="5.755983"><ele>352.95</ele><time>2025-05-25T12:04:54Z</time></trkpt>
<trkpt lat="49.859895" lon="5.755557"><ele>355.49</ele><time>2025-05-25T12:04:58Z</time></trkpt>
<trkpt lat="49.860274" lon="5.755112"><ele>354.27</ele><time>2025-05-25T12:05:01Z</time></trkpt>
<trkpt lat="49.860475" lon="5.754942"><ele>352.35</ele><time>2025-05-25T12:05:04Z</time></trkpt>
<trkpt lat="49.861287" lon="5.754403"><ele>363.32</ele><time>2025-05-25T12:05:07Z</time></trkpt>
<trkpt lat="49.861522" lon="5.75432"><ele>367.45</ele><time>2025-05-25T12:05:10Z</time></trkpt>
<trkpt lat="49.86172" lon="5.754289"><ele>369.97</ele><time>2025-05-25T12:05:14Z</time></trkpt>
<trkpt lat="49.86199" lon="5.754284"><ele>375.31</ele><time>2025-05-25T12:05:17Z</time></trkpt>
<trkpt lat="49.862167" lon="5.754319"><ele>376.97</ele><time>2025-05-25T12:05:20Z</time></trkpt>
<trkpt lat="49.862332" lon="5.75441"><ele>376.7</ele><time>2025-05-25T12:05:23Z</time></trkpt>
<trkpt lat="49.863562" lon="5.755433"><ele>361.91</ele><time>2025-05-25T12:05:26Z</time></trkpt>
<trkpt lat="49.863905" lon="5.755672"><ele>361.06</ele><time>2025-05-25T12:05:30Z</time></trkpt>
<trkpt lat="49.864759" lon="5.756182"><ele>357.68</ele><time>2025-05-25T12:05:33Z</time></trkpt>
<trkpt lat="49.864955" lon="5.756255"><ele>356.69</ele><time>2025-05-25T12:05:36Z</time></trkpt>
<trkpt lat="49.865283" lon="5.756333"><ele>353.82</ele><time>2025-05-25T12:05:39Z</time></trkpt>
<trkpt lat="49.865606" lon="5.75633"><ele>354.12</ele><time>2025-05-25T12:05:42Z</time></trkpt>
<trkpt lat="49.865776" lon="5.756287"><ele>353.07</ele><time>2025-05-25T12:05:46Z</time></trkpt>
<trkpt lat="49.865934" lon="5.756208"><ele>351.52</ele><time>2025-05-25T12:05:49Z</time></trkpt>
<trkpt lat="49.866071" lon="5.756086"><ele>349.52</ele><time>2025-05-25T12:05:52Z</time></trkpt>
<trkpt lat="49.866111" lon="5.756044"><ele>349.25</ele><time>2025-05-25T12:05:55Z</time></trkpt>
<trkpt lat="49.866185" lon="5.755927"><ele>349.84</ele><time>2025-05-25T12:05:58Z</time></trkpt>
<trkpt lat="49.866262" lon="5.755749"><ele>350.27</ele><time>2025-05-25T12:06:02Z</time></trkpt>
<trkpt lat="49.866373" lon="5.755412"><ele>350.14</ele><time>2025-05-25T12:06:05Z</time></trkpt>
<trkpt lat="49.866855" lon="5.754615"><ele>351.68</ele><time>2025-05-25T12:06:08Z</time></trkpt>
<trkpt lat="49.867716" lon="5.753025"><ele>349.13</ele><time>2025-05-25T12:06:11Z</time></trkpt>
<trkpt lat="49.867853" lon="5.752829"><ele>349.14</ele><time>2025-05-25T12:06:14Z</time></trkpt>
<trkpt lat="49.868025" lon="5.752645"><ele>349.71</ele><time>2025-05-25T12:06:18Z</time></trkpt>
<trkpt lat="49.868193" lon="5.752514"><ele>348.94</ele><time>2025-05-25T12:06:21Z</time></trkpt>
<trkpt lat="49.868716" lon="5.75219"><ele>350.08</ele><time>2025-05-25T12:06:24Z</time></trkpt>
<trkpt lat="49.868951" lon="5.752009"><ele>352.39</ele><time>2025-05-25T12:06:27Z</time></trkpt>
<trkpt lat="49.868993" lon="5.751964"><ele>353.14</ele><time>2025-05-25T12:06:30Z</time></trkpt>
<trkpt lat="49.869151" lon="5.751661"><ele>357.14</ele><time>2025-05-25T12:06:34Z</time></trkpt>
<trkpt lat="49.869196" lon="5.751504"><ele>359.5</ele><time>2025-05-25T12:06:37Z</time></trkpt>
<trkpt lat="49.869356" lon="5.75028"><ele>370.73</ele><time>2025-05-25T12:06:40Z</time></trkpt>
<trkpt lat="49.869481" lon="5.749857"><ele>372.39</ele><time>2025-05-25T12:06:43Z</time></trkpt>
<trkpt lat="49.869553" lon="5.749728"><ele>373.76</ele><time>2025-05-25T12:06:46Z</time></trkpt>
<trkpt lat="49.869681" lon="5.749642"><ele>376.68</ele><time>2025-05-25T12:06:50Z</time></trkpt>
<trkpt lat="49.86974" lon="5.749658"><ele>378.28</ele><time>2025-05-25T12:06:53Z</time></trkpt>
<trkpt lat="49.869785" lon="5.749712"><ele>379.77</ele><time>2025-05-25T12:06:56Z</time></trkpt>
<trkpt lat="49.869806" lon="5.749803"><ele>380.61</ele><time>2025-05-25T12:06:59Z</time></trkpt>
<trkpt lat="49.869806" lon="5.7499"><ele>380.85</ele><time>2025-05-25T12:07:02Z</time></trkpt>
<trkpt lat="49.869754" lon="5.750146"><ele>379.8</ele><time>2025-05-25T12:07:06Z</time></trkpt>
<trkpt lat="49.869756" lon="5.750209"><ele>379.86</ele><time>2025-05-25T12:07:09Z</time></trkpt>
<trkpt lat="49.869798" lon="5.75053"><ele>379.84</ele><time>2025-05-25T12:07:12Z</time></trkpt>
<trkpt lat="49.869906" lon="5.750751"><ele>384.07</ele><time>2025-05-25T12:07:15Z</time></trkpt>
<trkpt lat="49.870326" lon="5.751268"><ele>391.81</ele><time>2025-05-25T12:07:18Z</time></trkpt>
<trkpt lat="49.870625" lon="5.751438"><ele>394.95</ele><time>2025-05-25T12:07:22Z</time></trkpt>
<trkpt lat="49.870909" lon="5.751542"><ele>394.28</ele><time>2025-05-25T12:07:25Z</time></trkpt>
<trkpt lat="49.871475" lon="5.751484"><ele>391.9</ele><time>2025-05-25T12:07:28Z</time></trkpt>
<trkpt lat="49.871723" lon="5.751589"><ele>392.61</ele><time>2025-05-25T12:07:31Z</time></trkpt>
<trkpt lat="49.871941" lon="5.751779"><ele>394.3</ele><time>2025-05-25T12:07:34Z</time></trkpt>
<trkpt lat="49.872909" lon="5.75285"><ele>395.98</ele><time>2025-05-25T12:07:38Z</time></trkpt>
<trkpt lat="49.87336" lon="5.75293"><ele>404.73</ele><time>2025-05-25T12:07:41Z</time></trkpt>
<trkpt lat="49.873827" lon="5.752937"><ele>411.84</ele><time>2025-05-25T12:07:44Z</time></trkpt>
<trkpt lat="49.874465" lon="5.752661"><ele>412.76</ele><time>2025-05-25T12:07:47Z</time></trkpt>
<trkpt lat="49.875147" lon="5.752233"><ele>420.21</ele><time>2025-05-25T12:07:50Z</time></trkpt>
<trkpt lat="49.875806" lon="5.752187"><ele>425.35</ele><time>2025-05-25T12:07:54Z</time></trkpt>
<trkpt lat="49.876376" lon="5.752051"><ele>432.77</ele><time>2025-05-25T12:07:57Z</time></trkpt>
<trkpt lat="49.876698" lon="5.751571"><ele>435.85</ele><time>2025-05-25T12:08:00Z</time></trkpt>
<trkpt lat="49.876907" lon="5.751308"><ele>433.98</ele><time>2025-05-25T12:08:03Z</time></trkpt>
<trkpt lat="49.877075" lon="5.751178"><ele>433.13</ele><time>2025-05-25T12:08:06Z</time></trkpt>
<trkpt lat="49.877327" lon="5.751045"><ele>433.0</ele><time>2025-05-25T12:08:10Z</time></trkpt>
<trkpt lat="49.877467" lon="5.751002"><ele>433.0</ele><time>2025-05-25T12:08:13Z</time></trkpt>
<trkpt lat="49.877667" lon="5.751006"><ele>433.37</ele><time>2025-05-25T12:08:16Z</time></trkpt>
<trkpt lat="49.878204" lon="5.75066"><ele>434.11</ele><time>2025-05-25T12:08:19Z</time></trkpt>
<trkpt lat="49.878728" lon="5.751436"><ele>440.0</ele><time>2025-05-25T12:08:27Z</time></trkpt>
<trkpt lat="49.87899" lon="5.751556"><ele>441.31</ele><time>2025-05-25T12:08:34Z</time></trkpt>
<trkpt lat="49.879075" lon="5.751562"><ele>442.43</ele><time>2025-05-25T12:08:42Z</time></trkpt>
<trkpt lat="49.879935" lon="5.751362"><ele>451.67</ele><time>2025-05-25T12:08:50Z</time></trkpt>
<trkpt lat="49.88088" lon="5.751045"><ele>449.58</ele><time>2025-05-25T12:08:57Z</time></trkpt>
<trkpt lat="49.881569" lon="5.750841"><ele>444.06</ele><time>2025-05-25T12:09:05Z</time></trkpt>
<trkpt lat="49.882087" lon="5.750829"><ele>443.94</ele><time>2025-05-25T12:09:12Z</time></trkpt>
<trkpt lat="49.882041" lon="5.750491"><ele>441.04</ele><time>2025-05-25T12:09:46Z</time></trkpt>
<trkpt lat="49.8826" lon="5.749806"><ele>436.3</ele><time>2025-05-25T12:09:55Z</time></trkpt>
<trkpt lat="49.882725" lon="5.749579"><ele>435.78</ele><time>2025-05-25T12:10:03Z</time></trkpt>
<trkpt lat="49.882725" lon="5.749579"><ele>435.78</ele><time>2025-05-25T12:10:03Z</time></trkpt>
<trkpt lat="49.8826" lon="5.749806"><ele>436.3</ele><time>2025-05-25T12:10:11Z</time></trkpt>
<trkpt lat="49.882041" lon="5.750491"><ele>441.04</ele><time>2025-05-25T12:10:20Z</time></trkpt>
<trkpt lat="49.882087" lon="5.750829"><ele>443.94</ele><time>2025-05-25T12:10:24Z</time></trkpt>
<trkpt lat="49.881569" lon="5.750841"><ele>444.06</ele><time>2025-05-25T12:10:29Z</time></trkpt>
<trkpt lat="49.88088" lon="5.751045"><ele>449.58</ele><time>2025-05-25T12:10:33Z</time></trkpt>
<trkpt lat="49.879935" lon="5.751362"><ele>451.67</ele><time>2025-05-25T12:10:38Z</time></trkpt>
<trkpt lat="49.879075" lon="5.751562"><ele>442.43</ele><time>2025-05-25T12:10:42Z</time></trkpt>
<trkpt lat="49.87899" lon="5.751556"><ele>441.31</ele><time>2025-05-25T12:10:47Z</time></trkpt>
<trkpt lat="49.878728" lon="5.751436"><ele>440.0</ele><time>2025-05-25T12:10:52Z</time></trkpt>
<trkpt lat="49.87803" lon="5.750423"><ele>432.91</ele><time>2025-05-25T12:10:56Z</time></trkpt>
<trkpt lat="49.8777" lon="5.74984"><ele>431.68</ele><time>2025-05-25T12:11:01Z</time></trkpt>
<trkpt lat="49.877339" lon="5.749111"><ele>428.01</ele><time>2025-05-25T12:11:06Z</time></trkpt>
<trkpt lat="49.877276" lon="5.74892"><ele>427.72</ele><time>2025-05-25T12:11:10Z</time></trkpt>
<trkpt lat="49.877156" lon="5.748665"><ele>427.81</ele><time>2025-05-25T12:11:15Z</time></trkpt>
<trkpt lat="49.876845" lon="5.748067"><ele>426.34</ele><time>2025-05-25T12:11:19Z</time></trkpt>
<trkpt lat="49.876106" lon="5.746794"><ele>415.98</ele><time>2025-05-25T12:11:24Z</time></trkpt>
<trkpt lat="49.87575" lon="5.746247"><ele>414.7</ele><time>2025-05-25T12:11:29Z</time></trkpt>
<trkpt lat="49.875191" lon="5.745777"><ele>410.62</ele><time>2025-05-25T12:11:33Z</time></trkpt>
<trkpt lat="49.874803" lon="5.745229"><ele>407.05</ele><time>2025-05-25T12:11:38Z</time></trkpt>
<trkpt lat="49.87426" lon="5.743817"><ele>399.14</ele><time>2025-05-25T12:11:42Z</time></trkpt>
<trkpt lat="49.873938" lon="5.743162"><ele>390.78</ele><time>2025-05-25T12:11:47Z</time></trkpt>
<trkpt lat="49.873338" lon="5.742337"><ele>375.85</ele><time>2025-05-25T12:11:52Z</time></trkpt>
<trkpt lat="49.873232" lon="5.742233"><ele>375.79</ele><time>2025-05-25T12:11:56Z</time></trkpt>
<trkpt lat="49.873134" lon="5.742182"><ele>376.65</ele><time>2025-05-25T12:12:01Z</time></trkpt>
<trkpt lat="49.873062" lon="5.742182"><ele>377.23</ele><time>2025-05-25T12:12:06Z</time></trkpt>
<trkpt lat="49.872849" lon="5.742256"><ele>379.74</ele><time>2025-05-25T12:12:10Z</time></trkpt>
<trkpt lat="49.872597" lon="5.742411"><ele>382.85</ele><time>2025-05-25T12:12:15Z</time></trkpt>
<trkpt lat="49.872336" lon="5.742481"><ele>389.82</ele><time>2025-05-25T12:12:19Z</time></trkpt>
<trkpt lat="49.870776" lon="5.742287"><ele>398.84</ele><time>2025-05-25T12:12:24Z</time></trkpt>
<trkpt lat="49.870512" lon="5.742197"><ele>397.18</ele><time>2025-05-25T12:12:29Z</time></trkpt>
<trkpt lat="49.870349" lon="5.742104"><ele>394.07</ele><time>2025-05-25T12:12:33Z</time></trkpt>
<trkpt lat="49.870193" lon="5.741953"><ele>392.69</ele><time>2025-05-25T12:12:38Z</time></trkpt>
<trkpt lat="49.869338" lon="5.740322"><ele>393.55</ele><time>2025-05-25T12:12:42Z</time></trkpt>
<trkpt lat="49.869196" lon="5.740118"><ele>390.98</ele><time>2025-05-25T12:12:47Z</time></trkpt>
<trkpt lat="49.867372" lon="5.738478"><ele>401.21</ele><time>2025-05-25T12:12:52Z</time></trkpt>
<trkpt lat="49.867149" lon="5.73821"><ele>401.62</ele><time>2025-05-25T12:12:56Z</time></trkpt>
<trkpt lat="49.866498" lon="5.737167"><ele>414.66</ele><time>2025-05-25T12:13:01Z</time></trkpt>
<trkpt lat="49.865798" lon="5.736096"><ele>424.14</ele><time>2025-05-25T12:13:06Z</time></trkpt>
<trkpt lat="49.86521" lon="5.735128"><ele>426.5</ele><time>2025-05-25T12:13:10Z</time></trkpt>
<trkpt lat="49.865034" lon="5.734756"><ele>428.64</ele><time>2025-05-25T12:13:15Z</time></trkpt>
<trkpt lat="49.864871" lon="5.734352"><ele>430.83</ele><time>2025-05-25T12:13:19Z</time></trkpt>
<trkpt lat="49.864559" lon="5.733267"><ele>430.3</ele><time>2025-05-25T12:13:24Z</time></trkpt>
<trkpt lat="49.863184" lon="5.728697"><ele>442.05</ele><time>2025-05-25T12:13:29Z</time></trkpt>
<trkpt lat="49.863001" lon="5.727946"><ele>448.07</ele><time>2025-05-25T12:13:33Z</time></trkpt>
<trkpt lat="49.862938" lon="5.727552"><ele>450.5</ele><time>2025-05-25T12:13:38Z</time></trkpt>
<trkpt lat="49.862916" lon="5.727247"><ele>451.92</ele><time>2025-05-25T12:13:42Z</time></trkpt>
<trkpt lat="49.862919" lon="5.726893"><ele>453.85</ele><time>2025-05-25T12:13:47Z</time></trkpt>
<trkpt lat="49.862679" lon="5.726988"><ele>455.55</ele><time>2025-05-25T12:14:03Z</time></trkpt>
<trkpt lat="49.861986" lon="5.727133"><ele>460.02</ele><time>2025-05-25T12:14:19Z</time></trkpt>
<trkpt lat="49.860734" lon="5.728025"><ele>463.93</ele><time>2025-05-25T12:14:35Z</time></trkpt>
<trkpt lat="49.859375" lon="5.728519"><ele>469.75</ele><time>2025-05-25T12:14:51Z</time></trkpt>
<trkpt lat="49.859088" lon="5.727664"><ele>469.17</ele><time>2025-05-25T12:14:53Z</time></trkpt>
<trkpt lat="49.858984" lon="5.727448"><ele>468.88</ele><time>2025-05-25T12:14:54Z</time></trkpt>
<trkpt lat="49.858478" lon="5.726742"><ele>468.1</ele><time>2025-05-25T12:14:56Z</time></trkpt>
<trkpt lat="49.858419" lon="5.726635"><ele>468.39</ele><time>2025-05-25T12:14:58Z</time></trkpt>
<trkpt lat="49.859137" lon="5.725761"><ele>462.98</ele><time>2025-05-25T12:14:59Z</time></trkpt>
<trkpt lat="49.859189" lon="5.725646"><ele>462.24</ele><time>2025-05-25T12:15:01Z</time></trkpt>
<trkpt lat="49.859198" lon="5.725588"><ele>462.01</ele><time>2025-05-25T12:15:02Z</time></trkpt>
<trkpt lat="49.859193" lon="5.725509"><ele>461.9</ele><time>2025-05-25T12:15:04Z</time></trkpt>
<trkpt lat="49.85916" lon="5.725446"><ele>462.05</ele><time>2025-05-25T12:15:06Z</time></trkpt>
<trkpt lat="49.858966" lon="5.725143"><ele>461.89</ele><time>2025-05-25T12:15:07Z</time></trkpt>
<trkpt lat="49.858909" lon="5.725054"><ele>461.38</ele><time>2025-05-25T12:15:09Z</time></trkpt>
<trkpt lat="49.85958" lon="5.723967"><ele>459.26</ele><time>2025-05-25T12:15:13Z</time></trkpt>
<trkpt lat="49.860539" lon="5.722675"><ele>460.82</ele><time>2025-05-25T12:15:17Z</time></trkpt>
<trkpt lat="49.861415" lon="5.721252"><ele>462.81</ele><time>2025-05-25T12:15:22Z</time></trkpt>
<trkpt lat="49.861913" lon="5.720612"><ele>458.61</ele><time>2025-05-25T12:15:26Z</time></trkpt>
<trkpt lat="49.862549" lon="5.719615"><ele>459.25</ele><time>2025-05-25T12:15:30Z</time></trkpt>
<trkpt lat="49.862845" lon="5.719109"><ele>461.43</ele><time>2025-05-25T12:15:35Z</time></trkpt>
<trkpt lat="49.863174" lon="5.718438"><ele>462.42</ele><time>2025-05-25T12:15:39Z</time></trkpt>
<trkpt lat="49.863261" lon="5.718196"><ele>462.74</ele><time>2025-05-25T12:15:43Z</time></trkpt>
<trkpt lat="49.863467" lon="5.717411"><ele>463.17</ele><time>2025-05-25T12:15:48Z</time></trkpt>
<trkpt lat="49.863391" lon="5.717185"><ele>463.95</ele><time>2025-05-25T12:15:51Z</time></trkpt>
<trkpt lat="49.863097" lon="5.715559"><ele>470.68</ele><time>2025-05-25T12:15:54Z</time></trkpt>
<trkpt lat="49.863039" lon="5.715393"><ele>471.59</ele><time>2025-05-25T12:15:58Z</time></trkpt>
<trkpt lat="49.862463" lon="5.714528"><ele>471.86</ele><time>2025-05-25T12:16:01Z</time></trkpt>
<trkpt lat="49.859566" lon="5.710359"><ele>465.44</ele><time>2025-05-25T12:16:04Z</time></trkpt>
<trkpt lat="49.859326" lon="5.709874"><ele>463.38</ele><time>2025-05-25T12:16:08Z</time></trkpt>
<trkpt lat="49.858792" lon="5.708542"><ele>458.35</ele><time>2025-05-25T12:16:11Z</time></trkpt>
<trkpt lat="49.858579" lon="5.708061"><ele>458.89</ele><time>2025-05-25T12:16:15Z</time></trkpt>
<trkpt lat="49.858454" lon="5.707825"><ele>457.13</ele><time>2025-05-25T12:16:18Z</time></trkpt>
<trkpt lat="49.858284" lon="5.707558"><ele>454.24</ele><time>2025-05-25T12:16:21Z</time></trkpt>
<trkpt lat="49.857959" lon="5.707099"><ele>448.13</ele><time>2025-05-25T12:16:25Z</time></trkpt>
<trkpt lat="49.857458" lon="5.706307"><ele>443.76</ele><time>2025-05-25T12:16:28Z</time></trkpt>
<trkpt lat="49.857143" lon="5.705706"><ele>440.26</ele><time>2025-05-25T12:16:31Z</time></trkpt>
<trkpt lat="49.856889" lon="5.705151"><ele>434.19</ele><time>2025-05-25T12:16:35Z</time></trkpt>
<trkpt lat="49.856638" lon="5.704404"><ele>428.37</ele><time>2025-05-25T12:16:38Z</time></trkpt>
<trkpt lat="49.856127" lon="5.702383"><ele>411.33</ele><time>2025-05-25T12:16:41Z</time></trkpt>
<trkpt lat="49.855775" lon="5.701068"><ele>400.2</ele><time>2025-05-25T12:16:45Z</time></trkpt>
<trkpt lat="49.855684" lon="5.700849"><ele>399.12</ele><time>2025-05-25T12:16:48Z</time></trkpt>
<trkpt lat="49.85555" lon="5.700675"><ele>396.75</ele><time>2025-05-25T12:16:51Z</time></trkpt>
<trkpt lat="49.855413" lon="5.700586"><ele>396.01</ele><time>2025-05-25T12:16:55Z</time></trkpt>
<trkpt lat="49.855243" lon="5.700535"><ele>394.85</ele><time>2025-05-25T12:16:58Z</time></trkpt>
<trkpt lat="49.854184" lon="5.7007"><ele>388.31</ele><time>2025-05-25T12:17:01Z</time></trkpt>
<trkpt lat="49.854094" lon="5.700643"><ele>387.05</ele><time>2025-05-25T12:17:05Z</time></trkpt>
<trkpt lat="49.854036" lon="5.700578"><ele>385.56</ele><time>2025-05-25T12:17:08Z</time></trkpt>
<trkpt lat="49.853658" lon="5.699857"><ele>376.43</ele><time>2025-05-25T12:17:11Z</time></trkpt>
<trkpt lat="49.853436" lon="5.699364"><ele>380.69</ele><time>2025-05-25T12:17:15Z</time></trkpt>
<trkpt lat="49.85338" lon="5.699145"><ele>382.27</ele><time>2025-05-25T12:17:18Z</time></trkpt>
<trkpt lat="49.853304" lon="5.698692"><ele>383.63</ele><time>2025-05-25T12:17:22Z</time></trkpt>
<trkpt lat="49.853248" lon="5.698487"><ele>383.69</ele><time>2025-05-25T12:17:25Z</time></trkpt>
<trkpt lat="49.852723" lon="5.697627"><ele>380.13</ele><time>2025-05-25T12:17:28Z</time></trkpt>
<trkpt lat="49.852646" lon="5.697444"><ele>379.58</ele><time>2025-05-25T12:17:32Z</time></trkpt>
<trkpt lat="49.852537" lon="5.697131"><ele>377.71</ele><time>2025-05-25T12:17:35Z</time></trkpt>
<trkpt lat="49.852478" lon="5.696861"><ele>377.12</ele><time>2025-05-25T12:17:38Z</time></trkpt>
<trkpt lat="49.852361" lon="5.696091"><ele>377.61</ele><time>2025-05-25T12:17:42Z</time></trkpt>
<trkpt lat="49.852304" lon="5.695849"><ele>378.49</ele><time>2025-05-25T12:17:45Z</time></trkpt>
<trkpt lat="49.852314" lon="5.695568"><ele>380.89</ele><time>2025-05-25T12:17:48Z</time></trkpt>
<trkpt lat="49.852223" lon="5.693876"><ele>389.06</ele><time>2025-05-25T12:17:51Z</time></trkpt>
<trkpt lat="49.852161" lon="5.693364"><ele>388.97</ele><time>2025-05-25T12:17:55Z</time></trkpt>
<trkpt lat="49.852107" lon="5.693142"><ele>387.68</ele><time>2025-05-25T12:17:58Z</time></trkpt>
<trkpt lat="49.851981" lon="5.692737"><ele>384.98</ele><time>2025-05-25T12:18:01Z</time></trkpt>
<trkpt lat="49.851419" lon="5.691312"><ele>383.82</ele><time>2025-05-25T12:18:04Z</time></trkpt>
<trkpt lat="49.850814" lon="5.689367"><ele>386.61</ele><time>2025-05-25T12:18:07Z</time></trkpt>
<trkpt lat="49.850503" lon="5.688257"><ele>386.08</ele><time>2025-05-25T12:18:11Z</time></trkpt>
<trkpt lat="49.850418" lon="5.68786"><ele>386.16</ele><time>2025-05-25T12:18:14Z</time></trkpt>
<trkpt lat="49.850371" lon="5.687548"><ele>383.69</ele><time>2025-05-25T12:18:17Z</time></trkpt>
<trkpt lat="49.850284" lon="5.685934"><ele>385.27</ele><time>2025-05-25T12:18:20Z</time></trkpt>
<trkpt lat="49.85015" lon="5.684992"><ele>390.97</ele><time>2025-05-25T12:18:23Z</time></trkpt>
<trkpt lat="49.849759" lon="5.683507"><ele>395.53</ele><time>2025-05-25T12:18:26Z</time></trkpt>
<trkpt lat="49.849338" lon="5.682025"><ele>400.28</ele><time>2025-05-25T12:18:30Z</time></trkpt>
<trkpt lat="49.849292" lon="5.681757"><ele>400.49</ele><time>2025-05-25T12:18:33Z</time></trkpt>
<trkpt lat="49.849274" lon="5.681464"><ele>402.28</ele><time>2025-05-25T12:18:36Z</time></trkpt>
<trkpt lat="49.849298" lon="5.680972"><ele>405.1</ele><time>2025-05-25T12:18:39Z</time></trkpt>
<trkpt lat="49.849454" lon="5.680463"><ele>408.77</ele><time>2025-05-25T12:18:42Z</time></trkpt>
<trkpt lat="49.849981" lon="5.679619"><ele>410.63</ele><time>2025-05-25T12:18:46Z</time></trkpt>
<trkpt lat="49.85024" lon="5.679116"><ele>411.29</ele><time>2025-05-25T12:18:49Z</time></trkpt>
<trkpt lat="49.850494" lon="5.678446"><ele>414.65</ele><time>2025-05-25T12:18:52Z</time></trkpt>
<trkpt lat="49.850672" lon="5.67765"><ele>416.86</ele><time>2025-05-25T12:18:55Z</time></trkpt>
<trkpt lat="49.850733" lon="5.677133"><ele>420.37</ele><time>2025-05-25T12:18:58Z</time></trkpt>
<trkpt lat="49.850749" lon="5.676627"><ele>424.12</ele><time>2025-05-25T12:19:02Z</time></trkpt>
<trkpt lat="49.850766" lon="5.676361"><ele>425.99</ele><time>2025-05-25T12:19:05Z</time></trkpt>
<trkpt lat="49.850809" lon="5.676099"><ele>426.39</ele><time>2025-05-25T12:19:08Z</time></trkpt>
<trkpt lat="49.850914" lon="5.675768"><ele>429.77</ele><time>2025-05-25T12:19:11Z</time></trkpt>
<trkpt lat="49.85105" lon="5.675457"><ele>433.96</ele><time>2025-05-25T12:19:14Z</time></trkpt>
<trkpt lat="49.851183" lon="5.6751"><ele>435.66</ele><time>2025-05-25T12:19:18Z</time></trkpt>
<trkpt lat="49.851267" lon="5.674629"><ele>436.92</ele><time>2025-05-25T12:19:21Z</time></trkpt>
<trkpt lat="49.8514" lon="5.674082"><ele>437.86</ele><time>2025-05-25T12:19:24Z</time></trkpt>
<trkpt lat="49.851664" lon="5.673211"><ele>442.37</ele><time>2025-05-25T12:19:27Z</time></trkpt>
<trkpt lat="49.851855" lon="5.672502"><ele>443.09</ele><time>2025-05-25T12:19:30Z</time></trkpt>
<trkpt lat="49.85195" lon="5.672049"><ele>441.88</ele><time>2025-05-25T12:19:34Z</time></trkpt>
<trkpt lat="49.852173" lon="5.670422"><ele>448.59</ele><time>2025-05-25T12:19:37Z</time></trkpt>
<trkpt lat="49.852267" lon="5.670099"><ele>450.76</ele><time>2025-05-25T12:19:40Z</time></trkpt>
<trkpt lat="49.852349" lon="5.669935"><ele>452.29</ele><time>2025-05-25T12:19:43Z</time></trkpt>
<trkpt lat="49.852447" lon="5.669792"><ele>454.05</ele><time>2025-05-25T12:19:46Z</time></trkpt>
<trkpt lat="49.853356" lon="5.668808"><ele>460.02</ele><time>2025-05-25T12:19:50Z</time></trkpt>
<trkpt lat="49.853453" lon="5.668667"><ele>460.34</ele><time>2025-05-25T12:19:53Z</time></trkpt>
<trkpt lat="49.853546" lon="5.66843"><ele>460.92</ele><time>2025-05-25T12:19:56Z</time></trkpt>
<trkpt lat="49.853581" lon="5.668146"><ele>461.07</ele><time>2025-05-25T12:19:59Z</time></trkpt>
<trkpt lat="49.853567" lon="5.667774"><ele>462.16</ele><time>2025-05-25T12:20:02Z</time></trkpt>
<trkpt lat="49.85349" lon="5.667347"><ele>462.67</ele><time>2025-05-25T12:20:05Z</time></trkpt>
<trkpt lat="49.853226" lon="5.666417"><ele>463.45</ele><time>2025-05-25T12:20:09Z</time></trkpt>
<trkpt lat="49.85303" lon="5.665975"><ele>463.14</ele><time>2025-05-25T12:20:12Z</time></trkpt>
<trkpt lat="49.851848" lon="5.663625"><ele>467.0</ele><time>2025-05-25T12:20:15Z</time></trkpt>
<trkpt lat="49.851661" lon="5.663131"><ele>465.98</ele><time>2025-05-25T12:20:18Z</time></trkpt>
<trkpt lat="49.85158" lon="5.662786"><ele>465.69</ele><time>2025-05-25T12:20:21Z</time></trkpt>
<trkpt lat="49.851507" lon="5.662343"><ele>464.43</ele><time>2025-05-25T12:20:25Z</time></trkpt>
<trkpt lat="49.851501" lon="5.662175"><ele>463.93</ele><time>2025-05-25T12:20:28Z</time></trkpt>
<trkpt lat="49.851517" lon="5.661913"><ele>463.59</ele><time>2025-05-25T12:20:31Z</time></trkpt>
<trkpt lat="49.851569" lon="5.661625"><ele>463.9</ele><time>2025-05-25T12:20:34Z</time></trkpt>
<trkpt lat="49.851712" lon="5.66122"><ele>462.26</ele><time>2025-05-25T12:20:37Z</time></trkpt>
<trkpt lat="49.852025" lon="5.660756"><ele>461.7</ele><time>2025-05-25T12:20:41Z</time></trkpt>
<trkpt lat="49.852328" lon="5.660415"><ele>460.74</ele><time>2025-05-25T12:20:44Z</time></trkpt>
<trkpt lat="49.852649" lon="5.660046"><ele>459.37</ele><time>2025-05-25T12:20:47Z</time></trkpt>
<trkpt lat="49.853008" lon="5.659636"><ele>459.0</ele><time>2025-05-25T12:20:50Z</time></trkpt>
<trkpt lat="49.853408" lon="5.659103"><ele>460.5</ele><time>2025-05-25T12:20:53Z</time></trkpt>
<trkpt lat="49.8536" lon="5.658778"><ele>461.96</ele><time>2025-05-25T12:20:57Z</time></trkpt>
<trkpt lat="49.853848" lon="5.658276"><ele>461.0</ele><time>2025-05-25T12:21:00Z</time></trkpt>
<trkpt lat="49.854077" lon="5.657699"><ele>464.31</ele><time>2025-05-25T12:21:03Z</time></trkpt>
<trkpt lat="49.854274" lon="5.657143"><ele>465.6</ele><time>2025-05-25T12:21:06Z</time></trkpt>
<trkpt lat="49.854361" lon="5.656821"><ele>463.99</ele><time>2025-05-25T12:21:09Z</time></trkpt>
<trkpt lat="49.85444" lon="5.656413"><ele>462.13</ele><time>2025-05-25T12:21:13Z</time></trkpt>
<trkpt lat="49.854484" lon="5.655939"><ele>461.1</ele><time>2025-05-25T12:21:16Z</time></trkpt>
<trkpt lat="49.854496" lon="5.655645"><ele>462.06</ele><time>2025-05-25T12:21:19Z</time></trkpt>
<trkpt lat="49.854486" lon="5.655207"><ele>464.63</ele><time>2025-05-25T12:21:22Z</time></trkpt>
<trkpt lat="49.854453" lon="5.654824"><ele>465.23</ele><time>2025-05-25T12:21:25Z</time></trkpt>
<trkpt lat="49.854326" lon="5.654017"><ele>467.24</ele><time>2025-05-25T12:21:28Z</time></trkpt>
<trkpt lat="49.85431" lon="5.653842"><ele>468.1</ele><time>2025-05-25T12:21:32Z</time></trkpt>
<trkpt lat="49.854312" lon="5.653653"><ele>468.75</ele><time>2025-05-25T12:21:35Z</time></trkpt>
<trkpt lat="49.854339" lon="5.653376"><ele>469.04</ele><time>2025-05-25T12:21:38Z</time></trkpt>
<trkpt lat="49.854426" lon="5.652918"><ele>468.57</ele><time>2025-05-25T12:21:41Z</time></trkpt>
<trkpt lat="49.854559" lon="5.65257"><ele>469.05</ele><time>2025-05-25T12:21:44Z</time></trkpt>
<trkpt lat="49.85465" lon="5.652381"><ele>470.6</ele><time>2025-05-25T12:21:48Z</time></trkpt>
<trkpt lat="49.855134" lon="5.651712"><ele>474.2</ele><time>2025-05-25T12:21:51Z</time></trkpt>
<trkpt lat="49.855329" lon="5.651331"><ele>474.45</ele><time>2025-05-25T12:21:54Z</time></trkpt>
<trkpt lat="49.85549" lon="5.650736"><ele>472.05</ele><time>2025-05-25T12:21:57Z</time></trkpt>
<trkpt lat="49.857083" lon="5.643928"><ele>496.65</ele><time>2025-05-25T12:22:00Z</time></trkpt>
<trkpt lat="49.857186" lon="5.643594"><ele>499.57</ele><time>2025-05-25T12:22:04Z</time></trkpt>
<trkpt lat="49.857308" lon="5.643299"><ele>501.98</ele><time>2025-05-25T12:22:07Z</time></trkpt>
<trkpt lat="49.857442" lon="5.643024"><ele>502.76</ele><time>2025-05-25T12:22:10Z</time></trkpt>
<trkpt lat="49.857725" lon="5.642513"><ele>501.85</ele><time>2025-05-25T12:22:13Z</time></trkpt>
<trkpt lat="49.857854" lon="5.642312"><ele>500.58</ele><time>2025-05-25T12:22:16Z</time></trkpt>
<trkpt lat="49.857979" lon="5.64217"><ele>499.29</ele><time>2025-05-25T12:22:20Z</time></trkpt>
<trkpt lat="49.857967" lon="5.641989"><ele>500.11</ele><time>2025-05-25T12:22:23Z</time></trkpt>
<trkpt lat="49.858013" lon="5.641678"><ele>500.28</ele><time>2025-05-25T12:22:26Z</time></trkpt>
<trkpt lat="49.858527" lon="5.63903"><ele>493.87</ele><time>2025-05-25T12:22:29Z</time></trkpt>
<trkpt lat="49.858684" lon="5.638272"><ele>493.54</ele><time>2025-05-25T12:22:32Z</time></trkpt>
<trkpt lat="49.858886" lon="5.63746"><ele>490.78</ele><time>2025-05-25T12:22:35Z</time></trkpt>
<trkpt lat="49.858905" lon="5.63716"><ele>488.4</ele><time>2025-05-25T12:22:38Z</time></trkpt>
<trkpt lat="49.858895" lon="5.636877"><ele>486.5</ele><time>2025-05-25T12:22:41Z</time></trkpt>
<trkpt lat="49.858751" lon="5.635443"><ele>480.81</ele><time>2025-05-25T12:22:44Z</time></trkpt>
<trkpt lat="49.858637" lon="5.634638"><ele>478.65</ele><time>2025-05-25T12:22:47Z</time></trkpt>
<trkpt lat="49.858496" lon="5.634152"><ele>478.75</ele><time>2025-05-25T12:22:50Z</time></trkpt>
<trkpt lat="49.858289" lon="5.633612"><ele>477.0</ele><time>2025-05-25T12:22:54Z</time></trkpt>
<trkpt lat="49.858164" lon="5.633123"><ele>479.21</ele><time>2025-05-25T12:22:57Z</time></trkpt>
<trkpt lat="49.858166" lon="5.632686"><ele>481.02</ele><time>2025-05-25T12:23:00Z</time></trkpt>
<trkpt lat="49.858237" lon="5.6322"><ele>481.64</ele><time>2025-05-25T12:23:03Z</time></trkpt>
<trkpt lat="49.859193" lon="5.628105"><ele>486.92</ele><time>2025-05-25T12:23:06Z</time></trkpt>
<trkpt lat="49.859255" lon="5.627751"><ele>487.61</ele><time>2025-05-25T12:23:09Z</time></trkpt>
<trkpt lat="49.859262" lon="5.627471"><ele>488.99</ele><time>2025-05-25T12:23:12Z</time></trkpt>
<trkpt lat="49.858733" lon="5.625128"><ele>483.98</ele><time>2025-05-25T12:23:15Z</time></trkpt>
<trkpt lat="49.858593" lon="5.624581"><ele>481.62</ele><time>2025-05-25T12:23:18Z</time></trkpt>
<trkpt lat="49.858488" lon="5.624036"><ele>477.81</ele><time>2025-05-25T12:23:21Z</time></trkpt>
<trkpt lat="49.858488" lon="5.623567"><ele>475.98</ele><time>2025-05-25T12:23:24Z</time></trkpt>
<trkpt lat="49.858595" lon="5.62135"><ele>471.86</ele><time>2025-05-25T12:23:27Z</time></trkpt>
<trkpt lat="49.858662" lon="5.620738"><ele>467.97</ele><time>2025-05-25T12:23:30Z</time></trkpt>
<trkpt lat="49.858977" lon="5.618783"><ele>460.09</ele><time>2025-05-25T12:23:34Z</time></trkpt>
<trkpt lat="49.85927" lon="5.616524"><ele>451.95</ele><time>2025-05-25T12:23:37Z</time></trkpt>
<trkpt lat="49.859336" lon="5.616064"><ele>450.72</ele><time>2025-05-25T12:23:40Z</time></trkpt>
<trkpt lat="49.859306" lon="5.615864"><ele>450.55</ele><time>2025-05-25T12:23:43Z</time></trkpt>
<trkpt lat="49.859267" lon="5.615763"><ele>450.04</ele><time>2025-05-25T12:23:46Z</time></trkpt>
<trkpt lat="49.859153" lon="5.615644"><ele>449.65</ele><time>2025-05-25T12:23:49Z</time></trkpt>
<trkpt lat="49.859008" lon="5.615588"><ele>449.3</ele><time>2025-05-25T12:23:52Z</time></trkpt>
<trkpt lat="49.858773" lon="5.615558"><ele>448.61</ele><time>2025-05-25T12:23:55Z</time></trkpt>
<trkpt lat="49.858648" lon="5.615565"><ele>448.26</ele><time>2025-05-25T12:23:58Z</time></trkpt>
<trkpt lat="49.858517" lon="5.615595"><ele>448.17</ele><time>2025-05-25T12:24:01Z</time></trkpt>
<trkpt lat="49.858082" lon="5.615826"><ele>451.7</ele><time>2025-05-25T12:24:04Z</time></trkpt>
<trkpt lat="49.857978" lon="5.615817"><ele>452.07</ele><time>2025-05-25T12:24:07Z</time></trkpt>
<trkpt lat="49.857925" lon="5.61577"><ele>451.77</ele><time>2025-05-25T12:24:10Z</time></trkpt>
<trkpt lat="49.857867" lon="5.615596"><ele>450.42</ele><time>2025-05-25T12:24:14Z</time></trkpt>
<trkpt lat="49.857756" lon="5.614617"><ele>452.19</ele><time>2025-05-25T12:24:17Z</time></trkpt>
<trkpt lat="49.857783" lon="5.61438"><ele>452.42</ele><time>2025-05-25T12:24:20Z</time></trkpt>
<trkpt lat="49.857954" lon="5.61401"><ele>453.58</ele><time>2025-05-25T12:24:23Z</time></trkpt>
<trkpt lat="49.858138" lon="5.613815"><ele>454.66</ele><time>2025-05-25T12:24:26Z</time></trkpt>
<trkpt lat="49.858645" lon="5.613419"><ele>455.9</ele><time>2025-05-25T12:24:29Z</time></trkpt>
<trkpt lat="49.858945" lon="5.613233"><ele>456.2</ele><time>2025-05-25T12:24:32Z</time></trkpt>
<trkpt lat="49.859309" lon="5.613076"><ele>459.27</ele><time>2025-05-25T12:24:35Z</time></trkpt>
<trkpt lat="49.859396" lon="5.612821"><ele>460.17</ele><time>2025-05-25T12:24:38Z</time></trkpt>
<trkpt lat="49.85941" lon="5.612652"><ele>460.3</ele><time>2025-05-25T12:24:40Z</time></trkpt>
<trkpt lat="49.859404" lon="5.612425"><ele>459.93</ele><time>2025-05-25T12:24:43Z</time></trkpt>
<trkpt lat="49.85935" lon="5.611921"><ele>457.85</ele><time>2025-05-25T12:24:46Z</time></trkpt>
<trkpt lat="49.859118" lon="5.610716"><ele>462.65</ele><time>2025-05-25T12:24:48Z</time></trkpt>
<trkpt lat="49.859086" lon="5.609885"><ele>460.29</ele><time>2025-05-25T12:24:51Z</time></trkpt>
<trkpt lat="49.859016" lon="5.609036"><ele>457.14</ele><time>2025-05-25T12:24:54Z</time></trkpt>
<trkpt lat="49.858883" lon="5.607995"><ele>450.85</ele><time>2025-05-25T12:24:56Z</time></trkpt>
<trkpt lat="49.858819" lon="5.607705"><ele>450.43</ele><time>2025-05-25T12:24:59Z</time></trkpt>
<trkpt lat="49.858613" lon="5.606945"><ele>449.98</ele><time>2025-05-25T12:25:02Z</time></trkpt>
<trkpt lat="49.858233" lon="5.605803"><ele>441.14</ele><time>2025-05-25T12:25:05Z</time></trkpt>
<trkpt lat="49.857915" lon="5.604955"><ele>439.18</ele><time>2025-05-25T12:25:07Z</time></trkpt>
<trkpt lat="49.857645" lon="5.604554"><ele>436.13</ele><time>2025-05-25T12:25:10Z</time></trkpt>
<trkpt lat="49.857527" lon="5.60434"><ele>435.02</ele><time>2025-05-25T12:25:13Z</time></trkpt>
<trkpt lat="49.85706" lon="5.603329"><ele>431.16</ele><time>2025-05-25T12:25:15Z</time></trkpt>
<trkpt lat="49.856821" lon="5.602862"><ele>431.63</ele><time>2025-05-25T12:25:18Z</time></trkpt>
<trkpt lat="49.856531" lon="5.602392"><ele>429.49</ele><time>2025-05-25T12:25:21Z</time></trkpt>
<trkpt lat="49.856265" lon="5.601995"><ele>428.18</ele><time>2025-05-25T12:25:23Z</time></trkpt>
<trkpt lat="49.856142" lon="5.601785"><ele>428.51</ele><time>2025-05-25T12:25:26Z</time></trkpt>
<trkpt lat="49.855977" lon="5.601397"><ele>429.45</ele><time>2025-05-25T12:25:29Z</time></trkpt>
<trkpt lat="49.855665" lon="5.600282"><ele>432.98</ele><time>2025-05-25T12:25:31Z</time></trkpt>
<trkpt lat="49.855615" lon="5.599972"><ele>433.0</ele><time>2025-05-25T12:25:34Z</time></trkpt>
<trkpt lat="49.855602" lon="5.599042"><ele>431.24</ele><time>2025-05-25T12:25:37Z</time></trkpt>
<trkpt lat="49.855532" lon="5.597988"><ele>431.14</ele><time>2025-05-25T12:25:39Z</time></trkpt>
<trkpt lat="49.855527" lon="5.597618"><ele>432.37</ele><time>2025-05-25T12:25:42Z</time></trkpt>
<trkpt lat="49.855571" lon="5.597244"><ele>434.14</ele><time>2025-05-25T12:25:45Z</time></trkpt>
<trkpt lat="49.855637" lon="5.59685"><ele>436.41</ele><time>2025-05-25T12:25:47Z</time></trkpt>
<trkpt lat="49.855689" lon="5.596627"><ele>437.52</ele><time>2025-05-25T12:25:50Z</time></trkpt>
<trkpt lat="49.855718" lon="5.596382"><ele>438.19</ele><time>2025-05-25T12:25:53Z</time></trkpt>
<trkpt lat="49.855725" lon="5.595943"><ele>439.22</ele><time>2025-05-25T12:25:55Z</time></trkpt>
<trkpt lat="49.855618" lon="5.595334"><ele>440.25</ele><time>2025-05-25T12:25:58Z</time></trkpt>
<trkpt lat="49.855159" lon="5.593907"><ele>439.94</ele><time>2025-05-25T12:26:01Z</time></trkpt>
<trkpt lat="49.854969" lon="5.59341"><ele>442.72</ele><time>2025-05-25T12:26:03Z</time></trkpt>
<trkpt lat="49.854964" lon="5.592735"><ele>445.93</ele><time>2025-05-25T12:26:06Z</time></trkpt>
<trkpt lat="49.854971" lon="5.592444"><ele>447.99</ele><time>2025-05-25T12:26:09Z</time></trkpt>
<trkpt lat="49.854993" lon="5.5922"><ele>448.95</ele><time>2025-05-25T12:26:11Z</time></trkpt>
<trkpt lat="49.854987" lon="5.592065"><ele>448.93</ele><time>2025-05-25T12:26:14Z</time></trkpt>
<trkpt lat="49.854929" lon="5.591771"><ele>448.28</ele><time>2025-05-25T12:26:17Z</time></trkpt>
<trkpt lat="49.854811" lon="5.591406"><ele>447.06</ele><time>2025-05-25T12:26:19Z</time></trkpt>
<trkpt lat="49.854439" lon="5.590697"><ele>448.44</ele><time>2025-05-25T12:26:22Z</time></trkpt>
<trkpt lat="49.854335" lon="5.590338"><ele>447.82</ele><time>2025-05-25T12:26:25Z</time></trkpt>
<trkpt lat="49.854342" lon="5.590099"><ele>448.54</ele><time>2025-05-25T12:26:27Z</time></trkpt>
<trkpt lat="49.854381" lon="5.589945"><ele>449.71</ele><time>2025-05-25T12:26:30Z</time></trkpt>
<trkpt lat="49.854485" lon="5.589695"><ele>452.23</ele><time>2025-05-25T12:26:33Z</time></trkpt>
<trkpt lat="49.85553" lon="5.58767"><ele>458.85</ele><time>2025-05-25T12:26:35Z</time></trkpt>
<trkpt lat="49.855873" lon="5.587078"><ele>462.29</ele><time>2025-05-25T12:26:38Z</time></trkpt>
<trkpt lat="49.856078" lon="5.58664"><ele>463.99</ele><time>2025-05-25T12:26:41Z</time></trkpt>
<trkpt lat="49.856137" lon="5.586369"><ele>465.23</ele><time>2025-05-25T12:26:43Z</time></trkpt>
<trkpt lat="49.856135" lon="5.586104"><ele>467.05</ele><time>2025-05-25T12:26:46Z</time></trkpt>
<trkpt lat="49.856081" lon="5.585832"><ele>469.01</ele><time>2025-05-25T12:26:49Z</time></trkpt>
<trkpt lat="49.856115" lon="5.584292"><ele>474.09</ele><time>2025-05-25T12:26:52Z</time></trkpt>
<trkpt lat="49.856167" lon="5.583697"><ele>475.73</ele><time>2025-05-25T12:26:55Z</time></trkpt>
<trkpt lat="49.856386" lon="5.582692"><ele>478.32</ele><time>2025-05-25T12:26:58Z</time></trkpt>
<trkpt lat="49.85648" lon="5.582172"><ele>478.85</ele><time>2025-05-25T12:27:01Z</time></trkpt>
<trkpt lat="49.856694" lon="5.580611"><ele>486.82</ele><time>2025-05-25T12:27:04Z</time></trkpt>
<trkpt lat="49.857123" lon="5.578849"><ele>494.07</ele><time>2025-05-25T12:27:07Z</time></trkpt>
<trkpt lat="49.85727" lon="5.577967"><ele>498.9</ele><time>2025-05-25T12:27:10Z</time></trkpt>
<trkpt lat="49.857297" lon="5.577657"><ele>498.77</ele><time>2025-05-25T12:27:13Z</time></trkpt>
<trkpt lat="49.857294" lon="5.577477"><ele>498.84</ele><time>2025-05-25T12:27:16Z</time></trkpt>
<trkpt lat="49.85727" lon="5.577252"><ele>497.83</ele><time>2025-05-25T12:27:19Z</time></trkpt>
<trkpt lat="49.856847" lon="5.574995"><ele>481.61</ele><time>2025-05-25T12:27:22Z</time></trkpt>
<trkpt lat="49.856833" lon="5.574775"><ele>479.98</ele><time>2025-05-25T12:27:26Z</time></trkpt>
<trkpt lat="49.856858" lon="5.574551"><ele>478.46</ele><time>2025-05-25T12:27:29Z</time></trkpt>
<trkpt lat="49.856894" lon="5.5744"><ele>477.37</ele><time>2025-05-25T12:27:32Z</time></trkpt>
<trkpt lat="49.858045" lon="5.570946"><ele>457.46</ele><time>2025-05-25T12:27:35Z</time></trkpt>
<trkpt lat="49.858182" lon="5.570687"><ele>454.58</ele><time>2025-05-25T12:27:38Z</time></trkpt>
<trkpt lat="49.858357" lon="5.570495"><ele>451.81</ele><time>2025-05-25T12:27:41Z</time></trkpt>
<trkpt lat="49.85851" lon="5.570421"><ele>450.42</ele><time>2025-05-25T12:27:44Z</time></trkpt>
<trkpt lat="49.859228" lon="5.57025"><ele>447.1</ele><time>2025-05-25T12:27:47Z</time></trkpt>
<trkpt lat="49.860121" lon="5.570036"><ele>450.12</ele><time>2025-05-25T12:27:50Z</time></trkpt>
<trkpt lat="49.860287" lon="5.569946"><ele>451.36</ele><time>2025-05-25T12:27:53Z</time></trkpt>
<trkpt lat="49.860582" lon="5.569507"><ele>453.66</ele><time>2025-05-25T12:27:56Z</time></trkpt>
<trkpt lat="49.860776" lon="5.569092"><ele>454.21</ele><time>2025-05-25T12:27:59Z</time></trkpt>
<trkpt lat="49.860834" lon="5.568888"><ele>454.0</ele><time>2025-05-25T12:28:02Z</time></trkpt>
<trkpt lat="49.86115" lon="5.566679"><ele>452.76</ele><time>2025-05-25T12:28:05Z</time></trkpt>
<trkpt lat="49.861181" lon="5.566185"><ele>449.2</ele><time>2025-05-25T12:28:08Z</time></trkpt>
<trkpt lat="49.86111" lon="5.565223"><ele>444.8</ele><time>2025-05-25T12:28:11Z</time></trkpt>
<trkpt lat="49.860863" lon="5.563087"><ele>435.44</ele><time>2025-05-25T12:28:14Z</time></trkpt>
<trkpt lat="49.860891" lon="5.562792"><ele>433.51</ele><time>2025-05-25T12:28:17Z</time></trkpt>
<trkpt lat="49.861176" lon="5.561751"><ele>430.47</ele><time>2025-05-25T12:28:21Z</time></trkpt>
<trkpt lat="49.861663" lon="5.561174"><ele>430.68</ele><time>2025-05-25T12:28:24Z</time></trkpt>
<trkpt lat="49.861933" lon="5.560917"><ele>429.59</ele><time>2025-05-25T12:28:27Z</time></trkpt>
<trkpt lat="49.862072" lon="5.560818"><ele>428.45</ele><time>2025-05-25T12:28:30Z</time></trkpt>
<trkpt lat="49.862211" lon="5.560733"><ele>427.67</ele><time>2025-05-25T12:28:33Z</time></trkpt>
<trkpt lat="49.862327" lon="5.560692"><ele>427.68</ele><time>2025-05-25T12:28:36Z</time></trkpt>
<trkpt lat="49.862621" lon="5.560674"><ele>427.92</ele><time>2025-05-25T12:28:39Z</time></trkpt>
<trkpt lat="49.862761" lon="5.56064"><ele>427.98</ele><time>2025-05-25T12:28:42Z</time></trkpt>
<trkpt lat="49.862978" lon="5.560527"><ele>426.45</ele><time>2025-05-25T12:28:45Z</time></trkpt>
<trkpt lat="49.862782" lon="5.559715"><ele>425.98</ele><time>2025-05-25T12:28:48Z</time></trkpt>
<trkpt lat="49.862978" lon="5.559639"><ele>425.06</ele><time>2025-05-25T12:28:49Z</time></trkpt>
<trkpt lat="49.863048" lon="5.559588"><ele>424.56</ele><time>2025-05-25T12:28:50Z</time></trkpt>
<trkpt lat="49.863104" lon="5.559968"><ele>425.17</ele><time>2025-05-25T12:28:52Z</time></trkpt>
<trkpt lat="49.863173" lon="5.560307"><ele>425.44</ele><time>2025-05-25T12:28:55Z</time></trkpt>
<trkpt lat="49.863237" lon="5.56048"><ele>425.43</ele><time>2025-05-25T12:28:57Z</time></trkpt>
<trkpt lat="49.863297" lon="5.560611"><ele>425.15</ele><time>2025-05-25T12:29:00Z</time></trkpt>
<trkpt lat="49.863425" lon="5.56081"><ele>425.36</ele><time>2025-05-25T12:29:02Z</time></trkpt>
<trkpt lat="49.863717" lon="5.561215"><ele>427.38</ele><time>2025-05-25T12:29:05Z</time></trkpt>
<trkpt lat="49.864228" lon="5.561721"><ele>428.87</ele><time>2025-05-25T12:29:07Z</time></trkpt>
<trkpt lat="49.864673" lon="5.562091"><ele>430.65</ele><time>2025-05-25T12:29:10Z</time></trkpt>
<trkpt lat="49.865069" lon="5.562384"><ele>432.25</ele><time>2025-05-25T12:29:13Z</time></trkpt>
<trkpt lat="49.865563" lon="5.562748"><ele>435.05</ele><time>2025-05-25T12:29:15Z</time></trkpt>
<trkpt lat="49.865999" lon="5.562968"><ele>437.38</ele><time>2025-05-25T12:29:18Z</time></trkpt>
<trkpt lat="49.866393" lon="5.563124"><ele>437.52</ele><time>2025-05-25T12:29:20Z</time></trkpt>
<trkpt lat="49.866683" lon="5.563199"><ele>438.57</ele><time>2025-05-25T12:29:23Z</time></trkpt>
<trkpt lat="49.866862" lon="5.563213"><ele>439.44</ele><time>2025-05-25T12:29:25Z</time></trkpt>
<trkpt lat="49.867595" lon="5.563161"><ele>442.49</ele><time>2025-05-25T12:29:28Z</time></trkpt>
<trkpt lat="49.868162" lon="5.562907"><ele>443.53</ele><time>2025-05-25T12:29:30Z</time></trkpt>
<trkpt lat="49.868397" lon="5.562867"><ele>443.75</ele><time>2025-05-25T12:29:33Z</time></trkpt>
<trkpt lat="49.868554" lon="5.562868"><ele>443.93</ele><time>2025-05-25T12:29:35Z</time></trkpt>
<trkpt lat="49.868711" lon="5.56291"><ele>443.83</ele><time>2025-05-25T12:29:38Z</time></trkpt>
<trkpt lat="49.869177" lon="5.563114"><ele>444.86</ele><time>2025-05-25T12:29:40Z</time></trkpt>
<trkpt lat="49.869377" lon="5.563165"><ele>446.12</ele><time>2025-05-25T12:29:43Z</time></trkpt>
<trkpt lat="49.870286" lon="5.563034"><ele>449.08</ele><time>2025-05-25T12:29:45Z</time></trkpt>
<trkpt lat="49.871871" lon="5.562958"><ele>452.83</ele><time>2025-05-25T12:29:48Z</time></trkpt>
<trkpt lat="49.872254" lon="5.562964"><ele>451.69</ele><time>2025-05-25T12:29:50Z</time></trkpt>
<trkpt lat="49.872431" lon="5.563003"><ele>449.88</ele><time>2025-05-25T12:29:53Z</time></trkpt>
<trkpt lat="49.872653" lon="5.56312"><ele>449.42</ele><time>2025-05-25T12:29:55Z</time></trkpt>
<trkpt lat="49.873038" lon="5.563391"><ele>449.74</ele><time>2025-05-25T12:29:58Z</time></trkpt>
<trkpt lat="49.87392" lon="5.564082"><ele>446.19</ele><time>2025-05-25T12:30:00Z</time></trkpt>
<trkpt lat="49.874092" lon="5.564263"><ele>444.74</ele><time>2025-05-25T12:30:03Z</time></trkpt>
<trkpt lat="49.874191" lon="5.564435"><ele>444.21</ele><time>2025-05-25T12:30:05Z</time></trkpt>
<trkpt lat="49.874333" lon="5.564878"><ele>441.81</ele><time>2025-05-25T12:30:08Z</time></trkpt>
<trkpt lat="49.874534" lon="5.565803"><ele>441.68</ele><time>2025-05-25T12:30:10Z</time></trkpt>
<trkpt lat="49.874613" lon="5.565933"><ele>441.64</ele><time>2025-05-25T12:30:13Z</time></trkpt>
<trkpt lat="49.874724" lon="5.566068"><ele>441.31</ele><time>2025-05-25T12:30:16Z</time></trkpt>
<trkpt lat="49.875181" lon="5.566437"><ele>441.42</ele><time>2025-05-25T12:30:18Z</time></trkpt>
<trkpt lat="49.8753" lon="5.566555"><ele>441.45</ele><time>2025-05-25T12:30:21Z</time></trkpt>
<trkpt lat="49.875536" lon="5.566144"><ele>443.64</ele><time>2025-05-25T12:30:23Z</time></trkpt>
<trkpt lat="49.875672" lon="5.565965"><ele>444.94</ele><time>2025-05-25T12:30:26Z</time></trkpt>
<trkpt lat="49.875844" lon="5.566301"><ele>445.09</ele><time>2025-05-25T12:30:31Z</time></trkpt>
<trkpt lat="49.875892" lon="5.566562"><ele>444.93</ele><time>2025-05-25T12:30:36Z</time></trkpt>
<trkpt lat="49.875927" lon="5.566671"><ele>445.01</ele><time>2025-05-25T12:30:41Z</time></trkpt>
<trkpt lat="49.87602" lon="5.566803"><ele>446.35</ele><time>2025-05-25T12:30:46Z</time></trkpt>
<trkpt lat="49.876163" lon="5.566809"><ele>448.45</ele><time>2025-05-25T12:30:51Z</time></trkpt>
<trkpt lat="49.876403" lon="5.56729"><ele>451.0</ele><time>2025-05-25T12:30:56Z</time></trkpt>
<trkpt lat="49.876467" lon="5.567364"><ele>451.74</ele><time>2025-05-25T12:31:01Z</time></trkpt>
<trkpt lat="49.876482" lon="5.567237"><ele>452.23</ele><time>2025-05-25T12:31:02Z</time></trkpt>
<trkpt lat="49.876482" lon="5.567237"><ele>452.23</ele><time>2025-05-25T12:31:02Z</time></trkpt>
<trkpt lat="49.876566" lon="5.567025"><ele>455.35</ele><time>2025-05-25T12:31:06Z</time></trkpt>
<trkpt lat="49.876717" lon="5.56677"><ele>458.09</ele><time>2025-05-25T12:31:11Z</time></trkpt>
<trkpt lat="49.876766" lon="5.566644"><ele>458.43</ele><time>2025-05-25T12:31:16Z</time></trkpt>
<trkpt lat="49.876893" lon="5.566113"><ele>460.07</ele><time>2025-05-25T12:31:20Z</time></trkpt>
<trkpt lat="49.877001" lon="5.565873"><ele>463.15</ele><time>2025-05-25T12:31:25Z</time></trkpt>
<trkpt lat="49.877948" lon="5.564121"><ele>471.16</ele><time>2025-05-25T12:31:29Z</time></trkpt>
<trkpt lat="49.87814" lon="5.563906"><ele>471.71</ele><time>2025-05-25T12:31:34Z</time></trkpt>
<trkpt lat="49.878319" lon="5.563754"><ele>471.03</ele><time>2025-05-25T12:31:38Z</time></trkpt>
<trkpt lat="49.879494" lon="5.563106"><ele>468.19</ele><time>2025-05-25T12:31:43Z</time></trkpt>
<trkpt lat="49.879721" lon="5.562935"><ele>466.13</ele><time>2025-05-25T12:31:47Z</time></trkpt>
<trkpt lat="49.879821" lon="5.5628"><ele>465.49</ele><time>2025-05-25T12:31:52Z</time></trkpt>
<trkpt lat="49.879896" lon="5.562649"><ele>465.16</ele><time>2025-05-25T12:31:57Z</time></trkpt>
<trkpt lat="49.879981" lon="5.562249"><ele>464.09</ele><time>2025-05-25T12:32:01Z</time></trkpt>
<trkpt lat="49.880056" lon="5.561957"><ele>464.96</ele><time>2025-05-25T12:32:04Z</time></trkpt>
<trkpt lat="49.880317" lon="5.560318"><ele>469.99</ele><time>2025-05-25T12:32:07Z</time></trkpt>
<trkpt lat="49.88037" lon="5.559906"><ele>473.01</ele><time>2025-05-25T12:32:10Z</time></trkpt>
<trkpt lat="49.880437" lon="5.559562"><ele>475.39</ele><time>2025-05-25T12:32:13Z</time></trkpt>
<trkpt lat="49.880561" lon="5.559201"><ele>477.76</ele><time>2025-05-25T12:32:16Z</time></trkpt>
<trkpt lat="49.880774" lon="5.558864"><ele>478.79</ele><time>2025-05-25T12:32:19Z</time></trkpt>
<trkpt lat="49.882064" lon="5.557502"><ele>482.0</ele><time>2025-05-25T12:32:22Z</time></trkpt>
<trkpt lat="49.882216" lon="5.557275"><ele>481.19</ele><time>2025-05-25T12:32:25Z</time></trkpt>
<trkpt lat="49.882436" lon="5.557184"><ele>481.42</ele><time>2025-05-25T12:32:26Z</time></trkpt>
<trkpt lat="49.88263" lon="5.557227"><ele>482.51</ele><time>2025-05-25T12:32:27Z</time></trkpt>
<trkpt lat="49.882765" lon="5.557431"><ele>484.49</ele><time>2025-05-25T12:32:31Z</time></trkpt>
<trkpt lat="49.883071" lon="5.55769"><ele>486.04</ele><time>2025-05-25T12:32:34Z</time></trkpt>
<trkpt lat="49.884553" lon="5.558448"><ele>492.0</ele><time>2025-05-25T12:32:38Z</time></trkpt>
<trkpt lat="49.884731" lon="5.558555"><ele>491.99</ele><time>2025-05-25T12:32:41Z</time></trkpt>
<trkpt lat="49.884851" lon="5.558665"><ele>492.0</ele><time>2025-05-25T12:32:44Z</time></trkpt>
<trkpt lat="49.884981" lon="5.558854"><ele>492.0</ele><time>2025-05-25T12:32:48Z</time></trkpt>
<trkpt lat="49.885727" lon="5.560149"><ele>485.67</ele><time>2025-05-25T12:32:51Z</time></trkpt>
<trkpt lat="49.885871" lon="5.560371"><ele>484.62</ele><time>2025-05-25T12:32:54Z</time></trkpt>
<trkpt lat="49.885957" lon="5.56046"><ele>484.05</ele><time>2025-05-25T12:32:58Z</time></trkpt>
<trkpt lat="49.886079" lon="5.560524"><ele>483.33</ele><time>2025-05-25T12:33:01Z</time></trkpt>
<trkpt lat="49.886224" lon="5.560515"><ele>482.89</ele><time>2025-05-25T12:33:05Z</time></trkpt>
<trkpt lat="49.887685" lon="5.56016"><ele>484.18</ele><time>2025-05-25T12:33:08Z</time></trkpt>
<trkpt lat="49.888617" lon="5.560051"><ele>483.79</ele><time>2025-05-25T12:33:11Z</time></trkpt>
<trkpt lat="49.889477" lon="5.559892"><ele>483.17</ele><time>2025-05-25T12:33:15Z</time></trkpt>
<trkpt lat="49.891053" lon="5.559478"><ele>476.14</ele><time>2025-05-25T12:33:18Z</time></trkpt>
<trkpt lat="49.891277" lon="5.559391"><ele>475.92</ele><time>2025-05-25T12:33:22Z</time></trkpt>
<trkpt lat="49.891544" lon="5.559203"><ele>476.56</ele><time>2025-05-25T12:33:25Z</time></trkpt>
<trkpt lat="49.892345" lon="5.558529"><ele>477.56</ele><time>2025-05-25T12:33:28Z</time></trkpt>
<trkpt lat="49.892597" lon="5.558995"><ele>476.75</ele><time>2025-05-25T12:33:32Z</time></trkpt>
<trkpt lat="49.892702" lon="5.559147"><ele>476.75</ele><time>2025-05-25T12:33:35Z</time></trkpt>
<trkpt lat="49.892863" lon="5.559295"><ele>476.38</ele><time>2025-05-25T12:33:38Z</time></trkpt>
<trkpt lat="49.893535" lon="5.559636"><ele>475.81</ele><time>2025-05-25T12:33:41Z</time></trkpt>
<trkpt lat="49.894283" lon="5.560136"><ele>481.49</ele><time>2025-05-25T12:33:44Z</time></trkpt>
<trkpt lat="49.894486" lon="5.560241"><ele>481.74</ele><time>2025-05-25T12:33:47Z</time></trkpt>
<trkpt lat="49.894801" lon="5.560335"><ele>481.43</ele><time>2025-05-25T12:33:50Z</time></trkpt>
<trkpt lat="49.89576" lon="5.560559"><ele>486.77</ele><time>2025-05-25T12:33:53Z</time></trkpt>
<trkpt lat="49.896119" lon="5.560725"><ele>488.8</ele><time>2025-05-25T12:33:56Z</time></trkpt>
<trkpt lat="49.896399" lon="5.560913"><ele>488.81</ele><time>2025-05-25T12:33:59Z</time></trkpt>
<trkpt lat="49.896617" lon="5.561102"><ele>489.29</ele><time>2025-05-25T12:34:02Z</time></trkpt>
<trkpt lat="49.896882" lon="5.561385"><ele>487.1</ele><time>2025-05-25T12:34:05Z</time></trkpt>
<trkpt lat="49.897351" lon="5.561967"><ele>481.22</ele><time>2025-05-25T12:34:08Z</time></trkpt>
<trkpt lat="49.897835" lon="5.562749"><ele>477.7</ele><time>2025-05-25T12:34:11Z</time></trkpt>
<trkpt lat="49.89825" lon="5.563282"><ele>472.43</ele><time>2025-05-25T12:34:15Z</time></trkpt>
<trkpt lat="49.899325" lon="5.564583"><ele>461.16</ele><time>2025-05-25T12:34:18Z</time></trkpt>
<trkpt lat="49.900234" lon="5.565634"><ele>456.89</ele><time>2025-05-25T12:34:21Z</time></trkpt>
<trkpt lat="49.900435" lon="5.565842"><ele>456.98</ele><time>2025-05-25T12:34:24Z</time></trkpt>
<trkpt lat="49.90054" lon="5.565918"><ele>456.71</ele><time>2025-05-25T12:34:27Z</time></trkpt>
<trkpt lat="49.900686" lon="5.565982"><ele>455.99</ele><time>2025-05-25T12:34:30Z</time></trkpt>
<trkpt lat="49.900855" lon="5.566003"><ele>455.36</ele><time>2025-05-25T12:34:33Z</time></trkpt>
<trkpt lat="49.90105" lon="5.56596"><ele>455.12</ele><time>2025-05-25T12:34:36Z</time></trkpt>
<trkpt lat="49.902234" lon="5.565328"><ele>455.03</ele><time>2025-05-25T12:34:39Z</time></trkpt>
<trkpt lat="49.902518" lon="5.565187"><ele>455.96</ele><time>2025-05-25T12:34:42Z</time></trkpt>
<trkpt lat="49.902978" lon="5.565122"><ele>453.72</ele><time>2025-05-25T12:34:45Z</time></trkpt>
<trkpt lat="49.903759" lon="5.565315"><ele>447.93</ele><time>2025-05-25T12:34:48Z</time></trkpt>
<trkpt lat="49.904311" lon="5.565387"><ele>448.92</ele><time>2025-05-25T12:34:51Z</time></trkpt>
<trkpt lat="49.904863" lon="5.565459"><ele>448.52</ele><time>2025-05-25T12:34:55Z</time></trkpt>
<trkpt lat="49.905225" lon="5.565454"><ele>447.55</ele><time>2025-05-25T12:34:58Z</time></trkpt>
<trkpt lat="49.905488" lon="5.565391"><ele>447.14</ele><time>2025-05-25T12:35:01Z</time></trkpt>
<trkpt lat="49.905646" lon="5.565328"><ele>446.67</ele><time>2025-05-25T12:35:04Z</time></trkpt>
<trkpt lat="49.905839" lon="5.565142"><ele>446.45</ele><time>2025-05-25T12:35:07Z</time></trkpt>
<trkpt lat="49.906213" lon="5.564649"><ele>445.63</ele><time>2025-05-25T12:35:10Z</time></trkpt>
<trkpt lat="49.906291" lon="5.56457"><ele>445.35</ele><time>2025-05-25T12:35:13Z</time></trkpt>
<trkpt lat="49.906493" lon="5.564453"><ele>444.64</ele><time>2025-05-25T12:35:16Z</time></trkpt>
<trkpt lat="49.906566" lon="5.564444"><ele>444.36</ele><time>2025-05-25T12:35:19Z</time></trkpt>
<trkpt lat="49.906742" lon="5.564474"><ele>444.62</ele><time>2025-05-25T12:35:22Z</time></trkpt>
<trkpt lat="49.907154" lon="5.564744"><ele>448.28</ele><time>2025-05-25T12:35:25Z</time></trkpt>
<trkpt lat="49.907329" lon="5.56482"><ele>449.77</ele><time>2025-05-25T12:35:28Z</time></trkpt>
<trkpt lat="49.907504" lon="5.564856"><ele>451.02</ele><time>2025-05-25T12:35:31Z</time></trkpt>
<trkpt lat="49.907744" lon="5.564837"><ele>452.39</ele><time>2025-05-25T12:35:35Z</time></trkpt>
<trkpt lat="49.908233" lon="5.564851"><ele>452.64</ele><time>2025-05-25T12:35:38Z</time></trkpt>
<trkpt lat="49.908988" lon="5.565006"><ele>452.91</ele><time>2025-05-25T12:35:41Z</time></trkpt>
<trkpt lat="49.909352" lon="5.56495"><ele>450.45</ele><time>2025-05-25T12:35:44Z</time></trkpt>
<trkpt lat="49.909902" lon="5.564568"><ele>450.91</ele><time>2025-05-25T12:35:47Z</time></trkpt>
<trkpt lat="49.910081" lon="5.565326"><ele>446.06</ele><time>2025-05-25T12:35:57Z</time></trkpt>
<trkpt lat="49.910533" lon="5.56718"><ele>443.15</ele><time>2025-05-25T12:36:08Z</time></trkpt>
<trkpt lat="49.911088" lon="5.569466"><ele>437.15</ele><time>2025-05-25T12:36:19Z</time></trkpt>
<trkpt lat="49.91106" lon="5.569515"><ele>437.47</ele><time>2025-05-25T12:36:34Z</time></trkpt>
<trkpt lat="49.91106" lon="5.569515"><ele>437.47</ele><time>2025-05-25T12:36:34Z</time></trkpt>
<trkpt lat="49.911088" lon="5.569466"><ele>437.15</ele><time>2025-05-25T12:36:34Z</time></trkpt>
<trkpt lat="49.910533" lon="5.56718"><ele>443.15</ele><time>2025-05-25T12:36:50Z</time></trkpt>
<trkpt lat="49.910741" lon="5.567066"><ele>443.19</ele><time>2025-05-25T12:36:52Z</time></trkpt>
<trkpt lat="49.910828" lon="5.567053"><ele>443.01</ele><time>2025-05-25T12:36:53Z</time></trkpt>
<trkpt lat="49.910838" lon="5.566872"><ele>443.24</ele><time>2025-05-25T12:36:57Z</time></trkpt>
<trkpt lat="49.910801" lon="5.565908"><ele>444.91</ele><time>2025-05-25T12:37:00Z</time></trkpt>
<trkpt lat="49.910725" lon="5.565567"><ele>445.98</ele><time>2025-05-25T12:37:04Z</time></trkpt>
<trkpt lat="49.910775" lon="5.565361"><ele>447.26</ele><time>2025-05-25T12:37:07Z</time></trkpt>
<trkpt lat="49.910788" lon="5.565174"><ele>448.58</ele><time>2025-05-25T12:37:11Z</time></trkpt>
<trkpt lat="49.910897" lon="5.564354"><ele>447.99</ele><time>2025-05-25T12:37:14Z</time></trkpt>
<trkpt lat="49.911096" lon="5.563388"><ele>447.11</ele><time>2025-05-25T12:37:17Z</time></trkpt>
<trkpt lat="49.911226" lon="5.563031"><ele>445.58</ele><time>2025-05-25T12:37:21Z</time></trkpt>
<trkpt lat="49.911286" lon="5.562916"><ele>445.37</ele><time>2025-05-25T12:37:24Z</time></trkpt>
<trkpt lat="49.911386" lon="5.562761"><ele>445.01</ele><time>2025-05-25T12:37:28Z</time></trkpt>
<trkpt lat="49.911664" lon="5.562454"><ele>442.02</ele><time>2025-05-25T12:37:31Z</time></trkpt>
<trkpt lat="49.911732" lon="5.562377"><ele>441.9</ele><time>2025-05-25T12:37:34Z</time></trkpt>
<trkpt lat="49.911917" lon="5.562166"><ele>441.08</ele><time>2025-05-25T12:37:38Z</time></trkpt>
<trkpt lat="49.912348" lon="5.561543"><ele>441.25</ele><time>2025-05-25T12:37:41Z</time></trkpt>
<trkpt lat="49.912903" lon="5.560494"><ele>442.57</ele><time>2025-05-25T12:37:45Z</time></trkpt>
<trkpt lat="49.913017" lon="5.560169"><ele>443.0</ele><time>2025-05-25T12:37:48Z</time></trkpt>
<trkpt lat="49.913085" lon="5.559628"><ele>442.1</ele><time>2025-05-25T12:37:52Z</time></trkpt>
<trkpt lat="49.913118" lon="5.559034"><ele>444.95</ele><time>2025-05-25T12:37:55Z</time></trkpt>
<trkpt lat="49.913216" lon="5.558574"><ele>447.5</ele><time>2025-05-25T12:37:58Z</time></trkpt>
<trkpt lat="49.913617" lon="5.557871"><ele>451.33</ele><time>2025-05-25T12:38:02Z</time></trkpt>
<trkpt lat="49.913589" lon="5.557622"><ele>453.55</ele><time>2025-05-25T12:38:07Z</time></trkpt>
<trkpt lat="49.913479" lon="5.557238"><ele>454.99</ele><time>2025-05-25T12:38:12Z</time></trkpt>
<trkpt lat="49.913433" lon="5.556914"><ele>454.64</ele><time>2025-05-25T12:38:17Z</time></trkpt>
<trkpt lat="49.913411" lon="5.556547"><ele>453.72</ele><time>2025-05-25T12:38:22Z</time></trkpt>
<trkpt lat="49.913421" lon="5.556226"><ele>454.22</ele><time>2025-05-25T12:38:28Z</time></trkpt>
<trkpt lat="49.913503" lon="5.555644"><ele>458.51</ele><time>2025-05-25T12:38:33Z</time></trkpt>
<trkpt lat="49.913593" lon="5.555152"><ele>460.83</ele><time>2025-05-25T12:38:38Z</time></trkpt>
<trkpt lat="49.913643" lon="5.554731"><ele>462.94</ele><time>2025-05-25T12:38:43Z</time></trkpt>
<trkpt lat="49.913678" lon="5.553738"><ele>464.78</ele><time>2025-05-25T12:38:48Z</time></trkpt>
<trkpt lat="49.913694" lon="5.553544"><ele>465.54</ele><time>2025-05-25T12:38:53Z</time></trkpt>
<trkpt lat="49.913736" lon="5.553331"><ele>466.46</ele><time>2025-05-25T12:38:59Z</time></trkpt>
<trkpt lat="49.914327" lon="5.551417"><ele>470.94</ele><time>2025-05-25T12:39:04Z</time></trkpt>
<trkpt lat="49.914461" lon="5.551043"><ele>471.14</ele><time>2025-05-25T12:39:09Z</time></trkpt>
<trkpt lat="49.914943" lon="5.549863"><ele>474.09</ele><time>2025-05-25T12:39:14Z</time></trkpt>
<trkpt lat="49.915261" lon="5.548831"><ele>479.21</ele><time>2025-05-25T12:39:19Z</time></trkpt>
<trkpt lat="49.915499" lon="5.547571"><ele>481.95</ele><time>2025-05-25T12:39:24Z</time></trkpt>
<trkpt lat="49.915704" lon="5.54557"><ele>484.05</ele><time>2025-05-25T12:39:29Z</time></trkpt>
<trkpt lat="49.915664" lon="5.543528"><ele>487.23</ele><time>2025-05-25T12:39:35Z</time></trkpt>
<trkpt lat="49.916314" lon="5.539754"><ele>485.68</ele><time>2025-05-25T12:39:40Z</time></trkpt>
<trkpt lat="49.916474" lon="5.538684"><ele>488.74</ele><time>2025-05-25T12:39:45Z</time></trkpt>
<trkpt lat="49.916574" lon="5.537371"><ele>491.54</ele><time>2025-05-25T12:39:50Z</time></trkpt>
<trkpt lat="49.916586" lon="5.536246"><ele>491.18</ele><time>2025-05-25T12:39:55Z</time></trkpt>
<trkpt lat="49.916521" lon="5.531627"><ele>494.55</ele><time>2025-05-25T12:40:00Z</time></trkpt>
<trkpt lat="49.916449" lon="5.527222"><ele>516.44</ele><time>2025-05-25T12:40:05Z</time></trkpt>
<trkpt lat="49.916418" lon="5.526338"><ele>525.38</ele><time>2025-05-25T12:40:11Z</time></trkpt>
<trkpt lat="49.916375" lon="5.525899"><ele>527.79</ele><time>2025-05-25T12:40:16Z</time></trkpt>
<trkpt lat="49.9163" lon="5.525434"><ele>528.64</ele><time>2025-05-25T12:40:21Z</time></trkpt>
<trkpt lat="49.916186" lon="5.52491"><ele>528.67</ele><time>2025-05-25T12:40:26Z</time></trkpt>
<trkpt lat="49.915531" lon="5.522692"><ele>536.5</ele><time>2025-05-25T12:40:31Z</time></trkpt>
<trkpt lat="49.91535" lon="5.521988"><ele>535.16</ele><time>2025-05-25T12:40:36Z</time></trkpt>
<trkpt lat="49.9152" lon="5.521236"><ele>534.99</ele><time>2025-05-25T12:40:42Z</time></trkpt>
<trkpt lat="49.915167" lon="5.520913"><ele>535.39</ele><time>2025-05-25T12:40:47Z</time></trkpt>
<trkpt lat="49.915176" lon="5.51772"><ele>522.27</ele><time>2025-05-25T12:40:52Z</time></trkpt>
<trkpt lat="49.915222" lon="5.512375"><ele>529.94</ele><time>2025-05-25T12:40:57Z</time></trkpt>
<trkpt lat="49.915287" lon="5.510588"><ele>532.07</ele><time>2025-05-25T12:41:02Z</time></trkpt>
<trkpt lat="49.915357" lon="5.509724"><ele>531.28</ele><time>2025-05-25T12:41:07Z</time></trkpt>
<trkpt lat="49.915581" lon="5.507815"><ele>536.94</ele><time>2025-05-25T12:41:12Z</time></trkpt>
<trkpt lat="49.915635" lon="5.507527"><ele>538.35</ele><time>2025-05-25T12:41:18Z</time></trkpt>
<trkpt lat="49.91599" lon="5.507322"><ele>534.51</ele><time>2025-05-25T12:41:23Z</time></trkpt>
<trkpt lat="49.916275" lon="5.507219"><ele>533.41</ele><time>2025-05-25T12:41:28Z</time></trkpt>
<trkpt lat="49.91792" lon="5.506643"><ele>530.45</ele><time>2025-05-25T12:41:34Z</time></trkpt>
<trkpt lat="49.918135" lon="5.506512"><ele>529.55</ele><time>2025-05-25T12:41:39Z</time></trkpt>
<trkpt lat="49.918633" lon="5.506097"><ele>528.03</ele><time>2025-05-25T12:41:45Z</time></trkpt>
<trkpt lat="49.918861" lon="5.505795"><ele>527.62</ele><time>2025-05-25T12:41:50Z</time></trkpt>
<trkpt lat="49.91914" lon="5.505265"><ele>523.91</ele><time>2025-05-25T12:41:56Z</time></trkpt>
<trkpt lat="49.919232" lon="5.505141"><ele>523.13</ele><time>2025-05-25T12:42:01Z</time></trkpt>
<trkpt lat="49.919473" lon="5.504927"><ele>522.63</ele><time>2025-05-25T12:42:06Z</time></trkpt>
<trkpt lat="49.922238" lon="5.502778"><ele>511.06</ele><time>2025-05-25T12:42:12Z</time></trkpt>
<trkpt lat="49.922839" lon="5.502283"><ele>510.0</ele><time>2025-05-25T12:42:17Z</time></trkpt>
<trkpt lat="49.923037" lon="5.502085"><ele>511.39</ele><time>2025-05-25T12:42:23Z</time></trkpt>
<trkpt lat="49.923218" lon="5.50185"><ele>514.34</ele><time>2025-05-25T12:42:28Z</time></trkpt>
<trkpt lat="49.924452" lon="5.499984"><ele>522.05</ele><time>2025-05-25T12:42:33Z</time></trkpt>
<trkpt lat="49.924932" lon="5.498068"><ele>514.53</ele><time>2025-05-25T12:42:39Z</time></trkpt>
<trkpt lat="49.924998" lon="5.497733"><ele>514.01</ele><time>2025-05-25T12:42:44Z</time></trkpt>
<trkpt lat="49.925031" lon="5.497419"><ele>513.48</ele><time>2025-05-25T12:42:50Z</time></trkpt>
<trkpt lat="49.92506" lon="5.49609"><ele>503.83</ele><time>2025-05-25T12:42:55Z</time></trkpt>
<trkpt lat="49.925085" lon="5.495621"><ele>500.45</ele><time>2025-05-25T12:43:01Z</time></trkpt>
<trkpt lat="49.92512" lon="5.495324"><ele>498.87</ele><time>2025-05-25T12:43:06Z</time></trkpt>
<trkpt lat="49.925802" lon="5.490527"><ele>481.48</ele><time>2025-05-25T12:43:11Z</time></trkpt>
<trkpt lat="49.925966" lon="5.489621"><ele>479.94</ele><time>2025-05-25T12:43:17Z</time></trkpt>
<trkpt lat="49.926601" lon="5.486604"><ele>480.23</ele><time>2025-05-25T12:43:22Z</time></trkpt>
<trkpt lat="49.92662" lon="5.486457"><ele>480.37</ele><time>2025-05-25T12:43:28Z</time></trkpt>
<trkpt lat="49.926605" lon="5.486355"><ele>479.99</ele><time>2025-05-25T12:43:33Z</time></trkpt>
<trkpt lat="49.92655" lon="5.486265"><ele>478.87</ele><time>2025-05-25T12:43:39Z</time></trkpt>
<trkpt lat="49.926483" lon="5.486201"><ele>477.68</ele><time>2025-05-25T12:43:44Z</time></trkpt>
<trkpt lat="49.925588" lon="5.485983"><ele>473.48</ele><time>2025-05-25T12:43:49Z</time></trkpt>
<trkpt lat="49.925486" lon="5.485914"><ele>473.72</ele><time>2025-05-25T12:43:55Z</time></trkpt>
<trkpt lat="49.925445" lon="5.485834"><ele>473.8</ele><time>2025-05-25T12:44:00Z</time></trkpt>
<trkpt lat="49.92539" lon="5.485597"><ele>473.68</ele><time>2025-05-25T12:44:06Z</time></trkpt>
<trkpt lat="49.925311" lon="5.481992"><ele>471.76</ele><time>2025-05-25T12:44:11Z</time></trkpt>
<trkpt lat="49.925237" lon="5.481558"><ele>472.85</ele><time>2025-05-25T12:44:16Z</time></trkpt>
<trkpt lat="49.9251" lon="5.481107"><ele>471.34</ele><time>2025-05-25T12:44:22Z</time></trkpt>
<trkpt lat="49.924485" lon="5.479294"><ele>472.69</ele><time>2025-05-25T12:44:27Z</time></trkpt>
<trkpt lat="49.924366" lon="5.478847"><ele>474.04</ele><time>2025-05-25T12:44:33Z</time></trkpt>
<trkpt lat="49.924324" lon="5.47854"><ele>474.54</ele><time>2025-05-25T12:44:38Z</time></trkpt>
<trkpt lat="49.924311" lon="5.478236"><ele>474.96</ele><time>2025-05-25T12:44:44Z</time></trkpt>
<trkpt lat="49.924326" lon="5.477893"><ele>475.44</ele><time>2025-05-25T12:44:49Z</time></trkpt>
<trkpt lat="49.92453" lon="5.475922"><ele>478.86</ele><time>2025-05-25T12:44:54Z</time></trkpt>
<trkpt lat="49.925134" lon="5.469369"><ele>473.42</ele><time>2025-05-25T12:45:00Z</time></trkpt>
<trkpt lat="49.925123" lon="5.468958"><ele>470.38</ele><time>2025-05-25T12:45:05Z</time></trkpt>
<trkpt lat="49.924988" lon="5.46821"><ele>469.92</ele><time>2025-05-25T12:45:11Z</time></trkpt>
<trkpt lat="49.924652" lon="5.467473"><ele>468.05</ele><time>2025-05-25T12:45:16Z</time></trkpt>
<trkpt lat="49.923533" lon="5.46585"><ele>476.18</ele><time>2025-05-25T12:45:21Z</time></trkpt>
<trkpt lat="49.923364" lon="5.465432"><ele>475.55</ele><time>2025-05-25T12:45:27Z</time></trkpt>
<trkpt lat="49.922438" lon="5.462057"><ele>470.89</ele><time>2025-05-25T12:45:32Z</time></trkpt>
<trkpt lat="49.921664" lon="5.459145"><ele>476.94</ele><time>2025-05-25T12:45:38Z</time></trkpt>
<trkpt lat="49.921635" lon="5.458973"><ele>476.45</ele><time>2025-05-25T12:45:43Z</time></trkpt>
<trkpt lat="49.921766" lon="5.458816"><ele>475.11</ele><time>2025-05-25T12:45:47Z</time></trkpt>
<trkpt lat="49.921914" lon="5.458715"><ele>474.15</ele><time>2025-05-25T12:45:51Z</time></trkpt>
<trkpt lat="49.923083" lon="5.45761"><ele>480.06</ele><time>2025-05-25T12:45:55Z</time></trkpt>
<trkpt lat="49.923189" lon="5.457529"><ele>480.43</ele><time>2025-05-25T12:45:59Z</time></trkpt>
<trkpt lat="49.923312" lon="5.457379"><ele>481.33</ele><time>2025-05-25T12:46:02Z</time></trkpt>
<trkpt lat="49.923349" lon="5.457309"><ele>481.8</ele><time>2025-05-25T12:46:06Z</time></trkpt>
<trkpt lat="49.923417" lon="5.456991"><ele>482.6</ele><time>2025-05-25T12:46:10Z</time></trkpt>
<trkpt lat="49.923345" lon="5.456226"><ele>483.63</ele><time>2025-05-25T12:46:14Z</time></trkpt>
<trkpt lat="49.923288" lon="5.455799"><ele>485.02</ele><time>2025-05-25T12:46:18Z</time></trkpt>
<trkpt lat="49.92304" lon="5.455061"><ele>485.25</ele><time>2025-05-25T12:46:22Z</time></trkpt>
<trkpt lat="49.922487" lon="5.453767"><ele>488.0</ele><time>2025-05-25T12:46:25Z</time></trkpt>
<trkpt lat="49.921861" lon="5.452361"><ele>491.65</ele><time>2025-05-25T12:46:29Z</time></trkpt>
<trkpt lat="49.921693" lon="5.451917"><ele>492.09</ele><time>2025-05-25T12:46:33Z</time></trkpt>
<trkpt lat="49.921473" lon="5.451193"><ele>493.7</ele><time>2025-05-25T12:46:37Z</time></trkpt>
<trkpt lat="49.921312" lon="5.450518"><ele>495.0</ele><time>2025-05-25T12:46:41Z</time></trkpt>
<trkpt lat="49.921242" lon="5.450114"><ele>494.96</ele><time>2025-05-25T12:46:45Z</time></trkpt>
<trkpt lat="49.921217" lon="5.449663"><ele>495.3</ele><time>2025-05-25T12:46:48Z</time></trkpt>
<trkpt lat="49.921187" lon="5.44693"><ele>501.04</ele><time>2025-05-25T12:46:52Z</time></trkpt>
<trkpt lat="49.921224" lon="5.446149"><ele>502.11</ele><time>2025-05-25T12:46:56Z</time></trkpt>
<trkpt lat="49.921286" lon="5.445726"><ele>502.76</ele><time>2025-05-25T12:47:00Z</time></trkpt>
<trkpt lat="49.921874" lon="5.442876"><ele>500.44</ele><time>2025-05-25T12:47:04Z</time></trkpt>
<trkpt lat="49.921985" lon="5.442055"><ele>498.0</ele><time>2025-05-25T12:47:07Z</time></trkpt>
<trkpt lat="49.922053" lon="5.441363"><ele>497.91</ele><time>2025-05-25T12:47:11Z</time></trkpt>
<trkpt lat="49.922117" lon="5.439917"><ele>494.81</ele><time>2025-05-25T12:47:15Z</time></trkpt>
<trkpt lat="49.922131" lon="5.439107"><ele>493.58</ele><time>2025-05-25T12:47:19Z</time></trkpt>
<trkpt lat="49.921728" lon="5.4341"><ele>499.44</ele><time>2025-05-25T12:47:23Z</time></trkpt>
<trkpt lat="49.92163" lon="5.433069"><ele>492.89</ele><time>2025-05-25T12:47:27Z</time></trkpt>
<trkpt lat="49.921582" lon="5.432294"><ele>492.33</ele><time>2025-05-25T12:47:30Z</time></trkpt>
<trkpt lat="49.921606" lon="5.431821"><ele>493.44</ele><time>2025-05-25T12:47:34Z</time></trkpt>
<trkpt lat="49.921762" lon="5.431019"><ele>496.59</ele><time>2025-05-25T12:47:38Z</time></trkpt>
<trkpt lat="49.922063" lon="5.429832"><ele>505.89</ele><time>2025-05-25T12:47:42Z</time></trkpt>
<trkpt lat="49.922435" lon="5.428358"><ele>505.93</ele><time>2025-05-25T12:47:46Z</time></trkpt>
<trkpt lat="49.922504" lon="5.427778"><ele>508.94</ele><time>2025-05-25T12:47:50Z</time></trkpt>
<trkpt lat="49.922504" lon="5.427135"><ele>507.96</ele><time>2025-05-25T12:47:53Z</time></trkpt>
<trkpt lat="49.922361" lon="5.425507"><ele>510.1</ele><time>2025-05-25T12:47:57Z</time></trkpt>
<trkpt lat="49.922274" lon="5.424772"><ele>511.6</ele><time>2025-05-25T12:48:01Z</time></trkpt>
<trkpt lat="49.922141" lon="5.42394"><ele>511.29</ele><time>2025-05-25T12:48:05Z</time></trkpt>
<trkpt lat="49.922127" lon="5.423612"><ele>512.34</ele><time>2025-05-25T12:48:09Z</time></trkpt>
<trkpt lat="49.922143" lon="5.423056"><ele>514.28</ele><time>2025-05-25T12:48:13Z</time></trkpt>
<trkpt lat="49.922196" lon="5.422303"><ele>514.19</ele><time>2025-05-25T12:48:16Z</time></trkpt>
<trkpt lat="49.922246" lon="5.422085"><ele>513.78</ele><time>2025-05-25T12:48:20Z</time></trkpt>
<trkpt lat="49.922277" lon="5.421833"><ele>513.49</ele><time>2025-05-25T12:48:24Z</time></trkpt>
<trkpt lat="49.922346" lon="5.421462"><ele>513.52</ele><time>2025-05-25T12:48:28Z</time></trkpt>
<trkpt lat="49.922344" lon="5.42134"><ele>513.77</ele><time>2025-05-25T12:48:32Z</time></trkpt>
<trkpt lat="49.922396" lon="5.421147"><ele>513.67</ele><time>2025-05-25T12:48:36Z</time></trkpt>
<trkpt lat="49.92251" lon="5.420537"><ele>513.93</ele><time>2025-05-25T12:48:39Z</time></trkpt>
<trkpt lat="49.922761" lon="5.419126"><ele>512.17</ele><time>2025-05-25T12:48:43Z</time></trkpt>
<trkpt lat="49.92282" lon="5.418711"><ele>511.79</ele><time>2025-05-25T12:48:47Z</time></trkpt>
<trkpt lat="49.923112" lon="5.41553"><ele>515.0</ele><time>2025-05-25T12:48:51Z</time></trkpt>
<trkpt lat="49.923438" lon="5.413512"><ele>512.97</ele><time>2025-05-25T12:48:55Z</time></trkpt>
<trkpt lat="49.923463" lon="5.413243"><ele>513.79</ele><time>2025-05-25T12:48:59Z</time></trkpt>
<trkpt lat="49.923463" lon="5.412929"><ele>515.37</ele><time>2025-05-25T12:49:02Z</time></trkpt>
<trkpt lat="49.923428" lon="5.41251"><ele>517.63</ele><time>2025-05-25T12:49:06Z</time></trkpt>
<trkpt lat="49.923332" lon="5.411709"><ele>519.84</ele><time>2025-05-25T12:49:10Z</time></trkpt>
<trkpt lat="49.923074" lon="5.409925"><ele>525.61</ele><time>2025-05-25T12:49:14Z</time></trkpt>
<trkpt lat="49.922841" lon="5.408659"><ele>529.72</ele><time>2025-05-25T12:49:18Z</time></trkpt>
<trkpt lat="49.923029" lon="5.40838"><ele>530.88</ele><time>2025-05-25T12:49:28Z</time></trkpt>
<trkpt lat="49.92319" lon="5.408093"><ele>527.88</ele><time>2025-05-25T12:49:39Z</time></trkpt>
<trkpt lat="49.92361" lon="5.408652"><ele>529.45</ele><time>2025-05-25T12:49:46Z</time></trkpt>
<trkpt lat="49.924036" lon="5.409317"><ele>526.35</ele><time>2025-05-25T12:49:53Z</time></trkpt>
<trkpt lat="49.924551" lon="5.410169"><ele>523.39</ele><time>2025-05-25T12:50:01Z</time></trkpt>
<trkpt lat="49.925221" lon="5.408446"><ele>538.57</ele><time>2025-05-25T12:50:34Z</time></trkpt>
<trkpt lat="49.925785" lon="5.407129"><ele>543.97</ele><time>2025-05-25T12:51:07Z</time></trkpt>
<trkpt lat="49.92628" lon="5.405856"><ele>547.37</ele><time>2025-05-25T12:51:40Z</time></trkpt>
<trkpt lat="49.926334" lon="5.405695"><ele>548.71</ele><time>2025-05-25T12:52:13Z</time></trkpt>
<trkpt lat="49.926439" lon="5.405095"><ele>545.55</ele><time>2025-05-25T12:52:46Z</time></trkpt>
<trkpt lat="49.926655" lon="5.404371"><ele>538.41</ele><time>2025-05-25T12:53:19Z</time></trkpt>
<trkpt lat="49.926978" lon="5.404074"><ele>541.23</ele><time>2025-05-25T12:53:56Z</time></trkpt>
<trkpt lat="49.928346" lon="5.402507"><ele>547.88</ele><time>2025-05-25T12:54:33Z</time></trkpt>
<trkpt lat="49.92895" lon="5.401966"><ele>549.56</ele><time>2025-05-25T12:55:10Z</time></trkpt>
<trkpt lat="49.929269" lon="5.401716"><ele>551.16</ele><time>2025-05-25T12:55:47Z</time></trkpt>
<trkpt lat="49.929749" lon="5.401457"><ele>550.41</ele><time>2025-05-25T12:56:24Z</time></trkpt>
<trkpt lat="49.930334" lon="5.401217"><ele>550.83</ele><time>2025-05-25T12:57:01Z</time></trkpt>
<trkpt lat="49.930967" lon="5.401073"><ele>550.24</ele><time>2025-05-25T12:57:38Z</time></trkpt>
<trkpt lat="49.931863" lon="5.400931"><ele>557.66</ele><time>2025-05-25T12:58:15Z</time></trkpt>
<trkpt lat="49.932466" lon="5.400688"><ele>558.43</ele><time>2025-05-25T12:58:53Z</time></trkpt>
<trkpt lat="49.933097" lon="5.400253"><ele>551.85</ele><time>2025-05-25T12:59:30Z</time></trkpt>
<trkpt lat="49.934497" lon="5.399041"><ele>539.35</ele><time>2025-05-25T13:00:07Z</time></trkpt>
<trkpt lat="49.935294" lon="5.398293"><ele>528.55</ele><time>2025-05-25T13:00:44Z</time></trkpt>
<trkpt lat="49.935294" lon="5.398293"><ele>528.55</ele><time>2025-05-25T13:00:44Z</time></trkpt>
<trkpt lat="49.934497" lon="5.399041"><ele>539.35</ele><time>2025-05-25T13:01:25Z</time></trkpt>
<trkpt lat="49.933097" lon="5.400253"><ele>551.85</ele><time>2025-05-25T13:02:06Z</time></trkpt>
<trkpt lat="49.932466" lon="5.400688"><ele>558.43</ele><time>2025-05-25T13:02:48Z</time></trkpt>
<trkpt lat="49.932122" lon="5.400836"><ele>558.66</ele><time>2025-05-25T13:03:29Z</time></trkpt>
<trkpt lat="49.932071" lon="5.400542"><ele>558.0</ele><time>2025-05-25T13:03:46Z</time></trkpt>
<trkpt lat="49.931907" lon="5.399944"><ele>558.04</ele><time>2025-05-25T13:04:03Z</time></trkpt>
<trkpt lat="49.931707" lon="5.399368"><ele>555.87</ele><time>2025-05-25T13:04:20Z</time></trkpt>
<trkpt lat="49.931539" lon="5.398996"><ele>553.93</ele><time>2025-05-25T13:04:37Z</time></trkpt>
<trkpt lat="49.931311" lon="5.398278"><ele>555.68</ele><time>2025-05-25T13:04:54Z</time></trkpt>
<trkpt lat="49.931376" lon="5.398126"><ele>556.54</ele><time>2025-05-25T13:05:07Z</time></trkpt>
<trkpt lat="49.931511" lon="5.397923"><ele>557.95</ele><time>2025-05-25T13:05:20Z</time></trkpt>
<trkpt lat="49.93178" lon="5.397427"><ele>560.42</ele><time>2025-05-25T13:05:33Z</time></trkpt>
<trkpt lat="49.931864" lon="5.397185"><ele>561.42</ele><time>2025-05-25T13:05:46Z</time></trkpt>
<trkpt lat="49.931935" lon="5.396816"><ele>562.5</ele><time>2025-05-25T13:05:59Z</time></trkpt>
<trkpt lat="49.932272" lon="5.395644"><ele>562.91</ele><time>2025-05-25T13:06:12Z</time></trkpt>
<trkpt lat="49.932297" lon="5.395462"><ele>563.51</ele><time>2025-05-25T13:06:25Z</time></trkpt>
<trkpt lat="49.932298" lon="5.395205"><ele>564.71</ele><time>2025-05-25T13:06:38Z</time></trkpt>
<trkpt lat="49.9323" lon="5.394886"><ele>564.77</ele><time>2025-05-25T13:06:50Z</time></trkpt>
<trkpt lat="49.932343" lon="5.394178"><ele>565.95</ele><time>2025-05-25T13:07:03Z</time></trkpt>
<trkpt lat="49.932337" lon="5.393881"><ele>567.42</ele><time>2025-05-25T13:07:15Z</time></trkpt>
<trkpt lat="49.932373" lon="5.393516"><ele>567.74</ele><time>2025-05-25T13:07:27Z</time></trkpt>
<trkpt lat="49.932367" lon="5.393337"><ele>567.05</ele><time>2025-05-25T13:07:40Z</time></trkpt>
<trkpt lat="49.932214" lon="5.39276"><ele>562.94</ele><time>2025-05-25T13:07:52Z</time></trkpt>
<trkpt lat="49.932788" lon="5.391718"><ele>563.96</ele><time>2025-05-25T13:08:18Z</time></trkpt>
<trkpt lat="49.932892" lon="5.39148"><ele>563.59</ele><time>2025-05-25T13:08:45Z</time></trkpt>
<trkpt lat="49.933317" lon="5.390751"><ele>554.27</ele><time>2025-05-25T13:09:11Z</time></trkpt>
<trkpt lat="49.934107" lon="5.392076"><ele>547.41</ele><time>2025-05-25T13:09:28Z</time></trkpt>
<trkpt lat="49.937445" lon="5.397797"><ele>527.74</ele><time>2025-05-25T13:09:46Z</time></trkpt>
<trkpt lat="49.93811" lon="5.398772"><ele>523.97</ele><time>2025-05-25T13:10:04Z</time></trkpt>
<trkpt lat="49.939088" lon="5.399911"><ele>519.82</ele><time>2025-05-25T13:10:21Z</time></trkpt>
<trkpt lat="49.94312" lon="5.404113"><ele>501.0</ele><time>2025-05-25T13:10:39Z</time></trkpt>
<trkpt lat="49.94744" lon="5.408663"><ele>484.81</ele><time>2025-05-25T13:10:56Z</time></trkpt>
<trkpt lat="49.947496" lon="5.408636"><ele>485.21</ele><time>2025-05-25T13:11:12Z</time></trkpt>
<trkpt lat="49.947496" lon="5.408636"><ele>485.21</ele><time>2025-05-25T13:11:12Z</time></trkpt>
<trkpt lat="49.94744" lon="5.408663"><ele>484.81</ele><time>2025-05-25T13:11:13Z</time></trkpt>
<trkpt lat="49.950293" lon="5.41164"><ele>483.05</ele><time>2025-05-25T13:11:24Z</time></trkpt>
<trkpt lat="49.950768" lon="5.412141"><ele>482.46</ele><time>2025-05-25T13:11:36Z</time></trkpt>
<trkpt lat="49.954022" lon="5.415541"><ele>477.04</ele><time>2025-05-25T13:11:48Z</time></trkpt>
<trkpt lat="49.954256" lon="5.415822"><ele>475.33</ele><time>2025-05-25T13:11:59Z</time></trkpt>
<trkpt lat="49.954439" lon="5.416092"><ele>474.02</ele><time>2025-05-25T13:12:11Z</time></trkpt>
<trkpt lat="49.954741" lon="5.415811"><ele>472.86</ele><time>2025-05-25T13:12:14Z</time></trkpt>
<trkpt lat="49.954953" lon="5.415718"><ele>472.1</ele><time>2025-05-25T13:12:17Z</time></trkpt>
<trkpt lat="49.955283" lon="5.415632"><ele>472.3</ele><time>2025-05-25T13:12:19Z</time></trkpt>
<trkpt lat="49.955567" lon="5.41546"><ele>474.05</ele><time>2025-05-25T13:12:22Z</time></trkpt>
<trkpt lat="49.955764" lon="5.415353"><ele>475.3</ele><time>2025-05-25T13:12:25Z</time></trkpt>
<trkpt lat="49.956021" lon="5.415137"><ele>476.34</ele><time>2025-05-25T13:12:28Z</time></trkpt>
<trkpt lat="49.956392" lon="5.414735"><ele>476.96</ele><time>2025-05-25T13:12:31Z</time></trkpt>
<trkpt lat="49.956447" lon="5.414635"><ele>477.46</ele><time>2025-05-25T13:12:34Z</time></trkpt>
<trkpt lat="49.95639" lon="5.414529"><ele>477.7</ele><time>2025-05-25T13:12:38Z</time></trkpt>
<trkpt lat="49.956344" lon="5.414394"><ele>477.84</ele><time>2025-05-25T13:12:43Z</time></trkpt>
<trkpt lat="49.956318" lon="5.414264"><ele>477.74</ele><time>2025-05-25T13:12:48Z</time></trkpt>
<trkpt lat="49.95631" lon="5.414135"><ele>477.72</ele><time>2025-05-25T13:12:52Z</time></trkpt>
<trkpt lat="49.95634" lon="5.414017"><ele>477.82</ele><time>2025-05-25T13:12:57Z</time></trkpt>
<trkpt lat="49.956535" lon="5.413708"><ele>478.18</ele><time>2025-05-25T13:13:02Z</time></trkpt>
<trkpt lat="49.956821" lon="5.413316"><ele>478.58</ele><time>2025-05-25T13:13:06Z</time></trkpt>
<trkpt lat="49.956921" lon="5.41314"><ele>478.97</ele><time>2025-05-25T13:13:11Z</time></trkpt>
<trkpt lat="49.957205" lon="5.412619"><ele>480.97</ele><time>2025-05-25T13:13:15Z</time></trkpt>
<trkpt lat="49.957464" lon="5.412066"><ele>483.32</ele><time>2025-05-25T13:13:20Z</time></trkpt>
<trkpt lat="49.958334" lon="5.410332"><ele>488.0</ele><time>2025-05-25T13:13:25Z</time></trkpt>
<trkpt lat="49.958428" lon="5.41018"><ele>488.22</ele><time>2025-05-25T13:13:29Z</time></trkpt>
<trkpt lat="49.958545" lon="5.410008"><ele>488.02</ele><time>2025-05-25T13:13:34Z</time></trkpt>
<trkpt lat="49.958887" lon="5.40965"><ele>486.48</ele><time>2025-05-25T13:13:39Z</time></trkpt>
<trkpt lat="49.95957" lon="5.409103"><ele>485.42</ele><time>2025-05-25T13:13:43Z</time></trkpt>
<trkpt lat="49.959818" lon="5.408802"><ele>484.11</ele><time>2025-05-25T13:13:48Z</time></trkpt>
<trkpt lat="49.959939" lon="5.408618"><ele>483.22</ele><time>2025-05-25T13:13:52Z</time></trkpt>
<trkpt lat="49.960207" lon="5.408064"><ele>482.01</ele><time>2025-05-25T13:13:57Z</time></trkpt>
<trkpt lat="49.960365" lon="5.407788"><ele>481.68</ele><time>2025-05-25T13:14:02Z</time></trkpt>
<trkpt lat="49.96086" lon="5.407058"><ele>478.81</ele><time>2025-05-25T13:14:06Z</time></trkpt>
<trkpt lat="49.961624" lon="5.405955"><ele>473.9</ele><time>2025-05-25T13:14:11Z</time></trkpt>
<trkpt lat="49.962983" lon="5.403977"><ele>466.58</ele><time>2025-05-25T13:14:15Z</time></trkpt>
<trkpt lat="49.96329" lon="5.403588"><ele>465.23</ele><time>2025-05-25T13:14:20Z</time></trkpt>
<trkpt lat="49.964022" lon="5.402778"><ele>465.04</ele><time>2025-05-25T13:14:25Z</time></trkpt>
<trkpt lat="49.965066" lon="5.401732"><ele>463.58</ele><time>2025-05-25T13:14:29Z</time></trkpt>
<trkpt lat="49.965282" lon="5.401475"><ele>461.98</ele><time>2025-05-25T13:14:34Z</time></trkpt>
<trkpt lat="49.965733" lon="5.401018"><ele>462.64</ele><time>2025-05-25T13:14:39Z</time></trkpt>
<trkpt lat="49.965897" lon="5.400884"><ele>462.54</ele><time>2025-05-25T13:14:43Z</time></trkpt>
<trkpt lat="49.966491" lon="5.400526"><ele>458.89</ele><time>2025-05-25T13:14:48Z</time></trkpt>
<trkpt lat="49.967045" lon="5.400111"><ele>455.14</ele><time>2025-05-25T13:14:52Z</time></trkpt>
<trkpt lat="49.967971" lon="5.399305"><ele>450.15</ele><time>2025-05-25T13:14:57Z</time></trkpt>
<trkpt lat="49.96812" lon="5.39912"><ele>449.77</ele><time>2025-05-25T13:15:02Z</time></trkpt>
<trkpt lat="49.968537" lon="5.398488"><ele>448.67</ele><time>2025-05-25T13:15:06Z</time></trkpt>
<trkpt lat="49.96872" lon="5.398276"><ele>448.0</ele><time>2025-05-25T13:15:11Z</time></trkpt>
<trkpt lat="49.969854" lon="5.397265"><ele>446.89</ele><time>2025-05-25T13:15:16Z</time></trkpt>
<trkpt lat="49.970576" lon="5.396985"><ele>445.5</ele><time>2025-05-25T13:15:20Z</time></trkpt>
<trkpt lat="49.970681" lon="5.396845"><ele>444.65</ele><time>2025-05-25T13:15:25Z</time></trkpt>
<trkpt lat="49.970837" lon="5.396899"><ele>442.96</ele><time>2025-05-25T13:15:44Z</time></trkpt>
<trkpt lat="49.971247" lon="5.396694"><ele>440.85</ele><time>2025-05-25T13:16:03Z</time></trkpt>
<trkpt lat="49.971409" lon="5.3966"><ele>441.54</ele><time>2025-05-25T13:16:09Z</time></trkpt>
<trkpt lat="49.971483" lon="5.396534"><ele>441.43</ele><time>2025-05-25T13:16:15Z</time></trkpt>
<trkpt lat="49.971946" lon="5.395901"><ele>435.75</ele><time>2025-05-25T13:16:21Z</time></trkpt>
<trkpt lat="49.972016" lon="5.395813"><ele>435.5</ele><time>2025-05-25T13:16:28Z</time></trkpt>
<trkpt lat="49.972178" lon="5.395726"><ele>434.64</ele><time>2025-05-25T13:16:34Z</time></trkpt>
<trkpt lat="49.972288" lon="5.395721"><ele>434.55</ele><time>2025-05-25T13:16:40Z</time></trkpt>
<trkpt lat="49.972977" lon="5.395874"><ele>436.61</ele><time>2025-05-25T13:16:46Z</time></trkpt>
<trkpt lat="49.974075" lon="5.396367"><ele>440.34</ele><time>2025-05-25T13:16:53Z</time></trkpt>
<trkpt lat="49.974251" lon="5.396565"><ele>441.0</ele><time>2025-05-25T13:16:59Z</time></trkpt>
<trkpt lat="49.974848" lon="5.397334"><ele>445.85</ele><time>2025-05-25T13:17:05Z</time></trkpt>
<trkpt lat="49.974973" lon="5.397414"><ele>446.59</ele><time>2025-05-25T13:17:11Z</time></trkpt>
<trkpt lat="49.97509" lon="5.397407"><ele>447.03</ele><time>2025-05-25T13:17:18Z</time></trkpt>
<trkpt lat="49.97509" lon="5.397407"><ele>447.03</ele><time>2025-05-25T13:17:18Z</time></trkpt>
<trkpt lat="49.974973" lon="5.397414"><ele>446.59</ele><time>2025-05-25T13:17:24Z</time></trkpt>
<trkpt lat="49.974848" lon="5.397334"><ele>445.85</ele><time>2025-05-25T13:17:30Z</time></trkpt>
<trkpt lat="49.974251" lon="5.396565"><ele>441.0</ele><time>2025-05-25T13:17:36Z</time></trkpt>
<trkpt lat="49.974075" lon="5.396367"><ele>440.34</ele><time>2025-05-25T13:17:41Z</time></trkpt>
<trkpt lat="49.972977" lon="5.395874"><ele>436.61</ele><time>2025-05-25T13:17:47Z</time></trkpt>
<trkpt lat="49.972288" lon="5.395721"><ele>434.55</ele><time>2025-05-25T13:17:53Z</time></trkpt>
<trkpt lat="49.972178" lon="5.395726"><ele>434.64</ele><time>2025-05-25T13:17:59Z</time></trkpt>
<trkpt lat="49.972016" lon="5.395813"><ele>435.5</ele><time>2025-05-25T13:18:05Z</time></trkpt>
<trkpt lat="49.971946" lon="5.395901"><ele>435.75</ele><time>2025-05-25T13:18:11Z</time></trkpt>
<trkpt lat="49.971483" lon="5.396534"><ele>441.43</ele><time>2025-05-25T13:18:17Z</time></trkpt>
<trkpt lat="49.971409" lon="5.3966"><ele>441.54</ele><time>2025-05-25T13:18:23Z</time></trkpt>
<trkpt lat="49.971247" lon="5.396694"><ele>440.85</ele><time>2025-05-25T13:18:29Z</time></trkpt>
<trkpt lat="49.970837" lon="5.396899"><ele>442.96</ele><time>2025-05-25T13:18:35Z</time></trkpt>
<trkpt lat="49.970681" lon="5.396845"><ele>444.65</ele><time>2025-05-25T13:18:41Z</time></trkpt>
<trkpt lat="49.970739" lon="5.396702"><ele>444.02</ele><time>2025-05-25T13:18:47Z</time></trkpt>
<trkpt lat="49.970775" lon="5.396518"><ele>444.06</ele><time>2025-05-25T13:18:53Z</time></trkpt>
<trkpt lat="49.970798" lon="5.395092"><ele>448.87</ele><time>2025-05-25T13:18:59Z</time></trkpt>
<trkpt lat="49.970748" lon="5.394725"><ele>448.69</ele><time>2025-05-25T13:19:05Z</time></trkpt>
<trkpt lat="49.970349" lon="5.392914"><ele>445.1</ele><time>2025-05-25T13:19:11Z</time></trkpt>
<trkpt lat="49.970343" lon="5.392688"><ele>444.2</ele><time>2025-05-25T13:19:17Z</time></trkpt>
<trkpt lat="49.970368" lon="5.392437"><ele>443.2</ele><time>2025-05-25T13:19:23Z</time></trkpt>
<trkpt lat="49.970385" lon="5.392345"><ele>442.89</ele><time>2025-05-25T13:19:29Z</time></trkpt>
<trkpt lat="49.970429" lon="5.392239"><ele>442.48</ele><time>2025-05-25T13:19:35Z</time></trkpt>
<trkpt lat="49.970583" lon="5.392051"><ele>441.94</ele><time>2025-05-25T13:19:41Z</time></trkpt>
<trkpt lat="49.971383" lon="5.391513"><ele>434.5</ele><time>2025-05-25T13:19:47Z</time></trkpt>
<trkpt lat="49.971901" lon="5.391172"><ele>432.84</ele><time>2025-05-25T13:19:53Z</time></trkpt>
<trkpt lat="49.971987" lon="5.391115"><ele>433.15</ele><time>2025-05-25T13:19:59Z</time></trkpt>
<trkpt lat="49.974496" lon="5.389451"><ele>449.35</ele><time>2025-05-25T13:20:05Z</time></trkpt>
<trkpt lat="49.975039" lon="5.389125"><ele>454.14</ele><time>2025-05-25T13:20:11Z</time></trkpt>
<trkpt lat="49.976254" lon="5.388324"><ele>463.01</ele><time>2025-05-25T13:20:17Z</time></trkpt>
<trkpt lat="49.976512" lon="5.388232"><ele>464.44</ele><time>2025-05-25T13:20:23Z</time></trkpt>
<trkpt lat="49.976766" lon="5.388254"><ele>464.89</ele><time>2025-05-25T13:20:29Z</time></trkpt>
<trkpt lat="49.97725" lon="5.388498"><ele>463.53</ele><time>2025-05-25T13:20:35Z</time></trkpt>
<trkpt lat="49.977437" lon="5.388532"><ele>463.16</ele><time>2025-05-25T13:20:41Z</time></trkpt>
<trkpt lat="49.978034" lon="5.388481"><ele>465.37</ele><time>2025-05-25T13:20:47Z</time></trkpt>
<trkpt lat="49.978739" lon="5.388344"><ele>469.94</ele><time>2025-05-25T13:20:53Z</time></trkpt>
<trkpt lat="49.979427" lon="5.388058"><ele>470.88</ele><time>2025-05-25T13:20:59Z</time></trkpt>
<trkpt lat="49.980061" lon="5.387662"><ele>467.62</ele><time>2025-05-25T13:21:05Z</time></trkpt>
<trkpt lat="49.980318" lon="5.387553"><ele>466.52</ele><time>2025-05-25T13:21:11Z</time></trkpt>
<trkpt lat="49.98101" lon="5.387378"><ele>469.64</ele><time>2025-05-25T13:21:17Z</time></trkpt>
<trkpt lat="49.981094" lon="5.387321"><ele>469.94</ele><time>2025-05-25T13:21:23Z</time></trkpt>
<trkpt lat="49.981384" lon="5.387026"><ele>469.99</ele><time>2025-05-25T13:21:29Z</time></trkpt>
<trkpt lat="49.98177" lon="5.386576"><ele>473.29</ele><time>2025-05-25T13:21:35Z</time></trkpt>
<trkpt lat="49.982369" lon="5.38572"><ele>475.93</ele><time>2025-05-25T13:21:41Z</time></trkpt>
<trkpt lat="49.982781" lon="5.385237"><ele>476.87</ele><time>2025-05-25T13:21:47Z</time></trkpt>
<trkpt lat="49.983069" lon="5.384991"><ele>478.1</ele><time>2025-05-25T13:21:53Z</time></trkpt>
<trkpt lat="49.983295" lon="5.38485"><ele>479.72</ele><time>2025-05-25T13:21:59Z</time></trkpt>
<trkpt lat="49.98409" lon="5.384578"><ele>477.41</ele><time>2025-05-25T13:22:05Z</time></trkpt>
<trkpt lat="49.984372" lon="5.384157"><ele>477.02</ele><time>2025-05-25T13:22:11Z</time></trkpt>
<trkpt lat="49.98527" lon="5.382764"><ele>482.9</ele><time>2025-05-25T13:22:17Z</time></trkpt>
<trkpt lat="49.985436" lon="5.382554"><ele>482.65</ele><time>2025-05-25T13:22:23Z</time></trkpt>
<trkpt lat="49.985898" lon="5.382125"><ele>483.38</ele><time>2025-05-25T13:22:29Z</time></trkpt>
<trkpt lat="49.986151" lon="5.3818"><ele>481.67</ele><time>2025-05-25T13:22:35Z</time></trkpt>
<trkpt lat="49.987068" lon="5.3804"><ele>484.01</ele><time>2025-05-25T13:22:41Z</time></trkpt>
<trkpt lat="49.987122" lon="5.380237"><ele>484.93</ele><time>2025-05-25T13:22:47Z</time></trkpt>
<trkpt lat="49.987866" lon="5.380324"><ele>483.98</ele><time>2025-05-25T13:22:51Z</time></trkpt>
<trkpt lat="49.987991" lon="5.380306"><ele>484.56</ele><time>2025-05-25T13:22:55Z</time></trkpt>
<trkpt lat="49.988133" lon="5.380214"><ele>485.44</ele><time>2025-05-25T13:23:00Z</time></trkpt>
<trkpt lat="49.988233" lon="5.380092"><ele>485.88</ele><time>2025-05-25T13:23:04Z</time></trkpt>
<trkpt lat="49.98836" lon="5.379733"><ele>486.0</ele><time>2025-05-25T13:23:08Z</time></trkpt>
<trkpt lat="49.988504" lon="5.379102"><ele>485.38</ele><time>2025-05-25T13:23:12Z</time></trkpt>
<trkpt lat="49.988605" lon="5.37874"><ele>485.03</ele><time>2025-05-25T13:23:17Z</time></trkpt>
<trkpt lat="49.988676" lon="5.378587"><ele>484.74</ele><time>2025-05-25T13:23:21Z</time></trkpt>
<trkpt lat="49.989722" lon="5.376816"><ele>481.54</ele><time>2025-05-25T13:23:25Z</time></trkpt>
<trkpt lat="49.990067" lon="5.37628"><ele>478.76</ele><time>2025-05-25T13:23:29Z</time></trkpt>
<trkpt lat="49.990197" lon="5.376043"><ele>478.46</ele><time>2025-05-25T13:23:34Z</time></trkpt>
<trkpt lat="49.990283" lon="5.375816"><ele>479.0</ele><time>2025-05-25T13:23:38Z</time></trkpt>
<trkpt lat="49.992002" lon="5.370368"><ele>490.75</ele><time>2025-05-25T13:23:42Z</time></trkpt>
<trkpt lat="49.993058" lon="5.367101"><ele>498.67</ele><time>2025-05-25T13:23:46Z</time></trkpt>
<trkpt lat="49.993312" lon="5.366552"><ele>497.41</ele><time>2025-05-25T13:23:51Z</time></trkpt>
<trkpt lat="49.994671" lon="5.363425"><ele>491.54</ele><time>2025-05-25T13:23:55Z</time></trkpt>
<trkpt lat="49.995117" lon="5.36238"><ele>482.06</ele><time>2025-05-25T13:23:59Z</time></trkpt>
<trkpt lat="49.995322" lon="5.361839"><ele>480.16</ele><time>2025-05-25T13:24:03Z</time></trkpt>
<trkpt lat="49.995702" lon="5.360642"><ele>476.31</ele><time>2025-05-25T13:24:08Z</time></trkpt>
<trkpt lat="49.995926" lon="5.360012"><ele>474.36</ele><time>2025-05-25T13:24:12Z</time></trkpt>
<trkpt lat="49.997439" lon="5.35621"><ele>469.58</ele><time>2025-05-25T13:24:16Z</time></trkpt>
<trkpt lat="49.997694" lon="5.355647"><ele>468.4</ele><time>2025-05-25T13:24:20Z</time></trkpt>
<trkpt lat="49.998768" lon="5.353781"><ele>459.2</ele><time>2025-05-25T13:24:25Z</time></trkpt>
<trkpt lat="49.999046" lon="5.353355"><ele>456.3</ele><time>2025-05-25T13:24:29Z</time></trkpt>
<trkpt lat="49.999234" lon="5.353135"><ele>454.01</ele><time>2025-05-25T13:24:33Z</time></trkpt>
<trkpt lat="50.000464" lon="5.352156"><ele>444.39</ele><time>2025-05-25T13:24:37Z</time></trkpt>
<trkpt lat="50.000706" lon="5.351925"><ele>443.98</ele><time>2025-05-25T13:24:42Z</time></trkpt>
<trkpt lat="50.00084" lon="5.351859"><ele>443.29</ele><time>2025-05-25T13:24:46Z</time></trkpt>
<trkpt lat="50.001139" lon="5.351849"><ele>442.58</ele><time>2025-05-25T13:24:50Z</time></trkpt>
<trkpt lat="50.002815" lon="5.352015"><ele>439.23</ele><time>2025-05-25T13:24:54Z</time></trkpt>
<trkpt lat="50.003034" lon="5.351991"><ele>436.63</ele><time>2025-05-25T13:24:58Z</time></trkpt>
<trkpt lat="50.003118" lon="5.35194"><ele>436.39</ele><time>2025-05-25T13:25:03Z</time></trkpt>
<trkpt lat="50.003357" lon="5.351703"><ele>436.2</ele><time>2025-05-25T13:25:07Z</time></trkpt>
<trkpt lat="50.003488" lon="5.351539"><ele>435.34</ele><time>2025-05-25T13:25:11Z</time></trkpt>
<trkpt lat="50.003697" lon="5.351178"><ele>433.42</ele><time>2025-05-25T13:25:15Z</time></trkpt>
<trkpt lat="50.003856" lon="5.350816"><ele>432.95</ele><time>2025-05-25T13:25:20Z</time></trkpt>
<trkpt lat="50.004075" lon="5.350202"><ele>430.98</ele><time>2025-05-25T13:25:24Z</time></trkpt>
<trkpt lat="50.004165" lon="5.350067"><ele>429.03</ele><time>2025-05-25T13:25:28Z</time></trkpt>
<trkpt lat="50.004276" lon="5.34998"><ele>428.21</ele><time>2025-05-25T13:25:32Z</time></trkpt>
<trkpt lat="50.004506" lon="5.349978"><ele>426.13</ele><time>2025-05-25T13:25:37Z</time></trkpt>
<trkpt lat="50.00463" lon="5.349948"><ele>424.46</ele><time>2025-05-25T13:25:41Z</time></trkpt>
<trkpt lat="50.004851" lon="5.349814"><ele>422.89</ele><time>2025-05-25T13:25:45Z</time></trkpt>
<trkpt lat="50.004936" lon="5.349724"><ele>422.46</ele><time>2025-05-25T13:25:49Z</time></trkpt>
<trkpt lat="50.005" lon="5.349618"><ele>422.0</ele><time>2025-05-25T13:25:54Z</time></trkpt>
<trkpt lat="50.005291" lon="5.348984"><ele>423.64</ele><time>2025-05-25T13:25:58Z</time></trkpt>
<trkpt lat="50.005419" lon="5.34882"><ele>424.24</ele><time>2025-05-25T13:26:02Z</time></trkpt>
<trkpt lat="50.005581" lon="5.348651"><ele>423.8</ele><time>2025-05-25T13:26:06Z</time></trkpt>
<trkpt lat="50.005907" lon="5.348378"><ele>421.47</ele><time>2025-05-25T13:26:11Z</time></trkpt>
<trkpt lat="50.005923" lon="5.348159"><ele>421.98</ele><time>2025-05-25T13:26:13Z</time></trkpt>
<trkpt lat="50.005898" lon="5.34805"><ele>422.55</ele><time>2025-05-25T13:26:15Z</time></trkpt>
<trkpt lat="50.006054" lon="5.347917"><ele>421.91</ele><time>2025-05-25T13:26:18Z</time></trkpt>
<trkpt lat="50.007124" lon="5.347232"><ele>421.64</ele><time>2025-05-25T13:26:21Z</time></trkpt>
<trkpt lat="50.007321" lon="5.347086"><ele>422.49</ele><time>2025-05-25T13:26:24Z</time></trkpt>
<trkpt lat="50.007679" lon="5.346776"><ele>423.61</ele><time>2025-05-25T13:26:27Z</time></trkpt>
<trkpt lat="50.008344" lon="5.346265"><ele>422.96</ele><time>2025-05-25T13:26:30Z</time></trkpt>
<trkpt lat="50.008505" lon="5.346107"><ele>422.4</ele><time>2025-05-25T13:26:33Z</time></trkpt>
<trkpt lat="50.008592" lon="5.345984"><ele>422.53</ele><time>2025-05-25T13:26:36Z</time></trkpt>
<trkpt lat="50.008773" lon="5.345598"><ele>423.35</ele><time>2025-05-25T13:26:39Z</time></trkpt>
<trkpt lat="50.008846" lon="5.345382"><ele>422.0</ele><time>2025-05-25T13:26:43Z</time></trkpt>
<trkpt lat="50.008912" lon="5.345091"><ele>419.32</ele><time>2025-05-25T13:26:46Z</time></trkpt>
<trkpt lat="50.008941" lon="5.344743"><ele>417.33</ele><time>2025-05-25T13:26:49Z</time></trkpt>
<trkpt lat="50.008952" lon="5.343758"><ele>415.29</ele><time>2025-05-25T13:26:52Z</time></trkpt>
<trkpt lat="50.008989" lon="5.343537"><ele>415.1</ele><time>2025-05-25T13:26:55Z</time></trkpt>
<trkpt lat="50.009054" lon="5.343355"><ele>415.55</ele><time>2025-05-25T13:26:58Z</time></trkpt>
<trkpt lat="50.009209" lon="5.343235"><ele>417.01</ele><time>2025-05-25T13:27:01Z</time></trkpt>
<trkpt lat="50.010829" lon="5.342685"><ele>432.65</ele><time>2025-05-25T13:27:04Z</time></trkpt>
<trkpt lat="50.011059" lon="5.342666"><ele>432.32</ele><time>2025-05-25T13:27:07Z</time></trkpt>
<trkpt lat="50.01117" lon="5.342701"><ele>431.98</ele><time>2025-05-25T13:27:10Z</time></trkpt>
<trkpt lat="50.011267" lon="5.342768"><ele>431.64</ele><time>2025-05-25T13:27:13Z</time></trkpt>
<trkpt lat="50.012141" lon="5.343865"><ele>434.5</ele><time>2025-05-25T13:27:17Z</time></trkpt>
<trkpt lat="50.012318" lon="5.344004"><ele>434.93</ele><time>2025-05-25T13:27:20Z</time></trkpt>
<trkpt lat="50.012472" lon="5.344072"><ele>435.24</ele><time>2025-05-25T13:27:23Z</time></trkpt>
<trkpt lat="50.012617" lon="5.344093"><ele>436.22</ele><time>2025-05-25T13:27:26Z</time></trkpt>
<trkpt lat="50.012808" lon="5.344075"><ele>438.05</ele><time>2025-05-25T13:27:29Z</time></trkpt>
<trkpt lat="50.012932" lon="5.344039"><ele>439.89</ele><time>2025-05-25T13:27:32Z</time></trkpt>
<trkpt lat="50.013128" lon="5.34394"><ele>442.12</ele><time>2025-05-25T13:27:35Z</time></trkpt>
<trkpt lat="50.013664" lon="5.343528"><ele>440.68</ele><time>2025-05-25T13:27:38Z</time></trkpt>
<trkpt lat="50.01387" lon="5.343314"><ele>440.67</ele><time>2025-05-25T13:27:41Z</time></trkpt>
<trkpt lat="50.013975" lon="5.34317"><ele>440.76</ele><time>2025-05-25T13:27:44Z</time></trkpt>
<trkpt lat="50.013975" lon="5.34317"><ele>440.76</ele><time>2025-05-25T13:27:44Z</time></trkpt>
<trkpt lat="50.014044" lon="5.343077"><ele>440.86</ele><time>2025-05-25T13:27:47Z</time></trkpt>
<trkpt lat="50.014174" lon="5.342809"><ele>439.37</ele><time>2025-05-25T13:27:50Z</time></trkpt>
<trkpt lat="50.014259" lon="5.342576"><ele>436.66</ele><time>2025-05-25T13:27:53Z</time></trkpt>
<trkpt lat="50.014376" lon="5.342075"><ele>431.92</ele><time>2025-05-25T13:27:56Z</time></trkpt>
<trkpt lat="50.014653" lon="5.340723"><ele>420.91</ele><time>2025-05-25T13:27:59Z</time></trkpt>
<trkpt lat="50.014763" lon="5.340325"><ele>417.72</ele><time>2025-05-25T13:28:02Z</time></trkpt>
<trkpt lat="50.015084" lon="5.339518"><ele>418.34</ele><time>2025-05-25T13:28:04Z</time></trkpt>
<trkpt lat="50.015286" lon="5.339048"><ele>421.51</ele><time>2025-05-25T13:28:07Z</time></trkpt>
<trkpt lat="50.015944" lon="5.337785"><ele>412.36</ele><time>2025-05-25T13:28:10Z</time></trkpt>
<trkpt lat="50.016151" lon="5.33729"><ele>410.83</ele><time>2025-05-25T13:28:13Z</time></trkpt>
<trkpt lat="50.016534" lon="5.336124"><ele>408.22</ele><time>2025-05-25T13:28:16Z</time></trkpt>
<trkpt lat="50.016617" lon="5.335939"><ele>406.53</ele><time>2025-05-25T13:28:19Z</time></trkpt>
<trkpt lat="50.017475" lon="5.334808"><ele>397.47</ele><time>2025-05-25T13:28:22Z</time></trkpt>
<trkpt lat="50.01773" lon="5.334428"><ele>397.57</ele><time>2025-05-25T13:28:24Z</time></trkpt>
<trkpt lat="50.01794" lon="5.333845"><ele>397.6</ele><time>2025-05-25T13:28:27Z</time></trkpt>
<trkpt lat="50.01826" lon="5.332781"><ele>386.04</ele><time>2025-05-25T13:28:30Z</time></trkpt>
<trkpt lat="50.018287" lon="5.332432"><ele>383.51</ele><time>2025-05-25T13:28:33Z</time></trkpt>
<trkpt lat="50.018275" lon="5.33227"><ele>382.34</ele><time>2025-05-25T13:28:36Z</time></trkpt>
<trkpt lat="50.017847" lon="5.330293"><ele>370.09</ele><time>2025-05-25T13:28:39Z</time></trkpt>
<trkpt lat="50.017584" lon="5.328886"><ele>364.99</ele><time>2025-05-25T13:28:42Z</time></trkpt>
<trkpt lat="50.017576" lon="5.328762"><ele>364.54</ele><time>2025-05-25T13:28:44Z</time></trkpt>
<trkpt lat="50.017598" lon="5.328518"><ele>363.67</ele><time>2025-05-25T13:28:47Z</time></trkpt>
<trkpt lat="50.017688" lon="5.328325"><ele>362.95</ele><time>2025-05-25T13:28:50Z</time></trkpt>
<trkpt lat="50.017821" lon="5.328141"><ele>361.35</ele><time>2025-05-25T13:28:53Z</time></trkpt>
<trkpt lat="50.01811" lon="5.327825"><ele>356.95</ele><time>2025-05-25T13:28:56Z</time></trkpt>
<trkpt lat="50.018349" lon="5.327525"><ele>354.99</ele><time>2025-05-25T13:28:59Z</time></trkpt>
<trkpt lat="50.018979" lon="5.32666"><ele>355.35</ele><time>2025-05-25T13:29:02Z</time></trkpt>
<trkpt lat="50.01978" lon="5.325445"><ele>350.1</ele><time>2025-05-25T13:29:04Z</time></trkpt>
<trkpt lat="50.019667" lon="5.324623"><ele>348.8</ele><time>2025-05-25T13:29:07Z</time></trkpt>
<trkpt lat="50.019591" lon="5.324251"><ele>349.26</ele><time>2025-05-25T13:29:09Z</time></trkpt>
<trkpt lat="50.019468" lon="5.323803"><ele>349.66</ele><time>2025-05-25T13:29:12Z</time></trkpt>
<trkpt lat="50.018029" lon="5.319752"><ele>350.02</ele><time>2025-05-25T13:29:14Z</time></trkpt>
<trkpt lat="50.017955" lon="5.319434"><ele>349.45</ele><time>2025-05-25T13:29:17Z</time></trkpt>
<trkpt lat="50.017919" lon="5.319106"><ele>348.57</ele><time>2025-05-25T13:29:19Z</time></trkpt>
<trkpt lat="50.017916" lon="5.318777"><ele>347.88</ele><time>2025-05-25T13:29:22Z</time></trkpt>
<trkpt lat="50.018016" lon="5.316762"><ele>341.42</ele><time>2025-05-25T13:29:24Z</time></trkpt>
<trkpt lat="50.018068" lon="5.316457"><ele>339.92</ele><time>2025-05-25T13:29:27Z</time></trkpt>
<trkpt lat="50.018122" lon="5.316282"><ele>339.18</ele><time>2025-05-25T13:29:29Z</time></trkpt>
<trkpt lat="50.018264" lon="5.315995"><ele>338.85</ele><time>2025-05-25T13:29:32Z</time></trkpt>
<trkpt lat="50.018358" lon="5.315875"><ele>338.64</ele><time>2025-05-25T13:29:34Z</time></trkpt>
<trkpt lat="50.019532" lon="5.314868"><ele>345.64</ele><time>2025-05-25T13:29:37Z</time></trkpt>
<trkpt lat="50.019791" lon="5.314579"><ele>347.04</ele><time>2025-05-25T13:29:39Z</time></trkpt>
<trkpt lat="50.020012" lon="5.314242"><ele>345.93</ele><time>2025-05-25T13:29:42Z</time></trkpt>
<trkpt lat="50.020206" lon="5.313803"><ele>343.05</ele><time>2025-05-25T13:29:44Z</time></trkpt>
<trkpt lat="50.020353" lon="5.31333"><ele>339.33</ele><time>2025-05-25T13:29:47Z</time></trkpt>
<trkpt lat="50.021154" lon="5.30923"><ele>337.69</ele><time>2025-05-25T13:29:49Z</time></trkpt>
<trkpt lat="50.021188" lon="5.308743"><ele>335.74</ele><time>2025-05-25T13:29:52Z</time></trkpt>
<trkpt lat="50.021175" lon="5.308472"><ele>333.65</ele><time>2025-05-25T13:29:55Z</time></trkpt>
<trkpt lat="50.021123" lon="5.307984"><ele>330.92</ele><time>2025-05-25T13:29:57Z</time></trkpt>
<trkpt lat="50.020981" lon="5.306887"><ele>331.83</ele><time>2025-05-25T13:30:00Z</time></trkpt>
<trkpt lat="50.02093" lon="5.306069"><ele>339.61</ele><time>2025-05-25T13:30:02Z</time></trkpt>
<trkpt lat="50.020933" lon="5.305785"><ele>341.63</ele><time>2025-05-25T13:30:05Z</time></trkpt>
<trkpt lat="50.021165" lon="5.301062"><ele>330.39</ele><time>2025-05-25T13:30:07Z</time></trkpt>
<trkpt lat="50.021222" lon="5.300555"><ele>327.8</ele><time>2025-05-25T13:30:10Z</time></trkpt>
<trkpt lat="50.021277" lon="5.300213"><ele>328.44</ele><time>2025-05-25T13:30:12Z</time></trkpt>
<trkpt lat="50.021434" lon="5.29964"><ele>329.65</ele><time>2025-05-25T13:30:15Z</time></trkpt>
<trkpt lat="50.021575" lon="5.29925"><ele>329.48</ele><time>2025-05-25T13:30:17Z</time></trkpt>
<trkpt lat="50.021844" lon="5.298693"><ele>329.02</ele><time>2025-05-25T13:30:20Z</time></trkpt>
<trkpt lat="50.022303" lon="5.297949"><ele>329.39</ele><time>2025-05-25T13:30:22Z</time></trkpt>
<trkpt lat="50.02237" lon="5.297794"><ele>328.84</ele><time>2025-05-25T13:30:25Z</time></trkpt>
<trkpt lat="50.022425" lon="5.297605"><ele>328.71</ele><time>2025-05-25T13:30:27Z</time></trkpt>
<trkpt lat="50.022453" lon="5.297411"><ele>328.95</ele><time>2025-05-25T13:30:30Z</time></trkpt>
<trkpt lat="50.022449" lon="5.297183"><ele>329.75</ele><time>2025-05-25T13:30:32Z</time></trkpt>
<trkpt lat="50.022423" lon="5.297046"><ele>330.57</ele><time>2025-05-25T13:30:35Z</time></trkpt>
<trkpt lat="50.022328" lon="5.296762"><ele>331.25</ele><time>2025-05-25T13:30:37Z</time></trkpt>
<trkpt lat="50.022191" lon="5.296544"><ele>330.23</ele><time>2025-05-25T13:30:40Z</time></trkpt>
<trkpt lat="50.02211" lon="5.29645"><ele>329.84</ele><time>2025-05-25T13:30:42Z</time></trkpt>
<trkpt lat="50.021387" lon="5.295813"><ele>327.78</ele><time>2025-05-25T13:30:45Z</time></trkpt>
<trkpt lat="50.021173" lon="5.295587"><ele>326.8</ele><time>2025-05-25T13:30:47Z</time></trkpt>
<trkpt lat="50.021068" lon="5.295434"><ele>326.74</ele><time>2025-05-25T13:30:50Z</time></trkpt>
<trkpt lat="50.020874" lon="5.295046"><ele>326.75</ele><time>2025-05-25T13:30:52Z</time></trkpt>
<trkpt lat="50.020609" lon="5.294226"><ele>325.85</ele><time>2025-05-25T13:30:55Z</time></trkpt>
<trkpt lat="50.020536" lon="5.294072"><ele>325.82</ele><time>2025-05-25T13:30:57Z</time></trkpt>
<trkpt lat="50.020473" lon="5.293984"><ele>325.84</ele><time>2025-05-25T13:31:00Z</time></trkpt>
<trkpt lat="50.020339" lon="5.293869"><ele>325.56</ele><time>2025-05-25T13:31:02Z</time></trkpt>
<trkpt lat="50.020257" lon="5.293829"><ele>325.28</ele><time>2025-05-25T13:31:05Z</time></trkpt>
<trkpt lat="50.020157" lon="5.293815"><ele>324.76</ele><time>2025-05-25T13:31:07Z</time></trkpt>
<trkpt lat="50.019937" lon="5.293867"><ele>323.91</ele><time>2025-05-25T13:31:10Z</time></trkpt>
<trkpt lat="50.019422" lon="5.294124"><ele>323.31</ele><time>2025-05-25T13:31:12Z</time></trkpt>
<trkpt lat="50.01935" lon="5.294142"><ele>323.3</ele><time>2025-05-25T13:31:15Z</time></trkpt>
<trkpt lat="50.019227" lon="5.294089"><ele>322.1</ele><time>2025-05-25T13:31:17Z</time></trkpt>
<trkpt lat="50.019132" lon="5.293913"><ele>319.46</ele><time>2025-05-25T13:31:20Z</time></trkpt>
<trkpt lat="50.018993" lon="5.293508"><ele>319.62</ele><time>2025-05-25T13:31:22Z</time></trkpt>
<trkpt lat="50.019738" lon="5.292799"><ele>321.99</ele><time>2025-05-25T13:31:25Z</time></trkpt>
<trkpt lat="50.019926" lon="5.292694"><ele>321.94</ele><time>2025-05-25T13:31:27Z</time></trkpt>
<trkpt lat="50.020456" lon="5.292204"><ele>317.81</ele><time>2025-05-25T13:31:30Z</time></trkpt>
<trkpt lat="50.020733" lon="5.291802"><ele>315.44</ele><time>2025-05-25T13:31:33Z</time></trkpt>
<trkpt lat="50.021512" lon="5.290497"><ele>316.02</ele><time>2025-05-25T13:31:35Z</time></trkpt>
<trkpt lat="50.021579" lon="5.290311"><ele>315.67</ele><time>2025-05-25T13:31:38Z</time></trkpt>
<trkpt lat="50.021646" lon="5.290003"><ele>314.31</ele><time>2025-05-25T13:31:40Z</time></trkpt>
<trkpt lat="50.021699" lon="5.289543"><ele>315.0</ele><time>2025-05-25T13:31:43Z</time></trkpt>
<trkpt lat="50.021742" lon="5.289308"><ele>314.51</ele><time>2025-05-25T13:31:45Z</time></trkpt>
<trkpt lat="50.021833" lon="5.289004"><ele>313.65</ele><time>2025-05-25T13:31:48Z</time></trkpt>
<trkpt lat="50.022481" lon="5.287136"><ele>314.02</ele><time>2025-05-25T13:31:51Z</time></trkpt>
<trkpt lat="50.022622" lon="5.286615"><ele>314.82</ele><time>2025-05-25T13:31:53Z</time></trkpt>
<trkpt lat="50.022817" lon="5.286144"><ele>314.35</ele><time>2025-05-25T13:31:56Z</time></trkpt>
<trkpt lat="50.023161" lon="5.285486"><ele>312.3</ele><time>2025-05-25T13:31:58Z</time></trkpt>
<trkpt lat="50.0234" lon="5.284924"><ele>308.45</ele><time>2025-05-25T13:32:01Z</time></trkpt>
<trkpt lat="50.023512" lon="5.284585"><ele>307.07</ele><time>2025-05-25T13:32:04Z</time></trkpt>
<trkpt lat="50.023583" lon="5.284243"><ele>305.58</ele><time>2025-05-25T13:32:06Z</time></trkpt>
<trkpt lat="50.023611" lon="5.284028"><ele>305.0</ele><time>2025-05-25T13:32:09Z</time></trkpt>
<trkpt lat="50.023663" lon="5.28276"><ele>306.31</ele><time>2025-05-25T13:32:11Z</time></trkpt>
<trkpt lat="50.02364" lon="5.282575"><ele>307.31</ele><time>2025-05-25T13:32:14Z</time></trkpt>
<trkpt lat="50.02358" lon="5.282342"><ele>308.45</ele><time>2025-05-25T13:32:17Z</time></trkpt>
<trkpt lat="50.023514" lon="5.282185"><ele>309.08</ele><time>2025-05-25T13:32:19Z</time></trkpt>
<trkpt lat="50.023039" lon="5.281351"><ele>306.92</ele><time>2025-05-25T13:32:22Z</time></trkpt>
<trkpt lat="50.02289" lon="5.281206"><ele>306.55</ele><time>2025-05-25T13:32:24Z</time></trkpt>
<trkpt lat="50.022771" lon="5.281145"><ele>306.31</ele><time>2025-05-25T13:32:27Z</time></trkpt>
<trkpt lat="50.022627" lon="5.281121"><ele>307.68</ele><time>2025-05-25T13:32:30Z</time></trkpt>
<trkpt lat="50.022268" lon="5.281049"><ele>310.06</ele><time>2025-05-25T13:32:32Z</time></trkpt>
<trkpt lat="50.022192" lon="5.280956"><ele>311.48</ele><time>2025-05-25T13:32:35Z</time></trkpt>
<trkpt lat="50.022099" lon="5.280724"><ele>315.57</ele><time>2025-05-25T13:32:37Z</time></trkpt>
<trkpt lat="50.021971" lon="5.279698"><ele>318.95</ele><time>2025-05-25T13:32:40Z</time></trkpt>
<trkpt lat="50.021723" lon="5.27836"><ele>327.39</ele><time>2025-05-25T13:32:42Z</time></trkpt>
<trkpt lat="50.021635" lon="5.277755"><ele>337.0</ele><time>2025-05-25T13:32:45Z</time></trkpt>
<trkpt lat="50.021601" lon="5.277265"><ele>342.45</ele><time>2025-05-25T13:32:48Z</time></trkpt>
<trkpt lat="50.021723" lon="5.276092"><ele>348.09</ele><time>2025-05-25T13:32:50Z</time></trkpt>
<trkpt lat="50.021668" lon="5.27563"><ele>348.21</ele><time>2025-05-25T13:32:53Z</time></trkpt>
<trkpt lat="50.021477" lon="5.275122"><ele>347.1</ele><time>2025-05-25T13:32:55Z</time></trkpt>
<trkpt lat="50.021346" lon="5.274704"><ele>348.69</ele><time>2025-05-25T13:32:58Z</time></trkpt>
<trkpt lat="50.021257" lon="5.274261"><ele>353.54</ele><time>2025-05-25T13:33:01Z</time></trkpt>
<trkpt lat="50.021225" lon="5.273799"><ele>357.67</ele><time>2025-05-25T13:33:03Z</time></trkpt>
<trkpt lat="50.021281" lon="5.272932"><ele>362.24</ele><time>2025-05-25T13:33:06Z</time></trkpt>
<trkpt lat="50.021245" lon="5.271674"><ele>368.12</ele><time>2025-05-25T13:33:08Z</time></trkpt>
<trkpt lat="50.021323" lon="5.270796"><ele>368.0</ele><time>2025-05-25T13:33:11Z</time></trkpt>
<trkpt lat="50.021272" lon="5.27013"><ele>368.48</ele><time>2025-05-25T13:33:14Z</time></trkpt>
<trkpt lat="50.021101" lon="5.269535"><ele>374.49</ele><time>2025-05-25T13:33:16Z</time></trkpt>
<trkpt lat="50.020602" lon="5.268249"><ele>377.29</ele><time>2025-05-25T13:33:19Z</time></trkpt>
<trkpt lat="50.020439" lon="5.267963"><ele>377.59</ele><time>2025-05-25T13:33:21Z</time></trkpt>
<trkpt lat="50.020239" lon="5.267776"><ele>378.26</ele><time>2025-05-25T13:33:24Z</time></trkpt>
<trkpt lat="50.019343" lon="5.267395"><ele>382.71</ele><time>2025-05-25T13:33:26Z</time></trkpt>
<trkpt lat="50.01878" lon="5.266826"><ele>385.36</ele><time>2025-05-25T13:33:29Z</time></trkpt>
<trkpt lat="50.018746" lon="5.266759"><ele>385.36</ele><time>2025-05-25T13:33:32Z</time></trkpt>
<trkpt lat="50.018623" lon="5.266164"><ele>387.64</ele><time>2025-05-25T13:33:34Z</time></trkpt>
<trkpt lat="50.018588" lon="5.26587"><ele>389.04</ele><time>2025-05-25T13:33:37Z</time></trkpt>
<trkpt lat="50.018655" lon="5.265871"><ele>388.56</ele><time>2025-05-25T13:33:38Z</time></trkpt>
<trkpt lat="50.018655" lon="5.265871"><ele>388.56</ele><time>2025-05-25T13:33:38Z</time></trkpt>
<trkpt lat="50.018884" lon="5.265758"><ele>386.59</ele><time>2025-05-25T13:33:41Z</time></trkpt>
<trkpt lat="50.019062" lon="5.265702"><ele>385.07</ele><time>2025-05-25T13:33:44Z</time></trkpt>
<trkpt lat="50.019489" lon="5.265629"><ele>380.88</ele><time>2025-05-25T13:33:48Z</time></trkpt>
<trkpt lat="50.01986" lon="5.265535"><ele>377.3</ele><time>2025-05-25T13:33:51Z</time></trkpt>
<trkpt lat="50.020519" lon="5.265327"><ele>380.45</ele><time>2025-05-25T13:33:54Z</time></trkpt>
<trkpt lat="50.021001" lon="5.265286"><ele>375.92</ele><time>2025-05-25T13:33:58Z</time></trkpt>
<trkpt lat="50.021244" lon="5.265237"><ele>373.19</ele><time>2025-05-25T13:34:01Z</time></trkpt>
<trkpt lat="50.021394" lon="5.265121"><ele>372.48</ele><time>2025-05-25T13:34:04Z</time></trkpt>
<trkpt lat="50.022129" lon="5.264164"><ele>365.0</ele><time>2025-05-25T13:34:08Z</time></trkpt>
<trkpt lat="50.022626" lon="5.263338"><ele>364.99</ele><time>2025-05-25T13:34:11Z</time></trkpt>
<trkpt lat="50.022738" lon="5.263212"><ele>365.44</ele><time>2025-05-25T13:34:14Z</time></trkpt>
<trkpt lat="50.022912" lon="5.263143"><ele>365.69</ele><time>2025-05-25T13:34:18Z</time></trkpt>
<trkpt lat="50.023621" lon="5.263022"><ele>373.04</ele><time>2025-05-25T13:34:21Z</time></trkpt>
<trkpt lat="50.024557" lon="5.262713"><ele>378.09</ele><time>2025-05-25T13:34:24Z</time></trkpt>
<trkpt lat="50.025393" lon="5.262445"><ele>377.98</ele><time>2025-05-25T13:34:28Z</time></trkpt>
<trkpt lat="50.025775" lon="5.262279"><ele>378.12</ele><time>2025-05-25T13:34:31Z</time></trkpt>
<trkpt lat="50.026005" lon="5.262138"><ele>376.45</ele><time>2025-05-25T13:34:34Z</time></trkpt>
<trkpt lat="50.026168" lon="5.262002"><ele>375.1</ele><time>2025-05-25T13:34:38Z</time></trkpt>
<trkpt lat="50.026286" lon="5.261844"><ele>374.7</ele><time>2025-05-25T13:34:41Z</time></trkpt>
<trkpt lat="50.026824" lon="5.261002"><ele>375.0</ele><time>2025-05-25T13:34:44Z</time></trkpt>
<trkpt lat="50.026882" lon="5.260852"><ele>375.87</ele><time>2025-05-25T13:34:48Z</time></trkpt>
<trkpt lat="50.026921" lon="5.260544"><ele>379.41</ele><time>2025-05-25T13:34:51Z</time></trkpt>
<trkpt lat="50.026909" lon="5.259934"><ele>387.11</ele><time>2025-05-25T13:34:54Z</time></trkpt>
<trkpt lat="50.026923" lon="5.259544"><ele>387.92</ele><time>2025-05-25T13:34:58Z</time></trkpt>
<trkpt lat="50.027235" lon="5.257771"><ele>387.95</ele><time>2025-05-25T13:35:01Z</time></trkpt>
<trkpt lat="50.027318" lon="5.257476"><ele>389.45</ele><time>2025-05-25T13:35:04Z</time></trkpt>
<trkpt lat="50.027445" lon="5.257164"><ele>389.98</ele><time>2025-05-25T13:35:08Z</time></trkpt>
<trkpt lat="50.027631" lon="5.256788"><ele>388.27</ele><time>2025-05-25T13:35:11Z</time></trkpt>
<trkpt lat="50.028201" lon="5.255873"><ele>372.48</ele><time>2025-05-25T13:35:14Z</time></trkpt>
<trkpt lat="50.028368" lon="5.255516"><ele>367.89</ele><time>2025-05-25T13:35:18Z</time></trkpt>
<trkpt lat="50.028934" lon="5.253945"><ele>376.12</ele><time>2025-05-25T13:35:21Z</time></trkpt>
<trkpt lat="50.029143" lon="5.253587"><ele>380.18</ele><time>2025-05-25T13:35:24Z</time></trkpt>
<trkpt lat="50.02942" lon="5.253207"><ele>381.08</ele><time>2025-05-25T13:35:28Z</time></trkpt>
<trkpt lat="50.02961" lon="5.252889"><ele>382.24</ele><time>2025-05-25T13:35:31Z</time></trkpt>
<trkpt lat="50.029834" lon="5.252346"><ele>382.58</ele><time>2025-05-25T13:35:34Z</time></trkpt>
<trkpt lat="50.02998" lon="5.252085"><ele>383.1</ele><time>2025-05-25T13:35:38Z</time></trkpt>
<trkpt lat="50.030118" lon="5.251923"><ele>382.41</ele><time>2025-05-25T13:35:41Z</time></trkpt>
<trkpt lat="50.030245" lon="5.251823"><ele>381.3</ele><time>2025-05-25T13:35:44Z</time></trkpt>
<trkpt lat="50.030486" lon="5.251719"><ele>381.01</ele><time>2025-05-25T13:35:48Z</time></trkpt>
<trkpt lat="50.030486" lon="5.251719"><ele>381.01</ele><time>2025-05-25T13:35:48Z</time></trkpt>
<trkpt lat="50.030658" lon="5.251667"><ele>381.36</ele><time>2025-05-25T13:35:49Z</time></trkpt>
<trkpt lat="50.030915" lon="5.251631"><ele>382.46</ele><time>2025-05-25T13:35:51Z</time></trkpt>
<trkpt lat="50.031123" lon="5.251627"><ele>383.37</ele><time>2025-05-25T13:35:52Z</time></trkpt>
<trkpt lat="50.031389" lon="5.251682"><ele>384.95</ele><time>2025-05-25T13:35:54Z</time></trkpt>
<trkpt lat="50.031664" lon="5.251774"><ele>384.61</ele><time>2025-05-25T13:35:56Z</time></trkpt>
<trkpt lat="50.032161" lon="5.25203"><ele>386.92</ele><time>2025-05-25T13:35:57Z</time></trkpt>
<trkpt lat="50.032475" lon="5.252148"><ele>385.56</ele><time>2025-05-25T13:35:59Z</time></trkpt>
<trkpt lat="50.032761" lon="5.252175"><ele>386.28</ele><time>2025-05-25T13:36:00Z</time></trkpt>
<trkpt lat="50.033025" lon="5.252142"><ele>387.21</ele><time>2025-05-25T13:36:02Z</time></trkpt>
<trkpt lat="50.033346" lon="5.252014"><ele>387.03</ele><time>2025-05-25T13:36:03Z</time></trkpt>
<trkpt lat="50.033713" lon="5.251796"><ele>388.2</ele><time>2025-05-25T13:36:05Z</time></trkpt>
<trkpt lat="50.033876" lon="5.251724"><ele>388.76</ele><time>2025-05-25T13:36:07Z</time></trkpt>
<trkpt lat="50.034264" lon="5.251657"><ele>388.68</ele><time>2025-05-25T13:36:08Z</time></trkpt>
<trkpt lat="50.034435" lon="5.251664"><ele>388.04</ele><time>2025-05-25T13:36:10Z</time></trkpt>
<trkpt lat="50.034761" lon="5.251737"><ele>388.0</ele><time>2025-05-25T13:36:11Z</time></trkpt>
<trkpt lat="50.034916" lon="5.251825"><ele>388.0</ele><time>2025-05-25T13:36:13Z</time></trkpt>
<trkpt lat="50.035371" lon="5.25223"><ele>386.66</ele><time>2025-05-25T13:36:14Z</time></trkpt>
<trkpt lat="50.035737" lon="5.252442"><ele>386.14</ele><time>2025-05-25T13:36:16Z</time></trkpt>
<trkpt lat="50.035929" lon="5.252506"><ele>385.98</ele><time>2025-05-25T13:36:18Z</time></trkpt>
<trkpt lat="50.036245" lon="5.252566"><ele>386.24</ele><time>2025-05-25T13:36:19Z</time></trkpt>
<trkpt lat="50.036454" lon="5.252568"><ele>387.46</ele><time>2025-05-25T13:36:21Z</time></trkpt>
<trkpt lat="50.036757" lon="5.252519"><ele>390.58</ele><time>2025-05-25T13:36:22Z</time></trkpt>
<trkpt lat="50.036978" lon="5.252451"><ele>392.0</ele><time>2025-05-25T13:36:24Z</time></trkpt>
<trkpt lat="50.037292" lon="5.252261"><ele>392.75</ele><time>2025-05-25T13:36:26Z</time></trkpt>
<trkpt lat="50.037416" lon="5.252222"><ele>394.09</ele><time>2025-05-25T13:36:27Z</time></trkpt>
<trkpt lat="50.037467" lon="5.252231"><ele>394.65</ele><time>2025-05-25T13:36:29Z</time></trkpt>
<trkpt lat="50.037812" lon="5.252504"><ele>396.98</ele><time>2025-05-25T13:36:30Z</time></trkpt>
<trkpt lat="50.037932" lon="5.252548"><ele>396.83</ele><time>2025-05-25T13:36:32Z</time></trkpt>
<trkpt lat="50.038083" lon="5.252575"><ele>397.02</ele><time>2025-05-25T13:36:33Z</time></trkpt>
<trkpt lat="50.038349" lon="5.25255"><ele>400.04</ele><time>2025-05-25T13:36:35Z</time></trkpt>
<trkpt lat="50.038765" lon="5.252564"><ele>405.2</ele><time>2025-05-25T13:36:37Z</time></trkpt>
<trkpt lat="50.03893" lon="5.252671"><ele>406.15</ele><time>2025-05-25T13:36:38Z</time></trkpt>
<trkpt lat="50.039192" lon="5.255004"><ele>397.15</ele><time>2025-05-25T13:36:44Z</time></trkpt>
<trkpt lat="50.039202" lon="5.255445"><ele>394.05</ele><time>2025-05-25T13:36:50Z</time></trkpt>
<trkpt lat="50.039144" lon="5.260031"><ele>378.92</ele><time>2025-05-25T13:36:56Z</time></trkpt>
<trkpt lat="50.039154" lon="5.260703"><ele>378.95</ele><time>2025-05-25T13:37:03Z</time></trkpt>
<trkpt lat="50.039246" lon="5.26138"><ele>378.34</ele><time>2025-05-25T13:37:09Z</time></trkpt>
<trkpt lat="50.039365" lon="5.261924"><ele>374.58</ele><time>2025-05-25T13:37:15Z</time></trkpt>
<trkpt lat="50.039569" lon="5.263117"><ele>368.11</ele><time>2025-05-25T13:37:21Z</time></trkpt>
<trkpt lat="50.039806" lon="5.264233"><ele>364.15</ele><time>2025-05-25T13:37:27Z</time></trkpt>
<trkpt lat="50.039881" lon="5.264436"><ele>362.89</ele><time>2025-05-25T13:37:33Z</time></trkpt>
<trkpt lat="50.040016" lon="5.26449"><ele>361.22</ele><time>2025-05-25T13:37:39Z</time></trkpt>
<trkpt lat="50.040312" lon="5.264368"><ele>356.97</ele><time>2025-05-25T13:37:45Z</time></trkpt>
<trkpt lat="50.0407" lon="5.264064"><ele>356.42</ele><time>2025-05-25T13:37:52Z</time></trkpt>
<trkpt lat="50.040955" lon="5.263788"><ele>355.58</ele><time>2025-05-25T13:37:58Z</time></trkpt>
<trkpt lat="50.041178" lon="5.263504"><ele>351.61</ele><time>2025-05-25T13:38:04Z</time></trkpt>
<trkpt lat="50.041448" lon="5.262952"><ele>349.37</ele><time>2025-05-25T13:38:10Z</time></trkpt>
<trkpt lat="50.04162" lon="5.262705"><ele>347.92</ele><time>2025-05-25T13:38:16Z</time></trkpt>
<trkpt lat="50.04172" lon="5.262439"><ele>348.5</ele><time>2025-05-25T13:38:22Z</time></trkpt>
<trkpt lat="50.041797" lon="5.261999"><ele>350.42</ele><time>2025-05-25T13:38:28Z</time></trkpt>
<trkpt lat="50.041886" lon="5.260652"><ele>348.48</ele><time>2025-05-25T13:38:34Z</time></trkpt>
<trkpt lat="50.041942" lon="5.260065"><ele>348.62</ele><time>2025-05-25T13:38:41Z</time></trkpt>
<trkpt lat="50.041937" lon="5.259862"><ele>350.69</ele><time>2025-05-25T13:38:47Z</time></trkpt>
<trkpt lat="50.041963" lon="5.259694"><ele>352.1</ele><time>2025-05-25T13:38:53Z</time></trkpt>
<trkpt lat="50.041997" lon="5.259635"><ele>352.36</ele><time>2025-05-25T13:38:59Z</time></trkpt>
<trkpt lat="50.042043" lon="5.259603"><ele>352.22</ele><time>2025-05-25T13:39:05Z</time></trkpt>
<trkpt lat="50.042142" lon="5.259639"><ele>350.76</ele><time>2025-05-25T13:39:11Z</time></trkpt>
<trkpt lat="50.042265" lon="5.259811"><ele>347.71</ele><time>2025-05-25T13:39:17Z</time></trkpt>
<trkpt lat="50.042493" lon="5.260394"><ele>339.35</ele><time>2025-05-25T13:39:23Z</time></trkpt>
<trkpt lat="50.042717" lon="5.261278"><ele>332.43</ele><time>2025-05-25T13:39:29Z</time></trkpt>
<trkpt lat="50.042788" lon="5.261419"><ele>330.57</ele><time>2025-05-25T13:39:36Z</time></trkpt>
<trkpt lat="50.043182" lon="5.261834"><ele>327.14</ele><time>2025-05-25T13:39:42Z</time></trkpt>
<trkpt lat="50.04401" lon="5.262834"><ele>311.91</ele><time>2025-05-25T13:39:48Z</time></trkpt>
<trkpt lat="50.044131" lon="5.262927"><ele>311.47</ele><time>2025-05-25T13:39:54Z</time></trkpt>
<trkpt lat="50.045004" lon="5.263125"><ele>311.03</ele><time>2025-05-25T13:40:00Z</time></trkpt>
<trkpt lat="50.04526" lon="5.26325"><ele>307.83</ele><time>2025-05-25T13:40:06Z</time></trkpt>
<trkpt lat="50.045592" lon="5.263467"><ele>306.11</ele><time>2025-05-25T13:40:12Z</time></trkpt>
<trkpt lat="50.04619" lon="5.26391"><ele>295.27</ele><time>2025-05-25T13:40:18Z</time></trkpt>
<trkpt lat="50.047459" lon="5.264972"><ele>294.42</ele><time>2025-05-25T13:40:25Z</time></trkpt>
<trkpt lat="50.048034" lon="5.265308"><ele>292.44</ele><time>2025-05-25T13:40:31Z</time></trkpt>
<trkpt lat="50.048427" lon="5.265637"><ele>286.26</ele><time>2025-05-25T13:40:37Z</time></trkpt>
<trkpt lat="50.048817" lon="5.265908"><ele>284.5</ele><time>2025-05-25T13:40:43Z</time></trkpt>
<trkpt lat="50.049126" lon="5.266031"><ele>285.49</ele><time>2025-05-25T13:40:49Z</time></trkpt>
<trkpt lat="50.049126" lon="5.266031"><ele>285.49</ele><time>2025-05-25T13:40:49Z</time></trkpt>
<trkpt lat="50.049549" lon="5.266051"><ele>287.19</ele><time>2025-05-25T13:40:54Z</time></trkpt>
<trkpt lat="50.050033" lon="5.265966"><ele>289.77</ele><time>2025-05-25T13:40:57Z</time></trkpt>
<trkpt lat="50.050234" lon="5.265707"><ele>294.42</ele><time>2025-05-25T13:41:01Z</time></trkpt>
<trkpt lat="50.050391" lon="5.265536"><ele>294.32</ele><time>2025-05-25T13:41:04Z</time></trkpt>
<trkpt lat="50.050434" lon="5.265516"><ele>293.61</ele><time>2025-05-25T13:41:08Z</time></trkpt>
<trkpt lat="50.050485" lon="5.265545"><ele>291.32</ele><time>2025-05-25T13:41:11Z</time></trkpt>
<trkpt lat="50.050662" lon="5.265862"><ele>283.71</ele><time>2025-05-25T13:41:14Z</time></trkpt>
<trkpt lat="50.050801" lon="5.265905"><ele>280.78</ele><time>2025-05-25T13:41:18Z</time></trkpt>
<trkpt lat="50.051098" lon="5.265813"><ele>279.31</ele><time>2025-05-25T13:41:21Z</time></trkpt>
<trkpt lat="50.051266" lon="5.265715"><ele>282.43</ele><time>2025-05-25T13:41:25Z</time></trkpt>
<trkpt lat="50.051594" lon="5.265425"><ele>288.66</ele><time>2025-05-25T13:41:28Z</time></trkpt>
<trkpt lat="50.052217" lon="5.265032"><ele>286.64</ele><time>2025-05-25T13:41:31Z</time></trkpt>
<trkpt lat="50.052524" lon="5.264661"><ele>283.93</ele><time>2025-05-25T13:41:35Z</time></trkpt>
<trkpt lat="50.052755" lon="5.264326"><ele>280.84</ele><time>2025-05-25T13:41:38Z</time></trkpt>
<trkpt lat="50.052846" lon="5.264114"><ele>279.63</ele><time>2025-05-25T13:41:42Z</time></trkpt>
<trkpt lat="50.052894" lon="5.263883"><ele>279.34</ele><time>2025-05-25T13:41:45Z</time></trkpt>
<trkpt lat="50.052959" lon="5.262758"><ele>277.98</ele><time>2025-05-25T13:41:49Z</time></trkpt>
<trkpt lat="50.053025" lon="5.262467"><ele>275.42</ele><time>2025-05-25T13:41:52Z</time></trkpt>
<trkpt lat="50.053161" lon="5.26206"><ele>272.08</ele><time>2025-05-25T13:41:55Z</time></trkpt>
<trkpt lat="50.053365" lon="5.261588"><ele>267.86</ele><time>2025-05-25T13:41:59Z</time></trkpt>
<trkpt lat="50.053798" lon="5.260717"><ele>275.42</ele><time>2025-05-25T13:42:02Z</time></trkpt>
<trkpt lat="50.053832" lon="5.260488"><ele>278.3</ele><time>2025-05-25T13:42:06Z</time></trkpt>
<trkpt lat="50.05381" lon="5.260276"><ele>280.46</ele><time>2025-05-25T13:42:09Z</time></trkpt>
<trkpt lat="50.053713" lon="5.259863"><ele>281.47</ele><time>2025-05-25T13:42:12Z</time></trkpt>
<trkpt lat="50.053648" lon="5.259413"><ele>282.91</ele><time>2025-05-25T13:42:16Z</time></trkpt>
<trkpt lat="50.053562" lon="5.2585"><ele>290.08</ele><time>2025-05-25T13:42:19Z</time></trkpt>
<trkpt lat="50.053469" lon="5.256534"><ele>288.59</ele><time>2025-05-25T13:42:23Z</time></trkpt>
<trkpt lat="50.053447" lon="5.256327"><ele>288.83</ele><time>2025-05-25T13:42:26Z</time></trkpt>
<trkpt lat="50.053356" lon="5.255841"><ele>286.86</ele><time>2025-05-25T13:42:29Z</time></trkpt>
<trkpt lat="50.053313" lon="5.255431"><ele>283.15</ele><time>2025-05-25T13:42:33Z</time></trkpt>
<trkpt lat="50.05332" lon="5.255165"><ele>279.0</ele><time>2025-05-25T13:42:36Z</time></trkpt>
<trkpt lat="50.053373" lon="5.254981"><ele>277.83</ele><time>2025-05-25T13:42:40Z</time></trkpt>
<trkpt lat="50.053435" lon="5.254872"><ele>277.57</ele><time>2025-05-25T13:42:43Z</time></trkpt>
<trkpt lat="50.053479" lon="5.254842"><ele>278.02</ele><time>2025-05-25T13:42:46Z</time></trkpt>
<trkpt lat="50.053531" lon="5.25482"><ele>278.71</ele><time>2025-05-25T13:42:50Z</time></trkpt>
<trkpt lat="50.053583" lon="5.254845"><ele>280.45</ele><time>2025-05-25T13:42:53Z</time></trkpt>
<trkpt lat="50.053583" lon="5.254845"><ele>280.45</ele><time>2025-05-25T13:42:53Z</time></trkpt>
<trkpt lat="50.053666" lon="5.254965"><ele>284.45</ele><time>2025-05-25T13:42:57Z</time></trkpt>
<trkpt lat="50.05385" lon="5.255319"><ele>295.73</ele><time>2025-05-25T13:43:00Z</time></trkpt>
<trkpt lat="50.054392" lon="5.256006"><ele>307.38</ele><time>2025-05-25T13:43:04Z</time></trkpt>
<trkpt lat="50.054488" lon="5.256115"><ele>309.46</ele><time>2025-05-25T13:43:07Z</time></trkpt>
<trkpt lat="50.054958" lon="5.256468"><ele>311.89</ele><time>2025-05-25T13:43:11Z</time></trkpt>
<trkpt lat="50.055126" lon="5.25666"><ele>315.09</ele><time>2025-05-25T13:43:14Z</time></trkpt>
<trkpt lat="50.055284" lon="5.256907"><ele>315.9</ele><time>2025-05-25T13:43:18Z</time></trkpt>
<trkpt lat="50.055458" lon="5.257226"><ele>316.53</ele><time>2025-05-25T13:43:21Z</time></trkpt>
<trkpt lat="50.055665" lon="5.25751"><ele>313.78</ele><time>2025-05-25T13:43:25Z</time></trkpt>
<trkpt lat="50.055917" lon="5.257935"><ele>313.84</ele><time>2025-05-25T13:43:28Z</time></trkpt>
<trkpt lat="50.05599" lon="5.258016"><ele>313.15</ele><time>2025-05-25T13:43:32Z</time></trkpt>
<trkpt lat="50.056653" lon="5.258275"><ele>308.01</ele><time>2025-05-25T13:43:35Z</time></trkpt>
<trkpt lat="50.056902" lon="5.258484"><ele>307.0</ele><time>2025-05-25T13:43:39Z</time></trkpt>
<trkpt lat="50.056962" lon="5.258508"><ele>306.09</ele><time>2025-05-25T13:43:42Z</time></trkpt>
<trkpt lat="50.056998" lon="5.258748"><ele>305.66</ele><time>2025-05-25T13:43:44Z</time></trkpt>
<trkpt lat="50.056963" lon="5.258889"><ele>307.33</ele><time>2025-05-25T13:43:45Z</time></trkpt>
<trkpt lat="50.056768" lon="5.259283"><ele>306.91</ele><time>2025-05-25T13:43:46Z</time></trkpt>
<trkpt lat="50.056712" lon="5.259632"><ele>305.78</ele><time>2025-05-25T13:43:48Z</time></trkpt>
<trkpt lat="50.056686" lon="5.260061"><ele>304.87</ele><time>2025-05-25T13:43:49Z</time></trkpt>
<trkpt lat="50.056624" lon="5.26037"><ele>305.77</ele><time>2025-05-25T13:43:51Z</time></trkpt>
<trkpt lat="50.056499" lon="5.260775"><ele>309.44</ele><time>2025-05-25T13:43:52Z</time></trkpt>
<trkpt lat="50.056237" lon="5.261319"><ele>316.28</ele><time>2025-05-25T13:43:54Z</time></trkpt>
<trkpt lat="50.056127" lon="5.261455"><ele>318.3</ele><time>2025-05-25T13:43:55Z</time></trkpt>
<trkpt lat="50.055792" lon="5.261679"><ele>319.05</ele><time>2025-05-25T13:43:57Z</time></trkpt>
<trkpt lat="50.056192" lon="5.263512"><ele>322.41</ele><time>2025-05-25T13:44:00Z</time></trkpt>
<trkpt lat="50.057077" lon="5.264404"><ele>321.81</ele><time>2025-05-25T13:44:04Z</time></trkpt>
<trkpt lat="50.057976" lon="5.265262"><ele>320.8</ele><time>2025-05-25T13:44:07Z</time></trkpt>
<trkpt lat="50.058485" lon="5.265859"><ele>320.64</ele><time>2025-05-25T13:44:11Z</time></trkpt>
<trkpt lat="50.059937" lon="5.267873"><ele>323.75</ele><time>2025-05-25T13:44:14Z</time></trkpt>
<trkpt lat="50.060253" lon="5.26837"><ele>321.94</ele><time>2025-05-25T13:44:18Z</time></trkpt>
<trkpt lat="50.060964" lon="5.26979"><ele>320.45</ele><time>2025-05-25T13:44:21Z</time></trkpt>
<trkpt lat="50.061333" lon="5.270809"><ele>325.9</ele><time>2025-05-25T13:44:25Z</time></trkpt>
<trkpt lat="50.061631" lon="5.27191"><ele>334.61</ele><time>2025-05-25T13:44:28Z</time></trkpt>
<trkpt lat="50.061822" lon="5.272775"><ele>332.62</ele><time>2025-05-25T13:44:32Z</time></trkpt>
<trkpt lat="50.061891" lon="5.273405"><ele>335.2</ele><time>2025-05-25T13:44:35Z</time></trkpt>
<trkpt lat="50.061836" lon="5.274371"><ele>342.93</ele><time>2025-05-25T13:44:39Z</time></trkpt>
<trkpt lat="50.061843" lon="5.274709"><ele>346.06</ele><time>2025-05-25T13:44:42Z</time></trkpt>
<trkpt lat="50.06189" lon="5.275158"><ele>347.6</ele><time>2025-05-25T13:44:46Z</time></trkpt>
<trkpt lat="50.062615" lon="5.279456"><ele>348.61</ele><time>2025-05-25T13:44:50Z</time></trkpt>
<trkpt lat="50.062706" lon="5.27981"><ele>348.45</ele><time>2025-05-25T13:44:53Z</time></trkpt>
<trkpt lat="50.06278" lon="5.280003"><ele>347.03</ele><time>2025-05-25T13:44:57Z</time></trkpt>
<trkpt lat="50.063124" lon="5.280744"><ele>351.51</ele><time>2025-05-25T13:45:00Z</time></trkpt>
<trkpt lat="50.063885" lon="5.282256"><ele>361.02</ele><time>2025-05-25T13:45:04Z</time></trkpt>
<trkpt lat="50.064056" lon="5.282466"><ele>361.0</ele><time>2025-05-25T13:45:07Z</time></trkpt>
<trkpt lat="50.064634" lon="5.282891"><ele>361.77</ele><time>2025-05-25T13:45:11Z</time></trkpt>
<trkpt lat="50.065104" lon="5.283148"><ele>364.25</ele><time>2025-05-25T13:45:14Z</time></trkpt>
<trkpt lat="50.065288" lon="5.283218"><ele>364.38</ele><time>2025-05-25T13:45:18Z</time></trkpt>
<trkpt lat="50.065632" lon="5.283279"><ele>362.86</ele><time>2025-05-25T13:45:21Z</time></trkpt>
<trkpt lat="50.066241" lon="5.283249"><ele>360.67</ele><time>2025-05-25T13:45:25Z</time></trkpt>
<trkpt lat="50.066394" lon="5.283288"><ele>360.16</ele><time>2025-05-25T13:45:28Z</time></trkpt>
<trkpt lat="50.06664" lon="5.283421"><ele>360.03</ele><time>2025-05-25T13:45:32Z</time></trkpt>
<trkpt lat="50.066938" lon="5.283715"><ele>358.41</ele><time>2025-05-25T13:45:35Z</time></trkpt>
<trkpt lat="50.067827" lon="5.284825"><ele>354.32</ele><time>2025-05-25T13:45:39Z</time></trkpt>
<trkpt lat="50.067912" lon="5.284977"><ele>354.42</ele><time>2025-05-25T13:45:42Z</time></trkpt>
<trkpt lat="50.067969" lon="5.285121"><ele>354.07</ele><time>2025-05-25T13:45:46Z</time></trkpt>
<trkpt lat="50.068131" lon="5.285792"><ele>353.18</ele><time>2025-05-25T13:45:49Z</time></trkpt>
<trkpt lat="50.068331" lon="5.28628"><ele>353.23</ele><time>2025-05-25T13:45:53Z</time></trkpt>
<trkpt lat="50.068613" lon="5.2868"><ele>352.9</ele><time>2025-05-25T13:45:56Z</time></trkpt>
<trkpt lat="50.069057" lon="5.287546"><ele>344.89</ele><time>2025-05-25T13:46:00Z</time></trkpt>
<trkpt lat="50.069471" lon="5.28835"><ele>338.33</ele><time>2025-05-25T13:46:04Z</time></trkpt>
<trkpt lat="50.06966" lon="5.288887"><ele>330.48</ele><time>2025-05-25T13:46:07Z</time></trkpt>
<trkpt lat="50.06976" lon="5.289386"><ele>323.61</ele><time>2025-05-25T13:46:11Z</time></trkpt>
<trkpt lat="50.069891" lon="5.290437"><ele>326.51</ele><time>2025-05-25T13:46:14Z</time></trkpt>
<trkpt lat="50.070057" lon="5.291277"><ele>325.88</ele><time>2025-05-25T13:46:18Z</time></trkpt>
<trkpt lat="50.070197" lon="5.291919"><ele>317.06</ele><time>2025-05-25T13:46:21Z</time></trkpt>
<trkpt lat="50.070283" lon="5.292395"><ele>312.39</ele><time>2025-05-25T13:46:25Z</time></trkpt>
<trkpt lat="50.070354" lon="5.29301"><ele>309.54</ele><time>2025-05-25T13:46:28Z</time></trkpt>
<trkpt lat="50.071023" lon="5.294303"><ele>302.35</ele><time>2025-05-25T13:46:32Z</time></trkpt>
<trkpt lat="50.071159" lon="5.294607"><ele>301.93</ele><time>2025-05-25T13:46:35Z</time></trkpt>
<trkpt lat="50.071211" lon="5.294785"><ele>302.23</ele><time>2025-05-25T13:46:39Z</time></trkpt>
<trkpt lat="50.07124" lon="5.294933"><ele>302.76</ele><time>2025-05-25T13:46:42Z</time></trkpt>
<trkpt lat="50.071305" lon="5.29609"><ele>306.28</ele><time>2025-05-25T13:46:46Z</time></trkpt>
<trkpt lat="50.07148" lon="5.299131"><ele>323.29</ele><time>2025-05-25T13:46:49Z</time></trkpt>
<trkpt lat="50.071535" lon="5.299605"><ele>325.38</ele><time>2025-05-25T13:46:53Z</time></trkpt>
<trkpt lat="50.07158" lon="5.299851"><ele>326.93</ele><time>2025-05-25T13:46:56Z</time></trkpt>
<trkpt lat="50.07172" lon="5.300295"><ele>329.5</ele><time>2025-05-25T13:47:00Z</time></trkpt>
<trkpt lat="50.07188" lon="5.300717"><ele>332.35</ele><time>2025-05-25T13:47:03Z</time></trkpt>
<trkpt lat="50.072067" lon="5.301092"><ele>333.93</ele><time>2025-05-25T13:47:07Z</time></trkpt>
<trkpt lat="50.072163" lon="5.301233"><ele>334.44</ele><time>2025-05-25T13:47:11Z</time></trkpt>
<trkpt lat="50.072773" lon="5.301858"><ele>334.03</ele><time>2025-05-25T13:47:14Z</time></trkpt>
<trkpt lat="50.073216" lon="5.302382"><ele>331.85</ele><time>2025-05-25T13:47:18Z</time></trkpt>
<trkpt lat="50.073283" lon="5.30252"><ele>331.43</ele><time>2025-05-25T13:47:21Z</time></trkpt>
<trkpt lat="50.073333" lon="5.302728"><ele>331.82</ele><time>2025-05-25T13:47:25Z</time></trkpt>
<trkpt lat="50.073369" lon="5.303041"><ele>332.56</ele><time>2025-05-25T13:47:28Z</time></trkpt>
<trkpt lat="50.073379" lon="5.303315"><ele>334.38</ele><time>2025-05-25T13:47:32Z</time></trkpt>
<trkpt lat="50.073411" lon="5.303455"><ele>334.6</ele><time>2025-05-25T13:47:35Z</time></trkpt>
<trkpt lat="50.073457" lon="5.303572"><ele>334.52</ele><time>2025-05-25T13:47:39Z</time></trkpt>
<trkpt lat="50.073697" lon="5.303939"><ele>335.18</ele><time>2025-05-25T13:47:42Z</time></trkpt>
<trkpt lat="50.073786" lon="5.304139"><ele>335.9</ele><time>2025-05-25T13:47:46Z</time></trkpt>
<trkpt lat="50.073889" lon="5.304574"><ele>337.47</ele><time>2025-05-25T13:47:49Z</time></trkpt>
<trkpt lat="50.074251" lon="5.305866"><ele>344.89</ele><time>2025-05-25T13:47:53Z</time></trkpt>
<trkpt lat="50.074517" lon="5.30655"><ele>344.76</ele><time>2025-05-25T13:47:56Z</time></trkpt>
<trkpt lat="50.074563" lon="5.306646"><ele>343.93</ele><time>2025-05-25T13:48:00Z</time></trkpt>
<trkpt lat="50.074645" lon="5.306917"><ele>344.14</ele><time>2025-05-25T13:48:03Z</time></trkpt>
<trkpt lat="50.074857" lon="5.307776"><ele>348.02</ele><time>2025-05-25T13:48:07Z</time></trkpt>
<trkpt lat="50.074986" lon="5.308401"><ele>349.02</ele><time>2025-05-25T13:48:10Z</time></trkpt>
<trkpt lat="50.074999" lon="5.308639"><ele>349.11</ele><time>2025-05-25T13:48:14Z</time></trkpt>
<trkpt lat="50.074992" lon="5.308894"><ele>350.12</ele><time>2025-05-25T13:48:17Z</time></trkpt>
<trkpt lat="50.074875" lon="5.310836"><ele>358.9</ele><time>2025-05-25T13:48:21Z</time></trkpt>
<trkpt lat="50.074901" lon="5.31103"><ele>358.71</ele><time>2025-05-25T13:48:25Z</time></trkpt>
<trkpt lat="50.07518" lon="5.311953"><ele>355.67</ele><time>2025-05-25T13:48:28Z</time></trkpt>
<trkpt lat="50.075232" lon="5.31219"><ele>354.45</ele><time>2025-05-25T13:48:32Z</time></trkpt>
<trkpt lat="50.075276" lon="5.312696"><ele>350.61</ele><time>2025-05-25T13:48:35Z</time></trkpt>
<trkpt lat="50.075306" lon="5.313455"><ele>346.0</ele><time>2025-05-25T13:48:39Z</time></trkpt>
<trkpt lat="50.075356" lon="5.314035"><ele>345.0</ele><time>2025-05-25T13:48:42Z</time></trkpt>
<trkpt lat="50.075696" lon="5.316073"><ele>350.23</ele><time>2025-05-25T13:48:46Z</time></trkpt>
<trkpt lat="50.075784" lon="5.316477"><ele>353.27</ele><time>2025-05-25T13:48:49Z</time></trkpt>
<trkpt lat="50.07594" lon="5.31705"><ele>357.15</ele><time>2025-05-25T13:48:53Z</time></trkpt>
<trkpt lat="50.076113" lon="5.317544"><ele>360.35</ele><time>2025-05-25T13:48:56Z</time></trkpt>
<trkpt lat="50.076254" lon="5.31782"><ele>364.28</ele><time>2025-05-25T13:49:00Z</time></trkpt>
<trkpt lat="50.076625" lon="5.31842"><ele>371.55</ele><time>2025-05-25T13:49:03Z</time></trkpt>
<trkpt lat="50.077636" lon="5.319534"><ele>381.64</ele><time>2025-05-25T13:49:07Z</time></trkpt>
<trkpt lat="50.078232" lon="5.320069"><ele>385.0</ele><time>2025-05-25T13:49:10Z</time></trkpt>
<trkpt lat="50.078546" lon="5.320434"><ele>383.9</ele><time>2025-05-25T13:49:14Z</time></trkpt>
<trkpt lat="50.078805" lon="5.320794"><ele>383.3</ele><time>2025-05-25T13:49:17Z</time></trkpt>
<trkpt lat="50.079036" lon="5.321186"><ele>383.53</ele><time>2025-05-25T13:49:21Z</time></trkpt>
<trkpt lat="50.079155" lon="5.321444"><ele>383.97</ele><time>2025-05-25T13:49:24Z</time></trkpt>
<trkpt lat="50.079299" lon="5.321825"><ele>382.27</ele><time>2025-05-25T13:49:28Z</time></trkpt>
<trkpt lat="50.080085" lon="5.324007"><ele>371.52</ele><time>2025-05-25T13:49:31Z</time></trkpt>
<trkpt lat="50.080326" lon="5.324539"><ele>371.94</ele><time>2025-05-25T13:49:35Z</time></trkpt>
<trkpt lat="50.080663" lon="5.325182"><ele>368.05</ele><time>2025-05-25T13:49:39Z</time></trkpt>
<trkpt lat="50.080759" lon="5.325307"><ele>366.78</ele><time>2025-05-25T13:49:42Z</time></trkpt>
<trkpt lat="50.080847" lon="5.325387"><ele>365.95</ele><time>2025-05-25T13:49:46Z</time></trkpt>
<trkpt lat="50.081018" lon="5.32547"><ele>365.33</ele><time>2025-05-25T13:49:49Z</time></trkpt>
<trkpt lat="50.081128" lon="5.325492"><ele>364.95</ele><time>2025-05-25T13:49:53Z</time></trkpt>
<trkpt lat="50.0814" lon="5.32546"><ele>364.3</ele><time>2025-05-25T13:49:56Z</time></trkpt>
<trkpt lat="50.082849" lon="5.324929"><ele>362.0</ele><time>2025-05-25T13:50:00Z</time></trkpt>
<trkpt lat="50.083045" lon="5.324902"><ele>362.61</ele><time>2025-05-25T13:50:03Z</time></trkpt>
<trkpt lat="50.083289" lon="5.324991"><ele>363.83</ele><time>2025-05-25T13:50:07Z</time></trkpt>
<trkpt lat="50.083839" lon="5.32529"><ele>367.64</ele><time>2025-05-25T13:50:10Z</time></trkpt>
<trkpt lat="50.084713" lon="5.325889"><ele>369.17</ele><time>2025-05-25T13:50:14Z</time></trkpt>
<trkpt lat="50.085164" lon="5.326061"><ele>369.62</ele><time>2025-05-25T13:50:17Z</time></trkpt>
<trkpt lat="50.087562" lon="5.326862"><ele>376.74</ele><time>2025-05-25T13:50:21Z</time></trkpt>
<trkpt lat="50.087562" lon="5.326862"><ele>376.74</ele><time>2025-05-25T13:50:21Z</time></trkpt>
<trkpt lat="50.087747" lon="5.326878"><ele>377.13</ele><time>2025-05-25T13:50:22Z</time></trkpt>
<trkpt lat="50.088023" lon="5.326831"><ele>377.05</ele><time>2025-05-25T13:50:24Z</time></trkpt>
<trkpt lat="50.088284" lon="5.326749"><ele>375.6</ele><time>2025-05-25T13:50:25Z</time></trkpt>
<trkpt lat="50.088494" lon="5.32659"><ele>373.95</ele><time>2025-05-25T13:50:27Z</time></trkpt>
<trkpt lat="50.088573" lon="5.32648"><ele>373.36</ele><time>2025-05-25T13:50:28Z</time></trkpt>
<trkpt lat="50.088665" lon="5.326263"><ele>372.51</ele><time>2025-05-25T13:50:30Z</time></trkpt>
<trkpt lat="50.088749" lon="5.325926"><ele>373.33</ele><time>2025-05-25T13:50:31Z</time></trkpt>
<trkpt lat="50.088876" lon="5.325043"><ele>376.18</ele><time>2025-05-25T13:50:33Z</time></trkpt>
<trkpt lat="50.088989" lon="5.324256"><ele>376.27</ele><time>2025-05-25T13:50:34Z</time></trkpt>
<trkpt lat="50.089208" lon="5.32358"><ele>376.88</ele><time>2025-05-25T13:50:35Z</time></trkpt>
<trkpt lat="50.089276" lon="5.323483"><ele>377.02</ele><time>2025-05-25T13:50:37Z</time></trkpt>
<trkpt lat="50.089378" lon="5.32341"><ele>376.34</ele><time>2025-05-25T13:50:38Z</time></trkpt>
<trkpt lat="50.0896" lon="5.323384"><ele>374.06</ele><time>2025-05-25T13:50:40Z</time></trkpt>
<trkpt lat="50.089707" lon="5.323418"><ele>372.84</ele><time>2025-05-25T13:50:41Z</time></trkpt>
<trkpt lat="50.089888" lon="5.323584"><ele>373.29</ele><time>2025-05-25T13:50:43Z</time></trkpt>
<trkpt lat="50.090072" lon="5.323911"><ele>370.91</ele><time>2025-05-25T13:50:44Z</time></trkpt>
<trkpt lat="50.090291" lon="5.324448"><ele>359.15</ele><time>2025-05-25T13:50:46Z</time></trkpt>
<trkpt lat="50.090332" lon="5.324613"><ele>357.35</ele><time>2025-05-25T13:50:47Z</time></trkpt>
<trkpt lat="50.090466" lon="5.325399"><ele>348.11</ele><time>2025-05-25T13:50:49Z</time></trkpt>
<trkpt lat="50.090595" lon="5.325814"><ele>345.42</ele><time>2025-05-25T13:50:50Z</time></trkpt>
<trkpt lat="50.090664" lon="5.325941"><ele>344.85</ele><time>2025-05-25T13:50:52Z</time></trkpt>
<trkpt lat="50.090744" lon="5.326039"><ele>344.37</ele><time>2025-05-25T13:50:53Z</time></trkpt>
<trkpt lat="50.090927" lon="5.326196"><ele>344.27</ele><time>2025-05-25T13:50:55Z</time></trkpt>
<trkpt lat="50.091254" lon="5.326122"><ele>345.4</ele><time>2025-05-25T13:50:57Z</time></trkpt>
<trkpt lat="50.091448" lon="5.326103"><ele>344.42</ele><time>2025-05-25T13:51:00Z</time></trkpt>
<trkpt lat="50.091551" lon="5.326024"><ele>343.87</ele><time>2025-05-25T13:51:02Z</time></trkpt>
<trkpt lat="50.091754" lon="5.325736"><ele>343.96</ele><time>2025-05-25T13:51:05Z</time></trkpt>
<trkpt lat="50.091939" lon="5.325386"><ele>344.29</ele><time>2025-05-25T13:51:07Z</time></trkpt>
<trkpt lat="50.092042" lon="5.325064"><ele>343.67</ele><time>2025-05-25T13:51:10Z</time></trkpt>
<trkpt lat="50.092154" lon="5.324632"><ele>342.48</ele><time>2025-05-25T13:51:12Z</time></trkpt>
<trkpt lat="50.092584" lon="5.322479"><ele>355.06</ele><time>2025-05-25T13:51:15Z</time></trkpt>
<trkpt lat="50.092634" lon="5.322391"><ele>355.45</ele><time>2025-05-25T13:51:18Z</time></trkpt>
<trkpt lat="50.092694" lon="5.322331"><ele>355.22</ele><time>2025-05-25T13:51:20Z</time></trkpt>
<trkpt lat="50.092907" lon="5.322226"><ele>354.95</ele><time>2025-05-25T13:51:23Z</time></trkpt>
<trkpt lat="50.093736" lon="5.322037"><ele>364.92</ele><time>2025-05-25T13:51:25Z</time></trkpt>
<trkpt lat="50.09388" lon="5.32207"><ele>367.02</ele><time>2025-05-25T13:51:28Z</time></trkpt>
<trkpt lat="50.094375" lon="5.32227"><ele>369.82</ele><time>2025-05-25T13:51:30Z</time></trkpt>
<trkpt lat="50.094629" lon="5.322261"><ele>371.2</ele><time>2025-05-25T13:51:33Z</time></trkpt>
<trkpt lat="50.094823" lon="5.322178"><ele>371.76</ele><time>2025-05-25T13:51:35Z</time></trkpt>
<trkpt lat="50.095074" lon="5.321923"><ele>373.78</ele><time>2025-05-25T13:51:38Z</time></trkpt>
<trkpt lat="50.095215" lon="5.321717"><ele>374.44</ele><time>2025-05-25T13:51:41Z</time></trkpt>
<trkpt lat="50.095594" lon="5.320794"><ele>378.04</ele><time>2025-05-25T13:51:43Z</time></trkpt>
<trkpt lat="50.096103" lon="5.319338"><ele>377.38</ele><time>2025-05-25T13:51:46Z</time></trkpt>
<trkpt lat="50.096178" lon="5.318976"><ele>379.97</ele><time>2025-05-25T13:51:48Z</time></trkpt>
<trkpt lat="50.096231" lon="5.318623"><ele>382.6</ele><time>2025-05-25T13:51:51Z</time></trkpt>
<trkpt lat="50.096262" lon="5.318203"><ele>384.29</ele><time>2025-05-25T13:51:53Z</time></trkpt>
<trkpt lat="50.096262" lon="5.31705"><ele>384.64</ele><time>2025-05-25T13:51:56Z</time></trkpt>
<trkpt lat="50.096369" lon="5.316044"><ele>388.05</ele><time>2025-05-25T13:51:59Z</time></trkpt>
<trkpt lat="50.096605" lon="5.314798"><ele>394.39</ele><time>2025-05-25T13:52:01Z</time></trkpt>
<trkpt lat="50.09686" lon="5.31381"><ele>390.02</ele><time>2025-05-25T13:52:04Z</time></trkpt>
<trkpt lat="50.096958" lon="5.313517"><ele>389.13</ele><time>2025-05-25T13:52:06Z</time></trkpt>
<trkpt lat="50.09704" lon="5.313396"><ele>388.14</ele><time>2025-05-25T13:52:09Z</time></trkpt>
<trkpt lat="50.097317" lon="5.313305"><ele>384.28</ele><time>2025-05-25T13:52:11Z</time></trkpt>
<trkpt lat="50.098395" lon="5.313252"><ele>382.07</ele><time>2025-05-25T13:52:14Z</time></trkpt>
<trkpt lat="50.099429" lon="5.313583"><ele>386.89</ele><time>2025-05-25T13:52:16Z</time></trkpt>
<trkpt lat="50.100091" lon="5.313762"><ele>391.26</ele><time>2025-05-25T13:52:19Z</time></trkpt>
<trkpt lat="50.100941" lon="5.313896"><ele>394.22</ele><time>2025-05-25T13:52:22Z</time></trkpt>
<trkpt lat="50.101239" lon="5.313962"><ele>392.3</ele><time>2025-05-25T13:52:24Z</time></trkpt>
<trkpt lat="50.101596" lon="5.314147"><ele>388.66</ele><time>2025-05-25T13:52:27Z</time></trkpt>
<trkpt lat="50.101884" lon="5.31436"><ele>384.11</ele><time>2025-05-25T13:52:29Z</time></trkpt>
<trkpt lat="50.102235" lon="5.314786"><ele>383.9</ele><time>2025-05-25T13:52:32Z</time></trkpt>
<trkpt lat="50.102944" lon="5.315893"><ele>374.37</ele><time>2025-05-25T13:52:34Z</time></trkpt>
<trkpt lat="50.103406" lon="5.316841"><ele>369.19</ele><time>2025-05-25T13:52:37Z</time></trkpt>
<trkpt lat="50.103554" lon="5.317044"><ele>369.35</ele><time>2025-05-25T13:52:39Z</time></trkpt>
<trkpt lat="50.103694" lon="5.317189"><ele>369.63</ele><time>2025-05-25T13:52:42Z</time></trkpt>
<trkpt lat="50.103852" lon="5.317331"><ele>370.73</ele><time>2025-05-25T13:52:45Z</time></trkpt>
<trkpt lat="50.103975" lon="5.317408"><ele>371.31</ele><time>2025-05-25T13:52:47Z</time></trkpt>
<trkpt lat="50.104105" lon="5.31745"><ele>371.78</ele><time>2025-05-25T13:52:50Z</time></trkpt>
<trkpt lat="50.104431" lon="5.317451"><ele>368.19</ele><time>2025-05-25T13:52:52Z</time></trkpt>
<trkpt lat="50.104562" lon="5.317386"><ele>364.18</ele><time>2025-05-25T13:52:55Z</time></trkpt>
<trkpt lat="50.104647" lon="5.317296"><ele>361.43</ele><time>2025-05-25T13:52:57Z</time></trkpt>
<trkpt lat="50.104715" lon="5.317207"><ele>359.45</ele><time>2025-05-25T13:53:00Z</time></trkpt>
<trkpt lat="50.104825" lon="5.316997"><ele>359.86</ele><time>2025-05-25T13:53:03Z</time></trkpt>
<trkpt lat="50.105139" lon="5.31578"><ele>358.56</ele><time>2025-05-25T13:53:05Z</time></trkpt>
<trkpt lat="50.10549" lon="5.314967"><ele>355.51</ele><time>2025-05-25T13:53:08Z</time></trkpt>
<trkpt lat="50.106103" lon="5.314123"><ele>348.85</ele><time>2025-05-25T13:53:10Z</time></trkpt>
<trkpt lat="50.107067" lon="5.312915"><ele>334.22</ele><time>2025-05-25T13:53:13Z</time></trkpt>
<trkpt lat="50.107264" lon="5.312323"><ele>333.04</ele><time>2025-05-25T13:53:15Z</time></trkpt>
<trkpt lat="50.107416" lon="5.311206"><ele>326.31</ele><time>2025-05-25T13:53:18Z</time></trkpt>
<trkpt lat="50.107453" lon="5.310722"><ele>325.51</ele><time>2025-05-25T13:53:20Z</time></trkpt>
<trkpt lat="50.107473" lon="5.309891"><ele>323.31</ele><time>2025-05-25T13:53:23Z</time></trkpt>
<trkpt lat="50.107543" lon="5.309723"><ele>321.54</ele><time>2025-05-25T13:53:26Z</time></trkpt>
<trkpt lat="50.107691" lon="5.30958"><ele>318.92</ele><time>2025-05-25T13:53:28Z</time></trkpt>
<trkpt lat="50.107769" lon="5.309556"><ele>317.89</ele><time>2025-05-25T13:53:31Z</time></trkpt>
<trkpt lat="50.10788" lon="5.309551"><ele>316.66</ele><time>2025-05-25T13:53:33Z</time></trkpt>
<trkpt lat="50.108057" lon="5.3096"><ele>315.1</ele><time>2025-05-25T13:53:36Z</time></trkpt>
<trkpt lat="50.109442" lon="5.310425"><ele>285.09</ele><time>2025-05-25T13:53:38Z</time></trkpt>
<trkpt lat="50.109762" lon="5.310667"><ele>283.08</ele><time>2025-05-25T13:53:41Z</time></trkpt>
<trkpt lat="50.110008" lon="5.310894"><ele>280.47</ele><time>2025-05-25T13:53:43Z</time></trkpt>
<trkpt lat="50.110213" lon="5.311121"><ele>276.87</ele><time>2025-05-25T13:53:46Z</time></trkpt>
<trkpt lat="50.110372" lon="5.311409"><ele>272.94</ele><time>2025-05-25T13:53:49Z</time></trkpt>
<trkpt lat="50.110533" lon="5.311796"><ele>269.35</ele><time>2025-05-25T13:53:51Z</time></trkpt>
<trkpt lat="50.110681" lon="5.312063"><ele>265.54</ele><time>2025-05-25T13:53:54Z</time></trkpt>
<trkpt lat="50.110837" lon="5.312254"><ele>262.85</ele><time>2025-05-25T13:53:56Z</time></trkpt>
<trkpt lat="50.111096" lon="5.3124"><ele>259.52</ele><time>2025-05-25T13:53:59Z</time></trkpt>
<trkpt lat="50.111766" lon="5.312566"><ele>255.05</ele><time>2025-05-25T13:54:01Z</time></trkpt>
<trkpt lat="50.111929" lon="5.312543"><ele>253.96</ele><time>2025-05-25T13:54:04Z</time></trkpt>
<trkpt lat="50.111989" lon="5.312509"><ele>253.97</ele><time>2025-05-25T13:54:07Z</time></trkpt>
<trkpt lat="50.112052" lon="5.312433"><ele>254.0</ele><time>2025-05-25T13:54:09Z</time></trkpt>
<trkpt lat="50.112271" lon="5.312129"><ele>253.26</ele><time>2025-05-25T13:54:12Z</time></trkpt>
<trkpt lat="50.112433" lon="5.312022"><ele>251.21</ele><time>2025-05-25T13:54:14Z</time></trkpt>
<trkpt lat="50.112524" lon="5.311986"><ele>249.7</ele><time>2025-05-25T13:54:17Z</time></trkpt>
<trkpt lat="50.112521" lon="5.312018"><ele>250.18</ele><time>2025-05-25T13:54:47Z</time></trkpt>
<trkpt lat="50.112521" lon="5.312018"><ele>250.18</ele><time>2025-05-25T13:54:47Z</time></trkpt>
<trkpt lat="50.112524" lon="5.311986"><ele>249.7</ele><time>2025-05-25T13:54:51Z</time></trkpt>
<trkpt lat="50.112538" lon="5.311524"><ele>246.37</ele><time>2025-05-25T13:54:55Z</time></trkpt>
<trkpt lat="50.112354" lon="5.310216"><ele>246.57</ele><time>2025-05-25T13:54:59Z</time></trkpt>
<trkpt lat="50.112294" lon="5.309589"><ele>246.84</ele><time>2025-05-25T13:55:03Z</time></trkpt>
<trkpt lat="50.112295" lon="5.308451"><ele>246.21</ele><time>2025-05-25T13:55:07Z</time></trkpt>
<trkpt lat="50.112471" lon="5.307578"><ele>243.65</ele><time>2025-05-25T13:55:11Z</time></trkpt>
<trkpt lat="50.112671" lon="5.306455"><ele>244.24</ele><time>2025-05-25T13:55:15Z</time></trkpt>
<trkpt lat="50.112701" lon="5.306187"><ele>244.8</ele><time>2025-05-25T13:55:19Z</time></trkpt>
<trkpt lat="50.112733" lon="5.305538"><ele>242.86</ele><time>2025-05-25T13:55:23Z</time></trkpt>
<trkpt lat="50.112772" lon="5.304469"><ele>242.08</ele><time>2025-05-25T13:55:27Z</time></trkpt>
<trkpt lat="50.112763" lon="5.301762"><ele>235.74</ele><time>2025-05-25T13:55:31Z</time></trkpt>
<trkpt lat="50.112751" lon="5.301519"><ele>235.33</ele><time>2025-05-25T13:55:35Z</time></trkpt>
<trkpt lat="50.112708" lon="5.301336"><ele>236.51</ele><time>2025-05-25T13:55:39Z</time></trkpt>
<trkpt lat="50.112632" lon="5.301128"><ele>239.25</ele><time>2025-05-25T13:55:43Z</time></trkpt>
<trkpt lat="50.112538" lon="5.300799"><ele>246.82</ele><time>2025-05-25T13:55:47Z</time></trkpt>
<trkpt lat="50.112583" lon="5.300403"><ele>249.48</ele><time>2025-05-25T13:55:51Z</time></trkpt>
<trkpt lat="50.112871" lon="5.299305"><ele>246.96</ele><time>2025-05-25T13:55:55Z</time></trkpt>
<trkpt lat="50.113475" lon="5.296661"><ele>247.94</ele><time>2025-05-25T13:55:59Z</time></trkpt>
<trkpt lat="50.113555" lon="5.296146"><ele>241.79</ele><time>2025-05-25T13:56:03Z</time></trkpt>
<trkpt lat="50.113535" lon="5.295968"><ele>236.9</ele><time>2025-05-25T13:56:07Z</time></trkpt>
<trkpt lat="50.113406" lon="5.295898"><ele>233.09</ele><time>2025-05-25T13:56:10Z</time></trkpt>
<trkpt lat="50.113303" lon="5.295925"><ele>232.64</ele><time>2025-05-25T13:56:13Z</time></trkpt>
<trkpt lat="50.111744" lon="5.296032"><ele>220.4</ele><time>2025-05-25T13:56:15Z</time></trkpt>
<trkpt lat="50.111307" lon="5.29614"><ele>220.22</ele><time>2025-05-25T13:56:18Z</time></trkpt>
<trkpt lat="50.111228" lon="5.296121"><ele>219.6</ele><time>2025-05-25T13:56:21Z</time></trkpt>
<trkpt lat="50.111183" lon="5.29599"><ele>219.03</ele><time>2025-05-25T13:56:23Z</time></trkpt>
<trkpt lat="50.111135" lon="5.295473"><ele>219.1</ele><time>2025-05-25T13:56:25Z</time></trkpt>
<trkpt lat="50.111085" lon="5.29501"><ele>220.46</ele><time>2025-05-25T13:56:28Z</time></trkpt>
<trkpt lat="50.110974" lon="5.294616"><ele>224.35</ele><time>2025-05-25T13:56:30Z</time></trkpt>
<trkpt lat="50.11036" lon="5.2932"><ele>236.78</ele><time>2025-05-25T13:56:33Z</time></trkpt>
<trkpt lat="50.110329" lon="5.293056"><ele>237.18</ele><time>2025-05-25T13:56:35Z</time></trkpt>
<trkpt lat="50.110317" lon="5.29291"><ele>237.21</ele><time>2025-05-25T13:56:37Z</time></trkpt>
<trkpt lat="50.110329" lon="5.292768"><ele>237.41</ele><time>2025-05-25T13:56:40Z</time></trkpt>
<trkpt lat="50.110396" lon="5.292406"><ele>239.19</ele><time>2025-05-25T13:56:42Z</time></trkpt>
<trkpt lat="50.110554" lon="5.291061"><ele>244.36</ele><time>2025-05-25T13:56:44Z</time></trkpt>
<trkpt lat="50.110673" lon="5.289283"><ele>262.38</ele><time>2025-05-25T13:56:47Z</time></trkpt>
<trkpt lat="50.110683" lon="5.288862"><ele>259.6</ele><time>2025-05-25T13:56:49Z</time></trkpt>
<trkpt lat="50.110618" lon="5.287711"><ele>256.48</ele><time>2025-05-25T13:56:51Z</time></trkpt>
<trkpt lat="50.110623" lon="5.286865"><ele>258.95</ele><time>2025-05-25T13:56:54Z</time></trkpt>
<trkpt lat="50.110482" lon="5.286269"><ele>260.7</ele><time>2025-05-25T13:56:56Z</time></trkpt>
<trkpt lat="50.110237" lon="5.28546"><ele>266.93</ele><time>2025-05-25T13:56:58Z</time></trkpt>
<trkpt lat="50.110192" lon="5.285227"><ele>268.37</ele><time>2025-05-25T13:57:01Z</time></trkpt>
<trkpt lat="50.110193" lon="5.284928"><ele>269.17</ele><time>2025-05-25T13:57:03Z</time></trkpt>
<trkpt lat="50.110243" lon="5.284586"><ele>269.43</ele><time>2025-05-25T13:57:06Z</time></trkpt>
<trkpt lat="50.110272" lon="5.284564"><ele>269.23</ele><time>2025-05-25T13:57:06Z</time></trkpt>
<trkpt lat="50.110272" lon="5.284564"><ele>269.23</ele><time>2025-05-25T13:57:06Z</time></trkpt>
<trkpt lat="50.11046" lon="5.284422"><ele>269.03</ele><time>2025-05-25T13:57:08Z</time></trkpt>
<trkpt lat="50.111319" lon="5.28353"><ele>270.53</ele><time>2025-05-25T13:57:09Z</time></trkpt>
<trkpt lat="50.11155" lon="5.283339"><ele>270.02</ele><time>2025-05-25T13:57:11Z</time></trkpt>
<trkpt lat="50.111685" lon="5.283294"><ele>269.66</ele><time>2025-05-25T13:57:13Z</time></trkpt>
<trkpt lat="50.111916" lon="5.283286"><ele>268.92</ele><time>2025-05-25T13:57:15Z</time></trkpt>
<trkpt lat="50.112161" lon="5.283332"><ele>270.55</ele><time>2025-05-25T13:57:17Z</time></trkpt>
<trkpt lat="50.112435" lon="5.283315"><ele>271.68</ele><time>2025-05-25T13:57:19Z</time></trkpt>
<trkpt lat="50.112632" lon="5.283206"><ele>271.8</ele><time>2025-05-25T13:57:21Z</time></trkpt>
<trkpt lat="50.112762" lon="5.283084"><ele>271.2</ele><time>2025-05-25T13:57:22Z</time></trkpt>
<trkpt lat="50.112829" lon="5.28298"><ele>270.49</ele><time>2025-05-25T13:57:24Z</time></trkpt>
<trkpt lat="50.112851" lon="5.282856"><ele>269.83</ele><time>2025-05-25T13:57:26Z</time></trkpt>
<trkpt lat="50.112812" lon="5.282705"><ele>269.79</ele><time>2025-05-25T13:57:28Z</time></trkpt>
<trkpt lat="50.112632" lon="5.281659"><ele>268.42</ele><time>2025-05-25T13:57:30Z</time></trkpt>
<trkpt lat="50.112574" lon="5.281439"><ele>265.84</ele><time>2025-05-25T13:57:32Z</time></trkpt>
<trkpt lat="50.11239" lon="5.28116"><ele>263.45</ele><time>2025-05-25T13:57:34Z</time></trkpt>
<trkpt lat="50.111886" lon="5.280597"><ele>256.65</ele><time>2025-05-25T13:57:35Z</time></trkpt>
<trkpt lat="50.111685" lon="5.280284"><ele>255.96</ele><time>2025-05-25T13:57:37Z</time></trkpt>
<trkpt lat="50.11166" lon="5.280185"><ele>255.72</ele><time>2025-05-25T13:57:39Z</time></trkpt>
<trkpt lat="50.111686" lon="5.280028"><ele>255.03</ele><time>2025-05-25T13:57:41Z</time></trkpt>
<trkpt lat="50.111989" lon="5.278888"><ele>255.0</ele><time>2025-05-25T13:57:43Z</time></trkpt>
<trkpt lat="50.113061" lon="5.279297"><ele>251.54</ele><time>2025-05-25T13:57:47Z</time></trkpt>
<trkpt lat="50.113475" lon="5.279515"><ele>246.47</ele><time>2025-05-25T13:57:51Z</time></trkpt>
<trkpt lat="50.113998" lon="5.279955"><ele>245.54</ele><time>2025-05-25T13:57:55Z</time></trkpt>
<trkpt lat="50.114435" lon="5.280245"><ele>243.15</ele><time>2025-05-25T13:57:59Z</time></trkpt>
<trkpt lat="50.115842" lon="5.280985"><ele>241.88</ele><time>2025-05-25T13:58:03Z</time></trkpt>
<trkpt lat="50.116457" lon="5.281173"><ele>238.97</ele><time>2025-05-25T13:58:07Z</time></trkpt>
<trkpt lat="50.11737" lon="5.281394"><ele>243.07</ele><time>2025-05-25T13:58:11Z</time></trkpt>
<trkpt lat="50.117641" lon="5.281405"><ele>244.65</ele><time>2025-05-25T13:58:15Z</time></trkpt>
<trkpt lat="50.117898" lon="5.281362"><ele>244.49</ele><time>2025-05-25T13:58:19Z</time></trkpt>
<trkpt lat="50.118233" lon="5.281177"><ele>243.33</ele><time>2025-05-25T13:58:23Z</time></trkpt>
<trkpt lat="50.11837" lon="5.281029"><ele>243.95</ele><time>2025-05-25T13:58:27Z</time></trkpt>
<trkpt lat="50.118473" lon="5.28088"><ele>244.18</ele><time>2025-05-25T13:58:31Z</time></trkpt>
<trkpt lat="50.118664" lon="5.280486"><ele>242.76</ele><time>2025-05-25T13:58:35Z</time></trkpt>
<trkpt lat="50.118751" lon="5.280341"><ele>242.96</ele><time>2025-05-25T13:58:39Z</time></trkpt>
<trkpt lat="50.118919" lon="5.280128"><ele>241.37</ele><time>2025-05-25T13:58:43Z</time></trkpt>
<trkpt lat="50.119082" lon="5.280038"><ele>239.91</ele><time>2025-05-25T13:58:47Z</time></trkpt>
<trkpt lat="50.119298" lon="5.280014"><ele>240.67</ele><time>2025-05-25T13:58:51Z</time></trkpt>
<trkpt lat="50.120207" lon="5.280159"><ele>246.06</ele><time>2025-05-25T13:58:55Z</time></trkpt>
<trkpt lat="50.120437" lon="5.280277"><ele>241.99</ele><time>2025-05-25T13:58:59Z</time></trkpt>
<trkpt lat="50.121527" lon="5.281151"><ele>236.73</ele><time>2025-05-25T13:59:03Z</time></trkpt>
<trkpt lat="50.122325" lon="5.281645"><ele>232.0</ele><time>2025-05-25T13:59:07Z</time></trkpt>
<trkpt lat="50.122924" lon="5.282042"><ele>229.79</ele><time>2025-05-25T13:59:11Z</time></trkpt>
<trkpt lat="50.123275" lon="5.282342"><ele>228.97</ele><time>2025-05-25T13:59:15Z</time></trkpt>
<trkpt lat="50.123735" lon="5.282868"><ele>229.63</ele><time>2025-05-25T13:59:19Z</time></trkpt>
<trkpt lat="50.124038" lon="5.283083"><ele>229.99</ele><time>2025-05-25T13:59:23Z</time></trkpt>
<trkpt lat="50.124399" lon="5.283222"><ele>227.56</ele><time>2025-05-25T13:59:27Z</time></trkpt>
<trkpt lat="50.124695" lon="5.283276"><ele>224.63</ele><time>2025-05-25T13:59:31Z</time></trkpt>
<trkpt lat="50.12508" lon="5.283189"><ele>217.83</ele><time>2025-05-25T13:59:36Z</time></trkpt>
<trkpt lat="50.125551" lon="5.283017"><ele>212.2</ele><time>2025-05-25T13:59:40Z</time></trkpt>
<trkpt lat="50.125761" lon="5.282847"><ele>212.01</ele><time>2025-05-25T13:59:44Z</time></trkpt>
<trkpt lat="50.125919" lon="5.282659"><ele>212.12</ele><time>2025-05-25T13:59:48Z</time></trkpt>
<trkpt lat="50.12636" lon="5.282006"><ele>211.12</ele><time>2025-05-25T13:59:52Z</time></trkpt>
<trkpt lat="50.127899" lon="5.279736"><ele>208.88</ele><time>2025-05-25T13:59:56Z</time></trkpt>
<trkpt lat="50.128251" lon="5.279144"><ele>212.7</ele><time>2025-05-25T14:00:00Z</time></trkpt>
<trkpt lat="50.128594" lon="5.278472"><ele>213.16</ele><time>2025-05-25T14:00:04Z</time></trkpt>
<trkpt lat="50.128955" lon="5.277877"><ele>214.32</ele><time>2025-05-25T14:00:08Z</time></trkpt>
<trkpt lat="50.129199" lon="5.277567"><ele>213.85</ele><time>2025-05-25T14:00:12Z</time></trkpt>
<trkpt lat="50.129746" lon="5.276933"><ele>212.95</ele><time>2025-05-25T14:00:16Z</time></trkpt>
<trkpt lat="50.130058" lon="5.276505"><ele>212.95</ele><time>2025-05-25T14:00:20Z</time></trkpt>
<trkpt lat="50.130238" lon="5.276365"><ele>213.23</ele><time>2025-05-25T14:00:24Z</time></trkpt>
<trkpt lat="50.13078" lon="5.276057"><ele>215.85</ele><time>2025-05-25T14:00:28Z</time></trkpt>
<trkpt lat="50.130956" lon="5.276026"><ele>215.86</ele><time>2025-05-25T14:00:32Z</time></trkpt>
<trkpt lat="50.131125" lon="5.276072"><ele>215.09</ele><time>2025-05-25T14:00:36Z</time></trkpt>
<trkpt lat="50.131286" lon="5.275807"><ele>215.43</ele><time>2025-05-25T14:00:39Z</time></trkpt>
<trkpt lat="50.131388" lon="5.275602"><ele>215.83</ele><time>2025-05-25T14:00:41Z</time></trkpt>
<trkpt lat="50.131388" lon="5.275602"><ele>215.83</ele><time>2025-05-25T14:00:41Z</time></trkpt>
<trkpt lat="50.131418" lon="5.275382"><ele>217.32</ele><time>2025-05-25T14:00:45Z</time></trkpt>
<trkpt lat="50.131415" lon="5.275299"><ele>217.93</ele><time>2025-05-25T14:00:49Z</time></trkpt>
<trkpt lat="50.131359" lon="5.27482"><ele>221.19</ele><time>2025-05-25T14:00:54Z</time></trkpt>
<trkpt lat="50.131234" lon="5.274265"><ele>223.74</ele><time>2025-05-25T14:00:58Z</time></trkpt>
<trkpt lat="50.131046" lon="5.273549"><ele>228.46</ele><time>2025-05-25T14:01:02Z</time></trkpt>
<trkpt lat="50.131033" lon="5.273407"><ele>229.02</ele><time>2025-05-25T14:01:06Z</time></trkpt>
<trkpt lat="50.131042" lon="5.272973"><ele>229.25</ele><time>2025-05-25T14:01:10Z</time></trkpt>
<trkpt lat="50.131026" lon="5.272729"><ele>229.31</ele><time>2025-05-25T14:01:15Z</time></trkpt>
<trkpt lat="50.130879" lon="5.272373"><ele>229.83</ele><time>2025-05-25T14:01:19Z</time></trkpt>
<trkpt lat="50.130602" lon="5.271827"><ele>230.83</ele><time>2025-05-25T14:01:23Z</time></trkpt>
<trkpt lat="50.12981" lon="5.270074"><ele>231.68</ele><time>2025-05-25T14:01:27Z</time></trkpt>
<trkpt lat="50.12965" lon="5.269647"><ele>231.45</ele><time>2025-05-25T14:01:31Z</time></trkpt>
<trkpt lat="50.129477" lon="5.269023"><ele>231.88</ele><time>2025-05-25T14:01:35Z</time></trkpt>
<trkpt lat="50.129354" lon="5.268721"><ele>231.72</ele><time>2025-05-25T14:01:40Z</time></trkpt>
<trkpt lat="50.129241" lon="5.268522"><ele>231.5</ele><time>2025-05-25T14:01:44Z</time></trkpt>
<trkpt lat="50.128902" lon="5.268042"><ele>228.99</ele><time>2025-05-25T14:01:48Z</time></trkpt>
<trkpt lat="50.128765" lon="5.267802"><ele>229.0</ele><time>2025-05-25T14:01:52Z</time></trkpt>
<trkpt lat="50.126829" lon="5.263749"><ele>237.8</ele><time>2025-05-25T14:01:56Z</time></trkpt>
<trkpt lat="50.125151" lon="5.261158"><ele>253.29</ele><time>2025-05-25T14:02:01Z</time></trkpt>
<trkpt lat="50.124859" lon="5.260675"><ele>256.51</ele><time>2025-05-25T14:02:05Z</time></trkpt>
<trkpt lat="50.123875" lon="5.258865"><ele>260.27</ele><time>2025-05-25T14:02:09Z</time></trkpt>
<trkpt lat="50.123821" lon="5.258743"><ele>261.54</ele><time>2025-05-25T14:02:13Z</time></trkpt>
<trkpt lat="50.12375" lon="5.258469"><ele>263.77</ele><time>2025-05-25T14:02:17Z</time></trkpt>
<trkpt lat="50.123703" lon="5.258083"><ele>267.11</ele><time>2025-05-25T14:02:21Z</time></trkpt>
<trkpt lat="50.123714" lon="5.254751"><ele>267.35</ele><time>2025-05-25T14:02:26Z</time></trkpt>
<trkpt lat="50.123655" lon="5.254361"><ele>263.45</ele><time>2025-05-25T14:02:30Z</time></trkpt>
<trkpt lat="50.123568" lon="5.254141"><ele>261.97</ele><time>2025-05-25T14:02:34Z</time></trkpt>
<trkpt lat="50.123419" lon="5.253719"><ele>260.08</ele><time>2025-05-25T14:02:38Z</time></trkpt>
<trkpt lat="50.123439" lon="5.253596"><ele>259.58</ele><time>2025-05-25T14:02:46Z</time></trkpt>
<trkpt lat="50.123431" lon="5.25352"><ele>259.44</ele><time>2025-05-25T14:02:53Z</time></trkpt>
<trkpt lat="50.12338" lon="5.253416"><ele>259.25</ele><time>2025-05-25T14:03:01Z</time></trkpt>
<trkpt lat="50.123336" lon="5.253383"><ele>259.17</ele><time>2025-05-25T14:03:09Z</time></trkpt>
<trkpt lat="50.123248" lon="5.253388"><ele>259.81</ele><time>2025-05-25T14:03:16Z</time></trkpt>
<trkpt lat="50.123118" lon="5.253218"><ele>260.13</ele><time>2025-05-25T14:03:24Z</time></trkpt>
<trkpt lat="50.122355" lon="5.251722"><ele>256.82</ele><time>2025-05-25T14:03:32Z</time></trkpt>
<trkpt lat="50.121286" lon="5.249531"><ele>254.57</ele><time>2025-05-25T14:03:39Z</time></trkpt>
<trkpt lat="50.121227" lon="5.249332"><ele>254.35</ele><time>2025-05-25T14:03:47Z</time></trkpt>
<trkpt lat="50.121111" lon="5.248719"><ele>253.39</ele><time>2025-05-25T14:03:55Z</time></trkpt>
<trkpt lat="50.121033" lon="5.248485"><ele>252.87</ele><time>2025-05-25T14:04:02Z</time></trkpt>
<trkpt lat="50.120884" lon="5.248237"><ele>252.47</ele><time>2025-05-25T14:04:10Z</time></trkpt>
<trkpt lat="50.120764" lon="5.248128"><ele>252.37</ele><time>2025-05-25T14:04:18Z</time></trkpt>
<trkpt lat="50.120617" lon="5.248048"><ele>251.44</ele><time>2025-05-25T14:04:25Z</time></trkpt>
<trkpt lat="50.120277" lon="5.247984"><ele>250.74</ele><time>2025-05-25T14:04:33Z</time></trkpt>
<trkpt lat="50.119672" lon="5.248011"><ele>254.86</ele><time>2025-05-25T14:04:41Z</time></trkpt>
<trkpt lat="50.119407" lon="5.247928"><ele>255.48</ele><time>2025-05-25T14:04:48Z</time></trkpt>
<trkpt lat="50.116889" lon="5.24594"><ele>256.67</ele><time>2025-05-25T14:04:56Z</time></trkpt>
<trkpt lat="50.116231" lon="5.245385"><ele>258.95</ele><time>2025-05-25T14:05:03Z</time></trkpt>
<trkpt lat="50.115699" lon="5.244835"><ele>257.1</ele><time>2025-05-25T14:05:11Z</time></trkpt>
<trkpt lat="50.110888" lon="5.239377"><ele>245.76</ele><time>2025-05-25T14:05:19Z</time></trkpt>
<trkpt lat="50.109429" lon="5.237719"><ele>239.48</ele><time>2025-05-25T14:05:26Z</time></trkpt>
<trkpt lat="50.10838" lon="5.236535"><ele>247.3</ele><time>2025-05-25T14:05:34Z</time></trkpt>
<trkpt lat="50.10839" lon="5.236511"><ele>246.88</ele><time>2025-05-25T14:05:49Z</time></trkpt>
<trkpt lat="50.10839" lon="5.236511"><ele>246.88</ele><time>2025-05-25T14:05:49Z</time></trkpt>
<trkpt lat="50.10838" lon="5.236535"><ele>247.3</ele><time>2025-05-25T14:05:50Z</time></trkpt>
<trkpt lat="50.106303" lon="5.234204"><ele>257.02</ele><time>2025-05-25T14:05:58Z</time></trkpt>
<trkpt lat="50.105497" lon="5.233575"><ele>260.18</ele><time>2025-05-25T14:06:07Z</time></trkpt>
<trkpt lat="50.099986" lon="5.230964"><ele>278.63</ele><time>2025-05-25T14:06:16Z</time></trkpt>
<trkpt lat="50.099614" lon="5.230882"><ele>283.13</ele><time>2025-05-25T14:06:25Z</time></trkpt>
<trkpt lat="50.099371" lon="5.230872"><ele>284.28</ele><time>2025-05-25T14:06:34Z</time></trkpt>
<trkpt lat="50.099152" lon="5.230894"><ele>284.39</ele><time>2025-05-25T14:06:43Z</time></trkpt>
<trkpt lat="50.09883" lon="5.230971"><ele>283.46</ele><time>2025-05-25T14:06:52Z</time></trkpt>
<trkpt lat="50.095213" lon="5.232037"><ele>271.33</ele><time>2025-05-25T14:07:01Z</time></trkpt>
<trkpt lat="50.095467" lon="5.23138"><ele>268.64</ele><time>2025-05-25T14:07:04Z</time></trkpt>
<trkpt lat="50.09568" lon="5.230935"><ele>267.27</ele><time>2025-05-25T14:07:06Z</time></trkpt>
<trkpt lat="50.096024" lon="5.230388"><ele>263.02</ele><time>2025-05-25T14:07:09Z</time></trkpt>
<trkpt lat="50.096612" lon="5.229685"><ele>260.89</ele><time>2025-05-25T14:07:11Z</time></trkpt>
<trkpt lat="50.096795" lon="5.229395"><ele>260.67</ele><time>2025-05-25T14:07:14Z</time></trkpt>
<trkpt lat="50.096974" lon="5.22887"><ele>257.93</ele><time>2025-05-25T14:07:16Z</time></trkpt>
<trkpt lat="50.097228" lon="5.22835"><ele>256.08</ele><time>2025-05-25T14:07:19Z</time></trkpt>
<trkpt lat="50.097435" lon="5.227995"><ele>255.55</ele><time>2025-05-25T14:07:21Z</time></trkpt>
<trkpt lat="50.097603" lon="5.227609"><ele>255.51</ele><time>2025-05-25T14:07:23Z</time></trkpt>
<trkpt lat="50.097824" lon="5.226869"><ele>254.83</ele><time>2025-05-25T14:07:26Z</time></trkpt>
<trkpt lat="50.098106" lon="5.22556"><ele>251.38</ele><time>2025-05-25T14:07:28Z</time></trkpt>
<trkpt lat="50.098354" lon="5.22497"><ele>248.03</ele><time>2025-05-25T14:07:31Z</time></trkpt>
<trkpt lat="50.098577" lon="5.224493"><ele>247.05</ele><time>2025-05-25T14:07:33Z</time></trkpt>
<trkpt lat="50.098743" lon="5.224192"><ele>246.56</ele><time>2025-05-25T14:07:36Z</time></trkpt>
<trkpt lat="50.099126" lon="5.223606"><ele>243.98</ele><time>2025-05-25T14:07:38Z</time></trkpt>
<trkpt lat="50.099556" lon="5.223161"><ele>243.96</ele><time>2025-05-25T14:07:41Z</time></trkpt>
<trkpt lat="50.099818" lon="5.222973"><ele>245.44</ele><time>2025-05-25T14:07:43Z</time></trkpt>
<trkpt lat="50.100052" lon="5.22285"><ele>247.35</ele><time>2025-05-25T14:07:45Z</time></trkpt>
<trkpt lat="50.100783" lon="5.222205"><ele>249.41</ele><time>2025-05-25T14:07:48Z</time></trkpt>
<trkpt lat="50.101425" lon="5.221817"><ele>245.26</ele><time>2025-05-25T14:07:50Z</time></trkpt>
<trkpt lat="50.101597" lon="5.221627"><ele>246.35</ele><time>2025-05-25T14:07:53Z</time></trkpt>
<trkpt lat="50.101898" lon="5.22106"><ele>247.32</ele><time>2025-05-25T14:07:55Z</time></trkpt>
<trkpt lat="50.101974" lon="5.220977"><ele>247.68</ele><time>2025-05-25T14:07:58Z</time></trkpt>
<trkpt lat="50.102108" lon="5.220927"><ele>248.32</ele><time>2025-05-25T14:08:00Z</time></trkpt>
<trkpt lat="50.102182" lon="5.220946"><ele>248.77</ele><time>2025-05-25T14:08:03Z</time></trkpt>
<trkpt lat="50.102333" lon="5.221035"><ele>248.71</ele><time>2025-05-25T14:08:05Z</time></trkpt>
<trkpt lat="50.102495" lon="5.221184"><ele>248.02</ele><time>2025-05-25T14:08:07Z</time></trkpt>
<trkpt lat="50.102608" lon="5.221224"><ele>246.44</ele><time>2025-05-25T14:08:10Z</time></trkpt>
<trkpt lat="50.102699" lon="5.221186"><ele>245.13</ele><time>2025-05-25T14:08:12Z</time></trkpt>
<trkpt lat="50.102755" lon="5.221103"><ele>244.3</ele><time>2025-05-25T14:08:15Z</time></trkpt>
<trkpt lat="50.102931" lon="5.220608"><ele>235.93</ele><time>2025-05-25T14:08:17Z</time></trkpt>
<trkpt lat="50.102987" lon="5.220355"><ele>232.32</ele><time>2025-05-25T14:08:20Z</time></trkpt>
<trkpt lat="50.10336" lon="5.218141"><ele>219.24</ele><time>2025-05-25T14:08:22Z</time></trkpt>
<trkpt lat="50.103439" lon="5.217444"><ele>215.68</ele><time>2025-05-25T14:08:25Z</time></trkpt>
<trkpt lat="50.10345" lon="5.216419"><ele>210.12</ele><time>2025-05-25T14:08:27Z</time></trkpt>
<trkpt lat="50.103395" lon="5.215609"><ele>207.87</ele><time>2025-05-25T14:08:29Z</time></trkpt>
<trkpt lat="50.10339" lon="5.215176"><ele>205.62</ele><time>2025-05-25T14:08:32Z</time></trkpt>
<trkpt lat="50.103412" lon="5.214536"><ele>201.43</ele><time>2025-05-25T14:08:34Z</time></trkpt>
<trkpt lat="50.103384" lon="5.213104"><ele>194.62</ele><time>2025-05-25T14:08:37Z</time></trkpt>
<trkpt lat="50.103446" lon="5.212691"><ele>192.87</ele><time>2025-05-25T14:08:39Z</time></trkpt>
<trkpt lat="50.103601" lon="5.212294"><ele>191.04</ele><time>2025-05-25T14:08:42Z</time></trkpt>
<trkpt lat="50.10468" lon="5.209734"><ele>184.11</ele><time>2025-05-25T14:08:44Z</time></trkpt>
<trkpt lat="50.10477" lon="5.209342"><ele>184.33</ele><time>2025-05-25T14:08:46Z</time></trkpt>
<trkpt lat="50.104781" lon="5.209102"><ele>185.6</ele><time>2025-05-25T14:08:49Z</time></trkpt>
<trkpt lat="50.104716" lon="5.208501"><ele>188.02</ele><time>2025-05-25T14:08:51Z</time></trkpt>
<trkpt lat="50.10473" lon="5.208163"><ele>188.57</ele><time>2025-05-25T14:08:54Z</time></trkpt>
<trkpt lat="50.105056" lon="5.205795"><ele>193.54</ele><time>2025-05-25T14:08:56Z</time></trkpt>
<trkpt lat="50.105126" lon="5.204978"><ele>194.67</ele><time>2025-05-25T14:08:59Z</time></trkpt>
<trkpt lat="50.105172" lon="5.204697"><ele>194.76</ele><time>2025-05-25T14:09:01Z</time></trkpt>
<trkpt lat="50.105693" lon="5.20267"><ele>186.41</ele><time>2025-05-25T14:09:04Z</time></trkpt>
<trkpt lat="50.105759" lon="5.20235"><ele>186.07</ele><time>2025-05-25T14:09:06Z</time></trkpt>
<trkpt lat="50.105849" lon="5.201632"><ele>181.62</ele><time>2025-05-25T14:09:08Z</time></trkpt>
<trkpt lat="50.10588" lon="5.201308"><ele>179.15</ele><time>2025-05-25T14:09:11Z</time></trkpt>
<trkpt lat="50.105879" lon="5.201155"><ele>178.52</ele><time>2025-05-25T14:09:13Z</time></trkpt>
<trkpt lat="50.105779" lon="5.200546"><ele>176.32</ele><time>2025-05-25T14:09:16Z</time></trkpt>
<trkpt lat="50.105779" lon="5.200398"><ele>175.59</ele><time>2025-05-25T14:09:18Z</time></trkpt>
<trkpt lat="50.105803" lon="5.200208"><ele>174.24</ele><time>2025-05-25T14:09:21Z</time></trkpt>
<trkpt lat="50.10591" lon="5.199875"><ele>172.67</ele><time>2025-05-25T14:09:23Z</time></trkpt>
<trkpt lat="50.106147" lon="5.199473"><ele>172.74</ele><time>2025-05-25T14:09:26Z</time></trkpt>
<trkpt lat="50.106222" lon="5.199284"><ele>171.62</ele><time>2025-05-25T14:09:28Z</time></trkpt>
<trkpt lat="50.10625" lon="5.199039"><ele>170.77</ele><time>2025-05-25T14:09:30Z</time></trkpt>
<trkpt lat="50.106287" lon="5.198077"><ele>171.61</ele><time>2025-05-25T14:09:33Z</time></trkpt>
<trkpt lat="50.106274" lon="5.197302"><ele>170.59</ele><time>2025-05-25T14:09:35Z</time></trkpt>
<trkpt lat="50.106285" lon="5.196912"><ele>170.25</ele><time>2025-05-25T14:09:38Z</time></trkpt>
<trkpt lat="50.106345" lon="5.196602"><ele>170.95</ele><time>2025-05-25T14:09:40Z</time></trkpt>
<trkpt lat="50.106901" lon="5.196899"><ele>172.0</ele><time>2025-05-25T14:09:46Z</time></trkpt>
<trkpt lat="50.107014" lon="5.19629"><ele>171.75</ele><time>2025-05-25T14:09:51Z</time></trkpt>
<trkpt lat="50.107022" lon="5.196141"><ele>171.72</ele><time>2025-05-25T14:09:55Z</time></trkpt>
<trkpt lat="50.106987" lon="5.195707"><ele>171.85</ele><time>2025-05-25T14:10:00Z</time></trkpt>
<trkpt lat="50.106759" lon="5.194284"><ele>171.58</ele><time>2025-05-25T14:10:05Z</time></trkpt>
<trkpt lat="50.106643" lon="5.193958"><ele>172.25</ele><time>2025-05-25T14:10:09Z</time></trkpt>
<trkpt lat="50.106471" lon="5.193665"><ele>173.08</ele><time>2025-05-25T14:10:14Z</time></trkpt>
<trkpt lat="50.106471" lon="5.193665"><ele>173.08</ele><time>2025-05-25T14:10:14Z</time></trkpt>
<trkpt lat="50.106402" lon="5.193547"><ele>173.91</ele><time>2025-05-25T14:10:15Z</time></trkpt>
<trkpt lat="50.106654" lon="5.193152"><ele>172.06</ele><time>2025-05-25T14:10:17Z</time></trkpt>
<trkpt lat="50.106915" lon="5.19279"><ele>173.79</ele><time>2025-05-25T14:10:19Z</time></trkpt>
<trkpt lat="50.107194" lon="5.192318"><ele>177.76</ele><time>2025-05-25T14:10:23Z</time></trkpt>
<trkpt lat="50.107287" lon="5.192047"><ele>177.89</ele><time>2025-05-25T14:10:27Z</time></trkpt>
<trkpt lat="50.107436" lon="5.191397"><ele>179.53</ele><time>2025-05-25T14:10:31Z</time></trkpt>
<trkpt lat="50.107506" lon="5.191177"><ele>180.04</ele><time>2025-05-25T14:10:35Z</time></trkpt>
<trkpt lat="50.107608" lon="5.19094"><ele>181.15</ele><time>2025-05-25T14:10:39Z</time></trkpt>
<trkpt lat="50.107987" lon="5.190214"><ele>182.0</ele><time>2025-05-25T14:10:43Z</time></trkpt>
<trkpt lat="50.108109" lon="5.189933"><ele>182.24</ele><time>2025-05-25T14:10:47Z</time></trkpt>
<trkpt lat="50.108182" lon="5.189688"><ele>183.0</ele><time>2025-05-25T14:10:51Z</time></trkpt>
<trkpt lat="50.108232" lon="5.189451"><ele>183.0</ele><time>2025-05-25T14:10:55Z</time></trkpt>
<trkpt lat="50.10854" lon="5.187589"><ele>185.25</ele><time>2025-05-25T14:10:59Z</time></trkpt>
<trkpt lat="50.10859" lon="5.187237"><ele>185.85</ele><time>2025-05-25T14:11:03Z</time></trkpt>
<trkpt lat="50.108663" lon="5.186318"><ele>189.37</ele><time>2025-05-25T14:11:06Z</time></trkpt>
<trkpt lat="50.108738" lon="5.185723"><ele>189.46</ele><time>2025-05-25T14:11:10Z</time></trkpt>
<trkpt lat="50.108826" lon="5.185233"><ele>188.77</ele><time>2025-05-25T14:11:14Z</time></trkpt>
<trkpt lat="50.108943" lon="5.184725"><ele>188.01</ele><time>2025-05-25T14:11:18Z</time></trkpt>
<trkpt lat="50.109465" lon="5.18288"><ele>186.15</ele><time>2025-05-25T14:11:22Z</time></trkpt>
<trkpt lat="50.109711" lon="5.181792"><ele>186.92</ele><time>2025-05-25T14:11:26Z</time></trkpt>
<trkpt lat="50.109908" lon="5.18103"><ele>186.18</ele><time>2025-05-25T14:11:30Z</time></trkpt>
<trkpt lat="50.110205" lon="5.18008"><ele>183.55</ele><time>2025-05-25T14:11:34Z</time></trkpt>
<trkpt lat="50.11029" lon="5.179765"><ele>183.24</ele><time>2025-05-25T14:11:38Z</time></trkpt>
<trkpt lat="50.110363" lon="5.179387"><ele>182.2</ele><time>2025-05-25T14:11:42Z</time></trkpt>
<trkpt lat="50.110453" lon="5.178807"><ele>179.74</ele><time>2025-05-25T14:11:46Z</time></trkpt>
<trkpt lat="50.110537" lon="5.178165"><ele>179.47</ele><time>2025-05-25T14:11:50Z</time></trkpt>
<trkpt lat="50.110613" lon="5.177299"><ele>180.0</ele><time>2025-05-25T14:11:54Z</time></trkpt>
<trkpt lat="50.110775" lon="5.176117"><ele>177.43</ele><time>2025-05-25T14:11:57Z</time></trkpt>
<trkpt lat="50.110996" lon="5.174798"><ele>177.59</ele><time>2025-05-25T14:12:01Z</time></trkpt>
<trkpt lat="50.111074" lon="5.174245"><ele>177.15</ele><time>2025-05-25T14:12:05Z</time></trkpt>
<trkpt lat="50.111224" lon="5.173357"><ele>174.49</ele><time>2025-05-25T14:12:09Z</time></trkpt>
<trkpt lat="50.111562" lon="5.171724"><ele>173.62</ele><time>2025-05-25T14:12:13Z</time></trkpt>
<trkpt lat="50.111601" lon="5.171344"><ele>173.76</ele><time>2025-05-25T14:12:17Z</time></trkpt>
<trkpt lat="50.111607" lon="5.171051"><ele>173.62</ele><time>2025-05-25T14:12:21Z</time></trkpt>
<trkpt lat="50.111589" lon="5.170819"><ele>173.0</ele><time>2025-05-25T14:12:25Z</time></trkpt>
<trkpt lat="50.111508" lon="5.170278"><ele>172.0</ele><time>2025-05-25T14:12:29Z</time></trkpt>
<trkpt lat="50.111479" lon="5.169147"><ele>169.32</ele><time>2025-05-25T14:12:33Z</time></trkpt>
<trkpt lat="50.111505" lon="5.168928"><ele>169.42</ele><time>2025-05-25T14:12:37Z</time></trkpt>
<trkpt lat="50.111567" lon="5.168548"><ele>171.87</ele><time>2025-05-25T14:12:41Z</time></trkpt>
<trkpt lat="50.111654" lon="5.168318"><ele>173.01</ele><time>2025-05-25T14:12:45Z</time></trkpt>
<trkpt lat="50.111852" lon="5.167954"><ele>174.67</ele><time>2025-05-25T14:12:48Z</time></trkpt>
<trkpt lat="50.11243" lon="5.167023"><ele>178.72</ele><time>2025-05-25T14:12:52Z</time></trkpt>
<trkpt lat="50.112791" lon="5.166013"><ele>180.97</ele><time>2025-05-25T14:12:56Z</time></trkpt>
<trkpt lat="50.113256" lon="5.164914"><ele>182.59</ele><time>2025-05-25T14:13:00Z</time></trkpt>
<trkpt lat="50.113303" lon="5.164768"><ele>182.94</ele><time>2025-05-25T14:13:04Z</time></trkpt>
<trkpt lat="50.113397" lon="5.164211"><ele>184.07</ele><time>2025-05-25T14:13:08Z</time></trkpt>
<trkpt lat="50.113596" lon="5.163304"><ele>188.74</ele><time>2025-05-25T14:13:12Z</time></trkpt>
<trkpt lat="50.113666" lon="5.163123"><ele>188.78</ele><time>2025-05-25T14:13:16Z</time></trkpt>
<trkpt lat="50.113763" lon="5.162955"><ele>189.64</ele><time>2025-05-25T14:13:20Z</time></trkpt>
<trkpt lat="50.114388" lon="5.162062"><ele>194.48</ele><time>2025-05-25T14:13:24Z</time></trkpt>
<trkpt lat="50.114826" lon="5.161291"><ele>197.12</ele><time>2025-05-25T14:13:28Z</time></trkpt>
<trkpt lat="50.115337" lon="5.160214"><ele>203.43</ele><time>2025-05-25T14:13:32Z</time></trkpt>
<trkpt lat="50.115337" lon="5.160214"><ele>203.43</ele><time>2025-05-25T14:13:32Z</time></trkpt>
<trkpt lat="50.115433" lon="5.160011"><ele>204.11</ele><time>2025-05-25T14:13:36Z</time></trkpt>
<trkpt lat="50.115488" lon="5.159809"><ele>204.52</ele><time>2025-05-25T14:13:41Z</time></trkpt>
<trkpt lat="50.115519" lon="5.159585"><ele>204.73</ele><time>2025-05-25T14:13:46Z</time></trkpt>
<trkpt lat="50.115622" lon="5.15833"><ele>208.73</ele><time>2025-05-25T14:13:50Z</time></trkpt>
<trkpt lat="50.115698" lon="5.158022"><ele>210.03</ele><time>2025-05-25T14:13:55Z</time></trkpt>
<trkpt lat="50.115811" lon="5.157839"><ele>210.84</ele><time>2025-05-25T14:14:00Z</time></trkpt>
<trkpt lat="50.1161" lon="5.157494"><ele>210.06</ele><time>2025-05-25T14:14:04Z</time></trkpt>
<trkpt lat="50.116204" lon="5.157277"><ele>210.2</ele><time>2025-05-25T14:14:09Z</time></trkpt>
<trkpt lat="50.116513" lon="5.156393"><ele>214.17</ele><time>2025-05-25T14:14:14Z</time></trkpt>
<trkpt lat="50.116929" lon="5.15543"><ele>217.21</ele><time>2025-05-25T14:14:18Z</time></trkpt>
<trkpt lat="50.11719" lon="5.154438"><ele>213.99</ele><time>2025-05-25T14:14:23Z</time></trkpt>
<trkpt lat="50.117514" lon="5.153635"><ele>213.95</ele><time>2025-05-25T14:14:28Z</time></trkpt>
<trkpt lat="50.117743" lon="5.15345"><ele>212.62</ele><time>2025-05-25T14:14:33Z</time></trkpt>
<trkpt lat="50.11833" lon="5.15289"><ele>207.62</ele><time>2025-05-25T14:14:39Z</time></trkpt>
<trkpt lat="50.118514" lon="5.152654"><ele>206.76</ele><time>2025-05-25T14:14:45Z</time></trkpt>
<trkpt lat="50.118717" lon="5.152297"><ele>204.92</ele><time>2025-05-25T14:14:51Z</time></trkpt>
<trkpt lat="50.118819" lon="5.152066"><ele>204.19</ele><time>2025-05-25T14:14:57Z</time></trkpt>
<trkpt lat="50.119285" lon="5.15078"><ele>199.15</ele><time>2025-05-25T14:15:04Z</time></trkpt>
<trkpt lat="50.119545" lon="5.150191"><ele>197.05</ele><time>2025-05-25T14:15:10Z</time></trkpt>
<trkpt lat="50.119665" lon="5.149822"><ele>196.79</ele><time>2025-05-25T14:15:16Z</time></trkpt>
<trkpt lat="50.119942" lon="5.14883"><ele>196.04</ele><time>2025-05-25T14:15:23Z</time></trkpt>
<trkpt lat="50.120103" lon="5.148372"><ele>195.26</ele><time>2025-05-25T14:15:29Z</time></trkpt>
<trkpt lat="50.120934" lon="5.146907"><ele>198.64</ele><time>2025-05-25T14:15:35Z</time></trkpt>
<trkpt lat="50.121325" lon="5.146103"><ele>199.25</ele><time>2025-05-25T14:15:42Z</time></trkpt>
<trkpt lat="50.121806" lon="5.145267"><ele>196.0</ele><time>2025-05-25T14:15:48Z</time></trkpt>
<trkpt lat="50.122524" lon="5.145486"><ele>193.0</ele><time>2025-05-25T14:15:50Z</time></trkpt>
<trkpt lat="50.123352" lon="5.145996"><ele>191.26</ele><time>2025-05-25T14:15:52Z</time></trkpt>
<trkpt lat="50.123522" lon="5.14605"><ele>189.71</ele><time>2025-05-25T14:15:55Z</time></trkpt>
<trkpt lat="50.123604" lon="5.146043"><ele>189.05</ele><time>2025-05-25T14:15:57Z</time></trkpt>
<trkpt lat="50.123741" lon="5.14599"><ele>187.39</ele><time>2025-05-25T14:15:59Z</time></trkpt>
<trkpt lat="50.123942" lon="5.145825"><ele>184.61</ele><time>2025-05-25T14:16:01Z</time></trkpt>
<trkpt lat="50.124266" lon="5.146392"><ele>183.28</ele><time>2025-05-25T14:16:06Z</time></trkpt>
<trkpt lat="50.124584" lon="5.146696"><ele>180.34</ele><time>2025-05-25T14:16:11Z</time></trkpt>
<trkpt lat="50.124909" lon="5.14689"><ele>178.06</ele><time>2025-05-25T14:16:16Z</time></trkpt>
<trkpt lat="50.125207" lon="5.146954"><ele>177.19</ele><time>2025-05-25T14:16:21Z</time></trkpt>
<trkpt lat="50.128112" lon="5.147424"><ele>164.26</ele><time>2025-05-25T14:16:26Z</time></trkpt>
<trkpt lat="50.129994" lon="5.147768"><ele>161.96</ele><time>2025-05-25T14:16:31Z</time></trkpt>
<trkpt lat="50.132153" lon="5.148238"><ele>158.29</ele><time>2025-05-25T14:16:36Z</time></trkpt>
<trkpt lat="50.13303" lon="5.148363"><ele>153.8</ele><time>2025-05-25T14:16:41Z</time></trkpt>
<trkpt lat="50.13334" lon="5.14845"><ele>154.58</ele><time>2025-05-25T14:16:46Z</time></trkpt>
<trkpt lat="50.133581" lon="5.148637"><ele>153.9</ele><time>2025-05-25T14:16:51Z</time></trkpt>
<trkpt lat="50.133778" lon="5.148818"><ele>152.5</ele><time>2025-05-25T14:16:56Z</time></trkpt>
<trkpt lat="50.133856" lon="5.148933"><ele>152.26</ele><time>2025-05-25T14:17:01Z</time></trkpt>
<trkpt lat="50.134299" lon="5.148599"><ele>149.1</ele><time>2025-05-25T14:17:24Z</time></trkpt>
<trkpt lat="50.135358" lon="5.148072"><ele>145.71</ele><time>2025-05-25T14:17:46Z</time></trkpt>
<trkpt lat="50.135791" lon="5.147803"><ele>144.15</ele><time>2025-05-25T14:18:08Z</time></trkpt>
<trkpt lat="50.136401" lon="5.147207"><ele>144.95</ele><time>2025-05-25T14:18:30Z</time></trkpt>
<trkpt lat="50.136535" lon="5.147136"><ele>144.69</ele><time>2025-05-25T14:18:52Z</time></trkpt>
<trkpt lat="50.137022" lon="5.146978"><ele>143.97</ele><time>2025-05-25T14:19:14Z</time></trkpt>
<trkpt lat="50.137468" lon="5.146585"><ele>143.08</ele><time>2025-05-25T14:19:36Z</time></trkpt>
<trkpt lat="50.137615" lon="5.146503"><ele>143.0</ele><time>2025-05-25T14:19:59Z</time></trkpt>
<trkpt lat="50.13778" lon="5.146455"><ele>143.01</ele><time>2025-05-25T14:20:21Z</time></trkpt>
<trkpt lat="50.138001" lon="5.14644"><ele>143.65</ele><time>2025-05-25T14:20:43Z</time></trkpt>
<trkpt lat="50.138146" lon="5.146364"><ele>143.35</ele><time>2025-05-25T14:21:05Z</time></trkpt>
<trkpt lat="50.138099" lon="5.146218"><ele>143.69</ele><time>2025-05-25T14:21:09Z</time></trkpt>
<trkpt lat="50.138085" lon="5.146031"><ele>142.88</ele><time>2025-05-25T14:21:12Z</time></trkpt>
<trkpt lat="50.138085" lon="5.146031"><ele>142.88</ele><time>2025-05-25T14:21:12Z</time></trkpt>
<trkpt lat="50.138099" lon="5.146218"><ele>143.69</ele><time>2025-05-25T14:21:15Z</time></trkpt>
<trkpt lat="50.138146" lon="5.146364"><ele>143.35</ele><time>2025-05-25T14:21:19Z</time></trkpt>
<trkpt lat="50.138001" lon="5.14644"><ele>143.65</ele><time>2025-05-25T14:21:38Z</time></trkpt>
<trkpt lat="50.13778" lon="5.146455"><ele>143.01</ele><time>2025-05-25T14:21:58Z</time></trkpt>
<trkpt lat="50.137615" lon="5.146503"><ele>143.0</ele><time>2025-05-25T14:22:17Z</time></trkpt>
<trkpt lat="50.137468" lon="5.146585"><ele>143.08</ele><time>2025-05-25T14:22:37Z</time></trkpt>
<trkpt lat="50.137022" lon="5.146978"><ele>143.97</ele><time>2025-05-25T14:22:56Z</time></trkpt>
<trkpt lat="50.136535" lon="5.147136"><ele>144.69</ele><time>2025-05-25T14:23:15Z</time></trkpt>
<trkpt lat="50.136401" lon="5.147207"><ele>144.95</ele><time>2025-05-25T14:23:35Z</time></trkpt>
<trkpt lat="50.135791" lon="5.147803"><ele>144.15</ele><time>2025-05-25T14:23:54Z</time></trkpt>
<trkpt lat="50.135358" lon="5.148072"><ele>145.71</ele><time>2025-05-25T14:24:14Z</time></trkpt>
<trkpt lat="50.134299" lon="5.148599"><ele>149.1</ele><time>2025-05-25T14:24:33Z</time></trkpt>
<trkpt lat="50.133856" lon="5.148933"><ele>152.26</ele><time>2025-05-25T14:24:53Z</time></trkpt>
<trkpt lat="50.133778" lon="5.148818"><ele>152.5</ele><time>2025-05-25T14:24:57Z</time></trkpt>
<trkpt lat="50.133581" lon="5.148637"><ele>153.9</ele><time>2025-05-25T14:25:02Z</time></trkpt>
<trkpt lat="50.13334" lon="5.14845"><ele>154.58</ele><time>2025-05-25T14:25:07Z</time></trkpt>
<trkpt lat="50.13303" lon="5.148363"><ele>153.8</ele><time>2025-05-25T14:25:12Z</time></trkpt>
<trkpt lat="50.132153" lon="5.148238"><ele>158.29</ele><time>2025-05-25T14:25:16Z</time></trkpt>
<trkpt lat="50.129994" lon="5.147768"><ele>161.96</ele><time>2025-05-25T14:25:21Z</time></trkpt>
<trkpt lat="50.128112" lon="5.147424"><ele>164.26</ele><time>2025-05-25T14:25:26Z</time></trkpt>
<trkpt lat="50.125207" lon="5.146954"><ele>177.19</ele><time>2025-05-25T14:25:30Z</time></trkpt>
<trkpt lat="50.124909" lon="5.14689"><ele>178.06</ele><time>2025-05-25T14:25:35Z</time></trkpt>
<trkpt lat="50.124584" lon="5.146696"><ele>180.34</ele><time>2025-05-25T14:25:40Z</time></trkpt>
<trkpt lat="50.124266" lon="5.146392"><ele>183.28</ele><time>2025-05-25T14:25:45Z</time></trkpt>
<trkpt lat="50.123942" lon="5.145825"><ele>184.61</ele><time>2025-05-25T14:25:49Z</time></trkpt>
<trkpt lat="50.123866" lon="5.145622"><ele>185.33</ele><time>2025-05-25T14:25:54Z</time></trkpt>
<trkpt lat="50.12375" lon="5.145152"><ele>187.5</ele><time>2025-05-25T14:25:59Z</time></trkpt>
<trkpt lat="50.12369" lon="5.144613"><ele>188.43</ele><time>2025-05-25T14:26:04Z</time></trkpt>
<trkpt lat="50.123684" lon="5.143601"><ele>187.95</ele><time>2025-05-25T14:26:08Z</time></trkpt>
<trkpt lat="50.123708" lon="5.142059"><ele>186.47</ele><time>2025-05-25T14:26:13Z</time></trkpt>
<trkpt lat="50.123742" lon="5.14128"><ele>187.41</ele><time>2025-05-25T14:26:18Z</time></trkpt>
<trkpt lat="50.123843" lon="5.139978"><ele>181.92</ele><time>2025-05-25T14:26:23Z</time></trkpt>
<trkpt lat="50.12388" lon="5.139"><ele>180.97</ele><time>2025-05-25T14:26:27Z</time></trkpt>
<trkpt lat="50.123897" lon="5.138101"><ele>181.16</ele><time>2025-05-25T14:26:32Z</time></trkpt>
<trkpt lat="50.123832" lon="5.137071"><ele>178.46</ele><time>2025-05-25T14:26:37Z</time></trkpt>
<trkpt lat="50.123732" lon="5.135965"><ele>178.13</ele><time>2025-05-25T14:26:42Z</time></trkpt>
<trkpt lat="50.123579" lon="5.134922"><ele>177.84</ele><time>2025-05-25T14:26:46Z</time></trkpt>
<trkpt lat="50.123004" lon="5.13164"><ele>177.34</ele><time>2025-05-25T14:26:51Z</time></trkpt>
<trkpt lat="50.122962" lon="5.131193"><ele>175.99</ele><time>2025-05-25T14:26:56Z</time></trkpt>
<trkpt lat="50.122813" lon="5.127955"><ele>171.76</ele><time>2025-05-25T14:27:01Z</time></trkpt>
<trkpt lat="50.122816" lon="5.127288"><ele>169.48</ele><time>2025-05-25T14:27:05Z</time></trkpt>
<trkpt lat="50.12292" lon="5.125546"><ele>164.97</ele><time>2025-05-25T14:27:10Z</time></trkpt>
<trkpt lat="50.122924" lon="5.124797"><ele>163.0</ele><time>2025-05-25T14:27:15Z</time></trkpt>
<trkpt lat="50.122888" lon="5.123759"><ele>162.51</ele><time>2025-05-25T14:27:19Z</time></trkpt>
<trkpt lat="50.122737" lon="5.121988"><ele>163.7</ele><time>2025-05-25T14:27:24Z</time></trkpt>
<trkpt lat="50.122706" lon="5.121334"><ele>163.0</ele><time>2025-05-25T14:27:29Z</time></trkpt>
<trkpt lat="50.122725" lon="5.120571"><ele>162.0</ele><time>2025-05-25T14:27:34Z</time></trkpt>
<trkpt lat="50.122753" lon="5.120241"><ele>160.99</ele><time>2025-05-25T14:27:38Z</time></trkpt>
<trkpt lat="50.122811" lon="5.11972"><ele>159.88</ele><time>2025-05-25T14:27:43Z</time></trkpt>
<trkpt lat="50.122999" lon="5.118395"><ele>155.8</ele><time>2025-05-25T14:27:48Z</time></trkpt>
<trkpt lat="50.123026" lon="5.117914"><ele>157.4</ele><time>2025-05-25T14:27:53Z</time></trkpt>
<trkpt lat="50.122988" lon="5.11739"><ele>159.1</ele><time>2025-05-25T14:27:57Z</time></trkpt>
<trkpt lat="50.122889" lon="5.116857"><ele>160.6</ele><time>2025-05-25T14:28:02Z</time></trkpt>
<trkpt lat="50.122726" lon="5.11639"><ele>160.19</ele><time>2025-05-25T14:28:07Z</time></trkpt>
<trkpt lat="50.121453" lon="5.113287"><ele>159.96</ele><time>2025-05-25T14:28:12Z</time></trkpt>
<trkpt lat="50.121008" lon="5.112378"><ele>162.37</ele><time>2025-05-25T14:28:16Z</time></trkpt>
<trkpt lat="50.120752" lon="5.111926"><ele>162.0</ele><time>2025-05-25T14:28:21Z</time></trkpt>
<trkpt lat="50.120483" lon="5.11149"><ele>161.83</ele><time>2025-05-25T14:28:26Z</time></trkpt>
<trkpt lat="50.119904" lon="5.110643"><ele>160.69</ele><time>2025-05-25T14:28:31Z</time></trkpt>
<trkpt lat="50.119582" lon="5.110138"><ele>161.51</ele><time>2025-05-25T14:28:35Z</time></trkpt>
<trkpt lat="50.119085" lon="5.109108"><ele>162.0</ele><time>2025-05-25T14:28:40Z</time></trkpt>
<trkpt lat="50.118612" lon="5.10806"><ele>161.02</ele><time>2025-05-25T14:28:45Z</time></trkpt>
<trkpt lat="50.118396" lon="5.107685"><ele>161.77</ele><time>2025-05-25T14:28:49Z</time></trkpt>
<trkpt lat="50.118051" lon="5.107232"><ele>162.02</ele><time>2025-05-25T14:28:54Z</time></trkpt>
<trkpt lat="50.117802" lon="5.106882"><ele>163.83</ele><time>2025-05-25T14:28:59Z</time></trkpt>
<trkpt lat="50.117496" lon="5.106294"><ele>162.63</ele><time>2025-05-25T14:29:04Z</time></trkpt>
<trkpt lat="50.116849" lon="5.10469"><ele>162.69</ele><time>2025-05-25T14:29:08Z</time></trkpt>
<trkpt lat="50.116726" lon="5.104306"><ele>164.57</ele><time>2025-05-25T14:29:13Z</time></trkpt>
<trkpt lat="50.116503" lon="5.103413"><ele>166.75</ele><time>2025-05-25T14:29:18Z</time></trkpt>
<trkpt lat="50.116361" lon="5.102744"><ele>163.09</ele><time>2025-05-25T14:29:23Z</time></trkpt>
<trkpt lat="50.115782" lon="5.099999"><ele>168.0</ele><time>2025-05-25T14:29:27Z</time></trkpt>
<trkpt lat="50.115437" lon="5.098929"><ele>169.0</ele><time>2025-05-25T14:29:32Z</time></trkpt>
<trkpt lat="50.115337" lon="5.098503"><ele>170.08</ele><time>2025-05-25T14:29:37Z</time></trkpt>
<trkpt lat="50.115156" lon="5.097467"><ele>169.0</ele><time>2025-05-25T14:29:42Z</time></trkpt>
<trkpt lat="50.114866" lon="5.096414"><ele>170.85</ele><time>2025-05-25T14:29:46Z</time></trkpt>
<trkpt lat="50.114866" lon="5.096414"><ele>170.85</ele><time>2025-05-25T14:29:46Z</time></trkpt>
<trkpt lat="50.114857" lon="5.096332"><ele>171.0</ele><time>2025-05-25T14:29:49Z</time></trkpt>
<trkpt lat="50.114867" lon="5.096237"><ele>171.0</ele><time>2025-05-25T14:29:52Z</time></trkpt>
<trkpt lat="50.114904" lon="5.096119"><ele>171.0</ele><time>2025-05-25T14:29:55Z</time></trkpt>
<trkpt lat="50.114937" lon="5.096065"><ele>171.17</ele><time>2025-05-25T14:29:58Z</time></trkpt>
<trkpt lat="50.1154" lon="5.095617"><ele>168.68</ele><time>2025-05-25T14:30:01Z</time></trkpt>
<trkpt lat="50.115452" lon="5.095501"><ele>168.19</ele><time>2025-05-25T14:30:04Z</time></trkpt>
<trkpt lat="50.115457" lon="5.095273"><ele>168.42</ele><time>2025-05-25T14:30:07Z</time></trkpt>
<trkpt lat="50.115433" lon="5.095146"><ele>168.77</ele><time>2025-05-25T14:30:10Z</time></trkpt>
<trkpt lat="50.114961" lon="5.09403"><ele>172.14</ele><time>2025-05-25T14:30:13Z</time></trkpt>
<trkpt lat="50.114856" lon="5.093623"><ele>172.52</ele><time>2025-05-25T14:30:16Z</time></trkpt>
<trkpt lat="50.114998" lon="5.093451"><ele>172.01</ele><time>2025-05-25T14:30:21Z</time></trkpt>
<trkpt lat="50.115464" lon="5.093248"><ele>167.33</ele><time>2025-05-25T14:30:25Z</time></trkpt>
<trkpt lat="50.115718" lon="5.093081"><ele>165.88</ele><time>2025-05-25T14:30:30Z</time></trkpt>
<trkpt lat="50.115793" lon="5.09301"><ele>165.29</ele><time>2025-05-25T14:30:35Z</time></trkpt>
<trkpt lat="50.115983" lon="5.092814"><ele>163.99</ele><time>2025-05-25T14:30:39Z</time></trkpt>
<trkpt lat="50.116047" lon="5.09278"><ele>163.47</ele><time>2025-05-25T14:30:44Z</time></trkpt>
<trkpt lat="50.116101" lon="5.092779"><ele>163.08</ele><time>2025-05-25T14:30:48Z</time></trkpt>
<trkpt lat="50.116183" lon="5.092851"><ele>163.0</ele><time>2025-05-25T14:30:53Z</time></trkpt>
<trkpt lat="50.116334" lon="5.093035"><ele>163.12</ele><time>2025-05-25T14:30:58Z</time></trkpt>
<trkpt lat="50.116423" lon="5.093066"><ele>163.03</ele><time>2025-05-25T14:31:02Z</time></trkpt>
<trkpt lat="50.116475" lon="5.093037"><ele>162.95</ele><time>2025-05-25T14:31:07Z</time></trkpt>
<trkpt lat="50.11703" lon="5.092498"><ele>162.0</ele><time>2025-05-25T14:31:11Z</time></trkpt>
<trkpt lat="50.122928" lon="5.086565"><ele>165.71</ele><time>2025-05-25T14:31:16Z</time></trkpt>
<trkpt lat="50.123322" lon="5.086256"><ele>166.96</ele><time>2025-05-25T14:31:21Z</time></trkpt>
<trkpt lat="50.123612" lon="5.086058"><ele>167.19</ele><time>2025-05-25T14:31:25Z</time></trkpt>
<trkpt lat="50.123843" lon="5.085792"><ele>168.98</ele><time>2025-05-25T14:31:30Z</time></trkpt>
<trkpt lat="50.125315" lon="5.083775"><ele>180.95</ele><time>2025-05-25T14:31:35Z</time></trkpt>
<trkpt lat="50.126918" lon="5.081691"><ele>193.63</ele><time>2025-05-25T14:31:39Z</time></trkpt>
<trkpt lat="50.127044" lon="5.081385"><ele>194.07</ele><time>2025-05-25T14:31:44Z</time></trkpt>
<trkpt lat="50.127067" lon="5.081192"><ele>194.01</ele><time>2025-05-25T14:31:48Z</time></trkpt>
<trkpt lat="50.127047" lon="5.080923"><ele>191.89</ele><time>2025-05-25T14:31:53Z</time></trkpt>
<trkpt lat="50.126823" lon="5.080243"><ele>188.0</ele><time>2025-05-25T14:31:58Z</time></trkpt>
<trkpt lat="50.126607" lon="5.079469"><ele>184.04</ele><time>2025-05-25T14:32:02Z</time></trkpt>
<trkpt lat="50.126412" lon="5.078887"><ele>180.73</ele><time>2025-05-25T14:32:07Z</time></trkpt>
<trkpt lat="50.12626" lon="5.078493"><ele>177.38</ele><time>2025-05-25T14:32:11Z</time></trkpt>
<trkpt lat="50.126081" lon="5.078162"><ele>175.32</ele><time>2025-05-25T14:32:16Z</time></trkpt>
<trkpt lat="50.125867" lon="5.077885"><ele>175.07</ele><time>2025-05-25T14:32:21Z</time></trkpt>
<trkpt lat="50.125565" lon="5.077561"><ele>174.4</ele><time>2025-05-25T14:32:25Z</time></trkpt>
<trkpt lat="50.12549" lon="5.077443"><ele>173.87</ele><time>2025-05-25T14:32:30Z</time></trkpt>
<trkpt lat="50.12548" lon="5.077294"><ele>172.99</ele><time>2025-05-25T14:32:35Z</time></trkpt>
<trkpt lat="50.125508" lon="5.077203"><ele>172.07</ele><time>2025-05-25T14:32:39Z</time></trkpt>
<trkpt lat="50.125579" lon="5.077164"><ele>171.11</ele><time>2025-05-25T14:32:44Z</time></trkpt>
<trkpt lat="50.125682" lon="5.077208"><ele>171.39</ele><time>2025-05-25T14:32:48Z</time></trkpt>
<trkpt lat="50.125874" lon="5.077402"><ele>171.71</ele><time>2025-05-25T14:32:53Z</time></trkpt>
<trkpt lat="50.126051" lon="5.077553"><ele>170.39</ele><time>2025-05-25T14:32:58Z</time></trkpt>
<trkpt lat="50.126179" lon="5.077632"><ele>169.58</ele><time>2025-05-25T14:33:02Z</time></trkpt>
<trkpt lat="50.126319" lon="5.077692"><ele>168.31</ele><time>2025-05-25T14:33:07Z</time></trkpt>
<trkpt lat="50.126607" lon="5.077758"><ele>166.34</ele><time>2025-05-25T14:33:11Z</time></trkpt>
<trkpt lat="50.126886" lon="5.077754"><ele>167.42</ele><time>2025-05-25T14:33:16Z</time></trkpt>
<trkpt lat="50.127099" lon="5.077656"><ele>166.88</ele><time>2025-05-25T14:33:21Z</time></trkpt>
<trkpt lat="50.12733" lon="5.077424"><ele>164.06</ele><time>2025-05-25T14:33:25Z</time></trkpt>
<trkpt lat="50.127594" lon="5.077056"><ele>160.87</ele><time>2025-05-25T14:33:30Z</time></trkpt>
<trkpt lat="50.127773" lon="5.076627"><ele>160.69</ele><time>2025-05-25T14:33:35Z</time></trkpt>
<trkpt lat="50.129548" lon="5.068978"><ele>149.74</ele><time>2025-05-25T14:33:39Z</time></trkpt>
<trkpt lat="50.130191" lon="5.066137"><ele>151.46</ele><time>2025-05-25T14:33:44Z</time></trkpt>
<trkpt lat="50.13049" lon="5.064536"><ele>148.18</ele><time>2025-05-25T14:33:48Z</time></trkpt>
<trkpt lat="50.130728" lon="5.062715"><ele>149.74</ele><time>2025-05-25T14:33:53Z</time></trkpt>
<trkpt lat="50.131721" lon="5.053818"><ele>136.99</ele><time>2025-05-25T14:33:58Z</time></trkpt>
<trkpt lat="50.131804" lon="5.05334"><ele>136.99</ele><time>2025-05-25T14:34:02Z</time></trkpt>
<trkpt lat="50.131888" lon="5.053053"><ele>137.8</ele><time>2025-05-25T14:34:07Z</time></trkpt>
<trkpt lat="50.132088" lon="5.052693"><ele>138.36</ele><time>2025-05-25T14:34:11Z</time></trkpt>
<trkpt lat="50.132218" lon="5.052557"><ele>138.2</ele><time>2025-05-25T14:34:16Z</time></trkpt>
<trkpt lat="50.13597" lon="5.049123"><ele>135.0</ele><time>2025-05-25T14:34:21Z</time></trkpt>
<trkpt lat="50.135294" lon="5.047707"><ele>135.88</ele><time>2025-05-25T14:34:32Z</time></trkpt>
<trkpt lat="50.13363" lon="5.044199"><ele>138.12</ele><time>2025-05-25T14:34:43Z</time></trkpt>
<trkpt lat="50.133412" lon="5.043622"><ele>137.76</ele><time>2025-05-25T14:34:54Z</time></trkpt>
<trkpt lat="50.13258" lon="5.040787"><ele>138.42</ele><time>2025-05-25T14:35:05Z</time></trkpt>
<trkpt lat="50.132182" lon="5.03932"><ele>139.14</ele><time>2025-05-25T14:35:16Z</time></trkpt>
<trkpt lat="50.131878" lon="5.038533"><ele>138.72</ele><time>2025-05-25T14:35:27Z</time></trkpt>
<trkpt lat="50.131733" lon="5.037927"><ele>136.89</ele><time>2025-05-25T14:35:38Z</time></trkpt>
<trkpt lat="50.131497" lon="5.036447"><ele>133.08</ele><time>2025-05-25T14:35:49Z</time></trkpt>
<trkpt lat="50.131478" lon="5.036324"><ele>133.0</ele><time>2025-05-25T14:36:00Z</time></trkpt>
<trkpt lat="50.131473" lon="5.036297"><ele>133.0</ele><time>2025-05-25T14:36:10Z</time></trkpt>
<trkpt lat="50.131359" lon="5.035558"><ele>133.89</ele><time>2025-05-25T14:36:21Z</time></trkpt>
<trkpt lat="50.131845" lon="5.034555"><ele>134.0</ele><time>2025-05-25T14:36:26Z</time></trkpt>
<trkpt lat="50.131889" lon="5.03433"><ele>134.41</ele><time>2025-05-25T14:36:30Z</time></trkpt>
<trkpt lat="50.131954" lon="5.033768"><ele>135.43</ele><time>2025-05-25T14:36:34Z</time></trkpt>
<trkpt lat="50.132008" lon="5.033565"><ele>136.0</ele><time>2025-05-25T14:36:38Z</time></trkpt>
<trkpt lat="50.132071" lon="5.03351"><ele>136.0</ele><time>2025-05-25T14:36:42Z</time></trkpt>
<trkpt lat="50.132036" lon="5.033457"><ele>136.0</ele><time>2025-05-25T14:37:13Z</time></trkpt>
<trkpt lat="50.132036" lon="5.033457"><ele>136.0</ele><time>2025-05-25T14:37:13Z</time></trkpt>
<trkpt lat="50.132071" lon="5.03351"><ele>136.0</ele><time>2025-05-25T14:37:13Z</time></trkpt>
<trkpt lat="50.132284" lon="5.033295"><ele>135.97</ele><time>2025-05-25T14:37:18Z</time></trkpt>
<trkpt lat="50.132864" lon="5.032889"><ele>133.0</ele><time>2025-05-25T14:37:23Z</time></trkpt>
<trkpt lat="50.133058" lon="5.03284"><ele>133.01</ele><time>2025-05-25T14:37:28Z</time></trkpt>
<trkpt lat="50.136165" lon="5.032488"><ele>137.0</ele><time>2025-05-25T14:37:32Z</time></trkpt>
<trkpt lat="50.136631" lon="5.032314"><ele>138.74</ele><time>2025-05-25T14:37:37Z</time></trkpt>
<trkpt lat="50.137544" lon="5.031913"><ele>141.84</ele><time>2025-05-25T14:37:42Z</time></trkpt>
<trkpt lat="50.140109" lon="5.030908"><ele>147.39</ele><time>2025-05-25T14:37:47Z</time></trkpt>
<trkpt lat="50.144612" lon="5.029482"><ele>171.81</ele><time>2025-05-25T14:37:52Z</time></trkpt>
<trkpt lat="50.144925" lon="5.029424"><ele>175.99</ele><time>2025-05-25T14:37:56Z</time></trkpt>
<trkpt lat="50.1451" lon="5.029645"><ele>178.07</ele><time>2025-05-25T14:38:01Z</time></trkpt>
<trkpt lat="50.145184" lon="5.029963"><ele>178.98</ele><time>2025-05-25T14:38:06Z</time></trkpt>
<trkpt lat="50.145274" lon="5.030434"><ele>179.4</ele><time>2025-05-25T14:38:11Z</time></trkpt>
<trkpt lat="50.145353" lon="5.031118"><ele>179.82</ele><time>2025-05-25T14:38:15Z</time></trkpt>
<trkpt lat="50.145383" lon="5.031791"><ele>180.96</ele><time>2025-05-25T14:38:20Z</time></trkpt>
<trkpt lat="50.14545" lon="5.032176"><ele>183.83</ele><time>2025-05-25T14:38:25Z</time></trkpt>
<trkpt lat="50.145565" lon="5.032565"><ele>184.83</ele><time>2025-05-25T14:38:30Z</time></trkpt>
<trkpt lat="50.145973" lon="5.03331"><ele>185.09</ele><time>2025-05-25T14:38:34Z</time></trkpt>
<trkpt lat="50.146124" lon="5.033538"><ele>186.1</ele><time>2025-05-25T14:38:39Z</time></trkpt>
<trkpt lat="50.148799" lon="5.036418"><ele>203.93</ele><time>2025-05-25T14:38:44Z</time></trkpt>
<trkpt lat="50.148921" lon="5.036506"><ele>204.93</ele><time>2025-05-25T14:38:49Z</time></trkpt>
<trkpt lat="50.149013" lon="5.036526"><ele>205.85</ele><time>2025-05-25T14:38:53Z</time></trkpt>
<trkpt lat="50.149169" lon="5.03648"><ele>207.68</ele><time>2025-05-25T14:38:58Z</time></trkpt>
<trkpt lat="50.149264" lon="5.036383"><ele>208.7</ele><time>2025-05-25T14:39:03Z</time></trkpt>
<trkpt lat="50.149414" lon="5.036054"><ele>210.71</ele><time>2025-05-25T14:39:08Z</time></trkpt>
<trkpt lat="50.1499" lon="5.034756"><ele>212.67</ele><time>2025-05-25T14:39:12Z</time></trkpt>
<trkpt lat="50.14998" lon="5.034587"><ele>212.15</ele><time>2025-05-25T14:39:17Z</time></trkpt>
<trkpt lat="50.150256" lon="5.033866"><ele>213.01</ele><time>2025-05-25T14:39:22Z</time></trkpt>
<trkpt lat="50.150445" lon="5.033448"><ele>210.19</ele><time>2025-05-25T14:39:27Z</time></trkpt>
<trkpt lat="50.150643" lon="5.033342"><ele>208.68</ele><time>2025-05-25T14:39:31Z</time></trkpt>
<trkpt lat="50.151817" lon="5.033249"><ele>207.07</ele><time>2025-05-25T14:39:36Z</time></trkpt>
<trkpt lat="50.152455" lon="5.033163"><ele>203.77</ele><time>2025-05-25T14:39:41Z</time></trkpt>
<trkpt lat="50.152774" lon="5.033282"><ele>201.4</ele><time>2025-05-25T14:39:46Z</time></trkpt>
<trkpt lat="50.153044" lon="5.033483"><ele>198.96</ele><time>2025-05-25T14:39:50Z</time></trkpt>
<trkpt lat="50.154706" lon="5.034846"><ele>189.49</ele><time>2025-05-25T14:39:55Z</time></trkpt>
<trkpt lat="50.155629" lon="5.03565"><ele>183.47</ele><time>2025-05-25T14:40:00Z</time></trkpt>
<trkpt lat="50.155873" lon="5.03565"><ele>181.57</ele><time>2025-05-25T14:40:05Z</time></trkpt>
<trkpt lat="50.158048" lon="5.03391"><ele>168.0</ele><time>2025-05-25T14:40:09Z</time></trkpt>
<trkpt lat="50.158895" lon="5.033712"><ele>168.61</ele><time>2025-05-25T14:40:14Z</time></trkpt>
<trkpt lat="50.159004" lon="5.033835"><ele>167.78</ele><time>2025-05-25T14:40:19Z</time></trkpt>
<trkpt lat="50.159453" lon="5.035279"><ele>165.0</ele><time>2025-05-25T14:40:24Z</time></trkpt>
<trkpt lat="50.159664" lon="5.035902"><ele>166.62</ele><time>2025-05-25T14:40:28Z</time></trkpt>
<trkpt lat="50.159915" lon="5.036462"><ele>167.35</ele><time>2025-05-25T14:40:33Z</time></trkpt>
<trkpt lat="50.160482" lon="5.036932"><ele>169.47</ele><time>2025-05-25T14:40:38Z</time></trkpt>
<trkpt lat="50.161355" lon="5.038223"><ele>171.4</ele><time>2025-05-25T14:40:43Z</time></trkpt>
<trkpt lat="50.161782" lon="5.038749"><ele>171.71</ele><time>2025-05-25T14:40:47Z</time></trkpt>
<trkpt lat="50.162157" lon="5.037876"><ele>173.76</ele><time>2025-05-25T14:40:52Z</time></trkpt>
<trkpt lat="50.162372" lon="5.037328"><ele>175.07</ele><time>2025-05-25T14:40:57Z</time></trkpt>
<trkpt lat="50.162751" lon="5.036881"><ele>177.93</ele><time>2025-05-25T14:41:01Z</time></trkpt>
<trkpt lat="50.165597" lon="5.032902"><ele>188.47</ele><time>2025-05-25T14:41:06Z</time></trkpt>
<trkpt lat="50.166691" lon="5.030857"><ele>180.09</ele><time>2025-05-25T14:41:10Z</time></trkpt>
<trkpt lat="50.166973" lon="5.029979"><ele>175.65</ele><time>2025-05-25T14:41:15Z</time></trkpt>
<trkpt lat="50.167211" lon="5.029095"><ele>169.12</ele><time>2025-05-25T14:41:20Z</time></trkpt>
<trkpt lat="50.167499" lon="5.028144"><ele>167.32</ele><time>2025-05-25T14:41:24Z</time></trkpt>
<trkpt lat="50.168165" lon="5.027378"><ele>167.0</ele><time>2025-05-25T14:41:29Z</time></trkpt>
<trkpt lat="50.168238" lon="5.027259"><ele>167.0</ele><time>2025-05-25T14:41:33Z</time></trkpt>
<trkpt lat="50.16826" lon="5.027091"><ele>166.87</ele><time>2025-05-25T14:41:38Z</time></trkpt>
<trkpt lat="50.168234" lon="5.026907"><ele>166.64</ele><time>2025-05-25T14:41:43Z</time></trkpt>
<trkpt lat="50.168037" lon="5.026783"><ele>165.96</ele><time>2025-05-25T14:41:47Z</time></trkpt>
<trkpt lat="50.167919" lon="5.026792"><ele>167.08</ele><time>2025-05-25T14:42:03Z</time></trkpt>
<trkpt lat="50.167919" lon="5.026792"><ele>167.08</ele><time>2025-05-25T14:42:03Z</time></trkpt>
<trkpt lat="50.168037" lon="5.026783"><ele>165.96</ele><time>2025-05-25T14:42:05Z</time></trkpt>
<trkpt lat="50.16791" lon="5.026648"><ele>165.44</ele><time>2025-05-25T14:42:07Z</time></trkpt>
<trkpt lat="50.167794" lon="5.026319"><ele>164.12</ele><time>2025-05-25T14:42:09Z</time></trkpt>
<trkpt lat="50.167338" lon="5.02485"><ele>158.7</ele><time>2025-05-25T14:42:12Z</time></trkpt>
<trkpt lat="50.167104" lon="5.023798"><ele>154.83</ele><time>2025-05-25T14:42:14Z</time></trkpt>
<trkpt lat="50.167043" lon="5.023363"><ele>152.21</ele><time>2025-05-25T14:42:16Z</time></trkpt>
<trkpt lat="50.167032" lon="5.022967"><ele>149.46</ele><time>2025-05-25T14:42:19Z</time></trkpt>
<trkpt lat="50.167076" lon="5.02272"><ele>148.75</ele><time>2025-05-25T14:42:21Z</time></trkpt>
<trkpt lat="50.167338" lon="5.02204"><ele>147.52</ele><time>2025-05-25T14:42:23Z</time></trkpt>
<trkpt lat="50.167791" lon="5.020159"><ele>140.02</ele><time>2025-05-25T14:42:26Z</time></trkpt>
<trkpt lat="50.167816" lon="5.019848"><ele>144.29</ele><time>2025-05-25T14:42:28Z</time></trkpt>
<trkpt lat="50.16768" lon="5.019592"><ele>147.31</ele><time>2025-05-25T14:42:30Z</time></trkpt>
<trkpt lat="50.167225" lon="5.019132"><ele>147.15</ele><time>2025-05-25T14:42:33Z</time></trkpt>
<trkpt lat="50.167026" lon="5.018878"><ele>148.1</ele><time>2025-05-25T14:42:35Z</time></trkpt>
<trkpt lat="50.166999" lon="5.018513"><ele>151.16</ele><time>2025-05-25T14:42:37Z</time></trkpt>
<trkpt lat="50.167002" lon="5.018064"><ele>153.99</ele><time>2025-05-25T14:42:40Z</time></trkpt>
<trkpt lat="50.16695" lon="5.016726"><ele>156.07</ele><time>2025-05-25T14:42:42Z</time></trkpt>
<trkpt lat="50.167022" lon="5.016392"><ele>157.55</ele><time>2025-05-25T14:42:44Z</time></trkpt>
<trkpt lat="50.167137" lon="5.016112"><ele>157.69</ele><time>2025-05-25T14:42:47Z</time></trkpt>
<trkpt lat="50.167286" lon="5.015858"><ele>158.28</ele><time>2025-05-25T14:42:49Z</time></trkpt>
<trkpt lat="50.167686" lon="5.015645"><ele>165.11</ele><time>2025-05-25T14:42:51Z</time></trkpt>
<trkpt lat="50.167878" lon="5.015414"><ele>168.11</ele><time>2025-05-25T14:42:54Z</time></trkpt>
<trkpt lat="50.168169" lon="5.014419"><ele>168.96</ele><time>2025-05-25T14:42:56Z</time></trkpt>
<trkpt lat="50.168257" lon="5.013894"><ele>168.27</ele><time>2025-05-25T14:42:58Z</time></trkpt>
<trkpt lat="50.168297" lon="5.013109"><ele>167.92</ele><time>2025-05-25T14:43:01Z</time></trkpt>
<trkpt lat="50.168382" lon="5.012789"><ele>168.35</ele><time>2025-05-25T14:43:03Z</time></trkpt>
<trkpt lat="50.168507" lon="5.012677"><ele>169.08</ele><time>2025-05-25T14:43:05Z</time></trkpt>
<trkpt lat="50.168507" lon="5.012677"><ele>169.08</ele><time>2025-05-25T14:43:05Z</time></trkpt>
<trkpt lat="50.168584" lon="5.012607"><ele>169.81</ele><time>2025-05-25T14:43:09Z</time></trkpt>
<trkpt lat="50.170297" lon="5.012551"><ele>167.99</ele><time>2025-05-25T14:43:12Z</time></trkpt>
<trkpt lat="50.170707" lon="5.012581"><ele>164.49</ele><time>2025-05-25T14:43:15Z</time></trkpt>
<trkpt lat="50.171405" lon="5.012885"><ele>161.33</ele><time>2025-05-25T14:43:18Z</time></trkpt>
<trkpt lat="50.171579" lon="5.012888"><ele>160.71</ele><time>2025-05-25T14:43:21Z</time></trkpt>
<trkpt lat="50.171689" lon="5.012831"><ele>160.18</ele><time>2025-05-25T14:43:24Z</time></trkpt>
<trkpt lat="50.171994" lon="5.012536"><ele>158.9</ele><time>2025-05-25T14:43:28Z</time></trkpt>
<trkpt lat="50.172318" lon="5.012415"><ele>157.87</ele><time>2025-05-25T14:43:31Z</time></trkpt>
<trkpt lat="50.172495" lon="5.012463"><ele>157.28</ele><time>2025-05-25T14:43:34Z</time></trkpt>
<trkpt lat="50.172889" lon="5.012835"><ele>155.19</ele><time>2025-05-25T14:43:37Z</time></trkpt>
<trkpt lat="50.173293" lon="5.013143"><ele>155.54</ele><time>2025-05-25T14:43:40Z</time></trkpt>
<trkpt lat="50.173611" lon="5.013305"><ele>155.0</ele><time>2025-05-25T14:43:44Z</time></trkpt>
<trkpt lat="50.173981" lon="5.013322"><ele>154.04</ele><time>2025-05-25T14:43:47Z</time></trkpt>
<trkpt lat="50.174924" lon="5.013045"><ele>152.91</ele><time>2025-05-25T14:43:50Z</time></trkpt>
<trkpt lat="50.175409" lon="5.012687"><ele>153.5</ele><time>2025-05-25T14:43:53Z</time></trkpt>
<trkpt lat="50.175652" lon="5.012603"><ele>153.76</ele><time>2025-05-25T14:43:56Z</time></trkpt>
<trkpt lat="50.178423" lon="5.013157"><ele>162.31</ele><time>2025-05-25T14:43:59Z</time></trkpt>
<trkpt lat="50.178616" lon="5.013105"><ele>161.82</ele><time>2025-05-25T14:44:03Z</time></trkpt>
<trkpt lat="50.17928" lon="5.012802"><ele>161.72</ele><time>2025-05-25T14:44:06Z</time></trkpt>
<trkpt lat="50.179789" lon="5.012707"><ele>155.65</ele><time>2025-05-25T14:44:09Z</time></trkpt>
<trkpt lat="50.18024" lon="5.012783"><ele>154.03</ele><time>2025-05-25T14:44:12Z</time></trkpt>
<trkpt lat="50.181265" lon="5.012904"><ele>148.89</ele><time>2025-05-25T14:44:15Z</time></trkpt>
<trkpt lat="50.181652" lon="5.013049"><ele>145.15</ele><time>2025-05-25T14:44:19Z</time></trkpt>
<trkpt lat="50.181928" lon="5.013073"><ele>144.06</ele><time>2025-05-25T14:44:22Z</time></trkpt>
<trkpt lat="50.182717" lon="5.012929"><ele>138.52</ele><time>2025-05-25T14:44:25Z</time></trkpt>
<trkpt lat="50.183075" lon="5.012746"><ele>136.02</ele><time>2025-05-25T14:44:28Z</time></trkpt>
<trkpt lat="50.183323" lon="5.012578"><ele>136.51</ele><time>2025-05-25T14:44:31Z</time></trkpt>
<trkpt lat="50.183615" lon="5.012318"><ele>134.7</ele><time>2025-05-25T14:44:34Z</time></trkpt>
<trkpt lat="50.184085" lon="5.012003"><ele>132.57</ele><time>2025-05-25T14:44:38Z</time></trkpt>
<trkpt lat="50.184731" lon="5.011353"><ele>126.96</ele><time>2025-05-25T14:44:41Z</time></trkpt>
<trkpt lat="50.18478" lon="5.011042"><ele>126.73</ele><time>2025-05-25T14:44:44Z</time></trkpt>
<trkpt lat="50.18487" lon="5.010869"><ele>125.88</ele><time>2025-05-25T14:44:47Z</time></trkpt>
<trkpt lat="50.184944" lon="5.010764"><ele>124.85</ele><time>2025-05-25T14:44:50Z</time></trkpt>
<trkpt lat="50.185185" lon="5.010549"><ele>123.3</ele><time>2025-05-25T14:44:54Z</time></trkpt>
<trkpt lat="50.185829" lon="5.009727"><ele>117.01</ele><time>2025-05-25T14:44:57Z</time></trkpt>
<trkpt lat="50.185924" lon="5.009561"><ele>116.61</ele><time>2025-05-25T14:45:00Z</time></trkpt>
<trkpt lat="50.185975" lon="5.009398"><ele>116.85</ele><time>2025-05-25T14:45:03Z</time></trkpt>
<trkpt lat="50.186005" lon="5.009193"><ele>118.43</ele><time>2025-05-25T14:45:06Z</time></trkpt>
<trkpt lat="50.186018" lon="5.008969"><ele>119.62</ele><time>2025-05-25T14:45:10Z</time></trkpt>
<trkpt lat="50.186024" lon="5.008509"><ele>122.36</ele><time>2025-05-25T14:45:13Z</time></trkpt>
<trkpt lat="50.18599" lon="5.007973"><ele>126.15</ele><time>2025-05-25T14:45:16Z</time></trkpt>
<trkpt lat="50.185993" lon="5.007796"><ele>127.44</ele><time>2025-05-25T14:45:19Z</time></trkpt>
<trkpt lat="50.185953" lon="5.007472"><ele>129.16</ele><time>2025-05-25T14:45:22Z</time></trkpt>
<trkpt lat="50.185985" lon="5.007394"><ele>129.55</ele><time>2025-05-25T14:45:24Z</time></trkpt>
<trkpt lat="50.186132" lon="5.007213"><ele>129.95</ele><time>2025-05-25T14:45:27Z</time></trkpt>
<trkpt lat="50.186353" lon="5.00699"><ele>130.76</ele><time>2025-05-25T14:45:29Z</time></trkpt>
<trkpt lat="50.187224" lon="5.006311"><ele>130.8</ele><time>2025-05-25T14:45:31Z</time></trkpt>
<trkpt lat="50.188339" lon="5.005161"><ele>124.76</ele><time>2025-05-25T14:45:33Z</time></trkpt>
<trkpt lat="50.188419" lon="5.005115"><ele>123.89</ele><time>2025-05-25T14:45:36Z</time></trkpt>
<trkpt lat="50.18849" lon="5.005106"><ele>123.3</ele><time>2025-05-25T14:45:38Z</time></trkpt>
<trkpt lat="50.18849" lon="5.005106"><ele>123.3</ele><time>2025-05-25T14:45:38Z</time></trkpt>
<trkpt lat="50.188499" lon="5.005105"><ele>122.72</ele><time>2025-05-25T14:45:39Z</time></trkpt>
<trkpt lat="50.188578" lon="5.005139"><ele>121.48</ele><time>2025-05-25T14:45:41Z</time></trkpt>
<trkpt lat="50.188638" lon="5.005199"><ele>120.81</ele><time>2025-05-25T14:45:43Z</time></trkpt>
<trkpt lat="50.18869" lon="5.00529"><ele>120.42</ele><time>2025-05-25T14:45:44Z</time></trkpt>
<trkpt lat="50.189091" lon="5.006163"><ele>119.0</ele><time>2025-05-25T14:45:46Z</time></trkpt>
<trkpt lat="50.189501" lon="5.006955"><ele>118.37</ele><time>2025-05-25T14:45:47Z</time></trkpt>
<trkpt lat="50.189714" lon="5.007224"><ele>118.94</ele><time>2025-05-25T14:45:49Z</time></trkpt>
<trkpt lat="50.190429" lon="5.007977"><ele>121.57</ele><time>2025-05-25T14:45:50Z</time></trkpt>
<trkpt lat="50.191055" lon="5.008667"><ele>129.4</ele><time>2025-05-25T14:45:52Z</time></trkpt>
<trkpt lat="50.191247" lon="5.00912"><ele>133.73</ele><time>2025-05-25T14:45:54Z</time></trkpt>
<trkpt lat="50.191358" lon="5.009468"><ele>136.01</ele><time>2025-05-25T14:45:55Z</time></trkpt>
<trkpt lat="50.191447" lon="5.009873"><ele>137.89</ele><time>2025-05-25T14:45:57Z</time></trkpt>
<trkpt lat="50.191495" lon="5.010285"><ele>139.29</ele><time>2025-05-25T14:45:58Z</time></trkpt>
<trkpt lat="50.191545" lon="5.012562"><ele>146.34</ele><time>2025-05-25T14:46:00Z</time></trkpt>
<trkpt lat="50.191623" lon="5.013263"><ele>144.31</ele><time>2025-05-25T14:46:01Z</time></trkpt>
<trkpt lat="50.19168" lon="5.013536"><ele>144.39</ele><time>2025-05-25T14:46:03Z</time></trkpt>
<trkpt lat="50.191808" lon="5.01391"><ele>148.57</ele><time>2025-05-25T14:46:05Z</time></trkpt>
<trkpt lat="50.192179" lon="5.014855"><ele>151.21</ele><time>2025-05-25T14:46:06Z</time></trkpt>
<trkpt lat="50.192286" lon="5.015292"><ele>153.34</ele><time>2025-05-25T14:46:08Z</time></trkpt>
<trkpt lat="50.192473" lon="5.016662"><ele>162.42</ele><time>2025-05-25T14:46:09Z</time></trkpt>
<trkpt lat="50.192592" lon="5.017276"><ele>165.25</ele><time>2025-05-25T14:46:11Z</time></trkpt>
<trkpt lat="50.19268" lon="5.017638"><ele>166.56</ele><time>2025-05-25T14:46:12Z</time></trkpt>
<trkpt lat="50.193004" lon="5.018639"><ele>174.18</ele><time>2025-05-25T14:46:14Z</time></trkpt>
<trkpt lat="50.193281" lon="5.019581"><ele>176.24</ele><time>2025-05-25T14:46:16Z</time></trkpt>
<trkpt lat="50.193415" lon="5.019985"><ele>178.2</ele><time>2025-05-25T14:46:17Z</time></trkpt>
<trkpt lat="50.193456" lon="5.020295"><ele>178.74</ele><time>2025-05-25T14:46:19Z</time></trkpt>
<trkpt lat="50.193466" lon="5.021731"><ele>183.28</ele><time>2025-05-25T14:46:20Z</time></trkpt>
<trkpt lat="50.193425" lon="5.022467"><ele>186.9</ele><time>2025-05-25T14:46:22Z</time></trkpt>
<trkpt lat="50.193427" lon="5.022691"><ele>188.16</ele><time>2025-05-25T14:46:23Z</time></trkpt>
<trkpt lat="50.193468" lon="5.022841"><ele>190.0</ele><time>2025-05-25T14:46:25Z</time></trkpt>
<trkpt lat="50.193614" lon="5.023082"><ele>194.33</ele><time>2025-05-25T14:46:27Z</time></trkpt>
<trkpt lat="50.193639" lon="5.023164"><ele>195.5</ele><time>2025-05-25T14:46:28Z</time></trkpt>
<trkpt lat="50.193619" lon="5.023264"><ele>196.32</ele><time>2025-05-25T14:46:30Z</time></trkpt>
<trkpt lat="50.193531" lon="5.023342"><ele>195.94</ele><time>2025-05-25T14:46:31Z</time></trkpt>
<trkpt lat="50.193373" lon="5.023312"><ele>193.35</ele><time>2025-05-25T14:46:33Z</time></trkpt>
<trkpt lat="50.193282" lon="5.023257"><ele>191.62</ele><time>2025-05-25T14:46:34Z</time></trkpt>
<trkpt lat="50.193042" lon="5.022949"><ele>186.12</ele><time>2025-05-25T14:46:36Z</time></trkpt>
<trkpt lat="50.192948" lon="5.022901"><ele>184.9</ele><time>2025-05-25T14:46:38Z</time></trkpt>
<trkpt lat="50.192861" lon="5.022904"><ele>184.12</ele><time>2025-05-25T14:46:39Z</time></trkpt>
<trkpt lat="50.1928" lon="5.022969"><ele>184.25</ele><time>2025-05-25T14:46:41Z</time></trkpt>
<trkpt lat="50.192768" lon="5.023082"><ele>185.18</ele><time>2025-05-25T14:46:42Z</time></trkpt>
<trkpt lat="50.192768" lon="5.023236"><ele>186.84</ele><time>2025-05-25T14:46:44Z</time></trkpt>
<trkpt lat="50.192801" lon="5.02337"><ele>188.56</ele><time>2025-05-25T14:46:45Z</time></trkpt>
<trkpt lat="50.193033" lon="5.023796"><ele>194.83</ele><time>2025-05-25T14:46:47Z</time></trkpt>
<trkpt lat="50.193097" lon="5.024054"><ele>198.32</ele><time>2025-05-25T14:46:49Z</time></trkpt>
<trkpt lat="50.193088" lon="5.024219"><ele>200.23</ele><time>2025-05-25T14:46:50Z</time></trkpt>
<trkpt lat="50.193043" lon="5.024379"><ele>201.88</ele><time>2025-05-25T14:46:52Z</time></trkpt>
<trkpt lat="50.192981" lon="5.024512"><ele>202.91</ele><time>2025-05-25T14:46:53Z</time></trkpt>
<trkpt lat="50.192711" lon="5.024858"><ele>203.76</ele><time>2025-05-25T14:46:55Z</time></trkpt>
<trkpt lat="50.192521" lon="5.025044"><ele>203.0</ele><time>2025-05-25T14:46:56Z</time></trkpt>
<trkpt lat="50.192416" lon="5.025119"><ele>202.5</ele><time>2025-05-25T14:46:58Z</time></trkpt>
<trkpt lat="50.192163" lon="5.025216"><ele>200.36</ele><time>2025-05-25T14:47:00Z</time></trkpt>
<trkpt lat="50.192099" lon="5.025294"><ele>200.44</ele><time>2025-05-25T14:47:01Z</time></trkpt>
<trkpt lat="50.192021" lon="5.025619"><ele>202.9</ele><time>2025-05-25T14:47:03Z</time></trkpt>
<trkpt lat="50.191962" lon="5.025744"><ele>202.72</ele><time>2025-05-25T14:47:04Z</time></trkpt>
<trkpt lat="50.19179" lon="5.025956"><ele>201.29</ele><time>2025-05-25T14:47:06Z</time></trkpt>
<trkpt lat="50.191754" lon="5.026105"><ele>201.83</ele><time>2025-05-25T14:47:07Z</time></trkpt>
<trkpt lat="50.191771" lon="5.026249"><ele>203.18</ele><time>2025-05-25T14:47:09Z</time></trkpt>
<trkpt lat="50.191825" lon="5.026424"><ele>204.95</ele><time>2025-05-25T14:47:11Z</time></trkpt>
<trkpt lat="50.191903" lon="5.026569"><ele>206.4</ele><time>2025-05-25T14:47:12Z</time></trkpt>
<trkpt lat="50.192013" lon="5.026621"><ele>207.45</ele><time>2025-05-25T14:47:14Z</time></trkpt>
<trkpt lat="50.192252" lon="5.02652"><ele>210.27</ele><time>2025-05-25T14:47:15Z</time></trkpt>
<trkpt lat="50.192375" lon="5.026498"><ele>211.32</ele><time>2025-05-25T14:47:17Z</time></trkpt>
<trkpt lat="50.192618" lon="5.026602"><ele>212.32</ele><time>2025-05-25T14:47:18Z</time></trkpt>
<trkpt lat="50.192915" lon="5.026832"><ele>214.87</ele><time>2025-05-25T14:47:20Z</time></trkpt>
<trkpt lat="50.193213" lon="5.027114"><ele>219.79</ele><time>2025-05-25T14:47:22Z</time></trkpt>
<trkpt lat="50.1935" lon="5.027429"><ele>223.8</ele><time>2025-05-25T14:47:23Z</time></trkpt>
<trkpt lat="50.193809" lon="5.027698"><ele>228.05</ele><time>2025-05-25T14:47:25Z</time></trkpt>
<trkpt lat="50.19406" lon="5.028015"><ele>231.32</ele><time>2025-05-25T14:47:26Z</time></trkpt>
<trkpt lat="50.194288" lon="5.028363"><ele>231.75</ele><time>2025-05-25T14:47:28Z</time></trkpt>
<trkpt lat="50.194471" lon="5.028607"><ele>234.57</ele><time>2025-05-25T14:47:29Z</time></trkpt>
<trkpt lat="50.194546" lon="5.028743"><ele>236.19</ele><time>2025-05-25T14:47:31Z</time></trkpt>
<trkpt lat="50.194582" lon="5.02888"><ele>236.98</ele><time>2025-05-25T14:47:33Z</time></trkpt>
<trkpt lat="50.194585" lon="5.028981"><ele>237.54</ele><time>2025-05-25T14:47:34Z</time></trkpt>
<trkpt lat="50.194558" lon="5.029102"><ele>237.68</ele><time>2025-05-25T14:47:36Z</time></trkpt>
<trkpt lat="50.194497" lon="5.029215"><ele>237.41</ele><time>2025-05-25T14:47:37Z</time></trkpt>
<trkpt lat="50.194399" lon="5.02925"><ele>236.58</ele><time>2025-05-25T14:47:39Z</time></trkpt>
<trkpt lat="50.193839" lon="5.028972"><ele>229.48</ele><time>2025-05-25T14:47:40Z</time></trkpt>
<trkpt lat="50.193674" lon="5.028957"><ele>228.0</ele><time>2025-05-25T14:47:42Z</time></trkpt>
<trkpt lat="50.193575" lon="5.029085"><ele>228.16</ele><time>2025-05-25T14:47:44Z</time></trkpt>
<trkpt lat="50.193564" lon="5.029228"><ele>229.29</ele><time>2025-05-25T14:47:45Z</time></trkpt>
<trkpt lat="50.19361" lon="5.029782"><ele>233.42</ele><time>2025-05-25T14:47:47Z</time></trkpt>
<trkpt lat="50.193628" lon="5.030333"><ele>237.58</ele><time>2025-05-25T14:47:48Z</time></trkpt>
<trkpt lat="50.19363" lon="5.031123"><ele>243.13</ele><time>2025-05-25T14:47:50Z</time></trkpt>
<trkpt lat="50.193495" lon="5.031958"><ele>248.41</ele><time>2025-05-25T14:47:51Z</time></trkpt>
<trkpt lat="50.193459" lon="5.032483"><ele>253.13</ele><time>2025-05-25T14:47:53Z</time></trkpt>
<trkpt lat="50.193461" lon="5.032735"><ele>254.85</ele><time>2025-05-25T14:47:55Z</time></trkpt>
<trkpt lat="50.193528" lon="5.03372"><ele>256.29</ele><time>2025-05-25T14:47:56Z</time></trkpt>
<trkpt lat="50.193595" lon="5.034346"><ele>257.72</ele><time>2025-05-25T14:47:58Z</time></trkpt>
<trkpt lat="50.194159" lon="5.037783"><ele>255.05</ele><time>2025-05-25T14:47:59Z</time></trkpt>
<trkpt lat="50.1943" lon="5.03866"><ele>254.56</ele><time>2025-05-25T14:48:02Z</time></trkpt>
<trkpt lat="50.194304" lon="5.038649"><ele>254.36</ele><time>2025-05-25T14:48:02Z</time></trkpt>
<trkpt lat="50.194304" lon="5.038649"><ele>254.36</ele><time>2025-05-25T14:48:02Z</time></trkpt>
<trkpt lat="50.194847" lon="5.037109"><ele>251.04</ele><time>2025-05-25T14:48:06Z</time></trkpt>
<trkpt lat="50.194987" lon="5.036805"><ele>250.45</ele><time>2025-05-25T14:48:09Z</time></trkpt>
<trkpt lat="50.195146" lon="5.036589"><ele>250.77</ele><time>2025-05-25T14:48:12Z</time></trkpt>
<trkpt lat="50.195826" lon="5.035867"><ele>253.19</ele><time>2025-05-25T14:48:15Z</time></trkpt>
<trkpt lat="50.202737" lon="5.028623"><ele>249.04</ele><time>2025-05-25T14:48:18Z</time></trkpt>
<trkpt lat="50.204031" lon="5.027262"><ele>238.49</ele><time>2025-05-25T14:48:21Z</time></trkpt>
<trkpt lat="50.20415" lon="5.027116"><ele>237.25</ele><time>2025-05-25T14:48:24Z</time></trkpt>
<trkpt lat="50.204351" lon="5.02676"><ele>236.66</ele><time>2025-05-25T14:48:28Z</time></trkpt>
<trkpt lat="50.204453" lon="5.026485"><ele>235.13</ele><time>2025-05-25T14:48:31Z</time></trkpt>
<trkpt lat="50.204556" lon="5.026135"><ele>233.37</ele><time>2025-05-25T14:48:34Z</time></trkpt>
<trkpt lat="50.20473" lon="5.025345"><ele>230.59</ele><time>2025-05-25T14:48:37Z</time></trkpt>
<trkpt lat="50.204847" lon="5.025017"><ele>230.44</ele><time>2025-05-25T14:48:40Z</time></trkpt>
<trkpt lat="50.205064" lon="5.02452"><ele>226.5</ele><time>2025-05-25T14:48:43Z</time></trkpt>
<trkpt lat="50.205517" lon="5.023617"><ele>217.68</ele><time>2025-05-25T14:48:47Z</time></trkpt>
<trkpt lat="50.205683" lon="5.023318"><ele>215.54</ele><time>2025-05-25T14:48:50Z</time></trkpt>
<trkpt lat="50.205786" lon="5.023171"><ele>213.91</ele><time>2025-05-25T14:48:53Z</time></trkpt>
<trkpt lat="50.205913" lon="5.023038"><ele>212.83</ele><time>2025-05-25T14:48:56Z</time></trkpt>
<trkpt lat="50.206154" lon="5.022911"><ele>213.16</ele><time>2025-05-25T14:48:59Z</time></trkpt>
<trkpt lat="50.206295" lon="5.022886"><ele>212.02</ele><time>2025-05-25T14:49:02Z</time></trkpt>
<trkpt lat="50.206426" lon="5.022907"><ele>211.05</ele><time>2025-05-25T14:49:05Z</time></trkpt>
<trkpt lat="50.206656" lon="5.023031"><ele>207.87</ele><time>2025-05-25T14:49:09Z</time></trkpt>
<trkpt lat="50.20676" lon="5.023145"><ele>206.81</ele><time>2025-05-25T14:49:12Z</time></trkpt>
<trkpt lat="50.20684" lon="5.023296"><ele>206.78</ele><time>2025-05-25T14:49:15Z</time></trkpt>
<trkpt lat="50.207009" lon="5.023778"><ele>207.98</ele><time>2025-05-25T14:49:18Z</time></trkpt>
<trkpt lat="50.207712" lon="5.02619"><ele>201.77</ele><time>2025-05-25T14:49:21Z</time></trkpt>
<trkpt lat="50.207808" lon="5.02646"><ele>200.33</ele><time>2025-05-25T14:49:24Z</time></trkpt>
<trkpt lat="50.208056" lon="5.026888"><ele>194.17</ele><time>2025-05-25T14:49:27Z</time></trkpt>
<trkpt lat="50.208207" lon="5.027071"><ele>189.48</ele><time>2025-05-25T14:49:31Z</time></trkpt>
<trkpt lat="50.208463" lon="5.027368"><ele>182.08</ele><time>2025-05-25T14:49:34Z</time></trkpt>
<trkpt lat="50.208641" lon="5.027541"><ele>179.32</ele><time>2025-05-25T14:49:37Z</time></trkpt>
<trkpt lat="50.208864" lon="5.027697"><ele>179.58</ele><time>2025-05-25T14:49:40Z</time></trkpt>
<trkpt lat="50.208986" lon="5.027736"><ele>178.75</ele><time>2025-05-25T14:49:43Z</time></trkpt>
<trkpt lat="50.209435" lon="5.027733"><ele>177.47</ele><time>2025-05-25T14:49:46Z</time></trkpt>
<trkpt lat="50.209925" lon="5.027669"><ele>180.97</ele><time>2025-05-25T14:49:50Z</time></trkpt>
<trkpt lat="50.210107" lon="5.02761"><ele>183.38</ele><time>2025-05-25T14:49:53Z</time></trkpt>
<trkpt lat="50.210472" lon="5.027379"><ele>189.87</ele><time>2025-05-25T14:49:56Z</time></trkpt>
<trkpt lat="50.210603" lon="5.027343"><ele>190.73</ele><time>2025-05-25T14:49:59Z</time></trkpt>
<trkpt lat="50.210788" lon="5.027333"><ele>190.5</ele><time>2025-05-25T14:50:02Z</time></trkpt>
<trkpt lat="50.211038" lon="5.027372"><ele>188.77</ele><time>2025-05-25T14:50:05Z</time></trkpt>
<trkpt lat="50.211431" lon="5.027484"><ele>188.72</ele><time>2025-05-25T14:50:08Z</time></trkpt>
<trkpt lat="50.21185" lon="5.027702"><ele>193.67</ele><time>2025-05-25T14:50:12Z</time></trkpt>
<trkpt lat="50.211955" lon="5.027774"><ele>195.21</ele><time>2025-05-25T14:50:15Z</time></trkpt>
<trkpt lat="50.212286" lon="5.028112"><ele>197.25</ele><time>2025-05-25T14:50:18Z</time></trkpt>
<trkpt lat="50.212687" lon="5.028626"><ele>198.36</ele><time>2025-05-25T14:50:21Z</time></trkpt>
<trkpt lat="50.212772" lon="5.02871"><ele>197.78</ele><time>2025-05-25T14:50:24Z</time></trkpt>
<trkpt lat="50.21294" lon="5.02881"><ele>199.29</ele><time>2025-05-25T14:50:27Z</time></trkpt>
<trkpt lat="50.213021" lon="5.028811"><ele>201.07</ele><time>2025-05-25T14:50:31Z</time></trkpt>
<trkpt lat="50.213103" lon="5.028762"><ele>202.98</ele><time>2025-05-25T14:50:34Z</time></trkpt>
<trkpt lat="50.213177" lon="5.028678"><ele>204.7</ele><time>2025-05-25T14:50:37Z</time></trkpt>
<trkpt lat="50.213247" lon="5.028483"><ele>207.13</ele><time>2025-05-25T14:50:40Z</time></trkpt>
<trkpt lat="50.213251" lon="5.028246"><ele>208.5</ele><time>2025-05-25T14:50:43Z</time></trkpt>
<trkpt lat="50.213209" lon="5.028078"><ele>208.52</ele><time>2025-05-25T14:50:46Z</time></trkpt>
<trkpt lat="50.21265" lon="5.026862"><ele>215.29</ele><time>2025-05-25T14:50:49Z</time></trkpt>
<trkpt lat="50.21259" lon="5.02669"><ele>215.91</ele><time>2025-05-25T14:50:53Z</time></trkpt>
<trkpt lat="50.212545" lon="5.026374"><ele>215.28</ele><time>2025-05-25T14:50:56Z</time></trkpt>
<trkpt lat="50.212583" lon="5.026062"><ele>214.95</ele><time>2025-05-25T14:50:59Z</time></trkpt>
<trkpt lat="50.212636" lon="5.025889"><ele>215.86</ele><time>2025-05-25T14:51:02Z</time></trkpt>
<trkpt lat="50.212771" lon="5.025622"><ele>217.9</ele><time>2025-05-25T14:51:05Z</time></trkpt>
<trkpt lat="50.213025" lon="5.025374"><ele>223.1</ele><time>2025-05-25T14:51:08Z</time></trkpt>
<trkpt lat="50.221576" lon="5.018914"><ele>278.43</ele><time>2025-05-25T14:51:12Z</time></trkpt>
<trkpt lat="50.221576" lon="5.018914"><ele>278.43</ele><time>2025-05-25T14:51:12Z</time></trkpt>
<trkpt lat="50.22159" lon="5.018903"><ele>279.0</ele><time>2025-05-25T14:51:12Z</time></trkpt>
<trkpt lat="50.219896" lon="5.013323"><ele>273.01</ele><time>2025-05-25T14:51:16Z</time></trkpt>
<trkpt lat="50.219821" lon="5.013121"><ele>273.49</ele><time>2025-05-25T14:51:21Z</time></trkpt>
<trkpt lat="50.21976" lon="5.013082"><ele>273.78</ele><time>2025-05-25T14:51:26Z</time></trkpt>
<trkpt lat="50.219695" lon="5.013101"><ele>273.83</ele><time>2025-05-25T14:51:30Z</time></trkpt>
<trkpt lat="50.219412" lon="5.013416"><ele>273.61</ele><time>2025-05-25T14:51:35Z</time></trkpt>
<trkpt lat="50.219178" lon="5.013625"><ele>275.97</ele><time>2025-05-25T14:51:40Z</time></trkpt>
<trkpt lat="50.218938" lon="5.012806"><ele>276.82</ele><time>2025-05-25T14:51:42Z</time></trkpt>
<trkpt lat="50.218504" lon="5.011466"><ele>276.61</ele><time>2025-05-25T14:51:44Z</time></trkpt>
<trkpt lat="50.218063" lon="5.010328"><ele>275.18</ele><time>2025-05-25T14:51:47Z</time></trkpt>
<trkpt lat="50.217624" lon="5.009278"><ele>272.4</ele><time>2025-05-25T14:51:49Z</time></trkpt>
<trkpt lat="50.217438" lon="5.008945"><ele>272.0</ele><time>2025-05-25T14:51:52Z</time></trkpt>
<trkpt lat="50.217238" lon="5.00864"><ele>271.95</ele><time>2025-05-25T14:51:54Z</time></trkpt>
<trkpt lat="50.216909" lon="5.008232"><ele>270.79</ele><time>2025-05-25T14:51:57Z</time></trkpt>
<trkpt lat="50.216584" lon="5.007713"><ele>270.23</ele><time>2025-05-25T14:51:59Z</time></trkpt>
<trkpt lat="50.216475" lon="5.007458"><ele>271.0</ele><time>2025-05-25T14:52:01Z</time></trkpt>
<trkpt lat="50.216387" lon="5.007184"><ele>270.86</ele><time>2025-05-25T14:52:04Z</time></trkpt>
<trkpt lat="50.21633" lon="5.006908"><ele>270.0</ele><time>2025-05-25T14:52:06Z</time></trkpt>
<trkpt lat="50.21633" lon="5.00667"><ele>270.0</ele><time>2025-05-25T14:52:09Z</time></trkpt>
<trkpt lat="50.216415" lon="5.006471"><ele>269.48</ele><time>2025-05-25T14:52:11Z</time></trkpt>
<trkpt lat="50.216875" lon="5.005944"><ele>270.9</ele><time>2025-05-25T14:52:14Z</time></trkpt>
<trkpt lat="50.216957" lon="5.005785"><ele>271.0</ele><time>2025-05-25T14:52:16Z</time></trkpt>
<trkpt lat="50.216986" lon="5.005569"><ele>271.0</ele><time>2025-05-25T14:52:18Z</time></trkpt>
<trkpt lat="50.216887" lon="5.004874"><ele>270.89</ele><time>2025-05-25T14:52:21Z</time></trkpt>
<trkpt lat="50.216885" lon="5.004532"><ele>271.0</ele><time>2025-05-25T14:52:23Z</time></trkpt>
<trkpt lat="50.216838" lon="5.004211"><ele>271.0</ele><time>2025-05-25T14:52:26Z</time></trkpt>
<trkpt lat="50.216673" lon="5.00387"><ele>271.07</ele><time>2025-05-25T14:52:28Z</time></trkpt>
<trkpt lat="50.216457" lon="5.003227"><ele>270.4</ele><time>2025-05-25T14:52:31Z</time></trkpt>
<trkpt lat="50.216414" lon="5.002845"><ele>270.09</ele><time>2025-05-25T14:52:33Z</time></trkpt>
<trkpt lat="50.216338" lon="5.002538"><ele>268.95</ele><time>2025-05-25T14:52:35Z</time></trkpt>
<trkpt lat="50.215913" lon="5.002083"><ele>267.5</ele><time>2025-05-25T14:52:38Z</time></trkpt>
<trkpt lat="50.215455" lon="5.00106"><ele>259.75</ele><time>2025-05-25T14:52:40Z</time></trkpt>
<trkpt lat="50.214681" lon="4.999764"><ele>253.87</ele><time>2025-05-25T14:52:43Z</time></trkpt>
<trkpt lat="50.214424" lon="4.999438"><ele>253.05</ele><time>2025-05-25T14:52:45Z</time></trkpt>
<trkpt lat="50.213505" lon="4.998648"><ele>254.51</ele><time>2025-05-25T14:52:48Z</time></trkpt>
<trkpt lat="50.212988" lon="4.997996"><ele>253.84</ele><time>2025-05-25T14:52:50Z</time></trkpt>
<trkpt lat="50.21246" lon="4.997418"><ele>252.41</ele><time>2025-05-25T14:52:53Z</time></trkpt>
<trkpt lat="50.212137" lon="4.996801"><ele>247.82</ele><time>2025-05-25T14:52:55Z</time></trkpt>
<trkpt lat="50.211314" lon="4.995586"><ele>245.13</ele><time>2025-05-25T14:52:57Z</time></trkpt>
<trkpt lat="50.211198" lon="4.995373"><ele>244.18</ele><time>2025-05-25T14:53:00Z</time></trkpt>
<trkpt lat="50.211122" lon="4.995189"><ele>244.35</ele><time>2025-05-25T14:53:02Z</time></trkpt>
<trkpt lat="50.210678" lon="4.99389"><ele>236.88</ele><time>2025-05-25T14:53:05Z</time></trkpt>
<trkpt lat="50.209823" lon="4.991292"><ele>223.1</ele><time>2025-05-25T14:53:07Z</time></trkpt>
<trkpt lat="50.209728" lon="4.990867"><ele>220.21</ele><time>2025-05-25T14:53:10Z</time></trkpt>
<trkpt lat="50.209675" lon="4.99073"><ele>219.69</ele><time>2025-05-25T14:53:12Z</time></trkpt>
<trkpt lat="50.209463" lon="4.990375"><ele>219.37</ele><time>2025-05-25T14:53:14Z</time></trkpt>
<trkpt lat="50.209168" lon="4.989952"><ele>217.66</ele><time>2025-05-25T14:53:17Z</time></trkpt>
<trkpt lat="50.208901" lon="4.989495"><ele>213.44</ele><time>2025-05-25T14:53:19Z</time></trkpt>
<trkpt lat="50.208773" lon="4.989311"><ele>212.1</ele><time>2025-05-25T14:53:22Z</time></trkpt>
<trkpt lat="50.208688" lon="4.989162"><ele>211.26</ele><time>2025-05-25T14:53:24Z</time></trkpt>
<trkpt lat="50.208509" lon="4.988736"><ele>209.62</ele><time>2025-05-25T14:53:27Z</time></trkpt>
<trkpt lat="50.20845" lon="4.988484"><ele>209.26</ele><time>2025-05-25T14:53:29Z</time></trkpt>
<trkpt lat="50.208389" lon="4.987841"><ele>205.06</ele><time>2025-05-25T14:53:31Z</time></trkpt>
<trkpt lat="50.208408" lon="4.987741"><ele>204.67</ele><time>2025-05-25T14:53:34Z</time></trkpt>
<trkpt lat="50.208535" lon="4.987361"><ele>204.67</ele><time>2025-05-25T14:53:36Z</time></trkpt>
<trkpt lat="50.208527" lon="4.987278"><ele>204.3</ele><time>2025-05-25T14:53:39Z</time></trkpt>
<trkpt lat="50.20849" lon="4.987212"><ele>203.74</ele><time>2025-05-25T14:53:41Z</time></trkpt>
<trkpt lat="50.208249" lon="4.986935"><ele>203.15</ele><time>2025-05-25T14:53:44Z</time></trkpt>
<trkpt lat="50.208179" lon="4.986359"><ele>206.45</ele><time>2025-05-25T14:53:46Z</time></trkpt>
<trkpt lat="50.208178" lon="4.986199"><ele>207.0</ele><time>2025-05-25T14:53:49Z</time></trkpt>
<trkpt lat="50.20822" lon="4.986094"><ele>207.84</ele><time>2025-05-25T14:53:51Z</time></trkpt>
<trkpt lat="50.20867" lon="4.985947"><ele>211.01</ele><time>2025-05-25T14:53:53Z</time></trkpt>
<trkpt lat="50.208753" lon="4.985894"><ele>211.8</ele><time>2025-05-25T14:53:56Z</time></trkpt>
<trkpt lat="50.20884" lon="4.985784"><ele>212.68</ele><time>2025-05-25T14:53:58Z</time></trkpt>
<trkpt lat="50.208483" lon="4.981079"><ele>228.06</ele><time>2025-05-25T14:54:00Z</time></trkpt>
<trkpt lat="50.208467" lon="4.980789"><ele>228.48</ele><time>2025-05-25T14:54:02Z</time></trkpt>
<trkpt lat="50.208473" lon="4.980566"><ele>228.5</ele><time>2025-05-25T14:54:04Z</time></trkpt>
<trkpt lat="50.208515" lon="4.980173"><ele>229.13</ele><time>2025-05-25T14:54:06Z</time></trkpt>
<trkpt lat="50.208569" lon="4.979901"><ele>229.51</ele><time>2025-05-25T14:54:08Z</time></trkpt>
<trkpt lat="50.208694" lon="4.979502"><ele>230.55</ele><time>2025-05-25T14:54:10Z</time></trkpt>
<trkpt lat="50.210203" lon="4.975719"><ele>227.46</ele><time>2025-05-25T14:54:12Z</time></trkpt>
<trkpt lat="50.210309" lon="4.97537"><ele>227.44</ele><time>2025-05-25T14:54:13Z</time></trkpt>
<trkpt lat="50.210369" lon="4.974959"><ele>226.22</ele><time>2025-05-25T14:54:15Z</time></trkpt>
<trkpt lat="50.210379" lon="4.974752"><ele>225.29</ele><time>2025-05-25T14:54:17Z</time></trkpt>
<trkpt lat="50.210369" lon="4.974503"><ele>224.83</ele><time>2025-05-25T14:54:19Z</time></trkpt>
<trkpt lat="50.210277" lon="4.973649"><ele>220.29</ele><time>2025-05-25T14:54:21Z</time></trkpt>
<trkpt lat="50.210143" lon="4.973105"><ele>220.29</ele><time>2025-05-25T14:54:23Z</time></trkpt>
<trkpt lat="50.209967" lon="4.972473"><ele>221.62</ele><time>2025-05-25T14:54:25Z</time></trkpt>
<trkpt lat="50.209906" lon="4.972194"><ele>221.69</ele><time>2025-05-25T14:54:27Z</time></trkpt>
<trkpt lat="50.209874" lon="4.972008"><ele>220.34</ele><time>2025-05-25T14:54:29Z</time></trkpt>
<trkpt lat="50.209775" lon="4.971098"><ele>216.79</ele><time>2025-05-25T14:54:31Z</time></trkpt>
<trkpt lat="50.20963" lon="4.970271"><ele>214.59</ele><time>2025-05-25T14:54:33Z</time></trkpt>
<trkpt lat="50.209624" lon="4.97006"><ele>213.24</ele><time>2025-05-25T14:54:34Z</time></trkpt>
<trkpt lat="50.209647" lon="4.969331"><ele>205.78</ele><time>2025-05-25T14:54:36Z</time></trkpt>
<trkpt lat="50.209523" lon="4.968409"><ele>203.96</ele><time>2025-05-25T14:54:38Z</time></trkpt>
<trkpt lat="50.209505" lon="4.968206"><ele>203.98</ele><time>2025-05-25T14:54:40Z</time></trkpt>
<trkpt lat="50.209486" lon="4.967542"><ele>201.27</ele><time>2025-05-25T14:54:42Z</time></trkpt>
<trkpt lat="50.20947" lon="4.967409"><ele>200.67</ele><time>2025-05-25T14:54:44Z</time></trkpt>
<trkpt lat="50.209435" lon="4.967265"><ele>200.37</ele><time>2025-05-25T14:54:46Z</time></trkpt>
<trkpt lat="50.209382" lon="4.967152"><ele>198.68</ele><time>2025-05-25T14:54:48Z</time></trkpt>
<trkpt lat="50.209304" lon="4.967047"><ele>196.58</ele><time>2025-05-25T14:54:50Z</time></trkpt>
<trkpt lat="50.209173" lon="4.966949"><ele>195.07</ele><time>2025-05-25T14:54:52Z</time></trkpt>
<trkpt lat="50.208458" lon="4.966573"><ele>195.53</ele><time>2025-05-25T14:54:53Z</time></trkpt>
<trkpt lat="50.208405" lon="4.966518"><ele>194.51</ele><time>2025-05-25T14:54:55Z</time></trkpt>
<trkpt lat="50.208402" lon="4.966401"><ele>190.44</ele><time>2025-05-25T14:54:57Z</time></trkpt>
<trkpt lat="50.208423" lon="4.966362"><ele>188.86</ele><time>2025-05-25T14:54:59Z</time></trkpt>
<trkpt lat="50.208518" lon="4.966353"><ele>187.25</ele><time>2025-05-25T14:55:01Z</time></trkpt>
<trkpt lat="50.20883" lon="4.966516"><ele>187.61</ele><time>2025-05-25T14:55:03Z</time></trkpt>
<trkpt lat="50.20942" lon="4.966613"><ele>185.83</ele><time>2025-05-25T14:55:05Z</time></trkpt>
<trkpt lat="50.209554" lon="4.966668"><ele>184.67</ele><time>2025-05-25T14:55:07Z</time></trkpt>
<trkpt lat="50.209624" lon="4.966735"><ele>184.43</ele><time>2025-05-25T14:55:09Z</time></trkpt>
<trkpt lat="50.209694" lon="4.966881"><ele>185.55</ele><time>2025-05-25T14:55:11Z</time></trkpt>
<trkpt lat="50.209719" lon="4.967032"><ele>187.99</ele><time>2025-05-25T14:55:12Z</time></trkpt>
<trkpt lat="50.209735" lon="4.967426"><ele>193.48</ele><time>2025-05-25T14:55:14Z</time></trkpt>
<trkpt lat="50.209817" lon="4.96785"><ele>192.39</ele><time>2025-05-25T14:55:16Z</time></trkpt>
<trkpt lat="50.210109" lon="4.968837"><ele>183.42</ele><time>2025-05-25T14:55:18Z</time></trkpt>
<trkpt lat="50.210259" lon="4.969237"><ele>182.37</ele><time>2025-05-25T14:55:20Z</time></trkpt>
<trkpt lat="50.210391" lon="4.96947"><ele>181.32</ele><time>2025-05-25T14:55:22Z</time></trkpt>
<trkpt lat="50.210485" lon="4.969598"><ele>179.87</ele><time>2025-05-25T14:55:24Z</time></trkpt>
<trkpt lat="50.211174" lon="4.970445"><ele>174.18</ele><time>2025-05-25T14:55:26Z</time></trkpt>
<trkpt lat="50.211543" lon="4.970868"><ele>171.56</ele><time>2025-05-25T14:55:28Z</time></trkpt>
<trkpt lat="50.211732" lon="4.971129"><ele>170.48</ele><time>2025-05-25T14:55:30Z</time></trkpt>
<trkpt lat="50.211835" lon="4.971316"><ele>169.22</ele><time>2025-05-25T14:55:31Z</time></trkpt>
<trkpt lat="50.212129" lon="4.972096"><ele>169.65</ele><time>2025-05-25T14:55:33Z</time></trkpt>
<trkpt lat="50.212171" lon="4.972139"><ele>169.2</ele><time>2025-05-25T14:55:35Z</time></trkpt>
<trkpt lat="50.212211" lon="4.972152"><ele>168.48</ele><time>2025-05-25T14:55:37Z</time></trkpt>
<trkpt lat="50.212244" lon="4.97213"><ele>168.0</ele><time>2025-05-25T14:55:39Z</time></trkpt>
<trkpt lat="50.212272" lon="4.972053"><ele>167.18</ele><time>2025-05-25T14:55:41Z</time></trkpt>
<trkpt lat="50.212259" lon="4.971959"><ele>166.16</ele><time>2025-05-25T14:55:43Z</time></trkpt>
<trkpt lat="50.21206" lon="4.971538"><ele>165.38</ele><time>2025-05-25T14:55:45Z</time></trkpt>
<trkpt lat="50.211983" lon="4.971285"><ele>165.22</ele><time>2025-05-25T14:55:47Z</time></trkpt>
<trkpt lat="50.211893" lon="4.970979"><ele>164.0</ele><time>2025-05-25T14:55:49Z</time></trkpt>
<trkpt lat="50.21179" lon="4.970372"><ele>157.71</ele><time>2025-05-25T14:55:50Z</time></trkpt>
<trkpt lat="50.211745" lon="4.970232"><ele>156.77</ele><time>2025-05-25T14:55:52Z</time></trkpt>
<trkpt lat="50.21168" lon="4.970095"><ele>156.93</ele><time>2025-05-25T14:55:54Z</time></trkpt>
<trkpt lat="50.211309" lon="4.969594"><ele>158.71</ele><time>2025-05-25T14:55:56Z</time></trkpt>
<trkpt lat="50.211221" lon="4.969428"><ele>159.57</ele><time>2025-05-25T14:55:58Z</time></trkpt>
<trkpt lat="50.211043" lon="4.968996"><ele>156.23</ele><time>2025-05-25T14:56:00Z</time></trkpt>
<trkpt lat="50.210495" lon="4.96753"><ele>154.0</ele><time>2025-05-25T14:56:02Z</time></trkpt>
<trkpt lat="50.210404" lon="4.967207"><ele>155.49</ele><time>2025-05-25T14:56:04Z</time></trkpt>
<trkpt lat="50.210313" lon="4.966517"><ele>156.14</ele><time>2025-05-25T14:56:06Z</time></trkpt>
<trkpt lat="50.210332" lon="4.966417"><ele>154.46</ele><time>2025-05-25T14:56:08Z</time></trkpt>
<trkpt lat="50.210363" lon="4.966377"><ele>152.09</ele><time>2025-05-25T14:56:10Z</time></trkpt>
<trkpt lat="50.210434" lon="4.966396"><ele>147.37</ele><time>2025-05-25T14:56:11Z</time></trkpt>
<trkpt lat="50.210475" lon="4.966465"><ele>145.17</ele><time>2025-05-25T14:56:13Z</time></trkpt>
<trkpt lat="50.210541" lon="4.966935"><ele>145.67</ele><time>2025-05-25T14:56:15Z</time></trkpt>
<trkpt lat="50.210579" lon="4.967105"><ele>145.34</ele><time>2025-05-25T14:56:17Z</time></trkpt>
<trkpt lat="50.210639" lon="4.967292"><ele>143.79</ele><time>2025-05-25T14:56:19Z</time></trkpt>
<trkpt lat="50.2108" lon="4.967629"><ele>140.09</ele><time>2025-05-25T14:56:21Z</time></trkpt>
<trkpt lat="50.211914" lon="4.969327"><ele>131.08</ele><time>2025-05-25T14:56:23Z</time></trkpt>
<trkpt lat="50.21208" lon="4.969553"><ele>131.45</ele><time>2025-05-25T14:56:25Z</time></trkpt>
<trkpt lat="50.212141" lon="4.969598"><ele>130.65</ele><time>2025-05-25T14:56:27Z</time></trkpt>
<trkpt lat="50.212203" lon="4.969609"><ele>129.12</ele><time>2025-05-25T14:56:29Z</time></trkpt>
<trkpt lat="50.212261" lon="4.96959"><ele>128.01</ele><time>2025-05-25T14:56:30Z</time></trkpt>
<trkpt lat="50.212332" lon="4.969532"><ele>126.5</ele><time>2025-05-25T14:56:32Z</time></trkpt>
<trkpt lat="50.212463" lon="4.969287"><ele>123.98</ele><time>2025-05-25T14:56:34Z</time></trkpt>
<trkpt lat="50.214718" lon="4.971416"><ele>136.9</ele><time>2025-05-25T14:56:37Z</time></trkpt>
<trkpt lat="50.214958" lon="4.971713"><ele>138.57</ele><time>2025-05-25T14:56:39Z</time></trkpt>
<trkpt lat="50.215348" lon="4.972468"><ele>143.13</ele><time>2025-05-25T14:56:41Z</time></trkpt>
<trkpt lat="50.215457" lon="4.972628"><ele>142.93</ele><time>2025-05-25T14:56:43Z</time></trkpt>
<trkpt lat="50.215576" lon="4.972748"><ele>141.84</ele><time>2025-05-25T14:56:45Z</time></trkpt>
<trkpt lat="50.215674" lon="4.972816"><ele>142.72</ele><time>2025-05-25T14:56:48Z</time></trkpt>
<trkpt lat="50.215846" lon="4.972887"><ele>144.78</ele><time>2025-05-25T14:56:50Z</time></trkpt>
<trkpt lat="50.216974" lon="4.973155"><ele>145.77</ele><time>2025-05-25T14:56:52Z</time></trkpt>
<trkpt lat="50.217229" lon="4.973279"><ele>147.74</ele><time>2025-05-25T14:56:54Z</time></trkpt>
<trkpt lat="50.217551" lon="4.973607"><ele>148.19</ele><time>2025-05-25T14:56:56Z</time></trkpt>
<trkpt lat="50.217995" lon="4.974123"><ele>144.1</ele><time>2025-05-25T14:56:59Z</time></trkpt>
<trkpt lat="50.218262" lon="4.974551"><ele>143.25</ele><time>2025-05-25T14:57:01Z</time></trkpt>
<trkpt lat="50.218388" lon="4.974824"><ele>144.13</ele><time>2025-05-25T14:57:03Z</time></trkpt>
<trkpt lat="50.218491" lon="4.975136"><ele>146.06</ele><time>2025-05-25T14:57:05Z</time></trkpt>
<trkpt lat="50.218574" lon="4.975462"><ele>146.73</ele><time>2025-05-25T14:57:07Z</time></trkpt>
<trkpt lat="50.218862" lon="4.977278"><ele>141.71</ele><time>2025-05-25T14:57:10Z</time></trkpt>
<trkpt lat="50.218911" lon="4.977404"><ele>142.54</ele><time>2025-05-25T14:57:12Z</time></trkpt>
<trkpt lat="50.218989" lon="4.977527"><ele>144.0</ele><time>2025-05-25T14:57:14Z</time></trkpt>
<trkpt lat="50.219574" lon="4.978181"><ele>152.63</ele><time>2025-05-25T14:57:16Z</time></trkpt>
<trkpt lat="50.219707" lon="4.978413"><ele>153.19</ele><time>2025-05-25T14:57:18Z</time></trkpt>
<trkpt lat="50.219788" lon="4.978627"><ele>152.06</ele><time>2025-05-25T14:57:21Z</time></trkpt>
<trkpt lat="50.21999" lon="4.979427"><ele>147.07</ele><time>2025-05-25T14:57:23Z</time></trkpt>
<trkpt lat="50.220069" lon="4.979825"><ele>153.71</ele><time>2025-05-25T14:57:25Z</time></trkpt>
<trkpt lat="50.220125" lon="4.980207"><ele>154.84</ele><time>2025-05-25T14:57:27Z</time></trkpt>
<trkpt lat="50.220152" lon="4.980577"><ele>150.38</ele><time>2025-05-25T14:57:29Z</time></trkpt>
<trkpt lat="50.220149" lon="4.980834"><ele>149.28</ele><time>2025-05-25T14:57:32Z</time></trkpt>
<trkpt lat="50.220126" lon="4.981115"><ele>147.28</ele><time>2025-05-25T14:57:34Z</time></trkpt>
<trkpt lat="50.219997" lon="4.981691"><ele>148.92</ele><time>2025-05-25T14:57:36Z</time></trkpt>
<trkpt lat="50.219992" lon="4.981884"><ele>148.25</ele><time>2025-05-25T14:57:38Z</time></trkpt>
<trkpt lat="50.220007" lon="4.982068"><ele>147.68</ele><time>2025-05-25T14:57:40Z</time></trkpt>
<trkpt lat="50.220083" lon="4.982578"><ele>147.7</ele><time>2025-05-25T14:57:43Z</time></trkpt>
<trkpt lat="50.220198" lon="4.983105"><ele>148.24</ele><time>2025-05-25T14:57:45Z</time></trkpt>
<trkpt lat="50.220696" lon="4.984881"><ele>144.01</ele><time>2025-05-25T14:57:47Z</time></trkpt>
<trkpt lat="50.220814" lon="4.985144"><ele>144.07</ele><time>2025-05-25T14:57:49Z</time></trkpt>
<trkpt lat="50.221206" lon="4.98589"><ele>147.23</ele><time>2025-05-25T14:57:51Z</time></trkpt>
<trkpt lat="50.221537" lon="4.986334"><ele>151.13</ele><time>2025-05-25T14:57:54Z</time></trkpt>
<trkpt lat="50.221624" lon="4.986213"><ele>150.17</ele><time>2025-05-25T14:57:55Z</time></trkpt>
<trkpt lat="50.221708" lon="4.986037"><ele>151.47</ele><time>2025-05-25T14:57:57Z</time></trkpt>
<trkpt lat="50.221831" lon="4.985675"><ele>158.69</ele><time>2025-05-25T14:57:58Z</time></trkpt>
<trkpt lat="50.221861" lon="4.985451"><ele>162.95</ele><time>2025-05-25T14:58:00Z</time></trkpt>
<trkpt lat="50.221842" lon="4.985285"><ele>164.84</ele><time>2025-05-25T14:58:01Z</time></trkpt>
<trkpt lat="50.221767" lon="4.98493"><ele>165.74</ele><time>2025-05-25T14:58:03Z</time></trkpt>
<trkpt lat="50.221753" lon="4.984768"><ele>166.61</ele><time>2025-05-25T14:58:04Z</time></trkpt>
<trkpt lat="50.221751" lon="4.984107"><ele>171.5</ele><time>2025-05-25T14:58:06Z</time></trkpt>
<trkpt lat="50.221902" lon="4.983011"><ele>175.26</ele><time>2025-05-25T14:58:08Z</time></trkpt>
<trkpt lat="50.221955" lon="4.982834"><ele>175.44</ele><time>2025-05-25T14:58:09Z</time></trkpt>
<trkpt lat="50.222039" lon="4.982699"><ele>176.67</ele><time>2025-05-25T14:58:11Z</time></trkpt>
<trkpt lat="50.222177" lon="4.982578"><ele>178.7</ele><time>2025-05-25T14:58:12Z</time></trkpt>
<trkpt lat="50.222596" lon="4.982271"><ele>184.79</ele><time>2025-05-25T14:58:14Z</time></trkpt>
<trkpt lat="50.222741" lon="4.982117"><ele>185.8</ele><time>2025-05-25T14:58:15Z</time></trkpt>
<trkpt lat="50.222862" lon="4.981954"><ele>186.28</ele><time>2025-05-25T14:58:17Z</time></trkpt>
<trkpt lat="50.223061" lon="4.981616"><ele>186.32</ele><time>2025-05-25T14:58:18Z</time></trkpt>
<trkpt lat="50.223358" lon="4.98104"><ele>191.34</ele><time>2025-05-25T14:58:20Z</time></trkpt>
<trkpt lat="50.223845" lon="4.980031"><ele>196.12</ele><time>2025-05-25T14:58:21Z</time></trkpt>
<trkpt lat="50.223978" lon="4.979791"><ele>195.97</ele><time>2025-05-25T14:58:23Z</time></trkpt>
<trkpt lat="50.224046" lon="4.979709"><ele>196.11</ele><time>2025-05-25T14:58:24Z</time></trkpt>
<trkpt lat="50.224046" lon="4.979709"><ele>196.11</ele><time>2025-05-25T14:58:24Z</time></trkpt>
<trkpt lat="50.224124" lon="4.979638"><ele>196.43</ele><time>2025-05-25T14:58:27Z</time></trkpt>
<trkpt lat="50.224209" lon="4.97963"><ele>197.57</ele><time>2025-05-25T14:58:29Z</time></trkpt>
<trkpt lat="50.224309" lon="4.979686"><ele>199.94</ele><time>2025-05-25T14:58:31Z</time></trkpt>
<trkpt lat="50.224591" lon="4.980023"><ele>204.24</ele><time>2025-05-25T14:58:33Z</time></trkpt>
<trkpt lat="50.224752" lon="4.980171"><ele>205.25</ele><time>2025-05-25T14:58:35Z</time></trkpt>
<trkpt lat="50.225266" lon="4.980574"><ele>202.3</ele><time>2025-05-25T14:58:37Z</time></trkpt>
<trkpt lat="50.225413" lon="4.980647"><ele>202.82</ele><time>2025-05-25T14:58:39Z</time></trkpt>
<trkpt lat="50.225763" lon="4.980767"><ele>205.2</ele><time>2025-05-25T14:58:41Z</time></trkpt>
<trkpt lat="50.226431" lon="4.98095"><ele>210.51</ele><time>2025-05-25T14:58:43Z</time></trkpt>
<trkpt lat="50.227328" lon="4.981259"><ele>219.82</ele><time>2025-05-25T14:58:45Z</time></trkpt>
<trkpt lat="50.227562" lon="4.981306"><ele>220.28</ele><time>2025-05-25T14:58:47Z</time></trkpt>
<trkpt lat="50.228539" lon="4.981384"><ele>225.65</ele><time>2025-05-25T14:58:49Z</time></trkpt>
<trkpt lat="50.228812" lon="4.981522"><ele>226.25</ele><time>2025-05-25T14:58:51Z</time></trkpt>
<trkpt lat="50.229006" lon="4.981674"><ele>225.35</ele><time>2025-05-25T14:58:53Z</time></trkpt>
<trkpt lat="50.229125" lon="4.981784"><ele>224.09</ele><time>2025-05-25T14:58:55Z</time></trkpt>
<trkpt lat="50.229654" lon="4.982417"><ele>224.1</ele><time>2025-05-25T14:58:57Z</time></trkpt>
<trkpt lat="50.229765" lon="4.982533"><ele>224.24</ele><time>2025-05-25T14:58:59Z</time></trkpt>
<trkpt lat="50.229936" lon="4.982663"><ele>224.45</ele><time>2025-05-25T14:59:01Z</time></trkpt>
<trkpt lat="50.229968" lon="4.982817"><ele>224.13</ele><time>2025-05-25T14:59:19Z</time></trkpt>
<trkpt lat="50.230189" lon="4.983364"><ele>224.54</ele><time>2025-05-25T14:59:38Z</time></trkpt>
<trkpt lat="50.230335" lon="4.984235"><ele>230.08</ele><time>2025-05-25T14:59:56Z</time></trkpt>
<trkpt lat="50.230347" lon="4.984396"><ele>231.15</ele><time>2025-05-25T15:00:15Z</time></trkpt>
<trkpt lat="50.230342" lon="4.984593"><ele>232.2</ele><time>2025-05-25T15:00:33Z</time></trkpt>
<trkpt lat="50.230274" lon="4.985165"><ele>235.6</ele><time>2025-05-25T15:00:51Z</time></trkpt>
<trkpt lat="50.230577" lon="4.985443"><ele>237.24</ele><time>2025-05-25T15:01:10Z</time></trkpt>
<trkpt lat="50.231055" lon="4.985815"><ele>239.99</ele><time>2025-05-25T15:01:28Z</time></trkpt>
<trkpt lat="50.231391" lon="4.986133"><ele>240.08</ele><time>2025-05-25T15:01:46Z</time></trkpt>
<trkpt lat="50.231596" lon="4.986383"><ele>240.98</ele><time>2025-05-25T15:02:05Z</time></trkpt>
<trkpt lat="50.232547" lon="4.987883"><ele>247.83</ele><time>2025-05-25T15:02:23Z</time></trkpt>
<trkpt lat="50.233864" lon="4.989732"><ele>245.67</ele><time>2025-05-25T15:02:41Z</time></trkpt>
<trkpt lat="50.234336" lon="4.990291"><ele>252.41</ele><time>2025-05-25T15:03:00Z</time></trkpt>
<trkpt lat="50.234426" lon="4.990454"><ele>253.14</ele><time>2025-05-25T15:03:18Z</time></trkpt>
<trkpt lat="50.234546" lon="4.990809"><ele>253.73</ele><time>2025-05-25T15:03:36Z</time></trkpt>
<trkpt lat="50.234702" lon="4.991391"><ele>255.7</ele><time>2025-05-25T15:03:55Z</time></trkpt>
<trkpt lat="50.235097" lon="4.991992"><ele>254.95</ele><time>2025-05-25T15:04:13Z</time></trkpt>
<trkpt lat="50.2352" lon="4.992103"><ele>254.16</ele><time>2025-05-25T15:04:32Z</time></trkpt>
<trkpt lat="50.235291" lon="4.992111"><ele>254.22</ele><time>2025-05-25T15:04:50Z</time></trkpt>
<trkpt lat="50.235291" lon="4.992111"><ele>254.22</ele><time>2025-05-25T15:04:50Z</time></trkpt>
<trkpt lat="50.2352" lon="4.992103"><ele>254.16</ele><time>2025-05-25T15:05:02Z</time></trkpt>
<trkpt lat="50.235097" lon="4.991992"><ele>254.95</ele><time>2025-05-25T15:05:14Z</time></trkpt>
<trkpt lat="50.234702" lon="4.991391"><ele>255.7</ele><time>2025-05-25T15:05:25Z</time></trkpt>
<trkpt lat="50.234651" lon="4.991495"><ele>254.79</ele><time>2025-05-25T15:06:12Z</time></trkpt>
<trkpt lat="50.233509" lon="4.995419"><ele>236.72</ele><time>2025-05-25T15:07:00Z</time></trkpt>
<trkpt lat="50.233148" lon="4.996563"><ele>233.95</ele><time>2025-05-25T15:07:47Z</time></trkpt>
<trkpt lat="50.232659" lon="4.998586"><ele>223.54</ele><time>2025-05-25T15:08:34Z</time></trkpt>
<trkpt lat="50.232612" lon="4.998665"><ele>224.89</ele><time>2025-05-25T15:09:21Z</time></trkpt>
<trkpt lat="50.232564" lon="4.998746"><ele>226.37</ele><time>2025-05-25T15:09:34Z</time></trkpt>
<trkpt lat="50.232326" lon="4.998759"><ele>228.05</ele><time>2025-05-25T15:09:47Z</time></trkpt>
<trkpt lat="50.2322" lon="4.998796"><ele>228.83</ele><time>2025-05-25T15:10:00Z</time></trkpt>
<trkpt lat="50.232112" lon="4.998918"><ele>229.2</ele><time>2025-05-25T15:10:13Z</time></trkpt>
<trkpt lat="50.232012" lon="4.999564"><ele>227.81</ele><time>2025-05-25T15:10:26Z</time></trkpt>
<trkpt lat="50.23186" lon="4.999954"><ele>226.37</ele><time>2025-05-25T15:10:39Z</time></trkpt>
<trkpt lat="50.231554" lon="5.000848"><ele>226.54</ele><time>2025-05-25T15:10:52Z</time></trkpt>
<trkpt lat="50.231375" lon="5.001289"><ele>224.28</ele><time>2025-05-25T15:11:05Z</time></trkpt>
<trkpt lat="50.233091" lon="5.001854"><ele>228.45</ele><time>2025-05-25T15:11:25Z</time></trkpt>
<trkpt lat="50.233138" lon="5.001464"><ele>230.03</ele><time>2025-05-25T15:11:30Z</time></trkpt>
<trkpt lat="50.233231" lon="5.001216"><ele>231.25</ele><time>2025-05-25T15:11:34Z</time></trkpt>
<trkpt lat="50.233296" lon="5.001091"><ele>231.79</ele><time>2025-05-25T15:11:39Z</time></trkpt>
<trkpt lat="50.234443" lon="4.999619"><ele>234.99</ele><time>2025-05-25T15:11:43Z</time></trkpt>
<trkpt lat="50.234692" lon="4.999299"><ele>237.09</ele><time>2025-05-25T15:11:48Z</time></trkpt>
<trkpt lat="50.234826" lon="4.999155"><ele>238.49</ele><time>2025-05-25T15:11:52Z</time></trkpt>
<trkpt lat="50.235016" lon="4.999034"><ele>241.03</ele><time>2025-05-25T15:11:56Z</time></trkpt>
<trkpt lat="50.235153" lon="4.999004"><ele>241.23</ele><time>2025-05-25T15:12:01Z</time></trkpt>
<trkpt lat="50.237469" lon="4.999007"><ele>241.87</ele><time>2025-05-25T15:12:05Z</time></trkpt>
<trkpt lat="50.237584" lon="4.998985"><ele>243.6</ele><time>2025-05-25T15:12:10Z</time></trkpt>
<trkpt lat="50.237762" lon="4.998865"><ele>247.98</ele><time>2025-05-25T15:12:14Z</time></trkpt>
<trkpt lat="50.237873" lon="4.99869"><ele>250.59</ele><time>2025-05-25T15:12:19Z</time></trkpt>
<trkpt lat="50.23791" lon="4.998567"><ele>251.87</ele><time>2025-05-25T15:12:23Z</time></trkpt>
<trkpt lat="50.23795" lon="4.998218"><ele>254.99</ele><time>2025-05-25T15:12:28Z</time></trkpt>
<trkpt lat="50.237983" lon="4.993077"><ele>263.57</ele><time>2025-05-25T15:12:32Z</time></trkpt>
<trkpt lat="50.238015" lon="4.990376"><ele>262.74</ele><time>2025-05-25T15:12:37Z</time></trkpt>
<trkpt lat="50.238086" lon="4.98867"><ele>261.32</ele><time>2025-05-25T15:12:41Z</time></trkpt>
<trkpt lat="50.238241" lon="4.988622"><ele>261.7</ele><time>2025-05-25T15:12:44Z</time></trkpt>
<trkpt lat="50.23899" lon="4.988038"><ele>268.09</ele><time>2025-05-25T15:12:46Z</time></trkpt>
<trkpt lat="50.240172" lon="4.987082"><ele>277.93</ele><time>2025-05-25T15:12:49Z</time></trkpt>
<trkpt lat="50.240515" lon="4.986853"><ele>278.85</ele><time>2025-05-25T15:12:51Z</time></trkpt>
<trkpt lat="50.240665" lon="4.986867"><ele>280.19</ele><time>2025-05-25T15:12:53Z</time></trkpt>
<trkpt lat="50.241485" lon="4.986756"><ele>285.0</ele><time>2025-05-25T15:12:56Z</time></trkpt>
<trkpt lat="50.241789" lon="4.98669"><ele>284.12</ele><time>2025-05-25T15:12:58Z</time></trkpt>
<trkpt lat="50.242588" lon="4.986637"><ele>281.42</ele><time>2025-05-25T15:13:01Z</time></trkpt>
<trkpt lat="50.242979" lon="4.986676"><ele>283.76</ele><time>2025-05-25T15:13:03Z</time></trkpt>
<trkpt lat="50.243905" lon="4.986613"><ele>278.45</ele><time>2025-05-25T15:13:05Z</time></trkpt>
<trkpt lat="50.244098" lon="4.986656"><ele>276.7</ele><time>2025-05-25T15:13:08Z</time></trkpt>
<trkpt lat="50.244293" lon="4.986751"><ele>276.79</ele><time>2025-05-25T15:13:10Z</time></trkpt>
<trkpt lat="50.244617" lon="4.987"><ele>274.72</ele><time>2025-05-25T15:13:13Z</time></trkpt>
<trkpt lat="50.244772" lon="4.9872"><ele>273.34</ele><time>2025-05-25T15:13:15Z</time></trkpt>
<trkpt lat="50.244873" lon="4.987434"><ele>272.72</ele><time>2025-05-25T15:13:17Z</time></trkpt>
<trkpt lat="50.24497" lon="4.987886"><ele>271.58</ele><time>2025-05-25T15:13:20Z</time></trkpt>
<trkpt lat="50.245259" lon="4.989442"><ele>261.41</ele><time>2025-05-25T15:13:22Z</time></trkpt>
<trkpt lat="50.245314" lon="4.989617"><ele>259.89</ele><time>2025-05-25T15:13:25Z</time></trkpt>
<trkpt lat="50.245363" lon="4.989708"><ele>259.1</ele><time>2025-05-25T15:13:27Z</time></trkpt>
<trkpt lat="50.245432" lon="4.989742"><ele>258.34</ele><time>2025-05-25T15:13:29Z</time></trkpt>
<trkpt lat="50.245488" lon="4.989728"><ele>257.74</ele><time>2025-05-25T15:13:32Z</time></trkpt>
<trkpt lat="50.245533" lon="4.989745"><ele>257.32</ele><time>2025-05-25T15:13:34Z</time></trkpt>
<trkpt lat="50.245558" lon="4.989727"><ele>256.98</ele><time>2025-05-25T15:13:37Z</time></trkpt>
<trkpt lat="50.24606" lon="4.989743"><ele>249.72</ele><time>2025-05-25T15:13:39Z</time></trkpt>
<trkpt lat="50.2469" lon="4.989805"><ele>253.98</ele><time>2025-05-25T15:13:41Z</time></trkpt>
<trkpt lat="50.247022" lon="4.989812"><ele>254.32</ele><time>2025-05-25T15:13:44Z</time></trkpt>
<trkpt lat="50.24705" lon="4.989815"><ele>254.33</ele><time>2025-05-25T15:13:46Z</time></trkpt>
<trkpt lat="50.247071" lon="4.989019"><ele>250.72</ele><time>2025-05-25T15:13:49Z</time></trkpt>
<trkpt lat="50.247415" lon="4.989"><ele>250.4</ele><time>2025-05-25T15:13:51Z</time></trkpt>
<trkpt lat="50.247679" lon="4.989034"><ele>251.17</ele><time>2025-05-25T15:13:53Z</time></trkpt>
<trkpt lat="50.248895" lon="4.989307"><ele>246.53</ele><time>2025-05-25T15:13:55Z</time></trkpt>
<trkpt lat="50.249479" lon="4.989308"><ele>248.38</ele><time>2025-05-25T15:13:57Z</time></trkpt>
<trkpt lat="50.249847" lon="4.989273"><ele>246.49</ele><time>2025-05-25T15:13:59Z</time></trkpt>
<trkpt lat="50.250024" lon="4.989209"><ele>245.07</ele><time>2025-05-25T15:14:01Z</time></trkpt>
<trkpt lat="50.250221" lon="4.989058"><ele>243.89</ele><time>2025-05-25T15:14:03Z</time></trkpt>
<trkpt lat="50.250557" lon="4.988665"><ele>239.99</ele><time>2025-05-25T15:14:05Z</time></trkpt>
<trkpt lat="50.250877" lon="4.988158"><ele>237.53</ele><time>2025-05-25T15:14:07Z</time></trkpt>
<trkpt lat="50.25099" lon="4.987925"><ele>237.64</ele><time>2025-05-25T15:14:09Z</time></trkpt>
<trkpt lat="50.251081" lon="4.987618"><ele>237.15</ele><time>2025-05-25T15:14:11Z</time></trkpt>
<trkpt lat="50.251234" lon="4.986792"><ele>236.11</ele><time>2025-05-25T15:14:13Z</time></trkpt>
<trkpt lat="50.251325" lon="4.985454"><ele>231.24</ele><time>2025-05-25T15:14:15Z</time></trkpt>
<trkpt lat="50.251428" lon="4.984554"><ele>227.64</ele><time>2025-05-25T15:14:17Z</time></trkpt>
<trkpt lat="50.2515" lon="4.984417"><ele>225.99</ele><time>2025-05-25T15:14:19Z</time></trkpt>
<trkpt lat="50.251603" lon="4.984342"><ele>224.35</ele><time>2025-05-25T15:14:21Z</time></trkpt>
<trkpt lat="50.251709" lon="4.984299"><ele>222.53</ele><time>2025-05-25T15:14:23Z</time></trkpt>
<trkpt lat="50.251951" lon="4.984281"><ele>217.16</ele><time>2025-05-25T15:14:25Z</time></trkpt>
<trkpt lat="50.252179" lon="4.984338"><ele>216.64</ele><time>2025-05-25T15:14:27Z</time></trkpt>
<trkpt lat="50.252427" lon="4.984282"><ele>218.19</ele><time>2025-05-25T15:14:29Z</time></trkpt>
<trkpt lat="50.252909" lon="4.983911"><ele>224.99</ele><time>2025-05-25T15:14:31Z</time></trkpt>
<trkpt lat="50.253094" lon="4.983835"><ele>228.0</ele><time>2025-05-25T15:14:33Z</time></trkpt>
<trkpt lat="50.25339" lon="4.983753"><ele>229.73</ele><time>2025-05-25T15:14:35Z</time></trkpt>
<trkpt lat="50.253625" lon="4.98372"><ele>230.18</ele><time>2025-05-25T15:14:37Z</time></trkpt>
<trkpt lat="50.253838" lon="4.983829"><ele>231.35</ele><time>2025-05-25T15:14:39Z</time></trkpt>
<trkpt lat="50.254979" lon="4.984894"><ele>237.29</ele><time>2025-05-25T15:14:41Z</time></trkpt>
<trkpt lat="50.255162" lon="4.984986"><ele>239.09</ele><time>2025-05-25T15:14:43Z</time></trkpt>
<trkpt lat="50.255321" lon="4.985014"><ele>239.9</ele><time>2025-05-25T15:14:45Z</time></trkpt>
<trkpt lat="50.255471" lon="4.984989"><ele>239.2</ele><time>2025-05-25T15:14:47Z</time></trkpt>
<trkpt lat="50.2556" lon="4.984934"><ele>238.04</ele><time>2025-05-25T15:14:49Z</time></trkpt>
<trkpt lat="50.255845" lon="4.984644"><ele>235.76</ele><time>2025-05-25T15:14:51Z</time></trkpt>
<trkpt lat="50.255937" lon="4.984473"><ele>235.48</ele><time>2025-05-25T15:14:53Z</time></trkpt>
<trkpt lat="50.256077" lon="4.984006"><ele>235.69</ele><time>2025-05-25T15:14:55Z</time></trkpt>
<trkpt lat="50.256258" lon="4.983718"><ele>238.29</ele><time>2025-05-25T15:14:57Z</time></trkpt>
<trkpt lat="50.256472" lon="4.983456"><ele>241.55</ele><time>2025-05-25T15:14:58Z</time></trkpt>
<trkpt lat="50.256574" lon="4.983291"><ele>242.82</ele><time>2025-05-25T15:15:00Z</time></trkpt>
<trkpt lat="50.256567" lon="4.982566"><ele>246.92</ele><time>2025-05-25T15:15:02Z</time></trkpt>
<trkpt lat="50.256599" lon="4.98212"><ele>251.49</ele><time>2025-05-25T15:15:04Z</time></trkpt>
<trkpt lat="50.256655" lon="4.981668"><ele>253.99</ele><time>2025-05-25T15:15:06Z</time></trkpt>
<trkpt lat="50.256605" lon="4.981257"><ele>255.37</ele><time>2025-05-25T15:15:08Z</time></trkpt>
<trkpt lat="50.256579" lon="4.981144"><ele>255.6</ele><time>2025-05-25T15:15:10Z</time></trkpt>
<trkpt lat="50.256601" lon="4.981069"><ele>255.95</ele><time>2025-05-25T15:15:11Z</time></trkpt>
<trkpt lat="50.25669" lon="4.981028"><ele>256.35</ele><time>2025-05-25T15:15:12Z</time></trkpt>
<trkpt lat="50.25669" lon="4.981028"><ele>256.35</ele><time>2025-05-25T15:15:12Z</time></trkpt>
<trkpt lat="50.256938" lon="4.980996"><ele>258.37</ele><time>2025-05-25T15:15:17Z</time></trkpt>
<trkpt lat="50.257346" lon="4.981087"><ele>259.59</ele><time>2025-05-25T15:15:22Z</time></trkpt>
<trkpt lat="50.257509" lon="4.981173"><ele>258.78</ele><time>2025-05-25T15:15:27Z</time></trkpt>
<trkpt lat="50.258235" lon="4.981693"><ele>261.29</ele><time>2025-05-25T15:15:32Z</time></trkpt>
<trkpt lat="50.258598" lon="4.981879"><ele>263.9</ele><time>2025-05-25T15:15:37Z</time></trkpt>
<trkpt lat="50.258795" lon="4.981885"><ele>264.66</ele><time>2025-05-25T15:15:42Z</time></trkpt>
<trkpt lat="50.258959" lon="4.981823"><ele>265.25</ele><time>2025-05-25T15:15:47Z</time></trkpt>
<trkpt lat="50.259524" lon="4.981435"><ele>266.17</ele><time>2025-05-25T15:15:52Z</time></trkpt>
<trkpt lat="50.259515" lon="4.981282"><ele>266.0</ele><time>2025-05-25T15:15:53Z</time></trkpt>
<trkpt lat="50.260373" lon="4.981419"><ele>265.07</ele><time>2025-05-25T15:15:56Z</time></trkpt>
<trkpt lat="50.260737" lon="4.981418"><ele>265.07</ele><time>2025-05-25T15:16:00Z</time></trkpt>
<trkpt lat="50.260989" lon="4.981337"><ele>265.0</ele><time>2025-05-25T15:16:04Z</time></trkpt>
<trkpt lat="50.261393" lon="4.981081"><ele>265.93</ele><time>2025-05-25T15:16:08Z</time></trkpt>
<trkpt lat="50.262525" lon="4.980692"><ele>273.11</ele><time>2025-05-25T15:16:11Z</time></trkpt>
<trkpt lat="50.262723" lon="4.980649"><ele>274.01</ele><time>2025-05-25T15:16:15Z</time></trkpt>
<trkpt lat="50.263702" lon="4.980563"><ele>269.37</ele><time>2025-05-25T15:16:19Z</time></trkpt>
<trkpt lat="50.264182" lon="4.980602"><ele>265.91</ele><time>2025-05-25T15:16:22Z</time></trkpt>
<trkpt lat="50.264417" lon="4.980735"><ele>260.67</ele><time>2025-05-25T15:16:26Z</time></trkpt>
<trkpt lat="50.264568" lon="4.980851"><ele>259.45</ele><time>2025-05-25T15:16:30Z</time></trkpt>
<trkpt lat="50.264739" lon="4.980878"><ele>257.26</ele><time>2025-05-25T15:16:33Z</time></trkpt>
<trkpt lat="50.267099" lon="4.979996"><ele>241.72</ele><time>2025-05-25T15:16:37Z</time></trkpt>
<trkpt lat="50.267226" lon="4.979912"><ele>244.29</ele><time>2025-05-25T15:16:41Z</time></trkpt>
<trkpt lat="50.268422" lon="4.983215"><ele>228.55</ele><time>2025-05-25T15:16:45Z</time></trkpt>
<trkpt lat="50.269294" lon="4.984427"><ele>226.11</ele><time>2025-05-25T15:16:49Z</time></trkpt>
<trkpt lat="50.269893" lon="4.985218"><ele>221.77</ele><time>2025-05-25T15:16:53Z</time></trkpt>
<trkpt lat="50.270117" lon="4.985594"><ele>218.76</ele><time>2025-05-25T15:16:57Z</time></trkpt>
<trkpt lat="50.270301" lon="4.985848"><ele>214.78</ele><time>2025-05-25T15:17:01Z</time></trkpt>
<trkpt lat="50.271242" lon="4.986359"><ele>205.75</ele><time>2025-05-25T15:17:05Z</time></trkpt>
<trkpt lat="50.271453" lon="4.986571"><ele>202.8</ele><time>2025-05-25T15:17:09Z</time></trkpt>
<trkpt lat="50.271746" lon="4.986918"><ele>200.43</ele><time>2025-05-25T15:17:13Z</time></trkpt>
<trkpt lat="50.271881" lon="4.987044"><ele>199.38</ele><time>2025-05-25T15:17:17Z</time></trkpt>
<trkpt lat="50.272091" lon="4.987158"><ele>199.4</ele><time>2025-05-25T15:17:21Z</time></trkpt>
<trkpt lat="50.272091" lon="4.98719"><ele>199.47</ele><time>2025-05-25T15:17:24Z</time></trkpt>
<trkpt lat="50.272124" lon="4.987225"><ele>199.66</ele><time>2025-05-25T15:17:26Z</time></trkpt>
<trkpt lat="50.272148" lon="4.9872"><ele>199.67</ele><time>2025-05-25T15:17:29Z</time></trkpt>
<trkpt lat="50.27215" lon="4.987157"><ele>199.57</ele><time>2025-05-25T15:17:32Z</time></trkpt>
<trkpt lat="50.272375" lon="4.987062"><ele>200.2</ele><time>2025-05-25T15:17:34Z</time></trkpt>
<trkpt lat="50.272587" lon="4.987019"><ele>202.42</ele><time>2025-05-25T15:17:37Z</time></trkpt>
<trkpt lat="50.27319" lon="4.987026"><ele>214.53</ele><time>2025-05-25T15:17:39Z</time></trkpt>
<trkpt lat="50.274083" lon="4.986887"><ele>215.78</ele><time>2025-05-25T15:17:42Z</time></trkpt>
<trkpt lat="50.274083" lon="4.986887"><ele>215.78</ele><time>2025-05-25T15:17:42Z</time></trkpt>
<trkpt lat="50.274196" lon="4.986869"><ele>217.03</ele><time>2025-05-25T15:17:43Z</time></trkpt>
<trkpt lat="50.273174" lon="4.986245"><ele>214.87</ele><time>2025-05-25T15:17:45Z</time></trkpt>
<trkpt lat="50.272886" lon="4.986047"><ele>210.4</ele><time>2025-05-25T15:17:47Z</time></trkpt>
<trkpt lat="50.272558" lon="4.985763"><ele>207.33</ele><time>2025-05-25T15:17:49Z</time></trkpt>
<trkpt lat="50.272388" lon="4.985526"><ele>206.35</ele><time>2025-05-25T15:17:51Z</time></trkpt>
<trkpt lat="50.271834" lon="4.984474"><ele>211.17</ele><time>2025-05-25T15:17:53Z</time></trkpt>
<trkpt lat="50.271692" lon="4.98411"><ele>210.66</ele><time>2025-05-25T15:17:55Z</time></trkpt>
<trkpt lat="50.271628" lon="4.983675"><ele>210.86</ele><time>2025-05-25T15:17:57Z</time></trkpt>
<trkpt lat="50.271625" lon="4.983438"><ele>210.85</ele><time>2025-05-25T15:17:59Z</time></trkpt>
<trkpt lat="50.271648" lon="4.98304"><ele>208.9</ele><time>2025-05-25T15:18:00Z</time></trkpt>
<trkpt lat="50.271684" lon="4.982746"><ele>207.2</ele><time>2025-05-25T15:18:02Z</time></trkpt>
<trkpt lat="50.271826" lon="4.981921"><ele>206.72</ele><time>2025-05-25T15:18:04Z</time></trkpt>
<trkpt lat="50.271864" lon="4.981587"><ele>207.05</ele><time>2025-05-25T15:18:06Z</time></trkpt>
<trkpt lat="50.271886" lon="4.981221"><ele>207.15</ele><time>2025-05-25T15:18:08Z</time></trkpt>
<trkpt lat="50.271872" lon="4.979916"><ele>205.06</ele><time>2025-05-25T15:18:10Z</time></trkpt>
<trkpt lat="50.271902" lon="4.979441"><ele>204.73</ele><time>2025-05-25T15:18:12Z</time></trkpt>
<trkpt lat="50.271928" lon="4.979274"><ele>203.15</ele><time>2025-05-25T15:18:14Z</time></trkpt>
<trkpt lat="50.271979" lon="4.979096"><ele>202.19</ele><time>2025-05-25T15:18:16Z</time></trkpt>
<trkpt lat="50.272513" lon="4.977888"><ele>202.68</ele><time>2025-05-25T15:18:17Z</time></trkpt>
<trkpt lat="50.272631" lon="4.977449"><ele>201.39</ele><time>2025-05-25T15:18:19Z</time></trkpt>
<trkpt lat="50.272671" lon="4.977176"><ele>200.11</ele><time>2025-05-25T15:18:21Z</time></trkpt>
<trkpt lat="50.272714" lon="4.976694"><ele>201.17</ele><time>2025-05-25T15:18:23Z</time></trkpt>
<trkpt lat="50.27273" lon="4.975936"><ele>197.93</ele><time>2025-05-25T15:18:25Z</time></trkpt>
<trkpt lat="50.272766" lon="4.975325"><ele>195.28</ele><time>2025-05-25T15:18:27Z</time></trkpt>
<trkpt lat="50.272873" lon="4.974457"><ele>191.79</ele><time>2025-05-25T15:18:29Z</time></trkpt>
<trkpt lat="50.272958" lon="4.973232"><ele>196.42</ele><time>2025-05-25T15:18:31Z</time></trkpt>
<trkpt lat="50.272946" lon="4.973075"><ele>196.42</ele><time>2025-05-25T15:18:33Z</time></trkpt>
<trkpt lat="50.272897" lon="4.972876"><ele>195.14</ele><time>2025-05-25T15:18:35Z</time></trkpt>
<trkpt lat="50.272837" lon="4.972734"><ele>193.56</ele><time>2025-05-25T15:18:36Z</time></trkpt>
<trkpt lat="50.272633" lon="4.972452"><ele>191.38</ele><time>2025-05-25T15:18:38Z</time></trkpt>
<trkpt lat="50.272221" lon="4.971995"><ele>189.42</ele><time>2025-05-25T15:18:40Z</time></trkpt>
<trkpt lat="50.272133" lon="4.971854"><ele>188.84</ele><time>2025-05-25T15:18:42Z</time></trkpt>
<trkpt lat="50.27204" lon="4.971651"><ele>187.84</ele><time>2025-05-25T15:18:44Z</time></trkpt>
<trkpt lat="50.271983" lon="4.971477"><ele>187.38</ele><time>2025-05-25T15:18:46Z</time></trkpt>
<trkpt lat="50.271926" lon="4.971101"><ele>187.9</ele><time>2025-05-25T15:18:48Z</time></trkpt>
<trkpt lat="50.271885" lon="4.970393"><ele>189.91</ele><time>2025-05-25T15:18:50Z</time></trkpt>
<trkpt lat="50.271913" lon="4.968718"><ele>188.27</ele><time>2025-05-25T15:18:52Z</time></trkpt>
<trkpt lat="50.27196" lon="4.968301"><ele>188.51</ele><time>2025-05-25T15:18:54Z</time></trkpt>
<trkpt lat="50.272073" lon="4.967727"><ele>190.62</ele><time>2025-05-25T15:18:55Z</time></trkpt>
<trkpt lat="50.272254" lon="4.967049"><ele>189.2</ele><time>2025-05-25T15:18:57Z</time></trkpt>
<trkpt lat="50.272506" lon="4.966266"><ele>185.91</ele><time>2025-05-25T15:18:59Z</time></trkpt>
<trkpt lat="50.27256" lon="4.966018"><ele>185.97</ele><time>2025-05-25T15:19:01Z</time></trkpt>
<trkpt lat="50.27257" lon="4.965891"><ele>185.77</ele><time>2025-05-25T15:19:03Z</time></trkpt>
<trkpt lat="50.272573" lon="4.965707"><ele>185.4</ele><time>2025-05-25T15:19:05Z</time></trkpt>
<trkpt lat="50.272552" lon="4.965377"><ele>186.31</ele><time>2025-05-25T15:19:07Z</time></trkpt>
<trkpt lat="50.272222" lon="4.963319"><ele>183.95</ele><time>2025-05-25T15:19:09Z</time></trkpt>
<trkpt lat="50.272213" lon="4.963027"><ele>182.93</ele><time>2025-05-25T15:19:11Z</time></trkpt>
<trkpt lat="50.272269" lon="4.962693"><ele>182.65</ele><time>2025-05-25T15:19:13Z</time></trkpt>
<trkpt lat="50.27232" lon="4.96254"><ele>183.01</ele><time>2025-05-25T15:19:14Z</time></trkpt>
<trkpt lat="50.272371" lon="4.96245"><ele>182.99</ele><time>2025-05-25T15:19:16Z</time></trkpt>
<trkpt lat="50.272436" lon="4.962377"><ele>182.76</ele><time>2025-05-25T15:19:18Z</time></trkpt>
<trkpt lat="50.272748" lon="4.962225"><ele>182.92</ele><time>2025-05-25T15:19:20Z</time></trkpt>
<trkpt lat="50.273216" lon="4.9621"><ele>185.25</ele><time>2025-05-25T15:19:22Z</time></trkpt>
<trkpt lat="50.273375" lon="4.961957"><ele>184.27</ele><time>2025-05-25T15:19:24Z</time></trkpt>
<trkpt lat="50.273587" lon="4.961695"><ele>180.66</ele><time>2025-05-25T15:19:26Z</time></trkpt>
<trkpt lat="50.273705" lon="4.961491"><ele>180.17</ele><time>2025-05-25T15:19:28Z</time></trkpt>
<trkpt lat="50.273758" lon="4.961358"><ele>179.94</ele><time>2025-05-25T15:19:30Z</time></trkpt>
<trkpt lat="50.273817" lon="4.961098"><ele>179.01</ele><time>2025-05-25T15:19:32Z</time></trkpt>
<trkpt lat="50.273826" lon="4.960723"><ele>179.54</ele><time>2025-05-25T15:19:33Z</time></trkpt>
<trkpt lat="50.273769" lon="4.959611"><ele>175.81</ele><time>2025-05-25T15:19:35Z</time></trkpt>
<trkpt lat="50.273709" lon="4.959157"><ele>176.55</ele><time>2025-05-25T15:19:37Z</time></trkpt>
<trkpt lat="50.273609" lon="4.958882"><ele>176.08</ele><time>2025-05-25T15:19:39Z</time></trkpt>
<trkpt lat="50.273345" lon="4.958486"><ele>174.73</ele><time>2025-05-25T15:19:41Z</time></trkpt>
<trkpt lat="50.272954" lon="4.957803"><ele>172.63</ele><time>2025-05-25T15:19:43Z</time></trkpt>
<trkpt lat="50.272815" lon="4.957235"><ele>170.06</ele><time>2025-05-25T15:19:45Z</time></trkpt>
<trkpt lat="50.272802" lon="4.957072"><ele>169.11</ele><time>2025-05-25T15:19:47Z</time></trkpt>
<trkpt lat="50.272817" lon="4.956759"><ele>168.22</ele><time>2025-05-25T15:19:49Z</time></trkpt>
<trkpt lat="50.272891" lon="4.956382"><ele>169.63</ele><time>2025-05-25T15:19:50Z</time></trkpt>
<trkpt lat="50.273142" lon="4.95566"><ele>171.54</ele><time>2025-05-25T15:19:52Z</time></trkpt>
<trkpt lat="50.273159" lon="4.955521"><ele>171.38</ele><time>2025-05-25T15:19:54Z</time></trkpt>
<trkpt lat="50.27314" lon="4.95532"><ele>171.06</ele><time>2025-05-25T15:19:56Z</time></trkpt>
<trkpt lat="50.273033" lon="4.954747"><ele>168.32</ele><time>2025-05-25T15:19:58Z</time></trkpt>
<trkpt lat="50.273011" lon="4.954525"><ele>168.59</ele><time>2025-05-25T15:20:00Z</time></trkpt>
<trkpt lat="50.27301" lon="4.954361"><ele>168.54</ele><time>2025-05-25T15:20:02Z</time></trkpt>
<trkpt lat="50.273024" lon="4.954264"><ele>168.1</ele><time>2025-05-25T15:20:04Z</time></trkpt>
<trkpt lat="50.273091" lon="4.954062"><ele>166.78</ele><time>2025-05-25T15:20:06Z</time></trkpt>
<trkpt lat="50.273226" lon="4.95381"><ele>166.61</ele><time>2025-05-25T15:20:08Z</time></trkpt>
<trkpt lat="50.273318" lon="4.953714"><ele>166.74</ele><time>2025-05-25T15:20:09Z</time></trkpt>
<trkpt lat="50.273514" lon="4.953609"><ele>168.95</ele><time>2025-05-25T15:20:11Z</time></trkpt>
<trkpt lat="50.273652" lon="4.953585"><ele>170.22</ele><time>2025-05-25T15:20:13Z</time></trkpt>
<trkpt lat="50.273777" lon="4.953611"><ele>171.19</ele><time>2025-05-25T15:20:15Z</time></trkpt>
<trkpt lat="50.27392" lon="4.953681"><ele>171.97</ele><time>2025-05-25T15:20:17Z</time></trkpt>
<trkpt lat="50.2742" lon="4.953973"><ele>171.72</ele><time>2025-05-25T15:20:19Z</time></trkpt>
<trkpt lat="50.274352" lon="4.954094"><ele>171.57</ele><time>2025-05-25T15:20:21Z</time></trkpt>
<trkpt lat="50.274637" lon="4.954248"><ele>171.38</ele><time>2025-05-25T15:20:23Z</time></trkpt>
<trkpt lat="50.274784" lon="4.95427"><ele>171.9</ele><time>2025-05-25T15:20:25Z</time></trkpt>
<trkpt lat="50.275044" lon="4.954255"><ele>174.78</ele><time>2025-05-25T15:20:27Z</time></trkpt>
<trkpt lat="50.275171" lon="4.954162"><ele>177.27</ele><time>2025-05-25T15:20:28Z</time></trkpt>
<trkpt lat="50.275232" lon="4.954053"><ele>178.09</ele><time>2025-05-25T15:20:30Z</time></trkpt>
<trkpt lat="50.275416" lon="4.953523"><ele>179.85</ele><time>2025-05-25T15:20:32Z</time></trkpt>
<trkpt lat="50.275459" lon="4.953325"><ele>179.83</ele><time>2025-05-25T15:20:34Z</time></trkpt>
<trkpt lat="50.275473" lon="4.953164"><ele>179.72</ele><time>2025-05-25T15:20:36Z</time></trkpt>
<trkpt lat="50.275466" lon="4.952894"><ele>178.5</ele><time>2025-05-25T15:20:38Z</time></trkpt>
<trkpt lat="50.275412" lon="4.952647"><ele>177.52</ele><time>2025-05-25T15:20:40Z</time></trkpt>
<trkpt lat="50.275363" lon="4.95251"><ele>176.98</ele><time>2025-05-25T15:20:42Z</time></trkpt>
<trkpt lat="50.275297" lon="4.952381"><ele>175.19</ele><time>2025-05-25T15:20:44Z</time></trkpt>
<trkpt lat="50.275133" lon="4.952143"><ele>171.74</ele><time>2025-05-25T15:20:46Z</time></trkpt>
<trkpt lat="50.274946" lon="4.951919"><ele>169.71</ele><time>2025-05-25T15:20:47Z</time></trkpt>
<trkpt lat="50.274861" lon="4.951775"><ele>169.72</ele><time>2025-05-25T15:20:49Z</time></trkpt>
<trkpt lat="50.274633" lon="4.951231"><ele>163.46</ele><time>2025-05-25T15:20:51Z</time></trkpt>
<trkpt lat="50.274419" lon="4.950582"><ele>163.83</ele><time>2025-05-25T15:20:53Z</time></trkpt>
<trkpt lat="50.274132" lon="4.949849"><ele>169.83</ele><time>2025-05-25T15:20:55Z</time></trkpt>
<trkpt lat="50.274063" lon="4.949567"><ele>169.91</ele><time>2025-05-25T15:20:57Z</time></trkpt>
<trkpt lat="50.27404" lon="4.949235"><ele>168.4</ele><time>2025-05-25T15:20:59Z</time></trkpt>
<trkpt lat="50.274054" lon="4.94901"><ele>167.02</ele><time>2025-05-25T15:21:01Z</time></trkpt>
<trkpt lat="50.2741" lon="4.948668"><ele>164.84</ele><time>2025-05-25T15:21:03Z</time></trkpt>
<trkpt lat="50.274204" lon="4.948251"><ele>162.28</ele><time>2025-05-25T15:21:05Z</time></trkpt>
<trkpt lat="50.27432" lon="4.948003"><ele>161.79</ele><time>2025-05-25T15:21:06Z</time></trkpt>
<trkpt lat="50.274552" lon="4.947654"><ele>161.65</ele><time>2025-05-25T15:21:08Z</time></trkpt>
<trkpt lat="50.274683" lon="4.947401"><ele>162.49</ele><time>2025-05-25T15:21:10Z</time></trkpt>
<trkpt lat="50.274722" lon="4.947173"><ele>161.29</ele><time>2025-05-25T15:21:12Z</time></trkpt>
<trkpt lat="50.274718" lon="4.947032"><ele>159.23</ele><time>2025-05-25T15:21:14Z</time></trkpt>
<trkpt lat="50.274659" lon="4.946686"><ele>155.18</ele><time>2025-05-25T15:21:16Z</time></trkpt>
<trkpt lat="50.274562" lon="4.946298"><ele>154.0</ele><time>2025-05-25T15:21:18Z</time></trkpt>
<trkpt lat="50.274564" lon="4.946184"><ele>154.0</ele><time>2025-05-25T15:21:20Z</time></trkpt>
<trkpt lat="50.274676" lon="4.946133"><ele>154.0</ele><time>2025-05-25T15:21:22Z</time></trkpt>
<trkpt lat="50.274799" lon="4.946125"><ele>154.03</ele><time>2025-05-25T15:21:23Z</time></trkpt>
<trkpt lat="50.275027" lon="4.946152"><ele>154.51</ele><time>2025-05-25T15:21:25Z</time></trkpt>
<trkpt lat="50.275316" lon="4.946125"><ele>156.36</ele><time>2025-05-25T15:21:27Z</time></trkpt>
<trkpt lat="50.275451" lon="4.946055"><ele>156.32</ele><time>2025-05-25T15:21:29Z</time></trkpt>
<trkpt lat="50.27569" lon="4.945791"><ele>156.6</ele><time>2025-05-25T15:21:31Z</time></trkpt>
<trkpt lat="50.275811" lon="4.945607"><ele>157.88</ele><time>2025-05-25T15:21:33Z</time></trkpt>
<trkpt lat="50.275841" lon="4.945523"><ele>158.58</ele><time>2025-05-25T15:21:35Z</time></trkpt>
<trkpt lat="50.275889" lon="4.945344"><ele>162.07</ele><time>2025-05-25T15:21:37Z</time></trkpt>
<trkpt lat="50.275902" lon="4.945199"><ele>163.18</ele><time>2025-05-25T15:21:39Z</time></trkpt>
<trkpt lat="50.275893" lon="4.945142"><ele>162.8</ele><time>2025-05-25T15:21:41Z</time></trkpt>
<trkpt lat="50.275869" lon="4.945071"><ele>161.67</ele><time>2025-05-25T15:21:42Z</time></trkpt>
<trkpt lat="50.275821" lon="4.945014"><ele>159.65</ele><time>2025-05-25T15:21:44Z</time></trkpt>
<trkpt lat="50.275525" lon="4.944812"><ele>155.66</ele><time>2025-05-25T15:21:46Z</time></trkpt>
<trkpt lat="50.275384" lon="4.944694"><ele>159.2</ele><time>2025-05-25T15:21:48Z</time></trkpt>
<trkpt lat="50.275318" lon="4.944603"><ele>160.46</ele><time>2025-05-25T15:21:50Z</time></trkpt>
<trkpt lat="50.275285" lon="4.944454"><ele>160.94</ele><time>2025-05-25T15:21:52Z</time></trkpt>
<trkpt lat="50.275279" lon="4.944266"><ele>160.99</ele><time>2025-05-25T15:21:54Z</time></trkpt>
<trkpt lat="50.275294" lon="4.944084"><ele>160.74</ele><time>2025-05-25T15:21:56Z</time></trkpt>
<trkpt lat="50.275331" lon="4.943904"><ele>160.06</ele><time>2025-05-25T15:21:58Z</time></trkpt>
<trkpt lat="50.275669" lon="4.942747"><ele>154.15</ele><time>2025-05-25T15:22:00Z</time></trkpt>
<trkpt lat="50.275707" lon="4.942409"><ele>155.9</ele><time>2025-05-25T15:22:01Z</time></trkpt>
<trkpt lat="50.275706" lon="4.942218"><ele>156.62</ele><time>2025-05-25T15:22:03Z</time></trkpt>
<trkpt lat="50.275682" lon="4.94204"><ele>155.95</ele><time>2025-05-25T15:22:05Z</time></trkpt>
<trkpt lat="50.275648" lon="4.941876"><ele>154.92</ele><time>2025-05-25T15:22:07Z</time></trkpt>
<trkpt lat="50.275511" lon="4.941613"><ele>153.25</ele><time>2025-05-25T15:22:09Z</time></trkpt>
<trkpt lat="50.275458" lon="4.941539"><ele>154.49</ele><time>2025-05-25T15:22:11Z</time></trkpt>
<trkpt lat="50.275085" lon="4.941156"><ele>159.22</ele><time>2025-05-25T15:22:13Z</time></trkpt>
<trkpt lat="50.275018" lon="4.941062"><ele>159.25</ele><time>2025-05-25T15:22:15Z</time></trkpt>
<trkpt lat="50.274964" lon="4.940937"><ele>159.65</ele><time>2025-05-25T15:22:17Z</time></trkpt>
<trkpt lat="50.27493" lon="4.940767"><ele>159.17</ele><time>2025-05-25T15:22:19Z</time></trkpt>
<trkpt lat="50.274918" lon="4.94057"><ele>157.79</ele><time>2025-05-25T15:22:20Z</time></trkpt>
<trkpt lat="50.27494" lon="4.939506"><ele>153.6</ele><time>2025-05-25T15:22:22Z</time></trkpt>
<trkpt lat="50.274931" lon="4.939262"><ele>154.31</ele><time>2025-05-25T15:22:24Z</time></trkpt>
<trkpt lat="50.274904" lon="4.939109"><ele>155.0</ele><time>2025-05-25T15:22:26Z</time></trkpt>
<trkpt lat="50.274678" lon="4.93849"><ele>152.44</ele><time>2025-05-25T15:22:28Z</time></trkpt>
<trkpt lat="50.274655" lon="4.938309"><ele>151.71</ele><time>2025-05-25T15:22:30Z</time></trkpt>
<trkpt lat="50.274664" lon="4.938042"><ele>151.87</ele><time>2025-05-25T15:22:32Z</time></trkpt>
<trkpt lat="50.27478" lon="4.936982"><ele>149.93</ele><time>2025-05-25T15:22:34Z</time></trkpt>
<trkpt lat="50.274782" lon="4.936692"><ele>151.25</ele><time>2025-05-25T15:22:36Z</time></trkpt>
<trkpt lat="50.274709" lon="4.93587"><ele>151.75</ele><time>2025-05-25T15:22:38Z</time></trkpt>
<trkpt lat="50.274736" lon="4.935479"><ele>150.06</ele><time>2025-05-25T15:22:39Z</time></trkpt>
<trkpt lat="50.274778" lon="4.935205"><ele>150.09</ele><time>2025-05-25T15:22:41Z</time></trkpt>
<trkpt lat="50.274788" lon="4.934946"><ele>149.75</ele><time>2025-05-25T15:22:43Z</time></trkpt>
<trkpt lat="50.274739" lon="4.93462"><ele>148.24</ele><time>2025-05-25T15:22:45Z</time></trkpt>
<trkpt lat="50.27473" lon="4.934413"><ele>147.89</ele><time>2025-05-25T15:22:47Z</time></trkpt>
<trkpt lat="50.274749" lon="4.933841"><ele>145.31</ele><time>2025-05-25T15:22:49Z</time></trkpt>
<trkpt lat="50.274689" lon="4.932897"><ele>137.34</ele><time>2025-05-25T15:22:51Z</time></trkpt>
<trkpt lat="50.274688" lon="4.932707"><ele>135.94</ele><time>2025-05-25T15:22:53Z</time></trkpt>
<trkpt lat="50.274921" lon="4.931105"><ele>131.75</ele><time>2025-05-25T15:22:55Z</time></trkpt>
<trkpt lat="50.274946" lon="4.930521"><ele>134.54</ele><time>2025-05-25T15:22:56Z</time></trkpt>
<trkpt lat="50.274918" lon="4.930312"><ele>134.58</ele><time>2025-05-25T15:22:58Z</time></trkpt>
<trkpt lat="50.274858" lon="4.930051"><ele>132.88</ele><time>2025-05-25T15:23:00Z</time></trkpt>
<trkpt lat="50.274781" lon="4.929809"><ele>132.03</ele><time>2025-05-25T15:23:02Z</time></trkpt>
<trkpt lat="50.274636" lon="4.929571"><ele>129.25</ele><time>2025-05-25T15:23:04Z</time></trkpt>
<trkpt lat="50.274481" lon="4.929371"><ele>128.36</ele><time>2025-05-25T15:23:06Z</time></trkpt>
<trkpt lat="50.274093" lon="4.928983"><ele>144.36</ele><time>2025-05-25T15:23:08Z</time></trkpt>
<trkpt lat="50.273041" lon="4.927831"><ele>127.61</ele><time>2025-05-25T15:23:10Z</time></trkpt>
<trkpt lat="50.27294" lon="4.927666"><ele>126.1</ele><time>2025-05-25T15:23:12Z</time></trkpt>
<trkpt lat="50.272912" lon="4.927518"><ele>124.61</ele><time>2025-05-25T15:23:14Z</time></trkpt>
<trkpt lat="50.2729" lon="4.927328"><ele>123.28</ele><time>2025-05-25T15:23:15Z</time></trkpt>
<trkpt lat="50.272917" lon="4.926361"><ele>121.96</ele><time>2025-05-25T15:23:17Z</time></trkpt>
<trkpt lat="50.272976" lon="4.92592"><ele>123.89</ele><time>2025-05-25T15:23:19Z</time></trkpt>
<trkpt lat="50.273478" lon="4.922923"><ele>126.94</ele><time>2025-05-25T15:23:21Z</time></trkpt>
<trkpt lat="50.273564" lon="4.921808"><ele>124.66</ele><time>2025-05-25T15:23:23Z</time></trkpt>
<trkpt lat="50.273531" lon="4.919621"><ele>120.17</ele><time>2025-05-25T15:23:25Z</time></trkpt>
<trkpt lat="50.273504" lon="4.919367"><ele>119.75</ele><time>2025-05-25T15:23:27Z</time></trkpt>
<trkpt lat="50.273413" lon="4.919107"><ele>118.41</ele><time>2025-05-25T15:23:29Z</time></trkpt>
<trkpt lat="50.273297" lon="4.918939"><ele>115.61</ele><time>2025-05-25T15:23:31Z</time></trkpt>
<trkpt lat="50.273167" lon="4.918818"><ele>115.83</ele><time>2025-05-25T15:23:33Z</time></trkpt>
<trkpt lat="50.27301" lon="4.918725"><ele>116.4</ele><time>2025-05-25T15:23:34Z</time></trkpt>
<trkpt lat="50.272273" lon="4.918455"><ele>118.58</ele><time>2025-05-25T15:23:36Z</time></trkpt>
<trkpt lat="50.271558" lon="4.918069"><ele>112.72</ele><time>2025-05-25T15:23:38Z</time></trkpt>
<trkpt lat="50.27121" lon="4.917818"><ele>110.02</ele><time>2025-05-25T15:23:40Z</time></trkpt>
<trkpt lat="50.270918" lon="4.917569"><ele>112.79</ele><time>2025-05-25T15:23:42Z</time></trkpt>
<trkpt lat="50.270802" lon="4.917516"><ele>112.24</ele><time>2025-05-25T15:23:44Z</time></trkpt>
<trkpt lat="50.270576" lon="4.917487"><ele>109.31</ele><time>2025-05-25T15:23:46Z</time></trkpt>
<trkpt lat="50.270482" lon="4.917439"><ele>108.03</ele><time>2025-05-25T15:23:48Z</time></trkpt>
<trkpt lat="50.270428" lon="4.917343"><ele>106.84</ele><time>2025-05-25T15:23:50Z</time></trkpt>
<trkpt lat="50.2704" lon="4.917254"><ele>105.84</ele><time>2025-05-25T15:23:52Z</time></trkpt>
<trkpt lat="50.270385" lon="4.91712"><ele>106.55</ele><time>2025-05-25T15:23:53Z</time></trkpt>
<trkpt lat="50.270434" lon="4.916249"><ele>114.34</ele><time>2025-05-25T15:23:55Z</time></trkpt>
<trkpt lat="50.270424" lon="4.915803"><ele>114.25</ele><time>2025-05-25T15:23:57Z</time></trkpt>
<trkpt lat="50.270362" lon="4.915261"><ele>113.02</ele><time>2025-05-25T15:23:59Z</time></trkpt>
<trkpt lat="50.270272" lon="4.914986"><ele>109.99</ele><time>2025-05-25T15:24:01Z</time></trkpt>
<trkpt lat="50.270061" lon="4.914584"><ele>107.37</ele><time>2025-05-25T15:24:03Z</time></trkpt>
<trkpt lat="50.269989" lon="4.914378"><ele>106.11</ele><time>2025-05-25T15:24:05Z</time></trkpt>
<trkpt lat="50.269939" lon="4.913538"><ele>107.46</ele><time>2025-05-25T15:24:07Z</time></trkpt>
<trkpt lat="50.269884" lon="4.91319"><ele>106.15</ele><time>2025-05-25T15:24:09Z</time></trkpt>
<trkpt lat="50.269544" lon="4.911701"><ele>104.11</ele><time>2025-05-25T15:24:11Z</time></trkpt>
<trkpt lat="50.269404" lon="4.910584"><ele>104.59</ele><time>2025-05-25T15:24:12Z</time></trkpt>
<trkpt lat="50.269323" lon="4.907606"><ele>100.39</ele><time>2025-05-25T15:24:14Z</time></trkpt>
<trkpt lat="50.269368" lon="4.907167"><ele>99.14</ele><time>2025-05-25T15:24:16Z</time></trkpt>
<trkpt lat="50.269308" lon="4.907152"><ele>99.13</ele><time>2025-05-25T15:24:18Z</time></trkpt>
<trkpt lat="50.269254" lon="4.907087"><ele>99.15</ele><time>2025-05-25T15:24:21Z</time></trkpt>
<trkpt lat="50.269125" lon="4.906911"><ele>98.85</ele><time>2025-05-25T15:24:23Z</time></trkpt>
<trkpt lat="50.268718" lon="4.906436"><ele>95.72</ele><time>2025-05-25T15:24:25Z</time></trkpt>
<trkpt lat="50.268622" lon="4.906118"><ele>94.03</ele><time>2025-05-25T15:24:27Z</time></trkpt>
<trkpt lat="50.268615" lon="4.905712"><ele>92.99</ele><time>2025-05-25T15:24:29Z</time></trkpt>
<trkpt lat="50.268689" lon="4.905451"><ele>92.99</ele><time>2025-05-25T15:24:31Z</time></trkpt>
<trkpt lat="50.269233" lon="4.904939"><ele>91.64</ele><time>2025-05-25T15:24:45Z</time></trkpt>
<trkpt lat="50.271259" lon="4.903203"><ele>94.03</ele><time>2025-05-25T15:24:58Z</time></trkpt>
<trkpt lat="50.272067" lon="4.902486"><ele>94.95</ele><time>2025-05-25T15:25:11Z</time></trkpt>
<trkpt lat="50.272045" lon="4.902786"><ele>96.81</ele><time>2025-05-25T15:25:21Z</time></trkpt>
<trkpt lat="50.271963" lon="4.903045"><ele>98.18</ele><time>2025-05-25T15:25:32Z</time></trkpt>
<trkpt lat="50.271777" lon="4.903295"><ele>98.25</ele><time>2025-05-25T15:25:42Z</time></trkpt>
<trkpt lat="50.270734" lon="4.904435"><ele>94.85</ele><time>2025-05-25T15:25:53Z</time></trkpt>
<trkpt lat="50.270644" lon="4.904592"><ele>96.58</ele><time>2025-05-25T15:26:03Z</time></trkpt>
<trkpt lat="50.270236" lon="4.905184"><ele>98.3</ele><time>2025-05-25T15:26:13Z</time></trkpt>
<trkpt lat="50.26984" lon="4.905732"><ele>99.72</ele><time>2025-05-25T15:26:24Z</time></trkpt>
<trkpt lat="50.26972" lon="4.906047"><ele>101.27</ele><time>2025-05-25T15:26:34Z</time></trkpt>
<trkpt lat="50.269705" lon="4.906203"><ele>101.89</ele><time>2025-05-25T15:26:45Z</time></trkpt>
<trkpt lat="50.269705" lon="4.906203"><ele>101.89</ele><time>2025-05-25T15:26:45Z</time></trkpt>
<trkpt lat="50.269703" lon="4.906226"><ele>102.51</ele><time>2025-05-25T15:26:45Z</time></trkpt>
<trkpt lat="50.26975" lon="4.906219"><ele>103.58</ele><time>2025-05-25T15:26:46Z</time></trkpt>
<trkpt lat="50.269821" lon="4.906261"><ele>106.13</ele><time>2025-05-25T15:26:48Z</time></trkpt>
<trkpt lat="50.269861" lon="4.906313"><ele>108.03</ele><time>2025-05-25T15:26:49Z</time></trkpt>
<trkpt lat="50.269889" lon="4.906458"><ele>111.07</ele><time>2025-05-25T15:26:50Z</time></trkpt>
<trkpt lat="50.269882" lon="4.90656"><ele>112.32</ele><time>2025-05-25T15:26:51Z</time></trkpt>
<trkpt lat="50.269737" lon="4.906989"><ele>108.91</ele><time>2025-05-25T15:26:53Z</time></trkpt>
<trkpt lat="50.269719" lon="4.907157"><ele>108.67</ele><time>2025-05-25T15:26:54Z</time></trkpt>
<trkpt lat="50.269734" lon="4.907808"><ele>114.68</ele><time>2025-05-25T15:26:55Z</time></trkpt>
<trkpt lat="50.269706" lon="4.908259"><ele>114.09</ele><time>2025-05-25T15:26:57Z</time></trkpt>
<trkpt lat="50.269731" lon="4.908761"><ele>113.35</ele><time>2025-05-25T15:26:58Z</time></trkpt>
<trkpt lat="50.269801" lon="4.90951"><ele>117.39</ele><time>2025-05-25T15:26:59Z</time></trkpt>
<trkpt lat="50.269887" lon="4.910156"><ele>121.35</ele><time>2025-05-25T15:27:01Z</time></trkpt>
<trkpt lat="50.270139" lon="4.911305"><ele>131.73</ele><time>2025-05-25T15:27:02Z</time></trkpt>
<trkpt lat="50.270344" lon="4.912365"><ele>133.3</ele><time>2025-05-25T15:27:03Z</time></trkpt>
<trkpt lat="50.270395" lon="4.913029"><ele>132.46</ele><time>2025-05-25T15:27:05Z</time></trkpt>
<trkpt lat="50.270432" lon="4.913308"><ele>132.01</ele><time>2025-05-25T15:27:06Z</time></trkpt>
<trkpt lat="50.270487" lon="4.913539"><ele>133.82</ele><time>2025-05-25T15:27:07Z</time></trkpt>
<trkpt lat="50.270561" lon="4.913752"><ele>136.83</ele><time>2025-05-25T15:27:09Z</time></trkpt>
<trkpt lat="50.270668" lon="4.913979"><ele>141.21</ele><time>2025-05-25T15:27:10Z</time></trkpt>
<trkpt lat="50.270728" lon="4.91415"><ele>142.08</ele><time>2025-05-25T15:27:11Z</time></trkpt>
<trkpt lat="50.27088" lon="4.914732"><ele>143.22</ele><time>2025-05-25T15:27:13Z</time></trkpt>
<trkpt lat="50.27092" lon="4.914976"><ele>142.22</ele><time>2025-05-25T15:27:14Z</time></trkpt>
<trkpt lat="50.271024" lon="4.915941"><ele>144.11</ele><time>2025-05-25T15:27:15Z</time></trkpt>
<trkpt lat="50.271041" lon="4.916581"><ele>142.3</ele><time>2025-05-25T15:27:16Z</time></trkpt>
<trkpt lat="50.271082" lon="4.916716"><ele>142.68</ele><time>2025-05-25T15:27:18Z</time></trkpt>
<trkpt lat="50.271188" lon="4.916825"><ele>142.48</ele><time>2025-05-25T15:27:19Z</time></trkpt>
<trkpt lat="50.271282" lon="4.916839"><ele>143.95</ele><time>2025-05-25T15:27:20Z</time></trkpt>
<trkpt lat="50.271392" lon="4.916811"><ele>147.36</ele><time>2025-05-25T15:27:22Z</time></trkpt>
<trkpt lat="50.271544" lon="4.916682"><ele>155.19</ele><time>2025-05-25T15:27:23Z</time></trkpt>
<trkpt lat="50.271659" lon="4.91664"><ele>158.54</ele><time>2025-05-25T15:27:24Z</time></trkpt>
<trkpt lat="50.271839" lon="4.916641"><ele>160.61</ele><time>2025-05-25T15:27:26Z</time></trkpt>
<trkpt lat="50.272124" lon="4.916727"><ele>158.62</ele><time>2025-05-25T15:27:27Z</time></trkpt>
<trkpt lat="50.272428" lon="4.917049"><ele>155.91</ele><time>2025-05-25T15:27:28Z</time></trkpt>
<trkpt lat="50.272521" lon="4.91713"><ele>156.15</ele><time>2025-05-25T15:27:30Z</time></trkpt>
<trkpt lat="50.272636" lon="4.917178"><ele>157.36</ele><time>2025-05-25T15:27:31Z</time></trkpt>
<trkpt lat="50.273406" lon="4.917187"><ele>172.49</ele><time>2025-05-25T15:27:32Z</time></trkpt>
<trkpt lat="50.273636" lon="4.917275"><ele>171.63</ele><time>2025-05-25T15:27:34Z</time></trkpt>
<trkpt lat="50.273854" lon="4.91729"><ele>172.56</ele><time>2025-05-25T15:27:35Z</time></trkpt>
<trkpt lat="50.273923" lon="4.917318"><ele>173.13</ele><time>2025-05-25T15:27:36Z</time></trkpt>
<trkpt lat="50.274033" lon="4.917424"><ele>174.01</ele><time>2025-05-25T15:27:38Z</time></trkpt>
<trkpt lat="50.274169" lon="4.917656"><ele>173.23</ele><time>2025-05-25T15:27:39Z</time></trkpt>
<trkpt lat="50.274247" lon="4.917898"><ele>172.1</ele><time>2025-05-25T15:27:40Z</time></trkpt>
<trkpt lat="50.274289" lon="4.918347"><ele>170.09</ele><time>2025-05-25T15:27:41Z</time></trkpt>
<trkpt lat="50.274471" lon="4.918925"><ele>173.23</ele><time>2025-05-25T15:27:43Z</time></trkpt>
<trkpt lat="50.274563" lon="4.919116"><ele>173.12</ele><time>2025-05-25T15:27:44Z</time></trkpt>
<trkpt lat="50.274657" lon="4.919216"><ele>174.91</ele><time>2025-05-25T15:27:45Z</time></trkpt>
<trkpt lat="50.274742" lon="4.919253"><ele>177.29</ele><time>2025-05-25T15:27:47Z</time></trkpt>
<trkpt lat="50.274856" lon="4.919243"><ele>180.53</ele><time>2025-05-25T15:27:48Z</time></trkpt>
<trkpt lat="50.275923" lon="4.919041"><ele>190.59</ele><time>2025-05-25T15:27:49Z</time></trkpt>
<trkpt lat="50.276041" lon="4.919043"><ele>192.1</ele><time>2025-05-25T15:27:51Z</time></trkpt>
<trkpt lat="50.276123" lon="4.919128"><ele>193.08</ele><time>2025-05-25T15:27:52Z</time></trkpt>
<trkpt lat="50.276261" lon="4.919135"><ele>194.08</ele><time>2025-05-25T15:27:56Z</time></trkpt>
<trkpt lat="50.276553" lon="4.919259"><ele>196.51</ele><time>2025-05-25T15:27:59Z</time></trkpt>
<trkpt lat="50.276852" lon="4.919264"><ele>197.78</ele><time>2025-05-25T15:28:03Z</time></trkpt>
<trkpt lat="50.277754" lon="4.919031"><ele>205.62</ele><time>2025-05-25T15:28:06Z</time></trkpt>
<trkpt lat="50.278181" lon="4.918991"><ele>207.45</ele><time>2025-05-25T15:28:10Z</time></trkpt>
<trkpt lat="50.279571" lon="4.918944"><ele>215.11</ele><time>2025-05-25T15:28:14Z</time></trkpt>
<trkpt lat="50.279752" lon="4.918969"><ele>216.29</ele><time>2025-05-25T15:28:17Z</time></trkpt>
<trkpt lat="50.28289" lon="4.919811"><ele>232.4</ele><time>2025-05-25T15:28:21Z</time></trkpt>
<trkpt lat="50.283148" lon="4.919783"><ele>233.92</ele><time>2025-05-25T15:28:24Z</time></trkpt>
<trkpt lat="50.284065" lon="4.919268"><ele>238.36</ele><time>2025-05-25T15:28:28Z</time></trkpt>
<trkpt lat="50.284528" lon="4.918832"><ele>237.79</ele><time>2025-05-25T15:28:32Z</time></trkpt>
<trkpt lat="50.284795" lon="4.918654"><ele>237.11</ele><time>2025-05-25T15:28:35Z</time></trkpt>
<trkpt lat="50.284932" lon="4.918635"><ele>237.02</ele><time>2025-05-25T15:28:39Z</time></trkpt>
<trkpt lat="50.285114" lon="4.918651"><ele>236.24</ele><time>2025-05-25T15:28:42Z</time></trkpt>
<trkpt lat="50.285302" lon="4.918703"><ele>235.36</ele><time>2025-05-25T15:28:46Z</time></trkpt>
<trkpt lat="50.286014" lon="4.919048"><ele>236.55</ele><time>2025-05-25T15:28:49Z</time></trkpt>
<trkpt lat="50.286425" lon="4.919326"><ele>234.02</ele><time>2025-05-25T15:28:53Z</time></trkpt>
<trkpt lat="50.287095" lon="4.919717"><ele>233.44</ele><time>2025-05-25T15:28:57Z</time></trkpt>
<trkpt lat="50.289437" lon="4.921188"><ele>223.01</ele><time>2025-05-25T15:29:00Z</time></trkpt>
<trkpt lat="50.290719" lon="4.922054"><ele>223.34</ele><time>2025-05-25T15:29:04Z</time></trkpt>
<trkpt lat="50.290931" lon="4.922284"><ele>220.94</ele><time>2025-05-25T15:29:07Z</time></trkpt>
<trkpt lat="50.291064" lon="4.922472"><ele>219.51</ele><time>2025-05-25T15:29:11Z</time></trkpt>
<trkpt lat="50.29115" lon="4.922634"><ele>218.1</ele><time>2025-05-25T15:29:15Z</time></trkpt>
<trkpt lat="50.291379" lon="4.923546"><ele>212.18</ele><time>2025-05-25T15:29:18Z</time></trkpt>
<trkpt lat="50.291479" lon="4.923872"><ele>212.61</ele><time>2025-05-25T15:29:22Z</time></trkpt>
<trkpt lat="50.291582" lon="4.923948"><ele>212.58</ele><time>2025-05-25T15:29:25Z</time></trkpt>
<trkpt lat="50.29231" lon="4.923851"><ele>207.05</ele><time>2025-05-25T15:29:29Z</time></trkpt>
<trkpt lat="50.292739" lon="4.923678"><ele>200.94</ele><time>2025-05-25T15:29:33Z</time></trkpt>
<trkpt lat="50.293131" lon="4.923436"><ele>197.28</ele><time>2025-05-25T15:29:36Z</time></trkpt>
<trkpt lat="50.293331" lon="4.923344"><ele>197.07</ele><time>2025-05-25T15:29:40Z</time></trkpt>
<trkpt lat="50.293474" lon="4.923337"><ele>196.51</ele><time>2025-05-25T15:29:43Z</time></trkpt>
<trkpt lat="50.293595" lon="4.923403"><ele>196.32</ele><time>2025-05-25T15:29:47Z</time></trkpt>
<trkpt lat="50.29452" lon="4.924203"><ele>199.7</ele><time>2025-05-25T15:29:50Z</time></trkpt>
<trkpt lat="50.295647" lon="4.925117"><ele>208.33</ele><time>2025-05-25T15:29:54Z</time></trkpt>
<trkpt lat="50.295647" lon="4.925117"><ele>208.33</ele><time>2025-05-25T15:29:54Z</time></trkpt>
<trkpt lat="50.295806" lon="4.925201"><ele>208.9</ele><time>2025-05-25T15:30:00Z</time></trkpt>
<trkpt lat="50.297023" lon="4.924904"><ele>219.07</ele><time>2025-05-25T15:30:06Z</time></trkpt>
<trkpt lat="50.29751" lon="4.924822"><ele>225.76</ele><time>2025-05-25T15:30:13Z</time></trkpt>
<trkpt lat="50.297599" lon="4.92485"><ele>227.09</ele><time>2025-05-25T15:30:19Z</time></trkpt>
<trkpt lat="50.297693" lon="4.924938"><ele>227.91</ele><time>2025-05-25T15:30:25Z</time></trkpt>
<trkpt lat="50.297789" lon="4.925123"><ele>229.18</ele><time>2025-05-25T15:30:31Z</time></trkpt>
<trkpt lat="50.299714" lon="4.929841"><ele>244.64</ele><time>2025-05-25T15:30:38Z</time></trkpt>
<trkpt lat="50.300655" lon="4.931197"><ele>242.64</ele><time>2025-05-25T15:30:44Z</time></trkpt>
<trkpt lat="50.300861" lon="4.931538"><ele>241.56</ele><time>2025-05-25T15:30:50Z</time></trkpt>
<trkpt lat="50.301536" lon="4.932779"><ele>243.0</ele><time>2025-05-25T15:30:56Z</time></trkpt>
<trkpt lat="50.30428" lon="4.938011"><ele>249.07</ele><time>2025-05-25T15:31:02Z</time></trkpt>
<trkpt lat="50.304671" lon="4.938721"><ele>247.6</ele><time>2025-05-25T15:31:09Z</time></trkpt>
<trkpt lat="50.305862" lon="4.940494"><ele>252.1</ele><time>2025-05-25T15:31:15Z</time></trkpt>
<trkpt lat="50.306054" lon="4.940727"><ele>252.79</ele><time>2025-05-25T15:31:21Z</time></trkpt>
<trkpt lat="50.306346" lon="4.941002"><ele>253.51</ele><time>2025-05-25T15:31:27Z</time></trkpt>
<trkpt lat="50.308609" lon="4.942902"><ele>250.53</ele><time>2025-05-25T15:31:33Z</time></trkpt>
<trkpt lat="50.308764" lon="4.943064"><ele>250.47</ele><time>2025-05-25T15:31:40Z</time></trkpt>
<trkpt lat="50.308999" lon="4.943017"><ele>250.56</ele><time>2025-05-25T15:31:43Z</time></trkpt>
<trkpt lat="50.309506" lon="4.942895"><ele>246.23</ele><time>2025-05-25T15:31:47Z</time></trkpt>
<trkpt lat="50.309725" lon="4.942877"><ele>244.98</ele><time>2025-05-25T15:31:50Z</time></trkpt>
<trkpt lat="50.309919" lon="4.942955"><ele>243.58</ele><time>2025-05-25T15:31:54Z</time></trkpt>
<trkpt lat="50.310181" lon="4.943153"><ele>240.7</ele><time>2025-05-25T15:31:57Z</time></trkpt>
<trkpt lat="50.311206" lon="4.941021"><ele>241.41</ele><time>2025-05-25T15:32:08Z</time></trkpt>
<trkpt lat="50.311672" lon="4.940128"><ele>242.48</ele><time>2025-05-25T15:32:18Z</time></trkpt>
<trkpt lat="50.313263" lon="4.937263"><ele>250.85</ele><time>2025-05-25T15:32:28Z</time></trkpt>
<trkpt lat="50.314639" lon="4.934734"><ele>259.66</ele><time>2025-05-25T15:32:38Z</time></trkpt>
<trkpt lat="50.314784" lon="4.934271"><ele>260.85</ele><time>2025-05-25T15:32:49Z</time></trkpt>
<trkpt lat="50.316394" lon="4.92582"><ele>258.02</ele><time>2025-05-25T15:32:59Z</time></trkpt>
<trkpt lat="50.316503" lon="4.925095"><ele>258.41</ele><time>2025-05-25T15:33:09Z</time></trkpt>
<trkpt lat="50.316564" lon="4.924552"><ele>260.24</ele><time>2025-05-25T15:33:20Z</time></trkpt>
<trkpt lat="50.316618" lon="4.92385"><ele>262.53</ele><time>2025-05-25T15:33:30Z</time></trkpt>
<trkpt lat="50.316853" lon="4.92376"><ele>263.57</ele><time>2025-05-25T15:33:34Z</time></trkpt>
<trkpt lat="50.316971" lon="4.923673"><ele>263.35</ele><time>2025-05-25T15:33:38Z</time></trkpt>
<trkpt lat="50.317045" lon="4.923511"><ele>262.14</ele><time>2025-05-25T15:33:42Z</time></trkpt>
<trkpt lat="50.318321" lon="4.919567"><ele>258.14</ele><time>2025-05-25T15:33:47Z</time></trkpt>
<trkpt lat="50.318369" lon="4.919365"><ele>259.12</ele><time>2025-05-25T15:33:51Z</time></trkpt>
<trkpt lat="50.318273" lon="4.919256"><ele>259.9</ele><time>2025-05-25T15:33:55Z</time></trkpt>
<trkpt lat="50.318161" lon="4.919037"><ele>261.09</ele><time>2025-05-25T15:33:59Z</time></trkpt>
<trkpt lat="50.317886" lon="4.918379"><ele>257.44</ele><time>2025-05-25T15:34:03Z</time></trkpt>
<trkpt lat="50.317871" lon="4.918156"><ele>255.94</ele><time>2025-05-25T15:34:07Z</time></trkpt>
<trkpt lat="50.317917" lon="4.917876"><ele>255.69</ele><time>2025-05-25T15:34:11Z</time></trkpt>
<trkpt lat="50.318132" lon="4.9174"><ele>254.66</ele><time>2025-05-25T15:34:15Z</time></trkpt>
<trkpt lat="50.318283" lon="4.917047"><ele>252.74</ele><time>2025-05-25T15:34:20Z</time></trkpt>
<trkpt lat="50.318462" lon="4.916471"><ele>248.05</ele><time>2025-05-25T15:34:24Z</time></trkpt>
<trkpt lat="50.31867" lon="4.915182"><ele>243.71</ele><time>2025-05-25T15:34:28Z</time></trkpt>
<trkpt lat="50.318743" lon="4.914459"><ele>242.03</ele><time>2025-05-25T15:34:32Z</time></trkpt>
<trkpt lat="50.318833" lon="4.91386"><ele>239.7</ele><time>2025-05-25T15:34:36Z</time></trkpt>
<trkpt lat="50.318885" lon="4.913653"><ele>239.13</ele><time>2025-05-25T15:34:40Z</time></trkpt>
<trkpt lat="50.318961" lon="4.913477"><ele>238.78</ele><time>2025-05-25T15:34:44Z</time></trkpt>
<trkpt lat="50.319193" lon="4.913086"><ele>238.1</ele><time>2025-05-25T15:34:49Z</time></trkpt>
<trkpt lat="50.319564" lon="4.912237"><ele>238.26</ele><time>2025-05-25T15:34:53Z</time></trkpt>
<trkpt lat="50.31968" lon="4.912008"><ele>240.07</ele><time>2025-05-25T15:34:57Z</time></trkpt>
<trkpt lat="50.320137" lon="4.912144"><ele>245.7</ele><time>2025-05-25T15:35:00Z</time></trkpt>
<trkpt lat="50.320283" lon="4.91211"><ele>246.63</ele><time>2025-05-25T15:35:04Z</time></trkpt>
<trkpt lat="50.320496" lon="4.912014"><ele>247.82</ele><time>2025-05-25T15:35:08Z</time></trkpt>
<trkpt lat="50.320625" lon="4.9113"><ele>248.5</ele><time>2025-05-25T15:35:11Z</time></trkpt>
<trkpt lat="50.320685" lon="4.911041"><ele>249.18</ele><time>2025-05-25T15:35:15Z</time></trkpt>
<trkpt lat="50.320732" lon="4.910961"><ele>249.81</ele><time>2025-05-25T15:35:18Z</time></trkpt>
<trkpt lat="50.32085" lon="4.910874"><ele>251.04</ele><time>2025-05-25T15:35:21Z</time></trkpt>
<trkpt lat="50.32112" lon="4.910735"><ele>254.37</ele><time>2025-05-25T15:35:25Z</time></trkpt>
<trkpt lat="50.321698" lon="4.910525"><ele>255.11</ele><time>2025-05-25T15:35:28Z</time></trkpt>
<trkpt lat="50.321886" lon="4.910481"><ele>255.27</ele><time>2025-05-25T15:35:32Z</time></trkpt>
<trkpt lat="50.322484" lon="4.91032"><ele>254.71</ele><time>2025-05-25T15:35:35Z</time></trkpt>
<trkpt lat="50.322637" lon="4.910364"><ele>254.38</ele><time>2025-05-25T15:35:38Z</time></trkpt>
<trkpt lat="50.322711" lon="4.91044"><ele>253.83</ele><time>2025-05-25T15:35:42Z</time></trkpt>
<trkpt lat="50.323023" lon="4.910522"><ele>252.36</ele><time>2025-05-25T15:35:49Z</time></trkpt>
<trkpt lat="50.323356" lon="4.910645"><ele>249.68</ele><time>2025-05-25T15:35:57Z</time></trkpt>
<trkpt lat="50.323473" lon="4.910639"><ele>249.7</ele><time>2025-05-25T15:36:05Z</time></trkpt>
<trkpt lat="50.323651" lon="4.910592"><ele>249.74</ele><time>2025-05-25T15:36:13Z</time></trkpt>
<trkpt lat="50.324119" lon="4.910406"><ele>247.63</ele><time>2025-05-25T15:36:20Z</time></trkpt>
<trkpt lat="50.325631" lon="4.909605"><ele>243.15</ele><time>2025-05-25T15:36:28Z</time></trkpt>
<trkpt lat="50.325981" lon="4.909461"><ele>243.5</ele><time>2025-05-25T15:36:36Z</time></trkpt>
<trkpt lat="50.326138" lon="4.909405"><ele>244.18</ele><time>2025-05-25T15:36:41Z</time></trkpt>
<trkpt lat="50.326429" lon="4.909354"><ele>245.96</ele><time>2025-05-25T15:36:46Z</time></trkpt>
<trkpt lat="50.32674" lon="4.909363"><ele>248.24</ele><time>2025-05-25T15:36:50Z</time></trkpt>
<trkpt lat="50.328783" lon="4.909577"><ele>256.28</ele><time>2025-05-25T15:36:55Z</time></trkpt>
<trkpt lat="50.328898" lon="4.909539"><ele>255.63</ele><time>2025-05-25T15:37:00Z</time></trkpt>
<trkpt lat="50.329331" lon="4.909282"><ele>255.49</ele><time>2025-05-25T15:37:05Z</time></trkpt>
<trkpt lat="50.329462" lon="4.909244"><ele>255.28</ele><time>2025-05-25T15:37:10Z</time></trkpt>
<trkpt lat="50.329586" lon="4.909251"><ele>255.3</ele><time>2025-05-25T15:37:14Z</time></trkpt>
<trkpt lat="50.329796" lon="4.909301"><ele>255.09</ele><time>2025-05-25T15:37:19Z</time></trkpt>
<trkpt lat="50.330731" lon="4.909608"><ele>242.85</ele><time>2025-05-25T15:37:24Z</time></trkpt>
<trkpt lat="50.330884" lon="4.909636"><ele>239.84</ele><time>2025-05-25T15:37:29Z</time></trkpt>
<trkpt lat="50.331052" lon="4.90964"><ele>236.16</ele><time>2025-05-25T15:37:34Z</time></trkpt>
<trkpt lat="50.331335" lon="4.90958"><ele>229.9</ele><time>2025-05-25T15:37:39Z</time></trkpt>
<trkpt lat="50.331335" lon="4.90958"><ele>229.9</ele><time>2025-05-25T15:37:39Z</time></trkpt>
<trkpt lat="50.331428" lon="4.909502"><ele>228.4</ele><time>2025-05-25T15:37:42Z</time></trkpt>
<trkpt lat="50.331463" lon="4.909446"><ele>228.12</ele><time>2025-05-25T15:37:44Z</time></trkpt>
<trkpt lat="50.331483" lon="4.909362"><ele>228.02</ele><time>2025-05-25T15:37:47Z</time></trkpt>
<trkpt lat="50.331526" lon="4.908328"><ele>226.03</ele><time>2025-05-25T15:37:50Z</time></trkpt>
<trkpt lat="50.331669" lon="4.907641"><ele>218.42</ele><time>2025-05-25T15:37:53Z</time></trkpt>
<trkpt lat="50.33183" lon="4.907129"><ele>210.87</ele><time>2025-05-25T15:37:56Z</time></trkpt>
<trkpt lat="50.331956" lon="4.906945"><ele>204.44</ele><time>2025-05-25T15:37:59Z</time></trkpt>
<trkpt lat="50.333033" lon="4.905169"><ele>173.28</ele><time>2025-05-25T15:38:02Z</time></trkpt>
<trkpt lat="50.333306" lon="4.904506"><ele>167.51</ele><time>2025-05-25T15:38:05Z</time></trkpt>
<trkpt lat="50.333438" lon="4.904262"><ele>166.75</ele><time>2025-05-25T15:38:08Z</time></trkpt>
<trkpt lat="50.333687" lon="4.903895"><ele>165.73</ele><time>2025-05-25T15:38:11Z</time></trkpt>
<trkpt lat="50.333737" lon="4.903764"><ele>164.65</ele><time>2025-05-25T15:38:14Z</time></trkpt>
<trkpt lat="50.333746" lon="4.903626"><ele>163.62</ele><time>2025-05-25T15:38:17Z</time></trkpt>
<trkpt lat="50.333706" lon="4.903458"><ele>163.11</ele><time>2025-05-25T15:38:20Z</time></trkpt>
<trkpt lat="50.333391" lon="4.90268"><ele>156.02</ele><time>2025-05-25T15:38:23Z</time></trkpt>
<trkpt lat="50.333298" lon="4.90249"><ele>154.05</ele><time>2025-05-25T15:38:26Z</time></trkpt>
<trkpt lat="50.333334" lon="4.902377"><ele>153.12</ele><time>2025-05-25T15:38:29Z</time></trkpt>
<trkpt lat="50.333402" lon="4.902248"><ele>152.66</ele><time>2025-05-25T15:38:32Z</time></trkpt>
<trkpt lat="50.333719" lon="4.90199"><ele>152.14</ele><time>2025-05-25T15:38:35Z</time></trkpt>
<trkpt lat="50.333749" lon="4.901888"><ele>151.38</ele><time>2025-05-25T15:38:38Z</time></trkpt>
<trkpt lat="50.333734" lon="4.9018"><ele>150.14</ele><time>2025-05-25T15:38:41Z</time></trkpt>
<trkpt lat="50.333683" lon="4.901745"><ele>148.54</ele><time>2025-05-25T15:38:44Z</time></trkpt>
<trkpt lat="50.333391" lon="4.90161"><ele>144.63</ele><time>2025-05-25T15:38:47Z</time></trkpt>
<trkpt lat="50.333298" lon="4.901527"><ele>143.62</ele><time>2025-05-25T15:38:50Z</time></trkpt>
<trkpt lat="50.332935" lon="4.901144"><ele>138.45</ele><time>2025-05-25T15:38:53Z</time></trkpt>
<trkpt lat="50.332667" lon="4.900798"><ele>135.79</ele><time>2025-05-25T15:38:56Z</time></trkpt>
<trkpt lat="50.332556" lon="4.90069"><ele>135.89</ele><time>2025-05-25T15:38:59Z</time></trkpt>
<trkpt lat="50.332423" lon="4.900601"><ele>136.67</ele><time>2025-05-25T15:39:02Z</time></trkpt>
<trkpt lat="50.332339" lon="4.900508"><ele>136.46</ele><time>2025-05-25T15:39:05Z</time></trkpt>
<trkpt lat="50.332335" lon="4.900396"><ele>134.13</ele><time>2025-05-25T15:39:08Z</time></trkpt>
<trkpt lat="50.332426" lon="4.900265"><ele>129.33</ele><time>2025-05-25T15:39:11Z</time></trkpt>
<trkpt lat="50.332501" lon="4.900235"><ele>127.06</ele><time>2025-05-25T15:39:13Z</time></trkpt>
<trkpt lat="50.332662" lon="4.90022"><ele>125.83</ele><time>2025-05-25T15:39:16Z</time></trkpt>
<trkpt lat="50.332933" lon="4.90029"><ele>126.71</ele><time>2025-05-25T15:39:19Z</time></trkpt>
<trkpt lat="50.333032" lon="4.900282"><ele>126.96</ele><time>2025-05-25T15:39:22Z</time></trkpt>
<trkpt lat="50.333108" lon="4.900205"><ele>126.85</ele><time>2025-05-25T15:39:25Z</time></trkpt>
<trkpt lat="50.333126" lon="4.900116"><ele>126.34</ele><time>2025-05-25T15:39:28Z</time></trkpt>
<trkpt lat="50.333113" lon="4.900041"><ele>125.71</ele><time>2025-05-25T15:39:31Z</time></trkpt>
<trkpt lat="50.333061" lon="4.899944"><ele>124.42</ele><time>2025-05-25T15:39:34Z</time></trkpt>
<trkpt lat="50.332758" lon="4.899743"><ele>118.3</ele><time>2025-05-25T15:39:37Z</time></trkpt>
<trkpt lat="50.332528" lon="4.89952"><ele>115.16</ele><time>2025-05-25T15:39:40Z</time></trkpt>
<trkpt lat="50.331754" lon="4.898591"><ele>105.51</ele><time>2025-05-25T15:39:43Z</time></trkpt>
<trkpt lat="50.331671" lon="4.898435"><ele>103.77</ele><time>2025-05-25T15:39:46Z</time></trkpt>
<trkpt lat="50.331652" lon="4.89836"><ele>103.14</ele><time>2025-05-25T15:39:49Z</time></trkpt>
<trkpt lat="50.331678" lon="4.898189"><ele>102.58</ele><time>2025-05-25T15:39:52Z</time></trkpt>
<trkpt lat="50.33176" lon="4.897989"><ele>102.43</ele><time>2025-05-25T15:39:55Z</time></trkpt>
<trkpt lat="50.331773" lon="4.897846"><ele>102.01</ele><time>2025-05-25T15:39:58Z</time></trkpt>
<trkpt lat="50.331758" lon="4.897714"><ele>101.74</ele><time>2025-05-25T15:40:01Z</time></trkpt>
<trkpt lat="50.331392" lon="4.896883"><ele>102.26</ele><time>2025-05-25T15:40:04Z</time></trkpt>
<trkpt lat="50.331405" lon="4.896773"><ele>102.83</ele><time>2025-05-25T15:40:07Z</time></trkpt>
<trkpt lat="50.331584" lon="4.896414"><ele>111.53</ele><time>2025-05-25T15:40:10Z</time></trkpt>
<trkpt lat="50.331959" lon="4.896504"><ele>109.5</ele><time>2025-05-25T15:40:15Z</time></trkpt>
<trkpt lat="50.331959" lon="4.896504"><ele>109.5</ele><time>2025-05-25T15:40:15Z</time></trkpt>
<trkpt lat="50.332391" lon="4.896729"><ele>104.99</ele><time>2025-05-25T15:40:19Z</time></trkpt>
<trkpt lat="50.332823" lon="4.897206"><ele>102.09</ele><time>2025-05-25T15:40:22Z</time></trkpt>
<trkpt lat="50.333331" lon="4.8977"><ele>103.81</ele><time>2025-05-25T15:40:26Z</time></trkpt>
<trkpt lat="50.333646" lon="4.897914"><ele>107.65</ele><time>2025-05-25T15:40:29Z</time></trkpt>
<trkpt lat="50.334355" lon="4.898311"><ele>113.55</ele><time>2025-05-25T15:40:33Z</time></trkpt>
<trkpt lat="50.335402" lon="4.898941"><ele>118.0</ele><time>2025-05-25T15:40:37Z</time></trkpt>
<trkpt lat="50.335825" lon="4.899225"><ele>125.47</ele><time>2025-05-25T15:40:40Z</time></trkpt>
<trkpt lat="50.33599" lon="4.899399"><ele>126.51</ele><time>2025-05-25T15:40:44Z</time></trkpt>
<trkpt lat="50.336172" lon="4.899671"><ele>125.7</ele><time>2025-05-25T15:40:48Z</time></trkpt>
<trkpt lat="50.336304" lon="4.899961"><ele>122.09</ele><time>2025-05-25T15:40:51Z</time></trkpt>
<trkpt lat="50.336451" lon="4.900381"><ele>119.64</ele><time>2025-05-25T15:40:55Z</time></trkpt>
<trkpt lat="50.336941" lon="4.902022"><ele>115.21</ele><time>2025-05-25T15:40:58Z</time></trkpt>
<trkpt lat="50.337016" lon="4.902589"><ele>119.1</ele><time>2025-05-25T15:41:02Z</time></trkpt>
<trkpt lat="50.33704" lon="4.905094"><ele>113.51</ele><time>2025-05-25T15:41:06Z</time></trkpt>
<trkpt lat="50.337087" lon="4.905518"><ele>112.33</ele><time>2025-05-25T15:41:09Z</time></trkpt>
<trkpt lat="50.337238" lon="4.906419"><ele>114.0</ele><time>2025-05-25T15:41:13Z</time></trkpt>
<trkpt lat="50.337347" lon="4.906666"><ele>113.46</ele><time>2025-05-25T15:41:17Z</time></trkpt>
<trkpt lat="50.337515" lon="4.906961"><ele>114.1</ele><time>2025-05-25T15:41:20Z</time></trkpt>
<trkpt lat="50.337583" lon="4.907052"><ele>114.45</ele><time>2025-05-25T15:41:24Z</time></trkpt>
<trkpt lat="50.33775" lon="4.907178"><ele>114.23</ele><time>2025-05-25T15:41:27Z</time></trkpt>
<trkpt lat="50.337889" lon="4.907181"><ele>113.81</ele><time>2025-05-25T15:41:31Z</time></trkpt>
<trkpt lat="50.338135" lon="4.90711"><ele>113.92</ele><time>2025-05-25T15:41:35Z</time></trkpt>
<trkpt lat="50.338247" lon="4.907116"><ele>114.03</ele><time>2025-05-25T15:41:38Z</time></trkpt>
<trkpt lat="50.338349" lon="4.907206"><ele>113.23</ele><time>2025-05-25T15:41:42Z</time></trkpt>
<trkpt lat="50.338421" lon="4.907348"><ele>113.31</ele><time>2025-05-25T15:41:46Z</time></trkpt>
<trkpt lat="50.338831" lon="4.908872"><ele>118.8</ele><time>2025-05-25T15:41:49Z</time></trkpt>
<trkpt lat="50.338905" lon="4.909196"><ele>118.97</ele><time>2025-05-25T15:41:53Z</time></trkpt>
<trkpt lat="50.338936" lon="4.909548"><ele>119.84</ele><time>2025-05-25T15:41:56Z</time></trkpt>
<trkpt lat="50.338531" lon="4.912472"><ele>117.97</ele><time>2025-05-25T15:42:00Z</time></trkpt>
<trkpt lat="50.33851" lon="4.912564"><ele>118.75</ele><time>2025-05-25T15:42:04Z</time></trkpt>
<trkpt lat="50.338279" lon="4.912785"><ele>123.92</ele><time>2025-05-25T15:42:07Z</time></trkpt>
<trkpt lat="50.338206" lon="4.912906"><ele>125.7</ele><time>2025-05-25T15:42:11Z</time></trkpt>
<trkpt lat="50.338138" lon="4.913343"><ele>123.16</ele><time>2025-05-25T15:42:15Z</time></trkpt>
<trkpt lat="50.33802" lon="4.915544"><ele>125.7</ele><time>2025-05-25T15:42:18Z</time></trkpt>
<trkpt lat="50.337965" lon="4.916169"><ele>124.07</ele><time>2025-05-25T15:42:22Z</time></trkpt>
<trkpt lat="50.33788" lon="4.916763"><ele>124.19</ele><time>2025-05-25T15:42:26Z</time></trkpt>
<trkpt lat="50.337782" lon="4.917149"><ele>124.45</ele><time>2025-05-25T15:42:29Z</time></trkpt>
<trkpt lat="50.337305" lon="4.918377"><ele>128.0</ele><time>2025-05-25T15:42:33Z</time></trkpt>
<trkpt lat="50.337239" lon="4.918582"><ele>127.94</ele><time>2025-05-25T15:42:36Z</time></trkpt>
<trkpt lat="50.337178" lon="4.918912"><ele>126.42</ele><time>2025-05-25T15:42:40Z</time></trkpt>
<trkpt lat="50.337165" lon="4.919661"><ele>131.66</ele><time>2025-05-25T15:42:44Z</time></trkpt>
<trkpt lat="50.337251" lon="4.920203"><ele>130.14</ele><time>2025-05-25T15:42:47Z</time></trkpt>
<trkpt lat="50.337338" lon="4.920502"><ele>129.78</ele><time>2025-05-25T15:42:51Z</time></trkpt>
<trkpt lat="50.337725" lon="4.921433"><ele>123.32</ele><time>2025-05-25T15:42:55Z</time></trkpt>
<trkpt lat="50.337797" lon="4.921755"><ele>121.57</ele><time>2025-05-25T15:42:58Z</time></trkpt>
<trkpt lat="50.337834" lon="4.922004"><ele>120.58</ele><time>2025-05-25T15:43:02Z</time></trkpt>
<trkpt lat="50.337882" lon="4.92391"><ele>116.13</ele><time>2025-05-25T15:43:05Z</time></trkpt>
<trkpt lat="50.338106" lon="4.924681"><ele>118.06</ele><time>2025-05-25T15:43:09Z</time></trkpt>
<trkpt lat="50.338133" lon="4.924975"><ele>118.68</ele><time>2025-05-25T15:43:13Z</time></trkpt>
<trkpt lat="50.338385" lon="4.925148"><ele>119.31</ele><time>2025-05-25T15:43:15Z</time></trkpt>
<trkpt lat="50.338473" lon="4.925235"><ele>119.61</ele><time>2025-05-25T15:43:17Z</time></trkpt>
<trkpt lat="50.338545" lon="4.925371"><ele>120.23</ele><time>2025-05-25T15:43:19Z</time></trkpt>
<trkpt lat="50.338678" lon="4.925768"><ele>122.39</ele><time>2025-05-25T15:43:22Z</time></trkpt>
<trkpt lat="50.338841" lon="4.926632"><ele>129.87</ele><time>2025-05-25T15:43:24Z</time></trkpt>
<trkpt lat="50.338908" lon="4.92678"><ele>131.66</ele><time>2025-05-25T15:43:26Z</time></trkpt>
<trkpt lat="50.339074" lon="4.926988"><ele>135.1</ele><time>2025-05-25T15:43:28Z</time></trkpt>
<trkpt lat="50.339318" lon="4.92715"><ele>135.21</ele><time>2025-05-25T15:43:31Z</time></trkpt>
<trkpt lat="50.339368" lon="4.927176"><ele>134.73</ele><time>2025-05-25T15:43:33Z</time></trkpt>
<trkpt lat="50.339569" lon="4.927239"><ele>132.83</ele><time>2025-05-25T15:43:35Z</time></trkpt>
<trkpt lat="50.340399" lon="4.927409"><ele>128.78</ele><time>2025-05-25T15:43:37Z</time></trkpt>
<trkpt lat="50.341048" lon="4.927584"><ele>130.05</ele><time>2025-05-25T15:43:39Z</time></trkpt>
<trkpt lat="50.342037" lon="4.927664"><ele>134.23</ele><time>2025-05-25T15:43:42Z</time></trkpt>
<trkpt lat="50.342276" lon="4.92776"><ele>134.72</ele><time>2025-05-25T15:43:44Z</time></trkpt>
<trkpt lat="50.342475" lon="4.927968"><ele>134.15</ele><time>2025-05-25T15:43:46Z</time></trkpt>
<trkpt lat="50.342579" lon="4.928138"><ele>134.73</ele><time>2025-05-25T15:43:48Z</time></trkpt>
<trkpt lat="50.343211" lon="4.929343"><ele>143.14</ele><time>2025-05-25T15:43:51Z</time></trkpt>
<trkpt lat="50.343435" lon="4.929903"><ele>142.04</ele><time>2025-05-25T15:43:53Z</time></trkpt>
<trkpt lat="50.343549" lon="4.930315"><ele>143.08</ele><time>2025-05-25T15:43:55Z</time></trkpt>
<trkpt lat="50.34364" lon="4.930544"><ele>141.36</ele><time>2025-05-25T15:43:57Z</time></trkpt>
<trkpt lat="50.343837" lon="4.930865"><ele>141.47</ele><time>2025-05-25T15:43:59Z</time></trkpt>
<trkpt lat="50.344264" lon="4.931487"><ele>142.58</ele><time>2025-05-25T15:44:02Z</time></trkpt>
<trkpt lat="50.344391" lon="4.931612"><ele>142.96</ele><time>2025-05-25T15:44:04Z</time></trkpt>
<trkpt lat="50.344649" lon="4.93169"><ele>143.93</ele><time>2025-05-25T15:44:06Z</time></trkpt>
<trkpt lat="50.345428" lon="4.931685"><ele>144.19</ele><time>2025-05-25T15:44:08Z</time></trkpt>
<trkpt lat="50.345677" lon="4.931804"><ele>143.73</ele><time>2025-05-25T15:44:11Z</time></trkpt>
<trkpt lat="50.345783" lon="4.931904"><ele>144.0</ele><time>2025-05-25T15:44:13Z</time></trkpt>
<trkpt lat="50.346248" lon="4.932691"><ele>145.92</ele><time>2025-05-25T15:44:15Z</time></trkpt>
<trkpt lat="50.346492" lon="4.933363"><ele>149.87</ele><time>2025-05-25T15:44:17Z</time></trkpt>
<trkpt lat="50.347024" lon="4.934644"><ele>152.04</ele><time>2025-05-25T15:44:19Z</time></trkpt>
<trkpt lat="50.347262" lon="4.935407"><ele>152.23</ele><time>2025-05-25T15:44:22Z</time></trkpt>
<trkpt lat="50.347333" lon="4.935872"><ele>153.09</ele><time>2025-05-25T15:44:24Z</time></trkpt>
<trkpt lat="50.34735" lon="4.936233"><ele>152.57</ele><time>2025-05-25T15:44:26Z</time></trkpt>
<trkpt lat="50.347335" lon="4.936387"><ele>151.98</ele><time>2025-05-25T15:44:28Z</time></trkpt>
<trkpt lat="50.347249" lon="4.936605"><ele>151.25</ele><time>2025-05-25T15:44:31Z</time></trkpt>
<trkpt lat="50.347162" lon="4.936724"><ele>151.94</ele><time>2025-05-25T15:44:33Z</time></trkpt>
<trkpt lat="50.347039" lon="4.936805"><ele>153.15</ele><time>2025-05-25T15:44:35Z</time></trkpt>
<trkpt lat="50.346649" lon="4.936854"><ele>157.75</ele><time>2025-05-25T15:44:37Z</time></trkpt>
<trkpt lat="50.346568" lon="4.936894"><ele>159.05</ele><time>2025-05-25T15:44:39Z</time></trkpt>
<trkpt lat="50.346438" lon="4.936984"><ele>160.0</ele><time>2025-05-25T15:44:42Z</time></trkpt>
<trkpt lat="50.346264" lon="4.937202"><ele>159.55</ele><time>2025-05-25T15:44:44Z</time></trkpt>
<trkpt lat="50.346167" lon="4.937397"><ele>160.04</ele><time>2025-05-25T15:44:46Z</time></trkpt>
<trkpt lat="50.346101" lon="4.937601"><ele>158.49</ele><time>2025-05-25T15:44:48Z</time></trkpt>
<trkpt lat="50.345888" lon="4.938515"><ele>159.63</ele><time>2025-05-25T15:44:51Z</time></trkpt>
<trkpt lat="50.345853" lon="4.939054"><ele>162.09</ele><time>2025-05-25T15:44:53Z</time></trkpt>
<trkpt lat="50.345877" lon="4.939627"><ele>164.56</ele><time>2025-05-25T15:44:55Z</time></trkpt>
<trkpt lat="50.346206" lon="4.94185"><ele>166.6</ele><time>2025-05-25T15:44:57Z</time></trkpt>
<trkpt lat="50.346266" lon="4.942517"><ele>164.54</ele><time>2025-05-25T15:44:59Z</time></trkpt>
<trkpt lat="50.346266" lon="4.942809"><ele>164.78</ele><time>2025-05-25T15:45:02Z</time></trkpt>
<trkpt lat="50.346136" lon="4.944293"><ele>166.84</ele><time>2025-05-25T15:45:04Z</time></trkpt>
<trkpt lat="50.346108" lon="4.944858"><ele>167.19</ele><time>2025-05-25T15:45:06Z</time></trkpt>
<trkpt lat="50.346119" lon="4.945617"><ele>169.19</ele><time>2025-05-25T15:45:08Z</time></trkpt>
<trkpt lat="50.346256" lon="4.946974"><ele>171.25</ele><time>2025-05-25T15:45:11Z</time></trkpt>
<trkpt lat="50.346271" lon="4.947339"><ele>170.83</ele><time>2025-05-25T15:45:13Z</time></trkpt>
<trkpt lat="50.346148" lon="4.948243"><ele>173.8</ele><time>2025-05-25T15:45:16Z</time></trkpt>
<trkpt lat="50.346088" lon="4.948573"><ele>174.36</ele><time>2025-05-25T15:45:18Z</time></trkpt>
<trkpt lat="50.345747" lon="4.949708"><ele>185.1</ele><time>2025-05-25T15:45:21Z</time></trkpt>
<trkpt lat="50.345711" lon="4.949996"><ele>185.3</ele><time>2025-05-25T15:45:24Z</time></trkpt>
<trkpt lat="50.345714" lon="4.950935"><ele>185.95</ele><time>2025-05-25T15:45:26Z</time></trkpt>
<trkpt lat="50.345732" lon="4.951286"><ele>185.68</ele><time>2025-05-25T15:45:29Z</time></trkpt>
<trkpt lat="50.345772" lon="4.951537"><ele>184.84</ele><time>2025-05-25T15:45:32Z</time></trkpt>
<trkpt lat="50.346052" lon="4.95274"><ele>187.72</ele><time>2025-05-25T15:45:35Z</time></trkpt>
<trkpt lat="50.346098" lon="4.953001"><ele>186.52</ele><time>2025-05-25T15:45:37Z</time></trkpt>
<trkpt lat="50.346196" lon="4.953975"><ele>190.97</ele><time>2025-05-25T15:45:40Z</time></trkpt>
<trkpt lat="50.346377" lon="4.955265"><ele>195.17</ele><time>2025-05-25T15:45:43Z</time></trkpt>
<trkpt lat="50.346384" lon="4.955421"><ele>194.02</ele><time>2025-05-25T15:45:45Z</time></trkpt>
<trkpt lat="50.34624" lon="4.955699"><ele>193.3</ele><time>2025-05-25T15:45:48Z</time></trkpt>
<trkpt lat="50.346077" lon="4.955899"><ele>192.74</ele><time>2025-05-25T15:45:51Z</time></trkpt>
<trkpt lat="50.346013" lon="4.956024"><ele>191.88</ele><time>2025-05-25T15:45:54Z</time></trkpt>
<trkpt lat="50.34565" lon="4.956993"><ele>189.8</ele><time>2025-05-25T15:45:56Z</time></trkpt>
<trkpt lat="50.345591" lon="4.957268"><ele>190.31</ele><time>2025-05-25T15:45:59Z</time></trkpt>
<trkpt lat="50.345604" lon="4.957351"><ele>191.41</ele><time>2025-05-25T15:46:02Z</time></trkpt>
<trkpt lat="50.345714" lon="4.957495"><ele>192.78</ele><time>2025-05-25T15:46:04Z</time></trkpt>
<trkpt lat="50.346158" lon="4.95756"><ele>190.78</ele><time>2025-05-25T15:46:07Z</time></trkpt>
<trkpt lat="50.34645" lon="4.957564"><ele>191.9</ele><time>2025-05-25T15:46:10Z</time></trkpt>
<trkpt lat="50.346732" lon="4.957523"><ele>193.66</ele><time>2025-05-25T15:46:13Z</time></trkpt>
<trkpt lat="50.347017" lon="4.957532"><ele>195.61</ele><time>2025-05-25T15:46:15Z</time></trkpt>
<trkpt lat="50.347097" lon="4.957681"><ele>197.5</ele><time>2025-05-25T15:46:18Z</time></trkpt>
<trkpt lat="50.347525" lon="4.958658"><ele>203.98</ele><time>2025-05-25T15:46:21Z</time></trkpt>
<trkpt lat="50.347924" lon="4.959696"><ele>202.42</ele><time>2025-05-25T15:46:23Z</time></trkpt>
<trkpt lat="50.348197" lon="4.960289"><ele>201.47</ele><time>2025-05-25T15:46:26Z</time></trkpt>
<trkpt lat="50.348369" lon="4.960471"><ele>199.65</ele><time>2025-05-25T15:46:29Z</time></trkpt>
<trkpt lat="50.348437" lon="4.960599"><ele>198.88</ele><time>2025-05-25T15:46:32Z</time></trkpt>
<trkpt lat="50.348483" lon="4.960788"><ele>198.38</ele><time>2025-05-25T15:46:34Z</time></trkpt>
<trkpt lat="50.348521" lon="4.961106"><ele>198.29</ele><time>2025-05-25T15:46:37Z</time></trkpt>
<trkpt lat="50.348527" lon="4.96173"><ele>196.44</ele><time>2025-05-25T15:46:40Z</time></trkpt>
<trkpt lat="50.348594" lon="4.961856"><ele>195.27</ele><time>2025-05-25T15:46:42Z</time></trkpt>
<trkpt lat="50.348671" lon="4.961905"><ele>194.57</ele><time>2025-05-25T15:46:45Z</time></trkpt>
<trkpt lat="50.348847" lon="4.961838"><ele>193.3</ele><time>2025-05-25T15:46:48Z</time></trkpt>
<trkpt lat="50.349139" lon="4.961671"><ele>190.29</ele><time>2025-05-25T15:46:51Z</time></trkpt>
<trkpt lat="50.34943" lon="4.961348"><ele>185.98</ele><time>2025-05-25T15:46:53Z</time></trkpt>
<trkpt lat="50.349557" lon="4.961277"><ele>183.82</ele><time>2025-05-25T15:46:56Z</time></trkpt>
<trkpt lat="50.349919" lon="4.961192"><ele>178.54</ele><time>2025-05-25T15:46:59Z</time></trkpt>
<trkpt lat="50.350086" lon="4.961184"><ele>176.83</ele><time>2025-05-25T15:47:01Z</time></trkpt>
<trkpt lat="50.350721" lon="4.96149"><ele>174.73</ele><time>2025-05-25T15:47:04Z</time></trkpt>
<trkpt lat="50.351229" lon="4.961383"><ele>181.27</ele><time>2025-05-25T15:47:07Z</time></trkpt>
<trkpt lat="50.351229" lon="4.961383"><ele>181.27</ele><time>2025-05-25T15:47:07Z</time></trkpt>
<trkpt lat="50.351216" lon="4.961383"><ele>180.43</ele><time>2025-05-25T15:47:07Z</time></trkpt>
<trkpt lat="50.351092" lon="4.961051"><ele>176.44</ele><time>2025-05-25T15:47:10Z</time></trkpt>
<trkpt lat="50.350564" lon="4.959907"><ele>182.6</ele><time>2025-05-25T15:47:12Z</time></trkpt>
<trkpt lat="50.350521" lon="4.959711"><ele>182.17</ele><time>2025-05-25T15:47:15Z</time></trkpt>
<trkpt lat="50.350494" lon="4.959489"><ele>182.28</ele><time>2025-05-25T15:47:18Z</time></trkpt>
<trkpt lat="50.350494" lon="4.958822"><ele>183.79</ele><time>2025-05-25T15:47:20Z</time></trkpt>
<trkpt lat="50.350516" lon="4.958581"><ele>185.45</ele><time>2025-05-25T15:47:23Z</time></trkpt>
<trkpt lat="50.350565" lon="4.957358"><ele>189.88</ele><time>2025-05-25T15:47:26Z</time></trkpt>
<trkpt lat="50.350541" lon="4.956824"><ele>190.88</ele><time>2025-05-25T15:47:28Z</time></trkpt>
<trkpt lat="50.35046" lon="4.956168"><ele>193.15</ele><time>2025-05-25T15:47:31Z</time></trkpt>
<trkpt lat="50.350347" lon="4.955588"><ele>194.27</ele><time>2025-05-25T15:47:33Z</time></trkpt>
<trkpt lat="50.350209" lon="4.955089"><ele>191.71</ele><time>2025-05-25T15:47:36Z</time></trkpt>
<trkpt lat="50.350102" lon="4.954812"><ele>190.07</ele><time>2025-05-25T15:47:39Z</time></trkpt>
<trkpt lat="50.349436" lon="4.953385"><ele>193.71</ele><time>2025-05-25T15:47:41Z</time></trkpt>
<trkpt lat="50.349368" lon="4.953215"><ele>193.6</ele><time>2025-05-25T15:47:44Z</time></trkpt>
<trkpt lat="50.349284" lon="4.952849"><ele>193.27</ele><time>2025-05-25T15:47:47Z</time></trkpt>
<trkpt lat="50.349244" lon="4.95252"><ele>193.1</ele><time>2025-05-25T15:47:49Z</time></trkpt>
<trkpt lat="50.349302" lon="4.952382"><ele>193.95</ele><time>2025-05-25T15:48:16Z</time></trkpt>
<trkpt lat="50.349357" lon="4.95201"><ele>195.5</ele><time>2025-05-25T15:48:42Z</time></trkpt>
<trkpt lat="50.349345" lon="4.950904"><ele>197.28</ele><time>2025-05-25T15:49:08Z</time></trkpt>
<trkpt lat="50.349393" lon="4.950004"><ele>198.63</ele><time>2025-05-25T15:49:34Z</time></trkpt>
<trkpt lat="50.34946" lon="4.949115"><ele>199.17</ele><time>2025-05-25T15:50:01Z</time></trkpt>
<trkpt lat="50.349531" lon="4.948493"><ele>200.62</ele><time>2025-05-25T15:50:27Z</time></trkpt>
<trkpt lat="50.34964" lon="4.947789"><ele>203.79</ele><time>2025-05-25T15:50:53Z</time></trkpt>
<trkpt lat="50.350009" lon="4.946272"><ele>210.1</ele><time>2025-05-25T15:51:20Z</time></trkpt>
<trkpt lat="50.350301" lon="4.944941"><ele>211.46</ele><time>2025-05-25T15:51:46Z</time></trkpt>
<trkpt lat="50.350448" lon="4.944407"><ele>213.71</ele><time>2025-05-25T15:52:12Z</time></trkpt>
<trkpt lat="50.350552" lon="4.944135"><ele>213.84</ele><time>2025-05-25T15:52:39Z</time></trkpt>
<trkpt lat="50.350935" lon="4.943365"><ele>216.13</ele><time>2025-05-25T15:53:05Z</time></trkpt>
<trkpt lat="50.350935" lon="4.943365"><ele>216.13</ele><time>2025-05-25T15:53:05Z</time></trkpt>
<trkpt lat="50.351267" lon="4.942696"><ele>218.41</ele><time>2025-05-25T15:53:28Z</time></trkpt>
<trkpt lat="50.351501" lon="4.94229"><ele>223.02</ele><time>2025-05-25T15:53:51Z</time></trkpt>
<trkpt lat="50.351796" lon="4.941915"><ele>224.65</ele><time>2025-05-25T15:54:14Z</time></trkpt>
<trkpt lat="50.352104" lon="4.941567"><ele>228.08</ele><time>2025-05-25T15:54:37Z</time></trkpt>
<trkpt lat="50.352634" lon="4.940849"><ele>237.0</ele><time>2025-05-25T15:55:00Z</time></trkpt>
<trkpt lat="50.352836" lon="4.94051"><ele>239.79</ele><time>2025-05-25T15:55:23Z</time></trkpt>
<trkpt lat="50.353057" lon="4.940093"><ele>244.04</ele><time>2025-05-25T15:55:47Z</time></trkpt>
<trkpt lat="50.353586" lon="4.938992"><ele>251.41</ele><time>2025-05-25T15:56:10Z</time></trkpt>
<trkpt lat="50.353658" lon="4.938765"><ele>252.56</ele><time>2025-05-25T15:56:33Z</time></trkpt>
<trkpt lat="50.354354" lon="4.93771"><ele>257.73</ele><time>2025-05-25T15:56:56Z</time></trkpt>
<trkpt lat="50.354484" lon="4.937629"><ele>257.6</ele><time>2025-05-25T15:57:16Z</time></trkpt>
<trkpt lat="50.354797" lon="4.93755"><ele>258.32</ele><time>2025-05-25T15:57:36Z</time></trkpt>
<trkpt lat="50.360984" lon="4.936057"><ele>237.73</ele><time>2025-05-25T15:57:56Z</time></trkpt>
<trkpt lat="50.361207" lon="4.936124"><ele>238.3</ele><time>2025-05-25T15:58:16Z</time></trkpt>
<trkpt lat="50.362199" lon="4.938628"><ele>242.73</ele><time>2025-05-25T15:58:19Z</time></trkpt>
<trkpt lat="50.362261" lon="4.938822"><ele>244.21</ele><time>2025-05-25T15:58:23Z</time></trkpt>
<trkpt lat="50.362333" lon="4.939132"><ele>244.67</ele><time>2025-05-25T15:58:26Z</time></trkpt>
<trkpt lat="50.362372" lon="4.939385"><ele>244.0</ele><time>2025-05-25T15:58:30Z</time></trkpt>
<trkpt lat="50.362448" lon="4.94045"><ele>241.26</ele><time>2025-05-25T15:58:33Z</time></trkpt>
<trkpt lat="50.363121" lon="4.939006"><ele>252.82</ele><time>2025-05-25T15:58:37Z</time></trkpt>
<trkpt lat="50.363262" lon="4.938609"><ele>254.75</ele><time>2025-05-25T15:58:40Z</time></trkpt>
<trkpt lat="50.363387" lon="4.938047"><ele>255.17</ele><time>2025-05-25T15:58:43Z</time></trkpt>
<trkpt lat="50.363525" lon="4.936844"><ele>256.69</ele><time>2025-05-25T15:58:47Z</time></trkpt>
<trkpt lat="50.363756" lon="4.935519"><ele>256.91</ele><time>2025-05-25T15:58:50Z</time></trkpt>
<trkpt lat="50.363965" lon="4.93415"><ele>256.55</ele><time>2025-05-25T15:58:53Z</time></trkpt>
<trkpt lat="50.36403" lon="4.933862"><ele>257.11</ele><time>2025-05-25T15:58:56Z</time></trkpt>
<trkpt lat="50.364077" lon="4.933731"><ele>257.92</ele><time>2025-05-25T15:59:00Z</time></trkpt>
<trkpt lat="50.364268" lon="4.933362"><ele>259.36</ele><time>2025-05-25T15:59:03Z</time></trkpt>
<trkpt lat="50.364824" lon="4.93244"><ele>263.47</ele><time>2025-05-25T15:59:06Z</time></trkpt>
<trkpt lat="50.365163" lon="4.931933"><ele>267.17</ele><time>2025-05-25T15:59:09Z</time></trkpt>
<trkpt lat="50.365278" lon="4.931717"><ele>268.0</ele><time>2025-05-25T15:59:13Z</time></trkpt>
<trkpt lat="50.365583" lon="4.931003"><ele>269.59</ele><time>2025-05-25T15:59:16Z</time></trkpt>
<trkpt lat="50.3657" lon="4.930801"><ele>271.04</ele><time>2025-05-25T15:59:19Z</time></trkpt>
<trkpt lat="50.366004" lon="4.930402"><ele>273.99</ele><time>2025-05-25T15:59:22Z</time></trkpt>
<trkpt lat="50.366737" lon="4.929533"><ele>276.0</ele><time>2025-05-25T15:59:26Z</time></trkpt>
<trkpt lat="50.366881" lon="4.929327"><ele>275.67</ele><time>2025-05-25T15:59:29Z</time></trkpt>
<trkpt lat="50.366975" lon="4.929124"><ele>275.0</ele><time>2025-05-25T15:59:32Z</time></trkpt>
<trkpt lat="50.367042" lon="4.928831"><ele>275.07</ele><time>2025-05-25T15:59:35Z</time></trkpt>
<trkpt lat="50.367579" lon="4.925924"><ele>278.33</ele><time>2025-05-25T15:59:39Z</time></trkpt>
<trkpt lat="50.367633" lon="4.925759"><ele>277.73</ele><time>2025-05-25T15:59:42Z</time></trkpt>
<trkpt lat="50.367701" lon="4.925691"><ele>277.49</ele><time>2025-05-25T15:59:45Z</time></trkpt>
<trkpt lat="50.367754" lon="4.925677"><ele>277.44</ele><time>2025-05-25T15:59:49Z</time></trkpt>
<trkpt lat="50.368224" lon="4.925668"><ele>276.64</ele><time>2025-05-25T15:59:52Z</time></trkpt>
<trkpt lat="50.368406" lon="4.925631"><ele>275.75</ele><time>2025-05-25T15:59:55Z</time></trkpt>
<trkpt lat="50.37111" lon="4.924946"><ele>258.41</ele><time>2025-05-25T15:59:58Z</time></trkpt>
<trkpt lat="50.371487" lon="4.924868"><ele>257.83</ele><time>2025-05-25T16:00:02Z</time></trkpt>
<trkpt lat="50.372463" lon="4.924842"><ele>262.3</ele><time>2025-05-25T16:00:05Z</time></trkpt>
<trkpt lat="50.372956" lon="4.924869"><ele>265.11</ele><time>2025-05-25T16:00:08Z</time></trkpt>
<trkpt lat="50.372938" lon="4.927852"><ele>271.69</ele><time>2025-05-25T16:00:18Z</time></trkpt>
<trkpt lat="50.372944" lon="4.928501"><ele>273.0</ele><time>2025-05-25T16:00:27Z</time></trkpt>
<trkpt lat="50.372971" lon="4.929106"><ele>272.7</ele><time>2025-05-25T16:00:37Z</time></trkpt>
<trkpt lat="50.373064" lon="4.930388"><ele>272.01</ele><time>2025-05-25T16:00:47Z</time></trkpt>
<trkpt lat="50.373365" lon="4.933832"><ele>272.18</ele><time>2025-05-25T16:00:56Z</time></trkpt>
<trkpt lat="50.373365" lon="4.933832"><ele>272.18</ele><time>2025-05-25T16:00:56Z</time></trkpt>
<trkpt lat="50.373064" lon="4.930388"><ele>272.01</ele><time>2025-05-25T16:00:59Z</time></trkpt>
<trkpt lat="50.372971" lon="4.929106"><ele>272.7</ele><time>2025-05-25T16:01:02Z</time></trkpt>
<trkpt lat="50.372944" lon="4.928501"><ele>273.0</ele><time>2025-05-25T16:01:05Z</time></trkpt>
<trkpt lat="50.372938" lon="4.927852"><ele>271.69</ele><time>2025-05-25T16:01:08Z</time></trkpt>
<trkpt lat="50.372956" lon="4.924869"><ele>265.11</ele><time>2025-05-25T16:01:11Z</time></trkpt>
<trkpt lat="50.373492" lon="4.918823"><ele>268.0</ele><time>2025-05-25T16:01:14Z</time></trkpt>
<trkpt lat="50.373522" lon="4.918666"><ele>268.0</ele><time>2025-05-25T16:01:17Z</time></trkpt>
<trkpt lat="50.373574" lon="4.918497"><ele>268.0</ele><time>2025-05-25T16:01:20Z</time></trkpt>
<trkpt lat="50.37368" lon="4.918311"><ele>267.92</ele><time>2025-05-25T16:01:23Z</time></trkpt>
<trkpt lat="50.374103" lon="4.917689"><ele>265.68</ele><time>2025-05-25T16:01:26Z</time></trkpt>
<trkpt lat="50.374248" lon="4.917421"><ele>265.01</ele><time>2025-05-25T16:01:29Z</time></trkpt>
<trkpt lat="50.37437" lon="4.917136"><ele>265.04</ele><time>2025-05-25T16:01:32Z</time></trkpt>
<trkpt lat="50.374853" lon="4.915774"><ele>263.79</ele><time>2025-05-25T16:01:35Z</time></trkpt>
<trkpt lat="50.374946" lon="4.915612"><ele>263.2</ele><time>2025-05-25T16:01:38Z</time></trkpt>
<trkpt lat="50.37504" lon="4.915501"><ele>262.69</ele><time>2025-05-25T16:01:41Z</time></trkpt>
<trkpt lat="50.375231" lon="4.915349"><ele>262.04</ele><time>2025-05-25T16:01:44Z</time></trkpt>
<trkpt lat="50.375336" lon="4.915222"><ele>262.0</ele><time>2025-05-25T16:01:47Z</time></trkpt>
<trkpt lat="50.375381" lon="4.915031"><ele>262.0</ele><time>2025-05-25T16:01:50Z</time></trkpt>
<trkpt lat="50.37541" lon="4.914613"><ele>262.52</ele><time>2025-05-25T16:01:53Z</time></trkpt>
<trkpt lat="50.375486" lon="4.914182"><ele>262.96</ele><time>2025-05-25T16:01:56Z</time></trkpt>
<trkpt lat="50.375559" lon="4.913885"><ele>263.0</ele><time>2025-05-25T16:02:00Z</time></trkpt>
<trkpt lat="50.375779" lon="4.913263"><ele>263.2</ele><time>2025-05-25T16:02:03Z</time></trkpt>
<trkpt lat="50.375874" lon="4.912904"><ele>264.08</ele><time>2025-05-25T16:02:06Z</time></trkpt>
<trkpt lat="50.375925" lon="4.912641"><ele>264.82</ele><time>2025-05-25T16:02:09Z</time></trkpt>
<trkpt lat="50.376025" lon="4.911896"><ele>267.0</ele><time>2025-05-25T16:02:12Z</time></trkpt>
<trkpt lat="50.376029" lon="4.911663"><ele>266.98</ele><time>2025-05-25T16:02:15Z</time></trkpt>
<trkpt lat="50.376055" lon="4.911625"><ele>266.85</ele><time>2025-05-25T16:02:18Z</time></trkpt>
<trkpt lat="50.376109" lon="4.911631"><ele>266.87</ele><time>2025-05-25T16:02:21Z</time></trkpt>
<trkpt lat="50.376178" lon="4.911629"><ele>266.62</ele><time>2025-05-25T16:02:24Z</time></trkpt>
<trkpt lat="50.376158" lon="4.911234"><ele>265.83</ele><time>2025-05-25T16:02:29Z</time></trkpt>
<trkpt lat="50.376485" lon="4.908517"><ele>260.0</ele><time>2025-05-25T16:02:35Z</time></trkpt>
<trkpt lat="50.376555" lon="4.907223"><ele>260.19</ele><time>2025-05-25T16:02:40Z</time></trkpt>
<trkpt lat="50.376605" lon="4.906664"><ele>262.32</ele><time>2025-05-25T16:02:45Z</time></trkpt>
<trkpt lat="50.376724" lon="4.905786"><ele>261.21</ele><time>2025-05-25T16:02:51Z</time></trkpt>
<trkpt lat="50.377231" lon="4.903193"><ele>259.58</ele><time>2025-05-25T16:02:56Z</time></trkpt>
<trkpt lat="50.377497" lon="4.902233"><ele>258.02</ele><time>2025-05-25T16:03:02Z</time></trkpt>
<trkpt lat="50.377526" lon="4.902084"><ele>257.14</ele><time>2025-05-25T16:03:07Z</time></trkpt>
<trkpt lat="50.377911" lon="4.900804"><ele>254.85</ele><time>2025-05-25T16:03:13Z</time></trkpt>
<trkpt lat="50.378352" lon="4.89966"><ele>251.98</ele><time>2025-05-25T16:03:18Z</time></trkpt>
<trkpt lat="50.378389" lon="4.899379"><ele>251.37</ele><time>2025-05-25T16:03:24Z</time></trkpt>
<trkpt lat="50.37816" lon="4.898204"><ele>244.29</ele><time>2025-05-25T16:03:29Z</time></trkpt>
<trkpt lat="50.378094" lon="4.897593"><ele>242.56</ele><time>2025-05-25T16:03:34Z</time></trkpt>
<trkpt lat="50.378116" lon="4.897256"><ele>242.43</ele><time>2025-05-25T16:03:40Z</time></trkpt>
<trkpt lat="50.378216" lon="4.896441"><ele>237.27</ele><time>2025-05-25T16:03:45Z</time></trkpt>
<trkpt lat="50.378304" lon="4.896293"><ele>238.09</ele><time>2025-05-25T16:03:51Z</time></trkpt>
<trkpt lat="50.378347" lon="4.896258"><ele>239.0</ele><time>2025-05-25T16:03:57Z</time></trkpt>
<trkpt lat="50.378416" lon="4.896256"><ele>241.33</ele><time>2025-05-25T16:04:03Z</time></trkpt>
<trkpt lat="50.378679" lon="4.896336"><ele>248.49</ele><time>2025-05-25T16:04:09Z</time></trkpt>
<trkpt lat="50.379194" lon="4.896942"><ele>252.2</ele><time>2025-05-25T16:04:15Z</time></trkpt>
<trkpt lat="50.379345" lon="4.897096"><ele>253.83</ele><time>2025-05-25T16:04:21Z</time></trkpt>
<trkpt lat="50.379384" lon="4.897006"><ele>253.78</ele><time>2025-05-25T16:04:22Z</time></trkpt>
<trkpt lat="50.379756" lon="4.897161"><ele>255.54</ele><time>2025-05-25T16:04:27Z</time></trkpt>
<trkpt lat="50.380006" lon="4.897177"><ele>253.84</ele><time>2025-05-25T16:04:31Z</time></trkpt>
<trkpt lat="50.380082" lon="4.897159"><ele>253.77</ele><time>2025-05-25T16:04:35Z</time></trkpt>
<trkpt lat="50.380345" lon="4.897028"><ele>253.23</ele><time>2025-05-25T16:04:40Z</time></trkpt>
<trkpt lat="50.38067" lon="4.896784"><ele>251.77</ele><time>2025-05-25T16:04:44Z</time></trkpt>
<trkpt lat="50.380861" lon="4.896549"><ele>249.18</ele><time>2025-05-25T16:04:48Z</time></trkpt>
<trkpt lat="50.381229" lon="4.896164"><ele>243.6</ele><time>2025-05-25T16:04:53Z</time></trkpt>
<trkpt lat="50.381344" lon="4.896069"><ele>243.19</ele><time>2025-05-25T16:04:57Z</time></trkpt>
<trkpt lat="50.381463" lon="4.895929"><ele>242.46</ele><time>2025-05-25T16:05:01Z</time></trkpt>
<trkpt lat="50.381682" lon="4.895593"><ele>240.84</ele><time>2025-05-25T16:05:06Z</time></trkpt>
<trkpt lat="50.381793" lon="4.895374"><ele>237.67</ele><time>2025-05-25T16:05:10Z</time></trkpt>
<trkpt lat="50.381974" lon="4.894862"><ele>230.71</ele><time>2025-05-25T16:05:14Z</time></trkpt>
<trkpt lat="50.382047" lon="4.894708"><ele>226.9</ele><time>2025-05-25T16:05:18Z</time></trkpt>
<trkpt lat="50.382141" lon="4.894606"><ele>223.07</ele><time>2025-05-25T16:05:23Z</time></trkpt>
<trkpt lat="50.382867" lon="4.89448"><ele>207.42</ele><time>2025-05-25T16:05:27Z</time></trkpt>
<trkpt lat="50.383393" lon="4.894444"><ele>207.86</ele><time>2025-05-25T16:05:31Z</time></trkpt>
<trkpt lat="50.383469" lon="4.894428"><ele>208.96</ele><time>2025-05-25T16:05:36Z</time></trkpt>
<trkpt lat="50.383668" lon="4.894319"><ele>211.09</ele><time>2025-05-25T16:05:40Z</time></trkpt>
<trkpt lat="50.383913" lon="4.894081"><ele>209.83</ele><time>2025-05-25T16:05:44Z</time></trkpt>
<trkpt lat="50.384034" lon="4.893937"><ele>207.79</ele><time>2025-05-25T16:05:49Z</time></trkpt>
<trkpt lat="50.384169" lon="4.893723"><ele>208.16</ele><time>2025-05-25T16:05:53Z</time></trkpt>
<trkpt lat="50.384404" lon="4.893436"><ele>206.31</ele><time>2025-05-25T16:05:57Z</time></trkpt>
<trkpt lat="50.384616" lon="4.893274"><ele>204.23</ele><time>2025-05-25T16:06:02Z</time></trkpt>
<trkpt lat="50.384958" lon="4.893188"><ele>199.74</ele><time>2025-05-25T16:06:06Z</time></trkpt>
<trkpt lat="50.385249" lon="4.893159"><ele>193.65</ele><time>2025-05-25T16:06:10Z</time></trkpt>
<trkpt lat="50.385467" lon="4.893156"><ele>189.4</ele><time>2025-05-25T16:06:15Z</time></trkpt>
<trkpt lat="50.385928" lon="4.893201"><ele>183.66</ele><time>2025-05-25T16:06:19Z</time></trkpt>
<trkpt lat="50.386448" lon="4.893189"><ele>179.62</ele><time>2025-05-25T16:06:23Z</time></trkpt>
<trkpt lat="50.386961" lon="4.893239"><ele>175.18</ele><time>2025-05-25T16:06:28Z</time></trkpt>
<trkpt lat="50.387129" lon="4.893231"><ele>173.62</ele><time>2025-05-25T16:06:32Z</time></trkpt>
<trkpt lat="50.387531" lon="4.893076"><ele>171.32</ele><time>2025-05-25T16:06:36Z</time></trkpt>
<trkpt lat="50.387791" lon="4.892874"><ele>166.83</ele><time>2025-05-25T16:06:40Z</time></trkpt>
<trkpt lat="50.388318" lon="4.892365"><ele>157.95</ele><time>2025-05-25T16:06:45Z</time></trkpt>
<trkpt lat="50.388483" lon="4.892243"><ele>152.3</ele><time>2025-05-25T16:06:49Z</time></trkpt>
<trkpt lat="50.389205" lon="4.891846"><ele>133.8</ele><time>2025-05-25T16:06:53Z</time></trkpt>
<trkpt lat="50.389346" lon="4.891642"><ele>129.92</ele><time>2025-05-25T16:06:58Z</time></trkpt>
<trkpt lat="50.389381" lon="4.891406"><ele>128.74</ele><time>2025-05-25T16:07:02Z</time></trkpt>
<trkpt lat="50.389322" lon="4.890735"><ele>128.95</ele><time>2025-05-25T16:07:06Z</time></trkpt>
<trkpt lat="50.38932" lon="4.89038"><ele>126.82</ele><time>2025-05-25T16:07:11Z</time></trkpt>
<trkpt lat="50.389382" lon="4.890025"><ele>122.34</ele><time>2025-05-25T16:07:15Z</time></trkpt>
<trkpt lat="50.389539" lon="4.8893"><ele>110.73</ele><time>2025-05-25T16:07:19Z</time></trkpt>
<trkpt lat="50.389663" lon="4.887827"><ele>97.46</ele><time>2025-05-25T16:07:23Z</time></trkpt>
<trkpt lat="50.389762" lon="4.887054"><ele>101.25</ele><time>2025-05-25T16:07:26Z</time></trkpt>
<trkpt lat="50.390034" lon="4.885482"><ele>100.23</ele><time>2025-05-25T16:07:30Z</time></trkpt>
<trkpt lat="50.390107" lon="4.884317"><ele>102.37</ele><time>2025-05-25T16:07:34Z</time></trkpt>
<trkpt lat="50.390309" lon="4.882221"><ele>88.44</ele><time>2025-05-25T16:07:37Z</time></trkpt>
<trkpt lat="50.390349" lon="4.882038"><ele>87.36</ele><time>2025-05-25T16:07:41Z</time></trkpt>
<trkpt lat="50.390402" lon="4.881903"><ele>86.61</ele><time>2025-05-25T16:07:44Z</time></trkpt>
<trkpt lat="50.390488" lon="4.88175"><ele>85.76</ele><time>2025-05-25T16:07:48Z</time></trkpt>
<trkpt lat="50.390406" lon="4.881712"><ele>85.46</ele><time>2025-05-25T16:07:48Z</time></trkpt>
<trkpt lat="50.390406" lon="4.881712"><ele>85.46</ele><time>2025-05-25T16:07:48Z</time></trkpt>
<trkpt lat="50.390766" lon="4.881867"><ele>88.79</ele><time>2025-05-25T16:07:55Z</time></trkpt>
<trkpt lat="50.391143" lon="4.881964"><ele>93.45</ele><time>2025-05-25T16:08:01Z</time></trkpt>
<trkpt lat="50.391907" lon="4.882011"><ele>95.78</ele><time>2025-05-25T16:08:07Z</time></trkpt>
<trkpt lat="50.392069" lon="4.882033"><ele>97.14</ele><time>2025-05-25T16:08:14Z</time></trkpt>
<trkpt lat="50.396581" lon="4.883072"><ele>88.58</ele><time>2025-05-25T16:08:20Z</time></trkpt>
<trkpt lat="50.39677" lon="4.883305"><ele>89.74</ele><time>2025-05-25T16:08:22Z</time></trkpt>
<trkpt lat="50.397255" lon="4.883642"><ele>93.44</ele><time>2025-05-25T16:08:24Z</time></trkpt>
<trkpt lat="50.397736" lon="4.883928"><ele>99.56</ele><time>2025-05-25T16:08:26Z</time></trkpt>
<trkpt lat="50.397804" lon="4.884024"><ele>101.88</ele><time>2025-05-25T16:08:28Z</time></trkpt>
<trkpt lat="50.397947" lon="4.884096"><ele>103.03</ele><time>2025-05-25T16:08:30Z</time></trkpt>
<trkpt lat="50.398022" lon="4.884102"><ele>102.93</ele><time>2025-05-25T16:08:32Z</time></trkpt>
<trkpt lat="50.3981" lon="4.884077"><ele>101.79</ele><time>2025-05-25T16:08:33Z</time></trkpt>
<trkpt lat="50.398165" lon="4.884012"><ele>99.86</ele><time>2025-05-25T16:08:35Z</time></trkpt>
<trkpt lat="50.398217" lon="4.883917"><ele>97.7</ele><time>2025-05-25T16:08:37Z</time></trkpt>
<trkpt lat="50.398237" lon="4.883787"><ele>95.45</ele><time>2025-05-25T16:08:39Z</time></trkpt>
<trkpt lat="50.398228" lon="4.883618"><ele>92.87</ele><time>2025-05-25T16:08:41Z</time></trkpt>
<trkpt lat="50.398122" lon="4.882875"><ele>90.26</ele><time>2025-05-25T16:08:43Z</time></trkpt>
<trkpt lat="50.398003" lon="4.882035"><ele>87.32</ele><time>2025-05-25T16:08:45Z</time></trkpt>
<trkpt lat="50.397798" lon="4.880821"><ele>83.04</ele><time>2025-05-25T16:08:47Z</time></trkpt>
<trkpt lat="50.397781" lon="4.880142"><ele>85.47</ele><time>2025-05-25T16:08:52Z</time></trkpt>
<trkpt lat="50.397792" lon="4.879857"><ele>87.44</ele><time>2025-05-25T16:08:57Z</time></trkpt>
<trkpt lat="50.397877" lon="4.879472"><ele>90.41</ele><time>2025-05-25T16:09:02Z</time></trkpt>
<trkpt lat="50.397946" lon="4.879299"><ele>91.23</ele><time>2025-05-25T16:09:08Z</time></trkpt>
<trkpt lat="50.39811" lon="4.879037"><ele>92.56</ele><time>2025-05-25T16:09:13Z</time></trkpt>
<trkpt lat="50.398285" lon="4.878882"><ele>93.92</ele><time>2025-05-25T16:09:18Z</time></trkpt>
<trkpt lat="50.398921" lon="4.878603"><ele>93.14</ele><time>2025-05-25T16:09:24Z</time></trkpt>
<trkpt lat="50.399096" lon="4.878573"><ele>93.89</ele><time>2025-05-25T16:09:29Z</time></trkpt>
<trkpt lat="50.399467" lon="4.878561"><ele>95.06</ele><time>2025-05-25T16:09:34Z</time></trkpt>
<trkpt lat="50.401" lon="4.87899"><ele>89.34</ele><time>2025-05-25T16:09:39Z</time></trkpt>
<trkpt lat="50.40362" lon="4.87995"><ele>84.21</ele><time>2025-05-25T16:09:45Z</time></trkpt>
<trkpt lat="50.403872" lon="4.880073"><ele>84.96</ele><time>2025-05-25T16:09:50Z</time></trkpt>
<trkpt lat="50.404125" lon="4.880142"><ele>85.85</ele><time>2025-05-25T16:09:55Z</time></trkpt>
<trkpt lat="50.40497" lon="4.880142"><ele>84.6</ele><time>2025-05-25T16:10:00Z</time></trkpt>
<trkpt lat="50.406475" lon="4.880087"><ele>83.31</ele><time>2025-05-25T16:10:06Z</time></trkpt>
<trkpt lat="50.407565" lon="4.880097"><ele>84.76</ele><time>2025-05-25T16:10:11Z</time></trkpt>
<trkpt lat="50.407967" lon="4.88018"><ele>83.07</ele><time>2025-05-25T16:10:16Z</time></trkpt>
<trkpt lat="50.408421" lon="4.880331"><ele>82.38</ele><time>2025-05-25T16:10:22Z</time></trkpt>
<trkpt lat="50.409412" lon="4.880577"><ele>84.88</ele><time>2025-05-25T16:10:27Z</time></trkpt>
<trkpt lat="50.409852" lon="4.880605"><ele>84.07</ele><time>2025-05-25T16:10:32Z</time></trkpt>
<trkpt lat="50.41025" lon="4.88076"><ele>83.0</ele><time>2025-05-25T16:10:37Z</time></trkpt>
<trkpt lat="50.410361" lon="4.880771"><ele>83.0</ele><time>2025-05-25T16:10:40Z</time></trkpt>
<trkpt lat="50.411025" lon="4.880699"><ele>84.38</ele><time>2025-05-25T16:10:43Z</time></trkpt>
<trkpt lat="50.411636" lon="4.880675"><ele>86.0</ele><time>2025-05-25T16:10:46Z</time></trkpt>
<trkpt lat="50.411676" lon="4.880636"><ele>86.0</ele><time>2025-05-25T16:10:50Z</time></trkpt>
<trkpt lat="50.411697" lon="4.880559"><ele>85.89</ele><time>2025-05-25T16:10:53Z</time></trkpt>
<trkpt lat="50.411697" lon="4.880559"><ele>85.89</ele><time>2025-05-25T16:10:53Z</time></trkpt>
<trkpt lat="50.411715" lon="4.880495"><ele>85.78</ele><time>2025-05-25T16:10:58Z</time></trkpt>
<trkpt lat="50.411706" lon="4.880395"><ele>85.42</ele><time>2025-05-25T16:11:04Z</time></trkpt>
<trkpt lat="50.411675" lon="4.880322"><ele>85.16</ele><time>2025-05-25T16:11:10Z</time></trkpt>
<trkpt lat="50.411621" lon="4.880266"><ele>85.0</ele><time>2025-05-25T16:11:16Z</time></trkpt>
<trkpt lat="50.41114" lon="4.88042"><ele>85.05</ele><time>2025-05-25T16:11:22Z</time></trkpt>
<trkpt lat="50.410276" lon="4.880509"><ele>83.17</ele><time>2025-05-25T16:11:28Z</time></trkpt>
<trkpt lat="50.409852" lon="4.880605"><ele>84.07</ele><time>2025-05-25T16:11:34Z</time></trkpt>
<trkpt lat="50.409412" lon="4.880577"><ele>84.88</ele><time>2025-05-25T16:11:40Z</time></trkpt>
<trkpt lat="50.408421" lon="4.880331"><ele>82.38</ele><time>2025-05-25T16:11:46Z</time></trkpt>
<trkpt lat="50.407967" lon="4.88018"><ele>83.07</ele><time>2025-05-25T16:11:52Z</time></trkpt>
<trkpt lat="50.407565" lon="4.880097"><ele>84.76</ele><time>2025-05-25T16:11:58Z</time></trkpt>
<trkpt lat="50.406475" lon="4.880087"><ele>83.31</ele><time>2025-05-25T16:12:03Z</time></trkpt>
<trkpt lat="50.40497" lon="4.880142"><ele>84.6</ele><time>2025-05-25T16:12:09Z</time></trkpt>
<trkpt lat="50.404125" lon="4.880142"><ele>85.85</ele><time>2025-05-25T16:12:15Z</time></trkpt>
<trkpt lat="50.403872" lon="4.880073"><ele>84.96</ele><time>2025-05-25T16:12:21Z</time></trkpt>
<trkpt lat="50.40362" lon="4.87995"><ele>84.21</ele><time>2025-05-25T16:12:27Z</time></trkpt>
<trkpt lat="50.401" lon="4.87899"><ele>89.34</ele><time>2025-05-25T16:12:33Z</time></trkpt>
<trkpt lat="50.399467" lon="4.878561"><ele>95.06</ele><time>2025-05-25T16:12:39Z</time></trkpt>
<trkpt lat="50.399343" lon="4.878484"><ele>96.26</ele><time>2025-05-25T16:12:45Z</time></trkpt>
<trkpt lat="50.399048" lon="4.878406"><ele>97.53</ele><time>2025-05-25T16:12:50Z</time></trkpt>
<trkpt lat="50.398818" lon="4.878376"><ele>97.74</ele><time>2025-05-25T16:12:54Z</time></trkpt>
<trkpt lat="50.394677" lon="4.878366"><ele>103.13</ele><time>2025-05-25T16:12:59Z</time></trkpt>
<trkpt lat="50.394322" lon="4.878326"><ele>101.51</ele><time>2025-05-25T16:13:04Z</time></trkpt>
<trkpt lat="50.393226" lon="4.878084"><ele>102.44</ele><time>2025-05-25T16:13:09Z</time></trkpt>
<trkpt lat="50.392945" lon="4.878077"><ele>101.08</ele><time>2025-05-25T16:13:14Z</time></trkpt>
<trkpt lat="50.391547" lon="4.877796"><ele>96.91</ele><time>2025-05-25T16:13:18Z</time></trkpt>
<trkpt lat="50.390841" lon="4.877737"><ele>94.28</ele><time>2025-05-25T16:13:23Z</time></trkpt>
<trkpt lat="50.39021" lon="4.877746"><ele>90.81</ele><time>2025-05-25T16:13:28Z</time></trkpt>
<trkpt lat="50.3871" lon="4.87784"><ele>90.42</ele><time>2025-05-25T16:13:33Z</time></trkpt>
<trkpt lat="50.386877" lon="4.877787"><ele>89.22</ele><time>2025-05-25T16:13:38Z</time></trkpt>
<trkpt lat="50.386299" lon="4.877535"><ele>88.08</ele><time>2025-05-25T16:13:43Z</time></trkpt>
<trkpt lat="50.385679" lon="4.877181"><ele>87.05</ele><time>2025-05-25T16:13:47Z</time></trkpt>
<trkpt lat="50.385458" lon="4.876978"><ele>87.86</ele><time>2025-05-25T16:13:52Z</time></trkpt>
<trkpt lat="50.385175" lon="4.876567"><ele>90.35</ele><time>2025-05-25T16:13:57Z</time></trkpt>
<trkpt lat="50.384981" lon="4.876104"><ele>92.91</ele><time>2025-05-25T16:14:02Z</time></trkpt>
<trkpt lat="50.384172" lon="4.87336"><ele>103.55</ele><time>2025-05-25T16:14:07Z</time></trkpt>
<trkpt lat="50.384068" lon="4.872906"><ele>105.34</ele><time>2025-05-25T16:14:11Z</time></trkpt>
<trkpt lat="50.383789" lon="4.871547"><ele>104.82</ele><time>2025-05-25T16:14:16Z</time></trkpt>
<trkpt lat="50.383549" lon="4.870327"><ele>98.54</ele><time>2025-05-25T16:14:21Z</time></trkpt>
<trkpt lat="50.383516" lon="4.870102"><ele>94.47</ele><time>2025-05-25T16:14:26Z</time></trkpt>
<trkpt lat="50.383507" lon="4.868975"><ele>108.21</ele><time>2025-05-25T16:14:31Z</time></trkpt>
<trkpt lat="50.383463" lon="4.868657"><ele>106.31</ele><time>2025-05-25T16:14:35Z</time></trkpt>
<trkpt lat="50.383354" lon="4.868174"><ele>98.35</ele><time>2025-05-25T16:14:40Z</time></trkpt>
<trkpt lat="50.383164" lon="4.867714"><ele>89.8</ele><time>2025-05-25T16:14:45Z</time></trkpt>
<trkpt lat="50.383129" lon="4.867622"><ele>89.7</ele><time>2025-05-25T16:14:50Z</time></trkpt>
<trkpt lat="50.38295" lon="4.867347"><ele>89.59</ele><time>2025-05-25T16:14:55Z</time></trkpt>
<trkpt lat="50.382719" lon="4.867137"><ele>90.27</ele><time>2025-05-25T16:15:00Z</time></trkpt>
<trkpt lat="50.382233" lon="4.866829"><ele>86.62</ele><time>2025-05-25T16:15:04Z</time></trkpt>
<trkpt lat="50.381728" lon="4.866565"><ele>85.81</ele><time>2025-05-25T16:15:09Z</time></trkpt>
<trkpt lat="50.381946" lon="4.865839"><ele>89.0</ele><time>2025-05-25T16:15:17Z</time></trkpt>
<trkpt lat="50.382224" lon="4.863114"><ele>90.79</ele><time>2025-05-25T16:15:25Z</time></trkpt>
<trkpt lat="50.382319" lon="4.862666"><ele>90.86</ele><time>2025-05-25T16:15:32Z</time></trkpt>
<trkpt lat="50.383041" lon="4.860601"><ele>95.85</ele><time>2025-05-25T16:15:40Z</time></trkpt>
<trkpt lat="50.383297" lon="4.859945"><ele>97.07</ele><time>2025-05-25T16:15:48Z</time></trkpt>
<trkpt lat="50.384282" lon="4.858693"><ele>98.13</ele><time>2025-05-25T16:15:55Z</time></trkpt>
<trkpt lat="50.384353" lon="4.858571"><ele>98.29</ele><time>2025-05-25T16:16:03Z</time></trkpt>
<trkpt lat="50.384392" lon="4.858454"><ele>98.52</ele><time>2025-05-25T16:16:11Z</time></trkpt>
<trkpt lat="50.384468" lon="4.858475"><ele>99.25</ele><time>2025-05-25T16:16:15Z</time></trkpt>
<trkpt lat="50.384594" lon="4.858462"><ele>100.57</ele><time>2025-05-25T16:16:19Z</time></trkpt>
<trkpt lat="50.384854" lon="4.858371"><ele>103.64</ele><time>2025-05-25T16:16:22Z</time></trkpt>
<trkpt lat="50.385452" lon="4.858221"><ele>113.54</ele><time>2025-05-25T16:16:26Z</time></trkpt>
<trkpt lat="50.386035" lon="4.85795"><ele>121.9</ele><time>2025-05-25T16:16:30Z</time></trkpt>
<trkpt lat="50.386194" lon="4.857827"><ele>122.41</ele><time>2025-05-25T16:16:34Z</time></trkpt>
<trkpt lat="50.386409" lon="4.857582"><ele>126.71</ele><time>2025-05-25T16:16:38Z</time></trkpt>
<trkpt lat="50.386739" lon="4.856873"><ele>139.33</ele><time>2025-05-25T16:16:42Z</time></trkpt>
<trkpt lat="50.38739" lon="4.854818"><ele>145.25</ele><time>2025-05-25T16:16:46Z</time></trkpt>
<trkpt lat="50.387544" lon="4.854378"><ele>145.04</ele><time>2025-05-25T16:16:49Z</time></trkpt>
<trkpt lat="50.388223" lon="4.853212"><ele>153.55</ele><time>2025-05-25T16:16:53Z</time></trkpt>
<trkpt lat="50.388409" lon="4.852647"><ele>156.75</ele><time>2025-05-25T16:16:57Z</time></trkpt>
<trkpt lat="50.389187" lon="4.85011"><ele>160.49</ele><time>2025-05-25T16:17:01Z</time></trkpt>
<trkpt lat="50.389294" lon="4.849668"><ele>164.66</ele><time>2025-05-25T16:17:05Z</time></trkpt>
<trkpt lat="50.389329" lon="4.849263"><ele>167.65</ele><time>2025-05-25T16:17:09Z</time></trkpt>
<trkpt lat="50.389335" lon="4.84877"><ele>170.45</ele><time>2025-05-25T16:17:13Z</time></trkpt>
<trkpt lat="50.389316" lon="4.848643"><ele>171.33</ele><time>2025-05-25T16:17:16Z</time></trkpt>
<trkpt lat="50.389269" lon="4.848555"><ele>171.64</ele><time>2025-05-25T16:17:20Z</time></trkpt>
<trkpt lat="50.389228" lon="4.84852"><ele>171.57</ele><time>2025-05-25T16:17:24Z</time></trkpt>
<trkpt lat="50.38913" lon="4.848504"><ele>171.1</ele><time>2025-05-25T16:17:28Z</time></trkpt>
<trkpt lat="50.389066" lon="4.848554"><ele>170.54</ele><time>2025-05-25T16:17:32Z</time></trkpt>
<trkpt lat="50.389025" lon="4.84864"><ele>169.69</ele><time>2025-05-25T16:17:36Z</time></trkpt>
<trkpt lat="50.389002" lon="4.84877"><ele>168.29</ele><time>2025-05-25T16:17:40Z</time></trkpt>
<trkpt lat="50.389035" lon="4.849214"><ele>165.74</ele><time>2025-05-25T16:17:44Z</time></trkpt>
<trkpt lat="50.38898" lon="4.849726"><ele>164.32</ele><time>2025-05-25T16:17:47Z</time></trkpt>
<trkpt lat="50.388908" lon="4.849893"><ele>164.21</ele><time>2025-05-25T16:17:51Z</time></trkpt>
<trkpt lat="50.388844" lon="4.849929"><ele>165.64</ele><time>2025-05-25T16:17:55Z</time></trkpt>
<trkpt lat="50.388773" lon="4.849933"><ele>167.8</ele><time>2025-05-25T16:17:59Z</time></trkpt>
<trkpt lat="50.388719" lon="4.849881"><ele>169.41</ele><time>2025-05-25T16:18:03Z</time></trkpt>
<trkpt lat="50.388688" lon="4.849789"><ele>170.16</ele><time>2025-05-25T16:18:07Z</time></trkpt>
<trkpt lat="50.388699" lon="4.849615"><ele>169.53</ele><time>2025-05-25T16:18:11Z</time></trkpt>
<trkpt lat="50.388833" lon="4.849321"><ele>166.47</ele><time>2025-05-25T16:18:14Z</time></trkpt>
<trkpt lat="50.388861" lon="4.84922"><ele>166.24</ele><time>2025-05-25T16:18:18Z</time></trkpt>
<trkpt lat="50.388867" lon="4.849101"><ele>166.53</ele><time>2025-05-25T16:18:22Z</time></trkpt>
<trkpt lat="50.38886" lon="4.848966"><ele>167.07</ele><time>2025-05-25T16:18:26Z</time></trkpt>
<trkpt lat="50.388643" lon="4.848149"><ele>174.21</ele><time>2025-05-25T16:18:30Z</time></trkpt>
<trkpt lat="50.388607" lon="4.847884"><ele>176.27</ele><time>2025-05-25T16:18:34Z</time></trkpt>
<trkpt lat="50.388601" lon="4.847635"><ele>177.6</ele><time>2025-05-25T16:18:38Z</time></trkpt>
<trkpt lat="50.388692" lon="4.846696"><ele>181.97</ele><time>2025-05-25T16:18:41Z</time></trkpt>
<trkpt lat="50.388758" lon="4.846452"><ele>182.91</ele><time>2025-05-25T16:18:45Z</time></trkpt>
<trkpt lat="50.388869" lon="4.846296"><ele>181.41</ele><time>2025-05-25T16:18:49Z</time></trkpt>
<trkpt lat="50.38906" lon="4.846159"><ele>179.15</ele><time>2025-05-25T16:18:53Z</time></trkpt>
<trkpt lat="50.389437" lon="4.845988"><ele>176.93</ele><time>2025-05-25T16:18:57Z</time></trkpt>
<trkpt lat="50.389815" lon="4.845782"><ele>178.88</ele><time>2025-05-25T16:19:01Z</time></trkpt>
<trkpt lat="50.389925" lon="4.84563"><ele>179.12</ele><time>2025-05-25T16:19:05Z</time></trkpt>
<trkpt lat="50.390041" lon="4.845406"><ele>179.89</ele><time>2025-05-25T16:19:09Z</time></trkpt>
<trkpt lat="50.390161" lon="4.844867"><ele>180.0</ele><time>2025-05-25T16:19:12Z</time></trkpt>
<trkpt lat="50.390279" lon="4.844104"><ele>181.23</ele><time>2025-05-25T16:19:16Z</time></trkpt>
<trkpt lat="50.390454" lon="4.843553"><ele>182.63</ele><time>2025-05-25T16:19:20Z</time></trkpt>
<trkpt lat="50.390895" lon="4.842606"><ele>185.53</ele><time>2025-05-25T16:19:24Z</time></trkpt>
<trkpt lat="50.391385" lon="4.841554"><ele>188.8</ele><time>2025-05-25T16:19:28Z</time></trkpt>
<trkpt lat="50.391921" lon="4.840169"><ele>191.37</ele><time>2025-05-25T16:19:32Z</time></trkpt>
<trkpt lat="50.392269" lon="4.839085"><ele>198.54</ele><time>2025-05-25T16:19:36Z</time></trkpt>
<trkpt lat="50.393068" lon="4.836469"><ele>199.67</ele><time>2025-05-25T16:19:39Z</time></trkpt>
<trkpt lat="50.393951" lon="4.83392"><ele>207.66</ele><time>2025-05-25T16:19:43Z</time></trkpt>
<trkpt lat="50.394526" lon="4.831828"><ele>202.83</ele><time>2025-05-25T16:19:47Z</time></trkpt>
<trkpt lat="50.394977" lon="4.829736"><ele>208.03</ele><time>2025-05-25T16:19:51Z</time></trkpt>
<trkpt lat="50.395731" lon="4.826734"><ele>221.76</ele><time>2025-05-25T16:19:55Z</time></trkpt>
<trkpt lat="50.395878" lon="4.82646"><ele>223.37</ele><time>2025-05-25T16:19:59Z</time></trkpt>
<trkpt lat="50.395992" lon="4.826314"><ele>223.54</ele><time>2025-05-25T16:20:03Z</time></trkpt>
<trkpt lat="50.396083" lon="4.826261"><ele>223.15</ele><time>2025-05-25T16:20:06Z</time></trkpt>
<trkpt lat="50.396757" lon="4.826036"><ele>220.86</ele><time>2025-05-25T16:20:10Z</time></trkpt>
<trkpt lat="50.39679" lon="4.826123"><ele>220.56</ele><time>2025-05-25T16:20:20Z</time></trkpt>
<trkpt lat="50.396861" lon="4.82614"><ele>220.3</ele><time>2025-05-25T16:20:29Z</time></trkpt>
<trkpt lat="50.396872" lon="4.826244"><ele>220.26</ele><time>2025-05-25T16:20:38Z</time></trkpt>
<trkpt lat="50.397147" lon="4.827111"><ele>220.14</ele><time>2025-05-25T16:20:48Z</time></trkpt>
<trkpt lat="50.398068" lon="4.829653"><ele>232.0</ele><time>2025-05-25T16:20:57Z</time></trkpt>
<trkpt lat="50.398189" lon="4.829868"><ele>232.0</ele><time>2025-05-25T16:21:07Z</time></trkpt>
<trkpt lat="50.400938" lon="4.833364"><ele>234.0</ele><time>2025-05-25T16:21:16Z</time></trkpt>
<trkpt lat="50.401016" lon="4.833297"><ele>233.87</ele><time>2025-05-25T16:21:38Z</time></trkpt>
<trkpt lat="50.402093" lon="4.831882"><ele>231.12</ele><time>2025-05-25T16:21:59Z</time></trkpt>
<trkpt lat="50.402384" lon="4.83155"><ele>231.58</ele><time>2025-05-25T16:22:21Z</time></trkpt>
<trkpt lat="50.402548" lon="4.831413"><ele>231.26</ele><time>2025-05-25T16:22:42Z</time></trkpt>
<trkpt lat="50.402866" lon="4.831224"><ele>232.63</ele><time>2025-05-25T16:23:04Z</time></trkpt>
<trkpt lat="50.405746" lon="4.829721"><ele>239.69</ele><time>2025-05-25T16:23:26Z</time></trkpt>
<trkpt lat="50.405744" lon="4.829717"><ele>239.0</ele><time>2025-05-25T16:23:26Z</time></trkpt>
<trkpt lat="50.405744" lon="4.829717"><ele>239.0</ele><time>2025-05-25T16:23:26Z</time></trkpt>
<trkpt lat="50.405746" lon="4.829721"><ele>239.69</ele><time>2025-05-25T16:23:26Z</time></trkpt>
<trkpt lat="50.405826" lon="4.829767"><ele>240.13</ele><time>2025-05-25T16:23:35Z</time></trkpt>
<trkpt lat="50.406504" lon="4.829566"><ele>241.0</ele><time>2025-05-25T16:23:44Z</time></trkpt>
<trkpt lat="50.406809" lon="4.829517"><ele>241.51</ele><time>2025-05-25T16:23:53Z</time></trkpt>
<trkpt lat="50.407987" lon="4.829535"><ele>245.24</ele><time>2025-05-25T16:24:03Z</time></trkpt>
<trkpt lat="50.408525" lon="4.829655"><ele>245.76</ele><time>2025-05-25T16:24:12Z</time></trkpt>
<trkpt lat="50.408723" lon="4.829606"><ele>245.58</ele><time>2025-05-25T16:24:21Z</time></trkpt>
<trkpt lat="50.408921" lon="4.829517"><ele>245.37</ele><time>2025-05-25T16:24:30Z</time></trkpt>
<trkpt lat="50.410221" lon="4.8288"><ele>241.16</ele><time>2025-05-25T16:24:39Z</time></trkpt>
<trkpt lat="50.410478" lon="4.828628"><ele>239.35</ele><time>2025-05-25T16:24:48Z</time></trkpt>
<trkpt lat="50.41068" lon="4.828455"><ele>238.63</ele><time>2025-05-25T16:24:58Z</time></trkpt>
<trkpt lat="50.411289" lon="4.827911"><ele>240.33</ele><time>2025-05-25T16:25:07Z</time></trkpt>
<trkpt lat="50.413508" lon="4.825739"><ele>241.97</ele><time>2025-05-25T16:25:16Z</time></trkpt>
<trkpt lat="50.415077" lon="4.82419"><ele>235.62</ele><time>2025-05-25T16:25:25Z</time></trkpt>
<trkpt lat="50.416829" lon="4.8224"><ele>226.26</ele><time>2025-05-25T16:25:34Z</time></trkpt>
<trkpt lat="50.417074" lon="4.822191"><ele>224.6</ele><time>2025-05-25T16:25:43Z</time></trkpt>
<trkpt lat="50.417161" lon="4.822178"><ele>224.09</ele><time>2025-05-25T16:25:52Z</time></trkpt>
<trkpt lat="50.417161" lon="4.822178"><ele>224.09</ele><time>2025-05-25T16:25:52Z</time></trkpt>
<trkpt lat="50.417167" lon="4.822177"><ele>223.59</ele><time>2025-05-25T16:25:53Z</time></trkpt>
<trkpt lat="50.417259" lon="4.822232"><ele>222.74</ele><time>2025-05-25T16:26:10Z</time></trkpt>
<trkpt lat="50.418789" lon="4.823785"><ele>218.85</ele><time>2025-05-25T16:26:28Z</time></trkpt>
<trkpt lat="50.419712" lon="4.824691"><ele>218.89</ele><time>2025-05-25T16:26:45Z</time></trkpt>
<trkpt lat="50.420919" lon="4.825895"><ele>216.02</ele><time>2025-05-25T16:27:03Z</time></trkpt>
<trkpt lat="50.421799" lon="4.826842"><ele>200.08</ele><time>2025-05-25T16:27:20Z</time></trkpt>
<trkpt lat="50.42395" lon="4.828896"><ele>191.2</ele><time>2025-05-25T16:27:37Z</time></trkpt>
<trkpt lat="50.424521" lon="4.829496"><ele>191.09</ele><time>2025-05-25T16:27:55Z</time></trkpt>
<trkpt lat="50.424926" lon="4.829828"><ele>191.35</ele><time>2025-05-25T16:28:12Z</time></trkpt>
<trkpt lat="50.425608" lon="4.830271"><ele>190.0</ele><time>2025-05-25T16:28:30Z</time></trkpt>
<trkpt lat="50.425792" lon="4.830438"><ele>189.91</ele><time>2025-05-25T16:28:47Z</time></trkpt>
<trkpt lat="50.426044" lon="4.830746"><ele>193.03</ele><time>2025-05-25T16:29:05Z</time></trkpt>
<trkpt lat="50.426403" lon="4.830595"><ele>197.1</ele><time>2025-05-25T16:29:24Z</time></trkpt>
<trkpt lat="50.426509" lon="4.830518"><ele>197.73</ele><time>2025-05-25T16:29:43Z</time></trkpt>
<trkpt lat="50.426637" lon="4.830365"><ele>198.1</ele><time>2025-05-25T16:30:03Z</time></trkpt>
<trkpt lat="50.427273" lon="4.829076"><ele>207.73</ele><time>2025-05-25T16:30:22Z</time></trkpt>
<trkpt lat="50.427666" lon="4.828191"><ele>211.05</ele><time>2025-05-25T16:30:41Z</time></trkpt>
<trkpt lat="50.42796" lon="4.827917"><ele>211.47</ele><time>2025-05-25T16:31:00Z</time></trkpt>
<trkpt lat="50.428219" lon="4.827837"><ele>213.98</ele><time>2025-05-25T16:31:19Z</time></trkpt>
<trkpt lat="50.428575" lon="4.827965"><ele>217.41</ele><time>2025-05-25T16:31:39Z</time></trkpt>
<trkpt lat="50.428985" lon="4.828292"><ele>218.06</ele><time>2025-05-25T16:31:58Z</time></trkpt>
<trkpt lat="50.429299" lon="4.828577"><ele>216.04</ele><time>2025-05-25T16:32:17Z</time></trkpt>
<trkpt lat="50.429638" lon="4.829049"><ele>216.12</ele><time>2025-05-25T16:32:36Z</time></trkpt>
<trkpt lat="50.42994" lon="4.829407"><ele>217.49</ele><time>2025-05-25T16:32:56Z</time></trkpt>
<trkpt lat="50.430116" lon="4.829497"><ele>219.33</ele><time>2025-05-25T16:33:01Z</time></trkpt>
<trkpt lat="50.430301" lon="4.829537"><ele>221.5</ele><time>2025-05-25T16:33:07Z</time></trkpt>
<trkpt lat="50.430536" lon="4.829494"><ele>223.04</ele><time>2025-05-25T16:33:12Z</time></trkpt>
<trkpt lat="50.430796" lon="4.829253"><ele>223.44</ele><time>2025-05-25T16:33:18Z</time></trkpt>
<trkpt lat="50.431738" lon="4.828033"><ele>221.51</ele><time>2025-05-25T16:33:24Z</time></trkpt>
<trkpt lat="50.431972" lon="4.827794"><ele>223.09</ele><time>2025-05-25T16:33:29Z</time></trkpt>
<trkpt lat="50.432427" lon="4.827411"><ele>225.82</ele><time>2025-05-25T16:33:35Z</time></trkpt>
<trkpt lat="50.433441" lon="4.826628"><ele>223.45</ele><time>2025-05-25T16:33:40Z</time></trkpt>
<trkpt lat="50.433946" lon="4.826207"><ele>213.52</ele><time>2025-05-25T16:33:46Z</time></trkpt>
<trkpt lat="50.43422" lon="4.826033"><ele>209.66</ele><time>2025-05-25T16:33:52Z</time></trkpt>
<trkpt lat="50.434349" lon="4.825984"><ele>209.24</ele><time>2025-05-25T16:33:57Z</time></trkpt>
<trkpt lat="50.434463" lon="4.82597"><ele>208.88</ele><time>2025-05-25T16:34:03Z</time></trkpt>
<trkpt lat="50.434694" lon="4.826002"><ele>207.77</ele><time>2025-05-25T16:34:08Z</time></trkpt>
<trkpt lat="50.434767" lon="4.82596"><ele>207.14</ele><time>2025-05-25T16:34:14Z</time></trkpt>
<trkpt lat="50.43528" lon="4.826617"><ele>205.81</ele><time>2025-05-25T16:34:19Z</time></trkpt>
<trkpt lat="50.435409" lon="4.826909"><ele>205.52</ele><time>2025-05-25T16:34:23Z</time></trkpt>
<trkpt lat="50.43594" lon="4.828549"><ele>204.54</ele><time>2025-05-25T16:34:28Z</time></trkpt>
<trkpt lat="50.436128" lon="4.829048"><ele>208.18</ele><time>2025-05-25T16:34:32Z</time></trkpt>
<trkpt lat="50.436263" lon="4.829188"><ele>209.63</ele><time>2025-05-25T16:34:37Z</time></trkpt>
<trkpt lat="50.436434" lon="4.829326"><ele>210.59</ele><time>2025-05-25T16:34:42Z</time></trkpt>
<trkpt lat="50.438901" lon="4.830707"><ele>200.41</ele><time>2025-05-25T16:34:46Z</time></trkpt>
<trkpt lat="50.439163" lon="4.830892"><ele>197.4</ele><time>2025-05-25T16:34:51Z</time></trkpt>
<trkpt lat="50.43926" lon="4.83101"><ele>196.76</ele><time>2025-05-25T16:34:55Z</time></trkpt>
<trkpt lat="50.439171" lon="4.831217"><ele>194.65</ele><time>2025-05-25T16:34:59Z</time></trkpt>
<trkpt lat="50.438395" lon="4.834917"><ele>179.52</ele><time>2025-05-25T16:35:03Z</time></trkpt>
<trkpt lat="50.438378" lon="4.835201"><ele>178.44</ele><time>2025-05-25T16:35:06Z</time></trkpt>
<trkpt lat="50.438479" lon="4.835597"><ele>176.97</ele><time>2025-05-25T16:35:10Z</time></trkpt>
<trkpt lat="50.438662" lon="4.835974"><ele>176.86</ele><time>2025-05-25T16:35:14Z</time></trkpt>
<trkpt lat="50.43898" lon="4.836542"><ele>177.41</ele><time>2025-05-25T16:35:18Z</time></trkpt>
<trkpt lat="50.43898" lon="4.836542"><ele>177.41</ele><time>2025-05-25T16:35:18Z</time></trkpt>
<trkpt lat="50.438662" lon="4.835974"><ele>176.86</ele><time>2025-05-25T16:35:21Z</time></trkpt>
<trkpt lat="50.438479" lon="4.835597"><ele>176.97</ele><time>2025-05-25T16:35:25Z</time></trkpt>
<trkpt lat="50.438378" lon="4.835201"><ele>178.44</ele><time>2025-05-25T16:35:29Z</time></trkpt>
<trkpt lat="50.438395" lon="4.834917"><ele>179.52</ele><time>2025-05-25T16:35:32Z</time></trkpt>
<trkpt lat="50.439171" lon="4.831217"><ele>194.65</ele><time>2025-05-25T16:35:36Z</time></trkpt>
<trkpt lat="50.43926" lon="4.83101"><ele>196.76</ele><time>2025-05-25T16:35:40Z</time></trkpt>
<trkpt lat="50.439049" lon="4.822484"><ele>192.57</ele><time>2025-05-25T16:35:48Z</time></trkpt>
<trkpt lat="50.43848" lon="4.820156"><ele>188.53</ele><time>2025-05-25T16:35:56Z</time></trkpt>
<trkpt lat="50.43806" lon="4.818533"><ele>185.01</ele><time>2025-05-25T16:36:04Z</time></trkpt>
<trkpt lat="50.437774" lon="4.817324"><ele>180.37</ele><time>2025-05-25T16:36:12Z</time></trkpt>
<trkpt lat="50.437753" lon="4.817092"><ele>179.96</ele><time>2025-05-25T16:36:19Z</time></trkpt>
<trkpt lat="50.43801" lon="4.813267"><ele>177.59</ele><time>2025-05-25T16:36:27Z</time></trkpt>
<trkpt lat="50.437875" lon="4.812652"><ele>176.96</ele><time>2025-05-25T16:36:35Z</time></trkpt>
<trkpt lat="50.437097" lon="4.810071"><ele>171.16</ele><time>2025-05-25T16:36:43Z</time></trkpt>
<trkpt lat="50.436633" lon="4.808675"><ele>167.53</ele><time>2025-05-25T16:36:51Z</time></trkpt>
<trkpt lat="50.43636" lon="4.808114"><ele>166.58</ele><time>2025-05-25T16:36:59Z</time></trkpt>
<trkpt lat="50.435664" lon="4.8071"><ele>170.66</ele><time>2025-05-25T16:37:07Z</time></trkpt>
<trkpt lat="50.435471" lon="4.806799"><ele>171.59</ele><time>2025-05-25T16:37:15Z</time></trkpt>
<trkpt lat="50.435303" lon="4.806483"><ele>172.5</ele><time>2025-05-25T16:37:23Z</time></trkpt>
<trkpt lat="50.435141" lon="4.806107"><ele>173.05</ele><time>2025-05-25T16:37:31Z</time></trkpt>
<trkpt lat="50.435011" lon="4.805754"><ele>172.21</ele><time>2025-05-25T16:37:39Z</time></trkpt>
<trkpt lat="50.434708" lon="4.80476"><ele>166.95</ele><time>2025-05-25T16:37:47Z</time></trkpt>
<trkpt lat="50.434647" lon="4.804347"><ele>166.31</ele><time>2025-05-25T16:37:54Z</time></trkpt>
<trkpt lat="50.434646" lon="4.804115"><ele>165.41</ele><time>2025-05-25T16:38:02Z</time></trkpt>
<trkpt lat="50.434794" lon="4.80236"><ele>161.53</ele><time>2025-05-25T16:38:10Z</time></trkpt>
<trkpt lat="50.4348" lon="4.80188"><ele>158.99</ele><time>2025-05-25T16:38:18Z</time></trkpt>
<trkpt lat="50.434764" lon="4.80148"><ele>155.85</ele><time>2025-05-25T16:38:26Z</time></trkpt>
<trkpt lat="50.434569" lon="4.800754"><ele>152.19</ele><time>2025-05-25T16:38:34Z</time></trkpt>
<trkpt lat="50.434514" lon="4.800337"><ele>150.21</ele><time>2025-05-25T16:38:42Z</time></trkpt>
<trkpt lat="50.434483" lon="4.799324"><ele>145.99</ele><time>2025-05-25T16:38:50Z</time></trkpt>
<trkpt lat="50.434494" lon="4.798805"><ele>145.12</ele><time>2025-05-25T16:38:58Z</time></trkpt>
<trkpt lat="50.434562" lon="4.798266"><ele>142.41</ele><time>2025-05-25T16:39:06Z</time></trkpt>
<trkpt lat="50.43459" lon="4.797906"><ele>139.38</ele><time>2025-05-25T16:39:14Z</time></trkpt>
<trkpt lat="50.434599" lon="4.797462"><ele>133.72</ele><time>2025-05-25T16:39:21Z</time></trkpt>
<trkpt lat="50.434429" lon="4.795599"><ele>115.01</ele><time>2025-05-25T16:39:29Z</time></trkpt>
<trkpt lat="50.434592" lon="4.795545"><ele>113.69</ele><time>2025-05-25T16:39:34Z</time></trkpt>
<trkpt lat="50.434778" lon="4.795451"><ele>113.61</ele><time>2025-05-25T16:39:38Z</time></trkpt>
<trkpt lat="50.435807" lon="4.7949"><ele>107.83</ele><time>2025-05-25T16:39:43Z</time></trkpt>
<trkpt lat="50.436186" lon="4.79477"><ele>106.28</ele><time>2025-05-25T16:39:48Z</time></trkpt>
<trkpt lat="50.436369" lon="4.794801"><ele>103.41</ele><time>2025-05-25T16:39:52Z</time></trkpt>
<trkpt lat="50.436832" lon="4.795003"><ele>99.83</ele><time>2025-05-25T16:39:57Z</time></trkpt>
<trkpt lat="50.436924" lon="4.795067"><ele>99.42</ele><time>2025-05-25T16:40:01Z</time></trkpt>
<trkpt lat="50.437595" lon="4.795723"><ele>93.97</ele><time>2025-05-25T16:40:06Z</time></trkpt>
<trkpt lat="50.437963" lon="4.795973"><ele>91.83</ele><time>2025-05-25T16:40:10Z</time></trkpt>
<trkpt lat="50.438094" lon="4.796096"><ele>91.82</ele><time>2025-05-25T16:40:15Z</time></trkpt>
<trkpt lat="50.43821" lon="4.796151"><ele>91.8</ele><time>2025-05-25T16:40:19Z</time></trkpt>
<trkpt lat="50.438299" lon="4.796144"><ele>91.37</ele><time>2025-05-25T16:40:24Z</time></trkpt>
<trkpt lat="50.438448" lon="4.79604"><ele>90.84</ele><time>2025-05-25T16:40:28Z</time></trkpt>
<trkpt lat="50.438701" lon="4.795734"><ele>90.92</ele><time>2025-05-25T16:40:33Z</time></trkpt>
<trkpt lat="50.438846" lon="4.795711"><ele>90.22</ele><time>2025-05-25T16:40:37Z</time></trkpt>
<trkpt lat="50.439791" lon="4.795691"><ele>88.49</ele><time>2025-05-25T16:40:42Z</time></trkpt>
<trkpt lat="50.440002" lon="4.795644"><ele>88.32</ele><time>2025-05-25T16:40:47Z</time></trkpt>
<trkpt lat="50.440378" lon="4.795454"><ele>87.5</ele><time>2025-05-25T16:40:51Z</time></trkpt>
<trkpt lat="50.440487" lon="4.795368"><ele>86.82</ele><time>2025-05-25T16:40:56Z</time></trkpt>
<trkpt lat="50.440602" lon="4.79519"><ele>85.85</ele><time>2025-05-25T16:41:00Z</time></trkpt>
<trkpt lat="50.440751" lon="4.794864"><ele>85.5</ele><time>2025-05-25T16:41:05Z</time></trkpt>
<trkpt lat="50.44091" lon="4.794663"><ele>85.22</ele><time>2025-05-25T16:41:09Z</time></trkpt>
<trkpt lat="50.441207" lon="4.794451"><ele>84.33</ele><time>2025-05-25T16:41:14Z</time></trkpt>
<trkpt lat="50.441335" lon="4.794411"><ele>83.48</ele><time>2025-05-25T16:41:18Z</time></trkpt>
<trkpt lat="50.441451" lon="4.794404"><ele>83.31</ele><time>2025-05-25T16:41:23Z</time></trkpt>
<trkpt lat="50.44179" lon="4.79442"><ele>84.8</ele><time>2025-05-25T16:41:27Z</time></trkpt>
<trkpt lat="50.443325" lon="4.794057"><ele>84.61</ele><time>2025-05-25T16:41:32Z</time></trkpt>
<trkpt lat="50.443605" lon="4.793934"><ele>83.34</ele><time>2025-05-25T16:41:36Z</time></trkpt>
<trkpt lat="50.443667" lon="4.793924"><ele>83.23</ele><time>2025-05-25T16:41:39Z</time></trkpt>
<trkpt lat="50.443723" lon="4.793882"><ele>82.99</ele><time>2025-05-25T16:41:43Z</time></trkpt>
<trkpt lat="50.443783" lon="4.793762"><ele>82.72</ele><time>2025-05-25T16:41:46Z</time></trkpt>
<trkpt lat="50.443794" lon="4.79361"><ele>82.34</ele><time>2025-05-25T16:41:49Z</time></trkpt>
<trkpt lat="50.443745" lon="4.793461"><ele>82.51</ele><time>2025-05-25T16:41:52Z</time></trkpt>
<trkpt lat="50.443702" lon="4.79341"><ele>82.67</ele><time>2025-05-25T16:41:55Z</time></trkpt>
<trkpt lat="50.443597" lon="4.793378"><ele>83.05</ele><time>2025-05-25T16:41:58Z</time></trkpt>
<trkpt lat="50.443545" lon="4.793401"><ele>83.24</ele><time>2025-05-25T16:42:01Z</time></trkpt>
<trkpt lat="50.443286" lon="4.793225"><ele>83.61</ele><time>2025-05-25T16:42:04Z</time></trkpt>
<trkpt lat="50.442667" lon="4.79271"><ele>81.15</ele><time>2025-05-25T16:42:07Z</time></trkpt>
<trkpt lat="50.441948" lon="4.792099"><ele>81.0</ele><time>2025-05-25T16:42:10Z</time></trkpt>
<trkpt lat="50.44149" lon="4.791488"><ele>81.59</ele><time>2025-05-25T16:42:13Z</time></trkpt>
<trkpt lat="50.441308" lon="4.791184"><ele>80.55</ele><time>2025-05-25T16:42:16Z</time></trkpt>
<trkpt lat="50.44107" lon="4.790685"><ele>81.15</ele><time>2025-05-25T16:42:19Z</time></trkpt>
<trkpt lat="50.440877" lon="4.790114"><ele>82.84</ele><time>2025-05-25T16:42:22Z</time></trkpt>
<trkpt lat="50.440721" lon="4.789417"><ele>81.91</ele><time>2025-05-25T16:42:25Z</time></trkpt>
<trkpt lat="50.440634" lon="4.788734"><ele>83.47</ele><time>2025-05-25T16:42:28Z</time></trkpt>
<trkpt lat="50.440607" lon="4.788289"><ele>82.89</ele><time>2025-05-25T16:42:31Z</time></trkpt>
<trkpt lat="50.440624" lon="4.787723"><ele>80.64</ele><time>2025-05-25T16:42:34Z</time></trkpt>
<trkpt lat="50.440674" lon="4.787672"><ele>81.07</ele><time>2025-05-25T16:42:41Z</time></trkpt>
<trkpt lat="50.440719" lon="4.787551"><ele>81.51</ele><time>2025-05-25T16:42:47Z</time></trkpt>
<trkpt lat="50.440704" lon="4.787416"><ele>81.54</ele><time>2025-05-25T16:42:53Z</time></trkpt>
<trkpt lat="50.440652" lon="4.787349"><ele>81.35</ele><time>2025-05-25T16:42:59Z</time></trkpt>
<trkpt lat="50.440668" lon="4.786986"><ele>82.42</ele><time>2025-05-25T16:43:05Z</time></trkpt>
<trkpt lat="50.441298" lon="4.783006"><ele>87.71</ele><time>2025-05-25T16:43:11Z</time></trkpt>
<trkpt lat="50.441367" lon="4.782653"><ele>87.69</ele><time>2025-05-25T16:43:18Z</time></trkpt>
<trkpt lat="50.441746" lon="4.781025"><ele>87.48</ele><time>2025-05-25T16:43:24Z</time></trkpt>
<trkpt lat="50.442099" lon="4.779657"><ele>86.44</ele><time>2025-05-25T16:43:30Z</time></trkpt>
<trkpt lat="50.442156" lon="4.779636"><ele>86.24</ele><time>2025-05-25T16:43:34Z</time></trkpt>
<trkpt lat="50.442216" lon="4.779517"><ele>86.02</ele><time>2025-05-25T16:43:37Z</time></trkpt>
<trkpt lat="50.442213" lon="4.77941"><ele>86.15</ele><time>2025-05-25T16:43:41Z</time></trkpt>
<trkpt lat="50.44218" lon="4.779321"><ele>86.6</ele><time>2025-05-25T16:43:44Z</time></trkpt>
<trkpt lat="50.442214" lon="4.779036"><ele>87.49</ele><time>2025-05-25T16:43:48Z</time></trkpt>
<trkpt lat="50.442825" lon="4.776463"><ele>88.73</ele><time>2025-05-25T16:43:51Z</time></trkpt>
<trkpt lat="50.442915" lon="4.77618"><ele>89.0</ele><time>2025-05-25T16:43:55Z</time></trkpt>
<trkpt lat="50.442983" lon="4.776146"><ele>89.0</ele><time>2025-05-25T16:43:59Z</time></trkpt>
<trkpt lat="50.443027" lon="4.776057"><ele>89.19</ele><time>2025-05-25T16:44:03Z</time></trkpt>
<trkpt lat="50.44303" lon="4.775947"><ele>89.59</ele><time>2025-05-25T16:44:08Z</time></trkpt>
<trkpt lat="50.442994" lon="4.775853"><ele>89.93</ele><time>2025-05-25T16:44:12Z</time></trkpt>
<trkpt lat="50.444298" lon="4.770281"><ele>99.08</ele><time>2025-05-25T16:44:16Z</time></trkpt>
<trkpt lat="50.44439" lon="4.769722"><ele>99.39</ele><time>2025-05-25T16:44:20Z</time></trkpt>
<trkpt lat="50.444423" lon="4.769203"><ele>97.4</ele><time>2025-05-25T16:44:24Z</time></trkpt>
<trkpt lat="50.444427" lon="4.768844"><ele>95.41</ele><time>2025-05-25T16:44:29Z</time></trkpt>
<trkpt lat="50.444406" lon="4.768374"><ele>96.68</ele><time>2025-05-25T16:44:33Z</time></trkpt>
<trkpt lat="50.444369" lon="4.76797"><ele>98.36</ele><time>2025-05-25T16:44:37Z</time></trkpt>
<trkpt lat="50.444226" lon="4.767338"><ele>98.69</ele><time>2025-05-25T16:44:41Z</time></trkpt>
<trkpt lat="50.444149" lon="4.767396"><ele>99.97</ele><time>2025-05-25T16:44:43Z</time></trkpt>
<trkpt lat="50.444275" lon="4.767991"><ele>100.05</ele><time>2025-05-25T16:44:45Z</time></trkpt>
<trkpt lat="50.444911" lon="4.767914"><ele>91.64</ele><time>2025-05-25T16:44:51Z</time></trkpt>
<trkpt lat="50.446204" lon="4.767727"><ele>83.46</ele><time>2025-05-25T16:44:57Z</time></trkpt>
<trkpt lat="50.447408" lon="4.767606"><ele>82.29</ele><time>2025-05-25T16:45:04Z</time></trkpt>
<trkpt lat="50.447714" lon="4.767607"><ele>83.21</ele><time>2025-05-25T16:45:10Z</time></trkpt>
<trkpt lat="50.447905" lon="4.767644"><ele>83.52</ele><time>2025-05-25T16:45:16Z</time></trkpt>
<trkpt lat="50.44813" lon="4.767731"><ele>83.92</ele><time>2025-05-25T16:45:22Z</time></trkpt>
<trkpt lat="50.448319" lon="4.767834"><ele>83.81</ele><time>2025-05-25T16:45:28Z</time></trkpt>
<trkpt lat="50.448932" lon="4.768279"><ele>80.36</ele><time>2025-05-25T16:45:34Z</time></trkpt>
<trkpt lat="50.449575" lon="4.768798"><ele>80.2</ele><time>2025-05-25T16:45:40Z</time></trkpt>
<trkpt lat="50.450019" lon="4.769049"><ele>80.74</ele><time>2025-05-25T16:45:46Z</time></trkpt>
<trkpt lat="50.450353" lon="4.769177"><ele>83.01</ele><time>2025-05-25T16:45:52Z</time></trkpt>
<trkpt lat="50.450757" lon="4.76916"><ele>84.41</ele><time>2025-05-25T16:45:58Z</time></trkpt>
<trkpt lat="50.451726" lon="4.768934"><ele>86.42</ele><time>2025-05-25T16:46:04Z</time></trkpt>
<trkpt lat="50.451576" lon="4.76865"><ele>85.14</ele><time>2025-05-25T16:46:06Z</time></trkpt>
<trkpt lat="50.451538" lon="4.768446"><ele>84.4</ele><time>2025-05-25T16:46:08Z</time></trkpt>
<trkpt lat="50.451654" lon="4.768257"><ele>84.28</ele><time>2025-05-25T16:46:12Z</time></trkpt>
<trkpt lat="50.451727" lon="4.768137"><ele>84.99</ele><time>2025-05-25T16:46:17Z</time></trkpt>
<trkpt lat="50.451907" lon="4.767707"><ele>86.37</ele><time>2025-05-25T16:46:21Z</time></trkpt>
<trkpt lat="50.451941" lon="4.767596"><ele>87.3</ele><time>2025-05-25T16:46:26Z</time></trkpt>
<trkpt lat="50.451974" lon="4.767369"><ele>88.68</ele><time>2025-05-25T16:46:30Z</time></trkpt>
<trkpt lat="50.451924" lon="4.766762"><ele>90.58</ele><time>2025-05-25T16:46:35Z</time></trkpt>
<trkpt lat="50.451851" lon="4.766241"><ele>92.02</ele><time>2025-05-25T16:46:39Z</time></trkpt>
<trkpt lat="50.451851" lon="4.76597"><ele>92.83</ele><time>2025-05-25T16:46:44Z</time></trkpt>
<trkpt lat="50.451881" lon="4.765846"><ele>93.5</ele><time>2025-05-25T16:46:48Z</time></trkpt>
<trkpt lat="50.45199" lon="4.765687"><ele>94.16</ele><time>2025-05-25T16:46:53Z</time></trkpt>
<trkpt lat="50.45224" lon="4.765541"><ele>95.14</ele><time>2025-05-25T16:46:57Z</time></trkpt>
<trkpt lat="50.4525" lon="4.765284"><ele>96.05</ele><time>2025-05-25T16:47:02Z</time></trkpt>
<trkpt lat="50.452637" lon="4.765113"><ele>96.1</ele><time>2025-05-25T16:47:06Z</time></trkpt>
<trkpt lat="50.452989" lon="4.76468"><ele>95.72</ele><time>2025-05-25T16:47:11Z</time></trkpt>
<trkpt lat="50.453119" lon="4.76446"><ele>96.23</ele><time>2025-05-25T16:47:15Z</time></trkpt>
<trkpt lat="50.453222" lon="4.764228"><ele>96.29</ele><time>2025-05-25T16:47:20Z</time></trkpt>
<trkpt lat="50.45329" lon="4.763999"><ele>96.59</ele><time>2025-05-25T16:47:24Z</time></trkpt>
<trkpt lat="50.453336" lon="4.763761"><ele>96.54</ele><time>2025-05-25T16:47:29Z</time></trkpt>
<trkpt lat="50.453521" lon="4.762234"><ele>96.32</ele><time>2025-05-25T16:47:33Z</time></trkpt>
<trkpt lat="50.453577" lon="4.762024"><ele>97.38</ele><time>2025-05-25T16:47:38Z</time></trkpt>
<trkpt lat="50.453609" lon="4.761958"><ele>97.93</ele><time>2025-05-25T16:47:43Z</time></trkpt>
<trkpt lat="50.453602" lon="4.761875"><ele>97.9</ele><time>2025-05-25T16:47:48Z</time></trkpt>
<trkpt lat="50.45356" lon="4.761825"><ele>97.44</ele><time>2025-05-25T16:47:52Z</time></trkpt>
<trkpt lat="50.453473" lon="4.761085"><ele>96.96</ele><time>2025-05-25T16:47:57Z</time></trkpt>
<trkpt lat="50.453363" lon="4.759112"><ele>95.89</ele><time>2025-05-25T16:48:02Z</time></trkpt>
<trkpt lat="50.45331" lon="4.758107"><ele>95.33</ele><time>2025-05-25T16:48:07Z</time></trkpt>
<trkpt lat="50.45331" lon="4.757777"><ele>95.17</ele><time>2025-05-25T16:48:12Z</time></trkpt>
<trkpt lat="50.453349" lon="4.757473"><ele>95.06</ele><time>2025-05-25T16:48:17Z</time></trkpt>
<trkpt lat="50.45344" lon="4.757204"><ele>95.45</ele><time>2025-05-25T16:48:21Z</time></trkpt>
<trkpt lat="50.453557" lon="4.756964"><ele>96.74</ele><time>2025-05-25T16:48:26Z</time></trkpt>
<trkpt lat="50.453788" lon="4.756586"><ele>98.0</ele><time>2025-05-25T16:48:31Z</time></trkpt>
<trkpt lat="50.453961" lon="4.756354"><ele>97.74</ele><time>2025-05-25T16:48:36Z</time></trkpt>
<trkpt lat="50.454147" lon="4.756156"><ele>97.07</ele><time>2025-05-25T16:48:41Z</time></trkpt>
<trkpt lat="50.454367" lon="4.755953"><ele>97.57</ele><time>2025-05-25T16:48:45Z</time></trkpt>
<trkpt lat="50.45597" lon="4.754943"><ele>104.81</ele><time>2025-05-25T16:48:50Z</time></trkpt>
<trkpt lat="50.456767" lon="4.754341"><ele>110.37</ele><time>2025-05-25T16:48:55Z</time></trkpt>
<trkpt lat="50.457465" lon="4.753679"><ele>111.0</ele><time>2025-05-25T16:49:00Z</time></trkpt>
<trkpt lat="50.4583" lon="4.752757"><ele>110.07</ele><time>2025-05-25T16:49:05Z</time></trkpt>
<trkpt lat="50.458848" lon="4.752082"><ele>112.5</ele><time>2025-05-25T16:49:10Z</time></trkpt>
<trkpt lat="50.459033" lon="4.751823"><ele>113.0</ele><time>2025-05-25T16:49:14Z</time></trkpt>
<trkpt lat="50.459252" lon="4.751402"><ele>112.05</ele><time>2025-05-25T16:49:19Z</time></trkpt>
<trkpt lat="50.459413" lon="4.75097"><ele>112.06</ele><time>2025-05-25T16:49:24Z</time></trkpt>
<trkpt lat="50.459553" lon="4.750405"><ele>112.39</ele><time>2025-05-25T16:49:29Z</time></trkpt>
<trkpt lat="50.459635" lon="4.749856"><ele>112.17</ele><time>2025-05-25T16:49:34Z</time></trkpt>
<trkpt lat="50.459664" lon="4.749471"><ele>111.79</ele><time>2025-05-25T16:49:38Z</time></trkpt>
<trkpt lat="50.459678" lon="4.748203"><ele>110.06</ele><time>2025-05-25T16:49:43Z</time></trkpt>
<trkpt lat="50.459592" lon="4.746937"><ele>108.53</ele><time>2025-05-25T16:49:48Z</time></trkpt>
<trkpt lat="50.459421" lon="4.74569"><ele>109.0</ele><time>2025-05-25T16:49:53Z</time></trkpt>
<trkpt lat="50.459238" lon="4.744853"><ele>108.79</ele><time>2025-05-25T16:49:58Z</time></trkpt>
<trkpt lat="50.458999" lon="4.744044"><ele>111.71</ele><time>2025-05-25T16:50:03Z</time></trkpt>
<trkpt lat="50.458521" lon="4.742277"><ele>111.35</ele><time>2025-05-25T16:50:07Z</time></trkpt>
<trkpt lat="50.458062" lon="4.74066"><ele>111.02</ele><time>2025-05-25T16:50:12Z</time></trkpt>
<trkpt lat="50.457807" lon="4.739864"><ele>112.6</ele><time>2025-05-25T16:50:17Z</time></trkpt>
<trkpt lat="50.457497" lon="4.739047"><ele>112.0</ele><time>2025-05-25T16:50:22Z</time></trkpt>
<trkpt lat="50.455969" lon="4.73527"><ele>111.5</ele><time>2025-05-25T16:50:27Z</time></trkpt>
<trkpt lat="50.456001" lon="4.734496"><ele>110.39</ele><time>2025-05-25T16:50:32Z</time></trkpt>
<trkpt lat="50.456004" lon="4.733935"><ele>110.0</ele><time>2025-05-25T16:50:36Z</time></trkpt>
<trkpt lat="50.455984" lon="4.733662"><ele>110.0</ele><time>2025-05-25T16:50:41Z</time></trkpt>
<trkpt lat="50.455967" lon="4.733428"><ele>110.0</ele><time>2025-05-25T16:50:46Z</time></trkpt>
<trkpt lat="50.456043" lon="4.733409"><ele>109.96</ele><time>2025-05-25T16:51:17Z</time></trkpt>
<trkpt lat="50.456043" lon="4.733409"><ele>109.96</ele><time>2025-05-25T16:51:17Z</time></trkpt>
<trkpt lat="50.455967" lon="4.733428"><ele>110.0</ele><time>2025-05-25T16:51:18Z</time></trkpt>
<trkpt lat="50.455759" lon="4.732627"><ele>109.06</ele><time>2025-05-25T16:51:27Z</time></trkpt>
<trkpt lat="50.455724" lon="4.732326"><ele>107.77</ele><time>2025-05-25T16:51:37Z</time></trkpt>
<trkpt lat="50.455733" lon="4.732024"><ele>106.65</ele><time>2025-05-25T16:51:46Z</time></trkpt>
<trkpt lat="50.45591" lon="4.730638"><ele>101.49</ele><time>2025-05-25T16:51:55Z</time></trkpt>
<trkpt lat="50.456416" lon="4.729778"><ele>98.28</ele><time>2025-05-25T16:52:05Z</time></trkpt>
<trkpt lat="50.456685" lon="4.729376"><ele>98.82</ele><time>2025-05-25T16:52:14Z</time></trkpt>
<trkpt lat="50.458616" lon="4.726372"><ele>106.01</ele><time>2025-05-25T16:52:24Z</time></trkpt>
<trkpt lat="50.458764" lon="4.726258"><ele>106.55</ele><time>2025-05-25T16:52:33Z</time></trkpt>
<trkpt lat="50.460159" lon="4.726524"><ele>110.07</ele><time>2025-05-25T16:52:42Z</time></trkpt>
<trkpt lat="50.462605" lon="4.727043"><ele>113.42</ele><time>2025-05-25T16:52:52Z</time></trkpt>
<trkpt lat="50.470407" lon="4.725439"><ele>134.26</ele><time>2025-05-25T16:53:01Z</time></trkpt>
<trkpt lat="50.470567" lon="4.725361"><ele>133.66</ele><time>2025-05-25T16:53:10Z</time></trkpt>
<trkpt lat="50.471452" lon="4.724597"><ele>137.68</ele><time>2025-05-25T16:53:20Z</time></trkpt>
<trkpt lat="50.47234" lon="4.723724"><ele>145.66</ele><time>2025-05-25T16:53:29Z</time></trkpt>
<trkpt lat="50.4725" lon="4.723517"><ele>146.34</ele><time>2025-05-25T16:53:38Z</time></trkpt>
<trkpt lat="50.472653" lon="4.72324"><ele>147.0</ele><time>2025-05-25T16:53:48Z</time></trkpt>
<trkpt lat="50.474065" lon="4.720193"><ele>163.38</ele><time>2025-05-25T16:53:57Z</time></trkpt>
<trkpt lat="50.474673" lon="4.718843"><ele>167.79</ele><time>2025-05-25T16:54:06Z</time></trkpt>
<trkpt lat="50.475071" lon="4.71803"><ele>169.77</ele><time>2025-05-25T16:54:16Z</time></trkpt>
<trkpt lat="50.475105" lon="4.718038"><ele>170.28</ele><time>2025-05-25T16:54:31Z</time></trkpt>
<trkpt lat="50.475105" lon="4.718038"><ele>170.28</ele><time>2025-05-25T16:54:31Z</time></trkpt>
<trkpt lat="50.475165" lon="4.718053"><ele>170.78</ele><time>2025-05-25T16:54:36Z</time></trkpt>
<trkpt lat="50.475269" lon="4.718138"><ele>171.62</ele><time>2025-05-25T16:54:41Z</time></trkpt>
<trkpt lat="50.475742" lon="4.719375"><ele>172.92</ele><time>2025-05-25T16:54:45Z</time></trkpt>
<trkpt lat="50.475791" lon="4.719549"><ele>172.85</ele><time>2025-05-25T16:54:50Z</time></trkpt>
<trkpt lat="50.475859" lon="4.72"><ele>174.09</ele><time>2025-05-25T16:54:55Z</time></trkpt>
<trkpt lat="50.476185" lon="4.719827"><ele>174.91</ele><time>2025-05-25T16:55:05Z</time></trkpt>
<trkpt lat="50.476376" lon="4.719667"><ele>175.91</ele><time>2025-05-25T16:55:16Z</time></trkpt>
<trkpt lat="50.476743" lon="4.719346"><ele>178.92</ele><time>2025-05-25T16:55:27Z</time></trkpt>
<trkpt lat="50.477612" lon="4.718437"><ele>188.4</ele><time>2025-05-25T16:55:37Z</time></trkpt>
<trkpt lat="50.478239" lon="4.717925"><ele>189.66</ele><time>2025-05-25T16:55:48Z</time></trkpt>
<trkpt lat="50.478426" lon="4.717835"><ele>190.33</ele><time>2025-05-25T16:55:58Z</time></trkpt>
<trkpt lat="50.479291" lon="4.71755"><ele>193.81</ele><time>2025-05-25T16:56:09Z</time></trkpt>
<trkpt lat="50.481253" lon="4.716817"><ele>191.49</ele><time>2025-05-25T16:56:20Z</time></trkpt>
<trkpt lat="50.481649" lon="4.716649"><ele>191.0</ele><time>2025-05-25T16:56:30Z</time></trkpt>
<trkpt lat="50.481695" lon="4.717184"><ele>190.03</ele><time>2025-05-25T16:56:44Z</time></trkpt>
<trkpt lat="50.481716" lon="4.720746"><ele>191.0</ele><time>2025-05-25T16:56:58Z</time></trkpt>
<trkpt lat="50.481748" lon="4.72154"><ele>192.09</ele><time>2025-05-25T16:57:11Z</time></trkpt>
<trkpt lat="50.481927" lon="4.723099"><ele>185.12</ele><time>2025-05-25T16:57:25Z</time></trkpt>
<trkpt lat="50.482478" lon="4.722966"><ele>185.0</ele><time>2025-05-25T16:57:44Z</time></trkpt>
<trkpt lat="50.48262" lon="4.722961"><ele>184.57</ele><time>2025-05-25T16:58:03Z</time></trkpt>
<trkpt lat="50.482791" lon="4.723004"><ele>184.0</ele><time>2025-05-25T16:58:22Z</time></trkpt>
<trkpt lat="50.482957" lon="4.723077"><ele>184.03</ele><time>2025-05-25T16:58:41Z</time></trkpt>
<trkpt lat="50.483382" lon="4.723445"><ele>182.83</ele><time>2025-05-25T16:59:00Z</time></trkpt>
<trkpt lat="50.484598" lon="4.723919"><ele>175.89</ele><time>2025-05-25T16:59:19Z</time></trkpt>
<trkpt lat="50.485889" lon="4.724659"><ele>172.8</ele><time>2025-05-25T16:59:38Z</time></trkpt>
<trkpt lat="50.486188" lon="4.724793"><ele>171.98</ele><time>2025-05-25T16:59:57Z</time></trkpt>
<trkpt lat="50.486507" lon="4.724881"><ele>171.33</ele><time>2025-05-25T17:00:16Z</time></trkpt>
<trkpt lat="50.48766" lon="4.725063"><ele>170.58</ele><time>2025-05-25T17:00:35Z</time></trkpt>
<trkpt lat="50.48825" lon="4.725258"><ele>171.0</ele><time>2025-05-25T17:00:54Z</time></trkpt>
<trkpt lat="50.488398" lon="4.725274"><ele>171.24</ele><time>2025-05-25T17:01:13Z</time></trkpt>
<trkpt lat="50.488793" lon="4.725247"><ele>172.69</ele><time>2025-05-25T17:01:32Z</time></trkpt>
<trkpt lat="50.489405" lon="4.725128"><ele>170.14</ele><time>2025-05-25T17:01:52Z</time></trkpt>
<trkpt lat="50.489413" lon="4.725032"><ele>169.62</ele><time>2025-05-25T17:01:53Z</time></trkpt>
<trkpt lat="50.489413" lon="4.725032"><ele>169.62</ele><time>2025-05-25T17:01:53Z</time></trkpt>
<trkpt lat="50.489471" lon="4.724337"><ele>169.1</ele><time>2025-05-25T17:02:14Z</time></trkpt>
<trkpt lat="50.489471" lon="4.723984"><ele>169.09</ele><time>2025-05-25T17:02:35Z</time></trkpt>
<trkpt lat="50.489395" lon="4.72307"><ele>170.18</ele><time>2025-05-25T17:02:56Z</time></trkpt>
<trkpt lat="50.489391" lon="4.722881"><ele>170.19</ele><time>2025-05-25T17:03:17Z</time></trkpt>
<trkpt lat="50.490077" lon="4.719067"><ele>166.72</ele><time>2025-05-25T17:03:38Z</time></trkpt>
<trkpt lat="50.490284" lon="4.718103"><ele>165.02</ele><time>2025-05-25T17:03:59Z</time></trkpt>
<trkpt lat="50.490351" lon="4.717361"><ele>165.26</ele><time>2025-05-25T17:04:20Z</time></trkpt>
<trkpt lat="50.490374" lon="4.716652"><ele>161.95</ele><time>2025-05-25T17:04:41Z</time></trkpt>
<trkpt lat="50.490348" lon="4.71106"><ele>154.05</ele><time>2025-05-25T17:05:10Z</time></trkpt>
<trkpt lat="50.490394" lon="4.707829"><ele>157.89</ele><time>2025-05-25T17:05:39Z</time></trkpt>
<trkpt lat="50.490617" lon="4.705775"><ele>158.0</ele><time>2025-05-25T17:06:08Z</time></trkpt>
<trkpt lat="50.490711" lon="4.704578"><ele>159.67</ele><time>2025-05-25T17:06:37Z</time></trkpt>
<trkpt lat="50.491231" lon="4.700396"><ele>158.24</ele><time>2025-05-25T17:07:06Z</time></trkpt>
<trkpt lat="50.491421" lon="4.698739"><ele>155.17</ele><time>2025-05-25T17:07:35Z</time></trkpt>
<trkpt lat="50.491576" lon="4.69697"><ele>151.65</ele><time>2025-05-25T17:08:04Z</time></trkpt>
<trkpt lat="50.491711" lon="4.693158"><ele>144.59</ele><time>2025-05-25T17:08:33Z</time></trkpt>
<trkpt lat="50.491401" lon="4.693116"><ele>144.24</ele><time>2025-05-25T17:08:37Z</time></trkpt>
<trkpt lat="50.491147" lon="4.693132"><ele>144.27</ele><time>2025-05-25T17:08:41Z</time></trkpt>
<trkpt lat="50.490575" lon="4.69315"><ele>143.34</ele><time>2025-05-25T17:08:48Z</time></trkpt>
<trkpt lat="50.490306" lon="4.693092"><ele>141.45</ele><time>2025-05-25T17:08:54Z</time></trkpt>
<trkpt lat="50.489914" lon="4.692895"><ele>135.33</ele><time>2025-05-25T17:09:00Z</time></trkpt>
<trkpt lat="50.489987" lon="4.692604"><ele>133.52</ele><time>2025-05-25T17:09:03Z</time></trkpt>
<trkpt lat="50.490003" lon="4.69229"><ele>133.03</ele><time>2025-05-25T17:09:06Z</time></trkpt>
<trkpt lat="50.489974" lon="4.69198"><ele>135.04</ele><time>2025-05-25T17:09:09Z</time></trkpt>
<trkpt lat="50.489872" lon="4.691259"><ele>134.24</ele><time>2025-05-25T17:09:12Z</time></trkpt>
<trkpt lat="50.489741" lon="4.689911"><ele>132.71</ele><time>2025-05-25T17:09:15Z</time></trkpt>
<trkpt lat="50.48962" lon="4.68904"><ele>132.09</ele><time>2025-05-25T17:09:17Z</time></trkpt>
<trkpt lat="50.489467" lon="4.688359"><ele>131.4</ele><time>2025-05-25T17:09:20Z</time></trkpt>
<trkpt lat="50.489072" lon="4.687603"><ele>127.94</ele><time>2025-05-25T17:09:23Z</time></trkpt>
<trkpt lat="50.488681" lon="4.686961"><ele>131.04</ele><time>2025-05-25T17:09:26Z</time></trkpt>
<trkpt lat="50.488366" lon="4.686595"><ele>133.92</ele><time>2025-05-25T17:09:29Z</time></trkpt>
<trkpt lat="50.487826" lon="4.686186"><ele>134.85</ele><time>2025-05-25T17:09:31Z</time></trkpt>
<trkpt lat="50.487609" lon="4.685935"><ele>132.82</ele><time>2025-05-25T17:09:34Z</time></trkpt>
<trkpt lat="50.487446" lon="4.685628"><ele>130.08</ele><time>2025-05-25T17:09:37Z</time></trkpt>
<trkpt lat="50.487148" lon="4.684814"><ele>127.51</ele><time>2025-05-25T17:09:40Z</time></trkpt>
<trkpt lat="50.487039" lon="4.684485"><ele>125.13</ele><time>2025-05-25T17:09:43Z</time></trkpt>
<trkpt lat="50.487001" lon="4.684305"><ele>123.91</ele><time>2025-05-25T17:09:46Z</time></trkpt>
<trkpt lat="50.486968" lon="4.683944"><ele>122.76</ele><time>2025-05-25T17:09:48Z</time></trkpt>
<trkpt lat="50.486972" lon="4.683739"><ele>122.35</ele><time>2025-05-25T17:09:51Z</time></trkpt>
<trkpt lat="50.487011" lon="4.683339"><ele>123.15</ele><time>2025-05-25T17:09:54Z</time></trkpt>
<trkpt lat="50.487033" lon="4.682956"><ele>125.12</ele><time>2025-05-25T17:09:57Z</time></trkpt>
<trkpt lat="50.487011" lon="4.682592"><ele>125.59</ele><time>2025-05-25T17:10:00Z</time></trkpt>
<trkpt lat="50.486945" lon="4.682242"><ele>124.01</ele><time>2025-05-25T17:10:02Z</time></trkpt>
<trkpt lat="50.486387" lon="4.680101"><ele>117.97</ele><time>2025-05-25T17:10:05Z</time></trkpt>
<trkpt lat="50.486351" lon="4.679838"><ele>118.03</ele><time>2025-05-25T17:10:08Z</time></trkpt>
<trkpt lat="50.486322" lon="4.678867"><ele>120.53</ele><time>2025-05-25T17:10:11Z</time></trkpt>
<trkpt lat="50.48629" lon="4.678625"><ele>119.51</ele><time>2025-05-25T17:10:14Z</time></trkpt>
<trkpt lat="50.486161" lon="4.678208"><ele>115.96</ele><time>2025-05-25T17:10:17Z</time></trkpt>
<trkpt lat="50.485865" lon="4.677611"><ele>110.07</ele><time>2025-05-25T17:10:19Z</time></trkpt>
<trkpt lat="50.485481" lon="4.676716"><ele>106.98</ele><time>2025-05-25T17:10:22Z</time></trkpt>
<trkpt lat="50.485208" lon="4.676026"><ele>105.21</ele><time>2025-05-25T17:10:25Z</time></trkpt>
<trkpt lat="50.485104" lon="4.675707"><ele>103.83</ele><time>2025-05-25T17:10:28Z</time></trkpt>
<trkpt lat="50.485032" lon="4.675417"><ele>102.95</ele><time>2025-05-25T17:10:31Z</time></trkpt>
<trkpt lat="50.48496" lon="4.674874"><ele>101.14</ele><time>2025-05-25T17:10:33Z</time></trkpt>
<trkpt lat="50.484837" lon="4.672195"><ele>99.73</ele><time>2025-05-25T17:10:36Z</time></trkpt>
<trkpt lat="50.486266" lon="4.67202"><ele>108.15</ele><time>2025-05-25T17:11:33Z</time></trkpt>
<trkpt lat="50.48629" lon="4.671874"><ele>108.41</ele><time>2025-05-25T17:11:36Z</time></trkpt>
<trkpt lat="50.486287" lon="4.671257"><ele>105.83</ele><time>2025-05-25T17:11:40Z</time></trkpt>
<trkpt lat="50.486333" lon="4.671108"><ele>106.02</ele><time>2025-05-25T17:11:44Z</time></trkpt>
<trkpt lat="50.486333" lon="4.671108"><ele>106.02</ele><time>2025-05-25T17:11:44Z</time></trkpt>
<trkpt lat="50.486415" lon="4.671003"><ele>106.33</ele><time>2025-05-25T17:11:49Z</time></trkpt>
<trkpt lat="50.486496" lon="4.670956"><ele>106.22</ele><time>2025-05-25T17:11:53Z</time></trkpt>
<trkpt lat="50.486578" lon="4.670947"><ele>106.38</ele><time>2025-05-25T17:11:58Z</time></trkpt>
<trkpt lat="50.486719" lon="4.670979"><ele>106.25</ele><time>2025-05-25T17:12:03Z</time></trkpt>
<trkpt lat="50.486851" lon="4.67105"><ele>104.95</ele><time>2025-05-25T17:12:08Z</time></trkpt>
<trkpt lat="50.487344" lon="4.671485"><ele>106.47</ele><time>2025-05-25T17:12:13Z</time></trkpt>
<trkpt lat="50.488091" lon="4.671985"><ele>109.58</ele><time>2025-05-25T17:12:18Z</time></trkpt>
<trkpt lat="50.488259" lon="4.672072"><ele>110.22</ele><time>2025-05-25T17:12:23Z</time></trkpt>
<trkpt lat="50.488379" lon="4.672104"><ele>110.32</ele><time>2025-05-25T17:12:28Z</time></trkpt>
<trkpt lat="50.488583" lon="4.672118"><ele>110.72</ele><time>2025-05-25T17:12:33Z</time></trkpt>
<trkpt lat="50.488808" lon="4.672057"><ele>110.14</ele><time>2025-05-25T17:12:38Z</time></trkpt>
<trkpt lat="50.489217" lon="4.671766"><ele>105.17</ele><time>2025-05-25T17:12:43Z</time></trkpt>
<trkpt lat="50.489347" lon="4.671653"><ele>105.23</ele><time>2025-05-25T17:12:47Z</time></trkpt>
<trkpt lat="50.489525" lon="4.671572"><ele>106.43</ele><time>2025-05-25T17:12:52Z</time></trkpt>
<trkpt lat="50.489757" lon="4.671511"><ele>108.88</ele><time>2025-05-25T17:12:57Z</time></trkpt>
<trkpt lat="50.489807" lon="4.671465"><ele>109.56</ele><time>2025-05-25T17:13:02Z</time></trkpt>
<trkpt lat="50.489849" lon="4.671356"><ele>110.42</ele><time>2025-05-25T17:13:07Z</time></trkpt>
<trkpt lat="50.489929" lon="4.670739"><ele>110.64</ele><time>2025-05-25T17:13:12Z</time></trkpt>
<trkpt lat="50.490098" lon="4.670487"><ele>110.88</ele><time>2025-05-25T17:13:17Z</time></trkpt>
<trkpt lat="50.490428" lon="4.670169"><ele>108.85</ele><time>2025-05-25T17:13:22Z</time></trkpt>
<trkpt lat="50.490766" lon="4.670171"><ele>109.6</ele><time>2025-05-25T17:13:27Z</time></trkpt>
<trkpt lat="50.491038" lon="4.670269"><ele>107.21</ele><time>2025-05-25T17:13:32Z</time></trkpt>
<trkpt lat="50.491613" lon="4.670136"><ele>101.39</ele><time>2025-05-25T17:13:37Z</time></trkpt>
<trkpt lat="50.491941" lon="4.669967"><ele>101.12</ele><time>2025-05-25T17:13:41Z</time></trkpt>
<trkpt lat="50.492187" lon="4.670318"><ele>100.87</ele><time>2025-05-25T17:13:46Z</time></trkpt>
<trkpt lat="50.492337" lon="4.670389"><ele>101.84</ele><time>2025-05-25T17:13:50Z</time></trkpt>
<trkpt lat="50.492496" lon="4.670378"><ele>103.6</ele><time>2025-05-25T17:13:54Z</time></trkpt>
<trkpt lat="50.493108" lon="4.670638"><ele>111.75</ele><time>2025-05-25T17:13:59Z</time></trkpt>
<trkpt lat="50.493292" lon="4.670654"><ele>114.4</ele><time>2025-05-25T17:14:03Z</time></trkpt>
<trkpt lat="50.493474" lon="4.670606"><ele>114.91</ele><time>2025-05-25T17:14:07Z</time></trkpt>
<trkpt lat="50.494048" lon="4.669915"><ele>117.18</ele><time>2025-05-25T17:14:12Z</time></trkpt>
<trkpt lat="50.494287" lon="4.669572"><ele>120.08</ele><time>2025-05-25T17:14:16Z</time></trkpt>
<trkpt lat="50.494514" lon="4.669375"><ele>120.88</ele><time>2025-05-25T17:14:20Z</time></trkpt>
<trkpt lat="50.494849" lon="4.669216"><ele>120.65</ele><time>2025-05-25T17:14:24Z</time></trkpt>
<trkpt lat="50.495446" lon="4.669017"><ele>122.04</ele><time>2025-05-25T17:14:29Z</time></trkpt>
<trkpt lat="50.495995" lon="4.66895"><ele>119.89</ele><time>2025-05-25T17:14:33Z</time></trkpt>
<trkpt lat="50.496555" lon="4.668978"><ele>119.63</ele><time>2025-05-25T17:14:37Z</time></trkpt>
<trkpt lat="50.497753" lon="4.669669"><ele>116.78</ele><time>2025-05-25T17:14:42Z</time></trkpt>
<trkpt lat="50.498002" lon="4.669796"><ele>114.4</ele><time>2025-05-25T17:14:46Z</time></trkpt>
<trkpt lat="50.498164" lon="4.669849"><ele>113.3</ele><time>2025-05-25T17:14:50Z</time></trkpt>
<trkpt lat="50.49835" lon="4.669828"><ele>114.06</ele><time>2025-05-25T17:14:55Z</time></trkpt>
<trkpt lat="50.49905" lon="4.669646"><ele>117.6</ele><time>2025-05-25T17:14:59Z</time></trkpt>
<trkpt lat="50.49931" lon="4.669557"><ele>114.11</ele><time>2025-05-25T17:15:03Z</time></trkpt>
<trkpt lat="50.499537" lon="4.669436"><ele>113.34</ele><time>2025-05-25T17:15:08Z</time></trkpt>
<trkpt lat="50.499828" lon="4.669231"><ele>119.63</ele><time>2025-05-25T17:15:12Z</time></trkpt>
<trkpt lat="50.500105" lon="4.668981"><ele>124.46</ele><time>2025-05-25T17:15:16Z</time></trkpt>
<trkpt lat="50.500309" lon="4.668875"><ele>125.27</ele><time>2025-05-25T17:15:20Z</time></trkpt>
<trkpt lat="50.500497" lon="4.668821"><ele>125.96</ele><time>2025-05-25T17:15:25Z</time></trkpt>
<trkpt lat="50.500689" lon="4.66883"><ele>123.57</ele><time>2025-05-25T17:15:29Z</time></trkpt>
<trkpt lat="50.501094" lon="4.668925"><ele>119.49</ele><time>2025-05-25T17:15:33Z</time></trkpt>
<trkpt lat="50.501259" lon="4.669073"><ele>119.65</ele><time>2025-05-25T17:15:38Z</time></trkpt>
<trkpt lat="50.501596" lon="4.669446"><ele>112.49</ele><time>2025-05-25T17:15:42Z</time></trkpt>
<trkpt lat="50.501798" lon="4.669528"><ele>110.6</ele><time>2025-05-25T17:15:46Z</time></trkpt>
<trkpt lat="50.501967" lon="4.669557"><ele>109.81</ele><time>2025-05-25T17:15:51Z</time></trkpt>
<trkpt lat="50.502174" lon="4.669489"><ele>112.18</ele><time>2025-05-25T17:15:55Z</time></trkpt>
<trkpt lat="50.502514" lon="4.669266"><ele>117.62</ele><time>2025-05-25T17:15:59Z</time></trkpt>
<trkpt lat="50.502665" lon="4.669198"><ele>119.14</ele><time>2025-05-25T17:16:03Z</time></trkpt>
<trkpt lat="50.502913" lon="4.669181"><ele>120.28</ele><time>2025-05-25T17:16:08Z</time></trkpt>
<trkpt lat="50.503637" lon="4.669276"><ele>117.04</ele><time>2025-05-25T17:16:12Z</time></trkpt>
<trkpt lat="50.504197" lon="4.669433"><ele>114.91</ele><time>2025-05-25T17:16:16Z</time></trkpt>
<trkpt lat="50.504364" lon="4.669165"><ele>115.88</ele><time>2025-05-25T17:16:21Z</time></trkpt>
<trkpt lat="50.504411" lon="4.66903"><ele>115.97</ele><time>2025-05-25T17:16:26Z</time></trkpt>
<trkpt lat="50.504442" lon="4.668725"><ele>117.22</ele><time>2025-05-25T17:16:31Z</time></trkpt>
<trkpt lat="50.504511" lon="4.668438"><ele>116.55</ele><time>2025-05-25T17:16:36Z</time></trkpt>
<trkpt lat="50.50456" lon="4.668133"><ele>114.42</ele><time>2025-05-25T17:16:41Z</time></trkpt>
<trkpt lat="50.504566" lon="4.667883"><ele>113.23</ele><time>2025-05-25T17:16:46Z</time></trkpt>
<trkpt lat="50.504522" lon="4.667405"><ele>111.92</ele><time>2025-05-25T17:16:51Z</time></trkpt>
<trkpt lat="50.504211" lon="4.665872"><ele>111.25</ele><time>2025-05-25T17:16:56Z</time></trkpt>
<trkpt lat="50.504021" lon="4.665098"><ele>114.26</ele><time>2025-05-25T17:17:00Z</time></trkpt>
<trkpt lat="50.503744" lon="4.664157"><ele>116.0</ele><time>2025-05-25T17:17:05Z</time></trkpt>
<trkpt lat="50.503502" lon="4.663354"><ele>114.28</ele><time>2025-05-25T17:17:10Z</time></trkpt>
<trkpt lat="50.503448" lon="4.663054"><ele>113.65</ele><time>2025-05-25T17:17:15Z</time></trkpt>
<trkpt lat="50.503369" lon="4.662002"><ele>116.51</ele><time>2025-05-25T17:17:20Z</time></trkpt>
<trkpt lat="50.503294" lon="4.660368"><ele>115.43</ele><time>2025-05-25T17:17:25Z</time></trkpt>
<trkpt lat="50.503159" lon="4.658508"><ele>117.0</ele><time>2025-05-25T17:17:30Z</time></trkpt>
<trkpt lat="50.503074" lon="4.657606"><ele>117.82</ele><time>2025-05-25T17:17:35Z</time></trkpt>
<trkpt lat="50.503073" lon="4.657217"><ele>117.43</ele><time>2025-05-25T17:17:40Z</time></trkpt>
<trkpt lat="50.5031" lon="4.656954"><ele>117.96</ele><time>2025-05-25T17:17:44Z</time></trkpt>
<trkpt lat="50.503151" lon="4.656745"><ele>118.82</ele><time>2025-05-25T17:17:49Z</time></trkpt>
<trkpt lat="50.503219" lon="4.656574"><ele>119.21</ele><time>2025-05-25T17:17:54Z</time></trkpt>
<trkpt lat="50.503402" lon="4.656312"><ele>118.17</ele><time>2025-05-25T17:17:59Z</time></trkpt>
<trkpt lat="50.503559" lon="4.656185"><ele>116.8</ele><time>2025-05-25T17:18:04Z</time></trkpt>
<trkpt lat="50.503748" lon="4.656077"><ele>115.38</ele><time>2025-05-25T17:18:09Z</time></trkpt>
<trkpt lat="50.504026" lon="4.655994"><ele>117.12</ele><time>2025-05-25T17:18:14Z</time></trkpt>
<trkpt lat="50.50448" lon="4.655898"><ele>120.69</ele><time>2025-05-25T17:18:19Z</time></trkpt>
<trkpt lat="50.505892" lon="4.655532"><ele>110.02</ele><time>2025-05-25T17:18:24Z</time></trkpt>
<trkpt lat="50.506882" lon="4.655216"><ele>116.22</ele><time>2025-05-25T17:18:29Z</time></trkpt>
<trkpt lat="50.507132" lon="4.655068"><ele>116.75</ele><time>2025-05-25T17:18:33Z</time></trkpt>
<trkpt lat="50.507269" lon="4.654811"><ele>116.1</ele><time>2025-05-25T17:18:38Z</time></trkpt>
<trkpt lat="50.507326" lon="4.654493"><ele>115.63</ele><time>2025-05-25T17:18:43Z</time></trkpt>
<trkpt lat="50.507305" lon="4.654211"><ele>116.54</ele><time>2025-05-25T17:18:48Z</time></trkpt>
<trkpt lat="50.507009" lon="4.653304"><ele>117.3</ele><time>2025-05-25T17:18:53Z</time></trkpt>
<trkpt lat="50.506949" lon="4.653076"><ele>116.1</ele><time>2025-05-25T17:18:58Z</time></trkpt>
<trkpt lat="50.507321" lon="4.653162"><ele>114.59</ele><time>2025-05-25T17:19:03Z</time></trkpt>
<trkpt lat="50.507757" lon="4.65316"><ele>118.38</ele><time>2025-05-25T17:19:07Z</time></trkpt>
<trkpt lat="50.507859" lon="4.653198"><ele>120.09</ele><time>2025-05-25T17:19:12Z</time></trkpt>
<trkpt lat="50.508191" lon="4.653441"><ele>122.13</ele><time>2025-05-25T17:19:17Z</time></trkpt>
<trkpt lat="50.508564" lon="4.654002"><ele>121.75</ele><time>2025-05-25T17:19:22Z</time></trkpt>
<trkpt lat="50.509187" lon="4.65531"><ele>128.24</ele><time>2025-05-25T17:19:26Z</time></trkpt>
<trkpt lat="50.509454" lon="4.655765"><ele>131.21</ele><time>2025-05-25T17:19:31Z</time></trkpt>
<trkpt lat="50.50958" lon="4.655937"><ele>133.93</ele><time>2025-05-25T17:19:36Z</time></trkpt>
<trkpt lat="50.509765" lon="4.65598"><ele>136.63</ele><time>2025-05-25T17:19:40Z</time></trkpt>
<trkpt lat="50.511157" lon="4.655996"><ele>140.68</ele><time>2025-05-25T17:19:45Z</time></trkpt>
<trkpt lat="50.51246" lon="4.65596"><ele>141.77</ele><time>2025-05-25T17:19:50Z</time></trkpt>
<trkpt lat="50.514895" lon="4.65599"><ele>146.43</ele><time>2025-05-25T17:19:54Z</time></trkpt>
<trkpt lat="50.517083" lon="4.656137"><ele>151.55</ele><time>2025-05-25T17:19:59Z</time></trkpt>
<trkpt lat="50.517526" lon="4.656193"><ele>151.39</ele><time>2025-05-25T17:20:04Z</time></trkpt>
<trkpt lat="50.51773" lon="4.656261"><ele>151.73</ele><time>2025-05-25T17:20:09Z</time></trkpt>
<trkpt lat="50.51773" lon="4.656261"><ele>151.73</ele><time>2025-05-25T17:20:09Z</time></trkpt>
<trkpt lat="50.518363" lon="4.656471"><ele>152.08</ele><time>2025-05-25T17:20:12Z</time></trkpt>
<trkpt lat="50.516138" lon="4.666541"><ele>156.04</ele><time>2025-05-25T17:20:28Z</time></trkpt>
<trkpt lat="50.515258" lon="4.670515"><ele>143.0</ele><time>2025-05-25T17:20:44Z</time></trkpt>
<trkpt lat="50.515176" lon="4.670781"><ele>142.27</ele><time>2025-05-25T17:21:00Z</time></trkpt>
<trkpt lat="50.515052" lon="4.671066"><ele>140.54</ele><time>2025-05-25T17:21:16Z</time></trkpt>
<trkpt lat="50.51412" lon="4.672822"><ele>132.67</ele><time>2025-05-25T17:21:32Z</time></trkpt>
<trkpt lat="50.514422" lon="4.673435"><ele>132.92</ele><time>2025-05-25T17:21:38Z</time></trkpt>
<trkpt lat="50.515273" lon="4.674984"><ele>135.04</ele><time>2025-05-25T17:21:43Z</time></trkpt>
<trkpt lat="50.515425" lon="4.675223"><ele>136.87</ele><time>2025-05-25T17:21:49Z</time></trkpt>
<trkpt lat="50.515687" lon="4.675455"><ele>138.51</ele><time>2025-05-25T17:21:54Z</time></trkpt>
<trkpt lat="50.516194" lon="4.67576"><ele>138.08</ele><time>2025-05-25T17:21:59Z</time></trkpt>
<trkpt lat="50.516833" lon="4.676013"><ele>137.11</ele><time>2025-05-25T17:22:05Z</time></trkpt>
<trkpt lat="50.518274" lon="4.676476"><ele>134.62</ele><time>2025-05-25T17:22:10Z</time></trkpt>
<trkpt lat="50.518792" lon="4.676668"><ele>134.99</ele><time>2025-05-25T17:22:15Z</time></trkpt>
<trkpt lat="50.519267" lon="4.677051"><ele>133.61</ele><time>2025-05-25T17:22:21Z</time></trkpt>
<trkpt lat="50.519628" lon="4.677292"><ele>130.69</ele><time>2025-05-25T17:22:26Z</time></trkpt>
<trkpt lat="50.519786" lon="4.677352"><ele>129.41</ele><time>2025-05-25T17:22:32Z</time></trkpt>
<trkpt lat="50.519928" lon="4.677326"><ele>129.16</ele><time>2025-05-25T17:22:37Z</time></trkpt>
<trkpt lat="50.520294" lon="4.677127"><ele>129.4</ele><time>2025-05-25T17:22:42Z</time></trkpt>
<trkpt lat="50.520377" lon="4.677117"><ele>129.74</ele><time>2025-05-25T17:22:48Z</time></trkpt>
<trkpt lat="50.520468" lon="4.677154"><ele>129.93</ele><time>2025-05-25T17:22:53Z</time></trkpt>
<trkpt lat="50.520626" lon="4.6773"><ele>128.65</ele><time>2025-05-25T17:22:59Z</time></trkpt>
<trkpt lat="50.52103" lon="4.678279"><ele>119.33</ele><time>2025-05-25T17:23:04Z</time></trkpt>
<trkpt lat="50.521096" lon="4.678373"><ele>118.86</ele><time>2025-05-25T17:23:09Z</time></trkpt>
<trkpt lat="50.522418" lon="4.678924"><ele>120.9</ele><time>2025-05-25T17:23:15Z</time></trkpt>
<trkpt lat="50.523417" lon="4.679381"><ele>118.83</ele><time>2025-05-25T17:23:20Z</time></trkpt>
<trkpt lat="50.523607" lon="4.679549"><ele>122.9</ele><time>2025-05-25T17:23:26Z</time></trkpt>
<trkpt lat="50.523673" lon="4.679738"><ele>124.28</ele><time>2025-05-25T17:23:31Z</time></trkpt>
<trkpt lat="50.52376" lon="4.680426"><ele>122.33</ele><time>2025-05-25T17:23:36Z</time></trkpt>
<trkpt lat="50.523905" lon="4.680917"><ele>121.97</ele><time>2025-05-25T17:23:42Z</time></trkpt>
<trkpt lat="50.524541" lon="4.682309"><ele>126.04</ele><time>2025-05-25T17:23:47Z</time></trkpt>
<trkpt lat="50.524726" lon="4.68251"><ele>127.99</ele><time>2025-05-25T17:23:53Z</time></trkpt>
<trkpt lat="50.525048" lon="4.682663"><ele>129.93</ele><time>2025-05-25T17:23:58Z</time></trkpt>
<trkpt lat="50.52541" lon="4.682639"><ele>133.45</ele><time>2025-05-25T17:24:03Z</time></trkpt>
<trkpt lat="50.525893" lon="4.68255"><ele>136.03</ele><time>2025-05-25T17:24:09Z</time></trkpt>
<trkpt lat="50.526094" lon="4.682575"><ele>136.67</ele><time>2025-05-25T17:24:14Z</time></trkpt>
<trkpt lat="50.529474" lon="4.683307"><ele>146.1</ele><time>2025-05-25T17:24:20Z</time></trkpt>
<trkpt lat="50.534067" lon="4.683224"><ele>145.03</ele><time>2025-05-25T17:24:25Z</time></trkpt>
<trkpt lat="50.534236" lon="4.683377"><ele>144.23</ele><time>2025-05-25T17:24:30Z</time></trkpt>
<trkpt lat="50.534855" lon="4.685188"><ele>133.88</ele><time>2025-05-25T17:24:36Z</time></trkpt>
<trkpt lat="50.535805" lon="4.687329"><ele>122.97</ele><time>2025-05-25T17:24:41Z</time></trkpt>
<trkpt lat="50.536079" lon="4.687723"><ele>123.98</ele><time>2025-05-25T17:24:47Z</time></trkpt>
<trkpt lat="50.536253" lon="4.687861"><ele>124.0</ele><time>2025-05-25T17:24:52Z</time></trkpt>
<trkpt lat="50.536258" lon="4.687805"><ele>123.83</ele><time>2025-05-25T17:25:07Z</time></trkpt>
<trkpt lat="50.536258" lon="4.687805"><ele>123.83</ele><time>2025-05-25T17:25:07Z</time></trkpt>
<trkpt lat="50.536338" lon="4.686763"><ele>123.0</ele><time>2025-05-25T17:25:23Z</time></trkpt>
<trkpt lat="50.53634" lon="4.686572"><ele>123.0</ele><time>2025-05-25T17:25:38Z</time></trkpt>
<trkpt lat="50.536324" lon="4.68648"><ele>123.0</ele><time>2025-05-25T17:25:53Z</time></trkpt>
<trkpt lat="50.535713" lon="4.684467"><ele>132.35</ele><time>2025-05-25T17:26:08Z</time></trkpt>
<trkpt lat="50.53562" lon="4.683829"><ele>136.05</ele><time>2025-05-25T17:26:24Z</time></trkpt>
<trkpt lat="50.537044" lon="4.682906"><ele>139.89</ele><time>2025-05-25T17:26:39Z</time></trkpt>
<trkpt lat="50.538627" lon="4.681932"><ele>144.88</ele><time>2025-05-25T17:26:54Z</time></trkpt>
<trkpt lat="50.541484" lon="4.680078"><ele>152.51</ele><time>2025-05-25T17:27:10Z</time></trkpt>
<trkpt lat="50.540972" lon="4.67178"><ele>158.0</ele><time>2025-05-25T17:27:50Z</time></trkpt>
<trkpt lat="50.540786" lon="4.667668"><ele>163.29</ele><time>2025-05-25T17:28:30Z</time></trkpt>
<trkpt lat="50.540784" lon="4.665926"><ele>163.88</ele><time>2025-05-25T17:29:11Z</time></trkpt>
<trkpt lat="50.540668" lon="4.665706"><ele>163.4</ele><time>2025-05-25T17:29:16Z</time></trkpt>
<trkpt lat="50.540524" lon="4.665487"><ele>162.64</ele><time>2025-05-25T17:29:20Z</time></trkpt>
<trkpt lat="50.540467" lon="4.665444"><ele>162.28</ele><time>2025-05-25T17:29:25Z</time></trkpt>
<trkpt lat="50.540073" lon="4.665404"><ele>161.86</ele><time>2025-05-25T17:29:30Z</time></trkpt>
<trkpt lat="50.540001" lon="4.665374"><ele>162.0</ele><time>2025-05-25T17:29:35Z</time></trkpt>
<trkpt lat="50.539921" lon="4.66528"><ele>162.0</ele><time>2025-05-25T17:29:40Z</time></trkpt>
<trkpt lat="50.539726" lon="4.664886"><ele>162.01</ele><time>2025-05-25T17:29:45Z</time></trkpt>
<trkpt lat="50.539563" lon="4.66444"><ele>160.84</ele><time>2025-05-25T17:29:50Z</time></trkpt>
<trkpt lat="50.539517" lon="4.663424"><ele>160.28</ele><time>2025-05-25T17:29:55Z</time></trkpt>
<trkpt lat="50.539426" lon="4.663281"><ele>160.19</ele><time>2025-05-25T17:30:00Z</time></trkpt>
<trkpt lat="50.538832" lon="4.66289"><ele>163.6</ele><time>2025-05-25T17:30:05Z</time></trkpt>
<trkpt lat="50.538731" lon="4.662777"><ele>164.0</ele><time>2025-05-25T17:30:10Z</time></trkpt>
<trkpt lat="50.539152" lon="4.662777"><ele>162.11</ele><time>2025-05-25T17:30:19Z</time></trkpt>
<trkpt lat="50.539269" lon="4.662751"><ele>162.16</ele><time>2025-05-25T17:30:29Z</time></trkpt>
<trkpt lat="50.539383" lon="4.662665"><ele>162.5</ele><time>2025-05-25T17:30:38Z</time></trkpt>
<trkpt lat="50.539763" lon="4.662222"><ele>165.15</ele><time>2025-05-25T17:30:48Z</time></trkpt>
<trkpt lat="50.540903" lon="4.660808"><ele>167.5</ele><time>2025-05-25T17:30:57Z</time></trkpt>
<trkpt lat="50.541109" lon="4.66051"><ele>165.69</ele><time>2025-05-25T17:31:07Z</time></trkpt>
<trkpt lat="50.541323" lon="4.660114"><ele>161.88</ele><time>2025-05-25T17:31:16Z</time></trkpt>
<trkpt lat="50.541634" lon="4.65942"><ele>161.21</ele><time>2025-05-25T17:31:26Z</time></trkpt>
<trkpt lat="50.543608" lon="4.653352"><ele>162.84</ele><time>2025-05-25T17:31:35Z</time></trkpt>
<trkpt lat="50.543732" lon="4.653099"><ele>165.12</ele><time>2025-05-25T17:31:45Z</time></trkpt>
<trkpt lat="50.543817" lon="4.65297"><ele>166.05</ele><time>2025-05-25T17:31:54Z</time></trkpt>
<trkpt lat="50.542752" lon="4.651158"><ele>163.09</ele><time>2025-05-25T17:32:03Z</time></trkpt>
<trkpt lat="50.543243" lon="4.650454"><ele>167.24</ele><time>2025-05-25T17:32:10Z</time></trkpt>
<trkpt lat="50.543727" lon="4.649831"><ele>170.64</ele><time>2025-05-25T17:32:17Z</time></trkpt>
<trkpt lat="50.544049" lon="4.649509"><ele>170.42</ele><time>2025-05-25T17:32:25Z</time></trkpt>
<trkpt lat="50.544226" lon="4.649468"><ele>169.79</ele><time>2025-05-25T17:32:32Z</time></trkpt>
<trkpt lat="50.544508" lon="4.649565"><ele>168.54</ele><time>2025-05-25T17:32:39Z</time></trkpt>
<trkpt lat="50.544621" lon="4.649493"><ele>167.73</ele><time>2025-05-25T17:32:46Z</time></trkpt>
<trkpt lat="50.545747" lon="4.647939"><ele>166.6</ele><time>2025-05-25T17:32:53Z</time></trkpt>
<trkpt lat="50.546496" lon="4.646571"><ele>166.83</ele><time>2025-05-25T17:33:00Z</time></trkpt>
<trkpt lat="50.547437" lon="4.644438"><ele>160.02</ele><time>2025-05-25T17:33:07Z</time></trkpt>
<trkpt lat="50.548263" lon="4.643236"><ele>161.35</ele><time>2025-05-25T17:33:15Z</time></trkpt>
<trkpt lat="50.549688" lon="4.640628"><ele>156.0</ele><time>2025-05-25T17:33:22Z</time></trkpt>
<trkpt lat="50.552199" lon="4.636715"><ele>153.09</ele><time>2025-05-25T17:33:29Z</time></trkpt>
<trkpt lat="50.552398" lon="4.636447"><ele>152.87</ele><time>2025-05-25T17:33:36Z</time></trkpt>
<trkpt lat="50.553023" lon="4.635883"><ele>154.74</ele><time>2025-05-25T17:33:43Z</time></trkpt>
<trkpt lat="50.556639" lon="4.632275"><ele>158.91</ele><time>2025-05-25T17:33:50Z</time></trkpt>
<trkpt lat="50.556766" lon="4.632109"><ele>158.69</ele><time>2025-05-25T17:33:57Z</time></trkpt>
<trkpt lat="50.555896" lon="4.628793"><ele>157.92</ele><time>2025-05-25T17:34:17Z</time></trkpt>
<trkpt lat="50.555539" lon="4.627701"><ele>157.96</ele><time>2025-05-25T17:34:36Z</time></trkpt>
<trkpt lat="50.554893" lon="4.625254"><ele>162.38</ele><time>2025-05-25T17:34:55Z</time></trkpt>
<trkpt lat="50.554485" lon="4.623492"><ele>159.65</ele><time>2025-05-25T17:35:15Z</time></trkpt>
<trkpt lat="50.553881" lon="4.621294"><ele>162.93</ele><time>2025-05-25T17:35:34Z</time></trkpt>
<trkpt lat="50.552795" lon="4.617182"><ele>159.99</ele><time>2025-05-25T17:35:54Z</time></trkpt>
<trkpt lat="50.552151" lon="4.614574"><ele>162.14</ele><time>2025-05-25T17:36:13Z</time></trkpt>
<trkpt lat="50.551318" lon="4.612047"><ele>162.0</ele><time>2025-05-25T17:36:32Z</time></trkpt>
<trkpt lat="50.549338" lon="4.604007"><ele>158.57</ele><time>2025-05-25T17:36:52Z</time></trkpt>
<trkpt lat="50.549149" lon="4.603327"><ele>157.98</ele><time>2025-05-25T17:37:11Z</time></trkpt>
<trkpt lat="50.548775" lon="4.601818"><ele>155.96</ele><time>2025-05-25T17:37:31Z</time></trkpt>
<trkpt lat="50.54875" lon="4.601005"><ele>154.31</ele><time>2025-05-25T17:37:50Z</time></trkpt>
<trkpt lat="50.548557" lon="4.600313"><ele>152.32</ele><time>2025-05-25T17:38:09Z</time></trkpt>
<trkpt lat="50.548203" lon="4.599741"><ele>152.5</ele><time>2025-05-25T17:38:29Z</time></trkpt>
<trkpt lat="50.546738" lon="4.594349"><ele>152.91</ele><time>2025-05-25T17:38:48Z</time></trkpt>
<trkpt lat="50.5462" lon="4.592234"><ele>156.28</ele><time>2025-05-25T17:39:07Z</time></trkpt>
<trkpt lat="50.547206" lon="4.591461"><ele>155.94</ele><time>2025-05-25T17:39:17Z</time></trkpt>
<trkpt lat="50.549805" lon="4.590061"><ele>158.83</ele><time>2025-05-25T17:39:27Z</time></trkpt>
<trkpt lat="50.55015" lon="4.589736"><ele>160.38</ele><time>2025-05-25T17:39:37Z</time></trkpt>
<trkpt lat="50.550714" lon="4.589124"><ele>159.15</ele><time>2025-05-25T17:39:46Z</time></trkpt>
<trkpt lat="50.551526" lon="4.587756"><ele>151.92</ele><time>2025-05-25T17:39:56Z</time></trkpt>
<trkpt lat="50.552798" lon="4.585454"><ele>147.54</ele><time>2025-05-25T17:40:05Z</time></trkpt>
<trkpt lat="50.55312" lon="4.584964"><ele>146.93</ele><time>2025-05-25T17:40:15Z</time></trkpt>
<trkpt lat="50.553643" lon="4.58428"><ele>148.59</ele><time>2025-05-25T17:40:24Z</time></trkpt>
<trkpt lat="50.554553" lon="4.583024"><ele>147.07</ele><time>2025-05-25T17:40:34Z</time></trkpt>
<trkpt lat="50.555341" lon="4.581841"><ele>146.23</ele><time>2025-05-25T17:40:43Z</time></trkpt>
<trkpt lat="50.555631" lon="4.581551"><ele>146.43</ele><time>2025-05-25T17:40:53Z</time></trkpt>
<trkpt lat="50.555856" lon="4.581455"><ele>146.06</ele><time>2025-05-25T17:41:02Z</time></trkpt>
<trkpt lat="50.556227" lon="4.581511"><ele>146.56</ele><time>2025-05-25T17:41:12Z</time></trkpt>
<trkpt lat="50.556565" lon="4.581615"><ele>146.82</ele><time>2025-05-25T17:41:21Z</time></trkpt>
<trkpt lat="50.557015" lon="4.581632"><ele>148.13</ele><time>2025-05-25T17:41:31Z</time></trkpt>
<trkpt lat="50.557482" lon="4.581567"><ele>149.63</ele><time>2025-05-25T17:41:40Z</time></trkpt>
<trkpt lat="50.558593" lon="4.58135"><ele>145.35</ele><time>2025-05-25T17:41:50Z</time></trkpt>
<trkpt lat="50.559929" lon="4.58131"><ele>146.23</ele><time>2025-05-25T17:41:59Z</time></trkpt>
<trkpt lat="50.560653" lon="4.581253"><ele>149.84</ele><time>2025-05-25T17:42:09Z</time></trkpt>
<trkpt lat="50.561173" lon="4.581185"><ele>151.77</ele><time>2025-05-25T17:42:18Z</time></trkpt>
<trkpt lat="50.561194" lon="4.581272"><ele>151.71</ele><time>2025-05-25T17:42:19Z</time></trkpt>
<trkpt lat="50.561194" lon="4.581272"><ele>151.71</ele><time>2025-05-25T17:42:19Z</time></trkpt>
<trkpt lat="50.561173" lon="4.581185"><ele>151.77</ele><time>2025-05-25T17:42:20Z</time></trkpt>
<trkpt lat="50.561972" lon="4.580779"><ele>150.9</ele><time>2025-05-25T17:42:38Z</time></trkpt>
<trkpt lat="50.562286" lon="4.580642"><ele>149.54</ele><time>2025-05-25T17:42:55Z</time></trkpt>
<trkpt lat="50.563429" lon="4.580014"><ele>145.0</ele><time>2025-05-25T17:43:13Z</time></trkpt>
<trkpt lat="50.563582" lon="4.580022"><ele>145.0</ele><time>2025-05-25T17:43:30Z</time></trkpt>
<trkpt lat="50.564081" lon="4.580223"><ele>146.38</ele><time>2025-05-25T17:43:47Z</time></trkpt>
<trkpt lat="50.564499" lon="4.58036"><ele>147.1</ele><time>2025-05-25T17:44:05Z</time></trkpt>
<trkpt lat="50.566591" lon="4.58094"><ele>149.17</ele><time>2025-05-25T17:44:22Z</time></trkpt>
<trkpt lat="50.567877" lon="4.581336"><ele>147.28</ele><time>2025-05-25T17:44:39Z</time></trkpt>
<trkpt lat="50.568177" lon="4.581335"><ele>145.13</ele><time>2025-05-25T17:44:57Z</time></trkpt>
<trkpt lat="50.571034" lon="4.579934"><ele>146.51</ele><time>2025-05-25T17:45:28Z</time></trkpt>
<trkpt lat="50.572762" lon="4.579086"><ele>152.87</ele><time>2025-05-25T17:46:00Z</time></trkpt>
<trkpt lat="50.573312" lon="4.57864"><ele>154.9</ele><time>2025-05-25T17:46:32Z</time></trkpt>
<trkpt lat="50.574037" lon="4.577919"><ele>155.23</ele><time>2025-05-25T17:47:03Z</time></trkpt>
<trkpt lat="50.574491" lon="4.57733"><ele>154.66</ele><time>2025-05-25T17:47:35Z</time></trkpt>
<trkpt lat="50.575206" lon="4.578539"><ele>154.0</ele><time>2025-05-25T17:47:42Z</time></trkpt>
<trkpt lat="50.575334" lon="4.578684"><ele>154.5</ele><time>2025-05-25T17:47:49Z</time></trkpt>
<trkpt lat="50.575954" lon="4.579225"><ele>156.0</ele><time>2025-05-25T17:47:56Z</time></trkpt>
<trkpt lat="50.57639" lon="4.579397"><ele>157.0</ele><time>2025-05-25T17:48:02Z</time></trkpt>
<trkpt lat="50.57671" lon="4.579439"><ele>157.98</ele><time>2025-05-25T17:48:09Z</time></trkpt>
<trkpt lat="50.577026" lon="4.57939"><ele>157.57</ele><time>2025-05-25T17:48:16Z</time></trkpt>
<trkpt lat="50.577685" lon="4.579156"><ele>157.34</ele><time>2025-05-25T17:48:23Z</time></trkpt>
<trkpt lat="50.578064" lon="4.579054"><ele>155.0</ele><time>2025-05-25T17:48:30Z</time></trkpt>
<trkpt lat="50.578485" lon="4.578994"><ele>155.55</ele><time>2025-05-25T17:48:37Z</time></trkpt>
<trkpt lat="50.579061" lon="4.578993"><ele>157.62</ele><time>2025-05-25T17:48:44Z</time></trkpt>
<trkpt lat="50.579615" lon="4.578916"><ele>159.61</ele><time>2025-05-25T17:48:51Z</time></trkpt>
<trkpt lat="50.58189" lon="4.578266"><ele>156.76</ele><time>2025-05-25T17:48:58Z</time></trkpt>
<trkpt lat="50.582229" lon="4.578219"><ele>156.62</ele><time>2025-05-25T17:49:05Z</time></trkpt>
<trkpt lat="50.584512" lon="4.578203"><ele>152.4</ele><time>2025-05-25T17:49:12Z</time></trkpt>
<trkpt lat="50.584702" lon="4.578219"><ele>152.04</ele><time>2025-05-25T17:49:18Z</time></trkpt>
<trkpt lat="50.585182" lon="4.578459"><ele>152.65</ele><time>2025-05-25T17:49:25Z</time></trkpt>
<trkpt lat="50.585738" lon="4.578691"><ele>153.71</ele><time>2025-05-25T17:49:32Z</time></trkpt>
<trkpt lat="50.586353" lon="4.578905"><ele>153.87</ele><time>2025-05-25T17:49:39Z</time></trkpt>
<trkpt lat="50.586844" lon="4.578974"><ele>153.69</ele><time>2025-05-25T17:49:46Z</time></trkpt>
<trkpt lat="50.587133" lon="4.578991"><ele>153.63</ele><time>2025-05-25T17:49:53Z</time></trkpt>
<trkpt lat="50.587415" lon="4.578865"><ele>153.25</ele><time>2025-05-25T17:50:00Z</time></trkpt>
<trkpt lat="50.587572" lon="4.578739"><ele>152.2</ele><time>2025-05-25T17:50:07Z</time></trkpt>
<trkpt lat="50.587647" lon="4.578637"><ele>151.56</ele><time>2025-05-25T17:50:14Z</time></trkpt>
<trkpt lat="50.587592" lon="4.578474"><ele>151.67</ele><time>2025-05-25T17:50:19Z</time></trkpt>
<trkpt lat="50.587427" lon="4.578179"><ele>151.82</ele><time>2025-05-25T17:50:24Z</time></trkpt>
<trkpt lat="50.585839" lon="4.576288"><ele>149.0</ele><time>2025-05-25T17:50:28Z</time></trkpt>
<trkpt lat="50.58558" lon="4.575885"><ele>149.17</ele><time>2025-05-25T17:50:33Z</time></trkpt>
<trkpt lat="50.585337" lon="4.575462"><ele>147.88</ele><time>2025-05-25T17:50:38Z</time></trkpt>
<trkpt lat="50.585146" lon="4.575075"><ele>147.0</ele><time>2025-05-25T17:50:43Z</time></trkpt>
<trkpt lat="50.584925" lon="4.574497"><ele>147.27</ele><time>2025-05-25T17:50:48Z</time></trkpt>
<trkpt lat="50.584789" lon="4.574202"><ele>147.3</ele><time>2025-05-25T17:50:53Z</time></trkpt>
<trkpt lat="50.584105" lon="4.573078"><ele>145.3</ele><time>2025-05-25T17:50:58Z</time></trkpt>
<trkpt lat="50.583893" lon="4.572789"><ele>145.04</ele><time>2025-05-25T17:51:03Z</time></trkpt>
<trkpt lat="50.582965" lon="4.571715"><ele>138.67</ele><time>2025-05-25T17:51:08Z</time></trkpt>
<trkpt lat="50.582229" lon="4.570772"><ele>139.02</ele><time>2025-05-25T17:51:13Z</time></trkpt>
<trkpt lat="50.582073" lon="4.570538"><ele>138.43</ele><time>2025-05-25T17:51:18Z</time></trkpt>
<trkpt lat="50.582017" lon="4.570405"><ele>137.86</ele><time>2025-05-25T17:51:23Z</time></trkpt>
<trkpt lat="50.581688" lon="4.569383"><ele>134.87</ele><time>2025-05-25T17:51:28Z</time></trkpt>
<trkpt lat="50.581655" lon="4.569189"><ele>134.08</ele><time>2025-05-25T17:51:33Z</time></trkpt>
<trkpt lat="50.581668" lon="4.568988"><ele>134.01</ele><time>2025-05-25T17:51:38Z</time></trkpt>
<trkpt lat="50.581731" lon="4.568789"><ele>134.66</ele><time>2025-05-25T17:51:42Z</time></trkpt>
<trkpt lat="50.581742" lon="4.568745"><ele>134.81</ele><time>2025-05-25T17:51:47Z</time></trkpt>
<trkpt lat="50.581742" lon="4.568745"><ele>134.81</ele><time>2025-05-25T17:51:47Z</time></trkpt>
<trkpt lat="50.581992" lon="4.56772"><ele>134.96</ele><time>2025-05-25T17:51:53Z</time></trkpt>
<trkpt lat="50.581996" lon="4.567515"><ele>134.82</ele><time>2025-05-25T17:51:58Z</time></trkpt>
<trkpt lat="50.581941" lon="4.567334"><ele>135.0</ele><time>2025-05-25T17:52:03Z</time></trkpt>
<trkpt lat="50.581382" lon="4.566729"><ele>133.98</ele><time>2025-05-25T17:52:09Z</time></trkpt>
<trkpt lat="50.581902" lon="4.564668"><ele>136.15</ele><time>2025-05-25T17:52:14Z</time></trkpt>
<trkpt lat="50.582093" lon="4.563965"><ele>137.53</ele><time>2025-05-25T17:52:19Z</time></trkpt>
<trkpt lat="50.582215" lon="4.563687"><ele>137.28</ele><time>2025-05-25T17:52:24Z</time></trkpt>
<trkpt lat="50.582315" lon="4.563384"><ele>137.33</ele><time>2025-05-25T17:52:29Z</time></trkpt>
<trkpt lat="50.582381" lon="4.563041"><ele>138.57</ele><time>2025-05-25T17:52:34Z</time></trkpt>
<trkpt lat="50.582611" lon="4.561463"><ele>140.4</ele><time>2025-05-25T17:52:39Z</time></trkpt>
<trkpt lat="50.582696" lon="4.560693"><ele>141.0</ele><time>2025-05-25T17:52:44Z</time></trkpt>
<trkpt lat="50.582649" lon="4.559403"><ele>143.61</ele><time>2025-05-25T17:52:50Z</time></trkpt>
<trkpt lat="50.582662" lon="4.559181"><ele>144.37</ele><time>2025-05-25T17:52:55Z</time></trkpt>
<trkpt lat="50.582711" lon="4.558997"><ele>144.85</ele><time>2025-05-25T17:53:00Z</time></trkpt>
<trkpt lat="50.583351" lon="4.557442"><ele>150.16</ele><time>2025-05-25T17:53:05Z</time></trkpt>
<trkpt lat="50.5834" lon="4.557218"><ele>151.03</ele><time>2025-05-25T17:53:10Z</time></trkpt>
<trkpt lat="50.583622" lon="4.555867"><ele>152.16</ele><time>2025-05-25T17:53:15Z</time></trkpt>
<trkpt lat="50.584198" lon="4.554123"><ele>152.89</ele><time>2025-05-25T17:53:20Z</time></trkpt>
<trkpt lat="50.585328" lon="4.551279"><ele>150.79</ele><time>2025-05-25T17:53:25Z</time></trkpt>
<trkpt lat="50.586075" lon="4.550086"><ele>149.26</ele><time>2025-05-25T17:53:30Z</time></trkpt>
<trkpt lat="50.587198" lon="4.548566"><ele>143.82</ele><time>2025-05-25T17:53:35Z</time></trkpt>
<trkpt lat="50.587633" lon="4.547949"><ele>142.48</ele><time>2025-05-25T17:53:40Z</time></trkpt>
<trkpt lat="50.587885" lon="4.547425"><ele>144.39</ele><time>2025-05-25T17:53:46Z</time></trkpt>
<trkpt lat="50.588033" lon="4.546954"><ele>145.81</ele><time>2025-05-25T17:53:51Z</time></trkpt>
<trkpt lat="50.588098" lon="4.546653"><ele>146.3</ele><time>2025-05-25T17:53:56Z</time></trkpt>
<trkpt lat="50.588338" lon="4.544266"><ele>145.35</ele><time>2025-05-25T17:54:01Z</time></trkpt>
<trkpt lat="50.588427" lon="4.543802"><ele>144.89</ele><time>2025-05-25T17:54:06Z</time></trkpt>
<trkpt lat="50.588787" lon="4.5426"><ele>143.99</ele><time>2025-05-25T17:54:11Z</time></trkpt>
<trkpt lat="50.588978" lon="4.542013"><ele>142.6</ele><time>2025-05-25T17:54:16Z</time></trkpt>
<trkpt lat="50.589201" lon="4.54143"><ele>146.53</ele><time>2025-05-25T17:54:21Z</time></trkpt>
<trkpt lat="50.589633" lon="4.540516"><ele>153.94</ele><time>2025-05-25T17:54:26Z</time></trkpt>
<trkpt lat="50.589661" lon="4.540339"><ele>153.73</ele><time>2025-05-25T17:54:31Z</time></trkpt>
<trkpt lat="50.589672" lon="4.540144"><ele>153.24</ele><time>2025-05-25T17:54:36Z</time></trkpt>
<trkpt lat="50.589656" lon="4.539943"><ele>152.6</ele><time>2025-05-25T17:54:42Z</time></trkpt>
<trkpt lat="50.589604" lon="4.539747"><ele>152.05</ele><time>2025-05-25T17:54:47Z</time></trkpt>
<trkpt lat="50.588808" lon="4.537803"><ele>144.21</ele><time>2025-05-25T17:54:52Z</time></trkpt>
<trkpt lat="50.588077" lon="4.535913"><ele>136.5</ele><time>2025-05-25T17:54:57Z</time></trkpt>
<trkpt lat="50.588096" lon="4.535554"><ele>136.57</ele><time>2025-05-25T17:55:03Z</time></trkpt>
<trkpt lat="50.588733" lon="4.531961"><ele>116.14</ele><time>2025-05-25T17:55:09Z</time></trkpt>
<trkpt lat="50.588761" lon="4.531881"><ele>114.43</ele><time>2025-05-25T17:55:15Z</time></trkpt>
<trkpt lat="50.589037" lon="4.531167"><ele>102.38</ele><time>2025-05-25T17:55:21Z</time></trkpt>
<trkpt lat="50.589088" lon="4.531039"><ele>101.06</ele><time>2025-05-25T17:55:27Z</time></trkpt>
<trkpt lat="50.589285" lon="4.530522"><ele>98.9</ele><time>2025-05-25T17:55:33Z</time></trkpt>
<trkpt lat="50.58929" lon="4.530395"><ele>97.95</ele><time>2025-05-25T17:55:39Z</time></trkpt>
<trkpt lat="50.589353" lon="4.530345"><ele>97.14</ele><time>2025-05-25T17:55:46Z</time></trkpt>
<trkpt lat="50.589647" lon="4.529597"><ele>97.18</ele><time>2025-05-25T17:55:53Z</time></trkpt>
<trkpt lat="50.590123" lon="4.529292"><ele>99.96</ele><time>2025-05-25T17:56:00Z</time></trkpt>
<trkpt lat="50.590165" lon="4.529239"><ele>99.85</ele><time>2025-05-25T17:56:07Z</time></trkpt>
<trkpt lat="50.590261" lon="4.528956"><ele>99.94</ele><time>2025-05-25T17:56:14Z</time></trkpt>
<trkpt lat="50.590312" lon="4.528765"><ele>99.95</ele><time>2025-05-25T17:56:22Z</time></trkpt>
<trkpt lat="50.590674" lon="4.527336"><ele>101.95</ele><time>2025-05-25T17:56:29Z</time></trkpt>
<trkpt lat="50.590781" lon="4.527044"><ele>102.65</ele><time>2025-05-25T17:56:36Z</time></trkpt>
<trkpt lat="50.590702" lon="4.526942"><ele>105.38</ele><time>2025-05-25T17:56:41Z</time></trkpt>
<trkpt lat="50.590668" lon="4.526862"><ele>106.64</ele><time>2025-05-25T17:56:46Z</time></trkpt>
<trkpt lat="50.59052" lon="4.526198"><ele>113.32</ele><time>2025-05-25T17:56:51Z</time></trkpt>
<trkpt lat="50.590361" lon="4.525317"><ele>113.24</ele><time>2025-05-25T17:56:56Z</time></trkpt>
<trkpt lat="50.590342" lon="4.524869"><ele>112.7</ele><time>2025-05-25T17:57:01Z</time></trkpt>
<trkpt lat="50.590381" lon="4.524447"><ele>113.74</ele><time>2025-05-25T17:57:06Z</time></trkpt>
<trkpt lat="50.590514" lon="4.523917"><ele>118.65</ele><time>2025-05-25T17:57:11Z</time></trkpt>
<trkpt lat="50.591011" lon="4.522243"><ele>126.98</ele><time>2025-05-25T17:57:16Z</time></trkpt>
<trkpt lat="50.591221" lon="4.521248"><ele>135.13</ele><time>2025-05-25T17:57:21Z</time></trkpt>
<trkpt lat="50.591431" lon="4.519287"><ele>139.98</ele><time>2025-05-25T17:57:25Z</time></trkpt>
<trkpt lat="50.591935" lon="4.513917"><ele>148.73</ele><time>2025-05-25T17:57:30Z</time></trkpt>
<trkpt lat="50.591952" lon="4.513591"><ele>149.11</ele><time>2025-05-25T17:57:35Z</time></trkpt>
<trkpt lat="50.591695" lon="4.505951"><ele>143.19</ele><time>2025-05-25T17:57:40Z</time></trkpt>
<trkpt lat="50.591659" lon="4.505581"><ele>140.29</ele><time>2025-05-25T17:57:45Z</time></trkpt>
<trkpt lat="50.591595" lon="4.505294"><ele>137.97</ele><time>2025-05-25T17:57:50Z</time></trkpt>
<trkpt lat="50.591492" lon="4.504996"><ele>135.86</ele><time>2025-05-25T17:57:55Z</time></trkpt>
<trkpt lat="50.591307" lon="4.504637"><ele>135.85</ele><time>2025-05-25T17:58:00Z</time></trkpt>
<trkpt lat="50.59077" lon="4.503693"><ele>134.08</ele><time>2025-05-25T17:58:05Z</time></trkpt>
<trkpt lat="50.59022" lon="4.502639"><ele>125.68</ele><time>2025-05-25T17:58:10Z</time></trkpt>
<trkpt lat="50.590166" lon="4.502524"><ele>124.74</ele><time>2025-05-25T17:58:15Z</time></trkpt>
<trkpt lat="50.590073" lon="4.502136"><ele>124.15</ele><time>2025-05-25T17:58:20Z</time></trkpt>
<trkpt lat="50.590108" lon="4.501817"><ele>124.5</ele><time>2025-05-25T17:58:25Z</time></trkpt>
<trkpt lat="50.590197" lon="4.501557"><ele>124.38</ele><time>2025-05-25T17:58:30Z</time></trkpt>
<trkpt lat="50.590381" lon="4.501133"><ele>123.83</ele><time>2025-05-25T17:58:35Z</time></trkpt>
<trkpt lat="50.590998" lon="4.499837"><ele>110.76</ele><time>2025-05-25T17:58:40Z</time></trkpt>
<trkpt lat="50.591246" lon="4.499276"><ele>108.46</ele><time>2025-05-25T17:58:45Z</time></trkpt>
<trkpt lat="50.591339" lon="4.498969"><ele>110.97</ele><time>2025-05-25T17:58:50Z</time></trkpt>
<trkpt lat="50.591421" lon="4.498488"><ele>112.57</ele><time>2025-05-25T17:58:55Z</time></trkpt>
<trkpt lat="50.591432" lon="4.498215"><ele>111.97</ele><time>2025-05-25T17:59:00Z</time></trkpt>
<trkpt lat="50.591421" lon="4.497951"><ele>110.86</ele><time>2025-05-25T17:59:05Z</time></trkpt>
<trkpt lat="50.591315" lon="4.496775"><ele>108.1</ele><time>2025-05-25T17:59:10Z</time></trkpt>
<trkpt lat="50.591228" lon="4.496462"><ele>109.47</ele><time>2025-05-25T17:59:15Z</time></trkpt>
<trkpt lat="50.591122" lon="4.496178"><ele>110.79</ele><time>2025-05-25T17:59:20Z</time></trkpt>
<trkpt lat="50.59079" lon="4.495478"><ele>114.17</ele><time>2025-05-25T17:59:25Z</time></trkpt>
<trkpt lat="50.590647" lon="4.49509"><ele>115.68</ele><time>2025-05-25T17:59:30Z</time></trkpt>
<trkpt lat="50.590544" lon="4.494703"><ele>116.99</ele><time>2025-05-25T17:59:35Z</time></trkpt>
<trkpt lat="50.590509" lon="4.494442"><ele>117.67</ele><time>2025-05-25T17:59:40Z</time></trkpt>
<trkpt lat="50.590484" lon="4.494044"><ele>118.6</ele><time>2025-05-25T17:59:45Z</time></trkpt>
<trkpt lat="50.590514" lon="4.493616"><ele>119.98</ele><time>2025-05-25T17:59:50Z</time></trkpt>
<trkpt lat="50.590584" lon="4.493169"><ele>121.2</ele><time>2025-05-25T17:59:55Z</time></trkpt>
<trkpt lat="50.590674" lon="4.492856"><ele>121.85</ele><time>2025-05-25T17:59:59Z</time></trkpt>
<trkpt lat="50.590806" lon="4.492532"><ele>122.89</ele><time>2025-05-25T18:00:04Z</time></trkpt>
<trkpt lat="50.591844" lon="4.490491"><ele>127.15</ele><time>2025-05-25T18:00:09Z</time></trkpt>
<trkpt lat="50.592024" lon="4.490096"><ele>130.51</ele><time>2025-05-25T18:00:14Z</time></trkpt>
<trkpt lat="50.59216" lon="4.48969"><ele>133.69</ele><time>2025-05-25T18:00:19Z</time></trkpt>
<trkpt lat="50.592272" lon="4.48924"><ele>135.74</ele><time>2025-05-25T18:00:24Z</time></trkpt>
<trkpt lat="50.59236" lon="4.488465"><ele>137.5</ele><time>2025-05-25T18:00:29Z</time></trkpt>
<trkpt lat="50.592404" lon="4.488212"><ele>137.37</ele><time>2025-05-25T18:00:34Z</time></trkpt>
<trkpt lat="50.59256" lon="4.487612"><ele>135.97</ele><time>2025-05-25T18:00:39Z</time></trkpt>
<trkpt lat="50.592602" lon="4.487383"><ele>135.0</ele><time>2025-05-25T18:00:44Z</time></trkpt>
<trkpt lat="50.592716" lon="4.48625"><ele>133.44</ele><time>2025-05-25T18:00:49Z</time></trkpt>
<trkpt lat="50.592824" lon="4.484708"><ele>127.96</ele><time>2025-05-25T18:00:54Z</time></trkpt>
<trkpt lat="50.592931" lon="4.483629"><ele>126.0</ele><time>2025-05-25T18:00:59Z</time></trkpt>
<trkpt lat="50.592985" lon="4.483318"><ele>126.0</ele><time>2025-05-25T18:01:04Z</time></trkpt>
<trkpt lat="50.593072" lon="4.482963"><ele>125.94</ele><time>2025-05-25T18:01:09Z</time></trkpt>
<trkpt lat="50.593199" lon="4.482533"><ele>125.48</ele><time>2025-05-25T18:01:14Z</time></trkpt>
<trkpt lat="50.593444" lon="4.481945"><ele>124.0</ele><time>2025-05-25T18:01:19Z</time></trkpt>
<trkpt lat="50.593781" lon="4.481398"><ele>124.99</ele><time>2025-05-25T18:01:24Z</time></trkpt>
<trkpt lat="50.594052" lon="4.480782"><ele>122.64</ele><time>2025-05-25T18:01:29Z</time></trkpt>
<trkpt lat="50.594455" lon="4.479689"><ele>117.81</ele><time>2025-05-25T18:01:34Z</time></trkpt>
<trkpt lat="50.594898" lon="4.478625"><ele>114.98</ele><time>2025-05-25T18:01:39Z</time></trkpt>
<trkpt lat="50.595324" lon="4.477863"><ele>112.59</ele><time>2025-05-25T18:01:44Z</time></trkpt>
<trkpt lat="50.595382" lon="4.477911"><ele>113.05</ele><time>2025-05-25T18:01:47Z</time></trkpt>
<trkpt lat="50.595465" lon="4.477894"><ele>113.48</ele><time>2025-05-25T18:01:50Z</time></trkpt>
<trkpt lat="50.595522" lon="4.47781"><ele>113.77</ele><time>2025-05-25T18:01:53Z</time></trkpt>
<trkpt lat="50.595536" lon="4.477751"><ele>113.76</ele><time>2025-05-25T18:01:56Z</time></trkpt>
<trkpt lat="50.595539" lon="4.477689"><ele>113.56</ele><time>2025-05-25T18:01:59Z</time></trkpt>
<trkpt lat="50.595519" lon="4.477601"><ele>113.1</ele><time>2025-05-25T18:02:01Z</time></trkpt>
<trkpt lat="50.595921" lon="4.477114"><ele>115.17</ele><time>2025-05-25T18:02:04Z</time></trkpt>
<trkpt lat="50.596897" lon="4.476152"><ele>121.68</ele><time>2025-05-25T18:02:07Z</time></trkpt>
<trkpt lat="50.597041" lon="4.47595"><ele>122.93</ele><time>2025-05-25T18:02:10Z</time></trkpt>
<trkpt lat="50.597104" lon="4.475824"><ele>123.59</ele><time>2025-05-25T18:02:13Z</time></trkpt>
<trkpt lat="50.597158" lon="4.47585"><ele>123.71</ele><time>2025-05-25T18:02:20Z</time></trkpt>
<trkpt lat="50.597211" lon="4.475821"><ele>123.96</ele><time>2025-05-25T18:02:26Z</time></trkpt>
<trkpt lat="50.597243" lon="4.475747"><ele>124.0</ele><time>2025-05-25T18:02:32Z</time></trkpt>
<trkpt lat="50.59724" lon="4.475658"><ele>124.0</ele><time>2025-05-25T18:02:39Z</time></trkpt>
<trkpt lat="50.597326" lon="4.475551"><ele>124.01</ele><time>2025-05-25T18:02:45Z</time></trkpt>
<trkpt lat="50.597424" lon="4.475343"><ele>124.56</ele><time>2025-05-25T18:02:51Z</time></trkpt>
<trkpt lat="50.597511" lon="4.475085"><ele>124.99</ele><time>2025-05-25T18:02:58Z</time></trkpt>
<trkpt lat="50.597564" lon="4.474842"><ele>124.69</ele><time>2025-05-25T18:03:04Z</time></trkpt>
<trkpt lat="50.597783" lon="4.473345"><ele>128.98</ele><time>2025-05-25T18:03:11Z</time></trkpt>
<trkpt lat="50.597888" lon="4.472796"><ele>129.6</ele><time>2025-05-25T18:03:17Z</time></trkpt>
<trkpt lat="50.598209" lon="4.471746"><ele>128.55</ele><time>2025-05-25T18:03:23Z</time></trkpt>
<trkpt lat="50.599114" lon="4.469303"><ele>129.29</ele><time>2025-05-25T18:03:30Z</time></trkpt>
<trkpt lat="50.599415" lon="4.468428"><ele>127.21</ele><time>2025-05-25T18:03:36Z</time></trkpt>
<trkpt lat="50.599527" lon="4.468081"><ele>126.94</ele><time>2025-05-25T18:03:42Z</time></trkpt>
<trkpt lat="50.60026" lon="4.465536"><ele>128.06</ele><time>2025-05-25T18:03:49Z</time></trkpt>
<trkpt lat="50.600591" lon="4.464804"><ele>128.7</ele><time>2025-05-25T18:03:55Z</time></trkpt>
<trkpt lat="50.600964" lon="4.464185"><ele>128.03</ele><time>2025-05-25T18:04:02Z</time></trkpt>
<trkpt lat="50.601924" lon="4.462711"><ele>133.18</ele><time>2025-05-25T18:04:08Z</time></trkpt>
<trkpt lat="50.60257" lon="4.461576"><ele>134.07</ele><time>2025-05-25T18:04:14Z</time></trkpt>
<trkpt lat="50.603665" lon="4.459115"><ele>130.81</ele><time>2025-05-25T18:04:21Z</time></trkpt>
<trkpt lat="50.603949" lon="4.458737"><ele>129.88</ele><time>2025-05-25T18:04:27Z</time></trkpt>
<trkpt lat="50.604019" lon="4.458711"><ele>129.7</ele><time>2025-05-25T18:04:33Z</time></trkpt>
<trkpt lat="50.604068" lon="4.458646"><ele>129.44</ele><time>2025-05-25T18:04:39Z</time></trkpt>
<trkpt lat="50.604096" lon="4.458524"><ele>129.25</ele><time>2025-05-25T18:04:45Z</time></trkpt>
<trkpt lat="50.604078" lon="4.458398"><ele>129.32</ele><time>2025-05-25T18:04:51Z</time></trkpt>
<trkpt lat="50.60398" lon="4.458287"><ele>129.62</ele><time>2025-05-25T18:04:57Z</time></trkpt>
<trkpt lat="50.603931" lon="4.458286"><ele>129.82</ele><time>2025-05-25T18:05:03Z</time></trkpt>
<trkpt lat="50.603846" lon="4.458357"><ele>130.31</ele><time>2025-05-25T18:05:09Z</time></trkpt>
<trkpt lat="50.603726" lon="4.458373"><ele>131.17</ele><time>2025-05-25T18:05:15Z</time></trkpt>
<trkpt lat="50.603081" lon="4.458356"><ele>132.09</ele><time>2025-05-25T18:05:21Z</time></trkpt>
<trkpt lat="50.596394" lon="4.457559"><ele>140.17</ele><time>2025-05-25T18:05:27Z</time></trkpt>
<trkpt lat="50.595848" lon="4.457522"><ele>139.13</ele><time>2025-05-25T18:05:33Z</time></trkpt>
<trkpt lat="50.595745" lon="4.457296"><ele>139.0</ele><time>2025-05-25T18:05:34Z</time></trkpt>
<trkpt lat="50.59569" lon="4.456686"><ele>137.07</ele><time>2025-05-25T18:05:37Z</time></trkpt>
<trkpt lat="50.595702" lon="4.4562"><ele>136.0</ele><time>2025-05-25T18:05:39Z</time></trkpt>
<trkpt lat="50.595799" lon="4.455768"><ele>135.0</ele><time>2025-05-25T18:05:41Z</time></trkpt>
<trkpt lat="50.596119" lon="4.454571"><ele>130.43</ele><time>2025-05-25T18:05:44Z</time></trkpt>
<trkpt lat="50.5963" lon="4.454163"><ele>128.32</ele><time>2025-05-25T18:05:46Z</time></trkpt>
<trkpt lat="50.596456" lon="4.453877"><ele>128.23</ele><time>2025-05-25T18:05:48Z</time></trkpt>
<trkpt lat="50.596715" lon="4.453544"><ele>128.17</ele><time>2025-05-25T18:05:50Z</time></trkpt>
<trkpt lat="50.597072" lon="4.453172"><ele>128.1</ele><time>2025-05-25T18:05:53Z</time></trkpt>
<trkpt lat="50.597343" lon="4.453"><ele>126.93</ele><time>2025-05-25T18:05:55Z</time></trkpt>
<trkpt lat="50.597624" lon="4.452883"><ele>124.04</ele><time>2025-05-25T18:05:57Z</time></trkpt>
<trkpt lat="50.598833" lon="4.452512"><ele>123.29</ele><time>2025-05-25T18:06:00Z</time></trkpt>
<trkpt lat="50.599112" lon="4.452356"><ele>121.16</ele><time>2025-05-25T18:06:02Z</time></trkpt>
<trkpt lat="50.599349" lon="4.452171"><ele>120.72</ele><time>2025-05-25T18:06:04Z</time></trkpt>
<trkpt lat="50.599587" lon="4.451924"><ele>121.51</ele><time>2025-05-25T18:06:06Z</time></trkpt>
<trkpt lat="50.599782" lon="4.451677"><ele>121.79</ele><time>2025-05-25T18:06:09Z</time></trkpt>
<trkpt lat="50.599973" lon="4.451352"><ele>120.19</ele><time>2025-05-25T18:06:11Z</time></trkpt>
<trkpt lat="50.600185" lon="4.450892"><ele>118.54</ele><time>2025-05-25T18:06:13Z</time></trkpt>
<trkpt lat="50.600323" lon="4.450497"><ele>118.31</ele><time>2025-05-25T18:06:16Z</time></trkpt>
<trkpt lat="50.600679" lon="4.449078"><ele>115.08</ele><time>2025-05-25T18:06:18Z</time></trkpt>
<trkpt lat="50.600752" lon="4.448723"><ele>112.86</ele><time>2025-05-25T18:06:20Z</time></trkpt>
<trkpt lat="50.600785" lon="4.448368"><ele>111.86</ele><time>2025-05-25T18:06:22Z</time></trkpt>
<trkpt lat="50.60079" lon="4.447944"><ele>110.56</ele><time>2025-05-25T18:06:25Z</time></trkpt>
<trkpt lat="50.600768" lon="4.447515"><ele>110.98</ele><time>2025-05-25T18:06:27Z</time></trkpt>
<trkpt lat="50.6007" lon="4.447124"><ele>110.52</ele><time>2025-05-25T18:06:29Z</time></trkpt>
<trkpt lat="50.600427" lon="4.445841"><ele>107.55</ele><time>2025-05-25T18:06:32Z</time></trkpt>
<trkpt lat="50.600417" lon="4.445436"><ele>108.36</ele><time>2025-05-25T18:06:34Z</time></trkpt>
<trkpt lat="50.600466" lon="4.445429"><ele>108.59</ele><time>2025-05-25T18:06:39Z</time></trkpt>
<trkpt lat="50.600554" lon="4.445338"><ele>109.56</ele><time>2025-05-25T18:06:44Z</time></trkpt>
<trkpt lat="50.600579" lon="4.445263"><ele>109.96</ele><time>2025-05-25T18:06:49Z</time></trkpt>
<trkpt lat="50.60058" lon="4.445114"><ele>110.45</ele><time>2025-05-25T18:06:54Z</time></trkpt>
<trkpt lat="50.600559" lon="4.445045"><ele>110.82</ele><time>2025-05-25T18:06:59Z</time></trkpt>
<trkpt lat="50.600493" lon="4.444959"><ele>111.07</ele><time>2025-05-25T18:07:05Z</time></trkpt>
<trkpt lat="50.600396" lon="4.444943"><ele>110.84</ele><time>2025-05-25T18:07:10Z</time></trkpt>
<trkpt lat="50.600326" lon="4.444997"><ele>110.2</ele><time>2025-05-25T18:07:15Z</time></trkpt>
<trkpt lat="50.600277" lon="4.445114"><ele>109.58</ele><time>2025-05-25T18:07:20Z</time></trkpt>
<trkpt lat="50.60027" lon="4.445211"><ele>109.15</ele><time>2025-05-25T18:07:25Z</time></trkpt>
<trkpt lat="50.599996" lon="4.445235"><ele>105.98</ele><time>2025-05-25T18:07:30Z</time></trkpt>
<trkpt lat="50.59941" lon="4.445093"><ele>105.45</ele><time>2025-05-25T18:07:35Z</time></trkpt>
<trkpt lat="50.597789" lon="4.444625"><ele>110.61</ele><time>2025-05-25T18:07:40Z</time></trkpt>
<trkpt lat="50.597099" lon="4.44446"><ele>108.47</ele><time>2025-05-25T18:07:45Z</time></trkpt>
<trkpt lat="50.595825" lon="4.44408"><ele>112.0</ele><time>2025-05-25T18:07:50Z</time></trkpt>
<trkpt lat="50.59538" lon="4.443848"><ele>112.78</ele><time>2025-05-25T18:07:56Z</time></trkpt>
<trkpt lat="50.595052" lon="4.443532"><ele>115.63</ele><time>2025-05-25T18:08:01Z</time></trkpt>
<trkpt lat="50.593795" lon="4.442148"><ele>119.07</ele><time>2025-05-25T18:08:06Z</time></trkpt>
<trkpt lat="50.593298" lon="4.441555"><ele>119.78</ele><time>2025-05-25T18:08:11Z</time></trkpt>
<trkpt lat="50.592232" lon="4.439953"><ele>122.8</ele><time>2025-05-25T18:08:16Z</time></trkpt>
<trkpt lat="50.591704" lon="4.43931"><ele>122.51</ele><time>2025-05-25T18:08:21Z</time></trkpt>
<trkpt lat="50.591041" lon="4.438636"><ele>121.07</ele><time>2025-05-25T18:08:26Z</time></trkpt>
<trkpt lat="50.591084" lon="4.438466"><ele>120.53</ele><time>2025-05-25T18:08:35Z</time></trkpt>
<trkpt lat="50.591083" lon="4.438099"><ele>118.41</ele><time>2025-05-25T18:08:44Z</time></trkpt>
<trkpt lat="50.590938" lon="4.436303"><ele>115.25</ele><time>2025-05-25T18:08:52Z</time></trkpt>
<trkpt lat="50.590833" lon="4.435602"><ele>115.0</ele><time>2025-05-25T18:09:01Z</time></trkpt>
<trkpt lat="50.590671" lon="4.434996"><ele>115.6</ele><time>2025-05-25T18:09:10Z</time></trkpt>
<trkpt lat="50.590458" lon="4.434406"><ele>118.14</ele><time>2025-05-25T18:09:18Z</time></trkpt>
<trkpt lat="50.589793" lon="4.433078"><ele>125.77</ele><time>2025-05-25T18:09:27Z</time></trkpt>
<trkpt lat="50.589265" lon="4.432066"><ele>129.08</ele><time>2025-05-25T18:09:36Z</time></trkpt>
<trkpt lat="50.588836" lon="4.431309"><ele>133.57</ele><time>2025-05-25T18:09:45Z</time></trkpt>
<trkpt lat="50.588464" lon="4.430813"><ele>134.43</ele><time>2025-05-25T18:09:53Z</time></trkpt>
<trkpt lat="50.586968" lon="4.429122"><ele>138.83</ele><time>2025-05-25T18:10:02Z</time></trkpt>
<trkpt lat="50.586667" lon="4.428709"><ele>139.0</ele><time>2025-05-25T18:10:11Z</time></trkpt>
<trkpt lat="50.586379" lon="4.428214"><ele>139.63</ele><time>2025-05-25T18:10:19Z</time></trkpt>
<trkpt lat="50.586132" lon="4.42771"><ele>138.66</ele><time>2025-05-25T18:10:28Z</time></trkpt>
<trkpt lat="50.585513" lon="4.426308"><ele>141.0</ele><time>2025-05-25T18:10:37Z</time></trkpt>
<trkpt lat="50.585303" lon="4.425704"><ele>140.0</ele><time>2025-05-25T18:10:46Z</time></trkpt>
<trkpt lat="50.585088" lon="4.424971"><ele>139.53</ele><time>2025-05-25T18:10:54Z</time></trkpt>
<trkpt lat="50.58428" lon="4.42072"><ele>138.76</ele><time>2025-05-25T18:11:03Z</time></trkpt>
<trkpt lat="50.584062" lon="4.419891"><ele>141.39</ele><time>2025-05-25T18:11:12Z</time></trkpt>
<trkpt lat="50.583951" lon="4.419539"><ele>143.07</ele><time>2025-05-25T18:11:20Z</time></trkpt>
<trkpt lat="50.583807" lon="4.419193"><ele>142.1</ele><time>2025-05-25T18:11:29Z</time></trkpt>
<trkpt lat="50.583643" lon="4.418873"><ele>140.95</ele><time>2025-05-25T18:11:38Z</time></trkpt>
<trkpt lat="50.583227" lon="4.418243"><ele>140.29</ele><time>2025-05-25T18:11:46Z</time></trkpt>
<trkpt lat="50.582372" lon="4.417012"><ele>138.76</ele><time>2025-05-25T18:11:55Z</time></trkpt>
<trkpt lat="50.582346" lon="4.416908"><ele>138.6</ele><time>2025-05-25T18:12:04Z</time></trkpt>
<trkpt lat="50.582301" lon="4.416458"><ele>137.79</ele><time>2025-05-25T18:12:13Z</time></trkpt>
<trkpt lat="50.582236" lon="4.41632"><ele>137.66</ele><time>2025-05-25T18:12:21Z</time></trkpt>
<trkpt lat="50.581423" lon="4.415828"><ele>135.0</ele><time>2025-05-25T18:12:30Z</time></trkpt>
<trkpt lat="50.581352" lon="4.415475"><ele>134.71</ele><time>2025-05-25T18:12:33Z</time></trkpt>
<trkpt lat="50.581274" lon="4.415464"><ele>134.67</ele><time>2025-05-25T18:12:44Z</time></trkpt>
<trkpt lat="50.580176" lon="4.415022"><ele>135.71</ele><time>2025-05-25T18:12:55Z</time></trkpt>
<trkpt lat="50.580046" lon="4.414993"><ele>135.12</ele><time>2025-05-25T18:13:06Z</time></trkpt>
<trkpt lat="50.57978" lon="4.414987"><ele>134.15</ele><time>2025-05-25T18:13:17Z</time></trkpt>
<trkpt lat="50.579292" lon="4.415159"><ele>134.02</ele><time>2025-05-25T18:13:28Z</time></trkpt>
<trkpt lat="50.579134" lon="4.415248"><ele>133.79</ele><time>2025-05-25T18:13:40Z</time></trkpt>
<trkpt lat="50.578935" lon="4.415418"><ele>133.67</ele><time>2025-05-25T18:13:51Z</time></trkpt>
<trkpt lat="50.57703" lon="4.417295"><ele>139.57</ele><time>2025-05-25T18:14:02Z</time></trkpt>
<trkpt lat="50.574826" lon="4.418753"><ele>143.51</ele><time>2025-05-25T18:14:13Z</time></trkpt>
<trkpt lat="50.573002" lon="4.419539"><ele>147.66</ele><time>2025-05-25T18:14:24Z</time></trkpt>
<trkpt lat="50.572628" lon="4.419681"><ele>149.54</ele><time>2025-05-25T18:14:35Z</time></trkpt>
<trkpt lat="50.572426" lon="4.419689"><ele>150.27</ele><time>2025-05-25T18:14:46Z</time></trkpt>
<trkpt lat="50.568699" lon="4.418556"><ele>150.86</ele><time>2025-05-25T18:14:57Z</time></trkpt>
<trkpt lat="50.567803" lon="4.418235"><ele>148.55</ele><time>2025-05-25T18:15:08Z</time></trkpt>
<trkpt lat="50.567008" lon="4.418032"><ele>148.16</ele><time>2025-05-25T18:15:19Z</time></trkpt>
<trkpt lat="50.56504" lon="4.417388"><ele>153.0</ele><time>2025-05-25T18:15:30Z</time></trkpt>
<trkpt lat="50.564582" lon="4.417052"><ele>153.61</ele><time>2025-05-25T18:15:41Z</time></trkpt>
<trkpt lat="50.561625" lon="4.415053"><ele>157.85</ele><time>2025-05-25T18:15:52Z</time></trkpt>
<trkpt lat="50.560924" lon="4.414685"><ele>156.67</ele><time>2025-05-25T18:16:03Z</time></trkpt>
<trkpt lat="50.55844" lon="4.41358"><ele>163.61</ele><time>2025-05-25T18:16:15Z</time></trkpt>
<trkpt lat="50.557328" lon="4.413151"><ele>161.35</ele><time>2025-05-25T18:16:26Z</time></trkpt>
<trkpt lat="50.555571" lon="4.412198"><ele>156.99</ele><time>2025-05-25T18:16:37Z</time></trkpt>
<trkpt lat="50.554658" lon="4.411757"><ele>158.46</ele><time>2025-05-25T18:16:48Z</time></trkpt>
<trkpt lat="50.554269" lon="4.411607"><ele>159.79</ele><time>2025-05-25T18:16:59Z</time></trkpt>
<trkpt lat="50.55426" lon="4.411282"><ele>158.61</ele><time>2025-05-25T18:17:04Z</time></trkpt>
<trkpt lat="50.554304" lon="4.410488"><ele>155.63</ele><time>2025-05-25T18:17:10Z</time></trkpt>
<trkpt lat="50.554119" lon="4.40872"><ele>154.39</ele><time>2025-05-25T18:17:16Z</time></trkpt>
<trkpt lat="50.553921" lon="4.407386"><ele>153.0</ele><time>2025-05-25T18:17:21Z</time></trkpt>
<trkpt lat="50.553731" lon="4.406797"><ele>152.0</ele><time>2025-05-25T18:17:27Z</time></trkpt>
<trkpt lat="50.550348" lon="4.398958"><ele>148.51</ele><time>2025-05-25T18:17:33Z</time></trkpt>
<trkpt lat="50.5503" lon="4.398691"><ele>148.1</ele><time>2025-05-25T18:17:38Z</time></trkpt>
<trkpt lat="50.550318" lon="4.39848"><ele>148.07</ele><time>2025-05-25T18:17:44Z</time></trkpt>
<trkpt lat="50.551161" lon="4.395768"><ele>145.82</ele><time>2025-05-25T18:17:50Z</time></trkpt>
<trkpt lat="50.551202" lon="4.39556"><ele>145.67</ele><time>2025-05-25T18:17:55Z</time></trkpt>
<trkpt lat="50.5512" lon="4.395327"><ele>145.68</ele><time>2025-05-25T18:18:01Z</time></trkpt>
<trkpt lat="50.551156" lon="4.395057"><ele>145.84</ele><time>2025-05-25T18:18:07Z</time></trkpt>
<trkpt lat="50.551047" lon="4.394724"><ele>145.01</ele><time>2025-05-25T18:18:12Z</time></trkpt>
<trkpt lat="50.551397" lon="4.39437"><ele>144.72</ele><time>2025-05-25T18:18:20Z</time></trkpt>
<trkpt lat="50.551798" lon="4.394019"><ele>145.25</ele><time>2025-05-25T18:18:27Z</time></trkpt>
<trkpt lat="50.551963" lon="4.393827"><ele>146.22</ele><time>2025-05-25T18:18:35Z</time></trkpt>
<trkpt lat="50.552033" lon="4.393651"><ele>146.86</ele><time>2025-05-25T18:18:42Z</time></trkpt>
<trkpt lat="50.552055" lon="4.393468"><ele>147.51</ele><time>2025-05-25T18:18:50Z</time></trkpt>
<trkpt lat="50.551982" lon="4.387787"><ele>149.0</ele><time>2025-05-25T18:18:57Z</time></trkpt>
<trkpt lat="50.551894" lon="4.386699"><ele>149.0</ele><time>2025-05-25T18:19:05Z</time></trkpt>
<trkpt lat="50.551791" lon="4.38616"><ele>148.0</ele><time>2025-05-25T18:19:12Z</time></trkpt>
<trkpt lat="50.5516" lon="4.385481"><ele>147.49</ele><time>2025-05-25T18:19:20Z</time></trkpt>
<trkpt lat="50.551253" lon="4.384637"><ele>147.64</ele><time>2025-05-25T18:19:27Z</time></trkpt>
<trkpt lat="50.550768" lon="4.383539"><ele>146.8</ele><time>2025-05-25T18:19:35Z</time></trkpt>
<trkpt lat="50.550032" lon="4.381794"><ele>149.88</ele><time>2025-05-25T18:19:42Z</time></trkpt>
<trkpt lat="50.54746" lon="4.375923"><ele>149.9</ele><time>2025-05-25T18:19:50Z</time></trkpt>
<trkpt lat="50.547209" lon="4.375378"><ele>148.39</ele><time>2025-05-25T18:19:57Z</time></trkpt>
<trkpt lat="50.547256" lon="4.375256"><ele>148.11</ele><time>2025-05-25T18:20:05Z</time></trkpt>
<trkpt lat="50.547254" lon="4.375184"><ele>148.08</ele><time>2025-05-25T18:20:12Z</time></trkpt>
<trkpt lat="50.5482" lon="4.374851"><ele>148.46</ele><time>2025-05-25T18:20:19Z</time></trkpt>
<trkpt lat="50.548318" lon="4.37479"><ele>148.24</ele><time>2025-05-25T18:20:27Z</time></trkpt>
<trkpt lat="50.548698" lon="4.374493"><ele>149.31</ele><time>2025-05-25T18:20:34Z</time></trkpt>
<trkpt lat="50.550045" lon="4.373274"><ele>151.96</ele><time>2025-05-25T18:20:41Z</time></trkpt>
<trkpt lat="50.550514" lon="4.372811"><ele>151.0</ele><time>2025-05-25T18:20:49Z</time></trkpt>
<trkpt lat="50.550743" lon="4.372442"><ele>149.11</ele><time>2025-05-25T18:20:56Z</time></trkpt>
<trkpt lat="50.551223" lon="4.371549"><ele>146.0</ele><time>2025-05-25T18:21:04Z</time></trkpt>
<trkpt lat="50.552019" lon="4.370133"><ele>143.48</ele><time>2025-05-25T18:21:11Z</time></trkpt>
<trkpt lat="50.552262" lon="4.369797"><ele>141.93</ele><time>2025-05-25T18:21:18Z</time></trkpt>
<trkpt lat="50.552958" lon="4.369101"><ele>142.76</ele><time>2025-05-25T18:21:26Z</time></trkpt>
<trkpt lat="50.555461" lon="4.366794"><ele>144.81</ele><time>2025-05-25T18:21:33Z</time></trkpt>
<trkpt lat="50.555657" lon="4.366631"><ele>144.92</ele><time>2025-05-25T18:21:40Z</time></trkpt>
<trkpt lat="50.555897" lon="4.366519"><ele>145.34</ele><time>2025-05-25T18:21:48Z</time></trkpt>
<trkpt lat="50.55618" lon="4.366451"><ele>146.22</ele><time>2025-05-25T18:21:55Z</time></trkpt>
<trkpt lat="50.556397" lon="4.366334"><ele>145.97</ele><time>2025-05-25T18:22:02Z</time></trkpt>
<trkpt lat="50.556611" lon="4.366116"><ele>145.2</ele><time>2025-05-25T18:22:10Z</time></trkpt>
<trkpt lat="50.558258" lon="4.363524"><ele>148.0</ele><time>2025-05-25T18:22:17Z</time></trkpt>
<trkpt lat="50.558776" lon="4.362751"><ele>149.69</ele><time>2025-05-25T18:22:25Z</time></trkpt>
<trkpt lat="50.561006" lon="4.360132"><ele>151.8</ele><time>2025-05-25T18:22:32Z</time></trkpt>
<trkpt lat="50.561295" lon="4.359567"><ele>152.66</ele><time>2025-05-25T18:22:39Z</time></trkpt>
<trkpt lat="50.561971" lon="4.358108"><ele>154.28</ele><time>2025-05-25T18:22:47Z</time></trkpt>
<trkpt lat="50.562178" lon="4.35773"><ele>153.85</ele><time>2025-05-25T18:22:54Z</time></trkpt>
<trkpt lat="50.562352" lon="4.357533"><ele>153.12</ele><time>2025-05-25T18:23:01Z</time></trkpt>
<trkpt lat="50.564901" lon="4.355178"><ele>160.87</ele><time>2025-05-25T18:23:09Z</time></trkpt>
<trkpt lat="50.564901" lon="4.355028"><ele>160.68</ele><time>2025-05-25T18:23:14Z</time></trkpt>
<trkpt lat="50.565198" lon="4.35389"><ele>162.71</ele><time>2025-05-25T18:23:18Z</time></trkpt>
<trkpt lat="50.565216" lon="4.353729"><ele>162.2</ele><time>2025-05-25T18:23:23Z</time></trkpt>
<trkpt lat="50.565211" lon="4.353478"><ele>161.4</ele><time>2025-05-25T18:23:28Z</time></trkpt>
<trkpt lat="50.565111" lon="4.3529"><ele>161.6</ele><time>2025-05-25T18:23:33Z</time></trkpt>
<trkpt lat="50.564993" lon="4.352529"><ele>162.94</ele><time>2025-05-25T18:23:38Z</time></trkpt>
<trkpt lat="50.564734" lon="4.351831"><ele>163.96</ele><time>2025-05-25T18:23:42Z</time></trkpt>
<trkpt lat="50.564659" lon="4.351471"><ele>164.16</ele><time>2025-05-25T18:23:47Z</time></trkpt>
<trkpt lat="50.56455" lon="4.350731"><ele>165.24</ele><time>2025-05-25T18:23:52Z</time></trkpt>
<trkpt lat="50.564527" lon="4.35042"><ele>165.55</ele><time>2025-05-25T18:23:57Z</time></trkpt>
<trkpt lat="50.564526" lon="4.350152"><ele>165.7</ele><time>2025-05-25T18:24:02Z</time></trkpt>
<trkpt lat="50.564571" lon="4.349858"><ele>165.27</ele><time>2025-05-25T18:24:06Z</time></trkpt>
<trkpt lat="50.564834" lon="4.349092"><ele>162.68</ele><time>2025-05-25T18:24:11Z</time></trkpt>
<trkpt lat="50.564958" lon="4.348675"><ele>162.16</ele><time>2025-05-25T18:24:16Z</time></trkpt>
<trkpt lat="50.565065" lon="4.348172"><ele>162.1</ele><time>2025-05-25T18:24:21Z</time></trkpt>
<trkpt lat="50.565318" lon="4.347118"><ele>159.48</ele><time>2025-05-25T18:24:26Z</time></trkpt>
<trkpt lat="50.565359" lon="4.346527"><ele>158.35</ele><time>2025-05-25T18:24:30Z</time></trkpt>
<trkpt lat="50.565327" lon="4.345971"><ele>158.0</ele><time>2025-05-25T18:24:35Z</time></trkpt>
<trkpt lat="50.566668" lon="4.344451"><ele>159.0</ele><time>2025-05-25T18:24:45Z</time></trkpt>
<trkpt lat="50.567437" lon="4.343686"><ele>157.73</ele><time>2025-05-25T18:24:55Z</time></trkpt>
<trkpt lat="50.567719" lon="4.343281"><ele>162.19</ele><time>2025-05-25T18:25:05Z</time></trkpt>
<trkpt lat="50.568034" lon="4.342898"><ele>163.92</ele><time>2025-05-25T18:25:15Z</time></trkpt>
<trkpt lat="50.568502" lon="4.342473"><ele>160.39</ele><time>2025-05-25T18:25:25Z</time></trkpt>
<trkpt lat="50.569419" lon="4.341972"><ele>161.91</ele><time>2025-05-25T18:25:35Z</time></trkpt>
<trkpt lat="50.570217" lon="4.341692"><ele>166.94</ele><time>2025-05-25T18:25:45Z</time></trkpt>
<trkpt lat="50.571467" lon="4.341061"><ele>164.98</ele><time>2025-05-25T18:25:54Z</time></trkpt>
<trkpt lat="50.572501" lon="4.340447"><ele>166.16</ele><time>2025-05-25T18:26:04Z</time></trkpt>
<trkpt lat="50.572902" lon="4.339958"><ele>163.16</ele><time>2025-05-25T18:26:14Z</time></trkpt>
<trkpt lat="50.572556" lon="4.338805"><ele>159.4</ele><time>2025-05-25T18:26:29Z</time></trkpt>
<trkpt lat="50.572502" lon="4.338775"><ele>159.75</ele><time>2025-05-25T18:26:43Z</time></trkpt>
<trkpt lat="50.572192" lon="4.338842"><ele>161.71</ele><time>2025-05-25T18:26:58Z</time></trkpt>
<trkpt lat="50.572124" lon="4.338791"><ele>161.65</ele><time>2025-05-25T18:27:12Z</time></trkpt>
<trkpt lat="50.571745" lon="4.337681"><ele>159.81</ele><time>2025-05-25T18:27:27Z</time></trkpt>
<trkpt lat="50.570073" lon="4.331401"><ele>160.95</ele><time>2025-05-25T18:27:41Z</time></trkpt>
<trkpt lat="50.569747" lon="4.328748"><ele>159.95</ele><time>2025-05-25T18:27:56Z</time></trkpt>
<trkpt lat="50.569644" lon="4.327707"><ele>157.96</ele><time>2025-05-25T18:28:10Z</time></trkpt>
<trkpt lat="50.569967" lon="4.323696"><ele>154.58</ele><time>2025-05-25T18:28:25Z</time></trkpt>
<trkpt lat="50.568964" lon="4.323524"><ele>153.0</ele><time>2025-05-25T18:28:33Z</time></trkpt>
<trkpt lat="50.568829" lon="4.323527"><ele>153.0</ele><time>2025-05-25T18:28:42Z</time></trkpt>
<trkpt lat="50.567192" lon="4.323807"><ele>151.84</ele><time>2025-05-25T18:28:51Z</time></trkpt>
<trkpt lat="50.566299" lon="4.323867"><ele>150.97</ele><time>2025-05-25T18:28:59Z</time></trkpt>
<trkpt lat="50.564303" lon="4.323919"><ele>154.49</ele><time>2025-05-25T18:29:08Z</time></trkpt>
<trkpt lat="50.563268" lon="4.323793"><ele>147.87</ele><time>2025-05-25T18:29:17Z</time></trkpt>
<trkpt lat="50.56153" lon="4.323495"><ele>138.51</ele><time>2025-05-25T18:29:26Z</time></trkpt>
<trkpt lat="50.560104" lon="4.323278"><ele>135.57</ele><time>2025-05-25T18:29:34Z</time></trkpt>
<trkpt lat="50.559858" lon="4.322772"><ele>136.01</ele><time>2025-05-25T18:29:41Z</time></trkpt>
<trkpt lat="50.559748" lon="4.322609"><ele>136.05</ele><time>2025-05-25T18:29:49Z</time></trkpt>
<trkpt lat="50.5596" lon="4.322127"><ele>135.41</ele><time>2025-05-25T18:29:56Z</time></trkpt>
<trkpt lat="50.559582" lon="4.322014"><ele>135.12</ele><time>2025-05-25T18:30:03Z</time></trkpt>
<trkpt lat="50.559639" lon="4.321442"><ele>134.59</ele><time>2025-05-25T18:30:10Z</time></trkpt>
<trkpt lat="50.55981" lon="4.320754"><ele>133.54</ele><time>2025-05-25T18:30:17Z</time></trkpt>
<trkpt lat="50.560222" lon="4.319788"><ele>136.95</ele><time>2025-05-25T18:30:24Z</time></trkpt>
<trkpt lat="50.560461" lon="4.319315"><ele>137.66</ele><time>2025-05-25T18:30:32Z</time></trkpt>
<trkpt lat="50.560967" lon="4.318644"><ele>140.36</ele><time>2025-05-25T18:30:39Z</time></trkpt>
<trkpt lat="50.561119" lon="4.318471"><ele>141.0</ele><time>2025-05-25T18:30:46Z</time></trkpt>
<trkpt lat="50.561228" lon="4.318237"><ele>141.35</ele><time>2025-05-25T18:30:53Z</time></trkpt>
<trkpt lat="50.561305" lon="4.317874"><ele>142.0</ele><time>2025-05-25T18:31:00Z</time></trkpt>
<trkpt lat="50.561329" lon="4.317697"><ele>142.58</ele><time>2025-05-25T18:31:07Z</time></trkpt>
<trkpt lat="50.561327" lon="4.317303"><ele>144.71</ele><time>2025-05-25T18:31:15Z</time></trkpt>
<trkpt lat="50.561201" lon="4.316407"><ele>149.29</ele><time>2025-05-25T18:31:22Z</time></trkpt>
<trkpt lat="50.561143" lon="4.315887"><ele>148.96</ele><time>2025-05-25T18:31:29Z</time></trkpt>
<trkpt lat="50.561129" lon="4.315539"><ele>148.81</ele><time>2025-05-25T18:31:36Z</time></trkpt>
<trkpt lat="50.561109" lon="4.313083"><ele>147.19</ele><time>2025-05-25T18:31:43Z</time></trkpt>
<trkpt lat="50.56113" lon="4.311552"><ele>146.59</ele><time>2025-05-25T18:31:50Z</time></trkpt>
<trkpt lat="50.561147" lon="4.311216"><ele>145.92</ele><time>2025-05-25T18:31:58Z</time></trkpt>
<trkpt lat="50.561376" lon="4.308955"><ele>138.0</ele><time>2025-05-25T18:32:05Z</time></trkpt>
<trkpt lat="50.561498" lon="4.307"><ele>137.2</ele><time>2025-05-25T18:32:12Z</time></trkpt>
<trkpt lat="50.561498" lon="4.306641"><ele>136.91</ele><time>2025-05-25T18:32:19Z</time></trkpt>
<trkpt lat="50.561606" lon="4.30521"><ele>138.34</ele><time>2025-05-25T18:32:23Z</time></trkpt>
<trkpt lat="50.56158" lon="4.304979"><ele>138.17</ele><time>2025-05-25T18:32:26Z</time></trkpt>
<trkpt lat="50.561488" lon="4.304517"><ele>139.19</ele><time>2025-05-25T18:32:29Z</time></trkpt>
<trkpt lat="50.561384" lon="4.303912"><ele>137.98</ele><time>2025-05-25T18:32:33Z</time></trkpt>
<trkpt lat="50.561185" lon="4.302293"><ele>138.01</ele><time>2025-05-25T18:32:36Z</time></trkpt>
<trkpt lat="50.56107" lon="4.301771"><ele>139.62</ele><time>2025-05-25T18:32:39Z</time></trkpt>
<trkpt lat="50.5608" lon="4.301056"><ele>142.41</ele><time>2025-05-25T18:32:43Z</time></trkpt>
<trkpt lat="50.560722" lon="4.300809"><ele>140.95</ele><time>2025-05-25T18:32:46Z</time></trkpt>
<trkpt lat="50.560675" lon="4.300636"><ele>140.69</ele><time>2025-05-25T18:32:49Z</time></trkpt>
<trkpt lat="50.560623" lon="4.300314"><ele>139.68</ele><time>2025-05-25T18:32:53Z</time></trkpt>
<trkpt lat="50.560605" lon="4.29994"><ele>138.6</ele><time>2025-05-25T18:32:56Z</time></trkpt>
<trkpt lat="50.560613" lon="4.299533"><ele>138.38</ele><time>2025-05-25T18:33:00Z</time></trkpt>
<trkpt lat="50.56072" lon="4.298245"><ele>135.95</ele><time>2025-05-25T18:33:03Z</time></trkpt>
<trkpt lat="50.560824" lon="4.295386"><ele>131.42</ele><time>2025-05-25T18:33:06Z</time></trkpt>
<trkpt lat="50.560867" lon="4.292918"><ele>126.5</ele><time>2025-05-25T18:33:10Z</time></trkpt>
<trkpt lat="50.560892" lon="4.292343"><ele>125.54</ele><time>2025-05-25T18:33:13Z</time></trkpt>
<trkpt lat="50.560779" lon="4.291031"><ele>124.26</ele><time>2025-05-25T18:33:16Z</time></trkpt>
<trkpt lat="50.560751" lon="4.290841"><ele>123.15</ele><time>2025-05-25T18:33:20Z</time></trkpt>
<trkpt lat="50.56059" lon="4.29012"><ele>119.18</ele><time>2025-05-25T18:33:23Z</time></trkpt>
<trkpt lat="50.560541" lon="4.289753"><ele>118.05</ele><time>2025-05-25T18:33:26Z</time></trkpt>
<trkpt lat="50.56055" lon="4.289458"><ele>117.98</ele><time>2025-05-25T18:33:30Z</time></trkpt>
<trkpt lat="50.560632" lon="4.289091"><ele>119.0</ele><time>2025-05-25T18:33:33Z</time></trkpt>
<trkpt lat="50.56074" lon="4.288833"><ele>118.73</ele><time>2025-05-25T18:33:37Z</time></trkpt>
<trkpt lat="50.562632" lon="4.286183"><ele>105.74</ele><time>2025-05-25T18:33:40Z</time></trkpt>
<trkpt lat="50.56303" lon="4.28533"><ele>105.09</ele><time>2025-05-25T18:33:43Z</time></trkpt>
<trkpt lat="50.56315" lon="4.285105"><ele>105.0</ele><time>2025-05-25T18:33:47Z</time></trkpt>
<trkpt lat="50.563759" lon="4.284202"><ele>101.6</ele><time>2025-05-25T18:33:50Z</time></trkpt>
<trkpt lat="50.563892" lon="4.283951"><ele>100.22</ele><time>2025-05-25T18:33:53Z</time></trkpt>
<trkpt lat="50.564183" lon="4.283319"><ele>99.0</ele><time>2025-05-25T18:33:57Z</time></trkpt>
<trkpt lat="50.564327" lon="4.28312"><ele>99.19</ele><time>2025-05-25T18:34:00Z</time></trkpt>
<trkpt lat="50.564753" lon="4.282752"><ele>96.98</ele><time>2025-05-25T18:34:03Z</time></trkpt>
<trkpt lat="50.564967" lon="4.282431"><ele>97.37</ele><time>2025-05-25T18:34:07Z</time></trkpt>
<trkpt lat="50.565231" lon="4.281832"><ele>98.0</ele><time>2025-05-25T18:34:10Z</time></trkpt>
<trkpt lat="50.565287" lon="4.281632"><ele>97.94</ele><time>2025-05-25T18:34:14Z</time></trkpt>
<trkpt lat="50.563553" lon="4.280317"><ele>102.14</ele><time>2025-05-25T18:34:43Z</time></trkpt>
<trkpt lat="50.561287" lon="4.278665"><ele>108.0</ele><time>2025-05-25T18:35:12Z</time></trkpt>
<trkpt lat="50.5614" lon="4.27593"><ele>105.33</ele><time>2025-05-25T18:35:23Z</time></trkpt>
<trkpt lat="50.561484" lon="4.272521"><ele>107.9</ele><time>2025-05-25T18:35:34Z</time></trkpt>
<trkpt lat="50.561697" lon="4.2686"><ele>112.0</ele><time>2025-05-25T18:35:45Z</time></trkpt>
<trkpt lat="50.561873" lon="4.263734"><ele>114.81</ele><time>2025-05-25T18:35:56Z</time></trkpt>
<trkpt lat="50.561959" lon="4.262001"><ele>113.1</ele><time>2025-05-25T18:36:07Z</time></trkpt>
<trkpt lat="50.562398" lon="4.259941"><ele>107.18</ele><time>2025-05-25T18:36:18Z</time></trkpt>
<trkpt lat="50.562508" lon="4.259558"><ele>106.49</ele><time>2025-05-25T18:36:29Z</time></trkpt>
<trkpt lat="50.562649" lon="4.259129"><ele>106.48</ele><time>2025-05-25T18:36:40Z</time></trkpt>
<trkpt lat="50.5627" lon="4.258909"><ele>106.24</ele><time>2025-05-25T18:36:51Z</time></trkpt>
<trkpt lat="50.562754" lon="4.258411"><ele>105.09</ele><time>2025-05-25T18:37:02Z</time></trkpt>
<trkpt lat="50.562763" lon="4.257915"><ele>104.97</ele><time>2025-05-25T18:37:13Z</time></trkpt>
<trkpt lat="50.562602" lon="4.255401"><ele>105.71</ele><time>2025-05-25T18:37:24Z</time></trkpt>
<trkpt lat="50.562496" lon="4.25453"><ele>105.05</ele><time>2025-05-25T18:37:35Z</time></trkpt>
<trkpt lat="50.562419" lon="4.254135"><ele>104.43</ele><time>2025-05-25T18:37:46Z</time></trkpt>
<trkpt lat="50.562214" lon="4.253583"><ele>101.87</ele><time>2025-05-25T18:37:57Z</time></trkpt>
<trkpt lat="50.562415" lon="4.253158"><ele>100.11</ele><time>2025-05-25T18:38:00Z</time></trkpt>
<trkpt lat="50.562435" lon="4.253029"><ele>99.98</ele><time>2025-05-25T18:38:04Z</time></trkpt>
<trkpt lat="50.562419" lon="4.252755"><ele>99.87</ele><time>2025-05-25T18:38:07Z</time></trkpt>
<trkpt lat="50.56227" lon="4.251993"><ele>104.68</ele><time>2025-05-25T18:38:10Z</time></trkpt>
<trkpt lat="50.56217" lon="4.251396"><ele>106.81</ele><time>2025-05-25T18:38:13Z</time></trkpt>
<trkpt lat="50.562205" lon="4.251103"><ele>106.97</ele><time>2025-05-25T18:38:16Z</time></trkpt>
<trkpt lat="50.562471" lon="4.250469"><ele>105.38</ele><time>2025-05-25T18:38:20Z</time></trkpt>
<trkpt lat="50.562005" lon="4.250119"><ele>105.22</ele><time>2025-05-25T18:38:23Z</time></trkpt>
<trkpt lat="50.561804" lon="4.249924"><ele>104.5</ele><time>2025-05-25T18:38:27Z</time></trkpt>
<trkpt lat="50.562263" lon="4.2441"><ele>108.15</ele><time>2025-05-25T18:38:35Z</time></trkpt>
<trkpt lat="50.562355" lon="4.243188"><ele>107.75</ele><time>2025-05-25T18:38:43Z</time></trkpt>
<trkpt lat="50.562514" lon="4.241915"><ele>106.05</ele><time>2025-05-25T18:38:51Z</time></trkpt>
<trkpt lat="50.562554" lon="4.241388"><ele>108.0</ele><time>2025-05-25T18:38:59Z</time></trkpt>
<trkpt lat="50.562587" lon="4.241175"><ele>108.77</ele><time>2025-05-25T18:39:03Z</time></trkpt>
<trkpt lat="50.562679" lon="4.24014"><ele>109.64</ele><time>2025-05-25T18:39:08Z</time></trkpt>
<trkpt lat="50.562717" lon="4.239887"><ele>110.18</ele><time>2025-05-25T18:39:13Z</time></trkpt>
<trkpt lat="50.562957" lon="4.239005"><ele>114.49</ele><time>2025-05-25T18:39:18Z</time></trkpt>
<trkpt lat="50.563185" lon="4.238244"><ele>115.79</ele><time>2025-05-25T18:39:22Z</time></trkpt>
<trkpt lat="50.563299" lon="4.237929"><ele>116.88</ele><time>2025-05-25T18:39:27Z</time></trkpt>
<trkpt lat="50.564157" lon="4.236066"><ele>115.0</ele><time>2025-05-25T18:39:32Z</time></trkpt>
<trkpt lat="50.564202" lon="4.23599"><ele>115.23</ele><time>2025-05-25T18:39:36Z</time></trkpt>
<trkpt lat="50.564256" lon="4.235942"><ele>115.71</ele><time>2025-05-25T18:39:41Z</time></trkpt>
<trkpt lat="50.564374" lon="4.235915"><ele>116.8</ele><time>2025-05-25T18:39:46Z</time></trkpt>
<trkpt lat="50.565195" lon="4.236259"><ele>116.94</ele><time>2025-05-25T18:39:50Z</time></trkpt>
<trkpt lat="50.565259" lon="4.236259"><ele>116.94</ele><time>2025-05-25T18:39:55Z</time></trkpt>
<trkpt lat="50.565352" lon="4.236219"><ele>116.26</ele><time>2025-05-25T18:40:00Z</time></trkpt>
<trkpt lat="50.565426" lon="4.236102"><ele>115.93</ele><time>2025-05-25T18:40:05Z</time></trkpt>
<trkpt lat="50.56554" lon="4.235697"><ele>117.12</ele><time>2025-05-25T18:40:09Z</time></trkpt>
<trkpt lat="50.565589" lon="4.235578"><ele>117.12</ele><time>2025-05-25T18:40:14Z</time></trkpt>
<trkpt lat="50.566146" lon="4.234891"><ele>109.62</ele><time>2025-05-25T18:40:19Z</time></trkpt>
<trkpt lat="50.566413" lon="4.234476"><ele>106.91</ele><time>2025-05-25T18:40:23Z</time></trkpt>
<trkpt lat="50.566538" lon="4.23424"><ele>106.86</ele><time>2025-05-25T18:40:28Z</time></trkpt>
<trkpt lat="50.566606" lon="4.234056"><ele>107.0</ele><time>2025-05-25T18:40:33Z</time></trkpt>
<trkpt lat="50.566642" lon="4.233861"><ele>106.99</ele><time>2025-05-25T18:40:38Z</time></trkpt>
<trkpt lat="50.566735" lon="4.233038"><ele>108.31</ele><time>2025-05-25T18:40:42Z</time></trkpt>
<trkpt lat="50.567094" lon="4.230892"><ele>109.43</ele><time>2025-05-25T18:40:47Z</time></trkpt>
<trkpt lat="50.567189" lon="4.230414"><ele>110.39</ele><time>2025-05-25T18:40:52Z</time></trkpt>
<trkpt lat="50.567243" lon="4.230183"><ele>111.03</ele><time>2025-05-25T18:40:56Z</time></trkpt>
<trkpt lat="50.567827" lon="4.228489"><ele>115.82</ele><time>2025-05-25T18:41:01Z</time></trkpt>
<trkpt lat="50.568021" lon="4.227801"><ele>116.12</ele><time>2025-05-25T18:41:06Z</time></trkpt>
<trkpt lat="50.568129" lon="4.22722"><ele>115.0</ele><time>2025-05-25T18:41:10Z</time></trkpt>
<trkpt lat="50.568185" lon="4.22675"><ele>114.53</ele><time>2025-05-25T18:41:15Z</time></trkpt>
<trkpt lat="50.568205" lon="4.226407"><ele>114.03</ele><time>2025-05-25T18:41:20Z</time></trkpt>
<trkpt lat="50.568209" lon="4.225994"><ele>113.81</ele><time>2025-05-25T18:41:25Z</time></trkpt>
<trkpt lat="50.568178" lon="4.224862"><ele>111.66</ele><time>2025-05-25T18:41:29Z</time></trkpt>
<trkpt lat="50.567952" lon="4.218132"><ele>121.46</ele><time>2025-05-25T18:41:34Z</time></trkpt>
<trkpt lat="50.567852" lon="4.21509"><ele>114.0</ele><time>2025-05-25T18:41:39Z</time></trkpt>
<trkpt lat="50.567784" lon="4.213339"><ele>117.0</ele><time>2025-05-25T18:41:43Z</time></trkpt>
<trkpt lat="50.567792" lon="4.212631"><ele>116.97</ele><time>2025-05-25T18:41:48Z</time></trkpt>
<trkpt lat="50.567823" lon="4.212118"><ele>117.21</ele><time>2025-05-25T18:41:53Z</time></trkpt>
<trkpt lat="50.567918" lon="4.211408"><ele>118.93</ele><time>2025-05-25T18:41:57Z</time></trkpt>
<trkpt lat="50.567993" lon="4.211027"><ele>118.63</ele><time>2025-05-25T18:42:02Z</time></trkpt>
<trkpt lat="50.568326" lon="4.209783"><ele>116.2</ele><time>2025-05-25T18:42:07Z</time></trkpt>
<trkpt lat="50.568496" lon="4.209356"><ele>114.36</ele><time>2025-05-25T18:42:12Z</time></trkpt>
<trkpt lat="50.568968" lon="4.208353"><ele>112.85</ele><time>2025-05-25T18:42:16Z</time></trkpt>
<trkpt lat="50.56908" lon="4.208138"><ele>113.36</ele><time>2025-05-25T18:42:21Z</time></trkpt>
<trkpt lat="50.56969" lon="4.207197"><ele>112.86</ele><time>2025-05-25T18:42:26Z</time></trkpt>
<trkpt lat="50.56983" lon="4.206931"><ele>114.0</ele><time>2025-05-25T18:42:30Z</time></trkpt>
<trkpt lat="50.570051" lon="4.206462"><ele>114.18</ele><time>2025-05-25T18:42:35Z</time></trkpt>
<trkpt lat="50.570719" lon="4.204906"><ele>112.07</ele><time>2025-05-25T18:42:40Z</time></trkpt>
<trkpt lat="50.571038" lon="4.203997"><ele>111.0</ele><time>2025-05-25T18:42:45Z</time></trkpt>
<trkpt lat="50.571272" lon="4.203252"><ele>112.87</ele><time>2025-05-25T18:42:49Z</time></trkpt>
<trkpt lat="50.571858" lon="4.201768"><ele>114.0</ele><time>2025-05-25T18:42:54Z</time></trkpt>
<trkpt lat="50.572457" lon="4.20012"><ele>112.84</ele><time>2025-05-25T18:42:59Z</time></trkpt>
<trkpt lat="50.572785" lon="4.199043"><ele>111.07</ele><time>2025-05-25T18:43:03Z</time></trkpt>
<trkpt lat="50.572879" lon="4.198791"><ele>112.32</ele><time>2025-05-25T18:43:08Z</time></trkpt>
<trkpt lat="50.573383" lon="4.19757"><ele>111.25</ele><time>2025-05-25T18:43:13Z</time></trkpt>
<trkpt lat="50.57382" lon="4.196602"><ele>108.71</ele><time>2025-05-25T18:43:17Z</time></trkpt>
<trkpt lat="50.573948" lon="4.196178"><ele>107.24</ele><time>2025-05-25T18:43:22Z</time></trkpt>
<trkpt lat="50.574232" lon="4.194637"><ele>106.0</ele><time>2025-05-25T18:43:27Z</time></trkpt>
<trkpt lat="50.574555" lon="4.193237"><ele>102.6</ele><time>2025-05-25T18:43:32Z</time></trkpt>
<trkpt lat="50.574705" lon="4.192567"><ele>102.06</ele><time>2025-05-25T18:43:36Z</time></trkpt>
<trkpt lat="50.574805" lon="4.191776"><ele>101.3</ele><time>2025-05-25T18:43:41Z</time></trkpt>
<trkpt lat="50.574839" lon="4.191028"><ele>101.47</ele><time>2025-05-25T18:43:46Z</time></trkpt>
<trkpt lat="50.574867" lon="4.189496"><ele>101.48</ele><time>2025-05-25T18:43:50Z</time></trkpt>
<trkpt lat="50.574895" lon="4.189203"><ele>99.31</ele><time>2025-05-25T18:43:55Z</time></trkpt>
<trkpt lat="50.574989" lon="4.188697"><ele>97.27</ele><time>2025-05-25T18:44:00Z</time></trkpt>
<trkpt lat="50.575079" lon="4.187652"><ele>97.61</ele><time>2025-05-25T18:44:05Z</time></trkpt>
<trkpt lat="50.575119" lon="4.187381"><ele>98.0</ele><time>2025-05-25T18:44:09Z</time></trkpt>
<trkpt lat="50.575269" lon="4.186799"><ele>96.49</ele><time>2025-05-25T18:44:14Z</time></trkpt>
<trkpt lat="50.57554" lon="4.185528"><ele>92.11</ele><time>2025-05-25T18:44:19Z</time></trkpt>
<trkpt lat="50.575857" lon="4.184441"><ele>90.08</ele><time>2025-05-25T18:44:23Z</time></trkpt>
<trkpt lat="50.576037" lon="4.183657"><ele>90.22</ele><time>2025-05-25T18:44:28Z</time></trkpt>
<trkpt lat="50.576215" lon="4.183258"><ele>89.32</ele><time>2025-05-25T18:44:33Z</time></trkpt>
<trkpt lat="50.576818" lon="4.182506"><ele>82.4</ele><time>2025-05-25T18:44:37Z</time></trkpt>
<trkpt lat="50.57695" lon="4.182225"><ele>79.95</ele><time>2025-05-25T18:44:42Z</time></trkpt>
<trkpt lat="50.577166" lon="4.181835"><ele>80.11</ele><time>2025-05-25T18:44:47Z</time></trkpt>
<trkpt lat="50.577185" lon="4.181764"><ele>80.48</ele><time>2025-05-25T18:44:52Z</time></trkpt>
<trkpt lat="50.57718" lon="4.181617"><ele>81.63</ele><time>2025-05-25T18:44:56Z</time></trkpt>
<trkpt lat="50.577152" lon="4.181521"><ele>82.56</ele><time>2025-05-25T18:45:01Z</time></trkpt>
<trkpt lat="50.576899" lon="4.181011"><ele>83.55</ele><time>2025-05-25T18:45:06Z</time></trkpt>
<trkpt lat="50.576783" lon="4.180729"><ele>82.47</ele><time>2025-05-25T18:45:10Z</time></trkpt>
<trkpt lat="50.576653" lon="4.180328"><ele>83.56</ele><time>2025-05-25T18:45:15Z</time></trkpt>
<trkpt lat="50.576594" lon="4.180228"><ele>85.06</ele><time>2025-05-25T18:45:20Z</time></trkpt>
<trkpt lat="50.575849" lon="4.179202"><ele>93.83</ele><time>2025-05-25T18:45:25Z</time></trkpt>
<trkpt lat="50.576215" lon="4.178293"><ele>93.23</ele><time>2025-05-25T18:45:30Z</time></trkpt>
<trkpt lat="50.576278" lon="4.178174"><ele>93.03</ele><time>2025-05-25T18:45:35Z</time></trkpt>
<trkpt lat="50.576406" lon="4.178002"><ele>93.18</ele><time>2025-05-25T18:45:41Z</time></trkpt>
<trkpt lat="50.57645" lon="4.177841"><ele>93.66</ele><time>2025-05-25T18:45:46Z</time></trkpt>
<trkpt lat="50.57645" lon="4.177699"><ele>93.88</ele><time>2025-05-25T18:45:52Z</time></trkpt>
<trkpt lat="50.576478" lon="4.177542"><ele>94.54</ele><time>2025-05-25T18:45:57Z</time></trkpt>
<trkpt lat="50.576531" lon="4.177396"><ele>95.03</ele><time>2025-05-25T18:46:02Z</time></trkpt>
<trkpt lat="50.576758" lon="4.176944"><ele>95.66</ele><time>2025-05-25T18:46:08Z</time></trkpt>
<trkpt lat="50.57687" lon="4.176673"><ele>96.46</ele><time>2025-05-25T18:46:13Z</time></trkpt>
<trkpt lat="50.577139" lon="4.175844"><ele>96.74</ele><time>2025-05-25T18:46:19Z</time></trkpt>
<trkpt lat="50.577363" lon="4.174947"><ele>99.41</ele><time>2025-05-25T18:46:24Z</time></trkpt>
<trkpt lat="50.577868" lon="4.173445"><ele>98.32</ele><time>2025-05-25T18:46:30Z</time></trkpt>
<trkpt lat="50.578335" lon="4.172244"><ele>102.0</ele><time>2025-05-25T18:46:35Z</time></trkpt>
<trkpt lat="50.578375" lon="4.172113"><ele>102.21</ele><time>2025-05-25T18:46:40Z</time></trkpt>
<trkpt lat="50.578494" lon="4.17173"><ele>103.15</ele><time>2025-05-25T18:46:46Z</time></trkpt>
<trkpt lat="50.578585" lon="4.171515"><ele>104.31</ele><time>2025-05-25T18:46:51Z</time></trkpt>
<trkpt lat="50.579126" lon="4.170423"><ele>104.63</ele><time>2025-05-25T18:46:57Z</time></trkpt>
<trkpt lat="50.579645" lon="4.169422"><ele>107.14</ele><time>2025-05-25T18:47:02Z</time></trkpt>
<trkpt lat="50.579737" lon="4.169219"><ele>108.63</ele><time>2025-05-25T18:47:07Z</time></trkpt>
<trkpt lat="50.579802" lon="4.168963"><ele>109.73</ele><time>2025-05-25T18:47:13Z</time></trkpt>
<trkpt lat="50.579701" lon="4.167778"><ele>109.85</ele><time>2025-05-25T18:47:21Z</time></trkpt>
<trkpt lat="50.579695" lon="4.167467"><ele>109.8</ele><time>2025-05-25T18:47:29Z</time></trkpt>
<trkpt lat="50.579735" lon="4.165637"><ele>111.04</ele><time>2025-05-25T18:47:36Z</time></trkpt>
<trkpt lat="50.57972" lon="4.16495"><ele>109.01</ele><time>2025-05-25T18:47:44Z</time></trkpt>
<trkpt lat="50.579518" lon="4.16302"><ele>112.26</ele><time>2025-05-25T18:47:52Z</time></trkpt>
<trkpt lat="50.579497" lon="4.162656"><ele>112.54</ele><time>2025-05-25T18:48:00Z</time></trkpt>
<trkpt lat="50.5795" lon="4.162265"><ele>113.0</ele><time>2025-05-25T18:48:08Z</time></trkpt>
<trkpt lat="50.579586" lon="4.161467"><ele>112.0</ele><time>2025-05-25T18:48:16Z</time></trkpt>
<trkpt lat="50.579593" lon="4.161211"><ele>112.0</ele><time>2025-05-25T18:48:24Z</time></trkpt>
<trkpt lat="50.579467" lon="4.160406"><ele>113.62</ele><time>2025-05-25T18:48:32Z</time></trkpt>
<trkpt lat="50.579395" lon="4.15947"><ele>112.66</ele><time>2025-05-25T18:48:39Z</time></trkpt>
<trkpt lat="50.579224" lon="4.157739"><ele>115.03</ele><time>2025-05-25T18:48:47Z</time></trkpt>
<trkpt lat="50.579271" lon="4.15554"><ele>115.64</ele><time>2025-05-25T18:48:55Z</time></trkpt>
<trkpt lat="50.579264" lon="4.155142"><ele>116.0</ele><time>2025-05-25T18:49:03Z</time></trkpt>
<trkpt lat="50.579108" lon="4.152463"><ele>116.21</ele><time>2025-05-25T18:49:11Z</time></trkpt>
<trkpt lat="50.579101" lon="4.150676"><ele>117.24</ele><time>2025-05-25T18:49:19Z</time></trkpt>
<trkpt lat="50.579086" lon="4.150505"><ele>117.11</ele><time>2025-05-25T18:49:27Z</time></trkpt>
<trkpt lat="50.579025" lon="4.150196"><ele>116.37</ele><time>2025-05-25T18:49:35Z</time></trkpt>
<trkpt lat="50.578714" lon="4.149001"><ele>116.37</ele><time>2025-05-25T18:49:42Z</time></trkpt>
<trkpt lat="50.578356" lon="4.147763"><ele>113.95</ele><time>2025-05-25T18:49:50Z</time></trkpt>
<trkpt lat="50.578772" lon="4.147486"><ele>114.58</ele><time>2025-05-25T18:49:53Z</time></trkpt>
<trkpt lat="50.579271" lon="4.14712"><ele>115.53</ele><time>2025-05-25T18:49:55Z</time></trkpt>
<trkpt lat="50.578994" lon="4.145959"><ele>110.93</ele><time>2025-05-25T18:50:01Z</time></trkpt>
<trkpt lat="50.578953" lon="4.145696"><ele>110.46</ele><time>2025-05-25T18:50:06Z</time></trkpt>
<trkpt lat="50.578847" lon="4.144554"><ele>110.85</ele><time>2025-05-25T18:50:11Z</time></trkpt>
<trkpt lat="50.578843" lon="4.143791"><ele>111.0</ele><time>2025-05-25T18:50:16Z</time></trkpt>
<trkpt lat="50.578862" lon="4.143619"><ele>111.0</ele><time>2025-05-25T18:50:21Z</time></trkpt>
<trkpt lat="50.579049" lon="4.1428"><ele>111.0</ele><time>2025-05-25T18:50:26Z</time></trkpt>
<trkpt lat="50.579158" lon="4.141942"><ele>111.97</ele><time>2025-05-25T18:50:32Z</time></trkpt>
<trkpt lat="50.579205" lon="4.140605"><ele>111.14</ele><time>2025-05-25T18:50:37Z</time></trkpt>
<trkpt lat="50.579179" lon="4.138992"><ele>106.4</ele><time>2025-05-25T18:50:42Z</time></trkpt>
<trkpt lat="50.57922" lon="4.138536"><ele>106.19</ele><time>2025-05-25T18:50:47Z</time></trkpt>
<trkpt lat="50.579297" lon="4.138096"><ele>106.07</ele><time>2025-05-25T18:50:52Z</time></trkpt>
<trkpt lat="50.579336" lon="4.137681"><ele>105.04</ele><time>2025-05-25T18:50:57Z</time></trkpt>
<trkpt lat="50.579308" lon="4.136827"><ele>103.49</ele><time>2025-05-25T18:51:03Z</time></trkpt>
<trkpt lat="50.579321" lon="4.136645"><ele>103.48</ele><time>2025-05-25T18:51:08Z</time></trkpt>
<trkpt lat="50.579365" lon="4.13646"><ele>103.5</ele><time>2025-05-25T18:51:13Z</time></trkpt>
<trkpt lat="50.579419" lon="4.136309"><ele>103.18</ele><time>2025-05-25T18:51:18Z</time></trkpt>
<trkpt lat="50.579779" lon="4.135528"><ele>101.74</ele><time>2025-05-25T18:51:23Z</time></trkpt>
<trkpt lat="50.579809" lon="4.135403"><ele>101.48</ele><time>2025-05-25T18:51:28Z</time></trkpt>
<trkpt lat="50.579826" lon="4.135002"><ele>101.37</ele><time>2025-05-25T18:51:33Z</time></trkpt>
<trkpt lat="50.579851" lon="4.134875"><ele>101.01</ele><time>2025-05-25T18:51:39Z</time></trkpt>
<trkpt lat="50.580162" lon="4.13446"><ele>100.42</ele><time>2025-05-25T18:51:44Z</time></trkpt>
<trkpt lat="50.580207" lon="4.13434"><ele>99.78</ele><time>2025-05-25T18:51:49Z</time></trkpt>
<trkpt lat="50.580144" lon="4.134232"><ele>99.35</ele><time>2025-05-25T18:51:54Z</time></trkpt>
<trkpt lat="50.580075" lon="4.134103"><ele>98.77</ele><time>2025-05-25T18:51:58Z</time></trkpt>
<trkpt lat="50.579988" lon="4.133903"><ele>98.0</ele><time>2025-05-25T18:52:03Z</time></trkpt>
<trkpt lat="50.579959" lon="4.13371"><ele>97.21</ele><time>2025-05-25T18:52:08Z</time></trkpt>
<trkpt lat="50.579933" lon="4.132711"><ele>96.24</ele><time>2025-05-25T18:52:13Z</time></trkpt>
<trkpt lat="50.57985" lon="4.131812"><ele>98.54</ele><time>2025-05-25T18:52:17Z</time></trkpt>
<trkpt lat="50.579765" lon="4.131486"><ele>98.94</ele><time>2025-05-25T18:52:22Z</time></trkpt>
<trkpt lat="50.579519" lon="4.130809"><ele>99.0</ele><time>2025-05-25T18:52:27Z</time></trkpt>
<trkpt lat="50.579282" lon="4.130353"><ele>99.73</ele><time>2025-05-25T18:52:31Z</time></trkpt>
<trkpt lat="50.5786" lon="4.129216"><ele>101.96</ele><time>2025-05-25T18:52:36Z</time></trkpt>
<trkpt lat="50.578255" lon="4.128735"><ele>100.04</ele><time>2025-05-25T18:52:41Z</time></trkpt>
<trkpt lat="50.577531" lon="4.127827"><ele>101.09</ele><time>2025-05-25T18:52:46Z</time></trkpt>
<trkpt lat="50.577466" lon="4.127688"><ele>101.4</ele><time>2025-05-25T18:52:50Z</time></trkpt>
<trkpt lat="50.577448" lon="4.127582"><ele>101.76</ele><time>2025-05-25T18:52:55Z</time></trkpt>
<trkpt lat="50.577457" lon="4.127486"><ele>102.0</ele><time>2025-05-25T18:53:00Z</time></trkpt>
<trkpt lat="50.577652" lon="4.12679"><ele>102.45</ele><time>2025-05-25T18:53:05Z</time></trkpt>
<trkpt lat="50.577662" lon="4.12666"><ele>102.42</ele><time>2025-05-25T18:53:09Z</time></trkpt>
<trkpt lat="50.577637" lon="4.126329"><ele>102.49</ele><time>2025-05-25T18:53:14Z</time></trkpt>
<trkpt lat="50.577564" lon="4.126089"><ele>102.13</ele><time>2025-05-25T18:53:19Z</time></trkpt>
<trkpt lat="50.577473" lon="4.125864"><ele>101.2</ele><time>2025-05-25T18:53:24Z</time></trkpt>
<trkpt lat="50.576925" lon="4.124793"><ele>102.18</ele><time>2025-05-25T18:53:28Z</time></trkpt>
<trkpt lat="50.576794" lon="4.124497"><ele>101.46</ele><time>2025-05-25T18:53:33Z</time></trkpt>
<trkpt lat="50.576426" lon="4.123207"><ele>105.26</ele><time>2025-05-25T18:53:38Z</time></trkpt>
<trkpt lat="50.576379" lon="4.122985"><ele>106.04</ele><time>2025-05-25T18:53:42Z</time></trkpt>
<trkpt lat="50.57636" lon="4.122761"><ele>106.17</ele><time>2025-05-25T18:53:47Z</time></trkpt>
<trkpt lat="50.576387" lon="4.122207"><ele>107.01</ele><time>2025-05-25T18:53:52Z</time></trkpt>
<trkpt lat="50.576532" lon="4.121157"><ele>106.0</ele><time>2025-05-25T18:53:57Z</time></trkpt>
<trkpt lat="50.576609" lon="4.12032"><ele>106.21</ele><time>2025-05-25T18:54:01Z</time></trkpt>
<trkpt lat="50.576648" lon="4.119218"><ele>104.18</ele><time>2025-05-25T18:54:06Z</time></trkpt>
<trkpt lat="50.576673" lon="4.118918"><ele>104.0</ele><time>2025-05-25T18:54:11Z</time></trkpt>
<trkpt lat="50.57676" lon="4.118641"><ele>104.0</ele><time>2025-05-25T18:54:16Z</time></trkpt>
<trkpt lat="50.576955" lon="4.118368"><ele>104.04</ele><time>2025-05-25T18:54:20Z</time></trkpt>
<trkpt lat="50.577376" lon="4.118007"><ele>104.44</ele><time>2025-05-25T18:54:25Z</time></trkpt>
<trkpt lat="50.577512" lon="4.117787"><ele>103.96</ele><time>2025-05-25T18:54:30Z</time></trkpt>
<trkpt lat="50.577774" lon="4.117274"><ele>104.0</ele><time>2025-05-25T18:54:35Z</time></trkpt>
<trkpt lat="50.577911" lon="4.11674"><ele>104.52</ele><time>2025-05-25T18:54:39Z</time></trkpt>
<trkpt lat="50.57804" lon="4.115763"><ele>103.06</ele><time>2025-05-25T18:54:44Z</time></trkpt>
<trkpt lat="50.577827" lon="4.114068"><ele>103.94</ele><time>2025-05-25T18:54:49Z</time></trkpt>
<trkpt lat="50.577653" lon="4.113409"><ele>103.9</ele><time>2025-05-25T18:54:53Z</time></trkpt>
<trkpt lat="50.577616" lon="4.113005"><ele>104.0</ele><time>2025-05-25T18:54:58Z</time></trkpt>
<trkpt lat="50.577624" lon="4.11229"><ele>103.44</ele><time>2025-05-25T18:55:03Z</time></trkpt>
<trkpt lat="50.57755" lon="4.111145"><ele>102.0</ele><time>2025-05-25T18:55:08Z</time></trkpt>
<trkpt lat="50.577549" lon="4.109824"><ele>102.72</ele><time>2025-05-25T18:55:12Z</time></trkpt>
<trkpt lat="50.577688" lon="4.10919"><ele>101.76</ele><time>2025-05-25T18:55:17Z</time></trkpt>
<trkpt lat="50.578371" lon="4.108998"><ele>101.13</ele><time>2025-05-25T18:55:22Z</time></trkpt>
<trkpt lat="50.578862" lon="4.108829"><ele>102.17</ele><time>2025-05-25T18:55:27Z</time></trkpt>
<trkpt lat="50.580513" lon="4.108041"><ele>99.85</ele><time>2025-05-25T18:55:32Z</time></trkpt>
<trkpt lat="50.581794" lon="4.107625"><ele>98.45</ele><time>2025-05-25T18:55:36Z</time></trkpt>
<trkpt lat="50.582673" lon="4.107416"><ele>96.26</ele><time>2025-05-25T18:55:41Z</time></trkpt>
<trkpt lat="50.582786" lon="4.107296"><ele>95.97</ele><time>2025-05-25T18:55:46Z</time></trkpt>
<trkpt lat="50.582864" lon="4.107146"><ele>95.41</ele><time>2025-05-25T18:55:51Z</time></trkpt>
<trkpt lat="50.582953" lon="4.10694"><ele>94.35</ele><time>2025-05-25T18:55:56Z</time></trkpt>
<trkpt lat="50.583119" lon="4.106436"><ele>93.0</ele><time>2025-05-25T18:56:01Z</time></trkpt>
<trkpt lat="50.58342" lon="4.105342"><ele>91.76</ele><time>2025-05-25T18:56:05Z</time></trkpt>
<trkpt lat="50.583467" lon="4.105109"><ele>91.52</ele><time>2025-05-25T18:56:10Z</time></trkpt>
<trkpt lat="50.583533" lon="4.104507"><ele>90.28</ele><time>2025-05-25T18:56:15Z</time></trkpt>
<trkpt lat="50.58356" lon="4.104459"><ele>90.18</ele><time>2025-05-25T18:56:20Z</time></trkpt>
<trkpt lat="50.583757" lon="4.10437"><ele>89.99</ele><time>2025-05-25T18:56:25Z</time></trkpt>
<trkpt lat="50.584312" lon="4.104366"><ele>88.52</ele><time>2025-05-25T18:56:30Z</time></trkpt>
<trkpt lat="50.584392" lon="4.104342"><ele>88.81</ele><time>2025-05-25T18:56:35Z</time></trkpt>
<trkpt lat="50.584477" lon="4.104287"><ele>89.12</ele><time>2025-05-25T18:56:39Z</time></trkpt>
<trkpt lat="50.584517" lon="4.104235"><ele>89.26</ele><time>2025-05-25T18:56:44Z</time></trkpt>
<trkpt lat="50.584738" lon="4.103817"><ele>90.01</ele><time>2025-05-25T18:56:49Z</time></trkpt>
<trkpt lat="50.584974" lon="4.103226"><ele>90.9</ele><time>2025-05-25T18:56:54Z</time></trkpt>
<trkpt lat="50.585471" lon="4.101514"><ele>91.45</ele><time>2025-05-25T18:56:59Z</time></trkpt>
<trkpt lat="50.585698" lon="4.101138"><ele>89.58</ele><time>2025-05-25T18:57:04Z</time></trkpt>
<trkpt lat="50.586545" lon="4.099879"><ele>88.12</ele><time>2025-05-25T18:57:08Z</time></trkpt>
<trkpt lat="50.587029" lon="4.098915"><ele>90.31</ele><time>2025-05-25T18:57:13Z</time></trkpt>
<trkpt lat="50.587117" lon="4.098707"><ele>91.28</ele><time>2025-05-25T18:57:18Z</time></trkpt>
<trkpt lat="50.587445" lon="4.098039"><ele>92.6</ele><time>2025-05-25T18:57:23Z</time></trkpt>
<trkpt lat="50.587566" lon="4.097876"><ele>93.24</ele><time>2025-05-25T18:57:28Z</time></trkpt>
<trkpt lat="50.587659" lon="4.097818"><ele>93.57</ele><time>2025-05-25T18:57:33Z</time></trkpt>
<trkpt lat="50.58784" lon="4.09779"><ele>94.22</ele><time>2025-05-25T18:57:37Z</time></trkpt>
<trkpt lat="50.588358" lon="4.097853"><ele>96.18</ele><time>2025-05-25T18:57:42Z</time></trkpt>
<trkpt lat="50.588441" lon="4.097814"><ele>96.77</ele><time>2025-05-25T18:57:47Z</time></trkpt>
<trkpt lat="50.58851" lon="4.097714"><ele>96.9</ele><time>2025-05-25T18:57:52Z</time></trkpt>
<trkpt lat="50.588539" lon="4.097642"><ele>96.63</ele><time>2025-05-25T18:57:57Z</time></trkpt>
<trkpt lat="50.588684" lon="4.096977"><ele>94.64</ele><time>2025-05-25T18:58:02Z</time></trkpt>
<trkpt lat="50.588977" lon="4.095339"><ele>97.94</ele><time>2025-05-25T18:58:06Z</time></trkpt>
<trkpt lat="50.589001" lon="4.095268"><ele>98.44</ele><time>2025-05-25T18:58:11Z</time></trkpt>
<trkpt lat="50.589058" lon="4.095218"><ele>98.78</ele><time>2025-05-25T18:58:16Z</time></trkpt>
<trkpt lat="50.589151" lon="4.095195"><ele>98.98</ele><time>2025-05-25T18:58:21Z</time></trkpt>
<trkpt lat="50.589569" lon="4.095206"><ele>98.33</ele><time>2025-05-25T18:58:26Z</time></trkpt>
<trkpt lat="50.590077" lon="4.095135"><ele>100.56</ele><time>2025-05-25T18:58:31Z</time></trkpt>
<trkpt lat="50.590551" lon="4.094968"><ele>103.97</ele><time>2025-05-25T18:58:35Z</time></trkpt>
<trkpt lat="50.590943" lon="4.0948"><ele>106.11</ele><time>2025-05-25T18:58:40Z</time></trkpt>
<trkpt lat="50.591063" lon="4.094699"><ele>106.0</ele><time>2025-05-25T18:58:45Z</time></trkpt>
<trkpt lat="50.590576" lon="4.093814"><ele>104.23</ele><time>2025-05-25T18:58:47Z</time></trkpt>
<trkpt lat="50.590495" lon="4.09357"><ele>105.22</ele><time>2025-05-25T18:58:49Z</time></trkpt>
<trkpt lat="50.590468" lon="4.093323"><ele>105.26</ele><time>2025-05-25T18:58:51Z</time></trkpt>
<trkpt lat="50.59054" lon="4.093149"><ele>104.36</ele><time>2025-05-25T18:58:55Z</time></trkpt>
<trkpt lat="50.590561" lon="4.092977"><ele>103.69</ele><time>2025-05-25T18:59:00Z</time></trkpt>
<trkpt lat="50.590547" lon="4.092792"><ele>103.05</ele><time>2025-05-25T18:59:04Z</time></trkpt>
<trkpt lat="50.590509" lon="4.092644"><ele>102.52</ele><time>2025-05-25T18:59:08Z</time></trkpt>
<trkpt lat="50.590522" lon="4.092409"><ele>101.67</ele><time>2025-05-25T18:59:12Z</time></trkpt>
<trkpt lat="50.590602" lon="4.092091"><ele>100.53</ele><time>2025-05-25T18:59:16Z</time></trkpt>
<trkpt lat="50.591198" lon="4.090757"><ele>96.31</ele><time>2025-05-25T18:59:21Z</time></trkpt>
<trkpt lat="50.591608" lon="4.089648"><ele>99.0</ele><time>2025-05-25T18:59:25Z</time></trkpt>
<trkpt lat="50.591809" lon="4.088987"><ele>99.0</ele><time>2025-05-25T18:59:29Z</time></trkpt>
<trkpt lat="50.592017" lon="4.088221"><ele>96.59</ele><time>2025-05-25T18:59:33Z</time></trkpt>
<trkpt lat="50.592185" lon="4.087498"><ele>94.86</ele><time>2025-05-25T18:59:37Z</time></trkpt>
<trkpt lat="50.592335" lon="4.086682"><ele>95.81</ele><time>2025-05-25T18:59:42Z</time></trkpt>
<trkpt lat="50.592458" lon="4.085837"><ele>96.0</ele><time>2025-05-25T18:59:46Z</time></trkpt>
<trkpt lat="50.59255" lon="4.084909"><ele>97.03</ele><time>2025-05-25T18:59:50Z</time></trkpt>
<trkpt lat="50.592601" lon="4.084166"><ele>97.09</ele><time>2025-05-25T18:59:54Z</time></trkpt>
<trkpt lat="50.592622" lon="4.083306"><ele>99.86</ele><time>2025-05-25T18:59:58Z</time></trkpt>
<trkpt lat="50.592608" lon="4.077412"><ele>91.22</ele><time>2025-05-25T19:00:02Z</time></trkpt>
<trkpt lat="50.592633" lon="4.075589"><ele>83.64</ele><time>2025-05-25T19:00:07Z</time></trkpt>
<trkpt lat="50.59269" lon="4.074376"><ele>81.56</ele><time>2025-05-25T19:00:11Z</time></trkpt>
<trkpt lat="50.59283" lon="4.072597"><ele>82.16</ele><time>2025-05-25T19:00:15Z</time></trkpt>
<trkpt lat="50.593366" lon="4.068193"><ele>76.56</ele><time>2025-05-25T19:00:19Z</time></trkpt>
<trkpt lat="50.593455" lon="4.067369"><ele>77.0</ele><time>2025-05-25T19:00:23Z</time></trkpt>
<trkpt lat="50.593526" lon="4.066586"><ele>75.22</ele><time>2025-05-25T19:00:28Z</time></trkpt>
<trkpt lat="50.593629" lon="4.064899"><ele>68.64</ele><time>2025-05-25T19:00:32Z</time></trkpt>
<trkpt lat="50.593666" lon="4.063608"><ele>67.0</ele><time>2025-05-25T19:00:36Z</time></trkpt>
<trkpt lat="50.593671" lon="4.06264"><ele>71.39</ele><time>2025-05-25T19:00:40Z</time></trkpt>
<trkpt lat="50.593694" lon="4.062422"><ele>72.36</ele><time>2025-05-25T19:00:44Z</time></trkpt>
<trkpt lat="50.593767" lon="4.062206"><ele>73.68</ele><time>2025-05-25T19:00:49Z</time></trkpt>
<trkpt lat="50.593821" lon="4.062157"><ele>74.22</ele><time>2025-05-25T19:00:52Z</time></trkpt>
<trkpt lat="50.593902" lon="4.062006"><ele>75.6</ele><time>2025-05-25T19:00:55Z</time></trkpt>
<trkpt lat="50.593923" lon="4.061899"><ele>76.29</ele><time>2025-05-25T19:00:59Z</time></trkpt>
<trkpt lat="50.593926" lon="4.061787"><ele>76.7</ele><time>2025-05-25T19:01:02Z</time></trkpt>
<trkpt lat="50.593908" lon="4.061678"><ele>77.03</ele><time>2025-05-25T19:01:05Z</time></trkpt>
<trkpt lat="50.593873" lon="4.061581"><ele>77.25</ele><time>2025-05-25T19:01:09Z</time></trkpt>
<trkpt lat="50.593778" lon="4.061462"><ele>77.33</ele><time>2025-05-25T19:01:12Z</time></trkpt>
<trkpt lat="50.593738" lon="4.061355"><ele>77.58</ele><time>2025-05-25T19:01:16Z</time></trkpt>
<trkpt lat="50.593672" lon="4.061052"><ele>78.48</ele><time>2025-05-25T19:01:19Z</time></trkpt>
<trkpt lat="50.593722" lon="4.053324"><ele>69.07</ele><time>2025-05-25T19:01:22Z</time></trkpt>
<trkpt lat="50.59368" lon="4.05221"><ele>73.27</ele><time>2025-05-25T19:01:26Z</time></trkpt>
<trkpt lat="50.593573" lon="4.051236"><ele>73.14</ele><time>2025-05-25T19:01:29Z</time></trkpt>
<trkpt lat="50.593412" lon="4.05033"><ele>73.43</ele><time>2025-05-25T19:01:32Z</time></trkpt>
<trkpt lat="50.593134" lon="4.049274"><ele>74.82</ele><time>2025-05-25T19:01:36Z</time></trkpt>
<trkpt lat="50.592824" lon="4.04837"><ele>74.83</ele><time>2025-05-25T19:01:39Z</time></trkpt>
<trkpt lat="50.592738" lon="4.047904"><ele>74.92</ele><time>2025-05-25T19:01:43Z</time></trkpt>
<trkpt lat="50.592749" lon="4.047706"><ele>75.15</ele><time>2025-05-25T19:01:48Z</time></trkpt>
<trkpt lat="50.5927" lon="4.047523"><ele>75.64</ele><time>2025-05-25T19:01:53Z</time></trkpt>
<trkpt lat="50.592616" lon="4.04741"><ele>75.55</ele><time>2025-05-25T19:01:58Z</time></trkpt>
<trkpt lat="50.592511" lon="4.047362"><ele>75.06</ele><time>2025-05-25T19:02:04Z</time></trkpt>
<trkpt lat="50.592397" lon="4.04739"><ele>74.63</ele><time>2025-05-25T19:02:09Z</time></trkpt>
<trkpt lat="50.592303" lon="4.047493"><ele>74.29</ele><time>2025-05-25T19:02:14Z</time></trkpt>
<trkpt lat="50.592225" lon="4.04754"><ele>74.15</ele><time>2025-05-25T19:02:20Z</time></trkpt>
<trkpt lat="50.59205" lon="4.047565"><ele>74.71</ele><time>2025-05-25T19:02:25Z</time></trkpt>
<trkpt lat="50.591676" lon="4.047384"><ele>76.93</ele><time>2025-05-25T19:02:30Z</time></trkpt>
<trkpt lat="50.59156" lon="4.047303"><ele>77.0</ele><time>2025-05-25T19:02:35Z</time></trkpt>
<trkpt lat="50.589661" lon="4.04558"><ele>79.22</ele><time>2025-05-25T19:02:41Z</time></trkpt>
<trkpt lat="50.586229" lon="4.042274"><ele>84.0</ele><time>2025-05-25T19:02:46Z</time></trkpt>
<trkpt lat="50.585638" lon="4.041657"><ele>84.7</ele><time>2025-05-25T19:02:51Z</time></trkpt>
<trkpt lat="50.585332" lon="4.041271"><ele>85.81</ele><time>2025-05-25T19:02:56Z</time></trkpt>
<trkpt lat="50.584436" lon="4.039927"><ele>87.26</ele><time>2025-05-25T19:03:02Z</time></trkpt>
<trkpt lat="50.583264" lon="4.037864"><ele>90.75</ele><time>2025-05-25T19:03:07Z</time></trkpt>
<trkpt lat="50.583007" lon="4.037488"><ele>89.82</ele><time>2025-05-25T19:03:12Z</time></trkpt>
<trkpt lat="50.582014" lon="4.036087"><ele>87.27</ele><time>2025-05-25T19:03:17Z</time></trkpt>
<trkpt lat="50.581569" lon="4.035503"><ele>86.82</ele><time>2025-05-25T19:03:23Z</time></trkpt>
<trkpt lat="50.581112" lon="4.035058"><ele>89.0</ele><time>2025-05-25T19:03:28Z</time></trkpt>
<trkpt lat="50.580778" lon="4.034799"><ele>90.14</ele><time>2025-05-25T19:03:33Z</time></trkpt>
<trkpt lat="50.580391" lon="4.034565"><ele>91.33</ele><time>2025-05-25T19:03:39Z</time></trkpt>
<trkpt lat="50.58012" lon="4.03444"><ele>91.42</ele><time>2025-05-25T19:03:44Z</time></trkpt>
<trkpt lat="50.579637" lon="4.034264"><ele>89.04</ele><time>2025-05-25T19:03:49Z</time></trkpt>
<trkpt lat="50.579338" lon="4.034222"><ele>88.5</ele><time>2025-05-25T19:03:54Z</time></trkpt>
<trkpt lat="50.578817" lon="4.034187"><ele>88.98</ele><time>2025-05-25T19:04:00Z</time></trkpt>
<trkpt lat="50.578556" lon="4.03414"><ele>88.6</ele><time>2025-05-25T19:04:05Z</time></trkpt>
<trkpt lat="50.578196" lon="4.034005"><ele>87.21</ele><time>2025-05-25T19:04:10Z</time></trkpt>
<trkpt lat="50.577753" lon="4.033779"><ele>86.69</ele><time>2025-05-25T19:04:15Z</time></trkpt>
<trkpt lat="50.577236" lon="4.033459"><ele>87.95</ele><time>2025-05-25T19:04:21Z</time></trkpt>
<trkpt lat="50.576614" lon="4.032827"><ele>90.18</ele><time>2025-05-25T19:04:26Z</time></trkpt>
<trkpt lat="50.576247" lon="4.032334"><ele>89.51</ele><time>2025-05-25T19:04:31Z</time></trkpt>
<trkpt lat="50.575979" lon="4.032102"><ele>90.81</ele><time>2025-05-25T19:04:36Z</time></trkpt>
<trkpt lat="50.575847" lon="4.032016"><ele>91.94</ele><time>2025-05-25T19:04:42Z</time></trkpt>
<trkpt lat="50.575493" lon="4.03185"><ele>93.06</ele><time>2025-05-25T19:04:47Z</time></trkpt>
<trkpt lat="50.573582" lon="4.03122"><ele>97.22</ele><time>2025-05-25T19:04:52Z</time></trkpt>
<trkpt lat="50.573287" lon="4.031066"><ele>97.82</ele><time>2025-05-25T19:04:58Z</time></trkpt>
<trkpt lat="50.573035" lon="4.030879"><ele>96.62</ele><time>2025-05-25T19:05:03Z</time></trkpt>
<trkpt lat="50.572868" lon="4.03064"><ele>94.98</ele><time>2025-05-25T19:05:08Z</time></trkpt>
<trkpt lat="50.572737" lon="4.030335"><ele>92.91</ele><time>2025-05-25T19:05:13Z</time></trkpt>
<trkpt lat="50.572678" lon="4.030097"><ele>92.28</ele><time>2025-05-25T19:05:19Z</time></trkpt>
<trkpt lat="50.57266" lon="4.02975"><ele>92.01</ele><time>2025-05-25T19:05:24Z</time></trkpt>
<trkpt lat="50.572764" lon="4.02902"><ele>93.0</ele><time>2025-05-25T19:05:29Z</time></trkpt>
<trkpt lat="50.573205" lon="4.026769"><ele>95.0</ele><time>2025-05-25T19:05:34Z</time></trkpt>
<trkpt lat="50.573243" lon="4.026377"><ele>94.3</ele><time>2025-05-25T19:05:40Z</time></trkpt>
<trkpt lat="50.573165" lon="4.02585"><ele>95.15</ele><time>2025-05-25T19:05:45Z</time></trkpt>
<trkpt lat="50.572965" lon="4.024862"><ele>95.01</ele><time>2025-05-25T19:05:50Z</time></trkpt>
<trkpt lat="50.572623" lon="4.022935"><ele>91.01</ele><time>2025-05-25T19:05:55Z</time></trkpt>
<trkpt lat="50.572439" lon="4.021019"><ele>88.93</ele><time>2025-05-25T19:06:01Z</time></trkpt>
<trkpt lat="50.572208" lon="4.019178"><ele>84.08</ele><time>2025-05-25T19:06:06Z</time></trkpt>
<trkpt lat="50.57189" lon="4.017349"><ele>80.26</ele><time>2025-05-25T19:06:11Z</time></trkpt>
<trkpt lat="50.571771" lon="4.016509"><ele>78.73</ele><time>2025-05-25T19:06:17Z</time></trkpt>
<trkpt lat="50.571551" lon="4.015335"><ele>79.55</ele><time>2025-05-25T19:06:22Z</time></trkpt>
<trkpt lat="50.571368" lon="4.014523"><ele>79.0</ele><time>2025-05-25T19:06:27Z</time></trkpt>
<trkpt lat="50.571161" lon="4.013754"><ele>79.31</ele><time>2025-05-25T19:06:32Z</time></trkpt>
<trkpt lat="50.569922" lon="4.009773"><ele>81.41</ele><time>2025-05-25T19:06:38Z</time></trkpt>
<trkpt lat="50.56984" lon="4.009422"><ele>81.53</ele><time>2025-05-25T19:06:43Z</time></trkpt>
<trkpt lat="50.569711" lon="4.008488"><ele>82.0</ele><time>2025-05-25T19:06:48Z</time></trkpt>
<trkpt lat="50.569655" lon="4.007136"><ele>82.17</ele><time>2025-05-25T19:06:53Z</time></trkpt>
<trkpt lat="50.569595" lon="4.006517"><ele>82.0</ele><time>2025-05-25T19:06:59Z</time></trkpt>
<trkpt lat="50.56927" lon="4.004862"><ele>84.37</ele><time>2025-05-25T19:07:04Z</time></trkpt>
<trkpt lat="50.569174" lon="4.004537"><ele>84.03</ele><time>2025-05-25T19:07:09Z</time></trkpt>
<trkpt lat="50.569027" lon="4.004294"><ele>83.73</ele><time>2025-05-25T19:07:14Z</time></trkpt>
<trkpt lat="50.568379" lon="4.00368"><ele>85.21</ele><time>2025-05-25T19:07:20Z</time></trkpt>
<trkpt lat="50.568647" lon="4.003255"><ele>84.59</ele><time>2025-05-25T19:07:29Z</time></trkpt>
<trkpt lat="50.568911" lon="4.002743"><ele>82.79</ele><time>2025-05-25T19:07:38Z</time></trkpt>
<trkpt lat="50.569149" lon="4.002213"><ele>81.06</ele><time>2025-05-25T19:07:48Z</time></trkpt>
<trkpt lat="50.569269" lon="4.001777"><ele>80.63</ele><time>2025-05-25T19:07:57Z</time></trkpt>
<trkpt lat="50.569218" lon="4.000723"><ele>79.0</ele><time>2025-05-25T19:08:07Z</time></trkpt>
<trkpt lat="50.569299" lon="4.000394"><ele>79.58</ele><time>2025-05-25T19:08:16Z</time></trkpt>
<trkpt lat="50.569368" lon="3.999954"><ele>80.16</ele><time>2025-05-25T19:08:25Z</time></trkpt>
<trkpt lat="50.569283" lon="3.999468"><ele>81.0</ele><time>2025-05-25T19:08:33Z</time></trkpt>
<trkpt lat="50.569236" lon="3.999287"><ele>81.0</ele><time>2025-05-25T19:08:41Z</time></trkpt>
<trkpt lat="50.568999" lon="3.99863"><ele>80.07</ele><time>2025-05-25T19:08:48Z</time></trkpt>
<trkpt lat="50.568893" lon="3.998289"><ele>79.0</ele><time>2025-05-25T19:08:56Z</time></trkpt>
<trkpt lat="50.567925" lon="3.995068"><ele>81.75</ele><time>2025-05-25T19:09:03Z</time></trkpt>
<trkpt lat="50.566978" lon="3.992875"><ele>85.53</ele><time>2025-05-25T19:09:11Z</time></trkpt>
<trkpt lat="50.566914" lon="3.992617"><ele>85.38</ele><time>2025-05-25T19:09:19Z</time></trkpt>
<trkpt lat="50.566856" lon="3.99172"><ele>85.0</ele><time>2025-05-25T19:09:26Z</time></trkpt>
<trkpt lat="50.566683" lon="3.990298"><ele>85.99</ele><time>2025-05-25T19:09:34Z</time></trkpt>
<trkpt lat="50.566575" lon="3.98923"><ele>88.42</ele><time>2025-05-25T19:09:42Z</time></trkpt>
<trkpt lat="50.566616" lon="3.989043"><ele>88.64</ele><time>2025-05-25T19:09:47Z</time></trkpt>
<trkpt lat="50.566616" lon="3.988947"><ele>88.64</ele><time>2025-05-25T19:09:51Z</time></trkpt>
<trkpt lat="50.566378" lon="3.987012"><ele>87.72</ele><time>2025-05-25T19:09:56Z</time></trkpt>
<trkpt lat="50.566219" lon="3.986137"><ele>88.74</ele><time>2025-05-25T19:10:01Z</time></trkpt>
<trkpt lat="50.565883" lon="3.984831"><ele>91.75</ele><time>2025-05-25T19:10:06Z</time></trkpt>
<trkpt lat="50.565665" lon="3.983705"><ele>91.26</ele><time>2025-05-25T19:10:11Z</time></trkpt>
<trkpt lat="50.56547" lon="3.981843"><ele>93.0</ele><time>2025-05-25T19:10:16Z</time></trkpt>
<trkpt lat="50.565405" lon="3.981434"><ele>93.0</ele><time>2025-05-25T19:10:21Z</time></trkpt>
<trkpt lat="50.565163" lon="3.980451"><ele>91.74</ele><time>2025-05-25T19:10:26Z</time></trkpt>
<trkpt lat="50.56428" lon="3.975817"><ele>89.57</ele><time>2025-05-25T19:10:31Z</time></trkpt>
<trkpt lat="50.564126" lon="3.975277"><ele>89.29</ele><time>2025-05-25T19:10:36Z</time></trkpt>
<trkpt lat="50.563994" lon="3.974939"><ele>89.64</ele><time>2025-05-25T19:10:40Z</time></trkpt>
<trkpt lat="50.563811" lon="3.974547"><ele>89.82</ele><time>2025-05-25T19:10:45Z</time></trkpt>
<trkpt lat="50.562764" lon="3.972927"><ele>88.95</ele><time>2025-05-25T19:10:50Z</time></trkpt>
<trkpt lat="50.562517" lon="3.972504"><ele>88.0</ele><time>2025-05-25T19:10:55Z</time></trkpt>
<trkpt lat="50.562428" lon="3.972235"><ele>87.48</ele><time>2025-05-25T19:11:00Z</time></trkpt>
<trkpt lat="50.562365" lon="3.971947"><ele>87.51</ele><time>2025-05-25T19:11:05Z</time></trkpt>
<trkpt lat="50.562065" lon="3.970304"><ele>89.9</ele><time>2025-05-25T19:11:10Z</time></trkpt>
<trkpt lat="50.562002" lon="3.969845"><ele>90.0</ele><time>2025-05-25T19:11:15Z</time></trkpt>
<trkpt lat="50.561962" lon="3.969345"><ele>89.64</ele><time>2025-05-25T19:11:20Z</time></trkpt>
<trkpt lat="50.561664" lon="3.964004"><ele>88.6</ele><time>2025-05-25T19:11:25Z</time></trkpt>
<trkpt lat="50.561568" lon="3.958383"><ele>84.11</ele><time>2025-05-25T19:11:29Z</time></trkpt>
<trkpt lat="50.561549" lon="3.957917"><ele>82.71</ele><time>2025-05-25T19:11:34Z</time></trkpt>
<trkpt lat="50.561511" lon="3.957556"><ele>81.76</ele><time>2025-05-25T19:11:39Z</time></trkpt>
<trkpt lat="50.561386" lon="3.956728"><ele>81.0</ele><time>2025-05-25T19:11:44Z</time></trkpt>
<trkpt lat="50.561313" lon="3.955961"><ele>81.85</ele><time>2025-05-25T19:11:49Z</time></trkpt>
<trkpt lat="50.561292" lon="3.955274"><ele>81.0</ele><time>2025-05-25T19:11:54Z</time></trkpt>
<trkpt lat="50.561343" lon="3.954265"><ele>80.52</ele><time>2025-05-25T19:11:59Z</time></trkpt>
<trkpt lat="50.561391" lon="3.953834"><ele>78.8</ele><time>2025-05-25T19:12:04Z</time></trkpt>
<trkpt lat="50.562139" lon="3.949378"><ele>74.0</ele><time>2025-05-25T19:12:09Z</time></trkpt>
<trkpt lat="50.562548" lon="3.945761"><ele>72.83</ele><time>2025-05-25T19:12:14Z</time></trkpt>
<trkpt lat="50.562697" lon="3.944818"><ele>70.22</ele><time>2025-05-25T19:12:18Z</time></trkpt>
<trkpt lat="50.56275" lon="3.944593"><ele>69.3</ele><time>2025-05-25T19:12:23Z</time></trkpt>
<trkpt lat="50.562895" lon="3.944421"><ele>69.46</ele><time>2025-05-25T19:12:28Z</time></trkpt>
<trkpt lat="50.563184" lon="3.944261"><ele>72.51</ele><time>2025-05-25T19:12:33Z</time></trkpt>
<trkpt lat="50.563479" lon="3.944172"><ele>75.5</ele><time>2025-05-25T19:12:38Z</time></trkpt>
<trkpt lat="50.563861" lon="3.944242"><ele>75.97</ele><time>2025-05-25T19:12:43Z</time></trkpt>
<trkpt lat="50.563972" lon="3.944217"><ele>76.05</ele><time>2025-05-25T19:12:48Z</time></trkpt>
<trkpt lat="50.564277" lon="3.944086"><ele>76.28</ele><time>2025-05-25T19:12:53Z</time></trkpt>
<trkpt lat="50.564165" lon="3.943208"><ele>77.45</ele><time>2025-05-25T19:12:57Z</time></trkpt>
<trkpt lat="50.56411" lon="3.942213"><ele>78.76</ele><time>2025-05-25T19:13:02Z</time></trkpt>
<trkpt lat="50.564016" lon="3.940629"><ele>75.66</ele><time>2025-05-25T19:13:06Z</time></trkpt>
<trkpt lat="50.56388" lon="3.939623"><ele>74.97</ele><time>2025-05-25T19:13:10Z</time></trkpt>
<trkpt lat="50.563795" lon="3.938852"><ele>74.86</ele><time>2025-05-25T19:13:15Z</time></trkpt>
<trkpt lat="50.563776" lon="3.938315"><ele>74.0</ele><time>2025-05-25T19:13:19Z</time></trkpt>
<trkpt lat="50.563755" lon="3.937407"><ele>74.0</ele><time>2025-05-25T19:13:24Z</time></trkpt>
<trkpt lat="50.563778" lon="3.936668"><ele>73.4</ele><time>2025-05-25T19:13:28Z</time></trkpt>
<trkpt lat="50.563917" lon="3.934707"><ele>72.0</ele><time>2025-05-25T19:13:33Z</time></trkpt>
<trkpt lat="50.563904" lon="3.934393"><ele>72.17</ele><time>2025-05-25T19:13:37Z</time></trkpt>
<trkpt lat="50.563837" lon="3.933722"><ele>72.03</ele><time>2025-05-25T19:13:41Z</time></trkpt>
<trkpt lat="50.56376" lon="3.933319"><ele>71.13</ele><time>2025-05-25T19:13:46Z</time></trkpt>
<trkpt lat="50.563452" lon="3.932113"><ele>72.61</ele><time>2025-05-25T19:13:50Z</time></trkpt>
<trkpt lat="50.563105" lon="3.930379"><ele>69.81</ele><time>2025-05-25T19:13:55Z</time></trkpt>
<trkpt lat="50.562613" lon="3.928147"><ele>69.07</ele><time>2025-05-25T19:13:59Z</time></trkpt>
<trkpt lat="50.562564" lon="3.927442"><ele>70.23</ele><time>2025-05-25T19:14:04Z</time></trkpt>
<trkpt lat="50.562548" lon="3.926874"><ele>69.17</ele><time>2025-05-25T19:14:08Z</time></trkpt>
<trkpt lat="50.562563" lon="3.925656"><ele>66.59</ele><time>2025-05-25T19:14:12Z</time></trkpt>
<trkpt lat="50.562574" lon="3.924815"><ele>63.87</ele><time>2025-05-25T19:14:17Z</time></trkpt>
<trkpt lat="50.562559" lon="3.924529"><ele>63.43</ele><time>2025-05-25T19:14:21Z</time></trkpt>
<trkpt lat="50.562499" lon="3.924247"><ele>63.71</ele><time>2025-05-25T19:14:26Z</time></trkpt>
<trkpt lat="50.562232" lon="3.923351"><ele>60.13</ele><time>2025-05-25T19:14:30Z</time></trkpt>
<trkpt lat="50.562106" lon="3.922682"><ele>56.96</ele><time>2025-05-25T19:14:35Z</time></trkpt>
<trkpt lat="50.562039" lon="3.921857"><ele>55.68</ele><time>2025-05-25T19:14:39Z</time></trkpt>
<trkpt lat="50.562026" lon="3.920397"><ele>56.87</ele><time>2025-05-25T19:14:43Z</time></trkpt>
<trkpt lat="50.561928" lon="3.919216"><ele>58.0</ele><time>2025-05-25T19:14:48Z</time></trkpt>
<trkpt lat="50.561835" lon="3.918531"><ele>59.11</ele><time>2025-05-25T19:14:52Z</time></trkpt>
<trkpt lat="50.561707" lon="3.917871"><ele>62.52</ele><time>2025-05-25T19:14:57Z</time></trkpt>
<trkpt lat="50.561361" lon="3.916504"><ele>63.06</ele><time>2025-05-25T19:15:01Z</time></trkpt>
<trkpt lat="50.560221" lon="3.912892"><ele>62.79</ele><time>2025-05-25T19:15:06Z</time></trkpt>
<trkpt lat="50.559995" lon="3.912289"><ele>60.98</ele><time>2025-05-25T19:15:10Z</time></trkpt>
<trkpt lat="50.559811" lon="3.911928"><ele>61.36</ele><time>2025-05-25T19:15:14Z</time></trkpt>
<trkpt lat="50.559415" lon="3.911323"><ele>64.37</ele><time>2025-05-25T19:15:19Z</time></trkpt>
<trkpt lat="50.558797" lon="3.910749"><ele>60.01</ele><time>2025-05-25T19:15:23Z</time></trkpt>
<trkpt lat="50.558626" lon="3.910497"><ele>58.35</ele><time>2025-05-25T19:15:28Z</time></trkpt>
<trkpt lat="50.558532" lon="3.91024"><ele>58.47</ele><time>2025-05-25T19:15:32Z</time></trkpt>
<trkpt lat="50.558493" lon="3.910035"><ele>58.52</ele><time>2025-05-25T19:15:37Z</time></trkpt>
<trkpt lat="50.558472" lon="3.909764"><ele>60.2</ele><time>2025-05-25T19:15:41Z</time></trkpt>
<trkpt lat="50.558381" lon="3.908086"><ele>65.94</ele><time>2025-05-25T19:15:45Z</time></trkpt>
<trkpt lat="50.558284" lon="3.907262"><ele>65.33</ele><time>2025-05-25T19:15:50Z</time></trkpt>
<trkpt lat="50.558236" lon="3.906922"><ele>65.35</ele><time>2025-05-25T19:15:54Z</time></trkpt>
<trkpt lat="50.557786" lon="3.904552"><ele>64.06</ele><time>2025-05-25T19:15:59Z</time></trkpt>
<trkpt lat="50.55774" lon="3.90425"><ele>64.47</ele><time>2025-05-25T19:16:03Z</time></trkpt>
<trkpt lat="50.557699" lon="3.903982"><ele>64.91</ele><time>2025-05-25T19:16:08Z</time></trkpt>
<trkpt lat="50.557707" lon="3.903876"><ele>65.21</ele><time>2025-05-25T19:16:12Z</time></trkpt>
<trkpt lat="50.557938" lon="3.901914"><ele>65.42</ele><time>2025-05-25T19:16:16Z</time></trkpt>
<trkpt lat="50.557933" lon="3.901764"><ele>65.44</ele><time>2025-05-25T19:16:21Z</time></trkpt>
<trkpt lat="50.557858" lon="3.901189"><ele>65.71</ele><time>2025-05-25T19:16:25Z</time></trkpt>
<trkpt lat="50.557863" lon="3.900085"><ele>65.69</ele><time>2025-05-25T19:16:30Z</time></trkpt>
<trkpt lat="50.557831" lon="3.899838"><ele>65.81</ele><time>2025-05-25T19:16:34Z</time></trkpt>
<trkpt lat="50.557853" lon="3.899648"><ele>65.73</ele><time>2025-05-25T19:16:39Z</time></trkpt>
<trkpt lat="50.557561" lon="3.897244"><ele>65.0</ele><time>2025-05-25T19:16:43Z</time></trkpt>
<trkpt lat="50.557547" lon="3.897058"><ele>64.41</ele><time>2025-05-25T19:16:47Z</time></trkpt>
<trkpt lat="50.557559" lon="3.896909"><ele>64.0</ele><time>2025-05-25T19:16:52Z</time></trkpt>
<trkpt lat="50.557507" lon="3.896847"><ele>64.0</ele><time>2025-05-25T19:16:55Z</time></trkpt>
<trkpt lat="50.557459" lon="3.896749"><ele>64.0</ele><time>2025-05-25T19:16:58Z</time></trkpt>
<trkpt lat="50.557395" lon="3.89657"><ele>64.13</ele><time>2025-05-25T19:17:01Z</time></trkpt>
<trkpt lat="50.557309" lon="3.896137"><ele>64.69</ele><time>2025-05-25T19:17:04Z</time></trkpt>
<trkpt lat="50.5573" lon="3.895689"><ele>64.72</ele><time>2025-05-25T19:17:07Z</time></trkpt>
<trkpt lat="50.557353" lon="3.895339"><ele>63.75</ele><time>2025-05-25T19:17:10Z</time></trkpt>
<trkpt lat="50.55784" lon="3.892711"><ele>63.76</ele><time>2025-05-25T19:17:13Z</time></trkpt>
<trkpt lat="50.557974" lon="3.891789"><ele>62.71</ele><time>2025-05-25T19:17:16Z</time></trkpt>
<trkpt lat="50.557985" lon="3.891494"><ele>63.37</ele><time>2025-05-25T19:17:19Z</time></trkpt>
<trkpt lat="50.557959" lon="3.89124"><ele>63.84</ele><time>2025-05-25T19:17:22Z</time></trkpt>
<trkpt lat="50.557868" lon="3.890834"><ele>65.0</ele><time>2025-05-25T19:17:25Z</time></trkpt>
<trkpt lat="50.557805" lon="3.890678"><ele>65.0</ele><time>2025-05-25T19:17:28Z</time></trkpt>
<trkpt lat="50.55729" lon="3.889638"><ele>64.0</ele><time>2025-05-25T19:17:31Z</time></trkpt>
<trkpt lat="50.556979" lon="3.88919"><ele>62.32</ele><time>2025-05-25T19:17:34Z</time></trkpt>
<trkpt lat="50.556685" lon="3.888834"><ele>61.8</ele><time>2025-05-25T19:17:37Z</time></trkpt>
<trkpt lat="50.556404" lon="3.888448"><ele>61.39</ele><time>2025-05-25T19:17:40Z</time></trkpt>
<trkpt lat="50.55613" lon="3.888004"><ele>60.93</ele><time>2025-05-25T19:17:42Z</time></trkpt>
<trkpt lat="50.555887" lon="3.88754"><ele>61.86</ele><time>2025-05-25T19:17:45Z</time></trkpt>
<trkpt lat="50.555635" lon="3.886921"><ele>62.28</ele><time>2025-05-25T19:17:48Z</time></trkpt>
<trkpt lat="50.555479" lon="3.886494"><ele>61.0</ele><time>2025-05-25T19:17:51Z</time></trkpt>
<trkpt lat="50.555366" lon="3.886046"><ele>60.55</ele><time>2025-05-25T19:17:54Z</time></trkpt>
<trkpt lat="50.555079" lon="3.884198"><ele>64.46</ele><time>2025-05-25T19:17:57Z</time></trkpt>
<trkpt lat="50.554992" lon="3.883793"><ele>63.92</ele><time>2025-05-25T19:18:00Z</time></trkpt>
<trkpt lat="50.554827" lon="3.883227"><ele>63.23</ele><time>2025-05-25T19:18:03Z</time></trkpt>
<trkpt lat="50.554675" lon="3.882827"><ele>63.14</ele><time>2025-05-25T19:18:06Z</time></trkpt>
<trkpt lat="50.55436" lon="3.882172"><ele>65.43</ele><time>2025-05-25T19:18:09Z</time></trkpt>
<trkpt lat="50.554077" lon="3.881523"><ele>66.52</ele><time>2025-05-25T19:18:12Z</time></trkpt>
<trkpt lat="50.553734" lon="3.880652"><ele>67.81</ele><time>2025-05-25T19:18:15Z</time></trkpt>
<trkpt lat="50.552929" lon="3.878517"><ele>67.0</ele><time>2025-05-25T19:18:18Z</time></trkpt>
<trkpt lat="50.552505" lon="3.877566"><ele>68.75</ele><time>2025-05-25T19:18:21Z</time></trkpt>
<trkpt lat="50.551865" lon="3.875812"><ele>68.57</ele><time>2025-05-25T19:18:24Z</time></trkpt>
<trkpt lat="50.550178" lon="3.872268"><ele>72.06</ele><time>2025-05-25T19:18:27Z</time></trkpt>
<trkpt lat="50.549445" lon="3.870945"><ele>72.59</ele><time>2025-05-25T19:18:30Z</time></trkpt>
<trkpt lat="50.549249" lon="3.870513"><ele>76.15</ele><time>2025-05-25T19:18:33Z</time></trkpt>
<trkpt lat="50.549177" lon="3.870308"><ele>76.92</ele><time>2025-05-25T19:18:36Z</time></trkpt>
<trkpt lat="50.548946" lon="3.869485"><ele>74.15</ele><time>2025-05-25T19:18:39Z</time></trkpt>
<trkpt lat="50.547373" lon="3.864781"><ele>73.53</ele><time>2025-05-25T19:18:42Z</time></trkpt>
<trkpt lat="50.54725" lon="3.864448"><ele>73.1</ele><time>2025-05-25T19:18:45Z</time></trkpt>
<trkpt lat="50.547167" lon="3.864276"><ele>73.08</ele><time>2025-05-25T19:18:48Z</time></trkpt>
<trkpt lat="50.54698" lon="3.863995"><ele>73.0</ele><time>2025-05-25T19:18:51Z</time></trkpt>
<trkpt lat="50.546347" lon="3.863386"><ele>71.19</ele><time>2025-05-25T19:18:54Z</time></trkpt>
<trkpt lat="50.546129" lon="3.863096"><ele>71.8</ele><time>2025-05-25T19:18:57Z</time></trkpt>
<trkpt lat="50.545735" lon="3.862431"><ele>71.65</ele><time>2025-05-25T19:19:00Z</time></trkpt>
<trkpt lat="50.545647" lon="3.86231"><ele>71.33</ele><time>2025-05-25T19:19:03Z</time></trkpt>
<trkpt lat="50.544809" lon="3.861356"><ele>71.0</ele><time>2025-05-25T19:19:06Z</time></trkpt>
<trkpt lat="50.544718" lon="3.861222"><ele>71.02</ele><time>2025-05-25T19:19:09Z</time></trkpt>
<trkpt lat="50.544591" lon="3.860979"><ele>71.72</ele><time>2025-05-25T19:19:12Z</time></trkpt>
<trkpt lat="50.544381" lon="3.860444"><ele>72.09</ele><time>2025-05-25T19:19:15Z</time></trkpt>
<trkpt lat="50.544144" lon="3.859667"><ele>73.08</ele><time>2025-05-25T19:19:18Z</time></trkpt>
<trkpt lat="50.543691" lon="3.859086"><ele>72.57</ele><time>2025-05-25T19:19:21Z</time></trkpt>
<trkpt lat="50.543595" lon="3.858783"><ele>71.56</ele><time>2025-05-25T19:19:30Z</time></trkpt>
<trkpt lat="50.543283" lon="3.858162"><ele>70.0</ele><time>2025-05-25T19:19:39Z</time></trkpt>
<trkpt lat="50.541231" lon="3.854327"><ele>71.99</ele><time>2025-05-25T19:19:49Z</time></trkpt>
<trkpt lat="50.54106" lon="3.853944"><ele>73.65</ele><time>2025-05-25T19:19:58Z</time></trkpt>
<trkpt lat="50.540973" lon="3.853672"><ele>73.89</ele><time>2025-05-25T19:20:07Z</time></trkpt>
<trkpt lat="50.540497" lon="3.852545"><ele>73.62</ele><time>2025-05-25T19:20:17Z</time></trkpt>
<trkpt lat="50.539729" lon="3.850964"><ele>72.55</ele><time>2025-05-25T19:20:26Z</time></trkpt>
<trkpt lat="50.539339" lon="3.850119"><ele>73.35</ele><time>2025-05-25T19:20:35Z</time></trkpt>
<trkpt lat="50.538613" lon="3.848248"><ele>74.31</ele><time>2025-05-25T19:20:45Z</time></trkpt>
<trkpt lat="50.538257" lon="3.847508"><ele>75.0</ele><time>2025-05-25T19:20:54Z</time></trkpt>
<trkpt lat="50.537721" lon="3.84663"><ele>74.33</ele><time>2025-05-25T19:21:03Z</time></trkpt>
<trkpt lat="50.536338" lon="3.844518"><ele>76.23</ele><time>2025-05-25T19:21:13Z</time></trkpt>
<trkpt lat="50.535875" lon="3.843929"><ele>77.0</ele><time>2025-05-25T19:21:22Z</time></trkpt>
<trkpt lat="50.535067" lon="3.842719"><ele>77.95</ele><time>2025-05-25T19:21:31Z</time></trkpt>
<trkpt lat="50.534599" lon="3.842279"><ele>79.0</ele><time>2025-05-25T19:21:41Z</time></trkpt>
<trkpt lat="50.53436" lon="3.842087"><ele>79.15</ele><time>2025-05-25T19:21:50Z</time></trkpt>
<trkpt lat="50.533915" lon="3.841813"><ele>80.47</ele><time>2025-05-25T19:21:59Z</time></trkpt>
<trkpt lat="50.53291" lon="3.841382"><ele>78.5</ele><time>2025-05-25T19:22:09Z</time></trkpt>
<trkpt lat="50.53194" lon="3.840849"><ele>81.04</ele><time>2025-05-25T19:22:18Z</time></trkpt>
<trkpt lat="50.531085" lon="3.840646"><ele>77.9</ele><time>2025-05-25T19:22:27Z</time></trkpt>
<trkpt lat="50.530934" lon="3.840585"><ele>77.36</ele><time>2025-05-25T19:22:37Z</time></trkpt>
<trkpt lat="50.530727" lon="3.840463"><ele>76.62</ele><time>2025-05-25T19:22:46Z</time></trkpt>
<trkpt lat="50.530392" lon="3.840208"><ele>74.82</ele><time>2025-05-25T19:22:55Z</time></trkpt>
<trkpt lat="50.530067" lon="3.839893"><ele>73.15</ele><time>2025-05-25T19:23:04Z</time></trkpt>
<trkpt lat="50.529855" lon="3.839641"><ele>73.15</ele><time>2025-05-25T19:23:14Z</time></trkpt>
<trkpt lat="50.529285" lon="3.8388"><ele>75.36</ele><time>2025-05-25T19:23:23Z</time></trkpt>
<trkpt lat="50.528614" lon="3.837649"><ele>75.54</ele><time>2025-05-25T19:23:32Z</time></trkpt>
<trkpt lat="50.528295" lon="3.837256"><ele>75.0</ele><time>2025-05-25T19:23:42Z</time></trkpt>
<trkpt lat="50.527625" lon="3.838208"><ele>76.0</ele><time>2025-05-25T19:23:52Z</time></trkpt>
<trkpt lat="50.527533" lon="3.838094"><ele>76.74</ele><time>2025-05-25T19:23:58Z</time></trkpt>
<trkpt lat="50.527033" lon="3.837087"><ele>78.0</ele><time>2025-05-25T19:24:03Z</time></trkpt>
<trkpt lat="50.525976" lon="3.835668"><ele>77.21</ele><time>2025-05-25T19:24:09Z</time></trkpt>
<trkpt lat="50.525481" lon="3.834936"><ele>76.54</ele><time>2025-05-25T19:24:14Z</time></trkpt>
<trkpt lat="50.524641" lon="3.833319"><ele>80.04</ele><time>2025-05-25T19:24:20Z</time></trkpt>
<trkpt lat="50.52425" lon="3.832246"><ele>80.0</ele><time>2025-05-25T19:24:25Z</time></trkpt>
<trkpt lat="50.524083" lon="3.831847"><ele>78.45</ele><time>2025-05-25T19:24:31Z</time></trkpt>
<trkpt lat="50.52353" lon="3.830736"><ele>77.29</ele><time>2025-05-25T19:24:36Z</time></trkpt>
<trkpt lat="50.522947" lon="3.829321"><ele>74.0</ele><time>2025-05-25T19:24:42Z</time></trkpt>
<trkpt lat="50.522496" lon="3.8283"><ele>76.0</ele><time>2025-05-25T19:24:47Z</time></trkpt>
<trkpt lat="50.521789" lon="3.826299"><ele>73.44</ele><time>2025-05-25T19:24:53Z</time></trkpt>
<trkpt lat="50.52166" lon="3.826035"><ele>73.0</ele><time>2025-05-25T19:24:59Z</time></trkpt>
<trkpt lat="50.521369" lon="3.825743"><ele>74.38</ele><time>2025-05-25T19:25:04Z</time></trkpt>
<trkpt lat="50.520456" lon="3.824941"><ele>73.07</ele><time>2025-05-25T19:25:10Z</time></trkpt>
<trkpt lat="50.520004" lon="3.824575"><ele>74.52</ele><time>2025-05-25T19:25:15Z</time></trkpt>
<trkpt lat="50.519606" lon="3.824295"><ele>74.39</ele><time>2025-05-25T19:25:21Z</time></trkpt>
<trkpt lat="50.519528" lon="3.824211"><ele>74.19</ele><time>2025-05-25T19:25:26Z</time></trkpt>
<trkpt lat="50.519371" lon="3.824019"><ele>73.47</ele><time>2025-05-25T19:25:32Z</time></trkpt>
<trkpt lat="50.519273" lon="3.823837"><ele>72.81</ele><time>2025-05-25T19:25:37Z</time></trkpt>
<trkpt lat="50.519223" lon="3.823706"><ele>72.79</ele><time>2025-05-25T19:25:43Z</time></trkpt>
<trkpt lat="50.519055" lon="3.823088"><ele>73.88</ele><time>2025-05-25T19:25:48Z</time></trkpt>
<trkpt lat="50.518918" lon="3.822676"><ele>73.96</ele><time>2025-05-25T19:25:54Z</time></trkpt>
<trkpt lat="50.51863" lon="3.822068"><ele>72.89</ele><time>2025-05-25T19:25:59Z</time></trkpt>
<trkpt lat="50.51797" lon="3.820521"><ele>70.12</ele><time>2025-05-25T19:26:05Z</time></trkpt>
<trkpt lat="50.516775" lon="3.81784"><ele>71.0</ele><time>2025-05-25T19:26:10Z</time></trkpt>
<trkpt lat="50.516386" lon="3.817048"><ele>72.61</ele><time>2025-05-25T19:26:16Z</time></trkpt>
<trkpt lat="50.515437" lon="3.815221"><ele>71.91</ele><time>2025-05-25T19:26:22Z</time></trkpt>
<trkpt lat="50.515295" lon="3.814895"><ele>70.68</ele><time>2025-05-25T19:26:27Z</time></trkpt>
<trkpt lat="50.515164" lon="3.814541"><ele>69.35</ele><time>2025-05-25T19:26:33Z</time></trkpt>
<trkpt lat="50.514977" lon="3.813936"><ele>69.0</ele><time>2025-05-25T19:26:38Z</time></trkpt>
<trkpt lat="50.514899" lon="3.813506"><ele>70.0</ele><time>2025-05-25T19:26:44Z</time></trkpt>
<trkpt lat="50.514563" lon="3.810803"><ele>69.57</ele><time>2025-05-25T19:26:49Z</time></trkpt>
<trkpt lat="50.514505" lon="3.810572"><ele>69.78</ele><time>2025-05-25T19:26:55Z</time></trkpt>
<trkpt lat="50.514443" lon="3.810397"><ele>70.58</ele><time>2025-05-25T19:27:00Z</time></trkpt>
<trkpt lat="50.514272" lon="3.810058"><ele>71.62</ele><time>2025-05-25T19:27:06Z</time></trkpt>
<trkpt lat="50.510838" lon="3.804091"><ele>69.98</ele><time>2025-05-25T19:27:11Z</time></trkpt>
<trkpt lat="50.510455" lon="3.803507"><ele>72.0</ele><time>2025-05-25T19:27:17Z</time></trkpt>
<trkpt lat="50.509804" lon="3.802625"><ele>72.0</ele><time>2025-05-25T19:27:22Z</time></trkpt>
<trkpt lat="50.508448" lon="3.800982"><ele>72.47</ele><time>2025-05-25T19:27:28Z</time></trkpt>
<trkpt lat="50.508249" lon="3.800687"><ele>73.37</ele><time>2025-05-25T19:27:33Z</time></trkpt>
<trkpt lat="50.507843" lon="3.799995"><ele>72.98</ele><time>2025-05-25T19:27:39Z</time></trkpt>
<trkpt lat="50.507809" lon="3.799853"><ele>72.47</ele><time>2025-05-25T19:27:44Z</time></trkpt>
<trkpt lat="50.507681" lon="3.799484"><ele>70.75</ele><time>2025-05-25T19:27:50Z</time></trkpt>
<trkpt lat="50.506468" lon="3.796102"><ele>72.97</ele><time>2025-05-25T19:27:56Z</time></trkpt>
<trkpt lat="50.506376" lon="3.795904"><ele>72.25</ele><time>2025-05-25T19:28:01Z</time></trkpt>
<trkpt lat="50.505592" lon="3.794637"><ele>71.13</ele><time>2025-05-25T19:28:07Z</time></trkpt>
<trkpt lat="50.505486" lon="3.794448"><ele>70.75</ele><time>2025-05-25T19:28:12Z</time></trkpt>
<trkpt lat="50.505405" lon="3.794256"><ele>70.15</ele><time>2025-05-25T19:28:18Z</time></trkpt>
<trkpt lat="50.505319" lon="3.793965"><ele>70.0</ele><time>2025-05-25T19:28:23Z</time></trkpt>
<trkpt lat="50.505275" lon="3.793703"><ele>70.68</ele><time>2025-05-25T19:28:29Z</time></trkpt>
<trkpt lat="50.505189" lon="3.791845"><ele>71.2</ele><time>2025-05-25T19:28:34Z</time></trkpt>
<trkpt lat="50.50517" lon="3.791679"><ele>71.02</ele><time>2025-05-25T19:28:40Z</time></trkpt>
<trkpt lat="50.50462" lon="3.790821"><ele>69.0</ele><time>2025-05-25T19:28:45Z</time></trkpt>
<trkpt lat="50.504132" lon="3.789907"><ele>69.79</ele><time>2025-05-25T19:28:51Z</time></trkpt>
<trkpt lat="50.504126" lon="3.789807"><ele>69.45</ele><time>2025-05-25T19:28:56Z</time></trkpt>
<trkpt lat="50.504081" lon="3.789665"><ele>69.17</ele><time>2025-05-25T19:29:02Z</time></trkpt>
<trkpt lat="50.503458" lon="3.788455"><ele>68.44</ele><time>2025-05-25T19:29:07Z</time></trkpt>
<trkpt lat="50.503406" lon="3.788249"><ele>67.92</ele><time>2025-05-25T19:29:13Z</time></trkpt>
<trkpt lat="50.503399" lon="3.788116"><ele>67.82</ele><time>2025-05-25T19:29:19Z</time></trkpt>
<trkpt lat="50.503415" lon="3.787992"><ele>67.71</ele><time>2025-05-25T19:29:24Z</time></trkpt>
<trkpt lat="50.503503" lon="3.787799"><ele>67.39</ele><time>2025-05-25T19:29:30Z</time></trkpt>
<trkpt lat="50.503553" lon="3.787733"><ele>67.3</ele><time>2025-05-25T19:29:35Z</time></trkpt>
<trkpt lat="50.504937" lon="3.786301"><ele>63.45</ele><time>2025-05-25T19:29:41Z</time></trkpt>
<trkpt lat="50.505189" lon="3.786025"><ele>63.31</ele><time>2025-05-25T19:29:46Z</time></trkpt>
<trkpt lat="50.505364" lon="3.78578"><ele>64.0</ele><time>2025-05-25T19:29:52Z</time></trkpt>
<trkpt lat="50.505271" lon="3.785553"><ele>64.01</ele><time>2025-05-25T19:29:57Z</time></trkpt>
<trkpt lat="50.504887" lon="3.784444"><ele>64.4</ele><time>2025-05-25T19:30:01Z</time></trkpt>
<trkpt lat="50.504797" lon="3.784279"><ele>64.29</ele><time>2025-05-25T19:30:06Z</time></trkpt>
<trkpt lat="50.504406" lon="3.783739"><ele>63.4</ele><time>2025-05-25T19:30:11Z</time></trkpt>
<trkpt lat="50.504374" lon="3.783542"><ele>63.0</ele><time>2025-05-25T19:30:16Z</time></trkpt>
<trkpt lat="50.504369" lon="3.783223"><ele>62.6</ele><time>2025-05-25T19:30:21Z</time></trkpt>
<trkpt lat="50.504389" lon="3.783114"><ele>62.21</ele><time>2025-05-25T19:30:25Z</time></trkpt>
<trkpt lat="50.504582" lon="3.782517"><ele>62.0</ele><time>2025-05-25T19:30:30Z</time></trkpt>
<trkpt lat="50.50462" lon="3.782232"><ele>62.0</ele><time>2025-05-25T19:30:35Z</time></trkpt>
<trkpt lat="50.504719" lon="3.780892"><ele>64.02</ele><time>2025-05-25T19:30:40Z</time></trkpt>
<trkpt lat="50.504719" lon="3.780601"><ele>64.03</ele><time>2025-05-25T19:30:45Z</time></trkpt>
<trkpt lat="50.504667" lon="3.779862"><ele>65.89</ele><time>2025-05-25T19:30:50Z</time></trkpt>
<trkpt lat="50.504624" lon="3.779618"><ele>66.71</ele><time>2025-05-25T19:30:54Z</time></trkpt>
<trkpt lat="50.504187" lon="3.778109"><ele>66.0</ele><time>2025-05-25T19:30:59Z</time></trkpt>
<trkpt lat="50.503979" lon="3.777461"><ele>66.32</ele><time>2025-05-25T19:31:04Z</time></trkpt>
<trkpt lat="50.503897" lon="3.777255"><ele>66.03</ele><time>2025-05-25T19:31:09Z</time></trkpt>
<trkpt lat="50.503457" lon="3.776653"><ele>65.45</ele><time>2025-05-25T19:31:14Z</time></trkpt>
<trkpt lat="50.503341" lon="3.776386"><ele>65.98</ele><time>2025-05-25T19:31:18Z</time></trkpt>
<trkpt lat="50.503284" lon="3.776093"><ele>67.0</ele><time>2025-05-25T19:31:23Z</time></trkpt>
<trkpt lat="50.503181" lon="3.775241"><ele>67.55</ele><time>2025-05-25T19:31:28Z</time></trkpt>
<trkpt lat="50.502894" lon="3.774024"><ele>67.79</ele><time>2025-05-25T19:31:33Z</time></trkpt>
<trkpt lat="50.502871" lon="3.77368"><ele>68.25</ele><time>2025-05-25T19:31:38Z</time></trkpt>
<trkpt lat="50.502899" lon="3.773286"><ele>68.51</ele><time>2025-05-25T19:31:43Z</time></trkpt>
<trkpt lat="50.502986" lon="3.772759"><ele>69.5</ele><time>2025-05-25T19:31:47Z</time></trkpt>
<trkpt lat="50.503348" lon="3.771452"><ele>66.22</ele><time>2025-05-25T19:31:52Z</time></trkpt>
<trkpt lat="50.50343" lon="3.771212"><ele>65.58</ele><time>2025-05-25T19:31:57Z</time></trkpt>
<trkpt lat="50.503909" lon="3.770155"><ele>66.0</ele><time>2025-05-25T19:32:02Z</time></trkpt>
<trkpt lat="50.503985" lon="3.769899"><ele>65.76</ele><time>2025-05-25T19:32:07Z</time></trkpt>
<trkpt lat="50.504229" lon="3.76776"><ele>66.22</ele><time>2025-05-25T19:32:11Z</time></trkpt>
<trkpt lat="50.504618" lon="3.765883"><ele>63.49</ele><time>2025-05-25T19:32:16Z</time></trkpt>
<trkpt lat="50.504679" lon="3.765384"><ele>63.67</ele><time>2025-05-25T19:32:21Z</time></trkpt>
<trkpt lat="50.504688" lon="3.764543"><ele>65.0</ele><time>2025-05-25T19:32:26Z</time></trkpt>
<trkpt lat="50.504674" lon="3.764306"><ele>65.41</ele><time>2025-05-25T19:32:31Z</time></trkpt>
<trkpt lat="50.504597" lon="3.763882"><ele>65.55</ele><time>2025-05-25T19:32:36Z</time></trkpt>
<trkpt lat="50.504355" lon="3.76307"><ele>66.64</ele><time>2025-05-25T19:32:40Z</time></trkpt>
<trkpt lat="50.503902" lon="3.762178"><ele>66.16</ele><time>2025-05-25T19:32:45Z</time></trkpt>
<trkpt lat="50.50379" lon="3.761891"><ele>67.07</ele><time>2025-05-25T19:32:50Z</time></trkpt>
<trkpt lat="50.503722" lon="3.761578"><ele>67.92</ele><time>2025-05-25T19:32:55Z</time></trkpt>
<trkpt lat="50.50371" lon="3.761423"><ele>68.52</ele><time>2025-05-25T19:33:00Z</time></trkpt>
<trkpt lat="50.50373" lon="3.76122"><ele>68.57</ele><time>2025-05-25T19:33:05Z</time></trkpt>
<trkpt lat="50.503774" lon="3.761219"><ele>68.41</ele><time>2025-05-25T19:33:05Z</time></trkpt>
<trkpt lat="50.503773" lon="3.761139"><ele>68.42</ele><time>2025-05-25T19:33:26Z</time></trkpt>
<trkpt lat="50.504166" lon="3.753144"><ele>80.0</ele><time>2025-05-25T19:33:47Z</time></trkpt>
<trkpt lat="50.504498" lon="3.748547"><ele>90.61</ele><time>2025-05-25T19:34:08Z</time></trkpt>
<trkpt lat="50.504531" lon="3.748356"><ele>91.54</ele><time>2025-05-25T19:34:29Z</time></trkpt>
<trkpt lat="50.504432" lon="3.748234"><ele>90.61</ele><time>2025-05-25T19:34:36Z</time></trkpt>
<trkpt lat="50.503601" lon="3.74759"><ele>88.75</ele><time>2025-05-25T19:34:43Z</time></trkpt>
<trkpt lat="50.503668" lon="3.747471"><ele>89.02</ele><time>2025-05-25T19:34:48Z</time></trkpt>
<trkpt lat="50.50376" lon="3.7471"><ele>90.18</ele><time>2025-05-25T19:34:53Z</time></trkpt>
<trkpt lat="50.504058" lon="3.7456"><ele>98.72</ele><time>2025-05-25T19:34:58Z</time></trkpt>
<trkpt lat="50.504199" lon="3.745029"><ele>98.0</ele><time>2025-05-25T19:35:03Z</time></trkpt>
<trkpt lat="50.504247" lon="3.744818"><ele>98.0</ele><time>2025-05-25T19:35:09Z</time></trkpt>
<trkpt lat="50.504461" lon="3.74428"><ele>97.31</ele><time>2025-05-25T19:35:14Z</time></trkpt>
<trkpt lat="50.504544" lon="3.744016"><ele>96.09</ele><time>2025-05-25T19:35:19Z</time></trkpt>
<trkpt lat="50.504691" lon="3.743005"><ele>92.22</ele><time>2025-05-25T19:35:24Z</time></trkpt>
<trkpt lat="50.506577" lon="3.72842"><ele>75.66</ele><time>2025-05-25T19:35:29Z</time></trkpt>
<trkpt lat="50.506644" lon="3.72787"><ele>71.44</ele><time>2025-05-25T19:35:34Z</time></trkpt>
<trkpt lat="50.506683" lon="3.727334"><ele>67.96</ele><time>2025-05-25T19:35:39Z</time></trkpt>
<trkpt lat="50.506635" lon="3.726273"><ele>65.77</ele><time>2025-05-25T19:35:44Z</time></trkpt>
<trkpt lat="50.506658" lon="3.725923"><ele>64.61</ele><time>2025-05-25T19:35:50Z</time></trkpt>
<trkpt lat="50.506881" lon="3.725066"><ele>60.47</ele><time>2025-05-25T19:35:55Z</time></trkpt>
<trkpt lat="50.507141" lon="3.724164"><ele>61.71</ele><time>2025-05-25T19:36:00Z</time></trkpt>
<trkpt lat="50.507302" lon="3.723669"><ele>61.94</ele><time>2025-05-25T19:36:05Z</time></trkpt>
<trkpt lat="50.507358" lon="3.723569"><ele>62.0</ele><time>2025-05-25T19:36:10Z</time></trkpt>
<trkpt lat="50.507438" lon="3.722793"><ele>61.78</ele><time>2025-05-25T19:36:15Z</time></trkpt>
<trkpt lat="50.507528" lon="3.722578"><ele>61.28</ele><time>2025-05-25T19:36:20Z</time></trkpt>
<trkpt lat="50.507737" lon="3.722355"><ele>61.0</ele><time>2025-05-25T19:36:25Z</time></trkpt>
<trkpt lat="50.508344" lon="3.721814"><ele>59.0</ele><time>2025-05-25T19:36:31Z</time></trkpt>
<trkpt lat="50.508547" lon="3.721611"><ele>59.2</ele><time>2025-05-25T19:36:36Z</time></trkpt>
<trkpt lat="50.50861" lon="3.721505"><ele>59.58</ele><time>2025-05-25T19:36:41Z</time></trkpt>
<trkpt lat="50.508669" lon="3.72133"><ele>60.21</ele><time>2025-05-25T19:36:46Z</time></trkpt>
<trkpt lat="50.508699" lon="3.72119"><ele>60.72</ele><time>2025-05-25T19:36:51Z</time></trkpt>
<trkpt lat="50.50871" lon="3.721041"><ele>61.25</ele><time>2025-05-25T19:36:56Z</time></trkpt>
<trkpt lat="50.508675" lon="3.720405"><ele>61.58</ele><time>2025-05-25T19:37:01Z</time></trkpt>
<trkpt lat="50.508675" lon="3.72013"><ele>61.23</ele><time>2025-05-25T19:37:07Z</time></trkpt>
<trkpt lat="50.508722" lon="3.719783"><ele>61.09</ele><time>2025-05-25T19:37:12Z</time></trkpt>
<trkpt lat="50.508816" lon="3.71944"><ele>60.99</ele><time>2025-05-25T19:37:17Z</time></trkpt>
<trkpt lat="50.508828" lon="3.719298"><ele>60.59</ele><time>2025-05-25T19:37:22Z</time></trkpt>
<trkpt lat="50.508808" lon="3.719092"><ele>60.29</ele><time>2025-05-25T19:37:27Z</time></trkpt>
<trkpt lat="50.5087" lon="3.718406"><ele>60.68</ele><time>2025-05-25T19:37:32Z</time></trkpt>
<trkpt lat="50.508623" lon="3.717995"><ele>61.96</ele><time>2025-05-25T19:37:37Z</time></trkpt>
<trkpt lat="50.508479" lon="3.717469"><ele>61.0</ele><time>2025-05-25T19:37:42Z</time></trkpt>
<trkpt lat="50.508456" lon="3.717086"><ele>60.78</ele><time>2025-05-25T19:37:48Z</time></trkpt>
<trkpt lat="50.508468" lon="3.716838"><ele>60.51</ele><time>2025-05-25T19:37:53Z</time></trkpt>
<trkpt lat="50.508584" lon="3.716977"><ele>60.2</ele><time>2025-05-25T19:37:56Z</time></trkpt>
<trkpt lat="50.508728" lon="3.717046"><ele>60.36</ele><time>2025-05-25T19:37:58Z</time></trkpt>
<trkpt lat="50.508809" lon="3.717061"><ele>60.42</ele><time>2025-05-25T19:38:01Z</time></trkpt>
<trkpt lat="50.509217" lon="3.716921"><ele>59.82</ele><time>2025-05-25T19:38:04Z</time></trkpt>
<trkpt lat="50.509378" lon="3.71689"><ele>59.24</ele><time>2025-05-25T19:38:07Z</time></trkpt>
<trkpt lat="50.509535" lon="3.716897"><ele>58.62</ele><time>2025-05-25T19:38:10Z</time></trkpt>
<trkpt lat="50.509934" lon="3.717021"><ele>57.51</ele><time>2025-05-25T19:38:13Z</time></trkpt>
<trkpt lat="50.510131" lon="3.717274"><ele>58.0</ele><time>2025-05-25T19:38:16Z</time></trkpt>
<trkpt lat="50.510443" lon="3.714727"><ele>60.03</ele><time>2025-05-25T19:38:38Z</time></trkpt>
<trkpt lat="50.510894" lon="3.714239"><ele>58.32</ele><time>2025-05-25T19:38:44Z</time></trkpt>
<trkpt lat="50.511037" lon="3.714042"><ele>57.55</ele><time>2025-05-25T19:38:51Z</time></trkpt>
<trkpt lat="50.511653" lon="3.712644"><ele>58.53</ele><time>2025-05-25T19:38:58Z</time></trkpt>
<trkpt lat="50.511925" lon="3.711944"><ele>57.07</ele><time>2025-05-25T19:39:04Z</time></trkpt>
<trkpt lat="50.512265" lon="3.710835"><ele>56.01</ele><time>2025-05-25T19:39:11Z</time></trkpt>
<trkpt lat="50.512387" lon="3.710397"><ele>55.0</ele><time>2025-05-25T19:39:17Z</time></trkpt>
<trkpt lat="50.512486" lon="3.709914"><ele>55.31</ele><time>2025-05-25T19:39:24Z</time></trkpt>
<trkpt lat="50.512541" lon="3.709501"><ele>56.15</ele><time>2025-05-25T19:39:31Z</time></trkpt>
<trkpt lat="50.512558" lon="3.70922"><ele>56.68</ele><time>2025-05-25T19:39:37Z</time></trkpt>
<trkpt lat="50.51256" lon="3.708594"><ele>56.78</ele><time>2025-05-25T19:39:44Z</time></trkpt>
<trkpt lat="50.512461" lon="3.706578"><ele>53.42</ele><time>2025-05-25T19:39:51Z</time></trkpt>
<trkpt lat="50.512495" lon="3.705879"><ele>54.82</ele><time>2025-05-25T19:39:57Z</time></trkpt>
<trkpt lat="50.512552" lon="3.705494"><ele>55.96</ele><time>2025-05-25T19:40:04Z</time></trkpt>
<trkpt lat="50.512631" lon="3.705118"><ele>55.47</ele><time>2025-05-25T19:40:10Z</time></trkpt>
<trkpt lat="50.514293" lon="3.698825"><ele>51.23</ele><time>2025-05-25T19:40:17Z</time></trkpt>
<trkpt lat="50.514727" lon="3.697507"><ele>55.06</ele><time>2025-05-25T19:40:24Z</time></trkpt>
<trkpt lat="50.516173" lon="3.693468"><ele>59.88</ele><time>2025-05-25T19:40:30Z</time></trkpt>
<trkpt lat="50.516249" lon="3.693221"><ele>58.69</ele><time>2025-05-25T19:40:37Z</time></trkpt>
<trkpt lat="50.516284" lon="3.692981"><ele>56.94</ele><time>2025-05-25T19:40:44Z</time></trkpt>
<trkpt lat="50.51651" lon="3.690732"><ele>57.0</ele><time>2025-05-25T19:40:50Z</time></trkpt>
<trkpt lat="50.516572" lon="3.690272"><ele>57.34</ele><time>2025-05-25T19:40:57Z</time></trkpt>
<trkpt lat="50.517225" lon="3.68737"><ele>55.0</ele><time>2025-05-25T19:41:03Z</time></trkpt>
<trkpt lat="50.51782" lon="3.684997"><ele>54.86</ele><time>2025-05-25T19:41:10Z</time></trkpt>
<trkpt lat="50.518105" lon="3.683932"><ele>55.82</ele><time>2025-05-25T19:41:17Z</time></trkpt>
<trkpt lat="50.518229" lon="3.68338"><ele>56.14</ele><time>2025-05-25T19:41:23Z</time></trkpt>
<trkpt lat="50.518308" lon="3.682851"><ele>55.24</ele><time>2025-05-25T19:41:30Z</time></trkpt>
<trkpt lat="50.518378" lon="3.682495"><ele>54.0</ele><time>2025-05-25T19:41:37Z</time></trkpt>
<trkpt lat="50.518395" lon="3.682405"><ele>54.0</ele><time>2025-05-25T19:41:47Z</time></trkpt>
<trkpt lat="50.518389" lon="3.682358"><ele>54.0</ele><time>2025-05-25T19:41:58Z</time></trkpt>
<trkpt lat="50.518333" lon="3.682277"><ele>54.0</ele><time>2025-05-25T19:42:08Z</time></trkpt>
<trkpt lat="50.518281" lon="3.682276"><ele>54.19</ele><time>2025-05-25T19:42:19Z</time></trkpt>
<trkpt lat="50.518242" lon="3.682311"><ele>54.33</ele><time>2025-05-25T19:42:30Z</time></trkpt>
<trkpt lat="50.518111" lon="3.68226"><ele>54.8</ele><time>2025-05-25T19:42:40Z</time></trkpt>
<trkpt lat="50.513973" lon="3.675273"><ele>50.0</ele><time>2025-05-25T19:42:51Z</time></trkpt>
<trkpt lat="50.510108" lon="3.668719"><ele>51.76</ele><time>2025-05-25T19:43:01Z</time></trkpt>
<trkpt lat="50.509448" lon="3.667605"><ele>52.0</ele><time>2025-05-25T19:43:12Z</time></trkpt>
<trkpt lat="50.507392" lon="3.664074"><ele>45.0</ele><time>2025-05-25T19:43:23Z</time></trkpt>
<trkpt lat="50.506991" lon="3.66342"><ele>45.0</ele><time>2025-05-25T19:43:33Z</time></trkpt>
<trkpt lat="50.506934" lon="3.663258"><ele>44.73</ele><time>2025-05-25T19:43:44Z</time></trkpt>
<trkpt lat="50.506773" lon="3.662918"><ele>44.0</ele><time>2025-05-25T19:43:54Z</time></trkpt>
<trkpt lat="50.506714" lon="3.662697"><ele>43.71</ele><time>2025-05-25T19:44:05Z</time></trkpt>
<trkpt lat="50.506676" lon="3.662363"><ele>43.0</ele><time>2025-05-25T19:44:09Z</time></trkpt>
<trkpt lat="50.506676" lon="3.661664"><ele>42.02</ele><time>2025-05-25T19:44:13Z</time></trkpt>
<trkpt lat="50.506658" lon="3.66127"><ele>40.97</ele><time>2025-05-25T19:44:16Z</time></trkpt>
<trkpt lat="50.506644" lon="3.660849"><ele>41.86</ele><time>2025-05-25T19:44:20Z</time></trkpt>
<trkpt lat="50.506585" lon="3.660434"><ele>42.75</ele><time>2025-05-25T19:44:24Z</time></trkpt>
<trkpt lat="50.506507" lon="3.66013"><ele>43.96</ele><time>2025-05-25T19:44:28Z</time></trkpt>
<trkpt lat="50.506415" lon="3.659866"><ele>43.61</ele><time>2025-05-25T19:44:32Z</time></trkpt>
<trkpt lat="50.504205" lon="3.655577"><ele>40.2</ele><time>2025-05-25T19:44:35Z</time></trkpt>
<trkpt lat="50.504122" lon="3.655386"><ele>40.8</ele><time>2025-05-25T19:44:39Z</time></trkpt>
<trkpt lat="50.50403" lon="3.65507"><ele>41.27</ele><time>2025-05-25T19:44:43Z</time></trkpt>
<trkpt lat="50.503988" lon="3.654673"><ele>41.07</ele><time>2025-05-25T19:44:47Z</time></trkpt>
<trkpt lat="50.504022" lon="3.654274"><ele>41.44</ele><time>2025-05-25T19:44:51Z</time></trkpt>
<trkpt lat="50.504385" lon="3.652721"><ele>41.61</ele><time>2025-05-25T19:44:55Z</time></trkpt>
<trkpt lat="50.504471" lon="3.652153"><ele>42.25</ele><time>2025-05-25T19:44:58Z</time></trkpt>
<trkpt lat="50.504525" lon="3.651425"><ele>44.87</ele><time>2025-05-25T19:45:02Z</time></trkpt>
<trkpt lat="50.504521" lon="3.650906"><ele>44.53</ele><time>2025-05-25T19:45:06Z</time></trkpt>
<trkpt lat="50.504497" lon="3.65049"><ele>44.14</ele><time>2025-05-25T19:45:10Z</time></trkpt>
<trkpt lat="50.504417" lon="3.649878"><ele>44.4</ele><time>2025-05-25T19:45:14Z</time></trkpt>
<trkpt lat="50.503607" lon="3.645639"><ele>38.69</ele><time>2025-05-25T19:45:17Z</time></trkpt>
<trkpt lat="50.503485" lon="3.645069"><ele>39.09</ele><time>2025-05-25T19:45:21Z</time></trkpt>
<trkpt lat="50.503267" lon="3.644307"><ele>38.12</ele><time>2025-05-25T19:45:25Z</time></trkpt>
<trkpt lat="50.502952" lon="3.643479"><ele>38.55</ele><time>2025-05-25T19:45:29Z</time></trkpt>
<trkpt lat="50.502673" lon="3.6429"><ele>40.45</ele><time>2025-05-25T19:45:33Z</time></trkpt>
<trkpt lat="50.502391" lon="3.642422"><ele>39.39</ele><time>2025-05-25T19:45:37Z</time></trkpt>
<trkpt lat="50.502008" lon="3.641877"><ele>41.35</ele><time>2025-05-25T19:45:40Z</time></trkpt>
<trkpt lat="50.501557" lon="3.641363"><ele>39.91</ele><time>2025-05-25T19:45:44Z</time></trkpt>
<trkpt lat="50.501286" lon="3.641113"><ele>39.37</ele><time>2025-05-25T19:45:48Z</time></trkpt>
<trkpt lat="50.501004" lon="3.640849"><ele>39.44</ele><time>2025-05-25T19:45:52Z</time></trkpt>
<trkpt lat="50.500934" lon="3.640473"><ele>38.34</ele><time>2025-05-25T19:45:56Z</time></trkpt>
<trkpt lat="50.500781" lon="3.639842"><ele>37.38</ele><time>2025-05-25T19:45:59Z</time></trkpt>
<trkpt lat="50.49999" lon="3.637187"><ele>46.07</ele><time>2025-05-25T19:46:03Z</time></trkpt>
<trkpt lat="50.499527" lon="3.635689"><ele>42.41</ele><time>2025-05-25T19:46:07Z</time></trkpt>
<trkpt lat="50.499536" lon="3.635549"><ele>41.66</ele><time>2025-05-25T19:46:10Z</time></trkpt>
<trkpt lat="50.499368" lon="3.63489"><ele>43.61</ele><time>2025-05-25T19:46:14Z</time></trkpt>
<trkpt lat="50.499251" lon="3.634238"><ele>49.66</ele><time>2025-05-25T19:46:18Z</time></trkpt>
<trkpt lat="50.499187" lon="3.633987"><ele>52.24</ele><time>2025-05-25T19:46:22Z</time></trkpt>
<trkpt lat="50.499148" lon="3.633659"><ele>54.03</ele><time>2025-05-25T19:46:25Z</time></trkpt>
<trkpt lat="50.499114" lon="3.632961"><ele>53.41</ele><time>2025-05-25T19:46:29Z</time></trkpt>
<trkpt lat="50.499129" lon="3.632167"><ele>47.61</ele><time>2025-05-25T19:46:33Z</time></trkpt>
<trkpt lat="50.499184" lon="3.631355"><ele>46.63</ele><time>2025-05-25T19:46:36Z</time></trkpt>
<trkpt lat="50.499318" lon="3.630579"><ele>48.06</ele><time>2025-05-25T19:46:40Z</time></trkpt>
<trkpt lat="50.499461" lon="3.629958"><ele>46.54</ele><time>2025-05-25T19:46:44Z</time></trkpt>
<trkpt lat="50.499744" lon="3.62909"><ele>40.79</ele><time>2025-05-25T19:46:48Z</time></trkpt>
<trkpt lat="50.499975" lon="3.62848"><ele>41.69</ele><time>2025-05-25T19:46:51Z</time></trkpt>
<trkpt lat="50.500152" lon="3.628124"><ele>39.06</ele><time>2025-05-25T19:46:55Z</time></trkpt>
<trkpt lat="50.500348" lon="3.627786"><ele>37.0</ele><time>2025-05-25T19:46:59Z</time></trkpt>
<trkpt lat="50.502598" lon="3.623284"><ele>37.82</ele><time>2025-05-25T19:47:02Z</time></trkpt>
<trkpt lat="50.502862" lon="3.622803"><ele>38.0</ele><time>2025-05-25T19:47:06Z</time></trkpt>
<trkpt lat="50.503364" lon="3.621874"><ele>39.22</ele><time>2025-05-25T19:47:10Z</time></trkpt>
<trkpt lat="50.503337" lon="3.621735"><ele>39.74</ele><time>2025-05-25T19:47:15Z</time></trkpt>
<trkpt lat="50.50335" lon="3.621171"><ele>42.62</ele><time>2025-05-25T19:47:19Z</time></trkpt>
<trkpt lat="50.503385" lon="3.619813"><ele>43.47</ele><time>2025-05-25T19:47:24Z</time></trkpt>
<trkpt lat="50.503438" lon="3.618745"><ele>41.72</ele><time>2025-05-25T19:47:29Z</time></trkpt>
<trkpt lat="50.503474" lon="3.618379"><ele>43.61</ele><time>2025-05-25T19:47:33Z</time></trkpt>
<trkpt lat="50.5036" lon="3.615854"><ele>38.04</ele><time>2025-05-25T19:47:38Z</time></trkpt>
<trkpt lat="50.503721" lon="3.613078"><ele>39.53</ele><time>2025-05-25T19:47:43Z</time></trkpt>
<trkpt lat="50.503827" lon="3.612017"><ele>40.22</ele><time>2025-05-25T19:47:48Z</time></trkpt>
<trkpt lat="50.503973" lon="3.61105"><ele>40.15</ele><time>2025-05-25T19:47:52Z</time></trkpt>
<trkpt lat="50.504057" lon="3.610766"><ele>40.4</ele><time>2025-05-25T19:47:57Z</time></trkpt>
<trkpt lat="50.504073" lon="3.610652"><ele>40.34</ele><time>2025-05-25T19:48:02Z</time></trkpt>
<trkpt lat="50.504077" lon="3.610489"><ele>40.24</ele><time>2025-05-25T19:48:06Z</time></trkpt>
<trkpt lat="50.504049" lon="3.610183"><ele>40.0</ele><time>2025-05-25T19:48:11Z</time></trkpt>
<trkpt lat="50.504119" lon="3.608511"><ele>40.0</ele><time>2025-05-25T19:48:16Z</time></trkpt>
<trkpt lat="50.504153" lon="3.608045"><ele>39.0</ele><time>2025-05-25T19:48:21Z</time></trkpt>
<trkpt lat="50.504171" lon="3.607977"><ele>39.0</ele><time>2025-05-25T19:48:28Z</time></trkpt>
<trkpt lat="50.504171" lon="3.6079"><ele>39.0</ele><time>2025-05-25T19:48:36Z</time></trkpt>
<trkpt lat="50.50414" lon="3.607805"><ele>39.0</ele><time>2025-05-25T19:48:44Z</time></trkpt>
<trkpt lat="50.504075" lon="3.607382"><ele>40.14</ele><time>2025-05-25T19:48:52Z</time></trkpt>
<trkpt lat="50.503945" lon="3.605691"><ele>38.19</ele><time>2025-05-25T19:49:00Z</time></trkpt>
<trkpt lat="50.503871" lon="3.602069"><ele>35.58</ele><time>2025-05-25T19:49:08Z</time></trkpt>
<trkpt lat="50.503818" lon="3.600451"><ele>35.88</ele><time>2025-05-25T19:49:15Z</time></trkpt>
<trkpt lat="50.5038" lon="3.600222"><ele>35.26</ele><time>2025-05-25T19:49:23Z</time></trkpt>
<trkpt lat="50.503584" lon="3.598621"><ele>31.03</ele><time>2025-05-25T19:49:31Z</time></trkpt>
<trkpt lat="50.503502" lon="3.59832"><ele>31.02</ele><time>2025-05-25T19:49:39Z</time></trkpt>
<trkpt lat="50.503317" lon="3.597961"><ele>32.06</ele><time>2025-05-25T19:49:47Z</time></trkpt>
<trkpt lat="50.503317" lon="3.597935"><ele>32.06</ele><time>2025-05-25T19:50:01Z</time></trkpt>
<trkpt lat="50.503445" lon="3.597681"><ele>31.95</ele><time>2025-05-25T19:50:14Z</time></trkpt>
<trkpt lat="50.506752" lon="3.592541"><ele>31.31</ele><time>2025-05-25T19:50:28Z</time></trkpt>
<trkpt lat="50.506819" lon="3.592387"><ele>31.55</ele><time>2025-05-25T19:50:42Z</time></trkpt>
<trkpt lat="50.506854" lon="3.592258"><ele>31.67</ele><time>2025-05-25T19:50:56Z</time></trkpt>
<trkpt lat="50.507269" lon="3.59032"><ele>33.85</ele><time>2025-05-25T19:51:10Z</time></trkpt>
<trkpt lat="50.507337" lon="3.590332"><ele>33.81</ele><time>2025-05-25T19:51:13Z</time></trkpt>
<trkpt lat="50.50739" lon="3.590257"><ele>34.03</ele><time>2025-05-25T19:51:17Z</time></trkpt>
<trkpt lat="50.507523" lon="3.590066"><ele>33.84</ele><time>2025-05-25T19:51:20Z</time></trkpt>
<trkpt lat="50.507915" lon="3.588529"><ele>31.85</ele><time>2025-05-25T19:51:23Z</time></trkpt>
<trkpt lat="50.507952" lon="3.588333"><ele>31.63</ele><time>2025-05-25T19:51:27Z</time></trkpt>
<trkpt lat="50.507973" lon="3.588061"><ele>31.7</ele><time>2025-05-25T19:51:30Z</time></trkpt>
<trkpt lat="50.50798" lon="3.586799"><ele>33.46</ele><time>2025-05-25T19:51:34Z</time></trkpt>
<trkpt lat="50.508225" lon="3.584638"><ele>30.22</ele><time>2025-05-25T19:51:37Z</time></trkpt>
<trkpt lat="50.508232" lon="3.584377"><ele>28.5</ele><time>2025-05-25T19:51:40Z</time></trkpt>
<trkpt lat="50.508199" lon="3.584111"><ele>26.93</ele><time>2025-05-25T19:51:44Z</time></trkpt>
<trkpt lat="50.50813" lon="3.583879"><ele>26.22</ele><time>2025-05-25T19:51:47Z</time></trkpt>
<trkpt lat="50.507502" lon="3.582683"><ele>26.66</ele><time>2025-05-25T19:51:50Z</time></trkpt>
<trkpt lat="50.507114" lon="3.581412"><ele>24.08</ele><time>2025-05-25T19:51:54Z</time></trkpt>
<trkpt lat="50.507084" lon="3.581158"><ele>23.58</ele><time>2025-05-25T19:51:57Z</time></trkpt>
<trkpt lat="50.50709" lon="3.580908"><ele>22.79</ele><time>2025-05-25T19:52:01Z</time></trkpt>
<trkpt lat="50.507224" lon="3.579732"><ele>21.95</ele><time>2025-05-25T19:52:04Z</time></trkpt>
<trkpt lat="50.507301" lon="3.579435"><ele>21.75</ele><time>2025-05-25T19:52:07Z</time></trkpt>
<trkpt lat="50.507407" lon="3.579229"><ele>22.11</ele><time>2025-05-25T19:52:11Z</time></trkpt>
<trkpt lat="50.507685" lon="3.578829"><ele>22.85</ele><time>2025-05-25T19:52:14Z</time></trkpt>
<trkpt lat="50.507954" lon="3.578535"><ele>22.0</ele><time>2025-05-25T19:52:17Z</time></trkpt>
<trkpt lat="50.508155" lon="3.578403"><ele>22.36</ele><time>2025-05-25T19:52:21Z</time></trkpt>
<trkpt lat="50.508667" lon="3.578218"><ele>25.0</ele><time>2025-05-25T19:52:24Z</time></trkpt>
<trkpt lat="50.508845" lon="3.578082"><ele>25.0</ele><time>2025-05-25T19:52:27Z</time></trkpt>
<trkpt lat="50.508944" lon="3.577923"><ele>25.2</ele><time>2025-05-25T19:52:31Z</time></trkpt>
<trkpt lat="50.50901" lon="3.577777"><ele>25.44</ele><time>2025-05-25T19:52:34Z</time></trkpt>
<trkpt lat="50.509074" lon="3.577548"><ele>25.66</ele><time>2025-05-25T19:52:38Z</time></trkpt>
<trkpt lat="50.509103" lon="3.577276"><ele>25.77</ele><time>2025-05-25T19:52:41Z</time></trkpt>
<trkpt lat="50.509088" lon="3.576809"><ele>25.72</ele><time>2025-05-25T19:52:44Z</time></trkpt>
<trkpt lat="50.509101" lon="3.576596"><ele>25.82</ele><time>2025-05-25T19:52:48Z</time></trkpt>
<trkpt lat="50.509143" lon="3.576442"><ele>25.98</ele><time>2025-05-25T19:52:51Z</time></trkpt>
<trkpt lat="50.5092" lon="3.576321"><ele>26.12</ele><time>2025-05-25T19:52:54Z</time></trkpt>
<trkpt lat="50.509276" lon="3.576218"><ele>26.39</ele><time>2025-05-25T19:52:58Z</time></trkpt>
<trkpt lat="50.50938" lon="3.576122"><ele>26.77</ele><time>2025-05-25T19:53:01Z</time></trkpt>
<trkpt lat="50.509588" lon="3.576092"><ele>27.52</ele><time>2025-05-25T19:53:05Z</time></trkpt>
<trkpt lat="50.509856" lon="3.576258"><ele>28.48</ele><time>2025-05-25T19:53:08Z</time></trkpt>
<trkpt lat="50.510185" lon="3.576528"><ele>28.5</ele><time>2025-05-25T19:53:11Z</time></trkpt>
<trkpt lat="50.510534" lon="3.576571"><ele>28.03</ele><time>2025-05-25T19:53:15Z</time></trkpt>
<trkpt lat="50.510563" lon="3.576628"><ele>28.0</ele><time>2025-05-25T19:53:17Z</time></trkpt>
<trkpt lat="50.510613" lon="3.576675"><ele>28.0</ele><time>2025-05-25T19:53:20Z</time></trkpt>
<trkpt lat="50.510675" lon="3.576684"><ele>28.0</ele><time>2025-05-25T19:53:22Z</time></trkpt>
<trkpt lat="50.510726" lon="3.576657"><ele>28.02</ele><time>2025-05-25T19:53:25Z</time></trkpt>
<trkpt lat="50.510767" lon="3.576602"><ele>28.18</ele><time>2025-05-25T19:53:27Z</time></trkpt>
<trkpt lat="50.510797" lon="3.576463"><ele>28.64</ele><time>2025-05-25T19:53:30Z</time></trkpt>
<trkpt lat="50.510788" lon="3.576386"><ele>28.84</ele><time>2025-05-25T19:53:32Z</time></trkpt>
<trkpt lat="50.510758" lon="3.576312"><ele>28.73</ele><time>2025-05-25T19:53:35Z</time></trkpt>
<trkpt lat="50.510713" lon="3.576263"><ele>28.57</ele><time>2025-05-25T19:53:37Z</time></trkpt>
<trkpt lat="50.510682" lon="3.576168"><ele>28.45</ele><time>2025-05-25T19:53:40Z</time></trkpt>
<trkpt lat="50.510673" lon="3.576033"><ele>28.7</ele><time>2025-05-25T19:53:42Z</time></trkpt>
<trkpt lat="50.510832" lon="3.574466"><ele>29.99</ele><time>2025-05-25T19:53:45Z</time></trkpt>
<trkpt lat="50.510841" lon="3.574019"><ele>30.0</ele><time>2025-05-25T19:53:47Z</time></trkpt>
<trkpt lat="50.51079" lon="3.573641"><ele>29.86</ele><time>2025-05-25T19:53:50Z</time></trkpt>
<trkpt lat="50.510558" lon="3.572718"><ele>29.22</ele><time>2025-05-25T19:53:52Z</time></trkpt>
<trkpt lat="50.510479" lon="3.572284"><ele>30.0</ele><time>2025-05-25T19:53:55Z</time></trkpt>
<trkpt lat="50.510479" lon="3.572021"><ele>30.72</ele><time>2025-05-25T19:53:57Z</time></trkpt>
<trkpt lat="50.510496" lon="3.571815"><ele>31.47</ele><time>2025-05-25T19:54:00Z</time></trkpt>
<trkpt lat="50.51065" lon="3.570906"><ele>31.17</ele><time>2025-05-25T19:54:02Z</time></trkpt>
<trkpt lat="50.510693" lon="3.570593"><ele>30.56</ele><time>2025-05-25T19:54:05Z</time></trkpt>
<trkpt lat="50.510707" lon="3.570376"><ele>29.9</ele><time>2025-05-25T19:54:07Z</time></trkpt>
<trkpt lat="50.510704" lon="3.570146"><ele>29.06</ele><time>2025-05-25T19:54:10Z</time></trkpt>
<trkpt lat="50.510551" lon="3.568126"><ele>27.02</ele><time>2025-05-25T19:54:12Z</time></trkpt>
<trkpt lat="50.510367" lon="3.566962"><ele>28.04</ele><time>2025-05-25T19:54:15Z</time></trkpt>
<trkpt lat="50.510223" lon="3.566517"><ele>26.89</ele><time>2025-05-25T19:54:17Z</time></trkpt>
<trkpt lat="50.509889" lon="3.565898"><ele>25.44</ele><time>2025-05-25T19:54:20Z</time></trkpt>
<trkpt lat="50.50921" lon="3.56457"><ele>27.0</ele><time>2025-05-25T19:54:22Z</time></trkpt>
<trkpt lat="50.509108" lon="3.564398"><ele>26.95</ele><time>2025-05-25T19:54:25Z</time></trkpt>
<trkpt lat="50.509016" lon="3.564098"><ele>27.45</ele><time>2025-05-25T19:54:27Z</time></trkpt>
<trkpt lat="50.508961" lon="3.563717"><ele>27.88</ele><time>2025-05-25T19:54:30Z</time></trkpt>
<trkpt lat="50.509163" lon="3.561078"><ele>32.87</ele><time>2025-05-25T19:54:32Z</time></trkpt>
<trkpt lat="50.509319" lon="3.559586"><ele>31.55</ele><time>2025-05-25T19:54:35Z</time></trkpt>
<trkpt lat="50.509313" lon="3.559313"><ele>31.3</ele><time>2025-05-25T19:54:37Z</time></trkpt>
<trkpt lat="50.509275" lon="3.558969"><ele>30.78</ele><time>2025-05-25T19:54:40Z</time></trkpt>
<trkpt lat="50.50919" lon="3.55861"><ele>31.09</ele><time>2025-05-25T19:54:42Z</time></trkpt>
<trkpt lat="50.509121" lon="3.558218"><ele>32.35</ele><time>2025-05-25T19:54:45Z</time></trkpt>
<trkpt lat="50.50907" lon="3.55765"><ele>32.19</ele><time>2025-05-25T19:54:47Z</time></trkpt>
<trkpt lat="50.509104" lon="3.554919"><ele>29.48</ele><time>2025-05-25T19:54:50Z</time></trkpt>
<trkpt lat="50.509094" lon="3.554549"><ele>28.28</ele><time>2025-05-25T19:54:52Z</time></trkpt>
<trkpt lat="50.509036" lon="3.554109"><ele>28.0</ele><time>2025-05-25T19:54:55Z</time></trkpt>
<trkpt lat="50.508845" lon="3.553256"><ele>28.0</ele><time>2025-05-25T19:54:57Z</time></trkpt>
<trkpt lat="50.508736" lon="3.552583"><ele>28.32</ele><time>2025-05-25T19:55:00Z</time></trkpt>
<trkpt lat="50.508565" lon="3.55044"><ele>28.16</ele><time>2025-05-25T19:55:02Z</time></trkpt>
<trkpt lat="50.508176" lon="3.548231"><ele>25.91</ele><time>2025-05-25T19:55:05Z</time></trkpt>
<trkpt lat="50.50813" lon="3.547896"><ele>26.0</ele><time>2025-05-25T19:55:07Z</time></trkpt>
<trkpt lat="50.507935" lon="3.544889"><ele>25.83</ele><time>2025-05-25T19:55:10Z</time></trkpt>
<trkpt lat="50.507859" lon="3.543994"><ele>26.44</ele><time>2025-05-25T19:55:12Z</time></trkpt>
<trkpt lat="50.507764" lon="3.543567"><ele>27.0</ele><time>2025-05-25T19:55:15Z</time></trkpt>
<trkpt lat="50.507336" lon="3.542185"><ele>27.0</ele><time>2025-05-25T19:55:17Z</time></trkpt>
<trkpt lat="50.507138" lon="3.541444"><ele>25.59</ele><time>2025-05-25T19:55:20Z</time></trkpt>
<trkpt lat="50.507075" lon="3.541114"><ele>24.94</ele><time>2025-05-25T19:55:22Z</time></trkpt>
<trkpt lat="50.506858" lon="3.539503"><ele>26.31</ele><time>2025-05-25T19:55:25Z</time></trkpt>
<trkpt lat="50.506572" lon="3.538363"><ele>24.0</ele><time>2025-05-25T19:55:27Z</time></trkpt>
<trkpt lat="50.506261" lon="3.53671"><ele>22.46</ele><time>2025-05-25T19:55:30Z</time></trkpt>
<trkpt lat="50.506143" lon="3.53631"><ele>20.72</ele><time>2025-05-25T19:55:32Z</time></trkpt>
<trkpt lat="50.505708" lon="3.535327"><ele>19.98</ele><time>2025-05-25T19:55:35Z</time></trkpt>
<trkpt lat="50.505694" lon="3.535193"><ele>20.0</ele><time>2025-05-25T19:55:37Z</time></trkpt>
<trkpt lat="50.505805" lon="3.534835"><ele>20.0</ele><time>2025-05-25T19:55:40Z</time></trkpt>
<trkpt lat="50.505928" lon="3.534571"><ele>19.66</ele><time>2025-05-25T19:55:42Z</time></trkpt>
<trkpt lat="50.506017" lon="3.534422"><ele>19.31</ele><time>2025-05-25T19:55:45Z</time></trkpt>
<trkpt lat="50.506853" lon="3.533285"><ele>21.4</ele><time>2025-05-25T19:55:47Z</time></trkpt>
<trkpt lat="50.507143" lon="3.533066"><ele>22.72</ele><time>2025-05-25T19:55:50Z</time></trkpt>
<trkpt lat="50.507354" lon="3.532968"><ele>23.0</ele><time>2025-05-25T19:55:52Z</time></trkpt>
<trkpt lat="50.507972" lon="3.53278"><ele>24.7</ele><time>2025-05-25T19:55:55Z</time></trkpt>
<trkpt lat="50.508159" lon="3.532747"><ele>24.63</ele><time>2025-05-25T19:55:57Z</time></trkpt>
<trkpt lat="50.508381" lon="3.532773"><ele>24.17</ele><time>2025-05-25T19:56:00Z</time></trkpt>
<trkpt lat="50.508468" lon="3.532737"><ele>24.49</ele><time>2025-05-25T19:56:02Z</time></trkpt>
<trkpt lat="50.508559" lon="3.532662"><ele>24.81</ele><time>2025-05-25T19:56:05Z</time></trkpt>
<trkpt lat="50.508769" lon="3.532438"><ele>25.0</ele><time>2025-05-25T19:56:07Z</time></trkpt>
<trkpt lat="50.508944" lon="3.532191"><ele>25.11</ele><time>2025-05-25T19:56:10Z</time></trkpt>
<trkpt lat="50.509431" lon="3.53121"><ele>26.69</ele><time>2025-05-25T19:56:12Z</time></trkpt>
<trkpt lat="50.509498" lon="3.531116"><ele>26.98</ele><time>2025-05-25T19:56:15Z</time></trkpt>
<trkpt lat="50.509411" lon="3.530996"><ele>27.12</ele><time>2025-05-25T19:56:18Z</time></trkpt>
<trkpt lat="50.509188" lon="3.530486"><ele>27.69</ele><time>2025-05-25T19:56:22Z</time></trkpt>
<trkpt lat="50.508246" lon="3.528816"><ele>25.92</ele><time>2025-05-25T19:56:26Z</time></trkpt>
<trkpt lat="50.508137" lon="3.528574"><ele>25.29</ele><time>2025-05-25T19:56:30Z</time></trkpt>
<trkpt lat="50.508057" lon="3.528331"><ele>25.02</ele><time>2025-05-25T19:56:34Z</time></trkpt>
<trkpt lat="50.508053" lon="3.528129"><ele>25.73</ele><time>2025-05-25T19:56:38Z</time></trkpt>
<trkpt lat="50.508424" lon="3.526571"><ele>26.0</ele><time>2025-05-25T19:56:41Z</time></trkpt>
<trkpt lat="50.50857" lon="3.5261"><ele>26.0</ele><time>2025-05-25T19:56:45Z</time></trkpt>
<trkpt lat="50.508854" lon="3.525375"><ele>25.35</ele><time>2025-05-25T19:56:49Z</time></trkpt>
<trkpt lat="50.509248" lon="3.522582"><ele>25.71</ele><time>2025-05-25T19:56:53Z</time></trkpt>
<trkpt lat="50.509282" lon="3.52247"><ele>25.58</ele><time>2025-05-25T19:56:57Z</time></trkpt>
<trkpt lat="50.510052" lon="3.520926"><ele>24.45</ele><time>2025-05-25T19:57:00Z</time></trkpt>
<trkpt lat="50.510311" lon="3.520296"><ele>24.06</ele><time>2025-05-25T19:57:04Z</time></trkpt>
<trkpt lat="50.510475" lon="3.519848"><ele>24.0</ele><time>2025-05-25T19:57:08Z</time></trkpt>
<trkpt lat="50.510668" lon="3.519228"><ele>24.32</ele><time>2025-05-25T19:57:12Z</time></trkpt>
<trkpt lat="50.510754" lon="3.518861"><ele>24.64</ele><time>2025-05-25T19:57:16Z</time></trkpt>
<trkpt lat="50.510945" lon="3.517699"><ele>24.11</ele><time>2025-05-25T19:57:19Z</time></trkpt>
<trkpt lat="50.511297" lon="3.516538"><ele>22.53</ele><time>2025-05-25T19:57:23Z</time></trkpt>
<trkpt lat="50.511354" lon="3.516414"><ele>22.09</ele><time>2025-05-25T19:57:27Z</time></trkpt>
<trkpt lat="50.511932" lon="3.515407"><ele>22.0</ele><time>2025-05-25T19:57:31Z</time></trkpt>
<trkpt lat="50.512047" lon="3.515048"><ele>22.74</ele><time>2025-05-25T19:57:35Z</time></trkpt>
<trkpt lat="50.512144" lon="3.514725"><ele>22.44</ele><time>2025-05-25T19:57:38Z</time></trkpt>
<trkpt lat="50.51239" lon="3.51411"><ele>22.48</ele><time>2025-05-25T19:57:42Z</time></trkpt>
<trkpt lat="50.513088" lon="3.512566"><ele>23.09</ele><time>2025-05-25T19:57:46Z</time></trkpt>
<trkpt lat="50.513221" lon="3.512221"><ele>23.59</ele><time>2025-05-25T19:57:50Z</time></trkpt>
<trkpt lat="50.513329" lon="3.511826"><ele>23.99</ele><time>2025-05-25T19:57:54Z</time></trkpt>
<trkpt lat="50.513362" lon="3.511608"><ele>24.02</ele><time>2025-05-25T19:57:57Z</time></trkpt>
<trkpt lat="50.513476" lon="3.510337"><ele>24.51</ele><time>2025-05-25T19:58:01Z</time></trkpt>
<trkpt lat="50.513676" lon="3.509227"><ele>25.18</ele><time>2025-05-25T19:58:05Z</time></trkpt>
<trkpt lat="50.513722" lon="3.508854"><ele>25.52</ele><time>2025-05-25T19:58:09Z</time></trkpt>
<trkpt lat="50.513844" lon="3.507064"><ele>27.77</ele><time>2025-05-25T19:58:13Z</time></trkpt>
<trkpt lat="50.513842" lon="3.505647"><ele>27.0</ele><time>2025-05-25T19:58:16Z</time></trkpt>
<trkpt lat="50.513996" lon="3.504224"><ele>27.98</ele><time>2025-05-25T19:58:20Z</time></trkpt>
<trkpt lat="50.514087" lon="3.502583"><ele>27.58</ele><time>2025-05-25T19:58:24Z</time></trkpt>
<trkpt lat="50.514134" lon="3.502127"><ele>26.66</ele><time>2025-05-25T19:58:28Z</time></trkpt>
<trkpt lat="50.514279" lon="3.501686"><ele>25.44</ele><time>2025-05-25T19:58:32Z</time></trkpt>
<trkpt lat="50.5143" lon="3.501535"><ele>25.48</ele><time>2025-05-25T19:58:35Z</time></trkpt>
<trkpt lat="50.51429" lon="3.50139"><ele>25.44</ele><time>2025-05-25T19:58:39Z</time></trkpt>
<trkpt lat="50.514262" lon="3.50125"><ele>25.34</ele><time>2025-05-25T19:58:43Z</time></trkpt>
<trkpt lat="50.514073" lon="3.500748"><ele>24.66</ele><time>2025-05-25T19:58:47Z</time></trkpt>
<trkpt lat="50.513879" lon="3.500307"><ele>24.86</ele><time>2025-05-25T19:58:51Z</time></trkpt>
<trkpt lat="50.513612" lon="3.50011"><ele>24.0</ele><time>2025-05-25T19:58:54Z</time></trkpt>
<trkpt lat="50.513501" lon="3.499977"><ele>24.05</ele><time>2025-05-25T19:58:58Z</time></trkpt>
<trkpt lat="50.513405" lon="3.499817"><ele>24.17</ele><time>2025-05-25T19:59:02Z</time></trkpt>
<trkpt lat="50.513236" lon="3.499422"><ele>24.0</ele><time>2025-05-25T19:59:06Z</time></trkpt>
<trkpt lat="50.513231" lon="3.49767"><ele>23.39</ele><time>2025-05-25T19:59:10Z</time></trkpt>
<trkpt lat="50.513213" lon="3.497422"><ele>24.0</ele><time>2025-05-25T19:59:14Z</time></trkpt>
<trkpt lat="50.513168" lon="3.497221"><ele>24.0</ele><time>2025-05-25T19:59:17Z</time></trkpt>
<trkpt lat="50.513063" lon="3.496937"><ele>25.0</ele><time>2025-05-25T19:59:21Z</time></trkpt>
<trkpt lat="50.512828" lon="3.496538"><ele>24.56</ele><time>2025-05-25T19:59:25Z</time></trkpt>
<trkpt lat="50.512771" lon="3.496323"><ele>24.97</ele><time>2025-05-25T19:59:29Z</time></trkpt>
<trkpt lat="50.512716" lon="3.495813"><ele>24.77</ele><time>2025-05-25T19:59:33Z</time></trkpt>
<trkpt lat="50.512678" lon="3.495723"><ele>24.64</ele><time>2025-05-25T19:59:36Z</time></trkpt>
<trkpt lat="50.51261" lon="3.495673"><ele>24.4</ele><time>2025-05-25T19:59:40Z</time></trkpt>
<trkpt lat="50.512146" lon="3.495471"><ele>22.0</ele><time>2025-05-25T19:59:44Z</time></trkpt>
<trkpt lat="50.511808" lon="3.495216"><ele>22.0</ele><time>2025-05-25T19:59:48Z</time></trkpt>
<trkpt lat="50.51142" lon="3.495078"><ele>22.0</ele><time>2025-05-25T19:59:52Z</time></trkpt>
<trkpt lat="50.511293" lon="3.49498"><ele>21.65</ele><time>2025-05-25T19:59:55Z</time></trkpt>
<trkpt lat="50.511133" lon="3.494762"><ele>21.08</ele><time>2025-05-25T19:59:59Z</time></trkpt>
<trkpt lat="50.51048" lon="3.493588"><ele>20.0</ele><time>2025-05-25T20:00:03Z</time></trkpt>
<trkpt lat="50.510393" lon="3.49336"><ele>20.0</ele><time>2025-05-25T20:00:07Z</time></trkpt>
<trkpt lat="50.51039" lon="3.493076"><ele>20.55</ele><time>2025-05-25T20:00:11Z</time></trkpt>
<trkpt lat="50.510464" lon="3.492428"><ele>20.67</ele><time>2025-05-25T20:00:14Z</time></trkpt>
<trkpt lat="50.510841" lon="3.490326"><ele>24.02</ele><time>2025-05-25T20:00:18Z</time></trkpt>
<trkpt lat="50.510962" lon="3.49003"><ele>24.46</ele><time>2025-05-25T20:00:22Z</time></trkpt>
<trkpt lat="50.511219" lon="3.489562"><ele>25.61</ele><time>2025-05-25T20:00:26Z</time></trkpt>
<trkpt lat="50.511417" lon="3.489001"><ele>24.9</ele><time>2025-05-25T20:00:30Z</time></trkpt>
<trkpt lat="50.511432" lon="3.488819"><ele>24.63</ele><time>2025-05-25T20:00:33Z</time></trkpt>
<trkpt lat="50.511402" lon="3.488656"><ele>24.15</ele><time>2025-05-25T20:00:37Z</time></trkpt>
<trkpt lat="50.511106" lon="3.488071"><ele>25.02</ele><time>2025-05-25T20:00:41Z</time></trkpt>
<trkpt lat="50.511074" lon="3.487925"><ele>25.13</ele><time>2025-05-25T20:00:45Z</time></trkpt>
<trkpt lat="50.511022" lon="3.48751"><ele>25.32</ele><time>2025-05-25T20:00:49Z</time></trkpt>
<trkpt lat="50.51095" lon="3.487269"><ele>25.58</ele><time>2025-05-25T20:00:52Z</time></trkpt>
<trkpt lat="50.510646" lon="3.486892"><ele>23.59</ele><time>2025-05-25T20:00:56Z</time></trkpt>
<trkpt lat="50.510841" lon="3.486212"><ele>23.01</ele><time>2025-05-25T20:01:01Z</time></trkpt>
<trkpt lat="50.510866" lon="3.486058"><ele>23.0</ele><time>2025-05-25T20:01:06Z</time></trkpt>
<trkpt lat="50.510871" lon="3.485899"><ele>23.0</ele><time>2025-05-25T20:01:11Z</time></trkpt>
<trkpt lat="50.510812" lon="3.485318"><ele>22.15</ele><time>2025-05-25T20:01:16Z</time></trkpt>
<trkpt lat="50.510801" lon="3.485054"><ele>22.0</ele><time>2025-05-25T20:01:21Z</time></trkpt>
<trkpt lat="50.510858" lon="3.48381"><ele>22.28</ele><time>2025-05-25T20:01:26Z</time></trkpt>
<trkpt lat="50.510889" lon="3.48364"><ele>22.9</ele><time>2025-05-25T20:01:31Z</time></trkpt>
<trkpt lat="50.510982" lon="3.483344"><ele>23.0</ele><time>2025-05-25T20:01:36Z</time></trkpt>
<trkpt lat="50.511301" lon="3.48248"><ele>22.68</ele><time>2025-05-25T20:01:40Z</time></trkpt>
<trkpt lat="50.511379" lon="3.48223"><ele>22.96</ele><time>2025-05-25T20:01:45Z</time></trkpt>
<trkpt lat="50.511425" lon="3.481617"><ele>22.0</ele><time>2025-05-25T20:01:50Z</time></trkpt>
<trkpt lat="50.511369" lon="3.481047"><ele>22.16</ele><time>2025-05-25T20:01:55Z</time></trkpt>
<trkpt lat="50.511313" lon="3.480142"><ele>23.27</ele><time>2025-05-25T20:02:00Z</time></trkpt>
<trkpt lat="50.511245" lon="3.47965"><ele>22.38</ele><time>2025-05-25T20:02:05Z</time></trkpt>
<trkpt lat="50.511247" lon="3.478825"><ele>21.62</ele><time>2025-05-25T20:02:10Z</time></trkpt>
<trkpt lat="50.511217" lon="3.478522"><ele>22.0</ele><time>2025-05-25T20:02:15Z</time></trkpt>
<trkpt lat="50.511186" lon="3.478411"><ele>22.0</ele><time>2025-05-25T20:02:20Z</time></trkpt>
<trkpt lat="50.511113" lon="3.478254"><ele>21.72</ele><time>2025-05-25T20:02:25Z</time></trkpt>
<trkpt lat="50.510862" lon="3.47792"><ele>21.0</ele><time>2025-05-25T20:02:30Z</time></trkpt>
<trkpt lat="50.510812" lon="3.477813"><ele>21.08</ele><time>2025-05-25T20:02:34Z</time></trkpt>
<trkpt lat="50.510806" lon="3.477674"><ele>21.43</ele><time>2025-05-25T20:02:39Z</time></trkpt>
<trkpt lat="50.51082" lon="3.477581"><ele>21.72</ele><time>2025-05-25T20:02:44Z</time></trkpt>
<trkpt lat="50.511006" lon="3.476974"><ele>22.0</ele><time>2025-05-25T20:02:49Z</time></trkpt>
<trkpt lat="50.511076" lon="3.47661"><ele>22.0</ele><time>2025-05-25T20:02:54Z</time></trkpt>
<trkpt lat="50.511097" lon="3.47631"><ele>22.0</ele><time>2025-05-25T20:02:59Z</time></trkpt>
<trkpt lat="50.511067" lon="3.476068"><ele>22.16</ele><time>2025-05-25T20:03:04Z</time></trkpt>
<trkpt lat="50.510993" lon="3.475834"><ele>23.0</ele><time>2025-05-25T20:03:09Z</time></trkpt>
<trkpt lat="50.510856" lon="3.47556"><ele>23.0</ele><time>2025-05-25T20:03:14Z</time></trkpt>
<trkpt lat="50.510682" lon="3.475317"><ele>22.92</ele><time>2025-05-25T20:03:19Z</time></trkpt>
<trkpt lat="50.510153" lon="3.474724"><ele>23.9</ele><time>2025-05-25T20:03:23Z</time></trkpt>
<trkpt lat="50.510092" lon="3.474618"><ele>24.34</ele><time>2025-05-25T20:03:28Z</time></trkpt>
<trkpt lat="50.510069" lon="3.474493"><ele>24.5</ele><time>2025-05-25T20:03:33Z</time></trkpt>
<trkpt lat="50.510077" lon="3.474339"><ele>24.17</ele><time>2025-05-25T20:03:38Z</time></trkpt>
<trkpt lat="50.51012" lon="3.474159"><ele>23.57</ele><time>2025-05-25T20:03:43Z</time></trkpt>
<trkpt lat="50.510612" lon="3.472892"><ele>23.41</ele><time>2025-05-25T20:03:48Z</time></trkpt>
<trkpt lat="50.510651" lon="3.472753"><ele>23.68</ele><time>2025-05-25T20:03:53Z</time></trkpt>
<trkpt lat="50.510653" lon="3.472633"><ele>23.7</ele><time>2025-05-25T20:03:58Z</time></trkpt>
<trkpt lat="50.510607" lon="3.47248"><ele>23.37</ele><time>2025-05-25T20:04:03Z</time></trkpt>
<trkpt lat="50.510522" lon="3.47236"><ele>22.88</ele><time>2025-05-25T20:04:08Z</time></trkpt>
<trkpt lat="50.509352" lon="3.471162"><ele>25.0</ele><time>2025-05-25T20:04:13Z</time></trkpt>
<trkpt lat="50.509167" lon="3.470905"><ele>24.26</ele><time>2025-05-25T20:04:17Z</time></trkpt>
<trkpt lat="50.508491" lon="3.469762"><ele>25.0</ele><time>2025-05-25T20:04:22Z</time></trkpt>
<trkpt lat="50.508424" lon="3.469535"><ele>25.0</ele><time>2025-05-25T20:04:27Z</time></trkpt>
<trkpt lat="50.508394" lon="3.469289"><ele>25.0</ele><time>2025-05-25T20:04:32Z</time></trkpt>
<trkpt lat="50.508373" lon="3.468605"><ele>25.0</ele><time>2025-05-25T20:04:37Z</time></trkpt>
<trkpt lat="50.508356" lon="3.468508"><ele>25.0</ele><time>2025-05-25T20:04:42Z</time></trkpt>
<trkpt lat="50.508321" lon="3.46842"><ele>25.04</ele><time>2025-05-25T20:04:47Z</time></trkpt>
<trkpt lat="50.507101" lon="3.466734"><ele>25.01</ele><time>2025-05-25T20:04:52Z</time></trkpt>
<trkpt lat="50.506807" lon="3.466502"><ele>25.41</ele><time>2025-05-25T20:04:57Z</time></trkpt>
<trkpt lat="50.505265" lon="3.465732"><ele>23.0</ele><time>2025-05-25T20:05:02Z</time></trkpt>
<trkpt lat="50.504391" lon="3.465066"><ele>21.19</ele><time>2025-05-25T20:05:07Z</time></trkpt>
<trkpt lat="50.503582" lon="3.464508"><ele>22.0</ele><time>2025-05-25T20:05:11Z</time></trkpt>
<trkpt lat="50.503174" lon="3.464227"><ele>20.65</ele><time>2025-05-25T20:05:16Z</time></trkpt>
<trkpt lat="50.503138" lon="3.464166"><ele>20.3</ele><time>2025-05-25T20:05:21Z</time></trkpt>
<trkpt lat="50.503127" lon="3.464096"><ele>20.25</ele><time>2025-05-25T20:05:26Z</time></trkpt>
<trkpt lat="50.50333" lon="3.462337"><ele>23.01</ele><time>2025-05-25T20:05:31Z</time></trkpt>
<trkpt lat="50.503534" lon="3.461051"><ele>20.78</ele><time>2025-05-25T20:05:36Z</time></trkpt>
<trkpt lat="50.50409" lon="3.458503"><ele>21.0</ele><time>2025-05-25T20:05:41Z</time></trkpt>
<trkpt lat="50.504327" lon="3.457174"><ele>20.83</ele><time>2025-05-25T20:05:46Z</time></trkpt>
<trkpt lat="50.504368" lon="3.456307"><ele>19.0</ele><time>2025-05-25T20:05:51Z</time></trkpt>
<trkpt lat="50.504471" lon="3.454999"><ele>18.9</ele><time>2025-05-25T20:05:56Z</time></trkpt>
<trkpt lat="50.504459" lon="3.454883"><ele>18.92</ele><time>2025-05-25T20:06:00Z</time></trkpt>
<trkpt lat="50.504426" lon="3.454815"><ele>19.02</ele><time>2025-05-25T20:06:05Z</time></trkpt>
<trkpt lat="50.503547" lon="3.454241"><ele>17.2</ele><time>2025-05-25T20:06:10Z</time></trkpt>
<trkpt lat="50.501933" lon="3.452939"><ele>18.04</ele><time>2025-05-25T20:06:15Z</time></trkpt>
<trkpt lat="50.501365" lon="3.452532"><ele>16.94</ele><time>2025-05-25T20:06:20Z</time></trkpt>
<trkpt lat="50.50084" lon="3.452212"><ele>14.06</ele><time>2025-05-25T20:06:25Z</time></trkpt>
<trkpt lat="50.500523" lon="3.452011"><ele>16.14</ele><time>2025-05-25T20:06:30Z</time></trkpt>
<trkpt lat="50.500402" lon="3.451963"><ele>17.63</ele><time>2025-05-25T20:06:35Z</time></trkpt>
<trkpt lat="50.499981" lon="3.451864"><ele>18.98</ele><time>2025-05-25T20:06:40Z</time></trkpt>
<trkpt lat="50.499761" lon="3.451768"><ele>18.45</ele><time>2025-05-25T20:06:45Z</time></trkpt>
<trkpt lat="50.499658" lon="3.45168"><ele>17.82</ele><time>2025-05-25T20:06:50Z</time></trkpt>
<trkpt lat="50.499578" lon="3.451566"><ele>17.12</ele><time>2025-05-25T20:06:54Z</time></trkpt>
<trkpt lat="50.49934" lon="3.451044"><ele>16.28</ele><time>2025-05-25T20:06:59Z</time></trkpt>
<trkpt lat="50.498642" lon="3.449415"><ele>14.11</ele><time>2025-05-25T20:07:04Z</time></trkpt>
<trkpt lat="50.498502" lon="3.449078"><ele>15.39</ele><time>2025-05-25T20:07:09Z</time></trkpt>
<trkpt lat="50.497022" lon="3.444737"><ele>16.67</ele><time>2025-05-25T20:07:14Z</time></trkpt>
<trkpt lat="50.496772" lon="3.444094"><ele>17.62</ele><time>2025-05-25T20:07:19Z</time></trkpt>
<trkpt lat="50.496714" lon="3.443988"><ele>17.83</ele><time>2025-05-25T20:07:24Z</time></trkpt>
<trkpt lat="50.496626" lon="3.443944"><ele>18.0</ele><time>2025-05-25T20:07:29Z</time></trkpt>
<trkpt lat="50.496578" lon="3.443837"><ele>17.93</ele><time>2025-05-25T20:07:34Z</time></trkpt>
<trkpt lat="50.49649" lon="3.44371"><ele>18.17</ele><time>2025-05-25T20:07:40Z</time></trkpt>
<trkpt lat="50.496053" lon="3.443255"><ele>21.21</ele><time>2025-05-25T20:07:45Z</time></trkpt>
<trkpt lat="50.496009" lon="3.443173"><ele>21.37</ele><time>2025-05-25T20:07:50Z</time></trkpt>
<trkpt lat="50.495999" lon="3.443026"><ele>21.4</ele><time>2025-05-25T20:07:56Z</time></trkpt>
<trkpt lat="50.496033" lon="3.442889"><ele>21.28</ele><time>2025-05-25T20:08:01Z</time></trkpt>
<trkpt lat="50.496191" lon="3.44249"><ele>21.43</ele><time>2025-05-25T20:08:07Z</time></trkpt>
<trkpt lat="50.496443" lon="3.442011"><ele>20.57</ele><time>2025-05-25T20:08:12Z</time></trkpt>
<trkpt lat="50.496788" lon="3.441368"><ele>21.04</ele><time>2025-05-25T20:08:18Z</time></trkpt>
<trkpt lat="50.497432" lon="3.440584"><ele>20.0</ele><time>2025-05-25T20:08:23Z</time></trkpt>
<trkpt lat="50.497746" lon="3.44024"><ele>20.0</ele><time>2025-05-25T20:08:28Z</time></trkpt>
<trkpt lat="50.498318" lon="3.439897"><ele>19.02</ele><time>2025-05-25T20:08:34Z</time></trkpt>
<trkpt lat="50.498713" lon="3.439554"><ele>19.0</ele><time>2025-05-25T20:08:39Z</time></trkpt>
<trkpt lat="50.499098" lon="3.439048"><ele>20.0</ele><time>2025-05-25T20:08:45Z</time></trkpt>
<trkpt lat="50.499616" lon="3.438174"><ele>19.96</ele><time>2025-05-25T20:08:50Z</time></trkpt>
<trkpt lat="50.500968" lon="3.436278"><ele>20.0</ele><time>2025-05-25T20:08:55Z</time></trkpt>
<trkpt lat="50.501768" lon="3.435065"><ele>20.28</ele><time>2025-05-25T20:09:01Z</time></trkpt>
<trkpt lat="50.502616" lon="3.433873"><ele>21.0</ele><time>2025-05-25T20:09:06Z</time></trkpt>
<trkpt lat="50.503094" lon="3.433159"><ele>20.91</ele><time>2025-05-25T20:09:12Z</time></trkpt>
<trkpt lat="50.503537" lon="3.432387"><ele>18.53</ele><time>2025-05-25T20:09:17Z</time></trkpt>
<trkpt lat="50.503583" lon="3.432259"><ele>18.2</ele><time>2025-05-25T20:09:23Z</time></trkpt>
<trkpt lat="50.503605" lon="3.432125"><ele>18.38</ele><time>2025-05-25T20:09:28Z</time></trkpt>
<trkpt lat="50.503659" lon="3.432076"><ele>18.52</ele><time>2025-05-25T20:09:33Z</time></trkpt>
<trkpt lat="50.503662" lon="3.431979"><ele>18.88</ele><time>2025-05-25T20:09:39Z</time></trkpt>
<trkpt lat="50.503795" lon="3.431869"><ele>19.09</ele><time>2025-05-25T20:09:47Z</time></trkpt>
<trkpt lat="50.503908" lon="3.431735"><ele>19.0</ele><time>2025-05-25T20:09:55Z</time></trkpt>
<trkpt lat="50.504871" lon="3.430473"><ele>16.62</ele><time>2025-05-25T20:10:03Z</time></trkpt>
<trkpt lat="50.505229" lon="3.42993"><ele>16.96</ele><time>2025-05-25T20:10:11Z</time></trkpt>
<trkpt lat="50.505734" lon="3.429106"><ele>17.64</ele><time>2025-05-25T20:10:20Z</time></trkpt>
<trkpt lat="50.506515" lon="3.427897"><ele>20.0</ele><time>2025-05-25T20:10:28Z</time></trkpt>
<trkpt lat="50.507755" lon="3.425998"><ele>20.92</ele><time>2025-05-25T20:10:36Z</time></trkpt>
<trkpt lat="50.508927" lon="3.424261"><ele>21.38</ele><time>2025-05-25T20:10:44Z</time></trkpt>
<trkpt lat="50.509311" lon="3.423777"><ele>20.0</ele><time>2025-05-25T20:10:52Z</time></trkpt>
<trkpt lat="50.509874" lon="3.423207"><ele>19.84</ele><time>2025-05-25T20:11:00Z</time></trkpt>
<trkpt lat="50.510208" lon="3.422917"><ele>22.63</ele><time>2025-05-25T20:11:08Z</time></trkpt>
<trkpt lat="50.510047" lon="3.422497"><ele>19.51</ele><time>2025-05-25T20:11:27Z</time></trkpt>
<trkpt lat="50.510126" lon="3.422029"><ele>19.21</ele><time>2025-05-25T20:11:30Z</time></trkpt>
<trkpt lat="50.510149" lon="3.421783"><ele>18.76</ele><time>2025-05-25T20:11:34Z</time></trkpt>
<trkpt lat="50.510149" lon="3.42123"><ele>18.54</ele><time>2025-05-25T20:11:37Z</time></trkpt>
<trkpt lat="50.510117" lon="3.42092"><ele>19.11</ele><time>2025-05-25T20:11:40Z</time></trkpt>
<trkpt lat="50.510046" lon="3.420531"><ele>20.0</ele><time>2025-05-25T20:11:44Z</time></trkpt>
<trkpt lat="50.509917" lon="3.420098"><ele>20.3</ele><time>2025-05-25T20:11:47Z</time></trkpt>
<trkpt lat="50.509649" lon="3.419516"><ele>20.28</ele><time>2025-05-25T20:11:50Z</time></trkpt>
<trkpt lat="50.509649" lon="3.419516"><ele>20.28</ele><time>2025-05-25T20:11:50Z</time></trkpt>
<trkpt lat="50.509917" lon="3.420098"><ele>20.3</ele><time>2025-05-25T20:11:54Z</time></trkpt>
<trkpt lat="50.510046" lon="3.420531"><ele>20.0</ele><time>2025-05-25T20:11:57Z</time></trkpt>
<trkpt lat="50.510117" lon="3.42092"><ele>19.11</ele><time>2025-05-25T20:12:00Z</time></trkpt>
<trkpt lat="50.510149" lon="3.42123"><ele>18.54</ele><time>2025-05-25T20:12:03Z</time></trkpt>
<trkpt lat="50.510149" lon="3.421783"><ele>18.76</ele><time>2025-05-25T20:12:07Z</time></trkpt>
<trkpt lat="50.510126" lon="3.422029"><ele>19.21</ele><time>2025-05-25T20:12:10Z</time></trkpt>
<trkpt lat="50.510047" lon="3.422497"><ele>19.51</ele><time>2025-05-25T20:12:13Z</time></trkpt>
<trkpt lat="50.509914" lon="3.422962"><ele>19.69</ele><time>2025-05-25T20:12:16Z</time></trkpt>
<trkpt lat="50.509874" lon="3.423207"><ele>19.84</ele><time>2025-05-25T20:12:19Z</time></trkpt>
<trkpt lat="50.510208" lon="3.422917"><ele>22.63</ele><time>2025-05-25T20:12:30Z</time></trkpt>
<trkpt lat="50.510759" lon="3.422602"><ele>24.1</ele><time>2025-05-25T20:12:40Z</time></trkpt>
<trkpt lat="50.51108" lon="3.422461"><ele>23.86</ele><time>2025-05-25T20:12:51Z</time></trkpt>
<trkpt lat="50.514457" lon="3.421266"><ele>26.0</ele><time>2025-05-25T20:13:01Z</time></trkpt>
<trkpt lat="50.515032" lon="3.421022"><ele>26.0</ele><time>2025-05-25T20:13:11Z</time></trkpt>
<trkpt lat="50.515261" lon="3.420977"><ele>26.0</ele><time>2025-05-25T20:13:22Z</time></trkpt>
<trkpt lat="50.515314" lon="3.421016"><ele>25.91</ele><time>2025-05-25T20:13:29Z</time></trkpt>
<trkpt lat="50.515413" lon="3.421235"><ele>25.51</ele><time>2025-05-25T20:13:36Z</time></trkpt>
<trkpt lat="50.515979" lon="3.423293"><ele>15.15</ele><time>2025-05-25T20:13:43Z</time></trkpt>
<trkpt lat="50.515999" lon="3.423399"><ele>15.14</ele><time>2025-05-25T20:13:50Z</time></trkpt>
<trkpt lat="50.515269" lon="3.43125"><ele>15.03</ele><time>2025-05-25T20:13:57Z</time></trkpt>
<trkpt lat="50.515245" lon="3.43163"><ele>14.25</ele><time>2025-05-25T20:14:04Z</time></trkpt>
<trkpt lat="50.515252" lon="3.432037"><ele>14.06</ele><time>2025-05-25T20:14:11Z</time></trkpt>
<trkpt lat="50.51531" lon="3.432478"><ele>14.0</ele><time>2025-05-25T20:14:18Z</time></trkpt>
<trkpt lat="50.515374" lon="3.432736"><ele>14.85</ele><time>2025-05-25T20:14:25Z</time></trkpt>
<trkpt lat="50.515627" lon="3.433505"><ele>15.0</ele><time>2025-05-25T20:14:32Z</time></trkpt>
<trkpt lat="50.515862" lon="3.434054"><ele>16.21</ele><time>2025-05-25T20:14:39Z</time></trkpt>
<trkpt lat="50.516391" lon="3.434847"><ele>16.55</ele><time>2025-05-25T20:14:46Z</time></trkpt>
<trkpt lat="50.51691" lon="3.435754"><ele>17.0</ele><time>2025-05-25T20:14:53Z</time></trkpt>
<trkpt lat="50.518529" lon="3.437897"><ele>17.7</ele><time>2025-05-25T20:15:00Z</time></trkpt>
<trkpt lat="50.518857" lon="3.438409"><ele>16.23</ele><time>2025-05-25T20:15:07Z</time></trkpt>
<trkpt lat="50.52081" lon="3.442099"><ele>16.08</ele><time>2025-05-25T20:15:14Z</time></trkpt>
<trkpt lat="50.520869" lon="3.442283"><ele>16.0</ele><time>2025-05-25T20:15:21Z</time></trkpt>
<trkpt lat="50.520905" lon="3.44246"><ele>16.0</ele><time>2025-05-25T20:15:28Z</time></trkpt>
<trkpt lat="50.52092" lon="3.442642"><ele>16.51</ele><time>2025-05-25T20:15:35Z</time></trkpt>
<trkpt lat="50.520924" lon="3.44298"><ele>17.0</ele><time>2025-05-25T20:15:42Z</time></trkpt>
<trkpt lat="50.520825" lon="3.446349"><ele>17.0</ele><time>2025-05-25T20:15:49Z</time></trkpt>
<trkpt lat="50.520842" lon="3.446728"><ele>16.0</ele><time>2025-05-25T20:15:56Z</time></trkpt>
<trkpt lat="50.520893" lon="3.446929"><ele>16.0</ele><time>2025-05-25T20:16:03Z</time></trkpt>
<trkpt lat="50.521161" lon="3.446685"><ele>16.0</ele><time>2025-05-25T20:16:06Z</time></trkpt>
<trkpt lat="50.521289" lon="3.446648"><ele>16.0</ele><time>2025-05-25T20:16:10Z</time></trkpt>
<trkpt lat="50.521426" lon="3.446662"><ele>16.0</ele><time>2025-05-25T20:16:14Z</time></trkpt>
<trkpt lat="50.52154" lon="3.44675"><ele>16.0</ele><time>2025-05-25T20:16:17Z</time></trkpt>
<trkpt lat="50.522219" lon="3.44745"><ele>17.0</ele><time>2025-05-25T20:16:21Z</time></trkpt>
<trkpt lat="50.522385" lon="3.447718"><ele>17.91</ele><time>2025-05-25T20:16:25Z</time></trkpt>
<trkpt lat="50.522509" lon="3.448002"><ele>17.97</ele><time>2025-05-25T20:16:28Z</time></trkpt>
<trkpt lat="50.522814" lon="3.448442"><ele>16.87</ele><time>2025-05-25T20:16:32Z</time></trkpt>
<trkpt lat="50.52311" lon="3.44887"><ele>15.8</ele><time>2025-05-25T20:16:36Z</time></trkpt>
<trkpt lat="50.523387" lon="3.449492"><ele>15.19</ele><time>2025-05-25T20:16:40Z</time></trkpt>
<trkpt lat="50.523479" lon="3.449617"><ele>15.52</ele><time>2025-05-25T20:16:43Z</time></trkpt>
<trkpt lat="50.523544" lon="3.449669"><ele>15.76</ele><time>2025-05-25T20:16:47Z</time></trkpt>
<trkpt lat="50.523642" lon="3.449707"><ele>16.11</ele><time>2025-05-25T20:16:51Z</time></trkpt>
<trkpt lat="50.524854" lon="3.449658"><ele>17.47</ele><time>2025-05-25T20:16:54Z</time></trkpt>
<trkpt lat="50.524964" lon="3.449682"><ele>17.87</ele><time>2025-05-25T20:16:58Z</time></trkpt>
<trkpt lat="50.52556" lon="3.449919"><ele>16.69</ele><time>2025-05-25T20:17:02Z</time></trkpt>
<trkpt lat="50.525694" lon="3.450074"><ele>16.5</ele><time>2025-05-25T20:17:05Z</time></trkpt>
<trkpt lat="50.525778" lon="3.450266"><ele>16.2</ele><time>2025-05-25T20:17:09Z</time></trkpt>
<trkpt lat="50.525943" lon="3.450879"><ele>16.6</ele><time>2025-05-25T20:17:13Z</time></trkpt>
<trkpt lat="50.525996" lon="3.451013"><ele>16.41</ele><time>2025-05-25T20:17:16Z</time></trkpt>
<trkpt lat="50.526076" lon="3.45115"><ele>16.13</ele><time>2025-05-25T20:17:20Z</time></trkpt>
<trkpt lat="50.526791" lon="3.451933"><ele>16.44</ele><time>2025-05-25T20:17:24Z</time></trkpt>
<trkpt lat="50.526887" lon="3.452063"><ele>16.79</ele><time>2025-05-25T20:17:27Z</time></trkpt>
<trkpt lat="50.526983" lon="3.45225"><ele>17.14</ele><time>2025-05-25T20:17:31Z</time></trkpt>
<trkpt lat="50.527071" lon="3.452607"><ele>17.84</ele><time>2025-05-25T20:17:35Z</time></trkpt>
<trkpt lat="50.527263" lon="3.453855"><ele>19.13</ele><time>2025-05-25T20:17:39Z</time></trkpt>
<trkpt lat="50.527409" lon="3.454381"><ele>19.67</ele><time>2025-05-25T20:17:42Z</time></trkpt>
<trkpt lat="50.527577" lon="3.455461"><ele>20.0</ele><time>2025-05-25T20:17:46Z</time></trkpt>
<trkpt lat="50.527693" lon="3.456005"><ele>20.19</ele><time>2025-05-25T20:17:50Z</time></trkpt>
<trkpt lat="50.528019" lon="3.457102"><ele>20.7</ele><time>2025-05-25T20:17:53Z</time></trkpt>
<trkpt lat="50.528129" lon="3.457616"><ele>20.84</ele><time>2025-05-25T20:17:57Z</time></trkpt>
<trkpt lat="50.528302" lon="3.458619"><ele>21.89</ele><time>2025-05-25T20:18:01Z</time></trkpt>
<trkpt lat="50.528504" lon="3.45945"><ele>21.39</ele><time>2025-05-25T20:18:04Z</time></trkpt>
<trkpt lat="50.528987" lon="3.461907"><ele>22.0</ele><time>2025-05-25T20:18:08Z</time></trkpt>
<trkpt lat="50.529147" lon="3.462594"><ele>22.59</ele><time>2025-05-25T20:18:12Z</time></trkpt>
<trkpt lat="50.52939" lon="3.463514"><ele>23.13</ele><time>2025-05-25T20:18:15Z</time></trkpt>
<trkpt lat="50.529507" lon="3.464844"><ele>27.44</ele><time>2025-05-25T20:18:19Z</time></trkpt>
<trkpt lat="50.530032" lon="3.468052"><ele>27.11</ele><time>2025-05-25T20:18:23Z</time></trkpt>
<trkpt lat="50.530079" lon="3.46817"><ele>27.7</ele><time>2025-05-25T20:18:26Z</time></trkpt>
<trkpt lat="50.529996" lon="3.46821"><ele>27.57</ele><time>2025-05-25T20:18:47Z</time></trkpt>
<trkpt lat="50.529555" lon="3.468151"><ele>27.74</ele><time>2025-05-25T20:19:07Z</time></trkpt>
<trkpt lat="50.529174" lon="3.468053"><ele>25.06</ele><time>2025-05-25T20:19:27Z</time></trkpt>
<trkpt lat="50.527498" lon="3.46678"><ele>26.57</ele><time>2025-05-25T20:19:48Z</time></trkpt>
<trkpt lat="50.527472" lon="3.466809"><ele>22.32</ele><time>2025-05-25T20:19:50Z</time></trkpt>
<trkpt lat="50.527472" lon="3.466809"><ele>22.32</ele><time>2025-05-25T20:19:50Z</time></trkpt>
<trkpt lat="50.526407" lon="3.468043"><ele>18.07</ele><time>2025-05-25T20:20:09Z</time></trkpt>
<trkpt lat="50.52615" lon="3.468292"><ele>18.85</ele><time>2025-05-25T20:20:28Z</time></trkpt>
<trkpt lat="50.526058" lon="3.468407"><ele>19.0</ele><time>2025-05-25T20:20:47Z</time></trkpt>
<trkpt lat="50.525364" lon="3.469845"><ele>22.62</ele><time>2025-05-25T20:21:06Z</time></trkpt>
<trkpt lat="50.525212" lon="3.470216"><ele>22.22</ele><time>2025-05-25T20:21:25Z</time></trkpt>
<trkpt lat="50.525087" lon="3.470438"><ele>21.42</ele><time>2025-05-25T20:21:44Z</time></trkpt>
<trkpt lat="50.522838" lon="3.467837"><ele>20.22</ele><time>2025-05-25T20:22:03Z</time></trkpt>
<trkpt lat="50.522498" lon="3.467471"><ele>22.0</ele><time>2025-05-25T20:22:22Z</time></trkpt>
<trkpt lat="50.522302" lon="3.467207"><ele>21.96</ele><time>2025-05-25T20:22:42Z</time></trkpt>
<trkpt lat="50.522249" lon="3.467194"><ele>21.91</ele><time>2025-05-25T20:23:01Z</time></trkpt>
<trkpt lat="50.522218" lon="3.467226"><ele>22.0</ele><time>2025-05-25T20:23:20Z</time></trkpt>
<trkpt lat="50.522201" lon="3.467289"><ele>22.0</ele><time>2025-05-25T20:23:39Z</time></trkpt>
<trkpt lat="50.52217" lon="3.467908"><ele>21.19</ele><time>2025-05-25T20:23:58Z</time></trkpt>
<trkpt lat="50.522185" lon="3.468327"><ele>20.16</ele><time>2025-05-25T20:24:17Z</time></trkpt>
<trkpt lat="50.522174" lon="3.468393"><ele>20.39</ele><time>2025-05-25T20:24:36Z</time></trkpt>
<trkpt lat="50.522118" lon="3.468463"><ele>20.84</ele><time>2025-05-25T20:24:55Z</time></trkpt>
<trkpt lat="50.52198" lon="3.468539"><ele>21.61</ele><time>2025-05-25T20:25:14Z</time></trkpt>
<trkpt lat="50.521757" lon="3.468563"><ele>21.27</ele><time>2025-05-25T20:25:33Z</time></trkpt>
<trkpt lat="50.521693" lon="3.468535"><ele>21.07</ele><time>2025-05-25T20:25:52Z</time></trkpt>
<trkpt lat="50.521285" lon="3.468224"><ele>19.85</ele><time>2025-05-25T20:26:11Z</time></trkpt>
<trkpt lat="50.520445" lon="3.467556"><ele>20.0</ele><time>2025-05-25T20:26:30Z</time></trkpt>
<trkpt lat="50.520184" lon="3.467304"><ele>19.66</ele><time>2025-05-25T20:26:49Z</time></trkpt>
<trkpt lat="50.519641" lon="3.466946"><ele>19.29</ele><time>2025-05-25T20:27:09Z</time></trkpt>
<trkpt lat="50.519421" lon="3.466873"><ele>20.09</ele><time>2025-05-25T20:27:28Z</time></trkpt>
<trkpt lat="50.519193" lon="3.466833"><ele>20.91</ele><time>2025-05-25T20:27:47Z</time></trkpt>
<trkpt lat="50.518878" lon="3.466801"><ele>19.96</ele><time>2025-05-25T20:28:06Z</time></trkpt>
<trkpt lat="50.51874" lon="3.466826"><ele>19.46</ele><time>2025-05-25T20:28:25Z</time></trkpt>
<trkpt lat="50.518633" lon="3.466814"><ele>19.08</ele><time>2025-05-25T20:28:44Z</time></trkpt>
<trkpt lat="50.517589" lon="3.466533"><ele>21.32</ele><time>2025-05-25T20:29:03Z</time></trkpt>
<trkpt lat="50.516661" lon="3.466324"><ele>20.98</ele><time>2025-05-25T20:29:22Z</time></trkpt>
<trkpt lat="50.516465" lon="3.46618"><ele>20.27</ele><time>2025-05-25T20:29:41Z</time></trkpt>
<trkpt lat="50.516276" lon="3.465991"><ele>19.34</ele><time>2025-05-25T20:30:00Z</time></trkpt>
<trkpt lat="50.516178" lon="3.465941"><ele>19.09</ele><time>2025-05-25T20:30:19Z</time></trkpt>
<trkpt lat="50.516107" lon="3.465958"><ele>19.05</ele><time>2025-05-25T20:30:38Z</time></trkpt>
<trkpt lat="50.516107" lon="3.465958"><ele>19.05</ele><time>2025-05-25T20:30:38Z</time></trkpt>
<trkpt lat="50.516057" lon="3.465971"><ele>19.0</ele><time>2025-05-25T20:30:45Z</time></trkpt>
<trkpt lat="50.515725" lon="3.46636"><ele>19.04</ele><time>2025-05-25T20:30:53Z</time></trkpt>
<trkpt lat="50.515631" lon="3.466427"><ele>18.9</ele><time>2025-05-25T20:31:00Z</time></trkpt>
<trkpt lat="50.515501" lon="3.466451"><ele>18.77</ele><time>2025-05-25T20:31:07Z</time></trkpt>
<trkpt lat="50.515273" lon="3.466388"><ele>19.0</ele><time>2025-05-25T20:31:14Z</time></trkpt>
<trkpt lat="50.515173" lon="3.466325"><ele>19.0</ele><time>2025-05-25T20:31:21Z</time></trkpt>
<trkpt lat="50.514935" lon="3.4661"><ele>19.23</ele><time>2025-05-25T20:31:28Z</time></trkpt>
<trkpt lat="50.514905" lon="3.466462"><ele>19.34</ele><time>2025-05-25T20:31:40Z</time></trkpt>
<trkpt lat="50.514906" lon="3.466617"><ele>19.34</ele><time>2025-05-25T20:31:51Z</time></trkpt>
<trkpt lat="50.514951" lon="3.466969"><ele>18.91</ele><time>2025-05-25T20:32:03Z</time></trkpt>
<trkpt lat="50.515078" lon="3.467603"><ele>18.09</ele><time>2025-05-25T20:32:14Z</time></trkpt>
<trkpt lat="50.515138" lon="3.468429"><ele>20.0</ele><time>2025-05-25T20:32:26Z</time></trkpt>
<trkpt lat="50.515124" lon="3.469101"><ele>20.0</ele><time>2025-05-25T20:32:37Z</time></trkpt>
<trkpt lat="50.51507" lon="3.470253"><ele>21.75</ele><time>2025-05-25T20:32:49Z</time></trkpt>
<trkpt lat="50.514926" lon="3.471312"><ele>21.0</ele><time>2025-05-25T20:33:00Z</time></trkpt>
<trkpt lat="50.514833" lon="3.471866"><ele>20.6</ele><time>2025-05-25T20:33:12Z</time></trkpt>
<trkpt lat="50.514754" lon="3.471847"><ele>20.88</ele><time>2025-05-25T20:33:13Z</time></trkpt>
<trkpt lat="50.51471" lon="3.472047"><ele>21.04</ele><time>2025-05-25T20:33:20Z</time></trkpt>
<trkpt lat="50.514437" lon="3.472879"><ele>22.0</ele><time>2025-05-25T20:33:27Z</time></trkpt>
<trkpt lat="50.514343" lon="3.473109"><ele>22.0</ele><time>2025-05-25T20:33:34Z</time></trkpt>
<trkpt lat="50.514072" lon="3.473591"><ele>21.66</ele><time>2025-05-25T20:33:41Z</time></trkpt>
<trkpt lat="50.513495" lon="3.475338"><ele>24.09</ele><time>2025-05-25T20:33:48Z</time></trkpt>
<trkpt lat="50.513423" lon="3.475502"><ele>24.55</ele><time>2025-05-25T20:33:55Z</time></trkpt>
<trkpt lat="50.512749" lon="3.474343"><ele>23.5</ele><time>2025-05-25T20:34:01Z</time></trkpt>
<trkpt lat="50.512329" lon="3.473697"><ele>24.54</ele><time>2025-05-25T20:34:08Z</time></trkpt>
<trkpt lat="50.512042" lon="3.473288"><ele>25.59</ele><time>2025-05-25T20:34:14Z</time></trkpt>
<trkpt lat="50.511859" lon="3.473065"><ele>25.69</ele><time>2025-05-25T20:34:21Z</time></trkpt>
<trkpt lat="50.511705" lon="3.472936"><ele>25.14</ele><time>2025-05-25T20:34:28Z</time></trkpt>
<trkpt lat="50.51145" lon="3.472822"><ele>25.0</ele><time>2025-05-25T20:34:34Z</time></trkpt>
<trkpt lat="50.510755" lon="3.472635"><ele>24.43</ele><time>2025-05-25T20:34:41Z</time></trkpt>
<trkpt lat="50.510653" lon="3.472633"><ele>23.7</ele><time>2025-05-25T20:34:48Z</time></trkpt>
<trkpt lat="50.510651" lon="3.472753"><ele>23.68</ele><time>2025-05-25T20:34:50Z</time></trkpt>
<trkpt lat="50.510612" lon="3.472892"><ele>23.41</ele><time>2025-05-25T20:34:53Z</time></trkpt>
<trkpt lat="50.51012" lon="3.474159"><ele>23.57</ele><time>2025-05-25T20:34:56Z</time></trkpt>
<trkpt lat="50.510077" lon="3.474339"><ele>24.17</ele><time>2025-05-25T20:34:59Z</time></trkpt>
<trkpt lat="50.510069" lon="3.474493"><ele>24.5</ele><time>2025-05-25T20:35:01Z</time></trkpt>
<trkpt lat="50.510092" lon="3.474618"><ele>24.34</ele><time>2025-05-25T20:35:04Z</time></trkpt>
<trkpt lat="50.510153" lon="3.474724"><ele>23.9</ele><time>2025-05-25T20:35:07Z</time></trkpt>
<trkpt lat="50.510682" lon="3.475317"><ele>22.92</ele><time>2025-05-25T20:35:10Z</time></trkpt>
<trkpt lat="50.510856" lon="3.47556"><ele>23.0</ele><time>2025-05-25T20:35:13Z</time></trkpt>
<trkpt lat="50.510993" lon="3.475834"><ele>23.0</ele><time>2025-05-25T20:35:15Z</time></trkpt>
<trkpt lat="50.511067" lon="3.476068"><ele>22.16</ele><time>2025-05-25T20:35:18Z</time></trkpt>
<trkpt lat="50.511097" lon="3.47631"><ele>22.0</ele><time>2025-05-25T20:35:21Z</time></trkpt>
<trkpt lat="50.511076" lon="3.47661"><ele>22.0</ele><time>2025-05-25T20:35:24Z</time></trkpt>
<trkpt lat="50.511006" lon="3.476974"><ele>22.0</ele><time>2025-05-25T20:35:27Z</time></trkpt>
<trkpt lat="50.51082" lon="3.477581"><ele>21.72</ele><time>2025-05-25T20:35:29Z</time></trkpt>
<trkpt lat="50.510806" lon="3.477674"><ele>21.43</ele><time>2025-05-25T20:35:32Z</time></trkpt>
<trkpt lat="50.510812" lon="3.477813"><ele>21.08</ele><time>2025-05-25T20:35:35Z</time></trkpt>
<trkpt lat="50.510862" lon="3.47792"><ele>21.0</ele><time>2025-05-25T20:35:38Z</time></trkpt>
<trkpt lat="50.511113" lon="3.478254"><ele>21.72</ele><time>2025-05-25T20:35:41Z</time></trkpt>
<trkpt lat="50.511186" lon="3.478411"><ele>22.0</ele><time>2025-05-25T20:35:43Z</time></trkpt>
<trkpt lat="50.511217" lon="3.478522"><ele>22.0</ele><time>2025-05-25T20:35:46Z</time></trkpt>
<trkpt lat="50.511247" lon="3.478825"><ele>21.62</ele><time>2025-05-25T20:35:49Z</time></trkpt>
<trkpt lat="50.511245" lon="3.47965"><ele>22.38</ele><time>2025-05-25T20:35:52Z</time></trkpt>
<trkpt lat="50.511313" lon="3.480142"><ele>23.27</ele><time>2025-05-25T20:35:54Z</time></trkpt>
<trkpt lat="50.511369" lon="3.481047"><ele>22.16</ele><time>2025-05-25T20:35:57Z</time></trkpt>
<trkpt lat="50.511425" lon="3.481617"><ele>22.0</ele><time>2025-05-25T20:36:00Z</time></trkpt>
<trkpt lat="50.511379" lon="3.48223"><ele>22.96</ele><time>2025-05-25T20:36:03Z</time></trkpt>
<trkpt lat="50.511301" lon="3.48248"><ele>22.68</ele><time>2025-05-25T20:36:06Z</time></trkpt>
<trkpt lat="50.510982" lon="3.483344"><ele>23.0</ele><time>2025-05-25T20:36:08Z</time></trkpt>
<trkpt lat="50.510889" lon="3.48364"><ele>22.9</ele><time>2025-05-25T20:36:11Z</time></trkpt>
<trkpt lat="50.510858" lon="3.48381"><ele>22.28</ele><time>2025-05-25T20:36:14Z</time></trkpt>
<trkpt lat="50.510801" lon="3.485054"><ele>22.0</ele><time>2025-05-25T20:36:17Z</time></trkpt>
<trkpt lat="50.510812" lon="3.485318"><ele>22.15</ele><time>2025-05-25T20:36:20Z</time></trkpt>
<trkpt lat="50.510871" lon="3.485899"><ele>23.0</ele><time>2025-05-25T20:36:22Z</time></trkpt>
<trkpt lat="50.510866" lon="3.486058"><ele>23.0</ele><time>2025-05-25T20:36:25Z</time></trkpt>
<trkpt lat="50.510841" lon="3.486212"><ele>23.01</ele><time>2025-05-25T20:36:28Z</time></trkpt>
<trkpt lat="50.510646" lon="3.486892"><ele>23.59</ele><time>2025-05-25T20:36:31Z</time></trkpt>
<trkpt lat="50.51095" lon="3.487269"><ele>25.58</ele><time>2025-05-25T20:36:34Z</time></trkpt>
<trkpt lat="50.511022" lon="3.48751"><ele>25.32</ele><time>2025-05-25T20:36:38Z</time></trkpt>
<trkpt lat="50.511074" lon="3.487925"><ele>25.13</ele><time>2025-05-25T20:36:41Z</time></trkpt>
<trkpt lat="50.511106" lon="3.488071"><ele>25.02</ele><time>2025-05-25T20:36:45Z</time></trkpt>
<trkpt lat="50.511402" lon="3.488656"><ele>24.15</ele><time>2025-05-25T20:36:48Z</time></trkpt>
<trkpt lat="50.511432" lon="3.488819"><ele>24.63</ele><time>2025-05-25T20:36:52Z</time></trkpt>
<trkpt lat="50.511417" lon="3.489001"><ele>24.9</ele><time>2025-05-25T20:36:55Z</time></trkpt>
<trkpt lat="50.511219" lon="3.489562"><ele>25.61</ele><time>2025-05-25T20:36:59Z</time></trkpt>
<trkpt lat="50.510962" lon="3.49003"><ele>24.46</ele><time>2025-05-25T20:37:02Z</time></trkpt>
<trkpt lat="50.510841" lon="3.490326"><ele>24.02</ele><time>2025-05-25T20:37:05Z</time></trkpt>
<trkpt lat="50.510464" lon="3.492428"><ele>20.67</ele><time>2025-05-25T20:37:09Z</time></trkpt>
<trkpt lat="50.51039" lon="3.493076"><ele>20.55</ele><time>2025-05-25T20:37:12Z</time></trkpt>
<trkpt lat="50.510393" lon="3.49336"><ele>20.0</ele><time>2025-05-25T20:37:16Z</time></trkpt>
<trkpt lat="50.510451" lon="3.493513"><ele>20.0</ele><time>2025-05-25T20:37:19Z</time></trkpt>
<trkpt lat="50.510451" lon="3.493513"><ele>20.0</ele><time>2025-05-25T20:37:19Z</time></trkpt>
<trkpt lat="50.51048" lon="3.493588"><ele>20.0</ele><time>2025-05-25T20:37:22Z</time></trkpt>
<trkpt lat="50.511133" lon="3.494762"><ele>21.08</ele><time>2025-05-25T20:37:25Z</time></trkpt>
<trkpt lat="50.511293" lon="3.49498"><ele>21.65</ele><time>2025-05-25T20:37:28Z</time></trkpt>
<trkpt lat="50.51142" lon="3.495078"><ele>22.0</ele><time>2025-05-25T20:37:31Z</time></trkpt>
<trkpt lat="50.511808" lon="3.495216"><ele>22.0</ele><time>2025-05-25T20:37:34Z</time></trkpt>
<trkpt lat="50.512146" lon="3.495471"><ele>22.0</ele><time>2025-05-25T20:37:37Z</time></trkpt>
<trkpt lat="50.51261" lon="3.495673"><ele>24.4</ele><time>2025-05-25T20:37:40Z</time></trkpt>
<trkpt lat="50.512678" lon="3.495723"><ele>24.64</ele><time>2025-05-25T20:37:43Z</time></trkpt>
<trkpt lat="50.512716" lon="3.495813"><ele>24.77</ele><time>2025-05-25T20:37:46Z</time></trkpt>
<trkpt lat="50.512771" lon="3.496323"><ele>24.97</ele><time>2025-05-25T20:37:49Z</time></trkpt>
<trkpt lat="50.512828" lon="3.496538"><ele>24.56</ele><time>2025-05-25T20:37:52Z</time></trkpt>
<trkpt lat="50.513063" lon="3.496937"><ele>25.0</ele><time>2025-05-25T20:37:55Z</time></trkpt>
<trkpt lat="50.513168" lon="3.497221"><ele>24.0</ele><time>2025-05-25T20:37:58Z</time></trkpt>
<trkpt lat="50.513213" lon="3.497422"><ele>24.0</ele><time>2025-05-25T20:38:01Z</time></trkpt>
<trkpt lat="50.513231" lon="3.49767"><ele>23.39</ele><time>2025-05-25T20:38:04Z</time></trkpt>
<trkpt lat="50.513236" lon="3.499422"><ele>24.0</ele><time>2025-05-25T20:38:07Z</time></trkpt>
<trkpt lat="50.513405" lon="3.499817"><ele>24.17</ele><time>2025-05-25T20:38:10Z</time></trkpt>
<trkpt lat="50.513501" lon="3.499977"><ele>24.05</ele><time>2025-05-25T20:38:13Z</time></trkpt>
<trkpt lat="50.513612" lon="3.50011"><ele>24.0</ele><time>2025-05-25T20:38:16Z</time></trkpt>
<trkpt lat="50.513879" lon="3.500307"><ele>24.86</ele><time>2025-05-25T20:38:19Z</time></trkpt>
<trkpt lat="50.514073" lon="3.500748"><ele>24.66</ele><time>2025-05-25T20:38:22Z</time></trkpt>
<trkpt lat="50.514262" lon="3.50125"><ele>25.34</ele><time>2025-05-25T20:38:25Z</time></trkpt>
<trkpt lat="50.51429" lon="3.50139"><ele>25.44</ele><time>2025-05-25T20:38:28Z</time></trkpt>
<trkpt lat="50.5143" lon="3.501535"><ele>25.48</ele><time>2025-05-25T20:38:31Z</time></trkpt>
<trkpt lat="50.514279" lon="3.501686"><ele>25.44</ele><time>2025-05-25T20:38:34Z</time></trkpt>
<trkpt lat="50.514134" lon="3.502127"><ele>26.66</ele><time>2025-05-25T20:38:37Z</time></trkpt>
<trkpt lat="50.514087" lon="3.502583"><ele>27.58</ele><time>2025-05-25T20:38:40Z</time></trkpt>
<trkpt lat="50.513996" lon="3.504224"><ele>27.98</ele><time>2025-05-25T20:38:43Z</time></trkpt>
<trkpt lat="50.513842" lon="3.505647"><ele>27.0</ele><time>2025-05-25T20:38:46Z</time></trkpt>
<trkpt lat="50.513844" lon="3.507064"><ele>27.77</ele><time>2025-05-25T20:38:49Z</time></trkpt>
<trkpt lat="50.513722" lon="3.508854"><ele>25.52</ele><time>2025-05-25T20:38:52Z</time></trkpt>
<trkpt lat="50.513676" lon="3.509227"><ele>25.18</ele><time>2025-05-25T20:38:55Z</time></trkpt>
<trkpt lat="50.513476" lon="3.510337"><ele>24.51</ele><time>2025-05-25T20:38:58Z</time></trkpt>
<trkpt lat="50.513362" lon="3.511608"><ele>24.02</ele><time>2025-05-25T20:39:01Z</time></trkpt>
<trkpt lat="50.513329" lon="3.511826"><ele>23.99</ele><time>2025-05-25T20:39:05Z</time></trkpt>
<trkpt lat="50.513221" lon="3.512221"><ele>23.59</ele><time>2025-05-25T20:39:08Z</time></trkpt>
<trkpt lat="50.513088" lon="3.512566"><ele>23.09</ele><time>2025-05-25T20:39:11Z</time></trkpt>
<trkpt lat="50.51239" lon="3.51411"><ele>22.48</ele><time>2025-05-25T20:39:14Z</time></trkpt>
<trkpt lat="50.512144" lon="3.514725"><ele>22.44</ele><time>2025-05-25T20:39:17Z</time></trkpt>
<trkpt lat="50.512047" lon="3.515048"><ele>22.74</ele><time>2025-05-25T20:39:20Z</time></trkpt>
<trkpt lat="50.511932" lon="3.515407"><ele>22.0</ele><time>2025-05-25T20:39:23Z</time></trkpt>
<trkpt lat="50.511354" lon="3.516414"><ele>22.09</ele><time>2025-05-25T20:39:26Z</time></trkpt>
<trkpt lat="50.511297" lon="3.516538"><ele>22.53</ele><time>2025-05-25T20:39:29Z</time></trkpt>
<trkpt lat="50.510945" lon="3.517699"><ele>24.11</ele><time>2025-05-25T20:39:32Z</time></trkpt>
<trkpt lat="50.510895" lon="3.517996"><ele>24.0</ele><time>2025-05-25T20:39:35Z</time></trkpt>
<trkpt lat="50.510947" lon="3.518118"><ele>24.09</ele><time>2025-05-25T20:39:49Z</time></trkpt>
<trkpt lat="50.51125" lon="3.518461"><ele>25.0</ele><time>2025-05-25T20:40:03Z</time></trkpt>
<trkpt lat="50.511854" lon="3.51902"><ele>25.67</ele><time>2025-05-25T20:40:17Z</time></trkpt>
<trkpt lat="50.512278" lon="3.519348"><ele>25.8</ele><time>2025-05-25T20:40:31Z</time></trkpt>
<trkpt lat="50.512674" lon="3.519601"><ele>24.38</ele><time>2025-05-25T20:40:45Z</time></trkpt>
<trkpt lat="50.513553" lon="3.51998"><ele>24.79</ele><time>2025-05-25T20:40:59Z</time></trkpt>
<trkpt lat="50.51368" lon="3.519973"><ele>25.0</ele><time>2025-05-25T20:41:06Z</time></trkpt>
<trkpt lat="50.514084" lon="3.520009"><ele>24.3</ele><time>2025-05-25T20:41:13Z</time></trkpt>
<trkpt lat="50.514389" lon="3.520115"><ele>24.8</ele><time>2025-05-25T20:41:19Z</time></trkpt>
<trkpt lat="50.514968" lon="3.520474"><ele>25.0</ele><time>2025-05-25T20:41:26Z</time></trkpt>
<trkpt lat="50.515214" lon="3.520729"><ele>25.0</ele><time>2025-05-25T20:41:33Z</time></trkpt>
<trkpt lat="50.515655" lon="3.521367"><ele>25.0</ele><time>2025-05-25T20:41:39Z</time></trkpt>
<trkpt lat="50.515843" lon="3.521606"><ele>25.81</ele><time>2025-05-25T20:41:46Z</time></trkpt>
<trkpt lat="50.51696" lon="3.522545"><ele>26.1</ele><time>2025-05-25T20:41:52Z</time></trkpt>
<trkpt lat="50.517663" lon="3.523162"><ele>26.2</ele><time>2025-05-25T20:41:59Z</time></trkpt>
<trkpt lat="50.517752" lon="3.523269"><ele>26.14</ele><time>2025-05-25T20:42:06Z</time></trkpt>
<trkpt lat="50.518268" lon="3.523677"><ele>27.71</ele><time>2025-05-25T20:42:12Z</time></trkpt>
<trkpt lat="50.518492" lon="3.523747"><ele>28.29</ele><time>2025-05-25T20:42:19Z</time></trkpt>
<trkpt lat="50.519733" lon="3.523779"><ele>28.4</ele><time>2025-05-25T20:42:26Z</time></trkpt>
<trkpt lat="50.520716" lon="3.523741"><ele>29.73</ele><time>2025-05-25T20:42:32Z</time></trkpt>
<trkpt lat="50.521367" lon="3.523609"><ele>27.08</ele><time>2025-05-25T20:42:39Z</time></trkpt>
<trkpt lat="50.521369" lon="3.523632"><ele>27.14</ele><time>2025-05-25T20:42:45Z</time></trkpt>
<trkpt lat="50.521872" lon="3.523489"><ele>29.74</ele><time>2025-05-25T20:42:52Z</time></trkpt>
<trkpt lat="50.521967" lon="3.524074"><ele>28.92</ele><time>2025-05-25T20:42:55Z</time></trkpt>
<trkpt lat="50.522176" lon="3.525104"><ele>30.83</ele><time>2025-05-25T20:42:59Z</time></trkpt>
<trkpt lat="50.522206" lon="3.525329"><ele>31.11</ele><time>2025-05-25T20:43:02Z</time></trkpt>
<trkpt lat="50.522213" lon="3.525436"><ele>31.52</ele><time>2025-05-25T20:43:05Z</time></trkpt>
<trkpt lat="50.522199" lon="3.52549"><ele>31.62</ele><time>2025-05-25T20:43:09Z</time></trkpt>
<trkpt lat="50.522162" lon="3.525571"><ele>31.52</ele><time>2025-05-25T20:43:12Z</time></trkpt>
<trkpt lat="50.522114" lon="3.525603"><ele>31.12</ele><time>2025-05-25T20:43:15Z</time></trkpt>
<trkpt lat="50.52121" lon="3.52601"><ele>28.36</ele><time>2025-05-25T20:43:19Z</time></trkpt>
<trkpt lat="50.520893" lon="3.526123"><ele>28.0</ele><time>2025-05-25T20:43:22Z</time></trkpt>
<trkpt lat="50.520787" lon="3.526371"><ele>28.0</ele><time>2025-05-25T20:43:25Z</time></trkpt>
<trkpt lat="50.52238" lon="3.525775"><ele>32.23</ele><time>2025-05-25T20:43:30Z</time></trkpt>
<trkpt lat="50.522816" lon="3.525658"><ele>33.0</ele><time>2025-05-25T20:43:35Z</time></trkpt>
<trkpt lat="50.523006" lon="3.525654"><ele>33.0</ele><time>2025-05-25T20:43:41Z</time></trkpt>
<trkpt lat="50.523172" lon="3.525675"><ele>33.0</ele><time>2025-05-25T20:43:46Z</time></trkpt>
<trkpt lat="50.523572" lon="3.525782"><ele>32.14</ele><time>2025-05-25T20:43:51Z</time></trkpt>
<trkpt lat="50.525258" lon="3.526356"><ele>31.25</ele><time>2025-05-25T20:43:56Z</time></trkpt>
<trkpt lat="50.525573" lon="3.526392"><ele>31.05</ele><time>2025-05-25T20:44:01Z</time></trkpt>
<trkpt lat="50.52599" lon="3.526363"><ele>32.56</ele><time>2025-05-25T20:44:06Z</time></trkpt>
<trkpt lat="50.526479" lon="3.526236"><ele>33.18</ele><time>2025-05-25T20:44:11Z</time></trkpt>
<trkpt lat="50.52672" lon="3.526139"><ele>33.9</ele><time>2025-05-25T20:44:16Z</time></trkpt>
<trkpt lat="50.526912" lon="3.526034"><ele>34.28</ele><time>2025-05-25T20:44:21Z</time></trkpt>
<trkpt lat="50.527284" lon="3.525781"><ele>33.93</ele><time>2025-05-25T20:44:26Z</time></trkpt>
<trkpt lat="50.527451" lon="3.525635"><ele>33.55</ele><time>2025-05-25T20:44:31Z</time></trkpt>
<trkpt lat="50.527722" lon="3.525326"><ele>32.86</ele><time>2025-05-25T20:44:36Z</time></trkpt>
<trkpt lat="50.527943" lon="3.52503"><ele>32.24</ele><time>2025-05-25T20:44:41Z</time></trkpt>
<trkpt lat="50.528242" lon="3.524582"><ele>31.33</ele><time>2025-05-25T20:44:46Z</time></trkpt>
<trkpt lat="50.528615" lon="3.523972"><ele>30.99</ele><time>2025-05-25T20:44:51Z</time></trkpt>
<trkpt lat="50.529067" lon="3.523174"><ele>30.0</ele><time>2025-05-25T20:44:56Z</time></trkpt>
<trkpt lat="50.529473" lon="3.522526"><ele>31.11</ele><time>2025-05-25T20:45:01Z</time></trkpt>
<trkpt lat="50.529784" lon="3.52218"><ele>33.0</ele><time>2025-05-25T20:45:06Z</time></trkpt>
<trkpt lat="50.530021" lon="3.521885"><ele>33.0</ele><time>2025-05-25T20:45:11Z</time></trkpt>
<trkpt lat="50.530061" lon="3.52212"><ele>32.86</ele><time>2025-05-25T20:45:28Z</time></trkpt>
<trkpt lat="50.530167" lon="3.522508"><ele>32.4</ele><time>2025-05-25T20:45:45Z</time></trkpt>
<trkpt lat="50.530752" lon="3.523999"><ele>33.71</ele><time>2025-05-25T20:46:01Z</time></trkpt>
<trkpt lat="50.530862" lon="3.524673"><ele>33.42</ele><time>2025-05-25T20:46:18Z</time></trkpt>
<trkpt lat="50.530862" lon="3.524673"><ele>33.42</ele><time>2025-05-25T20:46:18Z</time></trkpt>
<trkpt lat="50.530869" lon="3.52472"><ele>33.13</ele><time>2025-05-25T20:46:18Z</time></trkpt>
<trkpt lat="50.531406" lon="3.524311"><ele>36.06</ele><time>2025-05-25T20:46:26Z</time></trkpt>
<trkpt lat="50.531598" lon="3.524205"><ele>36.75</ele><time>2025-05-25T20:46:33Z</time></trkpt>
<trkpt lat="50.532832" lon="3.52373"><ele>36.89</ele><time>2025-05-25T20:46:41Z</time></trkpt>
<trkpt lat="50.533542" lon="3.523484"><ele>36.0</ele><time>2025-05-25T20:46:48Z</time></trkpt>
<trkpt lat="50.533716" lon="3.523468"><ele>36.0</ele><time>2025-05-25T20:46:56Z</time></trkpt>
<trkpt lat="50.534067" lon="3.523489"><ele>36.64</ele><time>2025-05-25T20:47:03Z</time></trkpt>
<trkpt lat="50.534268" lon="3.523478"><ele>37.0</ele><time>2025-05-25T20:47:10Z</time></trkpt>
<trkpt lat="50.535015" lon="3.523274"><ele>36.84</ele><time>2025-05-25T20:47:18Z</time></trkpt>
<trkpt lat="50.535161" lon="3.523285"><ele>37.41</ele><time>2025-05-25T20:47:25Z</time></trkpt>
<trkpt lat="50.535335" lon="3.523376"><ele>38.36</ele><time>2025-05-25T20:47:33Z</time></trkpt>
<trkpt lat="50.535932" lon="3.523999"><ele>40.65</ele><time>2025-05-25T20:47:40Z</time></trkpt>
<trkpt lat="50.536065" lon="3.523629"><ele>40.01</ele><time>2025-05-25T20:47:43Z</time></trkpt>
<trkpt lat="50.536972" lon="3.521826"><ele>37.9</ele><time>2025-05-25T20:47:46Z</time></trkpt>
<trkpt lat="50.53702" lon="3.521547"><ele>37.85</ele><time>2025-05-25T20:47:49Z</time></trkpt>
<trkpt lat="50.537033" lon="3.521322"><ele>38.0</ele><time>2025-05-25T20:47:53Z</time></trkpt>
<trkpt lat="50.536958" lon="3.521032"><ele>37.72</ele><time>2025-05-25T20:47:56Z</time></trkpt>
<trkpt lat="50.536849" lon="3.520839"><ele>37.02</ele><time>2025-05-25T20:47:59Z</time></trkpt>
<trkpt lat="50.536467" lon="3.520346"><ele>35.82</ele><time>2025-05-25T20:48:02Z</time></trkpt>
<trkpt lat="50.536358" lon="3.520056"><ele>36.0</ele><time>2025-05-25T20:48:05Z</time></trkpt>
<trkpt lat="50.536004" lon="3.518607"><ele>35.61</ele><time>2025-05-25T20:48:08Z</time></trkpt>
<trkpt lat="50.535997" lon="3.518168"><ele>36.19</ele><time>2025-05-25T20:48:11Z</time></trkpt>
<trkpt lat="50.536072" lon="3.517674"><ele>36.91</ele><time>2025-05-25T20:48:14Z</time></trkpt>
<trkpt lat="50.536297" lon="3.516623"><ele>38.0</ele><time>2025-05-25T20:48:17Z</time></trkpt>
<trkpt lat="50.536433" lon="3.516118"><ele>38.16</ele><time>2025-05-25T20:48:20Z</time></trkpt>
<trkpt lat="50.537102" lon="3.514058"><ele>41.13</ele><time>2025-05-25T20:48:23Z</time></trkpt>
<trkpt lat="50.537858" lon="3.511859"><ele>44.51</ele><time>2025-05-25T20:48:27Z</time></trkpt>
<trkpt lat="50.537934" lon="3.511548"><ele>45.43</ele><time>2025-05-25T20:48:30Z</time></trkpt>
<trkpt lat="50.53793" lon="3.511414"><ele>45.91</ele><time>2025-05-25T20:48:33Z</time></trkpt>
<trkpt lat="50.538902" lon="3.510368"><ele>45.72</ele><time>2025-05-25T20:48:38Z</time></trkpt>
<trkpt lat="50.540449" lon="3.509155"><ele>50.0</ele><time>2025-05-25T20:48:43Z</time></trkpt>
<trkpt lat="50.543354" lon="3.506806"><ele>49.0</ele><time>2025-05-25T20:48:48Z</time></trkpt>
<trkpt lat="50.543606" lon="3.506698"><ele>49.0</ele><time>2025-05-25T20:48:53Z</time></trkpt>
<trkpt lat="50.544049" lon="3.506591"><ele>48.73</ele><time>2025-05-25T20:48:58Z</time></trkpt>
<trkpt lat="50.544254" lon="3.506623"><ele>48.84</ele><time>2025-05-25T20:49:02Z</time></trkpt>
<trkpt lat="50.544513" lon="3.506709"><ele>49.15</ele><time>2025-05-25T20:49:07Z</time></trkpt>
<trkpt lat="50.544704" lon="3.506806"><ele>49.5</ele><time>2025-05-25T20:49:12Z</time></trkpt>
<trkpt lat="50.545186" lon="3.507193"><ele>52.56</ele><time>2025-05-25T20:49:17Z</time></trkpt>
<trkpt lat="50.546586" lon="3.508416"><ele>52.29</ele><time>2025-05-25T20:49:22Z</time></trkpt>
<trkpt lat="50.546583" lon="3.508436"><ele>52.48</ele><time>2025-05-25T20:49:53Z</time></trkpt>
<trkpt lat="50.546583" lon="3.508436"><ele>52.48</ele><time>2025-05-25T20:49:53Z</time></trkpt>
<trkpt lat="50.546586" lon="3.508416"><ele>52.29</ele><time>2025-05-25T20:49:54Z</time></trkpt>
<trkpt lat="50.550172" lon="3.511512"><ele>47.45</ele><time>2025-05-25T20:49:59Z</time></trkpt>
<trkpt lat="50.550521" lon="3.511855"><ele>51.31</ele><time>2025-05-25T20:50:04Z</time></trkpt>
<trkpt lat="50.55301" lon="3.51402"><ele>58.33</ele><time>2025-05-25T20:50:09Z</time></trkpt>
<trkpt lat="50.553264" lon="3.514211"><ele>57.29</ele><time>2025-05-25T20:50:15Z</time></trkpt>
<trkpt lat="50.5534" lon="3.514271"><ele>57.0</ele><time>2025-05-25T20:50:20Z</time></trkpt>
<trkpt lat="50.553553" lon="3.514302"><ele>57.0</ele><time>2025-05-25T20:50:25Z</time></trkpt>
<trkpt lat="50.553742" lon="3.51429"><ele>57.0</ele><time>2025-05-25T20:50:31Z</time></trkpt>
<trkpt lat="50.553934" lon="3.514241"><ele>57.12</ele><time>2025-05-25T20:50:36Z</time></trkpt>
<trkpt lat="50.554072" lon="3.514163"><ele>57.66</ele><time>2025-05-25T20:50:41Z</time></trkpt>
<trkpt lat="50.5542" lon="3.51406"><ele>58.0</ele><time>2025-05-25T20:50:47Z</time></trkpt>
<trkpt lat="50.554509" lon="3.51374"><ele>57.59</ele><time>2025-05-25T20:50:52Z</time></trkpt>
<trkpt lat="50.554639" lon="3.513565"><ele>57.7</ele><time>2025-05-25T20:50:57Z</time></trkpt>
<trkpt lat="50.555077" lon="3.513127"><ele>58.07</ele><time>2025-05-25T20:51:03Z</time></trkpt>
<trkpt lat="50.555175" lon="3.513047"><ele>58.0</ele><time>2025-05-25T20:51:08Z</time></trkpt>
<trkpt lat="50.555264" lon="3.513005"><ele>58.0</ele><time>2025-05-25T20:51:13Z</time></trkpt>
<trkpt lat="50.555297" lon="3.513018"><ele>58.07</ele><time>2025-05-25T20:51:16Z</time></trkpt>
<trkpt lat="50.555376" lon="3.512979"><ele>58.35</ele><time>2025-05-25T20:51:18Z</time></trkpt>
<trkpt lat="50.555411" lon="3.512894"><ele>58.48</ele><time>2025-05-25T20:51:20Z</time></trkpt>
<trkpt lat="50.555409" lon="3.512792"><ele>58.47</ele><time>2025-05-25T20:51:22Z</time></trkpt>
<trkpt lat="50.555956" lon="3.512441"><ele>57.47</ele><time>2025-05-25T20:51:25Z</time></trkpt>
<trkpt lat="50.556123" lon="3.512375"><ele>56.5</ele><time>2025-05-25T20:51:27Z</time></trkpt>
<trkpt lat="50.557595" lon="3.512016"><ele>47.59</ele><time>2025-05-25T20:51:29Z</time></trkpt>
<trkpt lat="50.557595" lon="3.512016"><ele>47.59</ele><time>2025-05-25T20:51:29Z</time></trkpt>
<trkpt lat="50.556123" lon="3.512375"><ele>56.5</ele><time>2025-05-25T20:51:33Z</time></trkpt>
<trkpt lat="50.555956" lon="3.512441"><ele>57.47</ele><time>2025-05-25T20:51:38Z</time></trkpt>
<trkpt lat="50.555409" lon="3.512792"><ele>58.47</ele><time>2025-05-25T20:51:42Z</time></trkpt>
<trkpt lat="50.555369" lon="3.512708"><ele>58.33</ele><time>2025-05-25T20:51:45Z</time></trkpt>
<trkpt lat="50.555305" lon="3.512677"><ele>58.1</ele><time>2025-05-25T20:51:49Z</time></trkpt>
<trkpt lat="50.555243" lon="3.51271"><ele>57.97</ele><time>2025-05-25T20:51:52Z</time></trkpt>
<trkpt lat="50.555219" lon="3.512746"><ele>57.98</ele><time>2025-05-25T20:51:55Z</time></trkpt>
<trkpt lat="50.555198" lon="3.512843"><ele>58.0</ele><time>2025-05-25T20:51:58Z</time></trkpt>
<trkpt lat="50.555205" lon="3.51291"><ele>58.0</ele><time>2025-05-25T20:52:02Z</time></trkpt>
<trkpt lat="50.555264" lon="3.513005"><ele>58.0</ele><time>2025-05-25T20:52:05Z</time></trkpt>
<trkpt lat="50.555297" lon="3.513018"><ele>58.07</ele><time>2025-05-25T20:52:08Z</time></trkpt>
<trkpt lat="50.555317" lon="3.513234"><ele>58.6</ele><time>2025-05-25T20:52:12Z</time></trkpt>
<trkpt lat="50.555059" lon="3.51426"><ele>57.66</ele><time>2025-05-25T20:52:15Z</time></trkpt>
<trkpt lat="50.555002" lon="3.514599"><ele>56.45</ele><time>2025-05-25T20:52:18Z</time></trkpt>
<trkpt lat="50.554679" lon="3.521234"><ele>50.0</ele><time>2025-05-25T20:52:21Z</time></trkpt>
<trkpt lat="50.554594" lon="3.52183"><ele>49.54</ele><time>2025-05-25T20:52:25Z</time></trkpt>
<trkpt lat="50.55441" lon="3.522666"><ele>48.13</ele><time>2025-05-25T20:52:28Z</time></trkpt>
<trkpt lat="50.554326" lon="3.523346"><ele>47.85</ele><time>2025-05-25T20:52:31Z</time></trkpt>
<trkpt lat="50.554308" lon="3.523713"><ele>48.17</ele><time>2025-05-25T20:52:35Z</time></trkpt>
<trkpt lat="50.554378" lon="3.525843"><ele>48.26</ele><time>2025-05-25T20:52:38Z</time></trkpt>
<trkpt lat="50.554363" lon="3.526543"><ele>49.56</ele><time>2025-05-25T20:52:41Z</time></trkpt>
<trkpt lat="50.554244" lon="3.527932"><ele>50.0</ele><time>2025-05-25T20:52:44Z</time></trkpt>
<trkpt lat="50.554197" lon="3.528405"><ele>49.89</ele><time>2025-05-25T20:52:48Z</time></trkpt>
<trkpt lat="50.554185" lon="3.52869"><ele>49.65</ele><time>2025-05-25T20:52:51Z</time></trkpt>
<trkpt lat="50.554191" lon="3.528918"><ele>48.91</ele><time>2025-05-25T20:52:54Z</time></trkpt>
<trkpt lat="50.554217" lon="3.529106"><ele>48.82</ele><time>2025-05-25T20:52:58Z</time></trkpt>
<trkpt lat="50.554213" lon="3.529615"><ele>47.83</ele><time>2025-05-25T20:53:01Z</time></trkpt>
<trkpt lat="50.554228" lon="3.529771"><ele>47.82</ele><time>2025-05-25T20:53:04Z</time></trkpt>
<trkpt lat="50.554338" lon="3.530249"><ele>48.0</ele><time>2025-05-25T20:53:07Z</time></trkpt>
<trkpt lat="50.554745" lon="3.531682"><ele>45.0</ele><time>2025-05-25T20:53:11Z</time></trkpt>
<trkpt lat="50.555042" lon="3.531471"><ele>44.3</ele><time>2025-05-25T20:53:14Z</time></trkpt>
<trkpt lat="50.555484" lon="3.531112"><ele>43.26</ele><time>2025-05-25T20:53:17Z</time></trkpt>
<trkpt lat="50.55573" lon="3.530875"><ele>44.48</ele><time>2025-05-25T20:53:20Z</time></trkpt>
<trkpt lat="50.556393" lon="3.530104"><ele>45.99</ele><time>2025-05-25T20:53:23Z</time></trkpt>
<trkpt lat="50.556824" lon="3.529568"><ele>45.0</ele><time>2025-05-25T20:53:27Z</time></trkpt>
<trkpt lat="50.557474" lon="3.528765"><ele>45.15</ele><time>2025-05-25T20:53:30Z</time></trkpt>
<trkpt lat="50.557474" lon="3.528765"><ele>45.15</ele><time>2025-05-25T20:53:30Z</time></trkpt>
<trkpt lat="50.557769" lon="3.528365"><ele>45.03</ele><time>2025-05-25T20:53:34Z</time></trkpt>
<trkpt lat="50.558096" lon="3.527867"><ele>46.0</ele><time>2025-05-25T20:53:38Z</time></trkpt>
<trkpt lat="50.558552" lon="3.527311"><ele>47.0</ele><time>2025-05-25T20:53:42Z</time></trkpt>
<trkpt lat="50.561468" lon="3.524295"><ele>49.54</ele><time>2025-05-25T20:53:46Z</time></trkpt>
<trkpt lat="50.561628" lon="3.524188"><ele>49.92</ele><time>2025-05-25T20:53:51Z</time></trkpt>
<trkpt lat="50.561969" lon="3.524031"><ele>52.09</ele><time>2025-05-25T20:53:55Z</time></trkpt>
<trkpt lat="50.563237" lon="3.523634"><ele>52.08</ele><time>2025-05-25T20:53:59Z</time></trkpt>
<trkpt lat="50.563415" lon="3.523554"><ele>52.29</ele><time>2025-05-25T20:54:03Z</time></trkpt>
<trkpt lat="50.563638" lon="3.523404"><ele>53.0</ele><time>2025-05-25T20:54:07Z</time></trkpt>
<trkpt lat="50.563711" lon="3.52341"><ele>53.0</ele><time>2025-05-25T20:54:11Z</time></trkpt>
<trkpt lat="50.564414" lon="3.522117"><ele>58.27</ele><time>2025-05-25T20:54:17Z</time></trkpt>
<trkpt lat="50.564642" lon="3.521768"><ele>59.0</ele><time>2025-05-25T20:54:23Z</time></trkpt>
<trkpt lat="50.56698" lon="3.518897"><ele>67.13</ele><time>2025-05-25T20:54:29Z</time></trkpt>
<trkpt lat="50.567089" lon="3.518715"><ele>67.19</ele><time>2025-05-25T20:54:35Z</time></trkpt>
<trkpt lat="50.567158" lon="3.5185"><ele>67.0</ele><time>2025-05-25T20:54:41Z</time></trkpt>
<trkpt lat="50.567392" lon="3.517485"><ele>65.0</ele><time>2025-05-25T20:54:47Z</time></trkpt>
<trkpt lat="50.568275" lon="3.515142"><ele>59.61</ele><time>2025-05-25T20:54:53Z</time></trkpt>
<trkpt lat="50.568411" lon="3.514692"><ele>58.0</ele><time>2025-05-25T20:54:59Z</time></trkpt>
<trkpt lat="50.569106" lon="3.51128"><ele>54.0</ele><time>2025-05-25T20:55:05Z</time></trkpt>
<trkpt lat="50.569304" lon="3.510743"><ele>54.0</ele><time>2025-05-25T20:55:11Z</time></trkpt>
<trkpt lat="50.570058" lon="3.508923"><ele>55.0</ele><time>2025-05-25T20:55:17Z</time></trkpt>
<trkpt lat="50.570086" lon="3.508869"><ele>54.93</ele><time>2025-05-25T20:55:26Z</time></trkpt>
<trkpt lat="50.570161" lon="3.508963"><ele>55.0</ele><time>2025-05-25T20:55:35Z</time></trkpt>
<trkpt lat="50.570251" lon="3.509125"><ele>55.0</ele><time>2025-05-25T20:55:44Z</time></trkpt>
<trkpt lat="50.570286" lon="3.509222"><ele>54.77</ele><time>2025-05-25T20:55:52Z</time></trkpt>
<trkpt lat="50.570319" lon="3.509439"><ele>53.87</ele><time>2025-05-25T20:56:01Z</time></trkpt>
<trkpt lat="50.570372" lon="3.510062"><ele>53.74</ele><time>2025-05-25T20:56:10Z</time></trkpt>
<trkpt lat="50.570431" lon="3.510448"><ele>54.34</ele><time>2025-05-25T20:56:18Z</time></trkpt>
<trkpt lat="50.570691" lon="3.511537"><ele>54.0</ele><time>2025-05-25T20:56:27Z</time></trkpt>
<trkpt lat="50.570834" lon="3.51202"><ele>54.0</ele><time>2025-05-25T20:56:36Z</time></trkpt>
<trkpt lat="50.57136" lon="3.513178"><ele>54.44</ele><time>2025-05-25T20:56:45Z</time></trkpt>
<trkpt lat="50.571507" lon="3.513464"><ele>55.63</ele><time>2025-05-25T20:56:53Z</time></trkpt>
<trkpt lat="50.572133" lon="3.514542"><ele>59.92</ele><time>2025-05-25T20:57:02Z</time></trkpt>
<trkpt lat="50.572838" lon="3.515623"><ele>62.78</ele><time>2025-05-25T20:57:11Z</time></trkpt>
<trkpt lat="50.572828" lon="3.515713"><ele>62.82</ele><time>2025-05-25T20:57:20Z</time></trkpt>
<trkpt lat="50.572793" lon="3.515817"><ele>62.94</ele><time>2025-05-25T20:57:28Z</time></trkpt>
<trkpt lat="50.572623" lon="3.516128"><ele>63.0</ele><time>2025-05-25T20:57:37Z</time></trkpt>
<trkpt lat="50.572013" lon="3.517354"><ele>62.0</ele><time>2025-05-25T20:57:46Z</time></trkpt>
<trkpt lat="50.571976" lon="3.517451"><ele>62.0</ele><time>2025-05-25T20:57:55Z</time></trkpt>
<trkpt lat="50.571964" lon="3.517539"><ele>62.14</ele><time>2025-05-25T20:58:03Z</time></trkpt>
<trkpt lat="50.571987" lon="3.517679"><ele>62.65</ele><time>2025-05-25T20:58:12Z</time></trkpt>
<trkpt lat="50.572018" lon="3.51774"><ele>62.86</ele><time>2025-05-25T20:58:21Z</time></trkpt>
<trkpt lat="50.576867" lon="3.523422"><ele>69.53</ele><time>2025-05-25T20:58:29Z</time></trkpt>
<trkpt lat="50.577049" lon="3.52369"><ele>71.2</ele><time>2025-05-25T20:58:38Z</time></trkpt>
<trkpt lat="50.577345" lon="3.524209"><ele>72.73</ele><time>2025-05-25T20:58:47Z</time></trkpt>
<trkpt lat="50.581325" lon="3.530253"><ele>67.0</ele><time>2025-05-25T20:58:56Z</time></trkpt>
<trkpt lat="50.581462" lon="3.530399"><ele>67.0</ele><time>2025-05-25T20:59:04Z</time></trkpt>
<trkpt lat="50.581543" lon="3.53044"><ele>67.0</ele><time>2025-05-25T20:59:13Z</time></trkpt>
<trkpt lat="50.582349" lon="3.530702"><ele>65.09</ele><time>2025-05-25T20:59:22Z</time></trkpt>
<trkpt lat="50.582775" lon="3.530801"><ele>63.01</ele><time>2025-05-25T20:59:31Z</time></trkpt>
<trkpt lat="50.582983" lon="3.529706"><ele>62.26</ele><time>2025-05-25T20:59:40Z</time></trkpt>
<trkpt lat="50.583216" lon="3.528809"><ele>61.66</ele><time>2025-05-25T20:59:50Z</time></trkpt>
<trkpt lat="50.583532" lon="3.527262"><ele>62.99</ele><time>2025-05-25T20:59:59Z</time></trkpt>
<trkpt lat="50.583732" lon="3.527038"><ele>61.36</ele><time>2025-05-25T21:00:09Z</time></trkpt>
<trkpt lat="50.583838" lon="3.526837"><ele>60.62</ele><time>2025-05-25T21:00:19Z</time></trkpt>
<trkpt lat="50.584933" lon="3.523773"><ele>56.42</ele><time>2025-05-25T21:00:28Z</time></trkpt>
<trkpt lat="50.584975" lon="3.523726"><ele>56.58</ele><time>2025-05-25T21:00:57Z</time></trkpt>
<trkpt lat="50.585064" lon="3.523745"><ele>56.4</ele><time>2025-05-25T21:01:26Z</time></trkpt>
<trkpt lat="50.585662" lon="3.524532"><ele>55.62</ele><time>2025-05-25T21:01:54Z</time></trkpt>
<trkpt lat="50.586133" lon="3.525035"><ele>55.08</ele><time>2025-05-25T21:02:23Z</time></trkpt>
<trkpt lat="50.586279" lon="3.525279"><ele>55.6</ele><time>2025-05-25T21:02:52Z</time></trkpt>
<trkpt lat="50.589963" lon="3.529785"><ele>69.61</ele><time>2025-05-25T21:03:21Z</time></trkpt>
<trkpt lat="50.590468" lon="3.530362"><ele>69.17</ele><time>2025-05-25T21:03:49Z</time></trkpt>
<trkpt lat="50.590521" lon="3.530446"><ele>68.74</ele><time>2025-05-25T21:04:18Z</time></trkpt>
<trkpt lat="50.59055" lon="3.530546"><ele>68.07</ele><time>2025-05-25T21:04:47Z</time></trkpt>
<trkpt lat="50.59055" lon="3.530747"><ele>67.31</ele><time>2025-05-25T21:05:16Z</time></trkpt>
<trkpt lat="50.590384" lon="3.531574"><ele>63.54</ele><time>2025-05-25T21:05:44Z</time></trkpt>
<trkpt lat="50.59032" lon="3.531811"><ele>63.44</ele><time>2025-05-25T21:06:13Z</time></trkpt>
<trkpt lat="50.59023" lon="3.531968"><ele>63.92</ele><time>2025-05-25T21:06:42Z</time></trkpt>
<trkpt lat="50.590322" lon="3.531952"><ele>63.87</ele><time>2025-05-25T21:07:02Z</time></trkpt>
<trkpt lat="50.591395" lon="3.532156"><ele>63.24</ele><time>2025-05-25T21:07:22Z</time></trkpt>
<trkpt lat="50.591517" lon="3.532147"><ele>63.26</ele><time>2025-05-25T21:07:42Z</time></trkpt>
<trkpt lat="50.591517" lon="3.532147"><ele>63.26</ele><time>2025-05-25T21:07:42Z</time></trkpt>
<trkpt lat="50.591611" lon="3.532123"><ele>63.35</ele><time>2025-05-25T21:08:10Z</time></trkpt>
<trkpt lat="50.591656" lon="3.532024"><ele>63.71</ele><time>2025-05-25T21:08:38Z</time></trkpt>
<trkpt lat="50.591729" lon="3.530781"><ele>64.78</ele><time>2025-05-25T21:09:06Z</time></trkpt>
<trkpt lat="50.591838" lon="3.529649"><ele>66.76</ele><time>2025-05-25T21:09:35Z</time></trkpt>
<trkpt lat="50.591863" lon="3.529157"><ele>67.29</ele><time>2025-05-25T21:10:03Z</time></trkpt>
<trkpt lat="50.592173" lon="3.525628"><ele>73.31</ele><time>2025-05-25T21:10:31Z</time></trkpt>
<trkpt lat="50.592163" lon="3.525588"><ele>73.4</ele><time>2025-05-25T21:10:59Z</time></trkpt>
<trkpt lat="50.593766" lon="3.526584"><ele>66.44</ele><time>2025-05-25T21:11:29Z</time></trkpt>
<trkpt lat="50.593908" lon="3.526657"><ele>65.86</ele><time>2025-05-25T21:11:59Z</time></trkpt>
<trkpt lat="50.593992" lon="3.526638"><ele>65.26</ele><time>2025-05-25T21:12:30Z</time></trkpt>
<trkpt lat="50.594084" lon="3.526729"><ele>64.53</ele><time>2025-05-25T21:12:34Z</time></trkpt>
<trkpt lat="50.594317" lon="3.52681"><ele>63.46</ele><time>2025-05-25T21:12:38Z</time></trkpt>
<trkpt lat="50.595744" lon="3.509457"><ele>66.69</ele><time>2025-05-25T21:13:56Z</time></trkpt>
<trkpt lat="50.597482" lon="3.510493"><ele>65.84</ele><time>2025-05-25T21:14:00Z</time></trkpt>
<trkpt lat="50.597602" lon="3.510505"><ele>65.15</ele><time>2025-05-25T21:14:04Z</time></trkpt>
<trkpt lat="50.597701" lon="3.510378"><ele>64.38</ele><time>2025-05-25T21:14:08Z</time></trkpt>
<trkpt lat="50.597785" lon="3.510058"><ele>64.0</ele><time>2025-05-25T21:14:11Z</time></trkpt>
<trkpt lat="50.597854" lon="3.509681"><ele>64.0</ele><time>2025-05-25T21:14:15Z</time></trkpt>
<trkpt lat="50.59795" lon="3.509402"><ele>64.21</ele><time>2025-05-25T21:14:19Z</time></trkpt>
<trkpt lat="50.598086" lon="3.509187"><ele>64.93</ele><time>2025-05-25T21:14:23Z</time></trkpt>
<trkpt lat="50.598223" lon="3.508861"><ele>65.5</ele><time>2025-05-25T21:14:27Z</time></trkpt>
<trkpt lat="50.598303" lon="3.508514"><ele>66.46</ele><time>2025-05-25T21:14:30Z</time></trkpt>
<trkpt lat="50.59844" lon="3.507621"><ele>66.65</ele><time>2025-05-25T21:14:34Z</time></trkpt>
<trkpt lat="50.598617" lon="3.507084"><ele>66.54</ele><time>2025-05-25T21:14:38Z</time></trkpt>
<trkpt lat="50.598915" lon="3.506362"><ele>66.0</ele><time>2025-05-25T21:14:42Z</time></trkpt>
<trkpt lat="50.599092" lon="3.505825"><ele>64.73</ele><time>2025-05-25T21:14:45Z</time></trkpt>
<trkpt lat="50.599189" lon="3.505368"><ele>65.08</ele><time>2025-05-25T21:14:49Z</time></trkpt>
<trkpt lat="50.599258" lon="3.504829"><ele>64.71</ele><time>2025-05-25T21:14:53Z</time></trkpt>
<trkpt lat="50.599287" lon="3.504408"><ele>64.3</ele><time>2025-05-25T21:14:57Z</time></trkpt>
<trkpt lat="50.599282" lon="3.503963"><ele>63.42</ele><time>2025-05-25T21:15:01Z</time></trkpt>
<trkpt lat="50.599223" lon="3.502909"><ele>60.6</ele><time>2025-05-25T21:15:04Z</time></trkpt>
<trkpt lat="50.599211" lon="3.502648"><ele>60.87</ele><time>2025-05-25T21:15:08Z</time></trkpt>
<trkpt lat="50.599162" lon="3.502274"><ele>60.97</ele><time>2025-05-25T21:15:12Z</time></trkpt>
<trkpt lat="50.598978" lon="3.501709"><ele>59.32</ele><time>2025-05-25T21:15:16Z</time></trkpt>
<trkpt lat="50.598862" lon="3.501409"><ele>58.06</ele><time>2025-05-25T21:15:20Z</time></trkpt>
<trkpt lat="50.598818" lon="3.501127"><ele>58.0</ele><time>2025-05-25T21:15:23Z</time></trkpt>
<trkpt lat="50.598819" lon="3.500966"><ele>58.52</ele><time>2025-05-25T21:15:27Z</time></trkpt>
<trkpt lat="50.598901" lon="3.500064"><ele>60.0</ele><time>2025-05-25T21:15:31Z</time></trkpt>
<trkpt lat="50.598943" lon="3.49833"><ele>58.21</ele><time>2025-05-25T21:15:35Z</time></trkpt>
<trkpt lat="50.599032" lon="3.49775"><ele>59.46</ele><time>2025-05-25T21:15:39Z</time></trkpt>
<trkpt lat="50.599177" lon="3.4971"><ele>58.56</ele><time>2025-05-25T21:15:42Z</time></trkpt>
<trkpt lat="50.599205" lon="3.496812"><ele>58.0</ele><time>2025-05-25T21:15:46Z</time></trkpt>
<trkpt lat="50.599188" lon="3.496453"><ele>58.77</ele><time>2025-05-25T21:15:50Z</time></trkpt>
<trkpt lat="50.599194" lon="3.496316"><ele>59.03</ele><time>2025-05-25T21:15:54Z</time></trkpt>
<trkpt lat="50.599328" lon="3.495867"><ele>60.46</ele><time>2025-05-25T21:15:58Z</time></trkpt>
<trkpt lat="50.599825" lon="3.496538"><ele>59.29</ele><time>2025-05-25T21:16:02Z</time></trkpt>
<trkpt lat="50.600332" lon="3.496962"><ele>59.25</ele><time>2025-05-25T21:16:06Z</time></trkpt>
<trkpt lat="50.600472" lon="3.497118"><ele>59.89</ele><time>2025-05-25T21:16:10Z</time></trkpt>
<trkpt lat="50.600605" lon="3.49723"><ele>60.02</ele><time>2025-05-25T21:16:14Z</time></trkpt>
<trkpt lat="50.601061" lon="3.497461"><ele>60.0</ele><time>2025-05-25T21:16:18Z</time></trkpt>
<trkpt lat="50.603189" lon="3.499489"><ele>57.52</ele><time>2025-05-25T21:16:22Z</time></trkpt>
<trkpt lat="50.603301" lon="3.499542"><ele>57.11</ele><time>2025-05-25T21:16:26Z</time></trkpt>
<trkpt lat="50.604857" lon="3.500041"><ele>54.0</ele><time>2025-05-25T21:16:30Z</time></trkpt>
<trkpt lat="50.60608" lon="3.500513"><ele>52.02</ele><time>2025-05-25T21:16:34Z</time></trkpt>
<trkpt lat="50.606199" lon="3.500535"><ele>51.37</ele><time>2025-05-25T21:16:38Z</time></trkpt>
<trkpt lat="50.606263" lon="3.500514"><ele>50.9</ele><time>2025-05-25T21:16:42Z</time></trkpt>
<trkpt lat="50.606216" lon="3.500229"><ele>51.25</ele><time>2025-05-25T21:17:20Z</time></trkpt>
<trkpt lat="50.606097" lon="3.500256"><ele>52.06</ele><time>2025-05-25T21:18:15Z</time></trkpt>
<trkpt lat="50.605947" lon="3.50024"><ele>52.67</ele><time>2025-05-25T21:19:10Z</time></trkpt>
<trkpt lat="50.605872" lon="3.500229"><ele>53.01</ele><time>2025-05-25T21:20:05Z</time></trkpt>
<trkpt lat="50.605773" lon="3.50017"><ele>53.52</ele><time>2025-05-25T21:20:59Z</time></trkpt>
<trkpt lat="50.599807" lon="3.493821"><ele>53.44</ele><time>2025-05-25T21:21:54Z</time></trkpt>
<trkpt lat="50.599807" lon="3.493821"><ele>53.44</ele><time>2025-05-25T21:21:54Z</time></trkpt>
<trkpt lat="50.605773" lon="3.50017"><ele>53.52</ele><time>2025-05-25T21:22:49Z</time></trkpt>
<trkpt lat="50.605872" lon="3.500229"><ele>53.01</ele><time>2025-05-25T21:23:44Z</time></trkpt>
<trkpt lat="50.605947" lon="3.50024"><ele>52.67</ele><time>2025-05-25T21:24:38Z</time></trkpt>
<trkpt lat="50.606097" lon="3.500256"><ele>52.06</ele><time>2025-05-25T21:25:33Z</time></trkpt>
<trkpt lat="50.606216" lon="3.500229"><ele>51.25</ele><time>2025-05-25T21:26:28Z</time></trkpt>
<trkpt lat="50.606263" lon="3.500514"><ele>50.9</ele><time>2025-05-25T21:26:36Z</time></trkpt>
<trkpt lat="50.606332" lon="3.500492"><ele>50.41</ele><time>2025-05-25T21:26:38Z</time></trkpt>
<trkpt lat="50.6066" lon="3.500567"><ele>50.0</ele><time>2025-05-25T21:26:40Z</time></trkpt>
<trkpt lat="50.606727" lon="3.50068"><ele>50.22</ele><time>2025-05-25T21:26:42Z</time></trkpt>
<trkpt lat="50.606798" lon="3.500771"><ele>50.47</ele><time>2025-05-25T21:26:44Z</time></trkpt>
<trkpt lat="50.607084" lon="3.501377"><ele>53.46</ele><time>2025-05-25T21:26:46Z</time></trkpt>
<trkpt lat="50.607574" lon="3.502048"><ele>58.0</ele><time>2025-05-25T21:26:48Z</time></trkpt>
<trkpt lat="50.60769" lon="3.502273"><ele>60.23</ele><time>2025-05-25T21:26:50Z</time></trkpt>
<trkpt lat="50.607921" lon="3.502804"><ele>64.03</ele><time>2025-05-25T21:26:51Z</time></trkpt>
<trkpt lat="50.608218" lon="3.503335"><ele>64.58</ele><time>2025-05-25T21:26:53Z</time></trkpt>
<trkpt lat="50.608275" lon="3.503485"><ele>64.79</ele><time>2025-05-25T21:26:55Z</time></trkpt>
<trkpt lat="50.608347" lon="3.504059"><ele>65.0</ele><time>2025-05-25T21:26:57Z</time></trkpt>
<trkpt lat="50.608466" lon="3.504456"><ele>65.48</ele><time>2025-05-25T21:26:59Z</time></trkpt>
<trkpt lat="50.608752" lon="3.505202"><ele>67.0</ele><time>2025-05-25T21:27:01Z</time></trkpt>
<trkpt lat="50.608844" lon="3.505368"><ele>67.27</ele><time>2025-05-25T21:27:03Z</time></trkpt>
<trkpt lat="50.609283" lon="3.505969"><ele>68.79</ele><time>2025-05-25T21:27:05Z</time></trkpt>
<trkpt lat="50.609402" lon="3.506184"><ele>67.89</ele><time>2025-05-25T21:27:07Z</time></trkpt>
<trkpt lat="50.609624" lon="3.506794"><ele>66.0</ele><time>2025-05-25T21:27:08Z</time></trkpt>
<trkpt lat="50.609743" lon="3.507201"><ele>65.15</ele><time>2025-05-25T21:27:10Z</time></trkpt>
<trkpt lat="50.609921" lon="3.507967"><ele>66.43</ele><time>2025-05-25T21:27:12Z</time></trkpt>
<trkpt lat="50.611839" lon="3.508023"><ele>68.0</ele><time>2025-05-25T21:27:23Z</time></trkpt>
<trkpt lat="50.611917" lon="3.508144"><ele>68.0</ele><time>2025-05-25T21:27:29Z</time></trkpt>
<trkpt lat="50.612397" lon="3.508625"><ele>67.38</ele><time>2025-05-25T21:27:36Z</time></trkpt>
<trkpt lat="50.612458" lon="3.50872"><ele>67.43</ele><time>2025-05-25T21:27:42Z</time></trkpt>
<trkpt lat="50.612502" lon="3.508847"><ele>67.85</ele><time>2025-05-25T21:27:48Z</time></trkpt>
<trkpt lat="50.612715" lon="3.509731"><ele>67.97</ele><time>2025-05-25T21:27:54Z</time></trkpt>
<trkpt lat="50.613266" lon="3.511827"><ele>63.56</ele><time>2025-05-25T21:28:00Z</time></trkpt>
<trkpt lat="50.613301" lon="3.511948"><ele>63.1</ele><time>2025-05-25T21:28:06Z</time></trkpt>
<trkpt lat="50.613351" lon="3.512036"><ele>62.73</ele><time>2025-05-25T21:28:13Z</time></trkpt>
<trkpt lat="50.613443" lon="3.51205"><ele>63.01</ele><time>2025-05-25T21:28:19Z</time></trkpt>
<trkpt lat="50.613822" lon="3.512019"><ele>64.49</ele><time>2025-05-25T21:28:25Z</time></trkpt>
<trkpt lat="50.614888" lon="3.511987"><ele>63.91</ele><time>2025-05-25T21:28:31Z</time></trkpt>
<trkpt lat="50.614886" lon="3.512031"><ele>63.56</ele><time>2025-05-25T21:28:32Z</time></trkpt>
<trkpt lat="50.614886" lon="3.512031"><ele>63.56</ele><time>2025-05-25T21:28:32Z</time></trkpt>
<trkpt lat="50.614888" lon="3.511987"><ele>63.91</ele><time>2025-05-25T21:28:34Z</time></trkpt>
<trkpt lat="50.615583" lon="3.511974"><ele>61.9</ele><time>2025-05-25T21:28:43Z</time></trkpt>
<trkpt lat="50.615669" lon="3.511995"><ele>61.37</ele><time>2025-05-25T21:28:52Z</time></trkpt>
<trkpt lat="50.615753" lon="3.512048"><ele>60.95</ele><time>2025-05-25T21:29:01Z</time></trkpt>
<trkpt lat="50.61747" lon="3.513571"><ele>57.11</ele><time>2025-05-25T21:29:10Z</time></trkpt>
<trkpt lat="50.618453" lon="3.514474"><ele>54.46</ele><time>2025-05-25T21:29:19Z</time></trkpt>
<trkpt lat="50.618493" lon="3.516631"><ele>49.97</ele><time>2025-05-25T21:29:24Z</time></trkpt>
<trkpt lat="50.61846" lon="3.517147"><ele>49.69</ele><time>2025-05-25T21:29:28Z</time></trkpt>
<trkpt lat="50.618354" lon="3.517692"><ele>49.28</ele><time>2025-05-25T21:29:32Z</time></trkpt>
<trkpt lat="50.617806" lon="3.519975"><ele>48.91</ele><time>2025-05-25T21:29:37Z</time></trkpt>
<trkpt lat="50.617812" lon="3.520102"><ele>48.88</ele><time>2025-05-25T21:29:41Z</time></trkpt>
<trkpt lat="50.618016" lon="3.520904"><ele>47.74</ele><time>2025-05-25T21:29:45Z</time></trkpt>
<trkpt lat="50.618063" lon="3.521235"><ele>46.97</ele><time>2025-05-25T21:29:50Z</time></trkpt>
<trkpt lat="50.618063" lon="3.521405"><ele>46.92</ele><time>2025-05-25T21:29:54Z</time></trkpt>
<trkpt lat="50.618032" lon="3.521761"><ele>46.0</ele><time>2025-05-25T21:29:58Z</time></trkpt>
<trkpt lat="50.617901" lon="3.522902"><ele>45.56</ele><time>2025-05-25T21:30:02Z</time></trkpt>
<trkpt lat="50.617871" lon="3.523081"><ele>45.66</ele><time>2025-05-25T21:30:07Z</time></trkpt>
<trkpt lat="50.617788" lon="3.523379"><ele>45.8</ele><time>2025-05-25T21:30:11Z</time></trkpt>
<trkpt lat="50.6173" lon="3.524339"><ele>43.0</ele><time>2025-05-25T21:30:15Z</time></trkpt>
<trkpt lat="50.617209" lon="3.524659"><ele>42.95</ele><time>2025-05-25T21:30:20Z</time></trkpt>
<trkpt lat="50.616666" lon="3.528045"><ele>48.0</ele><time>2025-05-25T21:30:24Z</time></trkpt>
<trkpt lat="50.61626" lon="3.530408"><ele>49.47</ele><time>2025-05-25T21:30:28Z</time></trkpt>
<trkpt lat="50.616234" lon="3.530623"><ele>50.0</ele><time>2025-05-25T21:30:32Z</time></trkpt>
<trkpt lat="50.616222" lon="3.531006"><ele>50.62</ele><time>2025-05-25T21:30:37Z</time></trkpt>
<trkpt lat="50.616343" lon="3.532409"><ele>52.16</ele><time>2025-05-25T21:30:41Z</time></trkpt>
<trkpt lat="50.616336" lon="3.532746"><ele>52.19</ele><time>2025-05-25T21:30:45Z</time></trkpt>
<trkpt lat="50.616288" lon="3.533065"><ele>52.39</ele><time>2025-05-25T21:30:50Z</time></trkpt>
<trkpt lat="50.615812" lon="3.534871"><ele>52.03</ele><time>2025-05-25T21:30:54Z</time></trkpt>
<trkpt lat="50.615714" lon="3.535374"><ele>51.65</ele><time>2025-05-25T21:30:58Z</time></trkpt>
<trkpt lat="50.615265" lon="3.538254"><ele>59.46</ele><time>2025-05-25T21:31:02Z</time></trkpt>
<trkpt lat="50.614781" lon="3.541341"><ele>66.79</ele><time>2025-05-25T21:31:07Z</time></trkpt>
<trkpt lat="50.614475" lon="3.543783"><ele>70.59</ele><time>2025-05-25T21:31:11Z</time></trkpt>
<trkpt lat="50.61338" lon="3.542853"><ele>69.0</ele><time>2025-05-25T21:31:14Z</time></trkpt>
<trkpt lat="50.613223" lon="3.542706"><ele>68.6</ele><time>2025-05-25T21:31:16Z</time></trkpt>
<trkpt lat="50.613102" lon="3.542552"><ele>68.17</ele><time>2025-05-25T21:31:19Z</time></trkpt>
<trkpt lat="50.610663" lon="3.538536"><ele>67.0</ele><time>2025-05-25T21:31:21Z</time></trkpt>
<trkpt lat="50.610582" lon="3.538462"><ele>67.0</ele><time>2025-05-25T21:31:24Z</time></trkpt>
<trkpt lat="50.61051" lon="3.538431"><ele>67.17</ele><time>2025-05-25T21:31:26Z</time></trkpt>
<trkpt lat="50.610375" lon="3.538419"><ele>67.65</ele><time>2025-05-25T21:31:29Z</time></trkpt>
<trkpt lat="50.609681" lon="3.538785"><ele>70.0</ele><time>2025-05-25T21:31:31Z</time></trkpt>
<trkpt lat="50.609359" lon="3.539012"><ele>69.39</ele><time>2025-05-25T21:31:34Z</time></trkpt>
<trkpt lat="50.609152" lon="3.539185"><ele>69.0</ele><time>2025-05-25T21:31:36Z</time></trkpt>
<trkpt lat="50.608649" lon="3.539725"><ele>69.0</ele><time>2025-05-25T21:31:39Z</time></trkpt>
<trkpt lat="50.60807" lon="3.540421"><ele>72.41</ele><time>2025-05-25T21:31:41Z</time></trkpt>
<trkpt lat="50.607881" lon="3.540575"><ele>73.63</ele><time>2025-05-25T21:31:44Z</time></trkpt>
<trkpt lat="50.607084" lon="3.540992"><ele>74.86</ele><time>2025-05-25T21:31:46Z</time></trkpt>
<trkpt lat="50.6067" lon="3.541089"><ele>74.96</ele><time>2025-05-25T21:31:49Z</time></trkpt>
<trkpt lat="50.606538" lon="3.541082"><ele>74.79</ele><time>2025-05-25T21:31:51Z</time></trkpt>
<trkpt lat="50.605919" lon="3.540977"><ele>74.04</ele><time>2025-05-25T21:31:54Z</time></trkpt>
<trkpt lat="50.605734" lon="3.541013"><ele>74.29</ele><time>2025-05-25T21:31:56Z</time></trkpt>
<trkpt lat="50.605585" lon="3.541109"><ele>74.99</ele><time>2025-05-25T21:31:59Z</time></trkpt>
<trkpt lat="50.605444" lon="3.541259"><ele>75.13</ele><time>2025-05-25T21:32:01Z</time></trkpt>
<trkpt lat="50.605358" lon="3.541385"><ele>75.27</ele><time>2025-05-25T21:32:04Z</time></trkpt>
<trkpt lat="50.604692" lon="3.542763"><ele>74.99</ele><time>2025-05-25T21:32:06Z</time></trkpt>
<trkpt lat="50.604563" lon="3.542975"><ele>76.42</ele><time>2025-05-25T21:32:09Z</time></trkpt>
<trkpt lat="50.604429" lon="3.543034"><ele>76.96</ele><time>2025-05-25T21:32:11Z</time></trkpt>
<trkpt lat="50.604108" lon="3.542958"><ele>78.51</ele><time>2025-05-25T21:32:14Z</time></trkpt>
<trkpt lat="50.604014" lon="3.542956"><ele>78.83</ele><time>2025-05-25T21:32:16Z</time></trkpt>
<trkpt lat="50.603829" lon="3.543044"><ele>80.13</ele><time>2025-05-25T21:32:19Z</time></trkpt>
<trkpt lat="50.603746" lon="3.543109"><ele>80.99</ele><time>2025-05-25T21:32:21Z</time></trkpt>
<trkpt lat="50.603594" lon="3.543302"><ele>82.73</ele><time>2025-05-25T21:32:24Z</time></trkpt>
<trkpt lat="50.603524" lon="3.543431"><ele>82.93</ele><time>2025-05-25T21:32:26Z</time></trkpt>
<trkpt lat="50.603442" lon="3.543722"><ele>83.1</ele><time>2025-05-25T21:32:29Z</time></trkpt>
<trkpt lat="50.603352" lon="3.544318"><ele>82.06</ele><time>2025-05-25T21:32:31Z</time></trkpt>
<trkpt lat="50.603352" lon="3.544318"><ele>82.06</ele><time>2025-05-25T21:32:31Z</time></trkpt>
<trkpt lat="50.603442" lon="3.543722"><ele>83.1</ele><time>2025-05-25T21:32:34Z</time></trkpt>
<trkpt lat="50.603524" lon="3.543431"><ele>82.93</ele><time>2025-05-25T21:32:36Z</time></trkpt>
<trkpt lat="50.603594" lon="3.543302"><ele>82.73</ele><time>2025-05-25T21:32:39Z</time></trkpt>
<trkpt lat="50.603746" lon="3.543109"><ele>80.99</ele><time>2025-05-25T21:32:41Z</time></trkpt>
<trkpt lat="50.603829" lon="3.543044"><ele>80.13</ele><time>2025-05-25T21:32:44Z</time></trkpt>
<trkpt lat="50.604014" lon="3.542956"><ele>78.83</ele><time>2025-05-25T21:32:46Z</time></trkpt>
<trkpt lat="50.604108" lon="3.542958"><ele>78.51</ele><time>2025-05-25T21:32:49Z</time></trkpt>
<trkpt lat="50.604429" lon="3.543034"><ele>76.96</ele><time>2025-05-25T21:32:51Z</time></trkpt>
<trkpt lat="50.604563" lon="3.542975"><ele>76.42</ele><time>2025-05-25T21:32:54Z</time></trkpt>
<trkpt lat="50.604692" lon="3.542763"><ele>74.99</ele><time>2025-05-25T21:32:56Z</time></trkpt>
<trkpt lat="50.605358" lon="3.541385"><ele>75.27</ele><time>2025-05-25T21:32:59Z</time></trkpt>
<trkpt lat="50.605444" lon="3.541259"><ele>75.13</ele><time>2025-05-25T21:33:01Z</time></trkpt>
<trkpt lat="50.605585" lon="3.541109"><ele>74.99</ele><time>2025-05-25T21:33:04Z</time></trkpt>
<trkpt lat="50.605734" lon="3.541013"><ele>74.29</ele><time>2025-05-25T21:33:06Z</time></trkpt>
<trkpt lat="50.605919" lon="3.540977"><ele>74.04</ele><time>2025-05-25T21:33:09Z</time></trkpt>
<trkpt lat="50.606538" lon="3.541082"><ele>74.79</ele><time>2025-05-25T21:33:11Z</time></trkpt>
<trkpt lat="50.6067" lon="3.541089"><ele>74.96</ele><time>2025-05-25T21:33:14Z</time></trkpt>
<trkpt lat="50.607084" lon="3.540992"><ele>74.86</ele><time>2025-05-25T21:33:16Z</time></trkpt>
<trkpt lat="50.607881" lon="3.540575"><ele>73.63</ele><time>2025-05-25T21:33:19Z</time></trkpt>
<trkpt lat="50.60807" lon="3.540421"><ele>72.41</ele><time>2025-05-25T21:33:22Z</time></trkpt>
<trkpt lat="50.608649" lon="3.539725"><ele>69.0</ele><time>2025-05-25T21:33:24Z</time></trkpt>
<trkpt lat="50.609152" lon="3.539185"><ele>69.0</ele><time>2025-05-25T21:33:27Z</time></trkpt>
<trkpt lat="50.609359" lon="3.539012"><ele>69.39</ele><time>2025-05-25T21:33:29Z</time></trkpt>
<trkpt lat="50.609681" lon="3.538785"><ele>70.0</ele><time>2025-05-25T21:33:32Z</time></trkpt>
<trkpt lat="50.610375" lon="3.538419"><ele>67.65</ele><time>2025-05-25T21:33:34Z</time></trkpt>
<trkpt lat="50.61051" lon="3.538431"><ele>67.17</ele><time>2025-05-25T21:33:37Z</time></trkpt>
<trkpt lat="50.610582" lon="3.538462"><ele>67.0</ele><time>2025-05-25T21:33:39Z</time></trkpt>
<trkpt lat="50.610663" lon="3.538536"><ele>67.0</ele><time>2025-05-25T21:33:42Z</time></trkpt>
<trkpt lat="50.613102" lon="3.542552"><ele>68.17</ele><time>2025-05-25T21:33:44Z</time></trkpt>
<trkpt lat="50.613223" lon="3.542706"><ele>68.6</ele><time>2025-05-25T21:33:47Z</time></trkpt>
<trkpt lat="50.61338" lon="3.542853"><ele>69.0</ele><time>2025-05-25T21:33:49Z</time></trkpt>
<trkpt lat="50.614475" lon="3.543783"><ele>70.59</ele><time>2025-05-25T21:33:52Z</time></trkpt>
<trkpt lat="50.614456" lon="3.543931"><ele>70.96</ele><time>2025-05-25T21:33:56Z</time></trkpt>
<trkpt lat="50.614307" lon="3.546917"><ele>69.0</ele><time>2025-05-25T21:34:01Z</time></trkpt>
<trkpt lat="50.614245" lon="3.548527"><ele>68.72</ele><time>2025-05-25T21:34:06Z</time></trkpt>
<trkpt lat="50.614256" lon="3.549518"><ele>67.68</ele><time>2025-05-25T21:34:11Z</time></trkpt>
<trkpt lat="50.614274" lon="3.549952"><ele>67.29</ele><time>2025-05-25T21:34:16Z</time></trkpt>
<trkpt lat="50.614556" lon="3.554079"><ele>64.0</ele><time>2025-05-25T21:34:21Z</time></trkpt>
<trkpt lat="50.614596" lon="3.554338"><ele>64.0</ele><time>2025-05-25T21:34:25Z</time></trkpt>
<trkpt lat="50.61473" lon="3.554883"><ele>64.59</ele><time>2025-05-25T21:34:30Z</time></trkpt>
<trkpt lat="50.614812" lon="3.555109"><ele>65.0</ele><time>2025-05-25T21:34:35Z</time></trkpt>
<trkpt lat="50.61534" lon="3.556214"><ele>63.78</ele><time>2025-05-25T21:34:40Z</time></trkpt>
<trkpt lat="50.615676" lon="3.556912"><ele>62.57</ele><time>2025-05-25T21:34:45Z</time></trkpt>
<trkpt lat="50.615761" lon="3.557122"><ele>62.26</ele><time>2025-05-25T21:34:50Z</time></trkpt>
<trkpt lat="50.615831" lon="3.557365"><ele>62.01</ele><time>2025-05-25T21:34:54Z</time></trkpt>
<trkpt lat="50.616269" lon="3.559597"><ele>58.0</ele><time>2025-05-25T21:34:59Z</time></trkpt>
<trkpt lat="50.616322" lon="3.560111"><ele>58.0</ele><time>2025-05-25T21:35:04Z</time></trkpt>
<trkpt lat="50.616311" lon="3.560659"><ele>58.0</ele><time>2025-05-25T21:35:09Z</time></trkpt>
<trkpt lat="50.616259" lon="3.561045"><ele>57.95</ele><time>2025-05-25T21:35:14Z</time></trkpt>
<trkpt lat="50.616195" lon="3.561356"><ele>58.4</ele><time>2025-05-25T21:35:19Z</time></trkpt>
<trkpt lat="50.616088" lon="3.561679"><ele>60.03</ele><time>2025-05-25T21:35:23Z</time></trkpt>
<trkpt lat="50.614888" lon="3.564833"><ele>51.6</ele><time>2025-05-25T21:35:28Z</time></trkpt>
<trkpt lat="50.614749" lon="3.565298"><ele>51.0</ele><time>2025-05-25T21:35:33Z</time></trkpt>
<trkpt lat="50.614641" lon="3.565766"><ele>51.0</ele><time>2025-05-25T21:35:38Z</time></trkpt>
<trkpt lat="50.613649" lon="3.569895"><ele>54.41</ele><time>2025-05-25T21:35:43Z</time></trkpt>
<trkpt lat="50.613557" lon="3.570437"><ele>55.38</ele><time>2025-05-25T21:35:48Z</time></trkpt>
<trkpt lat="50.613369" lon="3.574117"><ele>68.21</ele><time>2025-05-25T21:35:52Z</time></trkpt>
<trkpt lat="50.613374" lon="3.574434"><ele>70.22</ele><time>2025-05-25T21:35:57Z</time></trkpt>
<trkpt lat="50.613404" lon="3.574788"><ele>71.92</ele><time>2025-05-25T21:36:02Z</time></trkpt>
<trkpt lat="50.613373" lon="3.57479"><ele>71.67</ele><time>2025-05-25T21:36:33Z</time></trkpt>
<trkpt lat="50.613373" lon="3.57479"><ele>71.67</ele><time>2025-05-25T21:36:33Z</time></trkpt>
<trkpt lat="50.613404" lon="3.574788"><ele>71.92</ele><time>2025-05-25T21:36:35Z</time></trkpt>
<trkpt lat="50.613447" lon="3.57509"><ele>73.41</ele><time>2025-05-25T21:36:37Z</time></trkpt>
<trkpt lat="50.613529" lon="3.57548"><ele>73.92</ele><time>2025-05-25T21:36:39Z</time></trkpt>
<trkpt lat="50.613763" lon="3.576293"><ele>73.0</ele><time>2025-05-25T21:36:41Z</time></trkpt>
<trkpt lat="50.612421" lon="3.577111"><ele>72.11</ele><time>2025-05-25T21:36:43Z</time></trkpt>
<trkpt lat="50.61222" lon="3.577153"><ele>71.24</ele><time>2025-05-25T21:36:46Z</time></trkpt>
<trkpt lat="50.611684" lon="3.577072"><ele>70.97</ele><time>2025-05-25T21:36:48Z</time></trkpt>
<trkpt lat="50.611102" lon="3.577031"><ele>71.64</ele><time>2025-05-25T21:36:51Z</time></trkpt>
<trkpt lat="50.610824" lon="3.577044"><ele>69.92</ele><time>2025-05-25T21:36:53Z</time></trkpt>
<trkpt lat="50.610751" lon="3.577072"><ele>69.25</ele><time>2025-05-25T21:36:56Z</time></trkpt>
<trkpt lat="50.610444" lon="3.577284"><ele>66.79</ele><time>2025-05-25T21:36:58Z</time></trkpt>
<trkpt lat="50.610337" lon="3.577336"><ele>65.64</ele><time>2025-05-25T21:37:01Z</time></trkpt>
<trkpt lat="50.609679" lon="3.577561"><ele>59.84</ele><time>2025-05-25T21:37:03Z</time></trkpt>
<trkpt lat="50.608983" lon="3.577971"><ele>53.36</ele><time>2025-05-25T21:37:05Z</time></trkpt>
<trkpt lat="50.608743" lon="3.578082"><ele>51.04</ele><time>2025-05-25T21:37:08Z</time></trkpt>
<trkpt lat="50.608474" lon="3.578093"><ele>49.64</ele><time>2025-05-25T21:37:10Z</time></trkpt>
<trkpt lat="50.607832" lon="3.577935"><ele>49.81</ele><time>2025-05-25T21:37:13Z</time></trkpt>
<trkpt lat="50.607237" lon="3.57806"><ele>49.07</ele><time>2025-05-25T21:37:15Z</time></trkpt>
<trkpt lat="50.60705" lon="3.578072"><ele>49.02</ele><time>2025-05-25T21:37:18Z</time></trkpt>
<trkpt lat="50.606865" lon="3.578048"><ele>49.01</ele><time>2025-05-25T21:37:20Z</time></trkpt>
<trkpt lat="50.606737" lon="3.577963"><ele>49.25</ele><time>2025-05-25T21:37:23Z</time></trkpt>
<trkpt lat="50.606383" lon="3.577535"><ele>51.02</ele><time>2025-05-25T21:37:25Z</time></trkpt>
<trkpt lat="50.606005" lon="3.577186"><ele>52.51</ele><time>2025-05-25T21:37:28Z</time></trkpt>
<trkpt lat="50.606127" lon="3.576761"><ele>52.94</ele><time>2025-05-25T21:37:30Z</time></trkpt>
<trkpt lat="50.606345" lon="3.576114"><ele>54.15</ele><time>2025-05-25T21:37:32Z</time></trkpt>
<trkpt lat="50.606518" lon="3.5758"><ele>54.59</ele><time>2025-05-25T21:37:34Z</time></trkpt>
<trkpt lat="50.606954" lon="3.574874"><ele>55.0</ele><time>2025-05-25T21:37:37Z</time></trkpt>
<trkpt lat="50.607049" lon="3.574606"><ele>55.0</ele><time>2025-05-25T21:37:39Z</time></trkpt>
<trkpt lat="50.606005" lon="3.57424"><ele>57.21</ele><time>2025-05-25T21:37:41Z</time></trkpt>
<trkpt lat="50.605417" lon="3.574001"><ele>61.1</ele><time>2025-05-25T21:37:43Z</time></trkpt>
<trkpt lat="50.605285" lon="3.57392"><ele>61.86</ele><time>2025-05-25T21:37:46Z</time></trkpt>
<trkpt lat="50.60468" lon="3.573886"><ele>59.86</ele><time>2025-05-25T21:37:48Z</time></trkpt>
<trkpt lat="50.604098" lon="3.573762"><ele>57.21</ele><time>2025-05-25T21:37:50Z</time></trkpt>
<trkpt lat="50.603897" lon="3.573705"><ele>56.69</ele><time>2025-05-25T21:37:52Z</time></trkpt>
<trkpt lat="50.603816" lon="3.573662"><ele>56.29</ele><time>2025-05-25T21:37:55Z</time></trkpt>
<trkpt lat="50.603678" lon="3.573518"><ele>55.74</ele><time>2025-05-25T21:37:57Z</time></trkpt>
<trkpt lat="50.603149" lon="3.572555"><ele>55.14</ele><time>2025-05-25T21:37:59Z</time></trkpt>
<trkpt lat="50.602948" lon="3.572152"><ele>55.25</ele><time>2025-05-25T21:38:02Z</time></trkpt>
<trkpt lat="50.602823" lon="3.572012"><ele>55.76</ele><time>2025-05-25T21:38:04Z</time></trkpt>
<trkpt lat="50.602658" lon="3.571934"><ele>56.0</ele><time>2025-05-25T21:38:06Z</time></trkpt>
<trkpt lat="50.602246" lon="3.57199"><ele>56.0</ele><time>2025-05-25T21:38:08Z</time></trkpt>
<trkpt lat="50.601987" lon="3.572054"><ele>56.33</ele><time>2025-05-25T21:38:11Z</time></trkpt>
<trkpt lat="50.601754" lon="3.572196"><ele>57.03</ele><time>2025-05-25T21:38:13Z</time></trkpt>
<trkpt lat="50.601239" lon="3.572741"><ele>59.68</ele><time>2025-05-25T21:38:15Z</time></trkpt>
<trkpt lat="50.600952" lon="3.573004"><ele>60.65</ele><time>2025-05-25T21:38:17Z</time></trkpt>
<trkpt lat="50.600024" lon="3.573603"><ele>59.0</ele><time>2025-05-25T21:38:20Z</time></trkpt>
<trkpt lat="50.599747" lon="3.573819"><ele>58.32</ele><time>2025-05-25T21:38:22Z</time></trkpt>
<trkpt lat="50.599449" lon="3.574084"><ele>56.33</ele><time>2025-05-25T21:38:24Z</time></trkpt>
<trkpt lat="50.599002" lon="3.574592"><ele>53.78</ele><time>2025-05-25T21:38:26Z</time></trkpt>
<trkpt lat="50.598873" lon="3.574703"><ele>54.06</ele><time>2025-05-25T21:38:29Z</time></trkpt>
<trkpt lat="50.59871" lon="3.574743"><ele>54.62</ele><time>2025-05-25T21:38:31Z</time></trkpt>
<trkpt lat="50.598256" lon="3.574578"><ele>55.72</ele><time>2025-05-25T21:38:33Z</time></trkpt>
<trkpt lat="50.598177" lon="3.574576"><ele>55.44</ele><time>2025-05-25T21:38:36Z</time></trkpt>
<trkpt lat="50.597396" lon="3.57481"><ele>57.95</ele><time>2025-05-25T21:38:38Z</time></trkpt>
<trkpt lat="50.597156" lon="3.57484"><ele>59.38</ele><time>2025-05-25T21:38:40Z</time></trkpt>
<trkpt lat="50.596774" lon="3.574841"><ele>61.19</ele><time>2025-05-25T21:38:42Z</time></trkpt>
<trkpt lat="50.596626" lon="3.57491"><ele>61.57</ele><time>2025-05-25T21:38:45Z</time></trkpt>
<trkpt lat="50.596478" lon="3.575012"><ele>62.36</ele><time>2025-05-25T21:38:47Z</time></trkpt>
<trkpt lat="50.59598" lon="3.575435"><ele>61.17</ele><time>2025-05-25T21:38:49Z</time></trkpt>
<trkpt lat="50.595489" lon="3.575904"><ele>59.51</ele><time>2025-05-25T21:38:51Z</time></trkpt>
<trkpt lat="50.595305" lon="3.576024"><ele>58.41</ele><time>2025-05-25T21:38:54Z</time></trkpt>
<trkpt lat="50.594842" lon="3.576202"><ele>56.1</ele><time>2025-05-25T21:38:56Z</time></trkpt>
<trkpt lat="50.594492" lon="3.57631"><ele>55.56</ele><time>2025-05-25T21:38:58Z</time></trkpt>
<trkpt lat="50.594492" lon="3.57631"><ele>55.56</ele><time>2025-05-25T21:38:58Z</time></trkpt>
<trkpt lat="50.594392" lon="3.576317"><ele>54.81</ele><time>2025-05-25T21:39:00Z</time></trkpt>
<trkpt lat="50.594328" lon="3.576274"><ele>54.58</ele><time>2025-05-25T21:39:02Z</time></trkpt>
<trkpt lat="50.593671" lon="3.575232"><ele>53.21</ele><time>2025-05-25T21:39:04Z</time></trkpt>
<trkpt lat="50.593602" lon="3.575195"><ele>52.97</ele><time>2025-05-25T21:39:06Z</time></trkpt>
<trkpt lat="50.592939" lon="3.575101"><ele>49.58</ele><time>2025-05-25T21:39:07Z</time></trkpt>
<trkpt lat="50.592859" lon="3.575115"><ele>49.29</ele><time>2025-05-25T21:39:09Z</time></trkpt>
<trkpt lat="50.594436" lon="3.587048"><ele>46.56</ele><time>2025-05-25T21:39:32Z</time></trkpt>
<trkpt lat="50.59599" lon="3.599124"><ele>46.0</ele><time>2025-05-25T21:39:55Z</time></trkpt>
<trkpt lat="50.596059" lon="3.599566"><ele>45.81</ele><time>2025-05-25T21:40:19Z</time></trkpt>
<trkpt lat="50.596132" lon="3.599898"><ele>46.12</ele><time>2025-05-25T21:40:42Z</time></trkpt>
<trkpt lat="50.59616" lon="3.60039"><ele>46.35</ele><time>2025-05-25T21:40:44Z</time></trkpt>
<trkpt lat="50.596255" lon="3.601047"><ele>46.49</ele><time>2025-05-25T21:40:46Z</time></trkpt>
<trkpt lat="50.596126" lon="3.601609"><ele>46.2</ele><time>2025-05-25T21:40:48Z</time></trkpt>
<trkpt lat="50.595948" lon="3.601515"><ele>46.81</ele><time>2025-05-25T21:40:49Z</time></trkpt>
<trkpt lat="50.595923" lon="3.601351"><ele>47.0</ele><time>2025-05-25T21:40:51Z</time></trkpt>
<trkpt lat="50.59593" lon="3.601084"><ele>46.9</ele><time>2025-05-25T21:40:52Z</time></trkpt>
<trkpt lat="50.595916" lon="3.6009"><ele>46.24</ele><time>2025-05-25T21:40:53Z</time></trkpt>
<trkpt lat="50.595712" lon="3.600126"><ele>46.0</ele><time>2025-05-25T21:40:55Z</time></trkpt>
<trkpt lat="50.595212" lon="3.600458"><ele>46.73</ele><time>2025-05-25T21:41:24Z</time></trkpt>
<trkpt lat="50.595146" lon="3.600534"><ele>46.96</ele><time>2025-05-25T21:41:53Z</time></trkpt>
<trkpt lat="50.595194" lon="3.602107"><ele>47.98</ele><time>2025-05-25T21:42:11Z</time></trkpt>
<trkpt lat="50.595192" lon="3.603012"><ele>49.69</ele><time>2025-05-25T21:42:29Z</time></trkpt>
<trkpt lat="50.595177" lon="3.603297"><ele>50.19</ele><time>2025-05-25T21:42:47Z</time></trkpt>
<trkpt lat="50.595114" lon="3.603495"><ele>49.58</ele><time>2025-05-25T21:43:05Z</time></trkpt>
<trkpt lat="50.594983" lon="3.603778"><ele>48.97</ele><time>2025-05-25T21:43:22Z</time></trkpt>
<trkpt lat="50.594483" lon="3.60474"><ele>50.73</ele><time>2025-05-25T21:43:40Z</time></trkpt>
<trkpt lat="50.594403" lon="3.604789"><ele>51.03</ele><time>2025-05-25T21:43:58Z</time></trkpt>
<trkpt lat="50.594327" lon="3.604747"><ele>51.04</ele><time>2025-05-25T21:44:16Z</time></trkpt>
<trkpt lat="50.594163" lon="3.604423"><ele>51.0</ele><time>2025-05-25T21:44:34Z</time></trkpt>
<trkpt lat="50.594066" lon="3.604712"><ele>51.0</ele><time>2025-05-25T21:44:51Z</time></trkpt>
<trkpt lat="50.593703" lon="3.605466"><ele>52.22</ele><time>2025-05-25T21:45:09Z</time></trkpt>
<trkpt lat="50.593474" lon="3.605822"><ele>52.49</ele><time>2025-05-25T21:45:27Z</time></trkpt>
<trkpt lat="50.593084" lon="3.606337"><ele>53.0</ele><time>2025-05-25T21:45:45Z</time></trkpt>
<trkpt lat="50.592767" lon="3.606812"><ele>52.91</ele><time>2025-05-25T21:46:03Z</time></trkpt>
<trkpt lat="50.592767" lon="3.606812"><ele>52.91</ele><time>2025-05-25T21:46:03Z</time></trkpt>
<trkpt lat="50.593084" lon="3.606337"><ele>53.0</ele><time>2025-05-25T21:46:20Z</time></trkpt>
<trkpt lat="50.593474" lon="3.605822"><ele>52.49</ele><time>2025-05-25T21:46:38Z</time></trkpt>
<trkpt lat="50.593703" lon="3.605466"><ele>52.22</ele><time>2025-05-25T21:46:56Z</time></trkpt>
<trkpt lat="50.594066" lon="3.604712"><ele>51.0</ele><time>2025-05-25T21:47:14Z</time></trkpt>
<trkpt lat="50.594163" lon="3.604423"><ele>51.0</ele><time>2025-05-25T21:47:32Z</time></trkpt>
<trkpt lat="50.594327" lon="3.604747"><ele>51.04</ele><time>2025-05-25T21:47:49Z</time></trkpt>
<trkpt lat="50.594403" lon="3.604789"><ele>51.03</ele><time>2025-05-25T21:48:07Z</time></trkpt>
<trkpt lat="50.594483" lon="3.60474"><ele>50.73</ele><time>2025-05-25T21:48:25Z</time></trkpt>
<trkpt lat="50.594983" lon="3.603778"><ele>48.97</ele><time>2025-05-25T21:48:43Z</time></trkpt>
<trkpt lat="50.595114" lon="3.603495"><ele>49.58</ele><time>2025-05-25T21:49:01Z</time></trkpt>
<trkpt lat="50.595177" lon="3.603297"><ele>50.19</ele><time>2025-05-25T21:49:18Z</time></trkpt>
<trkpt lat="50.595192" lon="3.603012"><ele>49.69</ele><time>2025-05-25T21:49:36Z</time></trkpt>
<trkpt lat="50.595194" lon="3.602107"><ele>47.98</ele><time>2025-05-25T21:49:54Z</time></trkpt>
<trkpt lat="50.595146" lon="3.600534"><ele>46.96</ele><time>2025-05-25T21:50:12Z</time></trkpt>
<trkpt lat="50.595212" lon="3.600458"><ele>46.73</ele><time>2025-05-25T21:50:26Z</time></trkpt>
<trkpt lat="50.595712" lon="3.600126"><ele>46.0</ele><time>2025-05-25T21:50:41Z</time></trkpt>
<trkpt lat="50.595275" lon="3.598611"><ele>47.0</ele><time>2025-05-25T21:50:44Z</time></trkpt>
<trkpt lat="50.59521" lon="3.598435"><ele>47.0</ele><time>2025-05-25T21:50:48Z</time></trkpt>
<trkpt lat="50.595146" lon="3.598339"><ele>47.0</ele><time>2025-05-25T21:50:51Z</time></trkpt>
<trkpt lat="50.595078" lon="3.598289"><ele>47.0</ele><time>2025-05-25T21:50:54Z</time></trkpt>
<trkpt lat="50.594879" lon="3.598254"><ele>47.0</ele><time>2025-05-25T21:50:58Z</time></trkpt>
<trkpt lat="50.594389" lon="3.597766"><ele>47.24</ele><time>2025-05-25T21:51:01Z</time></trkpt>
<trkpt lat="50.594183" lon="3.597465"><ele>48.94</ele><time>2025-05-25T21:51:05Z</time></trkpt>
<trkpt lat="50.594091" lon="3.597278"><ele>49.22</ele><time>2025-05-25T21:51:08Z</time></trkpt>
<trkpt lat="50.593801" lon="3.596555"><ele>48.91</ele><time>2025-05-25T21:51:12Z</time></trkpt>
<trkpt lat="50.593629" lon="3.596237"><ele>48.39</ele><time>2025-05-25T21:51:15Z</time></trkpt>
<trkpt lat="50.59353" lon="3.59612"><ele>48.02</ele><time>2025-05-25T21:51:19Z</time></trkpt>
<trkpt lat="50.591748" lon="3.594488"><ele>47.86</ele><time>2025-05-25T21:51:22Z</time></trkpt>
<trkpt lat="50.590991" lon="3.593584"><ele>49.77</ele><time>2025-05-25T21:51:26Z</time></trkpt>
<trkpt lat="50.590693" lon="3.593331"><ele>50.99</ele><time>2025-05-25T21:51:29Z</time></trkpt>
<trkpt lat="50.590332" lon="3.593135"><ele>51.15</ele><time>2025-05-25T21:51:33Z</time></trkpt>
<trkpt lat="50.588364" lon="3.592347"><ele>52.06</ele><time>2025-05-25T21:51:36Z</time></trkpt>
<trkpt lat="50.587587" lon="3.591952"><ele>52.97</ele><time>2025-05-25T21:51:40Z</time></trkpt>
<trkpt lat="50.587149" lon="3.591857"><ele>51.74</ele><time>2025-05-25T21:51:43Z</time></trkpt>
<trkpt lat="50.58701" lon="3.591807"><ele>51.24</ele><time>2025-05-25T21:51:47Z</time></trkpt>
<trkpt lat="50.586741" lon="3.591665"><ele>51.73</ele><time>2025-05-25T21:51:50Z</time></trkpt>
<trkpt lat="50.586087" lon="3.591252"><ele>54.17</ele><time>2025-05-25T21:51:54Z</time></trkpt>
<trkpt lat="50.585813" lon="3.591042"><ele>55.82</ele><time>2025-05-25T21:51:57Z</time></trkpt>
<trkpt lat="50.584581" lon="3.593158"><ele>64.76</ele><time>2025-05-25T21:53:01Z</time></trkpt>
<trkpt lat="50.58459" lon="3.593177"><ele>65.12</ele><time>2025-05-25T21:53:01Z</time></trkpt>
<trkpt lat="50.58459" lon="3.593177"><ele>65.12</ele><time>2025-05-25T21:53:01Z</time></trkpt>
<trkpt lat="50.584581" lon="3.593158"><ele>64.76</ele><time>2025-05-25T21:53:02Z</time></trkpt>
<trkpt lat="50.584171" lon="3.593538"><ele>67.48</ele><time>2025-05-25T21:53:33Z</time></trkpt>
<trkpt lat="50.58385" lon="3.59377"><ele>68.0</ele><time>2025-05-25T21:54:04Z</time></trkpt>
<trkpt lat="50.583474" lon="3.593991"><ele>67.01</ele><time>2025-05-25T21:54:35Z</time></trkpt>
<trkpt lat="50.582921" lon="3.594189"><ele>65.43</ele><time>2025-05-25T21:55:06Z</time></trkpt>
<trkpt lat="50.582658" lon="3.594385"><ele>63.35</ele><time>2025-05-25T21:55:37Z</time></trkpt>
<trkpt lat="50.582563" lon="3.59449"><ele>62.45</ele><time>2025-05-25T21:56:08Z</time></trkpt>
<trkpt lat="50.580904" lon="3.596694"><ele>55.51</ele><time>2025-05-25T21:56:39Z</time></trkpt>
<trkpt lat="50.57979" lon="3.598105"><ele>54.82</ele><time>2025-05-25T21:57:10Z</time></trkpt>
<trkpt lat="50.579597" lon="3.598417"><ele>53.55</ele><time>2025-05-25T21:57:41Z</time></trkpt>
<trkpt lat="50.578947" lon="3.599192"><ele>53.79</ele><time>2025-05-25T21:58:12Z</time></trkpt>
<trkpt lat="50.578565" lon="3.599694"><ele>54.0</ele><time>2025-05-25T21:58:43Z</time></trkpt>
<trkpt lat="50.577437" lon="3.598916"><ele>53.23</ele><time>2025-05-25T21:58:57Z</time></trkpt>
<trkpt lat="50.576535" lon="3.602467"><ele>49.47</ele><time>2025-05-25T22:01:19Z</time></trkpt>
<trkpt lat="50.575123" lon="3.607914"><ele>48.56</ele><time>2025-05-25T22:03:41Z</time></trkpt>
<trkpt lat="50.575109" lon="3.607899"><ele>48.6</ele><time>2025-05-25T22:03:41Z</time></trkpt>
<trkpt lat="50.575109" lon="3.607899"><ele>48.6</ele><time>2025-05-25T22:03:41Z</time></trkpt>
<trkpt lat="50.574067" lon="3.60682"><ele>48.64</ele><time>2025-05-25T22:04:11Z</time></trkpt>
<trkpt lat="50.573234" lon="3.606277"><ele>48.42</ele><time>2025-05-25T22:04:40Z</time></trkpt>
<trkpt lat="50.572927" lon="3.606046"><ele>48.46</ele><time>2025-05-25T22:05:10Z</time></trkpt>
<trkpt lat="50.572903" lon="3.605951"><ele>48.55</ele><time>2025-05-25T22:05:39Z</time></trkpt>
<trkpt lat="50.572758" lon="3.60594"><ele>49.0</ele><time>2025-05-25T22:05:43Z</time></trkpt>
<trkpt lat="50.572565" lon="3.605834"><ele>49.0</ele><time>2025-05-25T22:05:47Z</time></trkpt>
<trkpt lat="50.571799" lon="3.60495"><ele>50.82</ele><time>2025-05-25T22:05:51Z</time></trkpt>
<trkpt lat="50.571471" lon="3.604534"><ele>50.7</ele><time>2025-05-25T22:05:55Z</time></trkpt>
<trkpt lat="50.571378" lon="3.604353"><ele>50.68</ele><time>2025-05-25T22:05:59Z</time></trkpt>
<trkpt lat="50.571032" lon="3.603487"><ele>51.0</ele><time>2025-05-25T22:06:03Z</time></trkpt>
<trkpt lat="50.570965" lon="3.603383"><ele>51.0</ele><time>2025-05-25T22:06:07Z</time></trkpt>
<trkpt lat="50.570884" lon="3.603303"><ele>50.91</ele><time>2025-05-25T22:06:11Z</time></trkpt>
<trkpt lat="50.570645" lon="3.603187"><ele>50.47</ele><time>2025-05-25T22:06:15Z</time></trkpt>
<trkpt lat="50.57048" lon="3.603023"><ele>49.91</ele><time>2025-05-25T22:06:19Z</time></trkpt>
<trkpt lat="50.570416" lon="3.602988"><ele>49.88</ele><time>2025-05-25T22:06:23Z</time></trkpt>
<trkpt lat="50.570353" lon="3.602995"><ele>49.94</ele><time>2025-05-25T22:06:27Z</time></trkpt>
<trkpt lat="50.569822" lon="3.603318"><ele>48.75</ele><time>2025-05-25T22:06:31Z</time></trkpt>
<trkpt lat="50.569753" lon="3.603336"><ele>48.22</ele><time>2025-05-25T22:06:36Z</time></trkpt>
<trkpt lat="50.569686" lon="3.603324"><ele>48.03</ele><time>2025-05-25T22:06:40Z</time></trkpt>
<trkpt lat="50.569616" lon="3.603274"><ele>48.21</ele><time>2025-05-25T22:06:44Z</time></trkpt>
<trkpt lat="50.569533" lon="3.603104"><ele>48.82</ele><time>2025-05-25T22:06:48Z</time></trkpt>
<trkpt lat="50.569177" lon="3.602226"><ele>50.96</ele><time>2025-05-25T22:06:52Z</time></trkpt>
<trkpt lat="50.569097" lon="3.602073"><ele>51.54</ele><time>2025-05-25T22:06:56Z</time></trkpt>
<trkpt lat="50.568891" lon="3.601751"><ele>52.69</ele><time>2025-05-25T22:07:00Z</time></trkpt>
<trkpt lat="50.568697" lon="3.60152"><ele>52.64</ele><time>2025-05-25T22:07:04Z</time></trkpt>
<trkpt lat="50.568445" lon="3.60133"><ele>51.4</ele><time>2025-05-25T22:07:08Z</time></trkpt>
<trkpt lat="50.567984" lon="3.60077"><ele>51.0</ele><time>2025-05-25T22:07:12Z</time></trkpt>
<trkpt lat="50.567558" lon="3.600296"><ele>51.79</ele><time>2025-05-25T22:07:16Z</time></trkpt>
<trkpt lat="50.567284" lon="3.599843"><ele>53.34</ele><time>2025-05-25T22:07:20Z</time></trkpt>
<trkpt lat="50.567166" lon="3.599633"><ele>54.0</ele><time>2025-05-25T22:07:24Z</time></trkpt>
<trkpt lat="50.566915" lon="3.599141"><ele>53.1</ele><time>2025-05-25T22:07:28Z</time></trkpt>
<trkpt lat="50.566712" lon="3.59881"><ele>53.84</ele><time>2025-05-25T22:07:32Z</time></trkpt>
<trkpt lat="50.566534" lon="3.598549"><ele>54.96</ele><time>2025-05-25T22:07:36Z</time></trkpt>
<trkpt lat="50.56582" lon="3.597697"><ele>57.09</ele><time>2025-05-25T22:07:40Z</time></trkpt>
<trkpt lat="50.565709" lon="3.597533"><ele>57.9</ele><time>2025-05-25T22:07:44Z</time></trkpt>
<trkpt lat="50.565554" lon="3.597226"><ele>59.0</ele><time>2025-05-25T22:07:48Z</time></trkpt>
<trkpt lat="50.564806" lon="3.595443"><ele>60.1</ele><time>2025-05-25T22:07:52Z</time></trkpt>
<trkpt lat="50.564315" lon="3.594052"><ele>62.0</ele><time>2025-05-25T22:07:56Z</time></trkpt>
<trkpt lat="50.564252" lon="3.593758"><ele>61.53</ele><time>2025-05-25T22:08:00Z</time></trkpt>
<trkpt lat="50.561896" lon="3.592642"><ele>62.26</ele><time>2025-05-25T22:08:10Z</time></trkpt>
<trkpt lat="50.561629" lon="3.592601"><ele>63.31</ele><time>2025-05-25T22:08:21Z</time></trkpt>
<trkpt lat="50.561426" lon="3.592649"><ele>63.07</ele><time>2025-05-25T22:08:31Z</time></trkpt>
<trkpt lat="50.55911" lon="3.593635"><ele>60.07</ele><time>2025-05-25T22:08:41Z</time></trkpt>
<trkpt lat="50.557127" lon="3.594485"><ele>55.31</ele><time>2025-05-25T22:08:51Z</time></trkpt>
<trkpt lat="50.556564" lon="3.594551"><ele>55.37</ele><time>2025-05-25T22:09:01Z</time></trkpt>
<trkpt lat="50.55649" lon="3.594529"><ele>55.63</ele><time>2025-05-25T22:09:11Z</time></trkpt>
<trkpt lat="50.556454" lon="3.594496"><ele>55.76</ele><time>2025-05-25T22:09:21Z</time></trkpt>
<trkpt lat="50.556389" lon="3.594377"><ele>56.0</ele><time>2025-05-25T22:09:32Z</time></trkpt>
<trkpt lat="50.556171" lon="3.59296"><ele>54.92</ele><time>2025-05-25T22:09:42Z</time></trkpt>
<trkpt lat="50.556047" lon="3.592471"><ele>54.46</ele><time>2025-05-25T22:09:52Z</time></trkpt>
<trkpt lat="50.55545" lon="3.590933"><ele>55.6</ele><time>2025-05-25T22:10:02Z</time></trkpt>
<trkpt lat="50.555419" lon="3.590982"><ele>51.14</ele><time>2025-05-25T22:10:02Z</time></trkpt>
<trkpt lat="50.555419" lon="3.590982"><ele>51.14</ele><time>2025-05-25T22:10:02Z</time></trkpt>
<trkpt lat="50.551854" lon="3.59653"><ele>46.67</ele><time>2025-05-25T22:10:31Z</time></trkpt>
<trkpt lat="50.551919" lon="3.596636"><ele>46.91</ele><time>2025-05-25T22:10:35Z</time></trkpt>
<trkpt lat="50.551927" lon="3.596751"><ele>46.94</ele><time>2025-05-25T22:10:38Z</time></trkpt>
<trkpt lat="50.55191" lon="3.596799"><ele>46.88</ele><time>2025-05-25T22:10:41Z</time></trkpt>
<trkpt lat="50.551803" lon="3.596911"><ele>46.49</ele><time>2025-05-25T22:10:44Z</time></trkpt>
<trkpt lat="50.551516" lon="3.597382"><ele>45.0</ele><time>2025-05-25T22:10:48Z</time></trkpt>
<trkpt lat="50.551475" lon="3.597497"><ele>45.0</ele><time>2025-05-25T22:10:51Z</time></trkpt>
<trkpt lat="50.551471" lon="3.597692"><ele>44.31</ele><time>2025-05-25T22:10:54Z</time></trkpt>
<trkpt lat="50.551494" lon="3.597775"><ele>44.01</ele><time>2025-05-25T22:10:57Z</time></trkpt>
<trkpt lat="50.551601" lon="3.59798"><ele>44.0</ele><time>2025-05-25T22:11:01Z</time></trkpt>
<trkpt lat="50.552056" lon="3.598707"><ele>44.26</ele><time>2025-05-25T22:11:04Z</time></trkpt>
<trkpt lat="50.55225" lon="3.598942"><ele>44.1</ele><time>2025-05-25T22:11:07Z</time></trkpt>
<trkpt lat="50.552326" lon="3.599068"><ele>44.37</ele><time>2025-05-25T22:11:11Z</time></trkpt>
<trkpt lat="50.552637" lon="3.599783"><ele>45.0</ele><time>2025-05-25T22:11:14Z</time></trkpt>
<trkpt lat="50.552968" lon="3.600312"><ele>45.6</ele><time>2025-05-25T22:11:17Z</time></trkpt>
<trkpt lat="50.553002" lon="3.600391"><ele>45.48</ele><time>2025-05-25T22:11:20Z</time></trkpt>
<trkpt lat="50.553032" lon="3.600581"><ele>45.0</ele><time>2025-05-25T22:11:24Z</time></trkpt>
<trkpt lat="50.553015" lon="3.601323"><ele>45.0</ele><time>2025-05-25T22:11:27Z</time></trkpt>
<trkpt lat="50.553026" lon="3.601561"><ele>45.06</ele><time>2025-05-25T22:11:30Z</time></trkpt>
<trkpt lat="50.553093" lon="3.60201"><ele>45.34</ele><time>2025-05-25T22:11:33Z</time></trkpt>
<trkpt lat="50.553209" lon="3.602336"><ele>46.41</ele><time>2025-05-25T22:11:37Z</time></trkpt>
<trkpt lat="50.55355" lon="3.60276"><ele>47.94</ele><time>2025-05-25T22:11:40Z</time></trkpt>
<trkpt lat="50.553629" lon="3.602896"><ele>48.0</ele><time>2025-05-25T22:11:43Z</time></trkpt>
<trkpt lat="50.553694" lon="3.603099"><ele>47.95</ele><time>2025-05-25T22:11:47Z</time></trkpt>
<trkpt lat="50.557615" lon="3.602728"><ele>54.1</ele><time>2025-05-25T22:12:04Z</time></trkpt>
<trkpt lat="50.557733" lon="3.602744"><ele>54.02</ele><time>2025-05-25T22:12:21Z</time></trkpt>
<trkpt lat="50.558192" lon="3.606678"><ele>53.0</ele><time>2025-05-25T22:12:39Z</time></trkpt>
<trkpt lat="50.558651" lon="3.610138"><ele>57.0</ele><time>2025-05-25T22:12:56Z</time></trkpt>
<trkpt lat="50.558655" lon="3.610215"><ele>57.0</ele><time>2025-05-25T22:13:13Z</time></trkpt>
<trkpt lat="50.558614" lon="3.610448"><ele>57.61</ele><time>2025-05-25T22:13:31Z</time></trkpt>
<trkpt lat="50.560113" lon="3.611181"><ele>55.4</ele><time>2025-05-25T22:13:40Z</time></trkpt>
<trkpt lat="50.560081" lon="3.611303"><ele>55.29</ele><time>2025-05-25T22:13:46Z</time></trkpt>
<trkpt lat="50.560322" lon="3.612243"><ele>56.0</ele><time>2025-05-25T22:13:52Z</time></trkpt>
<trkpt lat="50.560383" lon="3.612512"><ele>56.0</ele><time>2025-05-25T22:13:59Z</time></trkpt>
<trkpt lat="50.560404" lon="3.612694"><ele>56.0</ele><time>2025-05-25T22:14:05Z</time></trkpt>
<trkpt lat="50.560406" lon="3.613001"><ele>56.0</ele><time>2025-05-25T22:14:12Z</time></trkpt>
<trkpt lat="50.560372" lon="3.613696"><ele>55.54</ele><time>2025-05-25T22:14:18Z</time></trkpt>
<trkpt lat="50.560389" lon="3.613937"><ele>56.0</ele><time>2025-05-25T22:14:25Z</time></trkpt>
<trkpt lat="50.560413" lon="3.614057"><ele>56.0</ele><time>2025-05-25T22:14:31Z</time></trkpt>
<trkpt lat="50.560704" lon="3.614988"><ele>54.51</ele><time>2025-05-25T22:14:38Z</time></trkpt>
<trkpt lat="50.561326" lon="3.616774"><ele>53.23</ele><time>2025-05-25T22:14:44Z</time></trkpt>
<trkpt lat="50.561429" lon="3.617016"><ele>53.26</ele><time>2025-05-25T22:14:50Z</time></trkpt>
<trkpt lat="50.561672" lon="3.617408"><ele>54.0</ele><time>2025-05-25T22:14:57Z</time></trkpt>
<trkpt lat="50.563087" lon="3.619306"><ele>53.61</ele><time>2025-05-25T22:15:03Z</time></trkpt>
<trkpt lat="50.563209" lon="3.619514"><ele>53.55</ele><time>2025-05-25T22:15:10Z</time></trkpt>
<trkpt lat="50.563303" lon="3.619732"><ele>53.86</ele><time>2025-05-25T22:15:16Z</time></trkpt>
<trkpt lat="50.563373" lon="3.619947"><ele>53.05</ele><time>2025-05-25T22:15:23Z</time></trkpt>
<trkpt lat="50.563847" lon="3.621767"><ele>55.0</ele><time>2025-05-25T22:15:29Z</time></trkpt>
<trkpt lat="50.564095" lon="3.622912"><ele>55.0</ele><time>2025-05-25T22:15:35Z</time></trkpt>
<trkpt lat="50.56243" lon="3.623637"><ele>55.15</ele><time>2025-05-25T22:15:44Z</time></trkpt>
<trkpt lat="50.561723" lon="3.623769"><ele>56.43</ele><time>2025-05-25T22:15:52Z</time></trkpt>
<trkpt lat="50.560522" lon="3.624299"><ele>59.48</ele><time>2025-05-25T22:16:01Z</time></trkpt>
<trkpt lat="50.560654" lon="3.624987"><ele>59.98</ele><time>2025-05-25T22:16:09Z</time></trkpt>
<trkpt lat="50.560961" lon="3.62718"><ele>58.54</ele><time>2025-05-25T22:16:18Z</time></trkpt>
<trkpt lat="50.560988" lon="3.627401"><ele>58.56</ele><time>2025-05-25T22:16:26Z</time></trkpt>
<trkpt lat="50.560987" lon="3.62753"><ele>58.66</ele><time>2025-05-25T22:16:35Z</time></trkpt>
<trkpt lat="50.560958" lon="3.627681"><ele>59.1</ele><time>2025-05-25T22:16:43Z</time></trkpt>
<trkpt lat="50.557837" lon="3.629246"><ele>68.73</ele><time>2025-05-25T22:16:58Z</time></trkpt>
<trkpt lat="50.55764" lon="3.629375"><ele>69.0</ele><time>2025-05-25T22:17:14Z</time></trkpt>
<trkpt lat="50.557355" lon="3.62881"><ele>69.38</ele><time>2025-05-25T22:17:29Z</time></trkpt>
<trkpt lat="50.556192" lon="3.630041"><ele>69.14</ele><time>2025-05-25T22:17:37Z</time></trkpt>
<trkpt lat="50.55549" lon="3.631147"><ele>64.76</ele><time>2025-05-25T22:17:45Z</time></trkpt>
<trkpt lat="50.555458" lon="3.631335"><ele>64.65</ele><time>2025-05-25T22:17:54Z</time></trkpt>
<trkpt lat="50.555506" lon="3.631555"><ele>65.42</ele><time>2025-05-25T22:18:02Z</time></trkpt>
<trkpt lat="50.55609" lon="3.633385"><ele>68.0</ele><time>2025-05-25T22:18:10Z</time></trkpt>
<trkpt lat="50.556274" lon="3.633835"><ele>68.47</ele><time>2025-05-25T22:18:18Z</time></trkpt>
<trkpt lat="50.555071" lon="3.635426"><ele>67.79</ele><time>2025-05-25T22:18:59Z</time></trkpt>
<trkpt lat="50.554575" lon="3.636729"><ele>71.47</ele><time>2025-05-25T22:19:39Z</time></trkpt>
<trkpt lat="50.554431" lon="3.637072"><ele>71.51</ele><time>2025-05-25T22:20:20Z</time></trkpt>
<trkpt lat="50.55409" lon="3.637802"><ele>75.0</ele><time>2025-05-25T22:21:00Z</time></trkpt>
<trkpt lat="50.553106" lon="3.639968"><ele>75.73</ele><time>2025-05-25T22:21:41Z</time></trkpt>
<trkpt lat="50.552779" lon="3.6411"><ele>78.0</ele><time>2025-05-25T22:22:21Z</time></trkpt>
<trkpt lat="50.552022" lon="3.643923"><ele>78.04</ele><time>2025-05-25T22:23:02Z</time></trkpt>
<trkpt lat="50.552022" lon="3.643923"><ele>78.04</ele><time>2025-05-25T22:23:02Z</time></trkpt>
<trkpt lat="50.55203" lon="3.643893"><ele>77.69</ele><time>2025-05-25T22:23:02Z</time></trkpt>
<trkpt lat="50.551927" lon="3.643945"><ele>78.0</ele><time>2025-05-25T22:23:30Z</time></trkpt>
<trkpt lat="50.551767" lon="3.64398"><ele>78.0</ele><time>2025-05-25T22:23:57Z</time></trkpt>
<trkpt lat="50.551591" lon="3.643913"><ele>77.73</ele><time>2025-05-25T22:24:25Z</time></trkpt>
<trkpt lat="50.550989" lon="3.643488"><ele>74.87</ele><time>2025-05-25T22:24:52Z</time></trkpt>
<trkpt lat="50.549859" lon="3.642627"><ele>70.72</ele><time>2025-05-25T22:25:20Z</time></trkpt>
<trkpt lat="50.549351" lon="3.642208"><ele>68.03</ele><time>2025-05-25T22:25:47Z</time></trkpt>
<trkpt lat="50.548205" lon="3.641046"><ele>65.41</ele><time>2025-05-25T22:26:15Z</time></trkpt>
<trkpt lat="50.547801" lon="3.640571"><ele>64.08</ele><time>2025-05-25T22:26:42Z</time></trkpt>
<trkpt lat="50.546579" lon="3.638873"><ele>58.74</ele><time>2025-05-25T22:27:10Z</time></trkpt>
<trkpt lat="50.546039" lon="3.63805"><ele>58.48</ele><time>2025-05-25T22:27:37Z</time></trkpt>
<trkpt lat="50.545874" lon="3.637744"><ele>57.28</ele><time>2025-05-25T22:28:04Z</time></trkpt>
<trkpt lat="50.54548" lon="3.636982"><ele>57.67</ele><time>2025-05-25T22:28:32Z</time></trkpt>
<trkpt lat="50.545341" lon="3.636939"><ele>57.23</ele><time>2025-05-25T22:28:59Z</time></trkpt>
<trkpt lat="50.545341" lon="3.637018"><ele>57.37</ele><time>2025-05-25T22:29:03Z</time></trkpt>
<trkpt lat="50.5453" lon="3.637147"><ele>57.69</ele><time>2025-05-25T22:29:06Z</time></trkpt>
<trkpt lat="50.544781" lon="3.637961"><ele>54.0</ele><time>2025-05-25T22:29:09Z</time></trkpt>
<trkpt lat="50.5448" lon="3.637993"><ele>54.25</ele><time>2025-05-25T22:29:11Z</time></trkpt>
<trkpt lat="50.5448" lon="3.637993"><ele>54.25</ele><time>2025-05-25T22:29:11Z</time></trkpt>
<trkpt lat="50.544781" lon="3.637961"><ele>54.0</ele><time>2025-05-25T22:29:12Z</time></trkpt>
<trkpt lat="50.544496" lon="3.6384"><ele>54.0</ele><time>2025-05-25T22:29:18Z</time></trkpt>
<trkpt lat="50.544395" lon="3.638523"><ele>54.36</ele><time>2025-05-25T22:29:25Z</time></trkpt>
<trkpt lat="50.543759" lon="3.639156"><ele>55.53</ele><time>2025-05-25T22:29:31Z</time></trkpt>
<trkpt lat="50.543602" lon="3.63934"><ele>55.66</ele><time>2025-05-25T22:29:37Z</time></trkpt>
<trkpt lat="50.543416" lon="3.639635"><ele>56.7</ele><time>2025-05-25T22:29:44Z</time></trkpt>
<trkpt lat="50.543235" lon="3.640037"><ele>55.51</ele><time>2025-05-25T22:29:50Z</time></trkpt>
<trkpt lat="50.542387" lon="3.642351"><ele>55.59</ele><time>2025-05-25T22:29:56Z</time></trkpt>
<trkpt lat="50.542263" lon="3.642837"><ele>55.3</ele><time>2025-05-25T22:30:03Z</time></trkpt>
<trkpt lat="50.542213" lon="3.643193"><ele>54.93</ele><time>2025-05-25T22:30:09Z</time></trkpt>
<trkpt lat="50.541981" lon="3.64593"><ele>51.44</ele><time>2025-05-25T22:30:15Z</time></trkpt>
<trkpt lat="50.541961" lon="3.646021"><ele>51.69</ele><time>2025-05-25T22:30:22Z</time></trkpt>
<trkpt lat="50.541895" lon="3.646149"><ele>52.18</ele><time>2025-05-25T22:30:28Z</time></trkpt>
<trkpt lat="50.540849" lon="3.647496"><ele>53.0</ele><time>2025-05-25T22:30:34Z</time></trkpt>
<trkpt lat="50.540135" lon="3.64883"><ele>55.0</ele><time>2025-05-25T22:30:41Z</time></trkpt>
<trkpt lat="50.540103" lon="3.648881"><ele>55.0</ele><time>2025-05-25T22:30:47Z</time></trkpt>
<trkpt lat="50.540047" lon="3.648921"><ele>55.0</ele><time>2025-05-25T22:30:53Z</time></trkpt>
<trkpt lat="50.540161" lon="3.649121"><ele>55.0</ele><time>2025-05-25T22:30:58Z</time></trkpt>
<trkpt lat="50.540524" lon="3.64955"><ele>56.0</ele><time>2025-05-25T22:31:02Z</time></trkpt>
<trkpt lat="50.542061" lon="3.65113"><ele>55.42</ele><time>2025-05-25T22:31:06Z</time></trkpt>
<trkpt lat="50.542151" lon="3.651162"><ele>55.74</ele><time>2025-05-25T22:31:11Z</time></trkpt>
<trkpt lat="50.542878" lon="3.65107"><ele>53.79</ele><time>2025-05-25T22:31:15Z</time></trkpt>
<trkpt lat="50.543242" lon="3.651097"><ele>53.72</ele><time>2025-05-25T22:31:19Z</time></trkpt>
<trkpt lat="50.545087" lon="3.651521"><ele>60.47</ele><time>2025-05-25T22:31:24Z</time></trkpt>
<trkpt lat="50.545263" lon="3.651531"><ele>60.51</ele><time>2025-05-25T22:31:28Z</time></trkpt>
<trkpt lat="50.5462" lon="3.651411"><ele>63.32</ele><time>2025-05-25T22:31:32Z</time></trkpt>
<trkpt lat="50.546286" lon="3.651417"><ele>63.63</ele><time>2025-05-25T22:31:37Z</time></trkpt>
<trkpt lat="50.546431" lon="3.651494"><ele>64.09</ele><time>2025-05-25T22:31:41Z</time></trkpt>
<trkpt lat="50.547666" lon="3.652361"><ele>67.6</ele><time>2025-05-25T22:31:45Z</time></trkpt>
<trkpt lat="50.547795" lon="3.652359"><ele>68.06</ele><time>2025-05-25T22:31:50Z</time></trkpt>
<trkpt lat="50.547944" lon="3.652245"><ele>68.6</ele><time>2025-05-25T22:31:54Z</time></trkpt>
<trkpt lat="50.548148" lon="3.652136"><ele>69.18</ele><time>2025-05-25T22:31:58Z</time></trkpt>
<trkpt lat="50.548148" lon="3.652136"><ele>69.18</ele><time>2025-05-25T22:31:58Z</time></trkpt>
<trkpt lat="50.548263" lon="3.65212"><ele>69.28</ele><time>2025-05-25T22:32:01Z</time></trkpt>
<trkpt lat="50.548362" lon="3.652135"><ele>69.39</ele><time>2025-05-25T22:32:04Z</time></trkpt>
<trkpt lat="50.54938" lon="3.652497"><ele>72.54</ele><time>2025-05-25T22:32:06Z</time></trkpt>
<trkpt lat="50.550634" lon="3.65278"><ele>78.56</ele><time>2025-05-25T22:32:09Z</time></trkpt>
<trkpt lat="50.551012" lon="3.652823"><ele>80.54</ele><time>2025-05-25T22:32:12Z</time></trkpt>
<trkpt lat="50.551297" lon="3.652802"><ele>81.58</ele><time>2025-05-25T22:32:15Z</time></trkpt>
<trkpt lat="50.551618" lon="3.652715"><ele>82.63</ele><time>2025-05-25T22:32:17Z</time></trkpt>
<trkpt lat="50.552082" lon="3.652627"><ele>78.1</ele><time>2025-05-25T22:32:20Z</time></trkpt>
<trkpt lat="50.553013" lon="3.652785"><ele>74.15</ele><time>2025-05-25T22:32:23Z</time></trkpt>
<trkpt lat="50.553404" lon="3.652821"><ele>72.75</ele><time>2025-05-25T22:32:26Z</time></trkpt>
<trkpt lat="50.55496" lon="3.652617"><ele>67.86</ele><time>2025-05-25T22:32:28Z</time></trkpt>
<trkpt lat="50.555456" lon="3.652427"><ele>66.36</ele><time>2025-05-25T22:32:31Z</time></trkpt>
<trkpt lat="50.555561" lon="3.652426"><ele>66.0</ele><time>2025-05-25T22:32:34Z</time></trkpt>
<trkpt lat="50.556222" lon="3.652526"><ele>64.6</ele><time>2025-05-25T22:32:37Z</time></trkpt>
<trkpt lat="50.556456" lon="3.652486"><ele>64.0</ele><time>2025-05-25T22:32:39Z</time></trkpt>
<trkpt lat="50.55687" lon="3.652303"><ele>64.73</ele><time>2025-05-25T22:32:42Z</time></trkpt>
<trkpt lat="50.55713" lon="3.652239"><ele>65.0</ele><time>2025-05-25T22:32:45Z</time></trkpt>
<trkpt lat="50.557834" lon="3.652283"><ele>62.84</ele><time>2025-05-25T22:32:48Z</time></trkpt>
<trkpt lat="50.558146" lon="3.65224"><ele>62.06</ele><time>2025-05-25T22:32:50Z</time></trkpt>
<trkpt lat="50.55904" lon="3.651909"><ele>62.0</ele><time>2025-05-25T22:32:53Z</time></trkpt>
<trkpt lat="50.559206" lon="3.651866"><ele>62.0</ele><time>2025-05-25T22:32:56Z</time></trkpt>
<trkpt lat="50.559517" lon="3.651828"><ele>62.0</ele><time>2025-05-25T22:32:59Z</time></trkpt>
<trkpt lat="50.559989" lon="3.651906"><ele>61.04</ele><time>2025-05-25T22:33:01Z</time></trkpt>
<trkpt lat="50.560577" lon="3.652096"><ele>61.54</ele><time>2025-05-25T22:33:04Z</time></trkpt>
<trkpt lat="50.560873" lon="3.652111"><ele>61.51</ele><time>2025-05-25T22:33:07Z</time></trkpt>
<trkpt lat="50.56129" lon="3.652027"><ele>60.55</ele><time>2025-05-25T22:33:09Z</time></trkpt>
<trkpt lat="50.561398" lon="3.652032"><ele>60.29</ele><time>2025-05-25T22:33:12Z</time></trkpt>
<trkpt lat="50.561599" lon="3.652094"><ele>59.72</ele><time>2025-05-25T22:33:15Z</time></trkpt>
<trkpt lat="50.56212" lon="3.652345"><ele>59.63</ele><time>2025-05-25T22:33:18Z</time></trkpt>
<trkpt lat="50.562426" lon="3.652425"><ele>60.0</ele><time>2025-05-25T22:33:20Z</time></trkpt>
<trkpt lat="50.562559" lon="3.652522"><ele>60.19</ele><time>2025-05-25T22:33:23Z</time></trkpt>
<trkpt lat="50.563064" lon="3.653102"><ele>58.83</ele><time>2025-05-25T22:33:26Z</time></trkpt>
<trkpt lat="50.563257" lon="3.65323"><ele>58.37</ele><time>2025-05-25T22:33:31Z</time></trkpt>
<trkpt lat="50.563999" lon="3.653555"><ele>56.6</ele><time>2025-05-25T22:33:37Z</time></trkpt>
<trkpt lat="50.564282" lon="3.653582"><ele>56.79</ele><time>2025-05-25T22:33:42Z</time></trkpt>
<trkpt lat="50.565132" lon="3.653547"><ele>56.3</ele><time>2025-05-25T22:33:48Z</time></trkpt>
<trkpt lat="50.565132" lon="3.653547"><ele>56.3</ele><time>2025-05-25T22:33:48Z</time></trkpt>
<trkpt lat="50.564282" lon="3.653582"><ele>56.79</ele><time>2025-05-25T22:33:53Z</time></trkpt>
<trkpt lat="50.563999" lon="3.653555"><ele>56.6</ele><time>2025-05-25T22:33:58Z</time></trkpt>
<trkpt lat="50.563257" lon="3.65323"><ele>58.37</ele><time>2025-05-25T22:34:04Z</time></trkpt>
<trkpt lat="50.563064" lon="3.653102"><ele>58.83</ele><time>2025-05-25T22:34:09Z</time></trkpt>
<trkpt lat="50.563517" lon="3.656087"><ele>63.97</ele><time>2025-05-25T22:34:17Z</time></trkpt>
<trkpt lat="50.563526" lon="3.656188"><ele>63.81</ele><time>2025-05-25T22:34:25Z</time></trkpt>
<trkpt lat="50.563516" lon="3.656343"><ele>63.45</ele><time>2025-05-25T22:34:33Z</time></trkpt>
<trkpt lat="50.563491" lon="3.656431"><ele>63.28</ele><time>2025-05-25T22:34:40Z</time></trkpt>
<trkpt lat="50.563435" lon="3.656539"><ele>63.09</ele><time>2025-05-25T22:34:48Z</time></trkpt>
<trkpt lat="50.563042" lon="3.657209"><ele>65.0</ele><time>2025-05-25T22:34:56Z</time></trkpt>
<trkpt lat="50.561927" lon="3.660367"><ele>65.61</ele><time>2025-05-25T22:35:04Z</time></trkpt>
<trkpt lat="50.561769" lon="3.660767"><ele>64.37</ele><time>2025-05-25T22:35:12Z</time></trkpt>
<trkpt lat="50.5633" lon="3.662109"><ele>62.52</ele><time>2025-05-25T22:35:19Z</time></trkpt>
<trkpt lat="50.564283" lon="3.662958"><ele>62.16</ele><time>2025-05-25T22:35:27Z</time></trkpt>
<trkpt lat="50.565582" lon="3.663975"><ele>58.28</ele><time>2025-05-25T22:35:35Z</time></trkpt>
<trkpt lat="50.565636" lon="3.664095"><ele>58.87</ele><time>2025-05-25T22:35:43Z</time></trkpt>
<trkpt lat="50.565786" lon="3.665117"><ele>58.0</ele><time>2025-05-25T22:35:50Z</time></trkpt>
<trkpt lat="50.565807" lon="3.665185"><ele>58.0</ele><time>2025-05-25T22:35:58Z</time></trkpt>
<trkpt lat="50.565873" lon="3.665294"><ele>58.15</ele><time>2025-05-25T22:36:06Z</time></trkpt>
<trkpt lat="50.565986" lon="3.66539"><ele>58.77</ele><time>2025-05-25T22:36:13Z</time></trkpt>
<trkpt lat="50.565075" lon="3.668288"><ele>58.77</ele><time>2025-05-25T22:36:22Z</time></trkpt>
<trkpt lat="50.564907" lon="3.668807"><ele>58.53</ele><time>2025-05-25T22:36:30Z</time></trkpt>
<trkpt lat="50.564779" lon="3.669123"><ele>58.79</ele><time>2025-05-25T22:36:38Z</time></trkpt>
<trkpt lat="50.562918" lon="3.672406"><ele>55.0</ele><time>2025-05-25T22:36:46Z</time></trkpt>
<trkpt lat="50.562227" lon="3.673491"><ele>55.0</ele><time>2025-05-25T22:36:54Z</time></trkpt>
<trkpt lat="50.562098" lon="3.673833"><ele>56.69</ele><time>2025-05-25T22:37:02Z</time></trkpt>
<trkpt lat="50.562029" lon="3.674262"><ele>57.39</ele><time>2025-05-25T22:37:10Z</time></trkpt>
<trkpt lat="50.562032" lon="3.674604"><ele>57.37</ele><time>2025-05-25T22:37:18Z</time></trkpt>
<trkpt lat="50.562053" lon="3.674776"><ele>57.18</ele><time>2025-05-25T22:37:26Z</time></trkpt>
<trkpt lat="50.562089" lon="3.674951"><ele>56.99</ele><time>2025-05-25T22:37:35Z</time></trkpt>
<trkpt lat="50.562157" lon="3.675159"><ele>57.0</ele><time>2025-05-25T22:37:43Z</time></trkpt>
<trkpt lat="50.56266" lon="3.676454"><ele>57.23</ele><time>2025-05-25T22:37:51Z</time></trkpt>
<trkpt lat="50.562749" lon="3.67687"><ele>58.0</ele><time>2025-05-25T22:37:59Z</time></trkpt>
<trkpt lat="50.562783" lon="3.676874"><ele>58.0</ele><time>2025-05-25T22:37:59Z</time></trkpt>
<trkpt lat="50.562783" lon="3.676874"><ele>58.0</ele><time>2025-05-25T22:37:59Z</time></trkpt>
<trkpt lat="50.562902" lon="3.676887"><ele>58.0</ele><time>2025-05-25T22:38:05Z</time></trkpt>
<trkpt lat="50.564435" lon="3.678508"><ele>55.0</ele><time>2025-05-25T22:38:10Z</time></trkpt>
<trkpt lat="50.564615" lon="3.678659"><ele>55.61</ele><time>2025-05-25T22:38:15Z</time></trkpt>
<trkpt lat="50.564782" lon="3.678764"><ele>55.9</ele><time>2025-05-25T22:38:20Z</time></trkpt>
<trkpt lat="50.565352" lon="3.679021"><ele>55.27</ele><time>2025-05-25T22:38:26Z</time></trkpt>
<trkpt lat="50.567858" lon="3.68029"><ele>58.97</ele><time>2025-05-25T22:38:31Z</time></trkpt>
<trkpt lat="50.568182" lon="3.680431"><ele>58.79</ele><time>2025-05-25T22:38:36Z</time></trkpt>
<trkpt lat="50.568581" lon="3.68048"><ele>58.73</ele><time>2025-05-25T22:38:41Z</time></trkpt>
<trkpt lat="50.569704" lon="3.680357"><ele>57.26</ele><time>2025-05-25T22:38:47Z</time></trkpt>
<trkpt lat="50.570354" lon="3.680519"><ele>58.6</ele><time>2025-05-25T22:38:52Z</time></trkpt>
<trkpt lat="50.570864" lon="3.680692"><ele>57.0</ele><time>2025-05-25T22:38:57Z</time></trkpt>
<trkpt lat="50.57247" lon="3.68143"><ele>54.87</ele><time>2025-05-25T22:39:02Z</time></trkpt>
<trkpt lat="50.573114" lon="3.68176"><ele>54.79</ele><time>2025-05-25T22:39:08Z</time></trkpt>
<trkpt lat="50.573295" lon="3.681884"><ele>54.14</ele><time>2025-05-25T22:39:13Z</time></trkpt>
<trkpt lat="50.573772" lon="3.682285"><ele>51.84</ele><time>2025-05-25T22:39:18Z</time></trkpt>
<trkpt lat="50.575248" lon="3.683749"><ele>51.11</ele><time>2025-05-25T22:39:23Z</time></trkpt>
<trkpt lat="50.575618" lon="3.684053"><ele>49.77</ele><time>2025-05-25T22:39:29Z</time></trkpt>
<trkpt lat="50.575993" lon="3.684265"><ele>48.63</ele><time>2025-05-25T22:39:34Z</time></trkpt>
<trkpt lat="50.57624" lon="3.684377"><ele>48.76</ele><time>2025-05-25T22:39:39Z</time></trkpt>
<trkpt lat="50.578101" lon="3.68513"><ele>50.16</ele><time>2025-05-25T22:39:44Z</time></trkpt>
<trkpt lat="50.578482" lon="3.685324"><ele>51.0</ele><time>2025-05-25T22:39:50Z</time></trkpt>
<trkpt lat="50.578952" lon="3.685608"><ele>50.0</ele><time>2025-05-25T22:39:55Z</time></trkpt>
<trkpt lat="50.580308" lon="3.686619"><ele>52.94</ele><time>2025-05-25T22:40:00Z</time></trkpt>
<trkpt lat="50.583519" lon="3.689099"><ele>53.33</ele><time>2025-05-25T22:40:05Z</time></trkpt>
<trkpt lat="50.584057" lon="3.689615"><ele>54.01</ele><time>2025-05-25T22:40:11Z</time></trkpt>
<trkpt lat="50.584698" lon="3.690367"><ele>53.03</ele><time>2025-05-25T22:40:16Z</time></trkpt>
<trkpt lat="50.584972" lon="3.690638"><ele>52.1</ele><time>2025-05-25T22:40:21Z</time></trkpt>
<trkpt lat="50.585232" lon="3.690831"><ele>52.83</ele><time>2025-05-25T22:40:26Z</time></trkpt>
<trkpt lat="50.58623" lon="3.691395"><ele>51.58</ele><time>2025-05-25T22:40:32Z</time></trkpt>
<trkpt lat="50.58662" lon="3.691554"><ele>51.1</ele><time>2025-05-25T22:40:37Z</time></trkpt>
<trkpt lat="50.587179" lon="3.691642"><ele>51.99</ele><time>2025-05-25T22:40:42Z</time></trkpt>
<trkpt lat="50.587182" lon="3.691567"><ele>50.49</ele><time>2025-05-25T22:40:43Z</time></trkpt>
<trkpt lat="50.587182" lon="3.691567"><ele>50.49</ele><time>2025-05-25T22:40:43Z</time></trkpt>
<trkpt lat="50.587179" lon="3.691642"><ele>51.99</ele><time>2025-05-25T22:40:43Z</time></trkpt>
<trkpt lat="50.588905" lon="3.691867"><ele>48.74</ele><time>2025-05-25T22:40:49Z</time></trkpt>
<trkpt lat="50.589418" lon="3.691979"><ele>49.0</ele><time>2025-05-25T22:40:56Z</time></trkpt>
<trkpt lat="50.589411" lon="3.692196"><ele>49.0</ele><time>2025-05-25T22:41:01Z</time></trkpt>
<trkpt lat="50.589446" lon="3.692299"><ele>49.0</ele><time>2025-05-25T22:41:05Z</time></trkpt>
<trkpt lat="50.590136" lon="3.693625"><ele>50.05</ele><time>2025-05-25T22:41:10Z</time></trkpt>
<trkpt lat="50.590758" lon="3.695066"><ele>49.73</ele><time>2025-05-25T22:41:15Z</time></trkpt>
<trkpt lat="50.591462" lon="3.696361"><ele>51.0</ele><time>2025-05-25T22:41:19Z</time></trkpt>
<trkpt lat="50.591654" lon="3.696626"><ele>50.15</ele><time>2025-05-25T22:41:24Z</time></trkpt>
<trkpt lat="50.591833" lon="3.696833"><ele>49.4</ele><time>2025-05-25T22:41:29Z</time></trkpt>
<trkpt lat="50.593368" lon="3.698371"><ele>49.0</ele><time>2025-05-25T22:41:34Z</time></trkpt>
<trkpt lat="50.593656" lon="3.698738"><ele>49.07</ele><time>2025-05-25T22:41:38Z</time></trkpt>
<trkpt lat="50.593886" lon="3.699149"><ele>49.06</ele><time>2025-05-25T22:41:43Z</time></trkpt>
<trkpt lat="50.595181" lon="3.701976"><ele>46.58</ele><time>2025-05-25T22:41:48Z</time></trkpt>
<trkpt lat="50.595556" lon="3.702939"><ele>46.0</ele><time>2025-05-25T22:41:53Z</time></trkpt>
<trkpt lat="50.59572" lon="3.703296"><ele>46.0</ele><time>2025-05-25T22:41:57Z</time></trkpt>
<trkpt lat="50.596903" lon="3.705425"><ele>44.32</ele><time>2025-05-25T22:42:02Z</time></trkpt>
<trkpt lat="50.596765" lon="3.70547"><ele>43.66</ele><time>2025-05-25T22:42:06Z</time></trkpt>
<trkpt lat="50.596705" lon="3.705525"><ele>43.25</ele><time>2025-05-25T22:42:09Z</time></trkpt>
<trkpt lat="50.596646" lon="3.705612"><ele>43.0</ele><time>2025-05-25T22:42:13Z</time></trkpt>
<trkpt lat="50.596596" lon="3.705744"><ele>43.0</ele><time>2025-05-25T22:42:16Z</time></trkpt>
<trkpt lat="50.596568" lon="3.705934"><ele>43.13</ele><time>2025-05-25T22:42:20Z</time></trkpt>
<trkpt lat="50.596362" lon="3.708131"><ele>43.0</ele><time>2025-05-25T22:42:23Z</time></trkpt>
<trkpt lat="50.596302" lon="3.708362"><ele>43.0</ele><time>2025-05-25T22:42:27Z</time></trkpt>
<trkpt lat="50.59625" lon="3.708499"><ele>43.0</ele><time>2025-05-25T22:42:30Z</time></trkpt>
<trkpt lat="50.596173" lon="3.708653"><ele>43.15</ele><time>2025-05-25T22:42:34Z</time></trkpt>
<trkpt lat="50.594047" lon="3.711932"><ele>43.43</ele><time>2025-05-25T22:42:37Z</time></trkpt>
<trkpt lat="50.593556" lon="3.712471"><ele>44.2</ele><time>2025-05-25T22:42:41Z</time></trkpt>
<trkpt lat="50.593524" lon="3.712536"><ele>44.18</ele><time>2025-05-25T22:42:44Z</time></trkpt>
<trkpt lat="50.593502" lon="3.712747"><ele>43.5</ele><time>2025-05-25T22:42:48Z</time></trkpt>
<trkpt lat="50.5935" lon="3.713926"><ele>42.6</ele><time>2025-05-25T22:42:51Z</time></trkpt>
<trkpt lat="50.593442" lon="3.714697"><ele>42.39</ele><time>2025-05-25T22:42:55Z</time></trkpt>
<trkpt lat="50.593402" lon="3.71567"><ele>45.31</ele><time>2025-05-25T22:42:58Z</time></trkpt>
<trkpt lat="50.593341" lon="3.716084"><ele>46.87</ele><time>2025-05-25T22:43:02Z</time></trkpt>
<trkpt lat="50.593299" lon="3.716218"><ele>47.12</ele><time>2025-05-25T22:43:05Z</time></trkpt>
<trkpt lat="50.59216" lon="3.719019"><ele>52.77</ele><time>2025-05-25T22:43:09Z</time></trkpt>
<trkpt lat="50.592072" lon="3.719393"><ele>52.9</ele><time>2025-05-25T22:43:13Z</time></trkpt>
<trkpt lat="50.592051" lon="3.719674"><ele>53.0</ele><time>2025-05-25T22:43:16Z</time></trkpt>
<trkpt lat="50.592055" lon="3.719836"><ele>53.0</ele><time>2025-05-25T22:43:20Z</time></trkpt>
<trkpt lat="50.592148" lon="3.720859"><ele>53.76</ele><time>2025-05-25T22:43:23Z</time></trkpt>
<trkpt lat="50.592145" lon="3.721202"><ele>54.0</ele><time>2025-05-25T22:43:27Z</time></trkpt>
<trkpt lat="50.592112" lon="3.721737"><ele>53.6</ele><time>2025-05-25T22:43:30Z</time></trkpt>
<trkpt lat="50.592101" lon="3.722189"><ele>52.68</ele><time>2025-05-25T22:43:34Z</time></trkpt>
<trkpt lat="50.59213" lon="3.722744"><ele>52.38</ele><time>2025-05-25T22:43:37Z</time></trkpt>
<trkpt lat="50.592212" lon="3.723284"><ele>52.96</ele><time>2025-05-25T22:43:41Z</time></trkpt>
<trkpt lat="50.592312" lon="3.723701"><ele>53.22</ele><time>2025-05-25T22:43:44Z</time></trkpt>
<trkpt lat="50.593052" lon="3.726074"><ele>54.13</ele><time>2025-05-25T22:43:48Z</time></trkpt>
<trkpt lat="50.593334" lon="3.727056"><ele>55.4</ele><time>2025-05-25T22:43:51Z</time></trkpt>
<trkpt lat="50.593389" lon="3.727418"><ele>56.2</ele><time>2025-05-25T22:43:55Z</time></trkpt>
<trkpt lat="50.5934" lon="3.727633"><ele>56.24</ele><time>2025-05-25T22:43:58Z</time></trkpt>
<trkpt lat="50.593407" lon="3.727812"><ele>56.26</ele><time>2025-05-25T22:44:02Z</time></trkpt>
<trkpt lat="50.593385" lon="3.728082"><ele>56.09</ele><time>2025-05-25T22:44:05Z</time></trkpt>
<trkpt lat="50.59331" lon="3.729477"><ele>55.92</ele><time>2025-05-25T22:44:09Z</time></trkpt>
<trkpt lat="50.593296" lon="3.730579"><ele>56.86</ele><time>2025-05-25T22:44:13Z</time></trkpt>
<trkpt lat="50.59331" lon="3.731685"><ele>57.92</ele><time>2025-05-25T22:44:16Z</time></trkpt>
<trkpt lat="50.593422" lon="3.736386"><ele>58.96</ele><time>2025-05-25T22:44:20Z</time></trkpt>
<trkpt lat="50.593184" lon="3.737312"><ele>60.1</ele><time>2025-05-25T22:44:23Z</time></trkpt>
<trkpt lat="50.592959" lon="3.73861"><ele>60.0</ele><time>2025-05-25T22:44:27Z</time></trkpt>
<trkpt lat="50.592945" lon="3.738889"><ele>60.0</ele><time>2025-05-25T22:44:30Z</time></trkpt>
<trkpt lat="50.593081" lon="3.73955"><ele>59.0</ele><time>2025-05-25T22:44:34Z</time></trkpt>
<trkpt lat="50.593057" lon="3.739855"><ele>58.99</ele><time>2025-05-25T22:44:37Z</time></trkpt>
<trkpt lat="50.59303" lon="3.739975"><ele>59.09</ele><time>2025-05-25T22:44:41Z</time></trkpt>
<trkpt lat="50.592621" lon="3.741177"><ele>58.13</ele><time>2025-05-25T22:44:44Z</time></trkpt>
<trkpt lat="50.592399" lon="3.741883"><ele>58.0</ele><time>2025-05-25T22:44:48Z</time></trkpt>
<trkpt lat="50.591816" lon="3.743896"><ele>56.0</ele><time>2025-05-25T22:44:51Z</time></trkpt>
<trkpt lat="50.591775" lon="3.74432"><ele>55.88</ele><time>2025-05-25T22:44:55Z</time></trkpt>
<trkpt lat="50.591752" lon="3.745298"><ele>56.05</ele><time>2025-05-25T22:44:58Z</time></trkpt>
<trkpt lat="50.591719" lon="3.74556"><ele>56.81</ele><time>2025-05-25T22:45:02Z</time></trkpt>
<trkpt lat="50.59146" lon="3.746781"><ele>57.15</ele><time>2025-05-25T22:45:05Z</time></trkpt>
<trkpt lat="50.591428" lon="3.747041"><ele>58.56</ele><time>2025-05-25T22:45:09Z</time></trkpt>
<trkpt lat="50.591447" lon="3.747346"><ele>59.79</ele><time>2025-05-25T22:45:12Z</time></trkpt>
<trkpt lat="50.591476" lon="3.74746"><ele>59.69</ele><time>2025-05-25T22:45:16Z</time></trkpt>
<trkpt lat="50.591534" lon="3.747587"><ele>59.79</ele><time>2025-05-25T22:45:20Z</time></trkpt>
<trkpt lat="50.591609" lon="3.747682"><ele>59.86</ele><time>2025-05-25T22:45:23Z</time></trkpt>
<trkpt lat="50.593067" lon="3.748908"><ele>60.03</ele><time>2025-05-25T22:45:27Z</time></trkpt>
<trkpt lat="50.593259" lon="3.749096"><ele>60.01</ele><time>2025-05-25T22:45:30Z</time></trkpt>
<trkpt lat="50.593414" lon="3.749285"><ele>60.85</ele><time>2025-05-25T22:45:34Z</time></trkpt>
<trkpt lat="50.594106" lon="3.750369"><ele>61.96</ele><time>2025-05-25T22:45:37Z</time></trkpt>
<trkpt lat="50.594624" lon="3.751078"><ele>60.59</ele><time>2025-05-25T22:45:41Z</time></trkpt>
<trkpt lat="50.594275" lon="3.751826"><ele>64.61</ele><time>2025-05-25T22:45:48Z</time></trkpt>
<trkpt lat="50.593573" lon="3.753336"><ele>61.0</ele><time>2025-05-25T22:45:55Z</time></trkpt>
<trkpt lat="50.593366" lon="3.753818"><ele>61.0</ele><time>2025-05-25T22:46:03Z</time></trkpt>
<trkpt lat="50.593395" lon="3.754276"><ele>60.61</ele><time>2025-05-25T22:46:08Z</time></trkpt>
<trkpt lat="50.593373" lon="3.754535"><ele>60.0</ele><time>2025-05-25T22:46:14Z</time></trkpt>
<trkpt lat="50.592973" lon="3.75558"><ele>59.3</ele><time>2025-05-25T22:46:19Z</time></trkpt>
<trkpt lat="50.592821" lon="3.756147"><ele>59.73</ele><time>2025-05-25T22:46:25Z</time></trkpt>
<trkpt lat="50.592343" lon="3.75825"><ele>54.7</ele><time>2025-05-25T22:46:30Z</time></trkpt>
<trkpt lat="50.592296" lon="3.758638"><ele>56.1</ele><time>2025-05-25T22:46:36Z</time></trkpt>
<trkpt lat="50.592355" lon="3.759043"><ele>56.73</ele><time>2025-05-25T22:46:41Z</time></trkpt>
<trkpt lat="50.592377" lon="3.759405"><ele>55.59</ele><time>2025-05-25T22:46:47Z</time></trkpt>
<trkpt lat="50.592385" lon="3.761026"><ele>54.41</ele><time>2025-05-25T22:46:52Z</time></trkpt>
<trkpt lat="50.59233" lon="3.762303"><ele>55.0</ele><time>2025-05-25T22:46:58Z</time></trkpt>
<trkpt lat="50.59237" lon="3.762873"><ele>55.0</ele><time>2025-05-25T22:47:03Z</time></trkpt>
<trkpt lat="50.592536" lon="3.763927"><ele>52.87</ele><time>2025-05-25T22:47:09Z</time></trkpt>
<trkpt lat="50.592566" lon="3.764337"><ele>53.38</ele><time>2025-05-25T22:47:14Z</time></trkpt>
<trkpt lat="50.592551" lon="3.764756"><ele>54.76</ele><time>2025-05-25T22:47:20Z</time></trkpt>
<trkpt lat="50.592351" lon="3.766699"><ele>57.61</ele><time>2025-05-25T22:47:25Z</time></trkpt>
<trkpt lat="50.591642" lon="3.773369"><ele>63.0</ele><time>2025-05-25T22:47:31Z</time></trkpt>
<trkpt lat="50.591531" lon="3.774135"><ele>62.0</ele><time>2025-05-25T22:47:36Z</time></trkpt>
<trkpt lat="50.591246" lon="3.776391"><ele>59.01</ele><time>2025-05-25T22:47:42Z</time></trkpt>
<trkpt lat="50.591149" lon="3.776909"><ele>60.0</ele><time>2025-05-25T22:47:47Z</time></trkpt>
<trkpt lat="50.590973" lon="3.777655"><ele>59.22</ele><time>2025-05-25T22:47:53Z</time></trkpt>
<trkpt lat="50.590144" lon="3.78094"><ele>54.33</ele><time>2025-05-25T22:47:58Z</time></trkpt>
<trkpt lat="50.589935" lon="3.781659"><ele>50.05</ele><time>2025-05-25T22:48:04Z</time></trkpt>
<trkpt lat="50.589739" lon="3.782214"><ele>49.03</ele><time>2025-05-25T22:48:09Z</time></trkpt>
<trkpt lat="50.589231" lon="3.783199"><ele>47.72</ele><time>2025-05-25T22:48:15Z</time></trkpt>
<trkpt lat="50.58867" lon="3.7841"><ele>45.0</ele><time>2025-05-25T22:48:20Z</time></trkpt>
<trkpt lat="50.588351" lon="3.784657"><ele>45.0</ele><time>2025-05-25T22:48:26Z</time></trkpt>
<trkpt lat="50.588259" lon="3.784857"><ele>43.98</ele><time>2025-05-25T22:48:31Z</time></trkpt>
<trkpt lat="50.588202" lon="3.785048"><ele>42.97</ele><time>2025-05-25T22:48:37Z</time></trkpt>
<trkpt lat="50.588047" lon="3.786103"><ele>41.97</ele><time>2025-05-25T22:48:42Z</time></trkpt>
<trkpt lat="50.58797" lon="3.786471"><ele>42.0</ele><time>2025-05-25T22:48:48Z</time></trkpt>
<trkpt lat="50.587823" lon="3.78698"><ele>42.11</ele><time>2025-05-25T22:48:53Z</time></trkpt>
<trkpt lat="50.587648" lon="3.78743"><ele>43.87</ele><time>2025-05-25T22:48:59Z</time></trkpt>
<trkpt lat="50.58691" lon="3.788871"><ele>46.13</ele><time>2025-05-25T22:49:04Z</time></trkpt>
<trkpt lat="50.58634" lon="3.787902"><ele>49.17</ele><time>2025-05-25T22:49:09Z</time></trkpt>
<trkpt lat="50.586127" lon="3.787613"><ele>49.91</ele><time>2025-05-25T22:49:13Z</time></trkpt>
<trkpt lat="50.585724" lon="3.787136"><ele>49.69</ele><time>2025-05-25T22:49:17Z</time></trkpt>
<trkpt lat="50.585557" lon="3.786901"><ele>49.0</ele><time>2025-05-25T22:49:22Z</time></trkpt>
<trkpt lat="50.585048" lon="3.786021"><ele>50.5</ele><time>2025-05-25T22:49:26Z</time></trkpt>
<trkpt lat="50.584983" lon="3.785871"><ele>50.26</ele><time>2025-05-25T22:49:31Z</time></trkpt>
<trkpt lat="50.584955" lon="3.785755"><ele>50.28</ele><time>2025-05-25T22:49:35Z</time></trkpt>
<trkpt lat="50.584953" lon="3.785546"><ele>50.13</ele><time>2025-05-25T22:49:39Z</time></trkpt>
<trkpt lat="50.584986" lon="3.785293"><ele>49.1</ele><time>2025-05-25T22:49:44Z</time></trkpt>
<trkpt lat="50.584985" lon="3.7852"><ele>49.05</ele><time>2025-05-25T22:49:48Z</time></trkpt>
<trkpt lat="50.584947" lon="3.785006"><ele>49.19</ele><time>2025-05-25T22:49:52Z</time></trkpt>
<trkpt lat="50.584891" lon="3.784868"><ele>49.58</ele><time>2025-05-25T22:49:57Z</time></trkpt>
<trkpt lat="50.58458" lon="3.784419"><ele>50.91</ele><time>2025-05-25T22:50:01Z</time></trkpt>
<trkpt lat="50.584355" lon="3.784173"><ele>50.02</ele><time>2025-05-25T22:50:06Z</time></trkpt>
<trkpt lat="50.583945" lon="3.783809"><ele>48.94</ele><time>2025-05-25T22:50:10Z</time></trkpt>
<trkpt lat="50.58376" lon="3.783573"><ele>49.47</ele><time>2025-05-25T22:50:14Z</time></trkpt>
<trkpt lat="50.583427" lon="3.784232"><ele>50.0</ele><time>2025-05-25T22:50:22Z</time></trkpt>
<trkpt lat="50.583392" lon="3.78433"><ele>50.0</ele><time>2025-05-25T22:50:30Z</time></trkpt>
<trkpt lat="50.583236" lon="3.785122"><ele>49.19</ele><time>2025-05-25T22:50:38Z</time></trkpt>
<trkpt lat="50.582705" lon="3.786102"><ele>49.97</ele><time>2025-05-25T22:50:47Z</time></trkpt>
<trkpt lat="50.582537" lon="3.786493"><ele>51.24</ele><time>2025-05-25T22:50:55Z</time></trkpt>
<trkpt lat="50.582403" lon="3.786964"><ele>51.96</ele><time>2025-05-25T22:51:03Z</time></trkpt>
<trkpt lat="50.582116" lon="3.788298"><ele>51.13</ele><time>2025-05-25T22:51:11Z</time></trkpt>
<trkpt lat="50.581234" lon="3.79002"><ele>53.56</ele><time>2025-05-25T22:51:19Z</time></trkpt>
<trkpt lat="50.580595" lon="3.791316"><ele>54.0</ele><time>2025-05-25T22:51:27Z</time></trkpt>
<trkpt lat="50.580122" lon="3.792075"><ele>54.3</ele><time>2025-05-25T22:51:35Z</time></trkpt>
<trkpt lat="50.579797" lon="3.792734"><ele>55.69</ele><time>2025-05-25T22:51:43Z</time></trkpt>
<trkpt lat="50.579698" lon="3.793022"><ele>56.98</ele><time>2025-05-25T22:51:51Z</time></trkpt>
<trkpt lat="50.57912" lon="3.795392"><ele>58.1</ele><time>2025-05-25T22:51:59Z</time></trkpt>
<trkpt lat="50.578134" lon="3.798194"><ele>56.28</ele><time>2025-05-25T22:52:07Z</time></trkpt>
<trkpt lat="50.578076" lon="3.798442"><ele>56.04</ele><time>2025-05-25T22:52:15Z</time></trkpt>
<trkpt lat="50.577809" lon="3.800182"><ele>55.0</ele><time>2025-05-25T22:52:23Z</time></trkpt>
<trkpt lat="50.57774" lon="3.801131"><ele>55.26</ele><time>2025-05-25T22:52:31Z</time></trkpt>
<trkpt lat="50.577691" lon="3.80162"><ele>54.22</ele><time>2025-05-25T22:52:39Z</time></trkpt>
<trkpt lat="50.577415" lon="3.803307"><ele>50.09</ele><time>2025-05-25T22:52:47Z</time></trkpt>
<trkpt lat="50.577371" lon="3.80375"><ele>50.0</ele><time>2025-05-25T22:52:55Z</time></trkpt>
<trkpt lat="50.57736" lon="3.80417"><ele>49.99</ele><time>2025-05-25T22:53:03Z</time></trkpt>
<trkpt lat="50.57737" lon="3.804953"><ele>49.91</ele><time>2025-05-25T22:53:11Z</time></trkpt>
<trkpt lat="50.577405" lon="3.806071"><ele>51.56</ele><time>2025-05-25T22:53:19Z</time></trkpt>
<trkpt lat="50.572719" lon="3.806105"><ele>51.44</ele><time>2025-05-25T22:53:43Z</time></trkpt>
<trkpt lat="50.57234" lon="3.807152"><ele>52.57</ele><time>2025-05-25T22:53:49Z</time></trkpt>
<trkpt lat="50.57225" lon="3.807348"><ele>52.1</ele><time>2025-05-25T22:53:54Z</time></trkpt>
<trkpt lat="50.572205" lon="3.807411"><ele>52.0</ele><time>2025-05-25T22:54:00Z</time></trkpt>
<trkpt lat="50.572093" lon="3.807484"><ele>52.0</ele><time>2025-05-25T22:54:05Z</time></trkpt>
<trkpt lat="50.571683" lon="3.807617"><ele>52.0</ele><time>2025-05-25T22:54:11Z</time></trkpt>
<trkpt lat="50.571538" lon="3.807721"><ele>52.37</ele><time>2025-05-25T22:54:17Z</time></trkpt>
<trkpt lat="50.571423" lon="3.807954"><ele>52.88</ele><time>2025-05-25T22:54:22Z</time></trkpt>
<trkpt lat="50.571066" lon="3.808865"><ele>52.15</ele><time>2025-05-25T22:54:28Z</time></trkpt>
<trkpt lat="50.571329" lon="3.809108"><ele>52.0</ele><time>2025-05-25T22:54:32Z</time></trkpt>
<trkpt lat="50.571784" lon="3.80962"><ele>52.42</ele><time>2025-05-25T22:54:36Z</time></trkpt>
<trkpt lat="50.572181" lon="3.810014"><ele>53.86</ele><time>2025-05-25T22:54:40Z</time></trkpt>
<trkpt lat="50.572249" lon="3.810113"><ele>53.9</ele><time>2025-05-25T22:54:44Z</time></trkpt>
<trkpt lat="50.571959" lon="3.810404"><ele>54.43</ele><time>2025-05-25T22:54:47Z</time></trkpt>
<trkpt lat="50.571278" lon="3.810947"><ele>51.99</ele><time>2025-05-25T22:54:51Z</time></trkpt>
<trkpt lat="50.570169" lon="3.81151"><ele>54.39</ele><time>2025-05-25T22:54:54Z</time></trkpt>
<trkpt lat="50.569854" lon="3.811747"><ele>54.47</ele><time>2025-05-25T22:54:57Z</time></trkpt>
<trkpt lat="50.569468" lon="3.812142"><ele>54.71</ele><time>2025-05-25T22:55:00Z</time></trkpt>
<trkpt lat="50.568959" lon="3.812745"><ele>54.09</ele><time>2025-05-25T22:55:04Z</time></trkpt>
<trkpt lat="50.568636" lon="3.813137"><ele>55.2</ele><time>2025-05-25T22:55:07Z</time></trkpt>
<trkpt lat="50.568244" lon="3.813675"><ele>55.23</ele><time>2025-05-25T22:55:10Z</time></trkpt>
<trkpt lat="50.568134" lon="3.813802"><ele>55.69</ele><time>2025-05-25T22:55:13Z</time></trkpt>
<trkpt lat="50.567352" lon="3.814485"><ele>55.61</ele><time>2025-05-25T22:55:17Z</time></trkpt>
<trkpt lat="50.567082" lon="3.814672"><ele>56.31</ele><time>2025-05-25T22:55:20Z</time></trkpt>
<trkpt lat="50.56694" lon="3.814713"><ele>55.95</ele><time>2025-05-25T22:55:23Z</time></trkpt>
<trkpt lat="50.566866" lon="3.814714"><ele>55.7</ele><time>2025-05-25T22:55:27Z</time></trkpt>
<trkpt lat="50.566602" lon="3.814643"><ele>54.76</ele><time>2025-05-25T22:55:30Z</time></trkpt>
<trkpt lat="50.566493" lon="3.814659"><ele>54.37</ele><time>2025-05-25T22:55:33Z</time></trkpt>
<trkpt lat="50.566366" lon="3.814761"><ele>54.07</ele><time>2025-05-25T22:55:36Z</time></trkpt>
<trkpt lat="50.566001" lon="3.815148"><ele>54.0</ele><time>2025-05-25T22:55:40Z</time></trkpt>
<trkpt lat="50.565881" lon="3.815331"><ele>54.03</ele><time>2025-05-25T22:55:43Z</time></trkpt>
<trkpt lat="50.565817" lon="3.815501"><ele>54.05</ele><time>2025-05-25T22:55:46Z</time></trkpt>
<trkpt lat="50.565781" lon="3.81573"><ele>54.7</ele><time>2025-05-25T22:55:50Z</time></trkpt>
<trkpt lat="50.565744" lon="3.816237"><ele>56.0</ele><time>2025-05-25T22:55:53Z</time></trkpt>
<trkpt lat="50.565675" lon="3.81652"><ele>56.47</ele><time>2025-05-25T22:55:56Z</time></trkpt>
<trkpt lat="50.565579" lon="3.816765"><ele>56.64</ele><time>2025-05-25T22:55:59Z</time></trkpt>
<trkpt lat="50.565455" lon="3.81695"><ele>55.62</ele><time>2025-05-25T22:56:03Z</time></trkpt>
<trkpt lat="50.565328" lon="3.817081"><ele>54.69</ele><time>2025-05-25T22:56:06Z</time></trkpt>
<trkpt lat="50.564824" lon="3.817498"><ele>56.63</ele><time>2025-05-25T22:56:09Z</time></trkpt>
<trkpt lat="50.564562" lon="3.817763"><ele>57.0</ele><time>2025-05-25T22:56:12Z</time></trkpt>
<trkpt lat="50.5644" lon="3.817963"><ele>57.0</ele><time>2025-05-25T22:56:16Z</time></trkpt>
<trkpt lat="50.564308" lon="3.818125"><ele>57.12</ele><time>2025-05-25T22:56:19Z</time></trkpt>
<trkpt lat="50.564244" lon="3.818373"><ele>57.72</ele><time>2025-05-25T22:56:22Z</time></trkpt>
<trkpt lat="50.564227" lon="3.818526"><ele>57.78</ele><time>2025-05-25T22:56:26Z</time></trkpt>
<trkpt lat="50.564219" lon="3.818851"><ele>58.67</ele><time>2025-05-25T22:56:29Z</time></trkpt>
<trkpt lat="50.564242" lon="3.818975"><ele>58.42</ele><time>2025-05-25T22:56:32Z</time></trkpt>
<trkpt lat="50.564484" lon="3.819316"><ele>56.25</ele><time>2025-05-25T22:56:35Z</time></trkpt>
<trkpt lat="50.564696" lon="3.819684"><ele>55.09</ele><time>2025-05-25T22:56:39Z</time></trkpt>
<trkpt lat="50.564876" lon="3.82004"><ele>55.55</ele><time>2025-05-25T22:56:42Z</time></trkpt>
<trkpt lat="50.564904" lon="3.820191"><ele>55.65</ele><time>2025-05-25T22:56:45Z</time></trkpt>
<trkpt lat="50.564906" lon="3.820309"><ele>55.58</ele><time>2025-05-25T22:56:49Z</time></trkpt>
<trkpt lat="50.564847" lon="3.820504"><ele>55.08</ele><time>2025-05-25T22:56:52Z</time></trkpt>
<trkpt lat="50.564769" lon="3.82064"><ele>54.95</ele><time>2025-05-25T22:56:55Z</time></trkpt>
<trkpt lat="50.564533" lon="3.820969"><ele>55.33</ele><time>2025-05-25T22:56:58Z</time></trkpt>
<trkpt lat="50.564471" lon="3.82109"><ele>55.83</ele><time>2025-05-25T22:57:02Z</time></trkpt>
<trkpt lat="50.564446" lon="3.821275"><ele>55.99</ele><time>2025-05-25T22:57:05Z</time></trkpt>
<trkpt lat="50.564453" lon="3.821756"><ele>56.98</ele><time>2025-05-25T22:57:08Z</time></trkpt>
<trkpt lat="50.564499" lon="3.822095"><ele>57.11</ele><time>2025-05-25T22:57:12Z</time></trkpt>
<trkpt lat="50.563422" lon="3.823168"><ele>55.19</ele><time>2025-05-25T22:57:18Z</time></trkpt>
<trkpt lat="50.563353" lon="3.823269"><ele>55.01</ele><time>2025-05-25T22:57:24Z</time></trkpt>
<trkpt lat="50.563331" lon="3.823349"><ele>55.0</ele><time>2025-05-25T22:57:30Z</time></trkpt>
<trkpt lat="50.563325" lon="3.823447"><ele>55.0</ele><time>2025-05-25T22:57:36Z</time></trkpt>
<trkpt lat="50.563557" lon="3.825525"><ele>57.0</ele><time>2025-05-25T22:57:42Z</time></trkpt>
<trkpt lat="50.563586" lon="3.825884"><ele>55.93</ele><time>2025-05-25T22:57:48Z</time></trkpt>
<trkpt lat="50.563522" lon="3.827646"><ele>55.68</ele><time>2025-05-25T22:57:54Z</time></trkpt>
<trkpt lat="50.563562" lon="3.827964"><ele>55.94</ele><time>2025-05-25T22:58:01Z</time></trkpt>
<trkpt lat="50.563964" lon="3.829924"><ele>56.19</ele><time>2025-05-25T22:58:07Z</time></trkpt>
<trkpt lat="50.564523" lon="3.832071"><ele>58.37</ele><time>2025-05-25T22:58:13Z</time></trkpt>
<trkpt lat="50.564563" lon="3.832262"><ele>57.42</ele><time>2025-05-25T22:58:19Z</time></trkpt>
<trkpt lat="50.564559" lon="3.832344"><ele>57.41</ele><time>2025-05-25T22:58:25Z</time></trkpt>
<trkpt lat="50.564498" lon="3.832449"><ele>57.19</ele><time>2025-05-25T22:58:31Z</time></trkpt>
<trkpt lat="50.563725" lon="3.833102"><ele>58.1</ele><time>2025-05-25T22:58:37Z</time></trkpt>
<trkpt lat="50.563601" lon="3.833247"><ele>58.69</ele><time>2025-05-25T22:58:44Z</time></trkpt>
<trkpt lat="50.563509" lon="3.833395"><ele>59.08</ele><time>2025-05-25T22:58:50Z</time></trkpt>
<trkpt lat="50.562287" lon="3.835679"><ele>69.02</ele><time>2025-05-25T22:58:56Z</time></trkpt>
<trkpt lat="50.561271" lon="3.837638"><ele>70.43</ele><time>2025-05-25T22:59:02Z</time></trkpt>
<trkpt lat="50.559672" lon="3.840345"><ele>69.57</ele><time>2025-05-25T22:59:08Z</time></trkpt>
<trkpt lat="50.559429" lon="3.841011"><ele>67.47</ele><time>2025-05-25T22:59:14Z</time></trkpt>
<trkpt lat="50.559296" lon="3.841248"><ele>66.39</ele><time>2025-05-25T22:59:20Z</time></trkpt>
<trkpt lat="50.558318" lon="3.84257"><ele>62.11</ele><time>2025-05-25T22:59:27Z</time></trkpt>
<trkpt lat="50.557486" lon="3.843444"><ele>65.05</ele><time>2025-05-25T22:59:33Z</time></trkpt>
<trkpt lat="50.557436" lon="3.843401"><ele>65.23</ele><time>2025-05-25T22:59:39Z</time></trkpt>
<trkpt lat="50.557355" lon="3.843424"><ele>65.52</ele><time>2025-05-25T22:59:46Z</time></trkpt>
<trkpt lat="50.557283" lon="3.843489"><ele>65.78</ele><time>2025-05-25T22:59:53Z</time></trkpt>
<trkpt lat="50.555307" lon="3.84597"><ele>68.79</ele><time>2025-05-25T22:59:59Z</time></trkpt>
<trkpt lat="50.555086" lon="3.846399"><ele>71.78</ele><time>2025-05-25T23:00:06Z</time></trkpt>
<trkpt lat="50.552158" lon="3.852566"><ele>80.94</ele><time>2025-05-25T23:00:12Z</time></trkpt>
<trkpt lat="50.551373" lon="3.854174"><ele>81.0</ele><time>2025-05-25T23:00:19Z</time></trkpt>
<trkpt lat="50.551203" lon="3.854417"><ele>81.0</ele><time>2025-05-25T23:00:26Z</time></trkpt>
<trkpt lat="50.551001" lon="3.854632"><ele>80.87</ele><time>2025-05-25T23:00:32Z</time></trkpt>
<trkpt lat="50.550694" lon="3.85484"><ele>80.92</ele><time>2025-05-25T23:00:39Z</time></trkpt>
<trkpt lat="50.548719" lon="3.855993"><ele>76.81</ele><time>2025-05-25T23:00:46Z</time></trkpt>
<trkpt lat="50.547393" lon="3.856874"><ele>77.0</ele><time>2025-05-25T23:00:52Z</time></trkpt>
<trkpt lat="50.547202" lon="3.857038"><ele>76.83</ele><time>2025-05-25T23:00:59Z</time></trkpt>
<trkpt lat="50.544506" lon="3.859795"><ele>72.0</ele><time>2025-05-25T23:01:05Z</time></trkpt>
<trkpt lat="50.544364" lon="3.859829"><ele>72.29</ele><time>2025-05-25T23:01:12Z</time></trkpt>
<trkpt lat="50.544216" lon="3.859878"><ele>72.82</ele><time>2025-05-25T23:01:13Z</time></trkpt>
<trkpt lat="50.544381" lon="3.860444"><ele>72.09</ele><time>2025-05-25T23:01:16Z</time></trkpt>
<trkpt lat="50.544591" lon="3.860979"><ele>71.72</ele><time>2025-05-25T23:01:19Z</time></trkpt>
<trkpt lat="50.544718" lon="3.861222"><ele>71.02</ele><time>2025-05-25T23:01:22Z</time></trkpt>
<trkpt lat="50.544809" lon="3.861356"><ele>71.0</ele><time>2025-05-25T23:01:25Z</time></trkpt>
<trkpt lat="50.545647" lon="3.86231"><ele>71.33</ele><time>2025-05-25T23:01:28Z</time></trkpt>
<trkpt lat="50.545735" lon="3.862431"><ele>71.65</ele><time>2025-05-25T23:01:31Z</time></trkpt>
<trkpt lat="50.546129" lon="3.863096"><ele>71.8</ele><time>2025-05-25T23:01:34Z</time></trkpt>
<trkpt lat="50.546347" lon="3.863386"><ele>71.19</ele><time>2025-05-25T23:01:37Z</time></trkpt>
<trkpt lat="50.54698" lon="3.863995"><ele>73.0</ele><time>2025-05-25T23:01:40Z</time></trkpt>
<trkpt lat="50.547167" lon="3.864276"><ele>73.08</ele><time>2025-05-25T23:01:43Z</time></trkpt>
<trkpt lat="50.54725" lon="3.864448"><ele>73.1</ele><time>2025-05-25T23:01:46Z</time></trkpt>
<trkpt lat="50.547373" lon="3.864781"><ele>73.53</ele><time>2025-05-25T23:01:49Z</time></trkpt>
<trkpt lat="50.548946" lon="3.869485"><ele>74.15</ele><time>2025-05-25T23:01:52Z</time></trkpt>
<trkpt lat="50.549177" lon="3.870308"><ele>76.92</ele><time>2025-05-25T23:01:55Z</time></trkpt>
<trkpt lat="50.549249" lon="3.870513"><ele>76.15</ele><time>2025-05-25T23:01:58Z</time></trkpt>
<trkpt lat="50.549445" lon="3.870945"><ele>72.59</ele><time>2025-05-25T23:02:01Z</time></trkpt>
<trkpt lat="50.550178" lon="3.872268"><ele>72.06</ele><time>2025-05-25T23:02:04Z</time></trkpt>
<trkpt lat="50.551865" lon="3.875812"><ele>68.57</ele><time>2025-05-25T23:02:06Z</time></trkpt>
<trkpt lat="50.552505" lon="3.877566"><ele>68.75</ele><time>2025-05-25T23:02:09Z</time></trkpt>
<trkpt lat="50.552929" lon="3.878517"><ele>67.0</ele><time>2025-05-25T23:02:12Z</time></trkpt>
<trkpt lat="50.553734" lon="3.880652"><ele>67.81</ele><time>2025-05-25T23:02:15Z</time></trkpt>
<trkpt lat="50.554077" lon="3.881523"><ele>66.52</ele><time>2025-05-25T23:02:18Z</time></trkpt>
<trkpt lat="50.55436" lon="3.882172"><ele>65.43</ele><time>2025-05-25T23:02:21Z</time></trkpt>
<trkpt lat="50.554675" lon="3.882827"><ele>63.14</ele><time>2025-05-25T23:02:24Z</time></trkpt>
<trkpt lat="50.554827" lon="3.883227"><ele>63.23</ele><time>2025-05-25T23:02:27Z</time></trkpt>
<trkpt lat="50.554992" lon="3.883793"><ele>63.92</ele><time>2025-05-25T23:02:30Z</time></trkpt>
<trkpt lat="50.555079" lon="3.884198"><ele>64.46</ele><time>2025-05-25T23:02:33Z</time></trkpt>
<trkpt lat="50.555366" lon="3.886046"><ele>60.55</ele><time>2025-05-25T23:02:36Z</time></trkpt>
<trkpt lat="50.555479" lon="3.886494"><ele>61.0</ele><time>2025-05-25T23:02:39Z</time></trkpt>
<trkpt lat="50.555635" lon="3.886921"><ele>62.28</ele><time>2025-05-25T23:02:42Z</time></trkpt>
<trkpt lat="50.555887" lon="3.88754"><ele>61.86</ele><time>2025-05-25T23:02:45Z</time></trkpt>
<trkpt lat="50.55613" lon="3.888004"><ele>60.93</ele><time>2025-05-25T23:02:48Z</time></trkpt>
<trkpt lat="50.556404" lon="3.888448"><ele>61.39</ele><time>2025-05-25T23:02:51Z</time></trkpt>
<trkpt lat="50.556685" lon="3.888834"><ele>61.8</ele><time>2025-05-25T23:02:54Z</time></trkpt>
<trkpt lat="50.556979" lon="3.88919"><ele>62.32</ele><time>2025-05-25T23:02:57Z</time></trkpt>
<trkpt lat="50.55729" lon="3.889638"><ele>64.0</ele><time>2025-05-25T23:03:00Z</time></trkpt>
<trkpt lat="50.557805" lon="3.890678"><ele>65.0</ele><time>2025-05-25T23:03:03Z</time></trkpt>
<trkpt lat="50.557868" lon="3.890834"><ele>65.0</ele><time>2025-05-25T23:03:06Z</time></trkpt>
<trkpt lat="50.557959" lon="3.89124"><ele>63.84</ele><time>2025-05-25T23:03:09Z</time></trkpt>
<trkpt lat="50.557985" lon="3.891494"><ele>63.37</ele><time>2025-05-25T23:03:12Z</time></trkpt>
<trkpt lat="50.557974" lon="3.891789"><ele>62.71</ele><time>2025-05-25T23:03:15Z</time></trkpt>
<trkpt lat="50.55784" lon="3.892711"><ele>63.76</ele><time>2025-05-25T23:03:17Z</time></trkpt>
<trkpt lat="50.557353" lon="3.895339"><ele>63.75</ele><time>2025-05-25T23:03:20Z</time></trkpt>
<trkpt lat="50.5573" lon="3.895689"><ele>64.72</ele><time>2025-05-25T23:03:23Z</time></trkpt>
<trkpt lat="50.557309" lon="3.896137"><ele>64.69</ele><time>2025-05-25T23:03:26Z</time></trkpt>
<trkpt lat="50.557395" lon="3.89657"><ele>64.13</ele><time>2025-05-25T23:03:29Z</time></trkpt>
<trkpt lat="50.557459" lon="3.896749"><ele>64.0</ele><time>2025-05-25T23:03:32Z</time></trkpt>
<trkpt lat="50.557507" lon="3.896847"><ele>64.0</ele><time>2025-05-25T23:03:35Z</time></trkpt>
<trkpt lat="50.557559" lon="3.896909"><ele>64.0</ele><time>2025-05-25T23:03:38Z</time></trkpt>
<trkpt lat="50.557547" lon="3.897058"><ele>64.41</ele><time>2025-05-25T23:03:44Z</time></trkpt>
<trkpt lat="50.557561" lon="3.897244"><ele>65.0</ele><time>2025-05-25T23:03:51Z</time></trkpt>
<trkpt lat="50.557853" lon="3.899648"><ele>65.73</ele><time>2025-05-25T23:03:57Z</time></trkpt>
<trkpt lat="50.557831" lon="3.899838"><ele>65.81</ele><time>2025-05-25T23:04:03Z</time></trkpt>
<trkpt lat="50.557863" lon="3.900085"><ele>65.69</ele><time>2025-05-25T23:04:07Z</time></trkpt>
<trkpt lat="50.557858" lon="3.901189"><ele>65.71</ele><time>2025-05-25T23:04:12Z</time></trkpt>
<trkpt lat="50.557933" lon="3.901764"><ele>65.44</ele><time>2025-05-25T23:04:16Z</time></trkpt>
<trkpt lat="50.557938" lon="3.901914"><ele>65.42</ele><time>2025-05-25T23:04:20Z</time></trkpt>
<trkpt lat="50.557707" lon="3.903876"><ele>65.21</ele><time>2025-05-25T23:04:25Z</time></trkpt>
<trkpt lat="50.557699" lon="3.903982"><ele>64.91</ele><time>2025-05-25T23:04:29Z</time></trkpt>
<trkpt lat="50.55774" lon="3.90425"><ele>64.47</ele><time>2025-05-25T23:04:33Z</time></trkpt>
<trkpt lat="50.557786" lon="3.904552"><ele>64.06</ele><time>2025-05-25T23:04:37Z</time></trkpt>
<trkpt lat="50.558236" lon="3.906922"><ele>65.35</ele><time>2025-05-25T23:04:42Z</time></trkpt>
<trkpt lat="50.558284" lon="3.907262"><ele>65.33</ele><time>2025-05-25T23:04:46Z</time></trkpt>
<trkpt lat="50.558381" lon="3.908086"><ele>65.94</ele><time>2025-05-25T23:04:50Z</time></trkpt>
<trkpt lat="50.558472" lon="3.909764"><ele>60.2</ele><time>2025-05-25T23:04:55Z</time></trkpt>
<trkpt lat="50.558493" lon="3.910035"><ele>58.52</ele><time>2025-05-25T23:04:59Z</time></trkpt>
<trkpt lat="50.558532" lon="3.91024"><ele>58.47</ele><time>2025-05-25T23:05:03Z</time></trkpt>
<trkpt lat="50.558626" lon="3.910497"><ele>58.35</ele><time>2025-05-25T23:05:07Z</time></trkpt>
<trkpt lat="50.558797" lon="3.910749"><ele>60.01</ele><time>2025-05-25T23:05:12Z</time></trkpt>
<trkpt lat="50.559415" lon="3.911323"><ele>64.37</ele><time>2025-05-25T23:05:16Z</time></trkpt>
<trkpt lat="50.559811" lon="3.911928"><ele>61.36</ele><time>2025-05-25T23:05:20Z</time></trkpt>
<trkpt lat="50.559995" lon="3.912289"><ele>60.98</ele><time>2025-05-25T23:05:25Z</time></trkpt>
<trkpt lat="50.560221" lon="3.912892"><ele>62.79</ele><time>2025-05-25T23:05:29Z</time></trkpt>
<trkpt lat="50.561361" lon="3.916504"><ele>63.06</ele><time>2025-05-25T23:05:33Z</time></trkpt>
<trkpt lat="50.561707" lon="3.917871"><ele>62.52</ele><time>2025-05-25T23:05:37Z</time></trkpt>
<trkpt lat="50.561835" lon="3.918531"><ele>59.11</ele><time>2025-05-25T23:05:42Z</time></trkpt>
<trkpt lat="50.561928" lon="3.919216"><ele>58.0</ele><time>2025-05-25T23:05:46Z</time></trkpt>
<trkpt lat="50.562026" lon="3.920397"><ele>56.87</ele><time>2025-05-25T23:05:50Z</time></trkpt>
<trkpt lat="50.562039" lon="3.921857"><ele>55.68</ele><time>2025-05-25T23:05:55Z</time></trkpt>
<trkpt lat="50.562106" lon="3.922682"><ele>56.96</ele><time>2025-05-25T23:05:59Z</time></trkpt>
<trkpt lat="50.562232" lon="3.923351"><ele>60.13</ele><time>2025-05-25T23:06:03Z</time></trkpt>
<trkpt lat="50.562499" lon="3.924247"><ele>63.71</ele><time>2025-05-25T23:06:07Z</time></trkpt>
<trkpt lat="50.562559" lon="3.924529"><ele>63.43</ele><time>2025-05-25T23:06:12Z</time></trkpt>
<trkpt lat="50.562574" lon="3.924815"><ele>63.87</ele><time>2025-05-25T23:06:16Z</time></trkpt>
<trkpt lat="50.562563" lon="3.925656"><ele>66.59</ele><time>2025-05-25T23:06:20Z</time></trkpt>
<trkpt lat="50.562548" lon="3.926874"><ele>69.17</ele><time>2025-05-25T23:06:25Z</time></trkpt>
<trkpt lat="50.562564" lon="3.927442"><ele>70.23</ele><time>2025-05-25T23:06:29Z</time></trkpt>
<trkpt lat="50.562613" lon="3.928147"><ele>69.07</ele><time>2025-05-25T23:06:33Z</time></trkpt>
<trkpt lat="50.563105" lon="3.930379"><ele>69.81</ele><time>2025-05-25T23:06:37Z</time></trkpt>
<trkpt lat="50.563452" lon="3.932113"><ele>72.61</ele><time>2025-05-25T23:06:42Z</time></trkpt>
<trkpt lat="50.56376" lon="3.933319"><ele>71.13</ele><time>2025-05-25T23:06:46Z</time></trkpt>
<trkpt lat="50.563837" lon="3.933722"><ele>72.03</ele><time>2025-05-25T23:06:50Z</time></trkpt>
<trkpt lat="50.563904" lon="3.934393"><ele>72.17</ele><time>2025-05-25T23:06:55Z</time></trkpt>
<trkpt lat="50.563917" lon="3.934707"><ele>72.0</ele><time>2025-05-25T23:06:59Z</time></trkpt>
<trkpt lat="50.563778" lon="3.936668"><ele>73.4</ele><time>2025-05-25T23:07:03Z</time></trkpt>
<trkpt lat="50.563755" lon="3.937407"><ele>74.0</ele><time>2025-05-25T23:07:07Z</time></trkpt>
<trkpt lat="50.563776" lon="3.938315"><ele>74.0</ele><time>2025-05-25T23:07:12Z</time></trkpt>
<trkpt lat="50.563795" lon="3.938852"><ele>74.86</ele><time>2025-05-25T23:07:16Z</time></trkpt>
<trkpt lat="50.56388" lon="3.939623"><ele>74.97</ele><time>2025-05-25T23:07:20Z</time></trkpt>
<trkpt lat="50.564016" lon="3.940629"><ele>75.66</ele><time>2025-05-25T23:07:25Z</time></trkpt>
<trkpt lat="50.56411" lon="3.942213"><ele>78.76</ele><time>2025-05-25T23:07:29Z</time></trkpt>
<trkpt lat="50.564165" lon="3.943208"><ele>77.45</ele><time>2025-05-25T23:07:33Z</time></trkpt>
<trkpt lat="50.564277" lon="3.944086"><ele>76.28</ele><time>2025-05-25T23:07:37Z</time></trkpt>
<trkpt lat="50.563972" lon="3.944217"><ele>76.05</ele><time>2025-05-25T23:07:42Z</time></trkpt>
<trkpt lat="50.563861" lon="3.944242"><ele>75.97</ele><time>2025-05-25T23:07:46Z</time></trkpt>
<trkpt lat="50.563479" lon="3.944172"><ele>75.5</ele><time>2025-05-25T23:07:51Z</time></trkpt>
<trkpt lat="50.563184" lon="3.944261"><ele>72.51</ele><time>2025-05-25T23:07:56Z</time></trkpt>
<trkpt lat="50.562895" lon="3.944421"><ele>69.46</ele><time>2025-05-25T23:08:00Z</time></trkpt>
<trkpt lat="50.56275" lon="3.944593"><ele>69.3</ele><time>2025-05-25T23:08:05Z</time></trkpt>
<trkpt lat="50.562697" lon="3.944818"><ele>70.22</ele><time>2025-05-25T23:08:09Z</time></trkpt>
<trkpt lat="50.562548" lon="3.945761"><ele>72.83</ele><time>2025-05-25T23:08:14Z</time></trkpt>
<trkpt lat="50.562139" lon="3.949378"><ele>74.0</ele><time>2025-05-25T23:08:18Z</time></trkpt>
<trkpt lat="50.561391" lon="3.953834"><ele>78.8</ele><time>2025-05-25T23:08:23Z</time></trkpt>
<trkpt lat="50.561343" lon="3.954265"><ele>80.52</ele><time>2025-05-25T23:08:27Z</time></trkpt>
<trkpt lat="50.561292" lon="3.955274"><ele>81.0</ele><time>2025-05-25T23:08:32Z</time></trkpt>
<trkpt lat="50.561313" lon="3.955961"><ele>81.85</ele><time>2025-05-25T23:08:36Z</time></trkpt>
<trkpt lat="50.561386" lon="3.956728"><ele>81.0</ele><time>2025-05-25T23:08:41Z</time></trkpt>
<trkpt lat="50.561511" lon="3.957556"><ele>81.76</ele><time>2025-05-25T23:08:45Z</time></trkpt>
<trkpt lat="50.561549" lon="3.957917"><ele>82.71</ele><time>2025-05-25T23:08:50Z</time></trkpt>
<trkpt lat="50.561568" lon="3.958383"><ele>84.11</ele><time>2025-05-25T23:08:54Z</time></trkpt>
<trkpt lat="50.561664" lon="3.964004"><ele>88.6</ele><time>2025-05-25T23:08:59Z</time></trkpt>
<trkpt lat="50.561962" lon="3.969345"><ele>89.64</ele><time>2025-05-25T23:09:03Z</time></trkpt>
<trkpt lat="50.562002" lon="3.969845"><ele>90.0</ele><time>2025-05-25T23:09:08Z</time></trkpt>
<trkpt lat="50.562065" lon="3.970304"><ele>89.9</ele><time>2025-05-25T23:09:12Z</time></trkpt>
<trkpt lat="50.562365" lon="3.971947"><ele>87.51</ele><time>2025-05-25T23:09:17Z</time></trkpt>
<trkpt lat="50.562428" lon="3.972235"><ele>87.48</ele><time>2025-05-25T23:09:21Z</time></trkpt>
<trkpt lat="50.562517" lon="3.972504"><ele>88.0</ele><time>2025-05-25T23:09:26Z</time></trkpt>
<trkpt lat="50.561878" lon="3.973033"><ele>86.76</ele><time>2025-05-25T23:09:36Z</time></trkpt>
<trkpt lat="50.56175" lon="3.973166"><ele>86.3</ele><time>2025-05-25T23:09:45Z</time></trkpt>
<trkpt lat="50.561634" lon="3.973334"><ele>86.11</ele><time>2025-05-25T23:09:54Z</time></trkpt>
<trkpt lat="50.561234" lon="3.974149"><ele>87.5</ele><time>2025-05-25T23:10:04Z</time></trkpt>
<trkpt lat="50.560337" lon="3.975898"><ele>91.0</ele><time>2025-05-25T23:10:13Z</time></trkpt>
<trkpt lat="50.559751" lon="3.977111"><ele>95.0</ele><time>2025-05-25T23:10:23Z</time></trkpt>
<trkpt lat="50.559655" lon="3.977476"><ele>96.69</ele><time>2025-05-25T23:10:32Z</time></trkpt>
<trkpt lat="50.559391" lon="3.978666"><ele>97.93</ele><time>2025-05-25T23:10:42Z</time></trkpt>
<trkpt lat="50.559253" lon="3.979107"><ele>96.93</ele><time>2025-05-25T23:10:51Z</time></trkpt>
<trkpt lat="50.558495" lon="3.981133"><ele>95.42</ele><time>2025-05-25T23:11:01Z</time></trkpt>
<trkpt lat="50.556589" lon="3.980179"><ele>95.0</ele><time>2025-05-25T23:11:14Z</time></trkpt>
<trkpt lat="50.555034" lon="3.979319"><ele>94.36</ele><time>2025-05-25T23:11:27Z</time></trkpt>
<trkpt lat="50.553125" lon="3.985534"><ele>94.33</ele><time>2025-05-25T23:11:31Z</time></trkpt>
<trkpt lat="50.552779" lon="3.987171"><ele>94.82</ele><time>2025-05-25T23:11:36Z</time></trkpt>
<trkpt lat="50.552497" lon="3.988297"><ele>94.15</ele><time>2025-05-25T23:11:41Z</time></trkpt>
<trkpt lat="50.552282" lon="3.989052"><ele>95.11</ele><time>2025-05-25T23:11:46Z</time></trkpt>
<trkpt lat="50.55199" lon="3.989902"><ele>93.81</ele><time>2025-05-25T23:11:50Z</time></trkpt>
<trkpt lat="50.551847" lon="3.990383"><ele>93.43</ele><time>2025-05-25T23:11:55Z</time></trkpt>
<trkpt lat="50.551779" lon="3.990864"><ele>93.36</ele><time>2025-05-25T23:12:00Z</time></trkpt>
<trkpt lat="50.551738" lon="3.991599"><ele>92.8</ele><time>2025-05-25T23:12:04Z</time></trkpt>
<trkpt lat="50.55173" lon="3.992129"><ele>91.88</ele><time>2025-05-25T23:12:09Z</time></trkpt>
<trkpt lat="50.551783" lon="3.992625"><ele>90.9</ele><time>2025-05-25T23:12:14Z</time></trkpt>
<trkpt lat="50.552011" lon="3.993889"><ele>90.0</ele><time>2025-05-25T23:12:18Z</time></trkpt>
<trkpt lat="50.552363" lon="3.995284"><ele>90.0</ele><time>2025-05-25T23:12:23Z</time></trkpt>
<trkpt lat="50.55264" lon="3.997002"><ele>88.79</ele><time>2025-05-25T23:12:28Z</time></trkpt>
<trkpt lat="50.552816" lon="3.997511"><ele>87.99</ele><time>2025-05-25T23:12:33Z</time></trkpt>
<trkpt lat="50.553276" lon="3.998697"><ele>88.1</ele><time>2025-05-25T23:12:37Z</time></trkpt>
<trkpt lat="50.553333" lon="3.998878"><ele>88.96</ele><time>2025-05-25T23:12:42Z</time></trkpt>
<trkpt lat="50.553022" lon="3.999404"><ele>87.13</ele><time>2025-05-25T23:12:47Z</time></trkpt>
<trkpt lat="50.552906" lon="3.999717"><ele>87.0</ele><time>2025-05-25T23:12:51Z</time></trkpt>
<trkpt lat="50.552855" lon="3.999979"><ele>86.33</ele><time>2025-05-25T23:12:56Z</time></trkpt>
<trkpt lat="50.5527" lon="4.001372"><ele>85.72</ele><time>2025-05-25T23:13:01Z</time></trkpt>
<trkpt lat="50.552665" lon="4.001553"><ele>85.59</ele><time>2025-05-25T23:13:05Z</time></trkpt>
<trkpt lat="50.55288" lon="4.001834"><ele>85.99</ele><time>2025-05-25T23:13:10Z</time></trkpt>
<trkpt lat="50.552314" lon="4.003026"><ele>83.96</ele><time>2025-05-25T23:13:15Z</time></trkpt>
<trkpt lat="50.552238" lon="4.003363"><ele>85.06</ele><time>2025-05-25T23:13:20Z</time></trkpt>
<trkpt lat="50.552069" lon="4.005558"><ele>86.0</ele><time>2025-05-25T23:13:24Z</time></trkpt>
<trkpt lat="50.551969" lon="4.006168"><ele>85.93</ele><time>2025-05-25T23:13:29Z</time></trkpt>
<trkpt lat="50.551815" lon="4.006871"><ele>87.0</ele><time>2025-05-25T23:13:34Z</time></trkpt>
<trkpt lat="50.551594" lon="4.006869"><ele>87.0</ele><time>2025-05-25T23:13:38Z</time></trkpt>
<trkpt lat="50.551091" lon="4.006931"><ele>87.07</ele><time>2025-05-25T23:13:43Z</time></trkpt>
<trkpt lat="50.551551" lon="4.008379"><ele>88.58</ele><time>2025-05-25T23:13:48Z</time></trkpt>
<trkpt lat="50.551669" lon="4.008796"><ele>88.34</ele><time>2025-05-25T23:13:52Z</time></trkpt>
<trkpt lat="50.551689" lon="4.008913"><ele>88.07</ele><time>2025-05-25T23:13:57Z</time></trkpt>
<trkpt lat="50.551688" lon="4.00903"><ele>88.04</ele><time>2025-05-25T23:14:01Z</time></trkpt>
<trkpt lat="50.551642" lon="4.009195"><ele>87.81</ele><time>2025-05-25T23:14:06Z</time></trkpt>
<trkpt lat="50.551242" lon="4.009937"><ele>88.18</ele><time>2025-05-25T23:14:11Z</time></trkpt>
<trkpt lat="50.550783" lon="4.010685"><ele>89.0</ele><time>2025-05-25T23:14:15Z</time></trkpt>
<trkpt lat="50.550471" lon="4.011103"><ele>90.28</ele><time>2025-05-25T23:14:20Z</time></trkpt>
<trkpt lat="50.55011" lon="4.011435"><ele>91.6</ele><time>2025-05-25T23:14:24Z</time></trkpt>
<trkpt lat="50.549851" lon="4.011619"><ele>92.09</ele><time>2025-05-25T23:14:29Z</time></trkpt>
<trkpt lat="50.54972" lon="4.011738"><ele>92.0</ele><time>2025-05-25T23:14:34Z</time></trkpt>
<trkpt lat="50.549139" lon="4.012549"><ele>91.18</ele><time>2025-05-25T23:14:38Z</time></trkpt>
<trkpt lat="50.548754" lon="4.013174"><ele>93.19</ele><time>2025-05-25T23:14:43Z</time></trkpt>
<trkpt lat="50.548623" lon="4.013591"><ele>93.96</ele><time>2025-05-25T23:14:47Z</time></trkpt>
<trkpt lat="50.548561" lon="4.013934"><ele>94.18</ele><time>2025-05-25T23:14:52Z</time></trkpt>
<trkpt lat="50.548367" lon="4.015342"><ele>92.77</ele><time>2025-05-25T23:14:56Z</time></trkpt>
<trkpt lat="50.548239" lon="4.015777"><ele>92.0</ele><time>2025-05-25T23:15:01Z</time></trkpt>
<trkpt lat="50.548132" lon="4.015936"><ele>91.9</ele><time>2025-05-25T23:15:06Z</time></trkpt>
<trkpt lat="50.546863" lon="4.017259"><ele>95.71</ele><time>2025-05-25T23:15:10Z</time></trkpt>
<trkpt lat="50.54607" lon="4.018115"><ele>94.21</ele><time>2025-05-25T23:15:15Z</time></trkpt>
<trkpt lat="50.545751" lon="4.018345"><ele>95.04</ele><time>2025-05-25T23:15:19Z</time></trkpt>
<trkpt lat="50.544765" lon="4.018878"><ele>95.99</ele><time>2025-05-25T23:15:24Z</time></trkpt>
<trkpt lat="50.544632" lon="4.018901"><ele>96.32</ele><time>2025-05-25T23:15:28Z</time></trkpt>
<trkpt lat="50.544491" lon="4.01887"><ele>96.83</ele><time>2025-05-25T23:15:33Z</time></trkpt>
<trkpt lat="50.544414" lon="4.01881"><ele>97.0</ele><time>2025-05-25T23:15:38Z</time></trkpt>
<trkpt lat="50.544174" lon="4.018456"><ele>97.0</ele><time>2025-05-25T23:15:42Z</time></trkpt>
<trkpt lat="50.544102" lon="4.018397"><ele>97.23</ele><time>2025-05-25T23:15:47Z</time></trkpt>
<trkpt lat="50.544" lon="4.018393"><ele>97.6</ele><time>2025-05-25T23:15:51Z</time></trkpt>
<trkpt lat="50.541378" lon="4.01962"><ele>100.08</ele><time>2025-05-25T23:15:56Z</time></trkpt>
<trkpt lat="50.540341" lon="4.020131"><ele>101.54</ele><time>2025-05-25T23:16:00Z</time></trkpt>
<trkpt lat="50.540197" lon="4.02023"><ele>102.29</ele><time>2025-05-25T23:16:05Z</time></trkpt>
<trkpt lat="50.540077" lon="4.02037"><ele>103.06</ele><time>2025-05-25T23:16:10Z</time></trkpt>
<trkpt lat="50.539903" lon="4.020624"><ele>104.08</ele><time>2025-05-25T23:16:14Z</time></trkpt>
<trkpt lat="50.539394" lon="4.021409"><ele>106.72</ele><time>2025-05-25T23:16:19Z</time></trkpt>
<trkpt lat="50.539152" lon="4.021678"><ele>107.22</ele><time>2025-05-25T23:16:23Z</time></trkpt>
<trkpt lat="50.535099" lon="4.025387"><ele>107.64</ele><time>2025-05-25T23:16:28Z</time></trkpt>
<trkpt lat="50.534259" lon="4.026417"><ele>105.5</ele><time>2025-05-25T23:16:33Z</time></trkpt>
<trkpt lat="50.533352" lon="4.027452"><ele>103.99</ele><time>2025-05-25T23:16:37Z</time></trkpt>
<trkpt lat="50.532296" lon="4.028765"><ele>100.12</ele><time>2025-05-25T23:16:42Z</time></trkpt>
<trkpt lat="50.530853" lon="4.030175"><ele>96.07</ele><time>2025-05-25T23:16:46Z</time></trkpt>
<trkpt lat="50.530718" lon="4.03028"><ele>95.59</ele><time>2025-05-25T23:16:51Z</time></trkpt>
<trkpt lat="50.530404" lon="4.030431"><ele>95.8</ele><time>2025-05-25T23:16:55Z</time></trkpt>
<trkpt lat="50.530209" lon="4.030449"><ele>95.66</ele><time>2025-05-25T23:17:00Z</time></trkpt>
<trkpt lat="50.530149" lon="4.03041"><ele>95.29</ele><time>2025-05-25T23:17:03Z</time></trkpt>
<trkpt lat="50.530085" lon="4.030404"><ele>94.93</ele><time>2025-05-25T23:17:06Z</time></trkpt>
<trkpt lat="50.530022" lon="4.030432"><ele>94.67</ele><time>2025-05-25T23:17:10Z</time></trkpt>
<trkpt lat="50.529969" lon="4.030492"><ele>94.77</ele><time>2025-05-25T23:17:13Z</time></trkpt>
<trkpt lat="50.529932" lon="4.030575"><ele>95.0</ele><time>2025-05-25T23:17:16Z</time></trkpt>
<trkpt lat="50.529914" lon="4.030673"><ele>95.0</ele><time>2025-05-25T23:17:19Z</time></trkpt>
<trkpt lat="50.529918" lon="4.030775"><ele>95.0</ele><time>2025-05-25T23:17:22Z</time></trkpt>
<trkpt lat="50.529913" lon="4.030881"><ele>94.83</ele><time>2025-05-25T23:17:25Z</time></trkpt>
<trkpt lat="50.529889" lon="4.030985"><ele>94.45</ele><time>2025-05-25T23:17:29Z</time></trkpt>
<trkpt lat="50.529833" lon="4.031103"><ele>94.03</ele><time>2025-05-25T23:17:32Z</time></trkpt>
<trkpt lat="50.528331" lon="4.032184"><ele>93.0</ele><time>2025-05-25T23:17:35Z</time></trkpt>
<trkpt lat="50.527882" lon="4.032541"><ele>93.53</ele><time>2025-05-25T23:17:38Z</time></trkpt>
<trkpt lat="50.527401" lon="4.032978"><ele>93.0</ele><time>2025-05-25T23:17:41Z</time></trkpt>
<trkpt lat="50.526988" lon="4.033404"><ele>92.15</ele><time>2025-05-25T23:17:45Z</time></trkpt>
<trkpt lat="50.525047" lon="4.035633"><ele>88.11</ele><time>2025-05-25T23:17:48Z</time></trkpt>
<trkpt lat="50.524831" lon="4.035885"><ele>90.29</ele><time>2025-05-25T23:17:51Z</time></trkpt>
<trkpt lat="50.52406" lon="4.036935"><ele>92.38</ele><time>2025-05-25T23:17:54Z</time></trkpt>
<trkpt lat="50.520818" lon="4.041419"><ele>100.1</ele><time>2025-05-25T23:17:57Z</time></trkpt>
<trkpt lat="50.520439" lon="4.041889"><ele>100.33</ele><time>2025-05-25T23:18:00Z</time></trkpt>
<trkpt lat="50.520094" lon="4.042256"><ele>102.66</ele><time>2025-05-25T23:18:04Z</time></trkpt>
<trkpt lat="50.519565" lon="4.042738"><ele>103.71</ele><time>2025-05-25T23:18:07Z</time></trkpt>
<trkpt lat="50.519098" lon="4.043065"><ele>104.01</ele><time>2025-05-25T23:18:10Z</time></trkpt>
<trkpt lat="50.518689" lon="4.043289"><ele>105.56</ele><time>2025-05-25T23:18:13Z</time></trkpt>
<trkpt lat="50.518515" lon="4.043321"><ele>105.95</ele><time>2025-05-25T23:18:16Z</time></trkpt>
<trkpt lat="50.518398" lon="4.043301"><ele>105.88</ele><time>2025-05-25T23:18:19Z</time></trkpt>
<trkpt lat="50.518246" lon="4.043233"><ele>106.27</ele><time>2025-05-25T23:18:23Z</time></trkpt>
<trkpt lat="50.518043" lon="4.043072"><ele>107.2</ele><time>2025-05-25T23:18:26Z</time></trkpt>
<trkpt lat="50.516985" lon="4.041233"><ele>104.58</ele><time>2025-05-25T23:18:29Z</time></trkpt>
<trkpt lat="50.51693" lon="4.041158"><ele>104.34</ele><time>2025-05-25T23:18:32Z</time></trkpt>
<trkpt lat="50.516877" lon="4.041134"><ele>104.16</ele><time>2025-05-25T23:18:35Z</time></trkpt>
<trkpt lat="50.516838" lon="4.041142"><ele>104.22</ele><time>2025-05-25T23:18:39Z</time></trkpt>
<trkpt lat="50.516748" lon="4.04118"><ele>104.5</ele><time>2025-05-25T23:18:42Z</time></trkpt>
<trkpt lat="50.516716" lon="4.041253"><ele>105.02</ele><time>2025-05-25T23:18:45Z</time></trkpt>
<trkpt lat="50.516207" lon="4.044769"><ele>107.89</ele><time>2025-05-25T23:18:48Z</time></trkpt>
<trkpt lat="50.51604" lon="4.045847"><ele>107.78</ele><time>2025-05-25T23:18:51Z</time></trkpt>
<trkpt lat="50.515939" lon="4.046384"><ele>107.76</ele><time>2025-05-25T23:18:54Z</time></trkpt>
<trkpt lat="50.515861" lon="4.046703"><ele>107.18</ele><time>2025-05-25T23:18:58Z</time></trkpt>
<trkpt lat="50.515799" lon="4.046885"><ele>106.88</ele><time>2025-05-25T23:19:01Z</time></trkpt>
<trkpt lat="50.515568" lon="4.047462"><ele>106.0</ele><time>2025-05-25T23:19:04Z</time></trkpt>
<trkpt lat="50.515106" lon="4.048498"><ele>105.62</ele><time>2025-05-25T23:19:07Z</time></trkpt>
<trkpt lat="50.515018" lon="4.048718"><ele>105.96</ele><time>2025-05-25T23:19:10Z</time></trkpt>
<trkpt lat="50.514477" lon="4.05044"><ele>103.3</ele><time>2025-05-25T23:19:14Z</time></trkpt>
<trkpt lat="50.514137" lon="4.050562"><ele>103.03</ele><time>2025-05-25T23:19:17Z</time></trkpt>
<trkpt lat="50.513363" lon="4.050633"><ele>106.45</ele><time>2025-05-25T23:19:20Z</time></trkpt>
<trkpt lat="50.513124" lon="4.050601"><ele>107.08</ele><time>2025-05-25T23:19:23Z</time></trkpt>
<trkpt lat="50.512773" lon="4.050502"><ele>107.03</ele><time>2025-05-25T23:19:26Z</time></trkpt>
<trkpt lat="50.512591" lon="4.050489"><ele>108.18</ele><time>2025-05-25T23:19:29Z</time></trkpt>
<trkpt lat="50.512473" lon="4.050536"><ele>108.83</ele><time>2025-05-25T23:19:32Z</time></trkpt>
<trkpt lat="50.512373" lon="4.05062"><ele>109.35</ele><time>2025-05-25T23:19:35Z</time></trkpt>
<trkpt lat="50.512085" lon="4.051067"><ele>113.47</ele><time>2025-05-25T23:19:38Z</time></trkpt>
<trkpt lat="50.511964" lon="4.051189"><ele>112.31</ele><time>2025-05-25T23:19:42Z</time></trkpt>
<trkpt lat="50.511807" lon="4.051216"><ele>110.52</ele><time>2025-05-25T23:19:45Z</time></trkpt>
<trkpt lat="50.511443" lon="4.051054"><ele>107.99</ele><time>2025-05-25T23:19:48Z</time></trkpt>
<trkpt lat="50.51139" lon="4.051058"><ele>107.81</ele><time>2025-05-25T23:19:51Z</time></trkpt>
<trkpt lat="50.511336" lon="4.051122"><ele>108.19</ele><time>2025-05-25T23:19:54Z</time></trkpt>
<trkpt lat="50.511159" lon="4.051697"><ele>109.94</ele><time>2025-05-25T23:19:57Z</time></trkpt>
<trkpt lat="50.510978" lon="4.052181"><ele>111.51</ele><time>2025-05-25T23:20:00Z</time></trkpt>
<trkpt lat="50.510732" lon="4.05274"><ele>111.05</ele><time>2025-05-25T23:20:03Z</time></trkpt>
<trkpt lat="50.51051" lon="4.053211"><ele>112.56</ele><time>2025-05-25T23:20:06Z</time></trkpt>
<trkpt lat="50.510475" lon="4.053248"><ele>112.69</ele><time>2025-05-25T23:20:10Z</time></trkpt>
<trkpt lat="50.510397" lon="4.053265"><ele>112.75</ele><time>2025-05-25T23:20:13Z</time></trkpt>
<trkpt lat="50.510322" lon="4.053216"><ele>112.58</ele><time>2025-05-25T23:20:16Z</time></trkpt>
<trkpt lat="50.509971" lon="4.052669"><ele>113.71</ele><time>2025-05-25T23:20:19Z</time></trkpt>
<trkpt lat="50.509898" lon="4.052594"><ele>113.7</ele><time>2025-05-25T23:20:22Z</time></trkpt>
<trkpt lat="50.509763" lon="4.052499"><ele>113.85</ele><time>2025-05-25T23:20:25Z</time></trkpt>
<trkpt lat="50.509409" lon="4.052328"><ele>113.33</ele><time>2025-05-25T23:20:28Z</time></trkpt>
<trkpt lat="50.509124" lon="4.052149"><ele>113.38</ele><time>2025-05-25T23:20:31Z</time></trkpt>
<trkpt lat="50.508172" lon="4.051385"><ele>114.0</ele><time>2025-05-25T23:20:35Z</time></trkpt>
<trkpt lat="50.507898" lon="4.050973"><ele>114.29</ele><time>2025-05-25T23:20:38Z</time></trkpt>
<trkpt lat="50.507233" lon="4.049888"><ele>114.36</ele><time>2025-05-25T23:20:41Z</time></trkpt>
<trkpt lat="50.507154" lon="4.049813"><ele>114.75</ele><time>2025-05-25T23:20:44Z</time></trkpt>
<trkpt lat="50.507088" lon="4.049803"><ele>114.85</ele><time>2025-05-25T23:20:47Z</time></trkpt>
<trkpt lat="50.506974" lon="4.049835"><ele>114.96</ele><time>2025-05-25T23:20:50Z</time></trkpt>
<trkpt lat="50.506053" lon="4.050268"><ele>116.79</ele><time>2025-05-25T23:20:53Z</time></trkpt>
<trkpt lat="50.505617" lon="4.050422"><ele>115.22</ele><time>2025-05-25T23:20:56Z</time></trkpt>
<trkpt lat="50.505176" lon="4.050529"><ele>115.46</ele><time>2025-05-25T23:20:59Z</time></trkpt>
<trkpt lat="50.499061" lon="4.051752"><ele>113.0</ele><time>2025-05-25T23:21:03Z</time></trkpt>
<trkpt lat="50.498367" lon="4.051961"><ele>111.17</ele><time>2025-05-25T23:21:06Z</time></trkpt>
<trkpt lat="50.49776" lon="4.052242"><ele>112.0</ele><time>2025-05-25T23:21:09Z</time></trkpt>
<trkpt lat="50.496232" lon="4.053014"><ele>107.43</ele><time>2025-05-25T23:21:12Z</time></trkpt>
<trkpt lat="50.495774" lon="4.053265"><ele>106.54</ele><time>2025-05-25T23:21:15Z</time></trkpt>
<trkpt lat="50.495601" lon="4.053421"><ele>106.43</ele><time>2025-05-25T23:21:18Z</time></trkpt>
<trkpt lat="50.494586" lon="4.054987"><ele>102.02</ele><time>2025-05-25T23:21:21Z</time></trkpt>
<trkpt lat="50.494515" lon="4.055087"><ele>102.0</ele><time>2025-05-25T23:21:24Z</time></trkpt>
<trkpt lat="50.494432" lon="4.055134"><ele>102.0</ele><time>2025-05-25T23:21:27Z</time></trkpt>
<trkpt lat="50.493909" lon="4.051686"><ele>103.14</ele><time>2025-05-25T23:21:39Z</time></trkpt>
<trkpt lat="50.493861" lon="4.051436"><ele>103.64</ele><time>2025-05-25T23:21:50Z</time></trkpt>
<trkpt lat="50.493745" lon="4.05099"><ele>102.75</ele><time>2025-05-25T23:22:01Z</time></trkpt>
<trkpt lat="50.493551" lon="4.050304"><ele>102.47</ele><time>2025-05-25T23:22:12Z</time></trkpt>
<trkpt lat="50.492385" lon="4.046203"><ele>95.0</ele><time>2025-05-25T23:22:23Z</time></trkpt>
<trkpt lat="50.491968" lon="4.044817"><ele>92.74</ele><time>2025-05-25T23:22:34Z</time></trkpt>
<trkpt lat="50.49159" lon="4.04366"><ele>92.18</ele><time>2025-05-25T23:22:46Z</time></trkpt>
<trkpt lat="50.490167" lon="4.039293"><ele>89.58</ele><time>2025-05-25T23:22:57Z</time></trkpt>
<trkpt lat="50.489906" lon="4.038695"><ele>89.1</ele><time>2025-05-25T23:23:08Z</time></trkpt>
<trkpt lat="50.489373" lon="4.03776"><ele>87.0</ele><time>2025-05-25T23:23:19Z</time></trkpt>
<trkpt lat="50.487486" lon="4.034502"><ele>86.0</ele><time>2025-05-25T23:23:30Z</time></trkpt>
<trkpt lat="50.486654" lon="4.032737"><ele>83.09</ele><time>2025-05-25T23:23:41Z</time></trkpt>
<trkpt lat="50.486399" lon="4.03193"><ele>80.11</ele><time>2025-05-25T23:23:52Z</time></trkpt>
<trkpt lat="50.486193" lon="4.03116"><ele>79.59</ele><time>2025-05-25T23:24:04Z</time></trkpt>
<trkpt lat="50.486159" lon="4.031122"><ele>79.35</ele><time>2025-05-25T23:24:15Z</time></trkpt>
<trkpt lat="50.486124" lon="4.03112"><ele>79.09</ele><time>2025-05-25T23:24:26Z</time></trkpt>
<trkpt lat="50.486035" lon="4.031174"><ele>78.73</ele><time>2025-05-25T23:24:37Z</time></trkpt>
<trkpt lat="50.485433" lon="4.031678"><ele>78.02</ele><time>2025-05-25T23:24:48Z</time></trkpt>
<trkpt lat="50.485036" lon="4.032071"><ele>79.85</ele><time>2025-05-25T23:24:59Z</time></trkpt>
<trkpt lat="50.484957" lon="4.032202"><ele>80.7</ele><time>2025-05-25T23:25:10Z</time></trkpt>
<trkpt lat="50.484921" lon="4.032338"><ele>81.13</ele><time>2025-05-25T23:25:22Z</time></trkpt>
<trkpt lat="50.484707" lon="4.033517"><ele>82.83</ele><time>2025-05-25T23:25:33Z</time></trkpt>
<trkpt lat="50.484162" lon="4.035669"><ele>81.4</ele><time>2025-05-25T23:25:44Z</time></trkpt>
<trkpt lat="50.483428" lon="4.034158"><ele>81.03</ele><time>2025-05-25T23:25:56Z</time></trkpt>
<trkpt lat="50.483351" lon="4.034148"><ele>81.07</ele><time>2025-05-25T23:25:57Z</time></trkpt>
<trkpt lat="50.483278" lon="4.034168"><ele>80.99</ele><time>2025-05-25T23:25:58Z</time></trkpt>
<trkpt lat="50.483226" lon="4.03423"><ele>80.86</ele><time>2025-05-25T23:25:58Z</time></trkpt>
<trkpt lat="50.483184" lon="4.034321"><ele>80.74</ele><time>2025-05-25T23:25:59Z</time></trkpt>
<trkpt lat="50.483137" lon="4.035293"><ele>82.35</ele><time>2025-05-25T23:26:04Z</time></trkpt>
<trkpt lat="50.48306" lon="4.03597"><ele>81.53</ele><time>2025-05-25T23:26:09Z</time></trkpt>
<trkpt lat="50.482974" lon="4.036572"><ele>81.37</ele><time>2025-05-25T23:26:14Z</time></trkpt>
<trkpt lat="50.482757" lon="4.037869"><ele>78.92</ele><time>2025-05-25T23:26:19Z</time></trkpt>
<trkpt lat="50.482704" lon="4.037991"><ele>78.74</ele><time>2025-05-25T23:26:24Z</time></trkpt>
<trkpt lat="50.482651" lon="4.038069"><ele>78.5</ele><time>2025-05-25T23:26:29Z</time></trkpt>
<trkpt lat="50.482571" lon="4.038151"><ele>77.91</ele><time>2025-05-25T23:26:34Z</time></trkpt>
<trkpt lat="50.482483" lon="4.038202"><ele>77.44</ele><time>2025-05-25T23:26:38Z</time></trkpt>
<trkpt lat="50.481813" lon="4.038332"><ele>77.0</ele><time>2025-05-25T23:26:43Z</time></trkpt>
<trkpt lat="50.481561" lon="4.038352"><ele>76.93</ele><time>2025-05-25T23:26:48Z</time></trkpt>
<trkpt lat="50.481409" lon="4.03831"><ele>77.08</ele><time>2025-05-25T23:26:53Z</time></trkpt>
<trkpt lat="50.481202" lon="4.038184"><ele>77.18</ele><time>2025-05-25T23:26:58Z</time></trkpt>
<trkpt lat="50.48072" lon="4.037681"><ele>73.59</ele><time>2025-05-25T23:27:03Z</time></trkpt>
<trkpt lat="50.480607" lon="4.037602"><ele>73.18</ele><time>2025-05-25T23:27:08Z</time></trkpt>
<trkpt lat="50.480474" lon="4.037546"><ele>72.71</ele><time>2025-05-25T23:27:13Z</time></trkpt>
<trkpt lat="50.479538" lon="4.03736"><ele>74.32</ele><time>2025-05-25T23:27:18Z</time></trkpt>
<trkpt lat="50.479111" lon="4.037296"><ele>75.65</ele><time>2025-05-25T23:27:23Z</time></trkpt>
<trkpt lat="50.478916" lon="4.037297"><ele>74.44</ele><time>2025-05-25T23:27:27Z</time></trkpt>
<trkpt lat="50.477621" lon="4.037486"><ele>74.05</ele><time>2025-05-25T23:27:32Z</time></trkpt>
<trkpt lat="50.477462" lon="4.037471"><ele>73.97</ele><time>2025-05-25T23:27:37Z</time></trkpt>
<trkpt lat="50.474045" lon="4.03666"><ele>61.97</ele><time>2025-05-25T23:27:42Z</time></trkpt>
<trkpt lat="50.471978" lon="4.036142"><ele>52.15</ele><time>2025-05-25T23:27:47Z</time></trkpt>
<trkpt lat="50.471823" lon="4.036122"><ele>51.05</ele><time>2025-05-25T23:27:52Z</time></trkpt>
<trkpt lat="50.471802" lon="4.035103"><ele>54.94</ele><time>2025-05-25T23:28:01Z</time></trkpt>
<trkpt lat="50.471864" lon="4.0332"><ele>52.13</ele><time>2025-05-25T23:28:11Z</time></trkpt>
<trkpt lat="50.471844" lon="4.03184"><ele>50.04</ele><time>2025-05-25T23:28:20Z</time></trkpt>
<trkpt lat="50.470109" lon="4.031951"><ele>47.42</ele><time>2025-05-25T23:28:24Z</time></trkpt>
<trkpt lat="50.46997" lon="4.032005"><ele>46.92</ele><time>2025-05-25T23:28:28Z</time></trkpt>
<trkpt lat="50.469784" lon="4.032174"><ele>46.14</ele><time>2025-05-25T23:28:32Z</time></trkpt>
<trkpt lat="50.469655" lon="4.032404"><ele>46.09</ele><time>2025-05-25T23:28:36Z</time></trkpt>
<trkpt lat="50.46956" lon="4.032766"><ele>47.35</ele><time>2025-05-25T23:28:40Z</time></trkpt>
<trkpt lat="50.469221" lon="4.034445"><ele>45.39</ele><time>2025-05-25T23:28:43Z</time></trkpt>
<trkpt lat="50.469151" lon="4.03464"><ele>45.65</ele><time>2025-05-25T23:28:47Z</time></trkpt>
<trkpt lat="50.46836" lon="4.0361"><ele>44.42</ele><time>2025-05-25T23:28:51Z</time></trkpt>
<trkpt lat="50.46814" lon="4.036385"><ele>42.61</ele><time>2025-05-25T23:28:55Z</time></trkpt>
<trkpt lat="50.467723" lon="4.036864"><ele>40.8</ele><time>2025-05-25T23:28:59Z</time></trkpt>
<trkpt lat="50.467647" lon="4.036971"><ele>40.53</ele><time>2025-05-25T23:29:03Z</time></trkpt>
<trkpt lat="50.46752" lon="4.037214"><ele>40.07</ele><time>2025-05-25T23:29:07Z</time></trkpt>
<trkpt lat="50.467426" lon="4.037725"><ele>42.4</ele><time>2025-05-25T23:29:11Z</time></trkpt>
<trkpt lat="50.467403" lon="4.037973"><ele>42.65</ele><time>2025-05-25T23:29:15Z</time></trkpt>
<trkpt lat="50.467429" lon="4.038317"><ele>43.69</ele><time>2025-05-25T23:29:19Z</time></trkpt>
<trkpt lat="50.467487" lon="4.038523"><ele>43.95</ele><time>2025-05-25T23:29:23Z</time></trkpt>
<trkpt lat="50.467549" lon="4.038627"><ele>43.94</ele><time>2025-05-25T23:29:27Z</time></trkpt>
<trkpt lat="50.468054" lon="4.03924"><ele>42.74</ele><time>2025-05-25T23:29:31Z</time></trkpt>
<trkpt lat="50.46848" lon="4.039646"><ele>41.15</ele><time>2025-05-25T23:29:35Z</time></trkpt>
<trkpt lat="50.467803" lon="4.041178"><ele>40.69</ele><time>2025-05-25T23:29:44Z</time></trkpt>
<trkpt lat="50.465174" lon="4.04469"><ele>41.93</ele><time>2025-05-25T23:29:54Z</time></trkpt>
<trkpt lat="50.464683" lon="4.045474"><ele>44.49</ele><time>2025-05-25T23:30:04Z</time></trkpt>
<trkpt lat="50.464514" lon="4.045947"><ele>45.9</ele><time>2025-05-25T23:30:14Z</time></trkpt>
<trkpt lat="50.464208" lon="4.046037"><ele>47.58</ele><time>2025-05-25T23:30:17Z</time></trkpt>
<trkpt lat="50.463823" lon="4.045053"><ele>48.24</ele><time>2025-05-25T23:30:29Z</time></trkpt>
<trkpt lat="50.463338" lon="4.0435"><ele>46.98</ele><time>2025-05-25T23:30:41Z</time></trkpt>
<trkpt lat="50.46255" lon="4.043975"><ele>50.82</ele><time>2025-05-25T23:30:49Z</time></trkpt>
<trkpt lat="50.462457" lon="4.043999"><ele>51.15</ele><time>2025-05-25T23:30:56Z</time></trkpt>
<trkpt lat="50.461781" lon="4.044413"><ele>52.47</ele><time>2025-05-25T23:31:04Z</time></trkpt>
<trkpt lat="50.460733" lon="4.044832"><ele>56.61</ele><time>2025-05-25T23:31:11Z</time></trkpt>
<trkpt lat="50.460287" lon="4.045069"><ele>57.97</ele><time>2025-05-25T23:31:19Z</time></trkpt>
<trkpt lat="50.459702" lon="4.045437"><ele>59.08</ele><time>2025-05-25T23:31:26Z</time></trkpt>
<trkpt lat="50.459549" lon="4.045513"><ele>60.06</ele><time>2025-05-25T23:31:34Z</time></trkpt>
<trkpt lat="50.459481" lon="4.045521"><ele>60.53</ele><time>2025-05-25T23:31:41Z</time></trkpt>
<trkpt lat="50.459214" lon="4.045437"><ele>61.46</ele><time>2025-05-25T23:31:49Z</time></trkpt>
<trkpt lat="50.457717" lon="4.044506"><ele>57.0</ele><time>2025-05-25T23:31:56Z</time></trkpt>
<trkpt lat="50.457451" lon="4.044285"><ele>56.6</ele><time>2025-05-25T23:32:04Z</time></trkpt>
<trkpt lat="50.4574" lon="4.044212"><ele>56.52</ele><time>2025-05-25T23:32:16Z</time></trkpt>
<trkpt lat="50.457341" lon="4.044214"><ele>56.74</ele><time>2025-05-25T23:32:27Z</time></trkpt>
<trkpt lat="50.4573" lon="4.044265"><ele>57.07</ele><time>2025-05-25T23:32:39Z</time></trkpt>
<trkpt lat="50.45729" lon="4.044382"><ele>57.53</ele><time>2025-05-25T23:32:51Z</time></trkpt>
<trkpt lat="50.457244" lon="4.044497"><ele>57.92</ele><time>2025-05-25T23:33:03Z</time></trkpt>
<trkpt lat="50.456689" lon="4.044947"><ele>59.1</ele><time>2025-05-25T23:33:14Z</time></trkpt>
<trkpt lat="50.454658" lon="4.04657"><ele>59.88</ele><time>2025-05-25T23:33:26Z</time></trkpt>
<trkpt lat="50.452343" lon="4.048503"><ele>62.43</ele><time>2025-05-25T23:33:38Z</time></trkpt>
<trkpt lat="50.451894" lon="4.048773"><ele>60.89</ele><time>2025-05-25T23:33:50Z</time></trkpt>
<trkpt lat="50.449624" lon="4.049747"><ele>60.65</ele><time>2025-05-25T23:34:01Z</time></trkpt>
<trkpt lat="50.447966" lon="4.050412"><ele>58.48</ele><time>2025-05-25T23:34:13Z</time></trkpt>
<trkpt lat="50.447758" lon="4.050432"><ele>58.59</ele><time>2025-05-25T23:34:25Z</time></trkpt>
<trkpt lat="50.446986" lon="4.050432"><ele>58.55</ele><time>2025-05-25T23:34:37Z</time></trkpt>
<trkpt lat="50.434583" lon="4.050384"><ele>74.31</ele><time>2025-05-25T23:34:48Z</time></trkpt>
<trkpt lat="50.431449" lon="4.05037"><ele>80.67</ele><time>2025-05-25T23:35:00Z</time></trkpt>
<trkpt lat="50.431356" lon="4.050397"><ele>80.81</ele><time>2025-05-25T23:35:12Z</time></trkpt>
<trkpt lat="50.430883" lon="4.050465"><ele>83.15</ele><time>2025-05-25T23:35:24Z</time></trkpt>
<trkpt lat="50.429339" lon="4.050498"><ele>85.17</ele><time>2025-05-25T23:35:35Z</time></trkpt>
<trkpt lat="50.423557" lon="4.050681"><ele>91.19</ele><time>2025-05-25T23:35:47Z</time></trkpt>
<trkpt lat="50.423328" lon="4.050712"><ele>91.98</ele><time>2025-05-25T23:35:59Z</time></trkpt>
<trkpt lat="50.422953" lon="4.050826"><ele>89.89</ele><time>2025-05-25T23:36:11Z</time></trkpt>
<trkpt lat="50.418392" lon="4.052506"><ele>82.0</ele><time>2025-05-25T23:36:22Z</time></trkpt>
<trkpt lat="50.418132" lon="4.052608"><ele>81.56</ele><time>2025-05-25T23:36:34Z</time></trkpt>
<trkpt lat="50.417839" lon="4.052679"><ele>81.64</ele><time>2025-05-25T23:36:46Z</time></trkpt>
<trkpt lat="50.415955" lon="4.053059"><ele>82.57</ele><time>2025-05-25T23:36:58Z</time></trkpt>
<trkpt lat="50.414743" lon="4.053518"><ele>82.9</ele><time>2025-05-25T23:37:09Z</time></trkpt>
<trkpt lat="50.414531" lon="4.053648"><ele>84.42</ele><time>2025-05-25T23:37:21Z</time></trkpt>
<trkpt lat="50.414305" lon="4.05387"><ele>85.47</ele><time>2025-05-25T23:37:33Z</time></trkpt>
<trkpt lat="50.413226" lon="4.055341"><ele>87.09</ele><time>2025-05-25T23:37:45Z</time></trkpt>
<trkpt lat="50.413043" lon="4.055565"><ele>87.95</ele><time>2025-05-25T23:37:56Z</time></trkpt>
<trkpt lat="50.412087" lon="4.05646"><ele>88.76</ele><time>2025-05-25T23:38:08Z</time></trkpt>
<trkpt lat="50.41178" lon="4.056723"><ele>87.82</ele><time>2025-05-25T23:38:20Z</time></trkpt>
<trkpt lat="50.410304" lon="4.057862"><ele>91.0</ele><time>2025-05-25T23:38:32Z</time></trkpt>
<trkpt lat="50.410076" lon="4.05811"><ele>90.42</ele><time>2025-05-25T23:38:43Z</time></trkpt>
<trkpt lat="50.410014" lon="4.058211"><ele>90.58</ele><time>2025-05-25T23:38:55Z</time></trkpt>
<trkpt lat="50.40987" lon="4.058533"><ele>91.34</ele><time>2025-05-25T23:39:07Z</time></trkpt>
<trkpt lat="50.409724" lon="4.058483"><ele>91.53</ele><time>2025-05-25T23:39:08Z</time></trkpt>
<trkpt lat="50.409462" lon="4.058443"><ele>91.39</ele><time>2025-05-25T23:39:09Z</time></trkpt>
<trkpt lat="50.409315" lon="4.058729"><ele>91.96</ele><time>2025-05-25T23:39:16Z</time></trkpt>
<trkpt lat="50.409082" lon="4.058923"><ele>91.69</ele><time>2025-05-25T23:39:24Z</time></trkpt>
<trkpt lat="50.408843" lon="4.059178"><ele>90.87</ele><time>2025-05-25T23:39:31Z</time></trkpt>
<trkpt lat="50.407852" lon="4.060363"><ele>92.22</ele><time>2025-05-25T23:39:38Z</time></trkpt>
<trkpt lat="50.407519" lon="4.060658"><ele>92.07</ele><time>2025-05-25T23:39:45Z</time></trkpt>
<trkpt lat="50.404465" lon="4.062876"><ele>99.0</ele><time>2025-05-25T23:39:53Z</time></trkpt>
<trkpt lat="50.403456" lon="4.063575"><ele>104.3</ele><time>2025-05-25T23:40:00Z</time></trkpt>
<trkpt lat="50.402888" lon="4.064019"><ele>106.4</ele><time>2025-05-25T23:40:07Z</time></trkpt>
<trkpt lat="50.401942" lon="4.064695"><ele>108.0</ele><time>2025-05-25T23:40:14Z</time></trkpt>
<trkpt lat="50.401472" lon="4.065074"><ele>109.0</ele><time>2025-05-25T23:40:21Z</time></trkpt>
<trkpt lat="50.401327" lon="4.065228"><ele>108.78</ele><time>2025-05-25T23:40:29Z</time></trkpt>
<trkpt lat="50.401179" lon="4.065427"><ele>108.78</ele><time>2025-05-25T23:40:36Z</time></trkpt>
<trkpt lat="50.400235" lon="4.06685"><ele>103.9</ele><time>2025-05-25T23:40:43Z</time></trkpt>
<trkpt lat="50.40005" lon="4.067081"><ele>102.69</ele><time>2025-05-25T23:40:50Z</time></trkpt>
<trkpt lat="50.399267" lon="4.067903"><ele>96.91</ele><time>2025-05-25T23:40:58Z</time></trkpt>
<trkpt lat="50.398957" lon="4.068252"><ele>94.36</ele><time>2025-05-25T23:41:05Z</time></trkpt>
<trkpt lat="50.397877" lon="4.069718"><ele>89.01</ele><time>2025-05-25T23:41:12Z</time></trkpt>
<trkpt lat="50.396662" lon="4.071502"><ele>86.01</ele><time>2025-05-25T23:41:19Z</time></trkpt>
<trkpt lat="50.396407" lon="4.071924"><ele>86.87</ele><time>2025-05-25T23:41:27Z</time></trkpt>
<trkpt lat="50.39632" lon="4.072088"><ele>87.51</ele><time>2025-05-25T23:41:34Z</time></trkpt>
<trkpt lat="50.395933" lon="4.073007"><ele>88.36</ele><time>2025-05-25T23:41:41Z</time></trkpt>
<trkpt lat="50.395577" lon="4.073747"><ele>87.0</ele><time>2025-05-25T23:41:48Z</time></trkpt>
<trkpt lat="50.394183" lon="4.0765"><ele>90.46</ele><time>2025-05-25T23:41:55Z</time></trkpt>
<trkpt lat="50.394013" lon="4.076763"><ele>91.71</ele><time>2025-05-25T23:42:03Z</time></trkpt>
<trkpt lat="50.393831" lon="4.077"><ele>92.41</ele><time>2025-05-25T23:42:10Z</time></trkpt>
<trkpt lat="50.393659" lon="4.077287"><ele>93.87</ele><time>2025-05-25T23:42:17Z</time></trkpt>
<trkpt lat="50.393192" lon="4.078195"><ele>95.0</ele><time>2025-05-25T23:42:24Z</time></trkpt>
<trkpt lat="50.393082" lon="4.078455"><ele>95.0</ele><time>2025-05-25T23:42:32Z</time></trkpt>
<trkpt lat="50.393027" lon="4.078682"><ele>95.23</ele><time>2025-05-25T23:42:39Z</time></trkpt>
<trkpt lat="50.393008" lon="4.078867"><ele>95.76</ele><time>2025-05-25T23:42:46Z</time></trkpt>
<trkpt lat="50.393" lon="4.079688"><ele>97.0</ele><time>2025-05-25T23:42:53Z</time></trkpt>
<trkpt lat="50.392991" lon="4.079834"><ele>97.4</ele><time>2025-05-25T23:43:01Z</time></trkpt>
<trkpt lat="50.392947" lon="4.080082"><ele>98.29</ele><time>2025-05-25T23:43:08Z</time></trkpt>
<trkpt lat="50.392433" lon="4.081461"><ele>102.26</ele><time>2025-05-25T23:43:15Z</time></trkpt>
<trkpt lat="50.391633" lon="4.08274"><ele>107.86</ele><time>2025-05-25T23:43:22Z</time></trkpt>
<trkpt lat="50.391658" lon="4.082819"><ele>108.14</ele><time>2025-05-25T23:43:23Z</time></trkpt>
<trkpt lat="50.389941" lon="4.084817"><ele>109.55</ele><time>2025-05-25T23:43:46Z</time></trkpt>
<trkpt lat="50.38801" lon="4.086995"><ele>110.18</ele><time>2025-05-25T23:44:09Z</time></trkpt>
<trkpt lat="50.387921" lon="4.086953"><ele>110.03</ele><time>2025-05-25T23:44:13Z</time></trkpt>
<trkpt lat="50.387265" lon="4.08677"><ele>109.15</ele><time>2025-05-25T23:44:16Z</time></trkpt>
<trkpt lat="50.386884" lon="4.086619"><ele>108.83</ele><time>2025-05-25T23:44:20Z</time></trkpt>
<trkpt lat="50.386432" lon="4.086403"><ele>109.65</ele><time>2025-05-25T23:44:23Z</time></trkpt>
<trkpt lat="50.386332" lon="4.086295"><ele>110.0</ele><time>2025-05-25T23:44:27Z</time></trkpt>
<trkpt lat="50.386284" lon="4.086429"><ele>109.86</ele><time>2025-05-25T23:44:32Z</time></trkpt>
<trkpt lat="50.385878" lon="4.087305"><ele>110.0</ele><time>2025-05-25T23:44:37Z</time></trkpt>
<trkpt lat="50.385624" lon="4.08793"><ele>110.89</ele><time>2025-05-25T23:44:43Z</time></trkpt>
<trkpt lat="50.384811" lon="4.089556"><ele>111.68</ele><time>2025-05-25T23:44:48Z</time></trkpt>
<trkpt lat="50.384694" lon="4.089748"><ele>111.81</ele><time>2025-05-25T23:44:53Z</time></trkpt>
<trkpt lat="50.384472" lon="4.089996"><ele>111.0</ele><time>2025-05-25T23:44:58Z</time></trkpt>
<trkpt lat="50.383939" lon="4.090397"><ele>109.65</ele><time>2025-05-25T23:45:04Z</time></trkpt>
<trkpt lat="50.383826" lon="4.090499"><ele>109.16</ele><time>2025-05-25T23:45:09Z</time></trkpt>
<trkpt lat="50.383752" lon="4.090611"><ele>109.2</ele><time>2025-05-25T23:45:14Z</time></trkpt>
<trkpt lat="50.383665" lon="4.090874"><ele>110.15</ele><time>2025-05-25T23:45:19Z</time></trkpt>
<trkpt lat="50.383641" lon="4.091033"><ele>110.72</ele><time>2025-05-25T23:45:24Z</time></trkpt>
<trkpt lat="50.383566" lon="4.09187"><ele>113.16</ele><time>2025-05-25T23:45:30Z</time></trkpt>
<trkpt lat="50.383504" lon="4.092092"><ele>113.39</ele><time>2025-05-25T23:45:35Z</time></trkpt>
<trkpt lat="50.383465" lon="4.092159"><ele>113.53</ele><time>2025-05-25T23:45:40Z</time></trkpt>
<trkpt lat="50.383331" lon="4.092267"><ele>114.01</ele><time>2025-05-25T23:45:45Z</time></trkpt>
<trkpt lat="50.383191" lon="4.092312"><ele>114.51</ele><time>2025-05-25T23:45:51Z</time></trkpt>
<trkpt lat="50.382855" lon="4.092352"><ele>114.61</ele><time>2025-05-25T23:45:56Z</time></trkpt>
<trkpt lat="50.382614" lon="4.092425"><ele>114.89</ele><time>2025-05-25T23:46:01Z</time></trkpt>
<trkpt lat="50.382362" lon="4.092607"><ele>116.19</ele><time>2025-05-25T23:46:06Z</time></trkpt>
<trkpt lat="50.382034" lon="4.092919"><ele>117.68</ele><time>2025-05-25T23:46:11Z</time></trkpt>
<trkpt lat="50.381538" lon="4.093539"><ele>119.46</ele><time>2025-05-25T23:46:17Z</time></trkpt>
<trkpt lat="50.381425" lon="4.093718"><ele>119.48</ele><time>2025-05-25T23:46:22Z</time></trkpt>
<trkpt lat="50.3813" lon="4.094033"><ele>119.32</ele><time>2025-05-25T23:46:27Z</time></trkpt>
<trkpt lat="50.380769" lon="4.095594"><ele>115.97</ele><time>2025-05-25T23:46:32Z</time></trkpt>
<trkpt lat="50.380315" lon="4.097037"><ele>113.96</ele><time>2025-05-25T23:46:37Z</time></trkpt>
<trkpt lat="50.380186" lon="4.097344"><ele>113.71</ele><time>2025-05-25T23:46:43Z</time></trkpt>
<trkpt lat="50.380039" lon="4.097596"><ele>113.51</ele><time>2025-05-25T23:46:48Z</time></trkpt>
<trkpt lat="50.379889" lon="4.097717"><ele>113.22</ele><time>2025-05-25T23:46:53Z</time></trkpt>
<trkpt lat="50.379504" lon="4.0979"><ele>113.35</ele><time>2025-05-25T23:46:58Z</time></trkpt>
<trkpt lat="50.379317" lon="4.097967"><ele>113.22</ele><time>2025-05-25T23:47:04Z</time></trkpt>
<trkpt lat="50.37893" lon="4.098053"><ele>113.85</ele><time>2025-05-25T23:47:09Z</time></trkpt>
<trkpt lat="50.378665" lon="4.098193"><ele>115.71</ele><time>2025-05-25T23:47:14Z</time></trkpt>
<trkpt lat="50.378459" lon="4.098365"><ele>116.0</ele><time>2025-05-25T23:47:19Z</time></trkpt>
<trkpt lat="50.378304" lon="4.098543"><ele>116.0</ele><time>2025-05-25T23:47:24Z</time></trkpt>
<trkpt lat="50.378214" lon="4.098615"><ele>115.99</ele><time>2025-05-25T23:47:30Z</time></trkpt>
<trkpt lat="50.377867" lon="4.09879"><ele>114.92</ele><time>2025-05-25T23:47:35Z</time></trkpt>
<trkpt lat="50.377709" lon="4.098897"><ele>114.0</ele><time>2025-05-25T23:47:40Z</time></trkpt>
<trkpt lat="50.377128" lon="4.099684"><ele>115.59</ele><time>2025-05-25T23:47:45Z</time></trkpt>
<trkpt lat="50.376867" lon="4.100408"><ele>118.13</ele><time>2025-05-25T23:47:50Z</time></trkpt>
<trkpt lat="50.376582" lon="4.101601"><ele>118.91</ele><time>2025-05-25T23:47:56Z</time></trkpt>
<trkpt lat="50.376492" lon="4.10186"><ele>119.0</ele><time>2025-05-25T23:48:01Z</time></trkpt>
<trkpt lat="50.374883" lon="4.105246"><ele>129.19</ele><time>2025-05-25T23:48:06Z</time></trkpt>
<trkpt lat="50.37459" lon="4.105974"><ele>132.51</ele><time>2025-05-25T23:48:11Z</time></trkpt>
<trkpt lat="50.374419" lon="4.106319"><ele>133.68</ele><time>2025-05-25T23:48:17Z</time></trkpt>
<trkpt lat="50.374307" lon="4.106489"><ele>133.87</ele><time>2025-05-25T23:48:22Z</time></trkpt>
<trkpt lat="50.374051" lon="4.106779"><ele>133.58</ele><time>2025-05-25T23:48:27Z</time></trkpt>
<trkpt lat="50.373246" lon="4.107429"><ele>136.0</ele><time>2025-05-25T23:48:32Z</time></trkpt>
<trkpt lat="50.372033" lon="4.108484"><ele>134.0</ele><time>2025-05-25T23:48:37Z</time></trkpt>
<trkpt lat="50.371784" lon="4.108722"><ele>134.98</ele><time>2025-05-25T23:48:43Z</time></trkpt>
<trkpt lat="50.371582" lon="4.108955"><ele>136.3</ele><time>2025-05-25T23:48:48Z</time></trkpt>
<trkpt lat="50.371489" lon="4.109088"><ele>136.64</ele><time>2025-05-25T23:48:53Z</time></trkpt>
<trkpt lat="50.371323" lon="4.108632"><ele>136.07</ele><time>2025-05-25T23:49:00Z</time></trkpt>
<trkpt lat="50.37081" lon="4.107531"><ele>133.09</ele><time>2025-05-25T23:49:07Z</time></trkpt>
<trkpt lat="50.370776" lon="4.107376"><ele>133.21</ele><time>2025-05-25T23:49:13Z</time></trkpt>
<trkpt lat="50.370328" lon="4.108458"><ele>133.18</ele><time>2025-05-25T23:49:16Z</time></trkpt>
<trkpt lat="50.370266" lon="4.108664"><ele>132.77</ele><time>2025-05-25T23:49:19Z</time></trkpt>
<trkpt lat="50.370213" lon="4.108933"><ele>131.76</ele><time>2025-05-25T23:49:22Z</time></trkpt>
<trkpt lat="50.370171" lon="4.109259"><ele>131.74</ele><time>2025-05-25T23:49:26Z</time></trkpt>
<trkpt lat="50.370157" lon="4.109529"><ele>132.3</ele><time>2025-05-25T23:49:29Z</time></trkpt>
<trkpt lat="50.370159" lon="4.109764"><ele>133.24</ele><time>2025-05-25T23:49:32Z</time></trkpt>
<trkpt lat="50.37022" lon="4.110417"><ele>133.29</ele><time>2025-05-25T23:49:35Z</time></trkpt>
<trkpt lat="50.367905" lon="4.112098"><ele>135.11</ele><time>2025-05-25T23:49:39Z</time></trkpt>
<trkpt lat="50.367615" lon="4.112285"><ele>135.18</ele><time>2025-05-25T23:49:43Z</time></trkpt>
<trkpt lat="50.367409" lon="4.112376"><ele>134.78</ele><time>2025-05-25T23:49:47Z</time></trkpt>
<trkpt lat="50.367102" lon="4.112429"><ele>134.6</ele><time>2025-05-25T23:49:51Z</time></trkpt>
<trkpt lat="50.366866" lon="4.11241"><ele>134.68</ele><time>2025-05-25T23:49:55Z</time></trkpt>
<trkpt lat="50.366112" lon="4.112217"><ele>134.98</ele><time>2025-05-25T23:49:59Z</time></trkpt>
<trkpt lat="50.365939" lon="4.11219"><ele>134.88</ele><time>2025-05-25T23:50:03Z</time></trkpt>
<trkpt lat="50.365779" lon="4.112202"><ele>134.53</ele><time>2025-05-25T23:50:07Z</time></trkpt>
<trkpt lat="50.365635" lon="4.112267"><ele>133.57</ele><time>2025-05-25T23:50:11Z</time></trkpt>
<trkpt lat="50.365424" lon="4.112441"><ele>132.53</ele><time>2025-05-25T23:50:15Z</time></trkpt>
<trkpt lat="50.365237" lon="4.112721"><ele>132.65</ele><time>2025-05-25T23:50:19Z</time></trkpt>
<trkpt lat="50.365057" lon="4.113181"><ele>134.11</ele><time>2025-05-25T23:50:23Z</time></trkpt>
<trkpt lat="50.364816" lon="4.114008"><ele>135.68</ele><time>2025-05-25T23:50:27Z</time></trkpt>
<trkpt lat="50.364757" lon="4.114265"><ele>135.56</ele><time>2025-05-25T23:50:31Z</time></trkpt>
<trkpt lat="50.364692" lon="4.114551"><ele>135.89</ele><time>2025-05-25T23:50:35Z</time></trkpt>
<trkpt lat="50.364582" lon="4.115289"><ele>136.48</ele><time>2025-05-25T23:50:39Z</time></trkpt>
<trkpt lat="50.36451" lon="4.115619"><ele>135.82</ele><time>2025-05-25T23:50:43Z</time></trkpt>
<trkpt lat="50.364456" lon="4.11577"><ele>135.26</ele><time>2025-05-25T23:50:47Z</time></trkpt>
<trkpt lat="50.364233" lon="4.116233"><ele>134.76</ele><time>2025-05-25T23:50:51Z</time></trkpt>
<trkpt lat="50.364045" lon="4.116518"><ele>135.7</ele><time>2025-05-25T23:50:55Z</time></trkpt>
<trkpt lat="50.362946" lon="4.117774"><ele>135.01</ele><time>2025-05-25T23:50:59Z</time></trkpt>
<trkpt lat="50.36273" lon="4.117903"><ele>135.0</ele><time>2025-05-25T23:51:03Z</time></trkpt>
<trkpt lat="50.362557" lon="4.117949"><ele>135.0</ele><time>2025-05-25T23:51:07Z</time></trkpt>
<trkpt lat="50.359012" lon="4.117542"><ele>135.0</ele><time>2025-05-25T23:51:11Z</time></trkpt>
<trkpt lat="50.358623" lon="4.117565"><ele>134.27</ele><time>2025-05-25T23:51:15Z</time></trkpt>
<trkpt lat="50.353026" lon="4.118739"><ele>139.46</ele><time>2025-05-25T23:51:19Z</time></trkpt>
<trkpt lat="50.35291" lon="4.118786"><ele>139.63</ele><time>2025-05-25T23:51:23Z</time></trkpt>
<trkpt lat="50.352793" lon="4.118873"><ele>139.94</ele><time>2025-05-25T23:51:27Z</time></trkpt>
<trkpt lat="50.352721" lon="4.118961"><ele>140.0</ele><time>2025-05-25T23:51:31Z</time></trkpt>
<trkpt lat="50.352384" lon="4.119691"><ele>140.0</ele><time>2025-05-25T23:51:35Z</time></trkpt>
<trkpt lat="50.35213" lon="4.120042"><ele>139.33</ele><time>2025-05-25T23:51:39Z</time></trkpt>
<trkpt lat="50.352057" lon="4.120233"><ele>139.59</ele><time>2025-05-25T23:51:43Z</time></trkpt>
<trkpt lat="50.351995" lon="4.120658"><ele>139.88</ele><time>2025-05-25T23:51:47Z</time></trkpt>
<trkpt lat="50.352002" lon="4.121172"><ele>141.0</ele><time>2025-05-25T23:51:51Z</time></trkpt>
<trkpt lat="50.35207" lon="4.121862"><ele>140.45</ele><time>2025-05-25T23:51:55Z</time></trkpt>
<trkpt lat="50.352115" lon="4.122057"><ele>141.02</ele><time>2025-05-25T23:51:59Z</time></trkpt>
<trkpt lat="50.352234" lon="4.122442"><ele>142.79</ele><time>2025-05-25T23:52:03Z</time></trkpt>
<trkpt lat="50.352362" lon="4.122959"><ele>144.0</ele><time>2025-05-25T23:52:07Z</time></trkpt>
<trkpt lat="50.352409" lon="4.123203"><ele>144.36</ele><time>2025-05-25T23:52:11Z</time></trkpt>
<trkpt lat="50.35242" lon="4.123339"><ele>144.71</ele><time>2025-05-25T23:52:15Z</time></trkpt>
<trkpt lat="50.35241" lon="4.123819"><ele>145.43</ele><time>2025-05-25T23:52:19Z</time></trkpt>
<trkpt lat="50.352391" lon="4.12394"><ele>145.61</ele><time>2025-05-25T23:52:23Z</time></trkpt>
<trkpt lat="50.352275" lon="4.124351"><ele>145.19</ele><time>2025-05-25T23:52:27Z</time></trkpt>
<trkpt lat="50.352247" lon="4.124639"><ele>145.09</ele><time>2025-05-25T23:52:31Z</time></trkpt>
<trkpt lat="50.35233" lon="4.126097"><ele>144.36</ele><time>2025-05-25T23:52:35Z</time></trkpt>
<trkpt lat="50.352121" lon="4.128537"><ele>147.0</ele><time>2025-05-25T23:52:39Z</time></trkpt>
<trkpt lat="50.352112" lon="4.128971"><ele>148.0</ele><time>2025-05-25T23:52:43Z</time></trkpt>
<trkpt lat="50.352173" lon="4.130185"><ele>150.55</ele><time>2025-05-25T23:52:47Z</time></trkpt>
<trkpt lat="50.35251" lon="4.132434"><ele>151.96</ele><time>2025-05-25T23:52:51Z</time></trkpt>
<trkpt lat="50.352528" lon="4.13269"><ele>151.9</ele><time>2025-05-25T23:52:55Z</time></trkpt>
<trkpt lat="50.352524" lon="4.132982"><ele>151.98</ele><time>2025-05-25T23:52:59Z</time></trkpt>
<trkpt lat="50.352471" lon="4.133386"><ele>153.0</ele><time>2025-05-25T23:53:03Z</time></trkpt>
<trkpt lat="50.351099" lon="4.138559"><ele>182.32</ele><time>2025-05-25T23:53:07Z</time></trkpt>
<trkpt lat="50.351068" lon="4.138767"><ele>181.82</ele><time>2025-05-25T23:53:11Z</time></trkpt>
<trkpt lat="50.351061" lon="4.138998"><ele>181.29</ele><time>2025-05-25T23:53:15Z</time></trkpt>
<trkpt lat="50.351096" lon="4.139346"><ele>181.02</ele><time>2025-05-25T23:53:19Z</time></trkpt>
<trkpt lat="50.351128" lon="4.139514"><ele>181.23</ele><time>2025-05-25T23:53:23Z</time></trkpt>
<trkpt lat="50.353522" lon="4.147288"><ele>169.36</ele><time>2025-05-25T23:53:27Z</time></trkpt>
<trkpt lat="50.354984" lon="4.150649"><ele>168.94</ele><time>2025-05-25T23:53:31Z</time></trkpt>
<trkpt lat="50.355135" lon="4.151138"><ele>168.44</ele><time>2025-05-25T23:53:35Z</time></trkpt>
<trkpt lat="50.355246" lon="4.151724"><ele>167.0</ele><time>2025-05-25T23:53:39Z</time></trkpt>
<trkpt lat="50.355288" lon="4.152066"><ele>167.05</ele><time>2025-05-25T23:53:43Z</time></trkpt>
<trkpt lat="50.35536" lon="4.15291"><ele>168.0</ele><time>2025-05-25T23:53:47Z</time></trkpt>
<trkpt lat="50.355366" lon="4.153147"><ele>167.9</ele><time>2025-05-25T23:53:51Z</time></trkpt>
<trkpt lat="50.355271" lon="4.153692"><ele>167.72</ele><time>2025-05-25T23:53:55Z</time></trkpt>
<trkpt lat="50.355252" lon="4.153987"><ele>167.19</ele><time>2025-05-25T23:53:59Z</time></trkpt>
<trkpt lat="50.35526" lon="4.154171"><ele>167.13</ele><time>2025-05-25T23:54:03Z</time></trkpt>
<trkpt lat="50.355404" lon="4.155163"><ele>167.09</ele><time>2025-05-25T23:54:07Z</time></trkpt>
<trkpt lat="50.355427" lon="4.155406"><ele>167.18</ele><time>2025-05-25T23:54:11Z</time></trkpt>
<trkpt lat="50.35544" lon="4.155964"><ele>166.95</ele><time>2025-05-25T23:54:15Z</time></trkpt>
<trkpt lat="50.35541" lon="4.156621"><ele>166.92</ele><time>2025-05-25T23:54:19Z</time></trkpt>
<trkpt lat="50.355432" lon="4.157096"><ele>166.01</ele><time>2025-05-25T23:54:23Z</time></trkpt>
<trkpt lat="50.355882" lon="4.159914"><ele>161.87</ele><time>2025-05-25T23:54:27Z</time></trkpt>
<trkpt lat="50.355951" lon="4.160515"><ele>163.28</ele><time>2025-05-25T23:54:31Z</time></trkpt>
<trkpt lat="50.355975" lon="4.161053"><ele>165.3</ele><time>2025-05-25T23:54:35Z</time></trkpt>
<trkpt lat="50.356039" lon="4.165682"><ele>170.54</ele><time>2025-05-25T23:54:39Z</time></trkpt>
<trkpt lat="50.356062" lon="4.166057"><ele>169.05</ele><time>2025-05-25T23:54:43Z</time></trkpt>
<trkpt lat="50.356129" lon="4.166649"><ele>168.94</ele><time>2025-05-25T23:54:47Z</time></trkpt>
<trkpt lat="50.356185" lon="4.1675"><ele>163.74</ele><time>2025-05-25T23:54:51Z</time></trkpt>
<trkpt lat="50.356182" lon="4.16782"><ele>161.53</ele><time>2025-05-25T23:54:55Z</time></trkpt>
<trkpt lat="50.356156" lon="4.16804"><ele>161.83</ele><time>2025-05-25T23:54:59Z</time></trkpt>
<trkpt lat="50.356088" lon="4.168352"><ele>163.08</ele><time>2025-05-25T23:55:03Z</time></trkpt>
<trkpt lat="50.355751" lon="4.169411"><ele>162.38</ele><time>2025-05-25T23:55:07Z</time></trkpt>
<trkpt lat="50.355686" lon="4.169547"><ele>162.53</ele><time>2025-05-25T23:55:11Z</time></trkpt>
<trkpt lat="50.355334" lon="4.170081"><ele>163.09</ele><time>2025-05-25T23:55:15Z</time></trkpt>
<trkpt lat="50.355126" lon="4.170524"><ele>164.89</ele><time>2025-05-25T23:55:19Z</time></trkpt>
<trkpt lat="50.355017" lon="4.170639"><ele>165.0</ele><time>2025-05-25T23:55:23Z</time></trkpt>
<trkpt lat="50.354656" lon="4.17079"><ele>166.24</ele><time>2025-05-25T23:55:27Z</time></trkpt>
<trkpt lat="50.354504" lon="4.170896"><ele>166.79</ele><time>2025-05-25T23:55:31Z</time></trkpt>
<trkpt lat="50.354418" lon="4.170995"><ele>167.09</ele><time>2025-05-25T23:55:35Z</time></trkpt>
<trkpt lat="50.354334" lon="4.171163"><ele>167.4</ele><time>2025-05-25T23:55:39Z</time></trkpt>
<trkpt lat="50.354263" lon="4.171421"><ele>167.77</ele><time>2025-05-25T23:55:43Z</time></trkpt>
<trkpt lat="50.354008" lon="4.172793"><ele>171.0</ele><time>2025-05-25T23:55:47Z</time></trkpt>
<trkpt lat="50.353857" lon="4.173771"><ele>170.58</ele><time>2025-05-25T23:55:51Z</time></trkpt>
<trkpt lat="50.35368" lon="4.174672"><ele>172.75</ele><time>2025-05-25T23:55:55Z</time></trkpt>
<trkpt lat="50.353425" lon="4.175761"><ele>169.66</ele><time>2025-05-25T23:55:59Z</time></trkpt>
<trkpt lat="50.353072" lon="4.177101"><ele>172.56</ele><time>2025-05-25T23:56:03Z</time></trkpt>
<trkpt lat="50.352936" lon="4.177796"><ele>173.6</ele><time>2025-05-25T23:56:07Z</time></trkpt>
<trkpt lat="50.352602" lon="4.179477"><ele>172.0</ele><time>2025-05-25T23:56:11Z</time></trkpt>
<trkpt lat="50.352426" lon="4.180228"><ele>171.78</ele><time>2025-05-25T23:56:15Z</time></trkpt>
<trkpt lat="50.351027" lon="4.18579"><ele>179.83</ele><time>2025-05-25T23:56:19Z</time></trkpt>
<trkpt lat="50.350689" lon="4.187084"><ele>184.48</ele><time>2025-05-25T23:56:23Z</time></trkpt>
<trkpt lat="50.3495" lon="4.190708"><ele>181.94</ele><time>2025-05-25T23:56:27Z</time></trkpt>
<trkpt lat="50.349335" lon="4.191382"><ele>178.04</ele><time>2025-05-25T23:56:31Z</time></trkpt>
<trkpt lat="50.34929" lon="4.191943"><ele>176.55</ele><time>2025-05-25T23:56:35Z</time></trkpt>
<trkpt lat="50.349254" lon="4.192828"><ele>177.05</ele><time>2025-05-25T23:56:39Z</time></trkpt>
<trkpt lat="50.349183" lon="4.193324"><ele>177.12</ele><time>2025-05-25T23:56:43Z</time></trkpt>
<trkpt lat="50.348818" lon="4.19473"><ele>176.02</ele><time>2025-05-25T23:56:47Z</time></trkpt>
<trkpt lat="50.348247" lon="4.197028"><ele>172.41</ele><time>2025-05-25T23:56:51Z</time></trkpt>
<trkpt lat="50.348213" lon="4.197288"><ele>173.0</ele><time>2025-05-25T23:56:55Z</time></trkpt>
<trkpt lat="50.348202" lon="4.197672"><ele>173.8</ele><time>2025-05-25T23:56:59Z</time></trkpt>
<trkpt lat="50.348263" lon="4.198517"><ele>174.0</ele><time>2025-05-25T23:57:03Z</time></trkpt>
<trkpt lat="50.348528" lon="4.200081"><ele>172.81</ele><time>2025-05-25T23:57:07Z</time></trkpt>
<trkpt lat="50.348659" lon="4.201388"><ele>170.82</ele><time>2025-05-25T23:57:11Z</time></trkpt>
<trkpt lat="50.348728" lon="4.201898"><ele>171.51</ele><time>2025-05-25T23:57:15Z</time></trkpt>
<trkpt lat="50.348911" lon="4.202806"><ele>172.92</ele><time>2025-05-25T23:57:19Z</time></trkpt>
<trkpt lat="50.348983" lon="4.203268"><ele>172.16</ele><time>2025-05-25T23:57:23Z</time></trkpt>
<trkpt lat="50.34899" lon="4.203591"><ele>172.0</ele><time>2025-05-25T23:57:27Z</time></trkpt>
<trkpt lat="50.348847" lon="4.205733"><ele>170.0</ele><time>2025-05-25T23:57:31Z</time></trkpt>
<trkpt lat="50.348823" lon="4.206464"><ele>169.3</ele><time>2025-05-25T23:57:35Z</time></trkpt>
<trkpt lat="50.348832" lon="4.206968"><ele>168.31</ele><time>2025-05-25T23:57:39Z</time></trkpt>
<trkpt lat="50.349011" lon="4.209727"><ele>162.57</ele><time>2025-05-25T23:57:43Z</time></trkpt>
<trkpt lat="50.349116" lon="4.210145"><ele>163.0</ele><time>2025-05-25T23:57:47Z</time></trkpt>
<trkpt lat="50.349261" lon="4.210474"><ele>164.05</ele><time>2025-05-25T23:57:51Z</time></trkpt>
<trkpt lat="50.349406" lon="4.210661"><ele>164.86</ele><time>2025-05-25T23:57:55Z</time></trkpt>
<trkpt lat="50.349722" lon="4.210983"><ele>164.92</ele><time>2025-05-25T23:57:59Z</time></trkpt>
<trkpt lat="50.349786" lon="4.211071"><ele>164.45</ele><time>2025-05-25T23:58:03Z</time></trkpt>
<trkpt lat="50.349844" lon="4.211197"><ele>164.44</ele><time>2025-05-25T23:58:07Z</time></trkpt>
<trkpt lat="50.349945" lon="4.211519"><ele>164.33</ele><time>2025-05-25T23:58:11Z</time></trkpt>
<trkpt lat="50.350102" lon="4.21224"><ele>164.37</ele><time>2025-05-25T23:58:14Z</time></trkpt>
<trkpt lat="50.3503" lon="4.213574"><ele>163.21</ele><time>2025-05-25T23:58:18Z</time></trkpt>
<trkpt lat="50.350392" lon="4.214707"><ele>162.82</ele><time>2025-05-25T23:58:22Z</time></trkpt>
<trkpt lat="50.35044" lon="4.214898"><ele>163.43</ele><time>2025-05-25T23:58:26Z</time></trkpt>
<trkpt lat="50.350487" lon="4.214982"><ele>163.74</ele><time>2025-05-25T23:58:30Z</time></trkpt>
<trkpt lat="50.350585" lon="4.215088"><ele>163.61</ele><time>2025-05-25T23:58:34Z</time></trkpt>
<trkpt lat="50.350704" lon="4.215123"><ele>163.26</ele><time>2025-05-25T23:58:38Z</time></trkpt>
<trkpt lat="50.350934" lon="4.215039"><ele>162.64</ele><time>2025-05-25T23:58:42Z</time></trkpt>
<trkpt lat="50.351266" lon="4.214855"><ele>161.73</ele><time>2025-05-25T23:58:46Z</time></trkpt>
<trkpt lat="50.351348" lon="4.214784"><ele>161.81</ele><time>2025-05-25T23:58:50Z</time></trkpt>
<trkpt lat="50.351425" lon="4.214372"><ele>162.0</ele><time>2025-05-25T23:58:54Z</time></trkpt>
<trkpt lat="50.351473" lon="4.214275"><ele>162.0</ele><time>2025-05-25T23:58:58Z</time></trkpt>
<trkpt lat="50.351597" lon="4.214148"><ele>162.0</ele><time>2025-05-25T23:59:02Z</time></trkpt>
<trkpt lat="50.351756" lon="4.214116"><ele>162.0</ele><time>2025-05-25T23:59:06Z</time></trkpt>
<trkpt lat="50.351875" lon="4.214182"><ele>161.96</ele><time>2025-05-25T23:59:10Z</time></trkpt>
<trkpt lat="50.351955" lon="4.214327"><ele>161.38</ele><time>2025-05-25T23:59:14Z</time></trkpt>
<trkpt lat="50.352152" lon="4.216011"><ele>158.98</ele><time>2025-05-25T23:59:18Z</time></trkpt>
<trkpt lat="50.352168" lon="4.216329"><ele>159.2</ele><time>2025-05-25T23:59:22Z</time></trkpt>
<trkpt lat="50.352085" lon="4.217052"><ele>159.61</ele><time>2025-05-25T23:59:26Z</time></trkpt>
<trkpt lat="50.3521" lon="4.217233"><ele>158.96</ele><time>2025-05-25T23:59:30Z</time></trkpt>
<trkpt lat="50.352132" lon="4.21741"><ele>158.32</ele><time>2025-05-25T23:59:34Z</time></trkpt>
<trkpt lat="50.352272" lon="4.217797"><ele>155.82</ele><time>2025-05-25T23:59:38Z</time></trkpt>
<trkpt lat="50.352703" lon="4.218693"><ele>154.19</ele><time>2025-05-25T23:59:42Z</time></trkpt>
<trkpt lat="50.352844" lon="4.21912"><ele>154.0</ele><time>2025-05-25T23:59:46Z</time></trkpt>
<trkpt lat="50.352917" lon="4.219564"><ele>153.28</ele><time>2025-05-25T23:59:50Z</time></trkpt>
<trkpt lat="50.352947" lon="4.220227"><ele>151.68</ele><time>2025-05-25T23:59:54Z</time></trkpt>
<trkpt lat="50.352983" lon="4.220525"><ele>152.17</ele><time>2025-05-25T23:59:58Z</time></trkpt>
<trkpt lat="50.353041" lon="4.220721"><ele>152.87</ele><time>2025-05-26T00:00:02Z</time></trkpt>
<trkpt lat="50.35309" lon="4.220831"><ele>153.0</ele><time>2025-05-26T00:00:06Z</time></trkpt>
<trkpt lat="50.353572" lon="4.221672"><ele>155.86</ele><time>2025-05-26T00:00:10Z</time></trkpt>
<trkpt lat="50.353636" lon="4.221834"><ele>156.0</ele><time>2025-05-26T00:00:14Z</time></trkpt>
<trkpt lat="50.353764" lon="4.22227"><ele>156.54</ele><time>2025-05-26T00:00:18Z</time></trkpt>
<trkpt lat="50.353798" lon="4.222436"><ele>156.85</ele><time>2025-05-26T00:00:22Z</time></trkpt>
<trkpt lat="50.353848" lon="4.222972"><ele>157.85</ele><time>2025-05-26T00:00:26Z</time></trkpt>
<trkpt lat="50.353862" lon="4.223705"><ele>157.93</ele><time>2025-05-26T00:00:30Z</time></trkpt>
<trkpt lat="50.353898" lon="4.22424"><ele>159.29</ele><time>2025-05-26T00:00:34Z</time></trkpt>
<trkpt lat="50.353866" lon="4.225081"><ele>160.08</ele><time>2025-05-26T00:00:38Z</time></trkpt>
<trkpt lat="50.353868" lon="4.225481"><ele>160.75</ele><time>2025-05-26T00:00:42Z</time></trkpt>
<trkpt lat="50.353883" lon="4.226184"><ele>163.0</ele><time>2025-05-26T00:00:46Z</time></trkpt>
<trkpt lat="50.353922" lon="4.226638"><ele>163.0</ele><time>2025-05-26T00:00:50Z</time></trkpt>
<trkpt lat="50.354062" lon="4.22731"><ele>162.62</ele><time>2025-05-26T00:00:54Z</time></trkpt>
<trkpt lat="50.354262" lon="4.228059"><ele>163.35</ele><time>2025-05-26T00:00:58Z</time></trkpt>
<trkpt lat="50.354354" lon="4.228292"><ele>163.38</ele><time>2025-05-26T00:01:02Z</time></trkpt>
<trkpt lat="50.35451" lon="4.228569"><ele>162.8</ele><time>2025-05-26T00:01:06Z</time></trkpt>
<trkpt lat="50.354757" lon="4.228995"><ele>161.0</ele><time>2025-05-26T00:01:10Z</time></trkpt>
<trkpt lat="50.35488" lon="4.229147"><ele>161.0</ele><time>2025-05-26T00:01:14Z</time></trkpt>
<trkpt lat="50.355159" lon="4.229665"><ele>160.43</ele><time>2025-05-26T00:01:18Z</time></trkpt>
<trkpt lat="50.355208" lon="4.229794"><ele>160.51</ele><time>2025-05-26T00:01:22Z</time></trkpt>
<trkpt lat="50.355236" lon="4.229932"><ele>160.9</ele><time>2025-05-26T00:01:26Z</time></trkpt>
<trkpt lat="50.355218" lon="4.230171"><ele>161.7</ele><time>2025-05-26T00:01:30Z</time></trkpt>
<trkpt lat="50.354641" lon="4.231343"><ele>159.71</ele><time>2025-05-26T00:01:34Z</time></trkpt>
<trkpt lat="50.354622" lon="4.231424"><ele>159.6</ele><time>2025-05-26T00:01:38Z</time></trkpt>
<trkpt lat="50.354622" lon="4.231518"><ele>159.47</ele><time>2025-05-26T00:01:42Z</time></trkpt>
<trkpt lat="50.35467" lon="4.231681"><ele>159.58</ele><time>2025-05-26T00:01:46Z</time></trkpt>
<trkpt lat="50.355121" lon="4.232351"><ele>157.77</ele><time>2025-05-26T00:01:50Z</time></trkpt>
<trkpt lat="50.355891" lon="4.233568"><ele>153.0</ele><time>2025-05-26T00:01:54Z</time></trkpt>
<trkpt lat="50.356647" lon="4.234902"><ele>154.21</ele><time>2025-05-26T00:01:58Z</time></trkpt>
<trkpt lat="50.357059" lon="4.235731"><ele>160.81</ele><time>2025-05-26T00:02:02Z</time></trkpt>
<trkpt lat="50.354066" lon="4.240051"><ele>146.36</ele><time>2025-05-26T00:02:06Z</time></trkpt>
<trkpt lat="50.353888" lon="4.240349"><ele>147.0</ele><time>2025-05-26T00:02:10Z</time></trkpt>
<trkpt lat="50.353202" lon="4.241631"><ele>143.53</ele><time>2025-05-26T00:02:14Z</time></trkpt>
<trkpt lat="50.353101" lon="4.241851"><ele>143.16</ele><time>2025-05-26T00:02:18Z</time></trkpt>
<trkpt lat="50.353025" lon="4.242153"><ele>143.75</ele><time>2025-05-26T00:02:21Z</time></trkpt>
<trkpt lat="50.352974" lon="4.242513"><ele>145.04</ele><time>2025-05-26T00:02:25Z</time></trkpt>
<trkpt lat="50.352907" lon="4.243412"><ele>148.15</ele><time>2025-05-26T00:02:29Z</time></trkpt>
<trkpt lat="50.352953" lon="4.244406"><ele>153.46</ele><time>2025-05-26T00:02:33Z</time></trkpt>
<trkpt lat="50.35303" lon="4.244658"><ele>152.49</ele><time>2025-05-26T00:02:36Z</time></trkpt>
<trkpt lat="50.35336" lon="4.245343"><ele>150.98</ele><time>2025-05-26T00:02:40Z</time></trkpt>
<trkpt lat="50.353625" lon="4.245744"><ele>153.78</ele><time>2025-05-26T00:02:44Z</time></trkpt>
<trkpt lat="50.353676" lon="4.245845"><ele>154.52</ele><time>2025-05-26T00:02:48Z</time></trkpt>
<trkpt lat="50.353736" lon="4.24608"><ele>156.19</ele><time>2025-05-26T00:02:52Z</time></trkpt>
<trkpt lat="50.353751" lon="4.246249"><ele>156.76</ele><time>2025-05-26T00:02:55Z</time></trkpt>
<trkpt lat="50.353756" lon="4.246804"><ele>156.41</ele><time>2025-05-26T00:02:59Z</time></trkpt>
<trkpt lat="50.353741" lon="4.247307"><ele>152.46</ele><time>2025-05-26T00:03:03Z</time></trkpt>
<trkpt lat="50.353694" lon="4.247704"><ele>150.35</ele><time>2025-05-26T00:03:07Z</time></trkpt>
<trkpt lat="50.353494" lon="4.248496"><ele>149.75</ele><time>2025-05-26T00:03:11Z</time></trkpt>
<trkpt lat="50.353331" lon="4.249051"><ele>150.98</ele><time>2025-05-26T00:03:14Z</time></trkpt>
<trkpt lat="50.35208" lon="4.251887"><ele>153.49</ele><time>2025-05-26T00:03:18Z</time></trkpt>
<trkpt lat="50.351816" lon="4.252422"><ele>154.38</ele><time>2025-05-26T00:03:22Z</time></trkpt>
<trkpt lat="50.351323" lon="4.253262"><ele>153.26</ele><time>2025-05-26T00:03:26Z</time></trkpt>
<trkpt lat="50.351077" lon="4.253822"><ele>152.3</ele><time>2025-05-26T00:03:29Z</time></trkpt>
<trkpt lat="50.350312" lon="4.25608"><ele>152.36</ele><time>2025-05-26T00:03:33Z</time></trkpt>
<trkpt lat="50.350036" lon="4.256986"><ele>150.09</ele><time>2025-05-26T00:03:37Z</time></trkpt>
<trkpt lat="50.349972" lon="4.257359"><ele>148.36</ele><time>2025-05-26T00:03:41Z</time></trkpt>
<trkpt lat="50.349818" lon="4.258712"><ele>143.86</ele><time>2025-05-26T00:03:45Z</time></trkpt>
<trkpt lat="50.349618" lon="4.258813"><ele>143.27</ele><time>2025-05-26T00:03:50Z</time></trkpt>
<trkpt lat="50.347125" lon="4.259957"><ele>124.5</ele><time>2025-05-26T00:03:56Z</time></trkpt>
<trkpt lat="50.347063" lon="4.260061"><ele>124.43</ele><time>2025-05-26T00:04:01Z</time></trkpt>
<trkpt lat="50.346629" lon="4.261222"><ele>123.86</ele><time>2025-05-26T00:04:07Z</time></trkpt>
<trkpt lat="50.346247" lon="4.262934"><ele>124.76</ele><time>2025-05-26T00:04:12Z</time></trkpt>
<trkpt lat="50.346092" lon="4.263533"><ele>124.93</ele><time>2025-05-26T00:04:18Z</time></trkpt>
<trkpt lat="50.346003" lon="4.26382"><ele>124.44</ele><time>2025-05-26T00:04:23Z</time></trkpt>
<trkpt lat="50.345908" lon="4.264071"><ele>125.56</ele><time>2025-05-26T00:04:29Z</time></trkpt>
<trkpt lat="50.345683" lon="4.26458"><ele>125.37</ele><time>2025-05-26T00:04:34Z</time></trkpt>
<trkpt lat="50.34556" lon="4.264951"><ele>124.06</ele><time>2025-05-26T00:04:40Z</time></trkpt>
<trkpt lat="50.345473" lon="4.265157"><ele>122.81</ele><time>2025-05-26T00:04:45Z</time></trkpt>
<trkpt lat="50.345379" lon="4.265091"><ele>121.46</ele><time>2025-05-26T00:04:52Z</time></trkpt>
<trkpt lat="50.34528" lon="4.26503"><ele>120.03</ele><time>2025-05-26T00:05:00Z</time></trkpt>
<trkpt lat="50.345233" lon="4.26499"><ele>119.64</ele><time>2025-05-26T00:05:07Z</time></trkpt>
<trkpt lat="50.34411" lon="4.264288"><ele>120.56</ele><time>2025-05-26T00:05:14Z</time></trkpt>
<trkpt lat="50.343832" lon="4.264025"><ele>121.81</ele><time>2025-05-26T00:05:21Z</time></trkpt>
<trkpt lat="50.342996" lon="4.263473"><ele>128.43</ele><time>2025-05-26T00:05:28Z</time></trkpt>
<trkpt lat="50.342131" lon="4.263146"><ele>134.34</ele><time>2025-05-26T00:05:35Z</time></trkpt>
<trkpt lat="50.342058" lon="4.26315"><ele>135.1</ele><time>2025-05-26T00:05:42Z</time></trkpt>
<trkpt lat="50.341935" lon="4.263229"><ele>135.87</ele><time>2025-05-26T00:05:49Z</time></trkpt>
<trkpt lat="50.341312" lon="4.263942"><ele>139.66</ele><time>2025-05-26T00:05:56Z</time></trkpt>
<trkpt lat="50.3412" lon="4.264141"><ele>142.08</ele><time>2025-05-26T00:06:03Z</time></trkpt>
<trkpt lat="50.34091" lon="4.264897"><ele>146.63</ele><time>2025-05-26T00:06:10Z</time></trkpt>
<trkpt lat="50.340581" lon="4.265671"><ele>149.1</ele><time>2025-05-26T00:06:17Z</time></trkpt>
<trkpt lat="50.339986" lon="4.266924"><ele>160.07</ele><time>2025-05-26T00:06:24Z</time></trkpt>
<trkpt lat="50.339788" lon="4.267209"><ele>159.05</ele><time>2025-05-26T00:06:32Z</time></trkpt>
<trkpt lat="50.339565" lon="4.267428"><ele>159.74</ele><time>2025-05-26T00:06:39Z</time></trkpt>
<trkpt lat="50.339346" lon="4.267553"><ele>160.9</ele><time>2025-05-26T00:06:46Z</time></trkpt>
<trkpt lat="50.339247" lon="4.267579"><ele>161.71</ele><time>2025-05-26T00:06:53Z</time></trkpt>
<trkpt lat="50.338995" lon="4.267564"><ele>163.61</ele><time>2025-05-26T00:07:00Z</time></trkpt>
<trkpt lat="50.338644" lon="4.267433"><ele>165.74</ele><time>2025-05-26T00:07:07Z</time></trkpt>
<trkpt lat="50.337617" lon="4.266879"><ele>166.58</ele><time>2025-05-26T00:07:14Z</time></trkpt>
<trkpt lat="50.33539" lon="4.265604"><ele>164.07</ele><time>2025-05-26T00:07:21Z</time></trkpt>
<trkpt lat="50.334058" lon="4.266643"><ele>163.0</ele><time>2025-05-26T00:07:37Z</time></trkpt>
<trkpt lat="50.333949" lon="4.266748"><ele>163.0</ele><time>2025-05-26T00:07:53Z</time></trkpt>
<trkpt lat="50.333774" lon="4.266984"><ele>163.85</ele><time>2025-05-26T00:08:09Z</time></trkpt>
<trkpt lat="50.332838" lon="4.268565"><ele>165.21</ele><time>2025-05-26T00:08:25Z</time></trkpt>
<trkpt lat="50.331709" lon="4.270364"><ele>165.0</ele><time>2025-05-26T00:08:41Z</time></trkpt>
<trkpt lat="50.3307" lon="4.271913"><ele>160.94</ele><time>2025-05-26T00:08:57Z</time></trkpt>
<trkpt lat="50.330509" lon="4.272147"><ele>161.73</ele><time>2025-05-26T00:09:13Z</time></trkpt>
<trkpt lat="50.326475" lon="4.275531"><ele>168.6</ele><time>2025-05-26T00:09:28Z</time></trkpt>
<trkpt lat="50.324162" lon="4.277778"><ele>174.94</ele><time>2025-05-26T00:09:44Z</time></trkpt>
<trkpt lat="50.323878" lon="4.278021"><ele>172.04</ele><time>2025-05-26T00:10:00Z</time></trkpt>
<trkpt lat="50.322085" lon="4.279437"><ele>170.02</ele><time>2025-05-26T00:10:16Z</time></trkpt>
<trkpt lat="50.321897" lon="4.279532"><ele>169.91</ele><time>2025-05-26T00:10:32Z</time></trkpt>
<trkpt lat="50.321356" lon="4.279651"><ele>172.03</ele><time>2025-05-26T00:10:48Z</time></trkpt>
<trkpt lat="50.321143" lon="4.279759"><ele>171.87</ele><time>2025-05-26T00:11:04Z</time></trkpt>
<trkpt lat="50.319314" lon="4.281357"><ele>175.0</ele><time>2025-05-26T00:11:20Z</time></trkpt>
<trkpt lat="50.319023" lon="4.281695"><ele>174.95</ele><time>2025-05-26T00:11:36Z</time></trkpt>
<trkpt lat="50.316017" lon="4.285601"><ele>182.34</ele><time>2025-05-26T00:11:52Z</time></trkpt>
<trkpt lat="50.315885" lon="4.285752"><ele>182.81</ele><time>2025-05-26T00:12:08Z</time></trkpt>
<trkpt lat="50.31562" lon="4.285987"><ele>183.43</ele><time>2025-05-26T00:12:24Z</time></trkpt>
<trkpt lat="50.315441" lon="4.285939"><ele>183.63</ele><time>2025-05-26T00:12:25Z</time></trkpt>
<trkpt lat="50.315216" lon="4.285347"><ele>184.0</ele><time>2025-05-26T00:12:27Z</time></trkpt>
<trkpt lat="50.315052" lon="4.285247"><ele>184.0</ele><time>2025-05-26T00:12:34Z</time></trkpt>
<trkpt lat="50.314939" lon="4.285214"><ele>184.0</ele><time>2025-05-26T00:12:41Z</time></trkpt>
<trkpt lat="50.31468" lon="4.285295"><ele>183.99</ele><time>2025-05-26T00:12:48Z</time></trkpt>
<trkpt lat="50.312006" lon="4.286402"><ele>175.27</ele><time>2025-05-26T00:12:55Z</time></trkpt>
<trkpt lat="50.311625" lon="4.28659"><ele>174.46</ele><time>2025-05-26T00:13:02Z</time></trkpt>
<trkpt lat="50.310436" lon="4.287402"><ele>168.72</ele><time>2025-05-26T00:13:09Z</time></trkpt>
<trkpt lat="50.310341" lon="4.287424"><ele>168.44</ele><time>2025-05-26T00:13:16Z</time></trkpt>
<trkpt lat="50.309891" lon="4.287412"><ele>167.61</ele><time>2025-05-26T00:13:23Z</time></trkpt>
<trkpt lat="50.309596" lon="4.287386"><ele>166.28</ele><time>2025-05-26T00:13:30Z</time></trkpt>
<trkpt lat="50.309213" lon="4.287304"><ele>164.28</ele><time>2025-05-26T00:13:37Z</time></trkpt>
<trkpt lat="50.309051" lon="4.287304"><ele>164.41</ele><time>2025-05-26T00:13:44Z</time></trkpt>
<trkpt lat="50.308892" lon="4.287382"><ele>164.99</ele><time>2025-05-26T00:13:51Z</time></trkpt>
<trkpt lat="50.308812" lon="4.287472"><ele>165.0</ele><time>2025-05-26T00:13:58Z</time></trkpt>
<trkpt lat="50.308717" lon="4.287626"><ele>164.55</ele><time>2025-05-26T00:14:05Z</time></trkpt>
<trkpt lat="50.307978" lon="4.288301"><ele>167.44</ele><time>2025-05-26T00:14:12Z</time></trkpt>
<trkpt lat="50.307628" lon="4.288743"><ele>170.14</ele><time>2025-05-26T00:14:19Z</time></trkpt>
<trkpt lat="50.306945" lon="4.289339"><ele>167.76</ele><time>2025-05-26T00:14:26Z</time></trkpt>
<trkpt lat="50.304382" lon="4.290837"><ele>171.01</ele><time>2025-05-26T00:14:33Z</time></trkpt>
<trkpt lat="50.302043" lon="4.292404"><ele>169.65</ele><time>2025-05-26T00:14:40Z</time></trkpt>
<trkpt lat="50.301708" lon="4.292558"><ele>168.94</ele><time>2025-05-26T00:14:46Z</time></trkpt>
<trkpt lat="50.297797" lon="4.29334"><ele>161.07</ele><time>2025-05-26T00:14:53Z</time></trkpt>
<trkpt lat="50.297466" lon="4.293379"><ele>161.12</ele><time>2025-05-26T00:15:00Z</time></trkpt>
<trkpt lat="50.290081" lon="4.293049"><ele>168.02</ele><time>2025-05-26T00:15:07Z</time></trkpt>
<trkpt lat="50.289881" lon="4.293759"><ele>167.43</ele><time>2025-05-26T00:15:14Z</time></trkpt>
<trkpt lat="50.289803" lon="4.293972"><ele>167.71</ele><time>2025-05-26T00:15:21Z</time></trkpt>
<trkpt lat="50.289201" lon="4.295336"><ele>171.03</ele><time>2025-05-26T00:15:28Z</time></trkpt>
<trkpt lat="50.289093" lon="4.295631"><ele>171.8</ele><time>2025-05-26T00:15:34Z</time></trkpt>
<trkpt lat="50.28886" lon="4.296368"><ele>172.21</ele><time>2025-05-26T00:15:41Z</time></trkpt>
<trkpt lat="50.288756" lon="4.29665"><ele>172.02</ele><time>2025-05-26T00:15:48Z</time></trkpt>
<trkpt lat="50.288401" lon="4.297481"><ele>174.76</ele><time>2025-05-26T00:15:54Z</time></trkpt>
<trkpt lat="50.28797" lon="4.298745"><ele>172.85</ele><time>2025-05-26T00:16:01Z</time></trkpt>
<trkpt lat="50.287778" lon="4.299247"><ele>171.71</ele><time>2025-05-26T00:16:08Z</time></trkpt>
<trkpt lat="50.287589" lon="4.29957"><ele>170.32</ele><time>2025-05-26T00:16:15Z</time></trkpt>
<trkpt lat="50.287091" lon="4.300286"><ele>167.98</ele><time>2025-05-26T00:16:21Z</time></trkpt>
<trkpt lat="50.287005" lon="4.300449"><ele>167.87</ele><time>2025-05-26T00:16:28Z</time></trkpt>
<trkpt lat="50.286694" lon="4.301268"><ele>167.9</ele><time>2025-05-26T00:16:35Z</time></trkpt>
<trkpt lat="50.286649" lon="4.30122"><ele>168.06</ele><time>2025-05-26T00:16:35Z</time></trkpt>
<trkpt lat="50.286138" lon="4.302047"><ele>169.63</ele><time>2025-05-26T00:16:40Z</time></trkpt>
<trkpt lat="50.285026" lon="4.303776"><ele>167.41</ele><time>2025-05-26T00:16:45Z</time></trkpt>
<trkpt lat="50.284588" lon="4.304487"><ele>167.0</ele><time>2025-05-26T00:16:49Z</time></trkpt>
<trkpt lat="50.28433" lon="4.304864"><ele>166.79</ele><time>2025-05-26T00:16:54Z</time></trkpt>
<trkpt lat="50.283946" lon="4.305357"><ele>167.02</ele><time>2025-05-26T00:16:59Z</time></trkpt>
<trkpt lat="50.283735" lon="4.305554"><ele>167.44</ele><time>2025-05-26T00:17:04Z</time></trkpt>
<trkpt lat="50.283547" lon="4.305686"><ele>166.54</ele><time>2025-05-26T00:17:09Z</time></trkpt>
<trkpt lat="50.282972" lon="4.306028"><ele>163.19</ele><time>2025-05-26T00:17:13Z</time></trkpt>
<trkpt lat="50.282775" lon="4.30621"><ele>161.99</ele><time>2025-05-26T00:17:18Z</time></trkpt>
<trkpt lat="50.282677" lon="4.306329"><ele>161.63</ele><time>2025-05-26T00:17:23Z</time></trkpt>
<trkpt lat="50.282608" lon="4.306449"><ele>161.34</ele><time>2025-05-26T00:17:28Z</time></trkpt>
<trkpt lat="50.282542" lon="4.306638"><ele>160.52</ele><time>2025-05-26T00:17:32Z</time></trkpt>
<trkpt lat="50.282485" lon="4.306865"><ele>160.57</ele><time>2025-05-26T00:17:37Z</time></trkpt>
<trkpt lat="50.282467" lon="4.307203"><ele>161.57</ele><time>2025-05-26T00:17:42Z</time></trkpt>
<trkpt lat="50.282478" lon="4.307901"><ele>161.92</ele><time>2025-05-26T00:17:47Z</time></trkpt>
<trkpt lat="50.282488" lon="4.30838"><ele>161.92</ele><time>2025-05-26T00:17:52Z</time></trkpt>
<trkpt lat="50.282509" lon="4.308662"><ele>162.04</ele><time>2025-05-26T00:17:56Z</time></trkpt>
<trkpt lat="50.282598" lon="4.309175"><ele>162.34</ele><time>2025-05-26T00:18:01Z</time></trkpt>
<trkpt lat="50.282684" lon="4.309396"><ele>162.12</ele><time>2025-05-26T00:18:06Z</time></trkpt>
<trkpt lat="50.28282" lon="4.309656"><ele>160.93</ele><time>2025-05-26T00:18:11Z</time></trkpt>
<trkpt lat="50.282984" lon="4.309914"><ele>158.82</ele><time>2025-05-26T00:18:15Z</time></trkpt>
<trkpt lat="50.283389" lon="4.310432"><ele>157.65</ele><time>2025-05-26T00:18:20Z</time></trkpt>
<trkpt lat="50.283652" lon="4.310738"><ele>158.29</ele><time>2025-05-26T00:18:25Z</time></trkpt>
<trkpt lat="50.284852" lon="4.311993"><ele>161.85</ele><time>2025-05-26T00:18:30Z</time></trkpt>
<trkpt lat="50.284344" lon="4.312679"><ele>158.72</ele><time>2025-05-26T00:18:38Z</time></trkpt>
<trkpt lat="50.284253" lon="4.312773"><ele>158.71</ele><time>2025-05-26T00:18:47Z</time></trkpt>
<trkpt lat="50.284038" lon="4.312936"><ele>159.46</ele><time>2025-05-26T00:18:55Z</time></trkpt>
<trkpt lat="50.283855" lon="4.313168"><ele>159.93</ele><time>2025-05-26T00:19:04Z</time></trkpt>
<trkpt lat="50.282433" lon="4.315114"><ele>166.76</ele><time>2025-05-26T00:19:12Z</time></trkpt>
<trkpt lat="50.281989" lon="4.315787"><ele>167.84</ele><time>2025-05-26T00:19:21Z</time></trkpt>
<trkpt lat="50.281828" lon="4.315982"><ele>167.04</ele><time>2025-05-26T00:19:29Z</time></trkpt>
<trkpt lat="50.281299" lon="4.3164"><ele>163.99</ele><time>2025-05-26T00:19:38Z</time></trkpt>
<trkpt lat="50.280619" lon="4.316833"><ele>163.09</ele><time>2025-05-26T00:19:46Z</time></trkpt>
<trkpt lat="50.280489" lon="4.316991"><ele>162.83</ele><time>2025-05-26T00:19:55Z</time></trkpt>
<trkpt lat="50.279791" lon="4.318089"><ele>160.13</ele><time>2025-05-26T00:20:03Z</time></trkpt>
<trkpt lat="50.279644" lon="4.318395"><ele>159.0</ele><time>2025-05-26T00:20:12Z</time></trkpt>
<trkpt lat="50.27861" lon="4.318838"><ele>160.83</ele><time>2025-05-26T00:20:20Z</time></trkpt>
<trkpt lat="50.278228" lon="4.319024"><ele>162.89</ele><time>2025-05-26T00:20:29Z</time></trkpt>
<trkpt lat="50.278111" lon="4.319125"><ele>162.95</ele><time>2025-05-26T00:20:38Z</time></trkpt>
<trkpt lat="50.277597" lon="4.319749"><ele>164.21</ele><time>2025-05-26T00:20:47Z</time></trkpt>
<trkpt lat="50.277453" lon="4.319899"><ele>164.7</ele><time>2025-05-26T00:20:55Z</time></trkpt>
<trkpt lat="50.27661" lon="4.320595"><ele>165.8</ele><time>2025-05-26T00:21:04Z</time></trkpt>
<trkpt lat="50.276283" lon="4.32082"><ele>165.76</ele><time>2025-05-26T00:21:13Z</time></trkpt>
<trkpt lat="50.275086" lon="4.321497"><ele>168.77</ele><time>2025-05-26T00:21:22Z</time></trkpt>
<trkpt lat="50.273225" lon="4.322771"><ele>172.37</ele><time>2025-05-26T00:21:30Z</time></trkpt>
<trkpt lat="50.27197" lon="4.323629"><ele>176.06</ele><time>2025-05-26T00:21:39Z</time></trkpt>
<trkpt lat="50.271454" lon="4.324067"><ele>179.49</ele><time>2025-05-26T00:21:48Z</time></trkpt>
<trkpt lat="50.270854" lon="4.324641"><ele>182.0</ele><time>2025-05-26T00:21:57Z</time></trkpt>
<trkpt lat="50.270699" lon="4.324839"><ele>182.42</ele><time>2025-05-26T00:22:06Z</time></trkpt>
<trkpt lat="50.269863" lon="4.326173"><ele>184.49</ele><time>2025-05-26T00:22:14Z</time></trkpt>
<trkpt lat="50.269717" lon="4.326436"><ele>184.85</ele><time>2025-05-26T00:22:23Z</time></trkpt>
<trkpt lat="50.269402" lon="4.327098"><ele>184.53</ele><time>2025-05-26T00:22:32Z</time></trkpt>
<trkpt lat="50.269166" lon="4.327692"><ele>184.31</ele><time>2025-05-26T00:22:41Z</time></trkpt>
<trkpt lat="50.269087" lon="4.327938"><ele>184.0</ele><time>2025-05-26T00:22:49Z</time></trkpt>
<trkpt lat="50.268383" lon="4.33087"><ele>181.95</ele><time>2025-05-26T00:22:58Z</time></trkpt>
<trkpt lat="50.267875" lon="4.331962"><ele>184.24</ele><time>2025-05-26T00:23:06Z</time></trkpt>
<trkpt lat="50.266476" lon="4.334704"><ele>185.0</ele><time>2025-05-26T00:23:14Z</time></trkpt>
<trkpt lat="50.265948" lon="4.335706"><ele>186.41</ele><time>2025-05-26T00:23:22Z</time></trkpt>
<trkpt lat="50.265679" lon="4.336169"><ele>187.0</ele><time>2025-05-26T00:23:29Z</time></trkpt>
<trkpt lat="50.265078" lon="4.33705"><ele>188.38</ele><time>2025-05-26T00:23:37Z</time></trkpt>
<trkpt lat="50.264967" lon="4.337245"><ele>189.0</ele><time>2025-05-26T00:23:45Z</time></trkpt>
<trkpt lat="50.264808" lon="4.337623"><ele>189.44</ele><time>2025-05-26T00:23:53Z</time></trkpt>
<trkpt lat="50.264468" lon="4.338796"><ele>193.58</ele><time>2025-05-26T00:24:00Z</time></trkpt>
<trkpt lat="50.26439" lon="4.339024"><ele>194.19</ele><time>2025-05-26T00:24:08Z</time></trkpt>
<trkpt lat="50.264277" lon="4.339175"><ele>194.6</ele><time>2025-05-26T00:24:16Z</time></trkpt>
<trkpt lat="50.264282" lon="4.339386"><ele>194.45</ele><time>2025-05-26T00:24:21Z</time></trkpt>
<trkpt lat="50.264257" lon="4.339618"><ele>194.33</ele><time>2025-05-26T00:24:26Z</time></trkpt>
<trkpt lat="50.26338" lon="4.344376"><ele>188.08</ele><time>2025-05-26T00:24:32Z</time></trkpt>
<trkpt lat="50.263386" lon="4.345078"><ele>188.23</ele><time>2025-05-26T00:24:37Z</time></trkpt>
<trkpt lat="50.263442" lon="4.347156"><ele>186.63</ele><time>2025-05-26T00:24:42Z</time></trkpt>
<trkpt lat="50.263581" lon="4.351825"><ele>187.0</ele><time>2025-05-26T00:24:47Z</time></trkpt>
<trkpt lat="50.263559" lon="4.352304"><ele>185.71</ele><time>2025-05-26T00:24:53Z</time></trkpt>
<trkpt lat="50.262836" lon="4.358446"><ele>178.91</ele><time>2025-05-26T00:24:58Z</time></trkpt>
<trkpt lat="50.262716" lon="4.358975"><ele>178.0</ele><time>2025-05-26T00:25:03Z</time></trkpt>
<trkpt lat="50.262589" lon="4.359405"><ele>178.58</ele><time>2025-05-26T00:25:08Z</time></trkpt>
<trkpt lat="50.262142" lon="4.360315"><ele>178.96</ele><time>2025-05-26T00:25:14Z</time></trkpt>
<trkpt lat="50.26211" lon="4.360422"><ele>178.79</ele><time>2025-05-26T00:25:19Z</time></trkpt>
<trkpt lat="50.262101" lon="4.360617"><ele>178.56</ele><time>2025-05-26T00:25:24Z</time></trkpt>
<trkpt lat="50.262132" lon="4.360717"><ele>178.67</ele><time>2025-05-26T00:25:29Z</time></trkpt>
<trkpt lat="50.26218" lon="4.360804"><ele>178.85</ele><time>2025-05-26T00:25:35Z</time></trkpt>
<trkpt lat="50.263422" lon="4.362767"><ele>177.03</ele><time>2025-05-26T00:25:40Z</time></trkpt>
<trkpt lat="50.263495" lon="4.362926"><ele>177.0</ele><time>2025-05-26T00:25:45Z</time></trkpt>
<trkpt lat="50.263604" lon="4.363292"><ele>176.98</ele><time>2025-05-26T00:25:50Z</time></trkpt>
<trkpt lat="50.26301" lon="4.364171"><ele>174.18</ele><time>2025-05-26T00:25:52Z</time></trkpt>
<trkpt lat="50.262886" lon="4.364322"><ele>175.17</ele><time>2025-05-26T00:25:54Z</time></trkpt>
<trkpt lat="50.262816" lon="4.364475"><ele>175.97</ele><time>2025-05-26T00:25:56Z</time></trkpt>
<trkpt lat="50.262796" lon="4.364613"><ele>176.54</ele><time>2025-05-26T00:25:57Z</time></trkpt>
<trkpt lat="50.262816" lon="4.364918"><ele>178.18</ele><time>2025-05-26T00:25:59Z</time></trkpt>
<trkpt lat="50.262861" lon="4.365093"><ele>178.5</ele><time>2025-05-26T00:26:01Z</time></trkpt>
<trkpt lat="50.262921" lon="4.365248"><ele>178.43</ele><time>2025-05-26T00:26:03Z</time></trkpt>
<trkpt lat="50.26332" lon="4.366003"><ele>178.66</ele><time>2025-05-26T00:26:05Z</time></trkpt>
<trkpt lat="50.263363" lon="4.366157"><ele>178.68</ele><time>2025-05-26T00:26:06Z</time></trkpt>
<trkpt lat="50.263351" lon="4.366447"><ele>178.61</ele><time>2025-05-26T00:26:08Z</time></trkpt>
<trkpt lat="50.263415" lon="4.367724"><ele>175.14</ele><time>2025-05-26T00:26:10Z</time></trkpt>
<trkpt lat="50.263467" lon="4.36813"><ele>175.27</ele><time>2025-05-26T00:26:12Z</time></trkpt>
<trkpt lat="50.263563" lon="4.368504"><ele>176.0</ele><time>2025-05-26T00:26:14Z</time></trkpt>
<trkpt lat="50.263749" lon="4.369071"><ele>178.15</ele><time>2025-05-26T00:26:15Z</time></trkpt>
<trkpt lat="50.263937" lon="4.3699"><ele>182.75</ele><time>2025-05-26T00:26:17Z</time></trkpt>
<trkpt lat="50.263967" lon="4.370089"><ele>183.28</ele><time>2025-05-26T00:26:19Z</time></trkpt>
<trkpt lat="50.263992" lon="4.371159"><ele>183.46</ele><time>2025-05-26T00:26:21Z</time></trkpt>
<trkpt lat="50.263979" lon="4.371372"><ele>182.74</ele><time>2025-05-26T00:26:23Z</time></trkpt>
<trkpt lat="50.263944" lon="4.371544"><ele>181.79</ele><time>2025-05-26T00:26:24Z</time></trkpt>
<trkpt lat="50.261571" lon="4.371"><ele>183.81</ele><time>2025-05-26T00:26:29Z</time></trkpt>
<trkpt lat="50.261281" lon="4.370997"><ele>183.95</ele><time>2025-05-26T00:26:34Z</time></trkpt>
<trkpt lat="50.26098" lon="4.371038"><ele>184.21</ele><time>2025-05-26T00:26:39Z</time></trkpt>
<trkpt lat="50.260681" lon="4.371155"><ele>185.55</ele><time>2025-05-26T00:26:44Z</time></trkpt>
<trkpt lat="50.260307" lon="4.37138"><ele>186.89</ele><time>2025-05-26T00:26:49Z</time></trkpt>
<trkpt lat="50.259604" lon="4.371895"><ele>188.85</ele><time>2025-05-26T00:26:54Z</time></trkpt>
<trkpt lat="50.258372" lon="4.372869"><ele>195.0</ele><time>2025-05-26T00:26:59Z</time></trkpt>
<trkpt lat="50.258189" lon="4.373054"><ele>195.52</ele><time>2025-05-26T00:27:04Z</time></trkpt>
<trkpt lat="50.258018" lon="4.373269"><ele>196.13</ele><time>2025-05-26T00:27:08Z</time></trkpt>
<trkpt lat="50.256993" lon="4.374643"><ele>199.82</ele><time>2025-05-26T00:27:13Z</time></trkpt>
<trkpt lat="50.256737" lon="4.374924"><ele>200.54</ele><time>2025-05-26T00:27:18Z</time></trkpt>
<trkpt lat="50.256523" lon="4.375101"><ele>201.19</ele><time>2025-05-26T00:27:23Z</time></trkpt>
<trkpt lat="50.256306" lon="4.37524"><ele>202.2</ele><time>2025-05-26T00:27:28Z</time></trkpt>
<trkpt lat="50.254719" lon="4.376119"><ele>208.01</ele><time>2025-05-26T00:27:33Z</time></trkpt>
<trkpt lat="50.254255" lon="4.376434"><ele>208.95</ele><time>2025-05-26T00:27:38Z</time></trkpt>
<trkpt lat="50.252467" lon="4.377936"><ele>198.38</ele><time>2025-05-26T00:27:43Z</time></trkpt>
<trkpt lat="50.251597" lon="4.378687"><ele>199.5</ele><time>2025-05-26T00:27:48Z</time></trkpt>
<trkpt lat="50.251209" lon="4.379102"><ele>201.0</ele><time>2025-05-26T00:27:53Z</time></trkpt>
<trkpt lat="50.251044" lon="4.379351"><ele>201.48</ele><time>2025-05-26T00:27:58Z</time></trkpt>
<trkpt lat="50.250362" lon="4.380661"><ele>204.81</ele><time>2025-05-26T00:28:02Z</time></trkpt>
<trkpt lat="50.250121" lon="4.381018"><ele>205.85</ele><time>2025-05-26T00:28:07Z</time></trkpt>
<trkpt lat="50.249497" lon="4.38181"><ele>210.62</ele><time>2025-05-26T00:28:12Z</time></trkpt>
<trkpt lat="50.249447" lon="4.38191"><ele>210.98</ele><time>2025-05-26T00:28:17Z</time></trkpt>
<trkpt lat="50.249423" lon="4.382008"><ele>211.0</ele><time>2025-05-26T00:28:22Z</time></trkpt>
<trkpt lat="50.249329" lon="4.382801"><ele>209.95</ele><time>2025-05-26T00:28:27Z</time></trkpt>
<trkpt lat="50.249327" lon="4.382993"><ele>209.55</ele><time>2025-05-26T00:28:32Z</time></trkpt>
<trkpt lat="50.249373" lon="4.383242"><ele>208.59</ele><time>2025-05-26T00:28:37Z</time></trkpt>
<trkpt lat="50.249441" lon="4.383426"><ele>208.01</ele><time>2025-05-26T00:28:42Z</time></trkpt>
<trkpt lat="50.249624" lon="4.383771"><ele>207.15</ele><time>2025-05-26T00:28:47Z</time></trkpt>
<trkpt lat="50.249703" lon="4.383965"><ele>207.0</ele><time>2025-05-26T00:28:51Z</time></trkpt>
<trkpt lat="50.249756" lon="4.384149"><ele>206.99</ele><time>2025-05-26T00:28:56Z</time></trkpt>
<trkpt lat="50.249799" lon="4.384406"><ele>208.1</ele><time>2025-05-26T00:29:01Z</time></trkpt>
<trkpt lat="50.249813" lon="4.3847"><ele>208.33</ele><time>2025-05-26T00:29:06Z</time></trkpt>
<trkpt lat="50.249793" lon="4.385053"><ele>207.51</ele><time>2025-05-26T00:29:11Z</time></trkpt>
<trkpt lat="50.249762" lon="4.385296"><ele>207.33</ele><time>2025-05-26T00:29:16Z</time></trkpt>
<trkpt lat="50.249575" lon="4.38604"><ele>208.39</ele><time>2025-05-26T00:29:21Z</time></trkpt>
<trkpt lat="50.249426" lon="4.386443"><ele>209.26</ele><time>2025-05-26T00:29:26Z</time></trkpt>
<trkpt lat="50.249339" lon="4.386609"><ele>210.18</ele><time>2025-05-26T00:29:31Z</time></trkpt>
<trkpt lat="50.249194" lon="4.38683"><ele>210.9</ele><time>2025-05-26T00:29:36Z</time></trkpt>
<trkpt lat="50.248491" lon="4.387787"><ele>212.41</ele><time>2025-05-26T00:29:41Z</time></trkpt>
<trkpt lat="50.248318" lon="4.388052"><ele>213.05</ele><time>2025-05-26T00:29:45Z</time></trkpt>
<trkpt lat="50.248189" lon="4.388297"><ele>213.1</ele><time>2025-05-26T00:29:50Z</time></trkpt>
<trkpt lat="50.24797" lon="4.388795"><ele>212.95</ele><time>2025-05-26T00:29:55Z</time></trkpt>
<trkpt lat="50.247396" lon="4.390746"><ele>211.0</ele><time>2025-05-26T00:30:00Z</time></trkpt>
<trkpt lat="50.246591" lon="4.393611"><ele>218.0</ele><time>2025-05-26T00:30:05Z</time></trkpt>
<trkpt lat="50.246351" lon="4.394518"><ele>222.04</ele><time>2025-05-26T00:30:10Z</time></trkpt>
<trkpt lat="50.246201" lon="4.395206"><ele>223.68</ele><time>2025-05-26T00:30:15Z</time></trkpt>
<trkpt lat="50.244677" lon="4.403017"><ele>219.7</ele><time>2025-05-26T00:30:20Z</time></trkpt>
<trkpt lat="50.244471" lon="4.404206"><ele>214.95</ele><time>2025-05-26T00:30:25Z</time></trkpt>
<trkpt lat="50.244451" lon="4.404622"><ele>214.02</ele><time>2025-05-26T00:30:30Z</time></trkpt>
<trkpt lat="50.244469" lon="4.405021"><ele>214.93</ele><time>2025-05-26T00:30:34Z</time></trkpt>
<trkpt lat="50.24458" lon="4.405684"><ele>213.25</ele><time>2025-05-26T00:30:39Z</time></trkpt>
<trkpt lat="50.246237" lon="4.414512"><ele>185.41</ele><time>2025-05-26T00:30:44Z</time></trkpt>
<trkpt lat="50.24626" lon="4.414852"><ele>184.57</ele><time>2025-05-26T00:30:49Z</time></trkpt>
<trkpt lat="50.246265" lon="4.415307"><ele>185.21</ele><time>2025-05-26T00:30:54Z</time></trkpt>
<trkpt lat="50.245384" lon="4.42145"><ele>181.88</ele><time>2025-05-26T00:30:59Z</time></trkpt>
<trkpt lat="50.245364" lon="4.421956"><ele>183.54</ele><time>2025-05-26T00:31:04Z</time></trkpt>
<trkpt lat="50.245368" lon="4.422671"><ele>179.65</ele><time>2025-05-26T00:31:09Z</time></trkpt>
<trkpt lat="50.245408" lon="4.423545"><ele>175.11</ele><time>2025-05-26T00:31:14Z</time></trkpt>
<trkpt lat="50.245477" lon="4.423885"><ele>173.9</ele><time>2025-05-26T00:31:19Z</time></trkpt>
<trkpt lat="50.245571" lon="4.424098"><ele>173.82</ele><time>2025-05-26T00:31:24Z</time></trkpt>
<trkpt lat="50.245712" lon="4.424319"><ele>174.73</ele><time>2025-05-26T00:31:28Z</time></trkpt>
<trkpt lat="50.246462" lon="4.425232"><ele>173.07</ele><time>2025-05-26T00:31:33Z</time></trkpt>
<trkpt lat="50.246459" lon="4.425502"><ele>170.53</ele><time>2025-05-26T00:31:38Z</time></trkpt>
<trkpt lat="50.247416" lon="4.425555"><ele>171.0</ele><time>2025-05-26T00:31:43Z</time></trkpt>
<trkpt lat="50.248375" lon="4.425759"><ele>167.15</ele><time>2025-05-26T00:31:47Z</time></trkpt>
<trkpt lat="50.2489" lon="4.425965"><ele>166.44</ele><time>2025-05-26T00:31:52Z</time></trkpt>
<trkpt lat="50.249363" lon="4.426194"><ele>165.79</ele><time>2025-05-26T00:31:56Z</time></trkpt>
<trkpt lat="50.249815" lon="4.426478"><ele>167.57</ele><time>2025-05-26T00:32:01Z</time></trkpt>
<trkpt lat="50.2521" lon="4.428486"><ele>166.01</ele><time>2025-05-26T00:32:05Z</time></trkpt>
<trkpt lat="50.253011" lon="4.429296"><ele>167.3</ele><time>2025-05-26T00:32:10Z</time></trkpt>
<trkpt lat="50.253371" lon="4.429665"><ele>167.31</ele><time>2025-05-26T00:32:14Z</time></trkpt>
<trkpt lat="50.253584" lon="4.429902"><ele>167.26</ele><time>2025-05-26T00:32:19Z</time></trkpt>
<trkpt lat="50.253695" lon="4.430034"><ele>166.31</ele><time>2025-05-26T00:32:23Z</time></trkpt>
<trkpt lat="50.253955" lon="4.430426"><ele>164.87</ele><time>2025-05-26T00:32:28Z</time></trkpt>
<trkpt lat="50.254256" lon="4.430943"><ele>163.6</ele><time>2025-05-26T00:32:32Z</time></trkpt>
<trkpt lat="50.254472" lon="4.431404"><ele>163.14</ele><time>2025-05-26T00:32:37Z</time></trkpt>
<trkpt lat="50.254543" lon="4.431604"><ele>163.85</ele><time>2025-05-26T00:32:42Z</time></trkpt>
<trkpt lat="50.25467" lon="4.431958"><ele>164.01</ele><time>2025-05-26T00:32:46Z</time></trkpt>
<trkpt lat="50.255145" lon="4.433021"><ele>170.63</ele><time>2025-05-26T00:32:51Z</time></trkpt>
<trkpt lat="50.255352" lon="4.433399"><ele>171.82</ele><time>2025-05-26T00:32:55Z</time></trkpt>
<trkpt lat="50.255775" lon="4.433986"><ele>173.03</ele><time>2025-05-26T00:33:00Z</time></trkpt>
<trkpt lat="50.256229" lon="4.434442"><ele>167.89</ele><time>2025-05-26T00:33:04Z</time></trkpt>
<trkpt lat="50.256632" lon="4.43475"><ele>168.76</ele><time>2025-05-26T00:33:09Z</time></trkpt>
<trkpt lat="50.25701" lon="4.434963"><ele>166.79</ele><time>2025-05-26T00:33:13Z</time></trkpt>
<trkpt lat="50.257348" lon="4.435091"><ele>165.0</ele><time>2025-05-26T00:33:18Z</time></trkpt>
<trkpt lat="50.257658" lon="4.435172"><ele>166.14</ele><time>2025-05-26T00:33:22Z</time></trkpt>
<trkpt lat="50.2585" lon="4.435315"><ele>165.86</ele><time>2025-05-26T00:33:27Z</time></trkpt>
<trkpt lat="50.258884" lon="4.4353"><ele>163.05</ele><time>2025-05-26T00:33:31Z</time></trkpt>
<trkpt lat="50.259411" lon="4.435173"><ele>164.63</ele><time>2025-05-26T00:33:36Z</time></trkpt>
<trkpt lat="50.260392" lon="4.434845"><ele>165.76</ele><time>2025-05-26T00:33:40Z</time></trkpt>
<trkpt lat="50.260724" lon="4.434785"><ele>168.4</ele><time>2025-05-26T00:33:45Z</time></trkpt>
<trkpt lat="50.26133" lon="4.434778"><ele>173.58</ele><time>2025-05-26T00:33:49Z</time></trkpt>
<trkpt lat="50.261607" lon="4.434818"><ele>175.36</ele><time>2025-05-26T00:33:54Z</time></trkpt>
<trkpt lat="50.264605" lon="4.435632"><ele>176.42</ele><time>2025-05-26T00:33:58Z</time></trkpt>
<trkpt lat="50.264857" lon="4.435725"><ele>174.54</ele><time>2025-05-26T00:34:03Z</time></trkpt>
<trkpt lat="50.265094" lon="4.435842"><ele>171.97</ele><time>2025-05-26T00:34:07Z</time></trkpt>
<trkpt lat="50.265353" lon="4.436015"><ele>168.42</ele><time>2025-05-26T00:34:12Z</time></trkpt>
<trkpt lat="50.265608" lon="4.436229"><ele>167.0</ele><time>2025-05-26T00:34:16Z</time></trkpt>
<trkpt lat="50.26583" lon="4.436454"><ele>167.0</ele><time>2025-05-26T00:34:21Z</time></trkpt>
<trkpt lat="50.266106" lon="4.436812"><ele>166.01</ele><time>2025-05-26T00:34:25Z</time></trkpt>
<trkpt lat="50.266297" lon="4.437129"><ele>165.34</ele><time>2025-05-26T00:34:30Z</time></trkpt>
<trkpt lat="50.266493" lon="4.437524"><ele>164.95</ele><time>2025-05-26T00:34:34Z</time></trkpt>
<trkpt lat="50.266652" lon="4.437894"><ele>164.93</ele><time>2025-05-26T00:34:39Z</time></trkpt>
<trkpt lat="50.26675" lon="4.438164"><ele>165.03</ele><time>2025-05-26T00:34:44Z</time></trkpt>
<trkpt lat="50.266873" lon="4.438601"><ele>165.48</ele><time>2025-05-26T00:34:48Z</time></trkpt>
<trkpt lat="50.267144" lon="4.440081"><ele>166.44</ele><time>2025-05-26T00:34:53Z</time></trkpt>
<trkpt lat="50.267908" lon="4.444083"><ele>177.94</ele><time>2025-05-26T00:34:57Z</time></trkpt>
<trkpt lat="50.267941" lon="4.444385"><ele>178.04</ele><time>2025-05-26T00:35:02Z</time></trkpt>
<trkpt lat="50.268004" lon="4.445232"><ele>179.83</ele><time>2025-05-26T00:35:06Z</time></trkpt>
<trkpt lat="50.268009" lon="4.445662"><ele>181.06</ele><time>2025-05-26T00:35:11Z</time></trkpt>
<trkpt lat="50.267969" lon="4.446779"><ele>181.0</ele><time>2025-05-26T00:35:15Z</time></trkpt>
<trkpt lat="50.267884" lon="4.447511"><ele>180.66</ele><time>2025-05-26T00:35:20Z</time></trkpt>
<trkpt lat="50.267294" lon="4.451532"><ele>189.73</ele><time>2025-05-26T00:35:24Z</time></trkpt>
<trkpt lat="50.2671" lon="4.452502"><ele>188.87</ele><time>2025-05-26T00:35:29Z</time></trkpt>
<trkpt lat="50.267065" lon="4.452738"><ele>187.9</ele><time>2025-05-26T00:35:33Z</time></trkpt>
<trkpt lat="50.266954" lon="4.453812"><ele>189.75</ele><time>2025-05-26T00:35:38Z</time></trkpt>
<trkpt lat="50.266814" lon="4.453788"><ele>190.28</ele><time>2025-05-26T00:35:49Z</time></trkpt>
<trkpt lat="50.266585" lon="4.453871"><ele>191.02</ele><time>2025-05-26T00:35:59Z</time></trkpt>
<trkpt lat="50.266428" lon="4.454068"><ele>191.55</ele><time>2025-05-26T00:36:10Z</time></trkpt>
<trkpt lat="50.266295" lon="4.454401"><ele>194.41</ele><time>2025-05-26T00:36:21Z</time></trkpt>
<trkpt lat="50.266202" lon="4.45472"><ele>195.67</ele><time>2025-05-26T00:36:32Z</time></trkpt>
<trkpt lat="50.266185" lon="4.455088"><ele>196.73</ele><time>2025-05-26T00:36:43Z</time></trkpt>
<trkpt lat="50.266205" lon="4.456559"><ele>197.11</ele><time>2025-05-26T00:36:54Z</time></trkpt>
<trkpt lat="50.266065" lon="4.45815"><ele>200.55</ele><time>2025-05-26T00:37:05Z</time></trkpt>
<trkpt lat="50.265787" lon="4.459115"><ele>206.5</ele><time>2025-05-26T00:37:15Z</time></trkpt>
<trkpt lat="50.26569" lon="4.459655"><ele>209.58</ele><time>2025-05-26T00:37:26Z</time></trkpt>
<trkpt lat="50.265634" lon="4.460158"><ele>213.99</ele><time>2025-05-26T00:37:37Z</time></trkpt>
<trkpt lat="50.265613" lon="4.461258"><ele>215.91</ele><time>2025-05-26T00:37:48Z</time></trkpt>
<trkpt lat="50.26549" lon="4.46211"><ele>222.15</ele><time>2025-05-26T00:37:59Z</time></trkpt>
<trkpt lat="50.265485" lon="4.46225"><ele>223.12</ele><time>2025-05-26T00:38:10Z</time></trkpt>
<trkpt lat="50.265484" lon="4.465176"><ele>233.29</ele><time>2025-05-26T00:38:21Z</time></trkpt>
<trkpt lat="50.265439" lon="4.466397"><ele>238.31</ele><time>2025-05-26T00:38:31Z</time></trkpt>
<trkpt lat="50.265222" lon="4.468845"><ele>250.15</ele><time>2025-05-26T00:38:42Z</time></trkpt>
<trkpt lat="50.265012" lon="4.471395"><ele>259.78</ele><time>2025-05-26T00:38:53Z</time></trkpt>
<trkpt lat="50.264946" lon="4.471955"><ele>260.82</ele><time>2025-05-26T00:39:04Z</time></trkpt>
<trkpt lat="50.264834" lon="4.472517"><ele>263.43</ele><time>2025-05-26T00:39:15Z</time></trkpt>
<trkpt lat="50.263749" lon="4.476167"><ele>265.9</ele><time>2025-05-26T00:39:26Z</time></trkpt>
<trkpt lat="50.263648" lon="4.476524"><ele>265.38</ele><time>2025-05-26T00:39:37Z</time></trkpt>
<trkpt lat="50.263483" lon="4.477232"><ele>264.54</ele><time>2025-05-26T00:39:47Z</time></trkpt>
<trkpt lat="50.263121" lon="4.480793"><ele>261.0</ele><time>2025-05-26T00:39:58Z</time></trkpt>
<trkpt lat="50.262499" lon="4.487701"><ele>257.45</ele><time>2025-05-26T00:40:09Z</time></trkpt>
<trkpt lat="50.261907" lon="4.491131"><ele>249.73</ele><time>2025-05-26T00:40:20Z</time></trkpt>
<trkpt lat="50.261827" lon="4.491652"><ele>249.55</ele><time>2025-05-26T00:40:31Z</time></trkpt>
<trkpt lat="50.261615" lon="4.493829"><ele>251.03</ele><time>2025-05-26T00:40:42Z</time></trkpt>
<trkpt lat="50.261659" lon="4.494591"><ele>250.41</ele><time>2025-05-26T00:40:53Z</time></trkpt>
<trkpt lat="50.261845" lon="4.496439"><ele>247.32</ele><time>2025-05-26T00:41:04Z</time></trkpt>
<trkpt lat="50.2622" lon="4.497851"><ele>245.92</ele><time>2025-05-26T00:41:14Z</time></trkpt>
<trkpt lat="50.26268" lon="4.499164"><ele>244.59</ele><time>2025-05-26T00:41:25Z</time></trkpt>
<trkpt lat="50.262881" lon="4.499614"><ele>246.12</ele><time>2025-05-26T00:41:36Z</time></trkpt>
<trkpt lat="50.263228" lon="4.500273"><ele>248.0</ele><time>2025-05-26T00:41:47Z</time></trkpt>
<trkpt lat="50.263526" lon="4.500774"><ele>251.08</ele><time>2025-05-26T00:41:58Z</time></trkpt>
<trkpt lat="50.26381" lon="4.501199"><ele>254.14</ele><time>2025-05-26T00:42:09Z</time></trkpt>
<trkpt lat="50.264828" lon="4.502523"><ele>258.03</ele><time>2025-05-26T00:42:20Z</time></trkpt>
<trkpt lat="50.264994" lon="4.502734"><ele>258.83</ele><time>2025-05-26T00:42:30Z</time></trkpt>
<trkpt lat="50.265354" lon="4.503286"><ele>261.38</ele><time>2025-05-26T00:42:41Z</time></trkpt>
<trkpt lat="50.265647" lon="4.503824"><ele>260.72</ele><time>2025-05-26T00:42:52Z</time></trkpt>
<trkpt lat="50.266105" lon="4.504792"><ele>260.73</ele><time>2025-05-26T00:43:03Z</time></trkpt>
<trkpt lat="50.266522" lon="4.505865"><ele>257.89</ele><time>2025-05-26T00:43:14Z</time></trkpt>
<trkpt lat="50.272004" lon="4.520245"><ele>263.33</ele><time>2025-05-26T00:43:25Z</time></trkpt>
<trkpt lat="50.273176" lon="4.52325"><ele>262.3</ele><time>2025-05-26T00:43:36Z</time></trkpt>
<trkpt lat="50.275244" lon="4.528742"><ele>275.41</ele><time>2025-05-26T00:43:46Z</time></trkpt>
<trkpt lat="50.277344" lon="4.534176"><ele>263.97</ele><time>2025-05-26T00:43:57Z</time></trkpt>
<trkpt lat="50.280879" lon="4.543544"><ele>251.53</ele><time>2025-05-26T00:44:08Z</time></trkpt>
<trkpt lat="50.281999" lon="4.548826"><ele>242.66</ele><time>2025-05-26T00:44:19Z</time></trkpt>
<trkpt lat="50.282927" lon="4.553342"><ele>226.37</ele><time>2025-05-26T00:44:30Z</time></trkpt>
<trkpt lat="50.283181" lon="4.554543"><ele>224.78</ele><time>2025-05-26T00:44:41Z</time></trkpt>
<trkpt lat="50.283245" lon="4.554982"><ele>228.96</ele><time>2025-05-26T00:44:52Z</time></trkpt>
<trkpt lat="50.283274" lon="4.555577"><ele>233.59</ele><time>2025-05-26T00:45:02Z</time></trkpt>
<trkpt lat="50.283247" lon="4.556184"><ele>235.09</ele><time>2025-05-26T00:45:13Z</time></trkpt>
<trkpt lat="50.283008" lon="4.559961"><ele>233.29</ele><time>2025-05-26T00:45:24Z</time></trkpt>
<trkpt lat="50.282637" lon="4.566439"><ele>256.27</ele><time>2025-05-26T00:45:35Z</time></trkpt>
<trkpt lat="50.282633" lon="4.566696"><ele>257.74</ele><time>2025-05-26T00:45:46Z</time></trkpt>
<trkpt lat="50.282667" lon="4.567042"><ele>261.12</ele><time>2025-05-26T00:45:57Z</time></trkpt>
<trkpt lat="50.282692" lon="4.567156"><ele>262.43</ele><time>2025-05-26T00:46:08Z</time></trkpt>
<trkpt lat="50.282799" lon="4.567518"><ele>267.35</ele><time>2025-05-26T00:46:18Z</time></trkpt>
<trkpt lat="50.28536" lon="4.574416"><ele>268.57</ele><time>2025-05-26T00:46:29Z</time></trkpt>
<trkpt lat="50.286808" lon="4.578434"><ele>262.44</ele><time>2025-05-26T00:46:40Z</time></trkpt>
<trkpt lat="50.288364" lon="4.585402"><ele>257.77</ele><time>2025-05-26T00:46:51Z</time></trkpt>
<trkpt lat="50.288739" lon="4.587147"><ele>259.53</ele><time>2025-05-26T00:47:02Z</time></trkpt>
<trkpt lat="50.289327" lon="4.589712"><ele>266.98</ele><time>2025-05-26T00:47:13Z</time></trkpt>
<trkpt lat="50.290774" lon="4.596483"><ele>263.84</ele><time>2025-05-26T00:47:24Z</time></trkpt>
<trkpt lat="50.290968" lon="4.597405"><ele>261.0</ele><time>2025-05-26T00:47:34Z</time></trkpt>
<trkpt lat="50.292983" lon="4.60637"><ele>255.49</ele><time>2025-05-26T00:47:45Z</time></trkpt>
<trkpt lat="50.294905" lon="4.61525"><ele>242.86</ele><time>2025-05-26T00:47:56Z</time></trkpt>
<trkpt lat="50.296937" lon="4.624458"><ele>238.05</ele><time>2025-05-26T00:48:07Z</time></trkpt>
<trkpt lat="50.298822" lon="4.633128"><ele>250.28</ele><time>2025-05-26T00:48:18Z</time></trkpt>
<trkpt lat="50.294823" lon="4.637114"><ele>253.0</ele><time>2025-05-26T00:48:28Z</time></trkpt>
<trkpt lat="50.292211" lon="4.639761"><ele>255.86</ele><time>2025-05-26T00:48:37Z</time></trkpt>
<trkpt lat="50.291125" lon="4.640982"><ele>257.54</ele><time>2025-05-26T00:48:47Z</time></trkpt>
<trkpt lat="50.290985" lon="4.641172"><ele>258.0</ele><time>2025-05-26T00:48:57Z</time></trkpt>
<trkpt lat="50.289714" lon="4.643127"><ele>259.78</ele><time>2025-05-26T00:49:07Z</time></trkpt>
<trkpt lat="50.28947" lon="4.64339"><ele>260.82</ele><time>2025-05-26T00:49:16Z</time></trkpt>
<trkpt lat="50.289409" lon="4.643353"><ele>261.13</ele><time>2025-05-26T00:49:20Z</time></trkpt>
<trkpt lat="50.289351" lon="4.643349"><ele>261.33</ele><time>2025-05-26T00:49:23Z</time></trkpt>
<trkpt lat="50.289265" lon="4.643402"><ele>261.64</ele><time>2025-05-26T00:49:26Z</time></trkpt>
<trkpt lat="50.289208" lon="4.643494"><ele>261.85</ele><time>2025-05-26T00:49:29Z</time></trkpt>
<trkpt lat="50.289186" lon="4.643579"><ele>261.93</ele><time>2025-05-26T00:49:32Z</time></trkpt>
<trkpt lat="50.289196" lon="4.64376"><ele>261.89</ele><time>2025-05-26T00:49:35Z</time></trkpt>
<trkpt lat="50.289051" lon="4.644136"><ele>261.53</ele><time>2025-05-26T00:49:38Z</time></trkpt>
<trkpt lat="50.287636" lon="4.646149"><ele>264.51</ele><time>2025-05-26T00:49:41Z</time></trkpt>
<trkpt lat="50.286137" lon="4.648239"><ele>271.75</ele><time>2025-05-26T00:49:44Z</time></trkpt>
<trkpt lat="50.284742" lon="4.649985"><ele>269.12</ele><time>2025-05-26T00:49:47Z</time></trkpt>
<trkpt lat="50.284515" lon="4.650237"><ele>269.0</ele><time>2025-05-26T00:49:50Z</time></trkpt>
<trkpt lat="50.282733" lon="4.652048"><ele>263.63</ele><time>2025-05-26T00:49:54Z</time></trkpt>
<trkpt lat="50.282247" lon="4.652734"><ele>262.86</ele><time>2025-05-26T00:49:57Z</time></trkpt>
<trkpt lat="50.281965" lon="4.653081"><ele>262.17</ele><time>2025-05-26T00:50:00Z</time></trkpt>
<trkpt lat="50.281786" lon="4.653342"><ele>263.0</ele><time>2025-05-26T00:50:03Z</time></trkpt>
<trkpt lat="50.28172" lon="4.653523"><ele>263.0</ele><time>2025-05-26T00:50:06Z</time></trkpt>
<trkpt lat="50.281704" lon="4.653634"><ele>263.0</ele><time>2025-05-26T00:50:09Z</time></trkpt>
<trkpt lat="50.281725" lon="4.654102"><ele>262.39</ele><time>2025-05-26T00:50:12Z</time></trkpt>
<trkpt lat="50.281717" lon="4.654412"><ele>260.58</ele><time>2025-05-26T00:50:15Z</time></trkpt>
<trkpt lat="50.281607" lon="4.655179"><ele>259.57</ele><time>2025-05-26T00:50:18Z</time></trkpt>
<trkpt lat="50.281504" lon="4.656269"><ele>259.41</ele><time>2025-05-26T00:50:21Z</time></trkpt>
<trkpt lat="50.281448" lon="4.656643"><ele>259.02</ele><time>2025-05-26T00:50:24Z</time></trkpt>
<trkpt lat="50.281399" lon="4.656868"><ele>259.0</ele><time>2025-05-26T00:50:28Z</time></trkpt>
<trkpt lat="50.281303" lon="4.657095"><ele>258.32</ele><time>2025-05-26T00:50:31Z</time></trkpt>
<trkpt lat="50.281193" lon="4.657226"><ele>258.0</ele><time>2025-05-26T00:50:34Z</time></trkpt>
<trkpt lat="50.281028" lon="4.657337"><ele>258.0</ele><time>2025-05-26T00:50:37Z</time></trkpt>
<trkpt lat="50.280907" lon="4.657496"><ele>258.0</ele><time>2025-05-26T00:50:40Z</time></trkpt>
<trkpt lat="50.280716" lon="4.657857"><ele>256.58</ele><time>2025-05-26T00:50:43Z</time></trkpt>
<trkpt lat="50.280092" lon="4.659238"><ele>254.26</ele><time>2025-05-26T00:50:46Z</time></trkpt>
<trkpt lat="50.280109" lon="4.659401"><ele>254.84</ele><time>2025-05-26T00:50:49Z</time></trkpt>
<trkpt lat="50.280167" lon="4.659552"><ele>255.0</ele><time>2025-05-26T00:50:52Z</time></trkpt>
<trkpt lat="50.280351" lon="4.659894"><ele>255.62</ele><time>2025-05-26T00:50:55Z</time></trkpt>
<trkpt lat="50.280707" lon="4.660805"><ele>257.0</ele><time>2025-05-26T00:50:58Z</time></trkpt>
<trkpt lat="50.280741" lon="4.66106"><ele>256.73</ele><time>2025-05-26T00:51:02Z</time></trkpt>
<trkpt lat="50.280606" lon="4.662135"><ele>260.25</ele><time>2025-05-26T00:51:05Z</time></trkpt>
<trkpt lat="50.280461" lon="4.662653"><ele>262.55</ele><time>2025-05-26T00:51:08Z</time></trkpt>
<trkpt lat="50.28032" lon="4.66302"><ele>263.13</ele><time>2025-05-26T00:51:11Z</time></trkpt>
<trkpt lat="50.275701" lon="4.664922"><ele>270.84</ele><time>2025-05-26T00:51:14Z</time></trkpt>
<trkpt lat="50.275276" lon="4.665074"><ele>270.48</ele><time>2025-05-26T00:51:17Z</time></trkpt>
<trkpt lat="50.274622" lon="4.665181"><ele>272.71</ele><time>2025-05-26T00:51:20Z</time></trkpt>
<trkpt lat="50.274422" lon="4.665272"><ele>273.1</ele><time>2025-05-26T00:51:23Z</time></trkpt>
<trkpt lat="50.273266" lon="4.665995"><ele>276.66</ele><time>2025-05-26T00:51:26Z</time></trkpt>
<trkpt lat="50.27306" lon="4.666086"><ele>277.07</ele><time>2025-05-26T00:51:29Z</time></trkpt>
<trkpt lat="50.272285" lon="4.66635"><ele>280.77</ele><time>2025-05-26T00:51:32Z</time></trkpt>
<trkpt lat="50.272063" lon="4.666448"><ele>279.64</ele><time>2025-05-26T00:51:36Z</time></trkpt>
<trkpt lat="50.271672" lon="4.666683"><ele>276.96</ele><time>2025-05-26T00:51:39Z</time></trkpt>
<trkpt lat="50.27124" lon="4.666998"><ele>273.74</ele><time>2025-05-26T00:51:42Z</time></trkpt>
<trkpt lat="50.271037" lon="4.667194"><ele>271.83</ele><time>2025-05-26T00:51:45Z</time></trkpt>
<trkpt lat="50.270584" lon="4.667802"><ele>272.89</ele><time>2025-05-26T00:51:48Z</time></trkpt>
<trkpt lat="50.269253" lon="4.669389"><ele>270.6</ele><time>2025-05-26T00:51:51Z</time></trkpt>
<trkpt lat="50.269181" lon="4.669581"><ele>271.49</ele><time>2025-05-26T00:51:54Z</time></trkpt>
<trkpt lat="50.269027" lon="4.670396"><ele>270.86</ele><time>2025-05-26T00:51:57Z</time></trkpt>
<trkpt lat="50.268949" lon="4.670675"><ele>270.09</ele><time>2025-05-26T00:52:00Z</time></trkpt>
<trkpt lat="50.268807" lon="4.671073"><ele>268.26</ele><time>2025-05-26T00:52:03Z</time></trkpt>
<trkpt lat="50.268675" lon="4.671281"><ele>266.83</ele><time>2025-05-26T00:52:06Z</time></trkpt>
<trkpt lat="50.268529" lon="4.67143"><ele>265.55</ele><time>2025-05-26T00:52:10Z</time></trkpt>
<trkpt lat="50.268404" lon="4.671504"><ele>264.92</ele><time>2025-05-26T00:52:13Z</time></trkpt>
<trkpt lat="50.267947" lon="4.6717"><ele>265.39</ele><time>2025-05-26T00:52:16Z</time></trkpt>
<trkpt lat="50.267662" lon="4.671768"><ele>266.57</ele><time>2025-05-26T00:52:19Z</time></trkpt>
<trkpt lat="50.267308" lon="4.671757"><ele>266.86</ele><time>2025-05-26T00:52:22Z</time></trkpt>
<trkpt lat="50.265859" lon="4.671424"><ele>280.87</ele><time>2025-05-26T00:52:25Z</time></trkpt>
<trkpt lat="50.265506" lon="4.671382"><ele>282.53</ele><time>2025-05-26T00:52:28Z</time></trkpt>
<trkpt lat="50.265296" lon="4.671393"><ele>284.8</ele><time>2025-05-26T00:52:31Z</time></trkpt>
<trkpt lat="50.264119" lon="4.671658"><ele>289.69</ele><time>2025-05-26T00:52:34Z</time></trkpt>
<trkpt lat="50.263823" lon="4.671704"><ele>288.1</ele><time>2025-05-26T00:52:37Z</time></trkpt>
<trkpt lat="50.263538" lon="4.671693"><ele>288.9</ele><time>2025-05-26T00:52:40Z</time></trkpt>
<trkpt lat="50.263036" lon="4.671582"><ele>288.61</ele><time>2025-05-26T00:52:44Z</time></trkpt>
<trkpt lat="50.262913" lon="4.671583"><ele>288.6</ele><time>2025-05-26T00:52:47Z</time></trkpt>
<trkpt lat="50.262749" lon="4.671618"><ele>288.55</ele><time>2025-05-26T00:52:50Z</time></trkpt>
<trkpt lat="50.262598" lon="4.67168"><ele>289.2</ele><time>2025-05-26T00:52:53Z</time></trkpt>
<trkpt lat="50.261721" lon="4.672291"><ele>293.55</ele><time>2025-05-26T00:52:56Z</time></trkpt>
<trkpt lat="50.260658" lon="4.672927"><ele>284.37</ele><time>2025-05-26T00:52:59Z</time></trkpt>
<trkpt lat="50.259917" lon="4.673334"><ele>281.0</ele><time>2025-05-26T00:53:02Z</time></trkpt>
<trkpt lat="50.259768" lon="4.673456"><ele>281.0</ele><time>2025-05-26T00:53:05Z</time></trkpt>
<trkpt lat="50.259654" lon="4.673578"><ele>280.26</ele><time>2025-05-26T00:53:08Z</time></trkpt>
<trkpt lat="50.259382" lon="4.673975"><ele>277.62</ele><time>2025-05-26T00:53:11Z</time></trkpt>
<trkpt lat="50.259112" lon="4.674324"><ele>277.48</ele><time>2025-05-26T00:53:14Z</time></trkpt>
<trkpt lat="50.258776" lon="4.674639"><ele>278.29</ele><time>2025-05-26T00:53:18Z</time></trkpt>
<trkpt lat="50.258611" lon="4.674768"><ele>278.17</ele><time>2025-05-26T00:53:21Z</time></trkpt>
<trkpt lat="50.258229" lon="4.674984"><ele>277.94</ele><time>2025-05-26T00:53:24Z</time></trkpt>
<trkpt lat="50.257677" lon="4.67513"><ele>278.1</ele><time>2025-05-26T00:53:27Z</time></trkpt>
<trkpt lat="50.256013" lon="4.675677"><ele>271.65</ele><time>2025-05-26T00:53:30Z</time></trkpt>
<trkpt lat="50.255778" lon="4.675806"><ele>270.18</ele><time>2025-05-26T00:53:33Z</time></trkpt>
<trkpt lat="50.255578" lon="4.675962"><ele>267.74</ele><time>2025-05-26T00:53:36Z</time></trkpt>
<trkpt lat="50.25479" lon="4.676716"><ele>264.29</ele><time>2025-05-26T00:53:39Z</time></trkpt>
<trkpt lat="50.254412" lon="4.677014"><ele>261.91</ele><time>2025-05-26T00:53:42Z</time></trkpt>
<trkpt lat="50.254149" lon="4.677085"><ele>261.38</ele><time>2025-05-26T00:53:45Z</time></trkpt>
<trkpt lat="50.254038" lon="4.677115"><ele>260.69</ele><time>2025-05-26T00:53:48Z</time></trkpt>
<trkpt lat="50.253463" lon="4.677115"><ele>257.96</ele><time>2025-05-26T00:53:52Z</time></trkpt>
<trkpt lat="50.252204" lon="4.677198"><ele>256.85</ele><time>2025-05-26T00:53:55Z</time></trkpt>
<trkpt lat="50.252222" lon="4.678147"><ele>261.33</ele><time>2025-05-26T00:54:01Z</time></trkpt>
<trkpt lat="50.252276" lon="4.679626"><ele>263.81</ele><time>2025-05-26T00:54:08Z</time></trkpt>
<trkpt lat="50.252258" lon="4.680146"><ele>264.87</ele><time>2025-05-26T00:54:14Z</time></trkpt>
<trkpt lat="50.252036" lon="4.680105"><ele>265.0</ele><time>2025-05-26T00:54:16Z</time></trkpt>
<trkpt lat="50.251911" lon="4.680142"><ele>264.76</ele><time>2025-05-26T00:54:18Z</time></trkpt>
<trkpt lat="50.251854" lon="4.680442"><ele>263.76</ele><time>2025-05-26T00:54:23Z</time></trkpt>
<trkpt lat="50.252066" lon="4.683634"><ele>255.36</ele><time>2025-05-26T00:54:28Z</time></trkpt>
<trkpt lat="50.252113" lon="4.684158"><ele>254.61</ele><time>2025-05-26T00:54:33Z</time></trkpt>
<trkpt lat="50.25218" lon="4.685188"><ele>254.0</ele><time>2025-05-26T00:54:38Z</time></trkpt>
<trkpt lat="50.252182" lon="4.686023"><ele>254.0</ele><time>2025-05-26T00:54:44Z</time></trkpt>
<trkpt lat="50.252123" lon="4.689503"><ele>248.64</ele><time>2025-05-26T00:54:49Z</time></trkpt>
<trkpt lat="50.2521" lon="4.689885"><ele>247.97</ele><time>2025-05-26T00:54:54Z</time></trkpt>
<trkpt lat="50.251614" lon="4.692487"><ele>247.73</ele><time>2025-05-26T00:54:59Z</time></trkpt>
<trkpt lat="50.251528" lon="4.692818"><ele>250.51</ele><time>2025-05-26T00:55:04Z</time></trkpt>
<trkpt lat="50.251433" lon="4.69309"><ele>252.86</ele><time>2025-05-26T00:55:10Z</time></trkpt>
<trkpt lat="50.250912" lon="4.694351"><ele>254.46</ele><time>2025-05-26T00:55:15Z</time></trkpt>
<trkpt lat="50.25085" lon="4.694628"><ele>254.24</ele><time>2025-05-26T00:55:20Z</time></trkpt>
<trkpt lat="50.250674" lon="4.697035"><ele>248.77</ele><time>2025-05-26T00:55:25Z</time></trkpt>
<trkpt lat="50.250649" lon="4.697764"><ele>247.34</ele><time>2025-05-26T00:55:31Z</time></trkpt>
<trkpt lat="50.250664" lon="4.699478"><ele>240.71</ele><time>2025-05-26T00:55:36Z</time></trkpt>
<trkpt lat="50.250644" lon="4.699879"><ele>239.4</ele><time>2025-05-26T00:55:41Z</time></trkpt>
<trkpt lat="50.250485" lon="4.700847"><ele>238.81</ele><time>2025-05-26T00:55:46Z</time></trkpt>
<trkpt lat="50.25016" lon="4.702464"><ele>240.95</ele><time>2025-05-26T00:55:51Z</time></trkpt>
<trkpt lat="50.250117" lon="4.703135"><ele>241.97</ele><time>2025-05-26T00:55:57Z</time></trkpt>
<trkpt lat="50.250146" lon="4.704149"><ele>241.52</ele><time>2025-05-26T00:56:02Z</time></trkpt>
<trkpt lat="50.250359" lon="4.706278"><ele>244.19</ele><time>2025-05-26T00:56:07Z</time></trkpt>
<trkpt lat="50.249931" lon="4.708004"><ele>245.45</ele><time>2025-05-26T00:56:12Z</time></trkpt>
<trkpt lat="50.249421" lon="4.711156"><ele>244.76</ele><time>2025-05-26T00:56:17Z</time></trkpt>
<trkpt lat="50.249268" lon="4.712237"><ele>244.31</ele><time>2025-05-26T00:56:23Z</time></trkpt>
<trkpt lat="50.249522" lon="4.712438"><ele>244.5</ele><time>2025-05-26T00:56:28Z</time></trkpt>
<trkpt lat="50.249635" lon="4.712692"><ele>243.99</ele><time>2025-05-26T00:56:34Z</time></trkpt>
<trkpt lat="50.249822" lon="4.713311"><ele>240.85</ele><time>2025-05-26T00:56:40Z</time></trkpt>
<trkpt lat="50.249837" lon="4.713428"><ele>241.17</ele><time>2025-05-26T00:56:46Z</time></trkpt>
<trkpt lat="50.249819" lon="4.713573"><ele>241.56</ele><time>2025-05-26T00:56:52Z</time></trkpt>
<trkpt lat="50.249756" lon="4.713749"><ele>241.8</ele><time>2025-05-26T00:56:58Z</time></trkpt>
<trkpt lat="50.24961" lon="4.714044"><ele>242.55</ele><time>2025-05-26T00:57:04Z</time></trkpt>
<trkpt lat="50.249579" lon="4.714189"><ele>243.08</ele><time>2025-05-26T00:57:09Z</time></trkpt>
<trkpt lat="50.24957" lon="4.714637"><ele>244.31</ele><time>2025-05-26T00:57:15Z</time></trkpt>
<trkpt lat="50.249592" lon="4.718368"><ele>245.59</ele><time>2025-05-26T00:57:21Z</time></trkpt>
<trkpt lat="50.249642" lon="4.718537"><ele>246.13</ele><time>2025-05-26T00:57:27Z</time></trkpt>
<trkpt lat="50.249761" lon="4.718738"><ele>246.68</ele><time>2025-05-26T00:57:33Z</time></trkpt>
<trkpt lat="50.250031" lon="4.719185"><ele>244.87</ele><time>2025-05-26T00:57:39Z</time></trkpt>
<trkpt lat="50.25025" lon="4.719726"><ele>243.91</ele><time>2025-05-26T00:57:44Z</time></trkpt>
<trkpt lat="50.250559" lon="4.72062"><ele>248.78</ele><time>2025-05-26T00:57:50Z</time></trkpt>
<trkpt lat="50.252015" lon="4.72313"><ele>252.52</ele><time>2025-05-26T00:57:56Z</time></trkpt>
<trkpt lat="50.252081" lon="4.723302"><ele>253.38</ele><time>2025-05-26T00:58:02Z</time></trkpt>
<trkpt lat="50.253133" lon="4.725231"><ele>260.39</ele><time>2025-05-26T00:58:08Z</time></trkpt>
<trkpt lat="50.255216" lon="4.730135"><ele>275.04</ele><time>2025-05-26T00:58:14Z</time></trkpt>
<trkpt lat="50.255295" lon="4.730475"><ele>276.83</ele><time>2025-05-26T00:58:20Z</time></trkpt>
<trkpt lat="50.250279" lon="4.73532"><ele>259.85</ele><time>2025-05-26T00:58:24Z</time></trkpt>
<trkpt lat="50.249947" lon="4.735744"><ele>258.0</ele><time>2025-05-26T00:58:29Z</time></trkpt>
<trkpt lat="50.247247" lon="4.741057"><ele>242.65</ele><time>2025-05-26T00:58:34Z</time></trkpt>
<trkpt lat="50.246735" lon="4.742014"><ele>241.42</ele><time>2025-05-26T00:58:38Z</time></trkpt>
<trkpt lat="50.246361" lon="4.742467"><ele>240.34</ele><time>2025-05-26T00:58:43Z</time></trkpt>
<trkpt lat="50.245769" lon="4.743032"><ele>235.51</ele><time>2025-05-26T00:58:48Z</time></trkpt>
<trkpt lat="50.245372" lon="4.743907"><ele>233.81</ele><time>2025-05-26T00:58:52Z</time></trkpt>
<trkpt lat="50.245158" lon="4.744267"><ele>233.63</ele><time>2025-05-26T00:58:57Z</time></trkpt>
<trkpt lat="50.244793" lon="4.744779"><ele>233.79</ele><time>2025-05-26T00:59:02Z</time></trkpt>
<trkpt lat="50.244489" lon="4.745449"><ele>231.49</ele><time>2025-05-26T00:59:06Z</time></trkpt>
<trkpt lat="50.244204" lon="4.746397"><ele>227.1</ele><time>2025-05-26T00:59:11Z</time></trkpt>
<trkpt lat="50.244039" lon="4.746758"><ele>225.21</ele><time>2025-05-26T00:59:16Z</time></trkpt>
<trkpt lat="50.24381" lon="4.746997"><ele>224.09</ele><time>2025-05-26T00:59:20Z</time></trkpt>
<trkpt lat="50.243518" lon="4.74707"><ele>226.56</ele><time>2025-05-26T00:59:25Z</time></trkpt>
<trkpt lat="50.243131" lon="4.747173"><ele>232.36</ele><time>2025-05-26T00:59:30Z</time></trkpt>
<trkpt lat="50.242558" lon="4.747045"><ele>234.14</ele><time>2025-05-26T00:59:34Z</time></trkpt>
<trkpt lat="50.24218" lon="4.74709"><ele>234.01</ele><time>2025-05-26T00:59:39Z</time></trkpt>
<trkpt lat="50.241504" lon="4.747452"><ele>236.65</ele><time>2025-05-26T00:59:44Z</time></trkpt>
<trkpt lat="50.240977" lon="4.747868"><ele>238.65</ele><time>2025-05-26T00:59:48Z</time></trkpt>
<trkpt lat="50.240271" lon="4.748303"><ele>240.63</ele><time>2025-05-26T00:59:53Z</time></trkpt>
<trkpt lat="50.239868" lon="4.748653"><ele>240.23</ele><time>2025-05-26T00:59:58Z</time></trkpt>
<trkpt lat="50.239632" lon="4.749209"><ele>242.63</ele><time>2025-05-26T01:00:02Z</time></trkpt>
<trkpt lat="50.239308" lon="4.749605"><ele>246.07</ele><time>2025-05-26T01:00:07Z</time></trkpt>
<trkpt lat="50.239256" lon="4.749679"><ele>246.52</ele><time>2025-05-26T01:00:12Z</time></trkpt>
<trkpt lat="50.239182" lon="4.749859"><ele>247.9</ele><time>2025-05-26T01:00:17Z</time></trkpt>
<trkpt lat="50.239129" lon="4.750078"><ele>249.13</ele><time>2025-05-26T01:00:21Z</time></trkpt>
<trkpt lat="50.23883" lon="4.752971"><ele>257.93</ele><time>2025-05-26T01:00:26Z</time></trkpt>
<trkpt lat="50.238776" lon="4.753138"><ele>258.3</ele><time>2025-05-26T01:00:31Z</time></trkpt>
<trkpt lat="50.239596" lon="4.757563"><ele>264.77</ele><time>2025-05-26T01:00:43Z</time></trkpt>
<trkpt lat="50.239712" lon="4.758158"><ele>267.33</ele><time>2025-05-26T01:00:55Z</time></trkpt>
<trkpt lat="50.240016" lon="4.759847"><ele>267.49</ele><time>2025-05-26T01:01:07Z</time></trkpt>
<trkpt lat="50.240214" lon="4.761053"><ele>268.21</ele><time>2025-05-26T01:01:20Z</time></trkpt>
<trkpt lat="50.240318" lon="4.76184"><ele>267.14</ele><time>2025-05-26T01:01:32Z</time></trkpt>
<trkpt lat="50.240367" lon="4.762608"><ele>266.61</ele><time>2025-05-26T01:01:44Z</time></trkpt>
<trkpt lat="50.240284" lon="4.762631"><ele>266.53</ele><time>2025-05-26T01:01:49Z</time></trkpt>
<trkpt lat="50.240206" lon="4.762709"><ele>265.73</ele><time>2025-05-26T01:01:53Z</time></trkpt>
<trkpt lat="50.239585" lon="4.764718"><ele>254.51</ele><time>2025-05-26T01:01:57Z</time></trkpt>
<trkpt lat="50.239328" lon="4.765548"><ele>254.57</ele><time>2025-05-26T01:02:01Z</time></trkpt>
<trkpt lat="50.239207" lon="4.765847"><ele>254.19</ele><time>2025-05-26T01:02:05Z</time></trkpt>
<trkpt lat="50.238995" lon="4.766259"><ele>253.15</ele><time>2025-05-26T01:02:09Z</time></trkpt>
<trkpt lat="50.238791" lon="4.76651"><ele>250.87</ele><time>2025-05-26T01:02:14Z</time></trkpt>
<trkpt lat="50.238489" lon="4.766812"><ele>247.56</ele><time>2025-05-26T01:02:18Z</time></trkpt>
<trkpt lat="50.238078" lon="4.767104"><ele>245.74</ele><time>2025-05-26T01:02:22Z</time></trkpt>
<trkpt lat="50.237802" lon="4.767221"><ele>245.08</ele><time>2025-05-26T01:02:26Z</time></trkpt>
<trkpt lat="50.237546" lon="4.767209"><ele>244.12</ele><time>2025-05-26T01:02:30Z</time></trkpt>
<trkpt lat="50.237305" lon="4.767103"><ele>242.87</ele><time>2025-05-26T01:02:34Z</time></trkpt>
<trkpt lat="50.237115" lon="4.766916"><ele>241.9</ele><time>2025-05-26T01:02:39Z</time></trkpt>
<trkpt lat="50.23691" lon="4.766535"><ele>240.53</ele><time>2025-05-26T01:02:43Z</time></trkpt>
<trkpt lat="50.236757" lon="4.766169"><ele>239.74</ele><time>2025-05-26T01:02:47Z</time></trkpt>
<trkpt lat="50.236285" lon="4.764694"><ele>237.72</ele><time>2025-05-26T01:02:51Z</time></trkpt>
<trkpt lat="50.236142" lon="4.764513"><ele>235.16</ele><time>2025-05-26T01:02:55Z</time></trkpt>
<trkpt lat="50.235988" lon="4.764392"><ele>234.09</ele><time>2025-05-26T01:03:00Z</time></trkpt>
<trkpt lat="50.235757" lon="4.764368"><ele>233.0</ele><time>2025-05-26T01:03:04Z</time></trkpt>
<trkpt lat="50.235556" lon="4.764474"><ele>231.53</ele><time>2025-05-26T01:03:08Z</time></trkpt>
<trkpt lat="50.234886" lon="4.76499"><ele>229.81</ele><time>2025-05-26T01:03:12Z</time></trkpt>
<trkpt lat="50.233456" lon="4.765409"><ele>224.06</ele><time>2025-05-26T01:03:16Z</time></trkpt>
<trkpt lat="50.232983" lon="4.765754"><ele>222.67</ele><time>2025-05-26T01:03:20Z</time></trkpt>
<trkpt lat="50.232821" lon="4.766059"><ele>221.56</ele><time>2025-05-26T01:03:25Z</time></trkpt>
<trkpt lat="50.232609" lon="4.766524"><ele>220.9</ele><time>2025-05-26T01:03:29Z</time></trkpt>
<trkpt lat="50.232427" lon="4.767272"><ele>220.6</ele><time>2025-05-26T01:03:33Z</time></trkpt>
<trkpt lat="50.232129" lon="4.769186"><ele>218.34</ele><time>2025-05-26T01:03:37Z</time></trkpt>
<trkpt lat="50.231815" lon="4.77103"><ele>209.81</ele><time>2025-05-26T01:03:41Z</time></trkpt>
<trkpt lat="50.23174" lon="4.771974"><ele>208.21</ele><time>2025-05-26T01:03:45Z</time></trkpt>
<trkpt lat="50.231741" lon="4.773367"><ele>209.13</ele><time>2025-05-26T01:03:50Z</time></trkpt>
<trkpt lat="50.2318" lon="4.774066"><ele>209.69</ele><time>2025-05-26T01:03:54Z</time></trkpt>
<trkpt lat="50.231828" lon="4.774233"><ele>209.04</ele><time>2025-05-26T01:03:58Z</time></trkpt>
<trkpt lat="50.231902" lon="4.775348"><ele>212.32</ele><time>2025-05-26T01:04:02Z</time></trkpt>
<trkpt lat="50.231901" lon="4.775835"><ele>213.68</ele><time>2025-05-26T01:04:06Z</time></trkpt>
<trkpt lat="50.231866" lon="4.776255"><ele>212.43</ele><time>2025-05-26T01:04:10Z</time></trkpt>
<trkpt lat="50.231628" lon="4.778189"><ele>205.51</ele><time>2025-05-26T01:04:15Z</time></trkpt>
<trkpt lat="50.23154" lon="4.779877"><ele>203.19</ele><time>2025-05-26T01:04:19Z</time></trkpt>
<trkpt lat="50.231396" lon="4.782123"><ele>199.75</ele><time>2025-05-26T01:04:23Z</time></trkpt>
<trkpt lat="50.231227" lon="4.78291"><ele>199.07</ele><time>2025-05-26T01:04:27Z</time></trkpt>
<trkpt lat="50.231023" lon="4.78364"><ele>200.14</ele><time>2025-05-26T01:04:31Z</time></trkpt>
<trkpt lat="50.230804" lon="4.784138"><ele>196.04</ele><time>2025-05-26T01:04:35Z</time></trkpt>
<trkpt lat="50.2307" lon="4.784548"><ele>196.45</ele><time>2025-05-26T01:04:40Z</time></trkpt>
<trkpt lat="50.230534" lon="4.785044"><ele>198.79</ele><time>2025-05-26T01:04:44Z</time></trkpt>
<trkpt lat="50.230303" lon="4.785457"><ele>195.8</ele><time>2025-05-26T01:04:48Z</time></trkpt>
<trkpt lat="50.229903" lon="4.78593"><ele>193.53</ele><time>2025-05-26T01:04:52Z</time></trkpt>
<trkpt lat="50.22908" lon="4.787035"><ele>191.16</ele><time>2025-05-26T01:04:56Z</time></trkpt>
<trkpt lat="50.228044" lon="4.788395"><ele>187.5</ele><time>2025-05-26T01:05:00Z</time></trkpt>
<trkpt lat="50.227332" lon="4.789632"><ele>188.07</ele><time>2025-05-26T01:05:05Z</time></trkpt>
<trkpt lat="50.226833" lon="4.790457"><ele>188.43</ele><time>2025-05-26T01:05:09Z</time></trkpt>
<trkpt lat="50.226452" lon="4.791135"><ele>185.11</ele><time>2025-05-26T01:05:13Z</time></trkpt>
<trkpt lat="50.226348" lon="4.791419"><ele>183.04</ele><time>2025-05-26T01:05:17Z</time></trkpt>
<trkpt lat="50.226276" lon="4.791716"><ele>181.21</ele><time>2025-05-26T01:05:21Z</time></trkpt>
<trkpt lat="50.226048" lon="4.792979"><ele>183.29</ele><time>2025-05-26T01:05:25Z</time></trkpt>
<trkpt lat="50.225887" lon="4.793787"><ele>181.2</ele><time>2025-05-26T01:05:30Z</time></trkpt>
<trkpt lat="50.225734" lon="4.794268"><ele>178.54</ele><time>2025-05-26T01:05:34Z</time></trkpt>
<trkpt lat="50.225566" lon="4.794727"><ele>175.33</ele><time>2025-05-26T01:05:38Z</time></trkpt>
<trkpt lat="50.225379" lon="4.795174"><ele>173.43</ele><time>2025-05-26T01:05:42Z</time></trkpt>
<trkpt lat="50.225222" lon="4.795495"><ele>173.49</ele><time>2025-05-26T01:05:46Z</time></trkpt>
<trkpt lat="50.22488" lon="4.795985"><ele>165.27</ele><time>2025-05-26T01:05:51Z</time></trkpt>
<trkpt lat="50.224543" lon="4.796375"><ele>163.61</ele><time>2025-05-26T01:05:55Z</time></trkpt>
<trkpt lat="50.224003" lon="4.796912"><ele>165.54</ele><time>2025-05-26T01:05:59Z</time></trkpt>
<trkpt lat="50.223922" lon="4.797031"><ele>166.23</ele><time>2025-05-26T01:06:03Z</time></trkpt>
<trkpt lat="50.223542" lon="4.797982"><ele>169.88</ele><time>2025-05-26T01:06:07Z</time></trkpt>
<trkpt lat="50.22342" lon="4.798493"><ele>167.36</ele><time>2025-05-26T01:06:11Z</time></trkpt>
<trkpt lat="50.223315" lon="4.79917"><ele>164.05</ele><time>2025-05-26T01:06:16Z</time></trkpt>
<trkpt lat="50.223301" lon="4.799498"><ele>162.81</ele><time>2025-05-26T01:06:20Z</time></trkpt>
<trkpt lat="50.223307" lon="4.799796"><ele>161.71</ele><time>2025-05-26T01:06:24Z</time></trkpt>
<trkpt lat="50.223369" lon="4.800714"><ele>160.14</ele><time>2025-05-26T01:06:28Z</time></trkpt>
<trkpt lat="50.223405" lon="4.801969"><ele>157.91</ele><time>2025-05-26T01:06:32Z</time></trkpt>
<trkpt lat="50.223227" lon="4.804827"><ele>157.7</ele><time>2025-05-26T01:06:36Z</time></trkpt>
<trkpt lat="50.223199" lon="4.805684"><ele>157.8</ele><time>2025-05-26T01:06:41Z</time></trkpt>
<trkpt lat="50.223153" lon="4.806334"><ele>158.12</ele><time>2025-05-26T01:06:45Z</time></trkpt>
<trkpt lat="50.223155" lon="4.806777"><ele>157.36</ele><time>2025-05-26T01:06:49Z</time></trkpt>
<trkpt lat="50.223188" lon="4.807351"><ele>157.2</ele><time>2025-05-26T01:06:53Z</time></trkpt>
<trkpt lat="50.223258" lon="4.807899"><ele>157.59</ele><time>2025-05-26T01:06:57Z</time></trkpt>
<trkpt lat="50.223355" lon="4.808355"><ele>159.24</ele><time>2025-05-26T01:07:01Z</time></trkpt>
<trkpt lat="50.223735" lon="4.809882"><ele>160.03</ele><time>2025-05-26T01:07:06Z</time></trkpt>
<trkpt lat="50.223791" lon="4.810183"><ele>159.87</ele><time>2025-05-26T01:07:10Z</time></trkpt>
<trkpt lat="50.223826" lon="4.810512"><ele>158.66</ele><time>2025-05-26T01:07:14Z</time></trkpt>
<trkpt lat="50.223834" lon="4.810972"><ele>156.4</ele><time>2025-05-26T01:07:18Z</time></trkpt>
<trkpt lat="50.223814" lon="4.811392"><ele>154.99</ele><time>2025-05-26T01:07:22Z</time></trkpt>
<trkpt lat="50.223756" lon="4.811768"><ele>153.57</ele><time>2025-05-26T01:07:26Z</time></trkpt>
<trkpt lat="50.223656" lon="4.812157"><ele>153.13</ele><time>2025-05-26T01:07:31Z</time></trkpt>
<trkpt lat="50.22349" lon="4.812686"><ele>151.04</ele><time>2025-05-26T01:07:35Z</time></trkpt>
<trkpt lat="50.22348" lon="4.812777"><ele>150.53</ele><time>2025-05-26T01:07:39Z</time></trkpt>
<trkpt lat="50.223486" lon="4.812995"><ele>149.34</ele><time>2025-05-26T01:07:43Z</time></trkpt>
<trkpt lat="50.223506" lon="4.813116"><ele>148.65</ele><time>2025-05-26T01:07:47Z</time></trkpt>
<trkpt lat="50.223593" lon="4.81337"><ele>146.94</ele><time>2025-05-26T01:07:51Z</time></trkpt>
<trkpt lat="50.223803" lon="4.813784"><ele>149.08</ele><time>2025-05-26T01:07:56Z</time></trkpt>
<trkpt lat="50.223895" lon="4.814137"><ele>149.32</ele><time>2025-05-26T01:08:00Z</time></trkpt>
<trkpt lat="50.223903" lon="4.814419"><ele>148.61</ele><time>2025-05-26T01:08:04Z</time></trkpt>
<trkpt lat="50.223868" lon="4.814934"><ele>150.38</ele><time>2025-05-26T01:08:08Z</time></trkpt>
<trkpt lat="50.223762" lon="4.815491"><ele>146.74</ele><time>2025-05-26T01:08:12Z</time></trkpt>
<trkpt lat="50.223689" lon="4.815758"><ele>145.32</ele><time>2025-05-26T01:08:17Z</time></trkpt>
<trkpt lat="50.223618" lon="4.81594"><ele>144.51</ele><time>2025-05-26T01:08:21Z</time></trkpt>
<trkpt lat="50.22354" lon="4.816067"><ele>144.16</ele><time>2025-05-26T01:08:25Z</time></trkpt>
<trkpt lat="50.223449" lon="4.816141"><ele>144.21</ele><time>2025-05-26T01:08:29Z</time></trkpt>
<trkpt lat="50.223357" lon="4.81618"><ele>144.48</ele><time>2025-05-26T01:08:33Z</time></trkpt>
<trkpt lat="50.223161" lon="4.816184"><ele>143.25</ele><time>2025-05-26T01:08:37Z</time></trkpt>
<trkpt lat="50.222979" lon="4.816157"><ele>142.08</ele><time>2025-05-26T01:08:42Z</time></trkpt>
<trkpt lat="50.222776" lon="4.816202"><ele>142.66</ele><time>2025-05-26T01:08:46Z</time></trkpt>
<trkpt lat="50.222607" lon="4.816355"><ele>142.83</ele><time>2025-05-26T01:08:50Z</time></trkpt>
<trkpt lat="50.22245" lon="4.816586"><ele>140.82</ele><time>2025-05-26T01:08:54Z</time></trkpt>
<trkpt lat="50.222373" lon="4.816857"><ele>141.71</ele><time>2025-05-26T01:08:58Z</time></trkpt>
<trkpt lat="50.222336" lon="4.817274"><ele>142.52</ele><time>2025-05-26T01:09:02Z</time></trkpt>
<trkpt lat="50.222377" lon="4.818177"><ele>139.13</ele><time>2025-05-26T01:09:07Z</time></trkpt>
<trkpt lat="50.222482" lon="4.818729"><ele>135.15</ele><time>2025-05-26T01:09:11Z</time></trkpt>
<trkpt lat="50.222514" lon="4.819009"><ele>134.36</ele><time>2025-05-26T01:09:15Z</time></trkpt>
<trkpt lat="50.222487" lon="4.81931"><ele>133.29</ele><time>2025-05-26T01:09:19Z</time></trkpt>
<trkpt lat="50.222333" lon="4.819779"><ele>129.94</ele><time>2025-05-26T01:09:23Z</time></trkpt>
<trkpt lat="50.222022" lon="4.82031"><ele>128.53</ele><time>2025-05-26T01:09:27Z</time></trkpt>
<trkpt lat="50.221929" lon="4.820524"><ele>129.31</ele><time>2025-05-26T01:09:32Z</time></trkpt>
<trkpt lat="50.221804" lon="4.820883"><ele>129.39</ele><time>2025-05-26T01:09:36Z</time></trkpt>
<trkpt lat="50.221729" lon="4.821346"><ele>130.46</ele><time>2025-05-26T01:09:40Z</time></trkpt>
<trkpt lat="50.221706" lon="4.821847"><ele>132.47</ele><time>2025-05-26T01:09:44Z</time></trkpt>
<trkpt lat="50.221666" lon="4.822286"><ele>127.09</ele><time>2025-05-26T01:09:48Z</time></trkpt>
<trkpt lat="50.22154" lon="4.822728"><ele>123.01</ele><time>2025-05-26T01:09:52Z</time></trkpt>
<trkpt lat="50.22141" lon="4.822984"><ele>122.04</ele><time>2025-05-26T01:09:57Z</time></trkpt>
<trkpt lat="50.22123" lon="4.823246"><ele>119.47</ele><time>2025-05-26T01:10:01Z</time></trkpt>
<trkpt lat="50.220998" lon="4.823426"><ele>120.22</ele><time>2025-05-26T01:10:05Z</time></trkpt>
<trkpt lat="50.220801" lon="4.823512"><ele>121.15</ele><time>2025-05-26T01:10:09Z</time></trkpt>
<trkpt lat="50.220599" lon="4.823547"><ele>121.34</ele><time>2025-05-26T01:10:13Z</time></trkpt>
<trkpt lat="50.220374" lon="4.82353"><ele>118.2</ele><time>2025-05-26T01:10:17Z</time></trkpt>
<trkpt lat="50.220247" lon="4.823485"><ele>115.76</ele><time>2025-05-26T01:10:22Z</time></trkpt>
<trkpt lat="50.219932" lon="4.823462"><ele>112.74</ele><time>2025-05-26T01:10:26Z</time></trkpt>
<trkpt lat="50.219694" lon="4.823505"><ele>112.87</ele><time>2025-05-26T01:10:30Z</time></trkpt>
<trkpt lat="50.219521" lon="4.823572"><ele>113.16</ele><time>2025-05-26T01:10:34Z</time></trkpt>
<trkpt lat="50.219262" lon="4.823746"><ele>113.5</ele><time>2025-05-26T01:10:38Z</time></trkpt>
<trkpt lat="50.219065" lon="4.823908"><ele>112.57</ele><time>2025-05-26T01:10:42Z</time></trkpt>
<trkpt lat="50.218425" lon="4.824521"><ele>108.89</ele><time>2025-05-26T01:10:47Z</time></trkpt>
<trkpt lat="50.218262" lon="4.82465"><ele>109.52</ele><time>2025-05-26T01:10:51Z</time></trkpt>
<trkpt lat="50.218106" lon="4.824715"><ele>109.34</ele><time>2025-05-26T01:10:55Z</time></trkpt>
<trkpt lat="50.217347" lon="4.824884"><ele>110.28</ele><time>2025-05-26T01:10:59Z</time></trkpt>
<trkpt lat="50.217208" lon="4.824954"><ele>110.5</ele><time>2025-05-26T01:11:03Z</time></trkpt>
<trkpt lat="50.21688" lon="4.825235"><ele>109.36</ele><time>2025-05-26T01:11:08Z</time></trkpt>
<trkpt lat="50.216736" lon="4.825389"><ele>106.25</ele><time>2025-05-26T01:11:12Z</time></trkpt>
<trkpt lat="50.216546" lon="4.82564"><ele>104.46</ele><time>2025-05-26T01:11:16Z</time></trkpt>
<trkpt lat="50.216131" lon="4.826329"><ele>99.86</ele><time>2025-05-26T01:11:20Z</time></trkpt>
<trkpt lat="50.215473" lon="4.827437"><ele>98.81</ele><time>2025-05-26T01:11:24Z</time></trkpt>
<trkpt lat="50.215231" lon="4.827923"><ele>98.59</ele><time>2025-05-26T01:11:28Z</time></trkpt>
<trkpt lat="50.214712" lon="4.829219"><ele>103.4</ele><time>2025-05-26T01:11:33Z</time></trkpt>
<trkpt lat="50.21454" lon="4.829681"><ele>107.18</ele><time>2025-05-26T01:11:37Z</time></trkpt>
<trkpt lat="50.214474" lon="4.829919"><ele>109.18</ele><time>2025-05-26T01:11:41Z</time></trkpt>
<trkpt lat="50.214434" lon="4.830196"><ele>110.32</ele><time>2025-05-26T01:11:45Z</time></trkpt>
<trkpt lat="50.214366" lon="4.831962"><ele>115.13</ele><time>2025-05-26T01:11:49Z</time></trkpt>
<trkpt lat="50.214318" lon="4.832609"><ele>118.32</ele><time>2025-05-26T01:11:53Z</time></trkpt>
<trkpt lat="50.214253" lon="4.832998"><ele>120.52</ele><time>2025-05-26T01:11:58Z</time></trkpt>
<trkpt lat="50.214113" lon="4.833382"><ele>123.12</ele><time>2025-05-26T01:12:02Z</time></trkpt>
<trkpt lat="50.213989" lon="4.833783"><ele>122.12</ele><time>2025-05-26T01:12:06Z</time></trkpt>
<trkpt lat="50.213904" lon="4.834159"><ele>123.52</ele><time>2025-05-26T01:12:10Z</time></trkpt>
<trkpt lat="50.213663" lon="4.835663"><ele>129.69</ele><time>2025-05-26T01:12:14Z</time></trkpt>
<trkpt lat="50.213528" lon="4.836258"><ele>131.9</ele><time>2025-05-26T01:12:18Z</time></trkpt>
<trkpt lat="50.213368" lon="4.83668"><ele>132.62</ele><time>2025-05-26T01:12:23Z</time></trkpt>
<trkpt lat="50.212736" lon="4.838025"><ele>142.87</ele><time>2025-05-26T01:12:27Z</time></trkpt>
<trkpt lat="50.212524" lon="4.838464"><ele>146.53</ele><time>2025-05-26T01:12:31Z</time></trkpt>
<trkpt lat="50.212313" lon="4.838985"><ele>150.15</ele><time>2025-05-26T01:12:35Z</time></trkpt>
<trkpt lat="50.212202" lon="4.839385"><ele>150.75</ele><time>2025-05-26T01:12:39Z</time></trkpt>
<trkpt lat="50.212085" lon="4.839975"><ele>154.08</ele><time>2025-05-26T01:12:43Z</time></trkpt>
<trkpt lat="50.211996" lon="4.84033"><ele>154.83</ele><time>2025-05-26T01:12:48Z</time></trkpt>
<trkpt lat="50.211899" lon="4.84061"><ele>154.73</ele><time>2025-05-26T01:12:52Z</time></trkpt>
<trkpt lat="50.211707" lon="4.841035"><ele>154.95</ele><time>2025-05-26T01:12:56Z</time></trkpt>
<trkpt lat="50.211568" lon="4.841253"><ele>154.7</ele><time>2025-05-26T01:13:00Z</time></trkpt>
<trkpt lat="50.211345" lon="4.841488"><ele>155.09</ele><time>2025-05-26T01:13:04Z</time></trkpt>
<trkpt lat="50.211177" lon="4.841596"><ele>154.53</ele><time>2025-05-26T01:13:08Z</time></trkpt>
<trkpt lat="50.210404" lon="4.841867"><ele>158.91</ele><time>2025-05-26T01:13:13Z</time></trkpt>
<trkpt lat="50.210252" lon="4.84191"><ele>160.31</ele><time>2025-05-26T01:13:17Z</time></trkpt>
<trkpt lat="50.209953" lon="4.841886"><ele>162.18</ele><time>2025-05-26T01:13:21Z</time></trkpt>
<trkpt lat="50.20981" lon="4.841814"><ele>162.15</ele><time>2025-05-26T01:13:25Z</time></trkpt>
<trkpt lat="50.209658" lon="4.841672"><ele>161.77</ele><time>2025-05-26T01:13:29Z</time></trkpt>
<trkpt lat="50.208872" lon="4.84054"><ele>167.17</ele><time>2025-05-26T01:13:34Z</time></trkpt>
<trkpt lat="50.208266" lon="4.839603"><ele>172.29</ele><time>2025-05-26T01:13:38Z</time></trkpt>
<trkpt lat="50.207918" lon="4.839022"><ele>174.03</ele><time>2025-05-26T01:13:42Z</time></trkpt>
<trkpt lat="50.207644" lon="4.838439"><ele>175.62</ele><time>2025-05-26T01:13:46Z</time></trkpt>
<trkpt lat="50.206447" lon="4.835629"><ele>186.73</ele><time>2025-05-26T01:13:50Z</time></trkpt>
<trkpt lat="50.206223" lon="4.835252"><ele>189.69</ele><time>2025-05-26T01:13:54Z</time></trkpt>
<trkpt lat="50.205872" lon="4.834909"><ele>191.33</ele><time>2025-05-26T01:13:59Z</time></trkpt>
<trkpt lat="50.204629" lon="4.834104"><ele>198.67</ele><time>2025-05-26T01:14:03Z</time></trkpt>
<trkpt lat="50.204106" lon="4.833733"><ele>202.22</ele><time>2025-05-26T01:14:07Z</time></trkpt>
<trkpt lat="50.203785" lon="4.833442"><ele>203.75</ele><time>2025-05-26T01:14:11Z</time></trkpt>
<trkpt lat="50.203511" lon="4.833129"><ele>205.08</ele><time>2025-05-26T01:14:15Z</time></trkpt>
<trkpt lat="50.203069" lon="4.832498"><ele>207.81</ele><time>2025-05-26T01:14:19Z</time></trkpt>
<trkpt lat="50.202914" lon="4.832224"><ele>208.54</ele><time>2025-05-26T01:14:24Z</time></trkpt>
<trkpt lat="50.202644" lon="4.83166"><ele>211.39</ele><time>2025-05-26T01:14:28Z</time></trkpt>
<trkpt lat="50.202364" lon="4.830992"><ele>214.33</ele><time>2025-05-26T01:14:32Z</time></trkpt>
<trkpt lat="50.202098" lon="4.83047"><ele>216.31</ele><time>2025-05-26T01:14:36Z</time></trkpt>
<trkpt lat="50.201933" lon="4.830265"><ele>219.2</ele><time>2025-05-26T01:14:40Z</time></trkpt>
<trkpt lat="50.201737" lon="4.830083"><ele>222.73</ele><time>2025-05-26T01:14:44Z</time></trkpt>
<trkpt lat="50.201519" lon="4.829976"><ele>225.51</ele><time>2025-05-26T01:14:49Z</time></trkpt>
<trkpt lat="50.201284" lon="4.829919"><ele>226.33</ele><time>2025-05-26T01:14:53Z</time></trkpt>
<trkpt lat="50.201066" lon="4.829949"><ele>225.98</ele><time>2025-05-26T01:14:57Z</time></trkpt>
<trkpt lat="50.200919" lon="4.830075"><ele>226.77</ele><time>2025-05-26T01:15:01Z</time></trkpt>
<trkpt lat="50.20047" lon="4.830531"><ele>226.78</ele><time>2025-05-26T01:15:05Z</time></trkpt>
<trkpt lat="50.200277" lon="4.830809"><ele>226.0</ele><time>2025-05-26T01:15:09Z</time></trkpt>
<trkpt lat="50.196312" lon="4.835278"><ele>239.72</ele><time>2025-05-26T01:15:14Z</time></trkpt>
<trkpt lat="50.195923" lon="4.835827"><ele>239.34</ele><time>2025-05-26T01:15:18Z</time></trkpt>
<trkpt lat="50.19533" lon="4.836886"><ele>233.91</ele><time>2025-05-26T01:15:22Z</time></trkpt>
<trkpt lat="50.194932" lon="4.83766"><ele>229.23</ele><time>2025-05-26T01:15:26Z</time></trkpt>
<trkpt lat="50.194397" lon="4.838551"><ele>230.35</ele><time>2025-05-26T01:15:30Z</time></trkpt>
<trkpt lat="50.193479" lon="4.840199"><ele>235.66</ele><time>2025-05-26T01:15:34Z</time></trkpt>
<trkpt lat="50.192532" lon="4.841842"><ele>237.65</ele><time>2025-05-26T01:15:39Z</time></trkpt>
<trkpt lat="50.190806" lon="4.844997"><ele>248.01</ele><time>2025-05-26T01:15:43Z</time></trkpt>
<trkpt lat="50.188052" lon="4.849883"><ele>250.13</ele><time>2025-05-26T01:15:47Z</time></trkpt>
<trkpt lat="50.187816" lon="4.850214"><ele>249.94</ele><time>2025-05-26T01:15:51Z</time></trkpt>
<trkpt lat="50.187541" lon="4.850446"><ele>251.12</ele><time>2025-05-26T01:15:55Z</time></trkpt>
<trkpt lat="50.185443" lon="4.851599"><ele>262.4</ele><time>2025-05-26T01:15:59Z</time></trkpt>
<trkpt lat="50.185095" lon="4.851808"><ele>264.32</ele><time>2025-05-26T01:16:04Z</time></trkpt>
<trkpt lat="50.182367" lon="4.854714"><ele>277.46</ele><time>2025-05-26T01:16:08Z</time></trkpt>
<trkpt lat="50.182201" lon="4.85494"><ele>278.72</ele><time>2025-05-26T01:16:12Z</time></trkpt>
<trkpt lat="50.182005" lon="4.855324"><ele>278.31</ele><time>2025-05-26T01:16:16Z</time></trkpt>
<trkpt lat="50.179191" lon="4.862687"><ele>288.8</ele><time>2025-05-26T01:16:20Z</time></trkpt>
<trkpt lat="50.179075" lon="4.86294"><ele>289.33</ele><time>2025-05-26T01:16:25Z</time></trkpt>
<trkpt lat="50.178944" lon="4.863185"><ele>289.8</ele><time>2025-05-26T01:16:29Z</time></trkpt>
<trkpt lat="50.178666" lon="4.863631"><ele>290.73</ele><time>2025-05-26T01:16:33Z</time></trkpt>
<trkpt lat="50.174828" lon="4.86926"><ele>273.28</ele><time>2025-05-26T01:16:37Z</time></trkpt>
<trkpt lat="50.174553" lon="4.869711"><ele>274.22</ele><time>2025-05-26T01:16:41Z</time></trkpt>
<trkpt lat="50.174302" lon="4.870239"><ele>274.51</ele><time>2025-05-26T01:16:45Z</time></trkpt>
<trkpt lat="50.171141" lon="4.878797"><ele>285.93</ele><time>2025-05-26T01:16:50Z</time></trkpt>
<trkpt lat="50.170496" lon="4.880197"><ele>287.0</ele><time>2025-05-26T01:16:54Z</time></trkpt>
<trkpt lat="50.169086" lon="4.883173"><ele>278.58</ele><time>2025-05-26T01:16:58Z</time></trkpt>
<trkpt lat="50.168871" lon="4.883549"><ele>277.93</ele><time>2025-05-26T01:17:02Z</time></trkpt>
<trkpt lat="50.168785" lon="4.883667"><ele>277.7</ele><time>2025-05-26T01:17:06Z</time></trkpt>
<trkpt lat="50.168307" lon="4.884137"><ele>277.8</ele><time>2025-05-26T01:17:10Z</time></trkpt>
<trkpt lat="50.167661" lon="4.88506"><ele>281.05</ele><time>2025-05-26T01:17:15Z</time></trkpt>
<trkpt lat="50.167562" lon="4.885144"><ele>282.07</ele><time>2025-05-26T01:17:19Z</time></trkpt>
<trkpt lat="50.167455" lon="4.88516"><ele>282.74</ele><time>2025-05-26T01:17:23Z</time></trkpt>
<trkpt lat="50.167344" lon="4.88513"><ele>283.03</ele><time>2025-05-26T01:17:27Z</time></trkpt>
<trkpt lat="50.167139" lon="4.884993"><ele>283.29</ele><time>2025-05-26T01:17:31Z</time></trkpt>
<trkpt lat="50.167058" lon="4.884971"><ele>283.53</ele><time>2025-05-26T01:17:35Z</time></trkpt>
<trkpt lat="50.166953" lon="4.885002"><ele>283.97</ele><time>2025-05-26T01:17:40Z</time></trkpt>
<trkpt lat="50.166864" lon="4.885134"><ele>284.0</ele><time>2025-05-26T01:17:44Z</time></trkpt>
<trkpt lat="50.166752" lon="4.885402"><ele>284.45</ele><time>2025-05-26T01:17:48Z</time></trkpt>
<trkpt lat="50.166653" lon="4.885728"><ele>285.05</ele><time>2025-05-26T01:17:52Z</time></trkpt>
<trkpt lat="50.166328" lon="4.887722"><ele>287.95</ele><time>2025-05-26T01:17:56Z</time></trkpt>
<trkpt lat="50.166172" lon="4.888415"><ele>287.06</ele><time>2025-05-26T01:18:00Z</time></trkpt>
<trkpt lat="50.165478" lon="4.890957"><ele>293.05</ele><time>2025-05-26T01:18:05Z</time></trkpt>
<trkpt lat="50.164581" lon="4.894567"><ele>286.77</ele><time>2025-05-26T01:18:09Z</time></trkpt>
<trkpt lat="50.164521" lon="4.89487"><ele>285.74</ele><time>2025-05-26T01:18:13Z</time></trkpt>
<trkpt lat="50.164417" lon="4.896013"><ele>281.35</ele><time>2025-05-26T01:18:17Z</time></trkpt>
<trkpt lat="50.164368" lon="4.896847"><ele>280.0</ele><time>2025-05-26T01:18:21Z</time></trkpt>
<trkpt lat="50.164362" lon="4.897253"><ele>279.7</ele><time>2025-05-26T01:18:25Z</time></trkpt>
<trkpt lat="50.164737" lon="4.902844"><ele>272.0</ele><time>2025-05-26T01:18:30Z</time></trkpt>
<trkpt lat="50.164975" lon="4.906563"><ele>275.14</ele><time>2025-05-26T01:18:34Z</time></trkpt>
<trkpt lat="50.165073" lon="4.906825"><ele>274.74</ele><time>2025-05-26T01:18:38Z</time></trkpt>
<trkpt lat="50.163224" lon="4.910015"><ele>282.39</ele><time>2025-05-26T01:19:03Z</time></trkpt>
<trkpt lat="50.162094" lon="4.912018"><ele>288.27</ele><time>2025-05-26T01:19:29Z</time></trkpt>
<trkpt lat="50.1615" lon="4.913028"><ele>289.4</ele><time>2025-05-26T01:19:54Z</time></trkpt>
<trkpt lat="50.161288" lon="4.913313"><ele>287.68</ele><time>2025-05-26T01:20:20Z</time></trkpt>
<trkpt lat="50.155645" lon="4.919099"><ele>286.0</ele><time>2025-05-26T01:20:45Z</time></trkpt>
<trkpt lat="50.155027" lon="4.919762"><ele>281.28</ele><time>2025-05-26T01:21:10Z</time></trkpt>
<trkpt lat="50.154258" lon="4.920557"><ele>274.98</ele><time>2025-05-26T01:21:36Z</time></trkpt>
<trkpt lat="50.153652" lon="4.921154"><ele>270.42</ele><time>2025-05-26T01:22:01Z</time></trkpt>
<trkpt lat="50.13283" lon="4.942516"><ele>186.12</ele><time>2025-05-26T01:22:26Z</time></trkpt>
<trkpt lat="50.131714" lon="4.943603"><ele>178.34</ele><time>2025-05-26T01:22:52Z</time></trkpt>
<trkpt lat="50.132288" lon="4.94531"><ele>171.76</ele><time>2025-05-26T01:23:00Z</time></trkpt>
<trkpt lat="50.132575" lon="4.945991"><ele>170.12</ele><time>2025-05-26T01:23:09Z</time></trkpt>
<trkpt lat="50.13354" lon="4.947095"><ele>170.28</ele><time>2025-05-26T01:23:17Z</time></trkpt>
<trkpt lat="50.134367" lon="4.948112"><ele>172.66</ele><time>2025-05-26T01:23:26Z</time></trkpt>
<trkpt lat="50.134452" lon="4.948238"><ele>173.05</ele><time>2025-05-26T01:23:34Z</time></trkpt>
<trkpt lat="50.135964" lon="4.951574"><ele>173.27</ele><time>2025-05-26T01:23:43Z</time></trkpt>
<trkpt lat="50.136459" lon="4.952628"><ele>172.45</ele><time>2025-05-26T01:23:51Z</time></trkpt>
<trkpt lat="50.139642" lon="4.956887"><ele>168.42</ele><time>2025-05-26T01:24:00Z</time></trkpt>
<trkpt lat="50.138693" lon="4.95723"><ele>167.68</ele><time>2025-05-26T01:24:03Z</time></trkpt>
<trkpt lat="50.138223" lon="4.957518"><ele>167.93</ele><time>2025-05-26T01:24:06Z</time></trkpt>
<trkpt lat="50.137945" lon="4.957626"><ele>166.35</ele><time>2025-05-26T01:24:09Z</time></trkpt>
<trkpt lat="50.137297" lon="4.95767"><ele>162.66</ele><time>2025-05-26T01:24:12Z</time></trkpt>
<trkpt lat="50.137129" lon="4.95772"><ele>161.87</ele><time>2025-05-26T01:24:16Z</time></trkpt>
<trkpt lat="50.136905" lon="4.957822"><ele>161.0</ele><time>2025-05-26T01:24:19Z</time></trkpt>
<trkpt lat="50.136223" lon="4.958324"><ele>163.99</ele><time>2025-05-26T01:24:22Z</time></trkpt>
<trkpt lat="50.136039" lon="4.958426"><ele>164.0</ele><time>2025-05-26T01:24:25Z</time></trkpt>
<trkpt lat="50.135827" lon="4.958473"><ele>164.04</ele><time>2025-05-26T01:24:28Z</time></trkpt>
<trkpt lat="50.135653" lon="4.958439"><ele>165.3</ele><time>2025-05-26T01:24:31Z</time></trkpt>
<trkpt lat="50.13516" lon="4.958172"><ele>168.42</ele><time>2025-05-26T01:24:35Z</time></trkpt>
<trkpt lat="50.134892" lon="4.958147"><ele>168.2</ele><time>2025-05-26T01:24:38Z</time></trkpt>
<trkpt lat="50.13462" lon="4.958259"><ele>168.63</ele><time>2025-05-26T01:24:41Z</time></trkpt>
<trkpt lat="50.13396" lon="4.958755"><ele>172.26</ele><time>2025-05-26T01:24:44Z</time></trkpt>
<trkpt lat="50.133027" lon="4.959347"><ele>176.1</ele><time>2025-05-26T01:24:47Z</time></trkpt>
<trkpt lat="50.132548" lon="4.9596"><ele>177.0</ele><time>2025-05-26T01:24:51Z</time></trkpt>
<trkpt lat="50.132259" lon="4.959663"><ele>177.87</ele><time>2025-05-26T01:24:54Z</time></trkpt>
<trkpt lat="50.131971" lon="4.959589"><ele>178.9</ele><time>2025-05-26T01:24:57Z</time></trkpt>
<trkpt lat="50.129512" lon="4.958272"><ele>181.22</ele><time>2025-05-26T01:25:00Z</time></trkpt>
<trkpt lat="50.129172" lon="4.957993"><ele>182.23</ele><time>2025-05-26T01:25:03Z</time></trkpt>
<trkpt lat="50.129488" lon="4.959293"><ele>177.93</ele><time>2025-05-26T01:25:10Z</time></trkpt>
<trkpt lat="50.129551" lon="4.959841"><ele>177.62</ele><time>2025-05-26T01:25:17Z</time></trkpt>
<trkpt lat="50.129574" lon="4.960281"><ele>177.52</ele><time>2025-05-26T01:25:24Z</time></trkpt>
<trkpt lat="50.129575" lon="4.961629"><ele>173.66</ele><time>2025-05-26T01:25:32Z</time></trkpt>
<trkpt lat="50.12955" lon="4.962531"><ele>172.49</ele><time>2025-05-26T01:25:39Z</time></trkpt>
<trkpt lat="50.129499" lon="4.962926"><ele>173.2</ele><time>2025-05-26T01:25:46Z</time></trkpt>
<trkpt lat="50.129343" lon="4.963508"><ele>172.63</ele><time>2025-05-26T01:25:53Z</time></trkpt>
<trkpt lat="50.129335" lon="4.963631"><ele>172.58</ele><time>2025-05-26T01:26:00Z</time></trkpt>
<trkpt lat="50.129365" lon="4.963949"><ele>172.43</ele><time>2025-05-26T01:26:07Z</time></trkpt>
<trkpt lat="50.129921" lon="4.966505"><ele>172.58</ele><time>2025-05-26T01:26:14Z</time></trkpt>
<trkpt lat="50.129924" lon="4.966696"><ele>171.9</ele><time>2025-05-26T01:26:21Z</time></trkpt>
<trkpt lat="50.129895" lon="4.966939"><ele>171.02</ele><time>2025-05-26T01:26:28Z</time></trkpt>
<trkpt lat="50.129785" lon="4.96748"><ele>169.07</ele><time>2025-05-26T01:26:35Z</time></trkpt>
<trkpt lat="50.129343" lon="4.969213"><ele>162.63</ele><time>2025-05-26T01:26:42Z</time></trkpt>
<trkpt lat="50.129245" lon="4.96946"><ele>162.28</ele><time>2025-05-26T01:26:49Z</time></trkpt>
<trkpt lat="50.128936" lon="4.969965"><ele>162.0</ele><time>2025-05-26T01:26:57Z</time></trkpt>
<trkpt lat="50.128203" lon="4.971086"><ele>168.85</ele><time>2025-05-26T01:27:04Z</time></trkpt>
<trkpt lat="50.129432" lon="4.972665"><ele>168.3</ele><time>2025-05-26T01:27:07Z</time></trkpt>
<trkpt lat="50.129889" lon="4.973332"><ele>167.58</ele><time>2025-05-26T01:27:11Z</time></trkpt>
<trkpt lat="50.130251" lon="4.973911"><ele>165.57</ele><time>2025-05-26T01:27:15Z</time></trkpt>
<trkpt lat="50.130579" lon="4.974525"><ele>163.21</ele><time>2025-05-26T01:27:19Z</time></trkpt>
<trkpt lat="50.130927" lon="4.975243"><ele>163.66</ele><time>2025-05-26T01:27:22Z</time></trkpt>
<trkpt lat="50.131245" lon="4.976008"><ele>164.15</ele><time>2025-05-26T01:27:26Z</time></trkpt>
<trkpt lat="50.132502" lon="4.979417"><ele>160.11</ele><time>2025-05-26T01:27:30Z</time></trkpt>
<trkpt lat="50.132756" lon="4.980282"><ele>160.98</ele><time>2025-05-26T01:27:33Z</time></trkpt>
<trkpt lat="50.132991" lon="4.981339"><ele>159.23</ele><time>2025-05-26T01:27:37Z</time></trkpt>
<trkpt lat="50.133114" lon="4.982115"><ele>158.92</ele><time>2025-05-26T01:27:41Z</time></trkpt>
<trkpt lat="50.133201" lon="4.982783"><ele>159.52</ele><time>2025-05-26T01:27:45Z</time></trkpt>
<trkpt lat="50.133559" lon="4.987527"><ele>157.83</ele><time>2025-05-26T01:27:48Z</time></trkpt>
<trkpt lat="50.133623" lon="4.98885"><ele>160.9</ele><time>2025-05-26T01:27:52Z</time></trkpt>
<trkpt lat="50.133637" lon="4.990474"><ele>158.57</ele><time>2025-05-26T01:27:56Z</time></trkpt>
<trkpt lat="50.13362" lon="4.99096"><ele>159.52</ele><time>2025-05-26T01:27:59Z</time></trkpt>
<trkpt lat="50.133521" lon="4.99214"><ele>158.03</ele><time>2025-05-26T01:28:03Z</time></trkpt>
<trkpt lat="50.133425" lon="4.992831"><ele>156.99</ele><time>2025-05-26T01:28:07Z</time></trkpt>
<trkpt lat="50.133196" lon="4.994021"><ele>154.01</ele><time>2025-05-26T01:28:11Z</time></trkpt>
<trkpt lat="50.133029" lon="4.994664"><ele>152.0</ele><time>2025-05-26T01:28:14Z</time></trkpt>
<trkpt lat="50.132842" lon="4.995306"><ele>150.98</ele><time>2025-05-26T01:28:18Z</time></trkpt>
<trkpt lat="50.132556" lon="4.996172"><ele>150.84</ele><time>2025-05-26T01:28:22Z</time></trkpt>
<trkpt lat="50.132429" lon="4.996642"><ele>151.66</ele><time>2025-05-26T01:28:25Z</time></trkpt>
<trkpt lat="50.132246" lon="4.997412"><ele>151.17</ele><time>2025-05-26T01:28:29Z</time></trkpt>
<trkpt lat="50.132098" lon="4.998225"><ele>150.55</ele><time>2025-05-26T01:28:33Z</time></trkpt>
<trkpt lat="50.131954" lon="4.99916"><ele>148.03</ele><time>2025-05-26T01:28:37Z</time></trkpt>
<trkpt lat="50.131807" lon="4.999815"><ele>146.17</ele><time>2025-05-26T01:28:40Z</time></trkpt>
<trkpt lat="50.131602" lon="5.000461"><ele>145.0</ele><time>2025-05-26T01:28:44Z</time></trkpt>
<trkpt lat="50.13126" lon="5.001271"><ele>143.23</ele><time>2025-05-26T01:28:48Z</time></trkpt>
<trkpt lat="50.131076" lon="5.001621"><ele>142.27</ele><time>2025-05-26T01:28:52Z</time></trkpt>
<trkpt lat="50.13069" lon="5.002206"><ele>143.52</ele><time>2025-05-26T01:28:55Z</time></trkpt>
<trkpt lat="50.130433" lon="5.002506"><ele>143.99</ele><time>2025-05-26T01:28:59Z</time></trkpt>
<trkpt lat="50.130104" lon="5.002843"><ele>143.48</ele><time>2025-05-26T01:29:03Z</time></trkpt>
<trkpt lat="50.129688" lon="5.003169"><ele>143.52</ele><time>2025-05-26T01:29:06Z</time></trkpt>
<trkpt lat="50.12933" lon="5.003385"><ele>142.48</ele><time>2025-05-26T01:29:10Z</time></trkpt>
<trkpt lat="50.128788" lon="5.003628"><ele>143.0</ele><time>2025-05-26T01:29:14Z</time></trkpt>
<trkpt lat="50.128321" lon="5.003908"><ele>142.95</ele><time>2025-05-26T01:29:18Z</time></trkpt>
<trkpt lat="50.127867" lon="5.004262"><ele>141.32</ele><time>2025-05-26T01:29:21Z</time></trkpt>
<trkpt lat="50.127583" lon="5.00456"><ele>140.3</ele><time>2025-05-26T01:29:25Z</time></trkpt>
<trkpt lat="50.12727" lon="5.004944"><ele>140.8</ele><time>2025-05-26T01:29:29Z</time></trkpt>
<trkpt lat="50.12684" lon="5.005569"><ele>140.62</ele><time>2025-05-26T01:29:32Z</time></trkpt>
<trkpt lat="50.126618" lon="5.00574"><ele>140.0</ele><time>2025-05-26T01:29:36Z</time></trkpt>
<trkpt lat="50.12655" lon="5.005755"><ele>140.0</ele><time>2025-05-26T01:29:40Z</time></trkpt>
<trkpt lat="50.126497" lon="5.005738"><ele>140.0</ele><time>2025-05-26T01:29:52Z</time></trkpt>
<trkpt lat="50.126398" lon="5.005779"><ele>140.0</ele><time>2025-05-26T01:30:03Z</time></trkpt>
<trkpt lat="50.126359" lon="5.005832"><ele>140.11</ele><time>2025-05-26T01:30:15Z</time></trkpt>
<trkpt lat="50.126321" lon="5.005974"><ele>140.75</ele><time>2025-05-26T01:30:27Z</time></trkpt>
<trkpt lat="50.126327" lon="5.006075"><ele>141.09</ele><time>2025-05-26T01:30:39Z</time></trkpt>
<trkpt lat="50.126373" lon="5.006194"><ele>141.04</ele><time>2025-05-26T01:30:51Z</time></trkpt>
<trkpt lat="50.126435" lon="5.006251"><ele>140.83</ele><time>2025-05-26T01:31:02Z</time></trkpt>
<trkpt lat="50.126542" lon="5.006464"><ele>140.33</ele><time>2025-05-26T01:31:14Z</time></trkpt>
<trkpt lat="50.126588" lon="5.006653"><ele>140.01</ele><time>2025-05-26T01:31:26Z</time></trkpt>
<trkpt lat="50.130568" lon="5.030788"><ele>134.0</ele><time>2025-05-26T01:31:38Z</time></trkpt>
<trkpt lat="50.131473" lon="5.036297"><ele>133.0</ele><time>2025-05-26T01:31:50Z</time></trkpt>
<trkpt lat="50.131478" lon="5.036324"><ele>133.0</ele><time>2025-05-26T01:32:01Z</time></trkpt>
<trkpt lat="50.131497" lon="5.036447"><ele>133.08</ele><time>2025-05-26T01:32:13Z</time></trkpt>
<trkpt lat="50.131733" lon="5.037927"><ele>136.89</ele><time>2025-05-26T01:32:25Z</time></trkpt>
<trkpt lat="50.131878" lon="5.038533"><ele>138.72</ele><time>2025-05-26T01:32:37Z</time></trkpt>
<trkpt lat="50.132182" lon="5.03932"><ele>139.14</ele><time>2025-05-26T01:32:48Z</time></trkpt>
<trkpt lat="50.13258" lon="5.040787"><ele>138.42</ele><time>2025-05-26T01:33:00Z</time></trkpt>
<trkpt lat="50.133412" lon="5.043622"><ele>137.76</ele><time>2025-05-26T01:33:12Z</time></trkpt>
<trkpt lat="50.13363" lon="5.044199"><ele>138.12</ele><time>2025-05-26T01:33:24Z</time></trkpt>
<trkpt lat="50.135294" lon="5.047707"><ele>135.88</ele><time>2025-05-26T01:33:36Z</time></trkpt>
<trkpt lat="50.13597" lon="5.049123"><ele>135.0</ele><time>2025-05-26T01:33:47Z</time></trkpt>
<trkpt lat="50.132218" lon="5.052557"><ele>138.2</ele><time>2025-05-26T01:33:52Z</time></trkpt>
<trkpt lat="50.132088" lon="5.052693"><ele>138.36</ele><time>2025-05-26T01:33:57Z</time></trkpt>
<trkpt lat="50.131888" lon="5.053053"><ele>137.8</ele><time>2025-05-26T01:34:01Z</time></trkpt>
<trkpt lat="50.131804" lon="5.05334"><ele>136.99</ele><time>2025-05-26T01:34:06Z</time></trkpt>
<trkpt lat="50.131721" lon="5.053818"><ele>136.99</ele><time>2025-05-26T01:34:10Z</time></trkpt>
<trkpt lat="50.130728" lon="5.062715"><ele>149.74</ele><time>2025-05-26T01:34:15Z</time></trkpt>
<trkpt lat="50.13049" lon="5.064536"><ele>148.18</ele><time>2025-05-26T01:34:20Z</time></trkpt>
<trkpt lat="50.130191" lon="5.066137"><ele>151.46</ele><time>2025-05-26T01:34:24Z</time></trkpt>
<trkpt lat="50.129548" lon="5.068978"><ele>149.74</ele><time>2025-05-26T01:34:29Z</time></trkpt>
<trkpt lat="50.127773" lon="5.076627"><ele>160.69</ele><time>2025-05-26T01:34:34Z</time></trkpt>
<trkpt lat="50.127594" lon="5.077056"><ele>160.87</ele><time>2025-05-26T01:34:38Z</time></trkpt>
<trkpt lat="50.12733" lon="5.077424"><ele>164.06</ele><time>2025-05-26T01:34:43Z</time></trkpt>
<trkpt lat="50.127099" lon="5.077656"><ele>166.88</ele><time>2025-05-26T01:34:47Z</time></trkpt>
<trkpt lat="50.126886" lon="5.077754"><ele>167.42</ele><time>2025-05-26T01:34:52Z</time></trkpt>
<trkpt lat="50.126607" lon="5.077758"><ele>166.34</ele><time>2025-05-26T01:34:57Z</time></trkpt>
<trkpt lat="50.126319" lon="5.077692"><ele>168.31</ele><time>2025-05-26T01:35:01Z</time></trkpt>
<trkpt lat="50.126179" lon="5.077632"><ele>169.58</ele><time>2025-05-26T01:35:06Z</time></trkpt>
<trkpt lat="50.126051" lon="5.077553"><ele>170.39</ele><time>2025-05-26T01:35:10Z</time></trkpt>
<trkpt lat="50.125874" lon="5.077402"><ele>171.71</ele><time>2025-05-26T01:35:15Z</time></trkpt>
<trkpt lat="50.125682" lon="5.077208"><ele>171.39</ele><time>2025-05-26T01:35:20Z</time></trkpt>
<trkpt lat="50.125579" lon="5.077164"><ele>171.11</ele><time>2025-05-26T01:35:24Z</time></trkpt>
<trkpt lat="50.125508" lon="5.077203"><ele>172.07</ele><time>2025-05-26T01:35:29Z</time></trkpt>
<trkpt lat="50.12548" lon="5.077294"><ele>172.99</ele><time>2025-05-26T01:35:34Z</time></trkpt>
<trkpt lat="50.12549" lon="5.077443"><ele>173.87</ele><time>2025-05-26T01:35:38Z</time></trkpt>
<trkpt lat="50.125565" lon="5.077561"><ele>174.4</ele><time>2025-05-26T01:35:43Z</time></trkpt>
<trkpt lat="50.125867" lon="5.077885"><ele>175.07</ele><time>2025-05-26T01:35:47Z</time></trkpt>
<trkpt lat="50.126081" lon="5.078162"><ele>175.32</ele><time>2025-05-26T01:35:52Z</time></trkpt>
<trkpt lat="50.12626" lon="5.078493"><ele>177.38</ele><time>2025-05-26T01:35:57Z</time></trkpt>
<trkpt lat="50.126412" lon="5.078887"><ele>180.73</ele><time>2025-05-26T01:36:01Z</time></trkpt>
<trkpt lat="50.126607" lon="5.079469"><ele>184.04</ele><time>2025-05-26T01:36:06Z</time></trkpt>
<trkpt lat="50.126823" lon="5.080243"><ele>188.0</ele><time>2025-05-26T01:36:10Z</time></trkpt>
<trkpt lat="50.127047" lon="5.080923"><ele>191.89</ele><time>2025-05-26T01:36:15Z</time></trkpt>
<trkpt lat="50.127067" lon="5.081192"><ele>194.01</ele><time>2025-05-26T01:36:20Z</time></trkpt>
<trkpt lat="50.127044" lon="5.081385"><ele>194.07</ele><time>2025-05-26T01:36:24Z</time></trkpt>
<trkpt lat="50.126918" lon="5.081691"><ele>193.63</ele><time>2025-05-26T01:36:29Z</time></trkpt>
<trkpt lat="50.125315" lon="5.083775"><ele>180.95</ele><time>2025-05-26T01:36:34Z</time></trkpt>
<trkpt lat="50.123843" lon="5.085792"><ele>168.98</ele><time>2025-05-26T01:36:38Z</time></trkpt>
<trkpt lat="50.123612" lon="5.086058"><ele>167.19</ele><time>2025-05-26T01:36:43Z</time></trkpt>
<trkpt lat="50.123322" lon="5.086256"><ele>166.96</ele><time>2025-05-26T01:36:47Z</time></trkpt>
<trkpt lat="50.122928" lon="5.086565"><ele>165.71</ele><time>2025-05-26T01:36:52Z</time></trkpt>
<trkpt lat="50.11703" lon="5.092498"><ele>162.0</ele><time>2025-05-26T01:36:57Z</time></trkpt>
<trkpt lat="50.116475" lon="5.093037"><ele>162.95</ele><time>2025-05-26T01:37:01Z</time></trkpt>
<trkpt lat="50.116423" lon="5.093066"><ele>163.03</ele><time>2025-05-26T01:37:06Z</time></trkpt>
<trkpt lat="50.116334" lon="5.093035"><ele>163.12</ele><time>2025-05-26T01:37:10Z</time></trkpt>
<trkpt lat="50.116183" lon="5.092851"><ele>163.0</ele><time>2025-05-26T01:37:15Z</time></trkpt>
<trkpt lat="50.116101" lon="5.092779"><ele>163.08</ele><time>2025-05-26T01:37:20Z</time></trkpt>
<trkpt lat="50.116047" lon="5.09278"><ele>163.47</ele><time>2025-05-26T01:37:24Z</time></trkpt>
<trkpt lat="50.115983" lon="5.092814"><ele>163.99</ele><time>2025-05-26T01:37:29Z</time></trkpt>
<trkpt lat="50.115793" lon="5.09301"><ele>165.29</ele><time>2025-05-26T01:37:34Z</time></trkpt>
<trkpt lat="50.115718" lon="5.093081"><ele>165.88</ele><time>2025-05-26T01:37:38Z</time></trkpt>
<trkpt lat="50.115464" lon="5.093248"><ele>167.33</ele><time>2025-05-26T01:37:43Z</time></trkpt>
<trkpt lat="50.114998" lon="5.093451"><ele>172.01</ele><time>2025-05-26T01:37:47Z</time></trkpt>
<trkpt lat="50.114856" lon="5.093623"><ele>172.52</ele><time>2025-05-26T01:37:52Z</time></trkpt>
<trkpt lat="50.114961" lon="5.09403"><ele>172.14</ele><time>2025-05-26T01:37:56Z</time></trkpt>
<trkpt lat="50.115433" lon="5.095146"><ele>168.77</ele><time>2025-05-26T01:38:01Z</time></trkpt>
<trkpt lat="50.115457" lon="5.095273"><ele>168.42</ele><time>2025-05-26T01:38:05Z</time></trkpt>
<trkpt lat="50.115452" lon="5.095501"><ele>168.19</ele><time>2025-05-26T01:38:10Z</time></trkpt>
<trkpt lat="50.1154" lon="5.095617"><ele>168.68</ele><time>2025-05-26T01:38:14Z</time></trkpt>
<trkpt lat="50.114937" lon="5.096065"><ele>171.17</ele><time>2025-05-26T01:38:18Z</time></trkpt>
<trkpt lat="50.114904" lon="5.096119"><ele>171.0</ele><time>2025-05-26T01:38:23Z</time></trkpt>
<trkpt lat="50.114867" lon="5.096237"><ele>171.0</ele><time>2025-05-26T01:38:27Z</time></trkpt>
<trkpt lat="50.114857" lon="5.096332"><ele>171.0</ele><time>2025-05-26T01:38:31Z</time></trkpt>
<trkpt lat="50.114873" lon="5.09647"><ele>170.71</ele><time>2025-05-26T01:38:36Z</time></trkpt>
<trkpt lat="50.115156" lon="5.097467"><ele>169.0</ele><time>2025-05-26T01:38:40Z</time></trkpt>
<trkpt lat="50.115337" lon="5.098503"><ele>170.08</ele><time>2025-05-26T01:38:45Z</time></trkpt>
<trkpt lat="50.115437" lon="5.098929"><ele>169.0</ele><time>2025-05-26T01:38:49Z</time></trkpt>
<trkpt lat="50.115782" lon="5.099999"><ele>168.0</ele><time>2025-05-26T01:38:53Z</time></trkpt>
<trkpt lat="50.116361" lon="5.102744"><ele>163.09</ele><time>2025-05-26T01:38:58Z</time></trkpt>
<trkpt lat="50.116503" lon="5.103413"><ele>166.75</ele><time>2025-05-26T01:39:02Z</time></trkpt>
<trkpt lat="50.116726" lon="5.104306"><ele>164.57</ele><time>2025-05-26T01:39:07Z</time></trkpt>
<trkpt lat="50.116849" lon="5.10469"><ele>162.69</ele><time>2025-05-26T01:39:11Z</time></trkpt>
<trkpt lat="50.117496" lon="5.106294"><ele>162.63</ele><time>2025-05-26T01:39:15Z</time></trkpt>
<trkpt lat="50.117802" lon="5.106882"><ele>163.83</ele><time>2025-05-26T01:39:20Z</time></trkpt>
<trkpt lat="50.118051" lon="5.107232"><ele>162.02</ele><time>2025-05-26T01:39:24Z</time></trkpt>
<trkpt lat="50.118396" lon="5.107685"><ele>161.77</ele><time>2025-05-26T01:39:28Z</time></trkpt>
<trkpt lat="50.118612" lon="5.10806"><ele>161.02</ele><time>2025-05-26T01:39:33Z</time></trkpt>
<trkpt lat="50.119085" lon="5.109108"><ele>162.0</ele><time>2025-05-26T01:39:37Z</time></trkpt>
<trkpt lat="50.119582" lon="5.110138"><ele>161.51</ele><time>2025-05-26T01:39:42Z</time></trkpt>
<trkpt lat="50.119904" lon="5.110643"><ele>160.69</ele><time>2025-05-26T01:39:46Z</time></trkpt>
<trkpt lat="50.120483" lon="5.11149"><ele>161.83</ele><time>2025-05-26T01:39:50Z</time></trkpt>
<trkpt lat="50.120752" lon="5.111926"><ele>162.0</ele><time>2025-05-26T01:39:55Z</time></trkpt>
<trkpt lat="50.121008" lon="5.112378"><ele>162.37</ele><time>2025-05-26T01:39:59Z</time></trkpt>
<trkpt lat="50.121453" lon="5.113287"><ele>159.96</ele><time>2025-05-26T01:40:04Z</time></trkpt>
<trkpt lat="50.122726" lon="5.11639"><ele>160.19</ele><time>2025-05-26T01:40:08Z</time></trkpt>
<trkpt lat="50.122889" lon="5.116857"><ele>160.6</ele><time>2025-05-26T01:40:12Z</time></trkpt>
<trkpt lat="50.122988" lon="5.11739"><ele>159.1</ele><time>2025-05-26T01:40:17Z</time></trkpt>
<trkpt lat="50.123026" lon="5.117914"><ele>157.4</ele><time>2025-05-26T01:40:21Z</time></trkpt>
<trkpt lat="50.122999" lon="5.118395"><ele>155.8</ele><time>2025-05-26T01:40:25Z</time></trkpt>
<trkpt lat="50.122811" lon="5.11972"><ele>159.88</ele><time>2025-05-26T01:40:30Z</time></trkpt>
<trkpt lat="50.122753" lon="5.120241"><ele>160.99</ele><time>2025-05-26T01:40:34Z</time></trkpt>
<trkpt lat="50.122725" lon="5.120571"><ele>162.0</ele><time>2025-05-26T01:40:39Z</time></trkpt>
<trkpt lat="50.122706" lon="5.121334"><ele>163.0</ele><time>2025-05-26T01:40:43Z</time></trkpt>
<trkpt lat="50.122737" lon="5.121988"><ele>163.7</ele><time>2025-05-26T01:40:47Z</time></trkpt>
<trkpt lat="50.122888" lon="5.123759"><ele>162.51</ele><time>2025-05-26T01:40:52Z</time></trkpt>
<trkpt lat="50.122924" lon="5.124797"><ele>163.0</ele><time>2025-05-26T01:40:56Z</time></trkpt>
<trkpt lat="50.12292" lon="5.125546"><ele>164.97</ele><time>2025-05-26T01:41:01Z</time></trkpt>
<trkpt lat="50.122816" lon="5.127288"><ele>169.48</ele><time>2025-05-26T01:41:05Z</time></trkpt>
<trkpt lat="50.122813" lon="5.127955"><ele>171.76</ele><time>2025-05-26T01:41:09Z</time></trkpt>
<trkpt lat="50.122962" lon="5.131193"><ele>175.99</ele><time>2025-05-26T01:41:14Z</time></trkpt>
<trkpt lat="50.123004" lon="5.13164"><ele>177.34</ele><time>2025-05-26T01:41:18Z</time></trkpt>
<trkpt lat="50.123579" lon="5.134922"><ele>177.84</ele><time>2025-05-26T01:41:22Z</time></trkpt>
<trkpt lat="50.123732" lon="5.135965"><ele>178.13</ele><time>2025-05-26T01:41:27Z</time></trkpt>
<trkpt lat="50.123832" lon="5.137071"><ele>178.46</ele><time>2025-05-26T01:41:31Z</time></trkpt>
<trkpt lat="50.123897" lon="5.138101"><ele>181.16</ele><time>2025-05-26T01:41:36Z</time></trkpt>
<trkpt lat="50.12388" lon="5.139"><ele>180.97</ele><time>2025-05-26T01:41:40Z</time></trkpt>
<trkpt lat="50.123843" lon="5.139978"><ele>181.92</ele><time>2025-05-26T01:41:44Z</time></trkpt>
<trkpt lat="50.123742" lon="5.14128"><ele>187.41</ele><time>2025-05-26T01:41:49Z</time></trkpt>
<trkpt lat="50.123708" lon="5.142059"><ele>186.47</ele><time>2025-05-26T01:41:53Z</time></trkpt>
<trkpt lat="50.123684" lon="5.143601"><ele>187.95</ele><time>2025-05-26T01:41:58Z</time></trkpt>
<trkpt lat="50.12369" lon="5.144613"><ele>188.43</ele><time>2025-05-26T01:42:02Z</time></trkpt>
<trkpt lat="50.12375" lon="5.145152"><ele>187.5</ele><time>2025-05-26T01:42:06Z</time></trkpt>
<trkpt lat="50.123866" lon="5.145622"><ele>185.33</ele><time>2025-05-26T01:42:11Z</time></trkpt>
<trkpt lat="50.123942" lon="5.145825"><ele>184.61</ele><time>2025-05-26T01:42:15Z</time></trkpt>
<trkpt lat="50.123741" lon="5.14599"><ele>187.39</ele><time>2025-05-26T01:42:17Z</time></trkpt>
<trkpt lat="50.123604" lon="5.146043"><ele>189.05</ele><time>2025-05-26T01:42:19Z</time></trkpt>
<trkpt lat="50.123522" lon="5.14605"><ele>189.71</ele><time>2025-05-26T01:42:22Z</time></trkpt>
<trkpt lat="50.123352" lon="5.145996"><ele>191.26</ele><time>2025-05-26T01:42:24Z</time></trkpt>
<trkpt lat="50.122524" lon="5.145486"><ele>193.0</ele><time>2025-05-26T01:42:26Z</time></trkpt>
<trkpt lat="50.121806" lon="5.145267"><ele>196.0</ele><time>2025-05-26T01:42:28Z</time></trkpt>
<trkpt lat="50.121325" lon="5.146103"><ele>199.25</ele><time>2025-05-26T01:42:32Z</time></trkpt>
<trkpt lat="50.120934" lon="5.146907"><ele>198.64</ele><time>2025-05-26T01:42:37Z</time></trkpt>
<trkpt lat="50.120103" lon="5.148372"><ele>195.26</ele><time>2025-05-26T01:42:41Z</time></trkpt>
<trkpt lat="50.119942" lon="5.14883"><ele>196.04</ele><time>2025-05-26T01:42:46Z</time></trkpt>
<trkpt lat="50.119665" lon="5.149822"><ele>196.79</ele><time>2025-05-26T01:42:50Z</time></trkpt>
<trkpt lat="50.119545" lon="5.150191"><ele>197.05</ele><time>2025-05-26T01:42:54Z</time></trkpt>
<trkpt lat="50.119285" lon="5.15078"><ele>199.15</ele><time>2025-05-26T01:42:59Z</time></trkpt>
<trkpt lat="50.118819" lon="5.152066"><ele>204.19</ele><time>2025-05-26T01:43:03Z</time></trkpt>
<trkpt lat="50.118717" lon="5.152297"><ele>204.92</ele><time>2025-05-26T01:43:07Z</time></trkpt>
<trkpt lat="50.118514" lon="5.152654"><ele>206.76</ele><time>2025-05-26T01:43:12Z</time></trkpt>
<trkpt lat="50.11833" lon="5.15289"><ele>207.62</ele><time>2025-05-26T01:43:16Z</time></trkpt>
<trkpt lat="50.117743" lon="5.15345"><ele>212.62</ele><time>2025-05-26T01:43:21Z</time></trkpt>
<trkpt lat="50.117514" lon="5.153635"><ele>213.95</ele><time>2025-05-26T01:43:25Z</time></trkpt>
<trkpt lat="50.11719" lon="5.154438"><ele>213.99</ele><time>2025-05-26T01:43:29Z</time></trkpt>
<trkpt lat="50.116929" lon="5.15543"><ele>217.21</ele><time>2025-05-26T01:43:34Z</time></trkpt>
<trkpt lat="50.116513" lon="5.156393"><ele>214.17</ele><time>2025-05-26T01:43:38Z</time></trkpt>
<trkpt lat="50.116204" lon="5.157277"><ele>210.2</ele><time>2025-05-26T01:43:42Z</time></trkpt>
<trkpt lat="50.1161" lon="5.157494"><ele>210.06</ele><time>2025-05-26T01:43:47Z</time></trkpt>
<trkpt lat="50.115811" lon="5.157839"><ele>210.84</ele><time>2025-05-26T01:43:51Z</time></trkpt>
<trkpt lat="50.115698" lon="5.158022"><ele>210.03</ele><time>2025-05-26T01:43:56Z</time></trkpt>
<trkpt lat="50.115622" lon="5.15833"><ele>208.73</ele><time>2025-05-26T01:44:00Z</time></trkpt>
<trkpt lat="50.115519" lon="5.159585"><ele>204.73</ele><time>2025-05-26T01:44:04Z</time></trkpt>
<trkpt lat="50.115488" lon="5.159809"><ele>204.52</ele><time>2025-05-26T01:44:09Z</time></trkpt>
<trkpt lat="50.115433" lon="5.160011"><ele>204.11</ele><time>2025-05-26T01:44:13Z</time></trkpt>
<trkpt lat="50.115337" lon="5.160214"><ele>203.43</ele><time>2025-05-26T01:44:18Z</time></trkpt>
<trkpt lat="50.114826" lon="5.161291"><ele>197.12</ele><time>2025-05-26T01:44:22Z</time></trkpt>
<trkpt lat="50.114388" lon="5.162062"><ele>194.48</ele><time>2025-05-26T01:44:26Z</time></trkpt>
<trkpt lat="50.113763" lon="5.162955"><ele>189.64</ele><time>2025-05-26T01:44:31Z</time></trkpt>
<trkpt lat="50.113666" lon="5.163123"><ele>188.78</ele><time>2025-05-26T01:44:35Z</time></trkpt>
<trkpt lat="50.113596" lon="5.163304"><ele>188.74</ele><time>2025-05-26T01:44:39Z</time></trkpt>
<trkpt lat="50.113397" lon="5.164211"><ele>184.07</ele><time>2025-05-26T01:44:44Z</time></trkpt>
<trkpt lat="50.113303" lon="5.164768"><ele>182.94</ele><time>2025-05-26T01:44:48Z</time></trkpt>
<trkpt lat="50.113256" lon="5.164914"><ele>182.59</ele><time>2025-05-26T01:44:53Z</time></trkpt>
<trkpt lat="50.112791" lon="5.166013"><ele>180.97</ele><time>2025-05-26T01:44:57Z</time></trkpt>
<trkpt lat="50.11243" lon="5.167023"><ele>178.72</ele><time>2025-05-26T01:45:01Z</time></trkpt>
<trkpt lat="50.111852" lon="5.167954"><ele>174.67</ele><time>2025-05-26T01:45:06Z</time></trkpt>
<trkpt lat="50.111654" lon="5.168318"><ele>173.01</ele><time>2025-05-26T01:45:10Z</time></trkpt>
<trkpt lat="50.111567" lon="5.168548"><ele>171.87</ele><time>2025-05-26T01:45:14Z</time></trkpt>
<trkpt lat="50.111505" lon="5.168928"><ele>169.42</ele><time>2025-05-26T01:45:19Z</time></trkpt>
<trkpt lat="50.111479" lon="5.169147"><ele>169.32</ele><time>2025-05-26T01:45:23Z</time></trkpt>
<trkpt lat="50.111508" lon="5.170278"><ele>172.0</ele><time>2025-05-26T01:45:28Z</time></trkpt>
<trkpt lat="50.111589" lon="5.170819"><ele>173.0</ele><time>2025-05-26T01:45:32Z</time></trkpt>
<trkpt lat="50.111607" lon="5.171051"><ele>173.62</ele><time>2025-05-26T01:45:36Z</time></trkpt>
<trkpt lat="50.111601" lon="5.171344"><ele>173.76</ele><time>2025-05-26T01:45:41Z</time></trkpt>
<trkpt lat="50.111562" lon="5.171724"><ele>173.62</ele><time>2025-05-26T01:45:45Z</time></trkpt>
<trkpt lat="50.111224" lon="5.173357"><ele>174.49</ele><time>2025-05-26T01:45:49Z</time></trkpt>
<trkpt lat="50.111074" lon="5.174245"><ele>177.15</ele><time>2025-05-26T01:45:54Z</time></trkpt>
<trkpt lat="50.110996" lon="5.174798"><ele>177.59</ele><time>2025-05-26T01:45:58Z</time></trkpt>
<trkpt lat="50.110775" lon="5.176117"><ele>177.43</ele><time>2025-05-26T01:46:03Z</time></trkpt>
<trkpt lat="50.110613" lon="5.177299"><ele>180.0</ele><time>2025-05-26T01:46:07Z</time></trkpt>
<trkpt lat="50.110537" lon="5.178165"><ele>179.47</ele><time>2025-05-26T01:46:11Z</time></trkpt>
<trkpt lat="50.110453" lon="5.178807"><ele>179.74</ele><time>2025-05-26T01:46:16Z</time></trkpt>
<trkpt lat="50.110363" lon="5.179387"><ele>182.2</ele><time>2025-05-26T01:46:20Z</time></trkpt>
<trkpt lat="50.11029" lon="5.179765"><ele>183.24</ele><time>2025-05-26T01:46:24Z</time></trkpt>
<trkpt lat="50.110205" lon="5.18008"><ele>183.55</ele><time>2025-05-26T01:46:29Z</time></trkpt>
<trkpt lat="50.109908" lon="5.18103"><ele>186.18</ele><time>2025-05-26T01:46:33Z</time></trkpt>
<trkpt lat="50.109711" lon="5.181792"><ele>186.92</ele><time>2025-05-26T01:46:38Z</time></trkpt>
<trkpt lat="50.109465" lon="5.18288"><ele>186.15</ele><time>2025-05-26T01:46:42Z</time></trkpt>
<trkpt lat="50.108943" lon="5.184725"><ele>188.01</ele><time>2025-05-26T01:46:46Z</time></trkpt>
<trkpt lat="50.108826" lon="5.185233"><ele>188.77</ele><time>2025-05-26T01:46:51Z</time></trkpt>
<trkpt lat="50.108738" lon="5.185723"><ele>189.46</ele><time>2025-05-26T01:46:55Z</time></trkpt>
<trkpt lat="50.108663" lon="5.186318"><ele>189.37</ele><time>2025-05-26T01:46:59Z</time></trkpt>
<trkpt lat="50.10859" lon="5.187237"><ele>185.85</ele><time>2025-05-26T01:47:04Z</time></trkpt>
<trkpt lat="50.10854" lon="5.187589"><ele>185.25</ele><time>2025-05-26T01:47:08Z</time></trkpt>
<trkpt lat="50.108232" lon="5.189451"><ele>183.0</ele><time>2025-05-26T01:47:13Z</time></trkpt>
<trkpt lat="50.108182" lon="5.189688"><ele>183.0</ele><time>2025-05-26T01:47:17Z</time></trkpt>
<trkpt lat="50.108109" lon="5.189933"><ele>182.24</ele><time>2025-05-26T01:47:21Z</time></trkpt>
<trkpt lat="50.107987" lon="5.190214"><ele>182.0</ele><time>2025-05-26T01:47:26Z</time></trkpt>
<trkpt lat="50.107608" lon="5.19094"><ele>181.15</ele><time>2025-05-26T01:47:30Z</time></trkpt>
<trkpt lat="50.107506" lon="5.191177"><ele>180.04</ele><time>2025-05-26T01:47:35Z</time></trkpt>
<trkpt lat="50.107436" lon="5.191397"><ele>179.53</ele><time>2025-05-26T01:47:39Z</time></trkpt>
<trkpt lat="50.107287" lon="5.192047"><ele>177.89</ele><time>2025-05-26T01:47:43Z</time></trkpt>
<trkpt lat="50.107194" lon="5.192318"><ele>177.76</ele><time>2025-05-26T01:47:48Z</time></trkpt>
<trkpt lat="50.106915" lon="5.19279"><ele>173.79</ele><time>2025-05-26T01:47:52Z</time></trkpt>
<trkpt lat="50.106654" lon="5.193152"><ele>172.06</ele><time>2025-05-26T01:47:56Z</time></trkpt>
<trkpt lat="50.106402" lon="5.193547"><ele>173.91</ele><time>2025-05-26T01:48:01Z</time></trkpt>
<trkpt lat="50.106643" lon="5.193958"><ele>172.25</ele><time>2025-05-26T01:48:06Z</time></trkpt>
<trkpt lat="50.106759" lon="5.194284"><ele>171.58</ele><time>2025-05-26T01:48:11Z</time></trkpt>
<trkpt lat="50.106987" lon="5.195707"><ele>171.85</ele><time>2025-05-26T01:48:15Z</time></trkpt>
<trkpt lat="50.107022" lon="5.196141"><ele>171.72</ele><time>2025-05-26T01:48:20Z</time></trkpt>
<trkpt lat="50.107014" lon="5.19629"><ele>171.75</ele><time>2025-05-26T01:48:25Z</time></trkpt>
<trkpt lat="50.106901" lon="5.196899"><ele>172.0</ele><time>2025-05-26T01:48:30Z</time></trkpt>
<trkpt lat="50.106345" lon="5.196602"><ele>170.95</ele><time>2025-05-26T01:48:36Z</time></trkpt>
<trkpt lat="50.106285" lon="5.196912"><ele>170.25</ele><time>2025-05-26T01:48:39Z</time></trkpt>
<trkpt lat="50.106274" lon="5.197302"><ele>170.59</ele><time>2025-05-26T01:48:43Z</time></trkpt>
<trkpt lat="50.106287" lon="5.198077"><ele>171.61</ele><time>2025-05-26T01:48:46Z</time></trkpt>
<trkpt lat="50.10625" lon="5.199039"><ele>170.77</ele><time>2025-05-26T01:48:50Z</time></trkpt>
<trkpt lat="50.106222" lon="5.199284"><ele>171.62</ele><time>2025-05-26T01:48:53Z</time></trkpt>
<trkpt lat="50.106147" lon="5.199473"><ele>172.74</ele><time>2025-05-26T01:48:57Z</time></trkpt>
<trkpt lat="50.10591" lon="5.199875"><ele>172.67</ele><time>2025-05-26T01:49:00Z</time></trkpt>
<trkpt lat="50.105803" lon="5.200208"><ele>174.24</ele><time>2025-05-26T01:49:04Z</time></trkpt>
<trkpt lat="50.105779" lon="5.200398"><ele>175.59</ele><time>2025-05-26T01:49:07Z</time></trkpt>
<trkpt lat="50.105779" lon="5.200546"><ele>176.32</ele><time>2025-05-26T01:49:10Z</time></trkpt>
<trkpt lat="50.105879" lon="5.201155"><ele>178.52</ele><time>2025-05-26T01:49:14Z</time></trkpt>
<trkpt lat="50.10588" lon="5.201308"><ele>179.15</ele><time>2025-05-26T01:49:17Z</time></trkpt>
<trkpt lat="50.105849" lon="5.201632"><ele>181.62</ele><time>2025-05-26T01:49:21Z</time></trkpt>
<trkpt lat="50.105759" lon="5.20235"><ele>186.07</ele><time>2025-05-26T01:49:24Z</time></trkpt>
<trkpt lat="50.105693" lon="5.20267"><ele>186.41</ele><time>2025-05-26T01:49:28Z</time></trkpt>
<trkpt lat="50.105172" lon="5.204697"><ele>194.76</ele><time>2025-05-26T01:49:31Z</time></trkpt>
<trkpt lat="50.105126" lon="5.204978"><ele>194.67</ele><time>2025-05-26T01:49:35Z</time></trkpt>
<trkpt lat="50.105056" lon="5.205795"><ele>193.54</ele><time>2025-05-26T01:49:38Z</time></trkpt>
<trkpt lat="50.10473" lon="5.208163"><ele>188.57</ele><time>2025-05-26T01:49:42Z</time></trkpt>
<trkpt lat="50.104716" lon="5.208501"><ele>188.02</ele><time>2025-05-26T01:49:45Z</time></trkpt>
<trkpt lat="50.104781" lon="5.209102"><ele>185.6</ele><time>2025-05-26T01:49:48Z</time></trkpt>
<trkpt lat="50.10477" lon="5.209342"><ele>184.33</ele><time>2025-05-26T01:49:52Z</time></trkpt>
<trkpt lat="50.10468" lon="5.209734"><ele>184.11</ele><time>2025-05-26T01:49:55Z</time></trkpt>
<trkpt lat="50.103601" lon="5.212294"><ele>191.04</ele><time>2025-05-26T01:49:59Z</time></trkpt>
<trkpt lat="50.103446" lon="5.212691"><ele>192.87</ele><time>2025-05-26T01:50:02Z</time></trkpt>
<trkpt lat="50.103384" lon="5.213104"><ele>194.62</ele><time>2025-05-26T01:50:06Z</time></trkpt>
<trkpt lat="50.103412" lon="5.214536"><ele>201.43</ele><time>2025-05-26T01:50:09Z</time></trkpt>
<trkpt lat="50.10339" lon="5.215176"><ele>205.62</ele><time>2025-05-26T01:50:13Z</time></trkpt>
<trkpt lat="50.103395" lon="5.215609"><ele>207.87</ele><time>2025-05-26T01:50:16Z</time></trkpt>
<trkpt lat="50.10345" lon="5.216419"><ele>210.12</ele><time>2025-05-26T01:50:19Z</time></trkpt>
<trkpt lat="50.103439" lon="5.217444"><ele>215.68</ele><time>2025-05-26T01:50:23Z</time></trkpt>
<trkpt lat="50.10336" lon="5.218141"><ele>219.24</ele><time>2025-05-26T01:50:26Z</time></trkpt>
<trkpt lat="50.102987" lon="5.220355"><ele>232.32</ele><time>2025-05-26T01:50:30Z</time></trkpt>
<trkpt lat="50.102931" lon="5.220608"><ele>235.93</ele><time>2025-05-26T01:50:33Z</time></trkpt>
<trkpt lat="50.102755" lon="5.221103"><ele>244.3</ele><time>2025-05-26T01:50:37Z</time></trkpt>
<trkpt lat="50.102699" lon="5.221186"><ele>245.13</ele><time>2025-05-26T01:50:40Z</time></trkpt>
<trkpt lat="50.102608" lon="5.221224"><ele>246.44</ele><time>2025-05-26T01:50:44Z</time></trkpt>
<trkpt lat="50.102495" lon="5.221184"><ele>248.02</ele><time>2025-05-26T01:50:47Z</time></trkpt>
<trkpt lat="50.102333" lon="5.221035"><ele>248.71</ele><time>2025-05-26T01:50:51Z</time></trkpt>
<trkpt lat="50.102182" lon="5.220946"><ele>248.77</ele><time>2025-05-26T01:50:54Z</time></trkpt>
<trkpt lat="50.102108" lon="5.220927"><ele>248.32</ele><time>2025-05-26T01:50:57Z</time></trkpt>
<trkpt lat="50.101974" lon="5.220977"><ele>247.68</ele><time>2025-05-26T01:51:01Z</time></trkpt>
<trkpt lat="50.101898" lon="5.22106"><ele>247.32</ele><time>2025-05-26T01:51:04Z</time></trkpt>
<trkpt lat="50.101597" lon="5.221627"><ele>246.35</ele><time>2025-05-26T01:51:08Z</time></trkpt>
<trkpt lat="50.101425" lon="5.221817"><ele>245.26</ele><time>2025-05-26T01:51:11Z</time></trkpt>
<trkpt lat="50.100783" lon="5.222205"><ele>249.41</ele><time>2025-05-26T01:51:15Z</time></trkpt>
<trkpt lat="50.100052" lon="5.22285"><ele>247.35</ele><time>2025-05-26T01:51:18Z</time></trkpt>
<trkpt lat="50.099818" lon="5.222973"><ele>245.44</ele><time>2025-05-26T01:51:22Z</time></trkpt>
<trkpt lat="50.099556" lon="5.223161"><ele>243.96</ele><time>2025-05-26T01:51:25Z</time></trkpt>
<trkpt lat="50.099126" lon="5.223606"><ele>243.98</ele><time>2025-05-26T01:51:28Z</time></trkpt>
<trkpt lat="50.098743" lon="5.224192"><ele>246.56</ele><time>2025-05-26T01:51:32Z</time></trkpt>
<trkpt lat="50.098577" lon="5.224493"><ele>247.05</ele><time>2025-05-26T01:51:35Z</time></trkpt>
<trkpt lat="50.098354" lon="5.22497"><ele>248.03</ele><time>2025-05-26T01:51:39Z</time></trkpt>
<trkpt lat="50.098106" lon="5.22556"><ele>251.38</ele><time>2025-05-26T01:51:42Z</time></trkpt>
<trkpt lat="50.097824" lon="5.226869"><ele>254.83</ele><time>2025-05-26T01:51:46Z</time></trkpt>
<trkpt lat="50.097603" lon="5.227609"><ele>255.51</ele><time>2025-05-26T01:51:49Z</time></trkpt>
<trkpt lat="50.097435" lon="5.227995"><ele>255.55</ele><time>2025-05-26T01:51:53Z</time></trkpt>
<trkpt lat="50.097228" lon="5.22835"><ele>256.08</ele><time>2025-05-26T01:51:56Z</time></trkpt>
<trkpt lat="50.096974" lon="5.22887"><ele>257.93</ele><time>2025-05-26T01:52:00Z</time></trkpt>
<trkpt lat="50.096795" lon="5.229395"><ele>260.67</ele><time>2025-05-26T01:52:03Z</time></trkpt>
<trkpt lat="50.096612" lon="5.229685"><ele>260.89</ele><time>2025-05-26T01:52:06Z</time></trkpt>
<trkpt lat="50.096024" lon="5.230388"><ele>263.02</ele><time>2025-05-26T01:52:10Z</time></trkpt>
<trkpt lat="50.09568" lon="5.230935"><ele>267.27</ele><time>2025-05-26T01:52:13Z</time></trkpt>
<trkpt lat="50.095467" lon="5.23138"><ele>268.64</ele><time>2025-05-26T01:52:17Z</time></trkpt>
<trkpt lat="50.095213" lon="5.232037"><ele>271.33</ele><time>2025-05-26T01:52:20Z</time></trkpt>
<trkpt lat="50.095167" lon="5.232219"><ele>271.98</ele><time>2025-05-26T01:52:24Z</time></trkpt>
<trkpt lat="50.094713" lon="5.233446"><ele>274.47</ele><time>2025-05-26T01:52:27Z</time></trkpt>
<trkpt lat="50.094592" lon="5.233821"><ele>276.69</ele><time>2025-05-26T01:52:31Z</time></trkpt>
<trkpt lat="50.094066" lon="5.235747"><ele>284.92</ele><time>2025-05-26T01:52:34Z</time></trkpt>
<trkpt lat="50.093849" lon="5.236412"><ele>285.52</ele><time>2025-05-26T01:52:38Z</time></trkpt>
<trkpt lat="50.093508" lon="5.237185"><ele>290.09</ele><time>2025-05-26T01:52:41Z</time></trkpt>
<trkpt lat="50.093374" lon="5.237426"><ele>293.08</ele><time>2025-05-26T01:52:44Z</time></trkpt>
<trkpt lat="50.093216" lon="5.237646"><ele>293.96</ele><time>2025-05-26T01:52:48Z</time></trkpt>
<trkpt lat="50.09303" lon="5.237839"><ele>291.61</ele><time>2025-05-26T01:52:51Z</time></trkpt>
<trkpt lat="50.09283" lon="5.238011"><ele>288.08</ele><time>2025-05-26T01:52:55Z</time></trkpt>
<trkpt lat="50.092679" lon="5.238284"><ele>285.76</ele><time>2025-05-26T01:52:58Z</time></trkpt>
<trkpt lat="50.092572" lon="5.238553"><ele>283.89</ele><time>2025-05-26T01:53:02Z</time></trkpt>
<trkpt lat="50.092231" lon="5.240494"><ele>276.13</ele><time>2025-05-26T01:53:05Z</time></trkpt>
<trkpt lat="50.092214" lon="5.240838"><ele>275.93</ele><time>2025-05-26T01:53:09Z</time></trkpt>
<trkpt lat="50.092225" lon="5.241396"><ele>276.99</ele><time>2025-05-26T01:53:12Z</time></trkpt>
<trkpt lat="50.092407" lon="5.242667"><ele>277.92</ele><time>2025-05-26T01:53:15Z</time></trkpt>
<trkpt lat="50.092497" lon="5.243579"><ele>276.08</ele><time>2025-05-26T01:53:19Z</time></trkpt>
<trkpt lat="50.092559" lon="5.245087"><ele>270.36</ele><time>2025-05-26T01:53:22Z</time></trkpt>
<trkpt lat="50.092518" lon="5.245776"><ele>269.8</ele><time>2025-05-26T01:53:26Z</time></trkpt>
<trkpt lat="50.092481" lon="5.245944"><ele>270.4</ele><time>2025-05-26T01:53:29Z</time></trkpt>
<trkpt lat="50.092077" lon="5.247065"><ele>269.04</ele><time>2025-05-26T01:53:33Z</time></trkpt>
<trkpt lat="50.092209" lon="5.247273"><ele>268.95</ele><time>2025-05-26T01:53:38Z</time></trkpt>
<trkpt lat="50.092278" lon="5.247479"><ele>269.0</ele><time>2025-05-26T01:53:44Z</time></trkpt>
<trkpt lat="50.09233" lon="5.247719"><ele>268.21</ele><time>2025-05-26T01:53:49Z</time></trkpt>
<trkpt lat="50.092381" lon="5.24804"><ele>268.0</ele><time>2025-05-26T01:53:55Z</time></trkpt>
<trkpt lat="50.092422" lon="5.248454"><ele>267.28</ele><time>2025-05-26T01:54:00Z</time></trkpt>
<trkpt lat="50.092446" lon="5.248883"><ele>268.17</ele><time>2025-05-26T01:54:06Z</time></trkpt>
<trkpt lat="50.092444" lon="5.249923"><ele>271.1</ele><time>2025-05-26T01:54:11Z</time></trkpt>
<trkpt lat="50.092617" lon="5.250449"><ele>272.61</ele><time>2025-05-26T01:54:17Z</time></trkpt>
<trkpt lat="50.092779" lon="5.250797"><ele>273.0</ele><time>2025-05-26T01:54:23Z</time></trkpt>
<trkpt lat="50.093548" lon="5.252268"><ele>276.77</ele><time>2025-05-26T01:54:28Z</time></trkpt>
<trkpt lat="50.094002" lon="5.25303"><ele>278.96</ele><time>2025-05-26T01:54:34Z</time></trkpt>
<trkpt lat="50.094511" lon="5.253795"><ele>279.52</ele><time>2025-05-26T01:54:39Z</time></trkpt>
<trkpt lat="50.095287" lon="5.254909"><ele>278.64</ele><time>2025-05-26T01:54:45Z</time></trkpt>
<trkpt lat="50.095971" lon="5.255668"><ele>279.0</ele><time>2025-05-26T01:54:50Z</time></trkpt>
<trkpt lat="50.096066" lon="5.25582"><ele>279.0</ele><time>2025-05-26T01:54:56Z</time></trkpt>
<trkpt lat="50.09589" lon="5.256069"><ele>278.32</ele><time>2025-05-26T01:54:57Z</time></trkpt>
<trkpt lat="50.095635" lon="5.256303"><ele>278.71</ele><time>2025-05-26T01:54:59Z</time></trkpt>
<trkpt lat="50.095238" lon="5.256725"><ele>278.64</ele><time>2025-05-26T01:55:00Z</time></trkpt>
<trkpt lat="50.095102" lon="5.256822"><ele>277.81</ele><time>2025-05-26T01:55:02Z</time></trkpt>
<trkpt lat="50.094973" lon="5.256846"><ele>277.26</ele><time>2025-05-26T01:55:03Z</time></trkpt>
<trkpt lat="50.094853" lon="5.256836"><ele>276.86</ele><time>2025-05-26T01:55:05Z</time></trkpt>
<trkpt lat="50.094398" lon="5.256677"><ele>272.63</ele><time>2025-05-26T01:55:06Z</time></trkpt>
<trkpt lat="50.094861" lon="5.257219"><ele>274.52</ele><time>2025-05-26T01:55:12Z</time></trkpt>
<trkpt lat="50.095032" lon="5.257392"><ele>274.5</ele><time>2025-05-26T01:55:18Z</time></trkpt>
<trkpt lat="50.095252" lon="5.257551"><ele>274.72</ele><time>2025-05-26T01:55:24Z</time></trkpt>
<trkpt lat="50.09554" lon="5.257721"><ele>273.45</ele><time>2025-05-26T01:55:30Z</time></trkpt>
<trkpt lat="50.096418" lon="5.258116"><ele>275.59</ele><time>2025-05-26T01:55:36Z</time></trkpt>
<trkpt lat="50.097215" lon="5.258266"><ele>276.24</ele><time>2025-05-26T01:55:42Z</time></trkpt>
<trkpt lat="50.09718" lon="5.258451"><ele>276.0</ele><time>2025-05-26T01:55:47Z</time></trkpt>
<trkpt lat="50.096623" lon="5.259267"><ele>272.48</ele><time>2025-05-26T01:55:53Z</time></trkpt>
<trkpt lat="50.096527" lon="5.25938"><ele>271.73</ele><time>2025-05-26T01:55:58Z</time></trkpt>
<trkpt lat="50.096201" lon="5.259681"><ele>270.05</ele><time>2025-05-26T01:56:03Z</time></trkpt>
<trkpt lat="50.096002" lon="5.259929"><ele>269.22</ele><time>2025-05-26T01:56:09Z</time></trkpt>
<trkpt lat="50.095928" lon="5.260066"><ele>268.83</ele><time>2025-05-26T01:56:14Z</time></trkpt>
<trkpt lat="50.095088" lon="5.262113"><ele>266.55</ele><time>2025-05-26T01:56:20Z</time></trkpt>
<trkpt lat="50.095046" lon="5.262371"><ele>267.04</ele><time>2025-05-26T01:56:26Z</time></trkpt>
<trkpt lat="50.095101" lon="5.264173"><ele>270.7</ele><time>2025-05-26T01:56:33Z</time></trkpt>
<trkpt lat="50.09507" lon="5.264549"><ele>269.51</ele><time>2025-05-26T01:56:40Z</time></trkpt>
<trkpt lat="50.094928" lon="5.265441"><ele>268.0</ele><time>2025-05-26T01:56:46Z</time></trkpt>
<trkpt lat="50.094816" lon="5.266367"><ele>268.66</ele><time>2025-05-26T01:56:53Z</time></trkpt>
<trkpt lat="50.094716" lon="5.267403"><ele>267.33</ele><time>2025-05-26T01:56:59Z</time></trkpt>
<trkpt lat="50.095494" lon="5.267509"><ele>267.19</ele><time>2025-05-26T01:57:05Z</time></trkpt>
<trkpt lat="50.095777" lon="5.267587"><ele>267.48</ele><time>2025-05-26T01:57:11Z</time></trkpt>
<trkpt lat="50.096134" lon="5.267718"><ele>269.3</ele><time>2025-05-26T01:57:17Z</time></trkpt>
<trkpt lat="50.096228" lon="5.267787"><ele>269.4</ele><time>2025-05-26T01:57:23Z</time></trkpt>
<trkpt lat="50.096139" lon="5.267981"><ele>268.44</ele><time>2025-05-26T01:57:27Z</time></trkpt>
<trkpt lat="50.096044" lon="5.268334"><ele>266.76</ele><time>2025-05-26T01:57:30Z</time></trkpt>
<trkpt lat="50.094719" lon="5.274621"><ele>244.99</ele><time>2025-05-26T01:57:34Z</time></trkpt>
<trkpt lat="50.094645" lon="5.274848"><ele>244.6</ele><time>2025-05-26T01:57:38Z</time></trkpt>
<trkpt lat="50.09445" lon="5.275334"><ele>240.66</ele><time>2025-05-26T01:57:42Z</time></trkpt>
<trkpt lat="50.094218" lon="5.275744"><ele>238.19</ele><time>2025-05-26T01:57:46Z</time></trkpt>
<trkpt lat="50.09415" lon="5.275822"><ele>238.0</ele><time>2025-05-26T01:57:49Z</time></trkpt>
<trkpt lat="50.094053" lon="5.275883"><ele>237.82</ele><time>2025-05-26T01:57:53Z</time></trkpt>
<trkpt lat="50.09399" lon="5.275857"><ele>237.91</ele><time>2025-05-26T01:57:56Z</time></trkpt>
<trkpt lat="50.093926" lon="5.275887"><ele>237.8</ele><time>2025-05-26T01:57:59Z</time></trkpt>
<trkpt lat="50.093893" lon="5.275935"><ele>237.63</ele><time>2025-05-26T01:58:01Z</time></trkpt>
<trkpt lat="50.093868" lon="5.276039"><ele>237.41</ele><time>2025-05-26T01:58:04Z</time></trkpt>
<trkpt lat="50.093814" lon="5.276196"><ele>237.23</ele><time>2025-05-26T01:58:07Z</time></trkpt>
<trkpt lat="50.093736" lon="5.276319"><ele>237.35</ele><time>2025-05-26T01:58:10Z</time></trkpt>
<trkpt lat="50.093608" lon="5.276482"><ele>237.34</ele><time>2025-05-26T01:58:13Z</time></trkpt>
<trkpt lat="50.093333" lon="5.276749"><ele>236.0</ele><time>2025-05-26T01:58:15Z</time></trkpt>
<trkpt lat="50.092406" lon="5.277764"><ele>233.18</ele><time>2025-05-26T01:58:18Z</time></trkpt>
<trkpt lat="50.092113" lon="5.278169"><ele>232.02</ele><time>2025-05-26T01:58:21Z</time></trkpt>
<trkpt lat="50.092055" lon="5.278283"><ele>230.87</ele><time>2025-05-26T01:58:24Z</time></trkpt>
<trkpt lat="50.092021" lon="5.278426"><ele>230.09</ele><time>2025-05-26T01:58:26Z</time></trkpt>
<trkpt lat="50.091999" lon="5.278633"><ele>229.69</ele><time>2025-05-26T01:58:29Z</time></trkpt>
<trkpt lat="50.091997" lon="5.278838"><ele>228.69</ele><time>2025-05-26T01:58:32Z</time></trkpt>
<trkpt lat="50.09202" lon="5.279332"><ele>227.91</ele><time>2025-05-26T01:58:35Z</time></trkpt>
<trkpt lat="50.091994" lon="5.279526"><ele>227.87</ele><time>2025-05-26T01:58:38Z</time></trkpt>
<trkpt lat="50.091894" lon="5.279733"><ele>228.57</ele><time>2025-05-26T01:58:40Z</time></trkpt>
<trkpt lat="50.091709" lon="5.280053"><ele>230.26</ele><time>2025-05-26T01:58:43Z</time></trkpt>
<trkpt lat="50.091595" lon="5.280314"><ele>233.03</ele><time>2025-05-26T01:58:46Z</time></trkpt>
<trkpt lat="50.091153" lon="5.281644"><ele>238.21</ele><time>2025-05-26T01:58:49Z</time></trkpt>
<trkpt lat="50.090636" lon="5.283196"><ele>237.37</ele><time>2025-05-26T01:58:51Z</time></trkpt>
<trkpt lat="50.090456" lon="5.283619"><ele>237.33</ele><time>2025-05-26T01:58:54Z</time></trkpt>
<trkpt lat="50.0903" lon="5.283863"><ele>237.14</ele><time>2025-05-26T01:58:57Z</time></trkpt>
<trkpt lat="50.089236" lon="5.285235"><ele>248.95</ele><time>2025-05-26T01:59:00Z</time></trkpt>
<trkpt lat="50.089095" lon="5.285467"><ele>250.63</ele><time>2025-05-26T01:59:03Z</time></trkpt>
<trkpt lat="50.088982" lon="5.285772"><ele>252.63</ele><time>2025-05-26T01:59:05Z</time></trkpt>
<trkpt lat="50.088889" lon="5.286207"><ele>253.0</ele><time>2025-05-26T01:59:08Z</time></trkpt>
<trkpt lat="50.0887" lon="5.287448"><ele>254.7</ele><time>2025-05-26T01:59:11Z</time></trkpt>
<trkpt lat="50.088627" lon="5.287828"><ele>254.2</ele><time>2025-05-26T01:59:14Z</time></trkpt>
<trkpt lat="50.088525" lon="5.288152"><ele>255.08</ele><time>2025-05-26T01:59:16Z</time></trkpt>
<trkpt lat="50.088408" lon="5.288401"><ele>255.11</ele><time>2025-05-26T01:59:19Z</time></trkpt>
<trkpt lat="50.088261" lon="5.288622"><ele>255.88</ele><time>2025-05-26T01:59:22Z</time></trkpt>
<trkpt lat="50.087779" lon="5.289232"><ele>256.71</ele><time>2025-05-26T01:59:25Z</time></trkpt>
<trkpt lat="50.087432" lon="5.289758"><ele>260.35</ele><time>2025-05-26T01:59:28Z</time></trkpt>
<trkpt lat="50.08731" lon="5.290033"><ele>262.39</ele><time>2025-05-26T01:59:30Z</time></trkpt>
<trkpt lat="50.087213" lon="5.290316"><ele>262.09</ele><time>2025-05-26T01:59:33Z</time></trkpt>
<trkpt lat="50.08714" lon="5.290629"><ele>262.59</ele><time>2025-05-26T01:59:36Z</time></trkpt>
<trkpt lat="50.087128" lon="5.290863"><ele>262.79</ele><time>2025-05-26T01:59:39Z</time></trkpt>
<trkpt lat="50.087139" lon="5.291083"><ele>263.5</ele><time>2025-05-26T01:59:41Z</time></trkpt>
<trkpt lat="50.087211" lon="5.291367"><ele>263.16</ele><time>2025-05-26T01:59:44Z</time></trkpt>
<trkpt lat="50.087333" lon="5.291685"><ele>264.87</ele><time>2025-05-26T01:59:47Z</time></trkpt>
<trkpt lat="50.087404" lon="5.291921"><ele>265.94</ele><time>2025-05-26T01:59:50Z</time></trkpt>
<trkpt lat="50.087455" lon="5.292152"><ele>266.24</ele><time>2025-05-26T01:59:53Z</time></trkpt>
<trkpt lat="50.087508" lon="5.292687"><ele>266.85</ele><time>2025-05-26T01:59:55Z</time></trkpt>
<trkpt lat="50.087484" lon="5.29323"><ele>265.48</ele><time>2025-05-26T01:59:58Z</time></trkpt>
<trkpt lat="50.087443" lon="5.293504"><ele>265.03</ele><time>2025-05-26T02:00:01Z</time></trkpt>
<trkpt lat="50.087372" lon="5.29388"><ele>262.67</ele><time>2025-05-26T02:00:04Z</time></trkpt>
<trkpt lat="50.087267" lon="5.294272"><ele>263.14</ele><time>2025-05-26T02:00:07Z</time></trkpt>
<trkpt lat="50.087121" lon="5.294676"><ele>264.48</ele><time>2025-05-26T02:00:09Z</time></trkpt>
<trkpt lat="50.086878" lon="5.295176"><ele>266.28</ele><time>2025-05-26T02:00:12Z</time></trkpt>
<trkpt lat="50.086628" lon="5.295568"><ele>265.39</ele><time>2025-05-26T02:00:15Z</time></trkpt>
<trkpt lat="50.086226" lon="5.296056"><ele>267.12</ele><time>2025-05-26T02:00:18Z</time></trkpt>
<trkpt lat="50.086031" lon="5.296203"><ele>266.34</ele><time>2025-05-26T02:00:20Z</time></trkpt>
<trkpt lat="50.085861" lon="5.296298"><ele>265.22</ele><time>2025-05-26T02:00:23Z</time></trkpt>
<trkpt lat="50.085572" lon="5.296415"><ele>268.42</ele><time>2025-05-26T02:00:26Z</time></trkpt>
<trkpt lat="50.085169" lon="5.296525"><ele>271.45</ele><time>2025-05-26T02:00:29Z</time></trkpt>
<trkpt lat="50.084718" lon="5.296544"><ele>277.82</ele><time>2025-05-26T02:00:32Z</time></trkpt>
<trkpt lat="50.084257" lon="5.296477"><ele>276.46</ele><time>2025-05-26T02:00:34Z</time></trkpt>
<trkpt lat="50.0838" lon="5.296373"><ele>275.69</ele><time>2025-05-26T02:00:37Z</time></trkpt>
<trkpt lat="50.083582" lon="5.296401"><ele>275.86</ele><time>2025-05-26T02:00:40Z</time></trkpt>
<trkpt lat="50.083378" lon="5.296482"><ele>274.26</ele><time>2025-05-26T02:00:43Z</time></trkpt>
<trkpt lat="50.082965" lon="5.296769"><ele>271.08</ele><time>2025-05-26T02:00:45Z</time></trkpt>
<trkpt lat="50.082242" lon="5.297441"><ele>282.59</ele><time>2025-05-26T02:00:48Z</time></trkpt>
<trkpt lat="50.081726" lon="5.297866"><ele>277.45</ele><time>2025-05-26T02:00:51Z</time></trkpt>
<trkpt lat="50.081333" lon="5.29813"><ele>281.44</ele><time>2025-05-26T02:00:54Z</time></trkpt>
<trkpt lat="50.080987" lon="5.298271"><ele>283.18</ele><time>2025-05-26T02:00:57Z</time></trkpt>
<trkpt lat="50.080451" lon="5.29839"><ele>286.12</ele><time>2025-05-26T02:00:59Z</time></trkpt>
<trkpt lat="50.080299" lon="5.2984"><ele>285.99</ele><time>2025-05-26T02:01:02Z</time></trkpt>
<trkpt lat="50.080089" lon="5.298374"><ele>284.58</ele><time>2025-05-26T02:01:05Z</time></trkpt>
<trkpt lat="50.079751" lon="5.298255"><ele>284.59</ele><time>2025-05-26T02:01:08Z</time></trkpt>
<trkpt lat="50.079291" lon="5.297995"><ele>279.58</ele><time>2025-05-26T02:01:10Z</time></trkpt>
<trkpt lat="50.078676" lon="5.297523"><ele>279.21</ele><time>2025-05-26T02:01:13Z</time></trkpt>
<trkpt lat="50.077093" lon="5.296291"><ele>292.6</ele><time>2025-05-26T02:01:16Z</time></trkpt>
<trkpt lat="50.076875" lon="5.296171"><ele>291.95</ele><time>2025-05-26T02:01:19Z</time></trkpt>
<trkpt lat="50.074195" lon="5.295635"><ele>299.87</ele><time>2025-05-26T02:01:22Z</time></trkpt>
<trkpt lat="50.073846" lon="5.295521"><ele>298.16</ele><time>2025-05-26T02:01:24Z</time></trkpt>
<trkpt lat="50.073387" lon="5.295321"><ele>305.69</ele><time>2025-05-26T02:01:27Z</time></trkpt>
<trkpt lat="50.07276" lon="5.294918"><ele>312.89</ele><time>2025-05-26T02:01:30Z</time></trkpt>
<trkpt lat="50.072485" lon="5.294676"><ele>309.95</ele><time>2025-05-26T02:01:33Z</time></trkpt>
<trkpt lat="50.072286" lon="5.294432"><ele>307.46</ele><time>2025-05-26T02:01:36Z</time></trkpt>
<trkpt lat="50.071903" lon="5.293879"><ele>313.83</ele><time>2025-05-26T02:01:38Z</time></trkpt>
<trkpt lat="50.071696" lon="5.293653"><ele>317.35</ele><time>2025-05-26T02:01:41Z</time></trkpt>
<trkpt lat="50.071131" lon="5.293245"><ele>312.83</ele><time>2025-05-26T02:01:44Z</time></trkpt>
<trkpt lat="50.0708" lon="5.293073"><ele>309.58</ele><time>2025-05-26T02:01:47Z</time></trkpt>
<trkpt lat="50.070628" lon="5.293031"><ele>308.72</ele><time>2025-05-26T02:01:49Z</time></trkpt>
<trkpt lat="50.070354" lon="5.29301"><ele>309.54</ele><time>2025-05-26T02:01:52Z</time></trkpt>
<trkpt lat="50.070251" lon="5.293014"><ele>310.21</ele><time>2025-05-26T02:01:55Z</time></trkpt>
<trkpt lat="50.070026" lon="5.29308"><ele>311.72</ele><time>2025-05-26T02:01:58Z</time></trkpt>
<trkpt lat="50.069139" lon="5.29348"><ele>321.32</ele><time>2025-05-26T02:02:01Z</time></trkpt>
<trkpt lat="50.068063" lon="5.294034"><ele>326.95</ele><time>2025-05-26T02:02:03Z</time></trkpt>
<trkpt lat="50.06786" lon="5.294186"><ele>327.22</ele><time>2025-05-26T02:02:06Z</time></trkpt>
<trkpt lat="50.067691" lon="5.294412"><ele>325.97</ele><time>2025-05-26T02:02:09Z</time></trkpt>
<trkpt lat="50.067559" lon="5.294703"><ele>326.57</ele><time>2025-05-26T02:02:12Z</time></trkpt>
<trkpt lat="50.067252" lon="5.295778"><ele>339.85</ele><time>2025-05-26T02:02:14Z</time></trkpt>
<trkpt lat="50.067155" lon="5.296057"><ele>344.58</ele><time>2025-05-26T02:02:17Z</time></trkpt>
<trkpt lat="50.067059" lon="5.296282"><ele>345.97</ele><time>2025-05-26T02:02:20Z</time></trkpt>
<trkpt lat="50.066867" lon="5.296635"><ele>346.62</ele><time>2025-05-26T02:02:23Z</time></trkpt>
<trkpt lat="50.066643" lon="5.29695"><ele>348.31</ele><time>2025-05-26T02:02:26Z</time></trkpt>
<trkpt lat="50.066256" lon="5.297368"><ele>352.64</ele><time>2025-05-26T02:02:28Z</time></trkpt>
<trkpt lat="50.066052" lon="5.297652"><ele>355.85</ele><time>2025-05-26T02:02:31Z</time></trkpt>
<trkpt lat="50.065938" lon="5.297921"><ele>357.36</ele><time>2025-05-26T02:02:34Z</time></trkpt>
<trkpt lat="50.065809" lon="5.298391"><ele>357.16</ele><time>2025-05-26T02:02:37Z</time></trkpt>
<trkpt lat="50.065686" lon="5.298753"><ele>357.02</ele><time>2025-05-26T02:02:39Z</time></trkpt>
<trkpt lat="50.065497" lon="5.299096"><ele>357.48</ele><time>2025-05-26T02:02:42Z</time></trkpt>
<trkpt lat="50.06528" lon="5.299339"><ele>357.75</ele><time>2025-05-26T02:02:45Z</time></trkpt>
<trkpt lat="50.064815" lon="5.29973"><ele>362.63</ele><time>2025-05-26T02:02:48Z</time></trkpt>
<trkpt lat="50.064664" lon="5.299946"><ele>363.62</ele><time>2025-05-26T02:02:51Z</time></trkpt>
<trkpt lat="50.064105" lon="5.301173"><ele>368.55</ele><time>2025-05-26T02:02:53Z</time></trkpt>
<trkpt lat="50.063716" lon="5.302151"><ele>374.29</ele><time>2025-05-26T02:02:56Z</time></trkpt>
<trkpt lat="50.063581" lon="5.302634"><ele>373.73</ele><time>2025-05-26T02:02:59Z</time></trkpt>
<trkpt lat="50.063513" lon="5.303058"><ele>374.42</ele><time>2025-05-26T02:03:02Z</time></trkpt>
<trkpt lat="50.063438" lon="5.304693"><ele>383.1</ele><time>2025-05-26T02:03:05Z</time></trkpt>
<trkpt lat="50.063438" lon="5.305371"><ele>387.3</ele><time>2025-05-26T02:03:07Z</time></trkpt>
<trkpt lat="50.063505" lon="5.306364"><ele>390.38</ele><time>2025-05-26T02:03:10Z</time></trkpt>
<trkpt lat="50.0635" lon="5.306984"><ele>391.86</ele><time>2025-05-26T02:03:13Z</time></trkpt>
<trkpt lat="50.063451" lon="5.307582"><ele>392.56</ele><time>2025-05-26T02:03:16Z</time></trkpt>
<trkpt lat="50.063293" lon="5.308465"><ele>395.04</ele><time>2025-05-26T02:03:18Z</time></trkpt>
<trkpt lat="50.063236" lon="5.30897"><ele>393.51</ele><time>2025-05-26T02:03:21Z</time></trkpt>
<trkpt lat="50.063223" lon="5.309283"><ele>393.1</ele><time>2025-05-26T02:03:24Z</time></trkpt>
<trkpt lat="50.063234" lon="5.310325"><ele>397.41</ele><time>2025-05-26T02:03:27Z</time></trkpt>
<trkpt lat="50.063226" lon="5.310649"><ele>396.75</ele><time>2025-05-26T02:03:30Z</time></trkpt>
<trkpt lat="50.063189" lon="5.311155"><ele>396.91</ele><time>2025-05-26T02:03:32Z</time></trkpt>
<trkpt lat="50.063019" lon="5.312405"><ele>413.88</ele><time>2025-05-26T02:03:35Z</time></trkpt>
<trkpt lat="50.062955" lon="5.313147"><ele>413.44</ele><time>2025-05-26T02:03:38Z</time></trkpt>
<trkpt lat="50.06285" lon="5.313705"><ele>410.89</ele><time>2025-05-26T02:03:41Z</time></trkpt>
<trkpt lat="50.062591" lon="5.314746"><ele>418.32</ele><time>2025-05-26T02:03:43Z</time></trkpt>
<trkpt lat="50.062537" lon="5.315141"><ele>420.09</ele><time>2025-05-26T02:03:46Z</time></trkpt>
<trkpt lat="50.062457" lon="5.315956"><ele>423.16</ele><time>2025-05-26T02:03:49Z</time></trkpt>
<trkpt lat="50.062353" lon="5.316579"><ele>427.37</ele><time>2025-05-26T02:03:52Z</time></trkpt>
<trkpt lat="50.062261" lon="5.316957"><ele>428.35</ele><time>2025-05-26T02:03:55Z</time></trkpt>
<trkpt lat="50.062144" lon="5.317234"><ele>429.65</ele><time>2025-05-26T02:03:57Z</time></trkpt>
<trkpt lat="50.061968" lon="5.317499"><ele>431.24</ele><time>2025-05-26T02:04:00Z</time></trkpt>
<trkpt lat="50.061866" lon="5.317619"><ele>430.67</ele><time>2025-05-26T02:04:03Z</time></trkpt>
<trkpt lat="50.061642" lon="5.317817"><ele>430.92</ele><time>2025-05-26T02:04:06Z</time></trkpt>
<trkpt lat="50.060847" lon="5.318368"><ele>439.04</ele><time>2025-05-26T02:04:08Z</time></trkpt>
<trkpt lat="50.060634" lon="5.318549"><ele>440.05</ele><time>2025-05-26T02:04:11Z</time></trkpt>
<trkpt lat="50.060465" lon="5.31872"><ele>441.71</ele><time>2025-05-26T02:04:14Z</time></trkpt>
<trkpt lat="50.060319" lon="5.318905"><ele>442.77</ele><time>2025-05-26T02:04:17Z</time></trkpt>
<trkpt lat="50.059882" lon="5.319506"><ele>446.33</ele><time>2025-05-26T02:04:20Z</time></trkpt>
<trkpt lat="50.059729" lon="5.319664"><ele>447.48</ele><time>2025-05-26T02:04:22Z</time></trkpt>
<trkpt lat="50.059438" lon="5.319898"><ele>449.17</ele><time>2025-05-26T02:04:25Z</time></trkpt>
<trkpt lat="50.05914" lon="5.320049"><ele>450.35</ele><time>2025-05-26T02:04:28Z</time></trkpt>
<trkpt lat="50.058853" lon="5.320101"><ele>451.83</ele><time>2025-05-26T02:04:31Z</time></trkpt>
<trkpt lat="50.058642" lon="5.320078"><ele>451.52</ele><time>2025-05-26T02:04:33Z</time></trkpt>
<trkpt lat="50.058372" lon="5.319994"><ele>452.04</ele><time>2025-05-26T02:04:36Z</time></trkpt>
<trkpt lat="50.058025" lon="5.31984"><ele>452.64</ele><time>2025-05-26T02:04:39Z</time></trkpt>
<trkpt lat="50.057829" lon="5.319832"><ele>453.1</ele><time>2025-05-26T02:04:42Z</time></trkpt>
<trkpt lat="50.057614" lon="5.319917"><ele>453.36</ele><time>2025-05-26T02:04:45Z</time></trkpt>
<trkpt lat="50.057424" lon="5.320095"><ele>454.27</ele><time>2025-05-26T02:04:47Z</time></trkpt>
<trkpt lat="50.057346" lon="5.320212"><ele>455.35</ele><time>2025-05-26T02:04:50Z</time></trkpt>
<trkpt lat="50.057265" lon="5.32038"><ele>456.07</ele><time>2025-05-26T02:04:53Z</time></trkpt>
<trkpt lat="50.057203" lon="5.320581"><ele>456.54</ele><time>2025-05-26T02:04:56Z</time></trkpt>
<trkpt lat="50.056872" lon="5.322657"><ele>466.59</ele><time>2025-05-26T02:04:59Z</time></trkpt>
<trkpt lat="50.056804" lon="5.322984"><ele>466.65</ele><time>2025-05-26T02:05:01Z</time></trkpt>
<trkpt lat="50.056675" lon="5.32343"><ele>465.94</ele><time>2025-05-26T02:05:04Z</time></trkpt>
<trkpt lat="50.056353" lon="5.324187"><ele>471.17</ele><time>2025-05-26T02:05:07Z</time></trkpt>
<trkpt lat="50.056039" lon="5.324772"><ele>471.42</ele><time>2025-05-26T02:05:10Z</time></trkpt>
<trkpt lat="50.055799" lon="5.325106"><ele>475.49</ele><time>2025-05-26T02:05:12Z</time></trkpt>
<trkpt lat="50.055259" lon="5.325752"><ele>481.51</ele><time>2025-05-26T02:05:15Z</time></trkpt>
<trkpt lat="50.055051" lon="5.32608"><ele>480.94</ele><time>2025-05-26T02:05:18Z</time></trkpt>
<trkpt lat="50.054886" lon="5.326443"><ele>483.71</ele><time>2025-05-26T02:05:21Z</time></trkpt>
<trkpt lat="50.054637" lon="5.327216"><ele>485.56</ele><time>2025-05-26T02:05:24Z</time></trkpt>
<trkpt lat="50.054403" lon="5.327827"><ele>486.82</ele><time>2025-05-26T02:05:26Z</time></trkpt>
<trkpt lat="50.054323" lon="5.328001"><ele>487.55</ele><time>2025-05-26T02:05:29Z</time></trkpt>
<trkpt lat="50.054121" lon="5.328353"><ele>488.78</ele><time>2025-05-26T02:05:32Z</time></trkpt>
<trkpt lat="50.052648" lon="5.33052"><ele>509.0</ele><time>2025-05-26T02:05:35Z</time></trkpt>
<trkpt lat="50.052184" lon="5.331129"><ele>507.14</ele><time>2025-05-26T02:05:37Z</time></trkpt>
<trkpt lat="50.048136" lon="5.335712"><ele>487.04</ele><time>2025-05-26T02:05:40Z</time></trkpt>
<trkpt lat="50.047857" lon="5.335959"><ele>484.25</ele><time>2025-05-26T02:05:43Z</time></trkpt>
<trkpt lat="50.047697" lon="5.336043"><ele>482.67</ele><time>2025-05-26T02:05:46Z</time></trkpt>
<trkpt lat="50.047499" lon="5.336107"><ele>481.02</ele><time>2025-05-26T02:05:49Z</time></trkpt>
<trkpt lat="50.04726" lon="5.336108"><ele>481.87</ele><time>2025-05-26T02:05:51Z</time></trkpt>
<trkpt lat="50.047006" lon="5.336038"><ele>482.26</ele><time>2025-05-26T02:05:54Z</time></trkpt>
<trkpt lat="50.044165" lon="5.334459"><ele>474.05</ele><time>2025-05-26T02:05:57Z</time></trkpt>
<trkpt lat="50.043728" lon="5.334257"><ele>471.07</ele><time>2025-05-26T02:06:00Z</time></trkpt>
<trkpt lat="50.043555" lon="5.334215"><ele>470.38</ele><time>2025-05-26T02:06:02Z</time></trkpt>
<trkpt lat="50.043189" lon="5.334184"><ele>469.67</ele><time>2025-05-26T02:06:05Z</time></trkpt>
<trkpt lat="50.04283" lon="5.334229"><ele>468.68</ele><time>2025-05-26T02:06:08Z</time></trkpt>
<trkpt lat="50.042599" lon="5.334306"><ele>467.07</ele><time>2025-05-26T02:06:11Z</time></trkpt>
<trkpt lat="50.042164" lon="5.33452"><ele>465.85</ele><time>2025-05-26T02:06:14Z</time></trkpt>
<trkpt lat="50.041795" lon="5.334767"><ele>464.42</ele><time>2025-05-26T02:06:16Z</time></trkpt>
<trkpt lat="50.041641" lon="5.334893"><ele>465.42</ele><time>2025-05-26T02:06:19Z</time></trkpt>
<trkpt lat="50.041384" lon="5.335169"><ele>466.92</ele><time>2025-05-26T02:06:22Z</time></trkpt>
<trkpt lat="50.039013" lon="5.338575"><ele>457.76</ele><time>2025-05-26T02:06:25Z</time></trkpt>
<trkpt lat="50.038557" lon="5.339254"><ele>457.12</ele><time>2025-05-26T02:06:28Z</time></trkpt>
<trkpt lat="50.038208" lon="5.33988"><ele>456.35</ele><time>2025-05-26T02:06:30Z</time></trkpt>
<trkpt lat="50.036377" lon="5.344098"><ele>435.15</ele><time>2025-05-26T02:06:33Z</time></trkpt>
<trkpt lat="50.030796" lon="5.357026"><ele>421.55</ele><time>2025-05-26T02:06:36Z</time></trkpt>
<trkpt lat="50.029878" lon="5.359136"><ele>415.67</ele><time>2025-05-26T02:06:39Z</time></trkpt>
<trkpt lat="50.029602" lon="5.359617"><ele>412.11</ele><time>2025-05-26T02:06:41Z</time></trkpt>
<trkpt lat="50.029425" lon="5.359827"><ele>410.27</ele><time>2025-05-26T02:06:44Z</time></trkpt>
<trkpt lat="50.029258" lon="5.359986"><ele>409.73</ele><time>2025-05-26T02:06:47Z</time></trkpt>
<trkpt lat="50.027611" lon="5.361458"><ele>403.09</ele><time>2025-05-26T02:06:50Z</time></trkpt>
<trkpt lat="50.027413" lon="5.361675"><ele>403.06</ele><time>2025-05-26T02:06:53Z</time></trkpt>
<trkpt lat="50.02727" lon="5.361872"><ele>401.52</ele><time>2025-05-26T02:06:55Z</time></trkpt>
<trkpt lat="50.02717" lon="5.362068"><ele>400.73</ele><time>2025-05-26T02:06:58Z</time></trkpt>
<trkpt lat="50.027093" lon="5.362278"><ele>400.07</ele><time>2025-05-26T02:07:01Z</time></trkpt>
<trkpt lat="50.027034" lon="5.362499"><ele>399.64</ele><time>2025-05-26T02:07:04Z</time></trkpt>
<trkpt lat="50.026862" lon="5.363488"><ele>396.87</ele><time>2025-05-26T02:07:06Z</time></trkpt>
<trkpt lat="50.026706" lon="5.363614"><ele>397.01</ele><time>2025-05-26T02:07:08Z</time></trkpt>
<trkpt lat="50.026733" lon="5.364046"><ele>398.57</ele><time>2025-05-26T02:07:19Z</time></trkpt>
<trkpt lat="50.02671" lon="5.364393"><ele>399.82</ele><time>2025-05-26T02:07:29Z</time></trkpt>
<trkpt lat="50.026632" lon="5.364862"><ele>399.94</ele><time>2025-05-26T02:07:39Z</time></trkpt>
<trkpt lat="50.026602" lon="5.365151"><ele>400.13</ele><time>2025-05-26T02:07:50Z</time></trkpt>
<trkpt lat="50.026586" lon="5.365733"><ele>401.93</ele><time>2025-05-26T02:08:00Z</time></trkpt>
<trkpt lat="50.026601" lon="5.366145"><ele>404.0</ele><time>2025-05-26T02:08:10Z</time></trkpt>
<trkpt lat="50.027596" lon="5.37442"><ele>422.82</ele><time>2025-05-26T02:08:20Z</time></trkpt>
<trkpt lat="50.027563" lon="5.374434"><ele>423.25</ele><time>2025-05-26T02:08:27Z</time></trkpt>
<trkpt lat="50.027518" lon="5.37451"><ele>423.8</ele><time>2025-05-26T02:08:33Z</time></trkpt>
<trkpt lat="50.027398" lon="5.374378"><ele>423.97</ele><time>2025-05-26T02:08:40Z</time></trkpt>
<trkpt lat="50.026853" lon="5.373602"><ele>427.61</ele><time>2025-05-26T02:08:46Z</time></trkpt>
<trkpt lat="50.026508" lon="5.373175"><ele>429.32</ele><time>2025-05-26T02:08:52Z</time></trkpt>
<trkpt lat="50.026446" lon="5.373149"><ele>429.78</ele><time>2025-05-26T02:08:59Z</time></trkpt>
<trkpt lat="50.026118" lon="5.37319"><ele>431.46</ele><time>2025-05-26T02:09:05Z</time></trkpt>
<trkpt lat="50.025987" lon="5.373134"><ele>431.86</ele><time>2025-05-26T02:09:11Z</time></trkpt>
<trkpt lat="50.025768" lon="5.373227"><ele>433.47</ele><time>2025-05-26T02:09:18Z</time></trkpt>
<trkpt lat="50.025562" lon="5.373375"><ele>435.12</ele><time>2025-05-26T02:09:24Z</time></trkpt>
<trkpt lat="50.025364" lon="5.373584"><ele>435.9</ele><time>2025-05-26T02:09:31Z</time></trkpt>
<trkpt lat="50.025293" lon="5.373833"><ele>437.59</ele><time>2025-05-26T02:09:37Z</time></trkpt>
<trkpt lat="50.025222" lon="5.373922"><ele>438.1</ele><time>2025-05-26T02:09:43Z</time></trkpt>
<trkpt lat="50.025248" lon="5.374092"><ele>438.65</ele><time>2025-05-26T02:09:45Z</time></trkpt>
<trkpt lat="50.025166" lon="5.37414"><ele>438.54</ele><time>2025-05-26T02:09:51Z</time></trkpt>
<trkpt lat="50.024993" lon="5.374408"><ele>438.92</ele><time>2025-05-26T02:09:58Z</time></trkpt>
<trkpt lat="50.02481" lon="5.374651"><ele>441.85</ele><time>2025-05-26T02:10:05Z</time></trkpt>
<trkpt lat="50.02428" lon="5.375227"><ele>449.41</ele><time>2025-05-26T02:10:12Z</time></trkpt>
<trkpt lat="50.023832" lon="5.375607"><ele>453.04</ele><time>2025-05-26T02:10:19Z</time></trkpt>
<trkpt lat="50.022972" lon="5.376053"><ele>459.39</ele><time>2025-05-26T02:10:26Z</time></trkpt>
<trkpt lat="50.022563" lon="5.376235"><ele>463.31</ele><time>2025-05-26T02:10:33Z</time></trkpt>
<trkpt lat="50.02232" lon="5.3763"><ele>464.44</ele><time>2025-05-26T02:10:40Z</time></trkpt>
<trkpt lat="50.021669" lon="5.376274"><ele>465.58</ele><time>2025-05-26T02:10:47Z</time></trkpt>
<trkpt lat="50.019126" lon="5.375934"><ele>476.54</ele><time>2025-05-26T02:10:54Z</time></trkpt>
<trkpt lat="50.017942" lon="5.375798"><ele>485.44</ele><time>2025-05-26T02:11:01Z</time></trkpt>
<trkpt lat="50.017526" lon="5.375876"><ele>484.11</ele><time>2025-05-26T02:11:07Z</time></trkpt>
<trkpt lat="50.017304" lon="5.375986"><ele>483.68</ele><time>2025-05-26T02:11:14Z</time></trkpt>
<trkpt lat="50.017101" lon="5.376118"><ele>483.13</ele><time>2025-05-26T02:11:21Z</time></trkpt>
<trkpt lat="50.012948" lon="5.379313"><ele>454.6</ele><time>2025-05-26T02:11:28Z</time></trkpt>
<trkpt lat="50.012229" lon="5.379867"><ele>454.01</ele><time>2025-05-26T02:11:30Z</time></trkpt>
<trkpt lat="50.011964" lon="5.380152"><ele>453.19</ele><time>2025-05-26T02:11:32Z</time></trkpt>
<trkpt lat="50.01185" lon="5.380322"><ele>454.76</ele><time>2025-05-26T02:11:34Z</time></trkpt>
<trkpt lat="50.011757" lon="5.380504"><ele>457.4</ele><time>2025-05-26T02:11:36Z</time></trkpt>
<trkpt lat="50.011679" lon="5.380711"><ele>458.89</ele><time>2025-05-26T02:11:38Z</time></trkpt>
<trkpt lat="50.011576" lon="5.381112"><ele>459.02</ele><time>2025-05-26T02:11:40Z</time></trkpt>
<trkpt lat="50.011524" lon="5.381533"><ele>458.98</ele><time>2025-05-26T02:11:42Z</time></trkpt>
<trkpt lat="50.01153" lon="5.382044"><ele>461.24</ele><time>2025-05-26T02:11:44Z</time></trkpt>
<trkpt lat="50.011614" lon="5.383691"><ele>474.43</ele><time>2025-05-26T02:11:46Z</time></trkpt>
<trkpt lat="50.011363" lon="5.384067"><ele>470.89</ele><time>2025-05-26T02:11:53Z</time></trkpt>
<trkpt lat="50.01128" lon="5.384373"><ele>469.61</ele><time>2025-05-26T02:11:59Z</time></trkpt>
<trkpt lat="50.011092" lon="5.38495"><ele>466.46</ele><time>2025-05-26T02:12:05Z</time></trkpt>
<trkpt lat="50.010438" lon="5.386528"><ele>462.38</ele><time>2025-05-26T02:12:11Z</time></trkpt>
<trkpt lat="50.010265" lon="5.387046"><ele>461.19</ele><time>2025-05-26T02:12:18Z</time></trkpt>
<trkpt lat="50.009873" lon="5.388891"><ele>449.08</ele><time>2025-05-26T02:12:24Z</time></trkpt>
<trkpt lat="50.009777" lon="5.389198"><ele>448.39</ele><time>2025-05-26T02:12:30Z</time></trkpt>
<trkpt lat="50.009558" lon="5.389598"><ele>447.64</ele><time>2025-05-26T02:12:37Z</time></trkpt>
<trkpt lat="50.007885" lon="5.391974"><ele>456.83</ele><time>2025-05-26T02:12:43Z</time></trkpt>
<trkpt lat="50.007738" lon="5.392134"><ele>458.22</ele><time>2025-05-26T02:12:49Z</time></trkpt>
<trkpt lat="50.007442" lon="5.39239"><ele>458.68</ele><time>2025-05-26T02:12:55Z</time></trkpt>
<trkpt lat="50.00679" lon="5.392829"><ele>459.63</ele><time>2025-05-26T02:13:02Z</time></trkpt>
<trkpt lat="50.006264" lon="5.393284"><ele>463.1</ele><time>2025-05-26T02:13:08Z</time></trkpt>
<trkpt lat="50.006172" lon="5.393394"><ele>464.22</ele><time>2025-05-26T02:13:14Z</time></trkpt>
<trkpt lat="50.00615" lon="5.393513"><ele>465.15</ele><time>2025-05-26T02:13:16Z</time></trkpt>
<trkpt lat="50.006148" lon="5.393671"><ele>466.3</ele><time>2025-05-26T02:13:18Z</time></trkpt>
<trkpt lat="50.006104" lon="5.393865"><ele>467.83</ele><time>2025-05-26T02:13:20Z</time></trkpt>
<trkpt lat="50.006031" lon="5.394007"><ele>468.85</ele><time>2025-05-26T02:13:22Z</time></trkpt>
<trkpt lat="50.005828" lon="5.394238"><ele>470.47</ele><time>2025-05-26T02:13:24Z</time></trkpt>
<trkpt lat="50.005732" lon="5.394393"><ele>470.89</ele><time>2025-05-26T02:13:26Z</time></trkpt>
<trkpt lat="50.00568" lon="5.394552"><ele>471.5</ele><time>2025-05-26T02:13:28Z</time></trkpt>
<trkpt lat="50.005625" lon="5.394804"><ele>472.98</ele><time>2025-05-26T02:13:30Z</time></trkpt>
<trkpt lat="50.005561" lon="5.39522"><ele>474.98</ele><time>2025-05-26T02:13:32Z</time></trkpt>
<trkpt lat="50.005514" lon="5.396026"><ele>476.79</ele><time>2025-05-26T02:13:34Z</time></trkpt>
<trkpt lat="50.005531" lon="5.396296"><ele>477.09</ele><time>2025-05-26T02:13:35Z</time></trkpt>
<trkpt lat="50.005417" lon="5.396338"><ele>477.5</ele><time>2025-05-26T02:13:40Z</time></trkpt>
<trkpt lat="50.005183" lon="5.396351"><ele>476.97</ele><time>2025-05-26T02:13:45Z</time></trkpt>
<trkpt lat="50.003915" lon="5.39612"><ele>467.28</ele><time>2025-05-26T02:13:50Z</time></trkpt>
<trkpt lat="50.003338" lon="5.395989"><ele>463.58</ele><time>2025-05-26T02:13:55Z</time></trkpt>
<trkpt lat="50.003228" lon="5.395989"><ele>463.18</ele><time>2025-05-26T02:13:59Z</time></trkpt>
<trkpt lat="50.003116" lon="5.396023"><ele>462.9</ele><time>2025-05-26T02:14:04Z</time></trkpt>
<trkpt lat="50.002974" lon="5.396117"><ele>462.73</ele><time>2025-05-26T02:14:09Z</time></trkpt>
<trkpt lat="50.002488" lon="5.3967"><ele>461.96</ele><time>2025-05-26T02:14:14Z</time></trkpt>
<trkpt lat="50.002377" lon="5.396787"><ele>461.75</ele><time>2025-05-26T02:14:19Z</time></trkpt>
<trkpt lat="50.002249" lon="5.396852"><ele>461.7</ele><time>2025-05-26T02:14:23Z</time></trkpt>
<trkpt lat="50.000431" lon="5.397356"><ele>471.45</ele><time>2025-05-26T02:14:28Z</time></trkpt>
<trkpt lat="49.998653" lon="5.397733"><ele>477.7</ele><time>2025-05-26T02:14:33Z</time></trkpt>
<trkpt lat="49.998174" lon="5.397757"><ele>479.6</ele><time>2025-05-26T02:14:38Z</time></trkpt>
<trkpt lat="49.997753" lon="5.397812"><ele>481.92</ele><time>2025-05-26T02:14:42Z</time></trkpt>
<trkpt lat="49.997406" lon="5.397913"><ele>481.15</ele><time>2025-05-26T02:14:47Z</time></trkpt>
<trkpt lat="49.997263" lon="5.398019"><ele>481.02</ele><time>2025-05-26T02:14:52Z</time></trkpt>
<trkpt lat="49.997196" lon="5.398156"><ele>481.27</ele><time>2025-05-26T02:14:57Z</time></trkpt>
<trkpt lat="49.997117" lon="5.398372"><ele>481.67</ele><time>2025-05-26T02:15:02Z</time></trkpt>
<trkpt lat="49.996748" lon="5.399808"><ele>480.98</ele><time>2025-05-26T02:15:06Z</time></trkpt>
<trkpt lat="49.996649" lon="5.400101"><ele>479.62</ele><time>2025-05-26T02:15:11Z</time></trkpt>
<trkpt lat="49.99648" lon="5.400396"><ele>479.67</ele><time>2025-05-26T02:15:16Z</time></trkpt>
<trkpt lat="49.995895" lon="5.402096"><ele>484.35</ele><time>2025-05-26T02:15:21Z</time></trkpt>
<trkpt lat="49.995725" lon="5.402538"><ele>485.22</ele><time>2025-05-26T02:15:25Z</time></trkpt>
<trkpt lat="49.995531" lon="5.402948"><ele>484.02</ele><time>2025-05-26T02:15:30Z</time></trkpt>
<trkpt lat="49.995303" lon="5.403326"><ele>485.7</ele><time>2025-05-26T02:15:35Z</time></trkpt>
<trkpt lat="49.994709" lon="5.404121"><ele>484.08</ele><time>2025-05-26T02:15:40Z</time></trkpt>
<trkpt lat="49.993285" lon="5.4056"><ele>491.36</ele><time>2025-05-26T02:15:45Z</time></trkpt>
<trkpt lat="49.991793" lon="5.407114"><ele>509.0</ele><time>2025-05-26T02:15:49Z</time></trkpt>
<trkpt lat="49.990778" lon="5.408258"><ele>508.94</ele><time>2025-05-26T02:15:54Z</time></trkpt>
<trkpt lat="49.989872" lon="5.409673"><ele>497.04</ele><time>2025-05-26T02:15:59Z</time></trkpt>
<trkpt lat="49.989137" lon="5.411054"><ele>494.55</ele><time>2025-05-26T02:16:04Z</time></trkpt>
<trkpt lat="49.988078" lon="5.412596"><ele>492.57</ele><time>2025-05-26T02:16:09Z</time></trkpt>
<trkpt lat="49.986671" lon="5.414564"><ele>477.99</ele><time>2025-05-26T02:16:13Z</time></trkpt>
<trkpt lat="49.986355" lon="5.415039"><ele>471.31</ele><time>2025-05-26T02:16:18Z</time></trkpt>
<trkpt lat="49.98615" lon="5.415424"><ele>468.16</ele><time>2025-05-26T02:16:23Z</time></trkpt>
<trkpt lat="49.986058" lon="5.415756"><ele>468.34</ele><time>2025-05-26T02:16:28Z</time></trkpt>
<trkpt lat="49.985783" lon="5.416451"><ele>466.58</ele><time>2025-05-26T02:16:32Z</time></trkpt>
<trkpt lat="49.985568" lon="5.416763"><ele>465.86</ele><time>2025-05-26T02:16:37Z</time></trkpt>
<trkpt lat="49.985334" lon="5.417007"><ele>466.61</ele><time>2025-05-26T02:16:42Z</time></trkpt>
<trkpt lat="49.985055" lon="5.417384"><ele>468.25</ele><time>2025-05-26T02:16:47Z</time></trkpt>
<trkpt lat="49.984872" lon="5.417701"><ele>470.14</ele><time>2025-05-26T02:16:52Z</time></trkpt>
<trkpt lat="49.982703" lon="5.422143"><ele>481.6</ele><time>2025-05-26T02:16:56Z</time></trkpt>
<trkpt lat="49.980556" lon="5.424894"><ele>472.62</ele><time>2025-05-26T02:17:01Z</time></trkpt>
<trkpt lat="49.980165" lon="5.425282"><ele>476.03</ele><time>2025-05-26T02:17:06Z</time></trkpt>
<trkpt lat="49.976426" lon="5.426412"><ele>476.21</ele><time>2025-05-26T02:17:11Z</time></trkpt>
<trkpt lat="49.9753" lon="5.42721"><ele>479.64</ele><time>2025-05-26T02:17:16Z</time></trkpt>
<trkpt lat="49.974872" lon="5.427578"><ele>482.8</ele><time>2025-05-26T02:17:20Z</time></trkpt>
<trkpt lat="49.974521" lon="5.427926"><ele>483.37</ele><time>2025-05-26T02:17:25Z</time></trkpt>
<trkpt lat="49.970515" lon="5.431679"><ele>467.81</ele><time>2025-05-26T02:17:30Z</time></trkpt>
<trkpt lat="49.970304" lon="5.431886"><ele>466.3</ele><time>2025-05-26T02:17:35Z</time></trkpt>
<trkpt lat="49.970091" lon="5.432184"><ele>465.63</ele><time>2025-05-26T02:17:39Z</time></trkpt>
<trkpt lat="49.969797" lon="5.433005"><ele>464.27</ele><time>2025-05-26T02:17:44Z</time></trkpt>
<trkpt lat="49.968847" lon="5.435314"><ele>458.0</ele><time>2025-05-26T02:17:49Z</time></trkpt>
<trkpt lat="49.968218" lon="5.437152"><ele>462.33</ele><time>2025-05-26T02:17:54Z</time></trkpt>
<trkpt lat="49.967845" lon="5.439275"><ele>458.46</ele><time>2025-05-26T02:17:59Z</time></trkpt>
<trkpt lat="49.967527" lon="5.440639"><ele>453.77</ele><time>2025-05-26T02:18:03Z</time></trkpt>
<trkpt lat="49.967119" lon="5.441788"><ele>454.09</ele><time>2025-05-26T02:18:08Z</time></trkpt>
<trkpt lat="49.966555" lon="5.442672"><ele>450.61</ele><time>2025-05-26T02:18:13Z</time></trkpt>
<trkpt lat="49.966138" lon="5.443272"><ele>453.49</ele><time>2025-05-26T02:18:18Z</time></trkpt>
<trkpt lat="49.965902" lon="5.44394"><ele>459.02</ele><time>2025-05-26T02:18:22Z</time></trkpt>
<trkpt lat="49.965689" lon="5.444929"><ele>460.69</ele><time>2025-05-26T02:18:27Z</time></trkpt>
<trkpt lat="49.964324" lon="5.448177"><ele>467.62</ele><time>2025-05-26T02:18:32Z</time></trkpt>
<trkpt lat="49.963604" lon="5.450502"><ele>471.95</ele><time>2025-05-26T02:18:37Z</time></trkpt>
<trkpt lat="49.961996" lon="5.453796"><ele>475.48</ele><time>2025-05-26T02:18:42Z</time></trkpt>
<trkpt lat="49.961104" lon="5.454825"><ele>487.04</ele><time>2025-05-26T02:18:46Z</time></trkpt>
<trkpt lat="49.958309" lon="5.457317"><ele>470.83</ele><time>2025-05-26T02:18:51Z</time></trkpt>
<trkpt lat="49.957266" lon="5.458291"><ele>469.41</ele><time>2025-05-26T02:18:56Z</time></trkpt>
<trkpt lat="49.955469" lon="5.460401"><ele>485.71</ele><time>2025-05-26T02:19:01Z</time></trkpt>
<trkpt lat="49.954048" lon="5.461503"><ele>481.34</ele><time>2025-05-26T02:19:06Z</time></trkpt>
<trkpt lat="49.953777" lon="5.461773"><ele>482.11</ele><time>2025-05-26T02:19:10Z</time></trkpt>
<trkpt lat="49.953603" lon="5.462009"><ele>485.27</ele><time>2025-05-26T02:19:15Z</time></trkpt>
<trkpt lat="49.952947" lon="5.46317"><ele>485.89</ele><time>2025-05-26T02:19:20Z</time></trkpt>
<trkpt lat="49.952698" lon="5.463446"><ele>488.56</ele><time>2025-05-26T02:19:25Z</time></trkpt>
<trkpt lat="49.950994" lon="5.464455"><ele>495.05</ele><time>2025-05-26T02:19:29Z</time></trkpt>
<trkpt lat="49.950609" lon="5.464773"><ele>490.28</ele><time>2025-05-26T02:19:34Z</time></trkpt>
<trkpt lat="49.949709" lon="5.465594"><ele>485.81</ele><time>2025-05-26T02:19:39Z</time></trkpt>
<trkpt lat="49.949173" lon="5.465926"><ele>483.66</ele><time>2025-05-26T02:19:44Z</time></trkpt>
<trkpt lat="49.948625" lon="5.466471"><ele>485.95</ele><time>2025-05-26T02:19:49Z</time></trkpt>
<trkpt lat="49.948439" lon="5.466627"><ele>486.62</ele><time>2025-05-26T02:19:53Z</time></trkpt>
<trkpt lat="49.947738" lon="5.466977"><ele>495.26</ele><time>2025-05-26T02:19:58Z</time></trkpt>
<trkpt lat="49.946799" lon="5.467072"><ele>501.91</ele><time>2025-05-26T02:20:03Z</time></trkpt>
<trkpt lat="49.946542" lon="5.467141"><ele>502.9</ele><time>2025-05-26T02:20:08Z</time></trkpt>
<trkpt lat="49.946285" lon="5.467244"><ele>501.62</ele><time>2025-05-26T02:20:13Z</time></trkpt>
<trkpt lat="49.946036" lon="5.467465"><ele>497.14</ele><time>2025-05-26T02:20:17Z</time></trkpt>
<trkpt lat="49.945811" lon="5.467627"><ele>493.3</ele><time>2025-05-26T02:20:22Z</time></trkpt>
<trkpt lat="49.945539" lon="5.467678"><ele>489.96</ele><time>2025-05-26T02:20:27Z</time></trkpt>
<trkpt lat="49.944776" lon="5.467622"><ele>480.76</ele><time>2025-05-26T02:20:32Z</time></trkpt>
<trkpt lat="49.944414" lon="5.467671"><ele>477.83</ele><time>2025-05-26T02:20:36Z</time></trkpt>
<trkpt lat="49.943644" lon="5.467962"><ele>474.0</ele><time>2025-05-26T02:20:41Z</time></trkpt>
<trkpt lat="49.943425" lon="5.468079"><ele>475.4</ele><time>2025-05-26T02:20:46Z</time></trkpt>
<trkpt lat="49.943236" lon="5.468219"><ele>477.49</ele><time>2025-05-26T02:20:51Z</time></trkpt>
<trkpt lat="49.94294" lon="5.468501"><ele>481.6</ele><time>2025-05-26T02:20:56Z</time></trkpt>
<trkpt lat="49.942775" lon="5.468628"><ele>483.02</ele><time>2025-05-26T02:21:00Z</time></trkpt>
<trkpt lat="49.942592" lon="5.468712"><ele>484.09</ele><time>2025-05-26T02:21:05Z</time></trkpt>
<trkpt lat="49.941685" lon="5.46901"><ele>482.2</ele><time>2025-05-26T02:21:10Z</time></trkpt>
<trkpt lat="49.941507" lon="5.469116"><ele>480.79</ele><time>2025-05-26T02:21:15Z</time></trkpt>
<trkpt lat="49.941321" lon="5.469273"><ele>480.15</ele><time>2025-05-26T02:21:19Z</time></trkpt>
<trkpt lat="49.940811" lon="5.469891"><ele>480.19</ele><time>2025-05-26T02:21:24Z</time></trkpt>
<trkpt lat="49.940513" lon="5.470359"><ele>482.06</ele><time>2025-05-26T02:21:29Z</time></trkpt>
<trkpt lat="49.93987" lon="5.471679"><ele>482.98</ele><time>2025-05-26T02:21:34Z</time></trkpt>
<trkpt lat="49.939661" lon="5.472013"><ele>485.69</ele><time>2025-05-26T02:21:39Z</time></trkpt>
<trkpt lat="49.939517" lon="5.472198"><ele>487.39</ele><time>2025-05-26T02:21:43Z</time></trkpt>
<trkpt lat="49.939362" lon="5.47236"><ele>487.7</ele><time>2025-05-26T02:21:48Z</time></trkpt>
<trkpt lat="49.938901" lon="5.472771"><ele>486.98</ele><time>2025-05-26T02:21:53Z</time></trkpt>
<trkpt lat="49.938729" lon="5.472963"><ele>487.0</ele><time>2025-05-26T02:21:58Z</time></trkpt>
<trkpt lat="49.938355" lon="5.473535"><ele>486.75</ele><time>2025-05-26T02:22:03Z</time></trkpt>
<trkpt lat="49.938178" lon="5.473872"><ele>487.38</ele><time>2025-05-26T02:22:07Z</time></trkpt>
<trkpt lat="49.937475" lon="5.47657"><ele>478.61</ele><time>2025-05-26T02:22:12Z</time></trkpt>
<trkpt lat="49.936762" lon="5.47862"><ele>477.28</ele><time>2025-05-26T02:22:17Z</time></trkpt>
<trkpt lat="49.936605" lon="5.479479"><ele>474.64</ele><time>2025-05-26T02:22:22Z</time></trkpt>
<trkpt lat="49.936728" lon="5.480718"><ele>466.3</ele><time>2025-05-26T02:22:26Z</time></trkpt>
<trkpt lat="49.936655" lon="5.481185"><ele>466.14</ele><time>2025-05-26T02:22:31Z</time></trkpt>
<trkpt lat="49.935924" lon="5.482591"><ele>455.44</ele><time>2025-05-26T02:22:36Z</time></trkpt>
<trkpt lat="49.935766" lon="5.483032"><ele>457.85</ele><time>2025-05-26T02:22:41Z</time></trkpt>
<trkpt lat="49.935631" lon="5.48356"><ele>461.13</ele><time>2025-05-26T02:22:46Z</time></trkpt>
<trkpt lat="49.935461" lon="5.484455"><ele>466.72</ele><time>2025-05-26T02:22:50Z</time></trkpt>
<trkpt lat="49.935424" lon="5.484784"><ele>468.27</ele><time>2025-05-26T02:22:55Z</time></trkpt>
<trkpt lat="49.935272" lon="5.486937"><ele>473.04</ele><time>2025-05-26T02:23:00Z</time></trkpt>
<trkpt lat="49.935293" lon="5.487864"><ele>479.96</ele><time>2025-05-26T02:23:05Z</time></trkpt>
<trkpt lat="49.93544" lon="5.489386"><ele>479.63</ele><time>2025-05-26T02:23:10Z</time></trkpt>
<trkpt lat="49.935429" lon="5.489638"><ele>478.06</ele><time>2025-05-26T02:23:14Z</time></trkpt>
<trkpt lat="49.935393" lon="5.489826"><ele>476.68</ele><time>2025-05-26T02:23:19Z</time></trkpt>
<trkpt lat="49.935288" lon="5.49011"><ele>475.51</ele><time>2025-05-26T02:23:24Z</time></trkpt>
<trkpt lat="49.93517" lon="5.490321"><ele>475.67</ele><time>2025-05-26T02:23:29Z</time></trkpt>
<trkpt lat="49.933994" lon="5.492138"><ele>478.24</ele><time>2025-05-26T02:23:33Z</time></trkpt>
<trkpt lat="49.932941" lon="5.493316"><ele>489.24</ele><time>2025-05-26T02:23:38Z</time></trkpt>
<trkpt lat="49.932336" lon="5.494041"><ele>491.69</ele><time>2025-05-26T02:23:43Z</time></trkpt>
<trkpt lat="49.931712" lon="5.494682"><ele>500.22</ele><time>2025-05-26T02:23:48Z</time></trkpt>
<trkpt lat="49.931053" lon="5.495101"><ele>502.5</ele><time>2025-05-26T02:23:53Z</time></trkpt>
<trkpt lat="49.930114" lon="5.495657"><ele>507.07</ele><time>2025-05-26T02:23:57Z</time></trkpt>
<trkpt lat="49.929762" lon="5.495991"><ele>509.63</ele><time>2025-05-26T02:24:02Z</time></trkpt>
<trkpt lat="49.92923" lon="5.496568"><ele>512.13</ele><time>2025-05-26T02:24:07Z</time></trkpt>
<trkpt lat="49.929102" lon="5.496764"><ele>511.88</ele><time>2025-05-26T02:24:12Z</time></trkpt>
<trkpt lat="49.928812" lon="5.497301"><ele>512.07</ele><time>2025-05-26T02:24:17Z</time></trkpt>
<trkpt lat="49.928695" lon="5.497443"><ele>512.46</ele><time>2025-05-26T02:24:21Z</time></trkpt>
<trkpt lat="49.928582" lon="5.497524"><ele>513.03</ele><time>2025-05-26T02:24:26Z</time></trkpt>
<trkpt lat="49.928357" lon="5.497596"><ele>513.88</ele><time>2025-05-26T02:24:31Z</time></trkpt>
<trkpt lat="49.928178" lon="5.497602"><ele>514.35</ele><time>2025-05-26T02:24:36Z</time></trkpt>
<trkpt lat="49.927625" lon="5.497548"><ele>516.09</ele><time>2025-05-26T02:24:40Z</time></trkpt>
<trkpt lat="49.92717" lon="5.497553"><ele>514.16</ele><time>2025-05-26T02:24:45Z</time></trkpt>
<trkpt lat="49.926913" lon="5.49763"><ele>512.99</ele><time>2025-05-26T02:24:50Z</time></trkpt>
<trkpt lat="49.926722" lon="5.497734"><ele>513.81</ele><time>2025-05-26T02:24:55Z</time></trkpt>
<trkpt lat="49.926535" lon="5.497871"><ele>515.28</ele><time>2025-05-26T02:25:00Z</time></trkpt>
<trkpt lat="49.926217" lon="5.498169"><ele>517.66</ele><time>2025-05-26T02:25:04Z</time></trkpt>
<trkpt lat="49.9247" lon="5.499685"><ele>523.59</ele><time>2025-05-26T02:25:09Z</time></trkpt>
<trkpt lat="49.924605" lon="5.499673"><ele>522.95</ele><time>2025-05-26T02:25:14Z</time></trkpt>
<trkpt lat="49.924548" lon="5.499622"><ele>522.47</ele><time>2025-05-26T02:25:19Z</time></trkpt>
<trkpt lat="49.924452" lon="5.499984"><ele>522.05</ele><time>2025-05-26T02:25:24Z</time></trkpt>
<trkpt lat="49.923218" lon="5.50185"><ele>514.34</ele><time>2025-05-26T02:25:29Z</time></trkpt>
<trkpt lat="49.923037" lon="5.502085"><ele>511.39</ele><time>2025-05-26T02:25:34Z</time></trkpt>
<trkpt lat="49.922839" lon="5.502283"><ele>510.0</ele><time>2025-05-26T02:25:39Z</time></trkpt>
<trkpt lat="49.922238" lon="5.502778"><ele>511.06</ele><time>2025-05-26T02:25:44Z</time></trkpt>
<trkpt lat="49.919473" lon="5.504927"><ele>522.63</ele><time>2025-05-26T02:25:49Z</time></trkpt>
<trkpt lat="49.919232" lon="5.505141"><ele>523.13</ele><time>2025-05-26T02:25:55Z</time></trkpt>
<trkpt lat="49.91914" lon="5.505265"><ele>523.91</ele><time>2025-05-26T02:26:00Z</time></trkpt>
<trkpt lat="49.918861" lon="5.505795"><ele>527.62</ele><time>2025-05-26T02:26:05Z</time></trkpt>
<trkpt lat="49.918633" lon="5.506097"><ele>528.03</ele><time>2025-05-26T02:26:10Z</time></trkpt>
<trkpt lat="49.918135" lon="5.506512"><ele>529.55</ele><time>2025-05-26T02:26:15Z</time></trkpt>
<trkpt lat="49.91792" lon="5.506643"><ele>530.45</ele><time>2025-05-26T02:26:20Z</time></trkpt>
<trkpt lat="49.916275" lon="5.507219"><ele>533.41</ele><time>2025-05-26T02:26:25Z</time></trkpt>
<trkpt lat="49.91599" lon="5.507322"><ele>534.51</ele><time>2025-05-26T02:26:30Z</time></trkpt>
<trkpt lat="49.915442" lon="5.507632"><ele>541.29</ele><time>2025-05-26T02:26:35Z</time></trkpt>
<trkpt lat="49.915209" lon="5.5078"><ele>544.17</ele><time>2025-05-26T02:26:40Z</time></trkpt>
<trkpt lat="49.914812" lon="5.50814"><ele>543.8</ele><time>2025-05-26T02:26:46Z</time></trkpt>
<trkpt lat="49.914454" lon="5.508542"><ele>542.52</ele><time>2025-05-26T02:26:51Z</time></trkpt>
<trkpt lat="49.914135" lon="5.509094"><ele>540.28</ele><time>2025-05-26T02:26:56Z</time></trkpt>
<trkpt lat="49.913729" lon="5.509965"><ele>535.47</ele><time>2025-05-26T02:27:01Z</time></trkpt>
<trkpt lat="49.913466" lon="5.510488"><ele>530.58</ele><time>2025-05-26T02:27:06Z</time></trkpt>
<trkpt lat="49.913125" lon="5.51105"><ele>523.14</ele><time>2025-05-26T02:27:11Z</time></trkpt>
<trkpt lat="49.912714" lon="5.511639"><ele>520.31</ele><time>2025-05-26T02:27:16Z</time></trkpt>
<trkpt lat="49.912324" lon="5.512137"><ele>520.37</ele><time>2025-05-26T02:27:21Z</time></trkpt>
<trkpt lat="49.912066" lon="5.512401"><ele>520.0</ele><time>2025-05-26T02:27:26Z</time></trkpt>
<trkpt lat="49.911255" lon="5.513117"><ele>514.63</ele><time>2025-05-26T02:27:31Z</time></trkpt>
<trkpt lat="49.911011" lon="5.51341"><ele>514.08</ele><time>2025-05-26T02:27:36Z</time></trkpt>
<trkpt lat="49.909907" lon="5.51498"><ele>508.77</ele><time>2025-05-26T02:27:42Z</time></trkpt>
<trkpt lat="49.909754" lon="5.515244"><ele>508.89</ele><time>2025-05-26T02:27:47Z</time></trkpt>
<trkpt lat="49.909505" lon="5.515842"><ele>507.97</ele><time>2025-05-26T02:27:52Z</time></trkpt>
<trkpt lat="49.909135" lon="5.517118"><ele>504.08</ele><time>2025-05-26T02:27:57Z</time></trkpt>
<trkpt lat="49.908053" lon="5.521102"><ele>498.09</ele><time>2025-05-26T02:28:02Z</time></trkpt>
<trkpt lat="49.907375" lon="5.524678"><ele>500.38</ele><time>2025-05-26T02:28:07Z</time></trkpt>
<trkpt lat="49.907231" lon="5.525229"><ele>500.97</ele><time>2025-05-26T02:28:12Z</time></trkpt>
<trkpt lat="49.906975" lon="5.525849"><ele>499.88</ele><time>2025-05-26T02:28:17Z</time></trkpt>
<trkpt lat="49.906648" lon="5.52642"><ele>497.82</ele><time>2025-05-26T02:28:22Z</time></trkpt>
<trkpt lat="49.90563" lon="5.527746"><ele>493.68</ele><time>2025-05-26T02:28:27Z</time></trkpt>
<trkpt lat="49.905017" lon="5.528544"><ele>494.02</ele><time>2025-05-26T02:28:33Z</time></trkpt>
<trkpt lat="49.904813" lon="5.528948"><ele>493.47</ele><time>2025-05-26T02:28:38Z</time></trkpt>
<trkpt lat="49.904273" lon="5.53132"><ele>492.0</ele><time>2025-05-26T02:28:43Z</time></trkpt>
<trkpt lat="49.904044" lon="5.531926"><ele>492.93</ele><time>2025-05-26T02:28:48Z</time></trkpt>
<trkpt lat="49.903737" lon="5.532492"><ele>492.45</ele><time>2025-05-26T02:28:53Z</time></trkpt>
<trkpt lat="49.902509" lon="5.534244"><ele>492.02</ele><time>2025-05-26T02:28:58Z</time></trkpt>
<trkpt lat="49.902212" lon="5.534619"><ele>490.95</ele><time>2025-05-26T02:29:03Z</time></trkpt>
<trkpt lat="49.901979" lon="5.534842"><ele>490.13</ele><time>2025-05-26T02:29:08Z</time></trkpt>
<trkpt lat="49.901604" lon="5.535116"><ele>489.23</ele><time>2025-05-26T02:29:13Z</time></trkpt>
<trkpt lat="49.901307" lon="5.535267"><ele>487.71</ele><time>2025-05-26T02:29:18Z</time></trkpt>
<trkpt lat="49.901133" lon="5.535385"><ele>486.69</ele><time>2025-05-26T02:29:24Z</time></trkpt>
<trkpt lat="49.900869" lon="5.535624"><ele>485.79</ele><time>2025-05-26T02:29:29Z</time></trkpt>
<trkpt lat="49.900821" lon="5.535767"><ele>485.18</ele><time>2025-05-26T02:29:34Z</time></trkpt>
<trkpt lat="49.900717" lon="5.53622"><ele>484.0</ele><time>2025-05-26T02:29:39Z</time></trkpt>
<trkpt lat="49.900683" lon="5.536527"><ele>484.27</ele><time>2025-05-26T02:29:44Z</time></trkpt>
<trkpt lat="49.900665" lon="5.536874"><ele>483.86</ele><time>2025-05-26T02:29:49Z</time></trkpt>
<trkpt lat="49.900672" lon="5.537077"><ele>482.83</ele><time>2025-05-26T02:29:54Z</time></trkpt>
<trkpt lat="49.900695" lon="5.537229"><ele>481.96</ele><time>2025-05-26T02:29:59Z</time></trkpt>
<trkpt lat="49.900826" lon="5.537775"><ele>479.98</ele><time>2025-05-26T02:30:04Z</time></trkpt>
<trkpt lat="49.900839" lon="5.537936"><ele>479.45</ele><time>2025-05-26T02:30:09Z</time></trkpt>
<trkpt lat="49.900795" lon="5.538034"><ele>478.94</ele><time>2025-05-26T02:30:15Z</time></trkpt>
<trkpt lat="49.900731" lon="5.538097"><ele>478.58</ele><time>2025-05-26T02:30:20Z</time></trkpt>
<trkpt lat="49.900048" lon="5.538404"><ele>472.14</ele><time>2025-05-26T02:30:25Z</time></trkpt>
<trkpt lat="49.899797" lon="5.538705"><ele>469.2</ele><time>2025-05-26T02:30:30Z</time></trkpt>
<trkpt lat="49.899099" lon="5.539772"><ele>465.51</ele><time>2025-05-26T02:30:35Z</time></trkpt>
<trkpt lat="49.898558" lon="5.540646"><ele>463.81</ele><time>2025-05-26T02:30:40Z</time></trkpt>
<trkpt lat="49.898316" lon="5.541063"><ele>462.88</ele><time>2025-05-26T02:30:45Z</time></trkpt>
<trkpt lat="49.897781" lon="5.542153"><ele>456.78</ele><time>2025-05-26T02:30:50Z</time></trkpt>
<trkpt lat="49.897526" lon="5.542633"><ele>459.0</ele><time>2025-05-26T02:30:55Z</time></trkpt>
<trkpt lat="49.897198" lon="5.543143"><ele>457.6</ele><time>2025-05-26T02:31:00Z</time></trkpt>
<trkpt lat="49.896951" lon="5.54349"><ele>456.01</ele><time>2025-05-26T02:31:06Z</time></trkpt>
<trkpt lat="49.895935" lon="5.544594"><ele>460.9</ele><time>2025-05-26T02:31:11Z</time></trkpt>
<trkpt lat="49.895635" lon="5.544881"><ele>459.57</ele><time>2025-05-26T02:31:16Z</time></trkpt>
<trkpt lat="49.895339" lon="5.545022"><ele>457.58</ele><time>2025-05-26T02:31:21Z</time></trkpt>
<trkpt lat="49.894053" lon="5.54518"><ele>457.59</ele><time>2025-05-26T02:31:26Z</time></trkpt>
<trkpt lat="49.893335" lon="5.545426"><ele>455.6</ele><time>2025-05-26T02:31:31Z</time></trkpt>
<trkpt lat="49.89291" lon="5.545717"><ele>455.11</ele><time>2025-05-26T02:31:36Z</time></trkpt>
<trkpt lat="49.892246" lon="5.546523"><ele>454.69</ele><time>2025-05-26T02:31:41Z</time></trkpt>
<trkpt lat="49.892066" lon="5.546701"><ele>453.93</ele><time>2025-05-26T02:31:46Z</time></trkpt>
<trkpt lat="49.891488" lon="5.546978"><ele>453.41</ele><time>2025-05-26T02:31:51Z</time></trkpt>
<trkpt lat="49.891217" lon="5.547165"><ele>454.89</ele><time>2025-05-26T02:31:56Z</time></trkpt>
<trkpt lat="49.89053" lon="5.548078"><ele>462.78</ele><time>2025-05-26T02:32:02Z</time></trkpt>
<trkpt lat="49.889839" lon="5.548704"><ele>457.58</ele><time>2025-05-26T02:32:07Z</time></trkpt>
<trkpt lat="49.889051" lon="5.549364"><ele>453.54</ele><time>2025-05-26T02:32:12Z</time></trkpt>
<trkpt lat="49.888849" lon="5.549445"><ele>453.72</ele><time>2025-05-26T02:32:17Z</time></trkpt>
<trkpt lat="49.888695" lon="5.549471"><ele>452.73</ele><time>2025-05-26T02:32:22Z</time></trkpt>
<trkpt lat="49.88775" lon="5.549546"><ele>447.96</ele><time>2025-05-26T02:32:27Z</time></trkpt>
<trkpt lat="49.885116" lon="5.549719"><ele>455.79</ele><time>2025-05-26T02:32:32Z</time></trkpt>
<trkpt lat="49.884493" lon="5.549807"><ele>455.05</ele><time>2025-05-26T02:32:37Z</time></trkpt>
<trkpt lat="49.884203" lon="5.549938"><ele>457.47</ele><time>2025-05-26T02:32:42Z</time></trkpt>
<trkpt lat="49.883165" lon="5.550622"><ele>455.35</ele><time>2025-05-26T02:32:47Z</time></trkpt>
<trkpt lat="49.883017" lon="5.550695"><ele>454.23</ele><time>2025-05-26T02:32:53Z</time></trkpt>
<trkpt lat="49.882793" lon="5.550751"><ele>453.63</ele><time>2025-05-26T02:32:58Z</time></trkpt>
<trkpt lat="49.881842" lon="5.550757"><ele>450.18</ele><time>2025-05-26T02:33:03Z</time></trkpt>
<trkpt lat="49.881742" lon="5.550859"><ele>450.36</ele><time>2025-05-26T02:33:08Z</time></trkpt>
<trkpt lat="49.881664" lon="5.550991"><ele>450.55</ele><time>2025-05-26T02:33:13Z</time></trkpt>
<trkpt lat="49.881528" lon="5.551243"><ele>449.98</ele><time>2025-05-26T02:33:18Z</time></trkpt>
<trkpt lat="49.88148" lon="5.55137"><ele>449.91</ele><time>2025-05-26T02:33:23Z</time></trkpt>
<trkpt lat="49.88147" lon="5.551631"><ele>450.5</ele><time>2025-05-26T02:33:28Z</time></trkpt>
<trkpt lat="49.881495" lon="5.551839"><ele>451.62</ele><time>2025-05-26T02:33:33Z</time></trkpt>
<trkpt lat="49.88167" lon="5.552692"><ele>457.03</ele><time>2025-05-26T02:33:38Z</time></trkpt>
<trkpt lat="49.882422" lon="5.556113"><ele>474.57</ele><time>2025-05-26T02:33:44Z</time></trkpt>
<trkpt lat="49.882447" lon="5.556352"><ele>475.08</ele><time>2025-05-26T02:33:49Z</time></trkpt>
<trkpt lat="49.88245" lon="5.556583"><ele>476.58</ele><time>2025-05-26T02:33:54Z</time></trkpt>
<trkpt lat="49.88235" lon="5.556954"><ele>479.6</ele><time>2025-05-26T02:33:57Z</time></trkpt>
<trkpt lat="49.882216" lon="5.557275"><ele>481.19</ele><time>2025-05-26T02:33:59Z</time></trkpt>
<trkpt lat="49.882064" lon="5.557502"><ele>482.0</ele><time>2025-05-26T02:34:02Z</time></trkpt>
<trkpt lat="49.880774" lon="5.558864"><ele>478.79</ele><time>2025-05-26T02:34:05Z</time></trkpt>
<trkpt lat="49.880561" lon="5.559201"><ele>477.76</ele><time>2025-05-26T02:34:08Z</time></trkpt>
<trkpt lat="49.880422" lon="5.55964"><ele>474.51</ele><time>2025-05-26T02:34:11Z</time></trkpt>
<trkpt lat="49.880422" lon="5.55964"><ele>474.51</ele><time>2025-05-26T02:34:11Z</time></trkpt>
<trkpt lat="49.880561" lon="5.559201"><ele>477.76</ele><time>2025-05-26T02:34:14Z</time></trkpt>
<trkpt lat="49.880774" lon="5.558864"><ele>478.79</ele><time>2025-05-26T02:34:17Z</time></trkpt>
<trkpt lat="49.882064" lon="5.557502"><ele>482.0</ele><time>2025-05-26T02:34:21Z</time></trkpt>
<trkpt lat="49.882216" lon="5.557275"><ele>481.19</ele><time>2025-05-26T02:34:24Z</time></trkpt>
<trkpt lat="49.88235" lon="5.556954"><ele>479.6</ele><time>2025-05-26T02:34:29Z</time></trkpt>
<trkpt lat="49.88245" lon="5.556583"><ele>476.58</ele><time>2025-05-26T02:34:34Z</time></trkpt>
<trkpt lat="49.882447" lon="5.556352"><ele>475.08</ele><time>2025-05-26T02:34:38Z</time></trkpt>
<trkpt lat="49.882422" lon="5.556113"><ele>474.57</ele><time>2025-05-26T02:34:43Z</time></trkpt>
<trkpt lat="49.88167" lon="5.552692"><ele>457.03</ele><time>2025-05-26T02:34:48Z</time></trkpt>
<trkpt lat="49.881495" lon="5.551839"><ele>451.62</ele><time>2025-05-26T02:34:52Z</time></trkpt>
<trkpt lat="49.88147" lon="5.551631"><ele>450.5</ele><time>2025-05-26T02:34:57Z</time></trkpt>
<trkpt lat="49.88148" lon="5.55137"><ele>449.91</ele><time>2025-05-26T02:35:02Z</time></trkpt>
<trkpt lat="49.881528" lon="5.551243"><ele>449.98</ele><time>2025-05-26T02:35:06Z</time></trkpt>
<trkpt lat="49.881664" lon="5.550991"><ele>450.55</ele><time>2025-05-26T02:35:11Z</time></trkpt>
<trkpt lat="49.881742" lon="5.550859"><ele>450.36</ele><time>2025-05-26T02:35:16Z</time></trkpt>
<trkpt lat="49.881842" lon="5.550757"><ele>450.18</ele><time>2025-05-26T02:35:20Z</time></trkpt>
<trkpt lat="49.88176" lon="5.550605"><ele>449.24</ele><time>2025-05-26T02:35:25Z</time></trkpt>
<trkpt lat="49.881275" lon="5.549159"><ele>448.03</ele><time>2025-05-26T02:35:30Z</time></trkpt>
<trkpt lat="49.881198" lon="5.549053"><ele>448.41</ele><time>2025-05-26T02:35:34Z</time></trkpt>
<trkpt lat="49.881098" lon="5.549"><ele>448.59</ele><time>2025-05-26T02:35:39Z</time></trkpt>
<trkpt lat="49.881019" lon="5.549001"><ele>448.53</ele><time>2025-05-26T02:35:44Z</time></trkpt>
<trkpt lat="49.879984" lon="5.549282"><ele>448.06</ele><time>2025-05-26T02:35:48Z</time></trkpt>
<trkpt lat="49.87981" lon="5.549278"><ele>448.68</ele><time>2025-05-26T02:35:53Z</time></trkpt>
<trkpt lat="49.8797" lon="5.549247"><ele>448.98</ele><time>2025-05-26T02:35:57Z</time></trkpt>
<trkpt lat="49.879856" lon="5.548255"><ele>451.42</ele><time>2025-05-26T02:36:03Z</time></trkpt>
<trkpt lat="49.880014" lon="5.5478"><ele>453.92</ele><time>2025-05-26T02:36:08Z</time></trkpt>
<trkpt lat="49.880059" lon="5.54759"><ele>454.67</ele><time>2025-05-26T02:36:13Z</time></trkpt>
<trkpt lat="49.880072" lon="5.547176"><ele>455.16</ele><time>2025-05-26T02:36:19Z</time></trkpt>
<trkpt lat="49.88002" lon="5.545279"><ele>463.92</ele><time>2025-05-26T02:36:24Z</time></trkpt>
<trkpt lat="49.879957" lon="5.544926"><ele>464.93</ele><time>2025-05-26T02:36:30Z</time></trkpt>
<trkpt lat="49.879659" lon="5.543851"><ele>467.23</ele><time>2025-05-26T02:36:35Z</time></trkpt>
<trkpt lat="49.879344" lon="5.542982"><ele>466.64</ele><time>2025-05-26T02:36:40Z</time></trkpt>
<trkpt lat="49.879221" lon="5.542578"><ele>466.05</ele><time>2025-05-26T02:36:46Z</time></trkpt>
<trkpt lat="49.879056" lon="5.541849"><ele>466.89</ele><time>2025-05-26T02:36:51Z</time></trkpt>
<trkpt lat="49.878642" lon="5.539536"><ele>477.0</ele><time>2025-05-26T02:36:57Z</time></trkpt>
<trkpt lat="49.87844" lon="5.538565"><ele>478.04</ele><time>2025-05-26T02:37:02Z</time></trkpt>
<trkpt lat="49.878081" lon="5.536265"><ele>479.54</ele><time>2025-05-26T02:37:07Z</time></trkpt>
<trkpt lat="49.877954" lon="5.535101"><ele>477.63</ele><time>2025-05-26T02:37:13Z</time></trkpt>
<trkpt lat="49.877409" lon="5.531463"><ele>494.1</ele><time>2025-05-26T02:37:18Z</time></trkpt>
<trkpt lat="49.87733" lon="5.530449"><ele>485.01</ele><time>2025-05-26T02:37:23Z</time></trkpt>
<trkpt lat="49.877345" lon="5.530019"><ele>480.94</ele><time>2025-05-26T02:37:29Z</time></trkpt>
<trkpt lat="49.877366" lon="5.529853"><ele>479.73</ele><time>2025-05-26T02:37:34Z</time></trkpt>
<trkpt lat="49.877426" lon="5.5296"><ele>479.08</ele><time>2025-05-26T02:37:40Z</time></trkpt>
<trkpt lat="49.877867" lon="5.52838"><ele>474.05</ele><time>2025-05-26T02:37:45Z</time></trkpt>
<trkpt lat="49.877921" lon="5.528123"><ele>474.0</ele><time>2025-05-26T02:37:50Z</time></trkpt>
<trkpt lat="49.877943" lon="5.527861"><ele>473.43</ele><time>2025-05-26T02:37:56Z</time></trkpt>
<trkpt lat="49.877919" lon="5.527602"><ele>472.08</ele><time>2025-05-26T02:38:01Z</time></trkpt>
<trkpt lat="49.877862" lon="5.527347"><ele>469.64</ele><time>2025-05-26T02:38:07Z</time></trkpt>
<trkpt lat="49.87673" lon="5.524911"><ele>468.97</ele><time>2025-05-26T02:38:12Z</time></trkpt>
<trkpt lat="49.876447" lon="5.524132"><ele>465.63</ele><time>2025-05-26T02:38:17Z</time></trkpt>
<trkpt lat="49.876334" lon="5.523765"><ele>463.58</ele><time>2025-05-26T02:38:23Z</time></trkpt>
<trkpt lat="49.876129" lon="5.522838"><ele>460.05</ele><time>2025-05-26T02:38:28Z</time></trkpt>
<trkpt lat="49.875882" lon="5.521614"><ele>464.73</ele><time>2025-05-26T02:38:33Z</time></trkpt>
<trkpt lat="49.875761" lon="5.520715"><ele>467.33</ele><time>2025-05-26T02:38:39Z</time></trkpt>
<trkpt lat="49.875557" lon="5.518597"><ele>470.01</ele><time>2025-05-26T02:38:44Z</time></trkpt>
<trkpt lat="49.875558" lon="5.517252"><ele>471.92</ele><time>2025-05-26T02:38:50Z</time></trkpt>
<trkpt lat="49.875604" lon="5.513663"><ele>469.0</ele><time>2025-05-26T02:38:55Z</time></trkpt>
<trkpt lat="49.87559" lon="5.513406"><ele>468.35</ele><time>2025-05-26T02:39:00Z</time></trkpt>
<trkpt lat="49.875535" lon="5.513158"><ele>467.22</ele><time>2025-05-26T02:39:06Z</time></trkpt>
<trkpt lat="49.875374" lon="5.512684"><ele>465.69</ele><time>2025-05-26T02:39:11Z</time></trkpt>
<trkpt lat="49.875262" lon="5.512022"><ele>465.66</ele><time>2025-05-26T02:39:17Z</time></trkpt>
<trkpt lat="49.87519" lon="5.511765"><ele>466.13</ele><time>2025-05-26T02:39:22Z</time></trkpt>
<trkpt lat="49.874322" lon="5.509566"><ele>472.32</ele><time>2025-05-26T02:39:27Z</time></trkpt>
<trkpt lat="49.873869" lon="5.508778"><ele>474.96</ele><time>2025-05-26T02:39:33Z</time></trkpt>
<trkpt lat="49.87365" lon="5.508268"><ele>475.54</ele><time>2025-05-26T02:39:38Z</time></trkpt>
<trkpt lat="49.873506" lon="5.507743"><ele>478.25</ele><time>2025-05-26T02:39:43Z</time></trkpt>
<trkpt lat="49.873326" lon="5.506844"><ele>480.01</ele><time>2025-05-26T02:39:49Z</time></trkpt>
<trkpt lat="49.873151" lon="5.506161"><ele>479.72</ele><time>2025-05-26T02:39:54Z</time></trkpt>
<trkpt lat="49.872976" lon="5.505687"><ele>479.05</ele><time>2025-05-26T02:39:59Z</time></trkpt>
<trkpt lat="49.872747" lon="5.505202"><ele>479.16</ele><time>2025-05-26T02:40:03Z</time></trkpt>
<trkpt lat="49.872228" lon="5.503996"><ele>481.62</ele><time>2025-05-26T02:40:08Z</time></trkpt>
<trkpt lat="49.871528" lon="5.502286"><ele>488.61</ele><time>2025-05-26T02:40:12Z</time></trkpt>
<trkpt lat="49.871318" lon="5.501946"><ele>488.26</ele><time>2025-05-26T02:40:17Z</time></trkpt>
<trkpt lat="49.871163" lon="5.501761"><ele>488.69</ele><time>2025-05-26T02:40:22Z</time></trkpt>
<trkpt lat="49.870831" lon="5.501461"><ele>488.26</ele><time>2025-05-26T02:40:26Z</time></trkpt>
<trkpt lat="49.87014" lon="5.500937"><ele>486.88</ele><time>2025-05-26T02:40:31Z</time></trkpt>
<trkpt lat="49.869869" lon="5.500694"><ele>485.52</ele><time>2025-05-26T02:40:35Z</time></trkpt>
<trkpt lat="49.869403" lon="5.500194"><ele>480.61</ele><time>2025-05-26T02:40:40Z</time></trkpt>
<trkpt lat="49.869117" lon="5.49981"><ele>476.4</ele><time>2025-05-26T02:40:44Z</time></trkpt>
<trkpt lat="49.868666" lon="5.499154"><ele>474.55</ele><time>2025-05-26T02:40:49Z</time></trkpt>
<trkpt lat="49.868521" lon="5.49887"><ele>474.88</ele><time>2025-05-26T02:40:54Z</time></trkpt>
<trkpt lat="49.868127" lon="5.4979"><ele>472.18</ele><time>2025-05-26T02:40:58Z</time></trkpt>
<trkpt lat="49.868014" lon="5.497544"><ele>473.14</ele><time>2025-05-26T02:41:03Z</time></trkpt>
<trkpt lat="49.867993" lon="5.497392"><ele>473.93</ele><time>2025-05-26T02:41:07Z</time></trkpt>
<trkpt lat="49.868003" lon="5.496696"><ele>479.71</ele><time>2025-05-26T02:41:12Z</time></trkpt>
<trkpt lat="49.868003" lon="5.496696"><ele>479.71</ele><time>2025-05-26T02:41:12Z</time></trkpt>
<trkpt lat="49.867996" lon="5.496814"><ele>475.54</ele><time>2025-05-26T02:41:12Z</time></trkpt>
<trkpt lat="49.867898" lon="5.496811"><ele>476.43</ele><time>2025-05-26T02:41:15Z</time></trkpt>
<trkpt lat="49.867767" lon="5.496844"><ele>477.69</ele><time>2025-05-26T02:41:17Z</time></trkpt>
<trkpt lat="49.867597" lon="5.496975"><ele>478.61</ele><time>2025-05-26T02:41:19Z</time></trkpt>
<trkpt lat="49.867466" lon="5.497143"><ele>479.34</ele><time>2025-05-26T02:41:22Z</time></trkpt>
<trkpt lat="49.867066" lon="5.497952"><ele>483.47</ele><time>2025-05-26T02:41:24Z</time></trkpt>
<trkpt lat="49.866821" lon="5.498328"><ele>486.68</ele><time>2025-05-26T02:41:26Z</time></trkpt>
<trkpt lat="49.865915" lon="5.49949"><ele>491.71</ele><time>2025-05-26T02:41:29Z</time></trkpt>
<trkpt lat="49.865331" lon="5.500207"><ele>491.45</ele><time>2025-05-26T02:41:31Z</time></trkpt>
<trkpt lat="49.865182" lon="5.500312"><ele>490.65</ele><time>2025-05-26T02:41:33Z</time></trkpt>
<trkpt lat="49.864917" lon="5.500397"><ele>489.57</ele><time>2025-05-26T02:41:36Z</time></trkpt>
<trkpt lat="49.864495" lon="5.500397"><ele>487.75</ele><time>2025-05-26T02:41:38Z</time></trkpt>
<trkpt lat="49.864165" lon="5.500477"><ele>486.28</ele><time>2025-05-26T02:41:40Z</time></trkpt>
<trkpt lat="49.86393" lon="5.500567"><ele>485.92</ele><time>2025-05-26T02:41:43Z</time></trkpt>
<trkpt lat="49.863588" lon="5.500764"><ele>485.56</ele><time>2025-05-26T02:41:45Z</time></trkpt>
<trkpt lat="49.863309" lon="5.500989"><ele>484.93</ele><time>2025-05-26T02:41:47Z</time></trkpt>
<trkpt lat="49.863126" lon="5.501175"><ele>484.52</ele><time>2025-05-26T02:41:50Z</time></trkpt>
<trkpt lat="49.862361" lon="5.502159"><ele>493.37</ele><time>2025-05-26T02:41:52Z</time></trkpt>
<trkpt lat="49.862084" lon="5.50242"><ele>492.22</ele><time>2025-05-26T02:41:54Z</time></trkpt>
<trkpt lat="49.861649" lon="5.502684"><ele>494.32</ele><time>2025-05-26T02:41:57Z</time></trkpt>
<trkpt lat="49.861085" lon="5.502954"><ele>496.93</ele><time>2025-05-26T02:41:59Z</time></trkpt>
<trkpt lat="49.860748" lon="5.503081"><ele>494.01</ele><time>2025-05-26T02:42:01Z</time></trkpt>
<trkpt lat="49.860231" lon="5.503186"><ele>492.49</ele><time>2025-05-26T02:42:04Z</time></trkpt>
<trkpt lat="49.859495" lon="5.503278"><ele>495.55</ele><time>2025-05-26T02:42:06Z</time></trkpt>
<trkpt lat="49.859207" lon="5.503275"><ele>499.03</ele><time>2025-05-26T02:42:08Z</time></trkpt>
<trkpt lat="49.858968" lon="5.503233"><ele>501.22</ele><time>2025-05-26T02:42:11Z</time></trkpt>
<trkpt lat="49.858611" lon="5.503272"><ele>501.22</ele><time>2025-05-26T02:42:13Z</time></trkpt>
<trkpt lat="49.858413" lon="5.503316"><ele>501.06</ele><time>2025-05-26T02:42:15Z</time></trkpt>
<trkpt lat="49.857643" lon="5.503766"><ele>503.33</ele><time>2025-05-26T02:42:18Z</time></trkpt>
<trkpt lat="49.857163" lon="5.504154"><ele>501.05</ele><time>2025-05-26T02:42:22Z</time></trkpt>
<trkpt lat="49.856735" lon="5.504243"><ele>500.39</ele><time>2025-05-26T02:42:25Z</time></trkpt>
<trkpt lat="49.856564" lon="5.504328"><ele>500.95</ele><time>2025-05-26T02:42:28Z</time></trkpt>
<trkpt lat="49.856412" lon="5.504434"><ele>501.88</ele><time>2025-05-26T02:42:31Z</time></trkpt>
<trkpt lat="49.856126" lon="5.504676"><ele>504.89</ele><time>2025-05-26T02:42:34Z</time></trkpt>
<trkpt lat="49.855321" lon="5.505572"><ele>512.97</ele><time>2025-05-26T02:42:37Z</time></trkpt>
<trkpt lat="49.855081" lon="5.505821"><ele>510.67</ele><time>2025-05-26T02:42:41Z</time></trkpt>
<trkpt lat="49.85496" lon="5.505904"><ele>509.43</ele><time>2025-05-26T02:42:44Z</time></trkpt>
<trkpt lat="49.854658" lon="5.506053"><ele>504.26</ele><time>2025-05-26T02:42:47Z</time></trkpt>
<trkpt lat="49.854297" lon="5.506115"><ele>500.48</ele><time>2025-05-26T02:42:50Z</time></trkpt>
<trkpt lat="49.853821" lon="5.506283"><ele>501.24</ele><time>2025-05-26T02:42:53Z</time></trkpt>
<trkpt lat="49.853316" lon="5.506569"><ele>502.92</ele><time>2025-05-26T02:42:56Z</time></trkpt>
<trkpt lat="49.85273" lon="5.50698"><ele>502.23</ele><time>2025-05-26T02:43:00Z</time></trkpt>
<trkpt lat="49.85226" lon="5.507173"><ele>502.67</ele><time>2025-05-26T02:43:03Z</time></trkpt>
<trkpt lat="49.85166" lon="5.507333"><ele>501.8</ele><time>2025-05-26T02:43:06Z</time></trkpt>
<trkpt lat="49.850746" lon="5.507461"><ele>503.13</ele><time>2025-05-26T02:43:09Z</time></trkpt>
<trkpt lat="49.850562" lon="5.507478"><ele>501.97</ele><time>2025-05-26T02:43:12Z</time></trkpt>
<trkpt lat="49.850361" lon="5.507464"><ele>501.35</ele><time>2025-05-26T02:43:15Z</time></trkpt>
<trkpt lat="49.849694" lon="5.507234"><ele>501.99</ele><time>2025-05-26T02:43:19Z</time></trkpt>
<trkpt lat="49.849306" lon="5.507134"><ele>501.82</ele><time>2025-05-26T02:43:22Z</time></trkpt>
<trkpt lat="49.848432" lon="5.506761"><ele>501.32</ele><time>2025-05-26T02:43:25Z</time></trkpt>
<trkpt lat="49.848194" lon="5.50669"><ele>502.42</ele><time>2025-05-26T02:43:28Z</time></trkpt>
<trkpt lat="49.847977" lon="5.506673"><ele>503.57</ele><time>2025-05-26T02:43:31Z</time></trkpt>
<trkpt lat="49.847378" lon="5.506698"><ele>507.16</ele><time>2025-05-26T02:43:34Z</time></trkpt>
<trkpt lat="49.847077" lon="5.506741"><ele>507.54</ele><time>2025-05-26T02:43:38Z</time></trkpt>
<trkpt lat="49.846271" lon="5.507002"><ele>506.85</ele><time>2025-05-26T02:43:41Z</time></trkpt>
<trkpt lat="49.846161" lon="5.507068"><ele>505.61</ele><time>2025-05-26T02:43:44Z</time></trkpt>
<trkpt lat="49.845054" lon="5.508526"><ele>500.9</ele><time>2025-05-26T02:43:47Z</time></trkpt>
<trkpt lat="49.845054" lon="5.508526"><ele>500.9</ele><time>2025-05-26T02:43:47Z</time></trkpt>
<trkpt lat="49.846161" lon="5.507068"><ele>505.61</ele><time>2025-05-26T02:43:56Z</time></trkpt>
<trkpt lat="49.846271" lon="5.507002"><ele>506.85</ele><time>2025-05-26T02:44:05Z</time></trkpt>
<trkpt lat="49.84628" lon="5.506762"><ele>505.52</ele><time>2025-05-26T02:44:08Z</time></trkpt>
<trkpt lat="49.846266" lon="5.50631"><ele>502.26</ele><time>2025-05-26T02:44:10Z</time></trkpt>
<trkpt lat="49.846105" lon="5.503529"><ele>492.67</ele><time>2025-05-26T02:44:13Z</time></trkpt>
<trkpt lat="49.845963" lon="5.501435"><ele>488.32</ele><time>2025-05-26T02:44:15Z</time></trkpt>
<trkpt lat="49.845883" lon="5.500739"><ele>488.36</ele><time>2025-05-26T02:44:18Z</time></trkpt>
<trkpt lat="49.845775" lon="5.50011"><ele>489.21</ele><time>2025-05-26T02:44:21Z</time></trkpt>
<trkpt lat="49.845346" lon="5.498353"><ele>488.68</ele><time>2025-05-26T02:44:23Z</time></trkpt>
<trkpt lat="49.845252" lon="5.497862"><ele>489.45</ele><time>2025-05-26T02:44:26Z</time></trkpt>
<trkpt lat="49.845176" lon="5.497295"><ele>488.16</ele><time>2025-05-26T02:44:28Z</time></trkpt>
<trkpt lat="49.845165" lon="5.497041"><ele>488.05</ele><time>2025-05-26T02:44:31Z</time></trkpt>
<trkpt lat="49.845177" lon="5.496823"><ele>488.31</ele><time>2025-05-26T02:44:34Z</time></trkpt>
<trkpt lat="49.84523" lon="5.496513"><ele>488.17</ele><time>2025-05-26T02:44:36Z</time></trkpt>
<trkpt lat="49.845427" lon="5.495839"><ele>486.02</ele><time>2025-05-26T02:44:39Z</time></trkpt>
<trkpt lat="49.845502" lon="5.495506"><ele>484.52</ele><time>2025-05-26T02:44:41Z</time></trkpt>
<trkpt lat="49.845532" lon="5.495272"><ele>483.08</ele><time>2025-05-26T02:44:44Z</time></trkpt>
<trkpt lat="49.845548" lon="5.494888"><ele>482.58</ele><time>2025-05-26T02:44:46Z</time></trkpt>
<trkpt lat="49.845545" lon="5.493541"><ele>480.92</ele><time>2025-05-26T02:44:49Z</time></trkpt>
<trkpt lat="49.845533" lon="5.493059"><ele>480.92</ele><time>2025-05-26T02:44:52Z</time></trkpt>
<trkpt lat="49.845511" lon="5.492753"><ele>480.85</ele><time>2025-05-26T02:44:54Z</time></trkpt>
<trkpt lat="49.84543" lon="5.492512"><ele>480.98</ele><time>2025-05-26T02:44:57Z</time></trkpt>
<trkpt lat="49.843976" lon="5.48979"><ele>476.38</ele><time>2025-05-26T02:44:59Z</time></trkpt>
<trkpt lat="49.843695" lon="5.489298"><ele>476.43</ele><time>2025-05-26T02:45:02Z</time></trkpt>
<trkpt lat="49.843528" lon="5.48903"><ele>476.24</ele><time>2025-05-26T02:45:05Z</time></trkpt>
<trkpt lat="49.843415" lon="5.488886"><ele>475.9</ele><time>2025-05-26T02:45:07Z</time></trkpt>
<trkpt lat="49.843132" lon="5.488569"><ele>477.15</ele><time>2025-05-26T02:45:10Z</time></trkpt>
<trkpt lat="49.842624" lon="5.488065"><ele>478.45</ele><time>2025-05-26T02:45:12Z</time></trkpt>
<trkpt lat="49.842514" lon="5.487911"><ele>477.55</ele><time>2025-05-26T02:45:15Z</time></trkpt>
<trkpt lat="49.842293" lon="5.487422"><ele>476.75</ele><time>2025-05-26T02:45:18Z</time></trkpt>
<trkpt lat="49.842135" lon="5.487535"><ele>477.31</ele><time>2025-05-26T02:45:22Z</time></trkpt>
<trkpt lat="49.841991" lon="5.487578"><ele>477.83</ele><time>2025-05-26T02:45:27Z</time></trkpt>
<trkpt lat="49.841866" lon="5.487531"><ele>478.31</ele><time>2025-05-26T02:45:32Z</time></trkpt>
<trkpt lat="49.840463" lon="5.486778"><ele>488.26</ele><time>2025-05-26T02:45:37Z</time></trkpt>
<trkpt lat="49.84039" lon="5.486866"><ele>488.48</ele><time>2025-05-26T02:45:42Z</time></trkpt>
<trkpt lat="49.840185" lon="5.486926"><ele>490.06</ele><time>2025-05-26T02:45:46Z</time></trkpt>
<trkpt lat="49.839278" lon="5.486966"><ele>490.92</ele><time>2025-05-26T02:45:50Z</time></trkpt>
<trkpt lat="49.838286" lon="5.486874"><ele>493.75</ele><time>2025-05-26T02:45:54Z</time></trkpt>
<trkpt lat="49.837825" lon="5.486777"><ele>490.58</ele><time>2025-05-26T02:45:59Z</time></trkpt>
<trkpt lat="49.837505" lon="5.486603"><ele>487.8</ele><time>2025-05-26T02:46:03Z</time></trkpt>
<trkpt lat="49.836932" lon="5.486122"><ele>478.89</ele><time>2025-05-26T02:46:07Z</time></trkpt>
<trkpt lat="49.836294" lon="5.485563"><ele>471.65</ele><time>2025-05-26T02:46:12Z</time></trkpt>
<trkpt lat="49.836054" lon="5.485307"><ele>470.2</ele><time>2025-05-26T02:46:16Z</time></trkpt>
<trkpt lat="49.835571" lon="5.484496"><ele>463.71</ele><time>2025-05-26T02:46:20Z</time></trkpt>
<trkpt lat="49.835481" lon="5.484166"><ele>464.0</ele><time>2025-05-26T02:46:24Z</time></trkpt>
<trkpt lat="49.835381" lon="5.483577"><ele>462.25</ele><time>2025-05-26T02:46:29Z</time></trkpt>
<trkpt lat="49.835288" lon="5.483146"><ele>459.72</ele><time>2025-05-26T02:46:33Z</time></trkpt>
<trkpt lat="49.835168" lon="5.482824"><ele>459.33</ele><time>2025-05-26T02:46:37Z</time></trkpt>
<trkpt lat="49.834823" lon="5.48244"><ele>461.08</ele><time>2025-05-26T02:46:42Z</time></trkpt>
<trkpt lat="49.83466" lon="5.482146"><ele>461.0</ele><time>2025-05-26T02:46:46Z</time></trkpt>
<trkpt lat="49.834543" lon="5.481738"><ele>461.74</ele><time>2025-05-26T02:46:50Z</time></trkpt>
<trkpt lat="49.834368" lon="5.481009"><ele>466.92</ele><time>2025-05-26T02:46:54Z</time></trkpt>
<trkpt lat="49.834253" lon="5.480625"><ele>468.67</ele><time>2025-05-26T02:46:59Z</time></trkpt>
<trkpt lat="49.833937" lon="5.480109"><ele>470.54</ele><time>2025-05-26T02:47:03Z</time></trkpt>
<trkpt lat="49.833771" lon="5.479717"><ele>471.28</ele><time>2025-05-26T02:47:07Z</time></trkpt>
<trkpt lat="49.83326" lon="5.478343"><ele>480.93</ele><time>2025-05-26T02:47:11Z</time></trkpt>
<trkpt lat="49.832046" lon="5.479285"><ele>476.65</ele><time>2025-05-26T02:47:20Z</time></trkpt>
<trkpt lat="49.831796" lon="5.479574"><ele>472.1</ele><time>2025-05-26T02:47:29Z</time></trkpt>
<trkpt lat="49.831647" lon="5.479367"><ele>473.8</ele><time>2025-05-26T02:47:33Z</time></trkpt>
<trkpt lat="49.831101" lon="5.479049"><ele>473.35</ele><time>2025-05-26T02:47:37Z</time></trkpt>
<trkpt lat="49.830607" lon="5.47868"><ele>471.32</ele><time>2025-05-26T02:47:41Z</time></trkpt>
<trkpt lat="49.830274" lon="5.478311"><ele>468.96</ele><time>2025-05-26T02:47:45Z</time></trkpt>
<trkpt lat="49.828519" lon="5.47512"><ele>465.05</ele><time>2025-05-26T02:47:49Z</time></trkpt>
<trkpt lat="49.828242" lon="5.474886"><ele>464.3</ele><time>2025-05-26T02:47:54Z</time></trkpt>
<trkpt lat="49.827941" lon="5.474724"><ele>464.51</ele><time>2025-05-26T02:47:58Z</time></trkpt>
<trkpt lat="49.827941" lon="5.474724"><ele>464.51</ele><time>2025-05-26T02:47:58Z</time></trkpt>
<trkpt lat="49.827871" lon="5.474686"><ele>464.72</ele><time>2025-05-26T02:48:01Z</time></trkpt>
<trkpt lat="49.826858" lon="5.474442"><ele>461.09</ele><time>2025-05-26T02:48:05Z</time></trkpt>
<trkpt lat="49.826131" lon="5.474424"><ele>461.15</ele><time>2025-05-26T02:48:08Z</time></trkpt>
<trkpt lat="49.825363" lon="5.474456"><ele>460.3</ele><time>2025-05-26T02:48:12Z</time></trkpt>
<trkpt lat="49.824661" lon="5.474523"><ele>455.78</ele><time>2025-05-26T02:48:15Z</time></trkpt>
<trkpt lat="49.823998" lon="5.474495"><ele>454.93</ele><time>2025-05-26T02:48:18Z</time></trkpt>
<trkpt lat="49.823443" lon="5.474408"><ele>455.95</ele><time>2025-05-26T02:48:22Z</time></trkpt>
<trkpt lat="49.821403" lon="5.473906"><ele>456.1</ele><time>2025-05-26T02:48:25Z</time></trkpt>
<trkpt lat="49.821228" lon="5.473894"><ele>454.86</ele><time>2025-05-26T02:48:29Z</time></trkpt>
<trkpt lat="49.820927" lon="5.473989"><ele>452.56</ele><time>2025-05-26T02:48:32Z</time></trkpt>
<trkpt lat="49.82056" lon="5.474221"><ele>446.08</ele><time>2025-05-26T02:48:35Z</time></trkpt>
<trkpt lat="49.819" lon="5.475478"><ele>431.33</ele><time>2025-05-26T02:48:39Z</time></trkpt>
<trkpt lat="49.818862" lon="5.475496"><ele>429.4</ele><time>2025-05-26T02:48:42Z</time></trkpt>
<trkpt lat="49.818788" lon="5.475474"><ele>429.48</ele><time>2025-05-26T02:48:46Z</time></trkpt>
<trkpt lat="49.818633" lon="5.4753"><ele>429.99</ele><time>2025-05-26T02:48:49Z</time></trkpt>
<trkpt lat="49.818524" lon="5.475097"><ele>431.0</ele><time>2025-05-26T02:48:53Z</time></trkpt>
<trkpt lat="49.818408" lon="5.474912"><ele>430.85</ele><time>2025-05-26T02:48:56Z</time></trkpt>
<trkpt lat="49.817973" lon="5.47433"><ele>428.93</ele><time>2025-05-26T02:48:59Z</time></trkpt>
<trkpt lat="49.817842" lon="5.474118"><ele>429.1</ele><time>2025-05-26T02:49:03Z</time></trkpt>
<trkpt lat="49.817755" lon="5.473816"><ele>427.49</ele><time>2025-05-26T02:49:06Z</time></trkpt>
<trkpt lat="49.817712" lon="5.473512"><ele>425.66</ele><time>2025-05-26T02:49:10Z</time></trkpt>
<trkpt lat="49.817713" lon="5.473215"><ele>424.11</ele><time>2025-05-26T02:49:13Z</time></trkpt>
<trkpt lat="49.817758" lon="5.472604"><ele>423.44</ele><time>2025-05-26T02:49:16Z</time></trkpt>
<trkpt lat="49.817733" lon="5.471752"><ele>423.94</ele><time>2025-05-26T02:49:20Z</time></trkpt>
<trkpt lat="49.81767" lon="5.471314"><ele>421.89</ele><time>2025-05-26T02:49:23Z</time></trkpt>
<trkpt lat="49.817267" lon="5.470448"><ele>422.21</ele><time>2025-05-26T02:49:27Z</time></trkpt>
<trkpt lat="49.817267" lon="5.470448"><ele>422.21</ele><time>2025-05-26T02:49:27Z</time></trkpt>
<trkpt lat="49.81767" lon="5.471314"><ele>421.89</ele><time>2025-05-26T02:49:29Z</time></trkpt>
<trkpt lat="49.817733" lon="5.471752"><ele>423.94</ele><time>2025-05-26T02:49:31Z</time></trkpt>
<trkpt lat="49.817758" lon="5.472604"><ele>423.44</ele><time>2025-05-26T02:49:33Z</time></trkpt>
<trkpt lat="49.817713" lon="5.473215"><ele>424.11</ele><time>2025-05-26T02:49:36Z</time></trkpt>
<trkpt lat="49.817712" lon="5.473512"><ele>425.66</ele><time>2025-05-26T02:49:38Z</time></trkpt>
<trkpt lat="49.817755" lon="5.473816"><ele>427.49</ele><time>2025-05-26T02:49:40Z</time></trkpt>
<trkpt lat="49.817249" lon="5.474186"><ele>423.35</ele><time>2025-05-26T02:49:45Z</time></trkpt>
<trkpt lat="49.815595" lon="5.475314"><ele>420.52</ele><time>2025-05-26T02:49:50Z</time></trkpt>
<trkpt lat="49.814224" lon="5.477236"><ele>422.47</ele><time>2025-05-26T02:49:54Z</time></trkpt>
<trkpt lat="49.813711" lon="5.478233"><ele>418.57</ele><time>2025-05-26T02:49:59Z</time></trkpt>
<trkpt lat="49.813147" lon="5.480106"><ele>415.33</ele><time>2025-05-26T02:50:04Z</time></trkpt>
<trkpt lat="49.813024" lon="5.480447"><ele>414.58</ele><time>2025-05-26T02:50:09Z</time></trkpt>
<trkpt lat="49.812937" lon="5.480609"><ele>413.48</ele><time>2025-05-26T02:50:13Z</time></trkpt>
<trkpt lat="49.812757" lon="5.480903"><ele>412.76</ele><time>2025-05-26T02:50:18Z</time></trkpt>
<trkpt lat="49.812368" lon="5.481326"><ele>418.21</ele><time>2025-05-26T02:50:23Z</time></trkpt>
<trkpt lat="49.811972" lon="5.481808"><ele>420.92</ele><time>2025-05-26T02:50:28Z</time></trkpt>
<trkpt lat="49.811088" lon="5.482777"><ele>408.91</ele><time>2025-05-26T02:50:32Z</time></trkpt>
<trkpt lat="49.810778" lon="5.482309"><ele>408.14</ele><time>2025-05-26T02:50:35Z</time></trkpt>
<trkpt lat="49.810702" lon="5.482219"><ele>408.47</ele><time>2025-05-26T02:50:37Z</time></trkpt>
<trkpt lat="49.810287" lon="5.481834"><ele>408.03</ele><time>2025-05-26T02:50:40Z</time></trkpt>
<trkpt lat="49.810075" lon="5.481568"><ele>407.74</ele><time>2025-05-26T02:50:42Z</time></trkpt>
<trkpt lat="49.809874" lon="5.481275"><ele>407.45</ele><time>2025-05-26T02:50:45Z</time></trkpt>
<trkpt lat="49.809723" lon="5.481137"><ele>408.0</ele><time>2025-05-26T02:50:47Z</time></trkpt>
<trkpt lat="49.809593" lon="5.481048"><ele>408.0</ele><time>2025-05-26T02:50:50Z</time></trkpt>
<trkpt lat="49.809374" lon="5.480968"><ele>408.38</ele><time>2025-05-26T02:50:52Z</time></trkpt>
<trkpt lat="49.80898" lon="5.480909"><ele>410.4</ele><time>2025-05-26T02:50:54Z</time></trkpt>
<trkpt lat="49.808008" lon="5.48134"><ele>418.31</ele><time>2025-05-26T02:50:57Z</time></trkpt>
<trkpt lat="49.806783" lon="5.481735"><ele>421.78</ele><time>2025-05-26T02:50:59Z</time></trkpt>
<trkpt lat="49.805295" lon="5.482041"><ele>420.04</ele><time>2025-05-26T02:51:02Z</time></trkpt>
<trkpt lat="49.805151" lon="5.482087"><ele>421.38</ele><time>2025-05-26T02:51:04Z</time></trkpt>
<trkpt lat="49.805014" lon="5.482186"><ele>423.56</ele><time>2025-05-26T02:51:07Z</time></trkpt>
<trkpt lat="49.804595" lon="5.482677"><ele>427.2</ele><time>2025-05-26T02:51:09Z</time></trkpt>
<trkpt lat="49.804359" lon="5.482983"><ele>427.3</ele><time>2025-05-26T02:51:12Z</time></trkpt>
<trkpt lat="49.804259" lon="5.483206"><ele>427.31</ele><time>2025-05-26T02:51:14Z</time></trkpt>
<trkpt lat="49.804214" lon="5.483551"><ele>426.87</ele><time>2025-05-26T02:51:17Z</time></trkpt>
<trkpt lat="49.804206" lon="5.484345"><ele>425.62</ele><time>2025-05-26T02:51:19Z</time></trkpt>
<trkpt lat="49.804088" lon="5.485604"><ele>425.74</ele><time>2025-05-26T02:51:22Z</time></trkpt>
<trkpt lat="49.804012" lon="5.485974"><ele>427.34</ele><time>2025-05-26T02:51:24Z</time></trkpt>
<trkpt lat="49.803917" lon="5.486233"><ele>427.94</ele><time>2025-05-26T02:51:26Z</time></trkpt>
<trkpt lat="49.80377" lon="5.486418"><ele>427.95</ele><time>2025-05-26T02:51:29Z</time></trkpt>
<trkpt lat="49.803252" lon="5.487191"><ele>426.29</ele><time>2025-05-26T02:51:31Z</time></trkpt>
<trkpt lat="49.802648" lon="5.487946"><ele>425.53</ele><time>2025-05-26T02:51:34Z</time></trkpt>
<trkpt lat="49.802441" lon="5.488146"><ele>424.25</ele><time>2025-05-26T02:51:36Z</time></trkpt>
<trkpt lat="49.802157" lon="5.488332"><ele>421.3</ele><time>2025-05-26T02:51:39Z</time></trkpt>
<trkpt lat="49.801998" lon="5.488331"><ele>419.22</ele><time>2025-05-26T02:51:41Z</time></trkpt>
<trkpt lat="49.801998" lon="5.488331"><ele>419.22</ele><time>2025-05-26T02:51:41Z</time></trkpt>
<trkpt lat="49.801847" lon="5.488271"><ele>418.79</ele><time>2025-05-26T02:51:43Z</time></trkpt>
<trkpt lat="49.801792" lon="5.488219"><ele>418.64</ele><time>2025-05-26T02:51:44Z</time></trkpt>
<trkpt lat="49.801695" lon="5.488132"><ele>418.17</ele><time>2025-05-26T02:51:45Z</time></trkpt>
<trkpt lat="49.801631" lon="5.488016"><ele>417.86</ele><time>2025-05-26T02:51:47Z</time></trkpt>
<trkpt lat="49.801523" lon="5.487704"><ele>417.0</ele><time>2025-05-26T02:51:48Z</time></trkpt>
<trkpt lat="49.801461" lon="5.487586"><ele>417.0</ele><time>2025-05-26T02:51:49Z</time></trkpt>
<trkpt lat="49.801377" lon="5.487529"><ele>416.96</ele><time>2025-05-26T02:51:51Z</time></trkpt>
<trkpt lat="49.801107" lon="5.487441"><ele>415.74</ele><time>2025-05-26T02:51:52Z</time></trkpt>
<trkpt lat="49.800937" lon="5.487426"><ele>414.02</ele><time>2025-05-26T02:51:54Z</time></trkpt>
<trkpt lat="49.800875" lon="5.487283"><ele>413.33</ele><time>2025-05-26T02:51:59Z</time></trkpt>
<trkpt lat="49.799877" lon="5.48568"><ele>410.69</ele><time>2025-05-26T02:52:05Z</time></trkpt>
<trkpt lat="49.799712" lon="5.485474"><ele>411.04</ele><time>2025-05-26T02:52:11Z</time></trkpt>
<trkpt lat="49.799285" lon="5.485039"><ele>412.58</ele><time>2025-05-26T02:52:16Z</time></trkpt>
<trkpt lat="49.798868" lon="5.484435"><ele>418.36</ele><time>2025-05-26T02:52:22Z</time></trkpt>
<trkpt lat="49.797435" lon="5.481753"><ele>430.61</ele><time>2025-05-26T02:52:28Z</time></trkpt>
<trkpt lat="49.797191" lon="5.481237"><ele>431.06</ele><time>2025-05-26T02:52:33Z</time></trkpt>
<trkpt lat="49.797085" lon="5.481036"><ele>431.49</ele><time>2025-05-26T02:52:39Z</time></trkpt>
<trkpt lat="49.79666" lon="5.480535"><ele>430.95</ele><time>2025-05-26T02:52:45Z</time></trkpt>
<trkpt lat="49.796358" lon="5.480123"><ele>430.43</ele><time>2025-05-26T02:52:50Z</time></trkpt>
<trkpt lat="49.796226" lon="5.479883"><ele>430.25</ele><time>2025-05-26T02:52:56Z</time></trkpt>
<trkpt lat="49.795482" lon="5.478228"><ele>434.75</ele><time>2025-05-26T02:53:02Z</time></trkpt>
<trkpt lat="49.794626" lon="5.476637"><ele>433.14</ele><time>2025-05-26T02:53:07Z</time></trkpt>
<trkpt lat="49.794498" lon="5.47644"><ele>434.47</ele><time>2025-05-26T02:53:13Z</time></trkpt>
<trkpt lat="49.794337" lon="5.476321"><ele>435.15</ele><time>2025-05-26T02:53:19Z</time></trkpt>
<trkpt lat="49.792738" lon="5.475479"><ele>435.62</ele><time>2025-05-26T02:53:24Z</time></trkpt>
<trkpt lat="49.792004" lon="5.476304"><ele>442.25</ele><time>2025-05-26T02:53:27Z</time></trkpt>
<trkpt lat="49.791036" lon="5.477409"><ele>446.49</ele><time>2025-05-26T02:53:31Z</time></trkpt>
<trkpt lat="49.790254" lon="5.47824"><ele>443.42</ele><time>2025-05-26T02:53:34Z</time></trkpt>
<trkpt lat="49.789473" lon="5.479162"><ele>449.62</ele><time>2025-05-26T02:53:37Z</time></trkpt>
<trkpt lat="49.789243" lon="5.479401"><ele>452.28</ele><time>2025-05-26T02:53:40Z</time></trkpt>
<trkpt lat="49.78906" lon="5.479525"><ele>452.4</ele><time>2025-05-26T02:53:43Z</time></trkpt>
<trkpt lat="49.788875" lon="5.479578"><ele>451.98</ele><time>2025-05-26T02:53:46Z</time></trkpt>
<trkpt lat="49.788699" lon="5.479558"><ele>450.99</ele><time>2025-05-26T02:53:49Z</time></trkpt>
<trkpt lat="49.788521" lon="5.479474"><ele>450.9</ele><time>2025-05-26T02:53:52Z</time></trkpt>
<trkpt lat="49.788324" lon="5.479254"><ele>451.97</ele><time>2025-05-26T02:53:55Z</time></trkpt>
<trkpt lat="49.787554" lon="5.47816"><ele>450.78</ele><time>2025-05-26T02:53:58Z</time></trkpt>
<trkpt lat="49.787439" lon="5.47803"><ele>450.98</ele><time>2025-05-26T02:54:01Z</time></trkpt>
<trkpt lat="49.787304" lon="5.477942"><ele>451.05</ele><time>2025-05-26T02:54:05Z</time></trkpt>
<trkpt lat="49.787138" lon="5.477885"><ele>450.49</ele><time>2025-05-26T02:54:08Z</time></trkpt>
<trkpt lat="49.786439" lon="5.477841"><ele>450.64</ele><time>2025-05-26T02:54:11Z</time></trkpt>
<trkpt lat="49.785369" lon="5.477828"><ele>449.7</ele><time>2025-05-26T02:54:14Z</time></trkpt>
<trkpt lat="49.784895" lon="5.477767"><ele>447.33</ele><time>2025-05-26T02:54:17Z</time></trkpt>
<trkpt lat="49.784568" lon="5.477635"><ele>447.59</ele><time>2025-05-26T02:54:20Z</time></trkpt>
<trkpt lat="49.784301" lon="5.477466"><ele>448.36</ele><time>2025-05-26T02:54:23Z</time></trkpt>
<trkpt lat="49.784003" lon="5.477171"><ele>446.95</ele><time>2025-05-26T02:54:26Z</time></trkpt>
<trkpt lat="49.783223" lon="5.476491"><ele>447.17</ele><time>2025-05-26T02:54:29Z</time></trkpt>
<trkpt lat="49.783107" lon="5.476417"><ele>446.35</ele><time>2025-05-26T02:54:32Z</time></trkpt>
<trkpt lat="49.782942" lon="5.476359"><ele>445.05</ele><time>2025-05-26T02:54:35Z</time></trkpt>
<trkpt lat="49.782646" lon="5.476342"><ele>442.39</ele><time>2025-05-26T02:54:39Z</time></trkpt>
<trkpt lat="49.782486" lon="5.476373"><ele>441.07</ele><time>2025-05-26T02:54:42Z</time></trkpt>
<trkpt lat="49.780989" lon="5.476822"><ele>433.44</ele><time>2025-05-26T02:54:45Z</time></trkpt>
<trkpt lat="49.780689" lon="5.476925"><ele>432.51</ele><time>2025-05-26T02:54:48Z</time></trkpt>
<trkpt lat="49.780347" lon="5.477096"><ele>431.39</ele><time>2025-05-26T02:54:51Z</time></trkpt>
<trkpt lat="49.779624" lon="5.47756"><ele>424.94</ele><time>2025-05-26T02:54:54Z</time></trkpt>
<trkpt lat="49.778895" lon="5.478094"><ele>422.16</ele><time>2025-05-26T02:54:57Z</time></trkpt>
<trkpt lat="49.778455" lon="5.477483"><ele>422.49</ele><time>2025-05-26T02:55:00Z</time></trkpt>
<trkpt lat="49.778239" lon="5.477183"><ele>420.96</ele><time>2025-05-26T02:55:02Z</time></trkpt>
<trkpt lat="49.778052" lon="5.476992"><ele>420.32</ele><time>2025-05-26T02:55:05Z</time></trkpt>
<trkpt lat="49.777854" lon="5.476843"><ele>417.98</ele><time>2025-05-26T02:55:08Z</time></trkpt>
<trkpt lat="49.777239" lon="5.476607"><ele>411.74</ele><time>2025-05-26T02:55:10Z</time></trkpt>
<trkpt lat="49.776198" lon="5.476285"><ele>411.7</ele><time>2025-05-26T02:55:13Z</time></trkpt>
<trkpt lat="49.775931" lon="5.476137"><ele>410.38</ele><time>2025-05-26T02:55:16Z</time></trkpt>
<trkpt lat="49.775744" lon="5.475948"><ele>409.28</ele><time>2025-05-26T02:55:18Z</time></trkpt>
<trkpt lat="49.775355" lon="5.47541"><ele>410.04</ele><time>2025-05-26T02:55:21Z</time></trkpt>
<trkpt lat="49.775355" lon="5.47541"><ele>410.04</ele><time>2025-05-26T02:55:21Z</time></trkpt>
<trkpt lat="49.775744" lon="5.475948"><ele>409.28</ele><time>2025-05-26T02:55:23Z</time></trkpt>
<trkpt lat="49.775931" lon="5.476137"><ele>410.38</ele><time>2025-05-26T02:55:26Z</time></trkpt>
<trkpt lat="49.776198" lon="5.476285"><ele>411.7</ele><time>2025-05-26T02:55:29Z</time></trkpt>
<trkpt lat="49.777239" lon="5.476607"><ele>411.74</ele><time>2025-05-26T02:55:31Z</time></trkpt>
<trkpt lat="49.777854" lon="5.476843"><ele>417.98</ele><time>2025-05-26T02:55:34Z</time></trkpt>
<trkpt lat="49.778052" lon="5.476992"><ele>420.32</ele><time>2025-05-26T02:55:37Z</time></trkpt>
<trkpt lat="49.778239" lon="5.477183"><ele>420.96</ele><time>2025-05-26T02:55:39Z</time></trkpt>
<trkpt lat="49.778455" lon="5.477483"><ele>422.49</ele><time>2025-05-26T02:55:42Z</time></trkpt>
<trkpt lat="49.778895" lon="5.478094"><ele>422.16</ele><time>2025-05-26T02:55:45Z</time></trkpt>
<trkpt lat="49.779624" lon="5.47756"><ele>424.94</ele><time>2025-05-26T02:55:47Z</time></trkpt>
<trkpt lat="49.780347" lon="5.477096"><ele>431.39</ele><time>2025-05-26T02:55:50Z</time></trkpt>
<trkpt lat="49.780689" lon="5.476925"><ele>432.51</ele><time>2025-05-26T02:55:53Z</time></trkpt>
<trkpt lat="49.780989" lon="5.476822"><ele>433.44</ele><time>2025-05-26T02:55:56Z</time></trkpt>
<trkpt lat="49.782486" lon="5.476373"><ele>441.07</ele><time>2025-05-26T02:55:59Z</time></trkpt>
<trkpt lat="49.782646" lon="5.476342"><ele>442.39</ele><time>2025-05-26T02:56:02Z</time></trkpt>
<trkpt lat="49.782942" lon="5.476359"><ele>445.05</ele><time>2025-05-26T02:56:04Z</time></trkpt>
<trkpt lat="49.783107" lon="5.476417"><ele>446.35</ele><time>2025-05-26T02:56:07Z</time></trkpt>
<trkpt lat="49.783223" lon="5.476491"><ele>447.17</ele><time>2025-05-26T02:56:10Z</time></trkpt>
<trkpt lat="49.784003" lon="5.477171"><ele>446.95</ele><time>2025-05-26T02:56:13Z</time></trkpt>
<trkpt lat="49.784301" lon="5.477466"><ele>448.36</ele><time>2025-05-26T02:56:16Z</time></trkpt>
<trkpt lat="49.784568" lon="5.477635"><ele>447.59</ele><time>2025-05-26T02:56:18Z</time></trkpt>
<trkpt lat="49.784895" lon="5.477767"><ele>447.33</ele><time>2025-05-26T02:56:21Z</time></trkpt>
<trkpt lat="49.785369" lon="5.477828"><ele>449.7</ele><time>2025-05-26T02:56:24Z</time></trkpt>
<trkpt lat="49.786439" lon="5.477841"><ele>450.64</ele><time>2025-05-26T02:56:27Z</time></trkpt>
<trkpt lat="49.787138" lon="5.477885"><ele>450.49</ele><time>2025-05-26T02:56:30Z</time></trkpt>
<trkpt lat="49.787304" lon="5.477942"><ele>451.05</ele><time>2025-05-26T02:56:33Z</time></trkpt>
<trkpt lat="49.787439" lon="5.47803"><ele>450.98</ele><time>2025-05-26T02:56:35Z</time></trkpt>
<trkpt lat="49.787554" lon="5.47816"><ele>450.78</ele><time>2025-05-26T02:56:38Z</time></trkpt>
<trkpt lat="49.788324" lon="5.479254"><ele>451.97</ele><time>2025-05-26T02:56:41Z</time></trkpt>
<trkpt lat="49.788521" lon="5.479474"><ele>450.9</ele><time>2025-05-26T02:56:44Z</time></trkpt>
<trkpt lat="49.788699" lon="5.479558"><ele>450.99</ele><time>2025-05-26T02:56:47Z</time></trkpt>
<trkpt lat="49.788875" lon="5.479578"><ele>451.98</ele><time>2025-05-26T02:56:49Z</time></trkpt>
<trkpt lat="49.789038" lon="5.479531"><ele>452.19</ele><time>2025-05-26T02:56:52Z</time></trkpt>
<trkpt lat="49.789038" lon="5.479531"><ele>452.19</ele><time>2025-05-26T02:56:52Z</time></trkpt>
<trkpt lat="49.788875" lon="5.479578"><ele>451.98</ele><time>2025-05-26T02:56:55Z</time></trkpt>
<trkpt lat="49.788699" lon="5.479558"><ele>450.99</ele><time>2025-05-26T02:56:58Z</time></trkpt>
<trkpt lat="49.788521" lon="5.479474"><ele>450.9</ele><time>2025-05-26T02:57:01Z</time></trkpt>
<trkpt lat="49.788324" lon="5.479254"><ele>451.97</ele><time>2025-05-26T02:57:04Z</time></trkpt>
<trkpt lat="49.787554" lon="5.47816"><ele>450.78</ele><time>2025-05-26T02:57:06Z</time></trkpt>
<trkpt lat="49.787439" lon="5.47803"><ele>450.98</ele><time>2025-05-26T02:57:09Z</time></trkpt>
<trkpt lat="49.787304" lon="5.477942"><ele>451.05</ele><time>2025-05-26T02:57:12Z</time></trkpt>
<trkpt lat="49.787138" lon="5.477885"><ele>450.49</ele><time>2025-05-26T02:57:15Z</time></trkpt>
<trkpt lat="49.786439" lon="5.477841"><ele>450.64</ele><time>2025-05-26T02:57:18Z</time></trkpt>
<trkpt lat="49.785369" lon="5.477828"><ele>449.7</ele><time>2025-05-26T02:57:20Z</time></trkpt>
<trkpt lat="49.784895" lon="5.477767"><ele>447.33</ele><time>2025-05-26T02:57:23Z</time></trkpt>
<trkpt lat="49.784568" lon="5.477635"><ele>447.59</ele><time>2025-05-26T02:57:26Z</time></trkpt>
<trkpt lat="49.784301" lon="5.477466"><ele>448.36</ele><time>2025-05-26T02:57:29Z</time></trkpt>
<trkpt lat="49.784003" lon="5.477171"><ele>446.95</ele><time>2025-05-26T02:57:32Z</time></trkpt>
<trkpt lat="49.783223" lon="5.476491"><ele>447.17</ele><time>2025-05-26T02:57:35Z</time></trkpt>
<trkpt lat="49.783107" lon="5.476417"><ele>446.35</ele><time>2025-05-26T02:57:37Z</time></trkpt>
<trkpt lat="49.782942" lon="5.476359"><ele>445.05</ele><time>2025-05-26T02:57:40Z</time></trkpt>
<trkpt lat="49.782646" lon="5.476342"><ele>442.39</ele><time>2025-05-26T02:57:43Z</time></trkpt>
<trkpt lat="49.782486" lon="5.476373"><ele>441.07</ele><time>2025-05-26T02:57:46Z</time></trkpt>
<trkpt lat="49.780989" lon="5.476822"><ele>433.44</ele><time>2025-05-26T02:57:49Z</time></trkpt>
<trkpt lat="49.780689" lon="5.476925"><ele>432.51</ele><time>2025-05-26T02:57:51Z</time></trkpt>
<trkpt lat="49.780347" lon="5.477096"><ele>431.39</ele><time>2025-05-26T02:57:54Z</time></trkpt>
<trkpt lat="49.779624" lon="5.47756"><ele>424.94</ele><time>2025-05-26T02:57:57Z</time></trkpt>
<trkpt lat="49.778895" lon="5.478094"><ele>422.16</ele><time>2025-05-26T02:58:00Z</time></trkpt>
<trkpt lat="49.778455" lon="5.477483"><ele>422.49</ele><time>2025-05-26T02:58:04Z</time></trkpt>
<trkpt lat="49.778239" lon="5.477183"><ele>420.96</ele><time>2025-05-26T02:58:09Z</time></trkpt>
<trkpt lat="49.778052" lon="5.476992"><ele>420.32</ele><time>2025-05-26T02:58:13Z</time></trkpt>
<trkpt lat="49.777854" lon="5.476843"><ele>417.98</ele><time>2025-05-26T02:58:18Z</time></trkpt>
<trkpt lat="49.777239" lon="5.476607"><ele>411.74</ele><time>2025-05-26T02:58:23Z</time></trkpt>
<trkpt lat="49.776198" lon="5.476285"><ele>411.7</ele><time>2025-05-26T02:58:27Z</time></trkpt>
<trkpt lat="49.775931" lon="5.476137"><ele>410.38</ele><time>2025-05-26T02:58:32Z</time></trkpt>
<trkpt lat="49.775744" lon="5.475948"><ele>409.28</ele><time>2025-05-26T02:58:36Z</time></trkpt>
<trkpt lat="49.775365" lon="5.47543"><ele>409.69</ele><time>2025-05-26T02:58:41Z</time></trkpt>
<trkpt lat="49.775197" lon="5.475099"><ele>410.39</ele><time>2025-05-26T02:58:45Z</time></trkpt>
<trkpt lat="49.774948" lon="5.474422"><ele>410.25</ele><time>2025-05-26T02:58:50Z</time></trkpt>
<trkpt lat="49.773152" lon="5.469347"><ele>426.93</ele><time>2025-05-26T02:58:54Z</time></trkpt>
<trkpt lat="49.773007" lon="5.468785"><ele>433.22</ele><time>2025-05-26T02:58:59Z</time></trkpt>
<trkpt lat="49.772087" lon="5.464009"><ele>444.39</ele><time>2025-05-26T02:59:03Z</time></trkpt>
<trkpt lat="49.771118" lon="5.461537"><ele>439.97</ele><time>2025-05-26T02:59:08Z</time></trkpt>
<trkpt lat="49.771013" lon="5.461154"><ele>438.37</ele><time>2025-05-26T02:59:12Z</time></trkpt>
<trkpt lat="49.770986" lon="5.461002"><ele>437.76</ele><time>2025-05-26T02:59:17Z</time></trkpt>
<trkpt lat="49.770986" lon="5.461002"><ele>437.76</ele><time>2025-05-26T02:59:17Z</time></trkpt>
<trkpt lat="49.770959" lon="5.460843"><ele>437.15</ele><time>2025-05-26T02:59:21Z</time></trkpt>
<trkpt lat="49.770926" lon="5.460368"><ele>434.66</ele><time>2025-05-26T02:59:25Z</time></trkpt>
<trkpt lat="49.770905" lon="5.458115"><ele>442.55</ele><time>2025-05-26T02:59:29Z</time></trkpt>
<trkpt lat="49.770857" lon="5.45778"><ele>443.25</ele><time>2025-05-26T02:59:34Z</time></trkpt>
<trkpt lat="49.770601" lon="5.456612"><ele>445.55</ele><time>2025-05-26T02:59:38Z</time></trkpt>
<trkpt lat="49.770549" lon="5.456232"><ele>445.91</ele><time>2025-05-26T02:59:42Z</time></trkpt>
<trkpt lat="49.770531" lon="5.455875"><ele>444.88</ele><time>2025-05-26T02:59:46Z</time></trkpt>
<trkpt lat="49.770521" lon="5.454099"><ele>453.87</ele><time>2025-05-26T02:59:50Z</time></trkpt>
<trkpt lat="49.770501" lon="5.453838"><ele>454.45</ele><time>2025-05-26T02:59:55Z</time></trkpt>
<trkpt lat="49.770443" lon="5.453484"><ele>453.92</ele><time>2025-05-26T02:59:59Z</time></trkpt>
<trkpt lat="49.770043" lon="5.452121"><ele>456.52</ele><time>2025-05-26T03:00:03Z</time></trkpt>
<trkpt lat="49.769851" lon="5.451386"><ele>457.45</ele><time>2025-05-26T03:00:07Z</time></trkpt>
<trkpt lat="49.769786" lon="5.450971"><ele>455.22</ele><time>2025-05-26T03:00:12Z</time></trkpt>
<trkpt lat="49.769504" lon="5.448479"><ele>445.51</ele><time>2025-05-26T03:00:16Z</time></trkpt>
<trkpt lat="49.769294" lon="5.445891"><ele>443.79</ele><time>2025-05-26T03:00:20Z</time></trkpt>
<trkpt lat="49.769247" lon="5.445526"><ele>444.0</ele><time>2025-05-26T03:00:24Z</time></trkpt>
<trkpt lat="49.769194" lon="5.445285"><ele>444.0</ele><time>2025-05-26T03:00:28Z</time></trkpt>
<trkpt lat="49.769066" lon="5.44494"><ele>443.0</ele><time>2025-05-26T03:00:33Z</time></trkpt>
<trkpt lat="49.768794" lon="5.444448"><ele>443.99</ele><time>2025-05-26T03:00:37Z</time></trkpt>
<trkpt lat="49.768184" lon="5.443494"><ele>446.54</ele><time>2025-05-26T03:00:41Z</time></trkpt>
<trkpt lat="49.767781" lon="5.442991"><ele>446.77</ele><time>2025-05-26T03:00:45Z</time></trkpt>
<trkpt lat="49.767563" lon="5.442627"><ele>445.46</ele><time>2025-05-26T03:00:50Z</time></trkpt>
<trkpt lat="49.767426" lon="5.442235"><ele>444.75</ele><time>2025-05-26T03:00:54Z</time></trkpt>
<trkpt lat="49.767366" lon="5.441942"><ele>444.53</ele><time>2025-05-26T03:00:58Z</time></trkpt>
<trkpt lat="49.767338" lon="5.44167"><ele>445.81</ele><time>2025-05-26T03:01:02Z</time></trkpt>
<trkpt lat="49.767355" lon="5.439856"><ele>441.71</ele><time>2025-05-26T03:01:06Z</time></trkpt>
<trkpt lat="49.767336" lon="5.439427"><ele>441.04</ele><time>2025-05-26T03:01:11Z</time></trkpt>
<trkpt lat="49.767127" lon="5.437768"><ele>445.63</ele><time>2025-05-26T03:01:15Z</time></trkpt>
<trkpt lat="49.767002" lon="5.435042"><ele>446.12</ele><time>2025-05-26T03:01:19Z</time></trkpt>
<trkpt lat="49.767016" lon="5.434338"><ele>442.06</ele><time>2025-05-26T03:01:23Z</time></trkpt>
<trkpt lat="49.767066" lon="5.434032"><ele>440.87</ele><time>2025-05-26T03:01:28Z</time></trkpt>
<trkpt lat="49.767152" lon="5.43377"><ele>439.08</ele><time>2025-05-26T03:01:32Z</time></trkpt>
<trkpt lat="49.767284" lon="5.433553"><ele>437.16</ele><time>2025-05-26T03:01:36Z</time></trkpt>
<trkpt lat="49.767658" lon="5.433104"><ele>435.61</ele><time>2025-05-26T03:01:40Z</time></trkpt>
<trkpt lat="49.767989" lon="5.432916"><ele>432.84</ele><time>2025-05-26T03:01:44Z</time></trkpt>
<trkpt lat="49.768288" lon="5.432625"><ele>430.87</ele><time>2025-05-26T03:01:49Z</time></trkpt>
<trkpt lat="49.769208" lon="5.431165"><ele>427.64</ele><time>2025-05-26T03:01:53Z</time></trkpt>
<trkpt lat="49.769368" lon="5.430832"><ele>428.17</ele><time>2025-05-26T03:01:57Z</time></trkpt>
<trkpt lat="49.769498" lon="5.430452"><ele>429.35</ele><time>2025-05-26T03:02:01Z</time></trkpt>
<trkpt lat="49.769622" lon="5.429875"><ele>426.83</ele><time>2025-05-26T03:02:06Z</time></trkpt>
<trkpt lat="49.769732" lon="5.429444"><ele>423.86</ele><time>2025-05-26T03:02:10Z</time></trkpt>
<trkpt lat="49.769929" lon="5.429076"><ele>417.22</ele><time>2025-05-26T03:02:14Z</time></trkpt>
<trkpt lat="49.770362" lon="5.428471"><ele>409.5</ele><time>2025-05-26T03:02:18Z</time></trkpt>
<trkpt lat="49.770417" lon="5.428126"><ele>408.25</ele><time>2025-05-26T03:02:22Z</time></trkpt>
<trkpt lat="49.770373" lon="5.427801"><ele>407.08</ele><time>2025-05-26T03:02:27Z</time></trkpt>
<trkpt lat="49.770287" lon="5.427555"><ele>406.95</ele><time>2025-05-26T03:02:31Z</time></trkpt>
<trkpt lat="49.77014" lon="5.427333"><ele>406.2</ele><time>2025-05-26T03:02:35Z</time></trkpt>
<trkpt lat="49.768531" lon="5.426406"><ele>397.51</ele><time>2025-05-26T03:02:39Z</time></trkpt>
<trkpt lat="49.768198" lon="5.426122"><ele>397.5</ele><time>2025-05-26T03:02:44Z</time></trkpt>
<trkpt lat="49.767845" lon="5.425361"><ele>395.58</ele><time>2025-05-26T03:02:48Z</time></trkpt>
<trkpt lat="49.767367" lon="5.424563"><ele>397.93</ele><time>2025-05-26T03:02:52Z</time></trkpt>
<trkpt lat="49.767261" lon="5.424168"><ele>399.35</ele><time>2025-05-26T03:02:56Z</time></trkpt>
<trkpt lat="49.767279" lon="5.422837"><ele>393.3</ele><time>2025-05-26T03:03:00Z</time></trkpt>
<trkpt lat="49.767197" lon="5.422314"><ele>386.67</ele><time>2025-05-26T03:03:05Z</time></trkpt>
<trkpt lat="49.767114" lon="5.421941"><ele>380.22</ele><time>2025-05-26T03:03:09Z</time></trkpt>
<trkpt lat="49.766266" lon="5.42027"><ele>373.21</ele><time>2025-05-26T03:03:13Z</time></trkpt>
<trkpt lat="49.766115" lon="5.419675"><ele>371.37</ele><time>2025-05-26T03:03:17Z</time></trkpt>
<trkpt lat="49.766041" lon="5.418979"><ele>369.35</ele><time>2025-05-26T03:03:21Z</time></trkpt>
<trkpt lat="49.765603" lon="5.415555"><ele>352.85</ele><time>2025-05-26T03:03:26Z</time></trkpt>
<trkpt lat="49.764867" lon="5.409908"><ele>352.72</ele><time>2025-05-26T03:03:30Z</time></trkpt>
<trkpt lat="49.764818" lon="5.409395"><ele>355.77</ele><time>2025-05-26T03:03:34Z</time></trkpt>
<trkpt lat="49.764787" lon="5.408729"><ele>356.86</ele><time>2025-05-26T03:03:38Z</time></trkpt>
<trkpt lat="49.764807" lon="5.407612"><ele>354.98</ele><time>2025-05-26T03:03:43Z</time></trkpt>
<trkpt lat="49.764791" lon="5.407146"><ele>356.71</ele><time>2025-05-26T03:03:47Z</time></trkpt>
<trkpt lat="49.764531" lon="5.404298"><ele>351.52</ele><time>2025-05-26T03:03:51Z</time></trkpt>
<trkpt lat="49.764424" lon="5.403313"><ele>349.14</ele><time>2025-05-26T03:03:55Z</time></trkpt>
<trkpt lat="49.764017" lon="5.400241"><ele>341.82</ele><time>2025-05-26T03:03:59Z</time></trkpt>
<trkpt lat="49.763891" lon="5.399775"><ele>339.37</ele><time>2025-05-26T03:04:04Z</time></trkpt>
<trkpt lat="49.763863" lon="5.399593"><ele>339.14</ele><time>2025-05-26T03:04:08Z</time></trkpt>
<trkpt lat="49.763863" lon="5.399497"><ele>339.11</ele><time>2025-05-26T03:04:12Z</time></trkpt>
<trkpt lat="49.763958" lon="5.398815"><ele>337.55</ele><time>2025-05-26T03:04:16Z</time></trkpt>
<trkpt lat="49.763938" lon="5.398413"><ele>337.0</ele><time>2025-05-26T03:04:21Z</time></trkpt>
<trkpt lat="49.763885" lon="5.39812"><ele>337.79</ele><time>2025-05-26T03:04:25Z</time></trkpt>
<trkpt lat="49.763495" lon="5.396246"><ele>336.3</ele><time>2025-05-26T03:04:29Z</time></trkpt>
<trkpt lat="49.763023" lon="5.39386"><ele>347.87</ele><time>2025-05-26T03:04:33Z</time></trkpt>
<trkpt lat="49.762937" lon="5.393205"><ele>349.08</ele><time>2025-05-26T03:04:37Z</time></trkpt>
<trkpt lat="49.762777" lon="5.391565"><ele>355.72</ele><time>2025-05-26T03:04:42Z</time></trkpt>
<trkpt lat="49.762652" lon="5.389585"><ele>368.04</ele><time>2025-05-26T03:04:46Z</time></trkpt>
<trkpt lat="49.762206" lon="5.384574"><ele>390.81</ele><time>2025-05-26T03:04:50Z</time></trkpt>
<trkpt lat="49.76193" lon="5.381875"><ele>406.11</ele><time>2025-05-26T03:04:54Z</time></trkpt>
<trkpt lat="49.761912" lon="5.3815"><ele>407.96</ele><time>2025-05-26T03:04:59Z</time></trkpt>
<trkpt lat="49.761916" lon="5.380974"><ele>408.95</ele><time>2025-05-26T03:05:03Z</time></trkpt>
<trkpt lat="49.761943" lon="5.380618"><ele>409.77</ele><time>2025-05-26T03:05:07Z</time></trkpt>
<trkpt lat="49.762625" lon="5.37521"><ele>415.69</ele><time>2025-05-26T03:05:11Z</time></trkpt>
<trkpt lat="49.762655" lon="5.37454"><ele>413.57</ele><time>2025-05-26T03:05:15Z</time></trkpt>
<trkpt lat="49.762588" lon="5.373394"><ele>413.17</ele><time>2025-05-26T03:05:20Z</time></trkpt>
<trkpt lat="49.76235" lon="5.370603"><ele>417.29</ele><time>2025-05-26T03:05:24Z</time></trkpt>
<trkpt lat="49.762046" lon="5.367225"><ele>421.99</ele><time>2025-05-26T03:05:28Z</time></trkpt>
<trkpt lat="49.761975" lon="5.366707"><ele>422.11</ele><time>2025-05-26T03:05:32Z</time></trkpt>
<trkpt lat="49.761841" lon="5.366283"><ele>422.64</ele><time>2025-05-26T03:05:37Z</time></trkpt>
<trkpt lat="49.761841" lon="5.366283"><ele>422.64</ele><time>2025-05-26T03:05:37Z</time></trkpt>
<trkpt lat="49.761667" lon="5.365931"><ele>423.95</ele><time>2025-05-26T03:05:41Z</time></trkpt>
<trkpt lat="49.761452" lon="5.365605"><ele>425.6</ele><time>2025-05-26T03:05:45Z</time></trkpt>
<trkpt lat="49.757525" lon="5.361169"><ele>413.56</ele><time>2025-05-26T03:05:49Z</time></trkpt>
<trkpt lat="49.757359" lon="5.361017"><ele>412.14</ele><time>2025-05-26T03:05:53Z</time></trkpt>
<trkpt lat="49.750625" lon="5.356923"><ele>401.75</ele><time>2025-05-26T03:05:57Z</time></trkpt>
<trkpt lat="49.745849" lon="5.353832"><ele>400.98</ele><time>2025-05-26T03:06:01Z</time></trkpt>
<trkpt lat="49.744506" lon="5.352875"><ele>394.39</ele><time>2025-05-26T03:06:05Z</time></trkpt>
<trkpt lat="49.744317" lon="5.352801"><ele>393.79</ele><time>2025-05-26T03:06:09Z</time></trkpt>
<trkpt lat="49.744079" lon="5.352786"><ele>392.13</ele><time>2025-05-26T03:06:13Z</time></trkpt>
<trkpt lat="49.743351" lon="5.352912"><ele>385.67</ele><time>2025-05-26T03:06:17Z</time></trkpt>
<trkpt lat="49.743011" lon="5.352918"><ele>384.62</ele><time>2025-05-26T03:06:21Z</time></trkpt>
<trkpt lat="49.742746" lon="5.352886"><ele>381.56</ele><time>2025-05-26T03:06:25Z</time></trkpt>
<trkpt lat="49.740865" lon="5.352447"><ele>353.11</ele><time>2025-05-26T03:06:29Z</time></trkpt>
<trkpt lat="49.740695" lon="5.352315"><ele>350.01</ele><time>2025-05-26T03:06:33Z</time></trkpt>
<trkpt lat="49.740472" lon="5.351942"><ele>347.2</ele><time>2025-05-26T03:06:38Z</time></trkpt>
<trkpt lat="49.740189" lon="5.351379"><ele>341.41</ele><time>2025-05-26T03:06:42Z</time></trkpt>
<trkpt lat="49.740128" lon="5.351209"><ele>339.44</ele><time>2025-05-26T03:06:46Z</time></trkpt>
<trkpt lat="49.740105" lon="5.351017"><ele>339.45</ele><time>2025-05-26T03:06:50Z</time></trkpt>
<trkpt lat="49.740297" lon="5.349941"><ele>339.38</ele><time>2025-05-26T03:06:54Z</time></trkpt>
<trkpt lat="49.740327" lon="5.34974"><ele>337.35</ele><time>2025-05-26T03:06:58Z</time></trkpt>
<trkpt lat="49.740333" lon="5.34956"><ele>334.98</ele><time>2025-05-26T03:07:02Z</time></trkpt>
<trkpt lat="49.740326" lon="5.349399"><ele>332.99</ele><time>2025-05-26T03:07:06Z</time></trkpt>
<trkpt lat="49.740278" lon="5.349206"><ele>331.28</ele><time>2025-05-26T03:07:10Z</time></trkpt>
<trkpt lat="49.740214" lon="5.34909"><ele>329.37</ele><time>2025-05-26T03:07:14Z</time></trkpt>
<trkpt lat="49.740133" lon="5.349011"><ele>327.57</ele><time>2025-05-26T03:07:18Z</time></trkpt>
<trkpt lat="49.740037" lon="5.348973"><ele>325.88</ele><time>2025-05-26T03:07:22Z</time></trkpt>
<trkpt lat="49.73989" lon="5.349038"><ele>323.35</ele><time>2025-05-26T03:07:26Z</time></trkpt>
<trkpt lat="49.739485" lon="5.349512"><ele>316.15</ele><time>2025-05-26T03:07:30Z</time></trkpt>
<trkpt lat="49.739398" lon="5.349546"><ele>314.59</ele><time>2025-05-26T03:07:34Z</time></trkpt>
<trkpt lat="49.739331" lon="5.349516"><ele>313.33</ele><time>2025-05-26T03:07:39Z</time></trkpt>
<trkpt lat="49.73867" lon="5.348974"><ele>320.55</ele><time>2025-05-26T03:07:43Z</time></trkpt>
<trkpt lat="49.738612" lon="5.348854"><ele>325.72</ele><time>2025-05-26T03:07:47Z</time></trkpt>
<trkpt lat="49.73858" lon="5.348684"><ele>330.76</ele><time>2025-05-26T03:07:51Z</time></trkpt>
<trkpt lat="49.738605" lon="5.348526"><ele>333.09</ele><time>2025-05-26T03:07:55Z</time></trkpt>
<trkpt lat="49.73932" lon="5.346521"><ele>345.1</ele><time>2025-05-26T03:07:59Z</time></trkpt>
<trkpt lat="49.739473" lon="5.346213"><ele>348.13</ele><time>2025-05-26T03:08:03Z</time></trkpt>
<trkpt lat="49.739643" lon="5.345959"><ele>349.64</ele><time>2025-05-26T03:08:07Z</time></trkpt>
<trkpt lat="49.739848" lon="5.345737"><ele>350.77</ele><time>2025-05-26T03:08:11Z</time></trkpt>
<trkpt lat="49.740038" lon="5.345582"><ele>351.36</ele><time>2025-05-26T03:08:15Z</time></trkpt>
<trkpt lat="49.740185" lon="5.345417"><ele>350.5</ele><time>2025-05-26T03:08:19Z</time></trkpt>
<trkpt lat="49.740331" lon="5.34518"><ele>350.74</ele><time>2025-05-26T03:08:23Z</time></trkpt>
<trkpt lat="49.740375" lon="5.345089"><ele>350.8</ele><time>2025-05-26T03:08:27Z</time></trkpt>
<trkpt lat="49.740406" lon="5.344942"><ele>351.8</ele><time>2025-05-26T03:08:31Z</time></trkpt>
<trkpt lat="49.740441" lon="5.344546"><ele>354.06</ele><time>2025-05-26T03:08:35Z</time></trkpt>
<trkpt lat="49.740556" lon="5.343834"><ele>357.39</ele><time>2025-05-26T03:08:39Z</time></trkpt>
<trkpt lat="49.740748" lon="5.34336"><ele>356.92</ele><time>2025-05-26T03:08:44Z</time></trkpt>
<trkpt lat="49.740798" lon="5.343211"><ele>356.05</ele><time>2025-05-26T03:08:48Z</time></trkpt>
<trkpt lat="49.740806" lon="5.343144"><ele>355.76</ele><time>2025-05-26T03:08:52Z</time></trkpt>
<trkpt lat="49.740801" lon="5.343062"><ele>355.6</ele><time>2025-05-26T03:08:56Z</time></trkpt>
<trkpt lat="49.740748" lon="5.342922"><ele>356.23</ele><time>2025-05-26T03:09:00Z</time></trkpt>
<trkpt lat="49.74066" lon="5.342793"><ele>356.93</ele><time>2025-05-26T03:09:04Z</time></trkpt>
<trkpt lat="49.740544" lon="5.342712"><ele>357.94</ele><time>2025-05-26T03:09:08Z</time></trkpt>
<trkpt lat="49.740123" lon="5.342407"><ele>362.52</ele><time>2025-05-26T03:09:12Z</time></trkpt>
<trkpt lat="49.738949" lon="5.341065"><ele>370.86</ele><time>2025-05-26T03:09:16Z</time></trkpt>
<trkpt lat="49.738949" lon="5.341065"><ele>370.86</ele><time>2025-05-26T03:09:16Z</time></trkpt>
<trkpt lat="49.738728" lon="5.340884"><ele>372.05</ele><time>2025-05-26T03:09:24Z</time></trkpt>
<trkpt lat="49.737843" lon="5.340269"><ele>377.74</ele><time>2025-05-26T03:09:32Z</time></trkpt>
<trkpt lat="49.737045" lon="5.339625"><ele>377.41</ele><time>2025-05-26T03:09:39Z</time></trkpt>
<trkpt lat="49.736858" lon="5.339517"><ele>377.26</ele><time>2025-05-26T03:09:47Z</time></trkpt>
<trkpt lat="49.736425" lon="5.339345"><ele>375.77</ele><time>2025-05-26T03:09:55Z</time></trkpt>
<trkpt lat="49.734748" lon="5.338908"><ele>371.13</ele><time>2025-05-26T03:10:03Z</time></trkpt>
<trkpt lat="49.734595" lon="5.338874"><ele>370.01</ele><time>2025-05-26T03:10:11Z</time></trkpt>
<trkpt lat="49.732727" lon="5.338667"><ele>362.98</ele><time>2025-05-26T03:10:19Z</time></trkpt>
<trkpt lat="49.732259" lon="5.338612"><ele>362.0</ele><time>2025-05-26T03:10:26Z</time></trkpt>
<trkpt lat="49.73166" lon="5.338495"><ele>364.41</ele><time>2025-05-26T03:10:34Z</time></trkpt>
<trkpt lat="49.730115" lon="5.337956"><ele>360.15</ele><time>2025-05-26T03:10:42Z</time></trkpt>
<trkpt lat="49.729697" lon="5.337807"><ele>358.91</ele><time>2025-05-26T03:10:50Z</time></trkpt>
<trkpt lat="49.729267" lon="5.338262"><ele>358.91</ele><time>2025-05-26T03:10:53Z</time></trkpt>
<trkpt lat="49.728878" lon="5.33871"><ele>359.98</ele><time>2025-05-26T03:10:57Z</time></trkpt>
<trkpt lat="49.728686" lon="5.338835"><ele>359.41</ele><time>2025-05-26T03:11:00Z</time></trkpt>
<trkpt lat="49.727547" lon="5.339466"><ele>358.66</ele><time>2025-05-26T03:11:04Z</time></trkpt>
<trkpt lat="49.727054" lon="5.339605"><ele>360.6</ele><time>2025-05-26T03:11:07Z</time></trkpt>
<trkpt lat="49.726506" lon="5.339692"><ele>362.4</ele><time>2025-05-26T03:11:11Z</time></trkpt>
<trkpt lat="49.726264" lon="5.339753"><ele>363.5</ele><time>2025-05-26T03:11:14Z</time></trkpt>
<trkpt lat="49.726059" lon="5.339834"><ele>364.21</ele><time>2025-05-26T03:11:17Z</time></trkpt>
<trkpt lat="49.725546" lon="5.340154"><ele>361.93</ele><time>2025-05-26T03:11:21Z</time></trkpt>
<trkpt lat="49.725282" lon="5.340415"><ele>361.01</ele><time>2025-05-26T03:11:24Z</time></trkpt>
<trkpt lat="49.724068" lon="5.341771"><ele>356.0</ele><time>2025-05-26T03:11:28Z</time></trkpt>
<trkpt lat="49.723947" lon="5.341929"><ele>356.0</ele><time>2025-05-26T03:11:31Z</time></trkpt>
<trkpt lat="49.723658" lon="5.342378"><ele>353.78</ele><time>2025-05-26T03:11:35Z</time></trkpt>
<trkpt lat="49.723487" lon="5.342574"><ele>351.98</ele><time>2025-05-26T03:11:38Z</time></trkpt>
<trkpt lat="49.722752" lon="5.342979"><ele>352.92</ele><time>2025-05-26T03:11:42Z</time></trkpt>
<trkpt lat="49.722426" lon="5.343283"><ele>356.48</ele><time>2025-05-26T03:11:45Z</time></trkpt>
<trkpt lat="49.721849" lon="5.344005"><ele>354.68</ele><time>2025-05-26T03:11:49Z</time></trkpt>
<trkpt lat="49.721128" lon="5.344775"><ele>356.2</ele><time>2025-05-26T03:11:52Z</time></trkpt>
<trkpt lat="49.720467" lon="5.345555"><ele>356.73</ele><time>2025-05-26T03:11:56Z</time></trkpt>
<trkpt lat="49.720099" lon="5.345908"><ele>352.97</ele><time>2025-05-26T03:11:59Z</time></trkpt>
<trkpt lat="49.719061" lon="5.346452"><ele>350.08</ele><time>2025-05-26T03:12:02Z</time></trkpt>
<trkpt lat="49.716559" lon="5.347615"><ele>351.41</ele><time>2025-05-26T03:12:06Z</time></trkpt>
<trkpt lat="49.716109" lon="5.347745"><ele>351.0</ele><time>2025-05-26T03:12:09Z</time></trkpt>
<trkpt lat="49.715623" lon="5.347808"><ele>351.08</ele><time>2025-05-26T03:12:13Z</time></trkpt>
<trkpt lat="49.714656" lon="5.347809"><ele>352.0</ele><time>2025-05-26T03:12:16Z</time></trkpt>
<trkpt lat="49.714113" lon="5.347875"><ele>352.26</ele><time>2025-05-26T03:12:20Z</time></trkpt>
<trkpt lat="49.713223" lon="5.348534"><ele>351.4</ele><time>2025-05-26T03:12:23Z</time></trkpt>
<trkpt lat="49.713171" lon="5.348476"><ele>351.58</ele><time>2025-05-26T03:12:27Z</time></trkpt>
<trkpt lat="49.711604" lon="5.347732"><ele>351.86</ele><time>2025-05-26T03:12:32Z</time></trkpt>
<trkpt lat="49.711427" lon="5.347672"><ele>351.77</ele><time>2025-05-26T03:12:36Z</time></trkpt>
<trkpt lat="49.710337" lon="5.347614"><ele>350.25</ele><time>2025-05-26T03:12:40Z</time></trkpt>
<trkpt lat="49.709325" lon="5.347259"><ele>346.15</ele><time>2025-05-26T03:12:44Z</time></trkpt>
<trkpt lat="49.709035" lon="5.347116"><ele>342.62</ele><time>2025-05-26T03:12:48Z</time></trkpt>
<trkpt lat="49.709035" lon="5.347116"><ele>342.62</ele><time>2025-05-26T03:12:48Z</time></trkpt>
<trkpt lat="49.707991" lon="5.346473"><ele>339.77</ele><time>2025-05-26T03:12:52Z</time></trkpt>
<trkpt lat="49.706798" lon="5.34587"><ele>336.6</ele><time>2025-05-26T03:12:57Z</time></trkpt>
<trkpt lat="49.70652" lon="5.345638"><ele>339.11</ele><time>2025-05-26T03:13:01Z</time></trkpt>
<trkpt lat="49.70617" lon="5.345234"><ele>343.19</ele><time>2025-05-26T03:13:05Z</time></trkpt>
<trkpt lat="49.705328" lon="5.344322"><ele>342.98</ele><time>2025-05-26T03:13:10Z</time></trkpt>
<trkpt lat="49.704587" lon="5.343586"><ele>333.98</ele><time>2025-05-26T03:13:14Z</time></trkpt>
<trkpt lat="49.703832" lon="5.34253"><ele>331.8</ele><time>2025-05-26T03:13:19Z</time></trkpt>
<trkpt lat="49.703622" lon="5.342311"><ele>330.36</ele><time>2025-05-26T03:13:23Z</time></trkpt>
<trkpt lat="49.703452" lon="5.34221"><ele>328.17</ele><time>2025-05-26T03:13:27Z</time></trkpt>
<trkpt lat="49.703322" lon="5.342211"><ele>326.83</ele><time>2025-05-26T03:13:32Z</time></trkpt>
<trkpt lat="49.703199" lon="5.342312"><ele>326.03</ele><time>2025-05-26T03:13:36Z</time></trkpt>
<trkpt lat="49.703037" lon="5.342505"><ele>324.95</ele><time>2025-05-26T03:13:40Z</time></trkpt>
<trkpt lat="49.70297" lon="5.342562"><ele>324.91</ele><time>2025-05-26T03:13:45Z</time></trkpt>
<trkpt lat="49.702904" lon="5.34257"><ele>324.71</ele><time>2025-05-26T03:13:49Z</time></trkpt>
<trkpt lat="49.702813" lon="5.342524"><ele>324.21</ele><time>2025-05-26T03:13:53Z</time></trkpt>
<trkpt lat="49.702771" lon="5.342464"><ele>323.95</ele><time>2025-05-26T03:13:58Z</time></trkpt>
<trkpt lat="49.702519" lon="5.341967"><ele>323.92</ele><time>2025-05-26T03:14:02Z</time></trkpt>
<trkpt lat="49.702469" lon="5.341891"><ele>324.28</ele><time>2025-05-26T03:14:06Z</time></trkpt>
<trkpt lat="49.702405" lon="5.341846"><ele>324.58</ele><time>2025-05-26T03:14:11Z</time></trkpt>
<trkpt lat="49.701342" lon="5.341753"><ele>328.51</ele><time>2025-05-26T03:14:15Z</time></trkpt>
<trkpt lat="49.701175" lon="5.34168"><ele>330.3</ele><time>2025-05-26T03:14:19Z</time></trkpt>
<trkpt lat="49.700719" lon="5.341291"><ele>329.97</ele><time>2025-05-26T03:14:24Z</time></trkpt>
<trkpt lat="49.700583" lon="5.341096"><ele>329.1</ele><time>2025-05-26T03:14:28Z</time></trkpt>
<trkpt lat="49.700425" lon="5.340812"><ele>328.53</ele><time>2025-05-26T03:14:32Z</time></trkpt>
<trkpt lat="49.700201" lon="5.340251"><ele>328.07</ele><time>2025-05-26T03:14:37Z</time></trkpt>
<trkpt lat="49.70007" lon="5.339986"><ele>328.21</ele><time>2025-05-26T03:14:41Z</time></trkpt>
<trkpt lat="49.699847" lon="5.339663"><ele>327.0</ele><time>2025-05-26T03:14:45Z</time></trkpt>
<trkpt lat="49.699382" lon="5.33907"><ele>328.12</ele><time>2025-05-26T03:14:50Z</time></trkpt>
<trkpt lat="49.699245" lon="5.338541"><ele>329.82</ele><time>2025-05-26T03:14:54Z</time></trkpt>
<trkpt lat="49.699" lon="5.337298"><ele>329.8</ele><time>2025-05-26T03:14:58Z</time></trkpt>
<trkpt lat="49.698773" lon="5.335845"><ele>332.52</ele><time>2025-05-26T03:15:03Z</time></trkpt>
<trkpt lat="49.698714" lon="5.335263"><ele>334.37</ele><time>2025-05-26T03:15:07Z</time></trkpt>
<trkpt lat="49.698714" lon="5.334609"><ele>334.37</ele><time>2025-05-26T03:15:11Z</time></trkpt>
<trkpt lat="49.698647" lon="5.334256"><ele>334.8</ele><time>2025-05-26T03:15:16Z</time></trkpt>
<trkpt lat="49.698163" lon="5.332605"><ele>344.14</ele><time>2025-05-26T03:15:20Z</time></trkpt>
<trkpt lat="49.698073" lon="5.332394"><ele>347.36</ele><time>2025-05-26T03:15:24Z</time></trkpt>
<trkpt lat="49.698023" lon="5.332126"><ele>349.74</ele><time>2025-05-26T03:15:29Z</time></trkpt>
<trkpt lat="49.697969" lon="5.331538"><ele>349.58</ele><time>2025-05-26T03:15:33Z</time></trkpt>
<trkpt lat="49.697935" lon="5.330563"><ele>352.74</ele><time>2025-05-26T03:15:37Z</time></trkpt>
<trkpt lat="49.697944" lon="5.330064"><ele>352.54</ele><time>2025-05-26T03:15:42Z</time></trkpt>
<trkpt lat="49.698081" lon="5.328396"><ele>355.15</ele><time>2025-05-26T03:15:46Z</time></trkpt>
<trkpt lat="49.698294" lon="5.326862"><ele>355.57</ele><time>2025-05-26T03:15:50Z</time></trkpt>
<trkpt lat="49.698392" lon="5.326301"><ele>355.16</ele><time>2025-05-26T03:15:55Z</time></trkpt>
<trkpt lat="49.698527" lon="5.325763"><ele>353.85</ele><time>2025-05-26T03:15:59Z</time></trkpt>
<trkpt lat="49.698932" lon="5.324348"><ele>353.28</ele><time>2025-05-26T03:16:03Z</time></trkpt>
<trkpt lat="49.699325" lon="5.322722"><ele>354.55</ele><time>2025-05-26T03:16:08Z</time></trkpt>
<trkpt lat="49.699888" lon="5.317991"><ele>355.23</ele><time>2025-05-26T03:16:12Z</time></trkpt>
<trkpt lat="49.700024" lon="5.31794"><ele>355.54</ele><time>2025-05-26T03:16:14Z</time></trkpt>
<trkpt lat="49.699853" lon="5.316456"><ele>360.17</ele><time>2025-05-26T03:16:21Z</time></trkpt>
<trkpt lat="49.699617" lon="5.314625"><ele>356.03</ele><time>2025-05-26T03:16:27Z</time></trkpt>
<trkpt lat="49.699478" lon="5.314135"><ele>355.11</ele><time>2025-05-26T03:16:34Z</time></trkpt>
<trkpt lat="49.699421" lon="5.313979"><ele>355.79</ele><time>2025-05-26T03:16:41Z</time></trkpt>
<trkpt lat="49.699244" lon="5.313593"><ele>356.0</ele><time>2025-05-26T03:16:48Z</time></trkpt>
<trkpt lat="49.698893" lon="5.313018"><ele>355.87</ele><time>2025-05-26T03:16:54Z</time></trkpt>
<trkpt lat="49.698486" lon="5.312355"><ele>356.0</ele><time>2025-05-26T03:17:01Z</time></trkpt>
<trkpt lat="49.698227" lon="5.311908"><ele>354.87</ele><time>2025-05-26T03:17:08Z</time></trkpt>
<trkpt lat="49.698082" lon="5.311653"><ele>353.95</ele><time>2025-05-26T03:17:14Z</time></trkpt>
<trkpt lat="49.697934" lon="5.311502"><ele>353.92</ele><time>2025-05-26T03:17:21Z</time></trkpt>
<trkpt lat="49.697879" lon="5.311473"><ele>354.19</ele><time>2025-05-26T03:17:28Z</time></trkpt>
<trkpt lat="49.697762" lon="5.312108"><ele>355.0</ele><time>2025-05-26T03:17:31Z</time></trkpt>
<trkpt lat="49.697742" lon="5.312342"><ele>355.43</ele><time>2025-05-26T03:17:34Z</time></trkpt>
<trkpt lat="49.69775" lon="5.31249"><ele>355.96</ele><time>2025-05-26T03:17:37Z</time></trkpt>
<trkpt lat="49.697449" lon="5.312614"><ele>356.52</ele><time>2025-05-26T03:17:44Z</time></trkpt>
<trkpt lat="49.696685" lon="5.313221"><ele>353.07</ele><time>2025-05-26T03:17:50Z</time></trkpt>
<trkpt lat="49.696607" lon="5.313302"><ele>352.79</ele><time>2025-05-26T03:17:57Z</time></trkpt>
<trkpt lat="49.695184" lon="5.314395"><ele>352.28</ele><time>2025-05-26T03:18:04Z</time></trkpt>
<trkpt lat="49.694216" lon="5.315172"><ele>350.55</ele><time>2025-05-26T03:18:11Z</time></trkpt>
<trkpt lat="49.693909" lon="5.315464"><ele>349.38</ele><time>2025-05-26T03:18:18Z</time></trkpt>
<trkpt lat="49.693664" lon="5.315721"><ele>348.19</ele><time>2025-05-26T03:18:25Z</time></trkpt>
<trkpt lat="49.69331" lon="5.316145"><ele>348.0</ele><time>2025-05-26T03:18:32Z</time></trkpt>
<trkpt lat="49.692921" lon="5.316669"><ele>348.48</ele><time>2025-05-26T03:18:38Z</time></trkpt>
<trkpt lat="49.692838" lon="5.316557"><ele>349.09</ele><time>2025-05-26T03:18:42Z</time></trkpt>
<trkpt lat="49.692731" lon="5.316515"><ele>349.62</ele><time>2025-05-26T03:18:46Z</time></trkpt>
<trkpt lat="49.692523" lon="5.316496"><ele>349.97</ele><time>2025-05-26T03:18:50Z</time></trkpt>
<trkpt lat="49.692314" lon="5.316538"><ele>349.69</ele><time>2025-05-26T03:18:54Z</time></trkpt>
<trkpt lat="49.692256" lon="5.316569"><ele>349.4</ele><time>2025-05-26T03:18:58Z</time></trkpt>
<trkpt lat="49.692256" lon="5.316569"><ele>349.4</ele><time>2025-05-26T03:18:58Z</time></trkpt>
<trkpt lat="49.692314" lon="5.316538"><ele>349.69</ele><time>2025-05-26T03:18:59Z</time></trkpt>
<trkpt lat="49.692523" lon="5.316496"><ele>349.97</ele><time>2025-05-26T03:19:00Z</time></trkpt>
<trkpt lat="49.692731" lon="5.316515"><ele>349.62</ele><time>2025-05-26T03:19:01Z</time></trkpt>
<trkpt lat="49.692838" lon="5.316557"><ele>349.09</ele><time>2025-05-26T03:19:02Z</time></trkpt>
<trkpt lat="49.692921" lon="5.316669"><ele>348.48</ele><time>2025-05-26T03:19:03Z</time></trkpt>
<trkpt lat="49.692259" lon="5.317699"><ele>346.29</ele><time>2025-05-26T03:19:10Z</time></trkpt>
<trkpt lat="49.691973" lon="5.318299"><ele>345.79</ele><time>2025-05-26T03:19:16Z</time></trkpt>
<trkpt lat="49.691862" lon="5.318606"><ele>345.02</ele><time>2025-05-26T03:19:22Z</time></trkpt>
<trkpt lat="49.691333" lon="5.320375"><ele>344.0</ele><time>2025-05-26T03:19:28Z</time></trkpt>
<trkpt lat="49.690643" lon="5.322829"><ele>339.68</ele><time>2025-05-26T03:19:34Z</time></trkpt>
<trkpt lat="49.690371" lon="5.323621"><ele>340.02</ele><time>2025-05-26T03:19:41Z</time></trkpt>
<trkpt lat="49.690184" lon="5.324044"><ele>340.85</ele><time>2025-05-26T03:19:47Z</time></trkpt>
<trkpt lat="49.689984" lon="5.324436"><ele>341.05</ele><time>2025-05-26T03:19:53Z</time></trkpt>
<trkpt lat="49.688797" lon="5.326106"><ele>337.98</ele><time>2025-05-26T03:19:59Z</time></trkpt>
<trkpt lat="49.687957" lon="5.327303"><ele>343.12</ele><time>2025-05-26T03:20:05Z</time></trkpt>
<trkpt lat="49.687706" lon="5.327589"><ele>340.57</ele><time>2025-05-26T03:20:12Z</time></trkpt>
<trkpt lat="49.68488" lon="5.330035"><ele>338.57</ele><time>2025-05-26T03:20:18Z</time></trkpt>
<trkpt lat="49.684328" lon="5.330615"><ele>336.33</ele><time>2025-05-26T03:20:24Z</time></trkpt>
<trkpt lat="49.682024" lon="5.333414"><ele>336.92</ele><time>2025-05-26T03:20:30Z</time></trkpt>
<trkpt lat="49.681767" lon="5.333665"><ele>338.05</ele><time>2025-05-26T03:20:36Z</time></trkpt>
<trkpt lat="49.681149" lon="5.334128"><ele>345.83</ele><time>2025-05-26T03:20:42Z</time></trkpt>
<trkpt lat="49.679877" lon="5.335022"><ele>345.41</ele><time>2025-05-26T03:20:49Z</time></trkpt>
<trkpt lat="49.679619" lon="5.335223"><ele>345.57</ele><time>2025-05-26T03:20:55Z</time></trkpt>
<trkpt lat="49.679065" lon="5.335752"><ele>344.56</ele><time>2025-05-26T03:21:01Z</time></trkpt>
<trkpt lat="49.676711" lon="5.338339"><ele>347.99</ele><time>2025-05-26T03:21:07Z</time></trkpt>
<trkpt lat="49.675772" lon="5.339453"><ele>340.09</ele><time>2025-05-26T03:21:13Z</time></trkpt>
<trkpt lat="49.675482" lon="5.339673"><ele>338.46</ele><time>2025-05-26T03:21:20Z</time></trkpt>
<trkpt lat="49.674894" lon="5.340064"><ele>337.31</ele><time>2025-05-26T03:21:26Z</time></trkpt>
<trkpt lat="49.674788" lon="5.340098"><ele>336.94</ele><time>2025-05-26T03:21:32Z</time></trkpt>
<trkpt lat="49.67468" lon="5.340104"><ele>337.05</ele><time>2025-05-26T03:21:38Z</time></trkpt>
<trkpt lat="49.674588" lon="5.340081"><ele>337.55</ele><time>2025-05-26T03:21:44Z</time></trkpt>
<trkpt lat="49.674478" lon="5.340011"><ele>337.98</ele><time>2025-05-26T03:21:51Z</time></trkpt>
<trkpt lat="49.674375" lon="5.339914"><ele>338.9</ele><time>2025-05-26T03:21:57Z</time></trkpt>
<trkpt lat="49.674395" lon="5.339867"><ele>338.84</ele><time>2025-05-26T03:22:02Z</time></trkpt>
<trkpt lat="49.674399" lon="5.339773"><ele>339.04</ele><time>2025-05-26T03:22:06Z</time></trkpt>
<trkpt lat="49.67436" lon="5.339487"><ele>339.89</ele><time>2025-05-26T03:22:11Z</time></trkpt>
<trkpt lat="49.674163" lon="5.338548"><ele>340.01</ele><time>2025-05-26T03:22:16Z</time></trkpt>
<trkpt lat="49.674137" lon="5.338178"><ele>340.05</ele><time>2025-05-26T03:22:21Z</time></trkpt>
<trkpt lat="49.674144" lon="5.337381"><ele>337.05</ele><time>2025-05-26T03:22:25Z</time></trkpt>
<trkpt lat="49.67408" lon="5.337118"><ele>337.14</ele><time>2025-05-26T03:22:30Z</time></trkpt>
<trkpt lat="49.673957" lon="5.336858"><ele>336.25</ele><time>2025-05-26T03:22:35Z</time></trkpt>
<trkpt lat="49.673778" lon="5.336657"><ele>333.8</ele><time>2025-05-26T03:22:39Z</time></trkpt>
<trkpt lat="49.67339" lon="5.336295"><ele>326.28</ele><time>2025-05-26T03:22:44Z</time></trkpt>
<trkpt lat="49.672943" lon="5.335922"><ele>319.62</ele><time>2025-05-26T03:22:49Z</time></trkpt>
<trkpt lat="49.672759" lon="5.335708"><ele>316.47</ele><time>2025-05-26T03:22:54Z</time></trkpt>
<trkpt lat="49.672612" lon="5.335405"><ele>318.1</ele><time>2025-05-26T03:22:58Z</time></trkpt>
<trkpt lat="49.672259" lon="5.334254"><ele>308.29</ele><time>2025-05-26T03:23:03Z</time></trkpt>
<trkpt lat="49.672091" lon="5.333884"><ele>306.48</ele><time>2025-05-26T03:23:08Z</time></trkpt>
<trkpt lat="49.672477" lon="5.333877"><ele>311.39</ele><time>2025-05-26T03:23:17Z</time></trkpt>
<trkpt lat="49.672477" lon="5.333877"><ele>311.39</ele><time>2025-05-26T03:23:17Z</time></trkpt>
<trkpt lat="49.672091" lon="5.333884"><ele>306.48</ele><time>2025-05-26T03:23:26Z</time></trkpt>
<trkpt lat="49.672259" lon="5.334254"><ele>308.29</ele><time>2025-05-26T03:23:29Z</time></trkpt>
<trkpt lat="49.672612" lon="5.335405"><ele>318.1</ele><time>2025-05-26T03:23:33Z</time></trkpt>
<trkpt lat="49.672759" lon="5.335708"><ele>316.47</ele><time>2025-05-26T03:23:37Z</time></trkpt>
<trkpt lat="49.672943" lon="5.335922"><ele>319.62</ele><time>2025-05-26T03:23:41Z</time></trkpt>
<trkpt lat="49.67339" lon="5.336295"><ele>326.28</ele><time>2025-05-26T03:23:44Z</time></trkpt>
<trkpt lat="49.673778" lon="5.336657"><ele>333.8</ele><time>2025-05-26T03:23:48Z</time></trkpt>
<trkpt lat="49.673957" lon="5.336858"><ele>336.25</ele><time>2025-05-26T03:23:52Z</time></trkpt>
<trkpt lat="49.67408" lon="5.337118"><ele>337.14</ele><time>2025-05-26T03:23:56Z</time></trkpt>
<trkpt lat="49.674144" lon="5.337381"><ele>337.05</ele><time>2025-05-26T03:23:59Z</time></trkpt>
<trkpt lat="49.674137" lon="5.338178"><ele>340.05</ele><time>2025-05-26T03:24:03Z</time></trkpt>
<trkpt lat="49.674163" lon="5.338548"><ele>340.01</ele><time>2025-05-26T03:24:07Z</time></trkpt>
<trkpt lat="49.67436" lon="5.339487"><ele>339.89</ele><time>2025-05-26T03:24:11Z</time></trkpt>
<trkpt lat="49.674399" lon="5.339773"><ele>339.04</ele><time>2025-05-26T03:24:14Z</time></trkpt>
<trkpt lat="49.674395" lon="5.339867"><ele>338.84</ele><time>2025-05-26T03:24:18Z</time></trkpt>
<trkpt lat="49.674375" lon="5.339914"><ele>338.9</ele><time>2025-05-26T03:24:22Z</time></trkpt>
<trkpt lat="49.674478" lon="5.340011"><ele>337.98</ele><time>2025-05-26T03:24:22Z</time></trkpt>
<trkpt lat="49.674588" lon="5.340081"><ele>337.55</ele><time>2025-05-26T03:24:23Z</time></trkpt>
<trkpt lat="49.674591" lon="5.340173"><ele>337.01</ele><time>2025-05-26T03:24:27Z</time></trkpt>
<trkpt lat="49.674627" lon="5.340312"><ele>335.95</ele><time>2025-05-26T03:24:31Z</time></trkpt>
<trkpt lat="49.676354" lon="5.34379"><ele>346.47</ele><time>2025-05-26T03:24:35Z</time></trkpt>
<trkpt lat="49.676488" lon="5.344164"><ele>351.12</ele><time>2025-05-26T03:24:40Z</time></trkpt>
<trkpt lat="49.67683" lon="5.345417"><ele>350.44</ele><time>2025-05-26T03:24:44Z</time></trkpt>
<trkpt lat="49.67698" lon="5.345791"><ele>349.1</ele><time>2025-05-26T03:24:48Z</time></trkpt>
<trkpt lat="49.677699" lon="5.347289"><ele>342.65</ele><time>2025-05-26T03:24:52Z</time></trkpt>
<trkpt lat="49.677844" lon="5.347529"><ele>340.92</ele><time>2025-05-26T03:24:56Z</time></trkpt>
<trkpt lat="49.678217" lon="5.348046"><ele>337.07</ele><time>2025-05-26T03:25:00Z</time></trkpt>
<trkpt lat="49.67833" lon="5.348308"><ele>336.09</ele><time>2025-05-26T03:25:04Z</time></trkpt>
<trkpt lat="49.678846" lon="5.34975"><ele>331.45</ele><time>2025-05-26T03:25:08Z</time></trkpt>
<trkpt lat="49.679314" lon="5.351277"><ele>330.07</ele><time>2025-05-26T03:25:13Z</time></trkpt>
<trkpt lat="49.680246" lon="5.355067"><ele>341.8</ele><time>2025-05-26T03:25:17Z</time></trkpt>
<trkpt lat="49.680414" lon="5.355564"><ele>343.5</ele><time>2025-05-26T03:25:21Z</time></trkpt>
<trkpt lat="49.680952" lon="5.356948"><ele>347.44</ele><time>2025-05-26T03:25:25Z</time></trkpt>
<trkpt lat="49.681311" lon="5.357526"><ele>349.28</ele><time>2025-05-26T03:25:29Z</time></trkpt>
<trkpt lat="49.681527" lon="5.357968"><ele>349.0</ele><time>2025-05-26T03:25:33Z</time></trkpt>
<trkpt lat="49.682207" lon="5.360108"><ele>356.49</ele><time>2025-05-26T03:25:37Z</time></trkpt>
<trkpt lat="49.682275" lon="5.360273"><ele>356.6</ele><time>2025-05-26T03:25:41Z</time></trkpt>
<trkpt lat="49.681315" lon="5.361309"><ele>354.73</ele><time>2025-05-26T03:26:03Z</time></trkpt>
<trkpt lat="49.680277" lon="5.362477"><ele>355.0</ele><time>2025-05-26T03:26:25Z</time></trkpt>
<trkpt lat="49.683242" lon="5.366124"><ele>339.34</ele><time>2025-05-26T03:26:48Z</time></trkpt>
<trkpt lat="49.683429" lon="5.366335"><ele>338.65</ele><time>2025-05-26T03:27:11Z</time></trkpt>
<trkpt lat="49.683107" lon="5.366366"><ele>340.56</ele><time>2025-05-26T03:27:14Z</time></trkpt>
<trkpt lat="49.68282" lon="5.36656"><ele>343.55</ele><time>2025-05-26T03:27:17Z</time></trkpt>
<trkpt lat="49.682118" lon="5.367128"><ele>346.47</ele><time>2025-05-26T03:27:21Z</time></trkpt>
<trkpt lat="49.681775" lon="5.367254"><ele>349.15</ele><time>2025-05-26T03:27:24Z</time></trkpt>
<trkpt lat="49.679542" lon="5.367498"><ele>350.36</ele><time>2025-05-26T03:27:27Z</time></trkpt>
<trkpt lat="49.679256" lon="5.367464"><ele>348.35</ele><time>2025-05-26T03:27:30Z</time></trkpt>
<trkpt lat="49.679159" lon="5.367451"><ele>347.44</ele><time>2025-05-26T03:27:34Z</time></trkpt>
<trkpt lat="49.679159" lon="5.367451"><ele>347.44</ele><time>2025-05-26T03:27:34Z</time></trkpt>
<trkpt lat="49.679256" lon="5.367464"><ele>348.35</ele><time>2025-05-26T03:27:37Z</time></trkpt>
<trkpt lat="49.679542" lon="5.367498"><ele>350.36</ele><time>2025-05-26T03:27:40Z</time></trkpt>
<trkpt lat="49.681775" lon="5.367254"><ele>349.15</ele><time>2025-05-26T03:27:43Z</time></trkpt>
<trkpt lat="49.682118" lon="5.367128"><ele>346.47</ele><time>2025-05-26T03:27:46Z</time></trkpt>
<trkpt lat="49.68282" lon="5.36656"><ele>343.55</ele><time>2025-05-26T03:27:50Z</time></trkpt>
<trkpt lat="49.683107" lon="5.366366"><ele>340.56</ele><time>2025-05-26T03:27:53Z</time></trkpt>
<trkpt lat="49.683429" lon="5.366335"><ele>338.65</ele><time>2025-05-26T03:27:56Z</time></trkpt>
<trkpt lat="49.683242" lon="5.366124"><ele>339.34</ele><time>2025-05-26T03:28:27Z</time></trkpt>
<trkpt lat="49.680277" lon="5.362477"><ele>355.0</ele><time>2025-05-26T03:28:57Z</time></trkpt>
<trkpt lat="49.681315" lon="5.361309"><ele>354.73</ele><time>2025-05-26T03:29:12Z</time></trkpt>
<trkpt lat="49.682275" lon="5.360273"><ele>356.6</ele><time>2025-05-26T03:29:26Z</time></trkpt>
<trkpt lat="49.682207" lon="5.360108"><ele>356.49</ele><time>2025-05-26T03:29:30Z</time></trkpt>
<trkpt lat="49.681527" lon="5.357968"><ele>349.0</ele><time>2025-05-26T03:29:34Z</time></trkpt>
<trkpt lat="49.681311" lon="5.357526"><ele>349.28</ele><time>2025-05-26T03:29:38Z</time></trkpt>
<trkpt lat="49.680952" lon="5.356948"><ele>347.44</ele><time>2025-05-26T03:29:42Z</time></trkpt>
<trkpt lat="49.680414" lon="5.355564"><ele>343.5</ele><time>2025-05-26T03:29:46Z</time></trkpt>
<trkpt lat="49.680246" lon="5.355067"><ele>341.8</ele><time>2025-05-26T03:29:50Z</time></trkpt>
<trkpt lat="49.679314" lon="5.351277"><ele>330.07</ele><time>2025-05-26T03:29:54Z</time></trkpt>
<trkpt lat="49.678846" lon="5.34975"><ele>331.45</ele><time>2025-05-26T03:29:59Z</time></trkpt>
<trkpt lat="49.67833" lon="5.348308"><ele>336.09</ele><time>2025-05-26T03:30:03Z</time></trkpt>
<trkpt lat="49.678217" lon="5.348046"><ele>337.07</ele><time>2025-05-26T03:30:07Z</time></trkpt>
<trkpt lat="49.677844" lon="5.347529"><ele>340.92</ele><time>2025-05-26T03:30:11Z</time></trkpt>
<trkpt lat="49.677699" lon="5.347289"><ele>342.65</ele><time>2025-05-26T03:30:15Z</time></trkpt>
<trkpt lat="49.67698" lon="5.345791"><ele>349.1</ele><time>2025-05-26T03:30:19Z</time></trkpt>
<trkpt lat="49.67683" lon="5.345417"><ele>350.44</ele><time>2025-05-26T03:30:23Z</time></trkpt>
<trkpt lat="49.676488" lon="5.344164"><ele>351.12</ele><time>2025-05-26T03:30:27Z</time></trkpt>
<trkpt lat="49.676354" lon="5.34379"><ele>346.47</ele><time>2025-05-26T03:30:32Z</time></trkpt>
<trkpt lat="49.674627" lon="5.340312"><ele>335.95</ele><time>2025-05-26T03:30:36Z</time></trkpt>
<trkpt lat="49.674591" lon="5.340173"><ele>337.01</ele><time>2025-05-26T03:30:40Z</time></trkpt>
<trkpt lat="49.674588" lon="5.340081"><ele>337.55</ele><time>2025-05-26T03:30:44Z</time></trkpt>
<trkpt lat="49.674478" lon="5.340011"><ele>337.98</ele><time>2025-05-26T03:30:50Z</time></trkpt>
<trkpt lat="49.674375" lon="5.339914"><ele>338.9</ele><time>2025-05-26T03:30:56Z</time></trkpt>
<trkpt lat="49.672385" lon="5.337866"><ele>347.14</ele><time>2025-05-26T03:31:02Z</time></trkpt>
<trkpt lat="49.672051" lon="5.33744"><ele>347.27</ele><time>2025-05-26T03:31:08Z</time></trkpt>
<trkpt lat="49.67077" lon="5.335667"><ele>341.9</ele><time>2025-05-26T03:31:14Z</time></trkpt>
<trkpt lat="49.669939" lon="5.334564"><ele>338.11</ele><time>2025-05-26T03:31:20Z</time></trkpt>
<trkpt lat="49.668165" lon="5.332059"><ele>350.98</ele><time>2025-05-26T03:31:26Z</time></trkpt>
<trkpt lat="49.667839" lon="5.331777"><ele>348.66</ele><time>2025-05-26T03:31:32Z</time></trkpt>
<trkpt lat="49.667172" lon="5.331403"><ele>341.16</ele><time>2025-05-26T03:31:38Z</time></trkpt>
<trkpt lat="49.66664" lon="5.331133"><ele>333.8</ele><time>2025-05-26T03:31:44Z</time></trkpt>
<trkpt lat="49.665411" lon="5.33042"><ele>327.74</ele><time>2025-05-26T03:31:50Z</time></trkpt>
<trkpt lat="49.665158" lon="5.330322"><ele>326.66</ele><time>2025-05-26T03:31:56Z</time></trkpt>
<trkpt lat="49.664989" lon="5.330286"><ele>325.84</ele><time>2025-05-26T03:32:02Z</time></trkpt>
<trkpt lat="49.664787" lon="5.330291"><ele>322.93</ele><time>2025-05-26T03:32:08Z</time></trkpt>
<trkpt lat="49.664475" lon="5.33041"><ele>322.0</ele><time>2025-05-26T03:32:14Z</time></trkpt>
<trkpt lat="49.663116" lon="5.331134"><ele>318.85</ele><time>2025-05-26T03:32:19Z</time></trkpt>
<trkpt lat="49.660367" lon="5.332668"><ele>309.2</ele><time>2025-05-26T03:32:25Z</time></trkpt>
<trkpt lat="49.658476" lon="5.333683"><ele>299.0</ele><time>2025-05-26T03:32:31Z</time></trkpt>
<trkpt lat="49.657887" lon="5.334047"><ele>298.17</ele><time>2025-05-26T03:32:37Z</time></trkpt>
<trkpt lat="49.653434" lon="5.337049"><ele>286.85</ele><time>2025-05-26T03:32:43Z</time></trkpt>
<trkpt lat="49.652807" lon="5.33743"><ele>284.32</ele><time>2025-05-26T03:32:49Z</time></trkpt>
<trkpt lat="49.651923" lon="5.337878"><ele>286.7</ele><time>2025-05-26T03:32:55Z</time></trkpt>
<trkpt lat="49.651494" lon="5.338071"><ele>287.36</ele><time>2025-05-26T03:33:01Z</time></trkpt>
<trkpt lat="49.651102" lon="5.338213"><ele>286.43</ele><time>2025-05-26T03:33:07Z</time></trkpt>
<trkpt lat="49.649206" lon="5.338779"><ele>278.29</ele><time>2025-05-26T03:33:13Z</time></trkpt>
<trkpt lat="49.648772" lon="5.338949"><ele>277.39</ele><time>2025-05-26T03:33:19Z</time></trkpt>
<trkpt lat="49.647984" lon="5.339396"><ele>274.66</ele><time>2025-05-26T03:33:25Z</time></trkpt>
<trkpt lat="49.647733" lon="5.339565"><ele>272.98</ele><time>2025-05-26T03:33:31Z</time></trkpt>
<trkpt lat="49.64618" lon="5.340953"><ele>266.94</ele><time>2025-05-26T03:33:37Z</time></trkpt>
<trkpt lat="49.645893" lon="5.341189"><ele>264.76</ele><time>2025-05-26T03:33:43Z</time></trkpt>
<trkpt lat="49.645238" lon="5.341607"><ele>261.04</ele><time>2025-05-26T03:33:49Z</time></trkpt>
<trkpt lat="49.641645" lon="5.343623"><ele>247.88</ele><time>2025-05-26T03:33:55Z</time></trkpt>
<trkpt lat="49.64118" lon="5.343902"><ele>245.58</ele><time>2025-05-26T03:34:01Z</time></trkpt>
<trkpt lat="49.640195" lon="5.344436"><ele>240.99</ele><time>2025-05-26T03:34:07Z</time></trkpt>
<trkpt lat="49.639873" lon="5.344572"><ele>239.68</ele><time>2025-05-26T03:34:13Z</time></trkpt>
<trkpt lat="49.639151" lon="5.344771"><ele>234.54</ele><time>2025-05-26T03:34:19Z</time></trkpt>
<trkpt lat="49.638797" lon="5.344819"><ele>232.31</ele><time>2025-05-26T03:34:25Z</time></trkpt>
<trkpt lat="49.636356" lon="5.345039"><ele>225.52</ele><time>2025-05-26T03:34:31Z</time></trkpt>
<trkpt lat="49.634982" lon="5.345174"><ele>213.68</ele><time>2025-05-26T03:34:37Z</time></trkpt>
<trkpt lat="49.634812" lon="5.34521"><ele>212.23</ele><time>2025-05-26T03:34:43Z</time></trkpt>
<trkpt lat="49.63454" lon="5.345339"><ele>210.32</ele><time>2025-05-26T03:34:49Z</time></trkpt>
<trkpt lat="49.634411" lon="5.345457"><ele>209.13</ele><time>2025-05-26T03:34:55Z</time></trkpt>
<trkpt lat="49.634347" lon="5.345529"><ele>208.21</ele><time>2025-05-26T03:35:01Z</time></trkpt>
<trkpt lat="49.63452" lon="5.345771"><ele>210.52</ele><time>2025-05-26T03:35:02Z</time></trkpt>
<trkpt lat="49.634589" lon="5.345825"><ele>213.08</ele><time>2025-05-26T03:35:04Z</time></trkpt>
<trkpt lat="49.634589" lon="5.345825"><ele>213.08</ele><time>2025-05-26T03:35:04Z</time></trkpt>
<trkpt lat="49.634521" lon="5.345661"><ele>210.83</ele><time>2025-05-26T03:35:05Z</time></trkpt>
<trkpt lat="49.634502" lon="5.345462"><ele>210.41</ele><time>2025-05-26T03:35:06Z</time></trkpt>
<trkpt lat="49.634479" lon="5.345397"><ele>209.85</ele><time>2025-05-26T03:35:07Z</time></trkpt>
<trkpt lat="49.63454" lon="5.345339"><ele>210.32</ele><time>2025-05-26T03:35:13Z</time></trkpt>
<trkpt lat="49.634718" lon="5.34524"><ele>211.55</ele><time>2025-05-26T03:35:19Z</time></trkpt>
<trkpt lat="49.634982" lon="5.345174"><ele>213.68</ele><time>2025-05-26T03:35:26Z</time></trkpt>
<trkpt lat="49.636356" lon="5.345039"><ele>225.52</ele><time>2025-05-26T03:35:32Z</time></trkpt>
<trkpt lat="49.638797" lon="5.344819"><ele>232.31</ele><time>2025-05-26T03:35:38Z</time></trkpt>
<trkpt lat="49.639151" lon="5.344771"><ele>234.54</ele><time>2025-05-26T03:35:44Z</time></trkpt>
<trkpt lat="49.639873" lon="5.344572"><ele>239.68</ele><time>2025-05-26T03:35:50Z</time></trkpt>
<trkpt lat="49.640195" lon="5.344436"><ele>240.99</ele><time>2025-05-26T03:35:56Z</time></trkpt>
<trkpt lat="49.64118" lon="5.343902"><ele>245.58</ele><time>2025-05-26T03:36:02Z</time></trkpt>
<trkpt lat="49.641645" lon="5.343623"><ele>247.88</ele><time>2025-05-26T03:36:08Z</time></trkpt>
<trkpt lat="49.645238" lon="5.341607"><ele>261.04</ele><time>2025-05-26T03:36:14Z</time></trkpt>
<trkpt lat="49.645893" lon="5.341189"><ele>264.76</ele><time>2025-05-26T03:36:20Z</time></trkpt>
<trkpt lat="49.64618" lon="5.340953"><ele>266.94</ele><time>2025-05-26T03:36:26Z</time></trkpt>
<trkpt lat="49.647733" lon="5.339565"><ele>272.98</ele><time>2025-05-26T03:36:33Z</time></trkpt>
<trkpt lat="49.647984" lon="5.339396"><ele>274.66</ele><time>2025-05-26T03:36:39Z</time></trkpt>
<trkpt lat="49.648772" lon="5.338949"><ele>277.39</ele><time>2025-05-26T03:36:45Z</time></trkpt>
<trkpt lat="49.649206" lon="5.338779"><ele>278.29</ele><time>2025-05-26T03:36:51Z</time></trkpt>
<trkpt lat="49.651102" lon="5.338213"><ele>286.43</ele><time>2025-05-26T03:36:57Z</time></trkpt>
<trkpt lat="49.651494" lon="5.338071"><ele>287.36</ele><time>2025-05-26T03:37:03Z</time></trkpt>
<trkpt lat="49.651923" lon="5.337878"><ele>286.7</ele><time>2025-05-26T03:37:09Z</time></trkpt>
<trkpt lat="49.652807" lon="5.33743"><ele>284.32</ele><time>2025-05-26T03:37:15Z</time></trkpt>
<trkpt lat="49.653434" lon="5.337049"><ele>286.85</ele><time>2025-05-26T03:37:21Z</time></trkpt>
<trkpt lat="49.657887" lon="5.334047"><ele>298.17</ele><time>2025-05-26T03:37:27Z</time></trkpt>
<trkpt lat="49.658476" lon="5.333683"><ele>299.0</ele><time>2025-05-26T03:37:33Z</time></trkpt>
<trkpt lat="49.660367" lon="5.332668"><ele>309.2</ele><time>2025-05-26T03:37:39Z</time></trkpt>
<trkpt lat="49.663116" lon="5.331134"><ele>318.85</ele><time>2025-05-26T03:37:46Z</time></trkpt>
<trkpt lat="49.664475" lon="5.33041"><ele>322.0</ele><time>2025-05-26T03:37:52Z</time></trkpt>
<trkpt lat="49.664787" lon="5.330291"><ele>322.93</ele><time>2025-05-26T03:37:58Z</time></trkpt>
<trkpt lat="49.664989" lon="5.330286"><ele>325.84</ele><time>2025-05-26T03:38:04Z</time></trkpt>
<trkpt lat="49.665158" lon="5.330322"><ele>326.66</ele><time>2025-05-26T03:38:10Z</time></trkpt>
<trkpt lat="49.665411" lon="5.33042"><ele>327.74</ele><time>2025-05-26T03:38:16Z</time></trkpt>
<trkpt lat="49.66664" lon="5.331133"><ele>333.8</ele><time>2025-05-26T03:38:22Z</time></trkpt>
<trkpt lat="49.667172" lon="5.331403"><ele>341.16</ele><time>2025-05-26T03:38:28Z</time></trkpt>
<trkpt lat="49.667839" lon="5.331777"><ele>348.66</ele><time>2025-05-26T03:38:34Z</time></trkpt>
<trkpt lat="49.668165" lon="5.332059"><ele>350.98</ele><time>2025-05-26T03:38:40Z</time></trkpt>
<trkpt lat="49.669939" lon="5.334564"><ele>338.11</ele><time>2025-05-26T03:38:46Z</time></trkpt>
<trkpt lat="49.67077" lon="5.335667"><ele>341.9</ele><time>2025-05-26T03:38:53Z</time></trkpt>
<trkpt lat="49.672051" lon="5.33744"><ele>347.27</ele><time>2025-05-26T03:38:59Z</time></trkpt>
<trkpt lat="49.672385" lon="5.337866"><ele>347.14</ele><time>2025-05-26T03:39:05Z</time></trkpt>
<trkpt lat="49.674375" lon="5.339914"><ele>338.9</ele><time>2025-05-26T03:39:11Z</time></trkpt>
<trkpt lat="49.674478" lon="5.340011"><ele>337.98</ele><time>2025-05-26T03:39:17Z</time></trkpt>
<trkpt lat="49.674588" lon="5.340081"><ele>337.55</ele><time>2025-05-26T03:39:23Z</time></trkpt>
<trkpt lat="49.674591" lon="5.340173"><ele>337.01</ele><time>2025-05-26T03:39:27Z</time></trkpt>
<trkpt lat="49.674627" lon="5.340312"><ele>335.95</ele><time>2025-05-26T03:39:31Z</time></trkpt>
<trkpt lat="49.676354" lon="5.34379"><ele>346.47</ele><time>2025-05-26T03:39:35Z</time></trkpt>
<trkpt lat="49.676488" lon="5.344164"><ele>351.12</ele><time>2025-05-26T03:39:39Z</time></trkpt>
<trkpt lat="49.67683" lon="5.345417"><ele>350.44</ele><time>2025-05-26T03:39:44Z</time></trkpt>
<trkpt lat="49.67698" lon="5.345791"><ele>349.1</ele><time>2025-05-26T03:39:48Z</time></trkpt>
<trkpt lat="49.677699" lon="5.347289"><ele>342.65</ele><time>2025-05-26T03:39:52Z</time></trkpt>
<trkpt lat="49.677844" lon="5.347529"><ele>340.92</ele><time>2025-05-26T03:39:56Z</time></trkpt>
<trkpt lat="49.678217" lon="5.348046"><ele>337.07</ele><time>2025-05-26T03:40:00Z</time></trkpt>
<trkpt lat="49.67833" lon="5.348308"><ele>336.09</ele><time>2025-05-26T03:40:04Z</time></trkpt>
<trkpt lat="49.678846" lon="5.34975"><ele>331.45</ele><time>2025-05-26T03:40:08Z</time></trkpt>
<trkpt lat="49.679314" lon="5.351277"><ele>330.07</ele><time>2025-05-26T03:40:12Z</time></trkpt>
<trkpt lat="49.680246" lon="5.355067"><ele>341.8</ele><time>2025-05-26T03:40:17Z</time></trkpt>
<trkpt lat="49.680414" lon="5.355564"><ele>343.5</ele><time>2025-05-26T03:40:21Z</time></trkpt>
<trkpt lat="49.680952" lon="5.356948"><ele>347.44</ele><time>2025-05-26T03:40:25Z</time></trkpt>
<trkpt lat="49.681311" lon="5.357526"><ele>349.28</ele><time>2025-05-26T03:40:29Z</time></trkpt>
<trkpt lat="49.681527" lon="5.357968"><ele>349.0</ele><time>2025-05-26T03:40:33Z</time></trkpt>
<trkpt lat="49.682207" lon="5.360108"><ele>356.49</ele><time>2025-05-26T03:40:37Z</time></trkpt>
<trkpt lat="49.682275" lon="5.360273"><ele>356.6</ele><time>2025-05-26T03:40:41Z</time></trkpt>
<trkpt lat="49.681315" lon="5.361309"><ele>354.73</ele><time>2025-05-26T03:41:03Z</time></trkpt>
<trkpt lat="49.680277" lon="5.362477"><ele>355.0</ele><time>2025-05-26T03:41:25Z</time></trkpt>
<trkpt lat="49.678533" lon="5.360598"><ele>355.0</ele><time>2025-05-26T03:41:37Z</time></trkpt>
<trkpt lat="49.67826" lon="5.360252"><ele>357.01</ele><time>2025-05-26T03:41:50Z</time></trkpt>
<trkpt lat="49.677968" lon="5.35979"><ele>353.89</ele><time>2025-05-26T03:42:02Z</time></trkpt>
<trkpt lat="49.676715" lon="5.357568"><ele>350.76</ele><time>2025-05-26T03:42:15Z</time></trkpt>
<trkpt lat="49.676263" lon="5.35701"><ele>349.58</ele><time>2025-05-26T03:42:28Z</time></trkpt>
<trkpt lat="49.674773" lon="5.355996"><ele>349.83</ele><time>2025-05-26T03:42:40Z</time></trkpt>
<trkpt lat="49.674529" lon="5.355867"><ele>352.77</ele><time>2025-05-26T03:42:53Z</time></trkpt>
<trkpt lat="49.674059" lon="5.355671"><ele>355.36</ele><time>2025-05-26T03:43:06Z</time></trkpt>
<trkpt lat="49.673595" lon="5.355411"><ele>352.75</ele><time>2025-05-26T03:43:18Z</time></trkpt>
<trkpt lat="49.673489" lon="5.355569"><ele>349.75</ele><time>2025-05-26T03:43:33Z</time></trkpt>
<trkpt lat="49.673341" lon="5.355649"><ele>347.12</ele><time>2025-05-26T03:43:47Z</time></trkpt>
<trkpt lat="49.673197" lon="5.355671"><ele>346.8</ele><time>2025-05-26T03:44:01Z</time></trkpt>
<trkpt lat="49.672419" lon="5.355663"><ele>339.15</ele><time>2025-05-26T03:44:15Z</time></trkpt>
<trkpt lat="49.672181" lon="5.355637"><ele>335.45</ele><time>2025-05-26T03:44:29Z</time></trkpt>
<trkpt lat="49.671982" lon="5.355561"><ele>334.26</ele><time>2025-05-26T03:44:43Z</time></trkpt>
<trkpt lat="49.671851" lon="5.355447"><ele>334.2</ele><time>2025-05-26T03:44:58Z</time></trkpt>
<trkpt lat="49.671624" lon="5.354979"><ele>331.34</ele><time>2025-05-26T03:45:12Z</time></trkpt>
<trkpt lat="49.671553" lon="5.354899"><ele>329.98</ele><time>2025-05-26T03:45:26Z</time></trkpt>
<trkpt lat="49.671335" lon="5.354872"><ele>327.66</ele><time>2025-05-26T03:45:40Z</time></trkpt>
<trkpt lat="49.671139" lon="5.355087"><ele>324.25</ele><time>2025-05-26T03:45:54Z</time></trkpt>
<trkpt lat="49.670995" lon="5.355202"><ele>320.77</ele><time>2025-05-26T03:46:08Z</time></trkpt>
<trkpt lat="49.670848" lon="5.355406"><ele>316.88</ele><time>2025-05-26T03:46:23Z</time></trkpt>
<trkpt lat="49.670747" lon="5.355602"><ele>315.59</ele><time>2025-05-26T03:46:37Z</time></trkpt>
<trkpt lat="49.670166" lon="5.356466"><ele>309.42</ele><time>2025-05-26T03:46:51Z</time></trkpt>
<trkpt lat="49.669983" lon="5.356698"><ele>304.64</ele><time>2025-05-26T03:47:05Z</time></trkpt>
<trkpt lat="49.66966" lon="5.356923"><ele>299.58</ele><time>2025-05-26T03:47:19Z</time></trkpt>
<trkpt lat="49.669381" lon="5.357047"><ele>297.23</ele><time>2025-05-26T03:47:33Z</time></trkpt>
<trkpt lat="49.668577" lon="5.357233"><ele>294.52</ele><time>2025-05-26T03:47:47Z</time></trkpt>
<trkpt lat="49.66824" lon="5.357107"><ele>288.16</ele><time>2025-05-26T03:48:02Z</time></trkpt>
<trkpt lat="49.66823" lon="5.357225"><ele>288.94</ele><time>2025-05-26T03:48:16Z</time></trkpt>
<trkpt lat="49.667716" lon="5.357246"><ele>283.95</ele><time>2025-05-26T03:48:30Z</time></trkpt>
<trkpt lat="49.6671" lon="5.358249"><ele>280.97</ele><time>2025-05-26T03:48:45Z</time></trkpt>
<trkpt lat="49.66638" lon="5.358871"><ele>278.81</ele><time>2025-05-26T03:48:59Z</time></trkpt>
<trkpt lat="49.665876" lon="5.359581"><ele>272.45</ele><time>2025-05-26T03:49:14Z</time></trkpt>
<trkpt lat="49.665639" lon="5.360198"><ele>272.31</ele><time>2025-05-26T03:49:28Z</time></trkpt>
<trkpt lat="49.665416" lon="5.360982"><ele>270.99</ele><time>2025-05-26T03:49:43Z</time></trkpt>
<trkpt lat="49.665335" lon="5.361331"><ele>270.41</ele><time>2025-05-26T03:49:57Z</time></trkpt>
<trkpt lat="49.665283" lon="5.361767"><ele>271.13</ele><time>2025-05-26T03:50:11Z</time></trkpt>
<trkpt lat="49.665283" lon="5.363026"><ele>273.14</ele><time>2025-05-26T03:50:26Z</time></trkpt>
<trkpt lat="49.665258" lon="5.363259"><ele>272.05</ele><time>2025-05-26T03:50:40Z</time></trkpt>
<trkpt lat="49.665204" lon="5.36357"><ele>270.13</ele><time>2025-05-26T03:50:55Z</time></trkpt>
<trkpt lat="49.66501" lon="5.364093"><ele>265.64</ele><time>2025-05-26T03:51:09Z</time></trkpt>
<trkpt lat="49.6643" lon="5.363298"><ele>261.15</ele><time>2025-05-26T03:51:12Z</time></trkpt>
<trkpt lat="49.664168" lon="5.363213"><ele>260.87</ele><time>2025-05-26T03:51:15Z</time></trkpt>
<trkpt lat="49.663915" lon="5.363156"><ele>262.43</ele><time>2025-05-26T03:51:18Z</time></trkpt>
<trkpt lat="49.662946" lon="5.363081"><ele>259.68</ele><time>2025-05-26T03:51:21Z</time></trkpt>
<trkpt lat="49.662658" lon="5.363103"><ele>260.33</ele><time>2025-05-26T03:51:24Z</time></trkpt>
<trkpt lat="49.660431" lon="5.363833"><ele>260.59</ele><time>2025-05-26T03:51:27Z</time></trkpt>
<trkpt lat="49.660185" lon="5.363949"><ele>259.71</ele><time>2025-05-26T03:51:30Z</time></trkpt>
<trkpt lat="49.659874" lon="5.364137"><ele>258.5</ele><time>2025-05-26T03:51:32Z</time></trkpt>
<trkpt lat="49.659275" lon="5.364501"><ele>257.51</ele><time>2025-05-26T03:51:35Z</time></trkpt>
<trkpt lat="49.659187" lon="5.364538"><ele>257.3</ele><time>2025-05-26T03:51:38Z</time></trkpt>
<trkpt lat="49.65907" lon="5.364536"><ele>256.92</ele><time>2025-05-26T03:51:41Z</time></trkpt>
<trkpt lat="49.65907" lon="5.364536"><ele>256.92</ele><time>2025-05-26T03:51:41Z</time></trkpt>
<trkpt lat="49.659187" lon="5.364538"><ele>257.3</ele><time>2025-05-26T03:51:44Z</time></trkpt>
<trkpt lat="49.659275" lon="5.364501"><ele>257.51</ele><time>2025-05-26T03:51:47Z</time></trkpt>
<trkpt lat="49.659874" lon="5.364137"><ele>258.5</ele><time>2025-05-26T03:51:50Z</time></trkpt>
<trkpt lat="49.660185" lon="5.363949"><ele>259.71</ele><time>2025-05-26T03:51:53Z</time></trkpt>
<trkpt lat="49.660431" lon="5.363833"><ele>260.59</ele><time>2025-05-26T03:51:56Z</time></trkpt>
<trkpt lat="49.662658" lon="5.363103"><ele>260.33</ele><time>2025-05-26T03:51:59Z</time></trkpt>
<trkpt lat="49.662946" lon="5.363081"><ele>259.68</ele><time>2025-05-26T03:52:02Z</time></trkpt>
<trkpt lat="49.663915" lon="5.363156"><ele>262.43</ele><time>2025-05-26T03:52:04Z</time></trkpt>
<trkpt lat="49.664168" lon="5.363213"><ele>260.87</ele><time>2025-05-26T03:52:07Z</time></trkpt>
<trkpt lat="49.6643" lon="5.363298"><ele>261.15</ele><time>2025-05-26T03:52:10Z</time></trkpt>
<trkpt lat="49.66501" lon="5.364093"><ele>265.64</ele><time>2025-05-26T03:52:13Z</time></trkpt>
<trkpt lat="49.665204" lon="5.36357"><ele>270.13</ele><time>2025-05-26T03:52:30Z</time></trkpt>
<trkpt lat="49.665258" lon="5.363259"><ele>272.05</ele><time>2025-05-26T03:52:47Z</time></trkpt>
<trkpt lat="49.665283" lon="5.363026"><ele>273.14</ele><time>2025-05-26T03:53:03Z</time></trkpt>
<trkpt lat="49.665283" lon="5.361767"><ele>271.13</ele><time>2025-05-26T03:53:20Z</time></trkpt>
<trkpt lat="49.665335" lon="5.361331"><ele>270.41</ele><time>2025-05-26T03:53:37Z</time></trkpt>
<trkpt lat="49.665416" lon="5.360982"><ele>270.99</ele><time>2025-05-26T03:53:54Z</time></trkpt>
<trkpt lat="49.665639" lon="5.360198"><ele>272.31</ele><time>2025-05-26T03:54:10Z</time></trkpt>
<trkpt lat="49.665876" lon="5.359581"><ele>272.45</ele><time>2025-05-26T03:54:27Z</time></trkpt>
<trkpt lat="49.66638" lon="5.358871"><ele>278.81</ele><time>2025-05-26T03:54:44Z</time></trkpt>
<trkpt lat="49.6671" lon="5.358249"><ele>280.97</ele><time>2025-05-26T03:55:01Z</time></trkpt>
<trkpt lat="49.667716" lon="5.357246"><ele>283.95</ele><time>2025-05-26T03:55:17Z</time></trkpt>
<trkpt lat="49.66823" lon="5.357225"><ele>288.94</ele><time>2025-05-26T03:55:34Z</time></trkpt>
<trkpt lat="49.66824" lon="5.357107"><ele>288.16</ele><time>2025-05-26T03:55:51Z</time></trkpt>
<trkpt lat="49.668577" lon="5.357233"><ele>294.52</ele><time>2025-05-26T03:56:05Z</time></trkpt>
<trkpt lat="49.669381" lon="5.357047"><ele>297.23</ele><time>2025-05-26T03:56:19Z</time></trkpt>
<trkpt lat="49.66966" lon="5.356923"><ele>299.58</ele><time>2025-05-26T03:56:33Z</time></trkpt>
<trkpt lat="49.669983" lon="5.356698"><ele>304.64</ele><time>2025-05-26T03:56:47Z</time></trkpt>
<trkpt lat="49.670166" lon="5.356466"><ele>309.42</ele><time>2025-05-26T03:57:02Z</time></trkpt>
<trkpt lat="49.670747" lon="5.355602"><ele>315.59</ele><time>2025-05-26T03:57:16Z</time></trkpt>
<trkpt lat="49.670848" lon="5.355406"><ele>316.88</ele><time>2025-05-26T03:57:30Z</time></trkpt>
<trkpt lat="49.670995" lon="5.355202"><ele>320.77</ele><time>2025-05-26T03:57:44Z</time></trkpt>
<trkpt lat="49.671139" lon="5.355087"><ele>324.25</ele><time>2025-05-26T03:57:58Z</time></trkpt>
<trkpt lat="49.671335" lon="5.354872"><ele>327.66</ele><time>2025-05-26T03:58:12Z</time></trkpt>
<trkpt lat="49.671553" lon="5.354899"><ele>329.98</ele><time>2025-05-26T03:58:27Z</time></trkpt>
<trkpt lat="49.671624" lon="5.354979"><ele>331.34</ele><time>2025-05-26T03:58:41Z</time></trkpt>
<trkpt lat="49.671851" lon="5.355447"><ele>334.2</ele><time>2025-05-26T03:58:55Z</time></trkpt>
<trkpt lat="49.671982" lon="5.355561"><ele>334.26</ele><time>2025-05-26T03:59:09Z</time></trkpt>
<trkpt lat="49.672181" lon="5.355637"><ele>335.45</ele><time>2025-05-26T03:59:23Z</time></trkpt>
<trkpt lat="49.672419" lon="5.355663"><ele>339.15</ele><time>2025-05-26T03:59:37Z</time></trkpt>
<trkpt lat="49.673197" lon="5.355671"><ele>346.8</ele><time>2025-05-26T03:59:51Z</time></trkpt>
<trkpt lat="49.673341" lon="5.355649"><ele>347.12</ele><time>2025-05-26T04:00:06Z</time></trkpt>
<trkpt lat="49.673489" lon="5.355569"><ele>349.75</ele><time>2025-05-26T04:00:20Z</time></trkpt>
<trkpt lat="49.673595" lon="5.355411"><ele>352.75</ele><time>2025-05-26T04:00:34Z</time></trkpt>
<trkpt lat="49.674059" lon="5.355671"><ele>355.36</ele><time>2025-05-26T04:00:47Z</time></trkpt>
<trkpt lat="49.674529" lon="5.355867"><ele>352.77</ele><time>2025-05-26T04:00:59Z</time></trkpt>
<trkpt lat="49.674773" lon="5.355996"><ele>349.83</ele><time>2025-05-26T04:01:12Z</time></trkpt>
<trkpt lat="49.676263" lon="5.35701"><ele>349.58</ele><time>2025-05-26T04:01:25Z</time></trkpt>
<trkpt lat="49.676715" lon="5.357568"><ele>350.76</ele><time>2025-05-26T04:01:37Z</time></trkpt>
<trkpt lat="49.677968" lon="5.35979"><ele>353.89</ele><time>2025-05-26T04:01:50Z</time></trkpt>
<trkpt lat="49.67826" lon="5.360252"><ele>357.01</ele><time>2025-05-26T04:02:02Z</time></trkpt>
<trkpt lat="49.678533" lon="5.360598"><ele>355.0</ele><time>2025-05-26T04:02:15Z</time></trkpt>
<trkpt lat="49.680277" lon="5.362477"><ele>355.0</ele><time>2025-05-26T04:02:28Z</time></trkpt>
<trkpt lat="49.681315" lon="5.361309"><ele>354.73</ele><time>2025-05-26T04:02:42Z</time></trkpt>
<trkpt lat="49.682275" lon="5.360273"><ele>356.6</ele><time>2025-05-26T04:02:56Z</time></trkpt>
<trkpt lat="49.682207" lon="5.360108"><ele>356.49</ele><time>2025-05-26T04:02:58Z</time></trkpt>
<trkpt lat="49.681901" lon="5.359145"><ele>352.75</ele><time>2025-05-26T04:03:00Z</time></trkpt>
<trkpt lat="49.681901" lon="5.359145"><ele>352.75</ele><time>2025-05-26T04:03:00Z</time></trkpt>
<trkpt lat="49.682207" lon="5.360108"><ele>356.49</ele><time>2025-05-26T04:03:02Z</time></trkpt>
<trkpt lat="49.682275" lon="5.360273"><ele>356.6</ele><time>2025-05-26T04:03:04Z</time></trkpt>
<trkpt lat="49.681315" lon="5.361309"><ele>354.73</ele><time>2025-05-26T04:03:26Z</time></trkpt>
<trkpt lat="49.680277" lon="5.362477"><ele>355.0</ele><time>2025-05-26T04:03:48Z</time></trkpt>
<trkpt lat="49.678533" lon="5.360598"><ele>355.0</ele><time>2025-05-26T04:04:00Z</time></trkpt>
<trkpt lat="49.67826" lon="5.360252"><ele>357.01</ele><time>2025-05-26T04:04:13Z</time></trkpt>
<trkpt lat="49.677968" lon="5.35979"><ele>353.89</ele><time>2025-05-26T04:04:26Z</time></trkpt>
<trkpt lat="49.676715" lon="5.357568"><ele>350.76</ele><time>2025-05-26T04:04:38Z</time></trkpt>
<trkpt lat="49.676263" lon="5.35701"><ele>349.58</ele><time>2025-05-26T04:04:51Z</time></trkpt>
<trkpt lat="49.674773" lon="5.355996"><ele>349.83</ele><time>2025-05-26T04:05:04Z</time></trkpt>
<trkpt lat="49.674529" lon="5.355867"><ele>352.77</ele><time>2025-05-26T04:05:16Z</time></trkpt>
<trkpt lat="49.674059" lon="5.355671"><ele>355.36</ele><time>2025-05-26T04:05:29Z</time></trkpt>
<trkpt lat="49.673595" lon="5.355411"><ele>352.75</ele><time>2025-05-26T04:05:42Z</time></trkpt>
<trkpt lat="49.673489" lon="5.355569"><ele>349.75</ele><time>2025-05-26T04:05:56Z</time></trkpt>
<trkpt lat="49.673341" lon="5.355649"><ele>347.12</ele><time>2025-05-26T04:06:10Z</time></trkpt>
<trkpt lat="49.673197" lon="5.355671"><ele>346.8</ele><time>2025-05-26T04:06:24Z</time></trkpt>
<trkpt lat="49.672419" lon="5.355663"><ele>339.15</ele><time>2025-05-26T04:06:38Z</time></trkpt>
<trkpt lat="49.672181" lon="5.355637"><ele>335.45</ele><time>2025-05-26T04:06:52Z</time></trkpt>
<trkpt lat="49.671982" lon="5.355561"><ele>334.26</ele><time>2025-05-26T04:07:07Z</time></trkpt>
<trkpt lat="49.671851" lon="5.355447"><ele>334.2</ele><time>2025-05-26T04:07:21Z</time></trkpt>
<trkpt lat="49.671624" lon="5.354979"><ele>331.34</ele><time>2025-05-26T04:07:35Z</time></trkpt>
<trkpt lat="49.671553" lon="5.354899"><ele>329.98</ele><time>2025-05-26T04:07:49Z</time></trkpt>
<trkpt lat="49.671335" lon="5.354872"><ele>327.66</ele><time>2025-05-26T04:08:03Z</time></trkpt>
<trkpt lat="49.671139" lon="5.355087"><ele>324.25</ele><time>2025-05-26T04:08:17Z</time></trkpt>
<trkpt lat="49.670995" lon="5.355202"><ele>320.77</ele><time>2025-05-26T04:08:32Z</time></trkpt>
<trkpt lat="49.670848" lon="5.355406"><ele>316.88</ele><time>2025-05-26T04:08:46Z</time></trkpt>
<trkpt lat="49.670747" lon="5.355602"><ele>315.59</ele><time>2025-05-26T04:09:00Z</time></trkpt>
<trkpt lat="49.670166" lon="5.356466"><ele>309.42</ele><time>2025-05-26T04:09:14Z</time></trkpt>
<trkpt lat="49.669983" lon="5.356698"><ele>304.64</ele><time>2025-05-26T04:09:28Z</time></trkpt>
<trkpt lat="49.66966" lon="5.356923"><ele>299.58</ele><time>2025-05-26T04:09:42Z</time></trkpt>
<trkpt lat="49.669381" lon="5.357047"><ele>297.23</ele><time>2025-05-26T04:09:56Z</time></trkpt>
<trkpt lat="49.668577" lon="5.357233"><ele>294.52</ele><time>2025-05-26T04:10:11Z</time></trkpt>
<trkpt lat="49.66824" lon="5.357107"><ele>288.16</ele><time>2025-05-26T04:10:25Z</time></trkpt>
<trkpt lat="49.66823" lon="5.357225"><ele>288.94</ele><time>2025-05-26T04:10:39Z</time></trkpt>
<trkpt lat="49.667716" lon="5.357246"><ele>283.95</ele><time>2025-05-26T04:10:54Z</time></trkpt>
<trkpt lat="49.6671" lon="5.358249"><ele>280.97</ele><time>2025-05-26T04:11:08Z</time></trkpt>
<trkpt lat="49.66638" lon="5.358871"><ele>278.81</ele><time>2025-05-26T04:11:22Z</time></trkpt>
<trkpt lat="49.665876" lon="5.359581"><ele>272.45</ele><time>2025-05-26T04:11:37Z</time></trkpt>
<trkpt lat="49.665639" lon="5.360198"><ele>272.31</ele><time>2025-05-26T04:11:51Z</time></trkpt>
<trkpt lat="49.665416" lon="5.360982"><ele>270.99</ele><time>2025-05-26T04:12:06Z</time></trkpt>
<trkpt lat="49.665335" lon="5.361331"><ele>270.41</ele><time>2025-05-26T04:12:20Z</time></trkpt>
<trkpt lat="49.665283" lon="5.361767"><ele>271.13</ele><time>2025-05-26T04:12:35Z</time></trkpt>
<trkpt lat="49.665283" lon="5.363026"><ele>273.14</ele><time>2025-05-26T04:12:49Z</time></trkpt>
<trkpt lat="49.665258" lon="5.363259"><ele>272.05</ele><time>2025-05-26T04:13:03Z</time></trkpt>
<trkpt lat="49.665204" lon="5.36357"><ele>270.13</ele><time>2025-05-26T04:13:18Z</time></trkpt>
<trkpt lat="49.66501" lon="5.364093"><ele>265.64</ele><time>2025-05-26T04:13:32Z</time></trkpt>
<trkpt lat="49.6643" lon="5.363298"><ele>261.15</ele><time>2025-05-26T04:13:35Z</time></trkpt>
<trkpt lat="49.664168" lon="5.363213"><ele>260.87</ele><time>2025-05-26T04:13:38Z</time></trkpt>
<trkpt lat="49.663915" lon="5.363156"><ele>262.43</ele><time>2025-05-26T04:13:41Z</time></trkpt>
<trkpt lat="49.662946" lon="5.363081"><ele>259.68</ele><time>2025-05-26T04:13:44Z</time></trkpt>
<trkpt lat="49.662658" lon="5.363103"><ele>260.33</ele><time>2025-05-26T04:13:47Z</time></trkpt>
<trkpt lat="49.660431" lon="5.363833"><ele>260.59</ele><time>2025-05-26T04:13:50Z</time></trkpt>
<trkpt lat="49.660185" lon="5.363949"><ele>259.71</ele><time>2025-05-26T04:13:53Z</time></trkpt>
<trkpt lat="49.659874" lon="5.364137"><ele>258.5</ele><time>2025-05-26T04:13:56Z</time></trkpt>
<trkpt lat="49.659275" lon="5.364501"><ele>257.51</ele><time>2025-05-26T04:13:59Z</time></trkpt>
<trkpt lat="49.659187" lon="5.364538"><ele>257.3</ele><time>2025-05-26T04:14:01Z</time></trkpt>
<trkpt lat="49.65907" lon="5.364536"><ele>256.92</ele><time>2025-05-26T04:14:04Z</time></trkpt>
<trkpt lat="49.65907" lon="5.364536"><ele>256.92</ele><time>2025-05-26T04:14:04Z</time></trkpt>
<trkpt lat="49.659187" lon="5.364538"><ele>257.3</ele><time>2025-05-26T04:14:07Z</time></trkpt>
<trkpt lat="49.659275" lon="5.364501"><ele>257.51</ele><time>2025-05-26T04:14:10Z</time></trkpt>
<trkpt lat="49.659874" lon="5.364137"><ele>258.5</ele><time>2025-05-26T04:14:13Z</time></trkpt>
<trkpt lat="49.660185" lon="5.363949"><ele>259.71</ele><time>2025-05-26T04:14:16Z</time></trkpt>
<trkpt lat="49.660431" lon="5.363833"><ele>260.59</ele><time>2025-05-26T04:14:19Z</time></trkpt>
<trkpt lat="49.662658" lon="5.363103"><ele>260.33</ele><time>2025-05-26T04:14:22Z</time></trkpt>
<trkpt lat="49.662946" lon="5.363081"><ele>259.68</ele><time>2025-05-26T04:14:25Z</time></trkpt>
<trkpt lat="49.663915" lon="5.363156"><ele>262.43</ele><time>2025-05-26T04:14:28Z</time></trkpt>
<trkpt lat="49.664168" lon="5.363213"><ele>260.87</ele><time>2025-05-26T04:14:31Z</time></trkpt>
<trkpt lat="49.6643" lon="5.363298"><ele>261.15</ele><time>2025-05-26T04:14:33Z</time></trkpt>
<trkpt lat="49.66501" lon="5.364093"><ele>265.64</ele><time>2025-05-26T04:14:36Z</time></trkpt>
<trkpt lat="49.665204" lon="5.36357"><ele>270.13</ele><time>2025-05-26T04:14:53Z</time></trkpt>
<trkpt lat="49.665258" lon="5.363259"><ele>272.05</ele><time>2025-05-26T04:15:10Z</time></trkpt>
<trkpt lat="49.665283" lon="5.363026"><ele>273.14</ele><time>2025-05-26T04:15:28Z</time></trkpt>
<trkpt lat="49.665283" lon="5.361767"><ele>271.13</ele><time>2025-05-26T04:15:45Z</time></trkpt>
<trkpt lat="49.665335" lon="5.361331"><ele>270.41</ele><time>2025-05-26T04:16:02Z</time></trkpt>
<trkpt lat="49.665416" lon="5.360982"><ele>270.99</ele><time>2025-05-26T04:16:19Z</time></trkpt>
<trkpt lat="49.665639" lon="5.360198"><ele>272.31</ele><time>2025-05-26T04:16:36Z</time></trkpt>
<trkpt lat="49.665876" lon="5.359581"><ele>272.45</ele><time>2025-05-26T04:16:53Z</time></trkpt>
<trkpt lat="49.66638" lon="5.358871"><ele>278.81</ele><time>2025-05-26T04:17:10Z</time></trkpt>
<trkpt lat="49.6671" lon="5.358249"><ele>280.97</ele><time>2025-05-26T04:17:27Z</time></trkpt>
<trkpt lat="49.667716" lon="5.357246"><ele>283.95</ele><time>2025-05-26T04:17:44Z</time></trkpt>
<trkpt lat="49.66823" lon="5.357225"><ele>288.94</ele><time>2025-05-26T04:18:01Z</time></trkpt>
<trkpt lat="49.668236" lon="5.356947"><ele>286.97</ele><time>2025-05-26T04:18:18Z</time></trkpt>
<trkpt lat="49.668107" lon="5.356575"><ele>286.4</ele><time>2025-05-26T04:18:35Z</time></trkpt>
<trkpt lat="49.668077" lon="5.356381"><ele>287.33</ele><time>2025-05-26T04:18:52Z</time></trkpt>
<trkpt lat="49.668111" lon="5.355757"><ele>290.67</ele><time>2025-05-26T04:19:09Z</time></trkpt>
<trkpt lat="49.668243" lon="5.354247"><ele>304.5</ele><time>2025-05-26T04:19:26Z</time></trkpt>
<trkpt lat="49.668826" lon="5.352708"><ele>308.03</ele><time>2025-05-26T04:19:43Z</time></trkpt>
<trkpt lat="49.66893" lon="5.352367"><ele>307.66</ele><time>2025-05-26T04:20:00Z</time></trkpt>
<trkpt lat="49.668992" lon="5.352009"><ele>311.35</ele><time>2025-05-26T04:20:18Z</time></trkpt>
<trkpt lat="49.669187" lon="5.350443"><ele>317.26</ele><time>2025-05-26T04:20:35Z</time></trkpt>
<trkpt lat="49.668627" lon="5.348525"><ele>322.39</ele><time>2025-05-26T04:20:56Z</time></trkpt>
<trkpt lat="49.668526" lon="5.347517"><ele>331.43</ele><time>2025-05-26T04:21:18Z</time></trkpt>
<trkpt lat="49.668484" lon="5.345857"><ele>338.49</ele><time>2025-05-26T04:21:40Z</time></trkpt>
<trkpt lat="49.668458" lon="5.34564"><ele>340.43</ele><time>2025-05-26T04:22:02Z</time></trkpt>
<trkpt lat="49.668386" lon="5.345444"><ele>341.3</ele><time>2025-05-26T04:22:24Z</time></trkpt>
<trkpt lat="49.6684" lon="5.345074"><ele>343.04</ele><time>2025-05-26T04:22:46Z</time></trkpt>
<trkpt lat="49.668348" lon="5.344943"><ele>343.27</ele><time>2025-05-26T04:23:07Z</time></trkpt>
<trkpt lat="49.668346" lon="5.344849"><ele>343.62</ele><time>2025-05-26T04:23:29Z</time></trkpt>
<trkpt lat="49.66822" lon="5.344835"><ele>344.17</ele><time>2025-05-26T04:23:44Z</time></trkpt>
<trkpt lat="49.668178" lon="5.344788"><ele>344.45</ele><time>2025-05-26T04:23:58Z</time></trkpt>
<trkpt lat="49.66815" lon="5.344641"><ele>345.05</ele><time>2025-05-26T04:24:13Z</time></trkpt>
<trkpt lat="49.668146" lon="5.344529"><ele>345.6</ele><time>2025-05-26T04:24:27Z</time></trkpt>
<trkpt lat="49.668163" lon="5.344394"><ele>346.21</ele><time>2025-05-26T04:24:41Z</time></trkpt>
<trkpt lat="49.668204" lon="5.344267"><ele>347.03</ele><time>2025-05-26T04:24:56Z</time></trkpt>
<trkpt lat="49.668628" lon="5.343529"><ele>355.14</ele><time>2025-05-26T04:25:10Z</time></trkpt>
<trkpt lat="49.668857" lon="5.3434"><ele>357.44</ele><time>2025-05-26T04:25:25Z</time></trkpt>
<trkpt lat="49.66951" lon="5.34325"><ele>361.4</ele><time>2025-05-26T04:25:39Z</time></trkpt>
<trkpt lat="49.669815" lon="5.343255"><ele>363.15</ele><time>2025-05-26T04:25:54Z</time></trkpt>
<trkpt lat="49.670273" lon="5.343352"><ele>364.98</ele><time>2025-05-26T04:26:08Z</time></trkpt>
<trkpt lat="49.670725" lon="5.34355"><ele>367.3</ele><time>2025-05-26T04:26:23Z</time></trkpt>
<trkpt lat="49.671409" lon="5.343636"><ele>364.95</ele><time>2025-05-26T04:26:37Z</time></trkpt>
<trkpt lat="49.671742" lon="5.343556"><ele>362.53</ele><time>2025-05-26T04:26:51Z</time></trkpt>
<trkpt lat="49.672072" lon="5.343368"><ele>361.12</ele><time>2025-05-26T04:27:06Z</time></trkpt>
<trkpt lat="49.672322" lon="5.343041"><ele>358.54</ele><time>2025-05-26T04:27:20Z</time></trkpt>
<trkpt lat="49.673606" lon="5.341169"><ele>344.6</ele><time>2025-05-26T04:27:35Z</time></trkpt>
<trkpt lat="49.674266" lon="5.340136"><ele>340.24</ele><time>2025-05-26T04:27:49Z</time></trkpt>
<trkpt lat="49.674375" lon="5.339914"><ele>338.9</ele><time>2025-05-26T04:28:04Z</time></trkpt>
<trkpt lat="49.672385" lon="5.337866"><ele>347.14</ele><time>2025-05-26T04:28:10Z</time></trkpt>
<trkpt lat="49.672051" lon="5.33744"><ele>347.27</ele><time>2025-05-26T04:28:17Z</time></trkpt>
<trkpt lat="49.67077" lon="5.335667"><ele>341.9</ele><time>2025-05-26T04:28:23Z</time></trkpt>
<trkpt lat="49.669939" lon="5.334564"><ele>338.11</ele><time>2025-05-26T04:28:30Z</time></trkpt>
<trkpt lat="49.668165" lon="5.332059"><ele>350.98</ele><time>2025-05-26T04:28:36Z</time></trkpt>
<trkpt lat="49.667839" lon="5.331777"><ele>348.66</ele><time>2025-05-26T04:28:43Z</time></trkpt>
<trkpt lat="49.667172" lon="5.331403"><ele>341.16</ele><time>2025-05-26T04:28:49Z</time></trkpt>
<trkpt lat="49.66664" lon="5.331133"><ele>333.8</ele><time>2025-05-26T04:28:56Z</time></trkpt>
<trkpt lat="49.665411" lon="5.33042"><ele>327.74</ele><time>2025-05-26T04:29:02Z</time></trkpt>
<trkpt lat="49.665158" lon="5.330322"><ele>326.66</ele><time>2025-05-26T04:29:09Z</time></trkpt>
<trkpt lat="49.664989" lon="5.330286"><ele>325.84</ele><time>2025-05-26T04:29:15Z</time></trkpt>
<trkpt lat="49.664787" lon="5.330291"><ele>322.93</ele><time>2025-05-26T04:29:22Z</time></trkpt>
<trkpt lat="49.664475" lon="5.33041"><ele>322.0</ele><time>2025-05-26T04:29:28Z</time></trkpt>
<trkpt lat="49.663116" lon="5.331134"><ele>318.85</ele><time>2025-05-26T04:29:35Z</time></trkpt>
<trkpt lat="49.660367" lon="5.332668"><ele>309.2</ele><time>2025-05-26T04:29:41Z</time></trkpt>
<trkpt lat="49.658476" lon="5.333683"><ele>299.0</ele><time>2025-05-26T04:29:48Z</time></trkpt>
<trkpt lat="49.657887" lon="5.334047"><ele>298.17</ele><time>2025-05-26T04:29:54Z</time></trkpt>
<trkpt lat="49.653434" lon="5.337049"><ele>286.85</ele><time>2025-05-26T04:30:01Z</time></trkpt>
<trkpt lat="49.652807" lon="5.33743"><ele>284.32</ele><time>2025-05-26T04:30:07Z</time></trkpt>
<trkpt lat="49.651923" lon="5.337878"><ele>286.7</ele><time>2025-05-26T04:30:14Z</time></trkpt>
<trkpt lat="49.651494" lon="5.338071"><ele>287.36</ele><time>2025-05-26T04:30:20Z</time></trkpt>
<trkpt lat="49.651102" lon="5.338213"><ele>286.43</ele><time>2025-05-26T04:30:27Z</time></trkpt>
<trkpt lat="49.649206" lon="5.338779"><ele>278.29</ele><time>2025-05-26T04:30:33Z</time></trkpt>
<trkpt lat="49.648772" lon="5.338949"><ele>277.39</ele><time>2025-05-26T04:30:40Z</time></trkpt>
<trkpt lat="49.647984" lon="5.339396"><ele>274.66</ele><time>2025-05-26T04:30:46Z</time></trkpt>
<trkpt lat="49.647733" lon="5.339565"><ele>272.98</ele><time>2025-05-26T04:30:53Z</time></trkpt>
<trkpt lat="49.64618" lon="5.340953"><ele>266.94</ele><time>2025-05-26T04:30:59Z</time></trkpt>
<trkpt lat="49.645893" lon="5.341189"><ele>264.76</ele><time>2025-05-26T04:31:06Z</time></trkpt>
<trkpt lat="49.645238" lon="5.341607"><ele>261.04</ele><time>2025-05-26T04:31:12Z</time></trkpt>
<trkpt lat="49.641645" lon="5.343623"><ele>247.88</ele><time>2025-05-26T04:31:19Z</time></trkpt>
<trkpt lat="49.64118" lon="5.343902"><ele>245.58</ele><time>2025-05-26T04:31:25Z</time></trkpt>
<trkpt lat="49.640195" lon="5.344436"><ele>240.99</ele><time>2025-05-26T04:31:32Z</time></trkpt>
<trkpt lat="49.639873" lon="5.344572"><ele>239.68</ele><time>2025-05-26T04:31:38Z</time></trkpt>
<trkpt lat="49.639151" lon="5.344771"><ele>234.54</ele><time>2025-05-26T04:31:45Z</time></trkpt>
<trkpt lat="49.638797" lon="5.344819"><ele>232.31</ele><time>2025-05-26T04:31:51Z</time></trkpt>
<trkpt lat="49.636356" lon="5.345039"><ele>225.52</ele><time>2025-05-26T04:31:58Z</time></trkpt>
<trkpt lat="49.634982" lon="5.345174"><ele>213.68</ele><time>2025-05-26T04:32:04Z</time></trkpt>
<trkpt lat="49.634718" lon="5.34524"><ele>211.55</ele><time>2025-05-26T04:32:11Z</time></trkpt>
<trkpt lat="49.63454" lon="5.345339"><ele>210.32</ele><time>2025-05-26T04:32:18Z</time></trkpt>
<trkpt lat="49.634332" lon="5.344966"><ele>206.14</ele><time>2025-05-26T04:32:20Z</time></trkpt>
<trkpt lat="49.634272" lon="5.344647"><ele>205.23</ele><time>2025-05-26T04:32:23Z</time></trkpt>
<trkpt lat="49.634192" lon="5.344343"><ele>205.43</ele><time>2025-05-26T04:32:26Z</time></trkpt>
<trkpt lat="49.63413" lon="5.344212"><ele>205.75</ele><time>2025-05-26T04:32:28Z</time></trkpt>
<trkpt lat="49.634017" lon="5.344094"><ele>204.7</ele><time>2025-05-26T04:32:31Z</time></trkpt>
<trkpt lat="49.633794" lon="5.34401"><ele>202.18</ele><time>2025-05-26T04:32:34Z</time></trkpt>
<trkpt lat="49.63342" lon="5.343998"><ele>202.01</ele><time>2025-05-26T04:32:36Z</time></trkpt>
<trkpt lat="49.633023" lon="5.344028"><ele>208.14</ele><time>2025-05-26T04:32:39Z</time></trkpt>
<trkpt lat="49.632609" lon="5.344141"><ele>214.7</ele><time>2025-05-26T04:32:42Z</time></trkpt>
<trkpt lat="49.632385" lon="5.344245"><ele>216.1</ele><time>2025-05-26T04:32:45Z</time></trkpt>
<trkpt lat="49.631746" lon="5.344702"><ele>212.01</ele><time>2025-05-26T04:32:47Z</time></trkpt>
<trkpt lat="49.631032" lon="5.34532"><ele>207.76</ele><time>2025-05-26T04:32:50Z</time></trkpt>
<trkpt lat="49.630904" lon="5.345401"><ele>206.96</ele><time>2025-05-26T04:32:53Z</time></trkpt>
<trkpt lat="49.630772" lon="5.345451"><ele>206.4</ele><time>2025-05-26T04:32:55Z</time></trkpt>
<trkpt lat="49.630631" lon="5.345473"><ele>206.29</ele><time>2025-05-26T04:32:58Z</time></trkpt>
<trkpt lat="49.630502" lon="5.345445"><ele>206.65</ele><time>2025-05-26T04:33:01Z</time></trkpt>
<trkpt lat="49.630289" lon="5.345324"><ele>206.61</ele><time>2025-05-26T04:33:03Z</time></trkpt>
<trkpt lat="49.630111" lon="5.345108"><ele>206.3</ele><time>2025-05-26T04:33:06Z</time></trkpt>
<trkpt lat="49.629902" lon="5.344701"><ele>205.71</ele><time>2025-05-26T04:33:09Z</time></trkpt>
<trkpt lat="49.629483" lon="5.343638"><ele>206.4</ele><time>2025-05-26T04:33:12Z</time></trkpt>
<trkpt lat="49.629346" lon="5.343338"><ele>207.18</ele><time>2025-05-26T04:33:14Z</time></trkpt>
<trkpt lat="49.629203" lon="5.34308"><ele>208.19</ele><time>2025-05-26T04:33:17Z</time></trkpt>
<trkpt lat="49.628876" lon="5.342634"><ele>212.41</ele><time>2025-05-26T04:33:20Z</time></trkpt>
<trkpt lat="49.628622" lon="5.342393"><ele>211.92</ele><time>2025-05-26T04:33:22Z</time></trkpt>
<trkpt lat="49.628359" lon="5.342196"><ele>208.82</ele><time>2025-05-26T04:33:25Z</time></trkpt>
<trkpt lat="49.628075" lon="5.34205"><ele>209.07</ele><time>2025-05-26T04:33:28Z</time></trkpt>
<trkpt lat="49.627547" lon="5.341861"><ele>207.87</ele><time>2025-05-26T04:33:30Z</time></trkpt>
<trkpt lat="49.627044" lon="5.341728"><ele>211.81</ele><time>2025-05-26T04:33:33Z</time></trkpt>
<trkpt lat="49.626825" lon="5.341709"><ele>212.14</ele><time>2025-05-26T04:33:36Z</time></trkpt>
<trkpt lat="49.626479" lon="5.341715"><ele>210.17</ele><time>2025-05-26T04:33:39Z</time></trkpt>
<trkpt lat="49.626169" lon="5.341762"><ele>208.6</ele><time>2025-05-26T04:33:41Z</time></trkpt>
<trkpt lat="49.624469" lon="5.342121"><ele>205.68</ele><time>2025-05-26T04:33:44Z</time></trkpt>
<trkpt lat="49.622976" lon="5.342353"><ele>206.53</ele><time>2025-05-26T04:33:47Z</time></trkpt>
<trkpt lat="49.62243" lon="5.342395"><ele>207.24</ele><time>2025-05-26T04:33:49Z</time></trkpt>
<trkpt lat="49.622172" lon="5.342369"><ele>208.22</ele><time>2025-05-26T04:33:52Z</time></trkpt>
<trkpt lat="49.621488" lon="5.342191"><ele>209.71</ele><time>2025-05-26T04:33:55Z</time></trkpt>
<trkpt lat="49.621331" lon="5.342113"><ele>208.39</ele><time>2025-05-26T04:33:58Z</time></trkpt>
<trkpt lat="49.621079" lon="5.341922"><ele>202.8</ele><time>2025-05-26T04:34:00Z</time></trkpt>
<trkpt lat="49.620807" lon="5.341634"><ele>200.59</ele><time>2025-05-26T04:34:03Z</time></trkpt>
<trkpt lat="49.620356" lon="5.341103"><ele>202.04</ele><time>2025-05-26T04:34:06Z</time></trkpt>
<trkpt lat="49.619642" lon="5.34027"><ele>196.89</ele><time>2025-05-26T04:34:08Z</time></trkpt>
<trkpt lat="49.619272" lon="5.33987"><ele>194.93</ele><time>2025-05-26T04:34:11Z</time></trkpt>
<trkpt lat="49.619064" lon="5.339585"><ele>194.49</ele><time>2025-05-26T04:34:14Z</time></trkpt>
<trkpt lat="49.61893" lon="5.339311"><ele>195.07</ele><time>2025-05-26T04:34:16Z</time></trkpt>
<trkpt lat="49.618864" lon="5.339138"><ele>195.09</ele><time>2025-05-26T04:34:19Z</time></trkpt>
<trkpt lat="49.618521" lon="5.337922"><ele>192.88</ele><time>2025-05-26T04:34:22Z</time></trkpt>
<trkpt lat="49.618278" lon="5.338101"><ele>191.1</ele><time>2025-05-26T04:34:33Z</time></trkpt>
<trkpt lat="49.618093" lon="5.338267"><ele>191.0</ele><time>2025-05-26T04:34:43Z</time></trkpt>
<trkpt lat="49.617935" lon="5.338497"><ele>191.66</ele><time>2025-05-26T04:34:54Z</time></trkpt>
<trkpt lat="49.616722" lon="5.340388"><ele>192.6</ele><time>2025-05-26T04:35:04Z</time></trkpt>
<trkpt lat="49.616633" lon="5.340476"><ele>192.63</ele><time>2025-05-26T04:35:07Z</time></trkpt>
<trkpt lat="49.616373" lon="5.340586"><ele>192.87</ele><time>2025-05-26T04:35:09Z</time></trkpt>
<trkpt lat="49.616373" lon="5.340586"><ele>192.87</ele><time>2025-05-26T04:35:09Z</time></trkpt>
<trkpt lat="49.616317" lon="5.34061"><ele>193.11</ele><time>2025-05-26T04:35:09Z</time></trkpt>
<trkpt lat="49.615961" lon="5.339539"><ele>196.1</ele><time>2025-05-26T04:35:16Z</time></trkpt>
<trkpt lat="49.615685" lon="5.338365"><ele>206.13</ele><time>2025-05-26T04:35:23Z</time></trkpt>
<trkpt lat="49.615517" lon="5.337349"><ele>207.43</ele><time>2025-05-26T04:35:30Z</time></trkpt>
<trkpt lat="49.615468" lon="5.336233"><ele>206.26</ele><time>2025-05-26T04:35:37Z</time></trkpt>
<trkpt lat="49.615488" lon="5.335192"><ele>207.02</ele><time>2025-05-26T04:35:44Z</time></trkpt>
<trkpt lat="49.615477" lon="5.334401"><ele>207.5</ele><time>2025-05-26T04:35:51Z</time></trkpt>
<trkpt lat="49.61558" lon="5.333438"><ele>201.46</ele><time>2025-05-26T04:35:58Z</time></trkpt>
<trkpt lat="49.615779" lon="5.332648"><ele>197.01</ele><time>2025-05-26T04:36:05Z</time></trkpt>
<trkpt lat="49.616112" lon="5.331794"><ele>197.53</ele><time>2025-05-26T04:36:12Z</time></trkpt>
<trkpt lat="49.616456" lon="5.331121"><ele>199.18</ele><time>2025-05-26T04:36:19Z</time></trkpt>
<trkpt lat="49.616675" lon="5.3305"><ele>195.71</ele><time>2025-05-26T04:36:25Z</time></trkpt>
<trkpt lat="49.616782" lon="5.330279"><ele>193.35</ele><time>2025-05-26T04:36:32Z</time></trkpt>
<trkpt lat="49.616728" lon="5.330188"><ele>193.86</ele><time>2025-05-26T04:36:37Z</time></trkpt>
<trkpt lat="49.616694" lon="5.330067"><ele>193.92</ele><time>2025-05-26T04:36:42Z</time></trkpt>
<trkpt lat="49.616228" lon="5.327055"><ele>195.5</ele><time>2025-05-26T04:36:46Z</time></trkpt>
<trkpt lat="49.61602" lon="5.326425"><ele>194.93</ele><time>2025-05-26T04:36:51Z</time></trkpt>
<trkpt lat="49.615473" lon="5.32525"><ele>189.42</ele><time>2025-05-26T04:36:55Z</time></trkpt>
<trkpt lat="49.614982" lon="5.324272"><ele>187.89</ele><time>2025-05-26T04:37:00Z</time></trkpt>
<trkpt lat="49.614651" lon="5.323825"><ele>188.2</ele><time>2025-05-26T04:37:04Z</time></trkpt>
<trkpt lat="49.611653" lon="5.320858"><ele>187.15</ele><time>2025-05-26T04:37:09Z</time></trkpt>
<trkpt lat="49.610839" lon="5.320081"><ele>193.25</ele><time>2025-05-26T04:37:14Z</time></trkpt>
<trkpt lat="49.609957" lon="5.319329"><ele>189.93</ele><time>2025-05-26T04:37:18Z</time></trkpt>
<trkpt lat="49.607597" lon="5.317489"><ele>196.53</ele><time>2025-05-26T04:37:23Z</time></trkpt>
<trkpt lat="49.607219" lon="5.317085"><ele>194.54</ele><time>2025-05-26T04:37:27Z</time></trkpt>
<trkpt lat="49.606902" lon="5.316512"><ele>193.12</ele><time>2025-05-26T04:37:32Z</time></trkpt>
<trkpt lat="49.606701" lon="5.315883"><ele>194.41</ele><time>2025-05-26T04:37:36Z</time></trkpt>
<trkpt lat="49.606541" lon="5.315053"><ele>193.64</ele><time>2025-05-26T04:37:41Z</time></trkpt>
<trkpt lat="49.604985" lon="5.312403"><ele>188.49</ele><time>2025-05-26T04:37:46Z</time></trkpt>
<trkpt lat="49.604347" lon="5.311551"><ele>188.26</ele><time>2025-05-26T04:37:50Z</time></trkpt>
<trkpt lat="49.603623" lon="5.311042"><ele>189.71</ele><time>2025-05-26T04:37:55Z</time></trkpt>
<trkpt lat="49.601799" lon="5.310479"><ele>183.0</ele><time>2025-05-26T04:37:59Z</time></trkpt>
<trkpt lat="49.601492" lon="5.310335"><ele>183.63</ele><time>2025-05-26T04:38:04Z</time></trkpt>
<trkpt lat="49.601332" lon="5.310186"><ele>183.81</ele><time>2025-05-26T04:38:08Z</time></trkpt>
<trkpt lat="49.601125" lon="5.309894"><ele>182.62</ele><time>2025-05-26T04:38:13Z</time></trkpt>
<trkpt lat="49.601052" lon="5.309729"><ele>182.66</ele><time>2025-05-26T04:38:17Z</time></trkpt>
<trkpt lat="49.600951" lon="5.309368"><ele>183.43</ele><time>2025-05-26T04:38:22Z</time></trkpt>
<trkpt lat="49.600624" lon="5.307664"><ele>185.04</ele><time>2025-05-26T04:38:27Z</time></trkpt>
<trkpt lat="49.600528" lon="5.307279"><ele>183.5</ele><time>2025-05-26T04:38:31Z</time></trkpt>
<trkpt lat="49.600411" lon="5.306961"><ele>184.56</ele><time>2025-05-26T04:38:36Z</time></trkpt>
<trkpt lat="49.600261" lon="5.306665"><ele>184.05</ele><time>2025-05-26T04:38:40Z</time></trkpt>
<trkpt lat="49.600025" lon="5.306306"><ele>182.73</ele><time>2025-05-26T04:38:45Z</time></trkpt>
<trkpt lat="49.598781" lon="5.304806"><ele>183.6</ele><time>2025-05-26T04:38:49Z</time></trkpt>
<trkpt lat="49.597906" lon="5.303965"><ele>185.11</ele><time>2025-05-26T04:38:54Z</time></trkpt>
<trkpt lat="49.597485" lon="5.303601"><ele>184.98</ele><time>2025-05-26T04:38:59Z</time></trkpt>
<trkpt lat="49.59725" lon="5.303464"><ele>184.84</ele><time>2025-05-26T04:39:03Z</time></trkpt>
<trkpt lat="49.597031" lon="5.303393"><ele>184.28</ele><time>2025-05-26T04:39:08Z</time></trkpt>
<trkpt lat="49.596746" lon="5.303378"><ele>184.16</ele><time>2025-05-26T04:39:12Z</time></trkpt>
<trkpt lat="49.596006" lon="5.303555"><ele>185.3</ele><time>2025-05-26T04:39:17Z</time></trkpt>
<trkpt lat="49.595854" lon="5.303565"><ele>185.77</ele><time>2025-05-26T04:39:21Z</time></trkpt>
<trkpt lat="49.595682" lon="5.303542"><ele>185.34</ele><time>2025-05-26T04:39:26Z</time></trkpt>
<trkpt lat="49.595397" lon="5.303441"><ele>184.65</ele><time>2025-05-26T04:39:31Z</time></trkpt>
<trkpt lat="49.595154" lon="5.303248"><ele>184.45</ele><time>2025-05-26T04:39:35Z</time></trkpt>
<trkpt lat="49.594925" lon="5.30292"><ele>185.76</ele><time>2025-05-26T04:39:40Z</time></trkpt>
<trkpt lat="49.594777" lon="5.30264"><ele>186.9</ele><time>2025-05-26T04:39:44Z</time></trkpt>
<trkpt lat="49.59266" lon="5.297941"><ele>186.75</ele><time>2025-05-26T04:39:49Z</time></trkpt>
<trkpt lat="49.592516" lon="5.29752"><ele>187.0</ele><time>2025-05-26T04:39:53Z</time></trkpt>
<trkpt lat="49.592445" lon="5.297132"><ele>186.28</ele><time>2025-05-26T04:39:58Z</time></trkpt>
<trkpt lat="49.592408" lon="5.296604"><ele>185.01</ele><time>2025-05-26T04:40:03Z</time></trkpt>
<trkpt lat="49.592374" lon="5.295307"><ele>188.25</ele><time>2025-05-26T04:40:07Z</time></trkpt>
<trkpt lat="49.592289" lon="5.29475"><ele>185.88</ele><time>2025-05-26T04:40:12Z</time></trkpt>
<trkpt lat="49.592172" lon="5.294222"><ele>183.56</ele><time>2025-05-26T04:40:16Z</time></trkpt>
<trkpt lat="49.591968" lon="5.293502"><ele>180.96</ele><time>2025-05-26T04:40:21Z</time></trkpt>
<trkpt lat="49.591776" lon="5.292901"><ele>179.8</ele><time>2025-05-26T04:40:25Z</time></trkpt>
<trkpt lat="49.59171" lon="5.292454"><ele>176.54</ele><time>2025-05-26T04:40:30Z</time></trkpt>
<trkpt lat="49.591422" lon="5.288676"><ele>184.68</ele><time>2025-05-26T04:40:35Z</time></trkpt>
<trkpt lat="49.591215" lon="5.285625"><ele>170.53</ele><time>2025-05-26T04:40:39Z</time></trkpt>
<trkpt lat="49.591109" lon="5.284898"><ele>173.01</ele><time>2025-05-26T04:40:44Z</time></trkpt>
<trkpt lat="49.59074" lon="5.283056"><ele>172.0</ele><time>2025-05-26T04:40:48Z</time></trkpt>
<trkpt lat="49.589642" lon="5.277704"><ele>171.29</ele><time>2025-05-26T04:40:53Z</time></trkpt>
<trkpt lat="49.589544" lon="5.27737"><ele>171.17</ele><time>2025-05-26T04:40:57Z</time></trkpt>
<trkpt lat="49.589399" lon="5.276971"><ele>169.34</ele><time>2025-05-26T04:41:02Z</time></trkpt>
<trkpt lat="49.588649" lon="5.275356"><ele>171.24</ele><time>2025-05-26T04:41:07Z</time></trkpt>
<trkpt lat="49.588469" lon="5.274841"><ele>171.51</ele><time>2025-05-26T04:41:11Z</time></trkpt>
<trkpt lat="49.588365" lon="5.274461"><ele>172.72</ele><time>2025-05-26T04:41:16Z</time></trkpt>
<trkpt lat="49.587627" lon="5.27127"><ele>173.12</ele><time>2025-05-26T04:41:20Z</time></trkpt>
<trkpt lat="49.587516" lon="5.270836"><ele>172.94</ele><time>2025-05-26T04:41:25Z</time></trkpt>
<trkpt lat="49.587269" lon="5.27002"><ele>171.24</ele><time>2025-05-26T04:41:29Z</time></trkpt>
<trkpt lat="49.58714" lon="5.269663"><ele>170.3</ele><time>2025-05-26T04:41:34Z</time></trkpt>
<trkpt lat="49.586708" lon="5.268606"><ele>172.0</ele><time>2025-05-26T04:41:39Z</time></trkpt>
<trkpt lat="49.586373" lon="5.267903"><ele>172.52</ele><time>2025-05-26T04:41:43Z</time></trkpt>
<trkpt lat="49.586283" lon="5.267774"><ele>172.62</ele><time>2025-05-26T04:41:48Z</time></trkpt>
<trkpt lat="49.586327" lon="5.267648"><ele>172.88</ele><time>2025-05-26T04:41:49Z</time></trkpt>
<trkpt lat="49.586187" lon="5.267442"><ele>173.0</ele><time>2025-05-26T04:41:52Z</time></trkpt>
<trkpt lat="49.586149" lon="5.267357"><ele>173.0</ele><time>2025-05-26T04:41:56Z</time></trkpt>
<trkpt lat="49.585576" lon="5.265898"><ele>170.85</ele><time>2025-05-26T04:41:59Z</time></trkpt>
<trkpt lat="49.585426" lon="5.265564"><ele>170.48</ele><time>2025-05-26T04:42:02Z</time></trkpt>
<trkpt lat="49.585263" lon="5.265275"><ele>170.1</ele><time>2025-05-26T04:42:05Z</time></trkpt>
<trkpt lat="49.585039" lon="5.264953"><ele>169.69</ele><time>2025-05-26T04:42:09Z</time></trkpt>
<trkpt lat="49.584771" lon="5.264648"><ele>170.21</ele><time>2025-05-26T04:42:12Z</time></trkpt>
<trkpt lat="49.584577" lon="5.264397"><ele>169.52</ele><time>2025-05-26T04:42:15Z</time></trkpt>
<trkpt lat="49.584446" lon="5.264187"><ele>169.99</ele><time>2025-05-26T04:42:19Z</time></trkpt>
<trkpt lat="49.584304" lon="5.263846"><ele>169.98</ele><time>2025-05-26T04:42:22Z</time></trkpt>
<trkpt lat="49.584304" lon="5.263846"><ele>169.98</ele><time>2025-05-26T04:42:22Z</time></trkpt>
<trkpt lat="49.584446" lon="5.264187"><ele>169.99</ele><time>2025-05-26T04:42:25Z</time></trkpt>
<trkpt lat="49.584102" lon="5.265009"><ele>172.0</ele><time>2025-05-26T04:42:35Z</time></trkpt>
<trkpt lat="49.583995" lon="5.265207"><ele>172.0</ele><time>2025-05-26T04:42:46Z</time></trkpt>
<trkpt lat="49.583592" lon="5.265712"><ele>172.07</ele><time>2025-05-26T04:42:57Z</time></trkpt>
<trkpt lat="49.58319" lon="5.266146"><ele>174.03</ele><time>2025-05-26T04:43:08Z</time></trkpt>
<trkpt lat="49.582229" lon="5.266957"><ele>177.0</ele><time>2025-05-26T04:43:19Z</time></trkpt>
<trkpt lat="49.580937" lon="5.268271"><ele>187.68</ele><time>2025-05-26T04:43:30Z</time></trkpt>
<trkpt lat="49.580605" lon="5.268679"><ele>189.62</ele><time>2025-05-26T04:43:41Z</time></trkpt>
<trkpt lat="49.580089" lon="5.26938"><ele>189.66</ele><time>2025-05-26T04:43:51Z</time></trkpt>
<trkpt lat="49.579688" lon="5.270024"><ele>193.37</ele><time>2025-05-26T04:44:02Z</time></trkpt>
<trkpt lat="49.578667" lon="5.271873"><ele>203.65</ele><time>2025-05-26T04:44:13Z</time></trkpt>
<trkpt lat="49.57833" lon="5.272394"><ele>207.03</ele><time>2025-05-26T04:44:24Z</time></trkpt>
<trkpt lat="49.578158" lon="5.272626"><ele>208.89</ele><time>2025-05-26T04:44:35Z</time></trkpt>
<trkpt lat="49.575898" lon="5.275327"><ele>229.22</ele><time>2025-05-26T04:44:46Z</time></trkpt>
<trkpt lat="49.575738" lon="5.275484"><ele>234.32</ele><time>2025-05-26T04:44:57Z</time></trkpt>
<trkpt lat="49.575612" lon="5.275571"><ele>237.53</ele><time>2025-05-26T04:45:07Z</time></trkpt>
<trkpt lat="49.574326" lon="5.276278"><ele>251.59</ele><time>2025-05-26T04:45:18Z</time></trkpt>
<trkpt lat="49.573261" lon="5.276927"><ele>268.86</ele><time>2025-05-26T04:45:29Z</time></trkpt>
<trkpt lat="49.57286" lon="5.277195"><ele>274.25</ele><time>2025-05-26T04:45:40Z</time></trkpt>
<trkpt lat="49.572701" lon="5.277354"><ele>275.95</ele><time>2025-05-26T04:45:51Z</time></trkpt>
<trkpt lat="49.571911" lon="5.278574"><ele>275.75</ele><time>2025-05-26T04:46:02Z</time></trkpt>
<trkpt lat="49.571806" lon="5.278771"><ele>276.91</ele><time>2025-05-26T04:46:13Z</time></trkpt>
<trkpt lat="49.571558" lon="5.279328"><ele>278.11</ele><time>2025-05-26T04:46:23Z</time></trkpt>
<trkpt lat="49.571481" lon="5.279407"><ele>278.52</ele><time>2025-05-26T04:46:34Z</time></trkpt>
<trkpt lat="49.571403" lon="5.279394"><ele>279.35</ele><time>2025-05-26T04:46:45Z</time></trkpt>
<trkpt lat="49.571403" lon="5.279394"><ele>279.35</ele><time>2025-05-26T04:46:45Z</time></trkpt>
<trkpt lat="49.571371" lon="5.279376"><ele>279.89</ele><time>2025-05-26T04:46:52Z</time></trkpt>
<trkpt lat="49.571328" lon="5.279253"><ele>281.7</ele><time>2025-05-26T04:46:59Z</time></trkpt>
<trkpt lat="49.57132" lon="5.279153"><ele>282.62</ele><time>2025-05-26T04:47:06Z</time></trkpt>
<trkpt lat="49.571367" lon="5.278518"><ele>286.19</ele><time>2025-05-26T04:47:14Z</time></trkpt>
<trkpt lat="49.571399" lon="5.277247"><ele>295.76</ele><time>2025-05-26T04:47:21Z</time></trkpt>
<trkpt lat="49.571261" lon="5.276052"><ele>314.78</ele><time>2025-05-26T04:47:28Z</time></trkpt>
<trkpt lat="49.571203" lon="5.274131"><ele>329.7</ele><time>2025-05-26T04:47:35Z</time></trkpt>
<trkpt lat="49.571168" lon="5.273835"><ele>333.35</ele><time>2025-05-26T04:47:42Z</time></trkpt>
<trkpt lat="49.571058" lon="5.273534"><ele>338.04</ele><time>2025-05-26T04:47:49Z</time></trkpt>
<trkpt lat="49.57087" lon="5.273146"><ele>343.98</ele><time>2025-05-26T04:47:56Z</time></trkpt>
<trkpt lat="49.570759" lon="5.272979"><ele>346.0</ele><time>2025-05-26T04:48:03Z</time></trkpt>
<trkpt lat="49.570611" lon="5.272929"><ele>347.84</ele><time>2025-05-26T04:48:11Z</time></trkpt>
<trkpt lat="49.570557" lon="5.272943"><ele>348.57</ele><time>2025-05-26T04:48:18Z</time></trkpt>
<trkpt lat="49.570445" lon="5.273046"><ele>348.96</ele><time>2025-05-26T04:48:25Z</time></trkpt>
<trkpt lat="49.570263" lon="5.273046"><ele>349.12</ele><time>2025-05-26T04:48:32Z</time></trkpt>
<trkpt lat="49.569279" lon="5.272784"><ele>349.0</ele><time>2025-05-26T04:48:39Z</time></trkpt>
<trkpt lat="49.566505" lon="5.271488"><ele>324.32</ele><time>2025-05-26T04:48:46Z</time></trkpt>
<trkpt lat="49.566392" lon="5.271395"><ele>323.03</ele><time>2025-05-26T04:48:53Z</time></trkpt>
<trkpt lat="49.566334" lon="5.271296"><ele>322.01</ele><time>2025-05-26T04:49:00Z</time></trkpt>
<trkpt lat="49.566299" lon="5.271195"><ele>321.39</ele><time>2025-05-26T04:49:07Z</time></trkpt>
<trkpt lat="49.565961" lon="5.269849"><ele>317.92</ele><time>2025-05-26T04:49:15Z</time></trkpt>
<trkpt lat="49.565417" lon="5.268053"><ele>318.02</ele><time>2025-05-26T04:49:22Z</time></trkpt>
<trkpt lat="49.565249" lon="5.267586"><ele>319.07</ele><time>2025-05-26T04:49:29Z</time></trkpt>
<trkpt lat="49.564984" lon="5.26696"><ele>315.71</ele><time>2025-05-26T04:49:36Z</time></trkpt>
<trkpt lat="49.564677" lon="5.266289"><ele>314.2</ele><time>2025-05-26T04:49:43Z</time></trkpt>
<trkpt lat="49.564261" lon="5.265438"><ele>312.29</ele><time>2025-05-26T04:49:50Z</time></trkpt>
<trkpt lat="49.562552" lon="5.261824"><ele>304.54</ele><time>2025-05-26T04:49:57Z</time></trkpt>
<trkpt lat="49.562363" lon="5.261482"><ele>304.83</ele><time>2025-05-26T04:50:04Z</time></trkpt>
<trkpt lat="49.56026" lon="5.258346"><ele>291.85</ele><time>2025-05-26T04:50:11Z</time></trkpt>
<trkpt lat="49.560224" lon="5.25828"><ele>291.27</ele><time>2025-05-26T04:50:19Z</time></trkpt>
<trkpt lat="49.560185" lon="5.258145"><ele>290.55</ele><time>2025-05-26T04:50:26Z</time></trkpt>
<trkpt lat="49.560157" lon="5.257974"><ele>289.8</ele><time>2025-05-26T04:50:33Z</time></trkpt>
<trkpt lat="49.560023" lon="5.257974"><ele>289.43</ele><time>2025-05-26T04:50:34Z</time></trkpt>
<trkpt lat="49.560023" lon="5.257974"><ele>289.43</ele><time>2025-05-26T04:50:34Z</time></trkpt>
<trkpt lat="49.560386" lon="5.257976"><ele>290.42</ele><time>2025-05-26T04:50:41Z</time></trkpt>
<trkpt lat="49.560671" lon="5.25802"><ele>290.75</ele><time>2025-05-26T04:50:47Z</time></trkpt>
<trkpt lat="49.561228" lon="5.258342"><ele>293.17</ele><time>2025-05-26T04:50:54Z</time></trkpt>
<trkpt lat="49.562014" lon="5.258889"><ele>291.75</ele><time>2025-05-26T04:51:01Z</time></trkpt>
<trkpt lat="49.563295" lon="5.26007"><ele>294.92</ele><time>2025-05-26T04:51:08Z</time></trkpt>
<trkpt lat="49.564847" lon="5.260885"><ele>291.03</ele><time>2025-05-26T04:51:15Z</time></trkpt>
<trkpt lat="49.567388" lon="5.260228"><ele>280.54</ele><time>2025-05-26T04:51:22Z</time></trkpt>
<trkpt lat="49.567507" lon="5.260143"><ele>279.56</ele><time>2025-05-26T04:51:28Z</time></trkpt>
<trkpt lat="49.567588" lon="5.259938"><ele>277.58</ele><time>2025-05-26T04:51:35Z</time></trkpt>
<trkpt lat="49.567715" lon="5.257461"><ele>256.39</ele><time>2025-05-26T04:51:42Z</time></trkpt>
<trkpt lat="49.567926" lon="5.255958"><ele>244.43</ele><time>2025-05-26T04:51:49Z</time></trkpt>
<trkpt lat="49.56812" lon="5.254036"><ele>230.53</ele><time>2025-05-26T04:51:56Z</time></trkpt>
<trkpt lat="49.568341" lon="5.250249"><ele>208.85</ele><time>2025-05-26T04:52:02Z</time></trkpt>
<trkpt lat="49.568449" lon="5.249917"><ele>207.21</ele><time>2025-05-26T04:52:09Z</time></trkpt>
<trkpt lat="49.570158" lon="5.247671"><ele>189.86</ele><time>2025-05-26T04:52:16Z</time></trkpt>
<trkpt lat="49.570433" lon="5.247352"><ele>187.88</ele><time>2025-05-26T04:52:23Z</time></trkpt>
<trkpt lat="49.570619" lon="5.247174"><ele>186.91</ele><time>2025-05-26T04:52:30Z</time></trkpt>
<trkpt lat="49.572299" lon="5.246321"><ele>179.55</ele><time>2025-05-26T04:52:37Z</time></trkpt>
<trkpt lat="49.572893" lon="5.245945"><ele>176.4</ele><time>2025-05-26T04:52:43Z</time></trkpt>
<trkpt lat="49.573144" lon="5.245731"><ele>173.99</ele><time>2025-05-26T04:52:50Z</time></trkpt>
<trkpt lat="49.573306" lon="5.245559"><ele>172.21</ele><time>2025-05-26T04:52:57Z</time></trkpt>
<trkpt lat="49.573422" lon="5.245376"><ele>170.92</ele><time>2025-05-26T04:53:04Z</time></trkpt>
<trkpt lat="49.57353" lon="5.24515"><ele>169.83</ele><time>2025-05-26T04:53:11Z</time></trkpt>
<trkpt lat="49.57371" lon="5.244838"><ele>168.64</ele><time>2025-05-26T04:53:18Z</time></trkpt>
<trkpt lat="49.574639" lon="5.244129"><ele>167.0</ele><time>2025-05-26T04:53:24Z</time></trkpt>
<trkpt lat="49.574529" lon="5.243617"><ele>167.98</ele><time>2025-05-26T04:53:28Z</time></trkpt>
<trkpt lat="49.574555" lon="5.243308"><ele>167.7</ele><time>2025-05-26T04:53:32Z</time></trkpt>
<trkpt lat="49.574645" lon="5.242592"><ele>168.76</ele><time>2025-05-26T04:53:36Z</time></trkpt>
<trkpt lat="49.574703" lon="5.242357"><ele>169.48</ele><time>2025-05-26T04:53:39Z</time></trkpt>
<trkpt lat="49.574806" lon="5.242166"><ele>169.55</ele><time>2025-05-26T04:53:43Z</time></trkpt>
<trkpt lat="49.575059" lon="5.241905"><ele>168.68</ele><time>2025-05-26T04:53:47Z</time></trkpt>
<trkpt lat="49.575304" lon="5.241367"><ele>167.93</ele><time>2025-05-26T04:53:50Z</time></trkpt>
<trkpt lat="49.575903" lon="5.240345"><ele>167.0</ele><time>2025-05-26T04:53:54Z</time></trkpt>
<trkpt lat="49.575944" lon="5.240225"><ele>167.0</ele><time>2025-05-26T04:53:58Z</time></trkpt>
<trkpt lat="49.575956" lon="5.23993"><ele>167.25</ele><time>2025-05-26T04:54:02Z</time></trkpt>
<trkpt lat="49.575855" lon="5.23888"><ele>167.0</ele><time>2025-05-26T04:54:05Z</time></trkpt>
<trkpt lat="49.575804" lon="5.238546"><ele>167.08</ele><time>2025-05-26T04:54:09Z</time></trkpt>
<trkpt lat="49.575451" lon="5.235896"><ele>165.0</ele><time>2025-05-26T04:54:13Z</time></trkpt>
<trkpt lat="49.575407" lon="5.235763"><ele>165.0</ele><time>2025-05-26T04:54:17Z</time></trkpt>
<trkpt lat="49.575482" lon="5.235652"><ele>165.0</ele><time>2025-05-26T04:54:22Z</time></trkpt>
<trkpt lat="49.57564" lon="5.235599"><ele>165.3</ele><time>2025-05-26T04:54:28Z</time></trkpt>
<trkpt lat="49.580296" lon="5.234943"><ele>168.19</ele><time>2025-05-26T04:54:33Z</time></trkpt>
<trkpt lat="49.580544" lon="5.234855"><ele>168.02</ele><time>2025-05-26T04:54:39Z</time></trkpt>
<trkpt lat="49.58076" lon="5.234721"><ele>168.0</ele><time>2025-05-26T04:54:44Z</time></trkpt>
<trkpt lat="49.581529" lon="5.234078"><ele>174.33</ele><time>2025-05-26T04:54:50Z</time></trkpt>
<trkpt lat="49.582751" lon="5.232863"><ele>189.4</ele><time>2025-05-26T04:54:55Z</time></trkpt>
<trkpt lat="49.583046" lon="5.232671"><ele>192.67</ele><time>2025-05-26T04:55:01Z</time></trkpt>
<trkpt lat="49.583178" lon="5.232629"><ele>195.28</ele><time>2025-05-26T04:55:06Z</time></trkpt>
<trkpt lat="49.583494" lon="5.232585"><ele>201.46</ele><time>2025-05-26T04:55:12Z</time></trkpt>
<trkpt lat="49.583622" lon="5.232528"><ele>204.07</ele><time>2025-05-26T04:55:17Z</time></trkpt>
<trkpt lat="49.583767" lon="5.232386"><ele>206.01</ele><time>2025-05-26T04:55:23Z</time></trkpt>
<trkpt lat="49.58387" lon="5.2322"><ele>206.88</ele><time>2025-05-26T04:55:28Z</time></trkpt>
<trkpt lat="49.58407" lon="5.231761"><ele>209.32</ele><time>2025-05-26T04:55:34Z</time></trkpt>
<trkpt lat="49.58429" lon="5.231342"><ele>209.11</ele><time>2025-05-26T04:55:39Z</time></trkpt>
<trkpt lat="49.584441" lon="5.231121"><ele>208.02</ele><time>2025-05-26T04:55:45Z</time></trkpt>
<trkpt lat="49.584701" lon="5.230831"><ele>206.15</ele><time>2025-05-26T04:55:50Z</time></trkpt>
<trkpt lat="49.586321" lon="5.229299"><ele>192.85</ele><time>2025-05-26T04:55:55Z</time></trkpt>
<trkpt lat="49.587552" lon="5.228333"><ele>185.62</ele><time>2025-05-26T04:56:01Z</time></trkpt>
<trkpt lat="49.588197" lon="5.227875"><ele>178.63</ele><time>2025-05-26T04:56:06Z</time></trkpt>
<trkpt lat="49.589247" lon="5.227196"><ele>174.62</ele><time>2025-05-26T04:56:12Z</time></trkpt>
<trkpt lat="49.58977" lon="5.226805"><ele>172.0</ele><time>2025-05-26T04:56:17Z</time></trkpt>
<trkpt lat="49.590482" lon="5.226076"><ele>173.86</ele><time>2025-05-26T04:56:23Z</time></trkpt>
<trkpt lat="49.590718" lon="5.225788"><ele>175.75</ele><time>2025-05-26T04:56:28Z</time></trkpt>
<trkpt lat="49.590903" lon="5.225508"><ele>177.17</ele><time>2025-05-26T04:56:34Z</time></trkpt>
<trkpt lat="49.591088" lon="5.225104"><ele>178.05</ele><time>2025-05-26T04:56:39Z</time></trkpt>
<trkpt lat="49.591427" lon="5.224257"><ele>176.19</ele><time>2025-05-26T04:56:45Z</time></trkpt>
<trkpt lat="49.591665" lon="5.223772"><ele>174.0</ele><time>2025-05-26T04:56:50Z</time></trkpt>
<trkpt lat="49.592509" lon="5.222472"><ele>176.13</ele><time>2025-05-26T04:56:56Z</time></trkpt>
<trkpt lat="49.593075" lon="5.221633"><ele>177.94</ele><time>2025-05-26T04:57:01Z</time></trkpt>
<trkpt lat="49.593187" lon="5.221333"><ele>178.0</ele><time>2025-05-26T04:57:07Z</time></trkpt>
<trkpt lat="49.593448" lon="5.220324"><ele>176.52</ele><time>2025-05-26T04:57:12Z</time></trkpt>
<trkpt lat="49.593596" lon="5.21986"><ele>176.11</ele><time>2025-05-26T04:57:18Z</time></trkpt>
<trkpt lat="49.593773" lon="5.219437"><ele>176.42</ele><time>2025-05-26T04:57:23Z</time></trkpt>
<trkpt lat="49.594147" lon="5.218762"><ele>176.93</ele><time>2025-05-26T04:57:29Z</time></trkpt>
<trkpt lat="49.594618" lon="5.21798"><ele>175.54</ele><time>2025-05-26T04:57:34Z</time></trkpt>
<trkpt lat="49.594876" lon="5.217685"><ele>175.45</ele><time>2025-05-26T04:57:40Z</time></trkpt>
<trkpt lat="49.595316" lon="5.217252"><ele>174.99</ele><time>2025-05-26T04:57:45Z</time></trkpt>
<trkpt lat="49.596181" lon="5.216485"><ele>173.26</ele><time>2025-05-26T04:57:51Z</time></trkpt>
<trkpt lat="49.597125" lon="5.215693"><ele>173.0</ele><time>2025-05-26T04:57:56Z</time></trkpt>
<trkpt lat="49.597415" lon="5.215401"><ele>172.3</ele><time>2025-05-26T04:58:02Z</time></trkpt>
<trkpt lat="49.597658" lon="5.215027"><ele>171.49</ele><time>2025-05-26T04:58:07Z</time></trkpt>
<trkpt lat="49.59777" lon="5.214746"><ele>171.0</ele><time>2025-05-26T04:58:13Z</time></trkpt>
<trkpt lat="49.597918" lon="5.214246"><ele>171.0</ele><time>2025-05-26T04:58:18Z</time></trkpt>
<trkpt lat="49.598246" lon="5.212999"><ele>171.06</ele><time>2025-05-26T04:58:24Z</time></trkpt>
<trkpt lat="49.59835" lon="5.212731"><ele>171.16</ele><time>2025-05-26T04:58:29Z</time></trkpt>
<trkpt lat="49.598554" lon="5.212439"><ele>170.99</ele><time>2025-05-26T04:58:35Z</time></trkpt>
<trkpt lat="49.598694" lon="5.212322"><ele>170.14</ele><time>2025-05-26T04:58:40Z</time></trkpt>
<trkpt lat="49.598848" lon="5.212243"><ele>169.95</ele><time>2025-05-26T04:58:46Z</time></trkpt>
<trkpt lat="49.600009" lon="5.211896"><ele>169.1</ele><time>2025-05-26T04:58:51Z</time></trkpt>
<trkpt lat="49.600274" lon="5.211772"><ele>167.03</ele><time>2025-05-26T04:58:57Z</time></trkpt>
<trkpt lat="49.600575" lon="5.211563"><ele>166.07</ele><time>2025-05-26T04:59:02Z</time></trkpt>
<trkpt lat="49.601208" lon="5.211005"><ele>168.0</ele><time>2025-05-26T04:59:08Z</time></trkpt>
<trkpt lat="49.602354" lon="5.209906"><ele>166.35</ele><time>2025-05-26T04:59:13Z</time></trkpt>
<trkpt lat="49.602657" lon="5.209588"><ele>166.0</ele><time>2025-05-26T04:59:19Z</time></trkpt>
<trkpt lat="49.602876" lon="5.209307"><ele>165.68</ele><time>2025-05-26T04:59:24Z</time></trkpt>
<trkpt lat="49.605042" lon="5.206285"><ele>164.15</ele><time>2025-05-26T04:59:30Z</time></trkpt>
<trkpt lat="49.60526" lon="5.206044"><ele>165.18</ele><time>2025-05-26T04:59:35Z</time></trkpt>
<trkpt lat="49.605362" lon="5.205964"><ele>165.83</ele><time>2025-05-26T04:59:41Z</time></trkpt>
<trkpt lat="49.605537" lon="5.205877"><ele>166.78</ele><time>2025-05-26T04:59:46Z</time></trkpt>
<trkpt lat="49.606807" lon="5.205385"><ele>165.39</ele><time>2025-05-26T04:59:52Z</time></trkpt>
<trkpt lat="49.607005" lon="5.205326"><ele>165.18</ele><time>2025-05-26T04:59:57Z</time></trkpt>
<trkpt lat="49.608632" lon="5.205014"><ele>164.05</ele><time>2025-05-26T05:00:03Z</time></trkpt>
<trkpt lat="49.608814" lon="5.204915"><ele>164.22</ele><time>2025-05-26T05:00:08Z</time></trkpt>
<trkpt lat="49.608892" lon="5.204847"><ele>164.55</ele><time>2025-05-26T05:00:14Z</time></trkpt>
<trkpt lat="49.609018" lon="5.204686"><ele>165.13</ele><time>2025-05-26T05:00:19Z</time></trkpt>
<trkpt lat="49.609096" lon="5.204549"><ele>165.62</ele><time>2025-05-26T05:00:25Z</time></trkpt>
<trkpt lat="49.610387" lon="5.201534"><ele>163.52</ele><time>2025-05-26T05:00:30Z</time></trkpt>
<trkpt lat="49.610567" lon="5.201169"><ele>163.03</ele><time>2025-05-26T05:00:36Z</time></trkpt>
<trkpt lat="49.610765" lon="5.200881"><ele>164.38</ele><time>2025-05-26T05:00:41Z</time></trkpt>
<trkpt lat="49.610975" lon="5.200653"><ele>165.19</ele><time>2025-05-26T05:00:47Z</time></trkpt>
<trkpt lat="49.611767" lon="5.199987"><ele>163.32</ele><time>2025-05-26T05:00:52Z</time></trkpt>
<trkpt lat="49.612006" lon="5.199701"><ele>163.02</ele><time>2025-05-26T05:00:58Z</time></trkpt>
<trkpt lat="49.612163" lon="5.199443"><ele>163.78</ele><time>2025-05-26T05:01:03Z</time></trkpt>
<trkpt lat="49.612313" lon="5.199096"><ele>163.33</ele><time>2025-05-26T05:01:09Z</time></trkpt>
<trkpt lat="49.612512" lon="5.19856"><ele>163.82</ele><time>2025-05-26T05:01:14Z</time></trkpt>
<trkpt lat="49.613203" lon="5.196593"><ele>165.31</ele><time>2025-05-26T05:01:20Z</time></trkpt>
<trkpt lat="49.613384" lon="5.196158"><ele>164.35</ele><time>2025-05-26T05:01:25Z</time></trkpt>
<trkpt lat="49.614974" lon="5.192587"><ele>164.63</ele><time>2025-05-26T05:01:31Z</time></trkpt>
<trkpt lat="49.615346" lon="5.191844"><ele>163.16</ele><time>2025-05-26T05:01:36Z</time></trkpt>
<trkpt lat="49.617557" lon="5.187793"><ele>164.79</ele><time>2025-05-26T05:01:42Z</time></trkpt>
<trkpt lat="49.618184" lon="5.188149"><ele>164.0</ele><time>2025-05-26T05:01:49Z</time></trkpt>
<trkpt lat="49.619695" lon="5.189081"><ele>163.86</ele><time>2025-05-26T05:01:56Z</time></trkpt>
<trkpt lat="49.619884" lon="5.189209"><ele>162.93</ele><time>2025-05-26T05:02:03Z</time></trkpt>
<trkpt lat="49.620285" lon="5.189541"><ele>163.38</ele><time>2025-05-26T05:02:10Z</time></trkpt>
<trkpt lat="49.621847" lon="5.186258"><ele>165.34</ele><time>2025-05-26T05:02:26Z</time></trkpt>
<trkpt lat="49.623969" lon="5.181722"><ele>162.43</ele><time>2025-05-26T05:02:42Z</time></trkpt>
<trkpt lat="49.626112" lon="5.177256"><ele>172.0</ele><time>2025-05-26T05:02:58Z</time></trkpt>
<trkpt lat="49.626592" lon="5.176293"><ele>172.09</ele><time>2025-05-26T05:03:14Z</time></trkpt>
<trkpt lat="49.627083" lon="5.175287"><ele>173.5</ele><time>2025-05-26T05:03:30Z</time></trkpt>
<trkpt lat="49.628769" lon="5.171743"><ele>171.88</ele><time>2025-05-26T05:03:46Z</time></trkpt>
<trkpt lat="49.629349" lon="5.170477"><ele>172.72</ele><time>2025-05-26T05:04:03Z</time></trkpt>
<trkpt lat="49.629871" lon="5.169419"><ele>171.53</ele><time>2025-05-26T05:04:19Z</time></trkpt>
<trkpt lat="49.630611" lon="5.16785"><ele>170.2</ele><time>2025-05-26T05:04:35Z</time></trkpt>
<trkpt lat="49.631242" lon="5.166799"><ele>170.47</ele><time>2025-05-26T05:04:51Z</time></trkpt>
<trkpt lat="49.631293" lon="5.166683"><ele>170.65</ele><time>2025-05-26T05:05:07Z</time></trkpt>
<trkpt lat="49.631331" lon="5.166496"><ele>170.79</ele><time>2025-05-26T05:05:23Z</time></trkpt>
<trkpt lat="49.631369" lon="5.166387"><ele>170.93</ele><time>2025-05-26T05:05:39Z</time></trkpt>
<trkpt lat="49.631405" lon="5.166333"><ele>170.99</ele><time>2025-05-26T05:05:56Z</time></trkpt>
<trkpt lat="49.631586" lon="5.166203"><ele>170.53</ele><time>2025-05-26T05:06:12Z</time></trkpt>
<trkpt lat="49.63185" lon="5.165777"><ele>168.8</ele><time>2025-05-26T05:06:28Z</time></trkpt>
<trkpt lat="49.632149" lon="5.165377"><ele>168.09</ele><time>2025-05-26T05:06:44Z</time></trkpt>
<trkpt lat="49.633355" lon="5.163827"><ele>167.49</ele><time>2025-05-26T05:07:00Z</time></trkpt>
<trkpt lat="49.634512" lon="5.16239"><ele>166.36</ele><time>2025-05-26T05:07:16Z</time></trkpt>
<trkpt lat="49.634963" lon="5.161764"><ele>164.83</ele><time>2025-05-26T05:07:32Z</time></trkpt>
<trkpt lat="49.636813" lon="5.158933"><ele>171.44</ele><time>2025-05-26T05:07:49Z</time></trkpt>
<trkpt lat="49.637585" lon="5.15786"><ele>170.21</ele><time>2025-05-26T05:08:05Z</time></trkpt>
<trkpt lat="49.637834" lon="5.158151"><ele>169.73</ele><time>2025-05-26T05:08:08Z</time></trkpt>
<trkpt lat="49.63794" lon="5.158204"><ele>169.1</ele><time>2025-05-26T05:08:12Z</time></trkpt>
<trkpt lat="49.638009" lon="5.158208"><ele>168.71</ele><time>2025-05-26T05:08:16Z</time></trkpt>
<trkpt lat="49.638113" lon="5.15815"><ele>167.84</ele><time>2025-05-26T05:08:20Z</time></trkpt>
<trkpt lat="49.638287" lon="5.157984"><ele>165.89</ele><time>2025-05-26T05:08:23Z</time></trkpt>
<trkpt lat="49.638542" lon="5.157863"><ele>162.16</ele><time>2025-05-26T05:08:27Z</time></trkpt>
<trkpt lat="49.638733" lon="5.157843"><ele>160.56</ele><time>2025-05-26T05:08:31Z</time></trkpt>
<trkpt lat="49.638891" lon="5.157893"><ele>160.01</ele><time>2025-05-26T05:08:34Z</time></trkpt>
<trkpt lat="49.639003" lon="5.157954"><ele>160.82</ele><time>2025-05-26T05:08:38Z</time></trkpt>
<trkpt lat="49.639164" lon="5.158124"><ele>161.98</ele><time>2025-05-26T05:08:42Z</time></trkpt>
<trkpt lat="49.639494" lon="5.158611"><ele>164.18</ele><time>2025-05-26T05:08:46Z</time></trkpt>
<trkpt lat="49.639628" lon="5.15884"><ele>164.66</ele><time>2025-05-26T05:08:49Z</time></trkpt>
<trkpt lat="49.64002" lon="5.159627"><ele>164.34</ele><time>2025-05-26T05:08:53Z</time></trkpt>
<trkpt lat="49.640355" lon="5.160212"><ele>164.49</ele><time>2025-05-26T05:08:57Z</time></trkpt>
<trkpt lat="49.64063" lon="5.160906"><ele>163.2</ele><time>2025-05-26T05:09:01Z</time></trkpt>
<trkpt lat="49.640921" lon="5.161521"><ele>164.0</ele><time>2025-05-26T05:09:04Z</time></trkpt>
<trkpt lat="49.641056" lon="5.161746"><ele>164.0</ele><time>2025-05-26T05:09:08Z</time></trkpt>
<trkpt lat="49.641219" lon="5.161969"><ele>164.0</ele><time>2025-05-26T05:09:12Z</time></trkpt>
<trkpt lat="49.64143" lon="5.16219"><ele>164.0</ele><time>2025-05-26T05:09:15Z</time></trkpt>
<trkpt lat="49.641877" lon="5.162546"><ele>165.04</ele><time>2025-05-26T05:09:19Z</time></trkpt>
<trkpt lat="49.642287" lon="5.162819"><ele>164.8</ele><time>2025-05-26T05:09:23Z</time></trkpt>
<trkpt lat="49.643358" lon="5.163314"><ele>165.09</ele><time>2025-05-26T05:09:27Z</time></trkpt>
<trkpt lat="49.64402" lon="5.163566"><ele>165.76</ele><time>2025-05-26T05:09:30Z</time></trkpt>
<trkpt lat="49.645524" lon="5.163858"><ele>170.56</ele><time>2025-05-26T05:09:34Z</time></trkpt>
<trkpt lat="49.646192" lon="5.164076"><ele>171.31</ele><time>2025-05-26T05:09:38Z</time></trkpt>
<trkpt lat="49.64729" lon="5.164659"><ele>174.05</ele><time>2025-05-26T05:09:41Z</time></trkpt>
<trkpt lat="49.647972" lon="5.164994"><ele>173.38</ele><time>2025-05-26T05:09:45Z</time></trkpt>
<trkpt lat="49.648356" lon="5.165235"><ele>177.33</ele><time>2025-05-26T05:09:49Z</time></trkpt>
<trkpt lat="49.648988" lon="5.165674"><ele>175.7</ele><time>2025-05-26T05:09:53Z</time></trkpt>
<trkpt lat="49.649166" lon="5.165765"><ele>175.75</ele><time>2025-05-26T05:09:56Z</time></trkpt>
<trkpt lat="49.649816" lon="5.165977"><ele>172.33</ele><time>2025-05-26T05:10:00Z</time></trkpt>
<trkpt lat="49.65017" lon="5.166122"><ele>169.4</ele><time>2025-05-26T05:10:04Z</time></trkpt>
<trkpt lat="49.650513" lon="5.166364"><ele>169.85</ele><time>2025-05-26T05:10:08Z</time></trkpt>
<trkpt lat="49.650871" lon="5.166703"><ele>172.13</ele><time>2025-05-26T05:10:11Z</time></trkpt>
<trkpt lat="49.651508" lon="5.167231"><ele>174.44</ele><time>2025-05-26T05:10:15Z</time></trkpt>
<trkpt lat="49.652088" lon="5.167622"><ele>173.96</ele><time>2025-05-26T05:10:19Z</time></trkpt>
<trkpt lat="49.652324" lon="5.167758"><ele>173.34</ele><time>2025-05-26T05:10:22Z</time></trkpt>
<trkpt lat="49.652819" lon="5.168006"><ele>175.5</ele><time>2025-05-26T05:10:26Z</time></trkpt>
<trkpt lat="49.654597" lon="5.168778"><ele>173.23</ele><time>2025-05-26T05:10:30Z</time></trkpt>
<trkpt lat="49.654812" lon="5.168846"><ele>172.85</ele><time>2025-05-26T05:10:34Z</time></trkpt>
<trkpt lat="49.655619" lon="5.169033"><ele>173.0</ele><time>2025-05-26T05:10:37Z</time></trkpt>
<trkpt lat="49.656674" lon="5.169255"><ele>173.05</ele><time>2025-05-26T05:10:41Z</time></trkpt>
<trkpt lat="49.657004" lon="5.169262"><ele>175.21</ele><time>2025-05-26T05:10:45Z</time></trkpt>
<trkpt lat="49.658438" lon="5.169124"><ele>175.0</ele><time>2025-05-26T05:10:48Z</time></trkpt>
<trkpt lat="49.658941" lon="5.169119"><ele>175.81</ele><time>2025-05-26T05:10:52Z</time></trkpt>
<trkpt lat="49.662508" lon="5.169513"><ele>179.49</ele><time>2025-05-26T05:10:56Z</time></trkpt>
<trkpt lat="49.663057" lon="5.169564"><ele>179.43</ele><time>2025-05-26T05:11:00Z</time></trkpt>
<trkpt lat="49.664062" lon="5.169607"><ele>180.34</ele><time>2025-05-26T05:11:03Z</time></trkpt>
<trkpt lat="49.664341" lon="5.16965"><ele>179.74</ele><time>2025-05-26T05:11:07Z</time></trkpt>
<trkpt lat="49.665319" lon="5.169924"><ele>179.62</ele><time>2025-05-26T05:11:11Z</time></trkpt>
<trkpt lat="49.665899" lon="5.170045"><ele>179.88</ele><time>2025-05-26T05:11:15Z</time></trkpt>
<trkpt lat="49.666198" lon="5.170186"><ele>180.31</ele><time>2025-05-26T05:11:18Z</time></trkpt>
<trkpt lat="49.6669" lon="5.17059"><ele>181.12</ele><time>2025-05-26T05:11:22Z</time></trkpt>
<trkpt lat="49.667029" lon="5.170629"><ele>181.57</ele><time>2025-05-26T05:11:26Z</time></trkpt>
<trkpt lat="49.667427" lon="5.170648"><ele>182.58</ele><time>2025-05-26T05:11:29Z</time></trkpt>
<trkpt lat="49.667926" lon="5.17064"><ele>183.51</ele><time>2025-05-26T05:11:33Z</time></trkpt>
<trkpt lat="49.66829" lon="5.170678"><ele>184.44</ele><time>2025-05-26T05:11:37Z</time></trkpt>
<trkpt lat="49.668597" lon="5.170773"><ele>184.78</ele><time>2025-05-26T05:11:41Z</time></trkpt>
<trkpt lat="49.668906" lon="5.170902"><ele>183.12</ele><time>2025-05-26T05:11:44Z</time></trkpt>
<trkpt lat="49.669032" lon="5.170926"><ele>182.3</ele><time>2025-05-26T05:11:48Z</time></trkpt>
<trkpt lat="49.66928" lon="5.170894"><ele>181.54</ele><time>2025-05-26T05:11:52Z</time></trkpt>
<trkpt lat="49.669771" lon="5.170608"><ele>182.0</ele><time>2025-05-26T05:11:55Z</time></trkpt>
<trkpt lat="49.669826" lon="5.170529"><ele>182.1</ele><time>2025-05-26T05:11:59Z</time></trkpt>
<trkpt lat="49.669865" lon="5.170405"><ele>182.54</ele><time>2025-05-26T05:12:03Z</time></trkpt>
<trkpt lat="49.669892" lon="5.170193"><ele>182.88</ele><time>2025-05-26T05:12:07Z</time></trkpt>
<trkpt lat="49.669859" lon="5.169816"><ele>182.82</ele><time>2025-05-26T05:12:10Z</time></trkpt>
<trkpt lat="49.669845" lon="5.169402"><ele>182.88</ele><time>2025-05-26T05:12:14Z</time></trkpt>
<trkpt lat="49.669922" lon="5.169026"><ele>183.44</ele><time>2025-05-26T05:12:18Z</time></trkpt>
<trkpt lat="49.670042" lon="5.168744"><ele>183.55</ele><time>2025-05-26T05:12:22Z</time></trkpt>
<trkpt lat="49.670119" lon="5.168617"><ele>183.44</ele><time>2025-05-26T05:12:25Z</time></trkpt>
<trkpt lat="49.670269" lon="5.168453"><ele>183.42</ele><time>2025-05-26T05:12:29Z</time></trkpt>
<trkpt lat="49.671093" lon="5.167948"><ele>183.59</ele><time>2025-05-26T05:12:33Z</time></trkpt>
<trkpt lat="49.671901" lon="5.167506"><ele>185.87</ele><time>2025-05-26T05:12:36Z</time></trkpt>
<trkpt lat="49.67213" lon="5.167333"><ele>185.4</ele><time>2025-05-26T05:12:40Z</time></trkpt>
<trkpt lat="49.673263" lon="5.166661"><ele>184.02</ele><time>2025-05-26T05:12:44Z</time></trkpt>
<trkpt lat="49.673705" lon="5.16644"><ele>185.15</ele><time>2025-05-26T05:12:48Z</time></trkpt>
<trkpt lat="49.673724" lon="5.166482"><ele>185.07</ele><time>2025-05-26T05:12:52Z</time></trkpt>
<trkpt lat="49.67378" lon="5.166534"><ele>185.09</ele><time>2025-05-26T05:12:56Z</time></trkpt>
<trkpt lat="49.673846" lon="5.166528"><ele>185.34</ele><time>2025-05-26T05:13:00Z</time></trkpt>
<trkpt lat="49.673902" lon="5.166455"><ele>185.82</ele><time>2025-05-26T05:13:04Z</time></trkpt>
<trkpt lat="49.673918" lon="5.166344"><ele>186.1</ele><time>2025-05-26T05:13:09Z</time></trkpt>
<trkpt lat="49.673907" lon="5.166289"><ele>186.07</ele><time>2025-05-26T05:13:13Z</time></trkpt>
<trkpt lat="49.674049" lon="5.166226"><ele>186.58</ele><time>2025-05-26T05:13:17Z</time></trkpt>
<trkpt lat="49.67627" lon="5.164904"><ele>190.71</ele><time>2025-05-26T05:13:21Z</time></trkpt>
<trkpt lat="49.67727" lon="5.164336"><ele>188.17</ele><time>2025-05-26T05:13:25Z</time></trkpt>
<trkpt lat="49.679379" lon="5.163121"><ele>189.76</ele><time>2025-05-26T05:13:29Z</time></trkpt>
<trkpt lat="49.681255" lon="5.16195"><ele>193.98</ele><time>2025-05-26T05:13:34Z</time></trkpt>
<trkpt lat="49.681982" lon="5.161567"><ele>196.54</ele><time>2025-05-26T05:13:38Z</time></trkpt>
<trkpt lat="49.682263" lon="5.161396"><ele>198.8</ele><time>2025-05-26T05:13:42Z</time></trkpt>
<trkpt lat="49.682609" lon="5.161129"><ele>199.5</ele><time>2025-05-26T05:13:46Z</time></trkpt>
<trkpt lat="49.683023" lon="5.160886"><ele>199.91</ele><time>2025-05-26T05:13:50Z</time></trkpt>
<trkpt lat="49.683214" lon="5.160815"><ele>200.1</ele><time>2025-05-26T05:13:55Z</time></trkpt>
<trkpt lat="49.68341" lon="5.160779"><ele>199.37</ele><time>2025-05-26T05:13:59Z</time></trkpt>
<trkpt lat="49.68359" lon="5.160799"><ele>197.35</ele><time>2025-05-26T05:14:03Z</time></trkpt>
<trkpt lat="49.683893" lon="5.160923"><ele>195.98</ele><time>2025-05-26T05:14:07Z</time></trkpt>
<trkpt lat="49.684103" lon="5.161062"><ele>195.23</ele><time>2025-05-26T05:14:11Z</time></trkpt>
<trkpt lat="49.684874" lon="5.161633"><ele>199.85</ele><time>2025-05-26T05:14:16Z</time></trkpt>
<trkpt lat="49.68615" lon="5.162733"><ele>204.37</ele><time>2025-05-26T05:14:20Z</time></trkpt>
<trkpt lat="49.686642" lon="5.163037"><ele>201.09</ele><time>2025-05-26T05:14:24Z</time></trkpt>
<trkpt lat="49.687042" lon="5.163151"><ele>203.96</ele><time>2025-05-26T05:14:28Z</time></trkpt>
<trkpt lat="49.688643" lon="5.163085"><ele>211.45</ele><time>2025-05-26T05:14:32Z</time></trkpt>
<trkpt lat="49.69028" lon="5.163142"><ele>209.52</ele><time>2025-05-26T05:14:37Z</time></trkpt>
<trkpt lat="49.691727" lon="5.163429"><ele>207.84</ele><time>2025-05-26T05:14:41Z</time></trkpt>
<trkpt lat="49.693355" lon="5.164216"><ele>210.72</ele><time>2025-05-26T05:14:45Z</time></trkpt>
<trkpt lat="49.694258" lon="5.164568"><ele>209.8</ele><time>2025-05-26T05:14:49Z</time></trkpt>
<trkpt lat="49.695626" lon="5.164938"><ele>215.33</ele><time>2025-05-26T05:14:53Z</time></trkpt>
<trkpt lat="49.69585" lon="5.164967"><ele>214.64</ele><time>2025-05-26T05:14:58Z</time></trkpt>
<trkpt lat="49.696159" lon="5.164949"><ele>213.74</ele><time>2025-05-26T05:15:02Z</time></trkpt>
<trkpt lat="49.696895" lon="5.164761"><ele>212.51</ele><time>2025-05-26T05:15:06Z</time></trkpt>
<trkpt lat="49.697163" lon="5.164765"><ele>211.96</ele><time>2025-05-26T05:15:10Z</time></trkpt>
<trkpt lat="49.697454" lon="5.164827"><ele>211.2</ele><time>2025-05-26T05:15:14Z</time></trkpt>
<trkpt lat="49.698102" lon="5.165086"><ele>209.83</ele><time>2025-05-26T05:15:18Z</time></trkpt>
<trkpt lat="49.698299" lon="5.165199"><ele>209.8</ele><time>2025-05-26T05:15:23Z</time></trkpt>
<trkpt lat="49.699412" lon="5.166061"><ele>213.65</ele><time>2025-05-26T05:15:27Z</time></trkpt>
<trkpt lat="49.699597" lon="5.166158"><ele>213.75</ele><time>2025-05-26T05:15:31Z</time></trkpt>
<trkpt lat="49.699859" lon="5.166241"><ele>214.28</ele><time>2025-05-26T05:15:35Z</time></trkpt>
<trkpt lat="49.70022" lon="5.166299"><ele>218.6</ele><time>2025-05-26T05:15:39Z</time></trkpt>
<trkpt lat="49.700989" lon="5.166617"><ele>221.91</ele><time>2025-05-26T05:15:44Z</time></trkpt>
<trkpt lat="49.701523" lon="5.166917"><ele>216.83</ele><time>2025-05-26T05:15:48Z</time></trkpt>
<trkpt lat="49.70202" lon="5.167265"><ele>215.58</ele><time>2025-05-26T05:15:52Z</time></trkpt>
<trkpt lat="49.703369" lon="5.168069"><ele>215.55</ele><time>2025-05-26T05:15:56Z</time></trkpt>
<trkpt lat="49.704784" lon="5.16887"><ele>218.28</ele><time>2025-05-26T05:16:00Z</time></trkpt>
<trkpt lat="49.705512" lon="5.169308"><ele>218.37</ele><time>2025-05-26T05:16:05Z</time></trkpt>
<trkpt lat="49.706115" lon="5.169708"><ele>218.26</ele><time>2025-05-26T05:16:09Z</time></trkpt>
<trkpt lat="49.707763" lon="5.170667"><ele>217.79</ele><time>2025-05-26T05:16:13Z</time></trkpt>
<trkpt lat="49.708044" lon="5.170799"><ele>220.76</ele><time>2025-05-26T05:16:17Z</time></trkpt>
<trkpt lat="49.708364" lon="5.17083"><ele>221.79</ele><time>2025-05-26T05:16:21Z</time></trkpt>
<trkpt lat="49.708607" lon="5.170824"><ele>220.09</ele><time>2025-05-26T05:16:26Z</time></trkpt>
<trkpt lat="49.710739" lon="5.170659"><ele>225.54</ele><time>2025-05-26T05:16:30Z</time></trkpt>
<trkpt lat="49.710996" lon="5.170741"><ele>226.17</ele><time>2025-05-26T05:16:34Z</time></trkpt>
<trkpt lat="49.711037" lon="5.170629"><ele>226.79</ele><time>2025-05-26T05:16:39Z</time></trkpt>
<trkpt lat="49.711102" lon="5.170569"><ele>226.99</ele><time>2025-05-26T05:16:44Z</time></trkpt>
<trkpt lat="49.711393" lon="5.170534"><ele>228.0</ele><time>2025-05-26T05:16:49Z</time></trkpt>
<trkpt lat="49.711932" lon="5.170537"><ele>228.96</ele><time>2025-05-26T05:16:54Z</time></trkpt>
<trkpt lat="49.712054" lon="5.170459"><ele>228.48</ele><time>2025-05-26T05:17:00Z</time></trkpt>
<trkpt lat="49.712137" lon="5.170287"><ele>228.95</ele><time>2025-05-26T05:17:05Z</time></trkpt>
<trkpt lat="49.712223" lon="5.169674"><ele>233.51</ele><time>2025-05-26T05:17:10Z</time></trkpt>
<trkpt lat="49.712268" lon="5.16949"><ele>234.88</ele><time>2025-05-26T05:17:15Z</time></trkpt>
<trkpt lat="49.712307" lon="5.169424"><ele>235.04</ele><time>2025-05-26T05:17:20Z</time></trkpt>
<trkpt lat="49.713411" lon="5.169295"><ele>230.76</ele><time>2025-05-26T05:17:25Z</time></trkpt>
<trkpt lat="49.713737" lon="5.169298"><ele>231.08</ele><time>2025-05-26T05:17:30Z</time></trkpt>
<trkpt lat="49.714015" lon="5.169383"><ele>230.09</ele><time>2025-05-26T05:17:36Z</time></trkpt>
<trkpt lat="49.714919" lon="5.169986"><ele>225.67</ele><time>2025-05-26T05:17:41Z</time></trkpt>
<trkpt lat="49.715108" lon="5.170043"><ele>223.98</ele><time>2025-05-26T05:17:46Z</time></trkpt>
<trkpt lat="49.715545" lon="5.170043"><ele>224.92</ele><time>2025-05-26T05:17:51Z</time></trkpt>
<trkpt lat="49.717005" lon="5.169935"><ele>229.17</ele><time>2025-05-26T05:17:56Z</time></trkpt>
<trkpt lat="49.717434" lon="5.169877"><ele>229.34</ele><time>2025-05-26T05:18:01Z</time></trkpt>
<trkpt lat="49.71774" lon="5.169925"><ele>230.09</ele><time>2025-05-26T05:18:06Z</time></trkpt>
<trkpt lat="49.7179" lon="5.169986"><ele>230.56</ele><time>2025-05-26T05:18:11Z</time></trkpt>
<trkpt lat="49.718169" lon="5.170236"><ele>227.81</ele><time>2025-05-26T05:18:17Z</time></trkpt>
<trkpt lat="49.718342" lon="5.170459"><ele>225.7</ele><time>2025-05-26T05:18:22Z</time></trkpt>
<trkpt lat="49.71858" lon="5.170999"><ele>225.17</ele><time>2025-05-26T05:18:27Z</time></trkpt>
<trkpt lat="49.719077" lon="5.170496"><ele>230.84</ele><time>2025-05-26T05:18:32Z</time></trkpt>
<trkpt lat="49.719286" lon="5.170149"><ele>237.32</ele><time>2025-05-26T05:18:37Z</time></trkpt>
<trkpt lat="49.719429" lon="5.16974"><ele>236.23</ele><time>2025-05-26T05:18:43Z</time></trkpt>
<trkpt lat="49.719545" lon="5.169616"><ele>236.68</ele><time>2025-05-26T05:18:48Z</time></trkpt>
<trkpt lat="49.719752" lon="5.169556"><ele>239.4</ele><time>2025-05-26T05:18:53Z</time></trkpt>
<trkpt lat="49.719922" lon="5.169599"><ele>243.04</ele><time>2025-05-26T05:18:58Z</time></trkpt>
<trkpt lat="49.720133" lon="5.169828"><ele>248.17</ele><time>2025-05-26T05:19:04Z</time></trkpt>
<trkpt lat="49.72055" lon="5.170484"><ele>255.89</ele><time>2025-05-26T05:19:09Z</time></trkpt>
<trkpt lat="49.722233" lon="5.172848"><ele>257.18</ele><time>2025-05-26T05:19:14Z</time></trkpt>
<trkpt lat="49.722749" lon="5.173286"><ele>261.91</ele><time>2025-05-26T05:19:19Z</time></trkpt>
<trkpt lat="49.724049" lon="5.173807"><ele>282.18</ele><time>2025-05-26T05:19:24Z</time></trkpt>
<trkpt lat="49.72528" lon="5.17435"><ele>297.35</ele><time>2025-05-26T05:19:30Z</time></trkpt>
<trkpt lat="49.727405" lon="5.174502"><ele>314.59</ele><time>2025-05-26T05:19:35Z</time></trkpt>
<trkpt lat="49.728866" lon="5.174468"><ele>327.75</ele><time>2025-05-26T05:19:40Z</time></trkpt>
<trkpt lat="49.730242" lon="5.174483"><ele>340.61</ele><time>2025-05-26T05:19:45Z</time></trkpt>
<trkpt lat="49.731508" lon="5.174749"><ele>351.95</ele><time>2025-05-26T05:19:51Z</time></trkpt>
<trkpt lat="49.732294" lon="5.174844"><ele>359.92</ele><time>2025-05-26T05:19:56Z</time></trkpt>
<trkpt lat="49.732969" lon="5.174711"><ele>366.35</ele><time>2025-05-26T05:20:01Z</time></trkpt>
<trkpt lat="49.733645" lon="5.174521"><ele>366.43</ele><time>2025-05-26T05:20:06Z</time></trkpt>
<trkpt lat="49.734394" lon="5.173989"><ele>371.98</ele><time>2025-05-26T05:20:12Z</time></trkpt>
<trkpt lat="49.735217" lon="5.173325"><ele>373.02</ele><time>2025-05-26T05:20:17Z</time></trkpt>
<trkpt lat="49.737933" lon="5.171248"><ele>386.59</ele><time>2025-05-26T05:20:22Z</time></trkpt>
<trkpt lat="49.73812" lon="5.171135"><ele>384.62</ele><time>2025-05-26T05:20:27Z</time></trkpt>
<trkpt lat="49.738311" lon="5.171058"><ele>383.11</ele><time>2025-05-26T05:20:32Z</time></trkpt>
<trkpt lat="49.741156" lon="5.170411"><ele>391.95</ele><time>2025-05-26T05:20:38Z</time></trkpt>
<trkpt lat="49.742181" lon="5.170238"><ele>392.83</ele><time>2025-05-26T05:20:43Z</time></trkpt>
<trkpt lat="49.743798" lon="5.170146"><ele>391.15</ele><time>2025-05-26T05:20:48Z</time></trkpt>
<trkpt lat="49.744398" lon="5.170175"><ele>392.33</ele><time>2025-05-26T05:20:53Z</time></trkpt>
<trkpt lat="49.74458" lon="5.170127"><ele>393.28</ele><time>2025-05-26T05:20:59Z</time></trkpt>
<trkpt lat="49.744754" lon="5.169988"><ele>393.38</ele><time>2025-05-26T05:21:04Z</time></trkpt>
<trkpt lat="49.744965" lon="5.169738"><ele>394.61</ele><time>2025-05-26T05:21:09Z</time></trkpt>
<trkpt lat="49.745235" lon="5.169497"><ele>400.13</ele><time>2025-05-26T05:21:14Z</time></trkpt>
<trkpt lat="49.745527" lon="5.169022"><ele>404.04</ele><time>2025-05-26T05:21:20Z</time></trkpt>
<trkpt lat="49.745849" lon="5.16869"><ele>406.49</ele><time>2025-05-26T05:21:25Z</time></trkpt>
<trkpt lat="49.746325" lon="5.168357"><ele>411.3</ele><time>2025-05-26T05:21:30Z</time></trkpt>
<trkpt lat="49.74697" lon="5.16812"><ele>414.62</ele><time>2025-05-26T05:21:35Z</time></trkpt>
<trkpt lat="49.747523" lon="5.167835"><ele>415.64</ele><time>2025-05-26T05:21:40Z</time></trkpt>
<trkpt lat="49.748106" lon="5.167383"><ele>420.3</ele><time>2025-05-26T05:21:46Z</time></trkpt>
<trkpt lat="49.750224" lon="5.165459"><ele>427.83</ele><time>2025-05-26T05:21:51Z</time></trkpt>
<trkpt lat="49.751053" lon="5.164652"><ele>419.41</ele><time>2025-05-26T05:21:56Z</time></trkpt>
<trkpt lat="49.752096" lon="5.163678"><ele>421.75</ele><time>2025-05-26T05:22:01Z</time></trkpt>
<trkpt lat="49.753389" lon="5.162568"><ele>431.45</ele><time>2025-05-26T05:22:07Z</time></trkpt>
<trkpt lat="49.753555" lon="5.162185"><ele>430.82</ele><time>2025-05-26T05:22:15Z</time></trkpt>
<trkpt lat="49.75376" lon="5.161828"><ele>431.42</ele><time>2025-05-26T05:22:23Z</time></trkpt>
<trkpt lat="49.757486" lon="5.155943"><ele>410.42</ele><time>2025-05-26T05:22:30Z</time></trkpt>
<trkpt lat="49.757765" lon="5.155377"><ele>407.3</ele><time>2025-05-26T05:22:38Z</time></trkpt>
<trkpt lat="49.757958" lon="5.154829"><ele>408.46</ele><time>2025-05-26T05:22:46Z</time></trkpt>
<trkpt lat="49.758105" lon="5.15418"><ele>410.54</ele><time>2025-05-26T05:22:54Z</time></trkpt>
<trkpt lat="49.758181" lon="5.153544"><ele>412.01</ele><time>2025-05-26T05:23:02Z</time></trkpt>
<trkpt lat="49.758234" lon="5.152404"><ele>420.29</ele><time>2025-05-26T05:23:10Z</time></trkpt>
<trkpt lat="49.758525" lon="5.146152"><ele>425.31</ele><time>2025-05-26T05:23:18Z</time></trkpt>
<trkpt lat="49.758935" lon="5.146335"><ele>427.31</ele><time>2025-05-26T05:23:21Z</time></trkpt>
<trkpt lat="49.759063" lon="5.146321"><ele>428.63</ele><time>2025-05-26T05:23:23Z</time></trkpt>
<trkpt lat="49.7592" lon="5.146251"><ele>429.74</ele><time>2025-05-26T05:23:25Z</time></trkpt>
<trkpt lat="49.762569" lon="5.143914"><ele>435.54</ele><time>2025-05-26T05:23:27Z</time></trkpt>
<trkpt lat="49.764923" lon="5.142368"><ele>433.53</ele><time>2025-05-26T05:23:30Z</time></trkpt>
<trkpt lat="49.765118" lon="5.14217"><ele>434.27</ele><time>2025-05-26T05:23:32Z</time></trkpt>
<trkpt lat="49.765349" lon="5.141879"><ele>436.0</ele><time>2025-05-26T05:23:34Z</time></trkpt>
<trkpt lat="49.765636" lon="5.141411"><ele>434.79</ele><time>2025-05-26T05:23:36Z</time></trkpt>
<trkpt lat="49.766905" lon="5.139028"><ele>428.79</ele><time>2025-05-26T05:23:39Z</time></trkpt>
<trkpt lat="49.767111" lon="5.138579"><ele>425.36</ele><time>2025-05-26T05:23:41Z</time></trkpt>
<trkpt lat="49.76724" lon="5.1382"><ele>424.0</ele><time>2025-05-26T05:23:43Z</time></trkpt>
<trkpt lat="49.767394" lon="5.137446"><ele>422.67</ele><time>2025-05-26T05:23:45Z</time></trkpt>
<trkpt lat="49.767764" lon="5.135851"><ele>426.8</ele><time>2025-05-26T05:23:48Z</time></trkpt>
<trkpt lat="49.768022" lon="5.135282"><ele>424.15</ele><time>2025-05-26T05:23:50Z</time></trkpt>
<trkpt lat="49.768607" lon="5.134381"><ele>422.04</ele><time>2025-05-26T05:23:52Z</time></trkpt>
<trkpt lat="49.768962" lon="5.133906"><ele>421.02</ele><time>2025-05-26T05:23:54Z</time></trkpt>
<trkpt lat="49.769165" lon="5.133705"><ele>420.34</ele><time>2025-05-26T05:23:57Z</time></trkpt>
<trkpt lat="49.769421" lon="5.133528"><ele>416.98</ele><time>2025-05-26T05:23:59Z</time></trkpt>
<trkpt lat="49.769678" lon="5.133418"><ele>413.19</ele><time>2025-05-26T05:24:01Z</time></trkpt>
<trkpt lat="49.770343" lon="5.133185"><ele>410.61</ele><time>2025-05-26T05:24:03Z</time></trkpt>
<trkpt lat="49.770549" lon="5.133155"><ele>409.27</ele><time>2025-05-26T05:24:06Z</time></trkpt>
<trkpt lat="49.770922" lon="5.133171"><ele>405.14</ele><time>2025-05-26T05:24:08Z</time></trkpt>
<trkpt lat="49.771181" lon="5.133225"><ele>403.86</ele><time>2025-05-26T05:24:10Z</time></trkpt>
<trkpt lat="49.771433" lon="5.13334"><ele>400.74</ele><time>2025-05-26T05:24:12Z</time></trkpt>
<trkpt lat="49.771725" lon="5.133535"><ele>398.25</ele><time>2025-05-26T05:24:15Z</time></trkpt>
<trkpt lat="49.771932" lon="5.133729"><ele>398.48</ele><time>2025-05-26T05:24:17Z</time></trkpt>
<trkpt lat="49.772702" lon="5.13469"><ele>390.81</ele><time>2025-05-26T05:24:19Z</time></trkpt>
<trkpt lat="49.772942" lon="5.134904"><ele>389.04</ele><time>2025-05-26T05:24:22Z</time></trkpt>
<trkpt lat="49.773257" lon="5.135124"><ele>385.94</ele><time>2025-05-26T05:24:24Z</time></trkpt>
<trkpt lat="49.773762" lon="5.135422"><ele>381.95</ele><time>2025-05-26T05:24:26Z</time></trkpt>
<trkpt lat="49.773958" lon="5.135494"><ele>381.1</ele><time>2025-05-26T05:24:28Z</time></trkpt>
<trkpt lat="49.774183" lon="5.135508"><ele>380.63</ele><time>2025-05-26T05:24:31Z</time></trkpt>
<trkpt lat="49.774717" lon="5.135427"><ele>376.81</ele><time>2025-05-26T05:24:33Z</time></trkpt>
<trkpt lat="49.775037" lon="5.135442"><ele>374.13</ele><time>2025-05-26T05:24:35Z</time></trkpt>
<trkpt lat="49.775317" lon="5.135506"><ele>370.84</ele><time>2025-05-26T05:24:37Z</time></trkpt>
<trkpt lat="49.77659" lon="5.136245"><ele>358.49</ele><time>2025-05-26T05:24:40Z</time></trkpt>
<trkpt lat="49.776812" lon="5.136483"><ele>359.09</ele><time>2025-05-26T05:24:42Z</time></trkpt>
<trkpt lat="49.777603" lon="5.137439"><ele>351.67</ele><time>2025-05-26T05:24:44Z</time></trkpt>
<trkpt lat="49.777776" lon="5.13771"><ele>348.72</ele><time>2025-05-26T05:24:46Z</time></trkpt>
<trkpt lat="49.777999" lon="5.138123"><ele>345.67</ele><time>2025-05-26T05:24:49Z</time></trkpt>
<trkpt lat="49.778245" lon="5.13864"><ele>343.75</ele><time>2025-05-26T05:24:51Z</time></trkpt>
<trkpt lat="49.778403" lon="5.139147"><ele>342.14</ele><time>2025-05-26T05:24:53Z</time></trkpt>
<trkpt lat="49.778479" lon="5.13957"><ele>338.39</ele><time>2025-05-26T05:24:55Z</time></trkpt>
<trkpt lat="49.778548" lon="5.139812"><ele>335.79</ele><time>2025-05-26T05:24:58Z</time></trkpt>
<trkpt lat="49.778652" lon="5.140024"><ele>334.38</ele><time>2025-05-26T05:25:00Z</time></trkpt>
<trkpt lat="49.77879" lon="5.140211"><ele>333.69</ele><time>2025-05-26T05:25:02Z</time></trkpt>
<trkpt lat="49.778945" lon="5.140356"><ele>332.98</ele><time>2025-05-26T05:25:04Z</time></trkpt>
<trkpt lat="49.779601" lon="5.140757"><ele>329.63</ele><time>2025-05-26T05:25:07Z</time></trkpt>
<trkpt lat="49.780524" lon="5.141417"><ele>325.55</ele><time>2025-05-26T05:25:09Z</time></trkpt>
<trkpt lat="49.780714" lon="5.14157"><ele>324.61</ele><time>2025-05-26T05:25:11Z</time></trkpt>
<trkpt lat="49.780805" lon="5.141692"><ele>323.51</ele><time>2025-05-26T05:25:13Z</time></trkpt>
<trkpt lat="49.780877" lon="5.141858"><ele>321.83</ele><time>2025-05-26T05:25:16Z</time></trkpt>
<trkpt lat="49.781171" lon="5.142825"><ele>320.21</ele><time>2025-05-26T05:25:18Z</time></trkpt>
<trkpt lat="49.781972" lon="5.144989"><ele>315.76</ele><time>2025-05-26T05:25:20Z</time></trkpt>
<trkpt lat="49.782138" lon="5.145371"><ele>313.52</ele><time>2025-05-26T05:25:22Z</time></trkpt>
<trkpt lat="49.782365" lon="5.145732"><ele>313.36</ele><time>2025-05-26T05:25:25Z</time></trkpt>
<trkpt lat="49.78261" lon="5.146061"><ele>312.91</ele><time>2025-05-26T05:25:27Z</time></trkpt>
<trkpt lat="49.782849" lon="5.146321"><ele>311.68</ele><time>2025-05-26T05:25:29Z</time></trkpt>
<trkpt lat="49.782943" lon="5.146468"><ele>311.27</ele><time>2025-05-26T05:25:32Z</time></trkpt>
<trkpt lat="49.782992" lon="5.146604"><ele>311.18</ele><time>2025-05-26T05:25:34Z</time></trkpt>
<trkpt lat="49.783044" lon="5.147103"><ele>310.19</ele><time>2025-05-26T05:25:36Z</time></trkpt>
<trkpt lat="49.783095" lon="5.14736"><ele>310.0</ele><time>2025-05-26T05:25:38Z</time></trkpt>
<trkpt lat="49.783182" lon="5.147563"><ele>308.78</ele><time>2025-05-26T05:25:41Z</time></trkpt>
<trkpt lat="49.783322" lon="5.147736"><ele>306.67</ele><time>2025-05-26T05:25:43Z</time></trkpt>
<trkpt lat="49.783475" lon="5.147826"><ele>305.64</ele><time>2025-05-26T05:25:45Z</time></trkpt>
<trkpt lat="49.783635" lon="5.147835"><ele>306.21</ele><time>2025-05-26T05:25:47Z</time></trkpt>
<trkpt lat="49.78382" lon="5.147798"><ele>306.03</ele><time>2025-05-26T05:25:50Z</time></trkpt>
<trkpt lat="49.783987" lon="5.147733"><ele>305.4</ele><time>2025-05-26T05:25:52Z</time></trkpt>
<trkpt lat="49.784136" lon="5.14763"><ele>305.1</ele><time>2025-05-26T05:25:54Z</time></trkpt>
<trkpt lat="49.784254" lon="5.147468"><ele>305.78</ele><time>2025-05-26T05:25:56Z</time></trkpt>
<trkpt lat="49.784362" lon="5.147217"><ele>306.54</ele><time>2025-05-26T05:25:59Z</time></trkpt>
<trkpt lat="49.784441" lon="5.147106"><ele>306.32</ele><time>2025-05-26T05:26:01Z</time></trkpt>
<trkpt lat="49.784559" lon="5.147046"><ele>305.66</ele><time>2025-05-26T05:26:03Z</time></trkpt>
<trkpt lat="49.78469" lon="5.147065"><ele>304.05</ele><time>2025-05-26T05:26:05Z</time></trkpt>
<trkpt lat="49.785097" lon="5.147256"><ele>302.05</ele><time>2025-05-26T05:26:08Z</time></trkpt>
<trkpt lat="49.785642" lon="5.147671"><ele>297.04</ele><time>2025-05-26T05:26:10Z</time></trkpt>
<trkpt lat="49.78642" lon="5.148048"><ele>290.0</ele><time>2025-05-26T05:26:12Z</time></trkpt>
<trkpt lat="49.786717" lon="5.148133"><ele>287.8</ele><time>2025-05-26T05:26:14Z</time></trkpt>
<trkpt lat="49.786836" lon="5.148114"><ele>287.15</ele><time>2025-05-26T05:26:17Z</time></trkpt>
<trkpt lat="49.786941" lon="5.148027"><ele>287.33</ele><time>2025-05-26T05:26:19Z</time></trkpt>
<trkpt lat="49.787017" lon="5.147882"><ele>287.83</ele><time>2025-05-26T05:26:21Z</time></trkpt>
<trkpt lat="49.787068" lon="5.147658"><ele>289.27</ele><time>2025-05-26T05:26:23Z</time></trkpt>
<trkpt lat="49.787121" lon="5.147198"><ele>290.85</ele><time>2025-05-26T05:26:26Z</time></trkpt>
<trkpt lat="49.78717" lon="5.147009"><ele>290.08</ele><time>2025-05-26T05:26:28Z</time></trkpt>
<trkpt lat="49.787258" lon="5.146853"><ele>288.36</ele><time>2025-05-26T05:26:30Z</time></trkpt>
<trkpt lat="49.787373" lon="5.14675"><ele>286.29</ele><time>2025-05-26T05:26:33Z</time></trkpt>
<trkpt lat="49.787526" lon="5.146703"><ele>283.8</ele><time>2025-05-26T05:26:35Z</time></trkpt>
<trkpt lat="49.788254" lon="5.146647"><ele>275.53</ele><time>2025-05-26T05:26:37Z</time></trkpt>
<trkpt lat="49.78851" lon="5.146591"><ele>273.92</ele><time>2025-05-26T05:26:39Z</time></trkpt>
<trkpt lat="49.788756" lon="5.146489"><ele>273.17</ele><time>2025-05-26T05:26:42Z</time></trkpt>
<trkpt lat="49.788939" lon="5.146379"><ele>272.1</ele><time>2025-05-26T05:26:44Z</time></trkpt>
<trkpt lat="49.789513" lon="5.145625"><ele>266.03</ele><time>2025-05-26T05:26:46Z</time></trkpt>
<trkpt lat="49.789665" lon="5.145493"><ele>264.88</ele><time>2025-05-26T05:26:48Z</time></trkpt>
<trkpt lat="49.789867" lon="5.145357"><ele>263.25</ele><time>2025-05-26T05:26:51Z</time></trkpt>
<trkpt lat="49.791786" lon="5.144474"><ele>244.79</ele><time>2025-05-26T05:26:53Z</time></trkpt>
<trkpt lat="49.792001" lon="5.144286"><ele>243.58</ele><time>2025-05-26T05:26:55Z</time></trkpt>
<trkpt lat="49.792453" lon="5.143788"><ele>235.49</ele><time>2025-05-26T05:26:57Z</time></trkpt>
<trkpt lat="49.79261" lon="5.143684"><ele>233.65</ele><time>2025-05-26T05:27:00Z</time></trkpt>
<trkpt lat="49.79369" lon="5.143175"><ele>230.59</ele><time>2025-05-26T05:27:02Z</time></trkpt>
<trkpt lat="49.793878" lon="5.143063"><ele>230.96</ele><time>2025-05-26T05:27:04Z</time></trkpt>
<trkpt lat="49.793942" lon="5.143084"><ele>230.83</ele><time>2025-05-26T05:27:07Z</time></trkpt>
<trkpt lat="49.794463" lon="5.141782"><ele>232.69</ele><time>2025-05-26T05:27:09Z</time></trkpt>
<trkpt lat="49.79458" lon="5.141571"><ele>235.01</ele><time>2025-05-26T05:27:12Z</time></trkpt>
<trkpt lat="49.794744" lon="5.141436"><ele>237.72</ele><time>2025-05-26T05:27:14Z</time></trkpt>
<trkpt lat="49.794907" lon="5.141383"><ele>240.09</ele><time>2025-05-26T05:27:17Z</time></trkpt>
<trkpt lat="49.795046" lon="5.141407"><ele>241.1</ele><time>2025-05-26T05:27:20Z</time></trkpt>
<trkpt lat="49.795178" lon="5.141475"><ele>241.63</ele><time>2025-05-26T05:27:22Z</time></trkpt>
<trkpt lat="49.795297" lon="5.141571"><ele>242.39</ele><time>2025-05-26T05:27:25Z</time></trkpt>
<trkpt lat="49.795386" lon="5.141673"><ele>242.35</ele><time>2025-05-26T05:27:27Z</time></trkpt>
<trkpt lat="49.795431" lon="5.141727"><ele>242.26</ele><time>2025-05-26T05:27:30Z</time></trkpt>
<trkpt lat="49.7955" lon="5.142026"><ele>241.85</ele><time>2025-05-26T05:27:33Z</time></trkpt>
<trkpt lat="49.795542" lon="5.142278"><ele>241.55</ele><time>2025-05-26T05:27:36Z</time></trkpt>
<trkpt lat="49.795672" lon="5.142537"><ele>242.04</ele><time>2025-05-26T05:27:38Z</time></trkpt>
<trkpt lat="49.795834" lon="5.142658"><ele>243.44</ele><time>2025-05-26T05:27:41Z</time></trkpt>
<trkpt lat="49.796036" lon="5.142767"><ele>246.69</ele><time>2025-05-26T05:27:44Z</time></trkpt>
<trkpt lat="49.796089" lon="5.142771"><ele>247.62</ele><time>2025-05-26T05:27:47Z</time></trkpt>
<trkpt lat="49.796146" lon="5.142739"><ele>248.37</ele><time>2025-05-26T05:27:50Z</time></trkpt>
<trkpt lat="49.796393" lon="5.142481"><ele>250.01</ele><time>2025-05-26T05:27:52Z</time></trkpt>
<trkpt lat="49.796943" lon="5.141764"><ele>251.34</ele><time>2025-05-26T05:27:55Z</time></trkpt>
<trkpt lat="49.797074" lon="5.141701"><ele>252.53</ele><time>2025-05-26T05:27:58Z</time></trkpt>
<trkpt lat="49.797152" lon="5.141682"><ele>253.29</ele><time>2025-05-26T05:28:01Z</time></trkpt>
<trkpt lat="49.797308" lon="5.141693"><ele>255.02</ele><time>2025-05-26T05:28:03Z</time></trkpt>
<trkpt lat="49.797568" lon="5.141753"><ele>258.3</ele><time>2025-05-26T05:28:06Z</time></trkpt>
<trkpt lat="49.797878" lon="5.141864"><ele>261.81</ele><time>2025-05-26T05:28:09Z</time></trkpt>
<trkpt lat="49.798199" lon="5.142074"><ele>262.98</ele><time>2025-05-26T05:28:12Z</time></trkpt>
<trkpt lat="49.798854" lon="5.142477"><ele>270.5</ele><time>2025-05-26T05:28:14Z</time></trkpt>
<trkpt lat="49.799104" lon="5.142578"><ele>274.16</ele><time>2025-05-26T05:28:17Z</time></trkpt>
<trkpt lat="49.799407" lon="5.142611"><ele>277.79</ele><time>2025-05-26T05:28:20Z</time></trkpt>
<trkpt lat="49.799808" lon="5.142585"><ele>282.17</ele><time>2025-05-26T05:28:23Z</time></trkpt>
<trkpt lat="49.800442" lon="5.142372"><ele>294.48</ele><time>2025-05-26T05:28:25Z</time></trkpt>
<trkpt lat="49.800633" lon="5.14227"><ele>297.67</ele><time>2025-05-26T05:28:28Z</time></trkpt>
<trkpt lat="49.801161" lon="5.141823"><ele>303.98</ele><time>2025-05-26T05:28:31Z</time></trkpt>
<trkpt lat="49.801337" lon="5.141648"><ele>305.92</ele><time>2025-05-26T05:28:34Z</time></trkpt>
<trkpt lat="49.801465" lon="5.141528"><ele>307.63</ele><time>2025-05-26T05:28:36Z</time></trkpt>
<trkpt lat="49.801849" lon="5.141034"><ele>310.03</ele><time>2025-05-26T05:28:39Z</time></trkpt>
<trkpt lat="49.802202" lon="5.140541"><ele>310.19</ele><time>2025-05-26T05:28:42Z</time></trkpt>
<trkpt lat="49.80266" lon="5.139851"><ele>314.59</ele><time>2025-05-26T05:28:45Z</time></trkpt>
<trkpt lat="49.803277" lon="5.138815"><ele>330.94</ele><time>2025-05-26T05:28:47Z</time></trkpt>
<trkpt lat="49.803356" lon="5.13863"><ele>333.04</ele><time>2025-05-26T05:28:50Z</time></trkpt>
<trkpt lat="49.803601" lon="5.137848"><ele>329.93</ele><time>2025-05-26T05:28:53Z</time></trkpt>
<trkpt lat="49.803886" lon="5.136839"><ele>336.51</ele><time>2025-05-26T05:28:56Z</time></trkpt>
<trkpt lat="49.804003" lon="5.136366"><ele>338.18</ele><time>2025-05-26T05:28:58Z</time></trkpt>
<trkpt lat="49.804063" lon="5.136039"><ele>339.17</ele><time>2025-05-26T05:29:01Z</time></trkpt>
<trkpt lat="49.80421" lon="5.135031"><ele>346.14</ele><time>2025-05-26T05:29:04Z</time></trkpt>
<trkpt lat="49.804448" lon="5.133153"><ele>362.32</ele><time>2025-05-26T05:29:07Z</time></trkpt>
<trkpt lat="49.804592" lon="5.132486"><ele>365.02</ele><time>2025-05-26T05:29:09Z</time></trkpt>
<trkpt lat="49.804724" lon="5.132003"><ele>366.79</ele><time>2025-05-26T05:29:12Z</time></trkpt>
<trkpt lat="49.805027" lon="5.13088"><ele>378.88</ele><time>2025-05-26T05:29:15Z</time></trkpt>
<trkpt lat="49.805429" lon="5.130294"><ele>385.14</ele><time>2025-05-26T05:29:18Z</time></trkpt>
<trkpt lat="49.805672" lon="5.130012"><ele>390.18</ele><time>2025-05-26T05:29:20Z</time></trkpt>
<trkpt lat="49.805812" lon="5.129931"><ele>391.67</ele><time>2025-05-26T05:29:23Z</time></trkpt>
<trkpt lat="49.805898" lon="5.129907"><ele>392.08</ele><time>2025-05-26T05:29:26Z</time></trkpt>
<trkpt lat="49.80601" lon="5.129911"><ele>392.17</ele><time>2025-05-26T05:29:29Z</time></trkpt>
<trkpt lat="49.806546" lon="5.130051"><ele>392.81</ele><time>2025-05-26T05:29:31Z</time></trkpt>
<trkpt lat="49.806814" lon="5.130148"><ele>394.75</ele><time>2025-05-26T05:29:34Z</time></trkpt>
<trkpt lat="49.807912" lon="5.130863"><ele>399.14</ele><time>2025-05-26T05:29:37Z</time></trkpt>
<trkpt lat="49.808051" lon="5.130935"><ele>397.91</ele><time>2025-05-26T05:29:40Z</time></trkpt>
<trkpt lat="49.808192" lon="5.130966"><ele>397.57</ele><time>2025-05-26T05:29:43Z</time></trkpt>
<trkpt lat="49.808318" lon="5.130948"><ele>397.76</ele><time>2025-05-26T05:29:45Z</time></trkpt>
<trkpt lat="49.808442" lon="5.130891"><ele>398.15</ele><time>2025-05-26T05:29:48Z</time></trkpt>
<trkpt lat="49.808569" lon="5.130812"><ele>398.3</ele><time>2025-05-26T05:29:51Z</time></trkpt>
<trkpt lat="49.808895" lon="5.130533"><ele>396.94</ele><time>2025-05-26T05:29:54Z</time></trkpt>
<trkpt lat="49.80911" lon="5.130439"><ele>392.18</ele><time>2025-05-26T05:29:56Z</time></trkpt>
<trkpt lat="49.809232" lon="5.130486"><ele>389.27</ele><time>2025-05-26T05:29:59Z</time></trkpt>
<trkpt lat="49.809361" lon="5.130581"><ele>386.31</ele><time>2025-05-26T05:30:02Z</time></trkpt>
<trkpt lat="49.809779" lon="5.131033"><ele>382.72</ele><time>2025-05-26T05:30:05Z</time></trkpt>
<trkpt lat="49.809992" lon="5.131217"><ele>384.93</ele><time>2025-05-26T05:30:07Z</time></trkpt>
<trkpt lat="49.811577" lon="5.131592"><ele>379.37</ele><time>2025-05-26T05:30:10Z</time></trkpt>
<trkpt lat="49.811645" lon="5.131586"><ele>379.0</ele><time>2025-05-26T05:30:13Z</time></trkpt>
<trkpt lat="49.811711" lon="5.131551"><ele>379.18</ele><time>2025-05-26T05:30:16Z</time></trkpt>
<trkpt lat="49.811775" lon="5.131448"><ele>380.05</ele><time>2025-05-26T05:30:18Z</time></trkpt>
<trkpt lat="49.812029" lon="5.13168"><ele>377.56</ele><time>2025-05-26T05:30:21Z</time></trkpt>
<trkpt lat="49.812222" lon="5.132038"><ele>373.99</ele><time>2025-05-26T05:30:25Z</time></trkpt>
<trkpt lat="49.812258" lon="5.132263"><ele>371.46</ele><time>2025-05-26T05:30:28Z</time></trkpt>
<trkpt lat="49.812287" lon="5.132605"><ele>368.47</ele><time>2025-05-26T05:30:31Z</time></trkpt>
<trkpt lat="49.812248" lon="5.133774"><ele>362.65</ele><time>2025-05-26T05:30:34Z</time></trkpt>
<trkpt lat="49.812246" lon="5.134359"><ele>362.26</ele><time>2025-05-26T05:30:37Z</time></trkpt>
<trkpt lat="49.812264" lon="5.134537"><ele>362.12</ele><time>2025-05-26T05:30:40Z</time></trkpt>
<trkpt lat="49.812297" lon="5.134707"><ele>361.86</ele><time>2025-05-26T05:30:43Z</time></trkpt>
<trkpt lat="49.81243" lon="5.135129"><ele>361.28</ele><time>2025-05-26T05:30:46Z</time></trkpt>
<trkpt lat="49.812632" lon="5.135491"><ele>360.23</ele><time>2025-05-26T05:30:49Z</time></trkpt>
<trkpt lat="49.81268" lon="5.135626"><ele>360.09</ele><time>2025-05-26T05:30:52Z</time></trkpt>
<trkpt lat="49.812707" lon="5.135819"><ele>360.24</ele><time>2025-05-26T05:30:55Z</time></trkpt>
<trkpt lat="49.812684" lon="5.136002"><ele>361.14</ele><time>2025-05-26T05:30:58Z</time></trkpt>
<trkpt lat="49.812534" lon="5.136479"><ele>362.16</ele><time>2025-05-26T05:31:01Z</time></trkpt>
<trkpt lat="49.812521" lon="5.136602"><ele>362.13</ele><time>2025-05-26T05:31:04Z</time></trkpt>
<trkpt lat="49.812528" lon="5.136715"><ele>362.23</ele><time>2025-05-26T05:31:07Z</time></trkpt>
<trkpt lat="49.812549" lon="5.136858"><ele>362.59</ele><time>2025-05-26T05:31:10Z</time></trkpt>
<trkpt lat="49.812829" lon="5.137775"><ele>372.17</ele><time>2025-05-26T05:31:13Z</time></trkpt>
<trkpt lat="49.812946" lon="5.138237"><ele>375.65</ele><time>2025-05-26T05:31:17Z</time></trkpt>
<trkpt lat="49.813052" lon="5.139125"><ele>379.85</ele><time>2025-05-26T05:31:20Z</time></trkpt>
<trkpt lat="49.813233" lon="5.139744"><ele>383.08</ele><time>2025-05-26T05:31:23Z</time></trkpt>
<trkpt lat="49.813316" lon="5.140188"><ele>383.41</ele><time>2025-05-26T05:31:26Z</time></trkpt>
<trkpt lat="49.813363" lon="5.140792"><ele>382.13</ele><time>2025-05-26T05:31:29Z</time></trkpt>
<trkpt lat="49.813342" lon="5.141095"><ele>380.12</ele><time>2025-05-26T05:31:32Z</time></trkpt>
<trkpt lat="49.813028" lon="5.142902"><ele>370.5</ele><time>2025-05-26T05:31:35Z</time></trkpt>
<trkpt lat="49.812938" lon="5.143513"><ele>367.85</ele><time>2025-05-26T05:31:38Z</time></trkpt>
<trkpt lat="49.812916" lon="5.143842"><ele>364.09</ele><time>2025-05-26T05:31:41Z</time></trkpt>
<trkpt lat="49.812978" lon="5.146294"><ele>353.34</ele><time>2025-05-26T05:31:44Z</time></trkpt>
<trkpt lat="49.813012" lon="5.146378"><ele>353.04</ele><time>2025-05-26T05:31:47Z</time></trkpt>
<trkpt lat="49.813059" lon="5.146409"><ele>352.92</ele><time>2025-05-26T05:31:49Z</time></trkpt>
<trkpt lat="49.81351" lon="5.146494"><ele>350.98</ele><time>2025-05-26T05:31:51Z</time></trkpt>
<trkpt lat="49.813645" lon="5.146583"><ele>350.09</ele><time>2025-05-26T05:31:53Z</time></trkpt>
<trkpt lat="49.813709" lon="5.146656"><ele>349.34</ele><time>2025-05-26T05:31:55Z</time></trkpt>
<trkpt lat="49.813736" lon="5.146721"><ele>349.01</ele><time>2025-05-26T05:31:57Z</time></trkpt>
<trkpt lat="49.813927" lon="5.148136"><ele>339.83</ele><time>2025-05-26T05:31:59Z</time></trkpt>
<trkpt lat="49.814015" lon="5.148687"><ele>339.42</ele><time>2025-05-26T05:32:01Z</time></trkpt>
<trkpt lat="49.81411" lon="5.149096"><ele>337.81</ele><time>2025-05-26T05:32:03Z</time></trkpt>
<trkpt lat="49.814172" lon="5.149293"><ele>336.5</ele><time>2025-05-26T05:32:05Z</time></trkpt>
<trkpt lat="49.814243" lon="5.149481"><ele>335.45</ele><time>2025-05-26T05:32:07Z</time></trkpt>
<trkpt lat="49.814372" lon="5.149726"><ele>334.54</ele><time>2025-05-26T05:32:09Z</time></trkpt>
<trkpt lat="49.814491" lon="5.149857"><ele>334.15</ele><time>2025-05-26T05:32:11Z</time></trkpt>
<trkpt lat="49.814752" lon="5.150043"><ele>332.99</ele><time>2025-05-26T05:32:13Z</time></trkpt>
<trkpt lat="49.815603" lon="5.150505"><ele>324.5</ele><time>2025-05-26T05:32:15Z</time></trkpt>
<trkpt lat="49.815824" lon="5.150704"><ele>320.62</ele><time>2025-05-26T05:32:17Z</time></trkpt>
<trkpt lat="49.81595" lon="5.150894"><ele>319.39</ele><time>2025-05-26T05:32:19Z</time></trkpt>
<trkpt lat="49.816058" lon="5.151137"><ele>317.38</ele><time>2025-05-26T05:32:21Z</time></trkpt>
<trkpt lat="49.816273" lon="5.151823"><ele>314.07</ele><time>2025-05-26T05:32:23Z</time></trkpt>
<trkpt lat="49.816485" lon="5.152566"><ele>314.32</ele><time>2025-05-26T05:32:25Z</time></trkpt>
<trkpt lat="49.816579" lon="5.152971"><ele>311.7</ele><time>2025-05-26T05:32:27Z</time></trkpt>
<trkpt lat="49.81665" lon="5.153372"><ele>307.78</ele><time>2025-05-26T05:32:29Z</time></trkpt>
<trkpt lat="49.816716" lon="5.153904"><ele>306.49</ele><time>2025-05-26T05:32:31Z</time></trkpt>
<trkpt lat="49.816745" lon="5.154746"><ele>309.77</ele><time>2025-05-26T05:32:33Z</time></trkpt>
<trkpt lat="49.816813" lon="5.155405"><ele>312.14</ele><time>2025-05-26T05:32:35Z</time></trkpt>
<trkpt lat="49.816858" lon="5.155618"><ele>311.48</ele><time>2025-05-26T05:32:37Z</time></trkpt>
<trkpt lat="49.816912" lon="5.155758"><ele>310.02</ele><time>2025-05-26T05:32:39Z</time></trkpt>
<trkpt lat="49.81698" lon="5.155873"><ele>308.82</ele><time>2025-05-26T05:32:41Z</time></trkpt>
<trkpt lat="49.817199" lon="5.156124"><ele>305.3</ele><time>2025-05-26T05:32:43Z</time></trkpt>
<trkpt lat="49.817473" lon="5.156381"><ele>301.38</ele><time>2025-05-26T05:32:45Z</time></trkpt>
<trkpt lat="49.818177" lon="5.156738"><ele>286.91</ele><time>2025-05-26T05:32:47Z</time></trkpt>
<trkpt lat="49.818293" lon="5.156763"><ele>284.7</ele><time>2025-05-26T05:32:49Z</time></trkpt>
<trkpt lat="49.818371" lon="5.156735"><ele>283.55</ele><time>2025-05-26T05:32:51Z</time></trkpt>
<trkpt lat="49.818432" lon="5.156681"><ele>283.05</ele><time>2025-05-26T05:32:53Z</time></trkpt>
<trkpt lat="49.818493" lon="5.156549"><ele>284.0</ele><time>2025-05-26T05:32:55Z</time></trkpt>
<trkpt lat="49.818632" lon="5.155788"><ele>287.48</ele><time>2025-05-26T05:32:57Z</time></trkpt>
<trkpt lat="49.818711" lon="5.155594"><ele>285.49</ele><time>2025-05-26T05:32:59Z</time></trkpt>
<trkpt lat="49.818812" lon="5.155495"><ele>282.99</ele><time>2025-05-26T05:33:01Z</time></trkpt>
<trkpt lat="49.818983" lon="5.155524"><ele>281.34</ele><time>2025-05-26T05:33:03Z</time></trkpt>
<trkpt lat="49.819081" lon="5.155605"><ele>281.82</ele><time>2025-05-26T05:33:05Z</time></trkpt>
<trkpt lat="49.819113" lon="5.155724"><ele>282.3</ele><time>2025-05-26T05:33:07Z</time></trkpt>
<trkpt lat="49.819355" lon="5.157372"><ele>274.94</ele><time>2025-05-26T05:33:09Z</time></trkpt>
<trkpt lat="49.81959" lon="5.157826"><ele>272.8</ele><time>2025-05-26T05:33:11Z</time></trkpt>
<trkpt lat="49.819836" lon="5.157858"><ele>274.41</ele><time>2025-05-26T05:33:13Z</time></trkpt>
<trkpt lat="49.820064" lon="5.158051"><ele>274.72</ele><time>2025-05-26T05:33:15Z</time></trkpt>
<trkpt lat="49.820348" lon="5.158502"><ele>276.93</ele><time>2025-05-26T05:33:17Z</time></trkpt>
<trkpt lat="49.821983" lon="5.160627"><ele>266.53</ele><time>2025-05-26T05:33:19Z</time></trkpt>
<trkpt lat="49.822302" lon="5.160834"><ele>267.84</ele><time>2025-05-26T05:33:21Z</time></trkpt>
<trkpt lat="49.822925" lon="5.160963"><ele>275.34</ele><time>2025-05-26T05:33:23Z</time></trkpt>
<trkpt lat="49.823613" lon="5.160864"><ele>274.44</ele><time>2025-05-26T05:33:25Z</time></trkpt>
<trkpt lat="49.823772" lon="5.160795"><ele>275.11</ele><time>2025-05-26T05:33:27Z</time></trkpt>
<trkpt lat="49.824173" lon="5.160736"><ele>275.1</ele><time>2025-05-26T05:33:29Z</time></trkpt>
<trkpt lat="49.824624" lon="5.160854"><ele>273.92</ele><time>2025-05-26T05:33:31Z</time></trkpt>
<trkpt lat="49.825877" lon="5.162143"><ele>269.77</ele><time>2025-05-26T05:33:33Z</time></trkpt>
<trkpt lat="49.826344" lon="5.162696"><ele>266.7</ele><time>2025-05-26T05:33:35Z</time></trkpt>
<trkpt lat="49.826699" lon="5.163074"><ele>267.41</ele><time>2025-05-26T05:33:37Z</time></trkpt>
<trkpt lat="49.827115" lon="5.163545"><ele>270.59</ele><time>2025-05-26T05:33:39Z</time></trkpt>
<trkpt lat="49.827303" lon="5.163695"><ele>269.33</ele><time>2025-05-26T05:33:41Z</time></trkpt>
<trkpt lat="49.827588" lon="5.163802"><ele>267.53</ele><time>2025-05-26T05:33:43Z</time></trkpt>
<trkpt lat="49.827877" lon="5.16387"><ele>268.02</ele><time>2025-05-26T05:33:45Z</time></trkpt>
<trkpt lat="49.828159" lon="5.163854"><ele>267.84</ele><time>2025-05-26T05:33:47Z</time></trkpt>
<trkpt lat="49.828834" lon="5.163716"><ele>272.59</ele><time>2025-05-26T05:33:49Z</time></trkpt>
<trkpt lat="49.829581" lon="5.163502"><ele>276.25</ele><time>2025-05-26T05:33:51Z</time></trkpt>
<trkpt lat="49.830079" lon="5.163502"><ele>280.71</ele><time>2025-05-26T05:33:53Z</time></trkpt>
<trkpt lat="49.830439" lon="5.16363"><ele>285.24</ele><time>2025-05-26T05:33:55Z</time></trkpt>
<trkpt lat="49.830689" lon="5.163931"><ele>287.03</ele><time>2025-05-26T05:33:57Z</time></trkpt>
<trkpt lat="49.830827" lon="5.164317"><ele>286.14</ele><time>2025-05-26T05:33:59Z</time></trkpt>
<trkpt lat="49.830948" lon="5.165074"><ele>283.34</ele><time>2025-05-26T05:34:01Z</time></trkpt>
<trkpt lat="49.830916" lon="5.165783"><ele>278.4</ele><time>2025-05-26T05:34:03Z</time></trkpt>
<trkpt lat="49.830749" lon="5.167146"><ele>278.72</ele><time>2025-05-26T05:34:05Z</time></trkpt>
<trkpt lat="49.830702" lon="5.167809"><ele>282.74</ele><time>2025-05-26T05:34:07Z</time></trkpt>
<trkpt lat="49.830799" lon="5.168265"><ele>285.48</ele><time>2025-05-26T05:34:09Z</time></trkpt>
<trkpt lat="49.831032" lon="5.168625"><ele>287.8</ele><time>2025-05-26T05:34:11Z</time></trkpt>
<trkpt lat="49.831328" lon="5.168728"><ele>292.19</ele><time>2025-05-26T05:34:13Z</time></trkpt>
<trkpt lat="49.831906" lon="5.168786"><ele>301.61</ele><time>2025-05-26T05:34:15Z</time></trkpt>
<trkpt lat="49.832248" lon="5.168905"><ele>304.02</ele><time>2025-05-26T05:34:17Z</time></trkpt>
<trkpt lat="49.83245" lon="5.169096"><ele>302.82</ele><time>2025-05-26T05:34:19Z</time></trkpt>
<trkpt lat="49.832931" lon="5.169896"><ele>300.5</ele><time>2025-05-26T05:34:21Z</time></trkpt>
<trkpt lat="49.833203" lon="5.170109"><ele>302.21</ele><time>2025-05-26T05:34:23Z</time></trkpt>
<trkpt lat="49.833394" lon="5.170081"><ele>304.05</ele><time>2025-05-26T05:34:25Z</time></trkpt>
<trkpt lat="49.833663" lon="5.169694"><ele>310.76</ele><time>2025-05-26T05:34:27Z</time></trkpt>
<trkpt lat="49.833878" lon="5.169591"><ele>311.32</ele><time>2025-05-26T05:34:29Z</time></trkpt>
<trkpt lat="49.834127" lon="5.169576"><ele>309.97</ele><time>2025-05-26T05:34:31Z</time></trkpt>
<trkpt lat="49.834446" lon="5.169694"><ele>308.65</ele><time>2025-05-26T05:34:33Z</time></trkpt>
<trkpt lat="49.834672" lon="5.170007"><ele>308.02</ele><time>2025-05-26T05:34:35Z</time></trkpt>
<trkpt lat="49.834822" lon="5.170331"><ele>307.61</ele><time>2025-05-26T05:34:37Z</time></trkpt>
<trkpt lat="49.834899" lon="5.170662"><ele>307.91</ele><time>2025-05-26T05:34:39Z</time></trkpt>
<trkpt lat="49.83486" lon="5.171277"><ele>306.49</ele><time>2025-05-26T05:34:41Z</time></trkpt>
<trkpt lat="49.834775" lon="5.17221"><ele>304.82</ele><time>2025-05-26T05:34:43Z</time></trkpt>
<trkpt lat="49.834836" lon="5.172484"><ele>304.98</ele><time>2025-05-26T05:34:45Z</time></trkpt>
<trkpt lat="49.834971" lon="5.172684"><ele>305.73</ele><time>2025-05-26T05:34:47Z</time></trkpt>
<trkpt lat="49.835218" lon="5.172767"><ele>306.72</ele><time>2025-05-26T05:34:49Z</time></trkpt>
<trkpt lat="49.835422" lon="5.172637"><ele>306.5</ele><time>2025-05-26T05:34:51Z</time></trkpt>
<trkpt lat="49.83565" lon="5.17202"><ele>305.53</ele><time>2025-05-26T05:34:53Z</time></trkpt>
<trkpt lat="49.835768" lon="5.171793"><ele>306.34</ele><time>2025-05-26T05:34:55Z</time></trkpt>
<trkpt lat="49.835908" lon="5.171562"><ele>309.15</ele><time>2025-05-26T05:34:57Z</time></trkpt>
<trkpt lat="49.836084" lon="5.171419"><ele>311.54</ele><time>2025-05-26T05:34:59Z</time></trkpt>
<trkpt lat="49.836326" lon="5.171428"><ele>314.39</ele><time>2025-05-26T05:35:01Z</time></trkpt>
<trkpt lat="49.836534" lon="5.171645"><ele>314.97</ele><time>2025-05-26T05:35:03Z</time></trkpt>
<trkpt lat="49.836719" lon="5.172009"><ele>317.32</ele><time>2025-05-26T05:35:05Z</time></trkpt>
<trkpt lat="49.836883" lon="5.172812"><ele>318.39</ele><time>2025-05-26T05:35:07Z</time></trkpt>
<trkpt lat="49.836962" lon="5.173087"><ele>317.12</ele><time>2025-05-26T05:35:09Z</time></trkpt>
<trkpt lat="49.837052" lon="5.1732"><ele>317.42</ele><time>2025-05-26T05:35:11Z</time></trkpt>
<trkpt lat="49.837534" lon="5.173287"><ele>321.63</ele><time>2025-05-26T05:35:13Z</time></trkpt>
<trkpt lat="49.838158" lon="5.173512"><ele>323.11</ele><time>2025-05-26T05:35:15Z</time></trkpt>
<trkpt lat="49.838547" lon="5.173223"><ele>329.02</ele><time>2025-05-26T05:35:17Z</time></trkpt>
<trkpt lat="49.838786" lon="5.173117"><ele>331.65</ele><time>2025-05-26T05:35:19Z</time></trkpt>
<trkpt lat="49.83933" lon="5.17308"><ele>328.56</ele><time>2025-05-26T05:35:21Z</time></trkpt>
<trkpt lat="49.839463" lon="5.173009"><ele>327.33</ele><time>2025-05-26T05:35:23Z</time></trkpt>
<trkpt lat="49.839681" lon="5.172699"><ele>327.63</ele><time>2025-05-26T05:35:25Z</time></trkpt>
<trkpt lat="49.839931" lon="5.172521"><ele>329.74</ele><time>2025-05-26T05:35:27Z</time></trkpt>
<trkpt lat="49.840325" lon="5.172556"><ele>329.23</ele><time>2025-05-26T05:35:29Z</time></trkpt>
<trkpt lat="49.840797" lon="5.172511"><ele>331.79</ele><time>2025-05-26T05:35:31Z</time></trkpt>
<trkpt lat="49.840963" lon="5.172412"><ele>332.48</ele><time>2025-05-26T05:35:33Z</time></trkpt>
<trkpt lat="49.841151" lon="5.172241"><ele>332.94</ele><time>2025-05-26T05:35:35Z</time></trkpt>
<trkpt lat="49.841338" lon="5.172207"><ele>333.15</ele><time>2025-05-26T05:35:37Z</time></trkpt>
<trkpt lat="49.841453" lon="5.172252"><ele>333.67</ele><time>2025-05-26T05:35:39Z</time></trkpt>
<trkpt lat="49.84156" lon="5.17237"><ele>334.52</ele><time>2025-05-26T05:35:41Z</time></trkpt>
<trkpt lat="49.842481" lon="5.174473"><ele>334.66</ele><time>2025-05-26T05:35:43Z</time></trkpt>
<trkpt lat="49.842824" lon="5.174589"><ele>335.47</ele><time>2025-05-26T05:35:45Z</time></trkpt>
<trkpt lat="49.843251" lon="5.174696"><ele>333.64</ele><time>2025-05-26T05:35:47Z</time></trkpt>
<trkpt lat="49.843438" lon="5.174848"><ele>332.84</ele><time>2025-05-26T05:35:49Z</time></trkpt>
<trkpt lat="49.843562" lon="5.175048"><ele>332.47</ele><time>2025-05-26T05:35:51Z</time></trkpt>
<trkpt lat="49.843686" lon="5.175523"><ele>333.61</ele><time>2025-05-26T05:35:53Z</time></trkpt>
<trkpt lat="49.843838" lon="5.177067"><ele>336.54</ele><time>2025-05-26T05:35:55Z</time></trkpt>
<trkpt lat="49.843941" lon="5.177528"><ele>337.73</ele><time>2025-05-26T05:35:57Z</time></trkpt>
<trkpt lat="49.84406" lon="5.177761"><ele>338.89</ele><time>2025-05-26T05:35:59Z</time></trkpt>
<trkpt lat="49.844197" lon="5.177861"><ele>340.11</ele><time>2025-05-26T05:36:01Z</time></trkpt>
<trkpt lat="49.84435" lon="5.177817"><ele>342.41</ele><time>2025-05-26T05:36:03Z</time></trkpt>
<trkpt lat="49.844642" lon="5.17764"><ele>347.83</ele><time>2025-05-26T05:36:05Z</time></trkpt>
<trkpt lat="49.844769" lon="5.17768"><ele>348.93</ele><time>2025-05-26T05:36:07Z</time></trkpt>
<trkpt lat="49.844939" lon="5.177801"><ele>348.6</ele><time>2025-05-26T05:36:09Z</time></trkpt>
<trkpt lat="49.845564" lon="5.178322"><ele>347.15</ele><time>2025-05-26T05:36:11Z</time></trkpt>
<trkpt lat="49.845777" lon="5.178584"><ele>344.37</ele><time>2025-05-26T05:36:13Z</time></trkpt>
<trkpt lat="49.845912" lon="5.178707"><ele>342.24</ele><time>2025-05-26T05:36:15Z</time></trkpt>
<trkpt lat="49.846061" lon="5.178656"><ele>342.4</ele><time>2025-05-26T05:36:17Z</time></trkpt>
<trkpt lat="49.846164" lon="5.178511"><ele>343.87</ele><time>2025-05-26T05:36:19Z</time></trkpt>
<trkpt lat="49.846299" lon="5.178157"><ele>347.71</ele><time>2025-05-26T05:36:21Z</time></trkpt>
<trkpt lat="49.846439" lon="5.178008"><ele>347.58</ele><time>2025-05-26T05:36:23Z</time></trkpt>
<trkpt lat="49.846668" lon="5.177919"><ele>344.49</ele><time>2025-05-26T05:36:25Z</time></trkpt>
<trkpt lat="49.847061" lon="5.17803"><ele>342.18</ele><time>2025-05-26T05:36:27Z</time></trkpt>
<trkpt lat="49.847183" lon="5.177999"><ele>342.41</ele><time>2025-05-26T05:36:29Z</time></trkpt>
<trkpt lat="49.847273" lon="5.177828"><ele>343.79</ele><time>2025-05-26T05:36:31Z</time></trkpt>
<trkpt lat="49.847465" lon="5.177235"><ele>346.75</ele><time>2025-05-26T05:36:33Z</time></trkpt>
<trkpt lat="49.847664" lon="5.176827"><ele>346.59</ele><time>2025-05-26T05:36:35Z</time></trkpt>
<trkpt lat="49.848472" lon="5.175907"><ele>347.83</ele><time>2025-05-26T05:36:37Z</time></trkpt>
<trkpt lat="49.84877" lon="5.175658"><ele>350.89</ele><time>2025-05-26T05:36:39Z</time></trkpt>
<trkpt lat="49.849029" lon="5.175546"><ele>353.13</ele><time>2025-05-26T05:36:41Z</time></trkpt>
<trkpt lat="49.849949" lon="5.175407"><ele>362.89</ele><time>2025-05-26T05:36:43Z</time></trkpt>
<trkpt lat="49.850246" lon="5.17531"><ele>360.8</ele><time>2025-05-26T05:36:45Z</time></trkpt>
<trkpt lat="49.850379" lon="5.175194"><ele>358.44</ele><time>2025-05-26T05:36:47Z</time></trkpt>
<trkpt lat="49.850491" lon="5.175056"><ele>355.91</ele><time>2025-05-26T05:36:49Z</time></trkpt>
<trkpt lat="49.850609" lon="5.174815"><ele>356.29</ele><time>2025-05-26T05:36:51Z</time></trkpt>
<trkpt lat="49.850683" lon="5.174496"><ele>360.32</ele><time>2025-05-26T05:36:53Z</time></trkpt>
<trkpt lat="49.850715" lon="5.174281"><ele>363.17</ele><time>2025-05-26T05:36:55Z</time></trkpt>
<trkpt lat="49.85073" lon="5.173985"><ele>367.03</ele><time>2025-05-26T05:36:57Z</time></trkpt>
<trkpt lat="49.850564" lon="5.17221"><ele>374.96</ele><time>2025-05-26T05:36:59Z</time></trkpt>
<trkpt lat="49.850585" lon="5.171754"><ele>377.95</ele><time>2025-05-26T05:37:01Z</time></trkpt>
<trkpt lat="49.850712" lon="5.17118"><ele>380.45</ele><time>2025-05-26T05:37:03Z</time></trkpt>
<trkpt lat="49.850926" lon="5.170655"><ele>379.27</ele><time>2025-05-26T05:37:05Z</time></trkpt>
<trkpt lat="49.851233" lon="5.170175"><ele>376.35</ele><time>2025-05-26T05:37:07Z</time></trkpt>
<trkpt lat="49.851486" lon="5.169965"><ele>374.6</ele><time>2025-05-26T05:37:09Z</time></trkpt>
<trkpt lat="49.852793" lon="5.169571"><ele>370.37</ele><time>2025-05-26T05:37:11Z</time></trkpt>
<trkpt lat="49.853465" lon="5.169253"><ele>362.89</ele><time>2025-05-26T05:37:13Z</time></trkpt>
<trkpt lat="49.853588" lon="5.169177"><ele>362.17</ele><time>2025-05-26T05:37:15Z</time></trkpt>
<trkpt lat="49.853791" lon="5.168999"><ele>359.8</ele><time>2025-05-26T05:37:17Z</time></trkpt>
<trkpt lat="49.85441" lon="5.167834"><ele>362.02</ele><time>2025-05-26T05:37:19Z</time></trkpt>
<trkpt lat="49.854956" lon="5.166948"><ele>364.11</ele><time>2025-05-26T05:37:21Z</time></trkpt>
<trkpt lat="49.855427" lon="5.166266"><ele>374.42</ele><time>2025-05-26T05:37:23Z</time></trkpt>
<trkpt lat="49.856113" lon="5.165462"><ele>376.99</ele><time>2025-05-26T05:37:25Z</time></trkpt>
<trkpt lat="49.856786" lon="5.164816"><ele>380.49</ele><time>2025-05-26T05:37:27Z</time></trkpt>
<trkpt lat="49.857332" lon="5.164417"><ele>380.85</ele><time>2025-05-26T05:37:29Z</time></trkpt>
<trkpt lat="49.857591" lon="5.164287"><ele>377.69</ele><time>2025-05-26T05:37:31Z</time></trkpt>
<trkpt lat="49.857806" lon="5.164254"><ele>373.61</ele><time>2025-05-26T05:37:33Z</time></trkpt>
<trkpt lat="49.858082" lon="5.164318"><ele>373.14</ele><time>2025-05-26T05:37:35Z</time></trkpt>
<trkpt lat="49.859366" lon="5.165072"><ele>376.54</ele><time>2025-05-26T05:37:37Z</time></trkpt>
<trkpt lat="49.859543" lon="5.165153"><ele>377.34</ele><time>2025-05-26T05:37:39Z</time></trkpt>
<trkpt lat="49.859702" lon="5.165205"><ele>377.65</ele><time>2025-05-26T05:37:41Z</time></trkpt>
<trkpt lat="49.859901" lon="5.165184"><ele>376.73</ele><time>2025-05-26T05:37:43Z</time></trkpt>
<trkpt lat="49.860002" lon="5.165145"><ele>376.4</ele><time>2025-05-26T05:37:45Z</time></trkpt>
<trkpt lat="49.860147" lon="5.165029"><ele>375.1</ele><time>2025-05-26T05:37:47Z</time></trkpt>
<trkpt lat="49.861616" lon="5.163388"><ele>373.98</ele><time>2025-05-26T05:37:49Z</time></trkpt>
<trkpt lat="49.861785" lon="5.163217"><ele>373.99</ele><time>2025-05-26T05:37:51Z</time></trkpt>
<trkpt lat="49.861998" lon="5.163046"><ele>373.61</ele><time>2025-05-26T05:37:53Z</time></trkpt>
<trkpt lat="49.862213" lon="5.162969"><ele>372.07</ele><time>2025-05-26T05:37:55Z</time></trkpt>
<trkpt lat="49.862468" lon="5.162936"><ele>370.61</ele><time>2025-05-26T05:37:57Z</time></trkpt>
<trkpt lat="49.863336" lon="5.163125"><ele>371.0</ele><time>2025-05-26T05:37:59Z</time></trkpt>
<trkpt lat="49.863624" lon="5.16317"><ele>371.34</ele><time>2025-05-26T05:38:01Z</time></trkpt>
<trkpt lat="49.864113" lon="5.16325"><ele>368.63</ele><time>2025-05-26T05:38:03Z</time></trkpt>
<trkpt lat="49.864615" lon="5.163293"><ele>369.89</ele><time>2025-05-26T05:38:05Z</time></trkpt>
<trkpt lat="49.864629" lon="5.16338"><ele>369.72</ele><time>2025-05-26T05:38:08Z</time></trkpt>
<trkpt lat="49.864651" lon="5.163411"><ele>369.74</ele><time>2025-05-26T05:38:12Z</time></trkpt>
<trkpt lat="49.864708" lon="5.163427"><ele>370.19</ele><time>2025-05-26T05:38:15Z</time></trkpt>
<trkpt lat="49.864784" lon="5.163696"><ele>369.89</ele><time>2025-05-26T05:38:18Z</time></trkpt>
<trkpt lat="49.864649" lon="5.164612"><ele>372.5</ele><time>2025-05-26T05:38:22Z</time></trkpt>
<trkpt lat="49.864719" lon="5.165143"><ele>374.0</ele><time>2025-05-26T05:38:25Z</time></trkpt>
<trkpt lat="49.865096" lon="5.165732"><ele>375.85</ele><time>2025-05-26T05:38:28Z</time></trkpt>
<trkpt lat="49.865397" lon="5.165601"><ele>375.32</ele><time>2025-05-26T05:38:35Z</time></trkpt>
<trkpt lat="49.86572" lon="5.165585"><ele>375.68</ele><time>2025-05-26T05:38:41Z</time></trkpt>
<trkpt lat="49.866478" lon="5.16499"><ele>376.57</ele><time>2025-05-26T05:38:47Z</time></trkpt>
<trkpt lat="49.867197" lon="5.164632"><ele>379.26</ele><time>2025-05-26T05:38:53Z</time></trkpt>
<trkpt lat="49.867911" lon="5.164433"><ele>381.86</ele><time>2025-05-26T05:38:59Z</time></trkpt>
<trkpt lat="49.869074" lon="5.164606"><ele>379.88</ele><time>2025-05-26T05:39:05Z</time></trkpt>
<trkpt lat="49.869864" lon="5.164098"><ele>375.51</ele><time>2025-05-26T05:39:11Z</time></trkpt>
<trkpt lat="49.87013" lon="5.163784"><ele>376.93</ele><time>2025-05-26T05:39:17Z</time></trkpt>
<trkpt lat="49.870513" lon="5.162807"><ele>378.83</ele><time>2025-05-26T05:39:23Z</time></trkpt>
<trkpt lat="49.870638" lon="5.162416"><ele>380.3</ele><time>2025-05-26T05:39:29Z</time></trkpt>
<trkpt lat="49.870678" lon="5.162105"><ele>380.91</ele><time>2025-05-26T05:39:35Z</time></trkpt>
<trkpt lat="49.87078" lon="5.162134"><ele>380.93</ele><time>2025-05-26T05:39:37Z</time></trkpt>
<trkpt lat="49.870921" lon="5.162116"><ele>381.32</ele><time>2025-05-26T05:39:38Z</time></trkpt>
<trkpt lat="49.873169" lon="5.162006"><ele>382.68</ele><time>2025-05-26T05:39:45Z</time></trkpt>
<trkpt lat="49.876427" lon="5.161864"><ele>384.02</ele><time>2025-05-26T05:39:52Z</time></trkpt>
<trkpt lat="49.877358" lon="5.161821"><ele>383.15</ele><time>2025-05-26T05:39:59Z</time></trkpt>
<trkpt lat="49.877702" lon="5.161894"><ele>384.68</ele><time>2025-05-26T05:40:06Z</time></trkpt>
<trkpt lat="49.878169" lon="5.16208"><ele>388.2</ele><time>2025-05-26T05:40:13Z</time></trkpt>
<trkpt lat="49.878838" lon="5.162802"><ele>385.26</ele><time>2025-05-26T05:40:20Z</time></trkpt>
<trkpt lat="49.880949" lon="5.166141"><ele>393.94</ele><time>2025-05-26T05:40:27Z</time></trkpt>
<trkpt lat="49.881117" lon="5.166357"><ele>394.02</ele><time>2025-05-26T05:40:34Z</time></trkpt>
<trkpt lat="49.882421" lon="5.167333"><ele>397.32</ele><time>2025-05-26T05:40:41Z</time></trkpt>
<trkpt lat="49.883052" lon="5.1677"><ele>399.7</ele><time>2025-05-26T05:40:48Z</time></trkpt>
<trkpt lat="49.883153" lon="5.167738"><ele>399.91</ele><time>2025-05-26T05:40:55Z</time></trkpt>
<trkpt lat="49.883262" lon="5.167772"><ele>399.99</ele><time>2025-05-26T05:41:02Z</time></trkpt>
<trkpt lat="49.883586" lon="5.167848"><ele>399.77</ele><time>2025-05-26T05:41:09Z</time></trkpt>
<trkpt lat="49.883632" lon="5.168011"><ele>399.22</ele><time>2025-05-26T05:41:14Z</time></trkpt>
<trkpt lat="49.883647" lon="5.169644"><ele>397.77</ele><time>2025-05-26T05:41:19Z</time></trkpt>
<trkpt lat="49.883783" lon="5.170603"><ele>394.32</ele><time>2025-05-26T05:41:24Z</time></trkpt>
<trkpt lat="49.883851" lon="5.170828"><ele>394.0</ele><time>2025-05-26T05:41:29Z</time></trkpt>
<trkpt lat="49.883992" lon="5.17084"><ele>394.01</ele><time>2025-05-26T05:41:34Z</time></trkpt>
<trkpt lat="49.885339" lon="5.17156"><ele>398.14</ele><time>2025-05-26T05:41:39Z</time></trkpt>
<trkpt lat="49.886465" lon="5.172114"><ele>402.38</ele><time>2025-05-26T05:41:44Z</time></trkpt>
<trkpt lat="49.886497" lon="5.172786"><ele>404.03</ele><time>2025-05-26T05:41:47Z</time></trkpt>
<trkpt lat="49.886479" lon="5.173136"><ele>405.29</ele><time>2025-05-26T05:41:49Z</time></trkpt>
<trkpt lat="49.88644" lon="5.173455"><ele>406.16</ele><time>2025-05-26T05:41:52Z</time></trkpt>
<trkpt lat="49.886283" lon="5.174096"><ele>405.79</ele><time>2025-05-26T05:41:54Z</time></trkpt>
<trkpt lat="49.886242" lon="5.174164"><ele>405.41</ele><time>2025-05-26T05:41:57Z</time></trkpt>
<trkpt lat="49.886221" lon="5.174259"><ele>405.18</ele><time>2025-05-26T05:41:59Z</time></trkpt>
<trkpt lat="49.886212" lon="5.174605"><ele>405.46</ele><time>2025-05-26T05:42:02Z</time></trkpt>
<trkpt lat="49.886142" lon="5.174962"><ele>404.36</ele><time>2025-05-26T05:42:04Z</time></trkpt>
<trkpt lat="49.886497" lon="5.175212"><ele>405.16</ele><time>2025-05-26T05:42:09Z</time></trkpt>
<trkpt lat="49.88671" lon="5.175276"><ele>406.01</ele><time>2025-05-26T05:42:14Z</time></trkpt>
<trkpt lat="49.887163" lon="5.175286"><ele>406.76</ele><time>2025-05-26T05:42:18Z</time></trkpt>
<trkpt lat="49.88735" lon="5.175388"><ele>407.7</ele><time>2025-05-26T05:42:23Z</time></trkpt>
<trkpt lat="49.887801" lon="5.175576"><ele>413.26</ele><time>2025-05-26T05:42:28Z</time></trkpt>
<trkpt lat="49.88957" lon="5.176452"><ele>418.68</ele><time>2025-05-26T05:42:33Z</time></trkpt>
<trkpt lat="49.890144" lon="5.177013"><ele>424.39</ele><time>2025-05-26T05:42:37Z</time></trkpt>
<trkpt lat="49.890439" lon="5.17741"><ele>422.04</ele><time>2025-05-26T05:42:42Z</time></trkpt>
<trkpt lat="49.89131" lon="5.178904"><ele>429.36</ele><time>2025-05-26T05:42:47Z</time></trkpt>
<trkpt lat="49.891951" lon="5.180054"><ele>432.04</ele><time>2025-05-26T05:42:52Z</time></trkpt>
<trkpt lat="49.892277" lon="5.180584"><ele>431.92</ele><time>2025-05-26T05:42:56Z</time></trkpt>
<trkpt lat="49.892463" lon="5.18086"><ele>431.87</ele><time>2025-05-26T05:43:01Z</time></trkpt>
<trkpt lat="49.893077" lon="5.181624"><ele>437.3</ele><time>2025-05-26T05:43:06Z</time></trkpt>
<trkpt lat="49.893642" lon="5.182414"><ele>438.58</ele><time>2025-05-26T05:43:11Z</time></trkpt>
<trkpt lat="49.89416" lon="5.183178"><ele>444.4</ele><time>2025-05-26T05:43:15Z</time></trkpt>
<trkpt lat="49.894345" lon="5.1834"><ele>446.44</ele><time>2025-05-26T05:43:20Z</time></trkpt>
<trkpt lat="49.8967" lon="5.185896"><ele>439.53</ele><time>2025-05-26T05:43:25Z</time></trkpt>
<trkpt lat="49.898015" lon="5.187036"><ele>433.57</ele><time>2025-05-26T05:43:30Z</time></trkpt>
<trkpt lat="49.898375" lon="5.187379"><ele>432.43</ele><time>2025-05-26T05:43:34Z</time></trkpt>
<trkpt lat="49.8987" lon="5.187741"><ele>431.4</ele><time>2025-05-26T05:43:39Z</time></trkpt>
<trkpt lat="49.89962" lon="5.189084"><ele>425.0</ele><time>2025-05-26T05:43:44Z</time></trkpt>
<trkpt lat="49.900423" lon="5.189836"><ele>425.8</ele><time>2025-05-26T05:43:49Z</time></trkpt>
<trkpt lat="49.901057" lon="5.19067"><ele>426.11</ele><time>2025-05-26T05:43:53Z</time></trkpt>
<trkpt lat="49.902267" lon="5.192602"><ele>420.63</ele><time>2025-05-26T05:43:58Z</time></trkpt>
<trkpt lat="49.902619" lon="5.193455"><ele>419.42</ele><time>2025-05-26T05:44:03Z</time></trkpt>
<trkpt lat="49.903027" lon="5.19438"><ele>415.46</ele><time>2025-05-26T05:44:08Z</time></trkpt>
<trkpt lat="49.903808" lon="5.19572"><ele>414.7</ele><time>2025-05-26T05:44:12Z</time></trkpt>
<trkpt lat="49.905579" lon="5.19825"><ele>410.64</ele><time>2025-05-26T05:44:17Z</time></trkpt>
<trkpt lat="49.905713" lon="5.198516"><ele>410.43</ele><time>2025-05-26T05:44:22Z</time></trkpt>
<trkpt lat="49.905858" lon="5.199368"><ele>414.27</ele><time>2025-05-26T05:44:27Z</time></trkpt>
<trkpt lat="49.90594" lon="5.19962"><ele>415.11</ele><time>2025-05-26T05:44:31Z</time></trkpt>
<trkpt lat="49.906" lon="5.199706"><ele>415.3</ele><time>2025-05-26T05:44:36Z</time></trkpt>
<trkpt lat="49.906469" lon="5.199828"><ele>414.36</ele><time>2025-05-26T05:44:41Z</time></trkpt>
<trkpt lat="49.906669" lon="5.200036"><ele>414.13</ele><time>2025-05-26T05:44:46Z</time></trkpt>
<trkpt lat="49.906891" lon="5.200573"><ele>414.34</ele><time>2025-05-26T05:44:50Z</time></trkpt>
<trkpt lat="49.906878" lon="5.200685"><ele>414.13</ele><time>2025-05-26T05:44:51Z</time></trkpt>
<trkpt lat="49.906898" lon="5.200732"><ele>413.8</ele><time>2025-05-26T05:44:52Z</time></trkpt>
<trkpt lat="49.906931" lon="5.200759"><ele>413.4</ele><time>2025-05-26T05:44:53Z</time></trkpt>
<trkpt lat="49.906968" lon="5.200759"><ele>413.24</ele><time>2025-05-26T05:44:54Z</time></trkpt>
<trkpt lat="49.907" lon="5.200731"><ele>413.29</ele><time>2025-05-26T05:44:55Z</time></trkpt>
<trkpt lat="49.907259" lon="5.201718"><ele>411.87</ele><time>2025-05-26T05:44:56Z</time></trkpt>
<trkpt lat="49.90728" lon="5.201921"><ele>411.79</ele><time>2025-05-26T05:44:57Z</time></trkpt>
<trkpt lat="49.908795" lon="5.201446"><ele>407.34</ele><time>2025-05-26T05:45:02Z</time></trkpt>
<trkpt lat="49.908878" lon="5.201444"><ele>407.39</ele><time>2025-05-26T05:45:06Z</time></trkpt>
<trkpt lat="49.908955" lon="5.201493"><ele>407.27</ele><time>2025-05-26T05:45:11Z</time></trkpt>
<trkpt lat="49.909032" lon="5.201627"><ele>407.68</ele><time>2025-05-26T05:45:15Z</time></trkpt>
<trkpt lat="49.909421" lon="5.202606"><ele>409.35</ele><time>2025-05-26T05:45:20Z</time></trkpt>
<trkpt lat="49.909556" lon="5.202897"><ele>410.57</ele><time>2025-05-26T05:45:25Z</time></trkpt>
<trkpt lat="49.910052" lon="5.203636"><ele>414.0</ele><time>2025-05-26T05:45:29Z</time></trkpt>
<trkpt lat="49.910145" lon="5.20383"><ele>414.0</ele><time>2025-05-26T05:45:34Z</time></trkpt>
<trkpt lat="49.910459" lon="5.204606"><ele>419.23</ele><time>2025-05-26T05:45:38Z</time></trkpt>
<trkpt lat="49.910647" lon="5.204943"><ele>420.06</ele><time>2025-05-26T05:45:43Z</time></trkpt>
<trkpt lat="49.910842" lon="5.205198"><ele>422.72</ele><time>2025-05-26T05:45:47Z</time></trkpt>
<trkpt lat="49.911135" lon="5.205385"><ele>423.44</ele><time>2025-05-26T05:45:52Z</time></trkpt>
<trkpt lat="49.911919" lon="5.205814"><ele>425.77</ele><time>2025-05-26T05:45:56Z</time></trkpt>
<trkpt lat="49.912426" lon="5.206178"><ele>429.17</ele><time>2025-05-26T05:46:01Z</time></trkpt>
<trkpt lat="49.912652" lon="5.206455"><ele>429.45</ele><time>2025-05-26T05:46:05Z</time></trkpt>
<trkpt lat="49.913458" lon="5.207572"><ele>430.0</ele><time>2025-05-26T05:46:10Z</time></trkpt>
<trkpt lat="49.913719" lon="5.207877"><ele>429.61</ele><time>2025-05-26T05:46:14Z</time></trkpt>
<trkpt lat="49.914016" lon="5.208117"><ele>428.76</ele><time>2025-05-26T05:46:19Z</time></trkpt>
<trkpt lat="49.914863" lon="5.208706"><ele>430.85</ele><time>2025-05-26T05:46:23Z</time></trkpt>
<trkpt lat="49.915633" lon="5.209188"><ele>433.69</ele><time>2025-05-26T05:46:28Z</time></trkpt>
<trkpt lat="49.916332" lon="5.2095"><ele>436.2</ele><time>2025-05-26T05:46:33Z</time></trkpt>
<trkpt lat="49.918648" lon="5.210333"><ele>439.43</ele><time>2025-05-26T05:46:37Z</time></trkpt>
<trkpt lat="49.919308" lon="5.210542"><ele>433.37</ele><time>2025-05-26T05:46:42Z</time></trkpt>
<trkpt lat="49.920924" lon="5.210899"><ele>434.4</ele><time>2025-05-26T05:46:46Z</time></trkpt>
<trkpt lat="49.922606" lon="5.210818"><ele>439.75</ele><time>2025-05-26T05:46:51Z</time></trkpt>
<trkpt lat="49.92287" lon="5.210899"><ele>437.32</ele><time>2025-05-26T05:46:55Z</time></trkpt>
<trkpt lat="49.9234" lon="5.211175"><ele>436.89</ele><time>2025-05-26T05:47:00Z</time></trkpt>
<trkpt lat="49.923872" lon="5.211484"><ele>439.6</ele><time>2025-05-26T05:47:04Z</time></trkpt>
<trkpt lat="49.925342" lon="5.212794"><ele>453.75</ele><time>2025-05-26T05:47:09Z</time></trkpt>
<trkpt lat="49.926004" lon="5.213405"><ele>452.06</ele><time>2025-05-26T05:47:13Z</time></trkpt>
<trkpt lat="49.926768" lon="5.214263"><ele>447.82</ele><time>2025-05-26T05:47:18Z</time></trkpt>
<trkpt lat="49.928655" lon="5.215559"><ele>442.47</ele><time>2025-05-26T05:47:22Z</time></trkpt>
<trkpt lat="49.931393" lon="5.217328"><ele>435.12</ele><time>2025-05-26T05:47:27Z</time></trkpt>
<trkpt lat="49.933034" lon="5.218514"><ele>437.16</ele><time>2025-05-26T05:47:32Z</time></trkpt>
<trkpt lat="49.933781" lon="5.219127"><ele>434.65</ele><time>2025-05-26T05:47:36Z</time></trkpt>
<trkpt lat="49.934111" lon="5.219309"><ele>432.87</ele><time>2025-05-26T05:47:41Z</time></trkpt>
<trkpt lat="49.935193" lon="5.219707"><ele>435.09</ele><time>2025-05-26T05:47:45Z</time></trkpt>
<trkpt lat="49.936664" lon="5.220303"><ele>428.19</ele><time>2025-05-26T05:47:50Z</time></trkpt>
<trkpt lat="49.936989" lon="5.220502"><ele>431.45</ele><time>2025-05-26T05:47:54Z</time></trkpt>
<trkpt lat="49.938194" lon="5.221462"><ele>424.61</ele><time>2025-05-26T05:47:59Z</time></trkpt>
<trkpt lat="49.938764" lon="5.22181"><ele>423.25</ele><time>2025-05-26T05:48:03Z</time></trkpt>
<trkpt lat="49.94011" lon="5.222499"><ele>421.02</ele><time>2025-05-26T05:48:08Z</time></trkpt>
<trkpt lat="49.941983" lon="5.223332"><ele>412.99</ele><time>2025-05-26T05:48:12Z</time></trkpt>
<trkpt lat="49.94221" lon="5.223527"><ele>412.33</ele><time>2025-05-26T05:48:17Z</time></trkpt>
<trkpt lat="49.942312" lon="5.223709"><ele>410.09</ele><time>2025-05-26T05:48:21Z</time></trkpt>
<trkpt lat="49.942525" lon="5.224582"><ele>406.91</ele><time>2025-05-26T05:48:26Z</time></trkpt>
<trkpt lat="49.942632" lon="5.224833"><ele>406.13</ele><time>2025-05-26T05:48:31Z</time></trkpt>
<trkpt lat="49.942889" lon="5.225218"><ele>403.48</ele><time>2025-05-26T05:48:35Z</time></trkpt>
<trkpt lat="49.943099" lon="5.225343"><ele>401.04</ele><time>2025-05-26T05:48:40Z</time></trkpt>
<trkpt lat="49.943323" lon="5.225368"><ele>400.05</ele><time>2025-05-26T05:48:44Z</time></trkpt>
<trkpt lat="49.943662" lon="5.225343"><ele>399.26</ele><time>2025-05-26T05:48:49Z</time></trkpt>
<trkpt lat="49.94504" lon="5.224926"><ele>391.11</ele><time>2025-05-26T05:48:53Z</time></trkpt>
<trkpt lat="49.94522" lon="5.224845"><ele>391.35</ele><time>2025-05-26T05:48:58Z</time></trkpt>
<trkpt lat="49.94541" lon="5.224682"><ele>391.41</ele><time>2025-05-26T05:49:02Z</time></trkpt>
<trkpt lat="49.945543" lon="5.224465"><ele>391.07</ele><time>2025-05-26T05:49:07Z</time></trkpt>
<trkpt lat="49.945842" lon="5.224174"><ele>390.05</ele><time>2025-05-26T05:49:11Z</time></trkpt>
<trkpt lat="49.947577" lon="5.22277"><ele>376.97</ele><time>2025-05-26T05:49:16Z</time></trkpt>
<trkpt lat="49.948461" lon="5.222226"><ele>375.01</ele><time>2025-05-26T05:49:20Z</time></trkpt>
<trkpt lat="49.949361" lon="5.221715"><ele>371.6</ele><time>2025-05-26T05:49:25Z</time></trkpt>
<trkpt lat="49.949496" lon="5.221705"><ele>371.07</ele><time>2025-05-26T05:49:30Z</time></trkpt>
<trkpt lat="49.949822" lon="5.22095"><ele>368.42</ele><time>2025-05-26T05:49:33Z</time></trkpt>
<trkpt lat="49.950089" lon="5.220376"><ele>367.11</ele><time>2025-05-26T05:49:37Z</time></trkpt>
<trkpt lat="49.950246" lon="5.219949"><ele>367.18</ele><time>2025-05-26T05:49:41Z</time></trkpt>
<trkpt lat="49.950298" lon="5.219683"><ele>368.08</ele><time>2025-05-26T05:49:45Z</time></trkpt>
<trkpt lat="49.950129" lon="5.218661"><ele>371.31</ele><time>2025-05-26T05:49:48Z</time></trkpt>
<trkpt lat="49.950058" lon="5.217622"><ele>371.98</ele><time>2025-05-26T05:49:52Z</time></trkpt>
<trkpt lat="49.949995" lon="5.217136"><ele>373.59</ele><time>2025-05-26T05:49:56Z</time></trkpt>
<trkpt lat="49.949802" lon="5.215939"><ele>378.02</ele><time>2025-05-26T05:50:00Z</time></trkpt>
<trkpt lat="49.950278" lon="5.214851"><ele>381.0</ele><time>2025-05-26T05:50:02Z</time></trkpt>
<trkpt lat="49.950373" lon="5.214392"><ele>382.72</ele><time>2025-05-26T05:50:04Z</time></trkpt>
<trkpt lat="49.950309" lon="5.213194"><ele>387.67</ele><time>2025-05-26T05:50:06Z</time></trkpt>
<trkpt lat="49.950304" lon="5.212421"><ele>391.26</ele><time>2025-05-26T05:50:09Z</time></trkpt>
<trkpt lat="49.950454" lon="5.211817"><ele>393.02</ele><time>2025-05-26T05:50:11Z</time></trkpt>
<trkpt lat="49.95055" lon="5.211553"><ele>393.02</ele><time>2025-05-26T05:50:13Z</time></trkpt>
<trkpt lat="49.951022" lon="5.210833"><ele>392.68</ele><time>2025-05-26T05:50:15Z</time></trkpt>
<trkpt lat="49.951223" lon="5.210413"><ele>391.49</ele><time>2025-05-26T05:50:17Z</time></trkpt>
<trkpt lat="49.951402" lon="5.210117"><ele>390.94</ele><time>2025-05-26T05:50:20Z</time></trkpt>
<trkpt lat="49.951575" lon="5.209923"><ele>389.2</ele><time>2025-05-26T05:50:22Z</time></trkpt>
<trkpt lat="49.952547" lon="5.209163"><ele>375.83</ele><time>2025-05-26T05:50:24Z</time></trkpt>
<trkpt lat="49.953075" lon="5.208796"><ele>373.67</ele><time>2025-05-26T05:50:26Z</time></trkpt>
<trkpt lat="49.95344" lon="5.208645"><ele>373.12</ele><time>2025-05-26T05:50:28Z</time></trkpt>
<trkpt lat="49.954638" lon="5.20839"><ele>366.2</ele><time>2025-05-26T05:50:31Z</time></trkpt>
<trkpt lat="49.954922" lon="5.208302"><ele>365.25</ele><time>2025-05-26T05:50:33Z</time></trkpt>
<trkpt lat="49.955209" lon="5.208095"><ele>365.0</ele><time>2025-05-26T05:50:35Z</time></trkpt>
<trkpt lat="49.955373" lon="5.20793"><ele>365.19</ele><time>2025-05-26T05:50:37Z</time></trkpt>
<trkpt lat="49.955756" lon="5.207359"><ele>364.77</ele><time>2025-05-26T05:50:40Z</time></trkpt>
<trkpt lat="49.956026" lon="5.207116"><ele>364.27</ele><time>2025-05-26T05:50:42Z</time></trkpt>
<trkpt lat="49.956213" lon="5.207042"><ele>365.99</ele><time>2025-05-26T05:50:44Z</time></trkpt>
<trkpt lat="49.956412" lon="5.207002"><ele>368.75</ele><time>2025-05-26T05:50:46Z</time></trkpt>
<trkpt lat="49.95688" lon="5.206966"><ele>369.3</ele><time>2025-05-26T05:50:48Z</time></trkpt>
<trkpt lat="49.957113" lon="5.206976"><ele>365.4</ele><time>2025-05-26T05:50:51Z</time></trkpt>
<trkpt lat="49.957357" lon="5.207033"><ele>362.49</ele><time>2025-05-26T05:50:53Z</time></trkpt>
<trkpt lat="49.958819" lon="5.20765"><ele>376.13</ele><time>2025-05-26T05:50:55Z</time></trkpt>
<trkpt lat="49.959088" lon="5.207742"><ele>375.3</ele><time>2025-05-26T05:50:57Z</time></trkpt>
<trkpt lat="49.959178" lon="5.207741"><ele>375.19</ele><time>2025-05-26T05:50:59Z</time></trkpt>
<trkpt lat="49.95938" lon="5.207666"><ele>374.27</ele><time>2025-05-26T05:51:02Z</time></trkpt>
<trkpt lat="49.959485" lon="5.20758"><ele>374.22</ele><time>2025-05-26T05:51:04Z</time></trkpt>
<trkpt lat="49.959589" lon="5.207462"><ele>374.16</ele><time>2025-05-26T05:51:06Z</time></trkpt>
<trkpt lat="49.960445" lon="5.206262"><ele>372.27</ele><time>2025-05-26T05:51:08Z</time></trkpt>
<trkpt lat="49.960713" lon="5.20585"><ele>370.1</ele><time>2025-05-26T05:51:10Z</time></trkpt>
<trkpt lat="49.960857" lon="5.205573"><ele>368.22</ele><time>2025-05-26T05:51:13Z</time></trkpt>
<trkpt lat="49.960954" lon="5.205331"><ele>367.27</ele><time>2025-05-26T05:51:15Z</time></trkpt>
<trkpt lat="49.961053" lon="5.205015"><ele>366.05</ele><time>2025-05-26T05:51:17Z</time></trkpt>
<trkpt lat="49.961151" lon="5.204602"><ele>363.21</ele><time>2025-05-26T05:51:19Z</time></trkpt>
<trkpt lat="49.961193" lon="5.204353"><ele>361.58</ele><time>2025-05-26T05:51:21Z</time></trkpt>
<trkpt lat="49.96121" lon="5.204164"><ele>360.63</ele><time>2025-05-26T05:51:24Z</time></trkpt>
<trkpt lat="49.961226" lon="5.202834"><ele>354.58</ele><time>2025-05-26T05:51:26Z</time></trkpt>
<trkpt lat="49.961244" lon="5.202424"><ele>353.82</ele><time>2025-05-26T05:51:28Z</time></trkpt>
<trkpt lat="49.961277" lon="5.202134"><ele>352.86</ele><time>2025-05-26T05:51:30Z</time></trkpt>
<trkpt lat="49.961352" lon="5.20181"><ele>353.31</ele><time>2025-05-26T05:51:32Z</time></trkpt>
<trkpt lat="49.96148" lon="5.201425"><ele>352.9</ele><time>2025-05-26T05:51:35Z</time></trkpt>
<trkpt lat="49.961628" lon="5.201089"><ele>352.69</ele><time>2025-05-26T05:51:37Z</time></trkpt>
<trkpt lat="49.961911" lon="5.200552"><ele>352.0</ele><time>2025-05-26T05:51:39Z</time></trkpt>
<trkpt lat="49.962131" lon="5.200225"><ele>352.53</ele><time>2025-05-26T05:51:41Z</time></trkpt>
<trkpt lat="49.962385" lon="5.199907"><ele>352.38</ele><time>2025-05-26T05:51:43Z</time></trkpt>
<trkpt lat="49.962623" lon="5.19972"><ele>351.14</ele><time>2025-05-26T05:51:46Z</time></trkpt>
<trkpt lat="49.962849" lon="5.199637"><ele>350.8</ele><time>2025-05-26T05:51:48Z</time></trkpt>
<trkpt lat="49.963091" lon="5.199639"><ele>349.15</ele><time>2025-05-26T05:51:50Z</time></trkpt>
<trkpt lat="49.963723" lon="5.199733"><ele>342.48</ele><time>2025-05-26T05:51:52Z</time></trkpt>
<trkpt lat="49.963899" lon="5.199746"><ele>341.54</ele><time>2025-05-26T05:51:54Z</time></trkpt>
<trkpt lat="49.964017" lon="5.199731"><ele>340.49</ele><time>2025-05-26T05:51:57Z</time></trkpt>
<trkpt lat="49.964134" lon="5.199685"><ele>340.01</ele><time>2025-05-26T05:51:59Z</time></trkpt>
<trkpt lat="49.964686" lon="5.199173"><ele>337.52</ele><time>2025-05-26T05:52:01Z</time></trkpt>
<trkpt lat="49.964863" lon="5.199099"><ele>335.34</ele><time>2025-05-26T05:52:03Z</time></trkpt>
<trkpt lat="49.965075" lon="5.199065"><ele>332.92</ele><time>2025-05-26T05:52:05Z</time></trkpt>
<trkpt lat="49.963788" lon="5.201644"><ele>335.88</ele><time>2025-05-26T05:52:11Z</time></trkpt>
<trkpt lat="49.963699" lon="5.201915"><ele>334.95</ele><time>2025-05-26T05:52:16Z</time></trkpt>
<trkpt lat="49.963628" lon="5.202158"><ele>334.95</ele><time>2025-05-26T05:52:21Z</time></trkpt>
<trkpt lat="49.963587" lon="5.202372"><ele>335.32</ele><time>2025-05-26T05:52:26Z</time></trkpt>
<trkpt lat="49.963549" lon="5.202902"><ele>338.55</ele><time>2025-05-26T05:52:31Z</time></trkpt>
<trkpt lat="49.96357" lon="5.203343"><ele>339.53</ele><time>2025-05-26T05:52:36Z</time></trkpt>
<trkpt lat="49.963657" lon="5.203809"><ele>338.4</ele><time>2025-05-26T05:52:41Z</time></trkpt>
<trkpt lat="49.964157" lon="5.205945"><ele>344.48</ele><time>2025-05-26T05:52:46Z</time></trkpt>
<trkpt lat="49.964296" lon="5.206355"><ele>344.52</ele><time>2025-05-26T05:52:51Z</time></trkpt>
<trkpt lat="49.964475" lon="5.206752"><ele>345.38</ele><time>2025-05-26T05:52:56Z</time></trkpt>
<trkpt lat="49.967366" lon="5.211374"><ele>364.41</ele><time>2025-05-26T05:53:01Z</time></trkpt>
<trkpt lat="49.96821" lon="5.21277"><ele>369.42</ele><time>2025-05-26T05:53:06Z</time></trkpt>
<trkpt lat="49.968386" lon="5.213102"><ele>369.6</ele><time>2025-05-26T05:53:11Z</time></trkpt>
<trkpt lat="49.968596" lon="5.212914"><ele>367.14</ele><time>2025-05-26T05:53:22Z</time></trkpt>
<trkpt lat="49.969328" lon="5.212447"><ele>367.08</ele><time>2025-05-26T05:53:34Z</time></trkpt>
<trkpt lat="49.969933" lon="5.211893"><ele>365.04</ele><time>2025-05-26T05:53:45Z</time></trkpt>
<trkpt lat="49.970923" lon="5.211198"><ele>360.99</ele><time>2025-05-26T05:53:56Z</time></trkpt>
<trkpt lat="49.971701" lon="5.21079"><ele>362.61</ele><time>2025-05-26T05:54:08Z</time></trkpt>
<trkpt lat="49.971595" lon="5.210329"><ele>362.86</ele><time>2025-05-26T05:54:10Z</time></trkpt>
<trkpt lat="49.971338" lon="5.208945"><ele>357.61</ele><time>2025-05-26T05:54:12Z</time></trkpt>
<trkpt lat="49.971263" lon="5.208457"><ele>354.16</ele><time>2025-05-26T05:54:15Z</time></trkpt>
<trkpt lat="49.971272" lon="5.208063"><ele>353.11</ele><time>2025-05-26T05:54:17Z</time></trkpt>
<trkpt lat="49.971378" lon="5.207438"><ele>350.14</ele><time>2025-05-26T05:54:20Z</time></trkpt>
<trkpt lat="49.971423" lon="5.206933"><ele>348.76</ele><time>2025-05-26T05:54:22Z</time></trkpt>
<trkpt lat="49.971406" lon="5.206235"><ele>348.82</ele><time>2025-05-26T05:54:24Z</time></trkpt>
<trkpt lat="49.971344" lon="5.205163"><ele>350.09</ele><time>2025-05-26T05:54:27Z</time></trkpt>
<trkpt lat="49.971381" lon="5.204766"><ele>351.81</ele><time>2025-05-26T05:54:29Z</time></trkpt>
<trkpt lat="49.971498" lon="5.204267"><ele>351.61</ele><time>2025-05-26T05:54:31Z</time></trkpt>
<trkpt lat="49.972074" lon="5.202766"><ele>343.62</ele><time>2025-05-26T05:54:34Z</time></trkpt>
<trkpt lat="49.972197" lon="5.20236"><ele>342.92</ele><time>2025-05-26T05:54:36Z</time></trkpt>
<trkpt lat="49.972674" lon="5.199276"><ele>341.54</ele><time>2025-05-26T05:54:39Z</time></trkpt>
<trkpt lat="49.972749" lon="5.198555"><ele>339.9</ele><time>2025-05-26T05:54:41Z</time></trkpt>
<trkpt lat="49.972745" lon="5.197988"><ele>335.42</ele><time>2025-05-26T05:54:43Z</time></trkpt>
<trkpt lat="49.972619" lon="5.196067"><ele>333.71</ele><time>2025-05-26T05:54:46Z</time></trkpt>
<trkpt lat="49.972621" lon="5.195708"><ele>333.27</ele><time>2025-05-26T05:54:48Z</time></trkpt>
<trkpt lat="49.9727" lon="5.19534"><ele>332.52</ele><time>2025-05-26T05:54:50Z</time></trkpt>
<trkpt lat="49.972794" lon="5.195051"><ele>332.59</ele><time>2025-05-26T05:54:53Z</time></trkpt>
<trkpt lat="49.97289" lon="5.194812"><ele>331.38</ele><time>2025-05-26T05:54:55Z</time></trkpt>
<trkpt lat="49.972957" lon="5.194687"><ele>330.39</ele><time>2025-05-26T05:54:58Z</time></trkpt>
<trkpt lat="49.973036" lon="5.194594"><ele>328.88</ele><time>2025-05-26T05:55:00Z</time></trkpt>
<trkpt lat="49.973146" lon="5.194527"><ele>327.31</ele><time>2025-05-26T05:55:02Z</time></trkpt>
<trkpt lat="49.97352" lon="5.194475"><ele>324.44</ele><time>2025-05-26T05:55:05Z</time></trkpt>
<trkpt lat="49.974055" lon="5.194442"><ele>326.18</ele><time>2025-05-26T05:55:07Z</time></trkpt>
<trkpt lat="49.974223" lon="5.194414"><ele>327.64</ele><time>2025-05-26T05:55:09Z</time></trkpt>
<trkpt lat="49.974375" lon="5.194356"><ele>329.85</ele><time>2025-05-26T05:55:12Z</time></trkpt>
<trkpt lat="49.974763" lon="5.194088"><ele>334.98</ele><time>2025-05-26T05:55:14Z</time></trkpt>
<trkpt lat="49.975012" lon="5.193719"><ele>333.75</ele><time>2025-05-26T05:55:17Z</time></trkpt>
<trkpt lat="49.975147" lon="5.193416"><ele>330.24</ele><time>2025-05-26T05:55:19Z</time></trkpt>
<trkpt lat="49.975254" lon="5.192981"><ele>326.52</ele><time>2025-05-26T05:55:21Z</time></trkpt>
<trkpt lat="49.975332" lon="5.192358"><ele>329.7</ele><time>2025-05-26T05:55:24Z</time></trkpt>
<trkpt lat="49.975316" lon="5.191888"><ele>331.76</ele><time>2025-05-26T05:55:26Z</time></trkpt>
<trkpt lat="49.975209" lon="5.191407"><ele>332.67</ele><time>2025-05-26T05:55:28Z</time></trkpt>
<trkpt lat="49.974997" lon="5.190652"><ele>337.3</ele><time>2025-05-26T05:55:31Z</time></trkpt>
<trkpt lat="49.974871" lon="5.190199"><ele>337.72</ele><time>2025-05-26T05:55:33Z</time></trkpt>
<trkpt lat="49.974798" lon="5.189868"><ele>336.74</ele><time>2025-05-26T05:55:36Z</time></trkpt>
<trkpt lat="49.974736" lon="5.189262"><ele>334.92</ele><time>2025-05-26T05:55:38Z</time></trkpt>
<trkpt lat="49.974754" lon="5.188971"><ele>335.4</ele><time>2025-05-26T05:55:40Z</time></trkpt>
<trkpt lat="49.974803" lon="5.188771"><ele>335.25</ele><time>2025-05-26T05:55:43Z</time></trkpt>
<trkpt lat="49.974856" lon="5.188631"><ele>335.0</ele><time>2025-05-26T05:55:45Z</time></trkpt>
<trkpt lat="49.975006" lon="5.188449"><ele>334.55</ele><time>2025-05-26T05:55:47Z</time></trkpt>
<trkpt lat="49.975317" lon="5.188197"><ele>335.05</ele><time>2025-05-26T05:55:50Z</time></trkpt>
<trkpt lat="49.975647" lon="5.187895"><ele>335.81</ele><time>2025-05-26T05:55:52Z</time></trkpt>
<trkpt lat="49.975985" lon="5.18739"><ele>332.39</ele><time>2025-05-26T05:55:55Z</time></trkpt>
<trkpt lat="49.976108" lon="5.187098"><ele>331.01</ele><time>2025-05-26T05:55:57Z</time></trkpt>
<trkpt lat="49.976386" lon="5.186699"><ele>329.24</ele><time>2025-05-26T05:55:59Z</time></trkpt>
<trkpt lat="49.976769" lon="5.186292"><ele>329.12</ele><time>2025-05-26T05:56:02Z</time></trkpt>
<trkpt lat="49.976963" lon="5.185975"><ele>328.07</ele><time>2025-05-26T05:56:04Z</time></trkpt>
<trkpt lat="49.977657" lon="5.184159"><ele>325.12</ele><time>2025-05-26T05:56:06Z</time></trkpt>
<trkpt lat="49.977919" lon="5.18402"><ele>326.22</ele><time>2025-05-26T05:56:11Z</time></trkpt>
<trkpt lat="49.978218" lon="5.183788"><ele>325.65</ele><time>2025-05-26T05:56:16Z</time></trkpt>
<trkpt lat="49.978663" lon="5.183261"><ele>325.46</ele><time>2025-05-26T05:56:20Z</time></trkpt>
<trkpt lat="49.978858" lon="5.183098"><ele>326.16</ele><time>2025-05-26T05:56:25Z</time></trkpt>
<trkpt lat="49.979072" lon="5.183008"><ele>324.12</ele><time>2025-05-26T05:56:30Z</time></trkpt>
<trkpt lat="49.979351" lon="5.182992"><ele>322.58</ele><time>2025-05-26T05:56:34Z</time></trkpt>
<trkpt lat="49.979855" lon="5.183012"><ele>326.18</ele><time>2025-05-26T05:56:39Z</time></trkpt>
<trkpt lat="49.980308" lon="5.18298"><ele>327.83</ele><time>2025-05-26T05:56:44Z</time></trkpt>
<trkpt lat="49.980904" lon="5.182738"><ele>327.48</ele><time>2025-05-26T05:56:48Z</time></trkpt>
<trkpt lat="49.982668" lon="5.181174"><ele>326.47</ele><time>2025-05-26T05:56:53Z</time></trkpt>
<trkpt lat="49.982927" lon="5.181005"><ele>324.65</ele><time>2025-05-26T05:56:58Z</time></trkpt>
<trkpt lat="49.983216" lon="5.180938"><ele>323.02</ele><time>2025-05-26T05:57:02Z</time></trkpt>
<trkpt lat="49.983362" lon="5.180943"><ele>323.23</ele><time>2025-05-26T05:57:07Z</time></trkpt>
<trkpt lat="49.983505" lon="5.181"><ele>324.93</ele><time>2025-05-26T05:57:12Z</time></trkpt>
<trkpt lat="49.983629" lon="5.181127"><ele>327.2</ele><time>2025-05-26T05:57:16Z</time></trkpt>
<trkpt lat="49.983716" lon="5.181286"><ele>329.3</ele><time>2025-05-26T05:57:21Z</time></trkpt>
<trkpt lat="49.983782" lon="5.181488"><ele>330.76</ele><time>2025-05-26T05:57:25Z</time></trkpt>
<trkpt lat="49.983935" lon="5.182463"><ele>332.7</ele><time>2025-05-26T05:57:30Z</time></trkpt>
<trkpt lat="49.984068" lon="5.182894"><ele>330.8</ele><time>2025-05-26T05:57:35Z</time></trkpt>
<trkpt lat="49.984343" lon="5.183361"><ele>329.18</ele><time>2025-05-26T05:57:39Z</time></trkpt>
<trkpt lat="49.985093" lon="5.184297"><ele>330.22</ele><time>2025-05-26T05:57:44Z</time></trkpt>
<trkpt lat="49.985554" lon="5.184836"><ele>329.85</ele><time>2025-05-26T05:57:49Z</time></trkpt>
<trkpt lat="49.985801" lon="5.185247"><ele>328.77</ele><time>2025-05-26T05:57:53Z</time></trkpt>
<trkpt lat="49.986002" lon="5.185999"><ele>331.64</ele><time>2025-05-26T05:57:58Z</time></trkpt>
<trkpt lat="49.986757" lon="5.189799"><ele>336.37</ele><time>2025-05-26T05:58:03Z</time></trkpt>
<trkpt lat="49.986835" lon="5.190047"><ele>334.79</ele><time>2025-05-26T05:58:07Z</time></trkpt>
<trkpt lat="49.98692" lon="5.190242"><ele>335.9</ele><time>2025-05-26T05:58:12Z</time></trkpt>
<trkpt lat="49.987074" lon="5.19048"><ele>339.17</ele><time>2025-05-26T05:58:17Z</time></trkpt>
<trkpt lat="49.987401" lon="5.190724"><ele>342.44</ele><time>2025-05-26T05:58:21Z</time></trkpt>
<trkpt lat="49.989972" lon="5.191747"><ele>360.66</ele><time>2025-05-26T05:58:26Z</time></trkpt>
<trkpt lat="49.990597" lon="5.191861"><ele>362.3</ele><time>2025-05-26T05:58:31Z</time></trkpt>
<trkpt lat="49.995867" lon="5.192608"><ele>362.1</ele><time>2025-05-26T05:58:35Z</time></trkpt>
<trkpt lat="49.996271" lon="5.192568"><ele>362.23</ele><time>2025-05-26T05:58:40Z</time></trkpt>
<trkpt lat="49.996561" lon="5.192497"><ele>364.25</ele><time>2025-05-26T05:58:44Z</time></trkpt>
<trkpt lat="49.997088" lon="5.192229"><ele>362.41</ele><time>2025-05-26T05:58:49Z</time></trkpt>
<trkpt lat="49.999698" lon="5.190758"><ele>386.54</ele><time>2025-05-26T05:58:54Z</time></trkpt>
<trkpt lat="50.000061" lon="5.190589"><ele>388.57</ele><time>2025-05-26T05:58:58Z</time></trkpt>
<trkpt lat="50.000784" lon="5.190444"><ele>391.95</ele><time>2025-05-26T05:59:03Z</time></trkpt>
<trkpt lat="50.001117" lon="5.19043"><ele>387.9</ele><time>2025-05-26T05:59:08Z</time></trkpt>
<trkpt lat="50.001402" lon="5.190457"><ele>387.79</ele><time>2025-05-26T05:59:12Z</time></trkpt>
<trkpt lat="50.001972" lon="5.190662"><ele>390.16</ele><time>2025-05-26T05:59:17Z</time></trkpt>
<trkpt lat="50.002272" lon="5.190856"><ele>387.02</ele><time>2025-05-26T05:59:22Z</time></trkpt>
<trkpt lat="50.004821" lon="5.193143"><ele>399.89</ele><time>2025-05-26T05:59:26Z</time></trkpt>
<trkpt lat="50.005812" lon="5.194009"><ele>409.92</ele><time>2025-05-26T05:59:31Z</time></trkpt>
<trkpt lat="50.009404" lon="5.197274"><ele>424.6</ele><time>2025-05-26T05:59:36Z</time></trkpt>
<trkpt lat="50.011226" lon="5.198919"><ele>424.59</ele><time>2025-05-26T05:59:40Z</time></trkpt>
<trkpt lat="50.011374" lon="5.199115"><ele>424.05</ele><time>2025-05-26T05:59:45Z</time></trkpt>
<trkpt lat="50.011431" lon="5.199223"><ele>424.44</ele><time>2025-05-26T05:59:50Z</time></trkpt>
<trkpt lat="50.011444" lon="5.199352"><ele>424.8</ele><time>2025-05-26T05:59:55Z</time></trkpt>
<trkpt lat="50.011504" lon="5.199442"><ele>425.0</ele><time>2025-05-26T06:00:01Z</time></trkpt>
<trkpt lat="50.011589" lon="5.199458"><ele>425.05</ele><time>2025-05-26T06:00:07Z</time></trkpt>
<trkpt lat="50.011631" lon="5.199432"><ele>425.03</ele><time>2025-05-26T06:00:12Z</time></trkpt>
<trkpt lat="50.011827" lon="5.199438"><ele>426.18</ele><time>2025-05-26T06:00:18Z</time></trkpt>
<trkpt lat="50.016248" lon="5.203444"><ele>448.8</ele><time>2025-05-26T06:00:24Z</time></trkpt>
<trkpt lat="50.017834" lon="5.204859"><ele>449.89</ele><time>2025-05-26T06:00:29Z</time></trkpt>
<trkpt lat="50.018399" lon="5.205357"><ele>449.58</ele><time>2025-05-26T06:00:35Z</time></trkpt>
<trkpt lat="50.018655" lon="5.205499"><ele>447.8</ele><time>2025-05-26T06:00:41Z</time></trkpt>
<trkpt lat="50.018772" lon="5.205538"><ele>447.94</ele><time>2025-05-26T06:00:46Z</time></trkpt>
<trkpt lat="50.018914" lon="5.205552"><ele>447.99</ele><time>2025-05-26T06:00:52Z</time></trkpt>
<trkpt lat="50.01912" lon="5.205455"><ele>447.64</ele><time>2025-05-26T06:00:58Z</time></trkpt>
<trkpt lat="50.01934" lon="5.205291"><ele>446.45</ele><time>2025-05-26T06:01:03Z</time></trkpt>
<trkpt lat="50.019493" lon="5.205117"><ele>445.25</ele><time>2025-05-26T06:01:09Z</time></trkpt>
<trkpt lat="50.020117" lon="5.203324"><ele>440.57</ele><time>2025-05-26T06:01:15Z</time></trkpt>
<trkpt lat="50.020366" lon="5.20294"><ele>440.02</ele><time>2025-05-26T06:01:20Z</time></trkpt>
<trkpt lat="50.020528" lon="5.202801"><ele>438.39</ele><time>2025-05-26T06:01:26Z</time></trkpt>
<trkpt lat="50.020807" lon="5.202673"><ele>436.38</ele><time>2025-05-26T06:01:32Z</time></trkpt>
<trkpt lat="50.020992" lon="5.202614"><ele>435.06</ele><time>2025-05-26T06:01:37Z</time></trkpt>
<trkpt lat="50.025191" lon="5.202806"><ele>425.31</ele><time>2025-05-26T06:01:43Z</time></trkpt>
<trkpt lat="50.025585" lon="5.202874"><ele>425.0</ele><time>2025-05-26T06:01:49Z</time></trkpt>
<trkpt lat="50.025881" lon="5.203103"><ele>424.97</ele><time>2025-05-26T06:01:55Z</time></trkpt>
<trkpt lat="50.026113" lon="5.203468"><ele>423.99</ele><time>2025-05-26T06:02:00Z</time></trkpt>
<trkpt lat="50.027141" lon="5.205405"><ele>415.39</ele><time>2025-05-26T06:02:06Z</time></trkpt>
<trkpt lat="50.027389" lon="5.205933"><ele>411.64</ele><time>2025-05-26T06:02:12Z</time></trkpt>
<trkpt lat="50.027551" lon="5.206154"><ele>410.79</ele><time>2025-05-26T06:02:17Z</time></trkpt>
<trkpt lat="50.027762" lon="5.206299"><ele>409.42</ele><time>2025-05-26T06:02:23Z</time></trkpt>
<trkpt lat="50.030445" lon="5.206784"><ele>393.65</ele><time>2025-05-26T06:02:29Z</time></trkpt>
<trkpt lat="50.035672" lon="5.207681"><ele>425.1</ele><time>2025-05-26T06:02:34Z</time></trkpt>
<trkpt lat="50.039867" lon="5.208361"><ele>424.85</ele><time>2025-05-26T06:02:40Z</time></trkpt>
<trkpt lat="50.052419" lon="5.210504"><ele>395.47</ele><time>2025-05-26T06:02:46Z</time></trkpt>
<trkpt lat="50.053387" lon="5.210637"><ele>401.45</ele><time>2025-05-26T06:02:51Z</time></trkpt>
<trkpt lat="50.053628" lon="5.210651"><ele>402.85</ele><time>2025-05-26T06:02:57Z</time></trkpt>
<trkpt lat="50.053924" lon="5.210629"><ele>405.39</ele><time>2025-05-26T06:03:03Z</time></trkpt>
<trkpt lat="50.054423" lon="5.210522"><ele>406.12</ele><time>2025-05-26T06:03:08Z</time></trkpt>
<trkpt lat="50.054677" lon="5.21042"><ele>406.06</ele><time>2025-05-26T06:03:14Z</time></trkpt>
<trkpt lat="50.055228" lon="5.210141"><ele>405.27</ele><time>2025-05-26T06:03:20Z</time></trkpt>
<trkpt lat="50.058397" lon="5.20817"><ele>385.36</ele><time>2025-05-26T06:03:25Z</time></trkpt>
<trkpt lat="50.066142" lon="5.203412"><ele>379.89</ele><time>2025-05-26T06:03:31Z</time></trkpt>
<trkpt lat="50.06647" lon="5.203288"><ele>379.05</ele><time>2025-05-26T06:03:37Z</time></trkpt>
<trkpt lat="50.066734" lon="5.203236"><ele>379.11</ele><time>2025-05-26T06:03:42Z</time></trkpt>
<trkpt lat="50.06873" lon="5.203081"><ele>368.02</ele><time>2025-05-26T06:03:48Z</time></trkpt>
<trkpt lat="50.069096" lon="5.203015"><ele>366.4</ele><time>2025-05-26T06:03:54Z</time></trkpt>
<trkpt lat="50.069329" lon="5.202911"><ele>365.93</ele><time>2025-05-26T06:03:59Z</time></trkpt>
<trkpt lat="50.069536" lon="5.202751"><ele>365.43</ele><time>2025-05-26T06:04:05Z</time></trkpt>
<trkpt lat="50.069746" lon="5.202477"><ele>364.82</ele><time>2025-05-26T06:04:11Z</time></trkpt>
<trkpt lat="50.069902" lon="5.202182"><ele>363.27</ele><time>2025-05-26T06:04:17Z</time></trkpt>
<trkpt lat="50.070006" lon="5.201891"><ele>360.74</ele><time>2025-05-26T06:04:22Z</time></trkpt>
<trkpt lat="50.070074" lon="5.201558"><ele>358.6</ele><time>2025-05-26T06:04:28Z</time></trkpt>
<trkpt lat="50.070185" lon="5.199688"><ele>351.96</ele><time>2025-05-26T06:04:34Z</time></trkpt>
<trkpt lat="50.070249" lon="5.199284"><ele>351.27</ele><time>2025-05-26T06:04:39Z</time></trkpt>
<trkpt lat="50.070352" lon="5.198923"><ele>349.66</ele><time>2025-05-26T06:04:45Z</time></trkpt>
<trkpt lat="50.07047" lon="5.198644"><ele>348.42</ele><time>2025-05-26T06:04:51Z</time></trkpt>
<trkpt lat="50.070611" lon="5.19841"><ele>347.13</ele><time>2025-05-26T06:04:56Z</time></trkpt>
<trkpt lat="50.07079" lon="5.19825"><ele>346.62</ele><time>2025-05-26T06:05:02Z</time></trkpt>
<trkpt lat="50.070995" lon="5.198147"><ele>346.71</ele><time>2025-05-26T06:05:08Z</time></trkpt>
<trkpt lat="50.071201" lon="5.198109"><ele>346.1</ele><time>2025-05-26T06:05:13Z</time></trkpt>
<trkpt lat="50.071946" lon="5.198064"><ele>341.93</ele><time>2025-05-26T06:05:19Z</time></trkpt>
<trkpt lat="50.072538" lon="5.198081"><ele>340.0</ele><time>2025-05-26T06:05:25Z</time></trkpt>
<trkpt lat="50.072746" lon="5.198139"><ele>340.0</ele><time>2025-05-26T06:05:30Z</time></trkpt>
<trkpt lat="50.07302" lon="5.198263"><ele>339.35</ele><time>2025-05-26T06:05:36Z</time></trkpt>
<trkpt lat="50.073521" lon="5.198584"><ele>334.06</ele><time>2025-05-26T06:05:42Z</time></trkpt>
<trkpt lat="50.073735" lon="5.198758"><ele>333.71</ele><time>2025-05-26T06:05:47Z</time></trkpt>
<trkpt lat="50.073898" lon="5.198942"><ele>334.0</ele><time>2025-05-26T06:05:53Z</time></trkpt>
<trkpt lat="50.074046" lon="5.199181"><ele>333.95</ele><time>2025-05-26T06:05:59Z</time></trkpt>
<trkpt lat="50.074188" lon="5.199523"><ele>332.4</ele><time>2025-05-26T06:06:04Z</time></trkpt>
<trkpt lat="50.074322" lon="5.200025"><ele>329.99</ele><time>2025-05-26T06:06:10Z</time></trkpt>
<trkpt lat="50.074472" lon="5.200757"><ele>329.3</ele><time>2025-05-26T06:06:16Z</time></trkpt>
<trkpt lat="50.074558" lon="5.201301"><ele>329.23</ele><time>2025-05-26T06:06:21Z</time></trkpt>
<trkpt lat="50.0746" lon="5.201696"><ele>329.88</ele><time>2025-05-26T06:06:27Z</time></trkpt>
<trkpt lat="50.074673" lon="5.202904"><ele>328.58</ele><time>2025-05-26T06:06:33Z</time></trkpt>
<trkpt lat="50.074773" lon="5.204046"><ele>321.19</ele><time>2025-05-26T06:06:38Z</time></trkpt>
<trkpt lat="50.07497" lon="5.205583"><ele>320.34</ele><time>2025-05-26T06:06:44Z</time></trkpt>
<trkpt lat="50.075041" lon="5.205928"><ele>318.2</ele><time>2025-05-26T06:06:50Z</time></trkpt>
<trkpt lat="50.075106" lon="5.206133"><ele>317.41</ele><time>2025-05-26T06:06:56Z</time></trkpt>
<trkpt lat="50.07519" lon="5.206315"><ele>316.67</ele><time>2025-05-26T06:07:01Z</time></trkpt>
<trkpt lat="50.075358" lon="5.206585"><ele>314.5</ele><time>2025-05-26T06:07:07Z</time></trkpt>
<trkpt lat="50.076268" lon="5.207576"><ele>312.17</ele><time>2025-05-26T06:07:13Z</time></trkpt>
<trkpt lat="50.076405" lon="5.207805"><ele>310.82</ele><time>2025-05-26T06:07:18Z</time></trkpt>
<trkpt lat="50.076618" lon="5.208293"><ele>307.08</ele><time>2025-05-26T06:07:24Z</time></trkpt>
<trkpt lat="50.076768" lon="5.208765"><ele>304.07</ele><time>2025-05-26T06:07:30Z</time></trkpt>
<trkpt lat="50.076845" lon="5.209175"><ele>302.25</ele><time>2025-05-26T06:07:35Z</time></trkpt>
<trkpt lat="50.076878" lon="5.209469"><ele>301.43</ele><time>2025-05-26T06:07:41Z</time></trkpt>
<trkpt lat="50.076935" lon="5.210338"><ele>297.78</ele><time>2025-05-26T06:07:47Z</time></trkpt>
<trkpt lat="50.077023" lon="5.210952"><ele>296.88</ele><time>2025-05-26T06:07:52Z</time></trkpt>
<trkpt lat="50.077148" lon="5.211525"><ele>292.4</ele><time>2025-05-26T06:07:58Z</time></trkpt>
<trkpt lat="50.077256" lon="5.211816"><ele>289.04</ele><time>2025-05-26T06:08:04Z</time></trkpt>
<trkpt lat="50.077403" lon="5.212075"><ele>286.26</ele><time>2025-05-26T06:08:09Z</time></trkpt>
<trkpt lat="50.078074" lon="5.212898"><ele>280.41</ele><time>2025-05-26T06:08:15Z</time></trkpt>
<trkpt lat="50.07834" lon="5.213304"><ele>281.26</ele><time>2025-05-26T06:08:21Z</time></trkpt>
<trkpt lat="50.078449" lon="5.213504"><ele>279.99</ele><time>2025-05-26T06:08:26Z</time></trkpt>
<trkpt lat="50.07878" lon="5.214237"><ele>274.85</ele><time>2025-05-26T06:08:32Z</time></trkpt>
<trkpt lat="50.078928" lon="5.214504"><ele>272.5</ele><time>2025-05-26T06:08:38Z</time></trkpt>
<trkpt lat="50.080419" lon="5.216503"><ele>266.2</ele><time>2025-05-26T06:08:43Z</time></trkpt>
<trkpt lat="50.080928" lon="5.217234"><ele>264.0</ele><time>2025-05-26T06:08:49Z</time></trkpt>
<trkpt lat="50.081038" lon="5.21747"><ele>264.0</ele><time>2025-05-26T06:08:55Z</time></trkpt>
<trkpt lat="50.081093" lon="5.217683"><ele>263.34</ele><time>2025-05-26T06:09:00Z</time></trkpt>
<trkpt lat="50.081716" lon="5.220522"><ele>250.12</ele><time>2025-05-26T06:09:06Z</time></trkpt>
<trkpt lat="50.081796" lon="5.220707"><ele>250.0</ele><time>2025-05-26T06:09:12Z</time></trkpt>
<trkpt lat="50.081911" lon="5.220857"><ele>250.0</ele><time>2025-05-26T06:09:17Z</time></trkpt>
<trkpt lat="50.082478" lon="5.221234"><ele>247.24</ele><time>2025-05-26T06:09:23Z</time></trkpt>
<trkpt lat="50.088315" lon="5.224958"><ele>234.56</ele><time>2025-05-26T06:09:29Z</time></trkpt>
<trkpt lat="50.089915" lon="5.225962"><ele>237.32</ele><time>2025-05-26T06:09:35Z</time></trkpt>
<trkpt lat="50.090114" lon="5.226132"><ele>239.63</ele><time>2025-05-26T06:09:40Z</time></trkpt>
<trkpt lat="50.09028" lon="5.226333"><ele>242.04</ele><time>2025-05-26T06:09:46Z</time></trkpt>
<trkpt lat="50.090382" lon="5.226529"><ele>243.37</ele><time>2025-05-26T06:09:52Z</time></trkpt>
<trkpt lat="50.090439" lon="5.226734"><ele>243.91</ele><time>2025-05-26T06:09:57Z</time></trkpt>
<trkpt lat="50.090484" lon="5.22702"><ele>244.64</ele><time>2025-05-26T06:10:03Z</time></trkpt>
<trkpt lat="50.090714" lon="5.229433"><ele>252.87</ele><time>2025-05-26T06:10:09Z</time></trkpt>
<trkpt lat="50.090882" lon="5.230523"><ele>256.37</ele><time>2025-05-26T06:10:14Z</time></trkpt>
<trkpt lat="50.090996" lon="5.231012"><ele>257.44</ele><time>2025-05-26T06:10:20Z</time></trkpt>
<trkpt lat="50.091115" lon="5.231328"><ele>258.03</ele><time>2025-05-26T06:10:26Z</time></trkpt>
<trkpt lat="50.091263" lon="5.231622"><ele>259.93</ele><time>2025-05-26T06:10:31Z</time></trkpt>
<trkpt lat="50.091423" lon="5.231861"><ele>261.12</ele><time>2025-05-26T06:10:37Z</time></trkpt>
<trkpt lat="50.091647" lon="5.232086"><ele>261.89</ele><time>2025-05-26T06:10:43Z</time></trkpt>
<trkpt lat="50.091869" lon="5.232245"><ele>264.27</ele><time>2025-05-26T06:10:48Z</time></trkpt>
<trkpt lat="50.092078" lon="5.232361"><ele>266.94</ele><time>2025-05-26T06:10:54Z</time></trkpt>
<trkpt lat="50.092332" lon="5.232467"><ele>269.72</ele><time>2025-05-26T06:11:00Z</time></trkpt>
<trkpt lat="50.0926" lon="5.232533"><ele>271.88</ele><time>2025-05-26T06:11:05Z</time></trkpt>
<trkpt lat="50.09287" lon="5.232555"><ele>273.66</ele><time>2025-05-26T06:11:11Z</time></trkpt>
<trkpt lat="50.09318" lon="5.23254"><ele>274.08</ele><time>2025-05-26T06:11:17Z</time></trkpt>
<trkpt lat="50.093763" lon="5.232457"><ele>274.0</ele><time>2025-05-26T06:11:22Z</time></trkpt>
<trkpt lat="50.094164" lon="5.232365"><ele>272.53</ele><time>2025-05-26T06:11:28Z</time></trkpt>
<trkpt lat="50.094872" lon="5.232138"><ele>271.7</ele><time>2025-05-26T06:11:34Z</time></trkpt>
<trkpt lat="50.09883" lon="5.230971"><ele>283.46</ele><time>2025-05-26T06:11:39Z</time></trkpt>
<trkpt lat="50.099152" lon="5.230894"><ele>284.39</ele><time>2025-05-26T06:11:45Z</time></trkpt>
<trkpt lat="50.099371" lon="5.230872"><ele>284.28</ele><time>2025-05-26T06:11:51Z</time></trkpt>
<trkpt lat="50.099614" lon="5.230882"><ele>283.13</ele><time>2025-05-26T06:11:57Z</time></trkpt>
<trkpt lat="50.099986" lon="5.230964"><ele>278.63</ele><time>2025-05-26T06:12:02Z</time></trkpt>
<trkpt lat="50.105497" lon="5.233575"><ele>260.18</ele><time>2025-05-26T06:12:08Z</time></trkpt>
<trkpt lat="50.106303" lon="5.234204"><ele>257.02</ele><time>2025-05-26T06:12:14Z</time></trkpt>
<trkpt lat="50.109429" lon="5.237719"><ele>239.48</ele><time>2025-05-26T06:12:19Z</time></trkpt>
<trkpt lat="50.110888" lon="5.239377"><ele>245.76</ele><time>2025-05-26T06:12:25Z</time></trkpt>
<trkpt lat="50.115699" lon="5.244835"><ele>257.1</ele><time>2025-05-26T06:12:31Z</time></trkpt>
<trkpt lat="50.116231" lon="5.245385"><ele>258.95</ele><time>2025-05-26T06:12:36Z</time></trkpt>
<trkpt lat="50.116889" lon="5.24594"><ele>256.67</ele><time>2025-05-26T06:12:42Z</time></trkpt>
<trkpt lat="50.119407" lon="5.247928"><ele>255.48</ele><time>2025-05-26T06:12:48Z</time></trkpt>
<trkpt lat="50.119672" lon="5.248011"><ele>254.86</ele><time>2025-05-26T06:12:53Z</time></trkpt>
<trkpt lat="50.120277" lon="5.247984"><ele>250.74</ele><time>2025-05-26T06:12:59Z</time></trkpt>
<trkpt lat="50.120617" lon="5.248048"><ele>251.44</ele><time>2025-05-26T06:13:05Z</time></trkpt>
<trkpt lat="50.120764" lon="5.248128"><ele>252.37</ele><time>2025-05-26T06:13:10Z</time></trkpt>
<trkpt lat="50.120884" lon="5.248237"><ele>252.47</ele><time>2025-05-26T06:13:16Z</time></trkpt>
<trkpt lat="50.121033" lon="5.248485"><ele>252.87</ele><time>2025-05-26T06:13:22Z</time></trkpt>
<trkpt lat="50.121111" lon="5.248719"><ele>253.39</ele><time>2025-05-26T06:13:27Z</time></trkpt>
<trkpt lat="50.121227" lon="5.249332"><ele>254.35</ele><time>2025-05-26T06:13:33Z</time></trkpt>
<trkpt lat="50.121286" lon="5.249531"><ele>254.57</ele><time>2025-05-26T06:13:39Z</time></trkpt>
<trkpt lat="50.122355" lon="5.251722"><ele>256.82</ele><time>2025-05-26T06:13:44Z</time></trkpt>
<trkpt lat="50.123118" lon="5.253218"><ele>260.13</ele><time>2025-05-26T06:13:50Z</time></trkpt>
<trkpt lat="50.123171" lon="5.253496"><ele>260.76</ele><time>2025-05-26T06:13:56Z</time></trkpt>
<trkpt lat="50.123157" lon="5.25357"><ele>261.12</ele><time>2025-05-26T06:14:00Z</time></trkpt>
<trkpt lat="50.123162" lon="5.253657"><ele>261.5</ele><time>2025-05-26T06:14:05Z</time></trkpt>
<trkpt lat="50.123207" lon="5.253764"><ele>261.71</ele><time>2025-05-26T06:14:09Z</time></trkpt>
<trkpt lat="50.123249" lon="5.253802"><ele>261.5</ele><time>2025-05-26T06:14:14Z</time></trkpt>
<trkpt lat="50.123321" lon="5.253808"><ele>260.83</ele><time>2025-05-26T06:14:18Z</time></trkpt>
<trkpt lat="50.123362" lon="5.253791"><ele>260.55</ele><time>2025-05-26T06:14:23Z</time></trkpt>
<trkpt lat="50.123419" lon="5.253719"><ele>260.08</ele><time>2025-05-26T06:14:27Z</time></trkpt>
<trkpt lat="50.123439" lon="5.253596"><ele>259.58</ele><time>2025-05-26T06:14:32Z</time></trkpt>
<trkpt lat="50.12354" lon="5.253379"><ele>259.04</ele><time>2025-05-26T06:14:36Z</time></trkpt>
<trkpt lat="50.125166" lon="5.251912"><ele>263.26</ele><time>2025-05-26T06:14:41Z</time></trkpt>
<trkpt lat="50.125314" lon="5.251753"><ele>264.95</ele><time>2025-05-26T06:14:45Z</time></trkpt>
<trkpt lat="50.125478" lon="5.251518"><ele>266.29</ele><time>2025-05-26T06:14:50Z</time></trkpt>
<trkpt lat="50.125614" lon="5.251234"><ele>267.21</ele><time>2025-05-26T06:14:54Z</time></trkpt>
<trkpt lat="50.125716" lon="5.250948"><ele>267.67</ele><time>2025-05-26T06:14:59Z</time></trkpt>
<trkpt lat="50.125777" lon="5.250654"><ele>268.26</ele><time>2025-05-26T06:15:03Z</time></trkpt>
<trkpt lat="50.125822" lon="5.250112"><ele>269.86</ele><time>2025-05-26T06:15:08Z</time></trkpt>
<trkpt lat="50.125827" lon="5.249737"><ele>271.82</ele><time>2025-05-26T06:15:12Z</time></trkpt>
<trkpt lat="50.126072" lon="5.243444"><ele>291.66</ele><time>2025-05-26T06:15:17Z</time></trkpt>
<trkpt lat="50.126099" lon="5.243068"><ele>292.91</ele><time>2025-05-26T06:15:21Z</time></trkpt>
<trkpt lat="50.126152" lon="5.242734"><ele>294.61</ele><time>2025-05-26T06:15:26Z</time></trkpt>
<trkpt lat="50.126233" lon="5.242437"><ele>297.1</ele><time>2025-05-26T06:15:30Z</time></trkpt>
<trkpt lat="50.126332" lon="5.242177"><ele>298.75</ele><time>2025-05-26T06:15:35Z</time></trkpt>
<trkpt lat="50.126454" lon="5.241941"><ele>300.23</ele><time>2025-05-26T06:15:39Z</time></trkpt>
<trkpt lat="50.126586" lon="5.241744"><ele>300.71</ele><time>2025-05-26T06:15:44Z</time></trkpt>
<trkpt lat="50.13403" lon="5.23116"><ele>297.0</ele><time>2025-05-26T06:15:48Z</time></trkpt>
<trkpt lat="50.139312" lon="5.223645"><ele>285.72</ele><time>2025-05-26T06:15:53Z</time></trkpt>
<trkpt lat="50.139963" lon="5.222775"><ele>282.98</ele><time>2025-05-26T06:15:57Z</time></trkpt>
<trkpt lat="50.140215" lon="5.222488"><ele>280.95</ele><time>2025-05-26T06:16:02Z</time></trkpt>
<trkpt lat="50.140615" lon="5.222081"><ele>279.28</ele><time>2025-05-26T06:16:06Z</time></trkpt>
<trkpt lat="50.140884" lon="5.221853"><ele>277.12</ele><time>2025-05-26T06:16:11Z</time></trkpt>
<trkpt lat="50.141546" lon="5.221394"><ele>271.45</ele><time>2025-05-26T06:16:15Z</time></trkpt>
<trkpt lat="50.142017" lon="5.221153"><ele>270.74</ele><time>2025-05-26T06:16:20Z</time></trkpt>
<trkpt lat="50.142493" lon="5.220969"><ele>267.54</ele><time>2025-05-26T06:16:24Z</time></trkpt>
<trkpt lat="50.14536" lon="5.220139"><ele>255.5</ele><time>2025-05-26T06:16:28Z</time></trkpt>
<trkpt lat="50.146622" lon="5.219779"><ele>252.75</ele><time>2025-05-26T06:16:33Z</time></trkpt>
<trkpt lat="50.146884" lon="5.219781"><ele>254.14</ele><time>2025-05-26T06:16:37Z</time></trkpt>
<trkpt lat="50.147106" lon="5.219836"><ele>255.11</ele><time>2025-05-26T06:16:42Z</time></trkpt>
<trkpt lat="50.147334" lon="5.21997"><ele>255.17</ele><time>2025-05-26T06:16:46Z</time></trkpt>
<trkpt lat="50.147773" lon="5.220331"><ele>255.19</ele><time>2025-05-26T06:16:51Z</time></trkpt>
<trkpt lat="50.147903" lon="5.220401"><ele>255.78</ele><time>2025-05-26T06:16:55Z</time></trkpt>
<trkpt lat="50.148029" lon="5.220427"><ele>257.05</ele><time>2025-05-26T06:17:00Z</time></trkpt>
<trkpt lat="50.148662" lon="5.220456"><ele>251.79</ele><time>2025-05-26T06:17:04Z</time></trkpt>
<trkpt lat="50.149954" lon="5.220467"><ele>243.93</ele><time>2025-05-26T06:17:09Z</time></trkpt>
<trkpt lat="50.150288" lon="5.220586"><ele>241.0</ele><time>2025-05-26T06:17:13Z</time></trkpt>
<trkpt lat="50.150546" lon="5.220767"><ele>241.0</ele><time>2025-05-26T06:17:18Z</time></trkpt>
<trkpt lat="50.150838" lon="5.220912"><ele>240.38</ele><time>2025-05-26T06:17:22Z</time></trkpt>
<trkpt lat="50.151148" lon="5.220986"><ele>236.06</ele><time>2025-05-26T06:17:27Z</time></trkpt>
<trkpt lat="50.15146" lon="5.221008"><ele>228.45</ele><time>2025-05-26T06:17:31Z</time></trkpt>
<trkpt lat="50.153614" lon="5.220668"><ele>212.79</ele><time>2025-05-26T06:17:36Z</time></trkpt>
<trkpt lat="50.153867" lon="5.220658"><ele>210.55</ele><time>2025-05-26T06:17:40Z</time></trkpt>
<trkpt lat="50.153978" lon="5.220694"><ele>210.5</ele><time>2025-05-26T06:17:45Z</time></trkpt>
<trkpt lat="50.154255" lon="5.220861"><ele>211.32</ele><time>2025-05-26T06:17:49Z</time></trkpt>
<trkpt lat="50.15435" lon="5.22094"><ele>211.28</ele><time>2025-05-26T06:17:54Z</time></trkpt>
<trkpt lat="50.154449" lon="5.221073"><ele>210.29</ele><time>2025-05-26T06:17:58Z</time></trkpt>
<trkpt lat="50.154641" lon="5.221402"><ele>210.27</ele><time>2025-05-26T06:18:03Z</time></trkpt>
<trkpt lat="50.154918" lon="5.221952"><ele>210.33</ele><time>2025-05-26T06:18:07Z</time></trkpt>
<trkpt lat="50.155057" lon="5.222133"><ele>209.91</ele><time>2025-05-26T06:18:12Z</time></trkpt>
<trkpt lat="50.155291" lon="5.222217"><ele>205.83</ele><time>2025-05-26T06:18:16Z</time></trkpt>
<trkpt lat="50.155619" lon="5.222273"><ele>200.22</ele><time>2025-05-26T06:18:21Z</time></trkpt>
<trkpt lat="50.156043" lon="5.2225"><ele>197.0</ele><time>2025-05-26T06:18:25Z</time></trkpt>
<trkpt lat="50.156207" lon="5.222544"><ele>196.45</ele><time>2025-05-26T06:18:30Z</time></trkpt>
<trkpt lat="50.15655" lon="5.222494"><ele>194.29</ele><time>2025-05-26T06:18:34Z</time></trkpt>
<trkpt lat="50.156755" lon="5.222525"><ele>191.9</ele><time>2025-05-26T06:18:39Z</time></trkpt>
<trkpt lat="50.157007" lon="5.222687"><ele>189.4</ele><time>2025-05-26T06:18:43Z</time></trkpt>
<trkpt lat="50.157705" lon="5.223001"><ele>187.79</ele><time>2025-05-26T06:18:48Z</time></trkpt>
<trkpt lat="50.15771" lon="5.223105"><ele>187.55</ele><time>2025-05-26T06:18:53Z</time></trkpt>
<trkpt lat="50.157728" lon="5.22315"><ele>187.2</ele><time>2025-05-26T06:18:58Z</time></trkpt>
<trkpt lat="50.157784" lon="5.223204"><ele>186.44</ele><time>2025-05-26T06:19:03Z</time></trkpt>
<trkpt lat="50.157874" lon="5.223175"><ele>186.18</ele><time>2025-05-26T06:19:09Z</time></trkpt>
<trkpt lat="50.157911" lon="5.223098"><ele>186.04</ele><time>2025-05-26T06:19:14Z</time></trkpt>
<trkpt lat="50.158413" lon="5.22342"><ele>186.91</ele><time>2025-05-26T06:19:19Z</time></trkpt>
<trkpt lat="50.158513" lon="5.223454"><ele>186.72</ele><time>2025-05-26T06:19:24Z</time></trkpt>
<trkpt lat="50.159091" lon="5.223489"><ele>187.29</ele><time>2025-05-26T06:19:30Z</time></trkpt>
<trkpt lat="50.159867" lon="5.223468"><ele>189.77</ele><time>2025-05-26T06:19:35Z</time></trkpt>
<trkpt lat="50.160278" lon="5.223376"><ele>187.99</ele><time>2025-05-26T06:19:40Z</time></trkpt>
<trkpt lat="50.160536" lon="5.223292"><ele>185.21</ele><time>2025-05-26T06:19:45Z</time></trkpt>
<trkpt lat="50.161252" lon="5.222938"><ele>183.0</ele><time>2025-05-26T06:19:50Z</time></trkpt>
<trkpt lat="50.161399" lon="5.222775"><ele>182.84</ele><time>2025-05-26T06:19:56Z</time></trkpt>
<trkpt lat="50.16145" lon="5.222665"><ele>181.49</ele><time>2025-05-26T06:20:01Z</time></trkpt>
<trkpt lat="50.162025" lon="5.220739"><ele>171.76</ele><time>2025-05-26T06:20:06Z</time></trkpt>
<trkpt lat="50.162041" lon="5.220548"><ele>171.32</ele><time>2025-05-26T06:20:11Z</time></trkpt>
<trkpt lat="50.161997" lon="5.21998"><ele>170.18</ele><time>2025-05-26T06:20:17Z</time></trkpt>
<trkpt lat="50.162009" lon="5.219856"><ele>170.11</ele><time>2025-05-26T06:20:22Z</time></trkpt>
<trkpt lat="50.162043" lon="5.219766"><ele>170.05</ele><time>2025-05-26T06:20:27Z</time></trkpt>
<trkpt lat="50.162109" lon="5.219709"><ele>170.0</ele><time>2025-05-26T06:20:32Z</time></trkpt>
<trkpt lat="50.162448" lon="5.219483"><ele>170.81</ele><time>2025-05-26T06:20:38Z</time></trkpt>
<trkpt lat="50.162518" lon="5.21944"><ele>171.05</ele><time>2025-05-26T06:20:43Z</time></trkpt>
<trkpt lat="50.162877" lon="5.21917"><ele>171.01</ele><time>2025-05-26T06:20:48Z</time></trkpt>
<trkpt lat="50.16296" lon="5.219054"><ele>170.59</ele><time>2025-05-26T06:20:53Z</time></trkpt>
<trkpt lat="50.163024" lon="5.218927"><ele>170.14</ele><time>2025-05-26T06:20:59Z</time></trkpt>
<trkpt lat="50.163088" lon="5.218732"><ele>171.99</ele><time>2025-05-26T06:21:04Z</time></trkpt>
<trkpt lat="50.163124" lon="5.218462"><ele>174.94</ele><time>2025-05-26T06:21:09Z</time></trkpt>
<trkpt lat="50.163222" lon="5.217224"><ele>184.79</ele><time>2025-05-26T06:21:14Z</time></trkpt>
<trkpt lat="50.163268" lon="5.216842"><ele>183.16</ele><time>2025-05-26T06:21:20Z</time></trkpt>
<trkpt lat="50.163406" lon="5.21639"><ele>182.27</ele><time>2025-05-26T06:21:25Z</time></trkpt>
<trkpt lat="50.165872" lon="5.211764"><ele>177.95</ele><time>2025-05-26T06:21:30Z</time></trkpt>
<trkpt lat="50.171896" lon="5.21118"><ele>179.0</ele><time>2025-05-26T06:21:46Z</time></trkpt>
<trkpt lat="50.173354" lon="5.211068"><ele>180.0</ele><time>2025-05-26T06:22:01Z</time></trkpt>
<trkpt lat="50.173697" lon="5.211071"><ele>178.45</ele><time>2025-05-26T06:22:17Z</time></trkpt>
<trkpt lat="50.175108" lon="5.21094"><ele>182.62</ele><time>2025-05-26T06:22:33Z</time></trkpt>
<trkpt lat="50.177948" lon="5.210618"><ele>185.23</ele><time>2025-05-26T06:22:48Z</time></trkpt>
<trkpt lat="50.181151" lon="5.210312"><ele>191.11</ele><time>2025-05-26T06:23:04Z</time></trkpt>
<trkpt lat="50.181786" lon="5.210205"><ele>193.12</ele><time>2025-05-26T06:23:20Z</time></trkpt>
<trkpt lat="50.193343" lon="5.209107"><ele>241.24</ele><time>2025-05-26T06:23:36Z</time></trkpt>
<trkpt lat="50.198315" lon="5.208686"><ele>256.73</ele><time>2025-05-26T06:23:51Z</time></trkpt>
<trkpt lat="50.19892" lon="5.208359"><ele>256.9</ele><time>2025-05-26T06:24:07Z</time></trkpt>
<trkpt lat="50.200424" lon="5.206758"><ele>246.33</ele><time>2025-05-26T06:24:23Z</time></trkpt>
<trkpt lat="50.207092" lon="5.199817"><ele>193.81</ele><time>2025-05-26T06:24:38Z</time></trkpt>
<trkpt lat="50.210209" lon="5.196514"><ele>175.24</ele><time>2025-05-26T06:24:54Z</time></trkpt>
<trkpt lat="50.215071" lon="5.191422"><ele>200.68</ele><time>2025-05-26T06:25:10Z</time></trkpt>
<trkpt lat="50.215985" lon="5.19049"><ele>210.33</ele><time>2025-05-26T06:25:25Z</time></trkpt>
<trkpt lat="50.216567" lon="5.189779"><ele>217.64</ele><time>2025-05-26T06:25:41Z</time></trkpt>
<trkpt lat="50.216942" lon="5.1892"><ele>219.87</ele><time>2025-05-26T06:25:57Z</time></trkpt>
<trkpt lat="50.217327" lon="5.188523"><ele>221.0</ele><time>2025-05-26T06:26:12Z</time></trkpt>
<trkpt lat="50.218049" lon="5.187143"><ele>222.26</ele><time>2025-05-26T06:26:28Z</time></trkpt>
<trkpt lat="50.220913" lon="5.181803"><ele>253.51</ele><time>2025-05-26T06:26:44Z</time></trkpt>
<trkpt lat="50.223724" lon="5.176489"><ele>281.64</ele><time>2025-05-26T06:27:00Z</time></trkpt>
<trkpt lat="50.223827" lon="5.176309"><ele>282.0</ele><time>2025-05-26T06:27:15Z</time></trkpt>
<trkpt lat="50.223943" lon="5.176165"><ele>282.58</ele><time>2025-05-26T06:27:31Z</time></trkpt>
<trkpt lat="50.22421" lon="5.175944"><ele>285.98</ele><time>2025-05-26T06:27:47Z</time></trkpt>
<trkpt lat="50.224351" lon="5.175889"><ele>287.26</ele><time>2025-05-26T06:28:02Z</time></trkpt>
<trkpt lat="50.224622" lon="5.175888"><ele>289.15</ele><time>2025-05-26T06:28:18Z</time></trkpt>
<trkpt lat="50.224913" lon="5.176047"><ele>290.45</ele><time>2025-05-26T06:28:34Z</time></trkpt>
<trkpt lat="50.227575" lon="5.178036"><ele>308.93</ele><time>2025-05-26T06:28:49Z</time></trkpt>
<trkpt lat="50.228604" lon="5.178956"><ele>314.41</ele><time>2025-05-26T06:29:05Z</time></trkpt>
<trkpt lat="50.230018" lon="5.180321"><ele>320.2</ele><time>2025-05-26T06:29:21Z</time></trkpt>
<trkpt lat="50.230267" lon="5.180585"><ele>322.78</ele><time>2025-05-26T06:29:36Z</time></trkpt>
<trkpt lat="50.2337" lon="5.183863"><ele>330.36</ele><time>2025-05-26T06:29:52Z</time></trkpt>
<trkpt lat="50.233897" lon="5.18396"><ele>328.94</ele><time>2025-05-26T06:29:59Z</time></trkpt>
<trkpt lat="50.234036" lon="5.183995"><ele>327.94</ele><time>2025-05-26T06:30:05Z</time></trkpt>
<trkpt lat="50.234145" lon="5.184005"><ele>327.15</ele><time>2025-05-26T06:30:12Z</time></trkpt>
<trkpt lat="50.234388" lon="5.183952"><ele>323.99</ele><time>2025-05-26T06:30:18Z</time></trkpt>
<trkpt lat="50.234541" lon="5.183877"><ele>321.6</ele><time>2025-05-26T06:30:25Z</time></trkpt>
<trkpt lat="50.234671" lon="5.183779"><ele>319.42</ele><time>2025-05-26T06:30:31Z</time></trkpt>
<trkpt lat="50.234796" lon="5.18365"><ele>318.18</ele><time>2025-05-26T06:30:38Z</time></trkpt>
<trkpt lat="50.234995" lon="5.183346"><ele>316.12</ele><time>2025-05-26T06:30:44Z</time></trkpt>
<trkpt lat="50.235106" lon="5.183064"><ele>316.61</ele><time>2025-05-26T06:30:51Z</time></trkpt>
<trkpt lat="50.235842" lon="5.180341"><ele>304.05</ele><time>2025-05-26T06:30:57Z</time></trkpt>
<trkpt lat="50.23605" lon="5.179673"><ele>297.38</ele><time>2025-05-26T06:31:04Z</time></trkpt>
<trkpt lat="50.236337" lon="5.178984"><ele>292.74</ele><time>2025-05-26T06:31:10Z</time></trkpt>
<trkpt lat="50.23662" lon="5.178394"><ele>288.68</ele><time>2025-05-26T06:31:17Z</time></trkpt>
<trkpt lat="50.236827" lon="5.178024"><ele>286.74</ele><time>2025-05-26T06:31:23Z</time></trkpt>
<trkpt lat="50.237088" lon="5.177677"><ele>283.3</ele><time>2025-05-26T06:31:30Z</time></trkpt>
<trkpt lat="50.237282" lon="5.177496"><ele>281.35</ele><time>2025-05-26T06:31:36Z</time></trkpt>
<trkpt lat="50.237459" lon="5.177366"><ele>279.03</ele><time>2025-05-26T06:31:43Z</time></trkpt>
<trkpt lat="50.238115" lon="5.177065"><ele>275.33</ele><time>2025-05-26T06:31:49Z</time></trkpt>
<trkpt lat="50.241118" lon="5.176041"><ele>293.3</ele><time>2025-05-26T06:31:56Z</time></trkpt>
<trkpt lat="50.242327" lon="5.17566"><ele>298.62</ele><time>2025-05-26T06:32:02Z</time></trkpt>
<trkpt lat="50.243316" lon="5.17562"><ele>297.78</ele><time>2025-05-26T06:32:09Z</time></trkpt>
<trkpt lat="50.251224" lon="5.175436"><ele>309.33</ele><time>2025-05-26T06:32:15Z</time></trkpt>
<trkpt lat="50.252538" lon="5.175404"><ele>316.21</ele><time>2025-05-26T06:32:22Z</time></trkpt>
<trkpt lat="50.252724" lon="5.175351"><ele>317.4</ele><time>2025-05-26T06:32:28Z</time></trkpt>
<trkpt lat="50.25291" lon="5.175259"><ele>318.48</ele><time>2025-05-26T06:32:35Z</time></trkpt>
<trkpt lat="50.253083" lon="5.175127"><ele>319.1</ele><time>2025-05-26T06:32:41Z</time></trkpt>
<trkpt lat="50.253254" lon="5.174958"><ele>319.57</ele><time>2025-05-26T06:32:48Z</time></trkpt>
<trkpt lat="50.253288" lon="5.175147"><ele>319.83</ele><time>2025-05-26T06:32:57Z</time></trkpt>
<trkpt lat="50.253455" lon="5.175802"><ele>319.44</ele><time>2025-05-26T06:33:05Z</time></trkpt>
<trkpt lat="50.254098" lon="5.178559"><ele>322.0</ele><time>2025-05-26T06:33:14Z</time></trkpt>
<trkpt lat="50.254463" lon="5.180054"><ele>321.0</ele><time>2025-05-26T06:33:23Z</time></trkpt>
<trkpt lat="50.254572" lon="5.180161"><ele>321.0</ele><time>2025-05-26T06:33:25Z</time></trkpt>
<trkpt lat="50.254719" lon="5.180266"><ele>321.0</ele><time>2025-05-26T06:33:27Z</time></trkpt>
<trkpt lat="50.255449" lon="5.180699"><ele>322.62</ele><time>2025-05-26T06:33:28Z</time></trkpt>
<trkpt lat="50.256025" lon="5.180999"><ele>325.19</ele><time>2025-05-26T06:33:30Z</time></trkpt>
<trkpt lat="50.256124" lon="5.181069"><ele>326.09</ele><time>2025-05-26T06:33:32Z</time></trkpt>
<trkpt lat="50.256281" lon="5.181263"><ele>326.68</ele><time>2025-05-26T06:33:34Z</time></trkpt>
<trkpt lat="50.256554" lon="5.18166"><ele>326.22</ele><time>2025-05-26T06:33:36Z</time></trkpt>
<trkpt lat="50.256705" lon="5.18181"><ele>327.0</ele><time>2025-05-26T06:33:38Z</time></trkpt>
<trkpt lat="50.256832" lon="5.18189"><ele>327.0</ele><time>2025-05-26T06:33:40Z</time></trkpt>
<trkpt lat="50.257271" lon="5.182012"><ele>326.67</ele><time>2025-05-26T06:33:41Z</time></trkpt>
<trkpt lat="50.257967" lon="5.182162"><ele>317.59</ele><time>2025-05-26T06:33:43Z</time></trkpt>
<trkpt lat="50.258271" lon="5.182271"><ele>315.66</ele><time>2025-05-26T06:33:45Z</time></trkpt>
<trkpt lat="50.258812" lon="5.182522"><ele>310.85</ele><time>2025-05-26T06:33:47Z</time></trkpt>
<trkpt lat="50.259091" lon="5.182615"><ele>308.85</ele><time>2025-05-26T06:33:49Z</time></trkpt>
<trkpt lat="50.259338" lon="5.182652"><ele>308.55</ele><time>2025-05-26T06:33:51Z</time></trkpt>
<trkpt lat="50.259569" lon="5.182632"><ele>307.35</ele><time>2025-05-26T06:33:53Z</time></trkpt>
<trkpt lat="50.259842" lon="5.182531"><ele>304.75</ele><time>2025-05-26T06:33:54Z</time></trkpt>
<trkpt lat="50.260064" lon="5.182371"><ele>303.41</ele><time>2025-05-26T06:33:56Z</time></trkpt>
<trkpt lat="50.260765" lon="5.181752"><ele>304.52</ele><time>2025-05-26T06:33:58Z</time></trkpt>
<trkpt lat="50.260819" lon="5.181885"><ele>304.2</ele><time>2025-05-26T06:34:00Z</time></trkpt>
<trkpt lat="50.260875" lon="5.182013"><ele>303.87</ele><time>2025-05-26T06:34:02Z</time></trkpt>
<trkpt lat="50.26093" lon="5.182135"><ele>303.42</ele><time>2025-05-26T06:34:04Z</time></trkpt>
<trkpt lat="50.261559" lon="5.181412"><ele>307.02</ele><time>2025-05-26T06:34:08Z</time></trkpt>
<trkpt lat="50.26206" lon="5.180898"><ele>307.23</ele><time>2025-05-26T06:34:13Z</time></trkpt>
<trkpt lat="50.262716" lon="5.180049"><ele>304.4</ele><time>2025-05-26T06:34:17Z</time></trkpt>
<trkpt lat="50.262845" lon="5.17992"><ele>303.71</ele><time>2025-05-26T06:34:21Z</time></trkpt>
<trkpt lat="50.264235" lon="5.179017"><ele>308.23</ele><time>2025-05-26T06:34:26Z</time></trkpt>
<trkpt lat="50.264565" lon="5.178788"><ele>308.35</ele><time>2025-05-26T06:34:30Z</time></trkpt>
<trkpt lat="50.265133" lon="5.178314"><ele>307.92</ele><time>2025-05-26T06:34:35Z</time></trkpt>
<trkpt lat="50.265259" lon="5.178166"><ele>308.3</ele><time>2025-05-26T06:34:39Z</time></trkpt>
<trkpt lat="50.266978" lon="5.175856"><ele>308.48</ele><time>2025-05-26T06:34:43Z</time></trkpt>
<trkpt lat="50.267332" lon="5.175354"><ele>306.34</ele><time>2025-05-26T06:34:48Z</time></trkpt>
<trkpt lat="50.267521" lon="5.174968"><ele>306.03</ele><time>2025-05-26T06:34:52Z</time></trkpt>
<trkpt lat="50.268152" lon="5.173082"><ele>302.81</ele><time>2025-05-26T06:34:57Z</time></trkpt>
<trkpt lat="50.26822" lon="5.172946"><ele>303.63</ele><time>2025-05-26T06:35:01Z</time></trkpt>
<trkpt lat="50.268312" lon="5.172836"><ele>304.52</ele><time>2025-05-26T06:35:05Z</time></trkpt>
<trkpt lat="50.268424" lon="5.172751"><ele>306.17</ele><time>2025-05-26T06:35:10Z</time></trkpt>
<trkpt lat="50.268585" lon="5.172688"><ele>308.36</ele><time>2025-05-26T06:35:14Z</time></trkpt>
<trkpt lat="50.268793" lon="5.172697"><ele>310.55</ele><time>2025-05-26T06:35:19Z</time></trkpt>
<trkpt lat="50.270932" lon="5.173178"><ele>325.5</ele><time>2025-05-26T06:35:23Z</time></trkpt>
<trkpt lat="50.271356" lon="5.17321"><ele>327.6</ele><time>2025-05-26T06:35:27Z</time></trkpt>
<trkpt lat="50.273692" lon="5.172674"><ele>332.28</ele><time>2025-05-26T06:35:32Z</time></trkpt>
<trkpt lat="50.275107" lon="5.172227"><ele>327.39</ele><time>2025-05-26T06:35:36Z</time></trkpt>
<trkpt lat="50.275593" lon="5.172242"><ele>329.14</ele><time>2025-05-26T06:35:41Z</time></trkpt>
<trkpt lat="50.276048" lon="5.172286"><ele>332.14</ele><time>2025-05-26T06:35:45Z</time></trkpt>
<trkpt lat="50.27693" lon="5.172295"><ele>334.99</ele><time>2025-05-26T06:35:49Z</time></trkpt>
<trkpt lat="50.277275" lon="5.172279"><ele>334.85</ele><time>2025-05-26T06:35:54Z</time></trkpt>
<trkpt lat="50.277801" lon="5.172229"><ele>336.25</ele><time>2025-05-26T06:35:58Z</time></trkpt>
<trkpt lat="50.27814" lon="5.172224"><ele>339.61</ele><time>2025-05-26T06:36:03Z</time></trkpt>
<trkpt lat="50.278755" lon="5.172292"><ele>343.0</ele><time>2025-05-26T06:36:07Z</time></trkpt>
<trkpt lat="50.278907" lon="5.172267"><ele>342.93</ele><time>2025-05-26T06:36:11Z</time></trkpt>
<trkpt lat="50.279094" lon="5.172194"><ele>342.16</ele><time>2025-05-26T06:36:16Z</time></trkpt>
<trkpt lat="50.279818" lon="5.171729"><ele>337.04</ele><time>2025-05-26T06:36:20Z</time></trkpt>
<trkpt lat="50.280131" lon="5.172539"><ele>337.33</ele><time>2025-05-26T06:36:27Z</time></trkpt>
<trkpt lat="50.280724" lon="5.17397"><ele>336.39</ele><time>2025-05-26T06:36:34Z</time></trkpt>
<trkpt lat="50.281435" lon="5.175636"><ele>335.67</ele><time>2025-05-26T06:36:40Z</time></trkpt>
<trkpt lat="50.283305" lon="5.179393"><ele>334.92</ele><time>2025-05-26T06:36:47Z</time></trkpt>
<trkpt lat="50.28479" lon="5.182941"><ele>333.31</ele><time>2025-05-26T06:36:54Z</time></trkpt>
<trkpt lat="50.285465" lon="5.184621"><ele>335.0</ele><time>2025-05-26T06:37:00Z</time></trkpt>
<trkpt lat="50.286237" lon="5.186299"><ele>333.55</ele><time>2025-05-26T06:37:07Z</time></trkpt>
<trkpt lat="50.286462" lon="5.186847"><ele>333.0</ele><time>2025-05-26T06:37:14Z</time></trkpt>
<trkpt lat="50.288378" lon="5.19228"><ele>337.22</ele><time>2025-05-26T06:37:21Z</time></trkpt>
<trkpt lat="50.2892" lon="5.195463"><ele>346.41</ele><time>2025-05-26T06:37:27Z</time></trkpt>
<trkpt lat="50.289564" lon="5.196502"><ele>343.68</ele><time>2025-05-26T06:37:34Z</time></trkpt>
<trkpt lat="50.290122" lon="5.197892"><ele>346.32</ele><time>2025-05-26T06:37:41Z</time></trkpt>
<trkpt lat="50.291352" lon="5.201144"><ele>333.78</ele><time>2025-05-26T06:37:47Z</time></trkpt>
<trkpt lat="50.291948" lon="5.202614"><ele>327.59</ele><time>2025-05-26T06:37:54Z</time></trkpt>
<trkpt lat="50.292963" lon="5.205244"><ele>334.28</ele><time>2025-05-26T06:38:01Z</time></trkpt>
<trkpt lat="50.293101" lon="5.205551"><ele>334.02</ele><time>2025-05-26T06:38:08Z</time></trkpt>
<trkpt lat="50.293927" lon="5.206779"><ele>337.55</ele><time>2025-05-26T06:38:14Z</time></trkpt>
<trkpt lat="50.294367" lon="5.207232"><ele>337.1</ele><time>2025-05-26T06:38:21Z</time></trkpt>
<trkpt lat="50.295787" lon="5.208259"><ele>336.53</ele><time>2025-05-26T06:38:28Z</time></trkpt>
<trkpt lat="50.296706" lon="5.208953"><ele>339.32</ele><time>2025-05-26T06:38:34Z</time></trkpt>
<trkpt lat="50.296917" lon="5.209153"><ele>340.0</ele><time>2025-05-26T06:38:41Z</time></trkpt>
<trkpt lat="50.297603" lon="5.209987"><ele>339.86</ele><time>2025-05-26T06:38:48Z</time></trkpt>
<trkpt lat="50.299019" lon="5.211903"><ele>337.59</ele><time>2025-05-26T06:38:54Z</time></trkpt>
<trkpt lat="50.299343" lon="5.212274"><ele>331.76</ele><time>2025-05-26T06:39:01Z</time></trkpt>
<trkpt lat="50.299554" lon="5.212474"><ele>328.42</ele><time>2025-05-26T06:39:08Z</time></trkpt>
<trkpt lat="50.299712" lon="5.212685"><ele>326.82</ele><time>2025-05-26T06:39:15Z</time></trkpt>
<trkpt lat="50.300188" lon="5.213433"><ele>328.12</ele><time>2025-05-26T06:39:21Z</time></trkpt>
<trkpt lat="50.301018" lon="5.214845"><ele>327.0</ele><time>2025-05-26T06:39:28Z</time></trkpt>
<trkpt lat="50.303751" lon="5.219399"><ele>328.42</ele><time>2025-05-26T06:39:35Z</time></trkpt>
<trkpt lat="50.30393" lon="5.219743"><ele>329.15</ele><time>2025-05-26T06:39:41Z</time></trkpt>
<trkpt lat="50.305399" lon="5.22295"><ele>331.41</ele><time>2025-05-26T06:39:48Z</time></trkpt>
<trkpt lat="50.30547" lon="5.223161"><ele>330.75</ele><time>2025-05-26T06:39:55Z</time></trkpt>
<trkpt lat="50.305532" lon="5.223452"><ele>329.49</ele><time>2025-05-26T06:40:02Z</time></trkpt>
<trkpt lat="50.305621" lon="5.224023"><ele>328.23</ele><time>2025-05-26T06:40:08Z</time></trkpt>
<trkpt lat="50.305687" lon="5.224347"><ele>328.47</ele><time>2025-05-26T06:40:15Z</time></trkpt>
<trkpt lat="50.305777" lon="5.224642"><ele>328.08</ele><time>2025-05-26T06:40:22Z</time></trkpt>
<trkpt lat="50.305954" lon="5.225061"><ele>327.87</ele><time>2025-05-26T06:40:28Z</time></trkpt>
<trkpt lat="50.306161" lon="5.225471"><ele>330.05</ele><time>2025-05-26T06:40:35Z</time></trkpt>
<trkpt lat="50.307245" lon="5.227402"><ele>331.08</ele><time>2025-05-26T06:40:42Z</time></trkpt>
<trkpt lat="50.30746" lon="5.227716"><ele>331.08</ele><time>2025-05-26T06:40:49Z</time></trkpt>
<trkpt lat="50.307953" lon="5.228326"><ele>333.63</ele><time>2025-05-26T06:40:55Z</time></trkpt>
<trkpt lat="50.31008" lon="5.231332"><ele>345.94</ele><time>2025-05-26T06:41:02Z</time></trkpt>
<trkpt lat="50.310383" lon="5.231812"><ele>346.3</ele><time>2025-05-26T06:41:09Z</time></trkpt>
<trkpt lat="50.31059" lon="5.232468"><ele>347.24</ele><time>2025-05-26T06:41:15Z</time></trkpt>
<trkpt lat="50.312434" lon="5.235824"><ele>347.27</ele><time>2025-05-26T06:41:22Z</time></trkpt>
<trkpt lat="50.312917" lon="5.236517"><ele>337.61</ele><time>2025-05-26T06:41:29Z</time></trkpt>
<trkpt lat="50.315489" lon="5.239785"><ele>335.1</ele><time>2025-05-26T06:41:36Z</time></trkpt>
<trkpt lat="50.316022" lon="5.240342"><ele>330.91</ele><time>2025-05-26T06:41:42Z</time></trkpt>
<trkpt lat="50.316217" lon="5.240484"><ele>328.8</ele><time>2025-05-26T06:41:49Z</time></trkpt>
<trkpt lat="50.316312" lon="5.240548"><ele>327.84</ele><time>2025-05-26T06:41:56Z</time></trkpt>
<trkpt lat="50.317052" lon="5.240874"><ele>325.86</ele><time>2025-05-26T06:42:02Z</time></trkpt>
<trkpt lat="50.317357" lon="5.241159"><ele>325.48</ele><time>2025-05-26T06:42:09Z</time></trkpt>
<trkpt lat="50.32414" lon="5.248495"><ele>315.9</ele><time>2025-05-26T06:42:16Z</time></trkpt>
<trkpt lat="50.32439" lon="5.24882"><ele>315.39</ele><time>2025-05-26T06:42:23Z</time></trkpt>
<trkpt lat="50.324573" lon="5.2491"><ele>315.17</ele><time>2025-05-26T06:42:29Z</time></trkpt>
<trkpt lat="50.324664" lon="5.2493"><ele>314.62</ele><time>2025-05-26T06:42:36Z</time></trkpt>
<trkpt lat="50.324731" lon="5.24951"><ele>313.55</ele><time>2025-05-26T06:42:43Z</time></trkpt>
<trkpt lat="50.32485" lon="5.250124"><ele>309.27</ele><time>2025-05-26T06:42:49Z</time></trkpt>
<trkpt lat="50.324935" lon="5.250461"><ele>307.44</ele><time>2025-05-26T06:42:56Z</time></trkpt>
<trkpt lat="50.325105" lon="5.250952"><ele>305.57</ele><time>2025-05-26T06:43:03Z</time></trkpt>
<trkpt lat="50.325481" lon="5.252168"><ele>302.44</ele><time>2025-05-26T06:43:10Z</time></trkpt>
<trkpt lat="50.325697" lon="5.252667"><ele>302.12</ele><time>2025-05-26T06:43:16Z</time></trkpt>
<trkpt lat="50.325901" lon="5.253085"><ele>303.16</ele><time>2025-05-26T06:43:23Z</time></trkpt>
<trkpt lat="50.326136" lon="5.253491"><ele>304.69</ele><time>2025-05-26T06:43:30Z</time></trkpt>
<trkpt lat="50.326608" lon="5.254228"><ele>305.64</ele><time>2025-05-26T06:43:36Z</time></trkpt>
<trkpt lat="50.326869" lon="5.25469"><ele>303.81</ele><time>2025-05-26T06:43:43Z</time></trkpt>
<trkpt lat="50.327574" lon="5.256141"><ele>296.76</ele><time>2025-05-26T06:43:50Z</time></trkpt>
<trkpt lat="50.327979" lon="5.257087"><ele>294.73</ele><time>2025-05-26T06:43:57Z</time></trkpt>
<trkpt lat="50.328322" lon="5.257976"><ele>291.01</ele><time>2025-05-26T06:44:03Z</time></trkpt>
<trkpt lat="50.328422" lon="5.258276"><ele>290.75</ele><time>2025-05-26T06:44:10Z</time></trkpt>
<trkpt lat="50.328525" lon="5.258656"><ele>290.37</ele><time>2025-05-26T06:44:17Z</time></trkpt>
<trkpt lat="50.328711" lon="5.259564"><ele>290.72</ele><time>2025-05-26T06:44:23Z</time></trkpt>
<trkpt lat="50.328812" lon="5.260203"><ele>290.72</ele><time>2025-05-26T06:44:30Z</time></trkpt>
<trkpt lat="50.328901" lon="5.260942"><ele>290.63</ele><time>2025-05-26T06:44:37Z</time></trkpt>
<trkpt lat="50.329375" lon="5.260843"><ele>291.78</ele><time>2025-05-26T06:44:43Z</time></trkpt>
<trkpt lat="50.329543" lon="5.260747"><ele>292.0</ele><time>2025-05-26T06:44:48Z</time></trkpt>
<trkpt lat="50.329879" lon="5.2605"><ele>290.1</ele><time>2025-05-26T06:44:54Z</time></trkpt>
<trkpt lat="50.330417" lon="5.25972"><ele>284.5</ele><time>2025-05-26T06:44:59Z</time></trkpt>
<trkpt lat="50.330732" lon="5.259407"><ele>282.28</ele><time>2025-05-26T06:45:05Z</time></trkpt>
<trkpt lat="50.33196" lon="5.258414"><ele>285.77</ele><time>2025-05-26T06:45:11Z</time></trkpt>
<trkpt lat="50.33204" lon="5.258293"><ele>286.39</ele><time>2025-05-26T06:45:16Z</time></trkpt>
<trkpt lat="50.332103" lon="5.258088"><ele>286.44</ele><time>2025-05-26T06:45:22Z</time></trkpt>
<trkpt lat="50.332229" lon="5.257109"><ele>288.8</ele><time>2025-05-26T06:45:28Z</time></trkpt>
<trkpt lat="50.333334" lon="5.253188"><ele>300.52</ele><time>2025-05-26T06:45:33Z</time></trkpt>
<trkpt lat="50.33351" lon="5.25262"><ele>302.5</ele><time>2025-05-26T06:45:39Z</time></trkpt>
<trkpt lat="50.335662" lon="5.247275"><ele>317.4</ele><time>2025-05-26T06:45:45Z</time></trkpt>
<trkpt lat="50.335722" lon="5.246995"><ele>317.23</ele><time>2025-05-26T06:45:50Z</time></trkpt>
<trkpt lat="50.336066" lon="5.244235"><ele>321.55</ele><time>2025-05-26T06:45:56Z</time></trkpt>
<trkpt lat="50.336089" lon="5.244097"><ele>322.17</ele><time>2025-05-26T06:46:02Z</time></trkpt>
<trkpt lat="50.33612" lon="5.244009"><ele>322.61</ele><time>2025-05-26T06:46:07Z</time></trkpt>
<trkpt lat="50.336226" lon="5.243921"><ele>323.34</ele><time>2025-05-26T06:46:13Z</time></trkpt>
<trkpt lat="50.336475" lon="5.243931"><ele>325.2</ele><time>2025-05-26T06:46:19Z</time></trkpt>
<trkpt lat="50.33884" lon="5.244986"><ele>334.78</ele><time>2025-05-26T06:46:24Z</time></trkpt>
<trkpt lat="50.339007" lon="5.245008"><ele>335.0</ele><time>2025-05-26T06:46:30Z</time></trkpt>
<trkpt lat="50.339118" lon="5.244972"><ele>334.9</ele><time>2025-05-26T06:46:36Z</time></trkpt>
<trkpt lat="50.339249" lon="5.244799"><ele>333.98</ele><time>2025-05-26T06:46:41Z</time></trkpt>
<trkpt lat="50.339346" lon="5.244556"><ele>333.14</ele><time>2025-05-26T06:46:47Z</time></trkpt>
<trkpt lat="50.3397" lon="5.243398"><ele>330.0</ele><time>2025-05-26T06:46:53Z</time></trkpt>
<trkpt lat="50.339987" lon="5.242473"><ele>328.05</ele><time>2025-05-26T06:46:58Z</time></trkpt>
<trkpt lat="50.340094" lon="5.242041"><ele>326.67</ele><time>2025-05-26T06:47:04Z</time></trkpt>
<trkpt lat="50.34115" lon="5.243824"><ele>327.76</ele><time>2025-05-26T06:47:08Z</time></trkpt>
<trkpt lat="50.342006" lon="5.245397"><ele>325.43</ele><time>2025-05-26T06:47:12Z</time></trkpt>
<trkpt lat="50.342143" lon="5.245663"><ele>324.57</ele><time>2025-05-26T06:47:16Z</time></trkpt>
<trkpt lat="50.342214" lon="5.245855"><ele>324.06</ele><time>2025-05-26T06:47:21Z</time></trkpt>
<trkpt lat="50.342631" lon="5.247112"><ele>321.34</ele><time>2025-05-26T06:47:25Z</time></trkpt>
<trkpt lat="50.342695" lon="5.247354"><ele>320.97</ele><time>2025-05-26T06:47:29Z</time></trkpt>
<trkpt lat="50.342726" lon="5.247558"><ele>320.17</ele><time>2025-05-26T06:47:33Z</time></trkpt>
<trkpt lat="50.342733" lon="5.24781"><ele>319.22</ele><time>2025-05-26T06:47:37Z</time></trkpt>
<trkpt lat="50.342659" lon="5.24829"><ele>317.96</ele><time>2025-05-26T06:47:41Z</time></trkpt>
<trkpt lat="50.342649" lon="5.248524"><ele>318.17</ele><time>2025-05-26T06:47:45Z</time></trkpt>
<trkpt lat="50.342673" lon="5.248679"><ele>317.98</ele><time>2025-05-26T06:47:50Z</time></trkpt>
<trkpt lat="50.342759" lon="5.248946"><ele>316.82</ele><time>2025-05-26T06:47:54Z</time></trkpt>
<trkpt lat="50.342938" lon="5.249198"><ele>316.02</ele><time>2025-05-26T06:47:58Z</time></trkpt>
<trkpt lat="50.343328" lon="5.249563"><ele>316.32</ele><time>2025-05-26T06:48:02Z</time></trkpt>
<trkpt lat="50.343443" lon="5.249703"><ele>317.79</ele><time>2025-05-26T06:48:06Z</time></trkpt>
<trkpt lat="50.344347" lon="5.251071"><ele>320.21</ele><time>2025-05-26T06:48:10Z</time></trkpt>
<trkpt lat="50.344598" lon="5.25149"><ele>319.46</ele><time>2025-05-26T06:48:14Z</time></trkpt>
<trkpt lat="50.344873" lon="5.252031"><ele>321.45</ele><time>2025-05-26T06:48:19Z</time></trkpt>
<trkpt lat="50.345859" lon="5.253339"><ele>324.11</ele><time>2025-05-26T06:48:23Z</time></trkpt>
<trkpt lat="50.346284" lon="5.25383"><ele>327.58</ele><time>2025-05-26T06:48:27Z</time></trkpt>
<trkpt lat="50.346585" lon="5.254212"><ele>327.2</ele><time>2025-05-26T06:48:31Z</time></trkpt>
<trkpt lat="50.347646" lon="5.256029"><ele>322.61</ele><time>2025-05-26T06:48:35Z</time></trkpt>
<trkpt lat="50.34782" lon="5.256352"><ele>322.0</ele><time>2025-05-26T06:48:39Z</time></trkpt>
<trkpt lat="50.347928" lon="5.256595"><ele>322.0</ele><time>2025-05-26T06:48:44Z</time></trkpt>
<trkpt lat="50.348016" lon="5.256835"><ele>322.61</ele><time>2025-05-26T06:48:48Z</time></trkpt>
<trkpt lat="50.348079" lon="5.257062"><ele>323.34</ele><time>2025-05-26T06:48:52Z</time></trkpt>
<trkpt lat="50.348284" lon="5.25819"><ele>323.51</ele><time>2025-05-26T06:48:56Z</time></trkpt>
<trkpt lat="50.348848" lon="5.260606"><ele>323.25</ele><time>2025-05-26T06:49:00Z</time></trkpt>
<trkpt lat="50.349064" lon="5.261316"><ele>318.99</ele><time>2025-05-26T06:49:04Z</time></trkpt>
<trkpt lat="50.351902" lon="5.269081"><ele>317.12</ele><time>2025-05-26T06:49:08Z</time></trkpt>
<trkpt lat="50.352205" lon="5.269946"><ele>307.54</ele><time>2025-05-26T06:49:13Z</time></trkpt>
<trkpt lat="50.35243" lon="5.270514"><ele>304.68</ele><time>2025-05-26T06:49:17Z</time></trkpt>
<trkpt lat="50.353827" lon="5.274361"><ele>292.22</ele><time>2025-05-26T06:49:21Z</time></trkpt>
<trkpt lat="50.353891" lon="5.274639"><ele>290.61</ele><time>2025-05-26T06:49:25Z</time></trkpt>
<trkpt lat="50.353951" lon="5.275087"><ele>288.13</ele><time>2025-05-26T06:49:29Z</time></trkpt>
<trkpt lat="50.354019" lon="5.276195"><ele>285.79</ele><time>2025-05-26T06:49:33Z</time></trkpt>
<trkpt lat="50.35406" lon="5.276627"><ele>284.76</ele><time>2025-05-26T06:49:37Z</time></trkpt>
<trkpt lat="50.354229" lon="5.277597"><ele>283.29</ele><time>2025-05-26T06:49:42Z</time></trkpt>
<trkpt lat="50.354332" lon="5.278014"><ele>282.49</ele><time>2025-05-26T06:49:46Z</time></trkpt>
<trkpt lat="50.354745" lon="5.279168"><ele>283.0</ele><time>2025-05-26T06:49:50Z</time></trkpt>
<trkpt lat="50.354837" lon="5.279346"><ele>283.27</ele><time>2025-05-26T06:49:54Z</time></trkpt>
<trkpt lat="50.355608" lon="5.280379"><ele>284.92</ele><time>2025-05-26T06:49:58Z</time></trkpt>
<trkpt lat="50.355789" lon="5.280666"><ele>287.17</ele><time>2025-05-26T06:50:02Z</time></trkpt>
<trkpt lat="50.355879" lon="5.280875"><ele>288.01</ele><time>2025-05-26T06:50:06Z</time></trkpt>
<trkpt lat="50.356016" lon="5.281288"><ele>289.0</ele><time>2025-05-26T06:50:11Z</time></trkpt>
<trkpt lat="50.356266" lon="5.282113"><ele>286.23</ele><time>2025-05-26T06:50:15Z</time></trkpt>
<trkpt lat="50.356404" lon="5.282444"><ele>284.99</ele><time>2025-05-26T06:50:19Z</time></trkpt>
<trkpt lat="50.356735" lon="5.283123"><ele>286.49</ele><time>2025-05-26T06:50:23Z</time></trkpt>
<trkpt lat="50.35686" lon="5.283286"><ele>287.52</ele><time>2025-05-26T06:50:27Z</time></trkpt>
<trkpt lat="50.35732" lon="5.283546"><ele>287.57</ele><time>2025-05-26T06:50:31Z</time></trkpt>
<trkpt lat="50.357726" lon="5.284122"><ele>288.97</ele><time>2025-05-26T06:50:36Z</time></trkpt>
<trkpt lat="50.357816" lon="5.28409"><ele>289.1</ele><time>2025-05-26T06:50:38Z</time></trkpt>
<trkpt lat="50.357873" lon="5.284044"><ele>289.19</ele><time>2025-05-26T06:50:41Z</time></trkpt>
<trkpt lat="50.357962" lon="5.283917"><ele>289.07</ele><time>2025-05-26T06:50:44Z</time></trkpt>
<trkpt lat="50.358397" lon="5.282881"><ele>282.14</ele><time>2025-05-26T06:50:46Z</time></trkpt>
<trkpt lat="50.358828" lon="5.282209"><ele>280.99</ele><time>2025-05-26T06:50:49Z</time></trkpt>
<trkpt lat="50.35897" lon="5.282092"><ele>281.29</ele><time>2025-05-26T06:50:52Z</time></trkpt>
<trkpt lat="50.359089" lon="5.282049"><ele>281.72</ele><time>2025-05-26T06:50:55Z</time></trkpt>
<trkpt lat="50.359223" lon="5.28204"><ele>282.13</ele><time>2025-05-26T06:50:57Z</time></trkpt>
<trkpt lat="50.359334" lon="5.282084"><ele>282.3</ele><time>2025-05-26T06:51:00Z</time></trkpt>
<trkpt lat="50.359945" lon="5.282495"><ele>287.23</ele><time>2025-05-26T06:51:03Z</time></trkpt>
<trkpt lat="50.360152" lon="5.282523"><ele>288.98</ele><time>2025-05-26T06:51:05Z</time></trkpt>
<trkpt lat="50.360275" lon="5.282495"><ele>290.0</ele><time>2025-05-26T06:51:08Z</time></trkpt>
<trkpt lat="50.360646" lon="5.28225"><ele>293.33</ele><time>2025-05-26T06:51:11Z</time></trkpt>
<trkpt lat="50.36151" lon="5.281584"><ele>294.1</ele><time>2025-05-26T06:51:13Z</time></trkpt>
<trkpt lat="50.362498" lon="5.28071"><ele>287.0</ele><time>2025-05-26T06:51:16Z</time></trkpt>
<trkpt lat="50.362821" lon="5.280453"><ele>283.95</ele><time>2025-05-26T06:51:19Z</time></trkpt>
<trkpt lat="50.363681" lon="5.280024"><ele>277.06</ele><time>2025-05-26T06:51:22Z</time></trkpt>
<trkpt lat="50.365079" lon="5.27924"><ele>270.98</ele><time>2025-05-26T06:51:24Z</time></trkpt>
<trkpt lat="50.365488" lon="5.279033"><ele>269.64</ele><time>2025-05-26T06:51:27Z</time></trkpt>
<trkpt lat="50.36568" lon="5.278968"><ele>268.39</ele><time>2025-05-26T06:51:30Z</time></trkpt>
<trkpt lat="50.366445" lon="5.278847"><ele>267.85</ele><time>2025-05-26T06:51:32Z</time></trkpt>
<trkpt lat="50.366671" lon="5.27885"><ele>267.86</ele><time>2025-05-26T06:51:35Z</time></trkpt>
<trkpt lat="50.366844" lon="5.278908"><ele>268.0</ele><time>2025-05-26T06:51:38Z</time></trkpt>
<trkpt lat="50.367842" lon="5.279418"><ele>267.75</ele><time>2025-05-26T06:51:41Z</time></trkpt>
<trkpt lat="50.370733" lon="5.271893"><ele>277.0</ele><time>2025-05-26T06:51:51Z</time></trkpt>
<trkpt lat="50.371099" lon="5.271073"><ele>277.86</ele><time>2025-05-26T06:52:02Z</time></trkpt>
<trkpt lat="50.375515" lon="5.263271"><ele>270.89</ele><time>2025-05-26T06:52:13Z</time></trkpt>
<trkpt lat="50.380563" lon="5.25439"><ele>283.8</ele><time>2025-05-26T06:52:24Z</time></trkpt>
<trkpt lat="50.381564" lon="5.252603"><ele>286.72</ele><time>2025-05-26T06:52:35Z</time></trkpt>
<trkpt lat="50.382416" lon="5.25114"><ele>282.67</ele><time>2025-05-26T06:52:46Z</time></trkpt>
<trkpt lat="50.382745" lon="5.250527"><ele>278.12</ele><time>2025-05-26T06:52:56Z</time></trkpt>
<trkpt lat="50.38311" lon="5.24992"><ele>275.71</ele><time>2025-05-26T06:53:07Z</time></trkpt>
<trkpt lat="50.384251" lon="5.247916"><ele>271.0</ele><time>2025-05-26T06:53:18Z</time></trkpt>
<trkpt lat="50.384358" lon="5.247686"><ele>271.33</ele><time>2025-05-26T06:53:29Z</time></trkpt>
<trkpt lat="50.384885" lon="5.246797"><ele>276.12</ele><time>2025-05-26T06:53:40Z</time></trkpt>
<trkpt lat="50.385802" lon="5.24515"><ele>282.17</ele><time>2025-05-26T06:53:51Z</time></trkpt>
<trkpt lat="50.386204" lon="5.244503"><ele>282.0</ele><time>2025-05-26T06:54:01Z</time></trkpt>
<trkpt lat="50.386472" lon="5.244158"><ele>282.01</ele><time>2025-05-26T06:54:12Z</time></trkpt>
<trkpt lat="50.386747" lon="5.243843"><ele>283.51</ele><time>2025-05-26T06:54:23Z</time></trkpt>
<trkpt lat="50.387076" lon="5.243385"><ele>286.81</ele><time>2025-05-26T06:54:34Z</time></trkpt>
<trkpt lat="50.387496" lon="5.242681"><ele>289.71</ele><time>2025-05-26T06:54:45Z</time></trkpt>
<trkpt lat="50.38753" lon="5.24261"><ele>290.14</ele><time>2025-05-26T06:54:56Z</time></trkpt>
<trkpt lat="50.387588" lon="5.241935"><ele>293.75</ele><time>2025-05-26T06:55:06Z</time></trkpt>
<trkpt lat="50.387622" lon="5.241745"><ele>295.0</ele><time>2025-05-26T06:55:17Z</time></trkpt>
<trkpt lat="50.387716" lon="5.24145"><ele>296.0</ele><time>2025-05-26T06:55:28Z</time></trkpt>
<trkpt lat="50.387784" lon="5.241352"><ele>296.13</ele><time>2025-05-26T06:55:39Z</time></trkpt>
<trkpt lat="50.388152" lon="5.240983"><ele>296.3</ele><time>2025-05-26T06:55:50Z</time></trkpt>
<trkpt lat="50.38831" lon="5.240776"><ele>296.1</ele><time>2025-05-26T06:56:00Z</time></trkpt>
<trkpt lat="50.38873" lon="5.240032"><ele>295.95</ele><time>2025-05-26T06:56:11Z</time></trkpt>
<trkpt lat="50.388835" lon="5.239812"><ele>297.36</ele><time>2025-05-26T06:56:22Z</time></trkpt>
<trkpt lat="50.389442" lon="5.238346"><ele>303.0</ele><time>2025-05-26T06:56:33Z</time></trkpt>
<trkpt lat="50.389538" lon="5.23815"><ele>302.78</ele><time>2025-05-26T06:56:44Z</time></trkpt>
<trkpt lat="50.390977" lon="5.240104"><ele>303.68</ele><time>2025-05-26T06:56:52Z</time></trkpt>
<trkpt lat="50.391193" lon="5.240355"><ele>304.48</ele><time>2025-05-26T06:56:59Z</time></trkpt>
<trkpt lat="50.39146" lon="5.240551"><ele>304.73</ele><time>2025-05-26T06:57:07Z</time></trkpt>
<trkpt lat="50.391888" lon="5.24078"><ele>303.05</ele><time>2025-05-26T06:57:15Z</time></trkpt>
<trkpt lat="50.392071" lon="5.240851"><ele>302.61</ele><time>2025-05-26T06:57:23Z</time></trkpt>
<trkpt lat="50.394486" lon="5.241478"><ele>293.02</ele><time>2025-05-26T06:57:31Z</time></trkpt>
<trkpt lat="50.394692" lon="5.241544"><ele>291.78</ele><time>2025-05-26T06:57:39Z</time></trkpt>
<trkpt lat="50.395077" lon="5.24171"><ele>290.88</ele><time>2025-05-26T06:57:46Z</time></trkpt>
<trkpt lat="50.395738" lon="5.242011"><ele>288.92</ele><time>2025-05-26T06:57:54Z</time></trkpt>
<trkpt lat="50.396954" lon="5.242645"><ele>283.45</ele><time>2025-05-26T06:58:02Z</time></trkpt>
<trkpt lat="50.400164" lon="5.244186"><ele>276.38</ele><time>2025-05-26T06:58:10Z</time></trkpt>
<trkpt lat="50.400388" lon="5.244314"><ele>275.62</ele><time>2025-05-26T06:58:18Z</time></trkpt>
<trkpt lat="50.401426" lon="5.24506"><ele>270.19</ele><time>2025-05-26T06:58:25Z</time></trkpt>
<trkpt lat="50.401736" lon="5.24533"><ele>267.86</ele><time>2025-05-26T06:58:33Z</time></trkpt>
<trkpt lat="50.402574" lon="5.246149"><ele>268.53</ele><time>2025-05-26T06:58:41Z</time></trkpt>
<trkpt lat="50.404769" lon="5.248285"><ele>269.81</ele><time>2025-05-26T06:58:49Z</time></trkpt>
<trkpt lat="50.411795" lon="5.255124"><ele>258.54</ele><time>2025-05-26T06:58:57Z</time></trkpt>
<trkpt lat="50.412005" lon="5.255286"><ele>257.81</ele><time>2025-05-26T06:59:04Z</time></trkpt>
<trkpt lat="50.416106" lon="5.256758"><ele>254.98</ele><time>2025-05-26T06:59:12Z</time></trkpt>
<trkpt lat="50.419269" lon="5.257824"><ele>232.63</ele><time>2025-05-26T06:59:20Z</time></trkpt>
<trkpt lat="50.419527" lon="5.257898"><ele>227.97</ele><time>2025-05-26T06:59:28Z</time></trkpt>
<trkpt lat="50.419878" lon="5.257842"><ele>227.2</ele><time>2025-05-26T06:59:36Z</time></trkpt>
<trkpt lat="50.421213" lon="5.257055"><ele>219.74</ele><time>2025-05-26T06:59:44Z</time></trkpt>
<trkpt lat="50.421924" lon="5.256595"><ele>213.22</ele><time>2025-05-26T06:59:51Z</time></trkpt>
<trkpt lat="50.42199" lon="5.256571"><ele>212.23</ele><time>2025-05-26T06:59:59Z</time></trkpt>
<trkpt lat="50.422056" lon="5.256576"><ele>211.14</ele><time>2025-05-26T07:00:07Z</time></trkpt>
<trkpt lat="50.422144" lon="5.256638"><ele>209.97</ele><time>2025-05-26T07:00:15Z</time></trkpt>
<trkpt lat="50.422279" lon="5.256838"><ele>209.77</ele><time>2025-05-26T07:00:23Z</time></trkpt>
<trkpt lat="50.422901" lon="5.258363"><ele>206.35</ele><time>2025-05-26T07:00:30Z</time></trkpt>
<trkpt lat="50.423419" lon="5.259216"><ele>203.46</ele><time>2025-05-26T07:00:38Z</time></trkpt>
<trkpt lat="50.424226" lon="5.260434"><ele>207.6</ele><time>2025-05-26T07:00:46Z</time></trkpt>
<trkpt lat="50.424517" lon="5.260815"><ele>211.78</ele><time>2025-05-26T07:00:54Z</time></trkpt>
<trkpt lat="50.424847" lon="5.261241"><ele>213.77</ele><time>2025-05-26T07:01:02Z</time></trkpt>
<trkpt lat="50.425817" lon="5.262407"><ele>208.53</ele><time>2025-05-26T07:01:09Z</time></trkpt>
<trkpt lat="50.426219" lon="5.262936"><ele>213.11</ele><time>2025-05-26T07:01:17Z</time></trkpt>
<trkpt lat="50.426384" lon="5.263074"><ele>215.79</ele><time>2025-05-26T07:01:25Z</time></trkpt>
<trkpt lat="50.426497" lon="5.26309"><ele>218.48</ele><time>2025-05-26T07:01:33Z</time></trkpt>
<trkpt lat="50.428058" lon="5.262388"><ele>230.98</ele><time>2025-05-26T07:01:41Z</time></trkpt>
<trkpt lat="50.429367" lon="5.261853"><ele>228.72</ele><time>2025-05-26T07:01:49Z</time></trkpt>
<trkpt lat="50.429656" lon="5.261859"><ele>230.52</ele><time>2025-05-26T07:01:56Z</time></trkpt>
<trkpt lat="50.433978" lon="5.26264"><ele>241.73</ele><time>2025-05-26T07:02:04Z</time></trkpt>
<trkpt lat="50.434217" lon="5.262743"><ele>240.62</ele><time>2025-05-26T07:02:12Z</time></trkpt>
<trkpt lat="50.434706" lon="5.263112"><ele>234.02</ele><time>2025-05-26T07:02:20Z</time></trkpt>
<trkpt lat="50.436105" lon="5.264315"><ele>233.57</ele><time>2025-05-26T07:02:28Z</time></trkpt>
<trkpt lat="50.436375" lon="5.264624"><ele>231.15</ele><time>2025-05-26T07:02:35Z</time></trkpt>
<trkpt lat="50.436618" lon="5.264949"><ele>230.17</ele><time>2025-05-26T07:02:43Z</time></trkpt>
<trkpt lat="50.437064" lon="5.265693"><ele>226.55</ele><time>2025-05-26T07:02:51Z</time></trkpt>
<trkpt lat="50.437535" lon="5.266607"><ele>222.77</ele><time>2025-05-26T07:02:59Z</time></trkpt>
<trkpt lat="50.438079" lon="5.267914"><ele>226.08</ele><time>2025-05-26T07:03:07Z</time></trkpt>
<trkpt lat="50.438743" lon="5.269446"><ele>222.62</ele><time>2025-05-26T07:03:15Z</time></trkpt>
<trkpt lat="50.439634" lon="5.271579"><ele>216.65</ele><time>2025-05-26T07:03:22Z</time></trkpt>
<trkpt lat="50.440262" lon="5.273057"><ele>210.27</ele><time>2025-05-26T07:03:30Z</time></trkpt>
<trkpt lat="50.440931" lon="5.274531"><ele>215.27</ele><time>2025-05-26T07:03:38Z</time></trkpt>
<trkpt lat="50.441159" lon="5.274951"><ele>214.22</ele><time>2025-05-26T07:03:46Z</time></trkpt>
<trkpt lat="50.444116" lon="5.279312"><ele>206.85</ele><time>2025-05-26T07:03:54Z</time></trkpt>
<trkpt lat="50.444855" lon="5.280303"><ele>204.57</ele><time>2025-05-26T07:04:01Z</time></trkpt>
<trkpt lat="50.445535" lon="5.281083"><ele>199.64</ele><time>2025-05-26T07:04:09Z</time></trkpt>
<trkpt lat="50.446044" lon="5.281893"><ele>200.53</ele><time>2025-05-26T07:04:17Z</time></trkpt>
<trkpt lat="50.446594" lon="5.282842"><ele>194.44</ele><time>2025-05-26T07:04:25Z</time></trkpt>
<trkpt lat="50.446992" lon="5.283442"><ele>194.34</ele><time>2025-05-26T07:04:33Z</time></trkpt>
<trkpt lat="50.447728" lon="5.284105"><ele>177.68</ele><time>2025-05-26T07:04:40Z</time></trkpt>
<trkpt lat="50.447793" lon="5.284163"><ele>176.84</ele><time>2025-05-26T07:04:48Z</time></trkpt>
<trkpt lat="50.449447" lon="5.285587"><ele>178.35</ele><time>2025-05-26T07:04:56Z</time></trkpt>
<trkpt lat="50.449608" lon="5.285683"><ele>180.77</ele><time>2025-05-26T07:05:04Z</time></trkpt>
<trkpt lat="50.449679" lon="5.285694"><ele>181.6</ele><time>2025-05-26T07:05:12Z</time></trkpt>
<trkpt lat="50.449867" lon="5.285656"><ele>182.59</ele><time>2025-05-26T07:05:20Z</time></trkpt>
<trkpt lat="50.450056" lon="5.28552"><ele>181.52</ele><time>2025-05-26T07:05:27Z</time></trkpt>
<trkpt lat="50.450669" lon="5.284761"><ele>180.09</ele><time>2025-05-26T07:05:35Z</time></trkpt>
<trkpt lat="50.45096" lon="5.284349"><ele>179.75</ele><time>2025-05-26T07:05:43Z</time></trkpt>
<trkpt lat="50.451072" lon="5.284262"><ele>180.15</ele><time>2025-05-26T07:05:51Z</time></trkpt>
<trkpt lat="50.451202" lon="5.284263"><ele>181.22</ele><time>2025-05-26T07:05:59Z</time></trkpt>
<trkpt lat="50.451386" lon="5.284433"><ele>182.98</ele><time>2025-05-26T07:06:06Z</time></trkpt>
<trkpt lat="50.451532" lon="5.284572"><ele>183.0</ele><time>2025-05-26T07:06:14Z</time></trkpt>
<trkpt lat="50.451828" lon="5.284864"><ele>182.42</ele><time>2025-05-26T07:06:22Z</time></trkpt>
<trkpt lat="50.452103" lon="5.285212"><ele>183.9</ele><time>2025-05-26T07:06:30Z</time></trkpt>
<trkpt lat="50.45243" lon="5.285758"><ele>190.42</ele><time>2025-05-26T07:06:38Z</time></trkpt>
<trkpt lat="50.452608" lon="5.285978"><ele>194.93</ele><time>2025-05-26T07:06:45Z</time></trkpt>
<trkpt lat="50.452793" lon="5.286086"><ele>198.81</ele><time>2025-05-26T07:06:53Z</time></trkpt>
<trkpt lat="50.453295" lon="5.286285"><ele>203.66</ele><time>2025-05-26T07:07:01Z</time></trkpt>
<trkpt lat="50.453441" lon="5.286368"><ele>203.95</ele><time>2025-05-26T07:07:09Z</time></trkpt>
<trkpt lat="50.453635" lon="5.286553"><ele>204.99</ele><time>2025-05-26T07:07:17Z</time></trkpt>
<trkpt lat="50.455162" lon="5.288539"><ele>220.58</ele><time>2025-05-26T07:07:25Z</time></trkpt>
<trkpt lat="50.455282" lon="5.288739"><ele>221.04</ele><time>2025-05-26T07:07:32Z</time></trkpt>
<trkpt lat="50.455366" lon="5.288927"><ele>222.04</ele><time>2025-05-26T07:07:40Z</time></trkpt>
<trkpt lat="50.455468" lon="5.289299"><ele>223.85</ele><time>2025-05-26T07:07:48Z</time></trkpt>
<trkpt lat="50.456664" lon="5.296133"><ele>232.91</ele><time>2025-05-26T07:07:56Z</time></trkpt>
<trkpt lat="50.456801" lon="5.296659"><ele>230.07</ele><time>2025-05-26T07:08:04Z</time></trkpt>
<trkpt lat="50.457722" lon="5.298839"><ele>228.42</ele><time>2025-05-26T07:08:11Z</time></trkpt>
<trkpt lat="50.458032" lon="5.299556"><ele>227.11</ele><time>2025-05-26T07:08:19Z</time></trkpt>
<trkpt lat="50.458135" lon="5.299756"><ele>227.26</ele><time>2025-05-26T07:08:27Z</time></trkpt>
<trkpt lat="50.458335" lon="5.300015"><ele>228.04</ele><time>2025-05-26T07:08:35Z</time></trkpt>
<trkpt lat="50.458583" lon="5.300167"><ele>225.91</ele><time>2025-05-26T07:08:43Z</time></trkpt>
<trkpt lat="50.46382" lon="5.301988"><ele>250.31</ele><time>2025-05-26T07:08:51Z</time></trkpt>
<trkpt lat="50.466925" lon="5.303094"><ele>265.86</ele><time>2025-05-26T07:08:58Z</time></trkpt>
<trkpt lat="50.467278" lon="5.303197"><ele>267.0</ele><time>2025-05-26T07:09:06Z</time></trkpt>
<trkpt lat="50.467556" lon="5.30334"><ele>267.01</ele><time>2025-05-26T07:09:14Z</time></trkpt>
<trkpt lat="50.467776" lon="5.303594"><ele>267.93</ele><time>2025-05-26T07:09:22Z</time></trkpt>
<trkpt lat="50.468619" lon="5.304999"><ele>269.93</ele><time>2025-05-26T07:09:30Z</time></trkpt>
<trkpt lat="50.470461" lon="5.308188"><ele>268.94</ele><time>2025-05-26T07:09:37Z</time></trkpt>
<trkpt lat="50.471869" lon="5.310558"><ele>265.11</ele><time>2025-05-26T07:09:45Z</time></trkpt>
<trkpt lat="50.472071" lon="5.311006"><ele>264.68</ele><time>2025-05-26T07:09:53Z</time></trkpt>
<trkpt lat="50.473461" lon="5.314281"><ele>259.04</ele><time>2025-05-26T07:10:01Z</time></trkpt>
<trkpt lat="50.477613" lon="5.324174"><ele>261.18</ele><time>2025-05-26T07:10:09Z</time></trkpt>
<trkpt lat="50.483882" lon="5.339199"><ele>248.14</ele><time>2025-05-26T07:10:16Z</time></trkpt>
<trkpt lat="50.484289" lon="5.339997"><ele>248.55</ele><time>2025-05-26T07:10:24Z</time></trkpt>
<trkpt lat="50.484326" lon="5.340106"><ele>248.43</ele><time>2025-05-26T07:10:32Z</time></trkpt>
<trkpt lat="50.484371" lon="5.34034"><ele>248.26</ele><time>2025-05-26T07:10:40Z</time></trkpt>
<trkpt lat="50.484337" lon="5.340529"><ele>248.39</ele><time>2025-05-26T07:10:46Z</time></trkpt>
<trkpt lat="50.48437" lon="5.340719"><ele>248.27</ele><time>2025-05-26T07:10:53Z</time></trkpt>
<trkpt lat="50.48445" lon="5.340845"><ele>247.94</ele><time>2025-05-26T07:10:59Z</time></trkpt>
<trkpt lat="50.484502" lon="5.340882"><ele>247.62</ele><time>2025-05-26T07:11:05Z</time></trkpt>
<trkpt lat="50.484608" lon="5.340895"><ele>247.19</ele><time>2025-05-26T07:11:12Z</time></trkpt>
<trkpt lat="50.484659" lon="5.340872"><ele>247.09</ele><time>2025-05-26T07:11:18Z</time></trkpt>
<trkpt lat="50.484829" lon="5.340982"><ele>246.08</ele><time>2025-05-26T07:11:24Z</time></trkpt>
<trkpt lat="50.485264" lon="5.341752"><ele>243.0</ele><time>2025-05-26T07:11:30Z</time></trkpt>
<trkpt lat="50.486233" lon="5.343652"><ele>240.48</ele><time>2025-05-26T07:11:37Z</time></trkpt>
<trkpt lat="50.488065" lon="5.346927"><ele>234.0</ele><time>2025-05-26T07:11:43Z</time></trkpt>
<trkpt lat="50.489734" lon="5.350017"><ele>228.98</ele><time>2025-05-26T07:11:49Z</time></trkpt>
<trkpt lat="50.490034" lon="5.350677"><ele>229.69</ele><time>2025-05-26T07:11:56Z</time></trkpt>
<trkpt lat="50.491369" lon="5.354351"><ele>228.31</ele><time>2025-05-26T07:12:02Z</time></trkpt>
<trkpt lat="50.491672" lon="5.355168"><ele>227.83</ele><time>2025-05-26T07:12:08Z</time></trkpt>
<trkpt lat="50.4918" lon="5.35547"><ele>226.22</ele><time>2025-05-26T07:12:15Z</time></trkpt>
<trkpt lat="50.491911" lon="5.355661"><ele>225.51</ele><time>2025-05-26T07:12:21Z</time></trkpt>
<trkpt lat="50.49283" lon="5.35671"><ele>218.28</ele><time>2025-05-26T07:12:27Z</time></trkpt>
<trkpt lat="50.493107" lon="5.357286"><ele>214.41</ele><time>2025-05-26T07:12:34Z</time></trkpt>
<trkpt lat="50.493285" lon="5.357713"><ele>217.23</ele><time>2025-05-26T07:12:40Z</time></trkpt>
<trkpt lat="50.493425" lon="5.358163"><ele>218.6</ele><time>2025-05-26T07:12:46Z</time></trkpt>
<trkpt lat="50.493959" lon="5.361039"><ele>224.8</ele><time>2025-05-26T07:12:53Z</time></trkpt>
<trkpt lat="50.4943" lon="5.362415"><ele>227.48</ele><time>2025-05-26T07:12:59Z</time></trkpt>
<trkpt lat="50.4946" lon="5.363305"><ele>228.34</ele><time>2025-05-26T07:13:05Z</time></trkpt>
<trkpt lat="50.496126" lon="5.367495"><ele>240.11</ele><time>2025-05-26T07:13:11Z</time></trkpt>
<trkpt lat="50.496547" lon="5.368571"><ele>239.63</ele><time>2025-05-26T07:13:18Z</time></trkpt>
<trkpt lat="50.497223" lon="5.370019"><ele>244.0</ele><time>2025-05-26T07:13:24Z</time></trkpt>
<trkpt lat="50.497882" lon="5.369304"><ele>244.38</ele><time>2025-05-26T07:13:31Z</time></trkpt>
<trkpt lat="50.498039" lon="5.369176"><ele>244.94</ele><time>2025-05-26T07:13:38Z</time></trkpt>
<trkpt lat="50.49908" lon="5.368666"><ele>252.44</ele><time>2025-05-26T07:13:45Z</time></trkpt>
<trkpt lat="50.500933" lon="5.367677"><ele>259.77</ele><time>2025-05-26T07:13:52Z</time></trkpt>
<trkpt lat="50.501658" lon="5.367737"><ele>257.89</ele><time>2025-05-26T07:13:59Z</time></trkpt>
<trkpt lat="50.502022" lon="5.367781"><ele>252.32</ele><time>2025-05-26T07:14:06Z</time></trkpt>
<trkpt lat="50.502301" lon="5.367754"><ele>246.42</ele><time>2025-05-26T07:14:13Z</time></trkpt>
<trkpt lat="50.503162" lon="5.367514"><ele>235.01</ele><time>2025-05-26T07:14:20Z</time></trkpt>
<trkpt lat="50.503353" lon="5.367532"><ele>234.66</ele><time>2025-05-26T07:14:27Z</time></trkpt>
<trkpt lat="50.503493" lon="5.36761"><ele>232.65</ele><time>2025-05-26T07:14:34Z</time></trkpt>
<trkpt lat="50.504228" lon="5.368264"><ele>223.59</ele><time>2025-05-26T07:14:41Z</time></trkpt>
<trkpt lat="50.504491" lon="5.368568"><ele>220.5</ele><time>2025-05-26T07:14:48Z</time></trkpt>
<trkpt lat="50.50463" lon="5.3688"><ele>219.0</ele><time>2025-05-26T07:14:55Z</time></trkpt>
<trkpt lat="50.504731" lon="5.368907"><ele>217.9</ele><time>2025-05-26T07:15:02Z</time></trkpt>
<trkpt lat="50.504924" lon="5.369036"><ele>215.82</ele><time>2025-05-26T07:15:09Z</time></trkpt>
<trkpt lat="50.505137" lon="5.369081"><ele>214.2</ele><time>2025-05-26T07:15:16Z</time></trkpt>
<trkpt lat="50.505248" lon="5.369077"><ele>213.54</ele><time>2025-05-26T07:15:23Z</time></trkpt>
<trkpt lat="50.505459" lon="5.369018"><ele>212.28</ele><time>2025-05-26T07:15:30Z</time></trkpt>
<trkpt lat="50.505637" lon="5.36892"><ele>211.23</ele><time>2025-05-26T07:15:37Z</time></trkpt>
<trkpt lat="50.50569" lon="5.368752"><ele>210.51</ele><time>2025-05-26T07:15:44Z</time></trkpt>
<trkpt lat="50.505763" lon="5.36865"><ele>210.14</ele><time>2025-05-26T07:15:51Z</time></trkpt>
<trkpt lat="50.505901" lon="5.368544"><ele>210.49</ele><time>2025-05-26T07:15:58Z</time></trkpt>
<trkpt lat="50.506653" lon="5.368167"><ele>213.49</ele><time>2025-05-26T07:16:05Z</time></trkpt>
<trkpt lat="50.507047" lon="5.368081"><ele>220.57</ele><time>2025-05-26T07:16:12Z</time></trkpt>
<trkpt lat="50.507089" lon="5.368115"><ele>221.3</ele><time>2025-05-26T07:16:19Z</time></trkpt>
<trkpt lat="50.507182" lon="5.368362"><ele>223.5</ele><time>2025-05-26T07:16:26Z</time></trkpt>
<trkpt lat="50.507231" lon="5.368343"><ele>224.04</ele><time>2025-05-26T07:16:28Z</time></trkpt>
<trkpt lat="50.507247" lon="5.368293"><ele>223.85</ele><time>2025-05-26T07:16:30Z</time></trkpt>
<trkpt lat="50.507294" lon="5.36783"><ele>222.4</ele><time>2025-05-26T07:16:32Z</time></trkpt>
<trkpt lat="50.507273" lon="5.367683"><ele>222.24</ele><time>2025-05-26T07:16:33Z</time></trkpt>
<trkpt lat="50.50763" lon="5.367182"><ele>224.15</ele><time>2025-05-26T07:16:37Z</time></trkpt>
<trkpt lat="50.507877" lon="5.366952"><ele>224.97</ele><time>2025-05-26T07:16:42Z</time></trkpt>
<trkpt lat="50.508498" lon="5.366611"><ele>222.41</ele><time>2025-05-26T07:16:46Z</time></trkpt>
<trkpt lat="50.508728" lon="5.36622"><ele>222.42</ele><time>2025-05-26T07:16:50Z</time></trkpt>
<trkpt lat="50.508869" lon="5.366095"><ele>222.87</ele><time>2025-05-26T07:16:55Z</time></trkpt>
<trkpt lat="50.50968" lon="5.365533"><ele>214.52</ele><time>2025-05-26T07:16:59Z</time></trkpt>
<trkpt lat="50.510151" lon="5.365088"><ele>211.37</ele><time>2025-05-26T07:17:04Z</time></trkpt>
<trkpt lat="50.510841" lon="5.364505"><ele>206.21</ele><time>2025-05-26T07:17:08Z</time></trkpt>
<trkpt lat="50.511051" lon="5.364327"><ele>206.33</ele><time>2025-05-26T07:17:13Z</time></trkpt>
<trkpt lat="50.511309" lon="5.364158"><ele>207.74</ele><time>2025-05-26T07:17:17Z</time></trkpt>
<trkpt lat="50.511467" lon="5.364121"><ele>209.29</ele><time>2025-05-26T07:17:22Z</time></trkpt>
<trkpt lat="50.5122" lon="5.364071"><ele>217.85</ele><time>2025-05-26T07:17:26Z</time></trkpt>
<trkpt lat="50.512809" lon="5.364113"><ele>222.7</ele><time>2025-05-26T07:17:30Z</time></trkpt>
<trkpt lat="50.513147" lon="5.364113"><ele>226.12</ele><time>2025-05-26T07:17:35Z</time></trkpt>
<trkpt lat="50.513526" lon="5.364"><ele>229.11</ele><time>2025-05-26T07:17:39Z</time></trkpt>
<trkpt lat="50.513831" lon="5.363767"><ele>229.65</ele><time>2025-05-26T07:17:44Z</time></trkpt>
<trkpt lat="50.513931" lon="5.363763"><ele>229.1</ele><time>2025-05-26T07:17:48Z</time></trkpt>
<trkpt lat="50.514157" lon="5.363822"><ele>226.86</ele><time>2025-05-26T07:17:53Z</time></trkpt>
<trkpt lat="50.514628" lon="5.364327"><ele>225.91</ele><time>2025-05-26T07:17:57Z</time></trkpt>
<trkpt lat="50.514713" lon="5.36438"><ele>225.8</ele><time>2025-05-26T07:18:02Z</time></trkpt>
<trkpt lat="50.514998" lon="5.364373"><ele>222.03</ele><time>2025-05-26T07:18:06Z</time></trkpt>
<trkpt lat="50.5153" lon="5.36441"><ele>218.71</ele><time>2025-05-26T07:18:10Z</time></trkpt>
<trkpt lat="50.51636" lon="5.3648"><ele>216.28</ele><time>2025-05-26T07:18:15Z</time></trkpt>
<trkpt lat="50.516649" lon="5.364866"><ele>216.97</ele><time>2025-05-26T07:18:19Z</time></trkpt>
<trkpt lat="50.518149" lon="5.364751"><ele>231.6</ele><time>2025-05-26T07:18:24Z</time></trkpt>
<trkpt lat="50.518331" lon="5.36463"><ele>232.99</ele><time>2025-05-26T07:18:28Z</time></trkpt>
<trkpt lat="50.518542" lon="5.364426"><ele>234.49</ele><time>2025-05-26T07:18:33Z</time></trkpt>
<trkpt lat="50.523015" lon="5.36023"><ele>235.29</ele><time>2025-05-26T07:18:37Z</time></trkpt>
<trkpt lat="50.523244" lon="5.360089"><ele>234.32</ele><time>2025-05-26T07:18:42Z</time></trkpt>
<trkpt lat="50.524413" lon="5.359438"><ele>230.09</ele><time>2025-05-26T07:18:46Z</time></trkpt>
<trkpt lat="50.525492" lon="5.359051"><ele>220.68</ele><time>2025-05-26T07:18:50Z</time></trkpt>
<trkpt lat="50.525754" lon="5.358872"><ele>219.29</ele><time>2025-05-26T07:18:55Z</time></trkpt>
<trkpt lat="50.52607" lon="5.358478"><ele>218.15</ele><time>2025-05-26T07:18:59Z</time></trkpt>
<trkpt lat="50.526245" lon="5.358399"><ele>217.04</ele><time>2025-05-26T07:19:04Z</time></trkpt>
<trkpt lat="50.526588" lon="5.358441"><ele>214.84</ele><time>2025-05-26T07:19:08Z</time></trkpt>
<trkpt lat="50.527114" lon="5.35845"><ele>211.81</ele><time>2025-05-26T07:19:13Z</time></trkpt>
<trkpt lat="50.527257" lon="5.358562"><ele>211.85</ele><time>2025-05-26T07:19:17Z</time></trkpt>
<trkpt lat="50.527452" lon="5.35882"><ele>212.13</ele><time>2025-05-26T07:19:22Z</time></trkpt>
<trkpt lat="50.527699" lon="5.35936"><ele>212.25</ele><time>2025-05-26T07:19:26Z</time></trkpt>
<trkpt lat="50.528152" lon="5.360025"><ele>207.0</ele><time>2025-05-26T07:19:30Z</time></trkpt>
<trkpt lat="50.528342" lon="5.360082"><ele>207.02</ele><time>2025-05-26T07:19:35Z</time></trkpt>
<trkpt lat="50.529383" lon="5.359693"><ele>204.05</ele><time>2025-05-26T07:19:39Z</time></trkpt>
<trkpt lat="50.52988" lon="5.359275"><ele>200.16</ele><time>2025-05-26T07:19:44Z</time></trkpt>
<trkpt lat="50.53061" lon="5.358313"><ele>192.24</ele><time>2025-05-26T07:19:48Z</time></trkpt>
<trkpt lat="50.530844" lon="5.357721"><ele>188.88</ele><time>2025-05-26T07:19:53Z</time></trkpt>
<trkpt lat="50.531133" lon="5.357192"><ele>186.94</ele><time>2025-05-26T07:19:57Z</time></trkpt>
<trkpt lat="50.531502" lon="5.356861"><ele>181.93</ele><time>2025-05-26T07:20:02Z</time></trkpt>
<trkpt lat="50.531937" lon="5.356521"><ele>178.82</ele><time>2025-05-26T07:20:06Z</time></trkpt>
<trkpt lat="50.532492" lon="5.356217"><ele>176.87</ele><time>2025-05-26T07:20:10Z</time></trkpt>
<trkpt lat="50.532928" lon="5.356233"><ele>173.22</ele><time>2025-05-26T07:20:15Z</time></trkpt>
<trkpt lat="50.533393" lon="5.356346"><ele>168.63</ele><time>2025-05-26T07:20:19Z</time></trkpt>
<trkpt lat="50.534222" lon="5.356965"><ele>146.61</ele><time>2025-05-26T07:20:24Z</time></trkpt>
<trkpt lat="50.534309" lon="5.356934"><ele>144.98</ele><time>2025-05-26T07:20:28Z</time></trkpt>
<trkpt lat="50.534373" lon="5.356828"><ele>143.86</ele><time>2025-05-26T07:20:33Z</time></trkpt>
<trkpt lat="50.534375" lon="5.356094"><ele>149.73</ele><time>2025-05-26T07:20:37Z</time></trkpt>
<trkpt lat="50.534434" lon="5.355188"><ele>142.97</ele><time>2025-05-26T07:20:41Z</time></trkpt>
<trkpt lat="50.535012" lon="5.35295"><ele>125.59</ele><time>2025-05-26T07:20:46Z</time></trkpt>
<trkpt lat="50.535077" lon="5.35281"><ele>125.66</ele><time>2025-05-26T07:20:50Z</time></trkpt>
<trkpt lat="50.535153" lon="5.352742"><ele>124.99</ele><time>2025-05-26T07:20:55Z</time></trkpt>
<trkpt lat="50.535333" lon="5.352452"><ele>124.41</ele><time>2025-05-26T07:20:59Z</time></trkpt>
<trkpt lat="50.53597" lon="5.351622"><ele>114.2</ele><time>2025-05-26T07:21:04Z</time></trkpt>
<trkpt lat="50.53652" lon="5.351079"><ele>106.82</ele><time>2025-05-26T07:21:08Z</time></trkpt>
<trkpt lat="50.537324" lon="5.350458"><ele>107.26</ele><time>2025-05-26T07:21:13Z</time></trkpt>
<trkpt lat="50.538231" lon="5.349168"><ele>102.8</ele><time>2025-05-26T07:21:21Z</time></trkpt>
<trkpt lat="50.53887" lon="5.34787"><ele>107.11</ele><time>2025-05-26T07:21:29Z</time></trkpt>
<trkpt lat="50.539203" lon="5.347098"><ele>106.78</ele><time>2025-05-26T07:21:37Z</time></trkpt>
<trkpt lat="50.539835" lon="5.345319"><ele>104.39</ele><time>2025-05-26T07:21:45Z</time></trkpt>
<trkpt lat="50.540126" lon="5.344366"><ele>100.6</ele><time>2025-05-26T07:21:53Z</time></trkpt>
<trkpt lat="50.540383" lon="5.343793"><ele>99.61</ele><time>2025-05-26T07:22:02Z</time></trkpt>
<trkpt lat="50.540641" lon="5.343592"><ele>101.44</ele><time>2025-05-26T07:22:10Z</time></trkpt>
<trkpt lat="50.540911" lon="5.343494"><ele>102.77</ele><time>2025-05-26T07:22:18Z</time></trkpt>
<trkpt lat="50.541121" lon="5.343387"><ele>99.58</ele><time>2025-05-26T07:22:26Z</time></trkpt>
<trkpt lat="50.54179" lon="5.343212"><ele>89.79</ele><time>2025-05-26T07:22:34Z</time></trkpt>
<trkpt lat="50.542" lon="5.343076"><ele>87.13</ele><time>2025-05-26T07:22:43Z</time></trkpt>
<trkpt lat="50.543838" lon="5.341397"><ele>86.0</ele><time>2025-05-26T07:22:51Z</time></trkpt>
<trkpt lat="50.545034" lon="5.34034"><ele>85.78</ele><time>2025-05-26T07:22:59Z</time></trkpt>
<trkpt lat="50.544728" lon="5.33923"><ele>84.25</ele><time>2025-05-26T07:23:05Z</time></trkpt>
<trkpt lat="50.544532" lon="5.338581"><ele>84.34</ele><time>2025-05-26T07:23:11Z</time></trkpt>
<trkpt lat="50.544262" lon="5.337848"><ele>78.32</ele><time>2025-05-26T07:23:17Z</time></trkpt>
<trkpt lat="50.5441" lon="5.337519"><ele>75.7</ele><time>2025-05-26T07:23:22Z</time></trkpt>
<trkpt lat="50.543398" lon="5.336443"><ele>74.68</ele><time>2025-05-26T07:23:28Z</time></trkpt>
<trkpt lat="50.543351" lon="5.336047"><ele>73.48</ele><time>2025-05-26T07:23:34Z</time></trkpt>
<trkpt lat="50.543292" lon="5.335707"><ele>71.09</ele><time>2025-05-26T07:23:40Z</time></trkpt>
<trkpt lat="50.543251" lon="5.335565"><ele>70.07</ele><time>2025-05-26T07:23:46Z</time></trkpt>
<trkpt lat="50.5434" lon="5.335381"><ele>69.37</ele><time>2025-05-26T07:23:48Z</time></trkpt>
<trkpt lat="50.543477" lon="5.335241"><ele>68.86</ele><time>2025-05-26T07:23:50Z</time></trkpt>
<trkpt lat="50.543501" lon="5.335135"><ele>68.49</ele><time>2025-05-26T07:23:52Z</time></trkpt>
<trkpt lat="50.543503" lon="5.335018"><ele>68.07</ele><time>2025-05-26T07:23:54Z</time></trkpt>
<trkpt lat="50.543477" lon="5.334908"><ele>67.67</ele><time>2025-05-26T07:23:56Z</time></trkpt>
<trkpt lat="50.543435" lon="5.334811"><ele>67.32</ele><time>2025-05-26T07:23:58Z</time></trkpt>
<trkpt lat="50.543095" lon="5.334302"><ele>67.42</ele><time>2025-05-26T07:24:00Z</time></trkpt>
<trkpt lat="50.543039" lon="5.334102"><ele>66.87</ele><time>2025-05-26T07:24:02Z</time></trkpt>
<trkpt lat="50.543037" lon="5.333819"><ele>66.14</ele><time>2025-05-26T07:24:04Z</time></trkpt>
<trkpt lat="50.543106" lon="5.333584"><ele>65.5</ele><time>2025-05-26T07:24:06Z</time></trkpt>
<trkpt lat="50.543249" lon="5.33335"><ele>64.0</ele><time>2025-05-26T07:24:08Z</time></trkpt>
<trkpt lat="50.544954" lon="5.330867"><ele>69.96</ele><time>2025-05-26T07:24:10Z</time></trkpt>
<trkpt lat="50.545317" lon="5.330302"><ele>68.07</ele><time>2025-05-26T07:24:12Z</time></trkpt>
<trkpt lat="50.545381" lon="5.330349"><ele>68.16</ele><time>2025-05-26T07:24:16Z</time></trkpt>
<trkpt lat="50.54544" lon="5.330343"><ele>68.1</ele><time>2025-05-26T07:24:20Z</time></trkpt>
<trkpt lat="50.545492" lon="5.330298"><ele>68.02</ele><time>2025-05-26T07:24:24Z</time></trkpt>
<trkpt lat="50.545533" lon="5.330194"><ele>68.0</ele><time>2025-05-26T07:24:29Z</time></trkpt>
<trkpt lat="50.54553" lon="5.330072"><ele>68.0</ele><time>2025-05-26T07:24:33Z</time></trkpt>
<trkpt lat="50.545553" lon="5.329877"><ele>68.44</ele><time>2025-05-26T07:24:37Z</time></trkpt>
<trkpt lat="50.545609" lon="5.329636"><ele>69.0</ele><time>2025-05-26T07:24:41Z</time></trkpt>
<trkpt lat="50.545645" lon="5.329332"><ele>69.13</ele><time>2025-05-26T07:24:46Z</time></trkpt>
<trkpt lat="50.545823" lon="5.32639"><ele>66.04</ele><time>2025-05-26T07:24:50Z</time></trkpt>
<trkpt lat="50.545852" lon="5.326284"><ele>65.93</ele><time>2025-05-26T07:24:54Z</time></trkpt>
<trkpt lat="50.545928" lon="5.326062"><ele>65.83</ele><time>2025-05-26T07:24:59Z</time></trkpt>
<trkpt lat="50.54603" lon="5.325861"><ele>66.19</ele><time>2025-05-26T07:25:03Z</time></trkpt>
<trkpt lat="50.546189" lon="5.325679"><ele>66.68</ele><time>2025-05-26T07:25:07Z</time></trkpt>
<trkpt lat="50.54638" lon="5.32553"><ele>67.09</ele><time>2025-05-26T07:25:11Z</time></trkpt>
<trkpt lat="50.547267" lon="5.325209"><ele>68.0</ele><time>2025-05-26T07:25:16Z</time></trkpt>
<trkpt lat="50.548062" lon="5.324891"><ele>69.01</ele><time>2025-05-26T07:25:20Z</time></trkpt>
<trkpt lat="50.548232" lon="5.324746"><ele>69.58</ele><time>2025-05-26T07:25:24Z</time></trkpt>
<trkpt lat="50.548482" lon="5.324414"><ele>70.43</ele><time>2025-05-26T07:25:29Z</time></trkpt>
<trkpt lat="50.55006" lon="5.322054"><ele>69.82</ele><time>2025-05-26T07:25:33Z</time></trkpt>
<trkpt lat="50.552574" lon="5.326425"><ele>73.97</ele><time>2025-05-26T07:25:48Z</time></trkpt>
<trkpt lat="50.552802" lon="5.326858"><ele>77.07</ele><time>2025-05-26T07:26:02Z</time></trkpt>
<trkpt lat="50.553509" lon="5.328781"><ele>77.04</ele><time>2025-05-26T07:26:17Z</time></trkpt>
<trkpt lat="50.553845" lon="5.329481"><ele>76.15</ele><time>2025-05-26T07:26:32Z</time></trkpt>
<trkpt lat="50.555203" lon="5.331934"><ele>76.7</ele><time>2025-05-26T07:26:47Z</time></trkpt>
<trkpt lat="50.555402" lon="5.332211"><ele>76.56</ele><time>2025-05-26T07:27:02Z</time></trkpt>
<trkpt lat="50.556112" lon="5.333038"><ele>80.4</ele><time>2025-05-26T07:27:16Z</time></trkpt>
<trkpt lat="50.556283" lon="5.333325"><ele>81.04</ele><time>2025-05-26T07:27:31Z</time></trkpt>
<trkpt lat="50.557122" lon="5.335083"><ele>70.45</ele><time>2025-05-26T07:27:46Z</time></trkpt>
<trkpt lat="50.55756" lon="5.335993"><ele>69.3</ele><time>2025-05-26T07:28:01Z</time></trkpt>
<trkpt lat="50.558081" lon="5.335283"><ele>80.79</ele><time>2025-05-26T07:28:03Z</time></trkpt>
<trkpt lat="50.558706" lon="5.334097"><ele>96.6</ele><time>2025-05-26T07:28:05Z</time></trkpt>
<trkpt lat="50.55881" lon="5.333765"><ele>100.74</ele><time>2025-05-26T07:28:07Z</time></trkpt>
<trkpt lat="50.55884" lon="5.333564"><ele>102.23</ele><time>2025-05-26T07:28:09Z</time></trkpt>
<trkpt lat="50.558829" lon="5.332937"><ele>107.28</ele><time>2025-05-26T07:28:11Z</time></trkpt>
<trkpt lat="50.558854" lon="5.33276"><ele>108.56</ele><time>2025-05-26T07:28:13Z</time></trkpt>
<trkpt lat="50.558931" lon="5.332621"><ele>109.39</ele><time>2025-05-26T07:28:15Z</time></trkpt>
<trkpt lat="50.559116" lon="5.332537"><ele>106.07</ele><time>2025-05-26T07:28:17Z</time></trkpt>
<trkpt lat="50.559678" lon="5.332506"><ele>104.7</ele><time>2025-05-26T07:28:19Z</time></trkpt>
<trkpt lat="50.559849" lon="5.332539"><ele>106.12</ele><time>2025-05-26T07:28:21Z</time></trkpt>
<trkpt lat="50.559986" lon="5.332604"><ele>107.63</ele><time>2025-05-26T07:28:23Z</time></trkpt>
<trkpt lat="50.56071" lon="5.333199"><ele>117.23</ele><time>2025-05-26T07:28:25Z</time></trkpt>
<trkpt lat="50.560872" lon="5.333345"><ele>117.77</ele><time>2025-05-26T07:28:27Z</time></trkpt>
<trkpt lat="50.56093" lon="5.333448"><ele>118.73</ele><time>2025-05-26T07:28:29Z</time></trkpt>
<trkpt lat="50.561357" lon="5.333904"><ele>116.92</ele><time>2025-05-26T07:28:31Z</time></trkpt>
<trkpt lat="50.561508" lon="5.333993"><ele>115.95</ele><time>2025-05-26T07:28:34Z</time></trkpt>
<trkpt lat="50.561601" lon="5.334009"><ele>115.0</ele><time>2025-05-26T07:28:37Z</time></trkpt>
<trkpt lat="50.561777" lon="5.333992"><ele>114.75</ele><time>2025-05-26T07:28:39Z</time></trkpt>
<trkpt lat="50.562228" lon="5.333804"><ele>115.79</ele><time>2025-05-26T07:28:42Z</time></trkpt>
<trkpt lat="50.562355" lon="5.333673"><ele>117.24</ele><time>2025-05-26T07:28:45Z</time></trkpt>
<trkpt lat="50.562516" lon="5.333485"><ele>118.4</ele><time>2025-05-26T07:28:47Z</time></trkpt>
<trkpt lat="50.562642" lon="5.333276"><ele>119.13</ele><time>2025-05-26T07:28:50Z</time></trkpt>
<trkpt lat="50.56284" lon="5.332831"><ele>117.7</ele><time>2025-05-26T07:28:52Z</time></trkpt>
<trkpt lat="50.562945" lon="5.332734"><ele>117.41</ele><time>2025-05-26T07:28:55Z</time></trkpt>
<trkpt lat="50.563097" lon="5.332677"><ele>117.52</ele><time>2025-05-26T07:28:58Z</time></trkpt>
<trkpt lat="50.563986" lon="5.332501"><ele>120.36</ele><time>2025-05-26T07:29:00Z</time></trkpt>
<trkpt lat="50.564643" lon="5.332412"><ele>120.93</ele><time>2025-05-26T07:29:03Z</time></trkpt>
<trkpt lat="50.564779" lon="5.332352"><ele>120.94</ele><time>2025-05-26T07:29:06Z</time></trkpt>
<trkpt lat="50.565714" lon="5.331745"><ele>121.99</ele><time>2025-05-26T07:29:08Z</time></trkpt>
<trkpt lat="50.566086" lon="5.331447"><ele>123.51</ele><time>2025-05-26T07:29:11Z</time></trkpt>
<trkpt lat="50.566399" lon="5.331298"><ele>126.41</ele><time>2025-05-26T07:29:13Z</time></trkpt>
<trkpt lat="50.566861" lon="5.33123"><ele>130.24</ele><time>2025-05-26T07:29:16Z</time></trkpt>
<trkpt lat="50.567032" lon="5.331322"><ele>130.42</ele><time>2025-05-26T07:29:19Z</time></trkpt>
<trkpt lat="50.568326" lon="5.332648"><ele>139.72</ele><time>2025-05-26T07:29:21Z</time></trkpt>
<trkpt lat="50.568597" lon="5.332756"><ele>140.25</ele><time>2025-05-26T07:29:24Z</time></trkpt>
<trkpt lat="50.568972" lon="5.332704"><ele>141.39</ele><time>2025-05-26T07:29:27Z</time></trkpt>
<trkpt lat="50.56917" lon="5.332594"><ele>140.98</ele><time>2025-05-26T07:29:29Z</time></trkpt>
<trkpt lat="50.569228" lon="5.332346"><ele>142.76</ele><time>2025-05-26T07:29:32Z</time></trkpt>
<trkpt lat="50.569212" lon="5.332108"><ele>144.5</ele><time>2025-05-26T07:29:34Z</time></trkpt>
<trkpt lat="50.569109" lon="5.331757"><ele>148.74</ele><time>2025-05-26T07:29:37Z</time></trkpt>
<trkpt lat="50.569088" lon="5.331257"><ele>153.51</ele><time>2025-05-26T07:29:40Z</time></trkpt>
<trkpt lat="50.569157" lon="5.330718"><ele>155.94</ele><time>2025-05-26T07:29:42Z</time></trkpt>
<trkpt lat="50.569257" lon="5.330236"><ele>159.2</ele><time>2025-05-26T07:29:45Z</time></trkpt>
<trkpt lat="50.569361" lon="5.330039"><ele>160.46</ele><time>2025-05-26T07:29:48Z</time></trkpt>
<trkpt lat="50.569513" lon="5.329915"><ele>161.62</ele><time>2025-05-26T07:29:50Z</time></trkpt>
<trkpt lat="50.569766" lon="5.329771"><ele>162.96</ele><time>2025-05-26T07:29:53Z</time></trkpt>
<trkpt lat="50.570167" lon="5.329843"><ele>164.99</ele><time>2025-05-26T07:29:55Z</time></trkpt>
<trkpt lat="50.57036" lon="5.329815"><ele>165.86</ele><time>2025-05-26T07:29:58Z</time></trkpt>
<trkpt lat="50.570654" lon="5.329721"><ele>167.01</ele><time>2025-05-26T07:30:01Z</time></trkpt>
<trkpt lat="50.571095" lon="5.329671"><ele>169.07</ele><time>2025-05-26T07:30:03Z</time></trkpt>
<trkpt lat="50.571223" lon="5.329609"><ele>170.05</ele><time>2025-05-26T07:30:06Z</time></trkpt>
<trkpt lat="50.571325" lon="5.329449"><ele>170.76</ele><time>2025-05-26T07:30:08Z</time></trkpt>
<trkpt lat="50.571358" lon="5.329108"><ele>173.1</ele><time>2025-05-26T07:30:11Z</time></trkpt>
<trkpt lat="50.571375" lon="5.325918"><ele>186.69</ele><time>2025-05-26T07:30:14Z</time></trkpt>
<trkpt lat="50.571489" lon="5.325619"><ele>188.13</ele><time>2025-05-26T07:30:16Z</time></trkpt>
<trkpt lat="50.572216" lon="5.324704"><ele>195.0</ele><time>2025-05-26T07:30:19Z</time></trkpt>
<trkpt lat="50.572291" lon="5.324417"><ele>194.65</ele><time>2025-05-26T07:30:22Z</time></trkpt>
<trkpt lat="50.572893" lon="5.325579"><ele>193.96</ele><time>2025-05-26T07:30:30Z</time></trkpt>
<trkpt lat="50.573467" lon="5.32691"><ele>188.52</ele><time>2025-05-26T07:30:39Z</time></trkpt>
<trkpt lat="50.573654" lon="5.327275"><ele>186.53</ele><time>2025-05-26T07:30:47Z</time></trkpt>
<trkpt lat="50.573829" lon="5.327473"><ele>185.24</ele><time>2025-05-26T07:30:56Z</time></trkpt>
<trkpt lat="50.580089" lon="5.332365"><ele>193.68</ele><time>2025-05-26T07:31:04Z</time></trkpt>
<trkpt lat="50.586313" lon="5.335598"><ele>192.0</ele><time>2025-05-26T07:31:13Z</time></trkpt>
<trkpt lat="50.586543" lon="5.335757"><ele>192.55</ele><time>2025-05-26T07:31:21Z</time></trkpt>
<trkpt lat="50.586788" lon="5.335965"><ele>193.17</ele><time>2025-05-26T07:31:30Z</time></trkpt>
<trkpt lat="50.58748" lon="5.33674"><ele>193.0</ele><time>2025-05-26T07:31:38Z</time></trkpt>
<trkpt lat="50.587786" lon="5.336977"><ele>194.0</ele><time>2025-05-26T07:31:47Z</time></trkpt>
<trkpt lat="50.588307" lon="5.337315"><ele>194.43</ele><time>2025-05-26T07:31:55Z</time></trkpt>
<trkpt lat="50.588524" lon="5.337426"><ele>194.55</ele><time>2025-05-26T07:32:04Z</time></trkpt>
<trkpt lat="50.589323" lon="5.337516"><ele>197.59</ele><time>2025-05-26T07:32:12Z</time></trkpt>
<trkpt lat="50.589422" lon="5.337551"><ele>197.93</ele><time>2025-05-26T07:32:21Z</time></trkpt>
<trkpt lat="50.589488" lon="5.337608"><ele>197.94</ele><time>2025-05-26T07:32:29Z</time></trkpt>
<trkpt lat="50.590103" lon="5.338837"><ele>197.7</ele><time>2025-05-26T07:32:38Z</time></trkpt>
<trkpt lat="50.590249" lon="5.339192"><ele>197.09</ele><time>2025-05-26T07:32:46Z</time></trkpt>
<trkpt lat="50.590411" lon="5.340284"><ele>197.5</ele><time>2025-05-26T07:32:55Z</time></trkpt>
<trkpt lat="50.590457" lon="5.340428"><ele>198.19</ele><time>2025-05-26T07:33:03Z</time></trkpt>
<trkpt lat="50.590531" lon="5.340525"><ele>198.8</ele><time>2025-05-26T07:33:12Z</time></trkpt>
<trkpt lat="50.591452" lon="5.340881"><ele>200.41</ele><time>2025-05-26T07:33:20Z</time></trkpt>
<trkpt lat="50.592005" lon="5.341246"><ele>198.0</ele><time>2025-05-26T07:33:29Z</time></trkpt>
<trkpt lat="50.592602" lon="5.341261"><ele>197.26</ele><time>2025-05-26T07:33:37Z</time></trkpt>
<trkpt lat="50.593468" lon="5.341958"><ele>193.51</ele><time>2025-05-26T07:33:46Z</time></trkpt>
<trkpt lat="50.593604" lon="5.341997"><ele>193.98</ele><time>2025-05-26T07:33:54Z</time></trkpt>
<trkpt lat="50.593934" lon="5.341934"><ele>195.0</ele><time>2025-05-26T07:34:03Z</time></trkpt>
<trkpt lat="50.593995" lon="5.341946"><ele>194.99</ele><time>2025-05-26T07:34:11Z</time></trkpt>
<trkpt lat="50.594141" lon="5.342027"><ele>194.7</ele><time>2025-05-26T07:34:20Z</time></trkpt>
<trkpt lat="50.594882" lon="5.342669"><ele>193.96</ele><time>2025-05-26T07:34:28Z</time></trkpt>
<trkpt lat="50.596277" lon="5.343448"><ele>193.0</ele><time>2025-05-26T07:34:37Z</time></trkpt>
<trkpt lat="50.597879" lon="5.344458"><ele>192.32</ele><time>2025-05-26T07:34:45Z</time></trkpt>
<trkpt lat="50.598293" lon="5.344682"><ele>192.15</ele><time>2025-05-26T07:34:54Z</time></trkpt>
<trkpt lat="50.600201" lon="5.345619"><ele>186.55</ele><time>2025-05-26T07:35:02Z</time></trkpt>
<trkpt lat="50.602377" lon="5.346792"><ele>181.56</ele><time>2025-05-26T07:35:11Z</time></trkpt>
<trkpt lat="50.603203" lon="5.34727"><ele>181.47</ele><time>2025-05-26T07:35:19Z</time></trkpt>
<trkpt lat="50.603491" lon="5.3475"><ele>180.43</ele><time>2025-05-26T07:35:28Z</time></trkpt>
<trkpt lat="50.603522" lon="5.347639"><ele>180.82</ele><time>2025-05-26T07:35:32Z</time></trkpt>
<trkpt lat="50.603558" lon="5.347688"><ele>180.87</ele><time>2025-05-26T07:35:37Z</time></trkpt>
<trkpt lat="50.603643" lon="5.347716"><ele>180.8</ele><time>2025-05-26T07:35:42Z</time></trkpt>
<trkpt lat="50.603721" lon="5.347657"><ele>180.74</ele><time>2025-05-26T07:35:46Z</time></trkpt>
<trkpt lat="50.603803" lon="5.347664"><ele>180.87</ele><time>2025-05-26T07:35:51Z</time></trkpt>
<trkpt lat="50.605283" lon="5.348432"><ele>178.96</ele><time>2025-05-26T07:35:56Z</time></trkpt>
<trkpt lat="50.605812" lon="5.348676"><ele>178.16</ele><time>2025-05-26T07:36:00Z</time></trkpt>
<trkpt lat="50.605874" lon="5.348775"><ele>178.8</ele><time>2025-05-26T07:36:06Z</time></trkpt>
<trkpt lat="50.605916" lon="5.348797"><ele>179.07</ele><time>2025-05-26T07:36:11Z</time></trkpt>
<trkpt lat="50.606004" lon="5.348775"><ele>179.45</ele><time>2025-05-26T07:36:16Z</time></trkpt>
<trkpt lat="50.607881" lon="5.349778"><ele>177.26</ele><time>2025-05-26T07:36:21Z</time></trkpt>
<trkpt lat="50.607926" lon="5.349835"><ele>176.93</ele><time>2025-05-26T07:36:26Z</time></trkpt>
<trkpt lat="50.607967" lon="5.349949"><ele>176.64</ele><time>2025-05-26T07:36:31Z</time></trkpt>
<trkpt lat="50.607974" lon="5.350035"><ele>176.58</ele><time>2025-05-26T07:36:43Z</time></trkpt>
<trkpt lat="50.608003" lon="5.350109"><ele>176.38</ele><time>2025-05-26T07:36:55Z</time></trkpt>
<trkpt lat="50.608047" lon="5.350161"><ele>176.06</ele><time>2025-05-26T07:37:07Z</time></trkpt>
<trkpt lat="50.608101" lon="5.35018"><ele>176.16</ele><time>2025-05-26T07:37:19Z</time></trkpt>
<trkpt lat="50.608194" lon="5.350129"><ele>176.5</ele><time>2025-05-26T07:37:31Z</time></trkpt>
<trkpt lat="50.608226" lon="5.350068"><ele>176.61</ele><time>2025-05-26T07:37:43Z</time></trkpt>
<trkpt lat="50.608326" lon="5.350019"><ele>176.97</ele><time>2025-05-26T07:37:55Z</time></trkpt>
<trkpt lat="50.608379" lon="5.350019"><ele>177.0</ele><time>2025-05-26T07:38:07Z</time></trkpt>
<trkpt lat="50.609384" lon="5.350496"><ele>176.79</ele><time>2025-05-26T07:38:19Z</time></trkpt>
<trkpt lat="50.612718" lon="5.352277"><ele>175.0</ele><time>2025-05-26T07:38:30Z</time></trkpt>
<trkpt lat="50.615185" lon="5.353714"><ele>169.79</ele><time>2025-05-26T07:38:42Z</time></trkpt>
<trkpt lat="50.616935" lon="5.354921"><ele>171.97</ele><time>2025-05-26T07:38:54Z</time></trkpt>
<trkpt lat="50.618654" lon="5.355846"><ele>177.11</ele><time>2025-05-26T07:39:06Z</time></trkpt>
<trkpt lat="50.619052" lon="5.356019"><ele>178.51</ele><time>2025-05-26T07:39:18Z</time></trkpt>
<trkpt lat="50.619186" lon="5.356061"><ele>179.25</ele><time>2025-05-26T07:39:30Z</time></trkpt>
<trkpt lat="50.619728" lon="5.356175"><ele>180.79</ele><time>2025-05-26T07:39:42Z</time></trkpt>
<trkpt lat="50.620027" lon="5.356289"><ele>181.26</ele><time>2025-05-26T07:39:54Z</time></trkpt>
<trkpt lat="50.623311" lon="5.35807"><ele>171.92</ele><time>2025-05-26T07:40:06Z</time></trkpt>
<trkpt lat="50.628171" lon="5.360653"><ele>177.38</ele><time>2025-05-26T07:40:18Z</time></trkpt>
<trkpt lat="50.632932" lon="5.363375"><ele>179.55</ele><time>2025-05-26T07:40:30Z</time></trkpt>
<trkpt lat="50.647345" lon="5.371273"><ele>164.56</ele><time>2025-05-26T07:40:41Z</time></trkpt>
<trkpt lat="50.64802" lon="5.371665"><ele>166.12</ele><time>2025-05-26T07:40:53Z</time></trkpt>
<trkpt lat="50.649077" lon="5.372301"><ele>164.0</ele><time>2025-05-26T07:41:05Z</time></trkpt>
<trkpt lat="50.649942" lon="5.372703"><ele>163.15</ele><time>2025-05-26T07:41:17Z</time></trkpt>
<trkpt lat="50.65079" lon="5.373192"><ele>163.49</ele><time>2025-05-26T07:41:29Z</time></trkpt>
<trkpt lat="50.657121" lon="5.376748"><ele>154.74</ele><time>2025-05-26T07:41:41Z</time></trkpt>
<trkpt lat="50.657527" lon="5.377046"><ele>155.37</ele><time>2025-05-26T07:41:53Z</time></trkpt>
<trkpt lat="50.657634" lon="5.377172"><ele>155.82</ele><time>2025-05-26T07:42:05Z</time></trkpt>
<trkpt lat="50.657654" lon="5.377277"><ele>156.0</ele><time>2025-05-26T07:42:18Z</time></trkpt>
<trkpt lat="50.657696" lon="5.377348"><ele>156.0</ele><time>2025-05-26T07:42:31Z</time></trkpt>
<trkpt lat="50.657769" lon="5.377402"><ele>156.0</ele><time>2025-05-26T07:42:44Z</time></trkpt>
<trkpt lat="50.657863" lon="5.377385"><ele>155.69</ele><time>2025-05-26T07:42:57Z</time></trkpt>
<trkpt lat="50.657904" lon="5.377346"><ele>155.54</ele><time>2025-05-26T07:43:10Z</time></trkpt>
<trkpt lat="50.658036" lon="5.377344"><ele>155.07</ele><time>2025-05-26T07:43:23Z</time></trkpt>
<trkpt lat="50.658321" lon="5.377436"><ele>155.96</ele><time>2025-05-26T07:43:36Z</time></trkpt>
<trkpt lat="50.662374" lon="5.379768"><ele>152.24</ele><time>2025-05-26T07:43:49Z</time></trkpt>
<trkpt lat="50.665231" lon="5.381356"><ele>150.29</ele><time>2025-05-26T07:44:03Z</time></trkpt>
<trkpt lat="50.669942" lon="5.384056"><ele>144.21</ele><time>2025-05-26T07:44:16Z</time></trkpt>
<trkpt lat="50.672238" lon="5.385401"><ele>151.06</ele><time>2025-05-26T07:44:29Z</time></trkpt>
<trkpt lat="50.673477" lon="5.386167"><ele>153.0</ele><time>2025-05-26T07:44:42Z</time></trkpt>
<trkpt lat="50.676519" lon="5.387884"><ele>147.53</ele><time>2025-05-26T07:44:55Z</time></trkpt>
<trkpt lat="50.681684" lon="5.390911"><ele>144.68</ele><time>2025-05-26T07:45:08Z</time></trkpt>
<trkpt lat="50.6844" lon="5.392478"><ele>145.16</ele><time>2025-05-26T07:45:21Z</time></trkpt>
<trkpt lat="50.689068" lon="5.395124"><ele>139.36</ele><time>2025-05-26T07:45:34Z</time></trkpt>
<trkpt lat="50.691214" lon="5.396297"><ele>138.79</ele><time>2025-05-26T07:45:47Z</time></trkpt>
<trkpt lat="50.691405" lon="5.396525"><ele>138.51</ele><time>2025-05-26T07:46:00Z</time></trkpt>
<trkpt lat="50.691426" lon="5.396629"><ele>138.14</ele><time>2025-05-26T07:46:01Z</time></trkpt>
<trkpt lat="50.691502" lon="5.396725"><ele>138.21</ele><time>2025-05-26T07:46:02Z</time></trkpt>
<trkpt lat="50.691551" lon="5.396738"><ele>138.26</ele><time>2025-05-26T07:46:02Z</time></trkpt>
<trkpt lat="50.691643" lon="5.396688"><ele>138.07</ele><time>2025-05-26T07:46:03Z</time></trkpt>
<trkpt lat="50.691837" lon="5.39672"><ele>138.8</ele><time>2025-05-26T07:46:04Z</time></trkpt>
<trkpt lat="50.692191" lon="5.396906"><ele>139.98</ele><time>2025-05-26T07:46:05Z</time></trkpt>
<trkpt lat="50.692264" lon="5.396957"><ele>139.88</ele><time>2025-05-26T07:46:05Z</time></trkpt>
<trkpt lat="50.692394" lon="5.397108"><ele>139.24</ele><time>2025-05-26T07:46:06Z</time></trkpt>
<trkpt lat="50.692427" lon="5.397217"><ele>138.8</ele><time>2025-05-26T07:46:08Z</time></trkpt>
<trkpt lat="50.692455" lon="5.397257"><ele>138.48</ele><time>2025-05-26T07:46:11Z</time></trkpt>
<trkpt lat="50.692527" lon="5.397297"><ele>137.83</ele><time>2025-05-26T07:46:13Z</time></trkpt>
<trkpt lat="50.692585" lon="5.397286"><ele>137.46</ele><time>2025-05-26T07:46:16Z</time></trkpt>
<trkpt lat="50.692635" lon="5.397241"><ele>137.06</ele><time>2025-05-26T07:46:18Z</time></trkpt>
<trkpt lat="50.692768" lon="5.397255"><ele>136.18</ele><time>2025-05-26T07:46:21Z</time></trkpt>
<trkpt lat="50.693077" lon="5.397383"><ele>136.92</ele><time>2025-05-26T07:46:23Z</time></trkpt>
<trkpt lat="50.69343" lon="5.397583"><ele>135.75</ele><time>2025-05-26T07:46:26Z</time></trkpt>
<trkpt lat="50.694486" lon="5.398409"><ele>135.12</ele><time>2025-05-26T07:46:28Z</time></trkpt>
<trkpt lat="50.695513" lon="5.393635"><ele>132.08</ele><time>2025-05-26T07:46:50Z</time></trkpt>
<trkpt lat="50.701713" lon="5.365179"><ele>125.83</ele><time>2025-05-26T07:47:12Z</time></trkpt>
<trkpt lat="50.703976" lon="5.354696"><ele>125.28</ele><time>2025-05-26T07:47:33Z</time></trkpt>
<trkpt lat="50.704182" lon="5.353524"><ele>123.98</ele><time>2025-05-26T07:47:55Z</time></trkpt>
<trkpt lat="50.704319" lon="5.352086"><ele>123.49</ele><time>2025-05-26T07:48:17Z</time></trkpt>
<trkpt lat="50.705124" lon="5.338068"><ele>122.4</ele><time>2025-05-26T07:48:39Z</time></trkpt>
<trkpt lat="50.705403" lon="5.333494"><ele>115.03</ele><time>2025-05-26T07:49:01Z</time></trkpt>
<trkpt lat="50.705499" lon="5.331476"><ele>115.68</ele><time>2025-05-26T07:49:23Z</time></trkpt>
<trkpt lat="50.705951" lon="5.32418"><ele>126.02</ele><time>2025-05-26T07:49:44Z</time></trkpt>
<trkpt lat="50.706162" lon="5.320241"><ele>124.82</ele><time>2025-05-26T07:50:06Z</time></trkpt>
<trkpt lat="50.706685" lon="5.311601"><ele>119.76</ele><time>2025-05-26T07:50:28Z</time></trkpt>
<trkpt lat="50.706748" lon="5.310929"><ele>118.24</ele><time>2025-05-26T07:50:50Z</time></trkpt>
<trkpt lat="50.706828" lon="5.310357"><ele>117.28</ele><time>2025-05-26T07:51:12Z</time></trkpt>
<trkpt lat="50.706938" lon="5.30977"><ele>116.19</ele><time>2025-05-26T07:51:33Z</time></trkpt>
<trkpt lat="50.707233" lon="5.308671"><ele>114.01</ele><time>2025-05-26T07:51:55Z</time></trkpt>
<trkpt lat="50.707484" lon="5.307989"><ele>113.94</ele><time>2025-05-26T07:52:17Z</time></trkpt>
<trkpt lat="50.707658" lon="5.307577"><ele>113.28</ele><time>2025-05-26T07:52:39Z</time></trkpt>
<trkpt lat="50.709139" lon="5.304695"><ele>111.0</ele><time>2025-05-26T07:53:01Z</time></trkpt>
<trkpt lat="50.71045" lon="5.306821"><ele>113.94</ele><time>2025-05-26T07:53:10Z</time></trkpt>
<trkpt lat="50.711484" lon="5.30807"><ele>114.05</ele><time>2025-05-26T07:53:19Z</time></trkpt>
<trkpt lat="50.714933" lon="5.3121"><ele>110.67</ele><time>2025-05-26T07:53:29Z</time></trkpt>
<trkpt lat="50.718931" lon="5.316726"><ele>103.15</ele><time>2025-05-26T07:53:38Z</time></trkpt>
<trkpt lat="50.719351" lon="5.317239"><ele>105.0</ele><time>2025-05-26T07:53:48Z</time></trkpt>
<trkpt lat="50.719811" lon="5.317743"><ele>104.45</ele><time>2025-05-26T07:53:57Z</time></trkpt>
<trkpt lat="50.72322" lon="5.321649"><ele>112.91</ele><time>2025-05-26T07:54:06Z</time></trkpt>
<trkpt lat="50.723628" lon="5.322191"><ele>115.83</ele><time>2025-05-26T07:54:16Z</time></trkpt>
<trkpt lat="50.724343" lon="5.32332"><ele>119.95</ele><time>2025-05-26T07:54:25Z</time></trkpt>
<trkpt lat="50.724689" lon="5.323951"><ele>121.34</ele><time>2025-05-26T07:54:34Z</time></trkpt>
<trkpt lat="50.725076" lon="5.324755"><ele>124.11</ele><time>2025-05-26T07:54:44Z</time></trkpt>
<trkpt lat="50.725339" lon="5.325363"><ele>125.31</ele><time>2025-05-26T07:54:53Z</time></trkpt>
<trkpt lat="50.725736" lon="5.326451"><ele>126.73</ele><time>2025-05-26T07:55:02Z</time></trkpt>
<trkpt lat="50.726447" lon="5.329169"><ele>126.41</ele><time>2025-05-26T07:55:12Z</time></trkpt>
<trkpt lat="50.726746" lon="5.3304"><ele>124.97</ele><time>2025-05-26T07:55:21Z</time></trkpt>
<trkpt lat="50.72683" lon="5.330189"><ele>125.58</ele><time>2025-05-26T07:55:29Z</time></trkpt>
<trkpt lat="50.727271" lon="5.329437"><ele>127.2</ele><time>2025-05-26T07:55:38Z</time></trkpt>
<trkpt lat="50.72777" lon="5.328792"><ele>128.98</ele><time>2025-05-26T07:55:46Z</time></trkpt>
<trkpt lat="50.728201" lon="5.328349"><ele>129.0</ele><time>2025-05-26T07:55:54Z</time></trkpt>
<trkpt lat="50.728411" lon="5.328159"><ele>129.0</ele><time>2025-05-26T07:56:03Z</time></trkpt>
<trkpt lat="50.728651" lon="5.327971"><ele>129.0</ele><time>2025-05-26T07:56:11Z</time></trkpt>
<trkpt lat="50.728806" lon="5.327885"><ele>129.0</ele><time>2025-05-26T07:56:19Z</time></trkpt>
<trkpt lat="50.730781" lon="5.326514"><ele>130.1</ele><time>2025-05-26T07:56:27Z</time></trkpt>
<trkpt lat="50.73197" lon="5.325294"><ele>130.85</ele><time>2025-05-26T07:56:36Z</time></trkpt>
<trkpt lat="50.732233" lon="5.324961"><ele>130.0</ele><time>2025-05-26T07:56:44Z</time></trkpt>
<trkpt lat="50.732674" lon="5.324291"><ele>130.55</ele><time>2025-05-26T07:56:52Z</time></trkpt>
<trkpt lat="50.732885" lon="5.32393"><ele>130.61</ele><time>2025-05-26T07:57:00Z</time></trkpt>
<trkpt lat="50.733076" lon="5.323555"><ele>129.93</ele><time>2025-05-26T07:57:09Z</time></trkpt>
<trkpt lat="50.733393" lon="5.322822"><ele>129.57</ele><time>2025-05-26T07:57:17Z</time></trkpt>
<trkpt lat="50.733997" lon="5.321291"><ele>123.83</ele><time>2025-05-26T07:57:25Z</time></trkpt>
<trkpt lat="50.738561" lon="5.325746"><ele>108.31</ele><time>2025-05-26T07:58:27Z</time></trkpt>
<trkpt lat="50.739657" lon="5.323098"><ele>105.36</ele><time>2025-05-26T07:58:41Z</time></trkpt>
<trkpt lat="50.73985" lon="5.323315"><ele>103.57</ele><time>2025-05-26T07:59:04Z</time></trkpt>
<trkpt lat="50.739999" lon="5.323415"><ele>103.29</ele><time>2025-05-26T07:59:28Z</time></trkpt>
<trkpt lat="50.744262" lon="5.324606"><ele>101.0</ele><time>2025-05-26T07:59:51Z</time></trkpt>
<trkpt lat="50.744905" lon="5.323083"><ele>101.31</ele><time>2025-05-26T07:59:59Z</time></trkpt>
<trkpt lat="50.745562" lon="5.321467"><ele>103.4</ele><time>2025-05-26T08:00:06Z</time></trkpt>
<trkpt lat="50.745699" lon="5.320991"><ele>103.65</ele><time>2025-05-26T08:00:14Z</time></trkpt>
<trkpt lat="50.745865" lon="5.320211"><ele>102.54</ele><time>2025-05-26T08:00:22Z</time></trkpt>
<trkpt lat="50.746021" lon="5.319713"><ele>99.3</ele><time>2025-05-26T08:00:30Z</time></trkpt>
<trkpt lat="50.746278" lon="5.319061"><ele>94.77</ele><time>2025-05-26T08:00:38Z</time></trkpt>
<trkpt lat="50.746628" lon="5.318296"><ele>87.54</ele><time>2025-05-26T08:00:46Z</time></trkpt>
<trkpt lat="50.746789" lon="5.318283"><ele>86.12</ele><time>2025-05-26T08:00:54Z</time></trkpt>
<trkpt lat="50.749282" lon="5.320343"><ele>82.23</ele><time>2025-05-26T08:01:02Z</time></trkpt>
<trkpt lat="50.749395" lon="5.320375"><ele>82.35</ele><time>2025-05-26T08:01:10Z</time></trkpt>
<trkpt lat="50.749538" lon="5.320333"><ele>81.79</ele><time>2025-05-26T08:01:18Z</time></trkpt>
<trkpt lat="50.749807" lon="5.319988"><ele>80.68</ele><time>2025-05-26T08:01:26Z</time></trkpt>
<trkpt lat="50.749542" lon="5.319499"><ele>80.65</ele><time>2025-05-26T08:01:31Z</time></trkpt>
<trkpt lat="50.749203" lon="5.318671"><ele>83.59</ele><time>2025-05-26T08:01:37Z</time></trkpt>
<trkpt lat="50.749042" lon="5.318078"><ele>85.92</ele><time>2025-05-26T08:01:42Z</time></trkpt>
<trkpt lat="50.748921" lon="5.317389"><ele>88.4</ele><time>2025-05-26T08:01:48Z</time></trkpt>
<trkpt lat="50.748865" lon="5.31679"><ele>90.56</ele><time>2025-05-26T08:01:53Z</time></trkpt>
<trkpt lat="50.748851" lon="5.316107"><ele>91.99</ele><time>2025-05-26T08:01:59Z</time></trkpt>
<trkpt lat="50.7489" lon="5.313888"><ele>92.04</ele><time>2025-05-26T08:02:04Z</time></trkpt>
<trkpt lat="50.748988" lon="5.313095"><ele>92.55</ele><time>2025-05-26T08:02:10Z</time></trkpt>
<trkpt lat="50.749049" lon="5.312837"><ele>92.42</ele><time>2025-05-26T08:02:15Z</time></trkpt>
<trkpt lat="50.749315" lon="5.312223"><ele>91.47</ele><time>2025-05-26T08:02:21Z</time></trkpt>
<trkpt lat="50.750819" lon="5.309722"><ele>91.95</ele><time>2025-05-26T08:02:26Z</time></trkpt>
<trkpt lat="50.751068" lon="5.309217"><ele>92.02</ele><time>2025-05-26T08:02:31Z</time></trkpt>
<trkpt lat="50.751378" lon="5.308341"><ele>88.99</ele><time>2025-05-26T08:02:37Z</time></trkpt>
<trkpt lat="50.751702" lon="5.307164"><ele>84.22</ele><time>2025-05-26T08:02:42Z</time></trkpt>
<trkpt lat="50.751797" lon="5.306866"><ele>84.47</ele><time>2025-05-26T08:02:48Z</time></trkpt>
<trkpt lat="50.752043" lon="5.306238"><ele>84.36</ele><time>2025-05-26T08:02:53Z</time></trkpt>
<trkpt lat="50.752987" lon="5.304144"><ele>80.0</ele><time>2025-05-26T08:02:59Z</time></trkpt>
<trkpt lat="50.753592" lon="5.302713"><ele>76.0</ele><time>2025-05-26T08:03:04Z</time></trkpt>
<trkpt lat="50.75373" lon="5.302193"><ele>76.0</ele><time>2025-05-26T08:03:10Z</time></trkpt>
<trkpt lat="50.7558" lon="5.304019"><ele>80.24</ele><time>2025-05-26T08:03:18Z</time></trkpt>
<trkpt lat="50.756287" lon="5.304425"><ele>77.07</ele><time>2025-05-26T08:03:27Z</time></trkpt>
<trkpt lat="50.756642" lon="5.30462"><ele>77.91</ele><time>2025-05-26T08:03:36Z</time></trkpt>
<trkpt lat="50.756999" lon="5.304741"><ele>77.92</ele><time>2025-05-26T08:03:44Z</time></trkpt>
<trkpt lat="50.75743" lon="5.30477"><ele>78.27</ele><time>2025-05-26T08:03:53Z</time></trkpt>
<trkpt lat="50.758243" lon="5.304676"><ele>77.71</ele><time>2025-05-26T08:04:01Z</time></trkpt>
<trkpt lat="50.758582" lon="5.304689"><ele>77.13</ele><time>2025-05-26T08:04:10Z</time></trkpt>
<trkpt lat="50.758743" lon="5.304718"><ele>77.96</ele><time>2025-05-26T08:04:18Z</time></trkpt>
<trkpt lat="50.761123" lon="5.305522"><ele>84.19</ele><time>2025-05-26T08:04:27Z</time></trkpt>
<trkpt lat="50.762049" lon="5.305837"><ele>81.99</ele><time>2025-05-26T08:04:35Z</time></trkpt>
<trkpt lat="50.762306" lon="5.305878"><ele>81.64</ele><time>2025-05-26T08:04:44Z</time></trkpt>
<trkpt lat="50.763441" lon="5.305744"><ele>81.61</ele><time>2025-05-26T08:04:52Z</time></trkpt>
<trkpt lat="50.763667" lon="5.305775"><ele>81.0</ele><time>2025-05-26T08:05:01Z</time></trkpt>
<trkpt lat="50.763683" lon="5.305599"><ele>81.0</ele><time>2025-05-26T08:05:05Z</time></trkpt>
<trkpt lat="50.763704" lon="5.305527"><ele>81.0</ele><time>2025-05-26T08:05:09Z</time></trkpt>
<trkpt lat="50.763831" lon="5.305311"><ele>81.0</ele><time>2025-05-26T08:05:14Z</time></trkpt>
<trkpt lat="50.764289" lon="5.304651"><ele>77.16</ele><time>2025-05-26T08:05:18Z</time></trkpt>
<trkpt lat="50.76471" lon="5.304166"><ele>74.04</ele><time>2025-05-26T08:05:22Z</time></trkpt>
<trkpt lat="50.764911" lon="5.303881"><ele>73.29</ele><time>2025-05-26T08:05:26Z</time></trkpt>
<trkpt lat="50.765096" lon="5.303588"><ele>72.34</ele><time>2025-05-26T08:05:31Z</time></trkpt>
<trkpt lat="50.765469" lon="5.30293"><ele>73.69</ele><time>2025-05-26T08:05:35Z</time></trkpt>
<trkpt lat="50.765757" lon="5.303139"><ele>74.94</ele><time>2025-05-26T08:05:43Z</time></trkpt>
<trkpt lat="50.765915" lon="5.303214"><ele>75.86</ele><time>2025-05-26T08:05:52Z</time></trkpt>
<trkpt lat="50.766064" lon="5.30324"><ele>76.5</ele><time>2025-05-26T08:06:00Z</time></trkpt>
<trkpt lat="50.766298" lon="5.3032"><ele>76.52</ele><time>2025-05-26T08:06:08Z</time></trkpt>
<trkpt lat="50.766573" lon="5.303113"><ele>76.87</ele><time>2025-05-26T08:06:17Z</time></trkpt>
<trkpt lat="50.766784" lon="5.303011"><ele>76.93</ele><time>2025-05-26T08:06:25Z</time></trkpt>
<trkpt lat="50.76712" lon="5.303051"><ele>76.99</ele><time>2025-05-26T08:06:34Z</time></trkpt>
<trkpt lat="50.76842" lon="5.303452"><ele>80.0</ele><time>2025-05-26T08:06:42Z</time></trkpt>
<trkpt lat="50.768982" lon="5.303547"><ele>80.0</ele><time>2025-05-26T08:06:51Z</time></trkpt>
<trkpt lat="50.769392" lon="5.303562"><ele>79.33</ele><time>2025-05-26T08:06:59Z</time></trkpt>
<trkpt lat="50.769841" lon="5.303537"><ele>80.43</ele><time>2025-05-26T08:07:07Z</time></trkpt>
<trkpt lat="50.7703" lon="5.303463"><ele>81.92</ele><time>2025-05-26T08:07:16Z</time></trkpt>
<trkpt lat="50.772215" lon="5.302978"><ele>78.03</ele><time>2025-05-26T08:07:24Z</time></trkpt>
<trkpt lat="50.772917" lon="5.302715"><ele>76.39</ele><time>2025-05-26T08:07:33Z</time></trkpt>
<trkpt lat="50.774082" lon="5.302129"><ele>72.0</ele><time>2025-05-26T08:07:41Z</time></trkpt>
<trkpt lat="50.77514" lon="5.301404"><ele>74.94</ele><time>2025-05-26T08:07:50Z</time></trkpt>
<trkpt lat="50.776316" lon="5.303259"><ele>72.0</ele><time>2025-05-26T08:08:05Z</time></trkpt>
<trkpt lat="50.776929" lon="5.304231"><ele>72.73</ele><time>2025-05-26T08:08:19Z</time></trkpt>
<trkpt lat="50.778664" lon="5.307555"><ele>70.96</ele><time>2025-05-26T08:08:34Z</time></trkpt>
<trkpt lat="50.778749" lon="5.30764"><ele>70.75</ele><time>2025-05-26T08:08:49Z</time></trkpt>
<trkpt lat="50.779807" lon="5.307844"><ele>69.14</ele><time>2025-05-26T08:09:04Z</time></trkpt>
<trkpt lat="50.78133" lon="5.307901"><ele>72.0</ele><time>2025-05-26T08:09:19Z</time></trkpt>
<trkpt lat="50.781925" lon="5.307899"><ele>71.07</ele><time>2025-05-26T08:09:34Z</time></trkpt>
<trkpt lat="50.781593" lon="5.314431"><ele>62.05</ele><time>2025-05-26T08:09:42Z</time></trkpt>
<trkpt lat="50.781618" lon="5.314584"><ele>62.0</ele><time>2025-05-26T08:09:51Z</time></trkpt>
<trkpt lat="50.781649" lon="5.314633"><ele>62.0</ele><time>2025-05-26T08:09:59Z</time></trkpt>
<trkpt lat="50.781844" lon="5.314322"><ele>63.08</ele><time>2025-05-26T08:10:04Z</time></trkpt>
<trkpt lat="50.781962" lon="5.314167"><ele>64.0</ele><time>2025-05-26T08:10:09Z</time></trkpt>
<trkpt lat="50.782187" lon="5.313962"><ele>64.0</ele><time>2025-05-26T08:10:14Z</time></trkpt>
<trkpt lat="50.785706" lon="5.311039"><ele>62.58</ele><time>2025-05-26T08:10:19Z</time></trkpt>
<trkpt lat="50.786022" lon="5.310815"><ele>61.32</ele><time>2025-05-26T08:10:24Z</time></trkpt>
<trkpt lat="50.786261" lon="5.310671"><ele>61.0</ele><time>2025-05-26T08:10:29Z</time></trkpt>
<trkpt lat="50.790024" lon="5.308856"><ele>62.03</ele><time>2025-05-26T08:10:34Z</time></trkpt>
<trkpt lat="50.790327" lon="5.308611"><ele>61.82</ele><time>2025-05-26T08:10:39Z</time></trkpt>
<trkpt lat="50.790456" lon="5.308467"><ele>61.36</ele><time>2025-05-26T08:10:43Z</time></trkpt>
<trkpt lat="50.790656" lon="5.30821"><ele>60.8</ele><time>2025-05-26T08:10:48Z</time></trkpt>
<trkpt lat="50.790854" lon="5.307915"><ele>61.0</ele><time>2025-05-26T08:10:53Z</time></trkpt>
<trkpt lat="50.790938" lon="5.307821"><ele>61.0</ele><time>2025-05-26T08:10:58Z</time></trkpt>
<trkpt lat="50.790972" lon="5.307887"><ele>61.0</ele><time>2025-05-26T08:11:02Z</time></trkpt>
<trkpt lat="50.791034" lon="5.307926"><ele>61.0</ele><time>2025-05-26T08:11:06Z</time></trkpt>
<trkpt lat="50.791079" lon="5.30792"><ele>61.0</ele><time>2025-05-26T08:11:09Z</time></trkpt>
<trkpt lat="50.791129" lon="5.307875"><ele>60.87</ele><time>2025-05-26T08:11:13Z</time></trkpt>
<trkpt lat="50.791159" lon="5.307806"><ele>60.65</ele><time>2025-05-26T08:11:16Z</time></trkpt>
<trkpt lat="50.791167" lon="5.307706"><ele>60.86</ele><time>2025-05-26T08:11:20Z</time></trkpt>
<trkpt lat="50.791145" lon="5.307622"><ele>61.32</ele><time>2025-05-26T08:11:23Z</time></trkpt>
<trkpt lat="50.79111" lon="5.30757"><ele>61.75</ele><time>2025-05-26T08:11:27Z</time></trkpt>
<trkpt lat="50.79121" lon="5.30732"><ele>61.94</ele><time>2025-05-26T08:11:31Z</time></trkpt>
<trkpt lat="50.793683" lon="5.304254"><ele>67.92</ele><time>2025-05-26T08:11:34Z</time></trkpt>
<trkpt lat="50.794224" lon="5.303438"><ele>68.5</ele><time>2025-05-26T08:11:38Z</time></trkpt>
<trkpt lat="50.797316" lon="5.298216"><ele>71.42</ele><time>2025-05-26T08:11:41Z</time></trkpt>
<trkpt lat="50.797469" lon="5.297873"><ele>72.0</ele><time>2025-05-26T08:11:45Z</time></trkpt>
<trkpt lat="50.797654" lon="5.297365"><ele>72.93</ele><time>2025-05-26T08:11:48Z</time></trkpt>
<trkpt lat="50.797885" lon="5.296438"><ele>74.5</ele><time>2025-05-26T08:11:52Z</time></trkpt>
<trkpt lat="50.798381" lon="5.294304"><ele>68.91</ele><time>2025-05-26T08:11:56Z</time></trkpt>
<trkpt lat="50.798485" lon="5.293996"><ele>68.45</ele><time>2025-05-26T08:11:59Z</time></trkpt>
<trkpt lat="50.7986" lon="5.293724"><ele>67.49</ele><time>2025-05-26T08:12:03Z</time></trkpt>
<trkpt lat="50.798804" lon="5.293326"><ele>66.31</ele><time>2025-05-26T08:12:06Z</time></trkpt>
<trkpt lat="50.79894" lon="5.293115"><ele>65.96</ele><time>2025-05-26T08:12:10Z</time></trkpt>
<trkpt lat="50.799183" lon="5.292804"><ele>65.94</ele><time>2025-05-26T08:12:13Z</time></trkpt>
<trkpt lat="50.799473" lon="5.292521"><ele>65.82</ele><time>2025-05-26T08:12:17Z</time></trkpt>
<trkpt lat="50.800291" lon="5.29192"><ele>63.91</ele><time>2025-05-26T08:12:21Z</time></trkpt>
<trkpt lat="50.80046" lon="5.291786"><ele>62.69</ele><time>2025-05-26T08:12:24Z</time></trkpt>
<trkpt lat="50.80065" lon="5.291599"><ele>61.08</ele><time>2025-05-26T08:12:28Z</time></trkpt>
<trkpt lat="50.801" lon="5.291186"><ele>58.56</ele><time>2025-05-26T08:12:31Z</time></trkpt>
<trkpt lat="50.80191" lon="5.290011"><ele>55.0</ele><time>2025-05-26T08:12:35Z</time></trkpt>
<trkpt lat="50.802155" lon="5.289596"><ele>55.0</ele><time>2025-05-26T08:12:38Z</time></trkpt>
<trkpt lat="50.802318" lon="5.289237"><ele>55.0</ele><time>2025-05-26T08:12:42Z</time></trkpt>
<trkpt lat="50.803254" lon="5.286844"><ele>56.54</ele><time>2025-05-26T08:12:46Z</time></trkpt>
<trkpt lat="50.803481" lon="5.286391"><ele>57.46</ele><time>2025-05-26T08:12:49Z</time></trkpt>
<trkpt lat="50.803713" lon="5.286039"><ele>57.89</ele><time>2025-05-26T08:12:53Z</time></trkpt>
<trkpt lat="50.8044" lon="5.285097"><ele>59.84</ele><time>2025-05-26T08:12:56Z</time></trkpt>
<trkpt lat="50.804462" lon="5.284971"><ele>60.28</ele><time>2025-05-26T08:13:00Z</time></trkpt>
<trkpt lat="50.805056" lon="5.285272"><ele>64.22</ele><time>2025-05-26T08:13:08Z</time></trkpt>
<trkpt lat="50.805469" lon="5.285537"><ele>64.02</ele><time>2025-05-26T08:13:15Z</time></trkpt>
<trkpt lat="50.80588" lon="5.285833"><ele>66.17</ele><time>2025-05-26T08:13:23Z</time></trkpt>
<trkpt lat="50.806628" lon="5.286517"><ele>65.6</ele><time>2025-05-26T08:13:31Z</time></trkpt>
<trkpt lat="50.808396" lon="5.288527"><ele>59.77</ele><time>2025-05-26T08:13:38Z</time></trkpt>
<trkpt lat="50.80861" lon="5.288836"><ele>58.19</ele><time>2025-05-26T08:13:46Z</time></trkpt>
<trkpt lat="50.809165" lon="5.289879"><ele>56.01</ele><time>2025-05-26T08:13:53Z</time></trkpt>
<trkpt lat="50.809333" lon="5.290133"><ele>55.4</ele><time>2025-05-26T08:14:01Z</time></trkpt>
<trkpt lat="50.809495" lon="5.290328"><ele>55.0</ele><time>2025-05-26T08:14:09Z</time></trkpt>
<trkpt lat="50.809731" lon="5.290539"><ele>55.0</ele><time>2025-05-26T08:14:16Z</time></trkpt>
<trkpt lat="50.810788" lon="5.291268"><ele>57.51</ele><time>2025-05-26T08:14:24Z</time></trkpt>
<trkpt lat="50.810991" lon="5.291345"><ele>59.13</ele><time>2025-05-26T08:14:32Z</time></trkpt>
<trkpt lat="50.8121" lon="5.291469"><ele>63.6</ele><time>2025-05-26T08:14:39Z</time></trkpt>
<trkpt lat="50.812145" lon="5.291529"><ele>63.64</ele><time>2025-05-26T08:14:45Z</time></trkpt>
<trkpt lat="50.812205" lon="5.291521"><ele>63.51</ele><time>2025-05-26T08:14:50Z</time></trkpt>
<trkpt lat="50.812291" lon="5.291623"><ele>63.84</ele><time>2025-05-26T08:14:55Z</time></trkpt>
<trkpt lat="50.812873" lon="5.293643"><ele>60.66</ele><time>2025-05-26T08:15:01Z</time></trkpt>
<trkpt lat="50.815173" lon="5.291399"><ele>63.38</ele><time>2025-05-26T08:15:08Z</time></trkpt>
<trkpt lat="50.815983" lon="5.290928"><ele>62.34</ele><time>2025-05-26T08:15:14Z</time></trkpt>
<trkpt lat="50.81677" lon="5.290488"><ele>63.91</ele><time>2025-05-26T08:15:21Z</time></trkpt>
<trkpt lat="50.817503" lon="5.290145"><ele>65.01</ele><time>2025-05-26T08:15:28Z</time></trkpt>
<trkpt lat="50.817866" lon="5.290027"><ele>66.62</ele><time>2025-05-26T08:15:35Z</time></trkpt>
<trkpt lat="50.82227" lon="5.288892"><ele>70.83</ele><time>2025-05-26T08:15:42Z</time></trkpt>
<trkpt lat="50.822696" lon="5.28875"><ele>70.0</ele><time>2025-05-26T08:15:49Z</time></trkpt>
<trkpt lat="50.824499" lon="5.287883"><ele>64.8</ele><time>2025-05-26T08:15:56Z</time></trkpt>
<trkpt lat="50.824835" lon="5.287651"><ele>62.91</ele><time>2025-05-26T08:16:02Z</time></trkpt>
<trkpt lat="50.82561" lon="5.286889"><ele>63.0</ele><time>2025-05-26T08:16:09Z</time></trkpt>
<trkpt lat="50.825991" lon="5.286545"><ele>62.68</ele><time>2025-05-26T08:16:16Z</time></trkpt>
<trkpt lat="50.827954" lon="5.285034"><ele>61.37</ele><time>2025-05-26T08:16:23Z</time></trkpt>
<trkpt lat="50.828074" lon="5.284966"><ele>61.06</ele><time>2025-05-26T08:16:30Z</time></trkpt>
<trkpt lat="50.828298" lon="5.284937"><ele>61.68</ele><time>2025-05-26T08:16:37Z</time></trkpt>
<trkpt lat="50.828432" lon="5.284974"><ele>61.9</ele><time>2025-05-26T08:16:44Z</time></trkpt>
<trkpt lat="50.830604" lon="5.286525"><ele>60.0</ele><time>2025-05-26T08:16:50Z</time></trkpt>
<trkpt lat="50.830707" lon="5.286595"><ele>60.0</ele><time>2025-05-26T08:16:57Z</time></trkpt>
<trkpt lat="50.830788" lon="5.286613"><ele>60.0</ele><time>2025-05-26T08:17:04Z</time></trkpt>
<trkpt lat="50.830882" lon="5.286574"><ele>60.06</ele><time>2025-05-26T08:17:11Z</time></trkpt>
<trkpt lat="50.830939" lon="5.286503"><ele>60.22</ele><time>2025-05-26T08:17:18Z</time></trkpt>
<trkpt lat="50.83136" lon="5.285815"><ele>60.1</ele><time>2025-05-26T08:17:25Z</time></trkpt>
<trkpt lat="50.831571" lon="5.285554"><ele>59.34</ele><time>2025-05-26T08:17:32Z</time></trkpt>
<trkpt lat="50.831881" lon="5.285262"><ele>58.23</ele><time>2025-05-26T08:17:39Z</time></trkpt>
<trkpt lat="50.832438" lon="5.284893"><ele>58.91</ele><time>2025-05-26T08:17:45Z</time></trkpt>
<trkpt lat="50.83499" lon="5.283351"><ele>58.92</ele><time>2025-05-26T08:17:52Z</time></trkpt>
<trkpt lat="50.835098" lon="5.28335"><ele>59.35</ele><time>2025-05-26T08:17:59Z</time></trkpt>
<trkpt lat="50.835182" lon="5.283227"><ele>59.27</ele><time>2025-05-26T08:18:03Z</time></trkpt>
<trkpt lat="50.836608" lon="5.282376"><ele>58.0</ele><time>2025-05-26T08:18:08Z</time></trkpt>
<trkpt lat="50.836963" lon="5.282094"><ele>57.47</ele><time>2025-05-26T08:18:12Z</time></trkpt>
<trkpt lat="50.837218" lon="5.281828"><ele>57.01</ele><time>2025-05-26T08:18:16Z</time></trkpt>
<trkpt lat="50.837335" lon="5.281665"><ele>57.0</ele><time>2025-05-26T08:18:21Z</time></trkpt>
<trkpt lat="50.839123" lon="5.278775"><ele>51.75</ele><time>2025-05-26T08:18:25Z</time></trkpt>
<trkpt lat="50.839586" lon="5.279037"><ele>52.0</ele><time>2025-05-26T08:18:31Z</time></trkpt>
<trkpt lat="50.839796" lon="5.279111"><ele>52.0</ele><time>2025-05-26T08:18:37Z</time></trkpt>
<trkpt lat="50.840021" lon="5.279091"><ele>52.0</ele><time>2025-05-26T08:18:43Z</time></trkpt>
<trkpt lat="50.840145" lon="5.279029"><ele>52.0</ele><time>2025-05-26T08:18:49Z</time></trkpt>
<trkpt lat="50.840268" lon="5.278933"><ele>52.0</ele><time>2025-05-26T08:18:55Z</time></trkpt>
<trkpt lat="50.840434" lon="5.278682"><ele>50.69</ele><time>2025-05-26T08:19:01Z</time></trkpt>
<trkpt lat="50.84224" lon="5.274916"><ele>46.33</ele><time>2025-05-26T08:19:07Z</time></trkpt>
<trkpt lat="50.842445" lon="5.274583"><ele>46.2</ele><time>2025-05-26T08:19:13Z</time></trkpt>
<trkpt lat="50.842681" lon="5.274292"><ele>44.8</ele><time>2025-05-26T08:19:19Z</time></trkpt>
<trkpt lat="50.842949" lon="5.274074"><ele>44.41</ele><time>2025-05-26T08:19:25Z</time></trkpt>
<trkpt lat="50.843134" lon="5.273977"><ele>44.31</ele><time>2025-05-26T08:19:31Z</time></trkpt>
<trkpt lat="50.84334" lon="5.273903"><ele>44.07</ele><time>2025-05-26T08:19:37Z</time></trkpt>
<trkpt lat="50.843909" lon="5.273871"><ele>47.14</ele><time>2025-05-26T08:19:44Z</time></trkpt>
<trkpt lat="50.844057" lon="5.273842"><ele>47.77</ele><time>2025-05-26T08:19:50Z</time></trkpt>
<trkpt lat="50.844752" lon="5.273459"><ele>49.0</ele><time>2025-05-26T08:19:56Z</time></trkpt>
<trkpt lat="50.844917" lon="5.273385"><ele>49.0</ele><time>2025-05-26T08:20:02Z</time></trkpt>
<trkpt lat="50.845068" lon="5.273363"><ele>49.27</ele><time>2025-05-26T08:20:08Z</time></trkpt>
<trkpt lat="50.84557" lon="5.273427"><ele>51.05</ele><time>2025-05-26T08:20:14Z</time></trkpt>
<trkpt lat="50.845774" lon="5.273412"><ele>51.79</ele><time>2025-05-26T08:20:20Z</time></trkpt>
<trkpt lat="50.84622" lon="5.273302"><ele>53.39</ele><time>2025-05-26T08:20:26Z</time></trkpt>
<trkpt lat="50.846335" lon="5.273297"><ele>53.81</ele><time>2025-05-26T08:20:32Z</time></trkpt>
<trkpt lat="50.846993" lon="5.273397"><ele>56.0</ele><time>2025-05-26T08:20:38Z</time></trkpt>
<trkpt lat="50.847739" lon="5.273439"><ele>56.0</ele><time>2025-05-26T08:20:44Z</time></trkpt>
<trkpt lat="50.849535" lon="5.273357"><ele>55.73</ele><time>2025-05-26T08:20:50Z</time></trkpt>
<trkpt lat="50.850631" lon="5.273305"><ele>53.0</ele><time>2025-05-26T08:20:56Z</time></trkpt>
<trkpt lat="50.850849" lon="5.273312"><ele>53.06</ele><time>2025-05-26T08:21:02Z</time></trkpt>
<trkpt lat="50.851442" lon="5.273369"><ele>53.71</ele><time>2025-05-26T08:21:08Z</time></trkpt>
<trkpt lat="50.852009" lon="5.273458"><ele>51.77</ele><time>2025-05-26T08:21:14Z</time></trkpt>
<trkpt lat="50.852328" lon="5.273477"><ele>50.24</ele><time>2025-05-26T08:21:20Z</time></trkpt>
<trkpt lat="50.853952" lon="5.273389"><ele>49.55</ele><time>2025-05-26T08:21:26Z</time></trkpt>
<trkpt lat="50.854902" lon="5.273308"><ele>47.7</ele><time>2025-05-26T08:21:32Z</time></trkpt>
<trkpt lat="50.855218" lon="5.27325"><ele>48.3</ele><time>2025-05-26T08:21:38Z</time></trkpt>
<trkpt lat="50.856697" lon="5.272895"><ele>47.89</ele><time>2025-05-26T08:21:44Z</time></trkpt>
<trkpt lat="50.858321" lon="5.272703"><ele>46.08</ele><time>2025-05-26T08:21:51Z</time></trkpt>
<trkpt lat="50.86129" lon="5.271761"><ele>44.64</ele><time>2025-05-26T08:21:57Z</time></trkpt>
<trkpt lat="50.86149" lon="5.27167"><ele>44.63</ele><time>2025-05-26T08:22:03Z</time></trkpt>
<trkpt lat="50.861712" lon="5.271514"><ele>44.55</ele><time>2025-05-26T08:22:09Z</time></trkpt>
<trkpt lat="50.86349" lon="5.269851"><ele>42.56</ele><time>2025-05-26T08:22:15Z</time></trkpt>
<trkpt lat="50.863799" lon="5.269588"><ele>43.0</ele><time>2025-05-26T08:22:21Z</time></trkpt>
<trkpt lat="50.864041" lon="5.269374"><ele>43.41</ele><time>2025-05-26T08:22:27Z</time></trkpt>
<trkpt lat="50.864181" lon="5.269193"><ele>43.15</ele><time>2025-05-26T08:22:33Z</time></trkpt>
<trkpt lat="50.864346" lon="5.268925"><ele>43.64</ele><time>2025-05-26T08:22:39Z</time></trkpt>
<trkpt lat="50.864502" lon="5.268567"><ele>45.21</ele><time>2025-05-26T08:22:45Z</time></trkpt>
<trkpt lat="50.866015" lon="5.264722"><ele>48.35</ele><time>2025-05-26T08:22:51Z</time></trkpt>
<trkpt lat="50.867328" lon="5.261494"><ele>49.62</ele><time>2025-05-26T08:22:57Z</time></trkpt>
<trkpt lat="50.867621" lon="5.261016"><ele>49.86</ele><time>2025-05-26T08:23:03Z</time></trkpt>
<trkpt lat="50.868122" lon="5.260556"><ele>52.99</ele><time>2025-05-26T08:23:09Z</time></trkpt>
<trkpt lat="50.869518" lon="5.259453"><ele>54.26</ele><time>2025-05-26T08:23:15Z</time></trkpt>
<trkpt lat="50.870562" lon="5.25857"><ele>58.98</ele><time>2025-05-26T08:23:21Z</time></trkpt>
<trkpt lat="50.870669" lon="5.258423"><ele>58.59</ele><time>2025-05-26T08:23:27Z</time></trkpt>
<trkpt lat="50.869989" lon="5.257287"><ele>57.96</ele><time>2025-05-26T08:23:34Z</time></trkpt>
<trkpt lat="50.872338" lon="5.253445"><ele>70.67</ele><time>2025-05-26T08:23:39Z</time></trkpt>
<trkpt lat="50.872568" lon="5.253118"><ele>71.22</ele><time>2025-05-26T08:23:43Z</time></trkpt>
<trkpt lat="50.873782" lon="5.25169"><ele>67.0</ele><time>2025-05-26T08:23:48Z</time></trkpt>
<trkpt lat="50.873919" lon="5.251481"><ele>66.22</ele><time>2025-05-26T08:23:53Z</time></trkpt>
<trkpt lat="50.873992" lon="5.251307"><ele>65.63</ele><time>2025-05-26T08:23:57Z</time></trkpt>
<trkpt lat="50.874055" lon="5.251055"><ele>65.2</ele><time>2025-05-26T08:24:02Z</time></trkpt>
<trkpt lat="50.874622" lon="5.248311"><ele>61.39</ele><time>2025-05-26T08:24:06Z</time></trkpt>
<trkpt lat="50.874673" lon="5.248173"><ele>61.28</ele><time>2025-05-26T08:24:11Z</time></trkpt>
<trkpt lat="50.874802" lon="5.247941"><ele>60.71</ele><time>2025-05-26T08:24:16Z</time></trkpt>
<trkpt lat="50.874994" lon="5.247746"><ele>59.91</ele><time>2025-05-26T08:24:20Z</time></trkpt>
<trkpt lat="50.876383" lon="5.2468"><ele>53.03</ele><time>2025-05-26T08:24:25Z</time></trkpt>
<trkpt lat="50.878028" lon="5.24589"><ele>50.83</ele><time>2025-05-26T08:24:30Z</time></trkpt>
<trkpt lat="50.878151" lon="5.245772"><ele>50.65</ele><time>2025-05-26T08:24:34Z</time></trkpt>
<trkpt lat="50.878199" lon="5.245699"><ele>50.48</ele><time>2025-05-26T08:24:39Z</time></trkpt>
<trkpt lat="50.878285" lon="5.245489"><ele>50.37</ele><time>2025-05-26T08:24:43Z</time></trkpt>
<trkpt lat="50.878318" lon="5.245276"><ele>51.0</ele><time>2025-05-26T08:24:48Z</time></trkpt>
<trkpt lat="50.878304" lon="5.24501"><ele>51.0</ele><time>2025-05-26T08:24:53Z</time></trkpt>
<trkpt lat="50.878185" lon="5.24461"><ele>51.0</ele><time>2025-05-26T08:24:57Z</time></trkpt>
<trkpt lat="50.878776" lon="5.243812"><ele>52.62</ele><time>2025-05-26T08:25:00Z</time></trkpt>
<trkpt lat="50.878896" lon="5.243689"><ele>54.44</ele><time>2025-05-26T08:25:03Z</time></trkpt>
<trkpt lat="50.879017" lon="5.243654"><ele>54.69</ele><time>2025-05-26T08:25:06Z</time></trkpt>
<trkpt lat="50.879151" lon="5.243701"><ele>54.35</ele><time>2025-05-26T08:25:10Z</time></trkpt>
<trkpt lat="50.879235" lon="5.243783"><ele>53.92</ele><time>2025-05-26T08:25:13Z</time></trkpt>
<trkpt lat="50.880883" lon="5.245965"><ele>48.26</ele><time>2025-05-26T08:25:16Z</time></trkpt>
<trkpt lat="50.881191" lon="5.246271"><ele>46.28</ele><time>2025-05-26T08:25:19Z</time></trkpt>
<trkpt lat="50.881351" lon="5.24635"><ele>46.86</ele><time>2025-05-26T08:25:22Z</time></trkpt>
<trkpt lat="50.88151" lon="5.246373"><ele>47.46</ele><time>2025-05-26T08:25:25Z</time></trkpt>
<trkpt lat="50.881785" lon="5.246315"><ele>49.01</ele><time>2025-05-26T08:25:28Z</time></trkpt>
<trkpt lat="50.882228" lon="5.246002"><ele>50.6</ele><time>2025-05-26T08:25:31Z</time></trkpt>
<trkpt lat="50.882314" lon="5.245955"><ele>50.29</ele><time>2025-05-26T08:25:35Z</time></trkpt>
<trkpt lat="50.882444" lon="5.245952"><ele>50.09</ele><time>2025-05-26T08:25:38Z</time></trkpt>
<trkpt lat="50.882554" lon="5.246037"><ele>50.0</ele><time>2025-05-26T08:25:41Z</time></trkpt>
<trkpt lat="50.883393" lon="5.247021"><ele>48.94</ele><time>2025-05-26T08:25:44Z</time></trkpt>
<trkpt lat="50.883509" lon="5.24714"><ele>48.93</ele><time>2025-05-26T08:25:47Z</time></trkpt>
<trkpt lat="50.883714" lon="5.247263"><ele>49.0</ele><time>2025-05-26T08:25:50Z</time></trkpt>
<trkpt lat="50.883903" lon="5.247306"><ele>49.0</ele><time>2025-05-26T08:25:53Z</time></trkpt>
<trkpt lat="50.885223" lon="5.247158"><ele>53.14</ele><time>2025-05-26T08:25:56Z</time></trkpt>
<trkpt lat="50.885469" lon="5.247171"><ele>52.5</ele><time>2025-05-26T08:25:59Z</time></trkpt>
<trkpt lat="50.885702" lon="5.247244"><ele>52.0</ele><time>2025-05-26T08:26:03Z</time></trkpt>
<trkpt lat="50.886283" lon="5.247576"><ele>54.45</ele><time>2025-05-26T08:26:06Z</time></trkpt>
<trkpt lat="50.886419" lon="5.247618"><ele>54.62</ele><time>2025-05-26T08:26:09Z</time></trkpt>
<trkpt lat="50.886387" lon="5.246345"><ele>57.15</ele><time>2025-05-26T08:26:14Z</time></trkpt>
<trkpt lat="50.886394" lon="5.246217"><ele>57.62</ele><time>2025-05-26T08:26:19Z</time></trkpt>
<trkpt lat="50.88642" lon="5.246093"><ele>58.01</ele><time>2025-05-26T08:26:24Z</time></trkpt>
<trkpt lat="50.88648" lon="5.245937"><ele>58.21</ele><time>2025-05-26T08:26:30Z</time></trkpt>
<trkpt lat="50.887207" lon="5.244847"><ele>57.63</ele><time>2025-05-26T08:26:35Z</time></trkpt>
<trkpt lat="50.889706" lon="5.239302"><ele>56.03</ele><time>2025-05-26T08:26:40Z</time></trkpt>
<trkpt lat="50.889741" lon="5.239155"><ele>56.0</ele><time>2025-05-26T08:26:45Z</time></trkpt>
<trkpt lat="50.889849" lon="5.238981"><ele>56.0</ele><time>2025-05-26T08:26:50Z</time></trkpt>
<trkpt lat="50.890617" lon="5.237168"><ele>53.59</ele><time>2025-05-26T08:26:55Z</time></trkpt>
<trkpt lat="50.890937" lon="5.236414"><ele>52.03</ele><time>2025-05-26T08:27:01Z</time></trkpt>
<trkpt lat="50.890996" lon="5.236316"><ele>52.0</ele><time>2025-05-26T08:27:06Z</time></trkpt>
<trkpt lat="50.891086" lon="5.236242"><ele>52.0</ele><time>2025-05-26T08:27:11Z</time></trkpt>
<trkpt lat="50.891149" lon="5.236227"><ele>52.14</ele><time>2025-05-26T08:27:16Z</time></trkpt>
<trkpt lat="50.89128" lon="5.236269"><ele>52.6</ele><time>2025-05-26T08:27:21Z</time></trkpt>
<trkpt lat="50.891953" lon="5.23689"><ele>53.78</ele><time>2025-05-26T08:27:27Z</time></trkpt>
<trkpt lat="50.89219" lon="5.23703"><ele>53.42</ele><time>2025-05-26T08:27:32Z</time></trkpt>
<trkpt lat="50.892303" lon="5.237072"><ele>53.33</ele><time>2025-05-26T08:27:37Z</time></trkpt>
<trkpt lat="50.89254" lon="5.237106"><ele>52.77</ele><time>2025-05-26T08:27:42Z</time></trkpt>
<trkpt lat="50.893109" lon="5.237068"><ele>50.45</ele><time>2025-05-26T08:27:47Z</time></trkpt>
<trkpt lat="50.893229" lon="5.237087"><ele>50.18</ele><time>2025-05-26T08:27:52Z</time></trkpt>
<trkpt lat="50.893426" lon="5.237144"><ele>50.0</ele><time>2025-05-26T08:27:58Z</time></trkpt>
<trkpt lat="50.893586" lon="5.23722"><ele>50.0</ele><time>2025-05-26T08:28:03Z</time></trkpt>
<trkpt lat="50.893809" lon="5.237354"><ele>50.71</ele><time>2025-05-26T08:28:08Z</time></trkpt>
<trkpt lat="50.893929" lon="5.23745"><ele>50.86</ele><time>2025-05-26T08:28:13Z</time></trkpt>
<trkpt lat="50.893993" lon="5.237374"><ele>50.63</ele><time>2025-05-26T08:28:22Z</time></trkpt>
<trkpt lat="50.895056" lon="5.236735"><ele>51.75</ele><time>2025-05-26T08:28:30Z</time></trkpt>
<trkpt lat="50.89556" lon="5.236386"><ele>51.97</ele><time>2025-05-26T08:28:38Z</time></trkpt>
<trkpt lat="50.896842" lon="5.235296"><ele>50.69</ele><time>2025-05-26T08:28:46Z</time></trkpt>
<trkpt lat="50.896954" lon="5.235177"><ele>49.93</ele><time>2025-05-26T08:28:55Z</time></trkpt>
<trkpt lat="50.897022" lon="5.235002"><ele>49.44</ele><time>2025-05-26T08:29:03Z</time></trkpt>
<trkpt lat="50.897082" lon="5.234729"><ele>49.01</ele><time>2025-05-26T08:29:11Z</time></trkpt>
<trkpt lat="50.897125" lon="5.234653"><ele>48.7</ele><time>2025-05-26T08:29:20Z</time></trkpt>
<trkpt lat="50.897192" lon="5.234616"><ele>48.22</ele><time>2025-05-26T08:29:28Z</time></trkpt>
<trkpt lat="50.89862" lon="5.234922"><ele>46.94</ele><time>2025-05-26T08:29:36Z</time></trkpt>
<trkpt lat="50.899796" lon="5.234941"><ele>44.0</ele><time>2025-05-26T08:29:44Z</time></trkpt>
<trkpt lat="50.900112" lon="5.234988"><ele>44.02</ele><time>2025-05-26T08:29:53Z</time></trkpt>
<trkpt lat="50.900329" lon="5.235065"><ele>44.19</ele><time>2025-05-26T08:30:01Z</time></trkpt>
<trkpt lat="50.902451" lon="5.236068"><ele>43.87</ele><time>2025-05-26T08:30:09Z</time></trkpt>
<trkpt lat="50.902562" lon="5.236075"><ele>43.45</ele><time>2025-05-26T08:30:17Z</time></trkpt>
<trkpt lat="50.902643" lon="5.236043"><ele>42.85</ele><time>2025-05-26T08:30:26Z</time></trkpt>
<trkpt lat="50.903286" lon="5.235371"><ele>42.0</ele><time>2025-05-26T08:30:34Z</time></trkpt>
<trkpt lat="50.903359" lon="5.235294"><ele>42.09</ele><time>2025-05-26T08:30:42Z</time></trkpt>
<trkpt lat="50.902533" lon="5.233514"><ele>45.0</ele><time>2025-05-26T08:30:45Z</time></trkpt>
<trkpt lat="50.902407" lon="5.233132"><ele>44.76</ele><time>2025-05-26T08:30:48Z</time></trkpt>
<trkpt lat="50.902307" lon="5.232673"><ele>43.92</ele><time>2025-05-26T08:30:51Z</time></trkpt>
<trkpt lat="50.902278" lon="5.232453"><ele>43.17</ele><time>2025-05-26T08:30:54Z</time></trkpt>
<trkpt lat="50.902253" lon="5.231969"><ele>43.1</ele><time>2025-05-26T08:30:57Z</time></trkpt>
<trkpt lat="50.902282" lon="5.231496"><ele>43.83</ele><time>2025-05-26T08:31:00Z</time></trkpt>
<trkpt lat="50.902434" lon="5.230522"><ele>44.88</ele><time>2025-05-26T08:31:03Z</time></trkpt>
<trkpt lat="50.902464" lon="5.230154"><ele>44.0</ele><time>2025-05-26T08:31:06Z</time></trkpt>
<trkpt lat="50.902443" lon="5.229623"><ele>42.92</ele><time>2025-05-26T08:31:09Z</time></trkpt>
<trkpt lat="50.902405" lon="5.229304"><ele>42.18</ele><time>2025-05-26T08:31:12Z</time></trkpt>
<trkpt lat="50.902332" lon="5.228994"><ele>41.59</ele><time>2025-05-26T08:31:15Z</time></trkpt>
<trkpt lat="50.902231" lon="5.228686"><ele>41.21</ele><time>2025-05-26T08:31:17Z</time></trkpt>
<trkpt lat="50.90206" lon="5.228313"><ele>39.93</ele><time>2025-05-26T08:31:20Z</time></trkpt>
<trkpt lat="50.901847" lon="5.227995"><ele>39.35</ele><time>2025-05-26T08:31:23Z</time></trkpt>
<trkpt lat="50.901225" lon="5.227311"><ele>40.59</ele><time>2025-05-26T08:31:26Z</time></trkpt>
<trkpt lat="50.901079" lon="5.22707"><ele>41.53</ele><time>2025-05-26T08:31:29Z</time></trkpt>
<trkpt lat="50.90085" lon="5.226463"><ele>39.34</ele><time>2025-05-26T08:31:32Z</time></trkpt>
<trkpt lat="50.90077" lon="5.226117"><ele>38.77</ele><time>2025-05-26T08:31:35Z</time></trkpt>
<trkpt lat="50.900733" lon="5.225893"><ele>38.42</ele><time>2025-05-26T08:31:38Z</time></trkpt>
<trkpt lat="50.9007" lon="5.225335"><ele>38.89</ele><time>2025-05-26T08:31:41Z</time></trkpt>
<trkpt lat="50.900747" lon="5.224524"><ele>39.0</ele><time>2025-05-26T08:31:44Z</time></trkpt>
<trkpt lat="50.900714" lon="5.224361"><ele>39.3</ele><time>2025-05-26T08:31:47Z</time></trkpt>
<trkpt lat="50.900681" lon="5.224301"><ele>39.52</ele><time>2025-05-26T08:31:50Z</time></trkpt>
<trkpt lat="50.900779" lon="5.224127"><ele>40.14</ele><time>2025-05-26T08:31:53Z</time></trkpt>
<trkpt lat="50.900844" lon="5.22406"><ele>40.37</ele><time>2025-05-26T08:31:57Z</time></trkpt>
<trkpt lat="50.901826" lon="5.223234"><ele>41.15</ele><time>2025-05-26T08:32:00Z</time></trkpt>
<trkpt lat="50.902108" lon="5.223052"><ele>41.0</ele><time>2025-05-26T08:32:04Z</time></trkpt>
<trkpt lat="50.902389" lon="5.22292"><ele>41.6</ele><time>2025-05-26T08:32:07Z</time></trkpt>
<trkpt lat="50.90256" lon="5.222866"><ele>42.28</ele><time>2025-05-26T08:32:11Z</time></trkpt>
<trkpt lat="50.903514" lon="5.222767"><ele>38.73</ele><time>2025-05-26T08:32:14Z</time></trkpt>
<trkpt lat="50.903901" lon="5.222667"><ele>39.07</ele><time>2025-05-26T08:32:18Z</time></trkpt>
<trkpt lat="50.904195" lon="5.22254"><ele>40.33</ele><time>2025-05-26T08:32:21Z</time></trkpt>
<trkpt lat="50.904383" lon="5.222418"><ele>41.56</ele><time>2025-05-26T08:32:25Z</time></trkpt>
<trkpt lat="50.905999" lon="5.220898"><ele>39.09</ele><time>2025-05-26T08:32:28Z</time></trkpt>
<trkpt lat="50.906228" lon="5.220709"><ele>39.0</ele><time>2025-05-26T08:32:32Z</time></trkpt>
<trkpt lat="50.906372" lon="5.220618"><ele>39.0</ele><time>2025-05-26T08:32:35Z</time></trkpt>
<trkpt lat="50.906588" lon="5.220526"><ele>39.0</ele><time>2025-05-26T08:32:39Z</time></trkpt>
<trkpt lat="50.906882" lon="5.22047"><ele>39.24</ele><time>2025-05-26T08:32:42Z</time></trkpt>
<trkpt lat="50.907388" lon="5.220504"><ele>40.78</ele><time>2025-05-26T08:32:46Z</time></trkpt>
<trkpt lat="50.90788" lon="5.220489"><ele>41.52</ele><time>2025-05-26T08:32:49Z</time></trkpt>
<trkpt lat="50.908424" lon="5.220421"><ele>40.84</ele><time>2025-05-26T08:32:53Z</time></trkpt>
<trkpt lat="50.909084" lon="5.220376"><ele>40.35</ele><time>2025-05-26T08:32:56Z</time></trkpt>
<trkpt lat="50.909932" lon="5.220331"><ele>38.24</ele><time>2025-05-26T08:33:00Z</time></trkpt>
<trkpt lat="50.910265" lon="5.220348"><ele>38.97</ele><time>2025-05-26T08:33:03Z</time></trkpt>
<trkpt lat="50.911155" lon="5.220504"><ele>38.16</ele><time>2025-05-26T08:33:07Z</time></trkpt>
<trkpt lat="50.91145" lon="5.220617"><ele>37.78</ele><time>2025-05-26T08:33:10Z</time></trkpt>
<trkpt lat="50.911683" lon="5.22076"><ele>36.96</ele><time>2025-05-26T08:33:13Z</time></trkpt>
<trkpt lat="50.91195" lon="5.220986"><ele>35.45</ele><time>2025-05-26T08:33:17Z</time></trkpt>
<trkpt lat="50.912281" lon="5.221315"><ele>35.21</ele><time>2025-05-26T08:33:20Z</time></trkpt>
<trkpt lat="50.91257" lon="5.221767"><ele>35.0</ele><time>2025-05-26T08:33:24Z</time></trkpt>
<trkpt lat="50.913118" lon="5.222727"><ele>33.59</ele><time>2025-05-26T08:33:27Z</time></trkpt>
<trkpt lat="50.913236" lon="5.222852"><ele>33.62</ele><time>2025-05-26T08:33:31Z</time></trkpt>
<trkpt lat="50.913334" lon="5.222925"><ele>33.53</ele><time>2025-05-26T08:33:34Z</time></trkpt>
<trkpt lat="50.913549" lon="5.223023"><ele>33.19</ele><time>2025-05-26T08:33:38Z</time></trkpt>
<trkpt lat="50.913674" lon="5.223019"><ele>33.23</ele><time>2025-05-26T08:33:41Z</time></trkpt>
<trkpt lat="50.914078" lon="5.222908"><ele>33.64</ele><time>2025-05-26T08:33:45Z</time></trkpt>
<trkpt lat="50.914961" lon="5.222583"><ele>34.0</ele><time>2025-05-26T08:33:48Z</time></trkpt>
<trkpt lat="50.915802" lon="5.222334"><ele>36.78</ele><time>2025-05-26T08:33:52Z</time></trkpt>
<trkpt lat="50.916955" lon="5.222132"><ele>31.65</ele><time>2025-05-26T08:33:55Z</time></trkpt>
<trkpt lat="50.917659" lon="5.222086"><ele>32.0</ele><time>2025-05-26T08:33:59Z</time></trkpt>
<trkpt lat="50.917866" lon="5.222095"><ele>31.83</ele><time>2025-05-26T08:34:02Z</time></trkpt>
<trkpt lat="50.919206" lon="5.222327"><ele>31.14</ele><time>2025-05-26T08:34:06Z</time></trkpt>
<trkpt lat="50.919545" lon="5.222433"><ele>32.0</ele><time>2025-05-26T08:34:09Z</time></trkpt>
<trkpt lat="50.921089" lon="5.223345"><ele>28.08</ele><time>2025-05-26T08:34:13Z</time></trkpt>
<trkpt lat="50.921385" lon="5.223466"><ele>28.0</ele><time>2025-05-26T08:34:16Z</time></trkpt>
<trkpt lat="50.921653" lon="5.223527"><ele>28.0</ele><time>2025-05-26T08:34:20Z</time></trkpt>
<trkpt lat="50.921902" lon="5.223536"><ele>27.15</ele><time>2025-05-26T08:34:23Z</time></trkpt>
<trkpt lat="50.922195" lon="5.223683"><ele>27.0</ele><time>2025-05-26T08:34:27Z</time></trkpt>
<trkpt lat="50.922225" lon="5.223515"><ele>27.01</ele><time>2025-05-26T08:34:34Z</time></trkpt>
<trkpt lat="50.922375" lon="5.222871"><ele>27.55</ele><time>2025-05-26T08:34:41Z</time></trkpt>
<trkpt lat="50.923525" lon="5.218838"><ele>26.75</ele><time>2025-05-26T08:34:48Z</time></trkpt>
<trkpt lat="50.92371" lon="5.217919"><ele>27.36</ele><time>2025-05-26T08:34:55Z</time></trkpt>
<trkpt lat="50.923832" lon="5.21797"><ele>27.8</ele><time>2025-05-26T08:35:09Z</time></trkpt>
<trkpt lat="50.923999" lon="5.217997"><ele>27.69</ele><time>2025-05-26T08:35:23Z</time></trkpt>
<trkpt lat="50.927302" lon="5.220044"><ele>25.6</ele><time>2025-05-26T08:35:37Z</time></trkpt>
<trkpt lat="50.927431" lon="5.220124"><ele>25.14</ele><time>2025-05-26T08:35:51Z</time></trkpt>
<trkpt lat="50.929032" lon="5.221129"><ele>24.51</ele><time>2025-05-26T08:36:06Z</time></trkpt>
<trkpt lat="50.929788" lon="5.219442"><ele>25.99</ele><time>2025-05-26T08:36:09Z</time></trkpt>
<trkpt lat="50.929907" lon="5.21914"><ele>24.94</ele><time>2025-05-26T08:36:13Z</time></trkpt>
<trkpt lat="50.930009" lon="5.218812"><ele>23.76</ele><time>2025-05-26T08:36:16Z</time></trkpt>
<trkpt lat="50.930379" lon="5.217254"><ele>24.68</ele><time>2025-05-26T08:36:20Z</time></trkpt>
<trkpt lat="50.930468" lon="5.217002"><ele>24.86</ele><time>2025-05-26T08:36:24Z</time></trkpt>
<trkpt lat="50.930567" lon="5.216804"><ele>25.0</ele><time>2025-05-26T08:36:27Z</time></trkpt>
<trkpt lat="50.93064" lon="5.216693"><ele>25.0</ele><time>2025-05-26T08:36:31Z</time></trkpt>
<trkpt lat="50.931326" lon="5.215844"><ele>29.7</ele><time>2025-05-26T08:36:34Z</time></trkpt>
<trkpt lat="50.931463" lon="5.215701"><ele>30.48</ele><time>2025-05-26T08:36:38Z</time></trkpt>
<trkpt lat="50.931657" lon="5.215579"><ele>30.92</ele><time>2025-05-26T08:36:41Z</time></trkpt>
<trkpt lat="50.931858" lon="5.21553"><ele>29.53</ele><time>2025-05-26T08:36:45Z</time></trkpt>
<trkpt lat="50.932135" lon="5.215575"><ele>27.63</ele><time>2025-05-26T08:36:49Z</time></trkpt>
<trkpt lat="50.932614" lon="5.215751"><ele>27.7</ele><time>2025-05-26T08:36:52Z</time></trkpt>
<trkpt lat="50.932717" lon="5.215755"><ele>28.34</ele><time>2025-05-26T08:36:56Z</time></trkpt>
<trkpt lat="50.932838" lon="5.21568"><ele>28.88</ele><time>2025-05-26T08:36:59Z</time></trkpt>
<trkpt lat="50.932923" lon="5.215535"><ele>28.97</ele><time>2025-05-26T08:37:03Z</time></trkpt>
<trkpt lat="50.933156" lon="5.214873"><ele>28.49</ele><time>2025-05-26T08:37:07Z</time></trkpt>
<trkpt lat="50.93336" lon="5.214359"><ele>27.81</ele><time>2025-05-26T08:37:10Z</time></trkpt>
<trkpt lat="50.933588" lon="5.213967"><ele>26.16</ele><time>2025-05-26T08:37:14Z</time></trkpt>
<trkpt lat="50.933694" lon="5.213817"><ele>25.88</ele><time>2025-05-26T08:37:17Z</time></trkpt>
<trkpt lat="50.933805" lon="5.213613"><ele>25.6</ele><time>2025-05-26T08:37:21Z</time></trkpt>
<trkpt lat="50.933893" lon="5.213366"><ele>24.99</ele><time>2025-05-26T08:37:25Z</time></trkpt>
<trkpt lat="50.934241" lon="5.21206"><ele>24.58</ele><time>2025-05-26T08:37:28Z</time></trkpt>
<trkpt lat="50.934312" lon="5.211745"><ele>25.34</ele><time>2025-05-26T08:37:32Z</time></trkpt>
<trkpt lat="50.934492" lon="5.211145"><ele>25.83</ele><time>2025-05-26T08:37:35Z</time></trkpt>
<trkpt lat="50.934606" lon="5.210969"><ele>25.2</ele><time>2025-05-26T08:37:39Z</time></trkpt>
<trkpt lat="50.934693" lon="5.21091"><ele>25.03</ele><time>2025-05-26T08:37:42Z</time></trkpt>
<trkpt lat="50.93531" lon="5.210863"><ele>24.99</ele><time>2025-05-26T08:37:46Z</time></trkpt>
<trkpt lat="50.935466" lon="5.210808"><ele>25.0</ele><time>2025-05-26T08:37:50Z</time></trkpt>
<trkpt lat="50.935645" lon="5.210668"><ele>25.19</ele><time>2025-05-26T08:37:53Z</time></trkpt>
<trkpt lat="50.935757" lon="5.21055"><ele>25.76</ele><time>2025-05-26T08:37:57Z</time></trkpt>
<trkpt lat="50.935907" lon="5.210353"><ele>27.53</ele><time>2025-05-26T08:38:00Z</time></trkpt>
<trkpt lat="50.936237" lon="5.209841"><ele>29.26</ele><time>2025-05-26T08:38:04Z</time></trkpt>
<trkpt lat="50.936207" lon="5.20964"><ele>29.34</ele><time>2025-05-26T08:38:07Z</time></trkpt>
<trkpt lat="50.936215" lon="5.208527"><ele>30.37</ele><time>2025-05-26T08:38:11Z</time></trkpt>
<trkpt lat="50.936185" lon="5.20822"><ele>30.57</ele><time>2025-05-26T08:38:14Z</time></trkpt>
<trkpt lat="50.936135" lon="5.207911"><ele>31.0</ele><time>2025-05-26T08:38:17Z</time></trkpt>
<trkpt lat="50.936064" lon="5.207605"><ele>30.04</ele><time>2025-05-26T08:38:21Z</time></trkpt>
<trkpt lat="50.935783" lon="5.206493"><ele>27.19</ele><time>2025-05-26T08:38:24Z</time></trkpt>
<trkpt lat="50.935759" lon="5.206212"><ele>26.73</ele><time>2025-05-26T08:38:27Z</time></trkpt>
<trkpt lat="50.935806" lon="5.205935"><ele>26.27</ele><time>2025-05-26T08:38:31Z</time></trkpt>
<trkpt lat="50.935904" lon="5.205658"><ele>26.35</ele><time>2025-05-26T08:38:34Z</time></trkpt>
<trkpt lat="50.936067" lon="5.205234"><ele>26.0</ele><time>2025-05-26T08:38:37Z</time></trkpt>
<trkpt lat="50.936571" lon="5.204099"><ele>25.66</ele><time>2025-05-26T08:38:41Z</time></trkpt>
<trkpt lat="50.937657" lon="5.202284"><ele>28.56</ele><time>2025-05-26T08:38:44Z</time></trkpt>
<trkpt lat="50.938302" lon="5.201246"><ele>29.77</ele><time>2025-05-26T08:38:47Z</time></trkpt>
<trkpt lat="50.939156" lon="5.200076"><ele>29.96</ele><time>2025-05-26T08:38:51Z</time></trkpt>
<trkpt lat="50.939336" lon="5.199863"><ele>30.11</ele><time>2025-05-26T08:38:54Z</time></trkpt>
<trkpt lat="50.939422" lon="5.199797"><ele>30.19</ele><time>2025-05-26T08:38:57Z</time></trkpt>
<trkpt lat="50.939512" lon="5.19976"><ele>29.89</ele><time>2025-05-26T08:39:01Z</time></trkpt>
<trkpt lat="50.939732" lon="5.199766"><ele>29.12</ele><time>2025-05-26T08:39:04Z</time></trkpt>
<trkpt lat="50.940219" lon="5.199844"><ele>28.88</ele><time>2025-05-26T08:39:07Z</time></trkpt>
<trkpt lat="50.940428" lon="5.199789"><ele>29.41</ele><time>2025-05-26T08:39:11Z</time></trkpt>
<trkpt lat="50.942093" lon="5.199026"><ele>28.0</ele><time>2025-05-26T08:39:14Z</time></trkpt>
<trkpt lat="50.942218" lon="5.198902"><ele>28.0</ele><time>2025-05-26T08:39:17Z</time></trkpt>
<trkpt lat="50.94235" lon="5.198672"><ele>28.0</ele><time>2025-05-26T08:39:21Z</time></trkpt>
<trkpt lat="50.942736" lon="5.197647"><ele>28.4</ele><time>2025-05-26T08:39:24Z</time></trkpt>
<trkpt lat="50.94288" lon="5.197363"><ele>29.0</ele><time>2025-05-26T08:39:28Z</time></trkpt>
<trkpt lat="50.943368" lon="5.196732"><ele>29.0</ele><time>2025-05-26T08:39:31Z</time></trkpt>
<trkpt lat="50.943757" lon="5.196266"><ele>29.68</ele><time>2025-05-26T08:39:34Z</time></trkpt>
<trkpt lat="50.943883" lon="5.196161"><ele>29.04</ele><time>2025-05-26T08:39:38Z</time></trkpt>
<trkpt lat="50.946119" lon="5.197113"><ele>30.61</ele><time>2025-05-26T08:39:49Z</time></trkpt>
<trkpt lat="50.946232" lon="5.197162"><ele>30.78</ele><time>2025-05-26T08:40:01Z</time></trkpt>
<trkpt lat="50.947964" lon="5.197863"><ele>29.31</ele><time>2025-05-26T08:40:12Z</time></trkpt>
<trkpt lat="50.948181" lon="5.197876"><ele>29.35</ele><time>2025-05-26T08:40:24Z</time></trkpt>
<trkpt lat="50.94845" lon="5.197847"><ele>29.67</ele><time>2025-05-26T08:40:36Z</time></trkpt>
<trkpt lat="50.94865" lon="5.197798"><ele>29.93</ele><time>2025-05-26T08:40:47Z</time></trkpt>
<trkpt lat="50.948884" lon="5.197671"><ele>29.01</ele><time>2025-05-26T08:40:59Z</time></trkpt>
<trkpt lat="50.951655" lon="5.195853"><ele>28.04</ele><time>2025-05-26T08:41:10Z</time></trkpt>
<trkpt lat="50.952462" lon="5.195372"><ele>26.34</ele><time>2025-05-26T08:41:22Z</time></trkpt>
<trkpt lat="50.954267" lon="5.194369"><ele>28.17</ele><time>2025-05-26T08:41:34Z</time></trkpt>
<trkpt lat="50.954595" lon="5.194221"><ele>28.11</ele><time>2025-05-26T08:41:45Z</time></trkpt>
<trkpt lat="50.954898" lon="5.194133"><ele>28.63</ele><time>2025-05-26T08:41:57Z</time></trkpt>
<trkpt lat="50.955661" lon="5.194025"><ele>29.62</ele><time>2025-05-26T08:42:08Z</time></trkpt>
<trkpt lat="50.955968" lon="5.193954"><ele>29.0</ele><time>2025-05-26T08:42:20Z</time></trkpt>
<trkpt lat="50.956308" lon="5.193806"><ele>29.0</ele><time>2025-05-26T08:42:32Z</time></trkpt>
<trkpt lat="50.956542" lon="5.193653"><ele>28.45</ele><time>2025-05-26T08:42:43Z</time></trkpt>
<trkpt lat="50.958001" lon="5.192498"><ele>29.2</ele><time>2025-05-26T08:42:55Z</time></trkpt>
<trkpt lat="50.958378" lon="5.192166"><ele>27.58</ele><time>2025-05-26T08:43:06Z</time></trkpt>
<trkpt lat="50.958841" lon="5.191705"><ele>27.98</ele><time>2025-05-26T08:43:18Z</time></trkpt>
<trkpt lat="50.959094" lon="5.191426"><ele>28.64</ele><time>2025-05-26T08:43:30Z</time></trkpt>
<trkpt lat="50.959913" lon="5.190432"><ele>27.07</ele><time>2025-05-26T08:43:41Z</time></trkpt>
<trkpt lat="50.960455" lon="5.18955"><ele>26.76</ele><time>2025-05-26T08:43:53Z</time></trkpt>
<trkpt lat="50.961559" lon="5.187549"><ele>23.57</ele><time>2025-05-26T08:44:04Z</time></trkpt>
<trkpt lat="50.962368" lon="5.186581"><ele>25.47</ele><time>2025-05-26T08:44:16Z</time></trkpt>
<trkpt lat="50.962541" lon="5.186324"><ele>24.85</ele><time>2025-05-26T08:44:28Z</time></trkpt>
<trkpt lat="50.962603" lon="5.186302"><ele>24.63</ele><time>2025-05-26T08:44:35Z</time></trkpt>
<trkpt lat="50.962642" lon="5.186222"><ele>24.49</ele><time>2025-05-26T08:44:42Z</time></trkpt>
<trkpt lat="50.962646" lon="5.186171"><ele>24.47</ele><time>2025-05-26T08:44:49Z</time></trkpt>
<trkpt lat="50.962768" lon="5.185941"><ele>24.03</ele><time>2025-05-26T08:44:56Z</time></trkpt>
<trkpt lat="50.963074" lon="5.185599"><ele>24.0</ele><time>2025-05-26T08:45:03Z</time></trkpt>
<trkpt lat="50.96325" lon="5.185439"><ele>23.58</ele><time>2025-05-26T08:45:11Z</time></trkpt>
<trkpt lat="50.96419" lon="5.184735"><ele>21.87</ele><time>2025-05-26T08:45:18Z</time></trkpt>
<trkpt lat="50.964853" lon="5.184304"><ele>20.98</ele><time>2025-05-26T08:45:25Z</time></trkpt>
<trkpt lat="50.96503" lon="5.184243"><ele>21.91</ele><time>2025-05-26T08:45:32Z</time></trkpt>
<trkpt lat="50.965959" lon="5.184241"><ele>23.73</ele><time>2025-05-26T08:45:39Z</time></trkpt>
<trkpt lat="50.967451" lon="5.184481"><ele>22.98</ele><time>2025-05-26T08:45:46Z</time></trkpt>
<trkpt lat="50.96776" lon="5.184575"><ele>23.0</ele><time>2025-05-26T08:45:54Z</time></trkpt>
<trkpt lat="50.968398" lon="5.184996"><ele>23.77</ele><time>2025-05-26T08:46:01Z</time></trkpt>
<trkpt lat="50.968562" lon="5.185081"><ele>23.12</ele><time>2025-05-26T08:46:08Z</time></trkpt>
<trkpt lat="50.968921" lon="5.185194"><ele>19.85</ele><time>2025-05-26T08:46:15Z</time></trkpt>
<trkpt lat="50.969254" lon="5.18523"><ele>18.88</ele><time>2025-05-26T08:46:22Z</time></trkpt>
<trkpt lat="50.969442" lon="5.185225"><ele>19.0</ele><time>2025-05-26T08:46:29Z</time></trkpt>
<trkpt lat="50.970326" lon="5.185056"><ele>24.07</ele><time>2025-05-26T08:46:36Z</time></trkpt>
<trkpt lat="50.970751" lon="5.185047"><ele>24.34</ele><time>2025-05-26T08:46:44Z</time></trkpt>
<trkpt lat="50.971196" lon="5.185094"><ele>22.93</ele><time>2025-05-26T08:46:51Z</time></trkpt>
<trkpt lat="50.971418" lon="5.185182"><ele>21.89</ele><time>2025-05-26T08:46:58Z</time></trkpt>
<trkpt lat="50.971612" lon="5.185301"><ele>21.21</ele><time>2025-05-26T08:47:05Z</time></trkpt>
<trkpt lat="50.972177" lon="5.185773"><ele>19.03</ele><time>2025-05-26T08:47:12Z</time></trkpt>
<trkpt lat="50.972422" lon="5.185936"><ele>18.9</ele><time>2025-05-26T08:47:19Z</time></trkpt>
<trkpt lat="50.983297" lon="5.191526"><ele>25.64</ele><time>2025-05-26T08:47:26Z</time></trkpt>
<trkpt lat="50.983689" lon="5.191904"><ele>26.28</ele><time>2025-05-26T08:47:34Z</time></trkpt>
<trkpt lat="50.983728" lon="5.191986"><ele>26.42</ele><time>2025-05-26T08:47:41Z</time></trkpt>
<trkpt lat="50.983743" lon="5.192084"><ele>26.47</ele><time>2025-05-26T08:47:44Z</time></trkpt>
<trkpt lat="50.983807" lon="5.192183"><ele>26.71</ele><time>2025-05-26T08:47:47Z</time></trkpt>
<trkpt lat="50.98384" lon="5.192263"><ele>26.82</ele><time>2025-05-26T08:47:51Z</time></trkpt>
<trkpt lat="50.983918" lon="5.192875"><ele>26.1</ele><time>2025-05-26T08:47:54Z</time></trkpt>
<trkpt lat="50.983967" lon="5.193089"><ele>26.4</ele><time>2025-05-26T08:47:57Z</time></trkpt>
<trkpt lat="50.984123" lon="5.194013"><ele>28.84</ele><time>2025-05-26T08:48:01Z</time></trkpt>
<trkpt lat="50.984227" lon="5.194407"><ele>28.32</ele><time>2025-05-26T08:48:04Z</time></trkpt>
<trkpt lat="50.984427" lon="5.195032"><ele>27.94</ele><time>2025-05-26T08:48:07Z</time></trkpt>
<trkpt lat="50.984827" lon="5.195928"><ele>27.0</ele><time>2025-05-26T08:48:11Z</time></trkpt>
<trkpt lat="50.985171" lon="5.196495"><ele>28.61</ele><time>2025-05-26T08:48:14Z</time></trkpt>
<trkpt lat="50.985418" lon="5.196775"><ele>30.0</ele><time>2025-05-26T08:48:17Z</time></trkpt>
<trkpt lat="50.986025" lon="5.197758"><ele>30.35</ele><time>2025-05-26T08:48:21Z</time></trkpt>
<trkpt lat="50.986263" lon="5.198055"><ele>31.0</ele><time>2025-05-26T08:48:24Z</time></trkpt>
<trkpt lat="50.98654" lon="5.198287"><ele>30.74</ele><time>2025-05-26T08:48:27Z</time></trkpt>
<trkpt lat="50.986805" lon="5.198428"><ele>29.5</ele><time>2025-05-26T08:48:31Z</time></trkpt>
<trkpt lat="50.987033" lon="5.198489"><ele>29.0</ele><time>2025-05-26T08:48:34Z</time></trkpt>
<trkpt lat="50.987305" lon="5.198519"><ele>29.3</ele><time>2025-05-26T08:48:37Z</time></trkpt>
<trkpt lat="50.98761" lon="5.198572"><ele>30.79</ele><time>2025-05-26T08:48:41Z</time></trkpt>
<trkpt lat="50.987996" lon="5.198535"><ele>32.79</ele><time>2025-05-26T08:48:44Z</time></trkpt>
<trkpt lat="50.988214" lon="5.198463"><ele>33.26</ele><time>2025-05-26T08:48:47Z</time></trkpt>
<trkpt lat="50.988314" lon="5.198463"><ele>33.43</ele><time>2025-05-26T08:48:51Z</time></trkpt>
<trkpt lat="50.988352" lon="5.198499"><ele>33.69</ele><time>2025-05-26T08:48:56Z</time></trkpt>
<trkpt lat="50.988417" lon="5.1985"><ele>34.02</ele><time>2025-05-26T08:49:02Z</time></trkpt>
<trkpt lat="50.988453" lon="5.198463"><ele>34.13</ele><time>2025-05-26T08:49:08Z</time></trkpt>
<trkpt lat="50.988475" lon="5.19839"><ele>34.12</ele><time>2025-05-26T08:49:14Z</time></trkpt>
<trkpt lat="50.991913" lon="5.197592"><ele>52.0</ele><time>2025-05-26T08:49:19Z</time></trkpt>
<trkpt lat="50.992419" lon="5.197527"><ele>51.29</ele><time>2025-05-26T08:49:25Z</time></trkpt>
<trkpt lat="50.992619" lon="5.19752"><ele>50.6</ele><time>2025-05-26T08:49:31Z</time></trkpt>
<trkpt lat="50.992699" lon="5.197542"><ele>50.39</ele><time>2025-05-26T08:49:36Z</time></trkpt>
<trkpt lat="50.992753" lon="5.197624"><ele>50.49</ele><time>2025-05-26T08:49:44Z</time></trkpt>
<trkpt lat="50.992789" lon="5.197644"><ele>50.56</ele><time>2025-05-26T08:49:51Z</time></trkpt>
<trkpt lat="50.992883" lon="5.197619"><ele>50.81</ele><time>2025-05-26T08:49:58Z</time></trkpt>
<trkpt lat="50.992927" lon="5.197555"><ele>50.73</ele><time>2025-05-26T08:50:06Z</time></trkpt>
<trkpt lat="50.992952" lon="5.197476"><ele>50.63</ele><time>2025-05-26T08:50:13Z</time></trkpt>
<trkpt lat="50.993169" lon="5.197354"><ele>52.01</ele><time>2025-05-26T08:50:20Z</time></trkpt>
<trkpt lat="50.993562" lon="5.197295"><ele>53.47</ele><time>2025-05-26T08:50:27Z</time></trkpt>
<trkpt lat="50.993991" lon="5.197285"><ele>53.14</ele><time>2025-05-26T08:50:35Z</time></trkpt>
<trkpt lat="50.994277" lon="5.197311"><ele>53.79</ele><time>2025-05-26T08:50:42Z</time></trkpt>
<trkpt lat="50.994622" lon="5.197388"><ele>54.62</ele><time>2025-05-26T08:50:49Z</time></trkpt>
<trkpt lat="50.994961" lon="5.197503"><ele>53.12</ele><time>2025-05-26T08:50:56Z</time></trkpt>
<trkpt lat="50.996966" lon="5.198501"><ele>49.08</ele><time>2025-05-26T08:51:04Z</time></trkpt>
<trkpt lat="50.99744" lon="5.198823"><ele>49.81</ele><time>2025-05-26T08:51:11Z</time></trkpt>
<trkpt lat="50.997649" lon="5.198876"><ele>48.88</ele><time>2025-05-26T08:51:18Z</time></trkpt>
<trkpt lat="50.997754" lon="5.19886"><ele>48.07</ele><time>2025-05-26T08:51:26Z</time></trkpt>
<trkpt lat="50.999918" lon="5.199965"><ele>39.68</ele><time>2025-05-26T08:51:33Z</time></trkpt>
<trkpt lat="51.000397" lon="5.200094"><ele>39.57</ele><time>2025-05-26T08:51:40Z</time></trkpt>
<trkpt lat="51.001067" lon="5.200203"><ele>37.16</ele><time>2025-05-26T08:51:47Z</time></trkpt>
<trkpt lat="51.002294" lon="5.200452"><ele>32.28</ele><time>2025-05-26T08:51:55Z</time></trkpt>
<trkpt lat="51.002518" lon="5.200543"><ele>31.93</ele><time>2025-05-26T08:52:02Z</time></trkpt>
<trkpt lat="51.002967" lon="5.200808"><ele>29.64</ele><time>2025-05-26T08:52:09Z</time></trkpt>
<trkpt lat="51.003169" lon="5.201022"><ele>29.68</ele><time>2025-05-26T08:52:17Z</time></trkpt>
<trkpt lat="51.003363" lon="5.20112"><ele>30.1</ele><time>2025-05-26T08:52:24Z</time></trkpt>
<trkpt lat="51.00363" lon="5.201219"><ele>30.93</ele><time>2025-05-26T08:52:31Z</time></trkpt>
<trkpt lat="51.004083" lon="5.20146"><ele>30.7</ele><time>2025-05-26T08:52:38Z</time></trkpt>
<trkpt lat="51.005946" lon="5.202598"><ele>32.09</ele><time>2025-05-26T08:52:46Z</time></trkpt>
<trkpt lat="51.006142" lon="5.202777"><ele>32.88</ele><time>2025-05-26T08:52:53Z</time></trkpt>
<trkpt lat="51.006297" lon="5.202832"><ele>32.33</ele><time>2025-05-26T08:53:00Z</time></trkpt>
<trkpt lat="51.006529" lon="5.202865"><ele>32.0</ele><time>2025-05-26T08:53:07Z</time></trkpt>
<trkpt lat="51.006756" lon="5.202833"><ele>31.68</ele><time>2025-05-26T08:53:15Z</time></trkpt>
<trkpt lat="51.007492" lon="5.202994"><ele>33.0</ele><time>2025-05-26T08:53:22Z</time></trkpt>
<trkpt lat="51.007885" lon="5.203041"><ele>30.61</ele><time>2025-05-26T08:53:29Z</time></trkpt>
<trkpt lat="51.008601" lon="5.203181"><ele>30.43</ele><time>2025-05-26T08:53:37Z</time></trkpt>
<trkpt lat="51.009664" lon="5.203116"><ele>31.21</ele><time>2025-05-26T08:53:44Z</time></trkpt>
<trkpt lat="51.010166" lon="5.20314"><ele>30.31</ele><time>2025-05-26T08:53:51Z</time></trkpt>
<trkpt lat="51.010417" lon="5.203264"><ele>30.25</ele><time>2025-05-26T08:53:58Z</time></trkpt>
<trkpt lat="51.01091" lon="5.203284"><ele>29.55</ele><time>2025-05-26T08:54:06Z</time></trkpt>
<trkpt lat="51.011425" lon="5.203313"><ele>29.07</ele><time>2025-05-26T08:54:13Z</time></trkpt>
<trkpt lat="51.012871" lon="5.203508"><ele>27.33</ele><time>2025-05-26T08:54:20Z</time></trkpt>
<trkpt lat="51.013738" lon="5.203572"><ele>26.0</ele><time>2025-05-26T08:54:28Z</time></trkpt>
<trkpt lat="51.013899" lon="5.20358"><ele>26.03</ele><time>2025-05-26T08:54:35Z</time></trkpt>
<trkpt lat="51.014008" lon="5.203556"><ele>26.34</ele><time>2025-05-26T08:54:42Z</time></trkpt>
<trkpt lat="51.014372" lon="5.203408"><ele>26.81</ele><time>2025-05-26T08:54:49Z</time></trkpt>
<trkpt lat="51.01459" lon="5.203456"><ele>27.0</ele><time>2025-05-26T08:54:57Z</time></trkpt>
<trkpt lat="51.015515" lon="5.203554"><ele>27.0</ele><time>2025-05-26T08:55:04Z</time></trkpt>
<trkpt lat="51.017451" lon="5.204007"><ele>25.1</ele><time>2025-05-26T08:55:11Z</time></trkpt>
<trkpt lat="51.017725" lon="5.204128"><ele>25.0</ele><time>2025-05-26T08:55:18Z</time></trkpt>
<trkpt lat="51.017931" lon="5.204183"><ele>26.16</ele><time>2025-05-26T08:55:26Z</time></trkpt>
<trkpt lat="51.018208" lon="5.204182"><ele>27.57</ele><time>2025-05-26T08:55:33Z</time></trkpt>
<trkpt lat="51.018721" lon="5.204311"><ele>25.41</ele><time>2025-05-26T08:55:40Z</time></trkpt>
<trkpt lat="51.021691" lon="5.205015"><ele>31.09</ele><time>2025-05-26T08:55:48Z</time></trkpt>
<trkpt lat="51.021932" lon="5.205106"><ele>32.32</ele><time>2025-05-26T08:55:55Z</time></trkpt>
<trkpt lat="51.022187" lon="5.205261"><ele>32.12</ele><time>2025-05-26T08:56:02Z</time></trkpt>
<trkpt lat="51.023159" lon="5.206073"><ele>29.23</ele><time>2025-05-26T08:56:09Z</time></trkpt>
<trkpt lat="51.024832" lon="5.207496"><ele>26.01</ele><time>2025-05-26T08:56:17Z</time></trkpt>
<trkpt lat="51.025095" lon="5.207733"><ele>24.95</ele><time>2025-05-26T08:56:24Z</time></trkpt>
<trkpt lat="51.02532" lon="5.207848"><ele>26.46</ele><time>2025-05-26T08:56:31Z</time></trkpt>
<trkpt lat="51.025602" lon="5.207908"><ele>29.0</ele><time>2025-05-26T08:56:39Z</time></trkpt>
<trkpt lat="51.029846" lon="5.210126"><ele>30.55</ele><time>2025-05-26T08:56:46Z</time></trkpt>
<trkpt lat="51.030098" lon="5.210354"><ele>30.63</ele><time>2025-05-26T08:56:53Z</time></trkpt>
<trkpt lat="51.030763" lon="5.210691"><ele>33.25</ele><time>2025-05-26T08:57:00Z</time></trkpt>
<trkpt lat="51.030943" lon="5.210707"><ele>32.21</ele><time>2025-05-26T08:57:08Z</time></trkpt>
<trkpt lat="51.03122" lon="5.210842"><ele>31.03</ele><time>2025-05-26T08:57:15Z</time></trkpt>
<trkpt lat="51.034133" lon="5.212369"><ele>28.12</ele><time>2025-05-26T08:57:22Z</time></trkpt>
<trkpt lat="51.034382" lon="5.21256"><ele>27.78</ele><time>2025-05-26T08:57:29Z</time></trkpt>
<trkpt lat="51.034578" lon="5.212666"><ele>27.69</ele><time>2025-05-26T08:57:37Z</time></trkpt>
<trkpt lat="51.034828" lon="5.212729"><ele>28.0</ele><time>2025-05-26T08:57:44Z</time></trkpt>
<trkpt lat="51.03487" lon="5.21275"><ele>28.0</ele><time>2025-05-26T08:57:51Z</time></trkpt>
<trkpt lat="51.040874" lon="5.215879"><ele>32.02</ele><time>2025-05-26T08:57:59Z</time></trkpt>
<trkpt lat="51.041482" lon="5.216079"><ele>30.3</ele><time>2025-05-26T08:58:06Z</time></trkpt>
<trkpt lat="51.041687" lon="5.216079"><ele>31.11</ele><time>2025-05-26T08:58:13Z</time></trkpt>
<trkpt lat="51.041954" lon="5.216027"><ele>33.66</ele><time>2025-05-26T08:58:20Z</time></trkpt>
<trkpt lat="51.042116" lon="5.215949"><ele>32.8</ele><time>2025-05-26T08:58:28Z</time></trkpt>
<trkpt lat="51.042814" lon="5.21578"><ele>31.0</ele><time>2025-05-26T08:58:35Z</time></trkpt>
<trkpt lat="51.04304" lon="5.215761"><ele>31.0</ele><time>2025-05-26T08:58:42Z</time></trkpt>
<trkpt lat="51.043313" lon="5.215697"><ele>31.0</ele><time>2025-05-26T08:58:50Z</time></trkpt>
<trkpt lat="51.043522" lon="5.215608"><ele>31.68</ele><time>2025-05-26T08:58:57Z</time></trkpt>
<trkpt lat="51.04374" lon="5.215573"><ele>32.92</ele><time>2025-05-26T08:59:04Z</time></trkpt>
<trkpt lat="51.044062" lon="5.215622"><ele>34.62</ele><time>2025-05-26T08:59:11Z</time></trkpt>
<trkpt lat="51.044276" lon="5.215711"><ele>35.0</ele><time>2025-05-26T08:59:19Z</time></trkpt>
<trkpt lat="51.044621" lon="5.215948"><ele>34.85</ele><time>2025-05-26T08:59:26Z</time></trkpt>
<trkpt lat="51.04468" lon="5.216058"><ele>34.88</ele><time>2025-05-26T08:59:33Z</time></trkpt>
<trkpt lat="51.044618" lon="5.216406"><ele>34.63</ele><time>2025-05-26T08:59:36Z</time></trkpt>
<trkpt lat="51.044595" lon="5.21677"><ele>34.71</ele><time>2025-05-26T08:59:39Z</time></trkpt>
<trkpt lat="51.044555" lon="5.217075"><ele>35.1</ele><time>2025-05-26T08:59:42Z</time></trkpt>
<trkpt lat="51.043634" lon="5.2208"><ele>29.95</ele><time>2025-05-26T08:59:45Z</time></trkpt>
<trkpt lat="51.0436" lon="5.220946"><ele>29.64</ele><time>2025-05-26T08:59:48Z</time></trkpt>
<trkpt lat="51.043514" lon="5.221179"><ele>29.35</ele><time>2025-05-26T08:59:50Z</time></trkpt>
<trkpt lat="51.043369" lon="5.2214"><ele>29.83</ele><time>2025-05-26T08:59:53Z</time></trkpt>
<trkpt lat="51.04322" lon="5.221541"><ele>29.86</ele><time>2025-05-26T08:59:56Z</time></trkpt>
<trkpt lat="51.042928" lon="5.221595"><ele>30.6</ele><time>2025-05-26T08:59:59Z</time></trkpt>
<trkpt lat="51.042853" lon="5.22159"><ele>30.8</ele><time>2025-05-26T09:00:02Z</time></trkpt>
<trkpt lat="51.042718" lon="5.221554"><ele>31.13</ele><time>2025-05-26T09:00:05Z</time></trkpt>
<trkpt lat="51.04259" lon="5.22149"><ele>31.25</ele><time>2025-05-26T09:00:08Z</time></trkpt>
<trkpt lat="51.042524" lon="5.221371"><ele>31.0</ele><time>2025-05-26T09:00:12Z</time></trkpt>
<trkpt lat="51.042496" lon="5.221213"><ele>31.0</ele><time>2025-05-26T09:00:16Z</time></trkpt>
<trkpt lat="51.042509" lon="5.221108"><ele>31.0</ele><time>2025-05-26T09:00:21Z</time></trkpt>
<trkpt lat="51.042537" lon="5.221031"><ele>31.04</ele><time>2025-05-26T09:00:25Z</time></trkpt>
<trkpt lat="51.042639" lon="5.220912"><ele>31.36</ele><time>2025-05-26T09:00:29Z</time></trkpt>
<trkpt lat="51.043682" lon="5.220186"><ele>30.75</ele><time>2025-05-26T09:00:34Z</time></trkpt>
<trkpt lat="51.044381" lon="5.219743"><ele>33.45</ele><time>2025-05-26T09:00:38Z</time></trkpt>
<trkpt lat="51.045192" lon="5.219226"><ele>31.28</ele><time>2025-05-26T09:00:43Z</time></trkpt>
<trkpt lat="51.045575" lon="5.219008"><ele>34.11</ele><time>2025-05-26T09:00:47Z</time></trkpt>
<trkpt lat="51.045848" lon="5.218883"><ele>35.93</ele><time>2025-05-26T09:00:51Z</time></trkpt>
<trkpt lat="51.046341" lon="5.218725"><ele>32.9</ele><time>2025-05-26T09:00:56Z</time></trkpt>
<trkpt lat="51.047069" lon="5.218624"><ele>33.55</ele><time>2025-05-26T09:01:00Z</time></trkpt>
<trkpt lat="51.047273" lon="5.218628"><ele>33.06</ele><time>2025-05-26T09:01:04Z</time></trkpt>
<trkpt lat="51.047823" lon="5.21871"><ele>34.19</ele><time>2025-05-26T09:01:09Z</time></trkpt>
<trkpt lat="51.048065" lon="5.218705"><ele>33.36</ele><time>2025-05-26T09:01:13Z</time></trkpt>
<trkpt lat="51.049591" lon="5.2182"><ele>34.24</ele><time>2025-05-26T09:01:17Z</time></trkpt>
<trkpt lat="51.050452" lon="5.218097"><ele>33.85</ele><time>2025-05-26T09:01:22Z</time></trkpt>
<trkpt lat="51.050464" lon="5.217927"><ele>34.15</ele><time>2025-05-26T09:01:29Z</time></trkpt>
<trkpt lat="51.050516" lon="5.217434"><ele>34.28</ele><time>2025-05-26T09:01:36Z</time></trkpt>
<trkpt lat="51.050591" lon="5.2171"><ele>33.1</ele><time>2025-05-26T09:01:43Z</time></trkpt>
<trkpt lat="51.050703" lon="5.216776"><ele>31.12</ele><time>2025-05-26T09:01:51Z</time></trkpt>
<trkpt lat="51.050944" lon="5.216294"><ele>28.66</ele><time>2025-05-26T09:01:58Z</time></trkpt>
<trkpt lat="51.053064" lon="5.213588"><ele>28.92</ele><time>2025-05-26T09:02:05Z</time></trkpt>
<trkpt lat="51.053442" lon="5.213127"><ele>25.77</ele><time>2025-05-26T09:02:12Z</time></trkpt>
<trkpt lat="51.05358" lon="5.212993"><ele>24.55</ele><time>2025-05-26T09:02:19Z</time></trkpt>
<trkpt lat="51.05394" lon="5.212752"><ele>27.07</ele><time>2025-05-26T09:02:26Z</time></trkpt>
<trkpt lat="51.054115" lon="5.212672"><ele>27.12</ele><time>2025-05-26T09:02:34Z</time></trkpt>
<trkpt lat="51.054475" lon="5.212557"><ele>27.38</ele><time>2025-05-26T09:02:41Z</time></trkpt>
<trkpt lat="51.054867" lon="5.212529"><ele>28.84</ele><time>2025-05-26T09:02:48Z</time></trkpt>
<trkpt lat="51.055548" lon="5.212554"><ele>31.71</ele><time>2025-05-26T09:02:55Z</time></trkpt>
<trkpt lat="51.05574" lon="5.212537"><ele>32.53</ele><time>2025-05-26T09:03:02Z</time></trkpt>
<trkpt lat="51.056347" lon="5.21236"><ele>32.65</ele><time>2025-05-26T09:03:10Z</time></trkpt>
<trkpt lat="51.058343" lon="5.211725"><ele>34.24</ele><time>2025-05-26T09:03:17Z</time></trkpt>
<trkpt lat="51.058784" lon="5.211581"><ele>36.12</ele><time>2025-05-26T09:03:24Z</time></trkpt>
<trkpt lat="51.059" lon="5.211465"><ele>37.45</ele><time>2025-05-26T09:03:31Z</time></trkpt>
<trkpt lat="51.059197" lon="5.21134"><ele>38.1</ele><time>2025-05-26T09:03:38Z</time></trkpt>
<trkpt lat="51.059413" lon="5.21116"><ele>36.41</ele><time>2025-05-26T09:03:46Z</time></trkpt>
<trkpt lat="51.05968" lon="5.210895"><ele>35.27</ele><time>2025-05-26T09:03:53Z</time></trkpt>
<trkpt lat="51.063556" lon="5.206479"><ele>34.14</ele><time>2025-05-26T09:04:00Z</time></trkpt>
<trkpt lat="51.065248" lon="5.204716"><ele>33.96</ele><time>2025-05-26T09:04:07Z</time></trkpt>
<trkpt lat="51.065443" lon="5.204607"><ele>32.22</ele><time>2025-05-26T09:04:14Z</time></trkpt>
<trkpt lat="51.065477" lon="5.204627"><ele>32.13</ele><time>2025-05-26T09:04:20Z</time></trkpt>
<trkpt lat="51.065537" lon="5.204623"><ele>31.75</ele><time>2025-05-26T09:04:26Z</time></trkpt>
<trkpt lat="51.0656" lon="5.204543"><ele>31.3</ele><time>2025-05-26T09:04:32Z</time></trkpt>
<trkpt lat="51.065614" lon="5.204493"><ele>31.14</ele><time>2025-05-26T09:04:37Z</time></trkpt>
<trkpt lat="51.065612" lon="5.204392"><ele>30.85</ele><time>2025-05-26T09:04:43Z</time></trkpt>
<trkpt lat="51.065971" lon="5.203957"><ele>31.5</ele><time>2025-05-26T09:04:49Z</time></trkpt>
<trkpt lat="51.06807" lon="5.201777"><ele>35.05</ele><time>2025-05-26T09:04:55Z</time></trkpt>
<trkpt lat="51.068362" lon="5.201404"><ele>36.73</ele><time>2025-05-26T09:05:00Z</time></trkpt>
<trkpt lat="51.06875" lon="5.200717"><ele>38.33</ele><time>2025-05-26T09:05:06Z</time></trkpt>
<trkpt lat="51.06933" lon="5.199596"><ele>38.37</ele><time>2025-05-26T09:05:12Z</time></trkpt>
<trkpt lat="51.069758" lon="5.199043"><ele>34.13</ele><time>2025-05-26T09:05:18Z</time></trkpt>
<trkpt lat="51.069896" lon="5.198935"><ele>34.63</ele><time>2025-05-26T09:05:23Z</time></trkpt>
<trkpt lat="51.074615" lon="5.195922"><ele>34.12</ele><time>2025-05-26T09:05:29Z</time></trkpt>
<trkpt lat="51.076696" lon="5.194348"><ele>30.35</ele><time>2025-05-26T09:05:35Z</time></trkpt>
<trkpt lat="51.076943" lon="5.194181"><ele>30.95</ele><time>2025-05-26T09:05:41Z</time></trkpt>
<trkpt lat="51.077127" lon="5.193905"><ele>31.32</ele><time>2025-05-26T09:05:46Z</time></trkpt>
<trkpt lat="51.077212" lon="5.193999"><ele>31.02</ele><time>2025-05-26T09:05:54Z</time></trkpt>
<trkpt lat="51.077392" lon="5.194063"><ele>30.39</ele><time>2025-05-26T09:06:02Z</time></trkpt>
<trkpt lat="51.078302" lon="5.193869"><ele>28.9</ele><time>2025-05-26T09:06:10Z</time></trkpt>
<trkpt lat="51.078569" lon="5.193776"><ele>28.15</ele><time>2025-05-26T09:06:18Z</time></trkpt>
<trkpt lat="51.078829" lon="5.193602"><ele>28.0</ele><time>2025-05-26T09:06:26Z</time></trkpt>
<trkpt lat="51.079067" lon="5.193377"><ele>28.54</ele><time>2025-05-26T09:06:34Z</time></trkpt>
<trkpt lat="51.080378" lon="5.191684"><ele>29.64</ele><time>2025-05-26T09:06:42Z</time></trkpt>
<trkpt lat="51.081404" lon="5.190056"><ele>33.08</ele><time>2025-05-26T09:06:49Z</time></trkpt>
<trkpt lat="51.081811" lon="5.189356"><ele>35.04</ele><time>2025-05-26T09:06:57Z</time></trkpt>
<trkpt lat="51.08442" lon="5.185115"><ele>34.76</ele><time>2025-05-26T09:07:05Z</time></trkpt>
<trkpt lat="51.084612" lon="5.184833"><ele>33.19</ele><time>2025-05-26T09:07:13Z</time></trkpt>
<trkpt lat="51.084735" lon="5.184691"><ele>31.91</ele><time>2025-05-26T09:07:21Z</time></trkpt>
<trkpt lat="51.084959" lon="5.184518"><ele>30.29</ele><time>2025-05-26T09:07:29Z</time></trkpt>
<trkpt lat="51.085893" lon="5.183978"><ele>30.22</ele><time>2025-05-26T09:07:37Z</time></trkpt>
<trkpt lat="51.08728" lon="5.183159"><ele>29.08</ele><time>2025-05-26T09:07:45Z</time></trkpt>
<trkpt lat="51.08748" lon="5.183081"><ele>28.08</ele><time>2025-05-26T09:07:53Z</time></trkpt>
<trkpt lat="51.087778" lon="5.183051"><ele>29.0</ele><time>2025-05-26T09:08:00Z</time></trkpt>
<trkpt lat="51.087978" lon="5.183082"><ele>29.69</ele><time>2025-05-26T09:08:08Z</time></trkpt>
<trkpt lat="51.088247" lon="5.183231"><ele>30.69</ele><time>2025-05-26T09:08:16Z</time></trkpt>
<trkpt lat="51.089847" lon="5.184403"><ele>33.4</ele><time>2025-05-26T09:08:24Z</time></trkpt>
<trkpt lat="51.090155" lon="5.184583"><ele>33.0</ele><time>2025-05-26T09:08:32Z</time></trkpt>
<trkpt lat="51.090356" lon="5.18465"><ele>33.56</ele><time>2025-05-26T09:08:40Z</time></trkpt>
<trkpt lat="51.090526" lon="5.18467"><ele>34.79</ele><time>2025-05-26T09:08:48Z</time></trkpt>
<trkpt lat="51.091923" lon="5.184589"><ele>35.75</ele><time>2025-05-26T09:08:56Z</time></trkpt>
<trkpt lat="51.092197" lon="5.184494"><ele>32.35</ele><time>2025-05-26T09:09:03Z</time></trkpt>
<trkpt lat="51.092417" lon="5.184346"><ele>32.35</ele><time>2025-05-26T09:09:11Z</time></trkpt>
<trkpt lat="51.094988" lon="5.182131"><ele>36.28</ele><time>2025-05-26T09:09:19Z</time></trkpt>
<trkpt lat="51.095165" lon="5.182015"><ele>37.34</ele><time>2025-05-26T09:09:27Z</time></trkpt>
<trkpt lat="51.095635" lon="5.181767"><ele>39.64</ele><time>2025-05-26T09:09:35Z</time></trkpt>
<trkpt lat="51.098704" lon="5.180398"><ele>40.43</ele><time>2025-05-26T09:09:43Z</time></trkpt>
<trkpt lat="51.099086" lon="5.180264"><ele>40.0</ele><time>2025-05-26T09:09:51Z</time></trkpt>
<trkpt lat="51.100806" lon="5.179919"><ele>40.07</ele><time>2025-05-26T09:09:59Z</time></trkpt>
<trkpt lat="51.101314" lon="5.179775"><ele>40.87</ele><time>2025-05-26T09:10:06Z</time></trkpt>
<trkpt lat="51.101482" lon="5.179689"><ele>41.33</ele><time>2025-05-26T09:10:14Z</time></trkpt>
<trkpt lat="51.101839" lon="5.179414"><ele>42.65</ele><time>2025-05-26T09:10:22Z</time></trkpt>
<trkpt lat="51.102237" lon="5.179011"><ele>43.95</ele><time>2025-05-26T09:10:30Z</time></trkpt>
<trkpt lat="51.103062" lon="5.178151"><ele>41.32</ele><time>2025-05-26T09:10:38Z</time></trkpt>
<trkpt lat="51.103347" lon="5.177809"><ele>40.0</ele><time>2025-05-26T09:10:46Z</time></trkpt>
<trkpt lat="51.103684" lon="5.177335"><ele>40.0</ele><time>2025-05-26T09:10:54Z</time></trkpt>
<trkpt lat="51.103907" lon="5.177104"><ele>40.0</ele><time>2025-05-26T09:11:02Z</time></trkpt>
<trkpt lat="51.104024" lon="5.177075"><ele>40.0</ele><time>2025-05-26T09:11:10Z</time></trkpt>
<trkpt lat="51.104163" lon="5.17696"><ele>40.0</ele><time>2025-05-26T09:11:17Z</time></trkpt>
<trkpt lat="51.104253" lon="5.176834"><ele>40.0</ele><time>2025-05-26T09:11:25Z</time></trkpt>
<trkpt lat="51.104371" lon="5.176595"><ele>40.19</ele><time>2025-05-26T09:11:33Z</time></trkpt>
<trkpt lat="51.107898" lon="5.172724"><ele>39.65</ele><time>2025-05-26T09:11:41Z</time></trkpt>
<trkpt lat="51.110064" lon="5.170378"><ele>40.0</ele><time>2025-05-26T09:11:49Z</time></trkpt>
<trkpt lat="51.110372" lon="5.170962"><ele>40.8</ele><time>2025-05-26T09:11:55Z</time></trkpt>
<trkpt lat="51.110413" lon="5.171095"><ele>41.43</ele><time>2025-05-26T09:12:01Z</time></trkpt>
<trkpt lat="51.110503" lon="5.171502"><ele>43.48</ele><time>2025-05-26T09:12:06Z</time></trkpt>
<trkpt lat="51.11071" lon="5.172837"><ele>41.23</ele><time>2025-05-26T09:12:12Z</time></trkpt>
<trkpt lat="51.110722" lon="5.172996"><ele>40.62</ele><time>2025-05-26T09:12:18Z</time></trkpt>
<trkpt lat="51.110703" lon="5.173236"><ele>39.82</ele><time>2025-05-26T09:12:24Z</time></trkpt>
<trkpt lat="51.110519" lon="5.17379"><ele>38.49</ele><time>2025-05-26T09:12:30Z</time></trkpt>
<trkpt lat="51.110481" lon="5.174064"><ele>38.26</ele><time>2025-05-26T09:12:36Z</time></trkpt>
<trkpt lat="51.110476" lon="5.17419"><ele>38.26</ele><time>2025-05-26T09:12:41Z</time></trkpt>
<trkpt lat="51.110493" lon="5.174416"><ele>38.02</ele><time>2025-05-26T09:12:47Z</time></trkpt>
<trkpt lat="51.110525" lon="5.174641"><ele>38.0</ele><time>2025-05-26T09:12:53Z</time></trkpt>
<trkpt lat="51.110574" lon="5.174837"><ele>37.96</ele><time>2025-05-26T09:12:59Z</time></trkpt>
<trkpt lat="51.11052" lon="5.174926"><ele>38.0</ele><time>2025-05-26T09:13:04Z</time></trkpt>
<trkpt lat="51.110511" lon="5.175009"><ele>38.03</ele><time>2025-05-26T09:13:10Z</time></trkpt>
<trkpt lat="51.110528" lon="5.175089"><ele>38.29</ele><time>2025-05-26T09:13:16Z</time></trkpt>
<trkpt lat="51.110593" lon="5.175163"><ele>38.58</ele><time>2025-05-26T09:13:22Z</time></trkpt>
<trkpt lat="51.110647" lon="5.175162"><ele>38.58</ele><time>2025-05-26T09:13:27Z</time></trkpt>
<trkpt lat="51.110694" lon="5.17512"><ele>38.43</ele><time>2025-05-26T09:13:33Z</time></trkpt>
<trkpt lat="51.110728" lon="5.175005"><ele>38.02</ele><time>2025-05-26T09:13:39Z</time></trkpt>
<trkpt lat="51.110726" lon="5.174961"><ele>37.91</ele><time>2025-05-26T09:13:44Z</time></trkpt>
<trkpt lat="51.110945" lon="5.174969"><ele>37.89</ele><time>2025-05-26T09:13:50Z</time></trkpt>
<trkpt lat="51.111043" lon="5.175004"><ele>38.01</ele><time>2025-05-26T09:13:56Z</time></trkpt>
<trkpt lat="51.111152" lon="5.175083"><ele>38.25</ele><time>2025-05-26T09:14:01Z</time></trkpt>
<trkpt lat="51.111253" lon="5.175213"><ele>38.38</ele><time>2025-05-26T09:14:07Z</time></trkpt>
<trkpt lat="51.11131" lon="5.175326"><ele>38.46</ele><time>2025-05-26T09:14:13Z</time></trkpt>
<trkpt lat="51.111426" lon="5.175649"><ele>38.87</ele><time>2025-05-26T09:14:18Z</time></trkpt>
<trkpt lat="51.111521" lon="5.176017"><ele>37.86</ele><time>2025-05-26T09:14:24Z</time></trkpt>
<trkpt lat="51.111603" lon="5.176577"><ele>37.75</ele><time>2025-05-26T09:14:30Z</time></trkpt>
<trkpt lat="51.111708" lon="5.1776"><ele>38.64</ele><time>2025-05-26T09:14:36Z</time></trkpt>
<trkpt lat="51.111784" lon="5.177899"><ele>38.0</ele><time>2025-05-26T09:14:41Z</time></trkpt>
<trkpt lat="51.111876" lon="5.178124"><ele>38.0</ele><time>2025-05-26T09:14:47Z</time></trkpt>
<trkpt lat="51.111967" lon="5.178281"><ele>38.0</ele><time>2025-05-26T09:14:53Z</time></trkpt>
<trkpt lat="51.112361" lon="5.17884"><ele>38.91</ele><time>2025-05-26T09:14:58Z</time></trkpt>
<trkpt lat="51.112495" lon="5.178974"><ele>39.31</ele><time>2025-05-26T09:15:04Z</time></trkpt>
<trkpt lat="51.112599" lon="5.179043"><ele>39.72</ele><time>2025-05-26T09:15:10Z</time></trkpt>
<trkpt lat="51.112756" lon="5.179106"><ele>39.98</ele><time>2025-05-26T09:15:15Z</time></trkpt>
<trkpt lat="51.11292" lon="5.179132"><ele>40.0</ele><time>2025-05-26T09:15:21Z</time></trkpt>
<trkpt lat="51.113053" lon="5.179107"><ele>40.0</ele><time>2025-05-26T09:15:27Z</time></trkpt>
<trkpt lat="51.114643" lon="5.178573"><ele>34.15</ele><time>2025-05-26T09:15:32Z</time></trkpt>
<trkpt lat="51.114815" lon="5.178546"><ele>34.1</ele><time>2025-05-26T09:15:38Z</time></trkpt>
<trkpt lat="51.115162" lon="5.178556"><ele>34.92</ele><time>2025-05-26T09:15:44Z</time></trkpt>
<trkpt lat="51.118286" lon="5.179481"><ele>33.83</ele><time>2025-05-26T09:15:50Z</time></trkpt>
<trkpt lat="51.118517" lon="5.179507"><ele>34.0</ele><time>2025-05-26T09:15:55Z</time></trkpt>
<trkpt lat="51.119709" lon="5.179674"><ele>34.01</ele><time>2025-05-26T09:16:01Z</time></trkpt>
<trkpt lat="51.120459" lon="5.179931"><ele>33.77</ele><time>2025-05-26T09:16:07Z</time></trkpt>
<trkpt lat="51.12057" lon="5.180094"><ele>33.0</ele><time>2025-05-26T09:16:12Z</time></trkpt>
<trkpt lat="51.121579" lon="5.182037"><ele>35.33</ele><time>2025-05-26T09:16:18Z</time></trkpt>
<trkpt lat="51.122076" lon="5.183134"><ele>36.53</ele><time>2025-05-26T09:16:24Z</time></trkpt>
<trkpt lat="51.122341" lon="5.183617"><ele>35.58</ele><time>2025-05-26T09:16:29Z</time></trkpt>
<trkpt lat="51.122601" lon="5.183965"><ele>34.63</ele><time>2025-05-26T09:16:35Z</time></trkpt>
<trkpt lat="51.122841" lon="5.184324"><ele>34.56</ele><time>2025-05-26T09:16:41Z</time></trkpt>
<trkpt lat="51.123023" lon="5.184656"><ele>35.0</ele><time>2025-05-26T09:16:46Z</time></trkpt>
<trkpt lat="51.123469" lon="5.185751"><ele>34.49</ele><time>2025-05-26T09:16:52Z</time></trkpt>
<trkpt lat="51.123583" lon="5.18617"><ele>35.21</ele><time>2025-05-26T09:16:58Z</time></trkpt>
<trkpt lat="51.123673" lon="5.187754"><ele>36.29</ele><time>2025-05-26T09:17:04Z</time></trkpt>
<trkpt lat="51.123777" lon="5.188306"><ele>35.1</ele><time>2025-05-26T09:17:09Z</time></trkpt>
<trkpt lat="51.123863" lon="5.188447"><ele>35.0</ele><time>2025-05-26T09:17:15Z</time></trkpt>
<trkpt lat="51.123847" lon="5.188598"><ele>35.0</ele><time>2025-05-26T09:17:20Z</time></trkpt>
<trkpt lat="51.123871" lon="5.189053"><ele>34.06</ele><time>2025-05-26T09:17:25Z</time></trkpt>
<trkpt lat="51.123816" lon="5.190167"><ele>36.0</ele><time>2025-05-26T09:17:31Z</time></trkpt>
<trkpt lat="51.123776" lon="5.190615"><ele>36.68</ele><time>2025-05-26T09:17:36Z</time></trkpt>
<trkpt lat="51.123838" lon="5.190658"><ele>36.88</ele><time>2025-05-26T09:17:46Z</time></trkpt>
<trkpt lat="51.124346" lon="5.191204"><ele>38.35</ele><time>2025-05-26T09:17:57Z</time></trkpt>
<trkpt lat="51.128366" lon="5.197471"><ele>38.1</ele><time>2025-05-26T09:18:07Z</time></trkpt>
<trkpt lat="51.134322" lon="5.201464"><ele>39.39</ele><time>2025-05-26T09:18:18Z</time></trkpt>
<trkpt lat="51.137047" lon="5.205063"><ele>37.26</ele><time>2025-05-26T09:18:28Z</time></trkpt>
<trkpt lat="51.13742" lon="5.205743"><ele>34.38</ele><time>2025-05-26T09:18:39Z</time></trkpt>
<trkpt lat="51.13747" lon="5.205799"><ele>34.12</ele><time>2025-05-26T09:18:49Z</time></trkpt>
<trkpt lat="51.137625" lon="5.205833"><ele>34.0</ele><time>2025-05-26T09:19:00Z</time></trkpt>
<trkpt lat="51.139577" lon="5.204638"><ele>35.51</ele><time>2025-05-26T09:19:10Z</time></trkpt>
<trkpt lat="51.139748" lon="5.204563"><ele>35.95</ele><time>2025-05-26T09:19:21Z</time></trkpt>
<trkpt lat="51.139839" lon="5.204576"><ele>36.37</ele><time>2025-05-26T09:19:32Z</time></trkpt>
<trkpt lat="51.140749" lon="5.204992"><ele>36.9</ele><time>2025-05-26T09:19:42Z</time></trkpt>
<trkpt lat="51.140836" lon="5.205077"><ele>36.54</ele><time>2025-05-26T09:19:53Z</time></trkpt>
<trkpt lat="51.141747" lon="5.206386"><ele>37.0</ele><time>2025-05-26T09:20:03Z</time></trkpt>
<trkpt lat="51.141993" lon="5.206663"><ele>36.83</ele><time>2025-05-26T09:20:14Z</time></trkpt>
<trkpt lat="51.142207" lon="5.206833"><ele>35.46</ele><time>2025-05-26T09:20:24Z</time></trkpt>
<trkpt lat="51.142333" lon="5.206924"><ele>35.07</ele><time>2025-05-26T09:20:35Z</time></trkpt>
<trkpt lat="51.142516" lon="5.206947"><ele>34.99</ele><time>2025-05-26T09:20:45Z</time></trkpt>
<trkpt lat="51.142778" lon="5.206907"><ele>35.13</ele><time>2025-05-26T09:20:56Z</time></trkpt>
<trkpt lat="51.142898" lon="5.206859"><ele>35.74</ele><time>2025-05-26T09:21:06Z</time></trkpt>
<trkpt lat="51.142975" lon="5.206759"><ele>36.38</ele><time>2025-05-26T09:21:17Z</time></trkpt>
<trkpt lat="51.143077" lon="5.206581"><ele>36.63</ele><time>2025-05-26T09:21:27Z</time></trkpt>
<trkpt lat="51.143177" lon="5.206532"><ele>36.29</ele><time>2025-05-26T09:21:38Z</time></trkpt>
<trkpt lat="51.145072" lon="5.206453"><ele>36.57</ele><time>2025-05-26T09:21:48Z</time></trkpt>
<trkpt lat="51.145147" lon="5.206412"><ele>36.43</ele><time>2025-05-26T09:21:59Z</time></trkpt>
<trkpt lat="51.145192" lon="5.206324"><ele>36.31</ele><time>2025-05-26T09:22:09Z</time></trkpt>
<trkpt lat="51.145208" lon="5.206248"><ele>36.25</ele><time>2025-05-26T09:22:20Z</time></trkpt>
<trkpt lat="51.145314" lon="5.206056"><ele>35.53</ele><time>2025-05-26T09:22:24Z</time></trkpt>
<trkpt lat="51.14634" lon="5.204908"><ele>33.16</ele><time>2025-05-26T09:22:29Z</time></trkpt>
<trkpt lat="51.147224" lon="5.203732"><ele>32.99</ele><time>2025-05-26T09:22:34Z</time></trkpt>
<trkpt lat="51.147311" lon="5.203579"><ele>32.68</ele><time>2025-05-26T09:22:39Z</time></trkpt>
<trkpt lat="51.147644" lon="5.20247"><ele>31.48</ele><time>2025-05-26T09:22:43Z</time></trkpt>
<trkpt lat="51.14774" lon="5.202298"><ele>31.14</ele><time>2025-05-26T09:22:48Z</time></trkpt>
<trkpt lat="51.148673" lon="5.201549"><ele>32.35</ele><time>2025-05-26T09:22:53Z</time></trkpt>
<trkpt lat="51.14876" lon="5.201461"><ele>31.72</ele><time>2025-05-26T09:22:58Z</time></trkpt>
<trkpt lat="51.148854" lon="5.201287"><ele>30.76</ele><time>2025-05-26T09:23:02Z</time></trkpt>
<trkpt lat="51.14931" lon="5.200139"><ele>31.49</ele><time>2025-05-26T09:23:07Z</time></trkpt>
<trkpt lat="51.149447" lon="5.199866"><ele>30.5</ele><time>2025-05-26T09:23:12Z</time></trkpt>
<trkpt lat="51.14951" lon="5.199816"><ele>29.86</ele><time>2025-05-26T09:23:17Z</time></trkpt>
<trkpt lat="51.149626" lon="5.199772"><ele>28.87</ele><time>2025-05-26T09:23:21Z</time></trkpt>
<trkpt lat="51.150057" lon="5.199664"><ele>29.41</ele><time>2025-05-26T09:23:26Z</time></trkpt>
<trkpt lat="51.150178" lon="5.199599"><ele>30.28</ele><time>2025-05-26T09:23:31Z</time></trkpt>
<trkpt lat="51.151037" lon="5.198932"><ele>30.0</ele><time>2025-05-26T09:23:36Z</time></trkpt>
<trkpt lat="51.152314" lon="5.198002"><ele>33.33</ele><time>2025-05-26T09:23:41Z</time></trkpt>
<trkpt lat="51.152793" lon="5.197742"><ele>31.1</ele><time>2025-05-26T09:23:45Z</time></trkpt>
<trkpt lat="51.152979" lon="5.197551"><ele>31.86</ele><time>2025-05-26T09:23:50Z</time></trkpt>
<trkpt lat="51.153121" lon="5.197266"><ele>32.0</ele><time>2025-05-26T09:23:55Z</time></trkpt>
<trkpt lat="51.153251" lon="5.196889"><ele>32.3</ele><time>2025-05-26T09:24:00Z</time></trkpt>
<trkpt lat="51.153305" lon="5.196786"><ele>32.1</ele><time>2025-05-26T09:24:04Z</time></trkpt>
<trkpt lat="51.153384" lon="5.196749"><ele>31.82</ele><time>2025-05-26T09:24:09Z</time></trkpt>
<trkpt lat="51.153455" lon="5.196792"><ele>31.56</ele><time>2025-05-26T09:24:14Z</time></trkpt>
<trkpt lat="51.153606" lon="5.196956"><ele>31.02</ele><time>2025-05-26T09:24:19Z</time></trkpt>
<trkpt lat="51.153957" lon="5.196956"><ele>29.77</ele><time>2025-05-26T09:24:23Z</time></trkpt>
<trkpt lat="51.154744" lon="5.197317"><ele>32.0</ele><time>2025-05-26T09:24:28Z</time></trkpt>
<trkpt lat="51.154892" lon="5.197315"><ele>32.0</ele><time>2025-05-26T09:24:33Z</time></trkpt>
<trkpt lat="51.155234" lon="5.197252"><ele>32.0</ele><time>2025-05-26T09:24:38Z</time></trkpt>
<trkpt lat="51.155915" lon="5.197328"><ele>31.29</ele><time>2025-05-26T09:24:42Z</time></trkpt>
<trkpt lat="51.156262" lon="5.197271"><ele>32.54</ele><time>2025-05-26T09:24:47Z</time></trkpt>
<trkpt lat="51.156328" lon="5.197288"><ele>32.78</ele><time>2025-05-26T09:24:52Z</time></trkpt>
<trkpt lat="51.156443" lon="5.197402"><ele>33.0</ele><time>2025-05-26T09:24:57Z</time></trkpt>
<trkpt lat="51.157725" lon="5.195013"><ele>32.0</ele><time>2025-05-26T09:25:17Z</time></trkpt>
<trkpt lat="51.158795" lon="5.192891"><ele>29.66</ele><time>2025-05-26T09:25:38Z</time></trkpt>
<trkpt lat="51.161593" lon="5.187313"><ele>33.0</ele><time>2025-05-26T09:25:58Z</time></trkpt>
<trkpt lat="51.162442" lon="5.185309"><ele>34.88</ele><time>2025-05-26T09:26:19Z</time></trkpt>
<trkpt lat="51.165335" lon="5.178605"><ele>34.8</ele><time>2025-05-26T09:26:39Z</time></trkpt>
<trkpt lat="51.16698" lon="5.174777"><ele>32.0</ele><time>2025-05-26T09:27:00Z</time></trkpt>
<trkpt lat="51.167384" lon="5.173904"><ele>32.58</ele><time>2025-05-26T09:27:20Z</time></trkpt>
<trkpt lat="51.168448" lon="5.171713"><ele>35.59</ele><time>2025-05-26T09:27:41Z</time></trkpt>
<trkpt lat="51.168886" lon="5.170768"><ele>34.0</ele><time>2025-05-26T09:28:01Z</time></trkpt>
<trkpt lat="51.170383" lon="5.167734"><ele>36.47</ele><time>2025-05-26T09:28:22Z</time></trkpt>
<trkpt lat="51.171081" lon="5.168174"><ele>36.42</ele><time>2025-05-26T09:28:31Z</time></trkpt>
<trkpt lat="51.171537" lon="5.168576"><ele>35.94</ele><time>2025-05-26T09:28:41Z</time></trkpt>
<trkpt lat="51.172682" lon="5.169668"><ele>33.65</ele><time>2025-05-26T09:28:51Z</time></trkpt>
<trkpt lat="51.172769" lon="5.169747"><ele>33.97</ele><time>2025-05-26T09:29:01Z</time></trkpt>
<trkpt lat="51.173431" lon="5.170364"><ele>32.69</ele><time>2025-05-26T09:29:10Z</time></trkpt>
<trkpt lat="51.176335" lon="5.172551"><ele>33.16</ele><time>2025-05-26T09:29:20Z</time></trkpt>
<trkpt lat="51.176544" lon="5.172779"><ele>33.0</ele><time>2025-05-26T09:29:30Z</time></trkpt>
<trkpt lat="51.176692" lon="5.173022"><ele>33.0</ele><time>2025-05-26T09:29:39Z</time></trkpt>
<trkpt lat="51.176823" lon="5.173298"><ele>32.13</ele><time>2025-05-26T09:29:49Z</time></trkpt>
<trkpt lat="51.177028" lon="5.173899"><ele>32.0</ele><time>2025-05-26T09:29:59Z</time></trkpt>
<trkpt lat="51.177161" lon="5.174403"><ele>32.19</ele><time>2025-05-26T09:30:08Z</time></trkpt>
<trkpt lat="51.177157" lon="5.174508"><ele>32.24</ele><time>2025-05-26T09:30:21Z</time></trkpt>
<trkpt lat="51.177194" lon="5.174594"><ele>32.1</ele><time>2025-05-26T09:30:34Z</time></trkpt>
<trkpt lat="51.177222" lon="5.174618"><ele>32.0</ele><time>2025-05-26T09:30:47Z</time></trkpt>
<trkpt lat="51.177285" lon="5.174619"><ele>32.0</ele><time>2025-05-26T09:31:00Z</time></trkpt>
<trkpt lat="51.177343" lon="5.174544"><ele>32.0</ele><time>2025-05-26T09:31:13Z</time></trkpt>
<trkpt lat="51.177461" lon="5.174529"><ele>32.0</ele><time>2025-05-26T09:31:26Z</time></trkpt>
<trkpt lat="51.177592" lon="5.174564"><ele>32.0</ele><time>2025-05-26T09:31:39Z</time></trkpt>
<trkpt lat="51.178724" lon="5.175332"><ele>33.73</ele><time>2025-05-26T09:31:52Z</time></trkpt>
<trkpt lat="51.179299" lon="5.175543"><ele>30.02</ele><time>2025-05-26T09:32:05Z</time></trkpt>
<trkpt lat="51.179788" lon="5.175628"><ele>31.76</ele><time>2025-05-26T09:32:18Z</time></trkpt>
<trkpt lat="51.18025" lon="5.175602"><ele>30.1</ele><time>2025-05-26T09:32:31Z</time></trkpt>
<trkpt lat="51.18051" lon="5.175583"><ele>31.67</ele><time>2025-05-26T09:32:44Z</time></trkpt>
<trkpt lat="51.181162" lon="5.175287"><ele>33.78</ele><time>2025-05-26T09:32:57Z</time></trkpt>
<trkpt lat="51.181345" lon="5.175253"><ele>33.23</ele><time>2025-05-26T09:33:10Z</time></trkpt>
<trkpt lat="51.181457" lon="5.175255"><ele>32.82</ele><time>2025-05-26T09:33:23Z</time></trkpt>
<trkpt lat="51.18199" lon="5.17535"><ele>30.09</ele><time>2025-05-26T09:33:36Z</time></trkpt>
<trkpt lat="51.188633" lon="5.176591"><ele>29.92</ele><time>2025-05-26T09:33:49Z</time></trkpt>
<trkpt lat="51.18894" lon="5.176699"><ele>29.0</ele><time>2025-05-26T09:34:02Z</time></trkpt>
<trkpt lat="51.189049" lon="5.176766"><ele>29.0</ele><time>2025-05-26T09:34:15Z</time></trkpt>
<trkpt lat="51.190911" lon="5.178062"><ele>33.27</ele><time>2025-05-26T09:34:28Z</time></trkpt>
<trkpt lat="51.196001" lon="5.181644"><ele>33.31</ele><time>2025-05-26T09:34:41Z</time></trkpt>
<trkpt lat="51.196282" lon="5.181786"><ele>33.24</ele><time>2025-05-26T09:34:54Z</time></trkpt>
<trkpt lat="51.200136" lon="5.18286"><ele>34.8</ele><time>2025-05-26T09:35:07Z</time></trkpt>
<trkpt lat="51.200344" lon="5.182876"><ele>34.27</ele><time>2025-05-26T09:35:20Z</time></trkpt>
<trkpt lat="51.200478" lon="5.182861"><ele>34.08</ele><time>2025-05-26T09:35:33Z</time></trkpt>
<trkpt lat="51.201941" lon="5.182632"><ele>31.99</ele><time>2025-05-26T09:35:46Z</time></trkpt>
<trkpt lat="51.204167" lon="5.182275"><ele>30.0</ele><time>2025-05-26T09:35:59Z</time></trkpt>
<trkpt lat="51.206049" lon="5.181995"><ele>29.64</ele><time>2025-05-26T09:36:12Z</time></trkpt>
<trkpt lat="51.21209" lon="5.182362"><ele>33.5</ele><time>2025-05-26T09:36:25Z</time></trkpt>
<trkpt lat="51.212583" lon="5.182397"><ele>32.0</ele><time>2025-05-26T09:36:38Z</time></trkpt>
<trkpt lat="51.229288" lon="5.184165"><ele>31.0</ele><time>2025-05-26T09:36:51Z</time></trkpt>
<trkpt lat="51.235669" lon="5.184454"><ele>30.84</ele><time>2025-05-26T09:37:04Z</time></trkpt>
<trkpt lat="51.236523" lon="5.184493"><ele>32.03</ele><time>2025-05-26T09:37:17Z</time></trkpt>
<trkpt lat="51.236884" lon="5.184507"><ele>32.56</ele><time>2025-05-26T09:37:30Z</time></trkpt>
<trkpt lat="51.237068" lon="5.184571"><ele>33.44</ele><time>2025-05-26T09:37:43Z</time></trkpt>
<trkpt lat="51.237196" lon="5.184663"><ele>33.9</ele><time>2025-05-26T09:37:56Z</time></trkpt>
<trkpt lat="51.237292" lon="5.184779"><ele>34.0</ele><time>2025-05-26T09:38:09Z</time></trkpt>
<trkpt lat="51.237434" lon="5.185147"><ele>35.4</ele><time>2025-05-26T09:38:22Z</time></trkpt>
<trkpt lat="51.237521" lon="5.185593"><ele>36.77</ele><time>2025-05-26T09:38:35Z</time></trkpt>
<trkpt lat="51.237684" lon="5.186479"><ele>37.33</ele><time>2025-05-26T09:38:47Z</time></trkpt>
<trkpt lat="51.237748" lon="5.186646"><ele>38.06</ele><time>2025-05-26T09:39:00Z</time></trkpt>
<trkpt lat="51.237825" lon="5.186691"><ele>37.33</ele><time>2025-05-26T09:39:13Z</time></trkpt>
<trkpt lat="51.238423" lon="5.186577"><ele>30.32</ele><time>2025-05-26T09:39:26Z</time></trkpt>
<trkpt lat="51.238804" lon="5.186513"><ele>31.94</ele><time>2025-05-26T09:39:39Z</time></trkpt>
<trkpt lat="51.23895" lon="5.186457"><ele>33.19</ele><time>2025-05-26T09:39:52Z</time></trkpt>
<trkpt lat="51.239171" lon="5.186366"><ele>35.0</ele><time>2025-05-26T09:40:05Z</time></trkpt>
<trkpt lat="51.239776" lon="5.186397"><ele>36.02</ele><time>2025-05-26T09:40:18Z</time></trkpt>
<trkpt lat="51.244662" lon="5.186707"><ele>32.93</ele><time>2025-05-26T09:40:31Z</time></trkpt>
<trkpt lat="51.24522" lon="5.186796"><ele>34.14</ele><time>2025-05-26T09:40:44Z</time></trkpt>
<trkpt lat="51.277537" lon="5.192341"><ele>45.92</ele><time>2025-05-26T09:40:57Z</time></trkpt>
<trkpt lat="51.277768" lon="5.192348"><ele>45.47</ele><time>2025-05-26T09:41:10Z</time></trkpt>
<trkpt lat="51.278096" lon="5.192294"><ele>43.48</ele><time>2025-05-26T09:41:23Z</time></trkpt>
<trkpt lat="51.278379" lon="5.192196"><ele>43.0</ele><time>2025-05-26T09:41:36Z</time></trkpt>
<trkpt lat="51.278669" lon="5.192027"><ele>42.73</ele><time>2025-05-26T09:41:49Z</time></trkpt>
<trkpt lat="51.27886" lon="5.191884"><ele>42.1</ele><time>2025-05-26T09:42:02Z</time></trkpt>
<trkpt lat="51.281442" lon="5.189387"><ele>41.5</ele><time>2025-05-26T09:42:15Z</time></trkpt>
<trkpt lat="51.281771" lon="5.189135"><ele>40.36</ele><time>2025-05-26T09:42:28Z</time></trkpt>
<trkpt lat="51.28197" lon="5.189028"><ele>39.55</ele><time>2025-05-26T09:42:41Z</time></trkpt>
<trkpt lat="51.282254" lon="5.188924"><ele>40.23</ele><time>2025-05-26T09:42:54Z</time></trkpt>
<trkpt lat="51.282471" lon="5.188878"><ele>41.83</ele><time>2025-05-26T09:43:07Z</time></trkpt>
<trkpt lat="51.282824" lon="5.188875"><ele>42.38</ele><time>2025-05-26T09:43:20Z</time></trkpt>
<trkpt lat="51.285189" lon="5.189329"><ele>43.58</ele><time>2025-05-26T09:43:33Z</time></trkpt>
<trkpt lat="51.286385" lon="5.189531"><ele>39.03</ele><time>2025-05-26T09:43:46Z</time></trkpt>
<trkpt lat="51.287251" lon="5.18968"><ele>37.95</ele><time>2025-05-26T09:43:59Z</time></trkpt>
<trkpt lat="51.287309" lon="5.189713"><ele>38.28</ele><time>2025-05-26T09:44:12Z</time></trkpt>
<trkpt lat="51.287374" lon="5.189798"><ele>38.94</ele><time>2025-05-26T09:44:25Z</time></trkpt>
<trkpt lat="51.287425" lon="5.189953"><ele>39.79</ele><time>2025-05-26T09:44:38Z</time></trkpt>
<trkpt lat="51.287433" lon="5.190098"><ele>40.0</ele><time>2025-05-26T09:44:51Z</time></trkpt>
<trkpt lat="51.287395" lon="5.192573"><ele>38.64</ele><time>2025-05-26T09:45:04Z</time></trkpt>
<trkpt lat="51.287409" lon="5.192754"><ele>39.24</ele><time>2025-05-26T09:45:17Z</time></trkpt>
<trkpt lat="51.287431" lon="5.192857"><ele>39.53</ele><time>2025-05-26T09:45:30Z</time></trkpt>
<trkpt lat="51.287628" lon="5.193304"><ele>39.97</ele><time>2025-05-26T09:45:43Z</time></trkpt>
<trkpt lat="51.287684" lon="5.193244"><ele>39.35</ele><time>2025-05-26T09:46:08Z</time></trkpt>
<trkpt lat="51.289141" lon="5.192406"><ele>39.15</ele><time>2025-05-26T09:46:33Z</time></trkpt>
<trkpt lat="51.29273" lon="5.190369"><ele>44.4</ele><time>2025-05-26T09:46:58Z</time></trkpt>
<trkpt lat="51.295652" lon="5.188783"><ele>41.1</ele><time>2025-05-26T09:47:23Z</time></trkpt>
<trkpt lat="51.299378" lon="5.186712"><ele>41.15</ele><time>2025-05-26T09:47:48Z</time></trkpt>
<trkpt lat="51.307289" lon="5.181548"><ele>39.37</ele><time>2025-05-26T09:48:13Z</time></trkpt>
<trkpt lat="51.315779" lon="5.17587"><ele>34.85</ele><time>2025-05-26T09:48:38Z</time></trkpt>
<trkpt lat="51.316452" lon="5.175438"><ele>32.58</ele><time>2025-05-26T09:49:03Z</time></trkpt>
<trkpt lat="51.316865" lon="5.175206"><ele>32.71</ele><time>2025-05-26T09:49:27Z</time></trkpt>
<trkpt lat="51.316943" lon="5.175182"><ele>32.99</ele><time>2025-05-26T09:49:52Z</time></trkpt>
<trkpt lat="51.324033" lon="5.171512"><ele>32.48</ele><time>2025-05-26T09:50:17Z</time></trkpt>
<trkpt lat="51.325773" lon="5.170658"><ele>32.22</ele><time>2025-05-26T09:50:42Z</time></trkpt>
<trkpt lat="51.327655" lon="5.169987"><ele>32.6</ele><time>2025-05-26T09:51:07Z</time></trkpt>
<trkpt lat="51.336077" lon="5.16708"><ele>35.37</ele><time>2025-05-26T09:51:32Z</time></trkpt>
<trkpt lat="51.337961" lon="5.166463"><ele>37.19</ele><time>2025-05-26T09:51:57Z</time></trkpt>
<trkpt lat="51.33983" lon="5.165787"><ele>38.39</ele><time>2025-05-26T09:52:22Z</time></trkpt>
<trkpt lat="51.340545" lon="5.165507"><ele>38.0</ele><time>2025-05-26T09:52:47Z</time></trkpt>
<trkpt lat="51.3422" lon="5.164736"><ele>31.13</ele><time>2025-05-26T09:53:12Z</time></trkpt>
<trkpt lat="51.344132" lon="5.163767"><ele>36.26</ele><time>2025-05-26T09:53:37Z</time></trkpt>
<trkpt lat="51.34434" lon="5.16364"><ele>37.52</ele><time>2025-05-26T09:54:02Z</time></trkpt>
<trkpt lat="51.347097" lon="5.161546"><ele>32.98</ele><time>2025-05-26T09:54:27Z</time></trkpt>
<trkpt lat="51.347299" lon="5.161536"><ele>33.76</ele><time>2025-05-26T09:54:52Z</time></trkpt>
<trkpt lat="51.347377" lon="5.161577"><ele>34.08</ele><time>2025-05-26T09:55:17Z</time></trkpt>
<trkpt lat="51.34746" lon="5.161302"><ele>34.0</ele><time>2025-05-26T09:55:18Z</time></trkpt>
<trkpt lat="51.347642" lon="5.161109"><ele>33.49</ele><time>2025-05-26T09:55:20Z</time></trkpt>
<trkpt lat="51.347666" lon="5.161052"><ele>33.62</ele><time>2025-05-26T09:55:21Z</time></trkpt>
<trkpt lat="51.347661" lon="5.160965"><ele>33.94</ele><time>2025-05-26T09:55:28Z</time></trkpt>
<trkpt lat="51.347624" lon="5.160834"><ele>34.55</ele><time>2025-05-26T09:55:36Z</time></trkpt>
<trkpt lat="51.347602" lon="5.160184"><ele>33.51</ele><time>2025-05-26T09:55:43Z</time></trkpt>
<trkpt lat="51.347574" lon="5.1599"><ele>33.11</ele><time>2025-05-26T09:55:51Z</time></trkpt>
<trkpt lat="51.347282" lon="5.158064"><ele>31.0</ele><time>2025-05-26T09:55:58Z</time></trkpt>
<trkpt lat="51.347187" lon="5.157559"><ele>31.1</ele><time>2025-05-26T09:56:06Z</time></trkpt>
<trkpt lat="51.346178" lon="5.153629"><ele>32.05</ele><time>2025-05-26T09:56:13Z</time></trkpt>
<trkpt lat="51.345779" lon="5.151832"><ele>32.19</ele><time>2025-05-26T09:56:21Z</time></trkpt>
<trkpt lat="51.345655" lon="5.151397"><ele>32.64</ele><time>2025-05-26T09:56:28Z</time></trkpt>
<trkpt lat="51.345518" lon="5.15103"><ele>33.1</ele><time>2025-05-26T09:56:36Z</time></trkpt>
<trkpt lat="51.345337" lon="5.150655"><ele>33.0</ele><time>2025-05-26T09:56:43Z</time></trkpt>
<trkpt lat="51.345167" lon="5.150382"><ele>33.17</ele><time>2025-05-26T09:56:51Z</time></trkpt>
<trkpt lat="51.34382" lon="5.148454"><ele>31.0</ele><time>2025-05-26T09:56:58Z</time></trkpt>
<trkpt lat="51.343638" lon="5.148145"><ele>31.68</ele><time>2025-05-26T09:57:06Z</time></trkpt>
<trkpt lat="51.343481" lon="5.147814"><ele>32.46</ele><time>2025-05-26T09:57:13Z</time></trkpt>
<trkpt lat="51.341396" lon="5.142755"><ele>33.94</ele><time>2025-05-26T09:57:21Z</time></trkpt>
<trkpt lat="51.341375" lon="5.142561"><ele>33.27</ele><time>2025-05-26T09:57:28Z</time></trkpt>
<trkpt lat="51.345128" lon="5.14259"><ele>37.24</ele><time>2025-05-26T09:57:41Z</time></trkpt>
<trkpt lat="51.346911" lon="5.142755"><ele>35.04</ele><time>2025-05-26T09:57:54Z</time></trkpt>
<trkpt lat="51.349548" lon="5.143052"><ele>35.88</ele><time>2025-05-26T09:58:07Z</time></trkpt>
<trkpt lat="51.351101" lon="5.143199"><ele>30.94</ele><time>2025-05-26T09:58:20Z</time></trkpt>
<trkpt lat="51.353557" lon="5.143518"><ele>32.81</ele><time>2025-05-26T09:58:33Z</time></trkpt>
<trkpt lat="51.35495" lon="5.14367"><ele>30.21</ele><time>2025-05-26T09:58:46Z</time></trkpt>
<trkpt lat="51.355896" lon="5.143932"><ele>31.22</ele><time>2025-05-26T09:58:59Z</time></trkpt>
<trkpt lat="51.35613" lon="5.14406"><ele>31.93</ele><time>2025-05-26T09:59:11Z</time></trkpt>
<trkpt lat="51.35624" lon="5.144054"><ele>31.53</ele><time>2025-05-26T09:59:24Z</time></trkpt>
<trkpt lat="51.356321" lon="5.143969"><ele>31.24</ele><time>2025-05-26T09:59:37Z</time></trkpt>
<trkpt lat="51.356214" lon="5.143713"><ele>31.63</ele><time>2025-05-26T09:59:43Z</time></trkpt>
<trkpt lat="51.355804" lon="5.142972"><ele>31.0</ele><time>2025-05-26T09:59:50Z</time></trkpt>
<trkpt lat="51.35212" lon="5.1369"><ele>29.0</ele><time>2025-05-26T09:59:56Z</time></trkpt>
<trkpt lat="51.351804" lon="5.136222"><ele>30.81</ele><time>2025-05-26T10:00:02Z</time></trkpt>
<trkpt lat="51.35165" lon="5.135753"><ele>33.12</ele><time>2025-05-26T10:00:08Z</time></trkpt>
<trkpt lat="51.351526" lon="5.135259"><ele>35.01</ele><time>2025-05-26T10:00:15Z</time></trkpt>
<trkpt lat="51.351392" lon="5.134332"><ele>36.99</ele><time>2025-05-26T10:00:21Z</time></trkpt>
<trkpt lat="51.351372" lon="5.13405"><ele>37.0</ele><time>2025-05-26T10:00:27Z</time></trkpt>
<trkpt lat="51.351266" lon="5.133307"><ele>35.9</ele><time>2025-05-26T10:00:33Z</time></trkpt>
<trkpt lat="51.351169" lon="5.132761"><ele>35.01</ele><time>2025-05-26T10:00:40Z</time></trkpt>
<trkpt lat="51.351027" lon="5.132079"><ele>34.49</ele><time>2025-05-26T10:00:46Z</time></trkpt>
<trkpt lat="51.35084" lon="5.131336"><ele>33.95</ele><time>2025-05-26T10:00:52Z</time></trkpt>
<trkpt lat="51.350729" lon="5.131001"><ele>33.98</ele><time>2025-05-26T10:00:59Z</time></trkpt>
<trkpt lat="51.35039" lon="5.130297"><ele>32.43</ele><time>2025-05-26T10:01:05Z</time></trkpt>
<trkpt lat="51.350276" lon="5.129997"><ele>32.0</ele><time>2025-05-26T10:01:11Z</time></trkpt>
<trkpt lat="51.349829" lon="5.128153"><ele>32.03</ele><time>2025-05-26T10:01:17Z</time></trkpt>
<trkpt lat="51.349607" lon="5.127331"><ele>34.25</ele><time>2025-05-26T10:01:24Z</time></trkpt>
<trkpt lat="51.349095" lon="5.125777"><ele>35.84</ele><time>2025-05-26T10:01:30Z</time></trkpt>
<trkpt lat="51.349095" lon="5.125777"><ele>35.84</ele><time>2025-05-26T10:01:30Z</time></trkpt>
<trkpt lat="51.347931" lon="5.122181"><ele>31.02</ele><time>2025-05-26T10:01:39Z</time></trkpt>
<trkpt lat="51.347585" lon="5.121174"><ele>30.3</ele><time>2025-05-26T10:01:48Z</time></trkpt>
<trkpt lat="51.342812" lon="5.109568"><ele>31.88</ele><time>2025-05-26T10:01:57Z</time></trkpt>
<trkpt lat="51.342593" lon="5.108863"><ele>30.4</ele><time>2025-05-26T10:02:06Z</time></trkpt>
<trkpt lat="51.342285" lon="5.107771"><ele>29.0</ele><time>2025-05-26T10:02:15Z</time></trkpt>
<trkpt lat="51.341843" lon="5.106224"><ele>28.37</ele><time>2025-05-26T10:02:23Z</time></trkpt>
<trkpt lat="51.341749" lon="5.105935"><ele>29.34</ele><time>2025-05-26T10:02:32Z</time></trkpt>
<trkpt lat="51.341634" lon="5.105737"><ele>30.0</ele><time>2025-05-26T10:02:41Z</time></trkpt>
<trkpt lat="51.341435" lon="5.105538"><ele>29.95</ele><time>2025-05-26T10:02:50Z</time></trkpt>
<trkpt lat="51.341254" lon="5.105457"><ele>28.85</ele><time>2025-05-26T10:02:59Z</time></trkpt>
<trkpt lat="51.341078" lon="5.105448"><ele>27.83</ele><time>2025-05-26T10:03:08Z</time></trkpt>
<trkpt lat="51.340852" lon="5.105493"><ele>26.85</ele><time>2025-05-26T10:03:17Z</time></trkpt>
<trkpt lat="51.339887" lon="5.105634"><ele>26.0</ele><time>2025-05-26T10:03:26Z</time></trkpt>
<trkpt lat="51.339778" lon="5.105619"><ele>26.0</ele><time>2025-05-26T10:03:35Z</time></trkpt>
<trkpt lat="51.339574" lon="5.105527"><ele>26.48</ele><time>2025-05-26T10:03:44Z</time></trkpt>
<trkpt lat="51.33948" lon="5.105447"><ele>26.53</ele><time>2025-05-26T10:03:53Z</time></trkpt>
<trkpt lat="51.339253" lon="5.10515"><ele>26.69</ele><time>2025-05-26T10:04:02Z</time></trkpt>
<trkpt lat="51.338504" lon="5.104014"><ele>28.72</ele><time>2025-05-26T10:04:11Z</time></trkpt>
<trkpt lat="51.338388" lon="5.103803"><ele>29.0</ele><time>2025-05-26T10:04:20Z</time></trkpt>
<trkpt lat="51.337368" lon="5.101063"><ele>28.0</ele><time>2025-05-26T10:04:29Z</time></trkpt>
<trkpt lat="51.337172" lon="5.100585"><ele>27.82</ele><time>2025-05-26T10:04:38Z</time></trkpt>
<trkpt lat="51.337108" lon="5.100475"><ele>27.71</ele><time>2025-05-26T10:04:47Z</time></trkpt>
<trkpt lat="51.336881" lon="5.100243"><ele>27.77</ele><time>2025-05-26T10:04:56Z</time></trkpt>
<trkpt lat="51.335642" lon="5.099666"><ele>27.86</ele><time>2025-05-26T10:05:05Z</time></trkpt>
<trkpt lat="51.334691" lon="5.0991"><ele>27.73</ele><time>2025-05-26T10:05:14Z</time></trkpt>
<trkpt lat="51.334457" lon="5.098956"><ele>26.52</ele><time>2025-05-26T10:05:22Z</time></trkpt>
<trkpt lat="51.333734" lon="5.098638"><ele>26.5</ele><time>2025-05-26T10:05:31Z</time></trkpt>
<trkpt lat="51.333133" lon="5.098312"><ele>27.92</ele><time>2025-05-26T10:05:40Z</time></trkpt>
<trkpt lat="51.332904" lon="5.098138"><ele>27.13</ele><time>2025-05-26T10:05:49Z</time></trkpt>
<trkpt lat="51.332233" lon="5.097521"><ele>27.89</ele><time>2025-05-26T10:05:58Z</time></trkpt>
<trkpt lat="51.329676" lon="5.095132"><ele>28.0</ele><time>2025-05-26T10:06:07Z</time></trkpt>
<trkpt lat="51.328825" lon="5.094297"><ele>27.77</ele><time>2025-05-26T10:06:16Z</time></trkpt>
<trkpt lat="51.328551" lon="5.093979"><ele>27.0</ele><time>2025-05-26T10:06:25Z</time></trkpt>
<trkpt lat="51.32848" lon="5.09383"><ele>26.89</ele><time>2025-05-26T10:06:34Z</time></trkpt>
<trkpt lat="51.328441" lon="5.093701"><ele>26.74</ele><time>2025-05-26T10:06:43Z</time></trkpt>
<trkpt lat="51.328339" lon="5.093321"><ele>26.94</ele><time>2025-05-26T10:06:52Z</time></trkpt>
<trkpt lat="51.327068" lon="5.090919"><ele>25.55</ele><time>2025-05-26T10:07:01Z</time></trkpt>
<trkpt lat="51.326875" lon="5.090458"><ele>25.65</ele><time>2025-05-26T10:07:10Z</time></trkpt>
<trkpt lat="51.326587" lon="5.089591"><ele>25.29</ele><time>2025-05-26T10:07:19Z</time></trkpt>
<trkpt lat="51.326507" lon="5.089291"><ele>26.13</ele><time>2025-05-26T10:07:28Z</time></trkpt>
<trkpt lat="51.326411" lon="5.088766"><ele>27.44</ele><time>2025-05-26T10:07:37Z</time></trkpt>
<trkpt lat="51.326366" lon="5.088279"><ele>27.9</ele><time>2025-05-26T10:07:46Z</time></trkpt>
<trkpt lat="51.326372" lon="5.086615"><ele>26.81</ele><time>2025-05-26T10:07:55Z</time></trkpt>
<trkpt lat="51.326337" lon="5.086024"><ele>25.75</ele><time>2025-05-26T10:08:04Z</time></trkpt>
<trkpt lat="51.326311" lon="5.085813"><ele>25.28</ele><time>2025-05-26T10:08:13Z</time></trkpt>
<trkpt lat="51.326246" lon="5.08544"><ele>25.51</ele><time>2025-05-26T10:08:21Z</time></trkpt>
<trkpt lat="51.326102" lon="5.084917"><ele>26.0</ele><time>2025-05-26T10:08:30Z</time></trkpt>
<trkpt lat="51.325004" lon="5.081948"><ele>25.01</ele><time>2025-05-26T10:08:39Z</time></trkpt>
<trkpt lat="51.324755" lon="5.081359"><ele>25.88</ele><time>2025-05-26T10:08:48Z</time></trkpt>
<trkpt lat="51.324371" lon="5.080639"><ele>26.26</ele><time>2025-05-26T10:08:57Z</time></trkpt>
<trkpt lat="51.323708" lon="5.079563"><ele>25.35</ele><time>2025-05-26T10:09:06Z</time></trkpt>
<trkpt lat="51.32347" lon="5.079092"><ele>25.0</ele><time>2025-05-26T10:09:15Z</time></trkpt>
<trkpt lat="51.322789" lon="5.077578"><ele>24.0</ele><time>2025-05-26T10:09:24Z</time></trkpt>
<trkpt lat="51.32286" lon="5.077464"><ele>24.0</ele><time>2025-05-26T10:09:31Z</time></trkpt>
<trkpt lat="51.324541" lon="5.075332"><ele>25.52</ele><time>2025-05-26T10:09:38Z</time></trkpt>
<trkpt lat="51.324813" lon="5.075097"><ele>24.67</ele><time>2025-05-26T10:09:45Z</time></trkpt>
<trkpt lat="51.325067" lon="5.07496"><ele>24.11</ele><time>2025-05-26T10:09:52Z</time></trkpt>
<trkpt lat="51.325342" lon="5.074883"><ele>24.33</ele><time>2025-05-26T10:09:59Z</time></trkpt>
<trkpt lat="51.325487" lon="5.074875"><ele>25.09</ele><time>2025-05-26T10:10:06Z</time></trkpt>
<trkpt lat="51.325739" lon="5.074923"><ele>26.42</ele><time>2025-05-26T10:10:13Z</time></trkpt>
<trkpt lat="51.326428" lon="5.075114"><ele>27.86</ele><time>2025-05-26T10:10:21Z</time></trkpt>
<trkpt lat="51.327673" lon="5.075923"><ele>25.58</ele><time>2025-05-26T10:10:28Z</time></trkpt>
<trkpt lat="51.327977" lon="5.076066"><ele>26.55</ele><time>2025-05-26T10:10:35Z</time></trkpt>
<trkpt lat="51.328166" lon="5.076081"><ele>27.24</ele><time>2025-05-26T10:10:42Z</time></trkpt>
<trkpt lat="51.328539" lon="5.076035"><ele>27.65</ele><time>2025-05-26T10:10:49Z</time></trkpt>
<trkpt lat="51.32955" lon="5.075951"><ele>25.78</ele><time>2025-05-26T10:10:56Z</time></trkpt>
<trkpt lat="51.329809" lon="5.075961"><ele>25.46</ele><time>2025-05-26T10:11:03Z</time></trkpt>
<trkpt lat="51.330013" lon="5.075912"><ele>25.25</ele><time>2025-05-26T10:11:10Z</time></trkpt>
<trkpt lat="51.330132" lon="5.075856"><ele>24.64</ele><time>2025-05-26T10:11:17Z</time></trkpt>
<trkpt lat="51.331578" lon="5.075617"><ele>28.0</ele><time>2025-05-26T10:11:24Z</time></trkpt>
<trkpt lat="51.332375" lon="5.075434"><ele>28.51</ele><time>2025-05-26T10:11:31Z</time></trkpt>
<trkpt lat="51.332213" lon="5.074609"><ele>30.04</ele><time>2025-05-26T10:11:51Z</time></trkpt>
<trkpt lat="51.331927" lon="5.073639"><ele>31.22</ele><time>2025-05-26T10:12:11Z</time></trkpt>
<trkpt lat="51.331936" lon="5.073605"><ele>31.04</ele><time>2025-05-26T10:12:32Z</time></trkpt>
<trkpt lat="51.332537" lon="5.072734"><ele>27.11</ele><time>2025-05-26T10:12:52Z</time></trkpt>
<trkpt lat="51.332546" lon="5.072688"><ele>27.11</ele><time>2025-05-26T10:13:12Z</time></trkpt>
<trkpt lat="51.33182" lon="5.070914"><ele>30.95</ele><time>2025-05-26T10:13:32Z</time></trkpt>
<trkpt lat="51.331355" lon="5.069787"><ele>32.34</ele><time>2025-05-26T10:13:52Z</time></trkpt>
<trkpt lat="51.331269" lon="5.069533"><ele>30.5</ele><time>2025-05-26T10:14:12Z</time></trkpt>
<trkpt lat="51.329497" lon="5.065408"><ele>31.37</ele><time>2025-05-26T10:14:33Z</time></trkpt>
<trkpt lat="51.330592" lon="5.0641"><ele>25.66</ele><time>2025-05-26T10:14:48Z</time></trkpt>
<trkpt lat="51.330592" lon="5.0641"><ele>25.66</ele><time>2025-05-26T10:14:48Z</time></trkpt>
<trkpt lat="51.329497" lon="5.065408"><ele>31.37</ele><time>2025-05-26T10:14:59Z</time></trkpt>
<trkpt lat="51.328505" lon="5.066563"><ele>27.24</ele><time>2025-05-26T10:15:09Z</time></trkpt>
<trkpt lat="51.328444" lon="5.066611"><ele>26.8</ele><time>2025-05-26T10:15:20Z</time></trkpt>
<trkpt lat="51.328128" lon="5.065971"><ele>23.78</ele><time>2025-05-26T10:15:48Z</time></trkpt>
<trkpt lat="51.327497" lon="5.064889"><ele>23.59</ele><time>2025-05-26T10:16:17Z</time></trkpt>
<trkpt lat="51.327135" lon="5.064224"><ele>23.31</ele><time>2025-05-26T10:16:46Z</time></trkpt>
<trkpt lat="51.32671" lon="5.063382"><ele>25.0</ele><time>2025-05-26T10:17:14Z</time></trkpt>
<trkpt lat="51.326181" lon="5.064382"><ele>25.52</ele><time>2025-05-26T10:17:24Z</time></trkpt>
<trkpt lat="51.325802" lon="5.065056"><ele>26.11</ele><time>2025-05-26T10:17:33Z</time></trkpt>
<trkpt lat="51.324683" lon="5.067214"><ele>24.11</ele><time>2025-05-26T10:17:43Z</time></trkpt>
<trkpt lat="51.324388" lon="5.06773"><ele>25.17</ele><time>2025-05-26T10:17:53Z</time></trkpt>
<trkpt lat="51.324265" lon="5.0679"><ele>25.65</ele><time>2025-05-26T10:18:02Z</time></trkpt>
<trkpt lat="51.323986" lon="5.06807"><ele>26.0</ele><time>2025-05-26T10:18:12Z</time></trkpt>
<trkpt lat="51.323002" lon="5.06868"><ele>25.95</ele><time>2025-05-26T10:18:21Z</time></trkpt>
<trkpt lat="51.322947" lon="5.068686"><ele>25.89</ele><time>2025-05-26T10:18:31Z</time></trkpt>
<trkpt lat="51.322947" lon="5.068686"><ele>25.89</ele><time>2025-05-26T10:18:31Z</time></trkpt>
<trkpt lat="51.322414" lon="5.068431"><ele>26.0</ele><time>2025-05-26T10:18:37Z</time></trkpt>
<trkpt lat="51.322084" lon="5.068348"><ele>26.0</ele><time>2025-05-26T10:18:43Z</time></trkpt>
<trkpt lat="51.321414" lon="5.068342"><ele>25.09</ele><time>2025-05-26T10:18:49Z</time></trkpt>
<trkpt lat="51.321279" lon="5.068397"><ele>25.0</ele><time>2025-05-26T10:18:55Z</time></trkpt>
<trkpt lat="51.321136" lon="5.068511"><ele>25.0</ele><time>2025-05-26T10:19:01Z</time></trkpt>
<trkpt lat="51.320435" lon="5.069457"><ele>25.0</ele><time>2025-05-26T10:19:07Z</time></trkpt>
<trkpt lat="51.320274" lon="5.069197"><ele>25.01</ele><time>2025-05-26T10:19:13Z</time></trkpt>
<trkpt lat="51.320043" lon="5.068912"><ele>25.84</ele><time>2025-05-26T10:19:20Z</time></trkpt>
<trkpt lat="51.319855" lon="5.06874"><ele>25.74</ele><time>2025-05-26T10:19:26Z</time></trkpt>
<trkpt lat="51.31631" lon="5.066579"><ele>24.42</ele><time>2025-05-26T10:19:32Z</time></trkpt>
<trkpt lat="51.316056" lon="5.066352"><ele>23.97</ele><time>2025-05-26T10:19:38Z</time></trkpt>
<trkpt lat="51.315911" lon="5.066167"><ele>23.42</ele><time>2025-05-26T10:19:44Z</time></trkpt>
<trkpt lat="51.315732" lon="5.065858"><ele>23.94</ele><time>2025-05-26T10:19:50Z</time></trkpt>
<trkpt lat="51.315637" lon="5.065632"><ele>24.0</ele><time>2025-05-26T10:19:56Z</time></trkpt>
<trkpt lat="51.315553" lon="5.065364"><ele>24.69</ele><time>2025-05-26T10:20:02Z</time></trkpt>
<trkpt lat="51.315512" lon="5.065167"><ele>25.0</ele><time>2025-05-26T10:20:09Z</time></trkpt>
<trkpt lat="51.315487" lon="5.064952"><ele>25.17</ele><time>2025-05-26T10:20:15Z</time></trkpt>
<trkpt lat="51.315488" lon="5.064641"><ele>26.22</ele><time>2025-05-26T10:20:21Z</time></trkpt>
<trkpt lat="51.315567" lon="5.064005"><ele>27.0</ele><time>2025-05-26T10:20:27Z</time></trkpt>
<trkpt lat="51.315758" lon="5.062726"><ele>26.54</ele><time>2025-05-26T10:20:33Z</time></trkpt>
<trkpt lat="51.31577" lon="5.062525"><ele>25.86</ele><time>2025-05-26T10:20:39Z</time></trkpt>
<trkpt lat="51.315752" lon="5.062134"><ele>25.39</ele><time>2025-05-26T10:20:45Z</time></trkpt>
<trkpt lat="51.315701" lon="5.061736"><ele>24.52</ele><time>2025-05-26T10:20:51Z</time></trkpt>
<trkpt lat="51.315612" lon="5.061317"><ele>24.0</ele><time>2025-05-26T10:20:58Z</time></trkpt>
<trkpt lat="51.315557" lon="5.061155"><ele>24.0</ele><time>2025-05-26T10:21:04Z</time></trkpt>
<trkpt lat="51.314662" lon="5.059008"><ele>25.0</ele><time>2025-05-26T10:21:10Z</time></trkpt>
<trkpt lat="51.3145" lon="5.058548"><ele>24.8</ele><time>2025-05-26T10:21:16Z</time></trkpt>
<trkpt lat="51.314458" lon="5.05838"><ele>24.95</ele><time>2025-05-26T10:21:22Z</time></trkpt>
<trkpt lat="51.314431" lon="5.058184"><ele>24.46</ele><time>2025-05-26T10:21:28Z</time></trkpt>
<trkpt lat="51.314251" lon="5.05506"><ele>25.3</ele><time>2025-05-26T10:21:34Z</time></trkpt>
<trkpt lat="51.314224" lon="5.054862"><ele>25.6</ele><time>2025-05-26T10:21:41Z</time></trkpt>
<trkpt lat="51.314135" lon="5.05446"><ele>26.11</ele><time>2025-05-26T10:21:47Z</time></trkpt>
<trkpt lat="51.312713" lon="5.050765"><ele>23.0</ele><time>2025-05-26T10:21:53Z</time></trkpt>
<trkpt lat="51.310089" lon="5.053648"><ele>22.87</ele><time>2025-05-26T10:22:20Z</time></trkpt>
<trkpt lat="51.309917" lon="5.053856"><ele>22.12</ele><time>2025-05-26T10:22:47Z</time></trkpt>
<trkpt lat="51.309411" lon="5.052804"><ele>23.88</ele><time>2025-05-26T10:22:53Z</time></trkpt>
<trkpt lat="51.309153" lon="5.052099"><ele>22.53</ele><time>2025-05-26T10:23:00Z</time></trkpt>
<trkpt lat="51.309103" lon="5.051918"><ele>22.0</ele><time>2025-05-26T10:23:06Z</time></trkpt>
<trkpt lat="51.308551" lon="5.048766"><ele>22.44</ele><time>2025-05-26T10:23:13Z</time></trkpt>
<trkpt lat="51.308107" lon="5.046349"><ele>22.86</ele><time>2025-05-26T10:23:19Z</time></trkpt>
<trkpt lat="51.308062" lon="5.046182"><ele>22.25</ele><time>2025-05-26T10:23:25Z</time></trkpt>
<trkpt lat="51.308012" lon="5.046018"><ele>21.82</ele><time>2025-05-26T10:23:32Z</time></trkpt>
<trkpt lat="51.30786" lon="5.045669"><ele>21.28</ele><time>2025-05-26T10:23:38Z</time></trkpt>
<trkpt lat="51.307556" lon="5.045203"><ele>21.8</ele><time>2025-05-26T10:23:45Z</time></trkpt>
<trkpt lat="51.307344" lon="5.044961"><ele>23.4</ele><time>2025-05-26T10:23:51Z</time></trkpt>
<trkpt lat="51.307162" lon="5.044806"><ele>25.46</ele><time>2025-05-26T10:23:58Z</time></trkpt>
<trkpt lat="51.306957" lon="5.044672"><ele>26.18</ele><time>2025-05-26T10:24:04Z</time></trkpt>
<trkpt lat="51.306777" lon="5.044594"><ele>24.97</ele><time>2025-05-26T10:24:10Z</time></trkpt>
<trkpt lat="51.306543" lon="5.044527"><ele>23.42</ele><time>2025-05-26T10:24:17Z</time></trkpt>
<trkpt lat="51.305279" lon="5.044451"><ele>22.0</ele><time>2025-05-26T10:24:23Z</time></trkpt>
<trkpt lat="51.3053" lon="5.044397"><ele>22.0</ele><time>2025-05-26T10:24:28Z</time></trkpt>
<trkpt lat="51.305545" lon="5.042966"><ele>23.0</ele><time>2025-05-26T10:24:32Z</time></trkpt>
<trkpt lat="51.305573" lon="5.042687"><ele>22.61</ele><time>2025-05-26T10:24:36Z</time></trkpt>
<trkpt lat="51.305563" lon="5.042401"><ele>21.97</ele><time>2025-05-26T10:24:40Z</time></trkpt>
<trkpt lat="51.305532" lon="5.042163"><ele>22.08</ele><time>2025-05-26T10:24:45Z</time></trkpt>
<trkpt lat="51.305335" lon="5.041451"><ele>22.79</ele><time>2025-05-26T10:24:49Z</time></trkpt>
<trkpt lat="51.304671" lon="5.039494"><ele>23.19</ele><time>2025-05-26T10:24:53Z</time></trkpt>
<trkpt lat="51.304369" lon="5.038636"><ele>26.66</ele><time>2025-05-26T10:24:57Z</time></trkpt>
<trkpt lat="51.304225" lon="5.038352"><ele>25.91</ele><time>2025-05-26T10:25:01Z</time></trkpt>
<trkpt lat="51.304027" lon="5.038111"><ele>26.0</ele><time>2025-05-26T10:25:06Z</time></trkpt>
<trkpt lat="51.303887" lon="5.037988"><ele>25.99</ele><time>2025-05-26T10:25:10Z</time></trkpt>
<trkpt lat="51.303609" lon="5.037849"><ele>25.01</ele><time>2025-05-26T10:25:14Z</time></trkpt>
<trkpt lat="51.303139" lon="5.037672"><ele>25.79</ele><time>2025-05-26T10:25:18Z</time></trkpt>
<trkpt lat="51.302859" lon="5.037538"><ele>24.45</ele><time>2025-05-26T10:25:23Z</time></trkpt>
<trkpt lat="51.302143" lon="5.037018"><ele>22.92</ele><time>2025-05-26T10:25:27Z</time></trkpt>
<trkpt lat="51.302106" lon="5.036973"><ele>22.96</ele><time>2025-05-26T10:25:31Z</time></trkpt>
<trkpt lat="51.301825" lon="5.036366"><ele>23.43</ele><time>2025-05-26T10:25:35Z</time></trkpt>
<trkpt lat="51.301749" lon="5.036138"><ele>23.7</ele><time>2025-05-26T10:25:40Z</time></trkpt>
<trkpt lat="51.301666" lon="5.035753"><ele>24.0</ele><time>2025-05-26T10:25:44Z</time></trkpt>
<trkpt lat="51.301643" lon="5.035507"><ele>23.91</ele><time>2025-05-26T10:25:48Z</time></trkpt>
<trkpt lat="51.301654" lon="5.035291"><ele>23.09</ele><time>2025-05-26T10:25:52Z</time></trkpt>
<trkpt lat="51.301709" lon="5.034825"><ele>22.9</ele><time>2025-05-26T10:25:57Z</time></trkpt>
<trkpt lat="51.301729" lon="5.034057"><ele>23.0</ele><time>2025-05-26T10:26:01Z</time></trkpt>
<trkpt lat="51.301455" lon="5.034233"><ele>23.0</ele><time>2025-05-26T10:26:06Z</time></trkpt>
<trkpt lat="51.301131" lon="5.034499"><ele>23.0</ele><time>2025-05-26T10:26:11Z</time></trkpt>
<trkpt lat="51.300508" lon="5.03508"><ele>23.83</ele><time>2025-05-26T10:26:17Z</time></trkpt>
<trkpt lat="51.30025" lon="5.03323"><ele>21.66</ele><time>2025-05-26T10:26:23Z</time></trkpt>
<trkpt lat="51.300216" lon="5.033111"><ele>21.38</ele><time>2025-05-26T10:26:29Z</time></trkpt>
<trkpt lat="51.299694" lon="5.032463"><ele>23.1</ele><time>2025-05-26T10:26:36Z</time></trkpt>
<trkpt lat="51.29943" lon="5.032251"><ele>23.95</ele><time>2025-05-26T10:26:42Z</time></trkpt>
<trkpt lat="51.299516" lon="5.031501"><ele>24.48</ele><time>2025-05-26T10:26:47Z</time></trkpt>
<trkpt lat="51.299596" lon="5.030591"><ele>24.91</ele><time>2025-05-26T10:26:51Z</time></trkpt>
<trkpt lat="51.29967" lon="5.030202"><ele>23.33</ele><time>2025-05-26T10:26:56Z</time></trkpt>
<trkpt lat="51.299728" lon="5.030009"><ele>23.0</ele><time>2025-05-26T10:27:00Z</time></trkpt>
<trkpt lat="51.299996" lon="5.029388"><ele>22.2</ele><time>2025-05-26T10:27:04Z</time></trkpt>
<trkpt lat="51.300257" lon="5.028909"><ele>24.78</ele><time>2025-05-26T10:27:09Z</time></trkpt>
<trkpt lat="51.299446" lon="5.028177"><ele>25.47</ele><time>2025-05-26T10:27:20Z</time></trkpt>
<trkpt lat="51.299446" lon="5.028177"><ele>25.47</ele><time>2025-05-26T10:27:20Z</time></trkpt>
<trkpt lat="51.299334" lon="5.028119"><ele>25.38</ele><time>2025-05-26T10:27:23Z</time></trkpt>
<trkpt lat="51.299224" lon="5.028098"><ele>25.05</ele><time>2025-05-26T10:27:26Z</time></trkpt>
<trkpt lat="51.29894" lon="5.028135"><ele>23.9</ele><time>2025-05-26T10:27:29Z</time></trkpt>
<trkpt lat="51.298687" lon="5.028215"><ele>22.81</ele><time>2025-05-26T10:27:32Z</time></trkpt>
<trkpt lat="51.297907" lon="5.028624"><ele>24.53</ele><time>2025-05-26T10:27:35Z</time></trkpt>
<trkpt lat="51.297826" lon="5.02861"><ele>24.17</ele><time>2025-05-26T10:27:39Z</time></trkpt>
<trkpt lat="51.297616" lon="5.028383"><ele>23.66</ele><time>2025-05-26T10:27:42Z</time></trkpt>
<trkpt lat="51.297301" lon="5.02897"><ele>24.37</ele><time>2025-05-26T10:27:44Z</time></trkpt>
<trkpt lat="51.296932" lon="5.029872"><ele>23.02</ele><time>2025-05-26T10:27:47Z</time></trkpt>
<trkpt lat="51.296696" lon="5.030589"><ele>23.91</ele><time>2025-05-26T10:27:50Z</time></trkpt>
<trkpt lat="51.296549" lon="5.031115"><ele>24.43</ele><time>2025-05-26T10:27:52Z</time></trkpt>
<trkpt lat="51.29617" lon="5.032599"><ele>23.63</ele><time>2025-05-26T10:27:55Z</time></trkpt>
<trkpt lat="51.296044" lon="5.032976"><ele>24.17</ele><time>2025-05-26T10:27:57Z</time></trkpt>
<trkpt lat="51.295877" lon="5.033402"><ele>26.09</ele><time>2025-05-26T10:28:00Z</time></trkpt>
<trkpt lat="51.295608" lon="5.034"><ele>29.62</ele><time>2025-05-26T10:28:03Z</time></trkpt>
<trkpt lat="51.295193" lon="5.034718"><ele>26.7</ele><time>2025-05-26T10:28:05Z</time></trkpt>
<trkpt lat="51.294885" lon="5.035126"><ele>25.8</ele><time>2025-05-26T10:28:08Z</time></trkpt>
<trkpt lat="51.294574" lon="5.035479"><ele>25.18</ele><time>2025-05-26T10:28:10Z</time></trkpt>
<trkpt lat="51.294124" lon="5.035925"><ele>24.13</ele><time>2025-05-26T10:28:13Z</time></trkpt>
<trkpt lat="51.293783" lon="5.036217"><ele>23.76</ele><time>2025-05-26T10:28:16Z</time></trkpt>
<trkpt lat="51.293514" lon="5.036481"><ele>25.68</ele><time>2025-05-26T10:28:18Z</time></trkpt>
<trkpt lat="51.293235" lon="5.036797"><ele>26.65</ele><time>2025-05-26T10:28:21Z</time></trkpt>
<trkpt lat="51.292941" lon="5.037189"><ele>24.61</ele><time>2025-05-26T10:28:23Z</time></trkpt>
<trkpt lat="51.292635" lon="5.037664"><ele>23.79</ele><time>2025-05-26T10:28:26Z</time></trkpt>
<trkpt lat="51.292153" lon="5.038468"><ele>25.0</ele><time>2025-05-26T10:28:29Z</time></trkpt>
<trkpt lat="51.291425" lon="5.03982"><ele>20.65</ele><time>2025-05-26T10:28:31Z</time></trkpt>
<trkpt lat="51.291331" lon="5.039664"><ele>20.91</ele><time>2025-05-26T10:28:47Z</time></trkpt>
<trkpt lat="51.291331" lon="5.039664"><ele>20.91</ele><time>2025-05-26T10:28:47Z</time></trkpt>
<trkpt lat="51.291311" lon="5.039554"><ele>21.43</ele><time>2025-05-26T10:28:54Z</time></trkpt>
<trkpt lat="51.291309" lon="5.039397"><ele>21.83</ele><time>2025-05-26T10:29:02Z</time></trkpt>
<trkpt lat="51.291399" lon="5.039363"><ele>22.29</ele><time>2025-05-26T10:29:09Z</time></trkpt>
<trkpt lat="51.291466" lon="5.039291"><ele>22.55</ele><time>2025-05-26T10:29:16Z</time></trkpt>
<trkpt lat="51.292439" lon="5.037345"><ele>22.88</ele><time>2025-05-26T10:29:24Z</time></trkpt>
<trkpt lat="51.29291" lon="5.036552"><ele>24.24</ele><time>2025-05-26T10:29:31Z</time></trkpt>
<trkpt lat="51.293789" lon="5.035512"><ele>23.0</ele><time>2025-05-26T10:29:38Z</time></trkpt>
<trkpt lat="51.293877" lon="5.035367"><ele>23.0</ele><time>2025-05-26T10:29:46Z</time></trkpt>
<trkpt lat="51.293889" lon="5.035287"><ele>23.0</ele><time>2025-05-26T10:29:53Z</time></trkpt>
<trkpt lat="51.293874" lon="5.035118"><ele>23.0</ele><time>2025-05-26T10:30:00Z</time></trkpt>
<trkpt lat="51.293813" lon="5.034979"><ele>23.0</ele><time>2025-05-26T10:30:07Z</time></trkpt>
<trkpt lat="51.292919" lon="5.033933"><ele>22.51</ele><time>2025-05-26T10:30:15Z</time></trkpt>
<trkpt lat="51.292838" lon="5.03363"><ele>22.42</ele><time>2025-05-26T10:30:22Z</time></trkpt>
<trkpt lat="51.292437" lon="5.031793"><ele>26.42</ele><time>2025-05-26T10:30:29Z</time></trkpt>
<trkpt lat="51.290511" lon="5.023346"><ele>28.0</ele><time>2025-05-26T10:30:37Z</time></trkpt>
<trkpt lat="51.289812" lon="5.020013"><ele>31.0</ele><time>2025-05-26T10:30:44Z</time></trkpt>
<trkpt lat="51.289347" lon="5.017153"><ele>23.28</ele><time>2025-05-26T10:30:51Z</time></trkpt>
<trkpt lat="51.289248" lon="5.016739"><ele>24.11</ele><time>2025-05-26T10:30:59Z</time></trkpt>
<trkpt lat="51.288737" lon="5.014984"><ele>24.03</ele><time>2025-05-26T10:31:06Z</time></trkpt>
<trkpt lat="51.288722" lon="5.014784"><ele>24.47</ele><time>2025-05-26T10:31:13Z</time></trkpt>
<trkpt lat="51.28873" lon="5.01091"><ele>27.16</ele><time>2025-05-26T10:31:21Z</time></trkpt>
<trkpt lat="51.288811" lon="5.010424"><ele>26.52</ele><time>2025-05-26T10:31:28Z</time></trkpt>
<trkpt lat="51.288811" lon="5.009914"><ele>26.31</ele><time>2025-05-26T10:31:35Z</time></trkpt>
<trkpt lat="51.288771" lon="5.009355"><ele>27.0</ele><time>2025-05-26T10:31:42Z</time></trkpt>
<trkpt lat="51.287939" lon="5.005427"><ele>24.92</ele><time>2025-05-26T10:31:50Z</time></trkpt>
<trkpt lat="51.287924" lon="5.005301"><ele>24.18</ele><time>2025-05-26T10:31:57Z</time></trkpt>
<trkpt lat="51.287924" lon="5.005301"><ele>24.18</ele><time>2025-05-26T10:31:57Z</time></trkpt>
<trkpt lat="51.288521" lon="5.003713"><ele>23.04</ele><time>2025-05-26T10:32:05Z</time></trkpt>
<trkpt lat="51.28872" lon="5.00313"><ele>22.16</ele><time>2025-05-26T10:32:13Z</time></trkpt>
<trkpt lat="51.289281" lon="5.001313"><ele>20.0</ele><time>2025-05-26T10:32:22Z</time></trkpt>
<trkpt lat="51.289466" lon="5.000835"><ele>20.0</ele><time>2025-05-26T10:32:30Z</time></trkpt>
<trkpt lat="51.288591" lon="4.999823"><ele>19.36</ele><time>2025-05-26T10:32:37Z</time></trkpt>
<trkpt lat="51.288483" lon="4.999657"><ele>19.0</ele><time>2025-05-26T10:32:44Z</time></trkpt>
<trkpt lat="51.287708" lon="4.997812"><ele>18.34</ele><time>2025-05-26T10:32:51Z</time></trkpt>
<trkpt lat="51.287546" lon="4.997517"><ele>18.05</ele><time>2025-05-26T10:32:58Z</time></trkpt>
<trkpt lat="51.287198" lon="4.996924"><ele>19.07</ele><time>2025-05-26T10:33:05Z</time></trkpt>
<trkpt lat="51.28537" lon="4.994137"><ele>17.67</ele><time>2025-05-26T10:33:12Z</time></trkpt>
<trkpt lat="51.283569" lon="4.995866"><ele>21.63</ele><time>2025-05-26T10:33:21Z</time></trkpt>
<trkpt lat="51.28237" lon="4.995966"><ele>21.16</ele><time>2025-05-26T10:33:30Z</time></trkpt>
<trkpt lat="51.282154" lon="4.995964"><ele>23.08</ele><time>2025-05-26T10:33:39Z</time></trkpt>
<trkpt lat="51.278878" lon="4.995353"><ele>22.66</ele><time>2025-05-26T10:33:49Z</time></trkpt>
<trkpt lat="51.275631" lon="4.99459"><ele>20.21</ele><time>2025-05-26T10:33:58Z</time></trkpt>
<trkpt lat="51.273705" lon="4.993393"><ele>16.0</ele><time>2025-05-26T10:34:07Z</time></trkpt>
<trkpt lat="51.273535" lon="4.993364"><ele>16.27</ele><time>2025-05-26T10:34:16Z</time></trkpt>
<trkpt lat="51.270708" lon="4.994854"><ele>17.52</ele><time>2025-05-26T10:34:26Z</time></trkpt>
<trkpt lat="51.27063" lon="4.994872"><ele>17.46</ele><time>2025-05-26T10:34:35Z</time></trkpt>
<trkpt lat="51.270552" lon="4.994855"><ele>17.51</ele><time>2025-05-26T10:34:44Z</time></trkpt>
<trkpt lat="51.268849" lon="4.993872"><ele>20.2</ele><time>2025-05-26T10:34:53Z</time></trkpt>
<trkpt lat="51.268028" lon="4.993788"><ele>20.26</ele><time>2025-05-26T10:35:03Z</time></trkpt>
<trkpt lat="51.267471" lon="4.993623"><ele>19.65</ele><time>2025-05-26T10:35:12Z</time></trkpt>
<trkpt lat="51.267008" lon="4.993419"><ele>16.23</ele><time>2025-05-26T10:35:21Z</time></trkpt>
<trkpt lat="51.266703" lon="4.993251"><ele>16.87</ele><time>2025-05-26T10:35:30Z</time></trkpt>
<trkpt lat="51.265362" lon="4.99244"><ele>18.0</ele><time>2025-05-26T10:35:40Z</time></trkpt>
<trkpt lat="51.264855" lon="4.994601"><ele>16.48</ele><time>2025-05-26T10:36:02Z</time></trkpt>
<trkpt lat="51.264554" lon="4.99606"><ele>17.4</ele><time>2025-05-26T10:36:24Z</time></trkpt>
<trkpt lat="51.264041" lon="4.99783"><ele>17.45</ele><time>2025-05-26T10:36:46Z</time></trkpt>
<trkpt lat="51.264499" lon="4.998154"><ele>17.23</ele><time>2025-05-26T10:37:03Z</time></trkpt>
<trkpt lat="51.264668" lon="4.998342"><ele>18.03</ele><time>2025-05-26T10:37:19Z</time></trkpt>
<trkpt lat="51.266967" lon="5.001827"><ele>20.08</ele><time>2025-05-26T10:37:36Z</time></trkpt>
<trkpt lat="51.26719" lon="5.002134"><ele>20.2</ele><time>2025-05-26T10:37:52Z</time></trkpt>
<trkpt lat="51.267436" lon="5.002375"><ele>20.22</ele><time>2025-05-26T10:38:09Z</time></trkpt>
<trkpt lat="51.265034" lon="5.003267"><ele>17.67</ele><time>2025-05-26T10:38:33Z</time></trkpt>
<trkpt lat="51.264859" lon="5.00337"><ele>18.51</ele><time>2025-05-26T10:38:57Z</time></trkpt>
<trkpt lat="51.264859" lon="5.00337"><ele>18.51</ele><time>2025-05-26T10:38:57Z</time></trkpt>
<trkpt lat="51.26466" lon="5.003539"><ele>19.0</ele><time>2025-05-26T10:39:06Z</time></trkpt>
<trkpt lat="51.264471" lon="5.003767"><ele>18.94</ele><time>2025-05-26T10:39:14Z</time></trkpt>
<trkpt lat="51.263752" lon="5.004816"><ele>18.49</ele><time>2025-05-26T10:39:23Z</time></trkpt>
<trkpt lat="51.262968" lon="5.005904"><ele>19.25</ele><time>2025-05-26T10:39:32Z</time></trkpt>
<trkpt lat="51.262906" lon="5.005981"><ele>19.53</ele><time>2025-05-26T10:39:40Z</time></trkpt>
<trkpt lat="51.26262" lon="5.006235"><ele>20.7</ele><time>2025-05-26T10:39:49Z</time></trkpt>
<trkpt lat="51.26245" lon="5.006353"><ele>21.56</ele><time>2025-05-26T10:39:57Z</time></trkpt>
<trkpt lat="51.262219" lon="5.006473"><ele>21.58</ele><time>2025-05-26T10:40:06Z</time></trkpt>
<trkpt lat="51.261301" lon="5.006754"><ele>19.32</ele><time>2025-05-26T10:40:14Z</time></trkpt>
<trkpt lat="51.261053" lon="5.006888"><ele>20.83</ele><time>2025-05-26T10:40:23Z</time></trkpt>
<trkpt lat="51.259008" lon="5.008344"><ele>21.88</ele><time>2025-05-26T10:40:31Z</time></trkpt>
<trkpt lat="51.258864" lon="5.008476"><ele>21.25</ele><time>2025-05-26T10:40:40Z</time></trkpt>
<trkpt lat="51.258734" lon="5.00865"><ele>20.55</ele><time>2025-05-26T10:40:48Z</time></trkpt>
<trkpt lat="51.258621" lon="5.008902"><ele>21.02</ele><time>2025-05-26T10:40:57Z</time></trkpt>
<trkpt lat="51.258477" lon="5.009525"><ele>18.52</ele><time>2025-05-26T10:41:05Z</time></trkpt>
<trkpt lat="51.258398" lon="5.009769"><ele>18.19</ele><time>2025-05-26T10:41:14Z</time></trkpt>
<trkpt lat="51.258249" lon="5.01001"><ele>18.0</ele><time>2025-05-26T10:41:22Z</time></trkpt>
<trkpt lat="51.258031" lon="5.010258"><ele>18.09</ele><time>2025-05-26T10:41:31Z</time></trkpt>
<trkpt lat="51.257898" lon="5.010198"><ele>18.57</ele><time>2025-05-26T10:41:45Z</time></trkpt>
<trkpt lat="51.257683" lon="5.010169"><ele>19.0</ele><time>2025-05-26T10:41:59Z</time></trkpt>
<trkpt lat="51.256994" lon="5.010178"><ele>19.82</ele><time>2025-05-26T10:42:13Z</time></trkpt>
<trkpt lat="51.25687" lon="5.010239"><ele>19.73</ele><time>2025-05-26T10:42:26Z</time></trkpt>
<trkpt lat="51.256776" lon="5.010368"><ele>19.07</ele><time>2025-05-26T10:42:40Z</time></trkpt>
<trkpt lat="51.256679" lon="5.010603"><ele>18.05</ele><time>2025-05-26T10:42:54Z</time></trkpt>
<trkpt lat="51.256371" lon="5.011614"><ele>18.95</ele><time>2025-05-26T10:43:08Z</time></trkpt>
<trkpt lat="51.255475" lon="5.01589"><ele>16.94</ele><time>2025-05-26T10:43:22Z</time></trkpt>
<trkpt lat="51.255329" lon="5.016471"><ele>16.18</ele><time>2025-05-26T10:43:36Z</time></trkpt>
<trkpt lat="51.254926" lon="5.017193"><ele>15.37</ele><time>2025-05-26T10:43:50Z</time></trkpt>
<trkpt lat="51.252122" lon="5.021782"><ele>20.0</ele><time>2025-05-26T10:44:03Z</time></trkpt>
<trkpt lat="51.252902" lon="5.023464"><ele>18.92</ele><time>2025-05-26T10:44:16Z</time></trkpt>
<trkpt lat="51.253363" lon="5.024544"><ele>24.0</ele><time>2025-05-26T10:44:29Z</time></trkpt>
<trkpt lat="51.254183" lon="5.026598"><ele>25.25</ele><time>2025-05-26T10:44:41Z</time></trkpt>
<trkpt lat="51.256357" lon="5.031934"><ele>22.89</ele><time>2025-05-26T10:44:54Z</time></trkpt>
<trkpt lat="51.258248" lon="5.036585"><ele>18.99</ele><time>2025-05-26T10:45:07Z</time></trkpt>
<trkpt lat="51.261381" lon="5.043686"><ele>19.98</ele><time>2025-05-26T10:45:19Z</time></trkpt>
<trkpt lat="51.26149" lon="5.044021"><ele>20.36</ele><time>2025-05-26T10:45:32Z</time></trkpt>
<trkpt lat="51.261606" lon="5.044558"><ele>21.0</ele><time>2025-05-26T10:45:44Z</time></trkpt>
<trkpt lat="51.261643" lon="5.044846"><ele>21.44</ele><time>2025-05-26T10:45:57Z</time></trkpt>
<trkpt lat="51.261672" lon="5.045578"><ele>24.94</ele><time>2025-05-26T10:46:10Z</time></trkpt>
<trkpt lat="51.261744" lon="5.046172"><ele>23.22</ele><time>2025-05-26T10:46:22Z</time></trkpt>
<trkpt lat="51.262499" lon="5.051273"><ele>24.0</ele><time>2025-05-26T10:46:35Z</time></trkpt>
<trkpt lat="51.26253" lon="5.05189"><ele>22.89</ele><time>2025-05-26T10:46:47Z</time></trkpt>
<trkpt lat="51.262539" lon="5.053034"><ele>20.86</ele><time>2025-05-26T10:47:00Z</time></trkpt>
<trkpt lat="51.260667" lon="5.052979"><ele>18.0</ele><time>2025-05-26T10:47:11Z</time></trkpt>
<trkpt lat="51.260413" lon="5.05306"><ele>18.5</ele><time>2025-05-26T10:47:23Z</time></trkpt>
<trkpt lat="51.260152" lon="5.053193"><ele>18.27</ele><time>2025-05-26T10:47:34Z</time></trkpt>
<trkpt lat="51.258418" lon="5.05463"><ele>20.0</ele><time>2025-05-26T10:47:45Z</time></trkpt>
<trkpt lat="51.25807" lon="5.054867"><ele>19.02</ele><time>2025-05-26T10:47:56Z</time></trkpt>
<trkpt lat="51.256673" lon="5.055567"><ele>21.0</ele><time>2025-05-26T10:48:08Z</time></trkpt>
<trkpt lat="51.256385" lon="5.055592"><ele>21.0</ele><time>2025-05-26T10:48:19Z</time></trkpt>
<trkpt lat="51.256145" lon="5.055557"><ele>21.0</ele><time>2025-05-26T10:48:30Z</time></trkpt>
<trkpt lat="51.254891" lon="5.055479"><ele>19.73</ele><time>2025-05-26T10:48:42Z</time></trkpt>
<trkpt lat="51.254484" lon="5.055376"><ele>19.35</ele><time>2025-05-26T10:48:53Z</time></trkpt>
<trkpt lat="51.254013" lon="5.055163"><ele>21.92</ele><time>2025-05-26T10:49:04Z</time></trkpt>
<trkpt lat="51.253714" lon="5.055084"><ele>24.88</ele><time>2025-05-26T10:49:14Z</time></trkpt>
<trkpt lat="51.253187" lon="5.055029"><ele>27.0</ele><time>2025-05-26T10:49:23Z</time></trkpt>
<trkpt lat="51.252547" lon="5.055012"><ele>26.17</ele><time>2025-05-26T10:49:32Z</time></trkpt>
<trkpt lat="51.251909" lon="5.055054"><ele>25.07</ele><time>2025-05-26T10:49:42Z</time></trkpt>
<trkpt lat="51.250392" lon="5.055319"><ele>28.26</ele><time>2025-05-26T10:49:51Z</time></trkpt>
<trkpt lat="51.248126" lon="5.055465"><ele>28.67</ele><time>2025-05-26T10:50:01Z</time></trkpt>
<trkpt lat="51.246826" lon="5.055657"><ele>23.57</ele><time>2025-05-26T10:50:10Z</time></trkpt>
<trkpt lat="51.246691" lon="5.055693"><ele>23.09</ele><time>2025-05-26T10:50:20Z</time></trkpt>
<trkpt lat="51.246645" lon="5.05558"><ele>22.84</ele><time>2025-05-26T10:50:24Z</time></trkpt>
<trkpt lat="51.245436" lon="5.05261"><ele>19.0</ele><time>2025-05-26T10:50:29Z</time></trkpt>
<trkpt lat="51.244867" lon="5.051299"><ele>18.48</ele><time>2025-05-26T10:50:33Z</time></trkpt>
<trkpt lat="51.244819" lon="5.051226"><ele>18.65</ele><time>2025-05-26T10:50:38Z</time></trkpt>
<trkpt lat="51.244723" lon="5.051162"><ele>19.0</ele><time>2025-05-26T10:50:42Z</time></trkpt>
<trkpt lat="51.244659" lon="5.051165"><ele>18.95</ele><time>2025-05-26T10:50:47Z</time></trkpt>
<trkpt lat="51.244578" lon="5.051208"><ele>18.82</ele><time>2025-05-26T10:50:51Z</time></trkpt>
<trkpt lat="51.24444" lon="5.05139"><ele>18.0</ele><time>2025-05-26T10:50:56Z</time></trkpt>
<trkpt lat="51.244293" lon="5.051678"><ele>17.0</ele><time>2025-05-26T10:51:00Z</time></trkpt>
<trkpt lat="51.244184" lon="5.051969"><ele>17.0</ele><time>2025-05-26T10:51:05Z</time></trkpt>
<trkpt lat="51.243932" lon="5.052751"><ele>18.75</ele><time>2025-05-26T10:51:09Z</time></trkpt>
<trkpt lat="51.243783" lon="5.053269"><ele>18.7</ele><time>2025-05-26T10:51:14Z</time></trkpt>
<trkpt lat="51.243642" lon="5.053585"><ele>18.11</ele><time>2025-05-26T10:51:18Z</time></trkpt>
<trkpt lat="51.243543" lon="5.053718"><ele>18.0</ele><time>2025-05-26T10:51:23Z</time></trkpt>
<trkpt lat="51.243419" lon="5.053838"><ele>18.0</ele><time>2025-05-26T10:51:27Z</time></trkpt>
<trkpt lat="51.24323" lon="5.053933"><ele>18.0</ele><time>2025-05-26T10:51:32Z</time></trkpt>
<trkpt lat="51.242309" lon="5.054041"><ele>18.0</ele><time>2025-05-26T10:51:36Z</time></trkpt>
<trkpt lat="51.241873" lon="5.054068"><ele>18.26</ele><time>2025-05-26T10:51:41Z</time></trkpt>
<trkpt lat="51.241732" lon="5.052824"><ele>18.76</ele><time>2025-05-26T10:51:51Z</time></trkpt>
<trkpt lat="51.241591" lon="5.052192"><ele>19.87</ele><time>2025-05-26T10:52:00Z</time></trkpt>
<trkpt lat="51.241323" lon="5.05124"><ele>20.76</ele><time>2025-05-26T10:52:10Z</time></trkpt>
<trkpt lat="51.241095" lon="5.050178"><ele>18.88</ele><time>2025-05-26T10:52:20Z</time></trkpt>
<trkpt lat="51.240929" lon="5.049146"><ele>18.0</ele><time>2025-05-26T10:52:30Z</time></trkpt>
<trkpt lat="51.240895" lon="5.049036"><ele>18.0</ele><time>2025-05-26T10:52:40Z</time></trkpt>
<trkpt lat="51.240862" lon="5.048985"><ele>18.0</ele><time>2025-05-26T10:52:50Z</time></trkpt>
<trkpt lat="51.240808" lon="5.048957"><ele>18.09</ele><time>2025-05-26T10:52:59Z</time></trkpt>
<trkpt lat="51.236978" lon="5.049637"><ele>18.61</ele><time>2025-05-26T10:53:09Z</time></trkpt>
<trkpt lat="51.236605" lon="5.049662"><ele>18.56</ele><time>2025-05-26T10:53:19Z</time></trkpt>
<trkpt lat="51.236327" lon="5.049618"><ele>17.71</ele><time>2025-05-26T10:53:29Z</time></trkpt>
<trkpt lat="51.235476" lon="5.049379"><ele>20.42</ele><time>2025-05-26T10:53:39Z</time></trkpt>
<trkpt lat="51.23495" lon="5.049169"><ele>26.16</ele><time>2025-05-26T10:53:49Z</time></trkpt>
<trkpt lat="51.234378" lon="5.048778"><ele>27.08</ele><time>2025-05-26T10:53:58Z</time></trkpt>
<trkpt lat="51.234038" lon="5.048454"><ele>26.41</ele><time>2025-05-26T10:54:08Z</time></trkpt>
<trkpt lat="51.23383" lon="5.048194"><ele>26.58</ele><time>2025-05-26T10:54:18Z</time></trkpt>
<trkpt lat="51.233615" lon="5.047872"><ele>26.68</ele><time>2025-05-26T10:54:28Z</time></trkpt>
<trkpt lat="51.233615" lon="5.047872"><ele>26.68</ele><time>2025-05-26T10:54:28Z</time></trkpt>
<trkpt lat="51.234034" lon="5.036193"><ele>22.91</ele><time>2025-05-26T10:57:07Z</time></trkpt>
<trkpt lat="51.234243" lon="5.029618"><ele>22.18</ele><time>2025-05-26T10:59:45Z</time></trkpt>
<trkpt lat="51.234475" lon="5.023158"><ele>21.55</ele><time>2025-05-26T11:02:24Z</time></trkpt>
<trkpt lat="51.236361" lon="5.023262"><ele>22.28</ele><time>2025-05-26T11:02:50Z</time></trkpt>
<trkpt lat="51.237983" lon="5.023491"><ele>17.26</ele><time>2025-05-26T11:03:16Z</time></trkpt>
<trkpt lat="51.238038" lon="5.023455"><ele>17.06</ele><time>2025-05-26T11:03:43Z</time></trkpt>
<trkpt lat="51.238064" lon="5.023318"><ele>17.02</ele><time>2025-05-26T11:04:09Z</time></trkpt>
<trkpt lat="51.238443" lon="5.018583"><ele>16.0</ele><time>2025-05-26T11:04:35Z</time></trkpt>
<trkpt lat="51.238437" lon="5.018229"><ele>16.38</ele><time>2025-05-26T11:05:02Z</time></trkpt>
<trkpt lat="51.237224" lon="5.012245"><ele>15.99</ele><time>2025-05-26T11:05:28Z</time></trkpt>
<trkpt lat="51.236928" lon="5.010701"><ele>16.0</ele><time>2025-05-26T11:05:55Z</time></trkpt>
<trkpt lat="51.236026" lon="5.006251"><ele>15.0</ele><time>2025-05-26T11:06:21Z</time></trkpt>
<trkpt lat="51.236026" lon="5.006251"><ele>15.0</ele><time>2025-05-26T11:06:21Z</time></trkpt>
<trkpt lat="51.235259" lon="5.004174"><ele>14.93</ele><time>2025-05-26T11:06:34Z</time></trkpt>
<trkpt lat="51.235193" lon="5.00389"><ele>14.69</ele><time>2025-05-26T11:06:47Z</time></trkpt>
<trkpt lat="51.234811" lon="5.001494"><ele>15.06</ele><time>2025-05-26T11:06:59Z</time></trkpt>
<trkpt lat="51.234707" lon="5.001124"><ele>15.0</ele><time>2025-05-26T11:07:12Z</time></trkpt>
<trkpt lat="51.234562" lon="5.000731"><ele>14.0</ele><time>2025-05-26T11:07:25Z</time></trkpt>
<trkpt lat="51.233745" lon="4.998706"><ele>14.34</ele><time>2025-05-26T11:07:38Z</time></trkpt>
<trkpt lat="51.232655" lon="4.995858"><ele>15.0</ele><time>2025-05-26T11:07:51Z</time></trkpt>
<trkpt lat="51.231762" lon="4.993893"><ele>14.99</ele><time>2025-05-26T11:08:03Z</time></trkpt>
<trkpt lat="51.232718" lon="4.992716"><ele>14.17</ele><time>2025-05-26T11:08:17Z</time></trkpt>
<trkpt lat="51.232095" lon="4.990661"><ele>15.0</ele><time>2025-05-26T11:08:26Z</time></trkpt>
<trkpt lat="51.232042" lon="4.990362"><ele>15.24</ele><time>2025-05-26T11:08:36Z</time></trkpt>
<trkpt lat="51.231849" lon="4.98798"><ele>18.37</ele><time>2025-05-26T11:08:45Z</time></trkpt>
<trkpt lat="51.231765" lon="4.987686"><ele>18.71</ele><time>2025-05-26T11:08:54Z</time></trkpt>
<trkpt lat="51.231691" lon="4.98756"><ele>18.36</ele><time>2025-05-26T11:09:03Z</time></trkpt>
<trkpt lat="51.230551" lon="4.98612"><ele>13.03</ele><time>2025-05-26T11:09:12Z</time></trkpt>
<trkpt lat="51.22828" lon="4.983124"><ele>13.99</ele><time>2025-05-26T11:09:21Z</time></trkpt>
<trkpt lat="51.227869" lon="4.982481"><ele>16.74</ele><time>2025-05-26T11:09:31Z</time></trkpt>
<trkpt lat="51.226648" lon="4.980469"><ele>15.93</ele><time>2025-05-26T11:09:40Z</time></trkpt>
<trkpt lat="51.226566" lon="4.98023"><ele>15.64</ele><time>2025-05-26T11:09:49Z</time></trkpt>
<trkpt lat="51.226518" lon="4.979984"><ele>15.38</ele><time>2025-05-26T11:09:58Z</time></trkpt>
<trkpt lat="51.226475" lon="4.979615"><ele>13.76</ele><time>2025-05-26T11:10:07Z</time></trkpt>
<trkpt lat="51.226941" lon="4.978485"><ele>14.99</ele><time>2025-05-26T11:10:15Z</time></trkpt>
<trkpt lat="51.227016" lon="4.978378"><ele>15.26</ele><time>2025-05-26T11:10:22Z</time></trkpt>
<trkpt lat="51.227547" lon="4.977946"><ele>18.17</ele><time>2025-05-26T11:10:30Z</time></trkpt>
<trkpt lat="51.227846" lon="4.977732"><ele>18.75</ele><time>2025-05-26T11:10:37Z</time></trkpt>
<trkpt lat="51.228661" lon="4.977245"><ele>15.36</ele><time>2025-05-26T11:10:45Z</time></trkpt>
<trkpt lat="51.228856" lon="4.977094"><ele>17.63</ele><time>2025-05-26T11:10:52Z</time></trkpt>
<trkpt lat="51.228957" lon="4.976939"><ele>19.02</ele><time>2025-05-26T11:11:00Z</time></trkpt>
<trkpt lat="51.227302" lon="4.975234"><ele>17.0</ele><time>2025-05-26T11:11:12Z</time></trkpt>
<trkpt lat="51.226827" lon="4.974702"><ele>16.58</ele><time>2025-05-26T11:11:24Z</time></trkpt>
<trkpt lat="51.226395" lon="4.974125"><ele>16.02</ele><time>2025-05-26T11:11:36Z</time></trkpt>
<trkpt lat="51.226027" lon="4.973556"><ele>17.0</ele><time>2025-05-26T11:11:47Z</time></trkpt>
<trkpt lat="51.220535" lon="4.974955"><ele>21.24</ele><time>2025-05-26T11:12:36Z</time></trkpt>
<trkpt lat="51.212495" lon="4.977026"><ele>15.99</ele><time>2025-05-26T11:13:25Z</time></trkpt>
<trkpt lat="51.2117" lon="4.969168"><ele>14.12</ele><time>2025-05-26T11:13:50Z</time></trkpt>
<trkpt lat="51.211663" lon="4.968923"><ele>14.0</ele><time>2025-05-26T11:14:16Z</time></trkpt>
<trkpt lat="51.211578" lon="4.968534"><ele>14.32</ele><time>2025-05-26T11:14:42Z</time></trkpt>
<trkpt lat="51.211315" lon="4.967732"><ele>14.83</ele><time>2025-05-26T11:15:07Z</time></trkpt>
<trkpt lat="51.211215" lon="4.967432"><ele>14.0</ele><time>2025-05-26T11:15:33Z</time></trkpt>
<trkpt lat="51.20381" lon="4.945499"><ele>12.57</ele><time>2025-05-26T11:15:59Z</time></trkpt>
<trkpt lat="51.207454" lon="4.941742"><ele>11.0</ele><time>2025-05-26T11:16:15Z</time></trkpt>
<trkpt lat="51.20896" lon="4.940111"><ele>12.41</ele><time>2025-05-26T11:16:31Z</time></trkpt>
<trkpt lat="51.209018" lon="4.940012"><ele>12.91</ele><time>2025-05-26T11:16:48Z</time></trkpt>
<trkpt lat="51.209071" lon="4.939858"><ele>13.31</ele><time>2025-05-26T11:17:04Z</time></trkpt>
<trkpt lat="51.209178" lon="4.939381"><ele>13.84</ele><time>2025-05-26T11:17:20Z</time></trkpt>
<trkpt lat="51.209255" lon="4.939226"><ele>13.6</ele><time>2025-05-26T11:17:36Z</time></trkpt>
<trkpt lat="51.209342" lon="4.939107"><ele>13.42</ele><time>2025-05-26T11:17:53Z</time></trkpt>
<trkpt lat="51.209508" lon="4.938947"><ele>12.98</ele><time>2025-05-26T11:18:09Z</time></trkpt>
<trkpt lat="51.210998" lon="4.937524"><ele>12.27</ele><time>2025-05-26T11:18:25Z</time></trkpt>
<trkpt lat="51.21201" lon="4.940663"><ele>11.0</ele><time>2025-05-26T11:19:06Z</time></trkpt>
<trkpt lat="51.212056" lon="4.940732"><ele>11.0</ele><time>2025-05-26T11:19:46Z</time></trkpt>
<trkpt lat="51.212154" lon="4.94074"><ele>11.0</ele><time>2025-05-26T11:20:27Z</time></trkpt>
<trkpt lat="51.212613" lon="4.940328"><ele>11.51</ele><time>2025-05-26T11:21:07Z</time></trkpt>
<trkpt lat="51.212613" lon="4.940328"><ele>11.51</ele><time>2025-05-26T11:21:07Z</time></trkpt>
<trkpt lat="51.216248" lon="4.937173"><ele>13.09</ele><time>2025-05-26T11:24:18Z</time></trkpt>
<trkpt lat="51.215959" lon="4.936099"><ele>13.57</ele><time>2025-05-26T11:24:31Z</time></trkpt>
<trkpt lat="51.215658" lon="4.935061"><ele>14.37</ele><time>2025-05-26T11:24:45Z</time></trkpt>
<trkpt lat="51.216502" lon="4.934359"><ele>14.59</ele><time>2025-05-26T11:24:53Z</time></trkpt>
<trkpt lat="51.216538" lon="4.934258"><ele>14.46</ele><time>2025-05-26T11:25:02Z</time></trkpt>
<trkpt lat="51.21653" lon="4.93414"><ele>14.49</ele><time>2025-05-26T11:25:11Z</time></trkpt>
<trkpt lat="51.216231" lon="4.932452"><ele>14.43</ele><time>2025-05-26T11:25:19Z</time></trkpt>
<trkpt lat="51.216062" lon="4.931803"><ele>15.0</ele><time>2025-05-26T11:25:28Z</time></trkpt>
<trkpt lat="51.215464" lon="4.929734"><ele>14.0</ele><time>2025-05-26T11:25:37Z</time></trkpt>
<trkpt lat="51.21534" lon="4.929166"><ele>14.77</ele><time>2025-05-26T11:25:46Z</time></trkpt>
<trkpt lat="51.215252" lon="4.929025"><ele>15.09</ele><time>2025-05-26T11:25:54Z</time></trkpt>
<trkpt lat="51.215337" lon="4.928749"><ele>15.29</ele><time>2025-05-26T11:25:58Z</time></trkpt>
<trkpt lat="51.2153" lon="4.928646"><ele>15.79</ele><time>2025-05-26T11:26:12Z</time></trkpt>
<trkpt lat="51.214946" lon="4.927175"><ele>15.17</ele><time>2025-05-26T11:26:26Z</time></trkpt>
<trkpt lat="51.213787" lon="4.922985"><ele>15.0</ele><time>2025-05-26T11:26:39Z</time></trkpt>
<trkpt lat="51.21378" lon="4.922888"><ele>15.0</ele><time>2025-05-26T11:26:53Z</time></trkpt>
<trkpt lat="51.213826" lon="4.922818"><ele>15.0</ele><time>2025-05-26T11:27:07Z</time></trkpt>
<trkpt lat="51.215179" lon="4.922632"><ele>17.69</ele><time>2025-05-26T11:27:21Z</time></trkpt>
<trkpt lat="51.215093" lon="4.921799"><ele>18.33</ele><time>2025-05-26T11:27:25Z</time></trkpt>
<trkpt lat="51.215073" lon="4.921664"><ele>18.25</ele><time>2025-05-26T11:27:29Z</time></trkpt>
<trkpt lat="51.215044" lon="4.9216"><ele>17.92</ele><time>2025-05-26T11:27:33Z</time></trkpt>
<trkpt lat="51.215144" lon="4.921474"><ele>17.82</ele><time>2025-05-26T11:27:37Z</time></trkpt>
<trkpt lat="51.215444" lon="4.921205"><ele>19.2</ele><time>2025-05-26T11:27:40Z</time></trkpt>
<trkpt lat="51.215542" lon="4.921169"><ele>19.9</ele><time>2025-05-26T11:27:44Z</time></trkpt>
<trkpt lat="51.215936" lon="4.921561"><ele>23.12</ele><time>2025-05-26T11:27:56Z</time></trkpt>
<trkpt lat="51.216249" lon="4.92184"><ele>24.68</ele><time>2025-05-26T11:28:08Z</time></trkpt>
<trkpt lat="51.217538" lon="4.922551"><ele>28.25</ele><time>2025-05-26T11:28:20Z</time></trkpt>
<trkpt lat="51.21766" lon="4.922571"><ele>29.0</ele><time>2025-05-26T11:28:32Z</time></trkpt>
<trkpt lat="51.217776" lon="4.922555"><ele>29.79</ele><time>2025-05-26T11:28:44Z</time></trkpt>
<trkpt lat="51.219374" lon="4.921923"><ele>28.18</ele><time>2025-05-26T11:28:56Z</time></trkpt>
<trkpt lat="51.220037" lon="4.921658"><ele>23.84</ele><time>2025-05-26T11:29:08Z</time></trkpt>
<trkpt lat="51.220348" lon="4.921483"><ele>22.34</ele><time>2025-05-26T11:29:20Z</time></trkpt>
<trkpt lat="51.220708" lon="4.921223"><ele>21.45</ele><time>2025-05-26T11:29:32Z</time></trkpt>
<trkpt lat="51.22124" lon="4.920893"><ele>21.68</ele><time>2025-05-26T11:29:44Z</time></trkpt>
<trkpt lat="51.222361" lon="4.920053"><ele>22.0</ele><time>2025-05-26T11:29:56Z</time></trkpt>
<trkpt lat="51.222956" lon="4.919659"><ele>19.27</ele><time>2025-05-26T11:30:08Z</time></trkpt>
<trkpt lat="51.223525" lon="4.919329"><ele>18.9</ele><time>2025-05-26T11:30:20Z</time></trkpt>
<trkpt lat="51.223438" lon="4.919092"><ele>18.62</ele><time>2025-05-26T11:30:29Z</time></trkpt>
<trkpt lat="51.223189" lon="4.918204"><ele>17.72</ele><time>2025-05-26T11:30:38Z</time></trkpt>
<trkpt lat="51.223524" lon="4.91805"><ele>18.0</ele><time>2025-05-26T11:30:54Z</time></trkpt>
<trkpt lat="51.224574" lon="4.917011"><ele>19.0</ele><time>2025-05-26T11:31:10Z</time></trkpt>
<trkpt lat="51.225664" lon="4.916469"><ele>18.28</ele><time>2025-05-26T11:31:26Z</time></trkpt>
<trkpt lat="51.226387" lon="4.916138"><ele>18.99</ele><time>2025-05-26T11:31:42Z</time></trkpt>
<trkpt lat="51.226761" lon="4.915947"><ele>18.41</ele><time>2025-05-26T11:31:58Z</time></trkpt>
<trkpt lat="51.226883" lon="4.915855"><ele>18.08</ele><time>2025-05-26T11:32:14Z</time></trkpt>
<trkpt lat="51.227015" lon="4.91572"><ele>18.0</ele><time>2025-05-26T11:32:30Z</time></trkpt>
<trkpt lat="51.227503" lon="4.915012"><ele>18.0</ele><time>2025-05-26T11:32:46Z</time></trkpt>
<trkpt lat="51.227922" lon="4.914491"><ele>16.48</ele><time>2025-05-26T11:33:01Z</time></trkpt>
<trkpt lat="51.231271" lon="4.910488"><ele>16.07</ele><time>2025-05-26T11:33:17Z</time></trkpt>
<trkpt lat="51.236735" lon="4.903938"><ele>13.18</ele><time>2025-05-26T11:33:33Z</time></trkpt>
<trkpt lat="51.236527" lon="4.903505"><ele>14.19</ele><time>2025-05-26T11:33:41Z</time></trkpt>
<trkpt lat="51.236427" lon="4.903246"><ele>15.09</ele><time>2025-05-26T11:33:49Z</time></trkpt>
<trkpt lat="51.236213" lon="4.902418"><ele>13.7</ele><time>2025-05-26T11:33:57Z</time></trkpt>
<trkpt lat="51.236147" lon="4.901893"><ele>12.0</ele><time>2025-05-26T11:34:04Z</time></trkpt>
<trkpt lat="51.235951" lon="4.901235"><ele>12.0</ele><time>2025-05-26T11:34:12Z</time></trkpt>
<trkpt lat="51.235884" lon="4.900953"><ele>12.0</ele><time>2025-05-26T11:34:20Z</time></trkpt>
<trkpt lat="51.235682" lon="4.899497"><ele>12.45</ele><time>2025-05-26T11:34:28Z</time></trkpt>
<trkpt lat="51.235286" lon="4.897666"><ele>10.95</ele><time>2025-05-26T11:34:35Z</time></trkpt>
<trkpt lat="51.235231" lon="4.897459"><ele>11.34</ele><time>2025-05-26T11:34:43Z</time></trkpt>
<trkpt lat="51.235151" lon="4.89738"><ele>11.91</ele><time>2025-05-26T11:34:51Z</time></trkpt>
<trkpt lat="51.235121" lon="4.89738"><ele>12.13</ele><time>2025-05-26T11:34:59Z</time></trkpt>
<trkpt lat="51.233169" lon="4.898164"><ele>12.16</ele><time>2025-05-26T11:35:06Z</time></trkpt>
<trkpt lat="51.233276" lon="4.898826"><ele>12.79</ele><time>2025-05-26T11:35:11Z</time></trkpt>
<trkpt lat="51.233278" lon="4.899193"><ele>12.89</ele><time>2025-05-26T11:35:16Z</time></trkpt>
<trkpt lat="51.233245" lon="4.899433"><ele>13.64</ele><time>2025-05-26T11:35:20Z</time></trkpt>
<trkpt lat="51.233128" lon="4.89978"><ele>14.47</ele><time>2025-05-26T11:35:25Z</time></trkpt>
<trkpt lat="51.232686" lon="4.900589"><ele>13.67</ele><time>2025-05-26T11:35:29Z</time></trkpt>
<trkpt lat="51.232651" lon="4.900598"><ele>13.54</ele><time>2025-05-26T11:35:34Z</time></trkpt>
<trkpt lat="51.232651" lon="4.900598"><ele>13.54</ele><time>2025-05-26T11:35:34Z</time></trkpt>
<trkpt lat="51.232686" lon="4.900589"><ele>13.67</ele><time>2025-05-26T11:35:38Z</time></trkpt>
<trkpt lat="51.233128" lon="4.89978"><ele>14.47</ele><time>2025-05-26T11:35:43Z</time></trkpt>
<trkpt lat="51.233245" lon="4.899433"><ele>13.64</ele><time>2025-05-26T11:35:47Z</time></trkpt>
<trkpt lat="51.233278" lon="4.899193"><ele>12.89</ele><time>2025-05-26T11:35:52Z</time></trkpt>
<trkpt lat="51.233276" lon="4.898826"><ele>12.79</ele><time>2025-05-26T11:35:56Z</time></trkpt>
<trkpt lat="51.233169" lon="4.898164"><ele>12.16</ele><time>2025-05-26T11:36:01Z</time></trkpt>
<trkpt lat="51.232414" lon="4.898455"><ele>13.69</ele><time>2025-05-26T11:36:13Z</time></trkpt>
<trkpt lat="51.232137" lon="4.896154"><ele>13.0</ele><time>2025-05-26T11:36:27Z</time></trkpt>
<trkpt lat="51.232168" lon="4.895624"><ele>13.0</ele><time>2025-05-26T11:36:41Z</time></trkpt>
<trkpt lat="51.232382" lon="4.894217"><ele>14.07</ele><time>2025-05-26T11:36:55Z</time></trkpt>
<trkpt lat="51.232493" lon="4.891791"><ele>11.97</ele><time>2025-05-26T11:37:09Z</time></trkpt>
<trkpt lat="51.232485" lon="4.89153"><ele>11.97</ele><time>2025-05-26T11:37:24Z</time></trkpt>
<trkpt lat="51.232427" lon="4.891283"><ele>12.0</ele><time>2025-05-26T11:37:38Z</time></trkpt>
<trkpt lat="51.231988" lon="4.890157"><ele>11.72</ele><time>2025-05-26T11:37:52Z</time></trkpt>
<trkpt lat="51.230215" lon="4.890722"><ele>12.77</ele><time>2025-05-26T11:38:00Z</time></trkpt>
<trkpt lat="51.228354" lon="4.891166"><ele>13.93</ele><time>2025-05-26T11:38:08Z</time></trkpt>
<trkpt lat="51.228395" lon="4.891415"><ele>13.78</ele><time>2025-05-26T11:38:17Z</time></trkpt>
<trkpt lat="51.228411" lon="4.891635"><ele>13.72</ele><time>2025-05-26T11:38:25Z</time></trkpt>
<trkpt lat="51.228396" lon="4.89185"><ele>13.77</ele><time>2025-05-26T11:38:33Z</time></trkpt>
<trkpt lat="51.228351" lon="4.892031"><ele>13.94</ele><time>2025-05-26T11:38:42Z</time></trkpt>
<trkpt lat="51.228299" lon="4.892141"><ele>14.0</ele><time>2025-05-26T11:38:50Z</time></trkpt>
<trkpt lat="51.228189" lon="4.892283"><ele>14.0</ele><time>2025-05-26T11:38:58Z</time></trkpt>
<trkpt lat="51.227811" lon="4.892536"><ele>14.88</ele><time>2025-05-26T11:39:06Z</time></trkpt>
<trkpt lat="51.226895" lon="4.892932"><ele>17.0</ele><time>2025-05-26T11:39:15Z</time></trkpt>
<trkpt lat="51.226434" lon="4.893105"><ele>16.82</ele><time>2025-05-26T11:39:23Z</time></trkpt>
<trkpt lat="51.226051" lon="4.893211"><ele>16.56</ele><time>2025-05-26T11:39:31Z</time></trkpt>
<trkpt lat="51.225971" lon="4.893269"><ele>16.62</ele><time>2025-05-26T11:39:40Z</time></trkpt>
<trkpt lat="51.226121" lon="4.890754"><ele>15.72</ele><time>2025-05-26T11:39:54Z</time></trkpt>
<trkpt lat="51.226113" lon="4.890117"><ele>15.02</ele><time>2025-05-26T11:40:07Z</time></trkpt>
<trkpt lat="51.226059" lon="4.889712"><ele>16.03</ele><time>2025-05-26T11:40:21Z</time></trkpt>
<trkpt lat="51.224762" lon="4.882376"><ele>14.0</ele><time>2025-05-26T11:40:35Z</time></trkpt>
<trkpt lat="51.223544" lon="4.873506"><ele>14.24</ele><time>2025-05-26T11:40:49Z</time></trkpt>
<trkpt lat="51.223188" lon="4.870969"><ele>14.51</ele><time>2025-05-26T11:41:03Z</time></trkpt>
<trkpt lat="51.22309" lon="4.870396"><ele>16.64</ele><time>2025-05-26T11:41:17Z</time></trkpt>
<trkpt lat="51.222973" lon="4.869963"><ele>17.24</ele><time>2025-05-26T11:41:31Z</time></trkpt>
<trkpt lat="51.222841" lon="4.869601"><ele>16.68</ele><time>2025-05-26T11:41:45Z</time></trkpt>
<trkpt lat="51.222608" lon="4.869101"><ele>13.78</ele><time>2025-05-26T11:41:59Z</time></trkpt>
<trkpt lat="51.221045" lon="4.866495"><ele>13.09</ele><time>2025-05-26T11:42:13Z</time></trkpt>
<trkpt lat="51.220817" lon="4.866039"><ele>12.8</ele><time>2025-05-26T11:42:27Z</time></trkpt>
<trkpt lat="51.220899" lon="4.865909"><ele>12.27</ele><time>2025-05-26T11:42:33Z</time></trkpt>
<trkpt lat="51.221068" lon="4.865528"><ele>11.9</ele><time>2025-05-26T11:42:40Z</time></trkpt>
<trkpt lat="51.22162" lon="4.864487"><ele>11.83</ele><time>2025-05-26T11:42:47Z</time></trkpt>
<trkpt lat="51.221718" lon="4.864261"><ele>11.15</ele><time>2025-05-26T11:42:54Z</time></trkpt>
<trkpt lat="51.22256" lon="4.861823"><ele>9.78</ele><time>2025-05-26T11:43:01Z</time></trkpt>
<trkpt lat="51.222609" lon="4.86162"><ele>9.77</ele><time>2025-05-26T11:43:08Z</time></trkpt>
<trkpt lat="51.222636" lon="4.861428"><ele>10.37</ele><time>2025-05-26T11:43:15Z</time></trkpt>
<trkpt lat="51.222658" lon="4.860572"><ele>11.57</ele><time>2025-05-26T11:43:22Z</time></trkpt>
<trkpt lat="51.222691" lon="4.860416"><ele>11.63</ele><time>2025-05-26T11:43:28Z</time></trkpt>
<trkpt lat="51.222691" lon="4.860416"><ele>11.63</ele><time>2025-05-26T11:43:28Z</time></trkpt>
<trkpt lat="51.222764" lon="4.860203"><ele>11.95</ele><time>2025-05-26T11:43:43Z</time></trkpt>
<trkpt lat="51.222867" lon="4.859973"><ele>11.9</ele><time>2025-05-26T11:43:57Z</time></trkpt>
<trkpt lat="51.224005" lon="4.857935"><ele>10.0</ele><time>2025-05-26T11:44:11Z</time></trkpt>
<trkpt lat="51.224141" lon="4.857747"><ele>9.91</ele><time>2025-05-26T11:44:25Z</time></trkpt>
<trkpt lat="51.224282" lon="4.857592"><ele>9.19</ele><time>2025-05-26T11:44:39Z</time></trkpt>
<trkpt lat="51.224467" lon="4.857456"><ele>9.08</ele><time>2025-05-26T11:44:53Z</time></trkpt>
<trkpt lat="51.224662" lon="4.857353"><ele>9.78</ele><time>2025-05-26T11:45:07Z</time></trkpt>
<trkpt lat="51.226834" lon="4.856437"><ele>10.71</ele><time>2025-05-26T11:45:21Z</time></trkpt>
<trkpt lat="51.232653" lon="4.854523"><ele>13.94</ele><time>2025-05-26T11:45:35Z</time></trkpt>
<trkpt lat="51.232915" lon="4.855817"><ele>12.0</ele><time>2025-05-26T11:45:53Z</time></trkpt>
<trkpt lat="51.232924" lon="4.85615"><ele>12.0</ele><time>2025-05-26T11:46:10Z</time></trkpt>
<trkpt lat="51.231857" lon="4.861385"><ele>13.0</ele><time>2025-05-26T11:46:28Z</time></trkpt>
<trkpt lat="51.231867" lon="4.861586"><ele>12.29</ele><time>2025-05-26T11:46:45Z</time></trkpt>
<trkpt lat="51.231933" lon="4.861842"><ele>12.0</ele><time>2025-05-26T11:47:03Z</time></trkpt>
<trkpt lat="51.232073" lon="4.862034"><ele>11.83</ele><time>2025-05-26T11:47:21Z</time></trkpt>
<trkpt lat="51.239178" lon="4.869431"><ele>14.08</ele><time>2025-05-26T11:47:38Z</time></trkpt>
<trkpt lat="51.239291" lon="4.869446"><ele>14.89</ele><time>2025-05-26T11:47:56Z</time></trkpt>
<trkpt lat="51.239359" lon="4.869413"><ele>15.39</ele><time>2025-05-26T11:48:14Z</time></trkpt>
<trkpt lat="51.240837" lon="4.867839"><ele>17.97</ele><time>2025-05-26T11:48:31Z</time></trkpt>
<trkpt lat="51.240979" lon="4.867724"><ele>16.86</ele><time>2025-05-26T11:48:49Z</time></trkpt>
<trkpt lat="51.242733" lon="4.865914"><ele>16.13</ele><time>2025-05-26T11:49:06Z</time></trkpt>
<trkpt lat="51.24289" lon="4.86622"><ele>16.35</ele><time>2025-05-26T11:49:48Z</time></trkpt>
<trkpt lat="51.243436" lon="4.867119"><ele>17.63</ele><time>2025-05-26T11:50:29Z</time></trkpt>
<trkpt lat="51.244634" lon="4.868936"><ele>18.27</ele><time>2025-05-26T11:51:10Z</time></trkpt>
<trkpt lat="51.244634" lon="4.868936"><ele>18.27</ele><time>2025-05-26T11:51:10Z</time></trkpt>
<trkpt lat="51.244667" lon="4.86908"><ele>17.79</ele><time>2025-05-26T11:51:24Z</time></trkpt>
<trkpt lat="51.244586" lon="4.869898"><ele>18.97</ele><time>2025-05-26T11:51:38Z</time></trkpt>
<trkpt lat="51.244562" lon="4.870383"><ele>18.2</ele><time>2025-05-26T11:51:52Z</time></trkpt>
<trkpt lat="51.244496" lon="4.870837"><ele>16.16</ele><time>2025-05-26T11:52:06Z</time></trkpt>
<trkpt lat="51.2452" lon="4.871437"><ele>15.82</ele><time>2025-05-26T11:52:14Z</time></trkpt>
<trkpt lat="51.245558" lon="4.871783"><ele>13.99</ele><time>2025-05-26T11:52:23Z</time></trkpt>
<trkpt lat="51.246538" lon="4.872797"><ele>13.54</ele><time>2025-05-26T11:52:32Z</time></trkpt>
<trkpt lat="51.246692" lon="4.872939"><ele>14.18</ele><time>2025-05-26T11:52:41Z</time></trkpt>
<trkpt lat="51.246849" lon="4.873048"><ele>15.31</ele><time>2025-05-26T11:52:49Z</time></trkpt>
<trkpt lat="51.24736" lon="4.873333"><ele>14.5</ele><time>2025-05-26T11:52:58Z</time></trkpt>
<trkpt lat="51.247526" lon="4.87346"><ele>14.27</ele><time>2025-05-26T11:53:07Z</time></trkpt>
<trkpt lat="51.248984" lon="4.874889"><ele>15.68</ele><time>2025-05-26T11:53:15Z</time></trkpt>
<trkpt lat="51.249281" lon="4.875135"><ele>16.51</ele><time>2025-05-26T11:53:24Z</time></trkpt>
<trkpt lat="51.249633" lon="4.875336"><ele>16.4</ele><time>2025-05-26T11:53:33Z</time></trkpt>
<trkpt lat="51.25418" lon="4.877262"><ele>14.81</ele><time>2025-05-26T11:53:41Z</time></trkpt>
<trkpt lat="51.254498" lon="4.877415"><ele>13.81</ele><time>2025-05-26T11:53:50Z</time></trkpt>
<trkpt lat="51.254565" lon="4.877489"><ele>13.57</ele><time>2025-05-26T11:53:59Z</time></trkpt>
<trkpt lat="51.254639" lon="4.877619"><ele>13.6</ele><time>2025-05-26T11:54:07Z</time></trkpt>
<trkpt lat="51.255142" lon="4.87883"><ele>18.32</ele><time>2025-05-26T11:54:16Z</time></trkpt>
<trkpt lat="51.255186" lon="4.878903"><ele>19.01</ele><time>2025-05-26T11:54:25Z</time></trkpt>
<trkpt lat="51.255294" lon="4.878779"><ele>19.66</ele><time>2025-05-26T11:54:37Z</time></trkpt>
<trkpt lat="51.259924" lon="4.874496"><ele>17.45</ele><time>2025-05-26T11:54:50Z</time></trkpt>
<trkpt lat="51.261361" lon="4.873197"><ele>14.51</ele><time>2025-05-26T11:55:03Z</time></trkpt>
<trkpt lat="51.261567" lon="4.873075"><ele>15.35</ele><time>2025-05-26T11:55:15Z</time></trkpt>
<trkpt lat="51.262953" lon="4.872468"><ele>16.0</ele><time>2025-05-26T11:55:28Z</time></trkpt>
<trkpt lat="51.265333" lon="4.87079"><ele>18.0</ele><time>2025-05-26T11:55:41Z</time></trkpt>
<trkpt lat="51.26543" lon="4.870677"><ele>18.0</ele><time>2025-05-26T11:55:53Z</time></trkpt>
<trkpt lat="51.265654" lon="4.870301"><ele>18.92</ele><time>2025-05-26T11:56:06Z</time></trkpt>
<trkpt lat="51.266834" lon="4.867905"><ele>19.42</ele><time>2025-05-26T11:56:19Z</time></trkpt>
<trkpt lat="51.266888" lon="4.867794"><ele>19.78</ele><time>2025-05-26T11:56:31Z</time></trkpt>
<trkpt lat="51.267135" lon="4.868222"><ele>20.09</ele><time>2025-05-26T11:56:35Z</time></trkpt>
<trkpt lat="51.267181" lon="4.86826"><ele>20.11</ele><time>2025-05-26T11:56:38Z</time></trkpt>
<trkpt lat="51.267246" lon="4.868273"><ele>20.13</ele><time>2025-05-26T11:56:41Z</time></trkpt>
<trkpt lat="51.267288" lon="4.868248"><ele>20.07</ele><time>2025-05-26T11:56:44Z</time></trkpt>
<trkpt lat="51.267508" lon="4.867991"><ele>19.97</ele><time>2025-05-26T11:56:47Z</time></trkpt>
<trkpt lat="51.267577" lon="4.867911"><ele>19.72</ele><time>2025-05-26T11:56:50Z</time></trkpt>
<trkpt lat="51.267761" lon="4.867739"><ele>19.19</ele><time>2025-05-26T11:56:54Z</time></trkpt>
<trkpt lat="51.267827" lon="4.8677"><ele>19.41</ele><time>2025-05-26T11:56:57Z</time></trkpt>
<trkpt lat="51.267955" lon="4.867699"><ele>19.74</ele><time>2025-05-26T11:57:00Z</time></trkpt>
<trkpt lat="51.268064" lon="4.867585"><ele>19.99</ele><time>2025-05-26T11:57:03Z</time></trkpt>
<trkpt lat="51.268047" lon="4.86732"><ele>20.0</ele><time>2025-05-26T11:57:05Z</time></trkpt>
<trkpt lat="51.267302" lon="4.867064"><ele>19.43</ele><time>2025-05-26T11:57:12Z</time></trkpt>
<trkpt lat="51.267219" lon="4.867079"><ele>19.47</ele><time>2025-05-26T11:57:19Z</time></trkpt>
<trkpt lat="51.267057" lon="4.867199"><ele>19.32</ele><time>2025-05-26T11:57:27Z</time></trkpt>
<trkpt lat="51.266867" lon="4.867437"><ele>19.0</ele><time>2025-05-26T11:57:34Z</time></trkpt>
<trkpt lat="51.266734" lon="4.867471"><ele>19.0</ele><time>2025-05-26T11:57:35Z</time></trkpt>
<trkpt lat="51.265005" lon="4.864695"><ele>18.0</ele><time>2025-05-26T11:58:11Z</time></trkpt>
<trkpt lat="51.262003" lon="4.860032"><ele>17.79</ele><time>2025-05-26T11:58:46Z</time></trkpt>
<trkpt lat="51.261544" lon="4.859343"><ele>17.08</ele><time>2025-05-26T11:59:21Z</time></trkpt>
<trkpt lat="51.262217" lon="4.857992"><ele>17.98</ele><time>2025-05-26T12:00:11Z</time></trkpt>
<trkpt lat="51.262227" lon="4.85799"><ele>17.38</ele><time>2025-05-26T12:00:11Z</time></trkpt>
<trkpt lat="51.262227" lon="4.85799"><ele>17.38</ele><time>2025-05-26T12:00:11Z</time></trkpt>
<trkpt lat="51.262217" lon="4.857992"><ele>17.98</ele><time>2025-05-26T12:00:11Z</time></trkpt>
<trkpt lat="51.262267" lon="4.857726"><ele>17.84</ele><time>2025-05-26T12:00:16Z</time></trkpt>
<trkpt lat="51.262258" lon="4.857576"><ele>17.87</ele><time>2025-05-26T12:00:21Z</time></trkpt>
<trkpt lat="51.262188" lon="4.857236"><ele>17.88</ele><time>2025-05-26T12:00:26Z</time></trkpt>
<trkpt lat="51.261768" lon="4.855549"><ele>15.62</ele><time>2025-05-26T12:00:31Z</time></trkpt>
<trkpt lat="51.261615" lon="4.855032"><ele>15.19</ele><time>2025-05-26T12:00:36Z</time></trkpt>
<trkpt lat="51.261124" lon="4.853633"><ele>19.83</ele><time>2025-05-26T12:00:41Z</time></trkpt>
<trkpt lat="51.261112" lon="4.853443"><ele>20.6</ele><time>2025-05-26T12:00:46Z</time></trkpt>
<trkpt lat="51.26113" lon="4.853343"><ele>20.83</ele><time>2025-05-26T12:00:51Z</time></trkpt>
<trkpt lat="51.261188" lon="4.853198"><ele>21.56</ele><time>2025-05-26T12:00:56Z</time></trkpt>
<trkpt lat="51.261237" lon="4.853127"><ele>21.91</ele><time>2025-05-26T12:01:00Z</time></trkpt>
<trkpt lat="51.261374" lon="4.853035"><ele>22.2</ele><time>2025-05-26T12:01:05Z</time></trkpt>
<trkpt lat="51.260805" lon="4.850809"><ele>18.09</ele><time>2025-05-26T12:01:32Z</time></trkpt>
<trkpt lat="51.260683" lon="4.850639"><ele>18.16</ele><time>2025-05-26T12:01:58Z</time></trkpt>
<trkpt lat="51.260431" lon="4.850416"><ele>18.23</ele><time>2025-05-26T12:02:25Z</time></trkpt>
<trkpt lat="51.260381" lon="4.850342"><ele>18.48</ele><time>2025-05-26T12:02:52Z</time></trkpt>
<trkpt lat="51.259871" lon="4.849234"><ele>18.49</ele><time>2025-05-26T12:03:18Z</time></trkpt>
<trkpt lat="51.258501" lon="4.848597"><ele>19.4</ele><time>2025-05-26T12:03:43Z</time></trkpt>
<trkpt lat="51.2584" lon="4.848534"><ele>19.76</ele><time>2025-05-26T12:04:07Z</time></trkpt>
<trkpt lat="51.258301" lon="4.848437"><ele>19.89</ele><time>2025-05-26T12:04:32Z</time></trkpt>
<trkpt lat="51.258077" lon="4.847528"><ele>17.01</ele><time>2025-05-26T12:04:57Z</time></trkpt>
<trkpt lat="51.257714" lon="4.846294"><ele>16.66</ele><time>2025-05-26T12:05:21Z</time></trkpt>
<trkpt lat="51.257535" lon="4.845877"><ele>15.16</ele><time>2025-05-26T12:05:46Z</time></trkpt>
<trkpt lat="51.257307" lon="4.845532"><ele>14.92</ele><time>2025-05-26T12:06:11Z</time></trkpt>
<trkpt lat="51.257521" lon="4.844917"><ele>13.95</ele><time>2025-05-26T12:06:34Z</time></trkpt>
<trkpt lat="51.257604" lon="4.844498"><ele>14.0</ele><time>2025-05-26T12:06:58Z</time></trkpt>
<trkpt lat="51.257876" lon="4.842567"><ele>20.17</ele><time>2025-05-26T12:07:22Z</time></trkpt>
<trkpt lat="51.257911" lon="4.842418"><ele>21.21</ele><time>2025-05-26T12:07:45Z</time></trkpt>
<trkpt lat="51.257911" lon="4.842418"><ele>21.21</ele><time>2025-05-26T12:07:45Z</time></trkpt>
<trkpt lat="51.258293" lon="4.842697"><ele>23.39</ele><time>2025-05-26T12:08:07Z</time></trkpt>
<trkpt lat="51.25858" lon="4.842827"><ele>23.69</ele><time>2025-05-26T12:08:28Z</time></trkpt>
<trkpt lat="51.258733" lon="4.842849"><ele>23.42</ele><time>2025-05-26T12:08:49Z</time></trkpt>
<trkpt lat="51.258837" lon="4.842822"><ele>23.16</ele><time>2025-05-26T12:09:10Z</time></trkpt>
<trkpt lat="51.259581" lon="4.842185"><ele>22.32</ele><time>2025-05-26T12:09:32Z</time></trkpt>
<trkpt lat="51.260092" lon="4.841898"><ele>17.17</ele><time>2025-05-26T12:09:53Z</time></trkpt>
<trkpt lat="51.26045" lon="4.841767"><ele>18.26</ele><time>2025-05-26T12:10:14Z</time></trkpt>
<trkpt lat="51.260669" lon="4.841857"><ele>19.14</ele><time>2025-05-26T12:10:35Z</time></trkpt>
<trkpt lat="51.260884" lon="4.84188"><ele>20.41</ele><time>2025-05-26T12:10:57Z</time></trkpt>
<trkpt lat="51.261088" lon="4.841999"><ele>20.52</ele><time>2025-05-26T12:11:18Z</time></trkpt>
<trkpt lat="51.261628" lon="4.842197"><ele>18.23</ele><time>2025-05-26T12:11:39Z</time></trkpt>
<trkpt lat="51.261886" lon="4.842249"><ele>16.4</ele><time>2025-05-26T12:12:01Z</time></trkpt>
<trkpt lat="51.261987" lon="4.842335"><ele>15.85</ele><time>2025-05-26T12:12:22Z</time></trkpt>
<trkpt lat="51.262949" lon="4.84423"><ele>14.77</ele><time>2025-05-26T12:12:43Z</time></trkpt>
<trkpt lat="51.263974" lon="4.844775"><ele>19.42</ele><time>2025-05-26T12:13:04Z</time></trkpt>
<trkpt lat="51.26394" lon="4.845154"><ele>18.26</ele><time>2025-05-26T12:13:15Z</time></trkpt>
<trkpt lat="51.268571" lon="4.844609"><ele>16.59</ele><time>2025-05-26T12:16:49Z</time></trkpt>
<trkpt lat="51.268912" lon="4.846341"><ele>19.08</ele><time>2025-05-26T12:17:41Z</time></trkpt>
<trkpt lat="51.269" lon="4.846286"><ele>19.4</ele><time>2025-05-26T12:18:06Z</time></trkpt>
<trkpt lat="51.270531" lon="4.846054"><ele>21.37</ele><time>2025-05-26T12:18:31Z</time></trkpt>
<trkpt lat="51.272934" lon="4.846138"><ele>17.09</ele><time>2025-05-26T12:18:56Z</time></trkpt>
<trkpt lat="51.273839" lon="4.847115"><ele>16.79</ele><time>2025-05-26T12:19:01Z</time></trkpt>
<trkpt lat="51.274062" lon="4.847391"><ele>16.13</ele><time>2025-05-26T12:19:06Z</time></trkpt>
<trkpt lat="51.274297" lon="4.847943"><ele>18.07</ele><time>2025-05-26T12:19:10Z</time></trkpt>
<trkpt lat="51.274407" lon="4.848313"><ele>19.79</ele><time>2025-05-26T12:19:15Z</time></trkpt>
<trkpt lat="51.274534" lon="4.848884"><ele>19.36</ele><time>2025-05-26T12:19:20Z</time></trkpt>
<trkpt lat="51.274638" lon="4.849499"><ele>18.0</ele><time>2025-05-26T12:19:25Z</time></trkpt>
<trkpt lat="51.274635" lon="4.84973"><ele>18.0</ele><time>2025-05-26T12:19:30Z</time></trkpt>
<trkpt lat="51.274751" lon="4.850664"><ele>18.0</ele><time>2025-05-26T12:19:37Z</time></trkpt>
<trkpt lat="51.274751" lon="4.850664"><ele>18.0</ele><time>2025-05-26T12:19:37Z</time></trkpt>
<trkpt lat="51.275422" lon="4.850465"><ele>16.81</ele><time>2025-05-26T12:19:45Z</time></trkpt>
<trkpt lat="51.276355" lon="4.850153"><ele>16.88</ele><time>2025-05-26T12:19:54Z</time></trkpt>
<trkpt lat="51.277492" lon="4.849669"><ele>17.0</ele><time>2025-05-26T12:20:03Z</time></trkpt>
<trkpt lat="51.277793" lon="4.849484"><ele>17.0</ele><time>2025-05-26T12:20:11Z</time></trkpt>
<trkpt lat="51.277945" lon="4.849349"><ele>17.34</ele><time>2025-05-26T12:20:20Z</time></trkpt>
<trkpt lat="51.278449" lon="4.848724"><ele>19.17</ele><time>2025-05-26T12:20:29Z</time></trkpt>
<trkpt lat="51.278808" lon="4.84822"><ele>17.88</ele><time>2025-05-26T12:20:37Z</time></trkpt>
<trkpt lat="51.278864" lon="4.848033"><ele>17.08</ele><time>2025-05-26T12:20:46Z</time></trkpt>
<trkpt lat="51.278787" lon="4.845465"><ele>20.88</ele><time>2025-05-26T12:20:55Z</time></trkpt>
<trkpt lat="51.278805" lon="4.845133"><ele>20.7</ele><time>2025-05-26T12:21:03Z</time></trkpt>
<trkpt lat="51.278867" lon="4.8449"><ele>20.92</ele><time>2025-05-26T12:21:12Z</time></trkpt>
<trkpt lat="51.278935" lon="4.844728"><ele>21.17</ele><time>2025-05-26T12:21:21Z</time></trkpt>
<trkpt lat="51.279195" lon="4.844319"><ele>21.94</ele><time>2025-05-26T12:21:29Z</time></trkpt>
<trkpt lat="51.280714" lon="4.842036"><ele>24.24</ele><time>2025-05-26T12:21:38Z</time></trkpt>
<trkpt lat="51.280313" lon="4.841263"><ele>22.25</ele><time>2025-05-26T12:21:44Z</time></trkpt>
<trkpt lat="51.280257" lon="4.841079"><ele>21.81</ele><time>2025-05-26T12:21:51Z</time></trkpt>
<trkpt lat="51.28025" lon="4.840961"><ele>21.36</ele><time>2025-05-26T12:21:57Z</time></trkpt>
<trkpt lat="51.280266" lon="4.840837"><ele>20.97</ele><time>2025-05-26T12:22:04Z</time></trkpt>
<trkpt lat="51.280483" lon="4.840181"><ele>21.22</ele><time>2025-05-26T12:22:10Z</time></trkpt>
<trkpt lat="51.280561" lon="4.840001"><ele>22.02</ele><time>2025-05-26T12:22:17Z</time></trkpt>
<trkpt lat="51.280899" lon="4.839532"><ele>22.24</ele><time>2025-05-26T12:22:23Z</time></trkpt>
<trkpt lat="51.281805" lon="4.837529"><ele>25.5</ele><time>2025-05-26T12:22:30Z</time></trkpt>
<trkpt lat="51.281894" lon="4.837411"><ele>25.82</ele><time>2025-05-26T12:22:36Z</time></trkpt>
<trkpt lat="51.282068" lon="4.837337"><ele>25.56</ele><time>2025-05-26T12:22:43Z</time></trkpt>
<trkpt lat="51.282603" lon="4.837186"><ele>21.31</ele><time>2025-05-26T12:22:49Z</time></trkpt>
<trkpt lat="51.282674" lon="4.837119"><ele>20.98</ele><time>2025-05-26T12:22:56Z</time></trkpt>
<trkpt lat="51.282748" lon="4.836908"><ele>21.11</ele><time>2025-05-26T12:23:02Z</time></trkpt>
<trkpt lat="51.283171" lon="4.835392"><ele>26.76</ele><time>2025-05-26T12:23:09Z</time></trkpt>
<trkpt lat="51.283289" lon="4.834931"><ele>27.91</ele><time>2025-05-26T12:23:15Z</time></trkpt>
<trkpt lat="51.2833" lon="4.834854"><ele>27.59</ele><time>2025-05-26T12:23:22Z</time></trkpt>
<trkpt lat="51.283289" lon="4.834741"><ele>27.23</ele><time>2025-05-26T12:23:28Z</time></trkpt>
<trkpt lat="51.283304" lon="4.834715"><ele>24.07</ele><time>2025-05-26T12:23:30Z</time></trkpt>
<trkpt lat="51.283304" lon="4.834715"><ele>24.07</ele><time>2025-05-26T12:23:30Z</time></trkpt>
<trkpt lat="51.283289" lon="4.834741"><ele>27.23</ele><time>2025-05-26T12:23:31Z</time></trkpt>
<trkpt lat="51.282654" lon="4.83337"><ele>24.52</ele><time>2025-05-26T12:23:39Z</time></trkpt>
<trkpt lat="51.282506" lon="4.832984"><ele>23.98</ele><time>2025-05-26T12:23:46Z</time></trkpt>
<trkpt lat="51.28236" lon="4.832726"><ele>24.41</ele><time>2025-05-26T12:23:54Z</time></trkpt>
<trkpt lat="51.281537" lon="4.832527"><ele>20.7</ele><time>2025-05-26T12:24:17Z</time></trkpt>
<trkpt lat="51.280872" lon="4.832394"><ele>22.42</ele><time>2025-05-26T12:24:40Z</time></trkpt>
<trkpt lat="51.280649" lon="4.832318"><ele>23.01</ele><time>2025-05-26T12:25:00Z</time></trkpt>
<trkpt lat="51.28012" lon="4.831994"><ele>24.31</ele><time>2025-05-26T12:25:20Z</time></trkpt>
<trkpt lat="51.27979" lon="4.831745"><ele>25.76</ele><time>2025-05-26T12:25:40Z</time></trkpt>
<trkpt lat="51.279709" lon="4.831638"><ele>26.1</ele><time>2025-05-26T12:26:00Z</time></trkpt>
<trkpt lat="51.27956" lon="4.831377"><ele>27.0</ele><time>2025-05-26T12:26:21Z</time></trkpt>
<trkpt lat="51.279374" lon="4.831118"><ele>26.99</ele><time>2025-05-26T12:26:41Z</time></trkpt>
<trkpt lat="51.279288" lon="4.831034"><ele>27.28</ele><time>2025-05-26T12:27:01Z</time></trkpt>
<trkpt lat="51.27887" lon="4.830723"><ele>28.0</ele><time>2025-05-26T12:27:21Z</time></trkpt>
<trkpt lat="51.278075" lon="4.82993"><ele>28.67</ele><time>2025-05-26T12:27:41Z</time></trkpt>
<trkpt lat="51.277968" lon="4.829802"><ele>27.79</ele><time>2025-05-26T12:28:02Z</time></trkpt>
<trkpt lat="51.277515" lon="4.829378"><ele>25.55</ele><time>2025-05-26T12:28:22Z</time></trkpt>
<trkpt lat="51.276494" lon="4.828792"><ele>24.11</ele><time>2025-05-26T12:28:42Z</time></trkpt>
<trkpt lat="51.276127" lon="4.828543"><ele>22.36</ele><time>2025-05-26T12:29:02Z</time></trkpt>
<trkpt lat="51.27548" lon="4.828099"><ele>21.66</ele><time>2025-05-26T12:29:22Z</time></trkpt>
<trkpt lat="51.273853" lon="4.826873"><ele>26.26</ele><time>2025-05-26T12:29:43Z</time></trkpt>
<trkpt lat="51.272414" lon="4.826119"><ele>23.61</ele><time>2025-05-26T12:30:29Z</time></trkpt>
<trkpt lat="51.270303" lon="4.829292"><ele>16.59</ele><time>2025-05-26T12:30:40Z</time></trkpt>
<trkpt lat="51.269955" lon="4.82983"><ele>16.16</ele><time>2025-05-26T12:30:52Z</time></trkpt>
<trkpt lat="51.269649" lon="4.830433"><ele>16.18</ele><time>2025-05-26T12:31:03Z</time></trkpt>
<trkpt lat="51.269485" lon="4.830877"><ele>15.12</ele><time>2025-05-26T12:31:14Z</time></trkpt>
<trkpt lat="51.269398" lon="4.831167"><ele>14.83</ele><time>2025-05-26T12:31:26Z</time></trkpt>
<trkpt lat="51.26927" lon="4.83175"><ele>15.0</ele><time>2025-05-26T12:31:37Z</time></trkpt>
<trkpt lat="51.26913" lon="4.831623"><ele>14.84</ele><time>2025-05-26T12:31:47Z</time></trkpt>
<trkpt lat="51.269084" lon="4.831549"><ele>14.57</ele><time>2025-05-26T12:31:56Z</time></trkpt>
<trkpt lat="51.269072" lon="4.83144"><ele>14.18</ele><time>2025-05-26T12:32:05Z</time></trkpt>
<trkpt lat="51.269088" lon="4.831323"><ele>14.0</ele><time>2025-05-26T12:32:15Z</time></trkpt>
<trkpt lat="51.269225" lon="4.831011"><ele>14.49</ele><time>2025-05-26T12:32:24Z</time></trkpt>
<trkpt lat="51.269278" lon="4.830849"><ele>14.97</ele><time>2025-05-26T12:32:34Z</time></trkpt>
<trkpt lat="51.269327" lon="4.83054"><ele>15.05</ele><time>2025-05-26T12:32:43Z</time></trkpt>
<trkpt lat="51.269521" lon="4.828314"><ele>17.02</ele><time>2025-05-26T12:32:53Z</time></trkpt>
<trkpt lat="51.269518" lon="4.828027"><ele>17.26</ele><time>2025-05-26T12:33:02Z</time></trkpt>
<trkpt lat="51.269499" lon="4.827839"><ele>17.2</ele><time>2025-05-26T12:33:12Z</time></trkpt>
<trkpt lat="51.269397" lon="4.827526"><ele>17.58</ele><time>2025-05-26T12:33:21Z</time></trkpt>
<trkpt lat="51.268172" lon="4.825444"><ele>18.17</ele><time>2025-05-26T12:33:31Z</time></trkpt>
<trkpt lat="51.266988" lon="4.823492"><ele>19.33</ele><time>2025-05-26T12:33:40Z</time></trkpt>
<trkpt lat="51.266369" lon="4.822423"><ele>20.72</ele><time>2025-05-26T12:33:50Z</time></trkpt>
<trkpt lat="51.266243" lon="4.822341"><ele>20.43</ele><time>2025-05-26T12:33:59Z</time></trkpt>
<trkpt lat="51.26311" lon="4.822474"><ele>22.59</ele><time>2025-05-26T12:34:08Z</time></trkpt>
<trkpt lat="51.262716" lon="4.822463"><ele>20.75</ele><time>2025-05-26T12:34:18Z</time></trkpt>
<trkpt lat="51.262463" lon="4.822393"><ele>19.51</ele><time>2025-05-26T12:34:27Z</time></trkpt>
<trkpt lat="51.261968" lon="4.822126"><ele>16.68</ele><time>2025-05-26T12:34:37Z</time></trkpt>
<trkpt lat="51.260932" lon="4.821618"><ele>15.71</ele><time>2025-05-26T12:34:46Z</time></trkpt>
<trkpt lat="51.260653" lon="4.821442"><ele>17.33</ele><time>2025-05-26T12:34:56Z</time></trkpt>
<trkpt lat="51.260424" lon="4.821247"><ele>17.72</ele><time>2025-05-26T12:35:05Z</time></trkpt>
<trkpt lat="51.259187" lon="4.819919"><ele>15.73</ele><time>2025-05-26T12:35:15Z</time></trkpt>
<trkpt lat="51.259016" lon="4.819772"><ele>15.18</ele><time>2025-05-26T12:35:24Z</time></trkpt>
<trkpt lat="51.25732" lon="4.819799"><ele>16.27</ele><time>2025-05-26T12:35:34Z</time></trkpt>
<trkpt lat="51.257123" lon="4.819747"><ele>16.06</ele><time>2025-05-26T12:35:43Z</time></trkpt>
<trkpt lat="51.256862" lon="4.819567"><ele>16.0</ele><time>2025-05-26T12:35:53Z</time></trkpt>
<trkpt lat="51.256378" lon="4.819186"><ele>16.11</ele><time>2025-05-26T12:36:02Z</time></trkpt>
<trkpt lat="51.255095" lon="4.817791"><ele>14.68</ele><time>2025-05-26T12:36:11Z</time></trkpt>
<trkpt lat="51.254624" lon="4.817483"><ele>14.29</ele><time>2025-05-26T12:36:21Z</time></trkpt>
<trkpt lat="51.253974" lon="4.817111"><ele>13.97</ele><time>2025-05-26T12:36:30Z</time></trkpt>
<trkpt lat="51.2532" lon="4.816796"><ele>16.0</ele><time>2025-05-26T12:36:40Z</time></trkpt>
<trkpt lat="51.253008" lon="4.816691"><ele>16.0</ele><time>2025-05-26T12:36:49Z</time></trkpt>
<trkpt lat="51.251977" lon="4.815606"><ele>16.88</ele><time>2025-05-26T12:36:59Z</time></trkpt>
<trkpt lat="51.252163" lon="4.815304"><ele>16.02</ele><time>2025-05-26T12:37:06Z</time></trkpt>
<trkpt lat="51.252395" lon="4.814782"><ele>16.49</ele><time>2025-05-26T12:37:12Z</time></trkpt>
<trkpt lat="51.253207" lon="4.812393"><ele>15.34</ele><time>2025-05-26T12:37:19Z</time></trkpt>
<trkpt lat="51.2541" lon="4.810105"><ele>16.86</ele><time>2025-05-26T12:37:26Z</time></trkpt>
<trkpt lat="51.254489" lon="4.809148"><ele>16.84</ele><time>2025-05-26T12:37:33Z</time></trkpt>
<trkpt lat="51.25444" lon="4.809102"><ele>17.01</ele><time>2025-05-26T12:37:41Z</time></trkpt>
<trkpt lat="51.254377" lon="4.808997"><ele>17.24</ele><time>2025-05-26T12:37:49Z</time></trkpt>
<trkpt lat="51.254322" lon="4.808782"><ele>18.0</ele><time>2025-05-26T12:37:57Z</time></trkpt>
<trkpt lat="51.254313" lon="4.808518"><ele>19.44</ele><time>2025-05-26T12:38:05Z</time></trkpt>
<trkpt lat="51.254343" lon="4.808346"><ele>20.03</ele><time>2025-05-26T12:38:13Z</time></trkpt>
<trkpt lat="51.25485" lon="4.806883"><ele>17.46</ele><time>2025-05-26T12:38:21Z</time></trkpt>
<trkpt lat="51.254891" lon="4.806693"><ele>17.61</ele><time>2025-05-26T12:38:29Z</time></trkpt>
<trkpt lat="51.254912" lon="4.806422"><ele>18.56</ele><time>2025-05-26T12:38:37Z</time></trkpt>
<trkpt lat="51.254899" lon="4.806158"><ele>18.64</ele><time>2025-05-26T12:38:45Z</time></trkpt>
<trkpt lat="51.254667" lon="4.804529"><ele>20.0</ele><time>2025-05-26T12:38:53Z</time></trkpt>
<trkpt lat="51.254591" lon="4.803879"><ele>18.07</ele><time>2025-05-26T12:39:01Z</time></trkpt>
<trkpt lat="51.25451" lon="4.802688"><ele>17.67</ele><time>2025-05-26T12:39:09Z</time></trkpt>
<trkpt lat="51.254505" lon="4.802076"><ele>15.69</ele><time>2025-05-26T12:39:17Z</time></trkpt>
<trkpt lat="51.254489" lon="4.801948"><ele>15.17</ele><time>2025-05-26T12:39:25Z</time></trkpt>
<trkpt lat="51.253522" lon="4.799974"><ele>15.0</ele><time>2025-05-26T12:39:33Z</time></trkpt>
<trkpt lat="51.252651" lon="4.798088"><ele>14.42</ele><time>2025-05-26T12:39:41Z</time></trkpt>
<trkpt lat="51.251846" lon="4.796158"><ele>13.0</ele><time>2025-05-26T12:39:49Z</time></trkpt>
<trkpt lat="51.250767" lon="4.793438"><ele>14.91</ele><time>2025-05-26T12:39:57Z</time></trkpt>
<trkpt lat="51.250151" lon="4.79438"><ele>14.32</ele><time>2025-05-26T12:40:21Z</time></trkpt>
<trkpt lat="51.248622" lon="4.795452"><ele>17.29</ele><time>2025-05-26T12:40:44Z</time></trkpt>
<trkpt lat="51.248446" lon="4.795532"><ele>16.69</ele><time>2025-05-26T12:41:08Z</time></trkpt>
<trkpt lat="51.248365" lon="4.795511"><ele>16.05</ele><time>2025-05-26T12:41:31Z</time></trkpt>
<trkpt lat="51.248287" lon="4.795455"><ele>15.64</ele><time>2025-05-26T12:41:55Z</time></trkpt>
<trkpt lat="51.247854" lon="4.794728"><ele>13.73</ele><time>2025-05-26T12:42:19Z</time></trkpt>
<trkpt lat="51.247811" lon="4.794611"><ele>13.88</ele><time>2025-05-26T12:42:42Z</time></trkpt>
<trkpt lat="51.24759" lon="4.794719"><ele>14.68</ele><time>2025-05-26T12:42:52Z</time></trkpt>
<trkpt lat="51.247406" lon="4.794722"><ele>15.67</ele><time>2025-05-26T12:43:01Z</time></trkpt>
<trkpt lat="51.247163" lon="4.794677"><ele>17.05</ele><time>2025-05-26T12:43:11Z</time></trkpt>
<trkpt lat="51.246938" lon="4.794678"><ele>17.82</ele><time>2025-05-26T12:43:21Z</time></trkpt>
<trkpt lat="51.246804" lon="4.794701"><ele>17.42</ele><time>2025-05-26T12:43:30Z</time></trkpt>
<trkpt lat="51.24664" lon="4.794825"><ele>17.27</ele><time>2025-05-26T12:43:40Z</time></trkpt>
<trkpt lat="51.246406" lon="4.794758"><ele>16.19</ele><time>2025-05-26T12:44:26Z</time></trkpt>
<trkpt lat="51.246249" lon="4.794658"><ele>16.5</ele><time>2025-05-26T12:45:13Z</time></trkpt>
<trkpt lat="51.246109" lon="4.794506"><ele>16.99</ele><time>2025-05-26T12:45:59Z</time></trkpt>
<trkpt lat="51.246016" lon="4.793986"><ele>16.0</ele><time>2025-05-26T12:46:46Z</time></trkpt>
<trkpt lat="51.24595" lon="4.793386"><ele>14.53</ele><time>2025-05-26T12:47:33Z</time></trkpt>
<trkpt lat="51.245829" lon="4.792792"><ele>12.98</ele><time>2025-05-26T12:48:19Z</time></trkpt>
<trkpt lat="51.24563" lon="4.792274"><ele>12.0</ele><time>2025-05-26T12:49:06Z</time></trkpt>
<trkpt lat="51.245365" lon="4.791728"><ele>11.68</ele><time>2025-05-26T12:49:52Z</time></trkpt>
<trkpt lat="51.245234" lon="4.7915"><ele>11.71</ele><time>2025-05-26T12:50:39Z</time></trkpt>
<trkpt lat="51.24509" lon="4.791325"><ele>12.35</ele><time>2025-05-26T12:51:25Z</time></trkpt>
<trkpt lat="51.243643" lon="4.790131"><ele>10.05</ele><time>2025-05-26T12:52:12Z</time></trkpt>
<trkpt lat="51.243258" lon="4.789859"><ele>13.41</ele><time>2025-05-26T12:52:59Z</time></trkpt>
<trkpt lat="51.241684" lon="4.789066"><ele>14.6</ele><time>2025-05-26T12:53:45Z</time></trkpt>
<trkpt lat="51.241853" lon="4.788635"><ele>14.0</ele><time>2025-05-26T12:54:07Z</time></trkpt>
<trkpt lat="51.242251" lon="4.787856"><ele>12.9</ele><time>2025-05-26T12:54:29Z</time></trkpt>
<trkpt lat="51.242093" lon="4.787682"><ele>13.43</ele><time>2025-05-26T12:54:38Z</time></trkpt>
<trkpt lat="51.242093" lon="4.787682"><ele>13.43</ele><time>2025-05-26T12:54:38Z</time></trkpt>
<trkpt lat="51.242251" lon="4.787856"><ele>12.9</ele><time>2025-05-26T12:54:47Z</time></trkpt>
<trkpt lat="51.241853" lon="4.788635"><ele>14.0</ele><time>2025-05-26T12:55:08Z</time></trkpt>
<trkpt lat="51.241684" lon="4.789066"><ele>14.6</ele><time>2025-05-26T12:55:30Z</time></trkpt>
<trkpt lat="51.24014" lon="4.788301"><ele>12.06</ele><time>2025-05-26T12:57:09Z</time></trkpt>
<trkpt lat="51.238806" lon="4.787668"><ele>12.6</ele><time>2025-05-26T12:58:47Z</time></trkpt>
<trkpt lat="51.238624" lon="4.787548"><ele>12.17</ele><time>2025-05-26T13:00:25Z</time></trkpt>
<trkpt lat="51.23868" lon="4.787382"><ele>12.0</ele><time>2025-05-26T13:02:20Z</time></trkpt>
<trkpt lat="51.239416" lon="4.78578"><ele>11.9</ele><time>2025-05-26T13:04:15Z</time></trkpt>
<trkpt lat="51.237471" lon="4.783585"><ele>13.0</ele><time>2025-05-26T13:06:09Z</time></trkpt>
<trkpt lat="51.237173" lon="4.78306"><ele>13.0</ele><time>2025-05-26T13:08:04Z</time></trkpt>
<trkpt lat="51.23598" lon="4.780414"><ele>15.19</ele><time>2025-05-26T13:09:59Z</time></trkpt>
<trkpt lat="51.235584" lon="4.780826"><ele>16.82</ele><time>2025-05-26T13:10:48Z</time></trkpt>
<trkpt lat="51.23539" lon="4.781127"><ele>15.54</ele><time>2025-05-26T13:11:38Z</time></trkpt>
<trkpt lat="51.234015" lon="4.784438"><ele>12.99</ele><time>2025-05-26T13:12:28Z</time></trkpt>
<trkpt lat="51.233268" lon="4.784877"><ele>10.56</ele><time>2025-05-26T13:12:42Z</time></trkpt>
<trkpt lat="51.232189" lon="4.78628"><ele>10.12</ele><time>2025-05-26T13:12:56Z</time></trkpt>
<trkpt lat="51.231801" lon="4.78672"><ele>10.51</ele><time>2025-05-26T13:13:11Z</time></trkpt>
<trkpt lat="51.231598" lon="4.786923"><ele>11.0</ele><time>2025-05-26T13:13:25Z</time></trkpt>
<trkpt lat="51.230054" lon="4.7881"><ele>10.0</ele><time>2025-05-26T13:13:40Z</time></trkpt>
<trkpt lat="51.229982" lon="4.788242"><ele>10.02</ele><time>2025-05-26T13:13:54Z</time></trkpt>
<trkpt lat="51.229276" lon="4.790405"><ele>13.31</ele><time>2025-05-26T13:14:09Z</time></trkpt>
<trkpt lat="51.229193" lon="4.790706"><ele>14.64</ele><time>2025-05-26T13:14:23Z</time></trkpt>
<trkpt lat="51.229154" lon="4.791098"><ele>15.86</ele><time>2025-05-26T13:14:38Z</time></trkpt>
<trkpt lat="51.229151" lon="4.791576"><ele>15.29</ele><time>2025-05-26T13:14:52Z</time></trkpt>
<trkpt lat="51.229153" lon="4.791654"><ele>15.04</ele><time>2025-05-26T13:15:07Z</time></trkpt>
<trkpt lat="51.229175" lon="4.791852"><ele>14.36</ele><time>2025-05-26T13:15:21Z</time></trkpt>
<trkpt lat="51.229168" lon="4.792058"><ele>13.59</ele><time>2025-05-26T13:15:36Z</time></trkpt>
<trkpt lat="51.229139" lon="4.792179"><ele>13.34</ele><time>2025-05-26T13:15:50Z</time></trkpt>
<trkpt lat="51.229071" lon="4.792348"><ele>13.69</ele><time>2025-05-26T13:16:05Z</time></trkpt>
<trkpt lat="51.228905" lon="4.792571"><ele>14.63</ele><time>2025-05-26T13:16:19Z</time></trkpt>
<trkpt lat="51.228569" lon="4.792882"><ele>16.7</ele><time>2025-05-26T13:16:34Z</time></trkpt>
<trkpt lat="51.228284" lon="4.793112"><ele>17.42</ele><time>2025-05-26T13:16:48Z</time></trkpt>
<trkpt lat="51.228126" lon="4.79315"><ele>17.23</ele><time>2025-05-26T13:17:02Z</time></trkpt>
<trkpt lat="51.2274" lon="4.793461"><ele>13.57</ele><time>2025-05-26T13:17:17Z</time></trkpt>
<trkpt lat="51.225922" lon="4.79403"><ele>12.0</ele><time>2025-05-26T13:17:31Z</time></trkpt>
<trkpt lat="51.225627" lon="4.794212"><ele>12.62</ele><time>2025-05-26T13:17:46Z</time></trkpt>
<trkpt lat="51.224905" lon="4.794841"><ele>13.43</ele><time>2025-05-26T13:18:00Z</time></trkpt>
<trkpt lat="51.2239" lon="4.795746"><ele>13.0</ele><time>2025-05-26T13:18:15Z</time></trkpt>
<trkpt lat="51.223275" lon="4.796369"><ele>13.79</ele><time>2025-05-26T13:18:29Z</time></trkpt>
<trkpt lat="51.223167" lon="4.79653"><ele>13.2</ele><time>2025-05-26T13:18:44Z</time></trkpt>
<trkpt lat="51.223019" lon="4.796862"><ele>13.0</ele><time>2025-05-26T13:18:58Z</time></trkpt>
<trkpt lat="51.222688" lon="4.798015"><ele>13.0</ele><time>2025-05-26T13:19:13Z</time></trkpt>
<trkpt lat="51.222689" lon="4.79802"><ele>12.56</ele><time>2025-05-26T13:19:13Z</time></trkpt>
<trkpt lat="51.222689" lon="4.79802"><ele>12.56</ele><time>2025-05-26T13:19:13Z</time></trkpt>
<trkpt lat="51.221615" lon="4.792479"><ele>16.57</ele><time>2025-05-26T13:19:22Z</time></trkpt>
<trkpt lat="51.221527" lon="4.792141"><ele>15.79</ele><time>2025-05-26T13:19:31Z</time></trkpt>
<trkpt lat="51.221418" lon="4.791843"><ele>16.1</ele><time>2025-05-26T13:19:39Z</time></trkpt>
<trkpt lat="51.221021" lon="4.790897"><ele>14.12</ele><time>2025-05-26T13:19:48Z</time></trkpt>
<trkpt lat="51.219164" lon="4.787229"><ele>11.0</ele><time>2025-05-26T13:19:57Z</time></trkpt>
<trkpt lat="51.218837" lon="4.786441"><ele>9.96</ele><time>2025-05-26T13:20:06Z</time></trkpt>
<trkpt lat="51.218786" lon="4.786243"><ele>10.0</ele><time>2025-05-26T13:20:15Z</time></trkpt>
<trkpt lat="51.218797" lon="4.786044"><ele>10.08</ele><time>2025-05-26T13:20:24Z</time></trkpt>
<trkpt lat="51.218859" lon="4.78585"><ele>10.1</ele><time>2025-05-26T13:20:33Z</time></trkpt>
<trkpt lat="51.219093" lon="4.785251"><ele>11.0</ele><time>2025-05-26T13:20:42Z</time></trkpt>
<trkpt lat="51.219162" lon="4.784949"><ele>11.18</ele><time>2025-05-26T13:20:51Z</time></trkpt>
<trkpt lat="51.219236" lon="4.784491"><ele>12.0</ele><time>2025-05-26T13:21:00Z</time></trkpt>
<trkpt lat="51.21924" lon="4.784334"><ele>12.4</ele><time>2025-05-26T13:21:08Z</time></trkpt>
<trkpt lat="51.219204" lon="4.784059"><ele>13.0</ele><time>2025-05-26T13:21:17Z</time></trkpt>
<trkpt lat="51.218951" lon="4.782636"><ele>13.11</ele><time>2025-05-26T13:21:26Z</time></trkpt>
<trkpt lat="51.218788" lon="4.781806"><ele>13.64</ele><time>2025-05-26T13:21:35Z</time></trkpt>
<trkpt lat="51.218589" lon="4.781531"><ele>12.47</ele><time>2025-05-26T13:21:44Z</time></trkpt>
<trkpt lat="51.218536" lon="4.781489"><ele>12.26</ele><time>2025-05-26T13:21:53Z</time></trkpt>
<trkpt lat="51.21799" lon="4.77996"><ele>12.0</ele><time>2025-05-26T13:22:02Z</time></trkpt>
<trkpt lat="51.216101" lon="4.776057"><ele>13.91</ele><time>2025-05-26T13:22:11Z</time></trkpt>
<trkpt lat="51.215868" lon="4.775485"><ele>15.66</ele><time>2025-05-26T13:22:20Z</time></trkpt>
<trkpt lat="51.215623" lon="4.774826"><ele>19.72</ele><time>2025-05-26T13:22:29Z</time></trkpt>
<trkpt lat="51.215514" lon="4.774461"><ele>18.85</ele><time>2025-05-26T13:22:37Z</time></trkpt>
<trkpt lat="51.215196" lon="4.773032"><ele>15.74</ele><time>2025-05-26T13:22:46Z</time></trkpt>
<trkpt lat="51.215031" lon="4.772478"><ele>15.59</ele><time>2025-05-26T13:22:55Z</time></trkpt>
<trkpt lat="51.213474" lon="4.76891"><ele>14.04</ele><time>2025-05-26T13:23:04Z</time></trkpt>
<trkpt lat="51.212092" lon="4.766141"><ele>13.0</ele><time>2025-05-26T13:23:13Z</time></trkpt>
<trkpt lat="51.21161" lon="4.764933"><ele>11.24</ele><time>2025-05-26T13:23:22Z</time></trkpt>
<trkpt lat="51.210911" lon="4.763256"><ele>13.2</ele><time>2025-05-26T13:23:31Z</time></trkpt>
<trkpt lat="51.210416" lon="4.762004"><ele>14.0</ele><time>2025-05-26T13:23:40Z</time></trkpt>
<trkpt lat="51.209676" lon="4.759907"><ele>15.45</ele><time>2025-05-26T13:23:49Z</time></trkpt>
<trkpt lat="51.208914" lon="4.758504"><ele>14.18</ele><time>2025-05-26T13:23:58Z</time></trkpt>
<trkpt lat="51.208763" lon="4.758141"><ele>14.38</ele><time>2025-05-26T13:24:06Z</time></trkpt>
<trkpt lat="51.208675" lon="4.757822"><ele>14.42</ele><time>2025-05-26T13:24:15Z</time></trkpt>
<trkpt lat="51.208642" lon="4.757644"><ele>14.22</ele><time>2025-05-26T13:24:24Z</time></trkpt>
<trkpt lat="51.208631" lon="4.757425"><ele>14.14</ele><time>2025-05-26T13:24:33Z</time></trkpt>
<trkpt lat="51.208661" lon="4.757199"><ele>14.41</ele><time>2025-05-26T13:24:42Z</time></trkpt>
<trkpt lat="51.208721" lon="4.756956"><ele>14.99</ele><time>2025-05-26T13:24:51Z</time></trkpt>
<trkpt lat="51.208718" lon="4.756551"><ele>14.74</ele><time>2025-05-26T13:25:00Z</time></trkpt>
<trkpt lat="51.208625" lon="4.75574"><ele>15.0</ele><time>2025-05-26T13:25:09Z</time></trkpt>
<trkpt lat="51.208575" lon="4.755461"><ele>16.02</ele><time>2025-05-26T13:25:18Z</time></trkpt>
<trkpt lat="51.207618" lon="4.752021"><ele>23.57</ele><time>2025-05-26T13:25:27Z</time></trkpt>
<trkpt lat="51.20757" lon="4.751771"><ele>24.25</ele><time>2025-05-26T13:25:35Z</time></trkpt>
<trkpt lat="51.207541" lon="4.751452"><ele>24.67</ele><time>2025-05-26T13:25:44Z</time></trkpt>
<trkpt lat="51.207419" lon="4.749648"><ele>21.87</ele><time>2025-05-26T13:25:53Z</time></trkpt>
<trkpt lat="51.207313" lon="4.749257"><ele>24.14</ele><time>2025-05-26T13:26:02Z</time></trkpt>
<trkpt lat="51.206777" lon="4.747522"><ele>24.08</ele><time>2025-05-26T13:26:11Z</time></trkpt>
<trkpt lat="51.206402" lon="4.746022"><ele>22.0</ele><time>2025-05-26T13:26:20Z</time></trkpt>
<trkpt lat="51.206213" lon="4.74548"><ele>19.35</ele><time>2025-05-26T13:26:29Z</time></trkpt>
<trkpt lat="51.205187" lon="4.742739"><ele>16.59</ele><time>2025-05-26T13:26:38Z</time></trkpt>
<trkpt lat="51.204667" lon="4.741622"><ele>18.42</ele><time>2025-05-26T13:26:47Z</time></trkpt>
<trkpt lat="51.204517" lon="4.741225"><ele>21.37</ele><time>2025-05-26T13:26:56Z</time></trkpt>
<trkpt lat="51.203685" lon="4.738595"><ele>12.0</ele><time>2025-05-26T13:27:05Z</time></trkpt>
<trkpt lat="51.203978" lon="4.738404"><ele>12.24</ele><time>2025-05-26T13:27:08Z</time></trkpt>
<trkpt lat="51.204381" lon="4.738077"><ele>17.26</ele><time>2025-05-26T13:27:12Z</time></trkpt>
<trkpt lat="51.204485" lon="4.737933"><ele>19.04</ele><time>2025-05-26T13:27:15Z</time></trkpt>
<trkpt lat="51.204485" lon="4.737933"><ele>19.04</ele><time>2025-05-26T13:27:15Z</time></trkpt>
<trkpt lat="51.204679" lon="4.737647"><ele>19.33</ele><time>2025-05-26T13:27:24Z</time></trkpt>
<trkpt lat="51.205448" lon="4.73621"><ele>21.03</ele><time>2025-05-26T13:27:33Z</time></trkpt>
<trkpt lat="51.205708" lon="4.735613"><ele>21.28</ele><time>2025-05-26T13:27:42Z</time></trkpt>
<trkpt lat="51.206171" lon="4.734308"><ele>18.46</ele><time>2025-05-26T13:27:50Z</time></trkpt>
<trkpt lat="51.206535" lon="4.733191"><ele>15.07</ele><time>2025-05-26T13:27:59Z</time></trkpt>
<trkpt lat="51.206584" lon="4.732986"><ele>14.54</ele><time>2025-05-26T13:28:08Z</time></trkpt>
<trkpt lat="51.206607" lon="4.732689"><ele>14.33</ele><time>2025-05-26T13:28:17Z</time></trkpt>
<trkpt lat="51.206608" lon="4.732288"><ele>15.3</ele><time>2025-05-26T13:28:26Z</time></trkpt>
<trkpt lat="51.206584" lon="4.731876"><ele>13.78</ele><time>2025-05-26T13:28:35Z</time></trkpt>
<trkpt lat="51.206124" lon="4.729209"><ele>11.1</ele><time>2025-05-26T13:28:44Z</time></trkpt>
<trkpt lat="51.206112" lon="4.729077"><ele>11.0</ele><time>2025-05-26T13:28:53Z</time></trkpt>
<trkpt lat="51.206122" lon="4.728879"><ele>10.92</ele><time>2025-05-26T13:29:01Z</time></trkpt>
<trkpt lat="51.206162" lon="4.728738"><ele>10.37</ele><time>2025-05-26T13:29:10Z</time></trkpt>
<trkpt lat="51.206935" lon="4.727268"><ele>9.01</ele><time>2025-05-26T13:29:19Z</time></trkpt>
<trkpt lat="51.206959" lon="4.727174"><ele>8.77</ele><time>2025-05-26T13:29:28Z</time></trkpt>
<trkpt lat="51.206799" lon="4.723903"><ele>6.57</ele><time>2025-05-26T13:29:37Z</time></trkpt>
<trkpt lat="51.206731" lon="4.723372"><ele>8.63</ele><time>2025-05-26T13:29:46Z</time></trkpt>
<trkpt lat="51.206657" lon="4.723114"><ele>9.82</ele><time>2025-05-26T13:29:55Z</time></trkpt>
<trkpt lat="51.206564" lon="4.722895"><ele>10.95</ele><time>2025-05-26T13:30:04Z</time></trkpt>
<trkpt lat="51.206091" lon="4.721972"><ele>12.38</ele><time>2025-05-26T13:30:12Z</time></trkpt>
<trkpt lat="51.205553" lon="4.720678"><ele>13.47</ele><time>2025-05-26T13:30:21Z</time></trkpt>
<trkpt lat="51.204909" lon="4.71967"><ele>11.81</ele><time>2025-05-26T13:30:30Z</time></trkpt>
<trkpt lat="51.204723" lon="4.719448"><ele>11.01</ele><time>2025-05-26T13:30:39Z</time></trkpt>
<trkpt lat="51.203836" lon="4.718376"><ele>10.0</ele><time>2025-05-26T13:30:48Z</time></trkpt>
<trkpt lat="51.203375" lon="4.717744"><ele>10.0</ele><time>2025-05-26T13:30:57Z</time></trkpt>
<trkpt lat="51.203172" lon="4.717407"><ele>9.42</ele><time>2025-05-26T13:31:06Z</time></trkpt>
<trkpt lat="51.203091" lon="4.717313"><ele>9.13</ele><time>2025-05-26T13:31:15Z</time></trkpt>
<trkpt lat="51.201713" lon="4.715584"><ele>9.83</ele><time>2025-05-26T13:31:23Z</time></trkpt>
<trkpt lat="51.202196" lon="4.715308"><ele>9.89</ele><time>2025-05-26T13:31:30Z</time></trkpt>
<trkpt lat="51.202403" lon="4.715086"><ele>10.0</ele><time>2025-05-26T13:31:36Z</time></trkpt>
<trkpt lat="51.202696" lon="4.714716"><ele>10.3</ele><time>2025-05-26T13:31:42Z</time></trkpt>
<trkpt lat="51.203424" lon="4.713445"><ele>9.0</ele><time>2025-05-26T13:31:48Z</time></trkpt>
<trkpt lat="51.204255" lon="4.712183"><ele>9.64</ele><time>2025-05-26T13:31:54Z</time></trkpt>
<trkpt lat="51.204532" lon="4.711862"><ele>7.68</ele><time>2025-05-26T13:32:01Z</time></trkpt>
<trkpt lat="51.20541" lon="4.711131"><ele>9.4</ele><time>2025-05-26T13:32:07Z</time></trkpt>
<trkpt lat="51.208028" lon="4.70903"><ele>10.0</ele><time>2025-05-26T13:32:13Z</time></trkpt>
<trkpt lat="51.208789" lon="4.70839"><ele>11.15</ele><time>2025-05-26T13:32:19Z</time></trkpt>
<trkpt lat="51.208987" lon="4.70819"><ele>11.84</ele><time>2025-05-26T13:32:25Z</time></trkpt>
<trkpt lat="51.209167" lon="4.707917"><ele>12.01</ele><time>2025-05-26T13:32:32Z</time></trkpt>
<trkpt lat="51.209251" lon="4.707751"><ele>12.41</ele><time>2025-05-26T13:32:38Z</time></trkpt>
<trkpt lat="51.209446" lon="4.707275"><ele>11.2</ele><time>2025-05-26T13:32:44Z</time></trkpt>
<trkpt lat="51.209551" lon="4.706792"><ele>8.28</ele><time>2025-05-26T13:32:50Z</time></trkpt>
<trkpt lat="51.209581" lon="4.706506"><ele>6.92</ele><time>2025-05-26T13:32:57Z</time></trkpt>
<trkpt lat="51.209604" lon="4.705953"><ele>6.18</ele><time>2025-05-26T13:33:03Z</time></trkpt>
<trkpt lat="51.209556" lon="4.704497"><ele>8.73</ele><time>2025-05-26T13:33:09Z</time></trkpt>
<trkpt lat="51.209578" lon="4.704298"><ele>9.22</ele><time>2025-05-26T13:33:15Z</time></trkpt>
<trkpt lat="51.209654" lon="4.70394"><ele>10.27</ele><time>2025-05-26T13:33:21Z</time></trkpt>
<trkpt lat="51.209799" lon="4.703426"><ele>10.65</ele><time>2025-05-26T13:33:28Z</time></trkpt>
<trkpt lat="51.210006" lon="4.702806"><ele>8.2</ele><time>2025-05-26T13:33:34Z</time></trkpt>
<trkpt lat="51.21095" lon="4.700601"><ele>7.42</ele><time>2025-05-26T13:33:40Z</time></trkpt>
<trkpt lat="51.211098" lon="4.7002"><ele>6.95</ele><time>2025-05-26T13:33:46Z</time></trkpt>
<trkpt lat="51.211309" lon="4.699524"><ele>8.14</ele><time>2025-05-26T13:33:52Z</time></trkpt>
<trkpt lat="51.211561" lon="4.698487"><ele>7.96</ele><time>2025-05-26T13:33:59Z</time></trkpt>
<trkpt lat="51.211643" lon="4.698195"><ele>7.87</ele><time>2025-05-26T13:34:05Z</time></trkpt>
<trkpt lat="51.211802" lon="4.697732"><ele>8.49</ele><time>2025-05-26T13:34:11Z</time></trkpt>
<trkpt lat="51.212458" lon="4.695959"><ele>7.0</ele><time>2025-05-26T13:34:17Z</time></trkpt>
<trkpt lat="51.212601" lon="4.69562"><ele>7.0</ele><time>2025-05-26T13:34:23Z</time></trkpt>
<trkpt lat="51.212829" lon="4.695163"><ele>7.18</ele><time>2025-05-26T13:34:30Z</time></trkpt>
<trkpt lat="51.213323" lon="4.694435"><ele>6.0</ele><time>2025-05-26T13:34:36Z</time></trkpt>
<trkpt lat="51.214192" lon="4.693186"><ele>6.56</ele><time>2025-05-26T13:34:42Z</time></trkpt>
<trkpt lat="51.214881" lon="4.692154"><ele>6.57</ele><time>2025-05-26T13:34:48Z</time></trkpt>
<trkpt lat="51.214801" lon="4.692028"><ele>6.28</ele><time>2025-05-26T13:35:04Z</time></trkpt>
<trkpt lat="51.214488" lon="4.691782"><ele>6.0</ele><time>2025-05-26T13:35:21Z</time></trkpt>
<trkpt lat="51.214381" lon="4.691668"><ele>5.77</ele><time>2025-05-26T13:35:37Z</time></trkpt>
<trkpt lat="51.213046" lon="4.690067"><ele>5.97</ele><time>2025-05-26T13:35:53Z</time></trkpt>
<trkpt lat="51.212266" lon="4.68907"><ele>9.05</ele><time>2025-05-26T13:36:09Z</time></trkpt>
<trkpt lat="51.211985" lon="4.688643"><ele>8.18</ele><time>2025-05-26T13:36:25Z</time></trkpt>
<trkpt lat="51.21176" lon="4.688223"><ele>6.67</ele><time>2025-05-26T13:36:43Z</time></trkpt>
<trkpt lat="51.209953" lon="4.685362"><ele>8.0</ele><time>2025-05-26T13:37:01Z</time></trkpt>
<trkpt lat="51.209416" lon="4.684931"><ele>6.9</ele><time>2025-05-26T13:37:19Z</time></trkpt>
<trkpt lat="51.208956" lon="4.68661"><ele>7.03</ele><time>2025-05-26T13:38:12Z</time></trkpt>
<trkpt lat="51.20856" lon="4.686335"><ele>5.82</ele><time>2025-05-26T13:38:20Z</time></trkpt>
<trkpt lat="51.20856" lon="4.686335"><ele>5.82</ele><time>2025-05-26T13:38:20Z</time></trkpt>
<trkpt lat="51.207443" lon="4.685541"><ele>3.05</ele><time>2025-05-26T13:38:30Z</time></trkpt>
<trkpt lat="51.207234" lon="4.685499"><ele>3.2</ele><time>2025-05-26T13:38:39Z</time></trkpt>
<trkpt lat="51.207042" lon="4.685558"><ele>3.65</ele><time>2025-05-26T13:38:49Z</time></trkpt>
<trkpt lat="51.206529" lon="4.685815"><ele>7.03</ele><time>2025-05-26T13:38:59Z</time></trkpt>
<trkpt lat="51.206291" lon="4.68588"><ele>8.07</ele><time>2025-05-26T13:39:09Z</time></trkpt>
<trkpt lat="51.205173" lon="4.685792"><ele>6.77</ele><time>2025-05-26T13:39:18Z</time></trkpt>
<trkpt lat="51.205115" lon="4.685847"><ele>6.32</ele><time>2025-05-26T13:39:28Z</time></trkpt>
<trkpt lat="51.20426" lon="4.687396"><ele>2.66</ele><time>2025-05-26T13:39:38Z</time></trkpt>
<trkpt lat="51.204111" lon="4.687556"><ele>3.2</ele><time>2025-05-26T13:39:48Z</time></trkpt>
<trkpt lat="51.20353" lon="4.688076"><ele>4.24</ele><time>2025-05-26T13:39:57Z</time></trkpt>
<trkpt lat="51.20344" lon="4.688121"><ele>4.52</ele><time>2025-05-26T13:40:07Z</time></trkpt>
<trkpt lat="51.203355" lon="4.688014"><ele>4.92</ele><time>2025-05-26T13:40:21Z</time></trkpt>
<trkpt lat="51.199765" lon="4.685011"><ele>5.84</ele><time>2025-05-26T13:40:35Z</time></trkpt>
<trkpt lat="51.199704" lon="4.684933"><ele>5.9</ele><time>2025-05-26T13:40:48Z</time></trkpt>
<trkpt lat="51.199079" lon="4.683804"><ele>7.71</ele><time>2025-05-26T13:41:02Z</time></trkpt>
<trkpt lat="51.198972" lon="4.683669"><ele>7.12</ele><time>2025-05-26T13:41:16Z</time></trkpt>
<trkpt lat="51.198725" lon="4.683446"><ele>6.16</ele><time>2025-05-26T13:41:30Z</time></trkpt>
<trkpt lat="51.198574" lon="4.683363"><ele>6.09</ele><time>2025-05-26T13:41:43Z</time></trkpt>
<trkpt lat="51.198438" lon="4.683347"><ele>6.02</ele><time>2025-05-26T13:41:57Z</time></trkpt>
<trkpt lat="51.197617" lon="4.683404"><ele>5.58</ele><time>2025-05-26T13:42:11Z</time></trkpt>
<trkpt lat="51.197284" lon="4.682538"><ele>4.91</ele><time>2025-05-26T13:42:25Z</time></trkpt>
<trkpt lat="51.196572" lon="4.680841"><ele>4.37</ele><time>2025-05-26T13:42:38Z</time></trkpt>
<trkpt lat="51.19617" lon="4.680269"><ele>3.99</ele><time>2025-05-26T13:42:52Z</time></trkpt>
<trkpt lat="51.195703" lon="4.679696"><ele>4.47</ele><time>2025-05-26T13:43:06Z</time></trkpt>
<trkpt lat="51.1944" lon="4.679027"><ele>5.16</ele><time>2025-05-26T13:43:19Z</time></trkpt>
<trkpt lat="51.194369" lon="4.678964"><ele>5.27</ele><time>2025-05-26T13:43:33Z</time></trkpt>
<trkpt lat="51.194369" lon="4.678964"><ele>5.27</ele><time>2025-05-26T13:43:33Z</time></trkpt>
<trkpt lat="51.194339" lon="4.678902"><ele>5.38</ele><time>2025-05-26T13:43:44Z</time></trkpt>
<trkpt lat="51.193852" lon="4.676724"><ele>4.13</ele><time>2025-05-26T13:43:55Z</time></trkpt>
<trkpt lat="51.193705" lon="4.676132"><ele>3.66</ele><time>2025-05-26T13:44:06Z</time></trkpt>
<trkpt lat="51.193011" lon="4.674239"><ele>3.38</ele><time>2025-05-26T13:44:16Z</time></trkpt>
<trkpt lat="51.192867" lon="4.673958"><ele>3.68</ele><time>2025-05-26T13:44:27Z</time></trkpt>
<trkpt lat="51.192695" lon="4.673725"><ele>4.12</ele><time>2025-05-26T13:44:38Z</time></trkpt>
<trkpt lat="51.191687" lon="4.672607"><ele>4.36</ele><time>2025-05-26T13:44:49Z</time></trkpt>
<trkpt lat="51.19158" lon="4.670709"><ele>2.31</ele><time>2025-05-26T13:44:56Z</time></trkpt>
<trkpt lat="51.191586" lon="4.670122"><ele>2.29</ele><time>2025-05-26T13:45:03Z</time></trkpt>
<trkpt lat="51.191628" lon="4.669716"><ele>3.14</ele><time>2025-05-26T13:45:09Z</time></trkpt>
<trkpt lat="51.191663" lon="4.669513"><ele>3.01</ele><time>2025-05-26T13:45:16Z</time></trkpt>
<trkpt lat="51.191763" lon="4.669075"><ele>2.65</ele><time>2025-05-26T13:45:23Z</time></trkpt>
<trkpt lat="51.191868" lon="4.668722"><ele>1.67</ele><time>2025-05-26T13:45:30Z</time></trkpt>
<trkpt lat="51.192339" lon="4.667154"><ele>4.42</ele><time>2025-05-26T13:45:37Z</time></trkpt>
<trkpt lat="51.19265" lon="4.665936"><ele>8.25</ele><time>2025-05-26T13:45:44Z</time></trkpt>
<trkpt lat="51.194538" lon="4.660129"><ele>8.49</ele><time>2025-05-26T13:45:50Z</time></trkpt>
<trkpt lat="51.194611" lon="4.659715"><ele>8.6</ele><time>2025-05-26T13:45:57Z</time></trkpt>
<trkpt lat="51.194633" lon="4.659343"><ele>8.8</ele><time>2025-05-26T13:46:04Z</time></trkpt>
<trkpt lat="51.194609" lon="4.658919"><ele>9.0</ele><time>2025-05-26T13:46:11Z</time></trkpt>
<trkpt lat="51.19456" lon="4.658609"><ele>9.17</ele><time>2025-05-26T13:46:18Z</time></trkpt>
<trkpt lat="51.194438" lon="4.658178"><ele>9.44</ele><time>2025-05-26T13:46:25Z</time></trkpt>
<trkpt lat="51.194322" lon="4.657925"><ele>8.74</ele><time>2025-05-26T13:46:31Z</time></trkpt>
<trkpt lat="51.194234" lon="4.657784"><ele>8.76</ele><time>2025-05-26T13:46:38Z</time></trkpt>
<trkpt lat="51.194008" lon="4.657495"><ele>7.99</ele><time>2025-05-26T13:46:45Z</time></trkpt>
<trkpt lat="51.193896" lon="4.657393"><ele>7.99</ele><time>2025-05-26T13:46:52Z</time></trkpt>
<trkpt lat="51.192378" lon="4.656384"><ele>8.44</ele><time>2025-05-26T13:46:59Z</time></trkpt>
<trkpt lat="51.191449" lon="4.656029"><ele>9.06</ele><time>2025-05-26T13:47:06Z</time></trkpt>
<trkpt lat="51.191103" lon="4.655872"><ele>8.86</ele><time>2025-05-26T13:47:12Z</time></trkpt>
<trkpt lat="51.190601" lon="4.655564"><ele>9.0</ele><time>2025-05-26T13:47:19Z</time></trkpt>
<trkpt lat="51.190244" lon="4.655289"><ele>7.88</ele><time>2025-05-26T13:47:26Z</time></trkpt>
<trkpt lat="51.189988" lon="4.654994"><ele>7.0</ele><time>2025-05-26T13:47:33Z</time></trkpt>
<trkpt lat="51.189787" lon="4.654626"><ele>7.0</ele><time>2025-05-26T13:47:40Z</time></trkpt>
<trkpt lat="51.189654" lon="4.654327"><ele>6.89</ele><time>2025-05-26T13:47:46Z</time></trkpt>
<trkpt lat="51.189543" lon="4.654021"><ele>6.35</ele><time>2025-05-26T13:47:53Z</time></trkpt>
<trkpt lat="51.189456" lon="4.653725"><ele>6.04</ele><time>2025-05-26T13:48:00Z</time></trkpt>
<trkpt lat="51.189382" lon="4.653423"><ele>6.0</ele><time>2025-05-26T13:48:07Z</time></trkpt>
<trkpt lat="51.189163" lon="4.652036"><ele>6.66</ele><time>2025-05-26T13:48:14Z</time></trkpt>
<trkpt lat="51.188567" lon="4.649244"><ele>7.84</ele><time>2025-05-26T13:48:21Z</time></trkpt>
<trkpt lat="51.187885" lon="4.649414"><ele>6.45</ele><time>2025-05-26T13:48:44Z</time></trkpt>
<trkpt lat="51.187646" lon="4.649449"><ele>6.0</ele><time>2025-05-26T13:49:08Z</time></trkpt>
<trkpt lat="51.187522" lon="4.648873"><ele>7.0</ele><time>2025-05-26T13:49:15Z</time></trkpt>
<trkpt lat="51.187082" lon="4.649069"><ele>7.49</ele><time>2025-05-26T13:49:23Z</time></trkpt>
<trkpt lat="51.186947" lon="4.648596"><ele>7.0</ele><time>2025-05-26T13:49:30Z</time></trkpt>
<trkpt lat="51.186787" lon="4.64814"><ele>6.3</ele><time>2025-05-26T13:49:37Z</time></trkpt>
<trkpt lat="51.186025" lon="4.646296"><ele>5.69</ele><time>2025-05-26T13:49:44Z</time></trkpt>
<trkpt lat="51.185882" lon="4.645723"><ele>6.17</ele><time>2025-05-26T13:49:51Z</time></trkpt>
<trkpt lat="51.185882" lon="4.645723"><ele>6.17</ele><time>2025-05-26T13:49:51Z</time></trkpt>
<trkpt lat="51.18576" lon="4.64345"><ele>6.0</ele><time>2025-05-26T13:49:57Z</time></trkpt>
<trkpt lat="51.185761" lon="4.643158"><ele>6.0</ele><time>2025-05-26T13:50:03Z</time></trkpt>
<trkpt lat="51.185819" lon="4.642169"><ele>6.75</ele><time>2025-05-26T13:50:09Z</time></trkpt>
<trkpt lat="51.185966" lon="4.640225"><ele>6.52</ele><time>2025-05-26T13:50:15Z</time></trkpt>
<trkpt lat="51.185999" lon="4.639541"><ele>6.0</ele><time>2025-05-26T13:50:21Z</time></trkpt>
<trkpt lat="51.185959" lon="4.638933"><ele>5.0</ele><time>2025-05-26T13:50:27Z</time></trkpt>
<trkpt lat="51.185884" lon="4.638562"><ele>4.0</ele><time>2025-05-26T13:50:32Z</time></trkpt>
<trkpt lat="51.185545" lon="4.637425"><ele>4.04</ele><time>2025-05-26T13:50:38Z</time></trkpt>
<trkpt lat="51.185356" lon="4.636508"><ele>4.15</ele><time>2025-05-26T13:50:44Z</time></trkpt>
<trkpt lat="51.185279" lon="4.636011"><ele>3.99</ele><time>2025-05-26T13:50:50Z</time></trkpt>
<trkpt lat="51.18528" lon="4.635858"><ele>3.99</ele><time>2025-05-26T13:50:56Z</time></trkpt>
<trkpt lat="51.185313" lon="4.635527"><ele>3.88</ele><time>2025-05-26T13:51:02Z</time></trkpt>
<trkpt lat="51.185589" lon="4.63391"><ele>5.0</ele><time>2025-05-26T13:51:08Z</time></trkpt>
<trkpt lat="51.185606" lon="4.63356"><ele>5.0</ele><time>2025-05-26T13:51:14Z</time></trkpt>
<trkpt lat="51.185574" lon="4.632663"><ele>4.64</ele><time>2025-05-26T13:51:20Z</time></trkpt>
<trkpt lat="51.185398" lon="4.630854"><ele>5.6</ele><time>2025-05-26T13:51:26Z</time></trkpt>
<trkpt lat="51.185326" lon="4.630261"><ele>4.83</ele><time>2025-05-26T13:51:31Z</time></trkpt>
<trkpt lat="51.185189" lon="4.629672"><ele>5.0</ele><time>2025-05-26T13:51:37Z</time></trkpt>
<trkpt lat="51.18518" lon="4.629493"><ele>5.0</ele><time>2025-05-26T13:51:43Z</time></trkpt>
<trkpt lat="51.185208" lon="4.629317"><ele>5.0</ele><time>2025-05-26T13:51:49Z</time></trkpt>
<trkpt lat="51.185299" lon="4.628938"><ele>5.0</ele><time>2025-05-26T13:51:55Z</time></trkpt>
<trkpt lat="51.185657" lon="4.62875"><ele>5.0</ele><time>2025-05-26T13:51:58Z</time></trkpt>
<trkpt lat="51.185927" lon="4.628666"><ele>5.34</ele><time>2025-05-26T13:52:01Z</time></trkpt>
<trkpt lat="51.186053" lon="4.628645"><ele>5.79</ele><time>2025-05-26T13:52:04Z</time></trkpt>
<trkpt lat="51.186224" lon="4.628665"><ele>5.67</ele><time>2025-05-26T13:52:08Z</time></trkpt>
<trkpt lat="51.186229" lon="4.628476"><ele>5.57</ele><time>2025-05-26T13:52:11Z</time></trkpt>
<trkpt lat="51.186263" lon="4.628161"><ele>5.17</ele><time>2025-05-26T13:52:14Z</time></trkpt>
<trkpt lat="51.186305" lon="4.627954"><ele>5.0</ele><time>2025-05-26T13:52:17Z</time></trkpt>
<trkpt lat="51.186457" lon="4.627452"><ele>4.76</ele><time>2025-05-26T13:52:20Z</time></trkpt>
<trkpt lat="51.186554" lon="4.627132"><ele>4.28</ele><time>2025-05-26T13:52:23Z</time></trkpt>
<trkpt lat="51.186647" lon="4.626777"><ele>4.0</ele><time>2025-05-26T13:52:26Z</time></trkpt>
<trkpt lat="51.186818" lon="4.625851"><ele>5.39</ele><time>2025-05-26T13:52:29Z</time></trkpt>
<trkpt lat="51.186915" lon="4.62542"><ele>5.51</ele><time>2025-05-26T13:52:31Z</time></trkpt>
<trkpt lat="51.187075" lon="4.624973"><ele>4.53</ele><time>2025-05-26T13:52:34Z</time></trkpt>
<trkpt lat="51.187365" lon="4.624317"><ele>4.46</ele><time>2025-05-26T13:52:37Z</time></trkpt>
<trkpt lat="51.187556" lon="4.623711"><ele>5.44</ele><time>2025-05-26T13:52:40Z</time></trkpt>
<trkpt lat="51.187649" lon="4.62322"><ele>6.0</ele><time>2025-05-26T13:52:43Z</time></trkpt>
<trkpt lat="51.187683" lon="4.622922"><ele>6.0</ele><time>2025-05-26T13:52:46Z</time></trkpt>
<trkpt lat="51.187691" lon="4.622322"><ele>5.0</ele><time>2025-05-26T13:52:49Z</time></trkpt>
<trkpt lat="51.187643" lon="4.621861"><ele>4.48</ele><time>2025-05-26T13:52:52Z</time></trkpt>
<trkpt lat="51.187603" lon="4.621598"><ele>4.63</ele><time>2025-05-26T13:52:55Z</time></trkpt>
<trkpt lat="51.187536" lon="4.621289"><ele>4.87</ele><time>2025-05-26T13:52:58Z</time></trkpt>
<trkpt lat="51.18758" lon="4.621187"><ele>4.71</ele><time>2025-05-26T13:53:06Z</time></trkpt>
<trkpt lat="51.187611" lon="4.621029"><ele>4.42</ele><time>2025-05-26T13:53:14Z</time></trkpt>
<trkpt lat="51.187657" lon="4.620643"><ele>4.0</ele><time>2025-05-26T13:53:22Z</time></trkpt>
<trkpt lat="51.187798" lon="4.618995"><ele>6.07</ele><time>2025-05-26T13:53:30Z</time></trkpt>
<trkpt lat="51.187886" lon="4.618487"><ele>7.39</ele><time>2025-05-26T13:53:38Z</time></trkpt>
<trkpt lat="51.188007" lon="4.618138"><ele>7.95</ele><time>2025-05-26T13:53:46Z</time></trkpt>
<trkpt lat="51.188561" lon="4.616926"><ele>5.18</ele><time>2025-05-26T13:53:54Z</time></trkpt>
<trkpt lat="51.188614" lon="4.616722"><ele>5.0</ele><time>2025-05-26T13:54:01Z</time></trkpt>
<trkpt lat="51.188624" lon="4.616571"><ele>5.33</ele><time>2025-05-26T13:54:09Z</time></trkpt>
<trkpt lat="51.18861" lon="4.616429"><ele>5.86</ele><time>2025-05-26T13:54:17Z</time></trkpt>
<trkpt lat="51.188126" lon="4.612627"><ele>7.66</ele><time>2025-05-26T13:54:25Z</time></trkpt>
<trkpt lat="51.188088" lon="4.611824"><ele>8.11</ele><time>2025-05-26T13:54:33Z</time></trkpt>
<trkpt lat="51.188074" lon="4.61101"><ele>8.0</ele><time>2025-05-26T13:54:41Z</time></trkpt>
<trkpt lat="51.188094" lon="4.610353"><ele>8.0</ele><time>2025-05-26T13:54:49Z</time></trkpt>
<trkpt lat="51.188226" lon="4.608604"><ele>8.0</ele><time>2025-05-26T13:54:57Z</time></trkpt>
<trkpt lat="51.188395" lon="4.607504"><ele>9.22</ele><time>2025-05-26T13:55:04Z</time></trkpt>
<trkpt lat="51.188702" lon="4.605692"><ele>9.33</ele><time>2025-05-26T13:55:12Z</time></trkpt>
<trkpt lat="51.188734" lon="4.605374"><ele>8.79</ele><time>2025-05-26T13:55:20Z</time></trkpt>
<trkpt lat="51.188747" lon="4.604684"><ele>9.07</ele><time>2025-05-26T13:55:28Z</time></trkpt>
<trkpt lat="51.192899" lon="4.60382"><ele>7.82</ele><time>2025-05-26T13:55:36Z</time></trkpt>
<trkpt lat="51.193275" lon="4.603568"><ele>8.24</ele><time>2025-05-26T13:55:43Z</time></trkpt>
<trkpt lat="51.19467" lon="4.602177"><ele>6.35</ele><time>2025-05-26T13:55:51Z</time></trkpt>
<trkpt lat="51.194898" lon="4.601996"><ele>7.05</ele><time>2025-05-26T13:55:58Z</time></trkpt>
<trkpt lat="51.195221" lon="4.601823"><ele>8.59</ele><time>2025-05-26T13:56:06Z</time></trkpt>
<trkpt lat="51.196412" lon="4.601384"><ele>12.07</ele><time>2025-05-26T13:56:14Z</time></trkpt>
<trkpt lat="51.196688" lon="4.601397"><ele>12.88</ele><time>2025-05-26T13:56:21Z</time></trkpt>
<trkpt lat="51.197472" lon="4.601558"><ele>8.71</ele><time>2025-05-26T13:56:29Z</time></trkpt>
<trkpt lat="51.197563" lon="4.601553"><ele>8.46</ele><time>2025-05-26T13:56:36Z</time></trkpt>
<trkpt lat="51.197658" lon="4.601516"><ele>8.2</ele><time>2025-05-26T13:56:44Z</time></trkpt>
<trkpt lat="51.197875" lon="4.601389"><ele>8.0</ele><time>2025-05-26T13:56:52Z</time></trkpt>
<trkpt lat="51.198034" lon="4.601207"><ele>8.0</ele><time>2025-05-26T13:56:59Z</time></trkpt>
<trkpt lat="51.198214" lon="4.600879"><ele>8.0</ele><time>2025-05-26T13:57:07Z</time></trkpt>
<trkpt lat="51.19901" lon="4.598991"><ele>11.53</ele><time>2025-05-26T13:57:14Z</time></trkpt>
<trkpt lat="51.199212" lon="4.598702"><ele>11.02</ele><time>2025-05-26T13:57:22Z</time></trkpt>
<trkpt lat="51.19933" lon="4.598597"><ele>10.9</ele><time>2025-05-26T13:57:30Z</time></trkpt>
<trkpt lat="51.199465" lon="4.598523"><ele>10.51</ele><time>2025-05-26T13:57:37Z</time></trkpt>
<trkpt lat="51.19975" lon="4.598443"><ele>9.04</ele><time>2025-05-26T13:57:45Z</time></trkpt>
<trkpt lat="51.20167" lon="4.59811"><ele>8.2</ele><time>2025-05-26T13:57:52Z</time></trkpt>
<trkpt lat="51.202269" lon="4.598076"><ele>10.86</ele><time>2025-05-26T13:58:00Z</time></trkpt>
<trkpt lat="51.203494" lon="4.598157"><ele>7.57</ele><time>2025-05-26T13:58:08Z</time></trkpt>
<trkpt lat="51.203783" lon="4.598262"><ele>7.0</ele><time>2025-05-26T13:58:15Z</time></trkpt>
<trkpt lat="51.203775" lon="4.598345"><ele>7.02</ele><time>2025-05-26T13:58:22Z</time></trkpt>
<trkpt lat="51.203784" lon="4.598428"><ele>7.13</ele><time>2025-05-26T13:58:29Z</time></trkpt>
<trkpt lat="51.203811" lon="4.598502"><ele>7.17</ele><time>2025-05-26T13:58:36Z</time></trkpt>
<trkpt lat="51.203851" lon="4.598556"><ele>7.11</ele><time>2025-05-26T13:58:43Z</time></trkpt>
<trkpt lat="51.203901" lon="4.598585"><ele>7.04</ele><time>2025-05-26T13:58:49Z</time></trkpt>
<trkpt lat="51.203954" lon="4.598585"><ele>7.24</ele><time>2025-05-26T13:58:56Z</time></trkpt>
<trkpt lat="51.204004" lon="4.598554"><ele>7.41</ele><time>2025-05-26T13:59:03Z</time></trkpt>
<trkpt lat="51.204054" lon="4.598484"><ele>7.59</ele><time>2025-05-26T13:59:10Z</time></trkpt>
<trkpt lat="51.20408" lon="4.598385"><ele>7.69</ele><time>2025-05-26T13:59:17Z</time></trkpt>
<trkpt lat="51.204066" lon="4.598233"><ele>7.64</ele><time>2025-05-26T13:59:24Z</time></trkpt>
<trkpt lat="51.204037" lon="4.59817"><ele>7.53</ele><time>2025-05-26T13:59:31Z</time></trkpt>
<trkpt lat="51.204156" lon="4.598007"><ele>7.96</ele><time>2025-05-26T13:59:37Z</time></trkpt>
<trkpt lat="51.204277" lon="4.597913"><ele>8.4</ele><time>2025-05-26T13:59:44Z</time></trkpt>
<trkpt lat="51.204398" lon="4.59793"><ele>8.83</ele><time>2025-05-26T13:59:51Z</time></trkpt>
<trkpt lat="51.204462" lon="4.597978"><ele>9.05</ele><time>2025-05-26T13:59:58Z</time></trkpt>
<trkpt lat="51.20458" lon="4.598146"><ele>9.65</ele><time>2025-05-26T14:00:05Z</time></trkpt>
<trkpt lat="51.204649" lon="4.598225"><ele>10.19</ele><time>2025-05-26T14:00:12Z</time></trkpt>
<trkpt lat="51.204698" lon="4.598249"><ele>10.55</ele><time>2025-05-26T14:00:19Z</time></trkpt>
<trkpt lat="51.204817" lon="4.598231"><ele>10.97</ele><time>2025-05-26T14:00:26Z</time></trkpt>
<trkpt lat="51.204952" lon="4.598162"><ele>11.21</ele><time>2025-05-26T14:00:32Z</time></trkpt>
<trkpt lat="51.205003" lon="4.598143"><ele>11.32</ele><time>2025-05-26T14:00:39Z</time></trkpt>
<trkpt lat="51.207181" lon="4.597294"><ele>9.15</ele><time>2025-05-26T14:00:46Z</time></trkpt>
<trkpt lat="51.207302" lon="4.597205"><ele>8.67</ele><time>2025-05-26T14:00:53Z</time></trkpt>
<trkpt lat="51.207358" lon="4.597078"><ele>8.25</ele><time>2025-05-26T14:01:00Z</time></trkpt>
<trkpt lat="51.208522" lon="4.593518"><ele>7.0</ele><time>2025-05-26T14:01:07Z</time></trkpt>
<trkpt lat="51.208537" lon="4.593375"><ele>7.0</ele><time>2025-05-26T14:01:14Z</time></trkpt>
<trkpt lat="51.208502" lon="4.593248"><ele>7.31</ele><time>2025-05-26T14:01:20Z</time></trkpt>
<trkpt lat="51.208001" lon="4.59209"><ele>7.68</ele><time>2025-05-26T14:01:27Z</time></trkpt>
<trkpt lat="51.206359" lon="4.588156"><ele>8.57</ele><time>2025-05-26T14:01:34Z</time></trkpt>
<trkpt lat="51.206254" lon="4.587837"><ele>8.52</ele><time>2025-05-26T14:01:41Z</time></trkpt>
<trkpt lat="51.20488" lon="4.580998"><ele>8.82</ele><time>2025-05-26T14:01:48Z</time></trkpt>
<trkpt lat="51.203651" lon="4.571373"><ele>10.29</ele><time>2025-05-26T14:01:55Z</time></trkpt>
<trkpt lat="51.203602" lon="4.571184"><ele>9.93</ele><time>2025-05-26T14:02:02Z</time></trkpt>
<trkpt lat="51.203547" lon="4.571048"><ele>9.37</ele><time>2025-05-26T14:02:08Z</time></trkpt>
<trkpt lat="51.203437" lon="4.570852"><ele>8.4</ele><time>2025-05-26T14:02:15Z</time></trkpt>
<trkpt lat="51.203358" lon="4.570766"><ele>8.07</ele><time>2025-05-26T14:02:22Z</time></trkpt>
<trkpt lat="51.202722" lon="4.570138"><ele>10.2</ele><time>2025-05-26T14:02:29Z</time></trkpt>
<trkpt lat="51.202078" lon="4.569481"><ele>12.77</ele><time>2025-05-26T14:02:36Z</time></trkpt>
<trkpt lat="51.201424" lon="4.568813"><ele>11.16</ele><time>2025-05-26T14:02:43Z</time></trkpt>
<trkpt lat="51.201387" lon="4.568928"><ele>11.0</ele><time>2025-05-26T14:02:50Z</time></trkpt>
<trkpt lat="51.201419" lon="4.569066"><ele>11.11</ele><time>2025-05-26T14:02:57Z</time></trkpt>
<trkpt lat="51.202461" lon="4.5712"><ele>8.43</ele><time>2025-05-26T14:03:04Z</time></trkpt>
<trkpt lat="51.202501" lon="4.571369"><ele>7.99</ele><time>2025-05-26T14:03:11Z</time></trkpt>
<trkpt lat="51.202503" lon="4.571439"><ele>7.8</ele><time>2025-05-26T14:03:18Z</time></trkpt>
<trkpt lat="51.202482" lon="4.571552"><ele>7.61</ele><time>2025-05-26T14:03:25Z</time></trkpt>
<trkpt lat="51.201819" lon="4.573798"><ele>10.15</ele><time>2025-05-26T14:03:32Z</time></trkpt>
<trkpt lat="51.201393" lon="4.57507"><ele>7.97</ele><time>2025-05-26T14:03:39Z</time></trkpt>
<trkpt lat="51.200539" lon="4.576768"><ele>8.94</ele><time>2025-05-26T14:03:46Z</time></trkpt>
<trkpt lat="51.200297" lon="4.577188"><ele>8.13</ele><time>2025-05-26T14:03:53Z</time></trkpt>
<trkpt lat="51.199813" lon="4.577927"><ele>7.33</ele><time>2025-05-26T14:04:00Z</time></trkpt>
<trkpt lat="51.198932" lon="4.579213"><ele>7.0</ele><time>2025-05-26T14:04:07Z</time></trkpt>
<trkpt lat="51.198698" lon="4.57895"><ele>7.69</ele><time>2025-05-26T14:04:14Z</time></trkpt>
<trkpt lat="51.198151" lon="4.578409"><ele>9.0</ele><time>2025-05-26T14:04:21Z</time></trkpt>
<trkpt lat="51.197918" lon="4.578061"><ele>8.99</ele><time>2025-05-26T14:04:28Z</time></trkpt>
<trkpt lat="51.197575" lon="4.577739"><ele>8.23</ele><time>2025-05-26T14:04:35Z</time></trkpt>
<trkpt lat="51.197499" lon="4.577639"><ele>8.0</ele><time>2025-05-26T14:04:42Z</time></trkpt>
<trkpt lat="51.197424" lon="4.577485"><ele>8.0</ele><time>2025-05-26T14:04:49Z</time></trkpt>
<trkpt lat="51.197183" lon="4.576788"><ele>8.0</ele><time>2025-05-26T14:04:56Z</time></trkpt>
<trkpt lat="51.197151" lon="4.57662"><ele>7.87</ele><time>2025-05-26T14:05:03Z</time></trkpt>
<trkpt lat="51.197053" lon="4.574017"><ele>8.78</ele><time>2025-05-26T14:05:11Z</time></trkpt>
<trkpt lat="51.197007" lon="4.572183"><ele>10.82</ele><time>2025-05-26T14:05:18Z</time></trkpt>
<trkpt lat="51.196993" lon="4.572105"><ele>10.94</ele><time>2025-05-26T14:05:25Z</time></trkpt>
<trkpt lat="51.196926" lon="4.571926"><ele>11.0</ele><time>2025-05-26T14:05:32Z</time></trkpt>
<trkpt lat="51.196786" lon="4.5717"><ele>11.31</ele><time>2025-05-26T14:05:39Z</time></trkpt>
<trkpt lat="51.196677" lon="4.571582"><ele>11.34</ele><time>2025-05-26T14:05:46Z</time></trkpt>
<trkpt lat="51.196559" lon="4.571589"><ele>10.89</ele><time>2025-05-26T14:05:52Z</time></trkpt>
<trkpt lat="51.195974" lon="4.571894"><ele>7.51</ele><time>2025-05-26T14:05:59Z</time></trkpt>
<trkpt lat="51.195348" lon="4.572413"><ele>6.68</ele><time>2025-05-26T14:06:06Z</time></trkpt>
<trkpt lat="51.194513" lon="4.572924"><ele>8.0</ele><time>2025-05-26T14:06:13Z</time></trkpt>
<trkpt lat="51.194339" lon="4.572144"><ele>7.73</ele><time>2025-05-26T14:06:17Z</time></trkpt>
<trkpt lat="51.19425" lon="4.571863"><ele>8.0</ele><time>2025-05-26T14:06:21Z</time></trkpt>
<trkpt lat="51.19425" lon="4.571863"><ele>8.0</ele><time>2025-05-26T14:06:21Z</time></trkpt>
<trkpt lat="51.194183" lon="4.571703"><ele>8.0</ele><time>2025-05-26T14:06:28Z</time></trkpt>
<trkpt lat="51.193998" lon="4.571412"><ele>7.08</ele><time>2025-05-26T14:06:36Z</time></trkpt>
<trkpt lat="51.193231" lon="4.570356"><ele>9.72</ele><time>2025-05-26T14:06:43Z</time></trkpt>
<trkpt lat="51.193106" lon="4.570023"><ele>10.0</ele><time>2025-05-26T14:06:51Z</time></trkpt>
<trkpt lat="51.192706" lon="4.568266"><ele>9.44</ele><time>2025-05-26T14:06:58Z</time></trkpt>
<trkpt lat="51.192589" lon="4.567383"><ele>10.0</ele><time>2025-05-26T14:07:05Z</time></trkpt>
<trkpt lat="51.192499" lon="4.566988"><ele>9.15</ele><time>2025-05-26T14:07:13Z</time></trkpt>
<trkpt lat="51.192406" lon="4.566772"><ele>9.0</ele><time>2025-05-26T14:07:20Z</time></trkpt>
<trkpt lat="51.191952" lon="4.565965"><ele>9.97</ele><time>2025-05-26T14:07:28Z</time></trkpt>
<trkpt lat="51.19159" lon="4.564224"><ele>11.0</ele><time>2025-05-26T14:07:35Z</time></trkpt>
<trkpt lat="51.191428" lon="4.563579"><ele>11.0</ele><time>2025-05-26T14:07:43Z</time></trkpt>
<trkpt lat="51.190983" lon="4.562064"><ele>12.0</ele><time>2025-05-26T14:07:50Z</time></trkpt>
<trkpt lat="51.190567" lon="4.561016"><ele>13.3</ele><time>2025-05-26T14:07:57Z</time></trkpt>
<trkpt lat="51.190458" lon="4.560974"><ele>13.5</ele><time>2025-05-26T14:08:05Z</time></trkpt>
<trkpt lat="51.190417" lon="4.560916"><ele>13.5</ele><time>2025-05-26T14:08:12Z</time></trkpt>
<trkpt lat="51.190141" lon="4.56118"><ele>13.51</ele><time>2025-05-26T14:08:29Z</time></trkpt>
<trkpt lat="51.189065" lon="4.562568"><ele>12.73</ele><time>2025-05-26T14:08:47Z</time></trkpt>
<trkpt lat="51.18821" lon="4.563581"><ele>13.56</ele><time>2025-05-26T14:09:04Z</time></trkpt>
<trkpt lat="51.187902" lon="4.563851"><ele>13.0</ele><time>2025-05-26T14:09:21Z</time></trkpt>
<trkpt lat="51.187774" lon="4.565288"><ele>12.05</ele><time>2025-05-26T14:09:41Z</time></trkpt>
<trkpt lat="51.18759" lon="4.568182"><ele>12.37</ele><time>2025-05-26T14:10:02Z</time></trkpt>
<trkpt lat="51.18723" lon="4.573885"><ele>9.0</ele><time>2025-05-26T14:10:23Z</time></trkpt>
<trkpt lat="51.187129" lon="4.574518"><ele>10.0</ele><time>2025-05-26T14:10:43Z</time></trkpt>
<trkpt lat="51.186406" lon="4.578457"><ele>12.18</ele><time>2025-05-26T14:11:04Z</time></trkpt>
<trkpt lat="51.186265" lon="4.578434"><ele>11.27</ele><time>2025-05-26T14:11:15Z</time></trkpt>
<trkpt lat="51.185769" lon="4.578432"><ele>11.0</ele><time>2025-05-26T14:11:27Z</time></trkpt>
<trkpt lat="51.185458" lon="4.57851"><ele>10.3</ele><time>2025-05-26T14:11:38Z</time></trkpt>
<trkpt lat="51.182122" lon="4.579644"><ele>11.0</ele><time>2025-05-26T14:11:50Z</time></trkpt>
<trkpt lat="51.18092" lon="4.58008"><ele>10.0</ele><time>2025-05-26T14:12:01Z</time></trkpt>
<trkpt lat="51.180578" lon="4.580313"><ele>9.21</ele><time>2025-05-26T14:12:13Z</time></trkpt>
<trkpt lat="51.180226" lon="4.580512"><ele>9.84</ele><time>2025-05-26T14:12:24Z</time></trkpt>
<trkpt lat="51.179886" lon="4.580652"><ele>10.0</ele><time>2025-05-26T14:12:36Z</time></trkpt>
<trkpt lat="51.177984" lon="4.581249"><ele>11.26</ele><time>2025-05-26T14:12:47Z</time></trkpt>
<trkpt lat="51.177932" lon="4.581311"><ele>11.44</ele><time>2025-05-26T14:12:59Z</time></trkpt>
<trkpt lat="51.177904" lon="4.581399"><ele>11.55</ele><time>2025-05-26T14:13:10Z</time></trkpt>
<trkpt lat="51.177864" lon="4.581814"><ele>11.69</ele><time>2025-05-26T14:13:22Z</time></trkpt>
<trkpt lat="51.177831" lon="4.581959"><ele>11.77</ele><time>2025-05-26T14:13:33Z</time></trkpt>
<trkpt lat="51.177637" lon="4.582492"><ele>11.38</ele><time>2025-05-26T14:13:45Z</time></trkpt>
<trkpt lat="51.177637" lon="4.582492"><ele>11.38</ele><time>2025-05-26T14:13:45Z</time></trkpt>
<trkpt lat="51.177604" lon="4.582582"><ele>11.0</ele><time>2025-05-26T14:13:46Z</time></trkpt>
<trkpt lat="51.177357" lon="4.582069"><ele>10.72</ele><time>2025-05-26T14:13:58Z</time></trkpt>
<trkpt lat="51.177111" lon="4.581399"><ele>10.58</ele><time>2025-05-26T14:14:10Z</time></trkpt>
<trkpt lat="51.174305" lon="4.57263"><ele>11.97</ele><time>2025-05-26T14:14:22Z</time></trkpt>
<trkpt lat="51.1741" lon="4.571905"><ele>11.0</ele><time>2025-05-26T14:14:35Z</time></trkpt>
<trkpt lat="51.174022" lon="4.57153"><ele>10.76</ele><time>2025-05-26T14:14:47Z</time></trkpt>
<trkpt lat="51.173349" lon="4.567693"><ele>9.69</ele><time>2025-05-26T14:14:59Z</time></trkpt>
<trkpt lat="51.17281" lon="4.564473"><ele>10.88</ele><time>2025-05-26T14:15:11Z</time></trkpt>
<trkpt lat="51.172802" lon="4.564028"><ele>10.0</ele><time>2025-05-26T14:15:23Z</time></trkpt>
<trkpt lat="51.172852" lon="4.563394"><ele>10.0</ele><time>2025-05-26T14:15:35Z</time></trkpt>
<trkpt lat="51.172882" lon="4.56337"><ele>10.0</ele><time>2025-05-26T14:15:39Z</time></trkpt>
<trkpt lat="51.172922" lon="4.563286"><ele>10.0</ele><time>2025-05-26T14:15:43Z</time></trkpt>
<trkpt lat="51.17293" lon="4.563233"><ele>10.0</ele><time>2025-05-26T14:15:47Z</time></trkpt>
<trkpt lat="51.172914" lon="4.56313"><ele>10.0</ele><time>2025-05-26T14:15:51Z</time></trkpt>
<trkpt lat="51.172858" lon="4.563053"><ele>10.0</ele><time>2025-05-26T14:15:55Z</time></trkpt>
<trkpt lat="51.172821" lon="4.56304"><ele>10.0</ele><time>2025-05-26T14:15:59Z</time></trkpt>
<trkpt lat="51.172756" lon="4.563068"><ele>10.07</ele><time>2025-05-26T14:16:03Z</time></trkpt>
<trkpt lat="51.17273" lon="4.563103"><ele>10.14</ele><time>2025-05-26T14:16:06Z</time></trkpt>
<trkpt lat="51.172702" lon="4.563219"><ele>10.11</ele><time>2025-05-26T14:16:10Z</time></trkpt>
<trkpt lat="51.17245" lon="4.563373"><ele>10.0</ele><time>2025-05-26T14:16:14Z</time></trkpt>
<trkpt lat="51.171717" lon="4.563416"><ele>10.0</ele><time>2025-05-26T14:16:18Z</time></trkpt>
<trkpt lat="51.171304" lon="4.563478"><ele>9.0</ele><time>2025-05-26T14:16:22Z</time></trkpt>
<trkpt lat="51.1699" lon="4.563951"><ele>8.0</ele><time>2025-05-26T14:16:26Z</time></trkpt>
<trkpt lat="51.168775" lon="4.564449"><ele>6.0</ele><time>2025-05-26T14:16:30Z</time></trkpt>
<trkpt lat="51.168176" lon="4.564737"><ele>6.0</ele><time>2025-05-26T14:16:34Z</time></trkpt>
<trkpt lat="51.167541" lon="4.565081"><ele>6.0</ele><time>2025-05-26T14:16:38Z</time></trkpt>
<trkpt lat="51.167357" lon="4.565201"><ele>6.0</ele><time>2025-05-26T14:16:41Z</time></trkpt>
<trkpt lat="51.166793" lon="4.565763"><ele>6.66</ele><time>2025-05-26T14:16:45Z</time></trkpt>
<trkpt lat="51.166454" lon="4.566173"><ele>6.54</ele><time>2025-05-26T14:16:49Z</time></trkpt>
<trkpt lat="51.164362" lon="4.568892"><ele>5.3</ele><time>2025-05-26T14:16:53Z</time></trkpt>
<trkpt lat="51.164032" lon="4.569445"><ele>5.0</ele><time>2025-05-26T14:16:57Z</time></trkpt>
<trkpt lat="51.163786" lon="4.569934"><ele>5.0</ele><time>2025-05-26T14:17:01Z</time></trkpt>
<trkpt lat="51.163567" lon="4.570493"><ele>5.12</ele><time>2025-05-26T14:17:05Z</time></trkpt>
<trkpt lat="51.163031" lon="4.57199"><ele>4.76</ele><time>2025-05-26T14:17:09Z</time></trkpt>
<trkpt lat="51.162856" lon="4.572355"><ele>4.0</ele><time>2025-05-26T14:17:12Z</time></trkpt>
<trkpt lat="51.162618" lon="4.572764"><ele>4.95</ele><time>2025-05-26T14:17:16Z</time></trkpt>
<trkpt lat="51.162317" lon="4.57315"><ele>4.68</ele><time>2025-05-26T14:17:20Z</time></trkpt>
<trkpt lat="51.16205" lon="4.573423"><ele>6.24</ele><time>2025-05-26T14:17:24Z</time></trkpt>
<trkpt lat="51.16176" lon="4.573654"><ele>6.84</ele><time>2025-05-26T14:17:28Z</time></trkpt>
<trkpt lat="51.160664" lon="4.574472"><ele>5.04</ele><time>2025-05-26T14:17:32Z</time></trkpt>
<trkpt lat="51.160335" lon="4.574695"><ele>5.0</ele><time>2025-05-26T14:17:36Z</time></trkpt>
<trkpt lat="51.159833" lon="4.574962"><ele>3.13</ele><time>2025-05-26T14:17:40Z</time></trkpt>
<trkpt lat="51.158635" lon="4.575493"><ele>4.82</ele><time>2025-05-26T14:17:44Z</time></trkpt>
<trkpt lat="51.157973" lon="4.570876"><ele>6.7</ele><time>2025-05-26T14:18:06Z</time></trkpt>
<trkpt lat="51.1579" lon="4.570497"><ele>6.44</ele><time>2025-05-26T14:18:28Z</time></trkpt>
<trkpt lat="51.157779" lon="4.570001"><ele>6.0</ele><time>2025-05-26T14:18:50Z</time></trkpt>
<trkpt lat="51.157404" lon="4.569135"><ele>7.0</ele><time>2025-05-26T14:19:12Z</time></trkpt>
<trkpt lat="51.157342" lon="4.568951"><ele>7.0</ele><time>2025-05-26T14:19:34Z</time></trkpt>
<trkpt lat="51.157747" lon="4.568809"><ele>6.11</ele><time>2025-05-26T14:19:40Z</time></trkpt>
<trkpt lat="51.157919" lon="4.568718"><ele>5.18</ele><time>2025-05-26T14:19:47Z</time></trkpt>
<trkpt lat="51.159316" lon="4.568054"><ele>5.0</ele><time>2025-05-26T14:20:47Z</time></trkpt>
<trkpt lat="51.15979" lon="4.567512"><ele>4.71</ele><time>2025-05-26T14:21:46Z</time></trkpt>
<trkpt lat="51.160517" lon="4.567287"><ele>4.97</ele><time>2025-05-26T14:22:45Z</time></trkpt>
<trkpt lat="51.161526" lon="4.566858"><ele>5.0</ele><time>2025-05-26T14:23:45Z</time></trkpt>
<trkpt lat="51.1619" lon="4.566724"><ele>5.0</ele><time>2025-05-26T14:24:44Z</time></trkpt>
<trkpt lat="51.162643" lon="4.566177"><ele>7.76</ele><time>2025-05-26T14:25:43Z</time></trkpt>
<trkpt lat="51.163124" lon="4.565876"><ele>7.0</ele><time>2025-05-26T14:26:43Z</time></trkpt>
<trkpt lat="51.163925" lon="4.565474"><ele>7.0</ele><time>2025-05-26T14:27:42Z</time></trkpt>
<trkpt lat="51.164118" lon="4.565455"><ele>7.0</ele><time>2025-05-26T14:28:42Z</time></trkpt>
<trkpt lat="51.164118" lon="4.565455"><ele>7.0</ele><time>2025-05-26T14:28:42Z</time></trkpt>
<trkpt lat="51.163925" lon="4.565474"><ele>7.0</ele><time>2025-05-26T14:29:41Z</time></trkpt>
<trkpt lat="51.163124" lon="4.565876"><ele>7.0</ele><time>2025-05-26T14:30:40Z</time></trkpt>
<trkpt lat="51.162643" lon="4.566177"><ele>7.76</ele><time>2025-05-26T14:31:40Z</time></trkpt>
<trkpt lat="51.1619" lon="4.566724"><ele>5.0</ele><time>2025-05-26T14:32:39Z</time></trkpt>
<trkpt lat="51.161526" lon="4.566858"><ele>5.0</ele><time>2025-05-26T14:33:38Z</time></trkpt>
<trkpt lat="51.160517" lon="4.567287"><ele>4.97</ele><time>2025-05-26T14:34:38Z</time></trkpt>
<trkpt lat="51.15979" lon="4.567512"><ele>4.71</ele><time>2025-05-26T14:35:37Z</time></trkpt>
<trkpt lat="51.159316" lon="4.568054"><ele>5.0</ele><time>2025-05-26T14:36:36Z</time></trkpt>
<trkpt lat="51.157919" lon="4.568718"><ele>5.18</ele><time>2025-05-26T14:37:36Z</time></trkpt>
<trkpt lat="51.157747" lon="4.568809"><ele>6.11</ele><time>2025-05-26T14:37:43Z</time></trkpt>
<trkpt lat="51.157342" lon="4.568951"><ele>7.0</ele><time>2025-05-26T14:37:50Z</time></trkpt>
<trkpt lat="51.156966" lon="4.567592"><ele>5.41</ele><time>2025-05-26T14:38:15Z</time></trkpt>
<trkpt lat="51.156179" lon="4.564962"><ele>6.89</ele><time>2025-05-26T14:38:41Z</time></trkpt>
<trkpt lat="51.156143" lon="4.564865"><ele>7.37</ele><time>2025-05-26T14:39:07Z</time></trkpt>
<trkpt lat="51.155999" lon="4.564645"><ele>8.57</ele><time>2025-05-26T14:39:32Z</time></trkpt>
<trkpt lat="51.155632" lon="4.564315"><ele>8.27</ele><time>2025-05-26T14:39:58Z</time></trkpt>
<trkpt lat="51.153677" lon="4.563151"><ele>6.66</ele><time>2025-05-26T14:40:24Z</time></trkpt>
<trkpt lat="51.153502" lon="4.563119"><ele>6.47</ele><time>2025-05-26T14:40:50Z</time></trkpt>
<trkpt lat="51.152944" lon="4.563961"><ele>6.34</ele><time>2025-05-26T14:41:15Z</time></trkpt>
<trkpt lat="51.152728" lon="4.564235"><ele>4.93</ele><time>2025-05-26T14:41:41Z</time></trkpt>
<trkpt lat="51.152533" lon="4.564412"><ele>5.0</ele><time>2025-05-26T14:42:07Z</time></trkpt>
<trkpt lat="51.152436" lon="4.564412"><ele>5.35</ele><time>2025-05-26T14:42:33Z</time></trkpt>
<trkpt lat="51.152277" lon="4.564342"><ele>6.17</ele><time>2025-05-26T14:42:58Z</time></trkpt>
<trkpt lat="51.152119" lon="4.564224"><ele>7.16</ele><time>2025-05-26T14:43:24Z</time></trkpt>
<trkpt lat="51.152055" lon="4.564224"><ele>7.39</ele><time>2025-05-26T14:43:50Z</time></trkpt>
<trkpt lat="51.151995" lon="4.564278"><ele>7.42</ele><time>2025-05-26T14:44:15Z</time></trkpt>
<trkpt lat="51.151759" lon="4.564835"><ele>6.2</ele><time>2025-05-26T14:44:41Z</time></trkpt>
<trkpt lat="51.151685" lon="4.564878"><ele>6.03</ele><time>2025-05-26T14:45:07Z</time></trkpt>
<trkpt lat="51.151049" lon="4.564868"><ele>3.66</ele><time>2025-05-26T14:45:33Z</time></trkpt>
<trkpt lat="51.150938" lon="4.56483"><ele>3.13</ele><time>2025-05-26T14:45:58Z</time></trkpt>
<trkpt lat="51.150797" lon="4.564725"><ele>2.99</ele><time>2025-05-26T14:46:24Z</time></trkpt>
<trkpt lat="51.150166" lon="4.56414"><ele>5.4</ele><time>2025-05-26T14:46:50Z</time></trkpt>
<trkpt lat="51.149912" lon="4.56387"><ele>5.95</ele><time>2025-05-26T14:47:15Z</time></trkpt>
<trkpt lat="51.149787" lon="4.563838"><ele>5.95</ele><time>2025-05-26T14:47:41Z</time></trkpt>
<trkpt lat="51.149467" lon="4.563542"><ele>6.0</ele><time>2025-05-26T14:48:07Z</time></trkpt>
<trkpt lat="51.149537" lon="4.563225"><ele>6.26</ele><time>2025-05-26T14:48:14Z</time></trkpt>
<trkpt lat="51.14966" lon="4.562796"><ele>6.22</ele><time>2025-05-26T14:48:21Z</time></trkpt>
<trkpt lat="51.149899" lon="4.562182"><ele>6.51</ele><time>2025-05-26T14:48:28Z</time></trkpt>
<trkpt lat="51.151084" lon="4.560084"><ele>7.0</ele><time>2025-05-26T14:48:35Z</time></trkpt>
<trkpt lat="51.151024" lon="4.559844"><ele>7.18</ele><time>2025-05-26T14:48:40Z</time></trkpt>
<trkpt lat="51.151027" lon="4.559561"><ele>7.3</ele><time>2025-05-26T14:48:46Z</time></trkpt>
<trkpt lat="51.151283" lon="4.555737"><ele>8.0</ele><time>2025-05-26T14:48:51Z</time></trkpt>
<trkpt lat="51.151315" lon="4.555548"><ele>8.01</ele><time>2025-05-26T14:48:57Z</time></trkpt>
<trkpt lat="51.151378" lon="4.555313"><ele>8.03</ele><time>2025-05-26T14:49:02Z</time></trkpt>
<trkpt lat="51.151728" lon="4.554404"><ele>7.86</ele><time>2025-05-26T14:49:08Z</time></trkpt>
<trkpt lat="51.151991" lon="4.553655"><ele>7.03</ele><time>2025-05-26T14:49:13Z</time></trkpt>
<trkpt lat="51.152096" lon="4.553232"><ele>7.0</ele><time>2025-05-26T14:49:19Z</time></trkpt>
<trkpt lat="51.15214" lon="4.55278"><ele>7.0</ele><time>2025-05-26T14:49:24Z</time></trkpt>
<trkpt lat="51.15214" lon="4.552502"><ele>7.99</ele><time>2025-05-26T14:49:30Z</time></trkpt>
<trkpt lat="51.152118" lon="4.552235"><ele>8.0</ele><time>2025-05-26T14:49:35Z</time></trkpt>
<trkpt lat="51.152025" lon="4.551634"><ele>7.88</ele><time>2025-05-26T14:49:41Z</time></trkpt>
<trkpt lat="51.152051" lon="4.55145"><ele>7.22</ele><time>2025-05-26T14:49:46Z</time></trkpt>
<trkpt lat="51.152126" lon="4.550149"><ele>4.7</ele><time>2025-05-26T14:49:52Z</time></trkpt>
<trkpt lat="51.152149" lon="4.549961"><ele>4.67</ele><time>2025-05-26T14:49:57Z</time></trkpt>
<trkpt lat="51.154099" lon="4.548728"><ele>8.86</ele><time>2025-05-26T14:50:06Z</time></trkpt>
<trkpt lat="51.154378" lon="4.548491"><ele>9.0</ele><time>2025-05-26T14:50:14Z</time></trkpt>
<trkpt lat="51.154968" lon="4.547749"><ele>9.97</ele><time>2025-05-26T14:50:23Z</time></trkpt>
<trkpt lat="51.155125" lon="4.547463"><ele>10.1</ele><time>2025-05-26T14:50:31Z</time></trkpt>
<trkpt lat="51.156034" lon="4.545542"><ele>10.71</ele><time>2025-05-26T14:50:40Z</time></trkpt>
<trkpt lat="51.156338" lon="4.544818"><ele>10.88</ele><time>2025-05-26T14:50:48Z</time></trkpt>
<trkpt lat="51.156847" lon="4.543529"><ele>9.65</ele><time>2025-05-26T14:50:57Z</time></trkpt>
<trkpt lat="51.156887" lon="4.543468"><ele>9.79</ele><time>2025-05-26T14:51:05Z</time></trkpt>
<trkpt lat="51.156972" lon="4.543414"><ele>10.0</ele><time>2025-05-26T14:51:14Z</time></trkpt>
<trkpt lat="51.157751" lon="4.54322"><ele>10.41</ele><time>2025-05-26T14:51:22Z</time></trkpt>
<trkpt lat="51.158034" lon="4.542276"><ele>11.07</ele><time>2025-05-26T14:51:31Z</time></trkpt>
<trkpt lat="51.158919" lon="4.539598"><ele>10.11</ele><time>2025-05-26T14:51:41Z</time></trkpt>
<trkpt lat="51.158994" lon="4.539273"><ele>10.15</ele><time>2025-05-26T14:51:50Z</time></trkpt>
<trkpt lat="51.159076" lon="4.538905"><ele>10.0</ele><time>2025-05-26T14:51:59Z</time></trkpt>
<trkpt lat="51.159116" lon="4.538619"><ele>10.0</ele><time>2025-05-26T14:52:09Z</time></trkpt>
<trkpt lat="51.159147" lon="4.538253"><ele>10.0</ele><time>2025-05-26T14:52:18Z</time></trkpt>
<trkpt lat="51.159147" lon="4.536775"><ele>10.68</ele><time>2025-05-26T14:52:27Z</time></trkpt>
<trkpt lat="51.159185" lon="4.535774"><ele>11.93</ele><time>2025-05-26T14:52:37Z</time></trkpt>
<trkpt lat="51.159552" lon="4.529808"><ele>10.12</ele><time>2025-05-26T14:52:46Z</time></trkpt>
<trkpt lat="51.159628" lon="4.528803"><ele>11.65</ele><time>2025-05-26T14:52:55Z</time></trkpt>
<trkpt lat="51.159703" lon="4.52825"><ele>13.0</ele><time>2025-05-26T14:53:04Z</time></trkpt>
<trkpt lat="51.160012" lon="4.526743"><ele>12.04</ele><time>2025-05-26T14:53:14Z</time></trkpt>
<trkpt lat="51.160102" lon="4.526092"><ele>12.0</ele><time>2025-05-26T14:53:23Z</time></trkpt>
<trkpt lat="51.160237" lon="4.524375"><ele>13.21</ele><time>2025-05-26T14:53:32Z</time></trkpt>
<trkpt lat="51.160317" lon="4.523739"><ele>14.6</ele><time>2025-05-26T14:53:42Z</time></trkpt>
<trkpt lat="51.160458" lon="4.523174"><ele>14.43</ele><time>2025-05-26T14:53:51Z</time></trkpt>
<trkpt lat="51.160905" lon="4.521972"><ele>14.16</ele><time>2025-05-26T14:54:00Z</time></trkpt>
<trkpt lat="51.160987" lon="4.521705"><ele>14.94</ele><time>2025-05-26T14:54:10Z</time></trkpt>
<trkpt lat="51.161052" lon="4.521338"><ele>15.0</ele><time>2025-05-26T14:54:19Z</time></trkpt>
<trkpt lat="51.161072" lon="4.521134"><ele>15.0</ele><time>2025-05-26T14:54:28Z</time></trkpt>
<trkpt lat="51.161077" lon="4.520704"><ele>14.88</ele><time>2025-05-26T14:54:38Z</time></trkpt>
<trkpt lat="51.160515" lon="4.513415"><ele>14.0</ele><time>2025-05-26T14:54:47Z</time></trkpt>
<trkpt lat="51.160466" lon="4.513071"><ele>14.94</ele><time>2025-05-26T14:54:56Z</time></trkpt>
<trkpt lat="51.16037" lon="4.512562"><ele>15.67</ele><time>2025-05-26T14:55:06Z</time></trkpt>
<trkpt lat="51.159955" lon="4.510841"><ele>16.19</ele><time>2025-05-26T14:55:15Z</time></trkpt>
<trkpt lat="51.159821" lon="4.510513"><ele>16.55</ele><time>2025-05-26T14:55:24Z</time></trkpt>
<trkpt lat="51.15974" lon="4.510334"><ele>16.19</ele><time>2025-05-26T14:55:33Z</time></trkpt>
<trkpt lat="51.159561" lon="4.509913"><ele>16.18</ele><time>2025-05-26T14:55:43Z</time></trkpt>
<trkpt lat="51.15854" lon="4.505983"><ele>18.2</ele><time>2025-05-26T14:55:52Z</time></trkpt>
<trkpt lat="51.158322" lon="4.505156"><ele>17.54</ele><time>2025-05-26T14:56:01Z</time></trkpt>
<trkpt lat="51.158185" lon="4.504528"><ele>15.63</ele><time>2025-05-26T14:56:11Z</time></trkpt>
<trkpt lat="51.158144" lon="4.504239"><ele>14.58</ele><time>2025-05-26T14:56:20Z</time></trkpt>
<trkpt lat="51.158091" lon="4.504251"><ele>14.43</ele><time>2025-05-26T14:56:36Z</time></trkpt>
<trkpt lat="51.158091" lon="4.504251"><ele>14.43</ele><time>2025-05-26T14:56:36Z</time></trkpt>
<trkpt lat="51.158144" lon="4.504239"><ele>14.58</ele><time>2025-05-26T14:56:36Z</time></trkpt>
<trkpt lat="51.158129" lon="4.50399"><ele>14.26</ele><time>2025-05-26T14:56:52Z</time></trkpt>
<trkpt lat="51.158142" lon="4.503521"><ele>13.31</ele><time>2025-05-26T14:57:07Z</time></trkpt>
<trkpt lat="51.158515" lon="4.501294"><ele>14.34</ele><time>2025-05-26T14:57:22Z</time></trkpt>
<trkpt lat="51.159241" lon="4.497142"><ele>17.79</ele><time>2025-05-26T14:57:37Z</time></trkpt>
<trkpt lat="51.159193" lon="4.497097"><ele>17.59</ele><time>2025-05-26T14:57:46Z</time></trkpt>
<trkpt lat="51.159104" lon="4.497081"><ele>17.38</ele><time>2025-05-26T14:57:56Z</time></trkpt>
<trkpt lat="51.158952" lon="4.497208"><ele>17.21</ele><time>2025-05-26T14:58:05Z</time></trkpt>
<trkpt lat="51.155846" lon="4.500217"><ele>12.0</ele><time>2025-05-26T14:58:14Z</time></trkpt>
<trkpt lat="51.153807" lon="4.502244"><ele>13.19</ele><time>2025-05-26T14:58:24Z</time></trkpt>
<trkpt lat="51.153001" lon="4.503003"><ele>11.15</ele><time>2025-05-26T14:58:33Z</time></trkpt>
<trkpt lat="51.152315" lon="4.503646"><ele>11.67</ele><time>2025-05-26T14:58:42Z</time></trkpt>
<trkpt lat="51.150857" lon="4.504306"><ele>11.04</ele><time>2025-05-26T14:58:51Z</time></trkpt>
<trkpt lat="51.150502" lon="4.504512"><ele>10.76</ele><time>2025-05-26T14:59:01Z</time></trkpt>
<trkpt lat="51.150084" lon="4.504849"><ele>9.03</ele><time>2025-05-26T14:59:10Z</time></trkpt>
<trkpt lat="51.1497" lon="4.505302"><ele>9.84</ele><time>2025-05-26T14:59:19Z</time></trkpt>
<trkpt lat="51.149377" lon="4.505826"><ele>9.0</ele><time>2025-05-26T14:59:29Z</time></trkpt>
<trkpt lat="51.148953" lon="4.506589"><ele>7.89</ele><time>2025-05-26T14:59:38Z</time></trkpt>
<trkpt lat="51.148357" lon="4.509125"><ele>7.91</ele><time>2025-05-26T14:59:47Z</time></trkpt>
<trkpt lat="51.148192" lon="4.509611"><ele>8.0</ele><time>2025-05-26T14:59:57Z</time></trkpt>
<trkpt lat="51.148077" lon="4.509824"><ele>7.63</ele><time>2025-05-26T15:00:06Z</time></trkpt>
<trkpt lat="51.147951" lon="4.510008"><ele>7.0</ele><time>2025-05-26T15:00:15Z</time></trkpt>
<trkpt lat="51.14772" lon="4.51024"><ele>7.41</ele><time>2025-05-26T15:00:24Z</time></trkpt>
<trkpt lat="51.147487" lon="4.51039"><ele>8.6</ele><time>2025-05-26T15:00:34Z</time></trkpt>
<trkpt lat="51.147226" lon="4.510477"><ele>8.28</ele><time>2025-05-26T15:00:43Z</time></trkpt>
<trkpt lat="51.145839" lon="4.510293"><ele>5.09</ele><time>2025-05-26T15:00:52Z</time></trkpt>
<trkpt lat="51.145691" lon="4.510284"><ele>5.53</ele><time>2025-05-26T15:01:02Z</time></trkpt>
<trkpt lat="51.145558" lon="4.510319"><ele>6.14</ele><time>2025-05-26T15:01:11Z</time></trkpt>
<trkpt lat="51.145046" lon="4.510611"><ele>8.0</ele><time>2025-05-26T15:01:20Z</time></trkpt>
<trkpt lat="51.140305" lon="4.513548"><ele>6.0</ele><time>2025-05-26T15:01:30Z</time></trkpt>
<trkpt lat="51.140152" lon="4.513592"><ele>6.0</ele><time>2025-05-26T15:01:39Z</time></trkpt>
<trkpt lat="51.139017" lon="4.513557"><ele>8.0</ele><time>2025-05-26T15:01:48Z</time></trkpt>
<trkpt lat="51.138901" lon="4.513575"><ele>8.0</ele><time>2025-05-26T15:01:58Z</time></trkpt>
<trkpt lat="51.138825" lon="4.513619"><ele>7.98</ele><time>2025-05-26T15:02:07Z</time></trkpt>
<trkpt lat="51.138216" lon="4.514813"><ele>6.67</ele><time>2025-05-26T15:02:16Z</time></trkpt>
<trkpt lat="51.138007" lon="4.515133"><ele>5.91</ele><time>2025-05-26T15:02:25Z</time></trkpt>
<trkpt lat="51.137787" lon="4.515341"><ele>6.45</ele><time>2025-05-26T15:02:35Z</time></trkpt>
<trkpt lat="51.136011" lon="4.516552"><ele>5.95</ele><time>2025-05-26T15:02:44Z</time></trkpt>
<trkpt lat="51.135916" lon="4.516644"><ele>6.62</ele><time>2025-05-26T15:02:53Z</time></trkpt>
<trkpt lat="51.13585" lon="4.516769"><ele>6.96</ele><time>2025-05-26T15:03:03Z</time></trkpt>
<trkpt lat="51.135784" lon="4.517072"><ele>6.74</ele><time>2025-05-26T15:03:12Z</time></trkpt>
<trkpt lat="51.135398" lon="4.520099"><ele>7.57</ele><time>2025-05-26T15:03:21Z</time></trkpt>
<trkpt lat="51.135329" lon="4.520432"><ele>7.92</ele><time>2025-05-26T15:03:31Z</time></trkpt>
<trkpt lat="51.134326" lon="4.522873"><ele>4.57</ele><time>2025-05-26T15:03:40Z</time></trkpt>
<trkpt lat="51.133638" lon="4.524173"><ele>4.9</ele><time>2025-05-26T15:03:49Z</time></trkpt>
<trkpt lat="51.133567" lon="4.524381"><ele>5.12</ele><time>2025-05-26T15:03:58Z</time></trkpt>
<trkpt lat="51.132877" lon="4.527141"><ele>3.71</ele><time>2025-05-26T15:04:08Z</time></trkpt>
<trkpt lat="51.13277" lon="4.527362"><ele>4.0</ele><time>2025-05-26T15:04:17Z</time></trkpt>
<trkpt lat="51.132609" lon="4.52761"><ele>4.4</ele><time>2025-05-26T15:04:26Z</time></trkpt>
<trkpt lat="51.131714" lon="4.528847"><ele>6.85</ele><time>2025-05-26T15:04:36Z</time></trkpt>
<trkpt lat="51.131602" lon="4.529102"><ele>7.23</ele><time>2025-05-26T15:04:45Z</time></trkpt>
<trkpt lat="51.131124" lon="4.530436"><ele>4.02</ele><time>2025-05-26T15:04:54Z</time></trkpt>
<trkpt lat="51.131056" lon="4.530527"><ele>4.2</ele><time>2025-05-26T15:05:04Z</time></trkpt>
<trkpt lat="51.131264" lon="4.531035"><ele>5.17</ele><time>2025-05-26T15:05:08Z</time></trkpt>
<trkpt lat="51.1313" lon="4.531187"><ele>5.32</ele><time>2025-05-26T15:05:12Z</time></trkpt>
<trkpt lat="51.131292" lon="4.531483"><ele>5.69</ele><time>2025-05-26T15:05:16Z</time></trkpt>
<trkpt lat="51.131241" lon="4.53165"><ele>6.47</ele><time>2025-05-26T15:05:20Z</time></trkpt>
<trkpt lat="51.13018" lon="4.534029"><ele>4.0</ele><time>2025-05-26T15:05:25Z</time></trkpt>
<trkpt lat="51.13018" lon="4.534029"><ele>4.0</ele><time>2025-05-26T15:05:25Z</time></trkpt>
<trkpt lat="51.12878" lon="4.532396"><ele>3.39</ele><time>2025-05-26T15:05:32Z</time></trkpt>
<trkpt lat="51.128509" lon="4.532269"><ele>4.43</ele><time>2025-05-26T15:05:39Z</time></trkpt>
<trkpt lat="51.127952" lon="4.532158"><ele>4.85</ele><time>2025-05-26T15:05:46Z</time></trkpt>
<trkpt lat="51.127496" lon="4.531974"><ele>3.1</ele><time>2025-05-26T15:05:54Z</time></trkpt>
<trkpt lat="51.126487" lon="4.531451"><ele>4.93</ele><time>2025-05-26T15:06:01Z</time></trkpt>
<trkpt lat="51.123998" lon="4.529914"><ele>3.58</ele><time>2025-05-26T15:06:08Z</time></trkpt>
<trkpt lat="51.123815" lon="4.529887"><ele>3.67</ele><time>2025-05-26T15:06:16Z</time></trkpt>
<trkpt lat="51.123526" lon="4.529967"><ele>4.73</ele><time>2025-05-26T15:06:23Z</time></trkpt>
<trkpt lat="51.123421" lon="4.529938"><ele>5.59</ele><time>2025-05-26T15:06:30Z</time></trkpt>
<trkpt lat="51.123258" lon="4.529821"><ele>6.64</ele><time>2025-05-26T15:06:37Z</time></trkpt>
<trkpt lat="51.121651" lon="4.527535"><ele>5.0</ele><time>2025-05-26T15:06:45Z</time></trkpt>
<trkpt lat="51.120948" lon="4.526387"><ele>5.0</ele><time>2025-05-26T15:06:52Z</time></trkpt>
<trkpt lat="51.120747" lon="4.526199"><ele>5.0</ele><time>2025-05-26T15:06:59Z</time></trkpt>
<trkpt lat="51.11943" lon="4.525412"><ele>5.0</ele><time>2025-05-26T15:07:06Z</time></trkpt>
<trkpt lat="51.119327" lon="4.525324"><ele>5.0</ele><time>2025-05-26T15:07:14Z</time></trkpt>
<trkpt lat="51.118639" lon="4.524486"><ele>5.9</ele><time>2025-05-26T15:07:21Z</time></trkpt>
<trkpt lat="51.118492" lon="4.524353"><ele>6.14</ele><time>2025-05-26T15:07:28Z</time></trkpt>
<trkpt lat="51.118328" lon="4.524244"><ele>6.71</ele><time>2025-05-26T15:07:36Z</time></trkpt>
<trkpt lat="51.117936" lon="4.524046"><ele>5.57</ele><time>2025-05-26T15:07:43Z</time></trkpt>
<trkpt lat="51.1178" lon="4.524016"><ele>5.08</ele><time>2025-05-26T15:07:50Z</time></trkpt>
<trkpt lat="51.117784" lon="4.524119"><ele>5.02</ele><time>2025-05-26T15:07:59Z</time></trkpt>
<trkpt lat="51.117131" lon="4.524989"><ele>3.35</ele><time>2025-05-26T15:08:07Z</time></trkpt>
<trkpt lat="51.116513" lon="4.523626"><ele>3.95</ele><time>2025-05-26T15:08:16Z</time></trkpt>
<trkpt lat="51.116265" lon="4.523162"><ele>4.17</ele><time>2025-05-26T15:08:25Z</time></trkpt>
<trkpt lat="51.116042" lon="4.522815"><ele>4.0</ele><time>2025-05-26T15:08:34Z</time></trkpt>
<trkpt lat="51.115873" lon="4.52261"><ele>4.0</ele><time>2025-05-26T15:08:43Z</time></trkpt>
<trkpt lat="51.115263" lon="4.522126"><ele>2.73</ele><time>2025-05-26T15:08:52Z</time></trkpt>
<trkpt lat="51.115104" lon="4.521945"><ele>3.25</ele><time>2025-05-26T15:09:01Z</time></trkpt>
<trkpt lat="51.114403" lon="4.520815"><ele>2.85</ele><time>2025-05-26T15:09:09Z</time></trkpt>
<trkpt lat="51.114197" lon="4.520573"><ele>2.11</ele><time>2025-05-26T15:09:18Z</time></trkpt>
<trkpt lat="51.113975" lon="4.520394"><ele>2.58</ele><time>2025-05-26T15:09:27Z</time></trkpt>
<trkpt lat="51.113029" lon="4.518752"><ele>4.64</ele><time>2025-05-26T15:09:36Z</time></trkpt>
<trkpt lat="51.112711" lon="4.51824"><ele>6.4</ele><time>2025-05-26T15:09:45Z</time></trkpt>
<trkpt lat="51.111809" lon="4.51718"><ele>1.92</ele><time>2025-05-26T15:09:54Z</time></trkpt>
<trkpt lat="51.111634" lon="4.516923"><ele>2.14</ele><time>2025-05-26T15:10:03Z</time></trkpt>
<trkpt lat="51.111634" lon="4.516923"><ele>2.14</ele><time>2025-05-26T15:10:03Z</time></trkpt>
<trkpt lat="51.111091" lon="4.515821"><ele>5.14</ele><time>2025-05-26T15:10:11Z</time></trkpt>
<trkpt lat="51.110568" lon="4.514574"><ele>3.49</ele><time>2025-05-26T15:10:18Z</time></trkpt>
<trkpt lat="51.110445" lon="4.514225"><ele>2.13</ele><time>2025-05-26T15:10:26Z</time></trkpt>
<trkpt lat="51.110383" lon="4.513965"><ele>2.0</ele><time>2025-05-26T15:10:33Z</time></trkpt>
<trkpt lat="51.110325" lon="4.513606"><ele>3.0</ele><time>2025-05-26T15:10:41Z</time></trkpt>
<trkpt lat="51.110237" lon="4.513581"><ele>2.85</ele><time>2025-05-26T15:10:45Z</time></trkpt>
<trkpt lat="51.109906" lon="4.513337"><ele>2.0</ele><time>2025-05-26T15:10:49Z</time></trkpt>
<trkpt lat="51.10985" lon="4.513317"><ele>2.03</ele><time>2025-05-26T15:10:54Z</time></trkpt>
<trkpt lat="51.10974" lon="4.51336"><ele>2.0</ele><time>2025-05-26T15:10:58Z</time></trkpt>
<trkpt lat="51.109513" lon="4.513506"><ele>2.0</ele><time>2025-05-26T15:11:02Z</time></trkpt>
<trkpt lat="51.109222" lon="4.513894"><ele>3.8</ele><time>2025-05-26T15:11:06Z</time></trkpt>
<trkpt lat="51.108682" lon="4.514507"><ele>3.51</ele><time>2025-05-26T15:11:10Z</time></trkpt>
<trkpt lat="51.109002" lon="4.51535"><ele>4.15</ele><time>2025-05-26T15:11:17Z</time></trkpt>
<trkpt lat="51.109176" lon="4.515894"><ele>3.76</ele><time>2025-05-26T15:11:24Z</time></trkpt>
<trkpt lat="51.109537" lon="4.516472"><ele>4.63</ele><time>2025-05-26T15:11:30Z</time></trkpt>
<trkpt lat="51.109043" lon="4.517655"><ele>3.49</ele><time>2025-05-26T15:11:35Z</time></trkpt>
<trkpt lat="51.108951" lon="4.517793"><ele>3.79</ele><time>2025-05-26T15:11:41Z</time></trkpt>
<trkpt lat="51.108803" lon="4.517908"><ele>3.69</ele><time>2025-05-26T15:11:46Z</time></trkpt>
<trkpt lat="51.108211" lon="4.518129"><ele>3.32</ele><time>2025-05-26T15:11:51Z</time></trkpt>
<trkpt lat="51.107904" lon="4.518642"><ele>3.55</ele><time>2025-05-26T15:11:56Z</time></trkpt>
<trkpt lat="51.107469" lon="4.519105"><ele>3.0</ele><time>2025-05-26T15:12:01Z</time></trkpt>
<trkpt lat="51.107372" lon="4.519231"><ele>3.0</ele><time>2025-05-26T15:12:07Z</time></trkpt>
<trkpt lat="51.10731" lon="4.519346"><ele>3.0</ele><time>2025-05-26T15:12:12Z</time></trkpt>
<trkpt lat="51.107147" lon="4.519758"><ele>3.37</ele><time>2025-05-26T15:12:17Z</time></trkpt>
<trkpt lat="51.107073" lon="4.519876"><ele>3.79</ele><time>2025-05-26T15:12:22Z</time></trkpt>
<trkpt lat="51.106259" lon="4.520654"><ele>5.0</ele><time>2025-05-26T15:12:27Z</time></trkpt>
<trkpt lat="51.105055" lon="4.518537"><ele>5.26</ele><time>2025-05-26T15:12:41Z</time></trkpt>
<trkpt lat="51.104856" lon="4.518136"><ele>6.15</ele><time>2025-05-26T15:12:55Z</time></trkpt>
<trkpt lat="51.104684" lon="4.517735"><ele>5.98</ele><time>2025-05-26T15:13:09Z</time></trkpt>
<trkpt lat="51.103445" lon="4.514011"><ele>5.0</ele><time>2025-05-26T15:13:22Z</time></trkpt>
<trkpt lat="51.103106" lon="4.513322"><ele>5.83</ele><time>2025-05-26T15:13:36Z</time></trkpt>
<trkpt lat="51.101819" lon="4.511363"><ele>6.0</ele><time>2025-05-26T15:13:50Z</time></trkpt>
<trkpt lat="51.100995" lon="4.50999"><ele>5.01</ele><time>2025-05-26T15:14:03Z</time></trkpt>
<trkpt lat="51.099177" lon="4.507035"><ele>6.29</ele><time>2025-05-26T15:14:17Z</time></trkpt>
<trkpt lat="51.099112" lon="4.506834"><ele>6.0</ele><time>2025-05-26T15:14:31Z</time></trkpt>
<trkpt lat="51.099104" lon="4.506713"><ele>6.0</ele><time>2025-05-26T15:14:42Z</time></trkpt>
<trkpt lat="51.099252" lon="4.506427"><ele>5.05</ele><time>2025-05-26T15:14:53Z</time></trkpt>
<trkpt lat="51.102168" lon="4.503455"><ele>4.8</ele><time>2025-05-26T15:15:05Z</time></trkpt>
<trkpt lat="51.102441" lon="4.503068"><ele>4.97</ele><time>2025-05-26T15:15:16Z</time></trkpt>
<trkpt lat="51.102616" lon="4.50271"><ele>4.83</ele><time>2025-05-26T15:15:27Z</time></trkpt>
<trkpt lat="51.102841" lon="4.502047"><ele>6.63</ele><time>2025-05-26T15:15:38Z</time></trkpt>
<trkpt lat="51.103647" lon="4.499297"><ele>9.41</ele><time>2025-05-26T15:15:49Z</time></trkpt>
<trkpt lat="51.103998" lon="4.498182"><ele>10.0</ele><time>2025-05-26T15:16:01Z</time></trkpt>
<trkpt lat="51.10428" lon="4.497584"><ele>8.9</ele><time>2025-05-26T15:16:12Z</time></trkpt>
<trkpt lat="51.10498" lon="4.496366"><ele>10.01</ele><time>2025-05-26T15:16:23Z</time></trkpt>
<trkpt lat="51.105229" lon="4.49605"><ele>9.18</ele><time>2025-05-26T15:16:34Z</time></trkpt>
<trkpt lat="51.105266" lon="4.496093"><ele>9.04</ele><time>2025-05-26T15:16:37Z</time></trkpt>
<trkpt lat="51.105315" lon="4.496085"><ele>8.87</ele><time>2025-05-26T15:16:39Z</time></trkpt>
<trkpt lat="51.105346" lon="4.496032"><ele>8.76</ele><time>2025-05-26T15:16:41Z</time></trkpt>
<trkpt lat="51.10534" lon="4.495932"><ele>8.78</ele><time>2025-05-26T15:16:43Z</time></trkpt>
<trkpt lat="51.105839" lon="4.495511"><ele>9.14</ele><time>2025-05-26T15:16:46Z</time></trkpt>
<trkpt lat="51.106053" lon="4.495358"><ele>8.92</ele><time>2025-05-26T15:16:48Z</time></trkpt>
<trkpt lat="51.106234" lon="4.495263"><ele>8.56</ele><time>2025-05-26T15:16:50Z</time></trkpt>
<trkpt lat="51.106251" lon="4.495338"><ele>8.39</ele><time>2025-05-26T15:17:21Z</time></trkpt>
<trkpt lat="51.106251" lon="4.495338"><ele>8.39</ele><time>2025-05-26T15:17:21Z</time></trkpt>
<trkpt lat="51.106234" lon="4.495263"><ele>8.56</ele><time>2025-05-26T15:17:22Z</time></trkpt>
<trkpt lat="51.106432" lon="4.495167"><ele>8.0</ele><time>2025-05-26T15:17:25Z</time></trkpt>
<trkpt lat="51.106638" lon="4.495125"><ele>8.0</ele><time>2025-05-26T15:17:28Z</time></trkpt>
<trkpt lat="51.106643" lon="4.494967"><ele>7.88</ele><time>2025-05-26T15:17:32Z</time></trkpt>
<trkpt lat="51.106672" lon="4.494853"><ele>7.48</ele><time>2025-05-26T15:17:36Z</time></trkpt>
<trkpt lat="51.106878" lon="4.494519"><ele>7.76</ele><time>2025-05-26T15:17:40Z</time></trkpt>
<trkpt lat="51.107541" lon="4.492914"><ele>7.44</ele><time>2025-05-26T15:17:45Z</time></trkpt>
<trkpt lat="51.107707" lon="4.492641"><ele>9.73</ele><time>2025-05-26T15:17:49Z</time></trkpt>
<trkpt lat="51.10793" lon="4.492385"><ele>10.45</ele><time>2025-05-26T15:17:53Z</time></trkpt>
<trkpt lat="51.108163" lon="4.4922"><ele>9.18</ele><time>2025-05-26T15:17:57Z</time></trkpt>
<trkpt lat="51.108401" lon="4.492068"><ele>7.89</ele><time>2025-05-26T15:18:01Z</time></trkpt>
<trkpt lat="51.108633" lon="4.491898"><ele>8.0</ele><time>2025-05-26T15:18:05Z</time></trkpt>
<trkpt lat="51.10886" lon="4.491619"><ele>8.15</ele><time>2025-05-26T15:18:10Z</time></trkpt>
<trkpt lat="51.108977" lon="4.491389"><ele>9.0</ele><time>2025-05-26T15:18:14Z</time></trkpt>
<trkpt lat="51.109809" lon="4.489249"><ele>10.52</ele><time>2025-05-26T15:18:18Z</time></trkpt>
<trkpt lat="51.109922" lon="4.488883"><ele>10.7</ele><time>2025-05-26T15:18:22Z</time></trkpt>
<trkpt lat="51.109971" lon="4.488635"><ele>10.07</ele><time>2025-05-26T15:18:26Z</time></trkpt>
<trkpt lat="51.110088" lon="4.487224"><ele>10.68</ele><time>2025-05-26T15:18:30Z</time></trkpt>
<trkpt lat="51.110166" lon="4.486663"><ele>9.81</ele><time>2025-05-26T15:18:35Z</time></trkpt>
<trkpt lat="51.110334" lon="4.485939"><ele>9.3</ele><time>2025-05-26T15:18:39Z</time></trkpt>
<trkpt lat="51.110581" lon="4.485197"><ele>9.09</ele><time>2025-05-26T15:18:43Z</time></trkpt>
<trkpt lat="51.111362" lon="4.483583"><ele>11.01</ele><time>2025-05-26T15:18:47Z</time></trkpt>
<trkpt lat="51.11161" lon="4.483034"><ele>10.4</ele><time>2025-05-26T15:18:51Z</time></trkpt>
<trkpt lat="51.111799" lon="4.482536"><ele>10.0</ele><time>2025-05-26T15:18:56Z</time></trkpt>
<trkpt lat="51.112178" lon="4.481015"><ele>11.71</ele><time>2025-05-26T15:19:00Z</time></trkpt>
<trkpt lat="51.112395" lon="4.480361"><ele>10.81</ele><time>2025-05-26T15:19:04Z</time></trkpt>
<trkpt lat="51.112596" lon="4.479908"><ele>11.45</ele><time>2025-05-26T15:19:08Z</time></trkpt>
<trkpt lat="51.112848" lon="4.479508"><ele>11.06</ele><time>2025-05-26T15:19:12Z</time></trkpt>
<trkpt lat="51.113171" lon="4.479093"><ele>10.0</ele><time>2025-05-26T15:19:16Z</time></trkpt>
<trkpt lat="51.113538" lon="4.478679"><ele>8.51</ele><time>2025-05-26T15:19:21Z</time></trkpt>
<trkpt lat="51.114803" lon="4.477519"><ele>9.76</ele><time>2025-05-26T15:19:25Z</time></trkpt>
<trkpt lat="51.116387" lon="4.476317"><ele>13.99</ele><time>2025-05-26T15:19:29Z</time></trkpt>
<trkpt lat="51.117149" lon="4.475631"><ele>14.0</ele><time>2025-05-26T15:19:33Z</time></trkpt>
<trkpt lat="51.117502" lon="4.475253"><ele>12.99</ele><time>2025-05-26T15:19:37Z</time></trkpt>
<trkpt lat="51.117696" lon="4.474944"><ele>12.29</ele><time>2025-05-26T15:19:41Z</time></trkpt>
<trkpt lat="51.117885" lon="4.474601"><ele>11.61</ele><time>2025-05-26T15:19:46Z</time></trkpt>
<trkpt lat="51.118328" lon="4.473432"><ele>12.0</ele><time>2025-05-26T15:19:50Z</time></trkpt>
<trkpt lat="51.118905" lon="4.471844"><ele>12.94</ele><time>2025-05-26T15:19:54Z</time></trkpt>
<trkpt lat="51.119551" lon="4.46993"><ele>12.61</ele><time>2025-05-26T15:19:58Z</time></trkpt>
<trkpt lat="51.119822" lon="4.469186"><ele>11.64</ele><time>2025-05-26T15:20:02Z</time></trkpt>
<trkpt lat="51.119822" lon="4.469186"><ele>11.64</ele><time>2025-05-26T15:20:02Z</time></trkpt>
<trkpt lat="51.118979" lon="4.468318"><ele>15.0</ele><time>2025-05-26T15:20:26Z</time></trkpt>
<trkpt lat="51.114125" lon="4.463338"><ele>14.85</ele><time>2025-05-26T15:20:49Z</time></trkpt>
<trkpt lat="51.11402" lon="4.463206"><ele>14.71</ele><time>2025-05-26T15:21:13Z</time></trkpt>
<trkpt lat="51.113577" lon="4.463876"><ele>14.95</ele><time>2025-05-26T15:21:18Z</time></trkpt>
<trkpt lat="51.113088" lon="4.464448"><ele>14.0</ele><time>2025-05-26T15:21:23Z</time></trkpt>
<trkpt lat="51.112924" lon="4.464703"><ele>13.56</ele><time>2025-05-26T15:21:27Z</time></trkpt>
<trkpt lat="51.112874" lon="4.465227"><ele>12.35</ele><time>2025-05-26T15:21:32Z</time></trkpt>
<trkpt lat="51.112366" lon="4.466289"><ele>10.96</ele><time>2025-05-26T15:21:37Z</time></trkpt>
<trkpt lat="51.112317" lon="4.466461"><ele>11.15</ele><time>2025-05-26T15:21:42Z</time></trkpt>
<trkpt lat="51.11221" lon="4.467332"><ele>13.0</ele><time>2025-05-26T15:21:47Z</time></trkpt>
<trkpt lat="51.112161" lon="4.467279"><ele>13.0</ele><time>2025-05-26T15:21:58Z</time></trkpt>
<trkpt lat="51.111215" lon="4.464684"><ele>13.0</ele><time>2025-05-26T15:22:10Z</time></trkpt>
<trkpt lat="51.110524" lon="4.462692"><ele>15.03</ele><time>2025-05-26T15:22:21Z</time></trkpt>
<trkpt lat="51.109701" lon="4.462889"><ele>13.07</ele><time>2025-05-26T15:22:27Z</time></trkpt>
<trkpt lat="51.108766" lon="4.462883"><ele>17.17</ele><time>2025-05-26T15:22:32Z</time></trkpt>
<trkpt lat="51.108572" lon="4.46293"><ele>17.33</ele><time>2025-05-26T15:22:38Z</time></trkpt>
<trkpt lat="51.108365" lon="4.463059"><ele>16.24</ele><time>2025-05-26T15:22:43Z</time></trkpt>
<trkpt lat="51.107731" lon="4.463715"><ele>14.69</ele><time>2025-05-26T15:22:48Z</time></trkpt>
<trkpt lat="51.107501" lon="4.463859"><ele>14.99</ele><time>2025-05-26T15:22:54Z</time></trkpt>
<trkpt lat="51.107501" lon="4.463859"><ele>14.99</ele><time>2025-05-26T15:22:54Z</time></trkpt>
<trkpt lat="51.107447" lon="4.46342"><ele>15.19</ele><time>2025-05-26T15:23:00Z</time></trkpt>
<trkpt lat="51.107439" lon="4.463139"><ele>15.76</ele><time>2025-05-26T15:23:06Z</time></trkpt>
<trkpt lat="51.107457" lon="4.462716"><ele>16.22</ele><time>2025-05-26T15:23:11Z</time></trkpt>
<trkpt lat="51.107453" lon="4.462405"><ele>17.0</ele><time>2025-05-26T15:23:17Z</time></trkpt>
<trkpt lat="51.107329" lon="4.461147"><ele>17.62</ele><time>2025-05-26T15:23:23Z</time></trkpt>
<trkpt lat="51.107315" lon="4.460766"><ele>18.08</ele><time>2025-05-26T15:23:29Z</time></trkpt>
<trkpt lat="51.107356" lon="4.460299"><ele>18.96</ele><time>2025-05-26T15:23:35Z</time></trkpt>
<trkpt lat="51.107378" lon="4.459267"><ele>19.8</ele><time>2025-05-26T15:23:40Z</time></trkpt>
<trkpt lat="51.107352" lon="4.458838"><ele>20.65</ele><time>2025-05-26T15:23:46Z</time></trkpt>
<trkpt lat="51.107151" lon="4.4574"><ele>21.25</ele><time>2025-05-26T15:23:52Z</time></trkpt>
<trkpt lat="51.106909" lon="4.456124"><ele>24.12</ele><time>2025-05-26T15:23:58Z</time></trkpt>
<trkpt lat="51.106852" lon="4.455622"><ele>23.33</ele><time>2025-05-26T15:24:04Z</time></trkpt>
<trkpt lat="51.106782" lon="4.455255"><ele>23.58</ele><time>2025-05-26T15:24:10Z</time></trkpt>
<trkpt lat="51.106774" lon="4.455093"><ele>23.61</ele><time>2025-05-26T15:24:15Z</time></trkpt>
<trkpt lat="51.106817" lon="4.454964"><ele>23.46</ele><time>2025-05-26T15:24:21Z</time></trkpt>
<trkpt lat="51.106917" lon="4.45487"><ele>23.1</ele><time>2025-05-26T15:24:27Z</time></trkpt>
<trkpt lat="51.106665" lon="4.453403"><ele>23.01</ele><time>2025-05-26T15:24:36Z</time></trkpt>
<trkpt lat="51.106633" lon="4.453309"><ele>23.32</ele><time>2025-05-26T15:24:45Z</time></trkpt>
<trkpt lat="51.106528" lon="4.453102"><ele>24.41</ele><time>2025-05-26T15:24:54Z</time></trkpt>
<trkpt lat="51.106623" lon="4.452901"><ele>24.16</ele><time>2025-05-26T15:25:03Z</time></trkpt>
<trkpt lat="51.107166" lon="4.450843"><ele>24.03</ele><time>2025-05-26T15:25:12Z</time></trkpt>
<trkpt lat="51.107763" lon="4.448395"><ele>21.05</ele><time>2025-05-26T15:25:21Z</time></trkpt>
<trkpt lat="51.108997" lon="4.443563"><ele>19.0</ele><time>2025-05-26T15:25:30Z</time></trkpt>
<trkpt lat="51.109046" lon="4.443314"><ele>19.03</ele><time>2025-05-26T15:25:39Z</time></trkpt>
<trkpt lat="51.109108" lon="4.442866"><ele>19.21</ele><time>2025-05-26T15:25:48Z</time></trkpt>
<trkpt lat="51.109103" lon="4.442242"><ele>19.23</ele><time>2025-05-26T15:25:57Z</time></trkpt>
<trkpt lat="51.109001" lon="4.44158"><ele>20.0</ele><time>2025-05-26T15:26:06Z</time></trkpt>
<trkpt lat="51.108876" lon="4.441154"><ele>20.0</ele><time>2025-05-26T15:26:15Z</time></trkpt>
<trkpt lat="51.108715" lon="4.440806"><ele>20.0</ele><time>2025-05-26T15:26:24Z</time></trkpt>
<trkpt lat="51.108501" lon="4.440479"><ele>20.0</ele><time>2025-05-26T15:26:33Z</time></trkpt>
<trkpt lat="51.10668" lon="4.438356"><ele>21.95</ele><time>2025-05-26T15:26:42Z</time></trkpt>
<trkpt lat="51.104862" lon="4.436288"><ele>24.31</ele><time>2025-05-26T15:26:51Z</time></trkpt>
<trkpt lat="51.104453" lon="4.435713"><ele>24.93</ele><time>2025-05-26T15:27:00Z</time></trkpt>
<trkpt lat="51.103992" lon="4.434935"><ele>25.91</ele><time>2025-05-26T15:27:09Z</time></trkpt>
<trkpt lat="51.101659" lon="4.430841"><ele>24.0</ele><time>2025-05-26T15:27:18Z</time></trkpt>
<trkpt lat="51.101471" lon="4.43048"><ele>22.73</ele><time>2025-05-26T15:27:26Z</time></trkpt>
<trkpt lat="51.101104" lon="4.429679"><ele>22.0</ele><time>2025-05-26T15:27:35Z</time></trkpt>
<trkpt lat="51.100791" lon="4.428837"><ele>23.15</ele><time>2025-05-26T15:27:44Z</time></trkpt>
<trkpt lat="51.100458" lon="4.427837"><ele>25.35</ele><time>2025-05-26T15:27:53Z</time></trkpt>
<trkpt lat="51.100408" lon="4.427623"><ele>25.23</ele><time>2025-05-26T15:28:02Z</time></trkpt>
<trkpt lat="51.10036" lon="4.427317"><ele>25.0</ele><time>2025-05-26T15:28:11Z</time></trkpt>
<trkpt lat="51.100354" lon="4.426861"><ele>24.27</ele><time>2025-05-26T15:28:20Z</time></trkpt>
<trkpt lat="51.100408" lon="4.42646"><ele>23.73</ele><time>2025-05-26T15:28:29Z</time></trkpt>
<trkpt lat="51.100868" lon="4.423699"><ele>22.44</ele><time>2025-05-26T15:28:38Z</time></trkpt>
<trkpt lat="51.100942" lon="4.423466"><ele>22.39</ele><time>2025-05-26T15:28:47Z</time></trkpt>
<trkpt lat="51.101028" lon="4.423447"><ele>22.7</ele><time>2025-05-26T15:28:55Z</time></trkpt>
<trkpt lat="51.10107" lon="4.423405"><ele>22.85</ele><time>2025-05-26T15:29:03Z</time></trkpt>
<trkpt lat="51.101103" lon="4.423294"><ele>22.83</ele><time>2025-05-26T15:29:11Z</time></trkpt>
<trkpt lat="51.101137" lon="4.42303"><ele>22.09</ele><time>2025-05-26T15:29:18Z</time></trkpt>
<trkpt lat="51.101116" lon="4.422944"><ele>22.02</ele><time>2025-05-26T15:29:26Z</time></trkpt>
<trkpt lat="51.101059" lon="4.42286"><ele>22.0</ele><time>2025-05-26T15:29:34Z</time></trkpt>
<trkpt lat="51.10106" lon="4.42252"><ele>22.93</ele><time>2025-05-26T15:29:42Z</time></trkpt>
<trkpt lat="51.1011" lon="4.421939"><ele>24.04</ele><time>2025-05-26T15:29:50Z</time></trkpt>
<trkpt lat="51.101111" lon="4.421094"><ele>24.06</ele><time>2025-05-26T15:29:58Z</time></trkpt>
<trkpt lat="51.100818" lon="4.416629"><ele>27.93</ele><time>2025-05-26T15:30:06Z</time></trkpt>
<trkpt lat="51.100852" lon="4.415898"><ele>26.17</ele><time>2025-05-26T15:30:13Z</time></trkpt>
<trkpt lat="51.101046" lon="4.413673"><ele>26.0</ele><time>2025-05-26T15:30:21Z</time></trkpt>
<trkpt lat="51.101104" lon="4.41273"><ele>26.0</ele><time>2025-05-26T15:30:29Z</time></trkpt>
<trkpt lat="51.101173" lon="4.412562"><ele>25.78</ele><time>2025-05-26T15:30:37Z</time></trkpt>
<trkpt lat="51.101224" lon="4.412528"><ele>25.59</ele><time>2025-05-26T15:30:45Z</time></trkpt>
<trkpt lat="51.101184" lon="4.412339"><ele>25.74</ele><time>2025-05-26T15:30:51Z</time></trkpt>
<trkpt lat="51.101136" lon="4.411797"><ele>25.0</ele><time>2025-05-26T15:30:57Z</time></trkpt>
<trkpt lat="51.10107" lon="4.411306"><ele>24.0</ele><time>2025-05-26T15:31:03Z</time></trkpt>
<trkpt lat="51.100946" lon="4.410868"><ele>23.12</ele><time>2025-05-26T15:31:10Z</time></trkpt>
<trkpt lat="51.100894" lon="4.410798"><ele>23.0</ele><time>2025-05-26T15:31:16Z</time></trkpt>
<trkpt lat="51.100584" lon="4.410225"><ele>23.0</ele><time>2025-05-26T15:31:22Z</time></trkpt>
<trkpt lat="51.100523" lon="4.41005"><ele>23.0</ele><time>2025-05-26T15:31:28Z</time></trkpt>
<trkpt lat="51.100007" lon="4.407909"><ele>19.97</ele><time>2025-05-26T15:31:34Z</time></trkpt>
<trkpt lat="51.099973" lon="4.407451"><ele>20.1</ele><time>2025-05-26T15:31:41Z</time></trkpt>
<trkpt lat="51.099986" lon="4.407127"><ele>20.03</ele><time>2025-05-26T15:31:47Z</time></trkpt>
<trkpt lat="51.10009" lon="4.406246"><ele>19.16</ele><time>2025-05-26T15:31:53Z</time></trkpt>
<trkpt lat="51.100153" lon="4.405597"><ele>19.55</ele><time>2025-05-26T15:31:59Z</time></trkpt>
<trkpt lat="51.10016" lon="4.405374"><ele>20.23</ele><time>2025-05-26T15:32:05Z</time></trkpt>
<trkpt lat="51.100101" lon="4.404753"><ele>19.47</ele><time>2025-05-26T15:32:12Z</time></trkpt>
<trkpt lat="51.100053" lon="4.404476"><ele>18.3</ele><time>2025-05-26T15:32:18Z</time></trkpt>
<trkpt lat="51.099583" lon="4.402479"><ele>18.0</ele><time>2025-05-26T15:32:24Z</time></trkpt>
<trkpt lat="51.099535" lon="4.402128"><ele>17.77</ele><time>2025-05-26T15:32:30Z</time></trkpt>
<trkpt lat="51.099513" lon="4.401771"><ele>17.25</ele><time>2025-05-26T15:32:36Z</time></trkpt>
<trkpt lat="51.099513" lon="4.401771"><ele>17.25</ele><time>2025-05-26T15:32:36Z</time></trkpt>
<trkpt lat="51.095506" lon="4.40016"><ele>22.0</ele><time>2025-05-26T15:32:48Z</time></trkpt>
<trkpt lat="51.095374" lon="4.400077"><ele>22.0</ele><time>2025-05-26T15:32:59Z</time></trkpt>
<trkpt lat="51.095123" lon="4.399852"><ele>22.56</ele><time>2025-05-26T15:33:11Z</time></trkpt>
<trkpt lat="51.094848" lon="4.399397"><ele>22.83</ele><time>2025-05-26T15:33:22Z</time></trkpt>
<trkpt lat="51.093501" lon="4.396662"><ele>23.79</ele><time>2025-05-26T15:33:34Z</time></trkpt>
<trkpt lat="51.093161" lon="4.396227"><ele>24.38</ele><time>2025-05-26T15:33:45Z</time></trkpt>
<trkpt lat="51.092705" lon="4.395693"><ele>23.89</ele><time>2025-05-26T15:33:57Z</time></trkpt>
<trkpt lat="51.091949" lon="4.39507"><ele>26.0</ele><time>2025-05-26T15:34:08Z</time></trkpt>
<trkpt lat="51.091659" lon="4.394806"><ele>26.73</ele><time>2025-05-26T15:34:20Z</time></trkpt>
<trkpt lat="51.091427" lon="4.394709"><ele>27.86</ele><time>2025-05-26T15:34:31Z</time></trkpt>
<trkpt lat="51.091207" lon="4.394576"><ele>28.69</ele><time>2025-05-26T15:34:43Z</time></trkpt>
<trkpt lat="51.09013" lon="4.394192"><ele>27.86</ele><time>2025-05-26T15:34:54Z</time></trkpt>
<trkpt lat="51.089708" lon="4.394009"><ele>25.98</ele><time>2025-05-26T15:35:05Z</time></trkpt>
<trkpt lat="51.089685" lon="4.393949"><ele>26.17</ele><time>2025-05-26T15:35:17Z</time></trkpt>
<trkpt lat="51.089692" lon="4.393456"><ele>27.84</ele><time>2025-05-26T15:35:28Z</time></trkpt>
<trkpt lat="51.089725" lon="4.392582"><ele>28.29</ele><time>2025-05-26T15:35:40Z</time></trkpt>
<trkpt lat="51.089754" lon="4.391168"><ele>26.0</ele><time>2025-05-26T15:35:51Z</time></trkpt>
<trkpt lat="51.089663" lon="4.391136"><ele>26.0</ele><time>2025-05-26T15:35:57Z</time></trkpt>
<trkpt lat="51.089274" lon="4.390745"><ele>27.61</ele><time>2025-05-26T15:36:02Z</time></trkpt>
<trkpt lat="51.088541" lon="4.389845"><ele>24.02</ele><time>2025-05-26T15:36:08Z</time></trkpt>
<trkpt lat="51.088177" lon="4.389556"><ele>22.61</ele><time>2025-05-26T15:36:13Z</time></trkpt>
<trkpt lat="51.087835" lon="4.389228"><ele>20.28</ele><time>2025-05-26T15:36:19Z</time></trkpt>
<trkpt lat="51.086685" lon="4.388168"><ele>14.39</ele><time>2025-05-26T15:36:24Z</time></trkpt>
<trkpt lat="51.086501" lon="4.387911"><ele>12.6</ele><time>2025-05-26T15:36:29Z</time></trkpt>
<trkpt lat="51.08638" lon="4.387646"><ele>10.97</ele><time>2025-05-26T15:36:35Z</time></trkpt>
<trkpt lat="51.086251" lon="4.387175"><ele>8.33</ele><time>2025-05-26T15:36:40Z</time></trkpt>
<trkpt lat="51.086217" lon="4.386878"><ele>7.43</ele><time>2025-05-26T15:36:46Z</time></trkpt>
<trkpt lat="51.086222" lon="4.386528"><ele>7.0</ele><time>2025-05-26T15:36:51Z</time></trkpt>
<trkpt lat="51.086208" lon="4.386183"><ele>7.56</ele><time>2025-05-26T15:36:57Z</time></trkpt>
<trkpt lat="51.086157" lon="4.385879"><ele>7.7</ele><time>2025-05-26T15:37:02Z</time></trkpt>
<trkpt lat="51.086115" lon="4.385726"><ele>7.97</ele><time>2025-05-26T15:37:08Z</time></trkpt>
<trkpt lat="51.086058" lon="4.385604"><ele>8.0</ele><time>2025-05-26T15:37:13Z</time></trkpt>
<trkpt lat="51.08591" lon="4.385442"><ele>7.48</ele><time>2025-05-26T15:37:18Z</time></trkpt>
<trkpt lat="51.085666" lon="4.385273"><ele>6.4</ele><time>2025-05-26T15:37:24Z</time></trkpt>
<trkpt lat="51.085231" lon="4.385041"><ele>6.16</ele><time>2025-05-26T15:37:29Z</time></trkpt>
<trkpt lat="51.085076" lon="4.384993"><ele>6.7</ele><time>2025-05-26T15:37:35Z</time></trkpt>
<trkpt lat="51.084837" lon="4.384998"><ele>7.58</ele><time>2025-05-26T15:37:40Z</time></trkpt>
<trkpt lat="51.084573" lon="4.384937"><ele>8.31</ele><time>2025-05-26T15:37:46Z</time></trkpt>
<trkpt lat="51.084547" lon="4.385058"><ele>8.5</ele><time>2025-05-26T15:37:47Z</time></trkpt>
<trkpt lat="51.084547" lon="4.385058"><ele>8.5</ele><time>2025-05-26T15:37:47Z</time></trkpt>
<trkpt lat="51.084652" lon="4.384549"><ele>7.09</ele><time>2025-05-26T15:37:55Z</time></trkpt>
<trkpt lat="51.084763" lon="4.383897"><ele>5.85</ele><time>2025-05-26T15:38:04Z</time></trkpt>
<trkpt lat="51.084955" lon="4.381944"><ele>6.51</ele><time>2025-05-26T15:38:13Z</time></trkpt>
<trkpt lat="51.085113" lon="4.380998"><ele>6.0</ele><time>2025-05-26T15:38:21Z</time></trkpt>
<trkpt lat="51.085208" lon="4.380223"><ele>6.8</ele><time>2025-05-26T15:38:30Z</time></trkpt>
<trkpt lat="51.085351" lon="4.378761"><ele>7.01</ele><time>2025-05-26T15:38:39Z</time></trkpt>
<trkpt lat="51.085529" lon="4.37576"><ele>5.9</ele><time>2025-05-26T15:38:47Z</time></trkpt>
<trkpt lat="51.085605" lon="4.375011"><ele>5.35</ele><time>2025-05-26T15:38:56Z</time></trkpt>
<trkpt lat="51.085743" lon="4.374246"><ele>4.64</ele><time>2025-05-26T15:39:05Z</time></trkpt>
<trkpt lat="51.085837" lon="4.373944"><ele>4.22</ele><time>2025-05-26T15:39:13Z</time></trkpt>
<trkpt lat="51.085893" lon="4.37381"><ele>4.37</ele><time>2025-05-26T15:39:22Z</time></trkpt>
<trkpt lat="51.085926" lon="4.373839"><ele>4.6</ele><time>2025-05-26T15:39:26Z</time></trkpt>
<trkpt lat="51.085986" lon="4.373847"><ele>5.02</ele><time>2025-05-26T15:39:29Z</time></trkpt>
<trkpt lat="51.086046" lon="4.373797"><ele>5.28</ele><time>2025-05-26T15:39:33Z</time></trkpt>
<trkpt lat="51.08607" lon="4.373742"><ele>5.25</ele><time>2025-05-26T15:39:37Z</time></trkpt>
<trkpt lat="51.086357" lon="4.373557"><ele>6.77</ele><time>2025-05-26T15:39:40Z</time></trkpt>
<trkpt lat="51.086561" lon="4.373474"><ele>8.24</ele><time>2025-05-26T15:39:44Z</time></trkpt>
<trkpt lat="51.086783" lon="4.373469"><ele>9.42</ele><time>2025-05-26T15:39:48Z</time></trkpt>
<trkpt lat="51.087005" lon="4.373543"><ele>9.78</ele><time>2025-05-26T15:39:51Z</time></trkpt>
<trkpt lat="51.08712" lon="4.373619"><ele>9.4</ele><time>2025-05-26T15:39:55Z</time></trkpt>
<trkpt lat="51.088219" lon="4.374536"><ele>11.59</ele><time>2025-05-26T15:39:59Z</time></trkpt>
<trkpt lat="51.089733" lon="4.375819"><ele>15.0</ele><time>2025-05-26T15:40:02Z</time></trkpt>
<trkpt lat="51.089904" lon="4.375871"><ele>14.86</ele><time>2025-05-26T15:40:06Z</time></trkpt>
<trkpt lat="51.089998" lon="4.37587"><ele>14.87</ele><time>2025-05-26T15:40:10Z</time></trkpt>
<trkpt lat="51.090082" lon="4.375858"><ele>14.86</ele><time>2025-05-26T15:40:13Z</time></trkpt>
<trkpt lat="51.090205" lon="4.375793"><ele>15.25</ele><time>2025-05-26T15:40:17Z</time></trkpt>
<trkpt lat="51.090345" lon="4.375669"><ele>16.04</ele><time>2025-05-26T15:40:21Z</time></trkpt>
<trkpt lat="51.090449" lon="4.375524"><ele>16.5</ele><time>2025-05-26T15:40:24Z</time></trkpt>
<trkpt lat="51.090501" lon="4.375422"><ele>16.68</ele><time>2025-05-26T15:40:28Z</time></trkpt>
<trkpt lat="51.090586" lon="4.375158"><ele>16.67</ele><time>2025-05-26T15:40:32Z</time></trkpt>
<trkpt lat="51.090646" lon="4.375146"><ele>16.02</ele><time>2025-05-26T15:40:38Z</time></trkpt>
<trkpt lat="51.090852" lon="4.37497"><ele>14.1</ele><time>2025-05-26T15:40:45Z</time></trkpt>
<trkpt lat="51.090896" lon="4.374867"><ele>14.37</ele><time>2025-05-26T15:40:51Z</time></trkpt>
<trkpt lat="51.090883" lon="4.374758"><ele>14.72</ele><time>2025-05-26T15:40:58Z</time></trkpt>
<trkpt lat="51.090821" lon="4.374675"><ele>15.04</ele><time>2025-05-26T15:41:04Z</time></trkpt>
<trkpt lat="51.090737" lon="4.37469"><ele>15.31</ele><time>2025-05-26T15:41:11Z</time></trkpt>
<trkpt lat="51.090553" lon="4.374843"><ele>16.44</ele><time>2025-05-26T15:41:18Z</time></trkpt>
<trkpt lat="51.090512" lon="4.37491"><ele>16.83</ele><time>2025-05-26T15:41:24Z</time></trkpt>
<trkpt lat="51.090227" lon="4.374697"><ele>16.82</ele><time>2025-05-26T15:41:31Z</time></trkpt>
<trkpt lat="51.089238" lon="4.373618"><ele>13.98</ele><time>2025-05-26T15:41:37Z</time></trkpt>
<trkpt lat="51.088197" lon="4.37242"><ele>13.0</ele><time>2025-05-26T15:41:44Z</time></trkpt>
<trkpt lat="51.088084" lon="4.372264"><ele>13.0</ele><time>2025-05-26T15:41:50Z</time></trkpt>
<trkpt lat="51.08786" lon="4.372012"><ele>11.54</ele><time>2025-05-26T15:41:57Z</time></trkpt>
<trkpt lat="51.087374" lon="4.371377"><ele>10.9</ele><time>2025-05-26T15:42:03Z</time></trkpt>
<trkpt lat="51.087128" lon="4.37095"><ele>11.08</ele><time>2025-05-26T15:42:10Z</time></trkpt>
<trkpt lat="51.086835" lon="4.370106"><ele>9.4</ele><time>2025-05-26T15:42:17Z</time></trkpt>
<trkpt lat="51.08684" lon="4.369668"><ele>10.5</ele><time>2025-05-26T15:42:23Z</time></trkpt>
<trkpt lat="51.086871" lon="4.369365"><ele>11.28</ele><time>2025-05-26T15:42:30Z</time></trkpt>
<trkpt lat="51.086903" lon="4.369252"><ele>11.69</ele><time>2025-05-26T15:42:37Z</time></trkpt>
<trkpt lat="51.087936" lon="4.366787"><ele>10.0</ele><time>2025-05-26T15:42:44Z</time></trkpt>
<trkpt lat="51.08794" lon="4.366645"><ele>9.95</ele><time>2025-05-26T15:42:51Z</time></trkpt>
<trkpt lat="51.087797" lon="4.365621"><ele>9.0</ele><time>2025-05-26T15:42:57Z</time></trkpt>
<trkpt lat="51.088183" lon="4.365461"><ele>9.34</ele><time>2025-05-26T15:43:03Z</time></trkpt>
<trkpt lat="51.088555" lon="4.365358"><ele>11.31</ele><time>2025-05-26T15:43:08Z</time></trkpt>
<trkpt lat="51.089547" lon="4.365142"><ele>12.45</ele><time>2025-05-26T15:43:14Z</time></trkpt>
<trkpt lat="51.089662" lon="4.365068"><ele>11.62</ele><time>2025-05-26T15:43:20Z</time></trkpt>
<trkpt lat="51.089766" lon="4.36477"><ele>10.01</ele><time>2025-05-26T15:43:25Z</time></trkpt>
<trkpt lat="51.089322" lon="4.364443"><ele>12.43</ele><time>2025-05-26T15:43:32Z</time></trkpt>
<trkpt lat="51.088446" lon="4.363684"><ele>7.59</ele><time>2025-05-26T15:43:40Z</time></trkpt>
<trkpt lat="51.088209" lon="4.363433"><ele>8.45</ele><time>2025-05-26T15:43:47Z</time></trkpt>
<trkpt lat="51.087066" lon="4.362466"><ele>10.44</ele><time>2025-05-26T15:43:54Z</time></trkpt>
<trkpt lat="51.086911" lon="4.362404"><ele>9.88</ele><time>2025-05-26T15:44:01Z</time></trkpt>
<trkpt lat="51.085613" lon="4.361287"><ele>1.96</ele><time>2025-05-26T15:44:08Z</time></trkpt>
<trkpt lat="51.085329" lon="4.361071"><ele>0.12</ele><time>2025-05-26T15:44:16Z</time></trkpt>
<trkpt lat="51.083607" lon="4.359581"><ele>1.07</ele><time>2025-05-26T15:44:23Z</time></trkpt>
<trkpt lat="51.083511" lon="4.359546"><ele>2.67</ele><time>2025-05-26T15:44:30Z</time></trkpt>
<trkpt lat="51.083451" lon="4.359549"><ele>3.67</ele><time>2025-05-26T15:44:37Z</time></trkpt>
<trkpt lat="51.083182" lon="4.359741"><ele>6.57</ele><time>2025-05-26T15:44:44Z</time></trkpt>
<trkpt lat="51.083137" lon="4.35975"><ele>7.02</ele><time>2025-05-26T15:44:52Z</time></trkpt>
<trkpt lat="51.083053" lon="4.359722"><ele>8.0</ele><time>2025-05-26T15:44:59Z</time></trkpt>
<trkpt lat="51.082961" lon="4.359653"><ele>8.0</ele><time>2025-05-26T15:45:06Z</time></trkpt>
<trkpt lat="51.083005" lon="4.359498"><ele>8.0</ele><time>2025-05-26T15:45:09Z</time></trkpt>
<trkpt lat="51.083013" lon="4.359409"><ele>8.0</ele><time>2025-05-26T15:45:12Z</time></trkpt>
<trkpt lat="51.082991" lon="4.35921"><ele>8.0</ele><time>2025-05-26T15:45:15Z</time></trkpt>
<trkpt lat="51.082956" lon="4.359111"><ele>8.0</ele><time>2025-05-26T15:45:18Z</time></trkpt>
<trkpt lat="51.082902" lon="4.359021"><ele>8.0</ele><time>2025-05-26T15:45:21Z</time></trkpt>
<trkpt lat="51.082834" lon="4.358958"><ele>8.0</ele><time>2025-05-26T15:45:24Z</time></trkpt>
<trkpt lat="51.082759" lon="4.358924"><ele>8.0</ele><time>2025-05-26T15:45:27Z</time></trkpt>
<trkpt lat="51.082645" lon="4.358934"><ele>8.0</ele><time>2025-05-26T15:45:30Z</time></trkpt>
<trkpt lat="51.082595" lon="4.358903"><ele>8.0</ele><time>2025-05-26T15:45:33Z</time></trkpt>
<trkpt lat="51.082526" lon="4.358806"><ele>7.97</ele><time>2025-05-26T15:45:36Z</time></trkpt>
<trkpt lat="51.082412" lon="4.358584"><ele>8.67</ele><time>2025-05-26T15:45:39Z</time></trkpt>
<trkpt lat="51.081638" lon="4.357892"><ele>11.8</ele><time>2025-05-26T15:45:42Z</time></trkpt>
<trkpt lat="51.081542" lon="4.357772"><ele>11.05</ele><time>2025-05-26T15:45:45Z</time></trkpt>
<trkpt lat="51.08109" lon="4.356998"><ele>2.91</ele><time>2025-05-26T15:45:48Z</time></trkpt>
<trkpt lat="51.080575" lon="4.35604"><ele>9.26</ele><time>2025-05-26T15:45:51Z</time></trkpt>
<trkpt lat="51.0805" lon="4.355851"><ele>7.74</ele><time>2025-05-26T15:45:54Z</time></trkpt>
<trkpt lat="51.080496" lon="4.355669"><ele>6.39</ele><time>2025-05-26T15:45:57Z</time></trkpt>
<trkpt lat="51.080522" lon="4.355492"><ele>5.78</ele><time>2025-05-26T15:46:00Z</time></trkpt>
<trkpt lat="51.08062" lon="4.355324"><ele>6.23</ele><time>2025-05-26T15:46:03Z</time></trkpt>
<trkpt lat="51.08081" lon="4.355096"><ele>6.92</ele><time>2025-05-26T15:46:06Z</time></trkpt>
<trkpt lat="51.080858" lon="4.355012"><ele>6.82</ele><time>2025-05-26T15:46:10Z</time></trkpt>
<trkpt lat="51.081024" lon="4.354587"><ele>5.16</ele><time>2025-05-26T15:46:13Z</time></trkpt>
<trkpt lat="51.081208" lon="4.354269"><ele>4.72</ele><time>2025-05-26T15:46:16Z</time></trkpt>
<trkpt lat="51.081507" lon="4.354"><ele>4.83</ele><time>2025-05-26T15:46:19Z</time></trkpt>
<trkpt lat="51.081654" lon="4.353901"><ele>5.0</ele><time>2025-05-26T15:46:22Z</time></trkpt>
<trkpt lat="51.081803" lon="4.353863"><ele>5.12</ele><time>2025-05-26T15:46:25Z</time></trkpt>
<trkpt lat="51.081886" lon="4.353919"><ele>5.81</ele><time>2025-05-26T15:46:28Z</time></trkpt>
<trkpt lat="51.082016" lon="4.354069"><ele>5.4</ele><time>2025-05-26T15:46:31Z</time></trkpt>
<trkpt lat="51.082281" lon="4.353643"><ele>-2.28</ele><time>2025-05-26T15:46:38Z</time></trkpt>
<trkpt lat="51.082334" lon="4.353516"><ele>-4.84</ele><time>2025-05-26T15:46:44Z</time></trkpt>
<trkpt lat="51.082881" lon="4.352572"><ele>-4.94</ele><time>2025-05-26T15:46:51Z</time></trkpt>
<trkpt lat="51.082946" lon="4.352344"><ele>-3.02</ele><time>2025-05-26T15:46:58Z</time></trkpt>
<trkpt lat="51.082986" lon="4.352104"><ele>-1.14</ele><time>2025-05-26T15:47:04Z</time></trkpt>
<trkpt lat="51.082993" lon="4.351876"><ele>0.59</ele><time>2025-05-26T15:47:11Z</time></trkpt>
<trkpt lat="51.082943" lon="4.351507"><ele>2.18</ele><time>2025-05-26T15:47:18Z</time></trkpt>
<trkpt lat="51.08272" lon="4.350927"><ele>1.51</ele><time>2025-05-26T15:47:24Z</time></trkpt>
<trkpt lat="51.082077" lon="4.349406"><ele>2.07</ele><time>2025-05-26T15:47:31Z</time></trkpt>
<trkpt lat="51.082019" lon="4.34917"><ele>2.72</ele><time>2025-05-26T15:47:37Z</time></trkpt>
<trkpt lat="51.08199" lon="4.348935"><ele>2.83</ele><time>2025-05-26T15:47:44Z</time></trkpt>
<trkpt lat="51.081986" lon="4.348698"><ele>2.16</ele><time>2025-05-26T15:47:51Z</time></trkpt>
<trkpt lat="51.082037" lon="4.348361"><ele>0.77</ele><time>2025-05-26T15:47:57Z</time></trkpt>
<trkpt lat="51.082166" lon="4.348016"><ele>-1.03</ele><time>2025-05-26T15:48:04Z</time></trkpt>
<trkpt lat="51.08227" lon="4.347868"><ele>-0.83</ele><time>2025-05-26T15:48:11Z</time></trkpt>
<trkpt lat="51.08358" lon="4.34672"><ele>0.0</ele><time>2025-05-26T15:48:17Z</time></trkpt>
<trkpt lat="51.083905" lon="4.346407"><ele>-0.05</ele><time>2025-05-26T15:48:24Z</time></trkpt>
<trkpt lat="51.084133" lon="4.346055"><ele>-0.88</ele><time>2025-05-26T15:48:31Z</time></trkpt>
<trkpt lat="51.084238" lon="4.345799"><ele>-1.0</ele><time>2025-05-26T15:48:37Z</time></trkpt>
<trkpt lat="51.085014" lon="4.343619"><ele>1.05</ele><time>2025-05-26T15:48:44Z</time></trkpt>
<trkpt lat="51.085636" lon="4.341935"><ele>-1.29</ele><time>2025-05-26T15:48:50Z</time></trkpt>
<trkpt lat="51.085813" lon="4.341596"><ele>-1.91</ele><time>2025-05-26T15:48:57Z</time></trkpt>
<trkpt lat="51.087003" lon="4.339682"><ele>-1.75</ele><time>2025-05-26T15:49:04Z</time></trkpt>
<trkpt lat="51.087156" lon="4.339377"><ele>-2.29</ele><time>2025-05-26T15:49:10Z</time></trkpt>
<trkpt lat="51.08835" lon="4.336285"><ele>-1.0</ele><time>2025-05-26T15:49:17Z</time></trkpt>
<trkpt lat="51.08847" lon="4.335837"><ele>0.49</ele><time>2025-05-26T15:49:24Z</time></trkpt>
<trkpt lat="51.088556" lon="4.335306"><ele>2.1</ele><time>2025-05-26T15:49:30Z</time></trkpt>
<trkpt lat="51.08859" lon="4.334836"><ele>1.49</ele><time>2025-05-26T15:49:37Z</time></trkpt>
<trkpt lat="51.088593" lon="4.334377"><ele>1.07</ele><time>2025-05-26T15:49:43Z</time></trkpt>
<trkpt lat="51.088558" lon="4.333935"><ele>1.19</ele><time>2025-05-26T15:49:50Z</time></trkpt>
<trkpt lat="51.088526" lon="4.333716"><ele>0.68</ele><time>2025-05-26T15:49:57Z</time></trkpt>
<trkpt lat="51.088425" lon="4.333159"><ele>-0.21</ele><time>2025-05-26T15:50:03Z</time></trkpt>
<trkpt lat="51.088021" lon="4.331202"><ele>1.88</ele><time>2025-05-26T15:50:10Z</time></trkpt>
<trkpt lat="51.08795" lon="4.331019"><ele>1.41</ele><time>2025-05-26T15:50:17Z</time></trkpt>
<trkpt lat="51.087824" lon="4.330807"><ele>1.0</ele><time>2025-05-26T15:50:23Z</time></trkpt>
<trkpt lat="51.087693" lon="4.330639"><ele>1.61</ele><time>2025-05-26T15:50:30Z</time></trkpt>
<trkpt lat="51.087416" lon="4.330184"><ele>1.76</ele><time>2025-05-26T15:50:36Z</time></trkpt>
<trkpt lat="51.086816" lon="4.329266"><ele>0.83</ele><time>2025-05-26T15:50:43Z</time></trkpt>
<trkpt lat="51.085687" lon="4.327587"><ele>0.22</ele><time>2025-05-26T15:50:50Z</time></trkpt>
<trkpt lat="51.082441" lon="4.322635"><ele>2.0</ele><time>2025-05-26T15:50:56Z</time></trkpt>
<trkpt lat="51.082349" lon="4.322439"><ele>2.0</ele><time>2025-05-26T15:51:03Z</time></trkpt>
<trkpt lat="51.082269" lon="4.322023"><ele>2.6</ele><time>2025-05-26T15:51:10Z</time></trkpt>
<trkpt lat="51.082205" lon="4.321869"><ele>3.0</ele><time>2025-05-26T15:51:16Z</time></trkpt>
<trkpt lat="51.081457" lon="4.320868"><ele>2.12</ele><time>2025-05-26T15:51:23Z</time></trkpt>
<trkpt lat="51.081423" lon="4.320788"><ele>2.0</ele><time>2025-05-26T15:51:29Z</time></trkpt>
<trkpt lat="51.08139" lon="4.320609"><ele>2.0</ele><time>2025-05-26T15:51:36Z</time></trkpt>
<trkpt lat="51.081385" lon="4.320459"><ele>1.99</ele><time>2025-05-26T15:51:43Z</time></trkpt>
<trkpt lat="51.081532" lon="4.319863"><ele>1.49</ele><time>2025-05-26T15:51:49Z</time></trkpt>
<trkpt lat="51.081538" lon="4.319616"><ele>1.46</ele><time>2025-05-26T15:51:56Z</time></trkpt>
<trkpt lat="51.081476" lon="4.318815"><ele>0.82</ele><time>2025-05-26T15:52:03Z</time></trkpt>
<trkpt lat="51.081438" lon="4.318035"><ele>1.0</ele><time>2025-05-26T15:52:09Z</time></trkpt>
<trkpt lat="51.081445" lon="4.317699"><ele>1.06</ele><time>2025-05-26T15:52:16Z</time></trkpt>
<trkpt lat="51.08148" lon="4.317291"><ele>1.33</ele><time>2025-05-26T15:52:22Z</time></trkpt>
<trkpt lat="51.081567" lon="4.316901"><ele>2.0</ele><time>2025-05-26T15:52:29Z</time></trkpt>
<trkpt lat="51.081832" lon="4.316218"><ele>1.6</ele><time>2025-05-26T15:52:36Z</time></trkpt>
<trkpt lat="51.08193" lon="4.315906"><ele>2.69</ele><time>2025-05-26T15:52:42Z</time></trkpt>
<trkpt lat="51.081952" lon="4.315704"><ele>3.0</ele><time>2025-05-26T15:52:49Z</time></trkpt>
<trkpt lat="51.081924" lon="4.314101"><ele>2.93</ele><time>2025-05-26T15:52:56Z</time></trkpt>
<trkpt lat="51.081859" lon="4.313407"><ele>2.0</ele><time>2025-05-26T15:53:02Z</time></trkpt>
<trkpt lat="51.081713" lon="4.312798"><ele>1.0</ele><time>2025-05-26T15:53:09Z</time></trkpt>
<trkpt lat="51.081592" lon="4.312409"><ele>1.0</ele><time>2025-05-26T15:53:15Z</time></trkpt>
<trkpt lat="51.08101" lon="4.311031"><ele>1.36</ele><time>2025-05-26T15:53:22Z</time></trkpt>
<trkpt lat="51.080246" lon="4.308724"><ele>1.32</ele><time>2025-05-26T15:53:29Z</time></trkpt>
<trkpt lat="51.080246" lon="4.308724"><ele>1.32</ele><time>2025-05-26T15:53:29Z</time></trkpt>
<trkpt lat="51.080144" lon="4.308528"><ele>0.52</ele><time>2025-05-26T15:53:34Z</time></trkpt>
<trkpt lat="51.080045" lon="4.308381"><ele>0.16</ele><time>2025-05-26T15:53:39Z</time></trkpt>
<trkpt lat="51.079966" lon="4.30831"><ele>0.0</ele><time>2025-05-26T15:53:44Z</time></trkpt>
<trkpt lat="51.079203" lon="4.307826"><ele>1.0</ele><time>2025-05-26T15:53:50Z</time></trkpt>
<trkpt lat="51.078322" lon="4.307143"><ele>1.29</ele><time>2025-05-26T15:53:55Z</time></trkpt>
<trkpt lat="51.078109" lon="4.307018"><ele>1.74</ele><time>2025-05-26T15:54:00Z</time></trkpt>
<trkpt lat="51.077538" lon="4.306779"><ele>0.14</ele><time>2025-05-26T15:54:05Z</time></trkpt>
<trkpt lat="51.077354" lon="4.306741"><ele>0.14</ele><time>2025-05-26T15:54:11Z</time></trkpt>
<trkpt lat="51.077024" lon="4.306719"><ele>0.9</ele><time>2025-05-26T15:54:16Z</time></trkpt>
<trkpt lat="51.075063" lon="4.306727"><ele>4.77</ele><time>2025-05-26T15:54:21Z</time></trkpt>
<trkpt lat="51.074795" lon="4.306632"><ele>4.84</ele><time>2025-05-26T15:54:26Z</time></trkpt>
<trkpt lat="51.074416" lon="4.306347"><ele>5.95</ele><time>2025-05-26T15:54:32Z</time></trkpt>
<trkpt lat="51.074299" lon="4.30622"><ele>5.92</ele><time>2025-05-26T15:54:37Z</time></trkpt>
<trkpt lat="51.074223" lon="4.306094"><ele>5.67</ele><time>2025-05-26T15:54:42Z</time></trkpt>
<trkpt lat="51.074136" lon="4.305792"><ele>3.83</ele><time>2025-05-26T15:54:47Z</time></trkpt>
<trkpt lat="51.073225" lon="4.301056"><ele>3.31</ele><time>2025-05-26T15:54:53Z</time></trkpt>
<trkpt lat="51.073194" lon="4.300905"><ele>3.13</ele><time>2025-05-26T15:54:58Z</time></trkpt>
<trkpt lat="51.073181" lon="4.300744"><ele>3.0</ele><time>2025-05-26T15:55:03Z</time></trkpt>
<trkpt lat="51.072846" lon="4.299227"><ele>5.97</ele><time>2025-05-26T15:55:08Z</time></trkpt>
<trkpt lat="51.072776" lon="4.298847"><ele>5.84</ele><time>2025-05-26T15:55:14Z</time></trkpt>
<trkpt lat="51.072691" lon="4.297849"><ele>4.69</ele><time>2025-05-26T15:55:19Z</time></trkpt>
<trkpt lat="51.07269" lon="4.297849"><ele>4.34</ele><time>2025-05-26T15:55:19Z</time></trkpt>
<trkpt lat="51.07269" lon="4.297849"><ele>4.34</ele><time>2025-05-26T15:55:19Z</time></trkpt>
<trkpt lat="51.071834" lon="4.298044"><ele>4.0</ele><time>2025-05-26T15:55:27Z</time></trkpt>
<trkpt lat="51.071349" lon="4.298386"><ele>3.0</ele><time>2025-05-26T15:55:34Z</time></trkpt>
<trkpt lat="51.071158" lon="4.298456"><ele>3.0</ele><time>2025-05-26T15:55:42Z</time></trkpt>
<trkpt lat="51.070518" lon="4.298465"><ele>2.0</ele><time>2025-05-26T15:55:50Z</time></trkpt>
<trkpt lat="51.07034" lon="4.298525"><ele>2.0</ele><time>2025-05-26T15:55:57Z</time></trkpt>
<trkpt lat="51.070083" lon="4.298761"><ele>2.0</ele><time>2025-05-26T15:56:05Z</time></trkpt>
<trkpt lat="51.069741" lon="4.299131"><ele>2.0</ele><time>2025-05-26T15:56:13Z</time></trkpt>
<trkpt lat="51.069234" lon="4.299528"><ele>1.0</ele><time>2025-05-26T15:56:20Z</time></trkpt>
<trkpt lat="51.068954" lon="4.299836"><ele>1.0</ele><time>2025-05-26T15:56:28Z</time></trkpt>
<trkpt lat="51.068621" lon="4.300303"><ele>1.0</ele><time>2025-05-26T15:56:36Z</time></trkpt>
<trkpt lat="51.068021" lon="4.301235"><ele>2.61</ele><time>2025-05-26T15:56:44Z</time></trkpt>
<trkpt lat="51.067848" lon="4.301576"><ele>2.07</ele><time>2025-05-26T15:56:51Z</time></trkpt>
<trkpt lat="51.067695" lon="4.301967"><ele>1.94</ele><time>2025-05-26T15:56:59Z</time></trkpt>
<trkpt lat="51.06685" lon="4.301497"><ele>2.39</ele><time>2025-05-26T15:57:06Z</time></trkpt>
<trkpt lat="51.066736" lon="4.301472"><ele>2.3</ele><time>2025-05-26T15:57:13Z</time></trkpt>
<trkpt lat="51.066575" lon="4.301481"><ele>2.33</ele><time>2025-05-26T15:57:20Z</time></trkpt>
<trkpt lat="51.065028" lon="4.301932"><ele>3.0</ele><time>2025-05-26T15:57:27Z</time></trkpt>
<trkpt lat="51.06451" lon="4.302121"><ele>2.09</ele><time>2025-05-26T15:57:33Z</time></trkpt>
<trkpt lat="51.064168" lon="4.302353"><ele>2.0</ele><time>2025-05-26T15:57:40Z</time></trkpt>
<trkpt lat="51.063576" lon="4.302919"><ele>4.0</ele><time>2025-05-26T15:57:47Z</time></trkpt>
<trkpt lat="51.063443" lon="4.303012"><ele>4.0</ele><time>2025-05-26T15:57:54Z</time></trkpt>
<trkpt lat="51.062758" lon="4.303126"><ele>3.18</ele><time>2025-05-26T15:58:01Z</time></trkpt>
<trkpt lat="51.061728" lon="4.303632"><ele>2.02</ele><time>2025-05-26T15:58:08Z</time></trkpt>
<trkpt lat="51.060979" lon="4.303994"><ele>1.52</ele><time>2025-05-26T15:58:15Z</time></trkpt>
<trkpt lat="51.060713" lon="4.304171"><ele>0.99</ele><time>2025-05-26T15:58:22Z</time></trkpt>
<trkpt lat="51.060119" lon="4.304751"><ele>1.06</ele><time>2025-05-26T15:58:29Z</time></trkpt>
<trkpt lat="51.058933" lon="4.305952"><ele>1.93</ele><time>2025-05-26T15:58:36Z</time></trkpt>
<trkpt lat="51.058706" lon="4.306144"><ele>2.66</ele><time>2025-05-26T15:58:43Z</time></trkpt>
<trkpt lat="51.058315" lon="4.306322"><ele>3.93</ele><time>2025-05-26T15:58:49Z</time></trkpt>
<trkpt lat="51.056874" lon="4.306663"><ele>2.99</ele><time>2025-05-26T15:58:56Z</time></trkpt>
<trkpt lat="51.056499" lon="4.306726"><ele>3.47</ele><time>2025-05-26T15:59:03Z</time></trkpt>
<trkpt lat="51.054003" lon="4.306784"><ele>3.0</ele><time>2025-05-26T15:59:10Z</time></trkpt>
<trkpt lat="51.053667" lon="4.306829"><ele>3.0</ele><time>2025-05-26T15:59:17Z</time></trkpt>
<trkpt lat="51.053251" lon="4.306995"><ele>4.17</ele><time>2025-05-26T15:59:24Z</time></trkpt>
<trkpt lat="51.05317" lon="4.307098"><ele>4.36</ele><time>2025-05-26T15:59:31Z</time></trkpt>
<trkpt lat="51.051887" lon="4.30858"><ele>6.0</ele><time>2025-05-26T15:59:38Z</time></trkpt>
<trkpt lat="51.051724" lon="4.308907"><ele>6.0</ele><time>2025-05-26T15:59:45Z</time></trkpt>
<trkpt lat="51.051486" lon="4.309646"><ele>6.65</ele><time>2025-05-26T15:59:52Z</time></trkpt>
<trkpt lat="51.051489" lon="4.309651"><ele>6.6</ele><time>2025-05-26T16:00:07Z</time></trkpt>
<trkpt lat="51.051489" lon="4.309651"><ele>6.6</ele><time>2025-05-26T16:00:07Z</time></trkpt>
<trkpt lat="51.051486" lon="4.309646"><ele>6.65</ele><time>2025-05-26T16:00:07Z</time></trkpt>
<trkpt lat="51.051724" lon="4.308907"><ele>6.0</ele><time>2025-05-26T16:00:15Z</time></trkpt>
<trkpt lat="51.051887" lon="4.30858"><ele>6.0</ele><time>2025-05-26T16:00:23Z</time></trkpt>
<trkpt lat="51.05317" lon="4.307098"><ele>4.36</ele><time>2025-05-26T16:00:31Z</time></trkpt>
<trkpt lat="51.053091" lon="4.306808"><ele>4.87</ele><time>2025-05-26T16:00:42Z</time></trkpt>
<trkpt lat="51.052965" lon="4.30617"><ele>4.0</ele><time>2025-05-26T16:00:54Z</time></trkpt>
<trkpt lat="51.051734" lon="4.298533"><ele>6.0</ele><time>2025-05-26T16:01:05Z</time></trkpt>
<trkpt lat="51.051657" lon="4.297852"><ele>6.97</ele><time>2025-05-26T16:01:17Z</time></trkpt>
<trkpt lat="51.051638" lon="4.297196"><ele>5.81</ele><time>2025-05-26T16:01:28Z</time></trkpt>
<trkpt lat="51.051598" lon="4.29651"><ele>5.56</ele><time>2025-05-26T16:01:40Z</time></trkpt>
<trkpt lat="51.051527" lon="4.296098"><ele>6.02</ele><time>2025-05-26T16:01:51Z</time></trkpt>
<trkpt lat="51.051417" lon="4.295629"><ele>6.9</ele><time>2025-05-26T16:02:03Z</time></trkpt>
<trkpt lat="51.051301" lon="4.295266"><ele>6.32</ele><time>2025-05-26T16:02:14Z</time></trkpt>
<trkpt lat="51.046238" lon="4.284079"><ele>9.86</ele><time>2025-05-26T16:02:26Z</time></trkpt>
<trkpt lat="51.044432" lon="4.280125"><ele>10.09</ele><time>2025-05-26T16:02:37Z</time></trkpt>
<trkpt lat="51.044275" lon="4.279704"><ele>11.0</ele><time>2025-05-26T16:02:49Z</time></trkpt>
<trkpt lat="51.04407" lon="4.278958"><ele>7.9</ele><time>2025-05-26T16:03:00Z</time></trkpt>
<trkpt lat="51.044013" lon="4.278428"><ele>6.89</ele><time>2025-05-26T16:03:12Z</time></trkpt>
<trkpt lat="51.044001" lon="4.278097"><ele>5.95</ele><time>2025-05-26T16:03:23Z</time></trkpt>
<trkpt lat="51.044087" lon="4.270559"><ele>8.58</ele><time>2025-05-26T16:03:35Z</time></trkpt>
<trkpt lat="51.044112" lon="4.270224"><ele>7.2</ele><time>2025-05-26T16:03:46Z</time></trkpt>
<trkpt lat="51.044133" lon="4.269185"><ele>5.12</ele><time>2025-05-26T16:03:58Z</time></trkpt>
<trkpt lat="51.044126" lon="4.268156"><ele>5.05</ele><time>2025-05-26T16:04:09Z</time></trkpt>
<trkpt lat="51.044113" lon="4.268016"><ele>5.0</ele><time>2025-05-26T16:04:21Z</time></trkpt>
<trkpt lat="51.044121" lon="4.267549"><ele>4.18</ele><time>2025-05-26T16:04:32Z</time></trkpt>
<trkpt lat="51.044181" lon="4.266636"><ele>4.11</ele><time>2025-05-26T16:04:44Z</time></trkpt>
<trkpt lat="51.04469" lon="4.262903"><ele>4.0</ele><time>2025-05-26T16:04:55Z</time></trkpt>
<trkpt lat="51.045048" lon="4.260396"><ele>5.35</ele><time>2025-05-26T16:05:07Z</time></trkpt>
<trkpt lat="51.045168" lon="4.259845"><ele>5.34</ele><time>2025-05-26T16:05:18Z</time></trkpt>
<trkpt lat="51.046091" lon="4.256777"><ele>4.07</ele><time>2025-05-26T16:05:30Z</time></trkpt>
<trkpt lat="51.046179" lon="4.256401"><ele>4.23</ele><time>2025-05-26T16:05:41Z</time></trkpt>
<trkpt lat="51.046228" lon="4.256106"><ele>4.42</ele><time>2025-05-26T16:05:53Z</time></trkpt>
<trkpt lat="51.046268" lon="4.255738"><ele>4.56</ele><time>2025-05-26T16:06:04Z</time></trkpt>
<trkpt lat="51.046285" lon="4.255338"><ele>5.41</ele><time>2025-05-26T16:06:16Z</time></trkpt>
<trkpt lat="51.046284" lon="4.255091"><ele>5.88</ele><time>2025-05-26T16:06:27Z</time></trkpt>
<trkpt lat="51.046259" lon="4.254742"><ele>6.49</ele><time>2025-05-26T16:06:39Z</time></trkpt>
<trkpt lat="51.046264" lon="4.25456"><ele>6.55</ele><time>2025-05-26T16:06:50Z</time></trkpt>
<trkpt lat="51.046088" lon="4.25343"><ele>3.03</ele><time>2025-05-26T16:07:02Z</time></trkpt>
<trkpt lat="51.045992" lon="4.252937"><ele>3.0</ele><time>2025-05-26T16:07:13Z</time></trkpt>
<trkpt lat="51.045937" lon="4.252742"><ele>3.13</ele><time>2025-05-26T16:07:25Z</time></trkpt>
<trkpt lat="51.043619" lon="4.239103"><ele>4.25</ele><time>2025-05-26T16:07:36Z</time></trkpt>
<trkpt lat="51.043444" lon="4.238283"><ele>3.89</ele><time>2025-05-26T16:07:48Z</time></trkpt>
<trkpt lat="51.037862" lon="4.215871"><ele>3.16</ele><time>2025-05-26T16:07:59Z</time></trkpt>
<trkpt lat="51.037643" lon="4.215193"><ele>4.51</ele><time>2025-05-26T16:08:11Z</time></trkpt>
<trkpt lat="51.037092" lon="4.213642"><ele>4.11</ele><time>2025-05-26T16:08:22Z</time></trkpt>
<trkpt lat="51.037066" lon="4.213503"><ele>3.61</ele><time>2025-05-26T16:08:34Z</time></trkpt>
<trkpt lat="51.036872" lon="4.212861"><ele>3.26</ele><time>2025-05-26T16:08:45Z</time></trkpt>
<trkpt lat="51.036922" lon="4.21272"><ele>3.1</ele><time>2025-05-26T16:08:51Z</time></trkpt>
<trkpt lat="51.036911" lon="4.21261"><ele>3.19</ele><time>2025-05-26T16:08:57Z</time></trkpt>
<trkpt lat="51.036866" lon="4.212525"><ele>3.54</ele><time>2025-05-26T16:09:03Z</time></trkpt>
<trkpt lat="51.0368" lon="4.212489"><ele>4.04</ele><time>2025-05-26T16:09:08Z</time></trkpt>
<trkpt lat="51.036717" lon="4.212526"><ele>4.56</ele><time>2025-05-26T16:09:14Z</time></trkpt>
<trkpt lat="51.036681" lon="4.212586"><ele>4.61</ele><time>2025-05-26T16:09:20Z</time></trkpt>
<trkpt lat="51.036661" lon="4.212703"><ele>4.28</ele><time>2025-05-26T16:09:26Z</time></trkpt>
<trkpt lat="51.036439" lon="4.212774"><ele>4.82</ele><time>2025-05-26T16:09:31Z</time></trkpt>
<trkpt lat="51.036248" lon="4.212784"><ele>5.49</ele><time>2025-05-26T16:09:37Z</time></trkpt>
<trkpt lat="51.033894" lon="4.21223"><ele>7.97</ele><time>2025-05-26T16:09:43Z</time></trkpt>
<trkpt lat="51.033538" lon="4.212242"><ele>6.48</ele><time>2025-05-26T16:09:49Z</time></trkpt>
<trkpt lat="51.033237" lon="4.21237"><ele>4.65</ele><time>2025-05-26T16:09:55Z</time></trkpt>
<trkpt lat="51.032618" lon="4.212812"><ele>4.57</ele><time>2025-05-26T16:10:00Z</time></trkpt>
<trkpt lat="51.031756" lon="4.213483"><ele>5.0</ele><time>2025-05-26T16:10:06Z</time></trkpt>
<trkpt lat="51.031469" lon="4.213793"><ele>5.19</ele><time>2025-05-26T16:10:12Z</time></trkpt>
<trkpt lat="51.029698" lon="4.216131"><ele>6.82</ele><time>2025-05-26T16:10:18Z</time></trkpt>
<trkpt lat="51.028577" lon="4.217433"><ele>6.09</ele><time>2025-05-26T16:10:23Z</time></trkpt>
<trkpt lat="51.028422" lon="4.217723"><ele>7.48</ele><time>2025-05-26T16:10:29Z</time></trkpt>
<trkpt lat="51.028368" lon="4.217709"><ele>7.63</ele><time>2025-05-26T16:10:31Z</time></trkpt>
<trkpt lat="51.02832" lon="4.217745"><ele>7.88</ele><time>2025-05-26T16:10:32Z</time></trkpt>
<trkpt lat="51.02829" lon="4.21786"><ele>8.0</ele><time>2025-05-26T16:10:33Z</time></trkpt>
<trkpt lat="51.028297" lon="4.217911"><ele>8.0</ele><time>2025-05-26T16:10:35Z</time></trkpt>
<trkpt lat="51.028347" lon="4.217988"><ele>7.95</ele><time>2025-05-26T16:10:36Z</time></trkpt>
<trkpt lat="51.028378" lon="4.217998"><ele>7.84</ele><time>2025-05-26T16:10:37Z</time></trkpt>
<trkpt lat="51.028438" lon="4.217966"><ele>7.62</ele><time>2025-05-26T16:10:39Z</time></trkpt>
<trkpt lat="51.028472" lon="4.217852"><ele>7.5</ele><time>2025-05-26T16:10:40Z</time></trkpt>
<trkpt lat="51.02845" lon="4.21776"><ele>7.5</ele><time>2025-05-26T16:10:41Z</time></trkpt>
<trkpt lat="51.02845" lon="4.21776"><ele>7.5</ele><time>2025-05-26T16:10:41Z</time></trkpt>
<trkpt lat="51.028422" lon="4.217723"><ele>7.48</ele><time>2025-05-26T16:10:49Z</time></trkpt>
<trkpt lat="51.028577" lon="4.217433"><ele>6.09</ele><time>2025-05-26T16:10:56Z</time></trkpt>
<trkpt lat="51.029698" lon="4.216131"><ele>6.82</ele><time>2025-05-26T16:11:03Z</time></trkpt>
<trkpt lat="51.031469" lon="4.213793"><ele>5.19</ele><time>2025-05-26T16:11:10Z</time></trkpt>
<trkpt lat="51.031756" lon="4.213483"><ele>5.0</ele><time>2025-05-26T16:11:18Z</time></trkpt>
<trkpt lat="51.032618" lon="4.212812"><ele>4.57</ele><time>2025-05-26T16:11:25Z</time></trkpt>
<trkpt lat="51.033237" lon="4.21237"><ele>4.65</ele><time>2025-05-26T16:11:32Z</time></trkpt>
<trkpt lat="51.033538" lon="4.212242"><ele>6.48</ele><time>2025-05-26T16:11:39Z</time></trkpt>
<trkpt lat="51.033894" lon="4.21223"><ele>7.97</ele><time>2025-05-26T16:11:47Z</time></trkpt>
<trkpt lat="51.036248" lon="4.212784"><ele>5.49</ele><time>2025-05-26T16:11:54Z</time></trkpt>
<trkpt lat="51.036335" lon="4.212825"><ele>5.16</ele><time>2025-05-26T16:12:01Z</time></trkpt>
<trkpt lat="51.036682" lon="4.212811"><ele>3.94</ele><time>2025-05-26T16:12:09Z</time></trkpt>
<trkpt lat="51.036729" lon="4.21288"><ele>3.78</ele><time>2025-05-26T16:12:18Z</time></trkpt>
<trkpt lat="51.036791" lon="4.212906"><ele>3.55</ele><time>2025-05-26T16:12:27Z</time></trkpt>
<trkpt lat="51.036872" lon="4.212861"><ele>3.26</ele><time>2025-05-26T16:12:37Z</time></trkpt>
<trkpt lat="51.036895" lon="4.212826"><ele>3.18</ele><time>2025-05-26T16:12:46Z</time></trkpt>
<trkpt lat="51.036922" lon="4.21272"><ele>3.1</ele><time>2025-05-26T16:12:56Z</time></trkpt>
<trkpt lat="51.036911" lon="4.21261"><ele>3.19</ele><time>2025-05-26T16:13:05Z</time></trkpt>
<trkpt lat="51.036866" lon="4.212525"><ele>3.54</ele><time>2025-05-26T16:13:15Z</time></trkpt>
<trkpt lat="51.0368" lon="4.212489"><ele>4.04</ele><time>2025-05-26T16:13:24Z</time></trkpt>
<trkpt lat="51.036765" lon="4.212493"><ele>4.29</ele><time>2025-05-26T16:13:33Z</time></trkpt>
<trkpt lat="51.036677" lon="4.212345"><ele>4.93</ele><time>2025-05-26T16:13:43Z</time></trkpt>
<trkpt lat="51.036472" lon="4.211887"><ele>3.79</ele><time>2025-05-26T16:13:52Z</time></trkpt>
<trkpt lat="51.034151" lon="4.205376"><ele>4.69</ele><time>2025-05-26T16:14:02Z</time></trkpt>
<trkpt lat="51.033532" lon="4.203649"><ele>6.58</ele><time>2025-05-26T16:14:11Z</time></trkpt>
<trkpt lat="51.032641" lon="4.20112"><ele>6.52</ele><time>2025-05-26T16:14:21Z</time></trkpt>
<trkpt lat="51.032535" lon="4.200675"><ele>5.38</ele><time>2025-05-26T16:14:30Z</time></trkpt>
<trkpt lat="51.031507" lon="4.195195"><ele>5.42</ele><time>2025-05-26T16:14:39Z</time></trkpt>
<trkpt lat="51.03136" lon="4.194413"><ele>6.01</ele><time>2025-05-26T16:14:49Z</time></trkpt>
<trkpt lat="51.031096" lon="4.193015"><ele>5.0</ele><time>2025-05-26T16:14:58Z</time></trkpt>
<trkpt lat="51.030209" lon="4.188283"><ele>5.18</ele><time>2025-05-26T16:15:08Z</time></trkpt>
<trkpt lat="51.030169" lon="4.18804"><ele>6.0</ele><time>2025-05-26T16:15:17Z</time></trkpt>
<trkpt lat="51.029982" lon="4.18706"><ele>7.39</ele><time>2025-05-26T16:15:27Z</time></trkpt>
<trkpt lat="51.029942" lon="4.186841"><ele>7.0</ele><time>2025-05-26T16:15:36Z</time></trkpt>
<trkpt lat="51.028784" lon="4.180757"><ele>4.62</ele><time>2025-05-26T16:15:45Z</time></trkpt>
<trkpt lat="51.028456" lon="4.179312"><ele>5.52</ele><time>2025-05-26T16:15:55Z</time></trkpt>
<trkpt lat="51.02769" lon="4.175723"><ele>5.68</ele><time>2025-05-26T16:16:04Z</time></trkpt>
<trkpt lat="51.027555" lon="4.175263"><ele>5.0</ele><time>2025-05-26T16:16:14Z</time></trkpt>
<trkpt lat="51.027205" lon="4.1742"><ele>5.05</ele><time>2025-05-26T16:16:23Z</time></trkpt>
<trkpt lat="51.02711" lon="4.173842"><ele>5.47</ele><time>2025-05-26T16:16:33Z</time></trkpt>
<trkpt lat="51.026985" lon="4.173199"><ele>6.78</ele><time>2025-05-26T16:16:42Z</time></trkpt>
<trkpt lat="51.026495" lon="4.173327"><ele>6.38</ele><time>2025-05-26T16:16:48Z</time></trkpt>
<trkpt lat="51.02549" lon="4.173674"><ele>5.12</ele><time>2025-05-26T16:16:55Z</time></trkpt>
<trkpt lat="51.024185" lon="4.174089"><ele>6.95</ele><time>2025-05-26T16:17:01Z</time></trkpt>
<trkpt lat="51.02379" lon="4.174099"><ele>6.24</ele><time>2025-05-26T16:17:08Z</time></trkpt>
<trkpt lat="51.022117" lon="4.173694"><ele>6.7</ele><time>2025-05-26T16:17:14Z</time></trkpt>
<trkpt lat="51.021631" lon="4.173651"><ele>7.76</ele><time>2025-05-26T16:17:20Z</time></trkpt>
<trkpt lat="51.021361" lon="4.173686"><ele>7.27</ele><time>2025-05-26T16:17:27Z</time></trkpt>
<trkpt lat="51.020972" lon="4.173821"><ele>7.38</ele><time>2025-05-26T16:17:33Z</time></trkpt>
<trkpt lat="51.020405" lon="4.174269"><ele>5.29</ele><time>2025-05-26T16:17:40Z</time></trkpt>
<trkpt lat="51.019849" lon="4.174939"><ele>5.97</ele><time>2025-05-26T16:17:46Z</time></trkpt>
<trkpt lat="51.018923" lon="4.175903"><ele>8.0</ele><time>2025-05-26T16:17:53Z</time></trkpt>
<trkpt lat="51.017964" lon="4.176769"><ele>6.33</ele><time>2025-05-26T16:17:59Z</time></trkpt>
<trkpt lat="51.017305" lon="4.17732"><ele>7.7</ele><time>2025-05-26T16:18:05Z</time></trkpt>
<trkpt lat="51.016609" lon="4.177821"><ele>7.0</ele><time>2025-05-26T16:18:12Z</time></trkpt>
<trkpt lat="51.016385" lon="4.177949"><ele>6.98</ele><time>2025-05-26T16:18:18Z</time></trkpt>
<trkpt lat="51.015416" lon="4.178381"><ele>5.58</ele><time>2025-05-26T16:18:25Z</time></trkpt>
<trkpt lat="51.015049" lon="4.178484"><ele>5.54</ele><time>2025-05-26T16:18:31Z</time></trkpt>
<trkpt lat="51.014681" lon="4.178472"><ele>7.22</ele><time>2025-05-26T16:18:38Z</time></trkpt>
<trkpt lat="51.014361" lon="4.178421"><ele>9.08</ele><time>2025-05-26T16:18:44Z</time></trkpt>
<trkpt lat="51.013566" lon="4.178188"><ele>9.91</ele><time>2025-05-26T16:18:50Z</time></trkpt>
<trkpt lat="51.013258" lon="4.17816"><ele>9.17</ele><time>2025-05-26T16:18:57Z</time></trkpt>
<trkpt lat="51.012851" lon="4.178218"><ele>7.68</ele><time>2025-05-26T16:19:03Z</time></trkpt>
<trkpt lat="51.012491" lon="4.178369"><ele>7.03</ele><time>2025-05-26T16:19:10Z</time></trkpt>
<trkpt lat="51.012211" lon="4.178577"><ele>8.04</ele><time>2025-05-26T16:19:16Z</time></trkpt>
<trkpt lat="51.011293" lon="4.17949"><ele>11.49</ele><time>2025-05-26T16:19:22Z</time></trkpt>
<trkpt lat="51.010642" lon="4.180262"><ele>9.69</ele><time>2025-05-26T16:19:29Z</time></trkpt>
<trkpt lat="51.010176" lon="4.180898"><ele>11.88</ele><time>2025-05-26T16:19:35Z</time></trkpt>
<trkpt lat="51.00999" lon="4.181192"><ele>13.04</ele><time>2025-05-26T16:19:42Z</time></trkpt>
<trkpt lat="51.009698" lon="4.181793"><ele>14.0</ele><time>2025-05-26T16:19:48Z</time></trkpt>
<trkpt lat="51.009619" lon="4.181871"><ele>14.0</ele><time>2025-05-26T16:19:55Z</time></trkpt>
<trkpt lat="51.009466" lon="4.181737"><ele>14.0</ele><time>2025-05-26T16:20:02Z</time></trkpt>
<trkpt lat="51.008576" lon="4.18133"><ele>13.12</ele><time>2025-05-26T16:20:09Z</time></trkpt>
<trkpt lat="51.008176" lon="4.181266"><ele>14.0</ele><time>2025-05-26T16:20:16Z</time></trkpt>
<trkpt lat="51.007982" lon="4.181269"><ele>14.0</ele><time>2025-05-26T16:20:23Z</time></trkpt>
<trkpt lat="51.006837" lon="4.181446"><ele>12.69</ele><time>2025-05-26T16:20:30Z</time></trkpt>
<trkpt lat="51.005069" lon="4.181581"><ele>15.06</ele><time>2025-05-26T16:20:37Z</time></trkpt>
<trkpt lat="51.004865" lon="4.181561"><ele>15.86</ele><time>2025-05-26T16:20:44Z</time></trkpt>
<trkpt lat="51.004331" lon="4.181387"><ele>16.59</ele><time>2025-05-26T16:20:51Z</time></trkpt>
<trkpt lat="51.003538" lon="4.181148"><ele>16.0</ele><time>2025-05-26T16:20:58Z</time></trkpt>
<trkpt lat="51.003366" lon="4.181082"><ele>15.91</ele><time>2025-05-26T16:21:05Z</time></trkpt>
<trkpt lat="51.003211" lon="4.180967"><ele>15.48</ele><time>2025-05-26T16:21:12Z</time></trkpt>
<trkpt lat="51.002645" lon="4.180221"><ele>16.0</ele><time>2025-05-26T16:21:20Z</time></trkpt>
<trkpt lat="51.002136" lon="4.179618"><ele>17.0</ele><time>2025-05-26T16:21:27Z</time></trkpt>
<trkpt lat="51.001837" lon="4.179216"><ele>17.0</ele><time>2025-05-26T16:21:34Z</time></trkpt>
<trkpt lat="51.001575" lon="4.178802"><ele>16.89</ele><time>2025-05-26T16:21:41Z</time></trkpt>
<trkpt lat="51.001322" lon="4.178241"><ele>17.75</ele><time>2025-05-26T16:21:48Z</time></trkpt>
<trkpt lat="51.001211" lon="4.177933"><ele>17.64</ele><time>2025-05-26T16:21:55Z</time></trkpt>
<trkpt lat="51.00092" lon="4.177332"><ele>18.69</ele><time>2025-05-26T16:22:02Z</time></trkpt>
<trkpt lat="51.00025" lon="4.176299"><ele>19.1</ele><time>2025-05-26T16:22:09Z</time></trkpt>
<trkpt lat="50.999565" lon="4.17487"><ele>18.53</ele><time>2025-05-26T16:22:16Z</time></trkpt>
<trkpt lat="50.99858" lon="4.17283"><ele>18.02</ele><time>2025-05-26T16:22:23Z</time></trkpt>
<trkpt lat="50.998382" lon="4.172286"><ele>18.0</ele><time>2025-05-26T16:22:30Z</time></trkpt>
<trkpt lat="50.99823" lon="4.17184"><ele>17.0</ele><time>2025-05-26T16:22:37Z</time></trkpt>
<trkpt lat="50.998085" lon="4.171324"><ele>16.89</ele><time>2025-05-26T16:22:44Z</time></trkpt>
<trkpt lat="50.99757" lon="4.169235"><ele>14.81</ele><time>2025-05-26T16:22:52Z</time></trkpt>
<trkpt lat="50.997486" lon="4.169063"><ele>15.0</ele><time>2025-05-26T16:22:59Z</time></trkpt>
<trkpt lat="50.997356" lon="4.168947"><ele>15.0</ele><time>2025-05-26T16:23:06Z</time></trkpt>
<trkpt lat="50.997298" lon="4.168933"><ele>15.0</ele><time>2025-05-26T16:23:13Z</time></trkpt>
<trkpt lat="50.996504" lon="4.168907"><ele>16.2</ele><time>2025-05-26T16:23:20Z</time></trkpt>
<trkpt lat="50.996299" lon="4.168878"><ele>16.61</ele><time>2025-05-26T16:23:27Z</time></trkpt>
<trkpt lat="50.996109" lon="4.168793"><ele>15.66</ele><time>2025-05-26T16:23:34Z</time></trkpt>
<trkpt lat="50.996081" lon="4.168501"><ele>15.06</ele><time>2025-05-26T16:23:41Z</time></trkpt>
<trkpt lat="50.995807" lon="4.166752"><ele>10.37</ele><time>2025-05-26T16:23:49Z</time></trkpt>
<trkpt lat="50.995588" lon="4.165499"><ele>12.98</ele><time>2025-05-26T16:23:56Z</time></trkpt>
<trkpt lat="50.995463" lon="4.165005"><ele>13.33</ele><time>2025-05-26T16:24:04Z</time></trkpt>
<trkpt lat="50.995145" lon="4.164097"><ele>12.48</ele><time>2025-05-26T16:24:11Z</time></trkpt>
<trkpt lat="50.994864" lon="4.163353"><ele>13.49</ele><time>2025-05-26T16:24:19Z</time></trkpt>
<trkpt lat="50.994508" lon="4.1625"><ele>13.0</ele><time>2025-05-26T16:24:26Z</time></trkpt>
<trkpt lat="50.994335" lon="4.162118"><ele>12.38</ele><time>2025-05-26T16:24:34Z</time></trkpt>
<trkpt lat="50.993529" lon="4.16077"><ele>12.0</ele><time>2025-05-26T16:24:41Z</time></trkpt>
<trkpt lat="50.993456" lon="4.160561"><ele>12.0</ele><time>2025-05-26T16:24:48Z</time></trkpt>
<trkpt lat="50.993349" lon="4.159666"><ele>10.94</ele><time>2025-05-26T16:24:56Z</time></trkpt>
<trkpt lat="50.992993" lon="4.157776"><ele>10.77</ele><time>2025-05-26T16:25:03Z</time></trkpt>
<trkpt lat="50.992906" lon="4.157348"><ele>9.46</ele><time>2025-05-26T16:25:11Z</time></trkpt>
<trkpt lat="50.992838" lon="4.157103"><ele>9.12</ele><time>2025-05-26T16:25:18Z</time></trkpt>
<trkpt lat="50.99277" lon="4.15695"><ele>9.0</ele><time>2025-05-26T16:25:26Z</time></trkpt>
<trkpt lat="50.992213" lon="4.156214"><ele>8.0</ele><time>2025-05-26T16:25:33Z</time></trkpt>
<trkpt lat="50.991739" lon="4.155661"><ele>7.87</ele><time>2025-05-26T16:25:41Z</time></trkpt>
<trkpt lat="50.991739" lon="4.155661"><ele>7.87</ele><time>2025-05-26T16:25:41Z</time></trkpt>
<trkpt lat="50.991325" lon="4.155226"><ele>8.0</ele><time>2025-05-26T16:25:46Z</time></trkpt>
<trkpt lat="50.991267" lon="4.155187"><ele>8.0</ele><time>2025-05-26T16:25:52Z</time></trkpt>
<trkpt lat="50.991108" lon="4.155233"><ele>8.0</ele><time>2025-05-26T16:25:58Z</time></trkpt>
<trkpt lat="50.990493" lon="4.155763"><ele>8.22</ele><time>2025-05-26T16:26:04Z</time></trkpt>
<trkpt lat="50.990412" lon="4.155859"><ele>8.47</ele><time>2025-05-26T16:26:09Z</time></trkpt>
<trkpt lat="50.99017" lon="4.156261"><ele>8.0</ele><time>2025-05-26T16:26:15Z</time></trkpt>
<trkpt lat="50.990053" lon="4.156406"><ele>7.99</ele><time>2025-05-26T16:26:21Z</time></trkpt>
<trkpt lat="50.989955" lon="4.156473"><ele>8.0</ele><time>2025-05-26T16:26:27Z</time></trkpt>
<trkpt lat="50.989806" lon="4.156476"><ele>8.0</ele><time>2025-05-26T16:26:32Z</time></trkpt>
<trkpt lat="50.98968" lon="4.156448"><ele>8.0</ele><time>2025-05-26T16:26:38Z</time></trkpt>
<trkpt lat="50.98868" lon="4.155114"><ele>5.55</ele><time>2025-05-26T16:26:44Z</time></trkpt>
<trkpt lat="50.988304" lon="4.15472"><ele>4.21</ele><time>2025-05-26T16:26:49Z</time></trkpt>
<trkpt lat="50.987018" lon="4.153609"><ele>9.01</ele><time>2025-05-26T16:26:55Z</time></trkpt>
<trkpt lat="50.986814" lon="4.153512"><ele>9.35</ele><time>2025-05-26T16:27:01Z</time></trkpt>
<trkpt lat="50.985898" lon="4.153161"><ele>10.0</ele><time>2025-05-26T16:27:07Z</time></trkpt>
<trkpt lat="50.985687" lon="4.152959"><ele>10.0</ele><time>2025-05-26T16:27:12Z</time></trkpt>
<trkpt lat="50.985657" lon="4.15324"><ele>9.58</ele><time>2025-05-26T16:27:16Z</time></trkpt>
<trkpt lat="50.985586" lon="4.154267"><ele>7.64</ele><time>2025-05-26T16:27:20Z</time></trkpt>
<trkpt lat="50.985509" lon="4.154659"><ele>7.17</ele><time>2025-05-26T16:27:24Z</time></trkpt>
<trkpt lat="50.98547" lon="4.154781"><ele>7.31</ele><time>2025-05-26T16:27:27Z</time></trkpt>
<trkpt lat="50.984499" lon="4.154081"><ele>11.0</ele><time>2025-05-26T16:27:33Z</time></trkpt>
<trkpt lat="50.984321" lon="4.153998"><ele>10.56</ele><time>2025-05-26T16:27:38Z</time></trkpt>
<trkpt lat="50.984107" lon="4.153989"><ele>10.0</ele><time>2025-05-26T16:27:44Z</time></trkpt>
<trkpt lat="50.983899" lon="4.154082"><ele>10.0</ele><time>2025-05-26T16:27:49Z</time></trkpt>
<trkpt lat="50.983812" lon="4.154205"><ele>10.0</ele><time>2025-05-26T16:27:55Z</time></trkpt>
<trkpt lat="50.983614" lon="4.154578"><ele>10.01</ele><time>2025-05-26T16:28:00Z</time></trkpt>
<trkpt lat="50.983487" lon="4.154677"><ele>10.0</ele><time>2025-05-26T16:28:06Z</time></trkpt>
<trkpt lat="50.983167" lon="4.154674"><ele>9.4</ele><time>2025-05-26T16:28:11Z</time></trkpt>
<trkpt lat="50.982808" lon="4.154638"><ele>9.0</ele><time>2025-05-26T16:28:17Z</time></trkpt>
<trkpt lat="50.982573" lon="4.154674"><ele>9.74</ele><time>2025-05-26T16:28:22Z</time></trkpt>
<trkpt lat="50.981972" lon="4.155206"><ele>11.0</ele><time>2025-05-26T16:28:28Z</time></trkpt>
<trkpt lat="50.981832" lon="4.155401"><ele>11.22</ele><time>2025-05-26T16:28:33Z</time></trkpt>
<trkpt lat="50.981447" lon="4.156116"><ele>11.79</ele><time>2025-05-26T16:28:39Z</time></trkpt>
<trkpt lat="50.981282" lon="4.156284"><ele>12.39</ele><time>2025-05-26T16:28:44Z</time></trkpt>
<trkpt lat="50.981156" lon="4.156322"><ele>12.84</ele><time>2025-05-26T16:28:50Z</time></trkpt>
<trkpt lat="50.980978" lon="4.156293"><ele>12.21</ele><time>2025-05-26T16:28:55Z</time></trkpt>
<trkpt lat="50.980492" lon="4.156072"><ele>10.2</ele><time>2025-05-26T16:29:01Z</time></trkpt>
<trkpt lat="50.98007" lon="4.155927"><ele>10.34</ele><time>2025-05-26T16:29:06Z</time></trkpt>
<trkpt lat="50.979885" lon="4.155938"><ele>10.38</ele><time>2025-05-26T16:29:12Z</time></trkpt>
<trkpt lat="50.979059" lon="4.156091"><ele>11.31</ele><time>2025-05-26T16:29:18Z</time></trkpt>
<trkpt lat="50.97899" lon="4.156067"><ele>11.48</ele><time>2025-05-26T16:29:23Z</time></trkpt>
<trkpt lat="50.978881" lon="4.155961"><ele>11.46</ele><time>2025-05-26T16:29:29Z</time></trkpt>
<trkpt lat="50.978831" lon="4.15588"><ele>11.17</ele><time>2025-05-26T16:29:34Z</time></trkpt>
<trkpt lat="50.978185" lon="4.156262"><ele>12.0</ele><time>2025-05-26T16:29:41Z</time></trkpt>
<trkpt lat="50.977747" lon="4.156296"><ele>11.89</ele><time>2025-05-26T16:29:48Z</time></trkpt>
<trkpt lat="50.977564" lon="4.15634"><ele>11.23</ele><time>2025-05-26T16:29:55Z</time></trkpt>
<trkpt lat="50.977193" lon="4.156514"><ele>11.55</ele><time>2025-05-26T16:30:02Z</time></trkpt>
<trkpt lat="50.977083" lon="4.156539"><ele>12.04</ele><time>2025-05-26T16:30:09Z</time></trkpt>
<trkpt lat="50.975635" lon="4.156436"><ele>13.95</ele><time>2025-05-26T16:30:16Z</time></trkpt>
<trkpt lat="50.975443" lon="4.15645"><ele>14.09</ele><time>2025-05-26T16:30:23Z</time></trkpt>
<trkpt lat="50.974906" lon="4.156624"><ele>14.51</ele><time>2025-05-26T16:30:30Z</time></trkpt>
<trkpt lat="50.974342" lon="4.157004"><ele>13.84</ele><time>2025-05-26T16:30:37Z</time></trkpt>
<trkpt lat="50.974273" lon="4.157029"><ele>13.69</ele><time>2025-05-26T16:30:44Z</time></trkpt>
<trkpt lat="50.974139" lon="4.156998"><ele>13.19</ele><time>2025-05-26T16:30:51Z</time></trkpt>
<trkpt lat="50.973873" lon="4.15688"><ele>13.06</ele><time>2025-05-26T16:30:58Z</time></trkpt>
<trkpt lat="50.972112" lon="4.155827"><ele>15.4</ele><time>2025-05-26T16:31:05Z</time></trkpt>
<trkpt lat="50.9713" lon="4.155171"><ele>17.0</ele><time>2025-05-26T16:31:12Z</time></trkpt>
<trkpt lat="50.971196" lon="4.15513"><ele>17.0</ele><time>2025-05-26T16:31:19Z</time></trkpt>
<trkpt lat="50.971196" lon="4.15513"><ele>17.0</ele><time>2025-05-26T16:31:19Z</time></trkpt>
<trkpt lat="50.971128" lon="4.155144"><ele>17.0</ele><time>2025-05-26T16:31:29Z</time></trkpt>
<trkpt lat="50.971029" lon="4.155209"><ele>17.3</ele><time>2025-05-26T16:31:39Z</time></trkpt>
<trkpt lat="50.970221" lon="4.155645"><ele>19.0</ele><time>2025-05-26T16:31:48Z</time></trkpt>
<trkpt lat="50.969955" lon="4.155716"><ele>19.0</ele><time>2025-05-26T16:31:58Z</time></trkpt>
<trkpt lat="50.96821" lon="4.155764"><ele>21.0</ele><time>2025-05-26T16:32:08Z</time></trkpt>
<trkpt lat="50.967952" lon="4.155728"><ele>21.0</ele><time>2025-05-26T16:32:18Z</time></trkpt>
<trkpt lat="50.967569" lon="4.155578"><ele>21.69</ele><time>2025-05-26T16:32:27Z</time></trkpt>
<trkpt lat="50.967003" lon="4.155395"><ele>22.45</ele><time>2025-05-26T16:32:37Z</time></trkpt>
<trkpt lat="50.966754" lon="4.153474"><ele>22.0</ele><time>2025-05-26T16:32:51Z</time></trkpt>
<trkpt lat="50.966465" lon="4.152159"><ele>20.23</ele><time>2025-05-26T16:33:05Z</time></trkpt>
<trkpt lat="50.968045" lon="4.151044"><ele>18.99</ele><time>2025-05-26T16:33:27Z</time></trkpt>
<trkpt lat="50.969518" lon="4.150027"><ele>18.0</ele><time>2025-05-26T16:33:50Z</time></trkpt>
<trkpt lat="50.969657" lon="4.1499"><ele>17.64</ele><time>2025-05-26T16:34:12Z</time></trkpt>
<trkpt lat="50.971456" lon="4.148619"><ele>15.99</ele><time>2025-05-26T16:34:34Z</time></trkpt>
<trkpt lat="50.976022" lon="4.145348"><ele>13.17</ele><time>2025-05-26T16:34:57Z</time></trkpt>
<trkpt lat="50.976164" lon="4.145223"><ele>13.0</ele><time>2025-05-26T16:35:19Z</time></trkpt>
<trkpt lat="50.976212" lon="4.144994"><ele>13.02</ele><time>2025-05-26T16:35:26Z</time></trkpt>
<trkpt lat="50.976385" lon="4.14441"><ele>14.12</ele><time>2025-05-26T16:35:32Z</time></trkpt>
<trkpt lat="50.976458" lon="4.144103"><ele>14.81</ele><time>2025-05-26T16:35:39Z</time></trkpt>
<trkpt lat="50.976477" lon="4.143947"><ele>14.93</ele><time>2025-05-26T16:35:45Z</time></trkpt>
<trkpt lat="50.976463" lon="4.143772"><ele>15.42</ele><time>2025-05-26T16:35:52Z</time></trkpt>
<trkpt lat="50.976422" lon="4.143561"><ele>16.02</ele><time>2025-05-26T16:35:58Z</time></trkpt>
<trkpt lat="50.976416" lon="4.14343"><ele>16.06</ele><time>2025-05-26T16:36:05Z</time></trkpt>
<trkpt lat="50.976555" lon="4.142714"><ele>14.0</ele><time>2025-05-26T16:36:11Z</time></trkpt>
<trkpt lat="50.976537" lon="4.14231"><ele>14.0</ele><time>2025-05-26T16:36:15Z</time></trkpt>
<trkpt lat="50.976509" lon="4.142065"><ele>14.0</ele><time>2025-05-26T16:36:20Z</time></trkpt>
<trkpt lat="50.976298" lon="4.141296"><ele>13.0</ele><time>2025-05-26T16:36:24Z</time></trkpt>
<trkpt lat="50.976168" lon="4.141076"><ele>12.87</ele><time>2025-05-26T16:36:28Z</time></trkpt>
<trkpt lat="50.975508" lon="4.140458"><ele>13.0</ele><time>2025-05-26T16:36:32Z</time></trkpt>
<trkpt lat="50.975461" lon="4.140408"><ele>13.0</ele><time>2025-05-26T16:36:36Z</time></trkpt>
<trkpt lat="50.975353" lon="4.140225"><ele>13.0</ele><time>2025-05-26T16:36:40Z</time></trkpt>
<trkpt lat="50.975237" lon="4.139902"><ele>13.2</ele><time>2025-05-26T16:36:44Z</time></trkpt>
<trkpt lat="50.975159" lon="4.139609"><ele>13.98</ele><time>2025-05-26T16:36:49Z</time></trkpt>
<trkpt lat="50.975114" lon="4.13915"><ele>14.41</ele><time>2025-05-26T16:36:53Z</time></trkpt>
<trkpt lat="50.974968" lon="4.138669"><ele>13.09</ele><time>2025-05-26T16:36:57Z</time></trkpt>
<trkpt lat="50.97495" lon="4.138416"><ele>12.11</ele><time>2025-05-26T16:37:01Z</time></trkpt>
<trkpt lat="50.974969" lon="4.138184"><ele>11.35</ele><time>2025-05-26T16:37:05Z</time></trkpt>
<trkpt lat="50.975091" lon="4.137481"><ele>11.33</ele><time>2025-05-26T16:37:09Z</time></trkpt>
<trkpt lat="50.975492" lon="4.136063"><ele>12.23</ele><time>2025-05-26T16:37:14Z</time></trkpt>
<trkpt lat="50.975536" lon="4.135754"><ele>12.07</ele><time>2025-05-26T16:37:18Z</time></trkpt>
<trkpt lat="50.975544" lon="4.135433"><ele>12.04</ele><time>2025-05-26T16:37:22Z</time></trkpt>
<trkpt lat="50.97553" lon="4.135137"><ele>12.09</ele><time>2025-05-26T16:37:26Z</time></trkpt>
<trkpt lat="50.975485" lon="4.134851"><ele>12.65</ele><time>2025-05-26T16:37:30Z</time></trkpt>
<trkpt lat="50.97541" lon="4.134599"><ele>13.0</ele><time>2025-05-26T16:37:34Z</time></trkpt>
<trkpt lat="50.975139" lon="4.13385"><ele>13.93</ele><time>2025-05-26T16:37:39Z</time></trkpt>
<trkpt lat="50.975077" lon="4.133572"><ele>13.72</ele><time>2025-05-26T16:37:43Z</time></trkpt>
<trkpt lat="50.975079" lon="4.133314"><ele>13.72</ele><time>2025-05-26T16:37:47Z</time></trkpt>
<trkpt lat="50.975184" lon="4.132689"><ele>13.23</ele><time>2025-05-26T16:37:51Z</time></trkpt>
<trkpt lat="50.975194" lon="4.132454"><ele>13.0</ele><time>2025-05-26T16:37:55Z</time></trkpt>
<trkpt lat="50.975169" lon="4.132284"><ele>13.0</ele><time>2025-05-26T16:37:59Z</time></trkpt>
<trkpt lat="50.975087" lon="4.132029"><ele>12.78</ele><time>2025-05-26T16:38:04Z</time></trkpt>
<trkpt lat="50.97459" lon="4.130871"><ele>13.86</ele><time>2025-05-26T16:38:08Z</time></trkpt>
<trkpt lat="50.974447" lon="4.130426"><ele>14.46</ele><time>2025-05-26T16:38:12Z</time></trkpt>
<trkpt lat="50.973992" lon="4.128639"><ele>13.47</ele><time>2025-05-26T16:38:16Z</time></trkpt>
<trkpt lat="50.973941" lon="4.128509"><ele>12.89</ele><time>2025-05-26T16:38:20Z</time></trkpt>
<trkpt lat="50.973938" lon="4.1285"><ele>13.3</ele><time>2025-05-26T16:38:24Z</time></trkpt>
<trkpt lat="50.973938" lon="4.1285"><ele>13.3</ele><time>2025-05-26T16:38:24Z</time></trkpt>
<trkpt lat="50.973941" lon="4.128509"><ele>12.89</ele><time>2025-05-26T16:38:24Z</time></trkpt>
<trkpt lat="50.97363" lon="4.128614"><ele>12.08</ele><time>2025-05-26T16:38:40Z</time></trkpt>
<trkpt lat="50.973402" lon="4.128771"><ele>12.58</ele><time>2025-05-26T16:38:56Z</time></trkpt>
<trkpt lat="50.972849" lon="4.129313"><ele>13.61</ele><time>2025-05-26T16:39:11Z</time></trkpt>
<trkpt lat="50.97182" lon="4.130374"><ele>14.85</ele><time>2025-05-26T16:39:27Z</time></trkpt>
<trkpt lat="50.971385" lon="4.130939"><ele>13.38</ele><time>2025-05-26T16:39:42Z</time></trkpt>
<trkpt lat="50.971352" lon="4.130982"><ele>13.53</ele><time>2025-05-26T16:39:58Z</time></trkpt>
<trkpt lat="50.969166" lon="4.133899"><ele>20.0</ele><time>2025-05-26T16:40:13Z</time></trkpt>
<trkpt lat="50.967087" lon="4.136603"><ele>24.68</ele><time>2025-05-26T16:40:29Z</time></trkpt>
<trkpt lat="50.966381" lon="4.137595"><ele>23.3</ele><time>2025-05-26T16:40:44Z</time></trkpt>
<trkpt lat="50.966276" lon="4.137785"><ele>23.19</ele><time>2025-05-26T16:41:00Z</time></trkpt>
<trkpt lat="50.966192" lon="4.138032"><ele>22.58</ele><time>2025-05-26T16:41:15Z</time></trkpt>
<trkpt lat="50.966101" lon="4.138479"><ele>21.03</ele><time>2025-05-26T16:41:31Z</time></trkpt>
<trkpt lat="50.966056" lon="4.138621"><ele>21.19</ele><time>2025-05-26T16:41:47Z</time></trkpt>
<trkpt lat="50.96598" lon="4.138775"><ele>21.47</ele><time>2025-05-26T16:42:02Z</time></trkpt>
<trkpt lat="50.965887" lon="4.138901"><ele>21.81</ele><time>2025-05-26T16:42:18Z</time></trkpt>
<trkpt lat="50.965794" lon="4.138985"><ele>22.28</ele><time>2025-05-26T16:42:33Z</time></trkpt>
<trkpt lat="50.965483" lon="4.139176"><ele>24.48</ele><time>2025-05-26T16:42:49Z</time></trkpt>
<trkpt lat="50.964528" lon="4.139656"><ele>25.7</ele><time>2025-05-26T16:43:04Z</time></trkpt>
<trkpt lat="50.964184" lon="4.139725"><ele>26.93</ele><time>2025-05-26T16:43:20Z</time></trkpt>
<trkpt lat="50.963694" lon="4.139751"><ele>28.9</ele><time>2025-05-26T16:43:35Z</time></trkpt>
<trkpt lat="50.963753" lon="4.139639"><ele>29.3</ele><time>2025-05-26T16:43:46Z</time></trkpt>
<trkpt lat="50.96376" lon="4.139482"><ele>29.86</ele><time>2025-05-26T16:43:57Z</time></trkpt>
<trkpt lat="50.963724" lon="4.139323"><ele>29.82</ele><time>2025-05-26T16:44:09Z</time></trkpt>
<trkpt lat="50.963389" lon="4.138347"><ele>29.8</ele><time>2025-05-26T16:44:20Z</time></trkpt>
<trkpt lat="50.96299" lon="4.137428"><ele>29.24</ele><time>2025-05-26T16:44:31Z</time></trkpt>
<trkpt lat="50.962213" lon="4.134663"><ele>34.07</ele><time>2025-05-26T16:44:42Z</time></trkpt>
<trkpt lat="50.962213" lon="4.134663"><ele>34.07</ele><time>2025-05-26T16:44:42Z</time></trkpt>
<trkpt lat="50.962186" lon="4.134454"><ele>34.13</ele><time>2025-05-26T16:44:52Z</time></trkpt>
<trkpt lat="50.962191" lon="4.13244"><ele>34.11</ele><time>2025-05-26T16:45:02Z</time></trkpt>
<trkpt lat="50.962239" lon="4.132256"><ele>33.94</ele><time>2025-05-26T16:45:12Z</time></trkpt>
<trkpt lat="50.962687" lon="4.131789"><ele>30.1</ele><time>2025-05-26T16:45:23Z</time></trkpt>
<trkpt lat="50.963026" lon="4.131432"><ele>28.11</ele><time>2025-05-26T16:45:33Z</time></trkpt>
<trkpt lat="50.96305" lon="4.131342"><ele>28.02</ele><time>2025-05-26T16:45:43Z</time></trkpt>
<trkpt lat="50.963039" lon="4.131255"><ele>28.06</ele><time>2025-05-26T16:45:53Z</time></trkpt>
<trkpt lat="50.962791" lon="4.130283"><ele>26.02</ele><time>2025-05-26T16:46:03Z</time></trkpt>
<trkpt lat="50.962793" lon="4.130164"><ele>26.0</ele><time>2025-05-26T16:46:13Z</time></trkpt>
<trkpt lat="50.962823" lon="4.130055"><ele>26.0</ele><time>2025-05-26T16:46:24Z</time></trkpt>
<trkpt lat="50.963799" lon="4.128413"><ele>21.0</ele><time>2025-05-26T16:46:34Z</time></trkpt>
<trkpt lat="50.964327" lon="4.127378"><ele>22.0</ele><time>2025-05-26T16:46:44Z</time></trkpt>
<trkpt lat="50.965648" lon="4.125006"><ele>22.67</ele><time>2025-05-26T16:46:54Z</time></trkpt>
<trkpt lat="50.96629" lon="4.123917"><ele>22.0</ele><time>2025-05-26T16:47:04Z</time></trkpt>
<trkpt lat="50.966617" lon="4.123277"><ele>20.83</ele><time>2025-05-26T16:47:15Z</time></trkpt>
<trkpt lat="50.967149" lon="4.12192"><ele>17.24</ele><time>2025-05-26T16:47:25Z</time></trkpt>
<trkpt lat="50.967259" lon="4.121866"><ele>17.13</ele><time>2025-05-26T16:47:27Z</time></trkpt>
<trkpt lat="50.967422" lon="4.121726"><ele>17.72</ele><time>2025-05-26T16:47:30Z</time></trkpt>
<trkpt lat="50.967787" lon="4.121236"><ele>17.93</ele><time>2025-05-26T16:47:33Z</time></trkpt>
<trkpt lat="50.967956" lon="4.121041"><ele>17.13</ele><time>2025-05-26T16:47:36Z</time></trkpt>
<trkpt lat="50.968123" lon="4.120914"><ele>17.32</ele><time>2025-05-26T16:47:38Z</time></trkpt>
<trkpt lat="50.968273" lon="4.120844"><ele>17.2</ele><time>2025-05-26T16:47:41Z</time></trkpt>
<trkpt lat="50.96841" lon="4.120728"><ele>16.73</ele><time>2025-05-26T16:47:44Z</time></trkpt>
<trkpt lat="50.968629" lon="4.120411"><ele>16.0</ele><time>2025-05-26T16:47:47Z</time></trkpt>
<trkpt lat="50.968681" lon="4.120365"><ele>16.0</ele><time>2025-05-26T16:47:49Z</time></trkpt>
<trkpt lat="50.968753" lon="4.120343"><ele>16.0</ele><time>2025-05-26T16:47:52Z</time></trkpt>
<trkpt lat="50.969188" lon="4.120356"><ele>16.02</ele><time>2025-05-26T16:47:55Z</time></trkpt>
<trkpt lat="50.969822" lon="4.12013"><ele>16.36</ele><time>2025-05-26T16:47:58Z</time></trkpt>
<trkpt lat="50.970037" lon="4.120035"><ele>17.13</ele><time>2025-05-26T16:48:00Z</time></trkpt>
<trkpt lat="50.970512" lon="4.11973"><ele>16.01</ele><time>2025-05-26T16:48:03Z</time></trkpt>
<trkpt lat="50.970763" lon="4.119499"><ele>16.6</ele><time>2025-05-26T16:48:06Z</time></trkpt>
<trkpt lat="50.971079" lon="4.119099"><ele>16.11</ele><time>2025-05-26T16:48:09Z</time></trkpt>
<trkpt lat="50.971166" lon="4.118937"><ele>15.8</ele><time>2025-05-26T16:48:11Z</time></trkpt>
<trkpt lat="50.971257" lon="4.118695"><ele>15.84</ele><time>2025-05-26T16:48:14Z</time></trkpt>
<trkpt lat="50.971322" lon="4.118463"><ele>16.0</ele><time>2025-05-26T16:48:17Z</time></trkpt>
<trkpt lat="50.97136" lon="4.118229"><ele>16.38</ele><time>2025-05-26T16:48:20Z</time></trkpt>
<trkpt lat="50.971367" lon="4.117898"><ele>17.52</ele><time>2025-05-26T16:48:22Z</time></trkpt>
<trkpt lat="50.971407" lon="4.117695"><ele>17.66</ele><time>2025-05-26T16:48:25Z</time></trkpt>
<trkpt lat="50.971464" lon="4.117602"><ele>17.27</ele><time>2025-05-26T16:48:28Z</time></trkpt>
<trkpt lat="50.97154" lon="4.117545"><ele>17.07</ele><time>2025-05-26T16:48:31Z</time></trkpt>
<trkpt lat="50.971834" lon="4.117389"><ele>15.79</ele><time>2025-05-26T16:48:34Z</time></trkpt>
<trkpt lat="50.971728" lon="4.117049"><ele>15.93</ele><time>2025-05-26T16:48:37Z</time></trkpt>
<trkpt lat="50.971348" lon="4.116107"><ele>14.29</ele><time>2025-05-26T16:48:41Z</time></trkpt>
<trkpt lat="50.971278" lon="4.115822"><ele>14.4</ele><time>2025-05-26T16:48:45Z</time></trkpt>
<trkpt lat="50.971207" lon="4.115384"><ele>14.03</ele><time>2025-05-26T16:48:49Z</time></trkpt>
<trkpt lat="50.971068" lon="4.11494"><ele>14.0</ele><time>2025-05-26T16:48:52Z</time></trkpt>
<trkpt lat="50.970912" lon="4.114706"><ele>14.0</ele><time>2025-05-26T16:48:56Z</time></trkpt>
<trkpt lat="50.970758" lon="4.114547"><ele>13.73</ele><time>2025-05-26T16:49:00Z</time></trkpt>
<trkpt lat="50.970549" lon="4.114387"><ele>12.99</ele><time>2025-05-26T16:49:04Z</time></trkpt>
<trkpt lat="50.970493" lon="4.114312"><ele>12.89</ele><time>2025-05-26T16:49:08Z</time></trkpt>
<trkpt lat="50.970501" lon="4.114169"><ele>12.8</ele><time>2025-05-26T16:49:11Z</time></trkpt>
<trkpt lat="50.970719" lon="4.113154"><ele>10.94</ele><time>2025-05-26T16:49:15Z</time></trkpt>
<trkpt lat="50.970763" lon="4.11301"><ele>10.63</ele><time>2025-05-26T16:49:19Z</time></trkpt>
<trkpt lat="50.971341" lon="4.112103"><ele>10.99</ele><time>2025-05-26T16:49:23Z</time></trkpt>
<trkpt lat="50.971428" lon="4.11193"><ele>12.28</ele><time>2025-05-26T16:49:27Z</time></trkpt>
<trkpt lat="50.971509" lon="4.111647"><ele>12.77</ele><time>2025-05-26T16:49:30Z</time></trkpt>
<trkpt lat="50.97153" lon="4.111471"><ele>11.95</ele><time>2025-05-26T16:49:34Z</time></trkpt>
<trkpt lat="50.971527" lon="4.111146"><ele>11.06</ele><time>2025-05-26T16:49:38Z</time></trkpt>
<trkpt lat="50.971446" lon="4.110843"><ele>10.03</ele><time>2025-05-26T16:49:45Z</time></trkpt>
<trkpt lat="50.971092" lon="4.110018"><ele>9.07</ele><time>2025-05-26T16:49:53Z</time></trkpt>
<trkpt lat="50.970186" lon="4.10832"><ele>9.97</ele><time>2025-05-26T16:50:01Z</time></trkpt>
<trkpt lat="50.970428" lon="4.108079"><ele>9.08</ele><time>2025-05-26T16:50:08Z</time></trkpt>
<trkpt lat="50.970602" lon="4.107831"><ele>8.66</ele><time>2025-05-26T16:50:16Z</time></trkpt>
<trkpt lat="50.971702" lon="4.105729"><ele>8.87</ele><time>2025-05-26T16:50:23Z</time></trkpt>
<trkpt lat="50.971865" lon="4.105471"><ele>8.59</ele><time>2025-05-26T16:50:31Z</time></trkpt>
<trkpt lat="50.972037" lon="4.105244"><ele>9.0</ele><time>2025-05-26T16:50:39Z</time></trkpt>
<trkpt lat="50.973477" lon="4.103551"><ele>7.48</ele><time>2025-05-26T16:50:46Z</time></trkpt>
<trkpt lat="50.973657" lon="4.103362"><ele>6.84</ele><time>2025-05-26T16:50:54Z</time></trkpt>
<trkpt lat="50.974359" lon="4.102776"><ele>7.0</ele><time>2025-05-26T16:51:01Z</time></trkpt>
<trkpt lat="50.974534" lon="4.10261"><ele>7.0</ele><time>2025-05-26T16:51:09Z</time></trkpt>
<trkpt lat="50.974816" lon="4.102244"><ele>5.99</ele><time>2025-05-26T16:51:16Z</time></trkpt>
<trkpt lat="50.975906" lon="4.100566"><ele>9.0</ele><time>2025-05-26T16:51:24Z</time></trkpt>
<trkpt lat="50.975807" lon="4.100314"><ele>8.03</ele><time>2025-05-26T16:51:42Z</time></trkpt>
<trkpt lat="50.975574" lon="4.100377"><ele>7.42</ele><time>2025-05-26T16:51:44Z</time></trkpt>
<trkpt lat="50.975342" lon="4.100477"><ele>8.49</ele><time>2025-05-26T16:51:47Z</time></trkpt>
<trkpt lat="50.975894" lon="4.099384"><ele>7.0</ele><time>2025-05-26T16:51:53Z</time></trkpt>
<trkpt lat="50.976306" lon="4.098489"><ele>5.57</ele><time>2025-05-26T16:52:00Z</time></trkpt>
<trkpt lat="50.976551" lon="4.097909"><ele>6.58</ele><time>2025-05-26T16:52:07Z</time></trkpt>
<trkpt lat="50.9771" lon="4.096373"><ele>6.56</ele><time>2025-05-26T16:52:14Z</time></trkpt>
<trkpt lat="50.977867" lon="4.094524"><ele>7.0</ele><time>2025-05-26T16:52:21Z</time></trkpt>
<trkpt lat="50.97811" lon="4.093796"><ele>7.2</ele><time>2025-05-26T16:52:28Z</time></trkpt>
<trkpt lat="50.978247" lon="4.092342"><ele>6.69</ele><time>2025-05-26T16:52:35Z</time></trkpt>
<trkpt lat="50.978348" lon="4.091864"><ele>6.05</ele><time>2025-05-26T16:52:41Z</time></trkpt>
<trkpt lat="50.978337" lon="4.09175"><ele>6.01</ele><time>2025-05-26T16:52:48Z</time></trkpt>
<trkpt lat="50.978228" lon="4.091444"><ele>6.49</ele><time>2025-05-26T16:52:55Z</time></trkpt>
<trkpt lat="50.978224" lon="4.09134"><ele>6.6</ele><time>2025-05-26T16:53:02Z</time></trkpt>
<trkpt lat="50.978311" lon="4.090949"><ele>7.5</ele><time>2025-05-26T16:53:09Z</time></trkpt>
<trkpt lat="50.978532" lon="4.089267"><ele>9.64</ele><time>2025-05-26T16:53:16Z</time></trkpt>
<trkpt lat="50.97862" lon="4.08866"><ele>10.8</ele><time>2025-05-26T16:53:23Z</time></trkpt>
<trkpt lat="50.978701" lon="4.088589"><ele>10.68</ele><time>2025-05-26T16:53:29Z</time></trkpt>
<trkpt lat="50.97867" lon="4.088384"><ele>10.79</ele><time>2025-05-26T16:53:37Z</time></trkpt>
<trkpt lat="50.978733" lon="4.086156"><ele>11.0</ele><time>2025-05-26T16:53:44Z</time></trkpt>
<trkpt lat="50.978738" lon="4.08598"><ele>10.53</ele><time>2025-05-26T16:53:51Z</time></trkpt>
<trkpt lat="50.978831" lon="4.085983"><ele>10.54</ele><time>2025-05-26T16:54:07Z</time></trkpt>
<trkpt lat="50.979059" lon="4.085613"><ele>10.0</ele><time>2025-05-26T16:54:24Z</time></trkpt>
<trkpt lat="50.980712" lon="4.08334"><ele>11.13</ele><time>2025-05-26T16:54:40Z</time></trkpt>
<trkpt lat="50.980712" lon="4.08255"><ele>9.4</ele><time>2025-05-26T16:54:47Z</time></trkpt>
<trkpt lat="50.980697" lon="4.082389"><ele>8.82</ele><time>2025-05-26T16:54:53Z</time></trkpt>
<trkpt lat="50.980613" lon="4.082066"><ele>8.09</ele><time>2025-05-26T16:55:00Z</time></trkpt>
<trkpt lat="50.980454" lon="4.081768"><ele>8.36</ele><time>2025-05-26T16:55:06Z</time></trkpt>
<trkpt lat="50.980347" lon="4.081627"><ele>8.65</ele><time>2025-05-26T16:55:13Z</time></trkpt>
<trkpt lat="50.979931" lon="4.081192"><ele>8.22</ele><time>2025-05-26T16:55:19Z</time></trkpt>
<trkpt lat="50.979917" lon="4.080739"><ele>8.0</ele><time>2025-05-26T16:55:25Z</time></trkpt>
<trkpt lat="50.979936" lon="4.079944"><ele>7.03</ele><time>2025-05-26T16:55:31Z</time></trkpt>
<trkpt lat="50.979993" lon="4.07972"><ele>6.01</ele><time>2025-05-26T16:55:37Z</time></trkpt>
<trkpt lat="50.980118" lon="4.079469"><ele>4.66</ele><time>2025-05-26T16:55:43Z</time></trkpt>
<trkpt lat="50.980659" lon="4.07858"><ele>5.0</ele><time>2025-05-26T16:55:49Z</time></trkpt>
<trkpt lat="50.982029" lon="4.076361"><ele>2.0</ele><time>2025-05-26T16:55:55Z</time></trkpt>
<trkpt lat="50.983374" lon="4.074365"><ele>1.39</ele><time>2025-05-26T16:56:01Z</time></trkpt>
<trkpt lat="50.98384" lon="4.073652"><ele>1.85</ele><time>2025-05-26T16:56:07Z</time></trkpt>
<trkpt lat="50.98395" lon="4.073363"><ele>1.78</ele><time>2025-05-26T16:56:13Z</time></trkpt>
<trkpt lat="50.983988" lon="4.073208"><ele>1.35</ele><time>2025-05-26T16:56:19Z</time></trkpt>
<trkpt lat="50.984088" lon="4.072063"><ele>1.57</ele><time>2025-05-26T16:56:25Z</time></trkpt>
<trkpt lat="50.984065" lon="4.071731"><ele>2.28</ele><time>2025-05-26T16:56:31Z</time></trkpt>
<trkpt lat="50.984039" lon="4.071576"><ele>2.79</ele><time>2025-05-26T16:56:37Z</time></trkpt>
<trkpt lat="50.983998" lon="4.071442"><ele>3.41</ele><time>2025-05-26T16:56:43Z</time></trkpt>
<trkpt lat="50.983868" lon="4.071184"><ele>4.66</ele><time>2025-05-26T16:56:49Z</time></trkpt>
<trkpt lat="50.983772" lon="4.071067"><ele>4.88</ele><time>2025-05-26T16:56:54Z</time></trkpt>
<trkpt lat="50.983639" lon="4.070976"><ele>5.46</ele><time>2025-05-26T16:57:00Z</time></trkpt>
<trkpt lat="50.983507" lon="4.070932"><ele>6.55</ele><time>2025-05-26T16:57:06Z</time></trkpt>
<trkpt lat="50.98228" lon="4.070924"><ele>6.02</ele><time>2025-05-26T16:57:12Z</time></trkpt>
<trkpt lat="50.981985" lon="4.070831"><ele>3.43</ele><time>2025-05-26T16:57:18Z</time></trkpt>
<trkpt lat="50.981741" lon="4.070615"><ele>2.21</ele><time>2025-05-26T16:57:24Z</time></trkpt>
<trkpt lat="50.980824" lon="4.069621"><ele>4.99</ele><time>2025-05-26T16:57:30Z</time></trkpt>
<trkpt lat="50.981474" lon="4.067087"><ele>6.66</ele><time>2025-05-26T16:57:37Z</time></trkpt>
<trkpt lat="50.981508" lon="4.066956"><ele>6.61</ele><time>2025-05-26T16:57:44Z</time></trkpt>
<trkpt lat="50.981926" lon="4.065325"><ele>5.9</ele><time>2025-05-26T16:57:51Z</time></trkpt>
<trkpt lat="50.982508" lon="4.062811"><ele>6.94</ele><time>2025-05-26T16:57:58Z</time></trkpt>
<trkpt lat="50.982721" lon="4.061814"><ele>6.74</ele><time>2025-05-26T16:58:05Z</time></trkpt>
<trkpt lat="50.983005" lon="4.060611"><ele>5.82</ele><time>2025-05-26T16:58:12Z</time></trkpt>
<trkpt lat="50.98373" lon="4.058543"><ele>5.43</ele><time>2025-05-26T16:58:19Z</time></trkpt>
<trkpt lat="50.983828" lon="4.058065"><ele>4.82</ele><time>2025-05-26T16:58:25Z</time></trkpt>
<trkpt lat="50.983865" lon="4.057743"><ele>4.78</ele><time>2025-05-26T16:58:32Z</time></trkpt>
<trkpt lat="50.983871" lon="4.056748"><ele>3.0</ele><time>2025-05-26T16:58:39Z</time></trkpt>
<trkpt lat="50.983883" lon="4.056603"><ele>3.23</ele><time>2025-05-26T16:58:46Z</time></trkpt>
<trkpt lat="50.983968" lon="4.056361"><ele>4.0</ele><time>2025-05-26T16:58:53Z</time></trkpt>
<trkpt lat="50.98412" lon="4.056076"><ele>4.13</ele><time>2025-05-26T16:59:00Z</time></trkpt>
<trkpt lat="50.984317" lon="4.055861"><ele>4.9</ele><time>2025-05-26T16:59:07Z</time></trkpt>
<trkpt lat="50.984389" lon="4.055793"><ele>5.0</ele><time>2025-05-26T16:59:14Z</time></trkpt>
<trkpt lat="50.984621" lon="4.055576"><ele>5.0</ele><time>2025-05-26T16:59:21Z</time></trkpt>
<trkpt lat="50.984955" lon="4.054966"><ele>5.96</ele><time>2025-05-26T16:59:28Z</time></trkpt>
<trkpt lat="50.985028" lon="4.054789"><ele>6.86</ele><time>2025-05-26T16:59:34Z</time></trkpt>
<trkpt lat="50.985066" lon="4.054638"><ele>7.47</ele><time>2025-05-26T16:59:41Z</time></trkpt>
<trkpt lat="50.985063" lon="4.054508"><ele>7.82</ele><time>2025-05-26T16:59:48Z</time></trkpt>
<trkpt lat="50.98495" lon="4.054217"><ele>8.64</ele><time>2025-05-26T16:59:55Z</time></trkpt>
<trkpt lat="50.984855" lon="4.053501"><ele>8.0</ele><time>2025-05-26T17:00:02Z</time></trkpt>
<trkpt lat="50.984787" lon="4.053293"><ele>8.0</ele><time>2025-05-26T17:00:09Z</time></trkpt>
<trkpt lat="50.984341" lon="4.052379"><ele>8.37</ele><time>2025-05-26T17:00:16Z</time></trkpt>
<trkpt lat="50.983986" lon="4.051733"><ele>8.0</ele><time>2025-05-26T17:00:23Z</time></trkpt>
<trkpt lat="50.983864" lon="4.051476"><ele>7.97</ele><time>2025-05-26T17:00:30Z</time></trkpt>
<trkpt lat="50.983822" lon="4.05136"><ele>8.0</ele><time>2025-05-26T17:00:37Z</time></trkpt>
<trkpt lat="50.983813" lon="4.051279"><ele>8.0</ele><time>2025-05-26T17:00:43Z</time></trkpt>
<trkpt lat="50.983838" lon="4.051034"><ele>8.28</ele><time>2025-05-26T17:00:50Z</time></trkpt>
<trkpt lat="50.983825" lon="4.051025"><ele>8.51</ele><time>2025-05-26T17:00:51Z</time></trkpt>
<trkpt lat="50.983825" lon="4.051025"><ele>8.51</ele><time>2025-05-26T17:00:51Z</time></trkpt>
<trkpt lat="50.983974" lon="4.051085"><ele>8.4</ele><time>2025-05-26T17:00:53Z</time></trkpt>
<trkpt lat="50.984187" lon="4.051076"><ele>9.12</ele><time>2025-05-26T17:00:55Z</time></trkpt>
<trkpt lat="50.984326" lon="4.050834"><ele>9.42</ele><time>2025-05-26T17:01:14Z</time></trkpt>
<trkpt lat="50.984871" lon="4.050001"><ele>9.46</ele><time>2025-05-26T17:01:32Z</time></trkpt>
<trkpt lat="50.985303" lon="4.049282"><ele>7.91</ele><time>2025-05-26T17:01:51Z</time></trkpt>
<trkpt lat="50.986267" lon="4.047584"><ele>6.0</ele><time>2025-05-26T17:02:09Z</time></trkpt>
<trkpt lat="50.986507" lon="4.047124"><ele>6.0</ele><time>2025-05-26T17:02:27Z</time></trkpt>
<trkpt lat="50.986903" lon="4.046114"><ele>5.0</ele><time>2025-05-26T17:02:46Z</time></trkpt>
<trkpt lat="50.986947" lon="4.045997"><ele>5.41</ele><time>2025-05-26T17:03:04Z</time></trkpt>
<trkpt lat="50.989708" lon="4.039096"><ele>8.9</ele><time>2025-05-26T17:03:23Z</time></trkpt>
<trkpt lat="50.989954" lon="4.039507"><ele>8.0</ele><time>2025-05-26T17:03:37Z</time></trkpt>
<trkpt lat="50.991453" lon="4.042233"><ele>12.4</ele><time>2025-05-26T17:03:51Z</time></trkpt>
<trkpt lat="50.992287" lon="4.042915"><ele>11.16</ele><time>2025-05-26T17:04:06Z</time></trkpt>
<trkpt lat="50.992382" lon="4.042962"><ele>10.24</ele><time>2025-05-26T17:04:20Z</time></trkpt>
<trkpt lat="50.992656" lon="4.042482"><ele>11.42</ele><time>2025-05-26T17:04:26Z</time></trkpt>
<trkpt lat="50.992773" lon="4.042319"><ele>11.34</ele><time>2025-05-26T17:04:32Z</time></trkpt>
<trkpt lat="50.993083" lon="4.042007"><ele>10.82</ele><time>2025-05-26T17:04:38Z</time></trkpt>
<trkpt lat="50.993288" lon="4.041721"><ele>8.65</ele><time>2025-05-26T17:04:44Z</time></trkpt>
<trkpt lat="50.993369" lon="4.041597"><ele>6.76</ele><time>2025-05-26T17:04:50Z</time></trkpt>
<trkpt lat="50.993469" lon="4.041487"><ele>4.43</ele><time>2025-05-26T17:04:56Z</time></trkpt>
<trkpt lat="50.994297" lon="4.040851"><ele>4.03</ele><time>2025-05-26T17:05:02Z</time></trkpt>
<trkpt lat="50.994537" lon="4.040539"><ele>3.63</ele><time>2025-05-26T17:05:08Z</time></trkpt>
<trkpt lat="50.996039" lon="4.039593"><ele>6.0</ele><time>2025-05-26T17:05:14Z</time></trkpt>
<trkpt lat="50.996393" lon="4.039317"><ele>4.52</ele><time>2025-05-26T17:05:20Z</time></trkpt>
<trkpt lat="50.99675" lon="4.03902"><ele>3.3</ele><time>2025-05-26T17:05:26Z</time></trkpt>
<trkpt lat="50.997795" lon="4.037984"><ele>3.55</ele><time>2025-05-26T17:05:33Z</time></trkpt>
<trkpt lat="50.997795" lon="4.037984"><ele>3.55</ele><time>2025-05-26T17:05:33Z</time></trkpt>
<trkpt lat="50.997806" lon="4.037972"><ele>3.0</ele><time>2025-05-26T17:05:33Z</time></trkpt>
<trkpt lat="50.997535" lon="4.037391"><ele>4.05</ele><time>2025-05-26T17:05:36Z</time></trkpt>
<trkpt lat="50.996829" lon="4.035662"><ele>4.36</ele><time>2025-05-26T17:05:39Z</time></trkpt>
<trkpt lat="50.996617" lon="4.035201"><ele>4.82</ele><time>2025-05-26T17:05:42Z</time></trkpt>
<trkpt lat="50.996066" lon="4.034213"><ele>4.83</ele><time>2025-05-26T17:05:46Z</time></trkpt>
<trkpt lat="50.996058" lon="4.034124"><ele>5.12</ele><time>2025-05-26T17:05:49Z</time></trkpt>
<trkpt lat="50.99618" lon="4.033814"><ele>6.7</ele><time>2025-05-26T17:05:52Z</time></trkpt>
<trkpt lat="50.99617" lon="4.033662"><ele>7.07</ele><time>2025-05-26T17:05:55Z</time></trkpt>
<trkpt lat="50.996015" lon="4.033345"><ele>6.66</ele><time>2025-05-26T17:05:59Z</time></trkpt>
<trkpt lat="50.995969" lon="4.033019"><ele>6.49</ele><time>2025-05-26T17:06:02Z</time></trkpt>
<trkpt lat="50.995872" lon="4.031345"><ele>8.86</ele><time>2025-05-26T17:06:05Z</time></trkpt>
<trkpt lat="50.995786" lon="4.031095"><ele>8.77</ele><time>2025-05-26T17:06:08Z</time></trkpt>
<trkpt lat="50.995553" lon="4.030538"><ele>7.07</ele><time>2025-05-26T17:06:12Z</time></trkpt>
<trkpt lat="50.995242" lon="4.029856"><ele>8.45</ele><time>2025-05-26T17:06:15Z</time></trkpt>
<trkpt lat="50.994708" lon="4.0286"><ele>8.0</ele><time>2025-05-26T17:06:18Z</time></trkpt>
<trkpt lat="50.994442" lon="4.028062"><ele>8.01</ele><time>2025-05-26T17:06:21Z</time></trkpt>
<trkpt lat="50.994383" lon="4.02814"><ele>8.15</ele><time>2025-05-26T17:06:22Z</time></trkpt>
<trkpt lat="50.993457" lon="4.026929"><ele>7.44</ele><time>2025-05-26T17:06:40Z</time></trkpt>
<trkpt lat="50.992738" lon="4.026057"><ele>5.0</ele><time>2025-05-26T17:06:58Z</time></trkpt>
<trkpt lat="50.99213" lon="4.025173"><ele>7.0</ele><time>2025-05-26T17:07:17Z</time></trkpt>
<trkpt lat="50.991845" lon="4.024693"><ele>5.18</ele><time>2025-05-26T17:07:35Z</time></trkpt>
<trkpt lat="50.991613" lon="4.024235"><ele>6.49</ele><time>2025-05-26T17:07:53Z</time></trkpt>
<trkpt lat="50.991345" lon="4.023561"><ele>10.31</ele><time>2025-05-26T17:08:11Z</time></trkpt>
<trkpt lat="50.9911" lon="4.023179"><ele>12.59</ele><time>2025-05-26T17:08:30Z</time></trkpt>
<trkpt lat="50.990958" lon="4.023032"><ele>13.0</ele><time>2025-05-26T17:08:48Z</time></trkpt>
<trkpt lat="50.990879" lon="4.023158"><ele>13.25</ele><time>2025-05-26T17:09:06Z</time></trkpt>
<trkpt lat="50.990766" lon="4.023217"><ele>14.06</ele><time>2025-05-26T17:09:25Z</time></trkpt>
<trkpt lat="50.989705" lon="4.021803"><ele>8.99</ele><time>2025-05-26T17:09:43Z</time></trkpt>
<trkpt lat="50.989462" lon="4.02164"><ele>7.84</ele><time>2025-05-26T17:10:01Z</time></trkpt>
<trkpt lat="50.989349" lon="4.021518"><ele>7.81</ele><time>2025-05-26T17:10:20Z</time></trkpt>
<trkpt lat="50.989155" lon="4.021143"><ele>7.16</ele><time>2025-05-26T17:10:38Z</time></trkpt>
<trkpt lat="50.989159" lon="4.02105"><ele>7.02</ele><time>2025-05-26T17:10:56Z</time></trkpt>
<trkpt lat="50.989302" lon="4.020969"><ele>6.51</ele><time>2025-05-26T17:11:00Z</time></trkpt>
<trkpt lat="50.989366" lon="4.020895"><ele>6.28</ele><time>2025-05-26T17:11:05Z</time></trkpt>
<trkpt lat="50.989558" lon="4.020585"><ele>6.0</ele><time>2025-05-26T17:11:09Z</time></trkpt>
<trkpt lat="50.989782" lon="4.020152"><ele>4.64</ele><time>2025-05-26T17:11:13Z</time></trkpt>
<trkpt lat="50.98999" lon="4.019463"><ele>4.96</ele><time>2025-05-26T17:11:18Z</time></trkpt>
<trkpt lat="50.990096" lon="4.019161"><ele>8.03</ele><time>2025-05-26T17:11:22Z</time></trkpt>
<trkpt lat="50.990244" lon="4.018883"><ele>9.14</ele><time>2025-05-26T17:11:27Z</time></trkpt>
<trkpt lat="50.990854" lon="4.017898"><ele>6.0</ele><time>2025-05-26T17:11:31Z</time></trkpt>
<trkpt lat="50.990995" lon="4.017699"><ele>6.28</ele><time>2025-05-26T17:11:35Z</time></trkpt>
<trkpt lat="50.991129" lon="4.01754"><ele>6.86</ele><time>2025-05-26T17:11:40Z</time></trkpt>
<trkpt lat="50.9914" lon="4.017273"><ele>6.96</ele><time>2025-05-26T17:11:44Z</time></trkpt>
<trkpt lat="50.992723" lon="4.016203"><ele>8.0</ele><time>2025-05-26T17:11:48Z</time></trkpt>
<trkpt lat="50.992807" lon="4.016154"><ele>8.1</ele><time>2025-05-26T17:11:53Z</time></trkpt>
<trkpt lat="50.992833" lon="4.016043"><ele>8.15</ele><time>2025-05-26T17:11:58Z</time></trkpt>
<trkpt lat="50.992894" lon="4.01596"><ele>8.19</ele><time>2025-05-26T17:12:03Z</time></trkpt>
<trkpt lat="50.993851" lon="4.015181"><ele>7.56</ele><time>2025-05-26T17:12:09Z</time></trkpt>
<trkpt lat="50.992669" lon="4.01177"><ele>9.24</ele><time>2025-05-26T17:12:51Z</time></trkpt>
<trkpt lat="50.99164" lon="4.008651"><ele>5.05</ele><time>2025-05-26T17:13:33Z</time></trkpt>
<trkpt lat="50.98933" lon="4.001799"><ele>9.59</ele><time>2025-05-26T17:14:14Z</time></trkpt>
<trkpt lat="50.99129" lon="3.998817"><ele>9.19</ele><time>2025-05-26T17:14:50Z</time></trkpt>
<trkpt lat="50.990839" lon="3.997774"><ele>8.99</ele><time>2025-05-26T17:14:59Z</time></trkpt>
<trkpt lat="50.99072" lon="3.997183"><ele>7.86</ele><time>2025-05-26T17:15:07Z</time></trkpt>
<trkpt lat="50.990043" lon="3.995558"><ele>10.0</ele><time>2025-05-26T17:15:15Z</time></trkpt>
<trkpt lat="50.990001" lon="3.995293"><ele>9.99</ele><time>2025-05-26T17:15:24Z</time></trkpt>
<trkpt lat="50.989946" lon="3.994344"><ele>10.36</ele><time>2025-05-26T17:15:32Z</time></trkpt>
<trkpt lat="50.989927" lon="3.994352"><ele>10.21</ele><time>2025-05-26T17:15:33Z</time></trkpt>
<trkpt lat="50.989927" lon="3.994352"><ele>10.21</ele><time>2025-05-26T17:15:33Z</time></trkpt>
<trkpt lat="50.989946" lon="3.994344"><ele>10.36</ele><time>2025-05-26T17:15:34Z</time></trkpt>
<trkpt lat="50.989941" lon="3.994213"><ele>10.83</ele><time>2025-05-26T17:15:35Z</time></trkpt>
<trkpt lat="50.990066" lon="3.99418"><ele>10.71</ele><time>2025-05-26T17:15:57Z</time></trkpt>
<trkpt lat="50.990548" lon="3.993886"><ele>9.06</ele><time>2025-05-26T17:16:19Z</time></trkpt>
<trkpt lat="50.991552" lon="3.992967"><ele>9.72</ele><time>2025-05-26T17:16:41Z</time></trkpt>
<trkpt lat="50.992799" lon="3.993002"><ele>7.07</ele><time>2025-05-26T17:17:03Z</time></trkpt>
<trkpt lat="50.993664" lon="3.993063"><ele>8.79</ele><time>2025-05-26T17:17:26Z</time></trkpt>
<trkpt lat="50.994405" lon="3.993185"><ele>6.82</ele><time>2025-05-26T17:17:48Z</time></trkpt>
<trkpt lat="50.995052" lon="3.993575"><ele>7.19</ele><time>2025-05-26T17:18:10Z</time></trkpt>
<trkpt lat="50.995364" lon="3.993718"><ele>8.0</ele><time>2025-05-26T17:18:32Z</time></trkpt>
<trkpt lat="50.995672" lon="3.993756"><ele>7.78</ele><time>2025-05-26T17:18:54Z</time></trkpt>
<trkpt lat="50.995719" lon="3.993779"><ele>7.64</ele><time>2025-05-26T17:19:16Z</time></trkpt>
<trkpt lat="50.995844" lon="3.993974"><ele>7.04</ele><time>2025-05-26T17:19:38Z</time></trkpt>
<trkpt lat="50.995953" lon="3.994092"><ele>7.43</ele><time>2025-05-26T17:20:00Z</time></trkpt>
<trkpt lat="50.996281" lon="3.994279"><ele>8.77</ele><time>2025-05-26T17:20:22Z</time></trkpt>
<trkpt lat="50.99662" lon="3.994369"><ele>9.0</ele><time>2025-05-26T17:20:45Z</time></trkpt>
<trkpt lat="50.99731" lon="3.994394"><ele>8.06</ele><time>2025-05-26T17:21:07Z</time></trkpt>
<trkpt lat="50.997591" lon="3.994444"><ele>8.33</ele><time>2025-05-26T17:21:29Z</time></trkpt>
<trkpt lat="50.997743" lon="3.993793"><ele>9.04</ele><time>2025-05-26T17:21:34Z</time></trkpt>
<trkpt lat="50.99777" lon="3.993575"><ele>9.03</ele><time>2025-05-26T17:21:40Z</time></trkpt>
<trkpt lat="50.997796" lon="3.992923"><ele>8.87</ele><time>2025-05-26T17:21:45Z</time></trkpt>
<trkpt lat="50.997967" lon="3.991652"><ele>7.37</ele><time>2025-05-26T17:21:50Z</time></trkpt>
<trkpt lat="50.998086" lon="3.991319"><ele>8.34</ele><time>2025-05-26T17:21:56Z</time></trkpt>
<trkpt lat="50.998149" lon="3.991351"><ele>8.43</ele><time>2025-05-26T17:22:00Z</time></trkpt>
<trkpt lat="50.998188" lon="3.99134"><ele>8.57</ele><time>2025-05-26T17:22:04Z</time></trkpt>
<trkpt lat="50.998241" lon="3.991273"><ele>8.81</ele><time>2025-05-26T17:22:08Z</time></trkpt>
<trkpt lat="50.998258" lon="3.991205"><ele>8.91</ele><time>2025-05-26T17:22:13Z</time></trkpt>
<trkpt lat="50.998728" lon="3.991292"><ele>8.42</ele><time>2025-05-26T17:22:17Z</time></trkpt>
<trkpt lat="50.999317" lon="3.991207"><ele>9.0</ele><time>2025-05-26T17:22:21Z</time></trkpt>
<trkpt lat="50.999632" lon="3.9912"><ele>9.0</ele><time>2025-05-26T17:22:25Z</time></trkpt>
<trkpt lat="51.000025" lon="3.991241"><ele>8.0</ele><time>2025-05-26T17:22:30Z</time></trkpt>
<trkpt lat="51.000464" lon="3.99135"><ele>9.34</ele><time>2025-05-26T17:22:34Z</time></trkpt>
<trkpt lat="51.001033" lon="3.991652"><ele>11.0</ele><time>2025-05-26T17:22:38Z</time></trkpt>
<trkpt lat="51.001218" lon="3.991713"><ele>10.13</ele><time>2025-05-26T17:22:42Z</time></trkpt>
<trkpt lat="51.001452" lon="3.991739"><ele>8.77</ele><time>2025-05-26T17:22:47Z</time></trkpt>
<trkpt lat="51.00183" lon="3.991627"><ele>8.08</ele><time>2025-05-26T17:22:51Z</time></trkpt>
<trkpt lat="51.001824" lon="3.991561"><ele>8.26</ele><time>2025-05-26T17:22:51Z</time></trkpt>
<trkpt lat="51.001824" lon="3.991561"><ele>8.26</ele><time>2025-05-26T17:22:51Z</time></trkpt>
<trkpt lat="51.001787" lon="3.991134"><ele>8.43</ele><time>2025-05-26T17:22:54Z</time></trkpt>
<trkpt lat="51.001748" lon="3.990916"><ele>9.0</ele><time>2025-05-26T17:22:56Z</time></trkpt>
<trkpt lat="51.001736" lon="3.990667"><ele>9.25</ele><time>2025-05-26T17:22:59Z</time></trkpt>
<trkpt lat="51.001709" lon="3.990944"><ele>8.75</ele><time>2025-05-26T17:23:08Z</time></trkpt>
<trkpt lat="51.001711" lon="3.991133"><ele>8.16</ele><time>2025-05-26T17:23:18Z</time></trkpt>
<trkpt lat="51.001817" lon="3.992491"><ele>9.52</ele><time>2025-05-26T17:23:27Z</time></trkpt>
<trkpt lat="51.001875" lon="3.992812"><ele>11.5</ele><time>2025-05-26T17:23:37Z</time></trkpt>
<trkpt lat="51.002068" lon="3.995224"><ele>8.0</ele><time>2025-05-26T17:23:46Z</time></trkpt>
<trkpt lat="51.002153" lon="3.997039"><ele>8.09</ele><time>2025-05-26T17:23:55Z</time></trkpt>
<trkpt lat="51.002218" lon="3.998591"><ele>7.01</ele><time>2025-05-26T17:24:05Z</time></trkpt>
<trkpt lat="51.002376" lon="4.002763"><ele>9.03</ele><time>2025-05-26T17:24:14Z</time></trkpt>
<trkpt lat="51.00241" lon="4.00372"><ele>8.0</ele><time>2025-05-26T17:24:24Z</time></trkpt>
<trkpt lat="51.002474" lon="4.00437"><ele>8.0</ele><time>2025-05-26T17:24:33Z</time></trkpt>
<trkpt lat="51.002839" lon="4.006957"><ele>7.95</ele><time>2025-05-26T17:24:43Z</time></trkpt>
<trkpt lat="51.003311" lon="4.009317"><ele>7.5</ele><time>2025-05-26T17:24:52Z</time></trkpt>
<trkpt lat="51.003734" lon="4.011271"><ele>9.0</ele><time>2025-05-26T17:25:02Z</time></trkpt>
<trkpt lat="51.003968" lon="4.012263"><ele>8.71</ele><time>2025-05-26T17:25:11Z</time></trkpt>
<trkpt lat="51.00423" lon="4.013005"><ele>8.19</ele><time>2025-05-26T17:25:20Z</time></trkpt>
<trkpt lat="51.004497" lon="4.012729"><ele>7.82</ele><time>2025-05-26T17:25:25Z</time></trkpt>
<trkpt lat="51.00472" lon="4.012534"><ele>7.12</ele><time>2025-05-26T17:25:30Z</time></trkpt>
<trkpt lat="51.004987" lon="4.012346"><ele>6.24</ele><time>2025-05-26T17:25:35Z</time></trkpt>
<trkpt lat="51.006014" lon="4.011801"><ele>3.09</ele><time>2025-05-26T17:25:40Z</time></trkpt>
<trkpt lat="51.006045" lon="4.011785"><ele>3.0</ele><time>2025-05-26T17:25:45Z</time></trkpt>
<trkpt lat="51.006263" lon="4.011621"><ele>3.46</ele><time>2025-05-26T17:25:50Z</time></trkpt>
<trkpt lat="51.006459" lon="4.011399"><ele>3.79</ele><time>2025-05-26T17:25:55Z</time></trkpt>
<trkpt lat="51.007646" lon="4.009702"><ele>2.96</ele><time>2025-05-26T17:26:00Z</time></trkpt>
<trkpt lat="51.007849" lon="4.009489"><ele>2.12</ele><time>2025-05-26T17:26:05Z</time></trkpt>
<trkpt lat="51.008261" lon="4.009209"><ele>1.88</ele><time>2025-05-26T17:26:10Z</time></trkpt>
<trkpt lat="51.008299" lon="4.009366"><ele>1.37</ele><time>2025-05-26T17:26:26Z</time></trkpt>
<trkpt lat="51.008624" lon="4.010402"><ele>2.49</ele><time>2025-05-26T17:26:45Z</time></trkpt>
<trkpt lat="51.008729" lon="4.010795"><ele>3.42</ele><time>2025-05-26T17:27:03Z</time></trkpt>
<trkpt lat="51.00877" lon="4.011062"><ele>4.04</ele><time>2025-05-26T17:27:22Z</time></trkpt>
<trkpt lat="51.008875" lon="4.011404"><ele>4.9</ele><time>2025-05-26T17:27:41Z</time></trkpt>
<trkpt lat="51.010233" lon="4.015235"><ele>0.0</ele><time>2025-05-26T17:27:59Z</time></trkpt>
<trkpt lat="51.010914" lon="4.016986"><ele>3.44</ele><time>2025-05-26T17:28:18Z</time></trkpt>
<trkpt lat="51.011111" lon="4.017448"><ele>5.0</ele><time>2025-05-26T17:28:37Z</time></trkpt>
<trkpt lat="51.011538" lon="4.017992"><ele>3.69</ele><time>2025-05-26T17:28:55Z</time></trkpt>
<trkpt lat="51.011992" lon="4.01752"><ele>1.89</ele><time>2025-05-26T17:29:14Z</time></trkpt>
<trkpt lat="51.012122" lon="4.017424"><ele>1.36</ele><time>2025-05-26T17:29:33Z</time></trkpt>
<trkpt lat="51.012201" lon="4.017453"><ele>1.08</ele><time>2025-05-26T17:29:51Z</time></trkpt>
<trkpt lat="51.01225" lon="4.017559"><ele>0.8</ele><time>2025-05-26T17:30:10Z</time></trkpt>
<trkpt lat="51.012353" lon="4.017881"><ele>0.24</ele><time>2025-05-26T17:30:29Z</time></trkpt>
<trkpt lat="51.01245" lon="4.018108"><ele>0.33</ele><time>2025-05-26T17:30:47Z</time></trkpt>
<trkpt lat="51.013179" lon="4.019431"><ele>-0.4</ele><time>2025-05-26T17:31:06Z</time></trkpt>
<trkpt lat="51.013808" lon="4.020647"><ele>2.0</ele><time>2025-05-26T17:31:24Z</time></trkpt>
<trkpt lat="51.014005" lon="4.020426"><ele>2.74</ele><time>2025-05-26T17:31:36Z</time></trkpt>
<trkpt lat="51.015198" lon="4.019271"><ele>2.55</ele><time>2025-05-26T17:31:47Z</time></trkpt>
<trkpt lat="51.015543" lon="4.019907"><ele>2.66</ele><time>2025-05-26T17:31:54Z</time></trkpt>
<trkpt lat="51.015653" lon="4.020148"><ele>3.35</ele><time>2025-05-26T17:32:01Z</time></trkpt>
<trkpt lat="51.015837" lon="4.020606"><ele>4.0</ele><time>2025-05-26T17:32:08Z</time></trkpt>
<trkpt lat="51.016864" lon="4.022048"><ele>2.29</ele><time>2025-05-26T17:32:14Z</time></trkpt>
<trkpt lat="51.017668" lon="4.023234"><ele>0.61</ele><time>2025-05-26T17:32:21Z</time></trkpt>
<trkpt lat="51.01821" lon="4.023985"><ele>0.71</ele><time>2025-05-26T17:32:28Z</time></trkpt>
<trkpt lat="51.019565" lon="4.025607"><ele>0.1</ele><time>2025-05-26T17:32:35Z</time></trkpt>
<trkpt lat="51.020484" lon="4.02661"><ele>2.69</ele><time>2025-05-26T17:32:42Z</time></trkpt>
<trkpt lat="51.020405" lon="4.02691"><ele>2.06</ele><time>2025-05-26T17:32:48Z</time></trkpt>
<trkpt lat="51.020378" lon="4.027287"><ele>0.92</ele><time>2025-05-26T17:32:54Z</time></trkpt>
<trkpt lat="51.020346" lon="4.027442"><ele>0.81</ele><time>2025-05-26T17:33:01Z</time></trkpt>
<trkpt lat="51.019863" lon="4.029145"><ele>1.91</ele><time>2025-05-26T17:33:07Z</time></trkpt>
<trkpt lat="51.019808" lon="4.029286"><ele>2.81</ele><time>2025-05-26T17:33:13Z</time></trkpt>
<trkpt lat="51.01966" lon="4.029562"><ele>4.0</ele><time>2025-05-26T17:33:20Z</time></trkpt>
<trkpt lat="51.019427" lon="4.030244"><ele>3.05</ele><time>2025-05-26T17:33:26Z</time></trkpt>
<trkpt lat="51.019376" lon="4.030535"><ele>1.13</ele><time>2025-05-26T17:33:32Z</time></trkpt>
<trkpt lat="51.019284" lon="4.030874"><ele>0.94</ele><time>2025-05-26T17:33:39Z</time></trkpt>
<trkpt lat="51.018514" lon="4.033384"><ele>0.76</ele><time>2025-05-26T17:33:45Z</time></trkpt>
<trkpt lat="51.018422" lon="4.033636"><ele>2.14</ele><time>2025-05-26T17:33:52Z</time></trkpt>
<trkpt lat="51.017365" lon="4.0358"><ele>3.0</ele><time>2025-05-26T17:33:58Z</time></trkpt>
<trkpt lat="51.017779" lon="4.036962"><ele>7.93</ele><time>2025-05-26T17:34:08Z</time></trkpt>
<trkpt lat="51.01784" lon="4.037032"><ele>7.31</ele><time>2025-05-26T17:34:18Z</time></trkpt>
<trkpt lat="51.019047" lon="4.037453"><ele>5.43</ele><time>2025-05-26T17:34:27Z</time></trkpt>
<trkpt lat="51.019493" lon="4.037696"><ele>5.88</ele><time>2025-05-26T17:34:37Z</time></trkpt>
<trkpt lat="51.019721" lon="4.037902"><ele>7.0</ele><time>2025-05-26T17:34:47Z</time></trkpt>
<trkpt lat="51.020004" lon="4.038214"><ele>8.45</ele><time>2025-05-26T17:34:57Z</time></trkpt>
<trkpt lat="51.02049" lon="4.038899"><ele>7.5</ele><time>2025-05-26T17:35:07Z</time></trkpt>
<trkpt lat="51.021053" lon="4.039617"><ele>3.29</ele><time>2025-05-26T17:35:16Z</time></trkpt>
<trkpt lat="51.021704" lon="4.040598"><ele>1.11</ele><time>2025-05-26T17:35:26Z</time></trkpt>
<trkpt lat="51.021833" lon="4.040748"><ele>1.51</ele><time>2025-05-26T17:35:36Z</time></trkpt>
<trkpt lat="51.022036" lon="4.040768"><ele>1.81</ele><time>2025-05-26T17:35:46Z</time></trkpt>
<trkpt lat="51.022036" lon="4.040768"><ele>1.81</ele><time>2025-05-26T17:35:46Z</time></trkpt>
<trkpt lat="51.021833" lon="4.040748"><ele>1.51</ele><time>2025-05-26T17:35:56Z</time></trkpt>
<trkpt lat="51.021704" lon="4.040598"><ele>1.11</ele><time>2025-05-26T17:36:06Z</time></trkpt>
<trkpt lat="51.021053" lon="4.039617"><ele>3.29</ele><time>2025-05-26T17:36:15Z</time></trkpt>
<trkpt lat="51.02049" lon="4.038899"><ele>7.5</ele><time>2025-05-26T17:36:25Z</time></trkpt>
<trkpt lat="51.020004" lon="4.038214"><ele>8.45</ele><time>2025-05-26T17:36:35Z</time></trkpt>
<trkpt lat="51.019721" lon="4.037902"><ele>7.0</ele><time>2025-05-26T17:36:45Z</time></trkpt>
<trkpt lat="51.019493" lon="4.037696"><ele>5.88</ele><time>2025-05-26T17:36:55Z</time></trkpt>
<trkpt lat="51.019047" lon="4.037453"><ele>5.43</ele><time>2025-05-26T17:37:04Z</time></trkpt>
<trkpt lat="51.01784" lon="4.037032"><ele>7.31</ele><time>2025-05-26T17:37:14Z</time></trkpt>
<trkpt lat="51.017779" lon="4.036962"><ele>7.93</ele><time>2025-05-26T17:37:24Z</time></trkpt>
<trkpt lat="51.017365" lon="4.0358"><ele>3.0</ele><time>2025-05-26T17:37:34Z</time></trkpt>
<trkpt lat="51.018422" lon="4.033636"><ele>2.14</ele><time>2025-05-26T17:37:40Z</time></trkpt>
<trkpt lat="51.018514" lon="4.033384"><ele>0.76</ele><time>2025-05-26T17:37:47Z</time></trkpt>
<trkpt lat="51.019284" lon="4.030874"><ele>0.94</ele><time>2025-05-26T17:37:53Z</time></trkpt>
<trkpt lat="51.019376" lon="4.030535"><ele>1.13</ele><time>2025-05-26T17:37:59Z</time></trkpt>
<trkpt lat="51.019427" lon="4.030244"><ele>3.05</ele><time>2025-05-26T17:38:06Z</time></trkpt>
<trkpt lat="51.01966" lon="4.029562"><ele>4.0</ele><time>2025-05-26T17:38:12Z</time></trkpt>
<trkpt lat="51.019808" lon="4.029286"><ele>2.81</ele><time>2025-05-26T17:38:18Z</time></trkpt>
<trkpt lat="51.019863" lon="4.029145"><ele>1.91</ele><time>2025-05-26T17:38:25Z</time></trkpt>
<trkpt lat="51.020346" lon="4.027442"><ele>0.81</ele><time>2025-05-26T17:38:31Z</time></trkpt>
<trkpt lat="51.020378" lon="4.027287"><ele>0.92</ele><time>2025-05-26T17:38:37Z</time></trkpt>
<trkpt lat="51.020405" lon="4.02691"><ele>2.06</ele><time>2025-05-26T17:38:44Z</time></trkpt>
<trkpt lat="51.020484" lon="4.02661"><ele>2.69</ele><time>2025-05-26T17:38:50Z</time></trkpt>
<trkpt lat="51.021711" lon="4.027812"><ele>2.68</ele><time>2025-05-26T17:38:56Z</time></trkpt>
<trkpt lat="51.022347" lon="4.028232"><ele>-0.2</ele><time>2025-05-26T17:39:01Z</time></trkpt>
<trkpt lat="51.022789" lon="4.028567"><ele>0.92</ele><time>2025-05-26T17:39:06Z</time></trkpt>
<trkpt lat="51.023385" lon="4.028982"><ele>-0.85</ele><time>2025-05-26T17:39:12Z</time></trkpt>
<trkpt lat="51.02366" lon="4.029073"><ele>-1.34</ele><time>2025-05-26T17:39:17Z</time></trkpt>
<trkpt lat="51.023742" lon="4.029054"><ele>-1.4</ele><time>2025-05-26T17:39:22Z</time></trkpt>
<trkpt lat="51.024385" lon="4.025928"><ele>1.0</ele><time>2025-05-26T17:39:28Z</time></trkpt>
<trkpt lat="51.024487" lon="4.02559"><ele>1.0</ele><time>2025-05-26T17:39:33Z</time></trkpt>
<trkpt lat="51.024938" lon="4.02435"><ele>3.85</ele><time>2025-05-26T17:39:39Z</time></trkpt>
<trkpt lat="51.025729" lon="4.02528"><ele>0.26</ele><time>2025-05-26T17:39:44Z</time></trkpt>
<trkpt lat="51.026116" lon="4.025668"><ele>1.96</ele><time>2025-05-26T17:39:50Z</time></trkpt>
<trkpt lat="51.026475" lon="4.024611"><ele>0.69</ele><time>2025-05-26T17:39:56Z</time></trkpt>
<trkpt lat="51.026633" lon="4.024091"><ele>0.12</ele><time>2025-05-26T17:40:02Z</time></trkpt>
<trkpt lat="51.026745" lon="4.023635"><ele>0.63</ele><time>2025-05-26T17:40:08Z</time></trkpt>
<trkpt lat="51.026874" lon="4.023207"><ele>0.59</ele><time>2025-05-26T17:40:14Z</time></trkpt>
<trkpt lat="51.027021" lon="4.022787"><ele>2.24</ele><time>2025-05-26T17:40:20Z</time></trkpt>
<trkpt lat="51.027185" lon="4.022395"><ele>1.87</ele><time>2025-05-26T17:40:25Z</time></trkpt>
<trkpt lat="51.027267" lon="4.02222"><ele>1.83</ele><time>2025-05-26T17:40:31Z</time></trkpt>
<trkpt lat="51.027435" lon="4.021993"><ele>1.04</ele><time>2025-05-26T17:40:37Z</time></trkpt>
<trkpt lat="51.02788" lon="4.021476"><ele>1.32</ele><time>2025-05-26T17:40:43Z</time></trkpt>
<trkpt lat="51.027585" lon="4.020885"><ele>2.81</ele><time>2025-05-26T17:40:48Z</time></trkpt>
<trkpt lat="51.027376" lon="4.02042"><ele>1.84</ele><time>2025-05-26T17:40:53Z</time></trkpt>
<trkpt lat="51.027169" lon="4.019867"><ele>1.48</ele><time>2025-05-26T17:40:57Z</time></trkpt>
<trkpt lat="51.027161" lon="4.019838"><ele>2.08</ele><time>2025-05-26T17:41:02Z</time></trkpt>
<trkpt lat="51.027161" lon="4.019838"><ele>2.08</ele><time>2025-05-26T17:41:02Z</time></trkpt>
<trkpt lat="51.027169" lon="4.019867"><ele>1.48</ele><time>2025-05-26T17:41:10Z</time></trkpt>
<trkpt lat="51.027376" lon="4.02042"><ele>1.84</ele><time>2025-05-26T17:41:18Z</time></trkpt>
<trkpt lat="51.027585" lon="4.020885"><ele>2.81</ele><time>2025-05-26T17:41:26Z</time></trkpt>
<trkpt lat="51.02788" lon="4.021476"><ele>1.32</ele><time>2025-05-26T17:41:34Z</time></trkpt>
<trkpt lat="51.029204" lon="4.02412"><ele>2.0</ele><time>2025-05-26T17:41:42Z</time></trkpt>
<trkpt lat="51.029653" lon="4.024884"><ele>2.14</ele><time>2025-05-26T17:41:50Z</time></trkpt>
<trkpt lat="51.0303" lon="4.02397"><ele>2.0</ele><time>2025-05-26T17:42:30Z</time></trkpt>
<trkpt lat="51.030553" lon="4.024157"><ele>2.0</ele><time>2025-05-26T17:42:46Z</time></trkpt>
<trkpt lat="51.030936" lon="4.024342"><ele>2.23</ele><time>2025-05-26T17:43:01Z</time></trkpt>
<trkpt lat="51.031737" lon="4.025603"><ele>0.25</ele><time>2025-05-26T17:43:17Z</time></trkpt>
<trkpt lat="51.032" lon="4.025967"><ele>1.48</ele><time>2025-05-26T17:43:33Z</time></trkpt>
<trkpt lat="51.032131" lon="4.026192"><ele>1.9</ele><time>2025-05-26T17:43:49Z</time></trkpt>
<trkpt lat="51.032261" lon="4.026646"><ele>1.06</ele><time>2025-05-26T17:44:05Z</time></trkpt>
<trkpt lat="51.032335" lon="4.027083"><ele>-0.09</ele><time>2025-05-26T17:44:21Z</time></trkpt>
<trkpt lat="51.032419" lon="4.027752"><ele>0.62</ele><time>2025-05-26T17:44:36Z</time></trkpt>
<trkpt lat="51.032501" lon="4.027865"><ele>1.0</ele><time>2025-05-26T17:44:52Z</time></trkpt>
<trkpt lat="51.032602" lon="4.027941"><ele>1.21</ele><time>2025-05-26T17:45:08Z</time></trkpt>
<trkpt lat="51.032783" lon="4.027961"><ele>1.57</ele><time>2025-05-26T17:45:24Z</time></trkpt>
<trkpt lat="51.032783" lon="4.027961"><ele>1.57</ele><time>2025-05-26T17:45:24Z</time></trkpt>
<trkpt lat="51.032858" lon="4.027907"><ele>1.47</ele><time>2025-05-26T17:45:48Z</time></trkpt>
<trkpt lat="51.033998" lon="4.026595"><ele>0.14</ele><time>2025-05-26T17:46:13Z</time></trkpt>
<trkpt lat="51.034097" lon="4.026567"><ele>0.39</ele><time>2025-05-26T17:46:37Z</time></trkpt>
<trkpt lat="51.034118" lon="4.026462"><ele>0.09</ele><time>2025-05-26T17:46:43Z</time></trkpt>
<trkpt lat="51.034823" lon="4.02533"><ele>2.07</ele><time>2025-05-26T17:46:49Z</time></trkpt>
<trkpt lat="51.03507" lon="4.024431"><ele>0.7</ele><time>2025-05-26T17:46:54Z</time></trkpt>
<trkpt lat="51.035256" lon="4.023963"><ele>1.76</ele><time>2025-05-26T17:47:00Z</time></trkpt>
<trkpt lat="51.035626" lon="4.023165"><ele>1.45</ele><time>2025-05-26T17:47:06Z</time></trkpt>
<trkpt lat="51.036417" lon="4.022156"><ele>0.9</ele><time>2025-05-26T17:47:12Z</time></trkpt>
<trkpt lat="51.036535" lon="4.021867"><ele>0.47</ele><time>2025-05-26T17:47:18Z</time></trkpt>
<trkpt lat="51.03704" lon="4.020274"><ele>0.69</ele><time>2025-05-26T17:47:23Z</time></trkpt>
<trkpt lat="51.037092" lon="4.020177"><ele>0.87</ele><time>2025-05-26T17:47:29Z</time></trkpt>
<trkpt lat="51.03826" lon="4.018873"><ele>0.25</ele><time>2025-05-26T17:47:35Z</time></trkpt>
<trkpt lat="51.038907" lon="4.018273"><ele>-1.52</ele><time>2025-05-26T17:47:41Z</time></trkpt>
<trkpt lat="51.038975" lon="4.018172"><ele>-0.71</ele><time>2025-05-26T17:47:47Z</time></trkpt>
<trkpt lat="51.039431" lon="4.016879"><ele>2.0</ele><time>2025-05-26T17:47:52Z</time></trkpt>
<trkpt lat="51.040152" lon="4.014995"><ele>1.85</ele><time>2025-05-26T17:47:58Z</time></trkpt>
<trkpt lat="51.040224" lon="4.014831"><ele>1.99</ele><time>2025-05-26T17:48:04Z</time></trkpt>
<trkpt lat="51.04044" lon="4.014338"><ele>2.26</ele><time>2025-05-26T17:48:10Z</time></trkpt>
<trkpt lat="51.040549" lon="4.01414"><ele>2.16</ele><time>2025-05-26T17:48:16Z</time></trkpt>
<trkpt lat="51.0407" lon="4.013933"><ele>2.32</ele><time>2025-05-26T17:48:21Z</time></trkpt>
<trkpt lat="51.040875" lon="4.013817"><ele>1.85</ele><time>2025-05-26T17:48:27Z</time></trkpt>
<trkpt lat="51.0413" lon="4.013689"><ele>0.81</ele><time>2025-05-26T17:48:33Z</time></trkpt>
<trkpt lat="51.041532" lon="4.013523"><ele>1.83</ele><time>2025-05-26T17:48:39Z</time></trkpt>
<trkpt lat="51.04166" lon="4.01333"><ele>2.99</ele><time>2025-05-26T17:48:44Z</time></trkpt>
<trkpt lat="51.042562" lon="4.011773"><ele>2.78</ele><time>2025-05-26T17:48:50Z</time></trkpt>
<trkpt lat="51.043162" lon="4.010644"><ele>2.0</ele><time>2025-05-26T17:48:56Z</time></trkpt>
<trkpt lat="51.04343" lon="4.010267"><ele>2.66</ele><time>2025-05-26T17:49:02Z</time></trkpt>
<trkpt lat="51.043794" lon="4.009992"><ele>3.02</ele><time>2025-05-26T17:49:08Z</time></trkpt>
<trkpt lat="51.043853" lon="4.010277"><ele>2.87</ele><time>2025-05-26T17:49:16Z</time></trkpt>
<trkpt lat="51.043893" lon="4.010373"><ele>2.64</ele><time>2025-05-26T17:49:25Z</time></trkpt>
<trkpt lat="51.043963" lon="4.010457"><ele>2.26</ele><time>2025-05-26T17:49:34Z</time></trkpt>
<trkpt lat="51.044108" lon="4.010571"><ele>2.0</ele><time>2025-05-26T17:49:43Z</time></trkpt>
<trkpt lat="51.044374" lon="4.010722"><ele>2.45</ele><time>2025-05-26T17:49:52Z</time></trkpt>
<trkpt lat="51.045575" lon="4.011148"><ele>4.99</ele><time>2025-05-26T17:50:00Z</time></trkpt>
<trkpt lat="51.046734" lon="4.011658"><ele>2.79</ele><time>2025-05-26T17:50:09Z</time></trkpt>
<trkpt lat="51.047617" lon="4.012107"><ele>4.17</ele><time>2025-05-26T17:50:18Z</time></trkpt>
<trkpt lat="51.048532" lon="4.012526"><ele>1.35</ele><time>2025-05-26T17:50:27Z</time></trkpt>
<trkpt lat="51.04995" lon="4.013116"><ele>4.6</ele><time>2025-05-26T17:50:35Z</time></trkpt>
<trkpt lat="51.050179" lon="4.013201"><ele>4.48</ele><time>2025-05-26T17:50:44Z</time></trkpt>
<trkpt lat="51.050384" lon="4.013219"><ele>4.25</ele><time>2025-05-26T17:50:53Z</time></trkpt>
<trkpt lat="51.050672" lon="4.013136"><ele>4.0</ele><time>2025-05-26T17:51:02Z</time></trkpt>
<trkpt lat="51.052068" lon="4.012355"><ele>4.0</ele><time>2025-05-26T17:51:10Z</time></trkpt>
<trkpt lat="51.053939" lon="4.01146"><ele>2.26</ele><time>2025-05-26T17:51:19Z</time></trkpt>
<trkpt lat="51.054798" lon="4.011001"><ele>3.54</ele><time>2025-05-26T17:51:28Z</time></trkpt>
<trkpt lat="51.055387" lon="4.010605"><ele>5.0</ele><time>2025-05-26T17:51:37Z</time></trkpt>
<trkpt lat="51.055473" lon="4.010515"><ele>5.06</ele><time>2025-05-26T17:51:45Z</time></trkpt>
<trkpt lat="51.05597" lon="4.009777"><ele>7.0</ele><time>2025-05-26T17:51:54Z</time></trkpt>
<trkpt lat="51.056196" lon="4.009554"><ele>6.69</ele><time>2025-05-26T17:52:03Z</time></trkpt>
<trkpt lat="51.056" lon="4.008262"><ele>4.86</ele><time>2025-05-26T17:52:12Z</time></trkpt>
<trkpt lat="51.055803" lon="4.007238"><ele>5.0</ele><time>2025-05-26T17:52:21Z</time></trkpt>
<trkpt lat="51.055236" lon="4.004685"><ele>4.32</ele><time>2025-05-26T17:52:30Z</time></trkpt>
<trkpt lat="51.055134" lon="4.003976"><ele>4.55</ele><time>2025-05-26T17:52:39Z</time></trkpt>
<trkpt lat="51.055101" lon="4.003265"><ele>2.12</ele><time>2025-05-26T17:52:48Z</time></trkpt>
<trkpt lat="51.055102" lon="4.002903"><ele>1.37</ele><time>2025-05-26T17:52:57Z</time></trkpt>
<trkpt lat="51.055214" lon="3.995889"><ele>3.72</ele><time>2025-05-26T17:53:05Z</time></trkpt>
<trkpt lat="51.055198" lon="3.995892"><ele>3.65</ele><time>2025-05-26T17:53:21Z</time></trkpt>
<trkpt lat="51.055198" lon="3.995892"><ele>3.65</ele><time>2025-05-26T17:53:21Z</time></trkpt>
<trkpt lat="51.055214" lon="3.995889"><ele>3.72</ele><time>2025-05-26T17:53:21Z</time></trkpt>
<trkpt lat="51.055257" lon="3.993259"><ele>2.95</ele><time>2025-05-26T17:53:29Z</time></trkpt>
<trkpt lat="51.055255" lon="3.991814"><ele>4.88</ele><time>2025-05-26T17:53:38Z</time></trkpt>
<trkpt lat="51.055214" lon="3.988825"><ele>5.22</ele><time>2025-05-26T17:53:46Z</time></trkpt>
<trkpt lat="51.055002" lon="3.985857"><ele>3.93</ele><time>2025-05-26T17:53:55Z</time></trkpt>
<trkpt lat="51.0548" lon="3.984559"><ele>4.56</ele><time>2025-05-26T17:54:04Z</time></trkpt>
<trkpt lat="51.054038" lon="3.98124"><ele>4.0</ele><time>2025-05-26T17:54:12Z</time></trkpt>
<trkpt lat="51.053796" lon="3.980407"><ele>4.31</ele><time>2025-05-26T17:54:21Z</time></trkpt>
<trkpt lat="51.053511" lon="3.97962"><ele>4.0</ele><time>2025-05-26T17:54:29Z</time></trkpt>
<trkpt lat="51.053317" lon="3.97917"><ele>3.01</ele><time>2025-05-26T17:54:38Z</time></trkpt>
<trkpt lat="51.05217" lon="3.97689"><ele>2.19</ele><time>2025-05-26T17:54:46Z</time></trkpt>
<trkpt lat="51.051891" lon="3.976464"><ele>3.92</ele><time>2025-05-26T17:54:55Z</time></trkpt>
<trkpt lat="51.051603" lon="3.976066"><ele>4.77</ele><time>2025-05-26T17:55:04Z</time></trkpt>
<trkpt lat="51.05082" lon="3.974868"><ele>3.05</ele><time>2025-05-26T17:55:12Z</time></trkpt>
<trkpt lat="51.050775" lon="3.974745"><ele>3.21</ele><time>2025-05-26T17:55:21Z</time></trkpt>
<trkpt lat="51.050757" lon="3.974643"><ele>3.27</ele><time>2025-05-26T17:55:29Z</time></trkpt>
<trkpt lat="51.050779" lon="3.974498"><ele>3.2</ele><time>2025-05-26T17:55:35Z</time></trkpt>
<trkpt lat="51.050759" lon="3.974431"><ele>3.22</ele><time>2025-05-26T17:55:40Z</time></trkpt>
<trkpt lat="51.050718" lon="3.974361"><ele>3.12</ele><time>2025-05-26T17:55:45Z</time></trkpt>
<trkpt lat="51.050672" lon="3.974329"><ele>3.16</ele><time>2025-05-26T17:55:51Z</time></trkpt>
<trkpt lat="51.050604" lon="3.974356"><ele>3.51</ele><time>2025-05-26T17:55:56Z</time></trkpt>
<trkpt lat="51.050523" lon="3.974327"><ele>3.58</ele><time>2025-05-26T17:56:02Z</time></trkpt>
<trkpt lat="51.050494" lon="3.974291"><ele>3.45</ele><time>2025-05-26T17:56:07Z</time></trkpt>
<trkpt lat="51.050337" lon="3.973997"><ele>3.0</ele><time>2025-05-26T17:56:13Z</time></trkpt>
<trkpt lat="51.049862" lon="3.972961"><ele>2.5</ele><time>2025-05-26T17:56:18Z</time></trkpt>
<trkpt lat="51.047598" lon="3.96662"><ele>4.17</ele><time>2025-05-26T17:56:23Z</time></trkpt>
<trkpt lat="51.047074" lon="3.965112"><ele>4.0</ele><time>2025-05-26T17:56:29Z</time></trkpt>
<trkpt lat="51.047004" lon="3.964862"><ele>4.49</ele><time>2025-05-26T17:56:34Z</time></trkpt>
<trkpt lat="51.04683" lon="3.964073"><ele>4.18</ele><time>2025-05-26T17:56:40Z</time></trkpt>
<trkpt lat="51.046742" lon="3.96324"><ele>4.0</ele><time>2025-05-26T17:56:45Z</time></trkpt>
<trkpt lat="51.046722" lon="3.962743"><ele>4.1</ele><time>2025-05-26T17:56:51Z</time></trkpt>
<trkpt lat="51.046744" lon="3.961934"><ele>5.73</ele><time>2025-05-26T17:56:56Z</time></trkpt>
<trkpt lat="51.046802" lon="3.961444"><ele>5.59</ele><time>2025-05-26T17:57:01Z</time></trkpt>
<trkpt lat="51.046903" lon="3.960867"><ele>4.97</ele><time>2025-05-26T17:57:07Z</time></trkpt>
<trkpt lat="51.047083" lon="3.960008"><ele>5.0</ele><time>2025-05-26T17:57:12Z</time></trkpt>
<trkpt lat="51.047281" lon="3.958977"><ele>5.0</ele><time>2025-05-26T17:57:18Z</time></trkpt>
<trkpt lat="51.04731" lon="3.958703"><ele>5.46</ele><time>2025-05-26T17:57:23Z</time></trkpt>
<trkpt lat="51.047312" lon="3.958217"><ele>6.09</ele><time>2025-05-26T17:57:29Z</time></trkpt>
<trkpt lat="51.04727" lon="3.957482"><ele>6.83</ele><time>2025-05-26T17:57:34Z</time></trkpt>
<trkpt lat="51.047184" lon="3.956872"><ele>7.0</ele><time>2025-05-26T17:57:39Z</time></trkpt>
<trkpt lat="51.047126" lon="3.95684"><ele>7.0</ele><time>2025-05-26T17:58:10Z</time></trkpt>
<trkpt lat="51.044686" lon="3.957461"><ele>3.13</ele><time>2025-05-26T17:58:41Z</time></trkpt>
<trkpt lat="51.043387" lon="3.957864"><ele>5.0</ele><time>2025-05-26T17:59:12Z</time></trkpt>
<trkpt lat="51.04219" lon="3.958161"><ele>3.94</ele><time>2025-05-26T17:59:43Z</time></trkpt>
<trkpt lat="51.04219" lon="3.958161"><ele>3.94</ele><time>2025-05-26T17:59:43Z</time></trkpt>
<trkpt lat="51.041828" lon="3.95826"><ele>3.89</ele><time>2025-05-26T17:59:49Z</time></trkpt>
<trkpt lat="51.041266" lon="3.95847"><ele>3.44</ele><time>2025-05-26T17:59:55Z</time></trkpt>
<trkpt lat="51.040429" lon="3.958906"><ele>3.0</ele><time>2025-05-26T18:00:02Z</time></trkpt>
<trkpt lat="51.039841" lon="3.95926"><ele>3.86</ele><time>2025-05-26T18:00:08Z</time></trkpt>
<trkpt lat="51.039502" lon="3.959556"><ele>4.47</ele><time>2025-05-26T18:00:14Z</time></trkpt>
<trkpt lat="51.039293" lon="3.959836"><ele>3.81</ele><time>2025-05-26T18:00:21Z</time></trkpt>
<trkpt lat="51.039007" lon="3.960293"><ele>3.43</ele><time>2025-05-26T18:00:27Z</time></trkpt>
<trkpt lat="51.038922" lon="3.960521"><ele>3.79</ele><time>2025-05-26T18:00:33Z</time></trkpt>
<trkpt lat="51.03891" lon="3.960641"><ele>3.92</ele><time>2025-05-26T18:00:40Z</time></trkpt>
<trkpt lat="51.038916" lon="3.960764"><ele>3.9</ele><time>2025-05-26T18:00:46Z</time></trkpt>
<trkpt lat="51.038987" lon="3.961084"><ele>3.64</ele><time>2025-05-26T18:00:52Z</time></trkpt>
<trkpt lat="51.039118" lon="3.96141"><ele>2.99</ele><time>2025-05-26T18:00:58Z</time></trkpt>
<trkpt lat="51.039403" lon="3.961983"><ele>2.71</ele><time>2025-05-26T18:01:05Z</time></trkpt>
<trkpt lat="51.039511" lon="3.962237"><ele>1.76</ele><time>2025-05-26T18:01:11Z</time></trkpt>
<trkpt lat="51.03963" lon="3.962601"><ele>1.21</ele><time>2025-05-26T18:01:17Z</time></trkpt>
<trkpt lat="51.039653" lon="3.962709"><ele>1.06</ele><time>2025-05-26T18:01:24Z</time></trkpt>
<trkpt lat="51.039658" lon="3.962893"><ele>1.0</ele><time>2025-05-26T18:01:30Z</time></trkpt>
<trkpt lat="51.039644" lon="3.96299"><ele>1.0</ele><time>2025-05-26T18:01:36Z</time></trkpt>
<trkpt lat="51.0396" lon="3.963131"><ele>1.0</ele><time>2025-05-26T18:01:43Z</time></trkpt>
<trkpt lat="51.038338" lon="3.965953"><ele>0.98</ele><time>2025-05-26T18:01:49Z</time></trkpt>
<trkpt lat="51.038338" lon="3.965953"><ele>0.98</ele><time>2025-05-26T18:01:49Z</time></trkpt>
<trkpt lat="51.038307" lon="3.965952"><ele>1.14</ele><time>2025-05-26T18:01:58Z</time></trkpt>
<trkpt lat="51.036957" lon="3.964967"><ele>-0.15</ele><time>2025-05-26T18:02:07Z</time></trkpt>
<trkpt lat="51.036834" lon="3.964915"><ele>-0.31</ele><time>2025-05-26T18:02:16Z</time></trkpt>
<trkpt lat="51.036171" lon="3.964732"><ele>0.57</ele><time>2025-05-26T18:02:24Z</time></trkpt>
<trkpt lat="51.033066" lon="3.963171"><ele>6.79</ele><time>2025-05-26T18:02:33Z</time></trkpt>
<trkpt lat="51.031169" lon="3.962451"><ele>1.96</ele><time>2025-05-26T18:02:42Z</time></trkpt>
<trkpt lat="51.030038" lon="3.962069"><ele>-1.92</ele><time>2025-05-26T18:02:51Z</time></trkpt>
<trkpt lat="51.029926" lon="3.962054"><ele>-1.73</ele><time>2025-05-26T18:03:00Z</time></trkpt>
<trkpt lat="51.029716" lon="3.962073"><ele>-1.0</ele><time>2025-05-26T18:03:09Z</time></trkpt>
<trkpt lat="51.029292" lon="3.961953"><ele>-1.53</ele><time>2025-05-26T18:03:18Z</time></trkpt>
<trkpt lat="51.029085" lon="3.96186"><ele>-1.7</ele><time>2025-05-26T18:03:26Z</time></trkpt>
<trkpt lat="51.02853" lon="3.961459"><ele>0.04</ele><time>2025-05-26T18:03:35Z</time></trkpt>
<trkpt lat="51.028467" lon="3.961378"><ele>0.52</ele><time>2025-05-26T18:03:44Z</time></trkpt>
<trkpt lat="51.028458" lon="3.961322"><ele>0.55</ele><time>2025-05-26T18:03:53Z</time></trkpt>
<trkpt lat="51.028706" lon="3.9595"><ele>0.0</ele><time>2025-05-26T18:04:02Z</time></trkpt>
<trkpt lat="51.028105" lon="3.959267"><ele>0.54</ele><time>2025-05-26T18:04:06Z</time></trkpt>
<trkpt lat="51.028003" lon="3.959163"><ele>-0.19</ele><time>2025-05-26T18:04:11Z</time></trkpt>
<trkpt lat="51.027558" lon="3.958535"><ele>0.0</ele><time>2025-05-26T18:04:15Z</time></trkpt>
<trkpt lat="51.027519" lon="3.9584"><ele>0.0</ele><time>2025-05-26T18:04:19Z</time></trkpt>
<trkpt lat="51.027523" lon="3.958297"><ele>0.01</ele><time>2025-05-26T18:04:24Z</time></trkpt>
<trkpt lat="51.027767" lon="3.95718"><ele>0.03</ele><time>2025-05-26T18:04:28Z</time></trkpt>
<trkpt lat="51.027739" lon="3.957053"><ele>0.05</ele><time>2025-05-26T18:04:33Z</time></trkpt>
<trkpt lat="51.027696" lon="3.95698"><ele>0.04</ele><time>2025-05-26T18:04:37Z</time></trkpt>
<trkpt lat="51.027432" lon="3.956709"><ele>0.24</ele><time>2025-05-26T18:04:41Z</time></trkpt>
<trkpt lat="51.02666" lon="3.955463"><ele>2.02</ele><time>2025-05-26T18:04:46Z</time></trkpt>
<trkpt lat="51.02683" lon="3.955072"><ele>1.41</ele><time>2025-05-26T18:04:51Z</time></trkpt>
<trkpt lat="51.026885" lon="3.954871"><ele>0.75</ele><time>2025-05-26T18:04:56Z</time></trkpt>
<trkpt lat="51.026906" lon="3.954765"><ele>0.29</ele><time>2025-05-26T18:05:01Z</time></trkpt>
<trkpt lat="51.026895" lon="3.954549"><ele>-0.45</ele><time>2025-05-26T18:05:07Z</time></trkpt>
<trkpt lat="51.026491" lon="3.953046"><ele>0.0</ele><time>2025-05-26T18:05:12Z</time></trkpt>
<trkpt lat="51.026358" lon="3.952219"><ele>-1.12</ele><time>2025-05-26T18:05:17Z</time></trkpt>
<trkpt lat="51.026336" lon="3.95196"><ele>-1.96</ele><time>2025-05-26T18:05:22Z</time></trkpt>
<trkpt lat="51.026372" lon="3.951661"><ele>-1.98</ele><time>2025-05-26T18:05:28Z</time></trkpt>
<trkpt lat="51.026426" lon="3.951484"><ele>-1.38</ele><time>2025-05-26T18:05:33Z</time></trkpt>
<trkpt lat="51.026502" lon="3.951324"><ele>-1.41</ele><time>2025-05-26T18:05:38Z</time></trkpt>
<trkpt lat="51.026859" lon="3.950809"><ele>-1.0</ele><time>2025-05-26T18:05:43Z</time></trkpt>
<trkpt lat="51.026929" lon="3.950657"><ele>-1.0</ele><time>2025-05-26T18:05:48Z</time></trkpt>
<trkpt lat="51.025314" lon="3.950214"><ele>0.97</ele><time>2025-05-26T18:05:53Z</time></trkpt>
<trkpt lat="51.024971" lon="3.950188"><ele>1.0</ele><time>2025-05-26T18:05:58Z</time></trkpt>
<trkpt lat="51.024749" lon="3.950217"><ele>1.0</ele><time>2025-05-26T18:06:03Z</time></trkpt>
<trkpt lat="51.024516" lon="3.950358"><ele>1.29</ele><time>2025-05-26T18:06:08Z</time></trkpt>
<trkpt lat="51.024096" lon="3.950829"><ele>2.26</ele><time>2025-05-26T18:06:13Z</time></trkpt>
<trkpt lat="51.023961" lon="3.951066"><ele>3.58</ele><time>2025-05-26T18:06:18Z</time></trkpt>
<trkpt lat="51.023854" lon="3.951326"><ele>4.0</ele><time>2025-05-26T18:06:23Z</time></trkpt>
<trkpt lat="51.023773" lon="3.951607"><ele>4.78</ele><time>2025-05-26T18:06:28Z</time></trkpt>
<trkpt lat="51.023726" lon="3.951919"><ele>5.0</ele><time>2025-05-26T18:06:33Z</time></trkpt>
<trkpt lat="51.023635" lon="3.95282"><ele>4.0</ele><time>2025-05-26T18:06:38Z</time></trkpt>
<trkpt lat="51.023535" lon="3.953127"><ele>4.2</ele><time>2025-05-26T18:06:43Z</time></trkpt>
<trkpt lat="51.023403" lon="3.953424"><ele>4.0</ele><time>2025-05-26T18:06:48Z</time></trkpt>
<trkpt lat="51.02322" lon="3.953728"><ele>4.66</ele><time>2025-05-26T18:06:53Z</time></trkpt>
<trkpt lat="51.023024" lon="3.953957"><ele>5.0</ele><time>2025-05-26T18:06:58Z</time></trkpt>
<trkpt lat="51.022879" lon="3.954044"><ele>5.0</ele><time>2025-05-26T18:07:03Z</time></trkpt>
<trkpt lat="51.022199" lon="3.954284"><ele>6.03</ele><time>2025-05-26T18:07:08Z</time></trkpt>
<trkpt lat="51.021681" lon="3.954467"><ele>7.0</ele><time>2025-05-26T18:07:13Z</time></trkpt>
<trkpt lat="51.021108" lon="3.954624"><ele>7.01</ele><time>2025-05-26T18:07:18Z</time></trkpt>
<trkpt lat="51.020449" lon="3.954729"><ele>8.0</ele><time>2025-05-26T18:07:23Z</time></trkpt>
<trkpt lat="51.020336" lon="3.954817"><ele>8.0</ele><time>2025-05-26T18:07:28Z</time></trkpt>
<trkpt lat="51.019863" lon="3.955466"><ele>6.47</ele><time>2025-05-26T18:07:33Z</time></trkpt>
<trkpt lat="51.01912" lon="3.956176"><ele>8.0</ele><time>2025-05-26T18:07:37Z</time></trkpt>
<trkpt lat="51.018726" lon="3.956632"><ele>7.41</ele><time>2025-05-26T18:07:42Z</time></trkpt>
<trkpt lat="51.018465" lon="3.956968"><ele>7.53</ele><time>2025-05-26T18:07:47Z</time></trkpt>
<trkpt lat="51.018315" lon="3.957119"><ele>8.04</ele><time>2025-05-26T18:07:52Z</time></trkpt>
<trkpt lat="51.017528" lon="3.957482"><ele>8.06</ele><time>2025-05-26T18:07:57Z</time></trkpt>
<trkpt lat="51.01745" lon="3.95759"><ele>7.23</ele><time>2025-05-26T18:08:02Z</time></trkpt>
<trkpt lat="51.017136" lon="3.957401"><ele>7.24</ele><time>2025-05-26T18:08:22Z</time></trkpt>
<trkpt lat="51.016992" lon="3.957282"><ele>7.13</ele><time>2025-05-26T18:08:41Z</time></trkpt>
<trkpt lat="51.016174" lon="3.95625"><ele>6.78</ele><time>2025-05-26T18:09:01Z</time></trkpt>
<trkpt lat="51.015831" lon="3.956639"><ele>6.09</ele><time>2025-05-26T18:09:07Z</time></trkpt>
<trkpt lat="51.015601" lon="3.95698"><ele>5.03</ele><time>2025-05-26T18:09:13Z</time></trkpt>
<trkpt lat="51.01557" lon="3.956983"><ele>4.91</ele><time>2025-05-26T18:09:19Z</time></trkpt>
<trkpt lat="51.01536" lon="3.956748"><ele>3.59</ele><time>2025-05-26T18:09:25Z</time></trkpt>
<trkpt lat="51.014926" lon="3.956256"><ele>3.73</ele><time>2025-05-26T18:09:31Z</time></trkpt>
<trkpt lat="51.014866" lon="3.956272"><ele>3.52</ele><time>2025-05-26T18:09:36Z</time></trkpt>
<trkpt lat="51.014811" lon="3.956328"><ele>3.32</ele><time>2025-05-26T18:09:42Z</time></trkpt>
<trkpt lat="51.014641" lon="3.956595"><ele>3.0</ele><time>2025-05-26T18:09:48Z</time></trkpt>
<trkpt lat="51.014579" lon="3.956653"><ele>3.0</ele><time>2025-05-26T18:09:54Z</time></trkpt>
<trkpt lat="51.01452" lon="3.956676"><ele>3.0</ele><time>2025-05-26T18:10:00Z</time></trkpt>
<trkpt lat="51.01445" lon="3.956618"><ele>3.0</ele><time>2025-05-26T18:10:06Z</time></trkpt>
<trkpt lat="51.01422" lon="3.956378"><ele>2.16</ele><time>2025-05-26T18:10:12Z</time></trkpt>
<trkpt lat="51.013816" lon="3.955709"><ele>0.45</ele><time>2025-05-26T18:10:18Z</time></trkpt>
<trkpt lat="51.013597" lon="3.955311"><ele>0.77</ele><time>2025-05-26T18:10:24Z</time></trkpt>
<trkpt lat="51.013597" lon="3.955311"><ele>0.77</ele><time>2025-05-26T18:10:24Z</time></trkpt>
<trkpt lat="51.013816" lon="3.955709"><ele>0.45</ele><time>2025-05-26T18:10:30Z</time></trkpt>
<trkpt lat="51.01422" lon="3.956378"><ele>2.16</ele><time>2025-05-26T18:10:36Z</time></trkpt>
<trkpt lat="51.01445" lon="3.956618"><ele>3.0</ele><time>2025-05-26T18:10:42Z</time></trkpt>
<trkpt lat="51.01452" lon="3.956676"><ele>3.0</ele><time>2025-05-26T18:10:48Z</time></trkpt>
<trkpt lat="51.014579" lon="3.956653"><ele>3.0</ele><time>2025-05-26T18:10:54Z</time></trkpt>
<trkpt lat="51.014641" lon="3.956595"><ele>3.0</ele><time>2025-05-26T18:11:00Z</time></trkpt>
<trkpt lat="51.014811" lon="3.956328"><ele>3.32</ele><time>2025-05-26T18:11:06Z</time></trkpt>
<trkpt lat="51.014866" lon="3.956272"><ele>3.52</ele><time>2025-05-26T18:11:12Z</time></trkpt>
<trkpt lat="51.014926" lon="3.956256"><ele>3.73</ele><time>2025-05-26T18:11:18Z</time></trkpt>
<trkpt lat="51.01536" lon="3.956748"><ele>3.59</ele><time>2025-05-26T18:11:24Z</time></trkpt>
<trkpt lat="51.01557" lon="3.956983"><ele>4.91</ele><time>2025-05-26T18:11:30Z</time></trkpt>
<trkpt lat="51.015601" lon="3.95698"><ele>5.03</ele><time>2025-05-26T18:11:36Z</time></trkpt>
<trkpt lat="51.015831" lon="3.956639"><ele>6.09</ele><time>2025-05-26T18:11:42Z</time></trkpt>
<trkpt lat="51.016174" lon="3.95625"><ele>6.78</ele><time>2025-05-26T18:11:48Z</time></trkpt>
<trkpt lat="51.016992" lon="3.957282"><ele>7.13</ele><time>2025-05-26T18:11:57Z</time></trkpt>
<trkpt lat="51.017136" lon="3.957401"><ele>7.24</ele><time>2025-05-26T18:12:07Z</time></trkpt>
<trkpt lat="51.01745" lon="3.95759"><ele>7.23</ele><time>2025-05-26T18:12:16Z</time></trkpt>
<trkpt lat="51.017528" lon="3.957482"><ele>8.06</ele><time>2025-05-26T18:12:22Z</time></trkpt>
<trkpt lat="51.018315" lon="3.957119"><ele>8.04</ele><time>2025-05-26T18:12:28Z</time></trkpt>
<trkpt lat="51.018465" lon="3.956968"><ele>7.53</ele><time>2025-05-26T18:12:34Z</time></trkpt>
<trkpt lat="51.018726" lon="3.956632"><ele>7.41</ele><time>2025-05-26T18:12:40Z</time></trkpt>
<trkpt lat="51.01912" lon="3.956176"><ele>8.0</ele><time>2025-05-26T18:12:46Z</time></trkpt>
<trkpt lat="51.019863" lon="3.955466"><ele>6.47</ele><time>2025-05-26T18:12:52Z</time></trkpt>
<trkpt lat="51.020336" lon="3.954817"><ele>8.0</ele><time>2025-05-26T18:12:58Z</time></trkpt>
<trkpt lat="51.020449" lon="3.954729"><ele>8.0</ele><time>2025-05-26T18:13:04Z</time></trkpt>
<trkpt lat="51.021108" lon="3.954624"><ele>7.01</ele><time>2025-05-26T18:13:10Z</time></trkpt>
<trkpt lat="51.021681" lon="3.954467"><ele>7.0</ele><time>2025-05-26T18:13:16Z</time></trkpt>
<trkpt lat="51.022199" lon="3.954284"><ele>6.03</ele><time>2025-05-26T18:13:22Z</time></trkpt>
<trkpt lat="51.022879" lon="3.954044"><ele>5.0</ele><time>2025-05-26T18:13:28Z</time></trkpt>
<trkpt lat="51.023024" lon="3.953957"><ele>5.0</ele><time>2025-05-26T18:13:34Z</time></trkpt>
<trkpt lat="51.02322" lon="3.953728"><ele>4.66</ele><time>2025-05-26T18:13:40Z</time></trkpt>
<trkpt lat="51.023403" lon="3.953424"><ele>4.0</ele><time>2025-05-26T18:13:45Z</time></trkpt>
<trkpt lat="51.023535" lon="3.953127"><ele>4.2</ele><time>2025-05-26T18:13:51Z</time></trkpt>
<trkpt lat="51.023635" lon="3.95282"><ele>4.0</ele><time>2025-05-26T18:13:57Z</time></trkpt>
<trkpt lat="51.023726" lon="3.951919"><ele>5.0</ele><time>2025-05-26T18:14:03Z</time></trkpt>
<trkpt lat="51.023773" lon="3.951607"><ele>4.78</ele><time>2025-05-26T18:14:09Z</time></trkpt>
<trkpt lat="51.023854" lon="3.951326"><ele>4.0</ele><time>2025-05-26T18:14:15Z</time></trkpt>
<trkpt lat="51.023961" lon="3.951066"><ele>3.58</ele><time>2025-05-26T18:14:21Z</time></trkpt>
<trkpt lat="51.024096" lon="3.950829"><ele>2.26</ele><time>2025-05-26T18:14:27Z</time></trkpt>
<trkpt lat="51.024516" lon="3.950358"><ele>1.29</ele><time>2025-05-26T18:14:33Z</time></trkpt>
<trkpt lat="51.024749" lon="3.950217"><ele>1.0</ele><time>2025-05-26T18:14:39Z</time></trkpt>
<trkpt lat="51.024971" lon="3.950188"><ele>1.0</ele><time>2025-05-26T18:14:45Z</time></trkpt>
<trkpt lat="51.025314" lon="3.950214"><ele>0.97</ele><time>2025-05-26T18:14:51Z</time></trkpt>
<trkpt lat="51.026929" lon="3.950657"><ele>-1.0</ele><time>2025-05-26T18:14:57Z</time></trkpt>
<trkpt lat="51.027384" lon="3.950747"><ele>1.0</ele><time>2025-05-26T18:15:03Z</time></trkpt>
<trkpt lat="51.027595" lon="3.950765"><ele>1.0</ele><time>2025-05-26T18:15:09Z</time></trkpt>
<trkpt lat="51.027941" lon="3.950674"><ele>1.92</ele><time>2025-05-26T18:15:15Z</time></trkpt>
<trkpt lat="51.028132" lon="3.950561"><ele>2.98</ele><time>2025-05-26T18:15:21Z</time></trkpt>
<trkpt lat="51.028482" lon="3.950303"><ele>2.04</ele><time>2025-05-26T18:15:26Z</time></trkpt>
<trkpt lat="51.028829" lon="3.950143"><ele>2.0</ele><time>2025-05-26T18:15:32Z</time></trkpt>
<trkpt lat="51.02948" lon="3.949919"><ele>1.75</ele><time>2025-05-26T18:15:38Z</time></trkpt>
<trkpt lat="51.030129" lon="3.949727"><ele>3.01</ele><time>2025-05-26T18:15:44Z</time></trkpt>
<trkpt lat="51.031386" lon="3.949419"><ele>3.91</ele><time>2025-05-26T18:15:50Z</time></trkpt>
<trkpt lat="51.031599" lon="3.949326"><ele>3.57</ele><time>2025-05-26T18:15:56Z</time></trkpt>
<trkpt lat="51.032296" lon="3.948885"><ele>2.01</ele><time>2025-05-26T18:16:02Z</time></trkpt>
<trkpt lat="51.034464" lon="3.948023"><ele>2.0</ele><time>2025-05-26T18:16:08Z</time></trkpt>
<trkpt lat="51.035798" lon="3.947513"><ele>2.17</ele><time>2025-05-26T18:16:14Z</time></trkpt>
<trkpt lat="51.036465" lon="3.947297"><ele>3.0</ele><time>2025-05-26T18:16:20Z</time></trkpt>
<trkpt lat="51.037083" lon="3.947182"><ele>2.42</ele><time>2025-05-26T18:16:26Z</time></trkpt>
<trkpt lat="51.037714" lon="3.947115"><ele>4.38</ele><time>2025-05-26T18:16:32Z</time></trkpt>
<trkpt lat="51.038823" lon="3.947207"><ele>5.47</ele><time>2025-05-26T18:16:38Z</time></trkpt>
<trkpt lat="51.040298" lon="3.947397"><ele>5.95</ele><time>2025-05-26T18:16:44Z</time></trkpt>
<trkpt lat="51.041886" lon="3.947671"><ele>4.79</ele><time>2025-05-26T18:16:50Z</time></trkpt>
<trkpt lat="51.042529" lon="3.94774"><ele>3.86</ele><time>2025-05-26T18:16:56Z</time></trkpt>
<trkpt lat="51.043284" lon="3.947764"><ele>4.0</ele><time>2025-05-26T18:17:02Z</time></trkpt>
<trkpt lat="51.043784" lon="3.947687"><ele>4.88</ele><time>2025-05-26T18:17:07Z</time></trkpt>
<trkpt lat="51.044171" lon="3.947565"><ele>4.76</ele><time>2025-05-26T18:17:13Z</time></trkpt>
<trkpt lat="51.045011" lon="3.947231"><ele>8.93</ele><time>2025-05-26T18:17:19Z</time></trkpt>
<trkpt lat="51.045826" lon="3.946881"><ele>9.45</ele><time>2025-05-26T18:17:25Z</time></trkpt>
<trkpt lat="51.046035" lon="3.946772"><ele>9.79</ele><time>2025-05-26T18:17:31Z</time></trkpt>
<trkpt lat="51.046094" lon="3.946765"><ele>9.69</ele><time>2025-05-26T18:17:37Z</time></trkpt>
<trkpt lat="51.046444" lon="3.946534"><ele>7.38</ele><time>2025-05-26T18:17:43Z</time></trkpt>
<trkpt lat="51.045989" lon="3.945169"><ele>9.44</ele><time>2025-05-26T18:17:50Z</time></trkpt>
<trkpt lat="51.045907" lon="3.944854"><ele>9.21</ele><time>2025-05-26T18:17:57Z</time></trkpt>
<trkpt lat="51.045342" lon="3.942223"><ele>4.23</ele><time>2025-05-26T18:18:03Z</time></trkpt>
<trkpt lat="51.045171" lon="3.94132"><ele>5.62</ele><time>2025-05-26T18:18:10Z</time></trkpt>
<trkpt lat="51.045082" lon="3.940592"><ele>4.04</ele><time>2025-05-26T18:18:17Z</time></trkpt>
<trkpt lat="51.045057" lon="3.939756"><ele>5.67</ele><time>2025-05-26T18:18:23Z</time></trkpt>
<trkpt lat="51.045065" lon="3.939455"><ele>5.99</ele><time>2025-05-26T18:18:30Z</time></trkpt>
<trkpt lat="51.045111" lon="3.938905"><ele>5.0</ele><time>2025-05-26T18:18:37Z</time></trkpt>
<trkpt lat="51.045246" lon="3.938127"><ele>5.97</ele><time>2025-05-26T18:18:44Z</time></trkpt>
<trkpt lat="51.04531" lon="3.937871"><ele>5.88</ele><time>2025-05-26T18:18:50Z</time></trkpt>
<trkpt lat="51.046421" lon="3.933913"><ele>5.08</ele><time>2025-05-26T18:18:57Z</time></trkpt>
<trkpt lat="51.046611" lon="3.933028"><ele>5.0</ele><time>2025-05-26T18:19:04Z</time></trkpt>
<trkpt lat="51.046736" lon="3.931781"><ele>4.61</ele><time>2025-05-26T18:19:10Z</time></trkpt>
<trkpt lat="51.046758" lon="3.93131"><ele>5.44</ele><time>2025-05-26T18:19:17Z</time></trkpt>
<trkpt lat="51.046743" lon="3.930407"><ele>5.39</ele><time>2025-05-26T18:19:24Z</time></trkpt>
<trkpt lat="51.046472" lon="3.924208"><ele>5.0</ele><time>2025-05-26T18:19:31Z</time></trkpt>
<trkpt lat="51.046419" lon="3.923595"><ele>3.95</ele><time>2025-05-26T18:19:37Z</time></trkpt>
<trkpt lat="51.046355" lon="3.923201"><ele>3.06</ele><time>2025-05-26T18:19:44Z</time></trkpt>
<trkpt lat="51.045742" lon="3.920633"><ele>3.81</ele><time>2025-05-26T18:19:51Z</time></trkpt>
<trkpt lat="51.045606" lon="3.91985"><ele>4.74</ele><time>2025-05-26T18:19:57Z</time></trkpt>
<trkpt lat="51.045461" lon="3.9188"><ele>4.34</ele><time>2025-05-26T18:20:04Z</time></trkpt>
<trkpt lat="51.045176" lon="3.91644"><ele>6.82</ele><time>2025-05-26T18:20:11Z</time></trkpt>
<trkpt lat="51.045124" lon="3.916153"><ele>7.85</ele><time>2025-05-26T18:20:18Z</time></trkpt>
<trkpt lat="51.044993" lon="3.915606"><ele>8.93</ele><time>2025-05-26T18:20:24Z</time></trkpt>
<trkpt lat="51.044716" lon="3.914809"><ele>6.28</ele><time>2025-05-26T18:20:31Z</time></trkpt>
<trkpt lat="51.04445" lon="3.914222"><ele>5.82</ele><time>2025-05-26T18:20:38Z</time></trkpt>
<trkpt lat="51.043912" lon="3.913206"><ele>5.45</ele><time>2025-05-26T18:20:44Z</time></trkpt>
<trkpt lat="51.043708" lon="3.912758"><ele>6.58</ele><time>2025-05-26T18:20:51Z</time></trkpt>
<trkpt lat="51.042674" lon="3.909845"><ele>5.07</ele><time>2025-05-26T18:20:58Z</time></trkpt>
<trkpt lat="51.042409" lon="3.909065"><ele>3.0</ele><time>2025-05-26T18:21:05Z</time></trkpt>
<trkpt lat="51.042215" lon="3.908439"><ele>3.97</ele><time>2025-05-26T18:21:11Z</time></trkpt>
<trkpt lat="51.041904" lon="3.907322"><ele>4.85</ele><time>2025-05-26T18:21:18Z</time></trkpt>
<trkpt lat="51.041523" lon="3.905663"><ele>3.0</ele><time>2025-05-26T18:21:25Z</time></trkpt>
<trkpt lat="51.041321" lon="3.904506"><ele>3.0</ele><time>2025-05-26T18:21:31Z</time></trkpt>
<trkpt lat="51.040972" lon="3.902228"><ele>6.5</ele><time>2025-05-26T18:21:38Z</time></trkpt>
<trkpt lat="51.040867" lon="3.901688"><ele>7.75</ele><time>2025-05-26T18:21:45Z</time></trkpt>
<trkpt lat="51.040651" lon="3.900762"><ele>5.74</ele><time>2025-05-26T18:21:52Z</time></trkpt>
<trkpt lat="51.04051" lon="3.900233"><ele>4.0</ele><time>2025-05-26T18:21:58Z</time></trkpt>
<trkpt lat="51.039743" lon="3.897689"><ele>6.24</ele><time>2025-05-26T18:22:05Z</time></trkpt>
<trkpt lat="51.039633" lon="3.897196"><ele>6.68</ele><time>2025-05-26T18:22:12Z</time></trkpt>
<trkpt lat="51.039554" lon="3.896655"><ele>6.35</ele><time>2025-05-26T18:22:18Z</time></trkpt>
<trkpt lat="51.03953" lon="3.896348"><ele>5.31</ele><time>2025-05-26T18:22:25Z</time></trkpt>
<trkpt lat="51.039533" lon="3.895771"><ele>4.32</ele><time>2025-05-26T18:22:32Z</time></trkpt>
<trkpt lat="51.039561" lon="3.895407"><ele>4.42</ele><time>2025-05-26T18:22:39Z</time></trkpt>
<trkpt lat="51.039624" lon="3.894932"><ele>4.89</ele><time>2025-05-26T18:22:45Z</time></trkpt>
<trkpt lat="51.039682" lon="3.894642"><ele>5.86</ele><time>2025-05-26T18:22:52Z</time></trkpt>
<trkpt lat="51.039761" lon="3.894346"><ele>5.78</ele><time>2025-05-26T18:22:59Z</time></trkpt>
<trkpt lat="51.040148" lon="3.893228"><ele>5.8</ele><time>2025-05-26T18:23:05Z</time></trkpt>
<trkpt lat="51.040251" lon="3.892872"><ele>5.09</ele><time>2025-05-26T18:23:12Z</time></trkpt>
<trkpt lat="51.040403" lon="3.892246"><ele>5.51</ele><time>2025-05-26T18:23:19Z</time></trkpt>
<trkpt lat="51.040255" lon="3.892243"><ele>6.0</ele><time>2025-05-26T18:23:23Z</time></trkpt>
<trkpt lat="51.037221" lon="3.891636"><ele>5.0</ele><time>2025-05-26T18:23:27Z</time></trkpt>
<trkpt lat="51.036551" lon="3.891598"><ele>6.65</ele><time>2025-05-26T18:23:31Z</time></trkpt>
<trkpt lat="51.036067" lon="3.89162"><ele>3.7</ele><time>2025-05-26T18:23:35Z</time></trkpt>
<trkpt lat="51.035564" lon="3.891771"><ele>3.0</ele><time>2025-05-26T18:23:39Z</time></trkpt>
<trkpt lat="51.033999" lon="3.892303"><ele>4.6</ele><time>2025-05-26T18:23:43Z</time></trkpt>
<trkpt lat="51.033707" lon="3.892345"><ele>5.0</ele><time>2025-05-26T18:23:47Z</time></trkpt>
<trkpt lat="51.033448" lon="3.89229"><ele>5.0</ele><time>2025-05-26T18:23:51Z</time></trkpt>
<trkpt lat="51.03103" lon="3.891513"><ele>1.55</ele><time>2025-05-26T18:23:55Z</time></trkpt>
<trkpt lat="51.029705" lon="3.891164"><ele>4.0</ele><time>2025-05-26T18:23:59Z</time></trkpt>
<trkpt lat="51.029516" lon="3.891076"><ele>3.87</ele><time>2025-05-26T18:24:03Z</time></trkpt>
<trkpt lat="51.029089" lon="3.890816"><ele>3.56</ele><time>2025-05-26T18:24:07Z</time></trkpt>
<trkpt lat="51.028796" lon="3.890667"><ele>5.0</ele><time>2025-05-26T18:24:11Z</time></trkpt>
<trkpt lat="51.028485" lon="3.890588"><ele>5.0</ele><time>2025-05-26T18:24:15Z</time></trkpt>
<trkpt lat="51.027557" lon="3.89046"><ele>3.52</ele><time>2025-05-26T18:24:19Z</time></trkpt>
<trkpt lat="51.027404" lon="3.89045"><ele>3.75</ele><time>2025-05-26T18:24:23Z</time></trkpt>
<trkpt lat="51.027257" lon="3.890476"><ele>3.96</ele><time>2025-05-26T18:24:27Z</time></trkpt>
<trkpt lat="51.027013" lon="3.890163"><ele>4.75</ele><time>2025-05-26T18:24:40Z</time></trkpt>
<trkpt lat="51.025615" lon="3.888422"><ele>3.07</ele><time>2025-05-26T18:24:53Z</time></trkpt>
<trkpt lat="51.025254" lon="3.88805"><ele>5.09</ele><time>2025-05-26T18:25:07Z</time></trkpt>
<trkpt lat="51.025049" lon="3.887882"><ele>5.82</ele><time>2025-05-26T18:25:20Z</time></trkpt>
<trkpt lat="51.023338" lon="3.886722"><ele>3.79</ele><time>2025-05-26T18:25:33Z</time></trkpt>
<trkpt lat="51.022214" lon="3.885996"><ele>2.37</ele><time>2025-05-26T18:25:46Z</time></trkpt>
<trkpt lat="51.018817" lon="3.883689"><ele>2.18</ele><time>2025-05-26T18:25:59Z</time></trkpt>
<trkpt lat="51.018023" lon="3.88312"><ele>1.89</ele><time>2025-05-26T18:26:12Z</time></trkpt>
<trkpt lat="51.01512" lon="3.881132"><ele>4.83</ele><time>2025-05-26T18:26:25Z</time></trkpt>
<trkpt lat="51.01474" lon="3.880902"><ele>4.52</ele><time>2025-05-26T18:26:39Z</time></trkpt>
<trkpt lat="51.0144" lon="3.880804"><ele>4.09</ele><time>2025-05-26T18:26:52Z</time></trkpt>
<trkpt lat="51.014105" lon="3.880826"><ele>4.22</ele><time>2025-05-26T18:27:05Z</time></trkpt>
<trkpt lat="51.011988" lon="3.88107"><ele>2.74</ele><time>2025-05-26T18:27:18Z</time></trkpt>
<trkpt lat="51.010851" lon="3.881963"><ele>4.0</ele><time>2025-05-26T18:27:31Z</time></trkpt>
<trkpt lat="51.011155" lon="3.882817"><ele>3.84</ele><time>2025-05-26T18:27:52Z</time></trkpt>
<trkpt lat="51.011491" lon="3.885076"><ele>6.17</ele><time>2025-05-26T18:28:14Z</time></trkpt>
<trkpt lat="51.011566" lon="3.885459"><ele>7.01</ele><time>2025-05-26T18:28:35Z</time></trkpt>
<trkpt lat="51.011941" lon="3.886604"><ele>7.25</ele><time>2025-05-26T18:28:56Z</time></trkpt>
<trkpt lat="51.012062" lon="3.88702"><ele>5.3</ele><time>2025-05-26T18:29:17Z</time></trkpt>
<trkpt lat="51.012923" lon="3.889406"><ele>3.66</ele><time>2025-05-26T18:29:38Z</time></trkpt>
<trkpt lat="51.013349" lon="3.890728"><ele>3.06</ele><time>2025-05-26T18:29:59Z</time></trkpt>
<trkpt lat="51.013925" lon="3.892444"><ele>5.0</ele><time>2025-05-26T18:30:21Z</time></trkpt>
<trkpt lat="51.01409" lon="3.892885"><ele>5.72</ele><time>2025-05-26T18:30:42Z</time></trkpt>
<trkpt lat="51.014412" lon="3.893744"><ele>3.64</ele><time>2025-05-26T18:31:03Z</time></trkpt>
<trkpt lat="51.013622" lon="3.894521"><ele>1.0</ele><time>2025-05-26T18:31:24Z</time></trkpt>
<trkpt lat="51.013198" lon="3.895043"><ele>1.05</ele><time>2025-05-26T18:31:45Z</time></trkpt>
<trkpt lat="51.013099" lon="3.895278"><ele>1.84</ele><time>2025-05-26T18:32:07Z</time></trkpt>
<trkpt lat="51.013125" lon="3.895328"><ele>2.56</ele><time>2025-05-26T18:32:09Z</time></trkpt>
<trkpt lat="51.013125" lon="3.895328"><ele>2.56</ele><time>2025-05-26T18:32:09Z</time></trkpt>
<trkpt lat="51.013099" lon="3.895278"><ele>1.84</ele><time>2025-05-26T18:32:10Z</time></trkpt>
<trkpt lat="51.013198" lon="3.895043"><ele>1.05</ele><time>2025-05-26T18:32:29Z</time></trkpt>
<trkpt lat="51.013622" lon="3.894521"><ele>1.0</ele><time>2025-05-26T18:32:48Z</time></trkpt>
<trkpt lat="51.014412" lon="3.893744"><ele>3.64</ele><time>2025-05-26T18:33:07Z</time></trkpt>
<trkpt lat="51.01409" lon="3.892885"><ele>5.72</ele><time>2025-05-26T18:33:26Z</time></trkpt>
<trkpt lat="51.013925" lon="3.892444"><ele>5.0</ele><time>2025-05-26T18:33:45Z</time></trkpt>
<trkpt lat="51.013349" lon="3.890728"><ele>3.06</ele><time>2025-05-26T18:34:04Z</time></trkpt>
<trkpt lat="51.012923" lon="3.889406"><ele>3.66</ele><time>2025-05-26T18:34:23Z</time></trkpt>
<trkpt lat="51.012062" lon="3.88702"><ele>5.3</ele><time>2025-05-26T18:34:41Z</time></trkpt>
<trkpt lat="51.011941" lon="3.886604"><ele>7.25</ele><time>2025-05-26T18:35:00Z</time></trkpt>
<trkpt lat="51.011566" lon="3.885459"><ele>7.01</ele><time>2025-05-26T18:35:19Z</time></trkpt>
<trkpt lat="51.011491" lon="3.885076"><ele>6.17</ele><time>2025-05-26T18:35:38Z</time></trkpt>
<trkpt lat="51.011155" lon="3.882817"><ele>3.84</ele><time>2025-05-26T18:35:57Z</time></trkpt>
<trkpt lat="51.010851" lon="3.881963"><ele>4.0</ele><time>2025-05-26T18:36:16Z</time></trkpt>
<trkpt lat="51.011988" lon="3.88107"><ele>2.74</ele><time>2025-05-26T18:36:24Z</time></trkpt>
<trkpt lat="51.014105" lon="3.880826"><ele>4.22</ele><time>2025-05-26T18:36:32Z</time></trkpt>
<trkpt lat="51.0144" lon="3.880804"><ele>4.09</ele><time>2025-05-26T18:36:39Z</time></trkpt>
<trkpt lat="51.01474" lon="3.880902"><ele>4.52</ele><time>2025-05-26T18:36:47Z</time></trkpt>
<trkpt lat="51.01512" lon="3.881132"><ele>4.83</ele><time>2025-05-26T18:36:55Z</time></trkpt>
<trkpt lat="51.018023" lon="3.88312"><ele>1.89</ele><time>2025-05-26T18:37:03Z</time></trkpt>
<trkpt lat="51.018817" lon="3.883689"><ele>2.18</ele><time>2025-05-26T18:37:11Z</time></trkpt>
<trkpt lat="51.022214" lon="3.885996"><ele>2.37</ele><time>2025-05-26T18:37:19Z</time></trkpt>
<trkpt lat="51.023338" lon="3.886722"><ele>3.79</ele><time>2025-05-26T18:37:26Z</time></trkpt>
<trkpt lat="51.025049" lon="3.887882"><ele>5.82</ele><time>2025-05-26T18:37:34Z</time></trkpt>
<trkpt lat="51.025254" lon="3.88805"><ele>5.09</ele><time>2025-05-26T18:37:42Z</time></trkpt>
<trkpt lat="51.025615" lon="3.888422"><ele>3.07</ele><time>2025-05-26T18:37:50Z</time></trkpt>
<trkpt lat="51.027013" lon="3.890163"><ele>4.75</ele><time>2025-05-26T18:37:58Z</time></trkpt>
<trkpt lat="51.027257" lon="3.890476"><ele>3.96</ele><time>2025-05-26T18:38:06Z</time></trkpt>
<trkpt lat="51.02736" lon="3.890639"><ele>4.0</ele><time>2025-05-26T18:38:14Z</time></trkpt>
<trkpt lat="51.027575" lon="3.891063"><ele>4.83</ele><time>2025-05-26T18:38:21Z</time></trkpt>
<trkpt lat="51.028151" lon="3.892351"><ele>4.47</ele><time>2025-05-26T18:38:29Z</time></trkpt>
<trkpt lat="51.028294" lon="3.892706"><ele>4.78</ele><time>2025-05-26T18:38:37Z</time></trkpt>
<trkpt lat="51.028738" lon="3.894193"><ele>3.87</ele><time>2025-05-26T18:38:45Z</time></trkpt>
<trkpt lat="51.028877" lon="3.894478"><ele>3.96</ele><time>2025-05-26T18:38:53Z</time></trkpt>
<trkpt lat="51.029554" lon="3.895533"><ele>5.03</ele><time>2025-05-26T18:39:01Z</time></trkpt>
<trkpt lat="51.029736" lon="3.895961"><ele>4.95</ele><time>2025-05-26T18:39:09Z</time></trkpt>
<trkpt lat="51.02984" lon="3.896377"><ele>4.57</ele><time>2025-05-26T18:39:16Z</time></trkpt>
<trkpt lat="51.029866" lon="3.896615"><ele>4.9</ele><time>2025-05-26T18:39:24Z</time></trkpt>
<trkpt lat="51.029926" lon="3.898399"><ele>5.0</ele><time>2025-05-26T18:39:32Z</time></trkpt>
<trkpt lat="51.029953" lon="3.898743"><ele>5.0</ele><time>2025-05-26T18:39:40Z</time></trkpt>
<trkpt lat="51.029994" lon="3.898997"><ele>5.0</ele><time>2025-05-26T18:39:48Z</time></trkpt>
<trkpt lat="51.030921" lon="3.903361"><ele>4.61</ele><time>2025-05-26T18:39:56Z</time></trkpt>
<trkpt lat="51.031048" lon="3.904114"><ele>2.77</ele><time>2025-05-26T18:40:04Z</time></trkpt>
<trkpt lat="51.031224" lon="3.906951"><ele>4.42</ele><time>2025-05-26T18:40:11Z</time></trkpt>
<trkpt lat="51.031256" lon="3.907262"><ele>5.0</ele><time>2025-05-26T18:40:19Z</time></trkpt>
<trkpt lat="51.031132" lon="3.907263"><ele>5.0</ele><time>2025-05-26T18:40:25Z</time></trkpt>
<trkpt lat="51.030788" lon="3.907129"><ele>3.56</ele><time>2025-05-26T18:40:31Z</time></trkpt>
<trkpt lat="51.030534" lon="3.907056"><ele>2.97</ele><time>2025-05-26T18:40:37Z</time></trkpt>
<trkpt lat="51.029968" lon="3.906986"><ele>1.85</ele><time>2025-05-26T18:40:43Z</time></trkpt>
<trkpt lat="51.029775" lon="3.906935"><ele>2.01</ele><time>2025-05-26T18:40:48Z</time></trkpt>
<trkpt lat="51.029545" lon="3.906822"><ele>2.0</ele><time>2025-05-26T18:40:54Z</time></trkpt>
<trkpt lat="51.028613" lon="3.905849"><ele>1.94</ele><time>2025-05-26T18:41:00Z</time></trkpt>
<trkpt lat="51.028525" lon="3.905868"><ele>1.91</ele><time>2025-05-26T18:41:06Z</time></trkpt>
<trkpt lat="51.027891" lon="3.906489"><ele>3.26</ele><time>2025-05-26T18:41:12Z</time></trkpt>
<trkpt lat="51.0278" lon="3.906493"><ele>3.05</ele><time>2025-05-26T18:41:18Z</time></trkpt>
<trkpt lat="51.0278" lon="3.906493"><ele>3.05</ele><time>2025-05-26T18:41:18Z</time></trkpt>
<trkpt lat="51.027891" lon="3.906489"><ele>3.26</ele><time>2025-05-26T18:41:22Z</time></trkpt>
<trkpt lat="51.028525" lon="3.905868"><ele>1.91</ele><time>2025-05-26T18:41:26Z</time></trkpt>
<trkpt lat="51.028613" lon="3.905849"><ele>1.94</ele><time>2025-05-26T18:41:31Z</time></trkpt>
<trkpt lat="51.029545" lon="3.906822"><ele>2.0</ele><time>2025-05-26T18:41:35Z</time></trkpt>
<trkpt lat="51.029775" lon="3.906935"><ele>2.01</ele><time>2025-05-26T18:41:39Z</time></trkpt>
<trkpt lat="51.029968" lon="3.906986"><ele>1.85</ele><time>2025-05-26T18:41:44Z</time></trkpt>
<trkpt lat="51.030534" lon="3.907056"><ele>2.97</ele><time>2025-05-26T18:41:48Z</time></trkpt>
<trkpt lat="51.030788" lon="3.907129"><ele>3.56</ele><time>2025-05-26T18:41:53Z</time></trkpt>
<trkpt lat="51.031132" lon="3.907263"><ele>5.0</ele><time>2025-05-26T18:41:57Z</time></trkpt>
<trkpt lat="51.031256" lon="3.907262"><ele>5.0</ele><time>2025-05-26T18:42:01Z</time></trkpt>
<trkpt lat="51.031224" lon="3.906951"><ele>4.42</ele><time>2025-05-26T18:42:05Z</time></trkpt>
<trkpt lat="51.031048" lon="3.904114"><ele>2.77</ele><time>2025-05-26T18:42:08Z</time></trkpt>
<trkpt lat="51.030921" lon="3.903361"><ele>4.61</ele><time>2025-05-26T18:42:12Z</time></trkpt>
<trkpt lat="51.029994" lon="3.898997"><ele>5.0</ele><time>2025-05-26T18:42:16Z</time></trkpt>
<trkpt lat="51.029953" lon="3.898743"><ele>5.0</ele><time>2025-05-26T18:42:19Z</time></trkpt>
<trkpt lat="51.029926" lon="3.898399"><ele>5.0</ele><time>2025-05-26T18:42:23Z</time></trkpt>
<trkpt lat="51.029866" lon="3.896615"><ele>4.9</ele><time>2025-05-26T18:42:27Z</time></trkpt>
<trkpt lat="51.02984" lon="3.896377"><ele>4.57</ele><time>2025-05-26T18:42:30Z</time></trkpt>
<trkpt lat="51.029736" lon="3.895961"><ele>4.95</ele><time>2025-05-26T18:42:34Z</time></trkpt>
<trkpt lat="51.029554" lon="3.895533"><ele>5.03</ele><time>2025-05-26T18:42:37Z</time></trkpt>
<trkpt lat="51.028877" lon="3.894478"><ele>3.96</ele><time>2025-05-26T18:42:41Z</time></trkpt>
<trkpt lat="51.028738" lon="3.894193"><ele>3.87</ele><time>2025-05-26T18:42:45Z</time></trkpt>
<trkpt lat="51.028294" lon="3.892706"><ele>4.78</ele><time>2025-05-26T18:42:48Z</time></trkpt>
<trkpt lat="51.028151" lon="3.892351"><ele>4.47</ele><time>2025-05-26T18:42:52Z</time></trkpt>
<trkpt lat="51.027575" lon="3.891063"><ele>4.83</ele><time>2025-05-26T18:42:55Z</time></trkpt>
<trkpt lat="51.02736" lon="3.890639"><ele>4.0</ele><time>2025-05-26T18:42:59Z</time></trkpt>
<trkpt lat="51.027257" lon="3.890476"><ele>3.96</ele><time>2025-05-26T18:43:03Z</time></trkpt>
<trkpt lat="51.027013" lon="3.890163"><ele>4.75</ele><time>2025-05-26T18:43:06Z</time></trkpt>
<trkpt lat="51.025615" lon="3.888422"><ele>3.07</ele><time>2025-05-26T18:43:10Z</time></trkpt>
<trkpt lat="51.025254" lon="3.88805"><ele>5.09</ele><time>2025-05-26T18:43:13Z</time></trkpt>
<trkpt lat="51.02615" lon="3.885728"><ele>5.0</ele><time>2025-05-26T18:43:23Z</time></trkpt>
<trkpt lat="51.026354" lon="3.885251"><ele>6.0</ele><time>2025-05-26T18:43:33Z</time></trkpt>
<trkpt lat="51.02657" lon="3.884823"><ele>5.35</ele><time>2025-05-26T18:43:43Z</time></trkpt>
<trkpt lat="51.02677" lon="3.884485"><ele>5.0</ele><time>2025-05-26T18:43:52Z</time></trkpt>
<trkpt lat="51.026977" lon="3.884213"><ele>5.0</ele><time>2025-05-26T18:44:02Z</time></trkpt>
<trkpt lat="51.027681" lon="3.88361"><ele>4.0</ele><time>2025-05-26T18:44:12Z</time></trkpt>
<trkpt lat="51.027772" lon="3.883267"><ele>4.0</ele><time>2025-05-26T18:44:16Z</time></trkpt>
<trkpt lat="51.027962" lon="3.88219"><ele>3.41</ele><time>2025-05-26T18:44:20Z</time></trkpt>
<trkpt lat="51.028022" lon="3.881978"><ele>3.89</ele><time>2025-05-26T18:44:24Z</time></trkpt>
<trkpt lat="51.028269" lon="3.881445"><ele>3.85</ele><time>2025-05-26T18:44:28Z</time></trkpt>
<trkpt lat="51.028345" lon="3.88132"><ele>4.05</ele><time>2025-05-26T18:44:32Z</time></trkpt>
<trkpt lat="51.028619" lon="3.881111"><ele>5.97</ele><time>2025-05-26T18:44:36Z</time></trkpt>
<trkpt lat="51.028709" lon="3.881072"><ele>5.55</ele><time>2025-05-26T18:44:40Z</time></trkpt>
<trkpt lat="51.029142" lon="3.88106"><ele>3.35</ele><time>2025-05-26T18:44:44Z</time></trkpt>
<trkpt lat="51.029462" lon="3.881174"><ele>3.06</ele><time>2025-05-26T18:44:48Z</time></trkpt>
<trkpt lat="51.030033" lon="3.88097"><ele>2.49</ele><time>2025-05-26T18:44:52Z</time></trkpt>
<trkpt lat="51.030533" lon="3.88089"><ele>2.2</ele><time>2025-05-26T18:44:56Z</time></trkpt>
<trkpt lat="51.030631" lon="3.880788"><ele>2.27</ele><time>2025-05-26T18:45:00Z</time></trkpt>
<trkpt lat="51.030722" lon="3.880616"><ele>2.6</ele><time>2025-05-26T18:45:04Z</time></trkpt>
<trkpt lat="51.03095" lon="3.880069"><ele>3.0</ele><time>2025-05-26T18:45:08Z</time></trkpt>
<trkpt lat="51.031071" lon="3.879706"><ele>2.0</ele><time>2025-05-26T18:45:12Z</time></trkpt>
<trkpt lat="51.031254" lon="3.879385"><ele>2.11</ele><time>2025-05-26T18:45:16Z</time></trkpt>
<trkpt lat="51.031394" lon="3.879213"><ele>2.85</ele><time>2025-05-26T18:45:20Z</time></trkpt>
<trkpt lat="51.032101" lon="3.878654"><ele>4.84</ele><time>2025-05-26T18:45:24Z</time></trkpt>
<trkpt lat="51.032516" lon="3.878377"><ele>5.0</ele><time>2025-05-26T18:45:28Z</time></trkpt>
<trkpt lat="51.032573" lon="3.878316"><ele>4.94</ele><time>2025-05-26T18:45:32Z</time></trkpt>
<trkpt lat="51.0326" lon="3.878199"><ele>4.51</ele><time>2025-05-26T18:45:36Z</time></trkpt>
<trkpt lat="51.032602" lon="3.878062"><ele>4.02</ele><time>2025-05-26T18:45:40Z</time></trkpt>
<trkpt lat="51.032573" lon="3.87753"><ele>4.89</ele><time>2025-05-26T18:45:44Z</time></trkpt>
<trkpt lat="51.032634" lon="3.877037"><ele>5.67</ele><time>2025-05-26T18:45:48Z</time></trkpt>
<trkpt lat="51.032716" lon="3.876752"><ele>6.0</ele><time>2025-05-26T18:45:52Z</time></trkpt>
<trkpt lat="51.03313" lon="3.875612"><ele>6.0</ele><time>2025-05-26T18:45:56Z</time></trkpt>
<trkpt lat="51.03357" lon="3.874181"><ele>6.99</ele><time>2025-05-26T18:46:00Z</time></trkpt>
<trkpt lat="51.034256" lon="3.87376"><ele>5.17</ele><time>2025-05-26T18:46:05Z</time></trkpt>
<trkpt lat="51.034746" lon="3.873359"><ele>3.91</ele><time>2025-05-26T18:46:10Z</time></trkpt>
<trkpt lat="51.034788" lon="3.873303"><ele>3.68</ele><time>2025-05-26T18:46:15Z</time></trkpt>
<trkpt lat="51.035057" lon="3.87355"><ele>3.2</ele><time>2025-05-26T18:46:17Z</time></trkpt>
<trkpt lat="51.035193" lon="3.87373"><ele>3.53</ele><time>2025-05-26T18:46:18Z</time></trkpt>
<trkpt lat="51.035292" lon="3.873463"><ele>4.05</ele><time>2025-05-26T18:46:25Z</time></trkpt>
<trkpt lat="51.035249" lon="3.873069"><ele>4.75</ele><time>2025-05-26T18:46:31Z</time></trkpt>
<trkpt lat="51.03543" lon="3.870989"><ele>7.0</ele><time>2025-05-26T18:46:38Z</time></trkpt>
<trkpt lat="51.035438" lon="3.870712"><ele>7.0</ele><time>2025-05-26T18:46:44Z</time></trkpt>
<trkpt lat="51.035388" lon="3.869258"><ele>6.2</ele><time>2025-05-26T18:46:51Z</time></trkpt>
<trkpt lat="51.035393" lon="3.869099"><ele>5.86</ele><time>2025-05-26T18:46:57Z</time></trkpt>
<trkpt lat="51.035436" lon="3.868752"><ele>4.86</ele><time>2025-05-26T18:47:04Z</time></trkpt>
<trkpt lat="51.035788" lon="3.867759"><ele>4.78</ele><time>2025-05-26T18:47:10Z</time></trkpt>
<trkpt lat="51.03636" lon="3.865745"><ele>4.89</ele><time>2025-05-26T18:47:17Z</time></trkpt>
<trkpt lat="51.036451" lon="3.865581"><ele>5.0</ele><time>2025-05-26T18:47:23Z</time></trkpt>
<trkpt lat="51.036588" lon="3.86543"><ele>4.68</ele><time>2025-05-26T18:47:30Z</time></trkpt>
<trkpt lat="51.036911" lon="3.865011"><ele>2.28</ele><time>2025-05-26T18:47:36Z</time></trkpt>
<trkpt lat="51.037132" lon="3.864635"><ele>2.32</ele><time>2025-05-26T18:47:43Z</time></trkpt>
<trkpt lat="51.037291" lon="3.864457"><ele>2.44</ele><time>2025-05-26T18:47:49Z</time></trkpt>
<trkpt lat="51.037291" lon="3.864457"><ele>2.44</ele><time>2025-05-26T18:47:49Z</time></trkpt>
<trkpt lat="51.037132" lon="3.864635"><ele>2.32</ele><time>2025-05-26T18:47:55Z</time></trkpt>
<trkpt lat="51.036911" lon="3.865011"><ele>2.28</ele><time>2025-05-26T18:48:00Z</time></trkpt>
<trkpt lat="51.036588" lon="3.86543"><ele>4.68</ele><time>2025-05-26T18:48:05Z</time></trkpt>
<trkpt lat="51.036451" lon="3.865581"><ele>5.0</ele><time>2025-05-26T18:48:11Z</time></trkpt>
<trkpt lat="51.03636" lon="3.865745"><ele>4.89</ele><time>2025-05-26T18:48:16Z</time></trkpt>
<trkpt lat="51.035788" lon="3.867759"><ele>4.78</ele><time>2025-05-26T18:48:22Z</time></trkpt>
<trkpt lat="51.035436" lon="3.868752"><ele>4.86</ele><time>2025-05-26T18:48:27Z</time></trkpt>
<trkpt lat="51.035393" lon="3.869099"><ele>5.86</ele><time>2025-05-26T18:48:32Z</time></trkpt>
<trkpt lat="51.035388" lon="3.869258"><ele>6.2</ele><time>2025-05-26T18:48:38Z</time></trkpt>
<trkpt lat="51.035438" lon="3.870712"><ele>7.0</ele><time>2025-05-26T18:48:43Z</time></trkpt>
<trkpt lat="51.03543" lon="3.870989"><ele>7.0</ele><time>2025-05-26T18:48:49Z</time></trkpt>
<trkpt lat="51.035249" lon="3.873069"><ele>4.75</ele><time>2025-05-26T18:48:54Z</time></trkpt>
<trkpt lat="51.035292" lon="3.873463"><ele>4.05</ele><time>2025-05-26T18:49:00Z</time></trkpt>
<trkpt lat="51.035193" lon="3.87373"><ele>3.53</ele><time>2025-05-26T18:49:05Z</time></trkpt>
<trkpt lat="51.035486" lon="3.874217"><ele>3.79</ele><time>2025-05-26T18:49:09Z</time></trkpt>
<trkpt lat="51.036216" lon="3.875639"><ele>4.38</ele><time>2025-05-26T18:49:12Z</time></trkpt>
<trkpt lat="51.036396" lon="3.875901"><ele>4.76</ele><time>2025-05-26T18:49:16Z</time></trkpt>
<trkpt lat="51.036589" lon="3.876109"><ele>4.01</ele><time>2025-05-26T18:49:19Z</time></trkpt>
<trkpt lat="51.036793" lon="3.876264"><ele>4.45</ele><time>2025-05-26T18:49:23Z</time></trkpt>
<trkpt lat="51.03707" lon="3.876399"><ele>4.96</ele><time>2025-05-26T18:49:26Z</time></trkpt>
<trkpt lat="51.037521" lon="3.87657"><ele>4.35</ele><time>2025-05-26T18:49:30Z</time></trkpt>
<trkpt lat="51.038236" lon="3.87688"><ele>5.0</ele><time>2025-05-26T18:49:33Z</time></trkpt>
<trkpt lat="51.038346" lon="3.876953"><ele>5.0</ele><time>2025-05-26T18:49:37Z</time></trkpt>
<trkpt lat="51.038532" lon="3.877129"><ele>5.47</ele><time>2025-05-26T18:49:40Z</time></trkpt>
<trkpt lat="51.039433" lon="3.878312"><ele>4.08</ele><time>2025-05-26T18:49:44Z</time></trkpt>
<trkpt lat="51.0398" lon="3.878865"><ele>4.37</ele><time>2025-05-26T18:49:48Z</time></trkpt>
<trkpt lat="51.040739" lon="3.880462"><ele>5.34</ele><time>2025-05-26T18:49:51Z</time></trkpt>
<trkpt lat="51.041126" lon="3.880899"><ele>4.99</ele><time>2025-05-26T18:49:55Z</time></trkpt>
<trkpt lat="51.042589" lon="3.881921"><ele>3.32</ele><time>2025-05-26T18:49:58Z</time></trkpt>
<trkpt lat="51.043001" lon="3.879502"><ele>4.8</ele><time>2025-05-26T18:50:09Z</time></trkpt>
<trkpt lat="51.049471" lon="3.880824"><ele>5.0</ele><time>2025-05-26T18:50:18Z</time></trkpt>
<trkpt lat="51.050227" lon="3.880907"><ele>2.96</ele><time>2025-05-26T18:50:26Z</time></trkpt>
<trkpt lat="51.051821" lon="3.881016"><ele>7.15</ele><time>2025-05-26T18:50:35Z</time></trkpt>
<trkpt lat="51.052709" lon="3.881207"><ele>6.0</ele><time>2025-05-26T18:50:43Z</time></trkpt>
<trkpt lat="51.053136" lon="3.881276"><ele>6.0</ele><time>2025-05-26T18:50:52Z</time></trkpt>
<trkpt lat="51.053614" lon="3.881311"><ele>5.0</ele><time>2025-05-26T18:51:00Z</time></trkpt>
<trkpt lat="51.055248" lon="3.881305"><ele>4.89</ele><time>2025-05-26T18:51:08Z</time></trkpt>
<trkpt lat="51.056752" lon="3.881329"><ele>5.0</ele><time>2025-05-26T18:51:17Z</time></trkpt>
<trkpt lat="51.060483" lon="3.881168"><ele>6.53</ele><time>2025-05-26T18:51:25Z</time></trkpt>
<trkpt lat="51.06189" lon="3.881156"><ele>3.0</ele><time>2025-05-26T18:51:34Z</time></trkpt>
<trkpt lat="51.062946" lon="3.88107"><ele>5.09</ele><time>2025-05-26T18:51:42Z</time></trkpt>
<trkpt lat="51.063966" lon="3.880819"><ele>4.72</ele><time>2025-05-26T18:51:51Z</time></trkpt>
<trkpt lat="51.064168" lon="3.88077"><ele>4.0</ele><time>2025-05-26T18:51:59Z</time></trkpt>
<trkpt lat="51.066366" lon="3.880192"><ele>9.0</ele><time>2025-05-26T18:52:08Z</time></trkpt>
<trkpt lat="51.066718" lon="3.880109"><ele>7.81</ele><time>2025-05-26T18:52:16Z</time></trkpt>
<trkpt lat="51.066873" lon="3.880095"><ele>7.26</ele><time>2025-05-26T18:52:25Z</time></trkpt>
<trkpt lat="51.067166" lon="3.880137"><ele>7.8</ele><time>2025-05-26T18:52:33Z</time></trkpt>
<trkpt lat="51.067342" lon="3.880193"><ele>8.0</ele><time>2025-05-26T18:52:41Z</time></trkpt>
<trkpt lat="51.067492" lon="3.88027"><ele>8.0</ele><time>2025-05-26T18:52:50Z</time></trkpt>
<trkpt lat="51.068267" lon="3.880873"><ele>6.86</ele><time>2025-05-26T18:52:58Z</time></trkpt>
<trkpt lat="51.068722" lon="3.881153"><ele>5.6</ele><time>2025-05-26T18:53:07Z</time></trkpt>
<trkpt lat="51.069159" lon="3.881321"><ele>4.76</ele><time>2025-05-26T18:53:15Z</time></trkpt>
<trkpt lat="51.06949" lon="3.881375"><ele>4.96</ele><time>2025-05-26T18:53:24Z</time></trkpt>
<trkpt lat="51.069679" lon="3.879631"><ele>5.0</ele><time>2025-05-26T18:53:40Z</time></trkpt>
<trkpt lat="51.069717" lon="3.879046"><ele>5.0</ele><time>2025-05-26T18:53:55Z</time></trkpt>
<trkpt lat="51.069392" lon="3.877494"><ele>5.0</ele><time>2025-05-26T18:54:11Z</time></trkpt>
<trkpt lat="51.068921" lon="3.875554"><ele>4.12</ele><time>2025-05-26T18:54:27Z</time></trkpt>
<trkpt lat="51.068695" lon="3.87401"><ele>6.7</ele><time>2025-05-26T18:54:42Z</time></trkpt>
<trkpt lat="51.068652" lon="3.873879"><ele>6.86</ele><time>2025-05-26T18:54:58Z</time></trkpt>
<trkpt lat="51.068022" lon="3.872735"><ele>5.85</ele><time>2025-05-26T18:55:14Z</time></trkpt>
<trkpt lat="51.067725" lon="3.87209"><ele>4.52</ele><time>2025-05-26T18:55:30Z</time></trkpt>
<trkpt lat="51.067434" lon="3.871409"><ele>4.24</ele><time>2025-05-26T18:55:45Z</time></trkpt>
<trkpt lat="51.067151" lon="3.870695"><ele>6.26</ele><time>2025-05-26T18:56:01Z</time></trkpt>
<trkpt lat="51.066977" lon="3.87019"><ele>9.2</ele><time>2025-05-26T18:56:17Z</time></trkpt>
<trkpt lat="51.067744" lon="3.869555"><ele>9.25</ele><time>2025-05-26T18:56:26Z</time></trkpt>
<trkpt lat="51.067769" lon="3.869434"><ele>10.0</ele><time>2025-05-26T18:56:35Z</time></trkpt>
<trkpt lat="51.067779" lon="3.869212"><ele>9.99</ele><time>2025-05-26T18:56:44Z</time></trkpt>
<trkpt lat="51.067652" lon="3.868346"><ele>9.47</ele><time>2025-05-26T18:56:53Z</time></trkpt>
<trkpt lat="51.067501" lon="3.867863"><ele>8.3</ele><time>2025-05-26T18:57:02Z</time></trkpt>
<trkpt lat="51.066978" lon="3.866545"><ele>9.82</ele><time>2025-05-26T18:57:12Z</time></trkpt>
<trkpt lat="51.067306" lon="3.866167"><ele>7.99</ele><time>2025-05-26T18:57:19Z</time></trkpt>
<trkpt lat="51.067306" lon="3.866167"><ele>7.99</ele><time>2025-05-26T18:57:19Z</time></trkpt>
<trkpt lat="51.06828" lon="3.865045"><ele>6.16</ele><time>2025-05-26T18:57:28Z</time></trkpt>
<trkpt lat="51.068354" lon="3.864947"><ele>5.85</ele><time>2025-05-26T18:57:38Z</time></trkpt>
<trkpt lat="51.068406" lon="3.864821"><ele>5.47</ele><time>2025-05-26T18:57:47Z</time></trkpt>
<trkpt lat="51.068837" lon="3.862278"><ele>6.84</ele><time>2025-05-26T18:57:57Z</time></trkpt>
<trkpt lat="51.068791" lon="3.861937"><ele>7.0</ele><time>2025-05-26T18:58:06Z</time></trkpt>
<trkpt lat="51.068696" lon="3.861573"><ele>6.66</ele><time>2025-05-26T18:58:16Z</time></trkpt>
<trkpt lat="51.068703" lon="3.861418"><ele>6.1</ele><time>2025-05-26T18:58:26Z</time></trkpt>
<trkpt lat="51.067199" lon="3.860151"><ele>4.58</ele><time>2025-05-26T18:58:49Z</time></trkpt>
<trkpt lat="51.066825" lon="3.859383"><ele>5.0</ele><time>2025-05-26T18:59:13Z</time></trkpt>
<trkpt lat="51.066346" lon="3.858462"><ele>5.0</ele><time>2025-05-26T18:59:37Z</time></trkpt>
<trkpt lat="51.066239" lon="3.858318"><ele>4.94</ele><time>2025-05-26T19:00:01Z</time></trkpt>
<trkpt lat="51.065675" lon="3.857872"><ele>4.24</ele><time>2025-05-26T19:00:25Z</time></trkpt>
<trkpt lat="51.064866" lon="3.857145"><ele>7.72</ele><time>2025-05-26T19:00:48Z</time></trkpt>
<trkpt lat="51.064063" lon="3.856382"><ele>7.37</ele><time>2025-05-26T19:01:12Z</time></trkpt>
<trkpt lat="51.063159" lon="3.855676"><ele>9.0</ele><time>2025-05-26T19:01:36Z</time></trkpt>
<trkpt lat="51.06262" lon="3.855181"><ele>7.86</ele><time>2025-05-26T19:02:00Z</time></trkpt>
<trkpt lat="51.062114" lon="3.854891"><ele>6.47</ele><time>2025-05-26T19:02:24Z</time></trkpt>
<trkpt lat="51.061861" lon="3.854786"><ele>6.69</ele><time>2025-05-26T19:02:48Z</time></trkpt>
<trkpt lat="51.061628" lon="3.85466"><ele>6.53</ele><time>2025-05-26T19:03:11Z</time></trkpt>
<trkpt lat="51.060835" lon="3.854188"><ele>3.92</ele><time>2025-05-26T19:03:35Z</time></trkpt>
<trkpt lat="51.060419" lon="3.853794"><ele>5.66</ele><time>2025-05-26T19:03:59Z</time></trkpt>
<trkpt lat="51.059978" lon="3.853274"><ele>7.14</ele><time>2025-05-26T19:04:23Z</time></trkpt>
<trkpt lat="51.058852" lon="3.851843"><ele>5.91</ele><time>2025-05-26T19:04:47Z</time></trkpt>
<trkpt lat="51.057584" lon="3.850087"><ele>6.3</ele><time>2025-05-26T19:05:11Z</time></trkpt>
<trkpt lat="51.057463" lon="3.849889"><ele>5.57</ele><time>2025-05-26T19:05:34Z</time></trkpt>
<trkpt lat="51.057388" lon="3.849624"><ele>5.4</ele><time>2025-05-26T19:05:58Z</time></trkpt>
<trkpt lat="51.057027" lon="3.847323"><ele>8.41</ele><time>2025-05-26T19:06:22Z</time></trkpt>
<trkpt lat="51.056878" lon="3.84658"><ele>8.17</ele><time>2025-05-26T19:06:46Z</time></trkpt>
<trkpt lat="51.057009" lon="3.846143"><ele>8.37</ele><time>2025-05-26T19:07:10Z</time></trkpt>
<trkpt lat="51.057009" lon="3.846143"><ele>8.37</ele><time>2025-05-26T19:07:10Z</time></trkpt>
<trkpt lat="51.057743" lon="3.843708"><ele>8.57</ele><time>2025-05-26T19:07:15Z</time></trkpt>
<trkpt lat="51.057745" lon="3.843606"><ele>7.85</ele><time>2025-05-26T19:07:19Z</time></trkpt>
<trkpt lat="51.057714" lon="3.843482"><ele>6.95</ele><time>2025-05-26T19:07:24Z</time></trkpt>
<trkpt lat="51.057648" lon="3.843363"><ele>6.16</ele><time>2025-05-26T19:07:29Z</time></trkpt>
<trkpt lat="51.057552" lon="3.843266"><ele>5.76</ele><time>2025-05-26T19:07:33Z</time></trkpt>
<trkpt lat="51.057675" lon="3.84244"><ele>4.0</ele><time>2025-05-26T19:07:40Z</time></trkpt>
<trkpt lat="51.057718" lon="3.841668"><ele>3.0</ele><time>2025-05-26T19:07:46Z</time></trkpt>
<trkpt lat="51.057736" lon="3.840246"><ele>7.11</ele><time>2025-05-26T19:07:52Z</time></trkpt>
<trkpt lat="51.057802" lon="3.839358"><ele>7.89</ele><time>2025-05-26T19:07:58Z</time></trkpt>
<trkpt lat="51.057882" lon="3.83892"><ele>7.25</ele><time>2025-05-26T19:08:04Z</time></trkpt>
<trkpt lat="51.058018" lon="3.838458"><ele>5.2</ele><time>2025-05-26T19:08:10Z</time></trkpt>
<trkpt lat="51.059633" lon="3.834485"><ele>5.97</ele><time>2025-05-26T19:08:16Z</time></trkpt>
<trkpt lat="51.060924" lon="3.831503"><ele>5.32</ele><time>2025-05-26T19:08:22Z</time></trkpt>
<trkpt lat="51.061041" lon="3.831038"><ele>5.81</ele><time>2025-05-26T19:08:28Z</time></trkpt>
<trkpt lat="51.061079" lon="3.830756"><ele>6.0</ele><time>2025-05-26T19:08:34Z</time></trkpt>
<trkpt lat="51.061103" lon="3.830345"><ele>6.02</ele><time>2025-05-26T19:08:40Z</time></trkpt>
<trkpt lat="51.061097" lon="3.830134"><ele>6.05</ele><time>2025-05-26T19:08:46Z</time></trkpt>
<trkpt lat="51.061072" lon="3.82987"><ele>5.74</ele><time>2025-05-26T19:08:52Z</time></trkpt>
<trkpt lat="51.061025" lon="3.829652"><ele>5.62</ele><time>2025-05-26T19:08:58Z</time></trkpt>
<trkpt lat="51.060747" lon="3.828794"><ele>6.97</ele><time>2025-05-26T19:09:04Z</time></trkpt>
<trkpt lat="51.060038" lon="3.82639"><ele>7.0</ele><time>2025-05-26T19:09:10Z</time></trkpt>
<trkpt lat="51.059913" lon="3.825826"><ele>6.37</ele><time>2025-05-26T19:09:16Z</time></trkpt>
<trkpt lat="51.059776" lon="3.824896"><ele>5.49</ele><time>2025-05-26T19:09:22Z</time></trkpt>
<trkpt lat="51.059781" lon="3.824805"><ele>5.76</ele><time>2025-05-26T19:09:28Z</time></trkpt>
<trkpt lat="51.059649" lon="3.823718"><ele>5.57</ele><time>2025-05-26T19:09:34Z</time></trkpt>
<trkpt lat="51.059247" lon="3.820932"><ele>6.75</ele><time>2025-05-26T19:09:40Z</time></trkpt>
<trkpt lat="51.059165" lon="3.820378"><ele>7.63</ele><time>2025-05-26T19:09:46Z</time></trkpt>
<trkpt lat="51.059214" lon="3.820303"><ele>7.91</ele><time>2025-05-26T19:09:56Z</time></trkpt>
<trkpt lat="51.059231" lon="3.820212"><ele>8.0</ele><time>2025-05-26T19:10:06Z</time></trkpt>
<trkpt lat="51.059426" lon="3.820178"><ele>8.0</ele><time>2025-05-26T19:10:16Z</time></trkpt>
<trkpt lat="51.061656" lon="3.819322"><ele>6.94</ele><time>2025-05-26T19:10:25Z</time></trkpt>
<trkpt lat="51.06185" lon="3.819178"><ele>7.0</ele><time>2025-05-26T19:10:35Z</time></trkpt>
<trkpt lat="51.062067" lon="3.818925"><ele>6.56</ele><time>2025-05-26T19:10:45Z</time></trkpt>
<trkpt lat="51.062668" lon="3.818001"><ele>6.39</ele><time>2025-05-26T19:10:55Z</time></trkpt>
<trkpt lat="51.062868" lon="3.817765"><ele>5.66</ele><time>2025-05-26T19:11:04Z</time></trkpt>
<trkpt lat="51.06581" lon="3.815851"><ele>6.16</ele><time>2025-05-26T19:11:14Z</time></trkpt>
<trkpt lat="51.065835" lon="3.815902"><ele>5.99</ele><time>2025-05-26T19:11:28Z</time></trkpt>
<trkpt lat="51.06588" lon="3.815928"><ele>5.83</ele><time>2025-05-26T19:11:42Z</time></trkpt>
<trkpt lat="51.065928" lon="3.815909"><ele>5.66</ele><time>2025-05-26T19:11:55Z</time></trkpt>
<trkpt lat="51.065953" lon="3.815869"><ele>5.57</ele><time>2025-05-26T19:12:09Z</time></trkpt>
<trkpt lat="51.066659" lon="3.817946"><ele>5.03</ele><time>2025-05-26T19:12:23Z</time></trkpt>
<trkpt lat="51.066742" lon="3.818289"><ele>5.27</ele><time>2025-05-26T19:12:37Z</time></trkpt>
<trkpt lat="51.06885" lon="3.824646"><ele>7.86</ele><time>2025-05-26T19:12:51Z</time></trkpt>
<trkpt lat="51.070907" lon="3.83079"><ele>6.47</ele><time>2025-05-26T19:13:04Z</time></trkpt>
<trkpt lat="51.070907" lon="3.83079"><ele>6.47</ele><time>2025-05-26T19:13:04Z</time></trkpt>
<trkpt lat="51.072906" lon="3.83682"><ele>6.07</ele><time>2025-05-26T19:13:20Z</time></trkpt>
<trkpt lat="51.074016" lon="3.840098"><ele>6.0</ele><time>2025-05-26T19:13:35Z</time></trkpt>
<trkpt lat="51.074163" lon="3.840401"><ele>5.55</ele><time>2025-05-26T19:13:51Z</time></trkpt>
<trkpt lat="51.074417" lon="3.840805"><ele>5.0</ele><time>2025-05-26T19:14:06Z</time></trkpt>
<trkpt lat="51.074697" lon="3.841518"><ele>5.51</ele><time>2025-05-26T19:14:22Z</time></trkpt>
<trkpt lat="51.074871" lon="3.842057"><ele>6.41</ele><time>2025-05-26T19:14:37Z</time></trkpt>
<trkpt lat="51.075151" lon="3.843207"><ele>9.0</ele><time>2025-05-26T19:14:53Z</time></trkpt>
<trkpt lat="51.075302" lon="3.843865"><ele>7.17</ele><time>2025-05-26T19:15:08Z</time></trkpt>
<trkpt lat="51.076959" lon="3.85105"><ele>9.1</ele><time>2025-05-26T19:15:24Z</time></trkpt>
<trkpt lat="51.07875" lon="3.860199"><ele>5.0</ele><time>2025-05-26T19:15:40Z</time></trkpt>
<trkpt lat="51.079359" lon="3.863445"><ele>4.59</ele><time>2025-05-26T19:15:55Z</time></trkpt>
<trkpt lat="51.079431" lon="3.86397"><ele>6.0</ele><time>2025-05-26T19:16:11Z</time></trkpt>
<trkpt lat="51.079476" lon="3.864509"><ele>5.89</ele><time>2025-05-26T19:16:26Z</time></trkpt>
<trkpt lat="51.0798" lon="3.870995"><ele>6.0</ele><time>2025-05-26T19:16:42Z</time></trkpt>
<trkpt lat="51.079908" lon="3.873138"><ele>8.67</ele><time>2025-05-26T19:16:57Z</time></trkpt>
<trkpt lat="51.079961" lon="3.873963"><ele>9.86</ele><time>2025-05-26T19:17:13Z</time></trkpt>
<trkpt lat="51.080023" lon="3.875783"><ele>8.92</ele><time>2025-05-26T19:17:28Z</time></trkpt>
<trkpt lat="51.080028" lon="3.87776"><ele>6.91</ele><time>2025-05-26T19:17:44Z</time></trkpt>
<trkpt lat="51.080013" lon="3.878522"><ele>7.98</ele><time>2025-05-26T19:17:59Z</time></trkpt>
<trkpt lat="51.08006" lon="3.879074"><ele>8.22</ele><time>2025-05-26T19:18:15Z</time></trkpt>
<trkpt lat="51.080112" lon="3.880675"><ele>7.4</ele><time>2025-05-26T19:18:30Z</time></trkpt>
<trkpt lat="51.080669" lon="3.880634"><ele>7.0</ele><time>2025-05-26T19:18:42Z</time></trkpt>
<trkpt lat="51.081221" lon="3.880639"><ele>9.0</ele><time>2025-05-26T19:18:55Z</time></trkpt>
<trkpt lat="51.08233" lon="3.880552"><ele>6.62</ele><time>2025-05-26T19:19:07Z</time></trkpt>
<trkpt lat="51.083036" lon="3.880487"><ele>5.23</ele><time>2025-05-26T19:19:19Z</time></trkpt>
<trkpt lat="51.085951" lon="3.880126"><ele>11.44</ele><time>2025-05-26T19:19:31Z</time></trkpt>
<trkpt lat="51.086385" lon="3.88007"><ele>8.77</ele><time>2025-05-26T19:19:43Z</time></trkpt>
<trkpt lat="51.086863" lon="3.879972"><ele>7.39</ele><time>2025-05-26T19:19:56Z</time></trkpt>
<trkpt lat="51.087293" lon="3.879846"><ele>6.6</ele><time>2025-05-26T19:20:08Z</time></trkpt>
<trkpt lat="51.089008" lon="3.879136"><ele>5.0</ele><time>2025-05-26T19:20:20Z</time></trkpt>
<trkpt lat="51.093829" lon="3.877163"><ele>6.09</ele><time>2025-05-26T19:20:32Z</time></trkpt>
<trkpt lat="51.093953" lon="3.877513"><ele>6.35</ele><time>2025-05-26T19:20:47Z</time></trkpt>
<trkpt lat="51.094007" lon="3.877619"><ele>6.15</ele><time>2025-05-26T19:21:02Z</time></trkpt>
<trkpt lat="51.09459" lon="3.879677"><ele>7.56</ele><time>2025-05-26T19:21:17Z</time></trkpt>
<trkpt lat="51.094756" lon="3.880332"><ele>5.68</ele><time>2025-05-26T19:21:32Z</time></trkpt>
<trkpt lat="51.096664" lon="3.88893"><ele>4.0</ele><time>2025-05-26T19:21:47Z</time></trkpt>
<trkpt lat="51.097141" lon="3.891173"><ele>6.29</ele><time>2025-05-26T19:22:01Z</time></trkpt>
<trkpt lat="51.097351" lon="3.89206"><ele>5.73</ele><time>2025-05-26T19:22:16Z</time></trkpt>
<trkpt lat="51.097412" lon="3.892428"><ele>6.0</ele><time>2025-05-26T19:22:31Z</time></trkpt>
<trkpt lat="51.097631" lon="3.894964"><ele>6.0</ele><time>2025-05-26T19:22:46Z</time></trkpt>
<trkpt lat="51.097708" lon="3.896322"><ele>5.25</ele><time>2025-05-26T19:23:01Z</time></trkpt>
<trkpt lat="51.097785" lon="3.897847"><ele>5.03</ele><time>2025-05-26T19:23:16Z</time></trkpt>
<trkpt lat="51.097876" lon="3.90075"><ele>5.64</ele><time>2025-05-26T19:23:30Z</time></trkpt>
<trkpt lat="51.09806" lon="3.904191"><ele>5.9</ele><time>2025-05-26T19:23:45Z</time></trkpt>
<trkpt lat="51.098095" lon="3.905031"><ele>6.0</ele><time>2025-05-26T19:24:00Z</time></trkpt>
<trkpt lat="51.098097" lon="3.905081"><ele>6.0</ele><time>2025-05-26T19:24:15Z</time></trkpt>
<trkpt lat="51.098097" lon="3.905081"><ele>6.0</ele><time>2025-05-26T19:24:15Z</time></trkpt>
<trkpt lat="51.098095" lon="3.905031"><ele>6.0</ele><time>2025-05-26T19:24:31Z</time></trkpt>
<trkpt lat="51.09806" lon="3.904191"><ele>5.9</ele><time>2025-05-26T19:24:47Z</time></trkpt>
<trkpt lat="51.097876" lon="3.90075"><ele>5.64</ele><time>2025-05-26T19:25:03Z</time></trkpt>
<trkpt lat="51.097785" lon="3.897847"><ele>5.03</ele><time>2025-05-26T19:25:18Z</time></trkpt>
<trkpt lat="51.097708" lon="3.896322"><ele>5.25</ele><time>2025-05-26T19:25:34Z</time></trkpt>
<trkpt lat="51.097631" lon="3.894964"><ele>6.0</ele><time>2025-05-26T19:25:50Z</time></trkpt>
<trkpt lat="51.097412" lon="3.892428"><ele>6.0</ele><time>2025-05-26T19:26:06Z</time></trkpt>
<trkpt lat="51.097351" lon="3.89206"><ele>5.73</ele><time>2025-05-26T19:26:22Z</time></trkpt>
<trkpt lat="51.097141" lon="3.891173"><ele>6.29</ele><time>2025-05-26T19:26:38Z</time></trkpt>
<trkpt lat="51.096664" lon="3.88893"><ele>4.0</ele><time>2025-05-26T19:26:54Z</time></trkpt>
<trkpt lat="51.094756" lon="3.880332"><ele>5.68</ele><time>2025-05-26T19:27:10Z</time></trkpt>
<trkpt lat="51.09459" lon="3.879677"><ele>7.56</ele><time>2025-05-26T19:27:25Z</time></trkpt>
<trkpt lat="51.094007" lon="3.877619"><ele>6.15</ele><time>2025-05-26T19:27:41Z</time></trkpt>
<trkpt lat="51.093973" lon="3.8771"><ele>5.09</ele><time>2025-05-26T19:27:57Z</time></trkpt>
<trkpt lat="51.094061" lon="3.877065"><ele>6.23</ele><time>2025-05-26T19:27:58Z</time></trkpt>
<trkpt lat="51.094061" lon="3.877065"><ele>6.23</ele><time>2025-05-26T19:27:58Z</time></trkpt>
<trkpt lat="51.095477" lon="3.876491"><ele>7.37</ele><time>2025-05-26T19:28:04Z</time></trkpt>
<trkpt lat="51.097057" lon="3.875818"><ele>5.03</ele><time>2025-05-26T19:28:10Z</time></trkpt>
<trkpt lat="51.097714" lon="3.875524"><ele>6.03</ele><time>2025-05-26T19:28:16Z</time></trkpt>
<trkpt lat="51.098006" lon="3.875338"><ele>5.82</ele><time>2025-05-26T19:28:22Z</time></trkpt>
<trkpt lat="51.098339" lon="3.875035"><ele>4.98</ele><time>2025-05-26T19:28:28Z</time></trkpt>
<trkpt lat="51.098609" lon="3.874705"><ele>5.0</ele><time>2025-05-26T19:28:34Z</time></trkpt>
<trkpt lat="51.099014" lon="3.874086"><ele>4.55</ele><time>2025-05-26T19:28:41Z</time></trkpt>
<trkpt lat="51.099589" lon="3.873113"><ele>4.07</ele><time>2025-05-26T19:28:47Z</time></trkpt>
<trkpt lat="51.099831" lon="3.87274"><ele>2.95</ele><time>2025-05-26T19:28:53Z</time></trkpt>
<trkpt lat="51.100459" lon="3.871958"><ele>3.95</ele><time>2025-05-26T19:28:59Z</time></trkpt>
<trkpt lat="51.100887" lon="3.871526"><ele>4.7</ele><time>2025-05-26T19:29:05Z</time></trkpt>
<trkpt lat="51.10133" lon="3.871182"><ele>4.25</ele><time>2025-05-26T19:29:11Z</time></trkpt>
<trkpt lat="51.101703" lon="3.870951"><ele>4.5</ele><time>2025-05-26T19:29:17Z</time></trkpt>
<trkpt lat="51.10557" lon="3.869085"><ele>6.95</ele><time>2025-05-26T19:29:23Z</time></trkpt>
<trkpt lat="51.105645" lon="3.868983"><ele>6.68</ele><time>2025-05-26T19:29:29Z</time></trkpt>
<trkpt lat="51.105616" lon="3.868904"><ele>6.88</ele><time>2025-05-26T19:29:30Z</time></trkpt>
<trkpt lat="51.105616" lon="3.868904"><ele>6.88</ele><time>2025-05-26T19:29:30Z</time></trkpt>
<trkpt lat="51.10471" lon="3.866421"><ele>7.09</ele><time>2025-05-26T19:29:45Z</time></trkpt>
<trkpt lat="51.104668" lon="3.866349"><ele>7.39</ele><time>2025-05-26T19:30:00Z</time></trkpt>
<trkpt lat="51.103127" lon="3.861967"><ele>6.74</ele><time>2025-05-26T19:30:15Z</time></trkpt>
<trkpt lat="51.103052" lon="3.861717"><ele>7.0</ele><time>2025-05-26T19:30:30Z</time></trkpt>
<trkpt lat="51.102891" lon="3.861097"><ele>6.97</ele><time>2025-05-26T19:30:44Z</time></trkpt>
<trkpt lat="51.102793" lon="3.86062"><ele>6.05</ele><time>2025-05-26T19:30:59Z</time></trkpt>
<trkpt lat="51.101776" lon="3.855246"><ele>4.74</ele><time>2025-05-26T19:31:14Z</time></trkpt>
<trkpt lat="51.101642" lon="3.854632"><ele>4.09</ele><time>2025-05-26T19:31:29Z</time></trkpt>
<trkpt lat="51.100245" lon="3.849004"><ele>6.05</ele><time>2025-05-26T19:31:44Z</time></trkpt>
<trkpt lat="51.100237" lon="3.848836"><ele>6.0</ele><time>2025-05-26T19:31:59Z</time></trkpt>
<trkpt lat="51.100116" lon="3.848349"><ele>6.0</ele><time>2025-05-26T19:32:14Z</time></trkpt>
<trkpt lat="51.099638" lon="3.846412"><ele>6.28</ele><time>2025-05-26T19:32:29Z</time></trkpt>
<trkpt lat="51.09894" lon="3.843626"><ele>6.01</ele><time>2025-05-26T19:32:44Z</time></trkpt>
<trkpt lat="51.098807" lon="3.842999"><ele>6.3</ele><time>2025-05-26T19:32:59Z</time></trkpt>
<trkpt lat="51.098232" lon="3.840663"><ele>8.0</ele><time>2025-05-26T19:33:14Z</time></trkpt>
<trkpt lat="51.097243" lon="3.836719"><ele>7.93</ele><time>2025-05-26T19:33:29Z</time></trkpt>
<trkpt lat="51.096251" lon="3.833022"><ele>9.0</ele><time>2025-05-26T19:33:44Z</time></trkpt>
<trkpt lat="51.095905" lon="3.831583"><ele>9.7</ele><time>2025-05-26T19:33:59Z</time></trkpt>
<trkpt lat="51.095758" lon="3.830794"><ele>8.27</ele><time>2025-05-26T19:34:14Z</time></trkpt>
<trkpt lat="51.094342" lon="3.825099"><ele>9.63</ele><time>2025-05-26T19:34:28Z</time></trkpt>
<trkpt lat="51.094145" lon="3.824401"><ele>8.84</ele><time>2025-05-26T19:34:43Z</time></trkpt>
<trkpt lat="51.093467" lon="3.822383"><ele>7.77</ele><time>2025-05-26T19:34:58Z</time></trkpt>
<trkpt lat="51.093467" lon="3.822383"><ele>7.77</ele><time>2025-05-26T19:34:58Z</time></trkpt>
<trkpt lat="51.093453" lon="3.822344"><ele>7.57</ele><time>2025-05-26T19:34:59Z</time></trkpt>
<trkpt lat="51.094513" lon="3.821655"><ele>4.71</ele><time>2025-05-26T19:35:04Z</time></trkpt>
<trkpt lat="51.094684" lon="3.821565"><ele>3.77</ele><time>2025-05-26T19:35:10Z</time></trkpt>
<trkpt lat="51.094837" lon="3.821514"><ele>4.32</ele><time>2025-05-26T19:35:15Z</time></trkpt>
<trkpt lat="51.095071" lon="3.821439"><ele>6.08</ele><time>2025-05-26T19:35:21Z</time></trkpt>
<trkpt lat="51.095112" lon="3.821547"><ele>5.83</ele><time>2025-05-26T19:35:29Z</time></trkpt>
<trkpt lat="51.095185" lon="3.821597"><ele>5.92</ele><time>2025-05-26T19:35:37Z</time></trkpt>
<trkpt lat="51.095262" lon="3.821568"><ele>6.3</ele><time>2025-05-26T19:35:45Z</time></trkpt>
<trkpt lat="51.09532" lon="3.821441"><ele>6.81</ele><time>2025-05-26T19:35:54Z</time></trkpt>
<trkpt lat="51.095485" lon="3.821529"><ele>6.5</ele><time>2025-05-26T19:36:02Z</time></trkpt>
<trkpt lat="51.096274" lon="3.821148"><ele>5.0</ele><time>2025-05-26T19:36:10Z</time></trkpt>
<trkpt lat="51.098757" lon="3.819654"><ele>5.47</ele><time>2025-05-26T19:36:18Z</time></trkpt>
<trkpt lat="51.099558" lon="3.819184"><ele>5.53</ele><time>2025-05-26T19:36:26Z</time></trkpt>
<trkpt lat="51.099743" lon="3.819104"><ele>5.3</ele><time>2025-05-26T19:36:35Z</time></trkpt>
<trkpt lat="51.100105" lon="3.819083"><ele>6.3</ele><time>2025-05-26T19:36:43Z</time></trkpt>
<trkpt lat="51.100442" lon="3.819154"><ele>5.43</ele><time>2025-05-26T19:36:51Z</time></trkpt>
<trkpt lat="51.100994" lon="3.81931"><ele>3.94</ele><time>2025-05-26T19:36:59Z</time></trkpt>
<trkpt lat="51.101553" lon="3.819415"><ele>2.47</ele><time>2025-05-26T19:37:07Z</time></trkpt>
<trkpt lat="51.101736" lon="3.819411"><ele>2.4</ele><time>2025-05-26T19:37:16Z</time></trkpt>
<trkpt lat="51.102156" lon="3.819265"><ele>5.05</ele><time>2025-05-26T19:37:24Z</time></trkpt>
<trkpt lat="51.102494" lon="3.819025"><ele>5.04</ele><time>2025-05-26T19:37:32Z</time></trkpt>
<trkpt lat="51.104227" lon="3.817245"><ele>4.22</ele><time>2025-05-26T19:37:40Z</time></trkpt>
<trkpt lat="51.104549" lon="3.816862"><ele>5.38</ele><time>2025-05-26T19:37:48Z</time></trkpt>
<trkpt lat="51.106232" lon="3.814461"><ele>5.0</ele><time>2025-05-26T19:37:57Z</time></trkpt>
<trkpt lat="51.10644" lon="3.814126"><ele>5.82</ele><time>2025-05-26T19:38:05Z</time></trkpt>
<trkpt lat="51.107501" lon="3.812129"><ele>4.66</ele><time>2025-05-26T19:38:13Z</time></trkpt>
<trkpt lat="51.10819" lon="3.810968"><ele>4.75</ele><time>2025-05-26T19:38:21Z</time></trkpt>
<trkpt lat="51.109555" lon="3.808729"><ele>4.57</ele><time>2025-05-26T19:38:30Z</time></trkpt>
<trkpt lat="51.109572" lon="3.808735"><ele>4.37</ele><time>2025-05-26T19:38:30Z</time></trkpt>
<trkpt lat="51.109572" lon="3.808735"><ele>4.37</ele><time>2025-05-26T19:38:30Z</time></trkpt>
<trkpt lat="51.110045" lon="3.808895"><ele>4.16</ele><time>2025-05-26T19:38:35Z</time></trkpt>
<trkpt lat="51.109937" lon="3.808658"><ele>4.83</ele><time>2025-05-26T19:38:37Z</time></trkpt>
<trkpt lat="51.109766" lon="3.80816"><ele>6.0</ele><time>2025-05-26T19:38:40Z</time></trkpt>
<trkpt lat="51.109987" lon="3.807182"><ele>5.9</ele><time>2025-05-26T19:38:46Z</time></trkpt>
<trkpt lat="51.110467" lon="3.805198"><ele>5.0</ele><time>2025-05-26T19:38:52Z</time></trkpt>
<trkpt lat="51.110536" lon="3.80485"><ele>5.54</ele><time>2025-05-26T19:38:58Z</time></trkpt>
<trkpt lat="51.110579" lon="3.804415"><ele>7.13</ele><time>2025-05-26T19:39:04Z</time></trkpt>
<trkpt lat="51.110578" lon="3.804037"><ele>9.38</ele><time>2025-05-26T19:39:10Z</time></trkpt>
<trkpt lat="51.110542" lon="3.803578"><ele>9.9</ele><time>2025-05-26T19:39:16Z</time></trkpt>
<trkpt lat="51.110202" lon="3.801635"><ele>6.07</ele><time>2025-05-26T19:39:22Z</time></trkpt>
<trkpt lat="51.110202" lon="3.800576"><ele>6.38</ele><time>2025-05-26T19:39:28Z</time></trkpt>
<trkpt lat="51.110202" lon="3.800136"><ele>8.01</ele><time>2025-05-26T19:39:34Z</time></trkpt>
<trkpt lat="51.11019" lon="3.799394"><ele>5.44</ele><time>2025-05-26T19:39:40Z</time></trkpt>
<trkpt lat="51.110163" lon="3.799086"><ele>4.06</ele><time>2025-05-26T19:39:46Z</time></trkpt>
<trkpt lat="51.11014" lon="3.798913"><ele>3.56</ele><time>2025-05-26T19:39:52Z</time></trkpt>
<trkpt lat="51.110058" lon="3.798539"><ele>3.41</ele><time>2025-05-26T19:39:58Z</time></trkpt>
<trkpt lat="51.110001" lon="3.798337"><ele>3.01</ele><time>2025-05-26T19:40:04Z</time></trkpt>
<trkpt lat="51.109868" lon="3.797981"><ele>4.47</ele><time>2025-05-26T19:40:10Z</time></trkpt>
<trkpt lat="51.109099" lon="3.796057"><ele>3.44</ele><time>2025-05-26T19:40:16Z</time></trkpt>
<trkpt lat="51.109009" lon="3.795792"><ele>4.65</ele><time>2025-05-26T19:40:22Z</time></trkpt>
<trkpt lat="51.108878" lon="3.795269"><ele>4.96</ele><time>2025-05-26T19:40:28Z</time></trkpt>
<trkpt lat="51.108332" lon="3.79151"><ele>1.12</ele><time>2025-05-26T19:40:33Z</time></trkpt>
<trkpt lat="51.108277" lon="3.790875"><ele>3.64</ele><time>2025-05-26T19:40:39Z</time></trkpt>
<trkpt lat="51.108259" lon="3.79023"><ele>4.73</ele><time>2025-05-26T19:40:45Z</time></trkpt>
<trkpt lat="51.108276" lon="3.789772"><ele>4.79</ele><time>2025-05-26T19:40:51Z</time></trkpt>
<trkpt lat="51.108574" lon="3.786131"><ele>5.13</ele><time>2025-05-26T19:40:57Z</time></trkpt>
<trkpt lat="51.108726" lon="3.784925"><ele>3.11</ele><time>2025-05-26T19:41:03Z</time></trkpt>
<trkpt lat="51.108745" lon="3.784607"><ele>3.68</ele><time>2025-05-26T19:41:09Z</time></trkpt>
<trkpt lat="51.108712" lon="3.784285"><ele>3.88</ele><time>2025-05-26T19:41:15Z</time></trkpt>
<trkpt lat="51.108656" lon="3.784019"><ele>4.0</ele><time>2025-05-26T19:41:21Z</time></trkpt>
<trkpt lat="51.108169" lon="3.781851"><ele>3.0</ele><time>2025-05-26T19:41:27Z</time></trkpt>
<trkpt lat="51.108102" lon="3.781583"><ele>3.0</ele><time>2025-05-26T19:41:33Z</time></trkpt>
<trkpt lat="51.108013" lon="3.781344"><ele>3.15</ele><time>2025-05-26T19:41:39Z</time></trkpt>
<trkpt lat="51.108075" lon="3.78122"><ele>3.0</ele><time>2025-05-26T19:41:54Z</time></trkpt>
<trkpt lat="51.107469" lon="3.774674"><ele>4.0</ele><time>2025-05-26T19:42:08Z</time></trkpt>
<trkpt lat="51.107363" lon="3.773662"><ele>4.49</ele><time>2025-05-26T19:42:22Z</time></trkpt>
<trkpt lat="51.107239" lon="3.772953"><ele>2.57</ele><time>2025-05-26T19:42:37Z</time></trkpt>
<trkpt lat="51.107102" lon="3.771044"><ele>6.24</ele><time>2025-05-26T19:42:51Z</time></trkpt>
<trkpt lat="51.107058" lon="3.769998"><ele>4.58</ele><time>2025-05-26T19:43:06Z</time></trkpt>
<trkpt lat="51.107183" lon="3.767938"><ele>5.14</ele><time>2025-05-26T19:43:20Z</time></trkpt>
<trkpt lat="51.107191" lon="3.767243"><ele>7.04</ele><time>2025-05-26T19:43:35Z</time></trkpt>
<trkpt lat="51.107325" lon="3.767275"><ele>6.51</ele><time>2025-05-26T19:43:43Z</time></trkpt>
<trkpt lat="51.107347" lon="3.767313"><ele>6.24</ele><time>2025-05-26T19:43:52Z</time></trkpt>
<trkpt lat="51.107347" lon="3.767313"><ele>6.24</ele><time>2025-05-26T19:43:52Z</time></trkpt>
<trkpt lat="51.107325" lon="3.767275"><ele>6.51</ele><time>2025-05-26T19:43:53Z</time></trkpt>
<trkpt lat="51.107191" lon="3.767243"><ele>7.04</ele><time>2025-05-26T19:43:55Z</time></trkpt>
<trkpt lat="51.107153" lon="3.766865"><ele>5.93</ele><time>2025-05-26T19:44:01Z</time></trkpt>
<trkpt lat="51.106834" lon="3.764989"><ele>5.78</ele><time>2025-05-26T19:44:07Z</time></trkpt>
<trkpt lat="51.106707" lon="3.764388"><ele>4.12</ele><time>2025-05-26T19:44:13Z</time></trkpt>
<trkpt lat="51.106596" lon="3.763947"><ele>4.45</ele><time>2025-05-26T19:44:19Z</time></trkpt>
<trkpt lat="51.106466" lon="3.763585"><ele>5.72</ele><time>2025-05-26T19:44:25Z</time></trkpt>
<trkpt lat="51.10631" lon="3.763278"><ele>6.0</ele><time>2025-05-26T19:44:32Z</time></trkpt>
<trkpt lat="51.106103" lon="3.763027"><ele>6.03</ele><time>2025-05-26T19:44:38Z</time></trkpt>
<trkpt lat="51.105594" lon="3.762693"><ele>5.54</ele><time>2025-05-26T19:44:44Z</time></trkpt>
<trkpt lat="51.104514" lon="3.762337"><ele>7.34</ele><time>2025-05-26T19:44:50Z</time></trkpt>
<trkpt lat="51.103542" lon="3.761749"><ele>9.28</ele><time>2025-05-26T19:44:56Z</time></trkpt>
<trkpt lat="51.103028" lon="3.76153"><ele>11.31</ele><time>2025-05-26T19:45:02Z</time></trkpt>
<trkpt lat="51.102698" lon="3.761432"><ele>9.35</ele><time>2025-05-26T19:45:08Z</time></trkpt>
<trkpt lat="51.102428" lon="3.761425"><ele>9.42</ele><time>2025-05-26T19:45:14Z</time></trkpt>
<trkpt lat="51.102268" lon="3.761457"><ele>8.49</ele><time>2025-05-26T19:45:20Z</time></trkpt>
<trkpt lat="51.101978" lon="3.761572"><ele>6.9</ele><time>2025-05-26T19:45:27Z</time></trkpt>
<trkpt lat="51.101761" lon="3.761721"><ele>5.68</ele><time>2025-05-26T19:45:33Z</time></trkpt>
<trkpt lat="51.101532" lon="3.761936"><ele>5.0</ele><time>2025-05-26T19:45:39Z</time></trkpt>
<trkpt lat="51.100996" lon="3.762535"><ele>5.54</ele><time>2025-05-26T19:45:45Z</time></trkpt>
<trkpt lat="51.100836" lon="3.761581"><ele>6.98</ele><time>2025-05-26T19:45:49Z</time></trkpt>
<trkpt lat="51.100915" lon="3.761148"><ele>6.71</ele><time>2025-05-26T19:45:53Z</time></trkpt>
<trkpt lat="51.100992" lon="3.760918"><ele>6.43</ele><time>2025-05-26T19:45:57Z</time></trkpt>
<trkpt lat="51.101065" lon="3.760782"><ele>6.16</ele><time>2025-05-26T19:46:02Z</time></trkpt>
<trkpt lat="51.101165" lon="3.760657"><ele>5.81</ele><time>2025-05-26T19:46:06Z</time></trkpt>
<trkpt lat="51.101982" lon="3.759702"><ele>4.0</ele><time>2025-05-26T19:46:10Z</time></trkpt>
<trkpt lat="51.102359" lon="3.759337"><ele>4.69</ele><time>2025-05-26T19:46:14Z</time></trkpt>
<trkpt lat="51.10292" lon="3.758851"><ele>5.07</ele><time>2025-05-26T19:46:18Z</time></trkpt>
<trkpt lat="51.103108" lon="3.75885"><ele>5.33</ele><time>2025-05-26T19:46:22Z</time></trkpt>
<trkpt lat="51.103214" lon="3.758923"><ele>5.57</ele><time>2025-05-26T19:46:26Z</time></trkpt>
<trkpt lat="51.103332" lon="3.759066"><ele>5.99</ele><time>2025-05-26T19:46:31Z</time></trkpt>
<trkpt lat="51.103451" lon="3.759259"><ele>6.65</ele><time>2025-05-26T19:46:35Z</time></trkpt>
<trkpt lat="51.103521" lon="3.759425"><ele>7.05</ele><time>2025-05-26T19:46:39Z</time></trkpt>
<trkpt lat="51.103645" lon="3.759859"><ele>6.45</ele><time>2025-05-26T19:46:43Z</time></trkpt>
<trkpt lat="51.103686" lon="3.75995"><ele>5.96</ele><time>2025-05-26T19:46:47Z</time></trkpt>
<trkpt lat="51.103731" lon="3.760001"><ele>5.57</ele><time>2025-05-26T19:46:51Z</time></trkpt>
<trkpt lat="51.103801" lon="3.760029"><ele>5.42</ele><time>2025-05-26T19:46:55Z</time></trkpt>
<trkpt lat="51.103874" lon="3.760027"><ele>5.15</ele><time>2025-05-26T19:47:00Z</time></trkpt>
<trkpt lat="51.104084" lon="3.759874"><ele>6.29</ele><time>2025-05-26T19:47:04Z</time></trkpt>
<trkpt lat="51.104178" lon="3.759975"><ele>6.16</ele><time>2025-05-26T19:47:07Z</time></trkpt>
<trkpt lat="51.104235" lon="3.759989"><ele>6.51</ele><time>2025-05-26T19:47:10Z</time></trkpt>
<trkpt lat="51.104345" lon="3.75994"><ele>7.22</ele><time>2025-05-26T19:47:13Z</time></trkpt>
<trkpt lat="51.104394" lon="3.75987"><ele>7.34</ele><time>2025-05-26T19:47:16Z</time></trkpt>
<trkpt lat="51.104484" lon="3.759777"><ele>7.34</ele><time>2025-05-26T19:47:19Z</time></trkpt>
<trkpt lat="51.104552" lon="3.759757"><ele>7.51</ele><time>2025-05-26T19:47:22Z</time></trkpt>
<trkpt lat="51.105004" lon="3.759832"><ele>7.41</ele><time>2025-05-26T19:47:25Z</time></trkpt>
<trkpt lat="51.105511" lon="3.759983"><ele>7.26</ele><time>2025-05-26T19:47:28Z</time></trkpt>
<trkpt lat="51.106264" lon="3.760399"><ele>3.76</ele><time>2025-05-26T19:47:31Z</time></trkpt>
<trkpt lat="51.106532" lon="3.76061"><ele>3.61</ele><time>2025-05-26T19:47:34Z</time></trkpt>
<trkpt lat="51.106572" lon="3.760759"><ele>3.91</ele><time>2025-05-26T19:47:43Z</time></trkpt>
<trkpt lat="51.106557" lon="3.760872"><ele>4.19</ele><time>2025-05-26T19:47:52Z</time></trkpt>
<trkpt lat="51.106604" lon="3.760802"><ele>3.97</ele><time>2025-05-26T19:47:56Z</time></trkpt>
<trkpt lat="51.106714" lon="3.760738"><ele>4.34</ele><time>2025-05-26T19:48:01Z</time></trkpt>
<trkpt lat="51.107493" lon="3.761269"><ele>6.57</ele><time>2025-05-26T19:48:06Z</time></trkpt>
<trkpt lat="51.108641" lon="3.762293"><ele>4.7</ele><time>2025-05-26T19:48:10Z</time></trkpt>
<trkpt lat="51.10904" lon="3.762673"><ele>4.45</ele><time>2025-05-26T19:48:15Z</time></trkpt>
<trkpt lat="51.109106" lon="3.762809"><ele>5.02</ele><time>2025-05-26T19:48:24Z</time></trkpt>
<trkpt lat="51.109226" lon="3.762914"><ele>4.57</ele><time>2025-05-26T19:48:33Z</time></trkpt>
<trkpt lat="51.109307" lon="3.763029"><ele>3.99</ele><time>2025-05-26T19:48:42Z</time></trkpt>
<trkpt lat="51.109354" lon="3.763143"><ele>3.76</ele><time>2025-05-26T19:48:51Z</time></trkpt>
<trkpt lat="51.109442" lon="3.76343"><ele>3.37</ele><time>2025-05-26T19:49:00Z</time></trkpt>
<trkpt lat="51.109462" lon="3.763704"><ele>4.6</ele><time>2025-05-26T19:49:09Z</time></trkpt>
<trkpt lat="51.109525" lon="3.764139"><ele>5.71</ele><time>2025-05-26T19:49:18Z</time></trkpt>
<trkpt lat="51.110123" lon="3.767852"><ele>6.41</ele><time>2025-05-26T19:49:27Z</time></trkpt>
<trkpt lat="51.110175" lon="3.768283"><ele>5.18</ele><time>2025-05-26T19:49:36Z</time></trkpt>
<trkpt lat="51.11022" lon="3.76893"><ele>5.0</ele><time>2025-05-26T19:49:45Z</time></trkpt>
<trkpt lat="51.110223" lon="3.76957"><ele>5.8</ele><time>2025-05-26T19:49:54Z</time></trkpt>
<trkpt lat="51.110161" lon="3.770586"><ele>3.58</ele><time>2025-05-26T19:50:04Z</time></trkpt>
<trkpt lat="51.110081" lon="3.771221"><ele>3.69</ele><time>2025-05-26T19:50:13Z</time></trkpt>
<trkpt lat="51.109725" lon="3.773072"><ele>5.05</ele><time>2025-05-26T19:50:22Z</time></trkpt>
<trkpt lat="51.109697" lon="3.773421"><ele>6.2</ele><time>2025-05-26T19:50:31Z</time></trkpt>
<trkpt lat="51.109732" lon="3.773811"><ele>7.72</ele><time>2025-05-26T19:50:40Z</time></trkpt>
<trkpt lat="51.109818" lon="3.77415"><ele>8.61</ele><time>2025-05-26T19:50:49Z</time></trkpt>
<trkpt lat="51.110001" lon="3.774509"><ele>9.45</ele><time>2025-05-26T19:50:58Z</time></trkpt>
<trkpt lat="51.11525" lon="3.780196"><ele>8.09</ele><time>2025-05-26T19:51:07Z</time></trkpt>
<trkpt lat="51.1154" lon="3.780406"><ele>7.52</ele><time>2025-05-26T19:51:16Z</time></trkpt>
<trkpt lat="51.115806" lon="3.781145"><ele>4.88</ele><time>2025-05-26T19:51:25Z</time></trkpt>
<trkpt lat="51.115986" lon="3.781359"><ele>4.66</ele><time>2025-05-26T19:51:34Z</time></trkpt>
<trkpt lat="51.116066" lon="3.781496"><ele>4.45</ele><time>2025-05-26T19:51:43Z</time></trkpt>
<trkpt lat="51.116127" lon="3.781715"><ele>4.06</ele><time>2025-05-26T19:51:52Z</time></trkpt>
<trkpt lat="51.116122" lon="3.781861"><ele>4.04</ele><time>2025-05-26T19:52:10Z</time></trkpt>
<trkpt lat="51.116156" lon="3.782029"><ele>4.37</ele><time>2025-05-26T19:52:27Z</time></trkpt>
<trkpt lat="51.116154" lon="3.782219"><ele>4.84</ele><time>2025-05-26T19:52:44Z</time></trkpt>
<trkpt lat="51.11611" lon="3.782497"><ele>4.99</ele><time>2025-05-26T19:53:01Z</time></trkpt>
<trkpt lat="51.113974" lon="3.787503"><ele>10.38</ele><time>2025-05-26T19:53:18Z</time></trkpt>
<trkpt lat="51.113089" lon="3.789527"><ele>3.54</ele><time>2025-05-26T19:53:36Z</time></trkpt>
<trkpt lat="51.113036" lon="3.789761"><ele>4.28</ele><time>2025-05-26T19:53:53Z</time></trkpt>
<trkpt lat="51.113001" lon="3.790049"><ele>6.14</ele><time>2025-05-26T19:54:10Z</time></trkpt>
<trkpt lat="51.113321" lon="3.796259"><ele>8.0</ele><time>2025-05-26T19:54:27Z</time></trkpt>
<trkpt lat="51.112015" lon="3.796416"><ele>8.0</ele><time>2025-05-26T19:54:41Z</time></trkpt>
<trkpt lat="51.111965" lon="3.796425"><ele>8.0</ele><time>2025-05-26T19:54:55Z</time></trkpt>
<trkpt lat="51.111965" lon="3.796425"><ele>8.0</ele><time>2025-05-26T19:55:08Z</time></trkpt>
<trkpt lat="51.11154" lon="3.796495"><ele>7.94</ele><time>2025-05-26T19:55:22Z</time></trkpt>
<trkpt lat="51.111593" lon="3.797"><ele>8.0</ele><time>2025-05-26T19:55:36Z</time></trkpt>
<trkpt lat="51.111555" lon="3.797943"><ele>7.6</ele><time>2025-05-26T19:55:50Z</time></trkpt>
<trkpt lat="51.111261" lon="3.798031"><ele>6.54</ele><time>2025-05-26T19:56:04Z</time></trkpt>
<trkpt lat="51.111441" lon="3.7997"><ele>9.73</ele><time>2025-05-26T19:56:19Z</time></trkpt>
<trkpt lat="51.111454" lon="3.799713"><ele>9.81</ele><time>2025-05-26T19:56:33Z</time></trkpt>
<trkpt lat="51.111454" lon="3.799713"><ele>9.81</ele><time>2025-05-26T19:56:33Z</time></trkpt>
<trkpt lat="51.111548" lon="3.79981"><ele>9.88</ele><time>2025-05-26T19:56:51Z</time></trkpt>
<trkpt lat="51.112705" lon="3.79977"><ele>7.3</ele><time>2025-05-26T19:57:10Z</time></trkpt>
<trkpt lat="51.112747" lon="3.799826"><ele>7.7</ele><time>2025-05-26T19:57:28Z</time></trkpt>
<trkpt lat="51.113354" lon="3.799749"><ele>8.02</ele><time>2025-05-26T19:57:47Z</time></trkpt>
<trkpt lat="51.113229" lon="3.797304"><ele>8.0</ele><time>2025-05-26T19:58:05Z</time></trkpt>
<trkpt lat="51.113368" lon="3.797222"><ele>8.0</ele><time>2025-05-26T19:58:24Z</time></trkpt>
<trkpt lat="51.113001" lon="3.790049"><ele>6.14</ele><time>2025-05-26T19:58:47Z</time></trkpt>
<trkpt lat="51.113036" lon="3.789761"><ele>4.28</ele><time>2025-05-26T19:59:10Z</time></trkpt>
<trkpt lat="51.113089" lon="3.789527"><ele>3.54</ele><time>2025-05-26T19:59:33Z</time></trkpt>
<trkpt lat="51.113974" lon="3.787503"><ele>10.38</ele><time>2025-05-26T19:59:56Z</time></trkpt>
<trkpt lat="51.11611" lon="3.782497"><ele>4.99</ele><time>2025-05-26T20:00:19Z</time></trkpt>
<trkpt lat="51.116249" lon="3.782301"><ele>4.5</ele><time>2025-05-26T20:00:42Z</time></trkpt>
<trkpt lat="51.116338" lon="3.782243"><ele>4.18</ele><time>2025-05-26T20:01:05Z</time></trkpt>
<trkpt lat="51.116426" lon="3.782259"><ele>4.0</ele><time>2025-05-26T20:01:13Z</time></trkpt>
<trkpt lat="51.116534" lon="3.782208"><ele>4.02</ele><time>2025-05-26T20:01:20Z</time></trkpt>
<trkpt lat="51.116598" lon="3.782134"><ele>4.08</ele><time>2025-05-26T20:01:28Z</time></trkpt>
<trkpt lat="51.116652" lon="3.782018"><ele>4.04</ele><time>2025-05-26T20:01:36Z</time></trkpt>
<trkpt lat="51.116679" lon="3.781885"><ele>3.94</ele><time>2025-05-26T20:01:44Z</time></trkpt>
<trkpt lat="51.116679" lon="3.781733"><ele>3.92</ele><time>2025-05-26T20:01:52Z</time></trkpt>
<trkpt lat="51.116647" lon="3.781594"><ele>4.57</ele><time>2025-05-26T20:02:00Z</time></trkpt>
<trkpt lat="51.116656" lon="3.781405"><ele>5.89</ele><time>2025-05-26T20:02:08Z</time></trkpt>
<trkpt lat="51.116696" lon="3.781141"><ele>6.48</ele><time>2025-05-26T20:02:16Z</time></trkpt>
<trkpt lat="51.11889" lon="3.776015"><ele>5.31</ele><time>2025-05-26T20:02:24Z</time></trkpt>
<trkpt lat="51.119378" lon="3.77507"><ele>2.52</ele><time>2025-05-26T20:02:32Z</time></trkpt>
<trkpt lat="51.119705" lon="3.774315"><ele>2.16</ele><time>2025-05-26T20:02:39Z</time></trkpt>
<trkpt lat="51.121193" lon="3.775925"><ele>7.9</ele><time>2025-05-26T20:02:52Z</time></trkpt>
<trkpt lat="51.122018" lon="3.776771"><ele>1.0</ele><time>2025-05-26T20:03:04Z</time></trkpt>
<trkpt lat="51.122592" lon="3.77724"><ele>2.66</ele><time>2025-05-26T20:03:17Z</time></trkpt>
<trkpt lat="51.125049" lon="3.77991"><ele>3.2</ele><time>2025-05-26T20:03:29Z</time></trkpt>
<trkpt lat="51.125038" lon="3.780051"><ele>2.89</ele><time>2025-05-26T20:03:34Z</time></trkpt>
<trkpt lat="51.124999" lon="3.780177"><ele>3.0</ele><time>2025-05-26T20:03:39Z</time></trkpt>
<trkpt lat="51.124953" lon="3.780262"><ele>2.99</ele><time>2025-05-26T20:03:45Z</time></trkpt>
<trkpt lat="51.124772" lon="3.780434"><ele>3.56</ele><time>2025-05-26T20:03:50Z</time></trkpt>
<trkpt lat="51.12466" lon="3.780466"><ele>3.3</ele><time>2025-05-26T20:03:55Z</time></trkpt>
<trkpt lat="51.12381" lon="3.780664"><ele>2.72</ele><time>2025-05-26T20:04:00Z</time></trkpt>
<trkpt lat="51.12286" lon="3.780757"><ele>5.41</ele><time>2025-05-26T20:04:05Z</time></trkpt>
<trkpt lat="51.122743" lon="3.780807"><ele>6.0</ele><time>2025-05-26T20:04:10Z</time></trkpt>
<trkpt lat="51.122615" lon="3.780961"><ele>5.81</ele><time>2025-05-26T20:04:28Z</time></trkpt>
<trkpt lat="51.122537" lon="3.781129"><ele>5.87</ele><time>2025-05-26T20:04:47Z</time></trkpt>
<trkpt lat="51.122101" lon="3.782653"><ele>5.56</ele><time>2025-05-26T20:05:05Z</time></trkpt>
<trkpt lat="51.122039" lon="3.782945"><ele>5.34</ele><time>2025-05-26T20:05:23Z</time></trkpt>
<trkpt lat="51.121985" lon="3.783355"><ele>4.14</ele><time>2025-05-26T20:05:42Z</time></trkpt>
<trkpt lat="51.121856" lon="3.784903"><ele>3.67</ele><time>2025-05-26T20:06:00Z</time></trkpt>
<trkpt lat="51.121625" lon="3.788239"><ele>6.66</ele><time>2025-05-26T20:06:19Z</time></trkpt>
<trkpt lat="51.121552" lon="3.789499"><ele>3.41</ele><time>2025-05-26T20:06:37Z</time></trkpt>
<trkpt lat="51.121598" lon="3.790888"><ele>4.2</ele><time>2025-05-26T20:06:55Z</time></trkpt>
<trkpt lat="51.121717" lon="3.79318"><ele>4.41</ele><time>2025-05-26T20:07:14Z</time></trkpt>
<trkpt lat="51.121717" lon="3.79318"><ele>4.41</ele><time>2025-05-26T20:07:14Z</time></trkpt>
<trkpt lat="51.121904" lon="3.796981"><ele>3.28</ele><time>2025-05-26T20:07:43Z</time></trkpt>
<trkpt lat="51.121976" lon="3.797867"><ele>5.0</ele><time>2025-05-26T20:08:11Z</time></trkpt>
<trkpt lat="51.122161" lon="3.799119"><ele>7.0</ele><time>2025-05-26T20:08:40Z</time></trkpt>
<trkpt lat="51.122517" lon="3.800015"><ele>3.88</ele><time>2025-05-26T20:08:54Z</time></trkpt>
<trkpt lat="51.122752" lon="3.800702"><ele>4.0</ele><time>2025-05-26T20:09:08Z</time></trkpt>
<trkpt lat="51.122967" lon="3.801648"><ele>3.32</ele><time>2025-05-26T20:09:22Z</time></trkpt>
<trkpt lat="51.123477" lon="3.802871"><ele>4.0</ele><time>2025-05-26T20:09:36Z</time></trkpt>
<trkpt lat="51.124241" lon="3.804568"><ele>6.0</ele><time>2025-05-26T20:09:50Z</time></trkpt>
<trkpt lat="51.124907" lon="3.806652"><ele>4.02</ele><time>2025-05-26T20:10:04Z</time></trkpt>
<trkpt lat="51.124992" lon="3.806928"><ele>4.0</ele><time>2025-05-26T20:10:17Z</time></trkpt>
<trkpt lat="51.125396" lon="3.808738"><ele>2.26</ele><time>2025-05-26T20:10:31Z</time></trkpt>
<trkpt lat="51.125436" lon="3.809081"><ele>2.73</ele><time>2025-05-26T20:10:45Z</time></trkpt>
<trkpt lat="51.125433" lon="3.809395"><ele>3.2</ele><time>2025-05-26T20:10:59Z</time></trkpt>
<trkpt lat="51.125433" lon="3.809395"><ele>3.2</ele><time>2025-05-26T20:10:59Z</time></trkpt>
<trkpt lat="51.125423" lon="3.80951"><ele>3.43</ele><time>2025-05-26T20:11:00Z</time></trkpt>
<trkpt lat="51.125624" lon="3.809226"><ele>2.38</ele><time>2025-05-26T20:11:28Z</time></trkpt>
<trkpt lat="51.126213" lon="3.808133"><ele>6.91</ele><time>2025-05-26T20:11:56Z</time></trkpt>
<trkpt lat="51.126334" lon="3.807782"><ele>6.0</ele><time>2025-05-26T20:12:23Z</time></trkpt>
<trkpt lat="51.126455" lon="3.80725"><ele>5.52</ele><time>2025-05-26T20:12:51Z</time></trkpt>
<trkpt lat="51.12663" lon="3.806881"><ele>4.97</ele><time>2025-05-26T20:13:18Z</time></trkpt>
<trkpt lat="51.128605" lon="3.80426"><ele>4.63</ele><time>2025-05-26T20:13:46Z</time></trkpt>
<trkpt lat="51.129215" lon="3.803589"><ele>3.0</ele><time>2025-05-26T20:14:14Z</time></trkpt>
<trkpt lat="51.129415" lon="3.80344"><ele>3.0</ele><time>2025-05-26T20:14:41Z</time></trkpt>
<trkpt lat="51.130009" lon="3.80312"><ele>2.27</ele><time>2025-05-26T20:15:09Z</time></trkpt>
<trkpt lat="51.130041" lon="3.803019"><ele>2.31</ele><time>2025-05-26T20:15:37Z</time></trkpt>
<trkpt lat="51.130017" lon="3.80275"><ele>2.08</ele><time>2025-05-26T20:16:04Z</time></trkpt>
<trkpt lat="51.129991" lon="3.802639"><ele>1.44</ele><time>2025-05-26T20:16:32Z</time></trkpt>
<trkpt lat="51.130214" lon="3.802687"><ele>3.98</ele><time>2025-05-26T20:16:39Z</time></trkpt>
<trkpt lat="51.130454" lon="3.802658"><ele>5.11</ele><time>2025-05-26T20:16:45Z</time></trkpt>
<trkpt lat="51.131061" lon="3.802321"><ele>5.12</ele><time>2025-05-26T20:16:52Z</time></trkpt>
<trkpt lat="51.131947" lon="3.801891"><ele>4.19</ele><time>2025-05-26T20:16:59Z</time></trkpt>
<trkpt lat="51.132901" lon="3.801596"><ele>3.81</ele><time>2025-05-26T20:17:06Z</time></trkpt>
<trkpt lat="51.133387" lon="3.801506"><ele>2.39</ele><time>2025-05-26T20:17:13Z</time></trkpt>
<trkpt lat="51.133631" lon="3.801499"><ele>1.49</ele><time>2025-05-26T20:17:19Z</time></trkpt>
<trkpt lat="51.134025" lon="3.801553"><ele>0.69</ele><time>2025-05-26T20:17:26Z</time></trkpt>
<trkpt lat="51.134042" lon="3.801637"><ele>3.05</ele><time>2025-05-26T20:17:29Z</time></trkpt>
<trkpt lat="51.134042" lon="3.801637"><ele>3.05</ele><time>2025-05-26T20:17:29Z</time></trkpt>
<trkpt lat="51.134025" lon="3.801553"><ele>0.69</ele><time>2025-05-26T20:17:32Z</time></trkpt>
<trkpt lat="51.133631" lon="3.801499"><ele>1.49</ele><time>2025-05-26T20:17:38Z</time></trkpt>
<trkpt lat="51.133387" lon="3.801506"><ele>2.39</ele><time>2025-05-26T20:17:45Z</time></trkpt>
<trkpt lat="51.132901" lon="3.801596"><ele>3.81</ele><time>2025-05-26T20:17:52Z</time></trkpt>
<trkpt lat="51.131947" lon="3.801891"><ele>4.19</ele><time>2025-05-26T20:17:59Z</time></trkpt>
<trkpt lat="51.131061" lon="3.802321"><ele>5.12</ele><time>2025-05-26T20:18:06Z</time></trkpt>
<trkpt lat="51.130454" lon="3.802658"><ele>5.11</ele><time>2025-05-26T20:18:12Z</time></trkpt>
<trkpt lat="51.130214" lon="3.802687"><ele>3.98</ele><time>2025-05-26T20:18:19Z</time></trkpt>
<trkpt lat="51.129991" lon="3.802639"><ele>1.44</ele><time>2025-05-26T20:18:26Z</time></trkpt>
<trkpt lat="51.130017" lon="3.80275"><ele>2.08</ele><time>2025-05-26T20:18:51Z</time></trkpt>
<trkpt lat="51.130041" lon="3.803019"><ele>2.31</ele><time>2025-05-26T20:19:16Z</time></trkpt>
<trkpt lat="51.130009" lon="3.80312"><ele>2.27</ele><time>2025-05-26T20:19:41Z</time></trkpt>
<trkpt lat="51.129415" lon="3.80344"><ele>3.0</ele><time>2025-05-26T20:20:06Z</time></trkpt>
<trkpt lat="51.129215" lon="3.803589"><ele>3.0</ele><time>2025-05-26T20:20:32Z</time></trkpt>
<trkpt lat="51.128605" lon="3.80426"><ele>4.63</ele><time>2025-05-26T20:20:57Z</time></trkpt>
<trkpt lat="51.12663" lon="3.806881"><ele>4.97</ele><time>2025-05-26T20:21:22Z</time></trkpt>
<trkpt lat="51.126455" lon="3.80725"><ele>5.52</ele><time>2025-05-26T20:21:47Z</time></trkpt>
<trkpt lat="51.126334" lon="3.807782"><ele>6.0</ele><time>2025-05-26T20:22:12Z</time></trkpt>
<trkpt lat="51.126213" lon="3.808133"><ele>6.91</ele><time>2025-05-26T20:22:37Z</time></trkpt>
<trkpt lat="51.125624" lon="3.809226"><ele>2.38</ele><time>2025-05-26T20:23:02Z</time></trkpt>
<trkpt lat="51.125423" lon="3.80951"><ele>3.43</ele><time>2025-05-26T20:23:27Z</time></trkpt>
<trkpt lat="51.12536" lon="3.809772"><ele>4.16</ele><time>2025-05-26T20:23:31Z</time></trkpt>
<trkpt lat="51.126182" lon="3.81157"><ele>4.65</ele><time>2025-05-26T20:23:42Z</time></trkpt>
<trkpt lat="51.126991" lon="3.813439"><ele>4.51</ele><time>2025-05-26T20:23:53Z</time></trkpt>
<trkpt lat="51.128079" lon="3.815995"><ele>8.46</ele><time>2025-05-26T20:24:04Z</time></trkpt>
<trkpt lat="51.12836" lon="3.8167"><ele>4.07</ele><time>2025-05-26T20:24:15Z</time></trkpt>
<trkpt lat="51.128448" lon="3.817009"><ele>3.6</ele><time>2025-05-26T20:24:26Z</time></trkpt>
<trkpt lat="51.12856" lon="3.817245"><ele>3.56</ele><time>2025-05-26T20:24:38Z</time></trkpt>
<trkpt lat="51.128785" lon="3.817654"><ele>2.73</ele><time>2025-05-26T20:24:49Z</time></trkpt>
<trkpt lat="51.131114" lon="3.821527"><ele>2.98</ele><time>2025-05-26T20:25:00Z</time></trkpt>
<trkpt lat="51.132217" lon="3.823278"><ele>3.79</ele><time>2025-05-26T20:25:11Z</time></trkpt>
<trkpt lat="51.132399" lon="3.823607"><ele>3.36</ele><time>2025-05-26T20:25:22Z</time></trkpt>
<trkpt lat="51.132678" lon="3.824586"><ele>3.0</ele><time>2025-05-26T20:25:33Z</time></trkpt>
<trkpt lat="51.132857" lon="3.825297"><ele>3.05</ele><time>2025-05-26T20:25:45Z</time></trkpt>
<trkpt lat="51.13428" lon="3.831422"><ele>3.48</ele><time>2025-05-26T20:25:56Z</time></trkpt>
<trkpt lat="51.13422" lon="3.831546"><ele>3.65</ele><time>2025-05-26T20:26:01Z</time></trkpt>
<trkpt lat="51.134104" lon="3.831968"><ele>4.07</ele><time>2025-05-26T20:26:06Z</time></trkpt>
<trkpt lat="51.133972" lon="3.832172"><ele>4.24</ele><time>2025-05-26T20:26:12Z</time></trkpt>
<trkpt lat="51.133862" lon="3.832449"><ele>3.8</ele><time>2025-05-26T20:26:17Z</time></trkpt>
<trkpt lat="51.133407" lon="3.834612"><ele>5.11</ele><time>2025-05-26T20:26:22Z</time></trkpt>
<trkpt lat="51.132459" lon="3.837847"><ele>5.0</ele><time>2025-05-26T20:26:28Z</time></trkpt>
<trkpt lat="51.132158" lon="3.838931"><ele>5.34</ele><time>2025-05-26T20:26:33Z</time></trkpt>
<trkpt lat="51.131877" lon="3.840137"><ele>4.76</ele><time>2025-05-26T20:26:38Z</time></trkpt>
<trkpt lat="51.131758" lon="3.840565"><ele>4.0</ele><time>2025-05-26T20:26:44Z</time></trkpt>
<trkpt lat="51.13161" lon="3.840988"><ele>3.76</ele><time>2025-05-26T20:26:49Z</time></trkpt>
<trkpt lat="51.13139" lon="3.841464"><ele>4.72</ele><time>2025-05-26T20:26:54Z</time></trkpt>
<trkpt lat="51.130406" lon="3.843233"><ele>3.19</ele><time>2025-05-26T20:26:59Z</time></trkpt>
<trkpt lat="51.130091" lon="3.843775"><ele>3.87</ele><time>2025-05-26T20:27:05Z</time></trkpt>
<trkpt lat="51.129946" lon="3.843989"><ele>4.07</ele><time>2025-05-26T20:27:10Z</time></trkpt>
<trkpt lat="51.129762" lon="3.844186"><ele>4.92</ele><time>2025-05-26T20:27:15Z</time></trkpt>
<trkpt lat="51.129514" lon="3.844374"><ele>5.75</ele><time>2025-05-26T20:27:21Z</time></trkpt>
<trkpt lat="51.128758" lon="3.844803"><ele>4.29</ele><time>2025-05-26T20:27:26Z</time></trkpt>
<trkpt lat="51.127918" lon="3.845316"><ele>6.07</ele><time>2025-05-26T20:27:31Z</time></trkpt>
<trkpt lat="51.129034" lon="3.850594"><ele>4.07</ele><time>2025-05-26T20:27:41Z</time></trkpt>
<trkpt lat="51.12922" lon="3.85136"><ele>6.19</ele><time>2025-05-26T20:27:50Z</time></trkpt>
<trkpt lat="51.129576" lon="3.852599"><ele>6.83</ele><time>2025-05-26T20:28:00Z</time></trkpt>
<trkpt lat="51.130333" lon="3.854879"><ele>5.91</ele><time>2025-05-26T20:28:09Z</time></trkpt>
<trkpt lat="51.131397" lon="3.85819"><ele>6.99</ele><time>2025-05-26T20:28:18Z</time></trkpt>
<trkpt lat="51.131959" lon="3.860086"><ele>5.0</ele><time>2025-05-26T20:28:28Z</time></trkpt>
<trkpt lat="51.131986" lon="3.860257"><ele>5.0</ele><time>2025-05-26T20:28:37Z</time></trkpt>
<trkpt lat="51.132459" lon="3.861866"><ele>5.72</ele><time>2025-05-26T20:28:47Z</time></trkpt>
<trkpt lat="51.132832" lon="3.863015"><ele>7.8</ele><time>2025-05-26T20:28:56Z</time></trkpt>
<trkpt lat="51.133106" lon="3.863623"><ele>7.03</ele><time>2025-05-26T20:29:06Z</time></trkpt>
<trkpt lat="51.133406" lon="3.864376"><ele>6.74</ele><time>2025-05-26T20:29:15Z</time></trkpt>
<trkpt lat="51.13372" lon="3.865171"><ele>6.39</ele><time>2025-05-26T20:29:24Z</time></trkpt>
<trkpt lat="51.13392" lon="3.865765"><ele>6.11</ele><time>2025-05-26T20:29:34Z</time></trkpt>
<trkpt lat="51.134984" lon="3.868948"><ele>5.0</ele><time>2025-05-26T20:29:43Z</time></trkpt>
<trkpt lat="51.135126" lon="3.869356"><ele>4.17</ele><time>2025-05-26T20:29:53Z</time></trkpt>
<trkpt lat="51.135196" lon="3.869486"><ele>4.0</ele><time>2025-05-26T20:30:02Z</time></trkpt>
<trkpt lat="51.135281" lon="3.869575"><ele>4.0</ele><time>2025-05-26T20:30:11Z</time></trkpt>
<trkpt lat="51.135409" lon="3.86961"><ele>4.0</ele><time>2025-05-26T20:30:21Z</time></trkpt>
<trkpt lat="51.135553" lon="3.869546"><ele>4.0</ele><time>2025-05-26T20:30:30Z</time></trkpt>
<trkpt lat="51.136538" lon="3.868843"><ele>4.3</ele><time>2025-05-26T20:30:40Z</time></trkpt>
<trkpt lat="51.136815" lon="3.868544"><ele>3.0</ele><time>2025-05-26T20:30:49Z</time></trkpt>
<trkpt lat="51.137745" lon="3.867223"><ele>2.0</ele><time>2025-05-26T20:30:58Z</time></trkpt>
<trkpt lat="51.137884" lon="3.867065"><ele>2.18</ele><time>2025-05-26T20:31:08Z</time></trkpt>
<trkpt lat="51.138016" lon="3.866949"><ele>2.13</ele><time>2025-05-26T20:31:17Z</time></trkpt>
<trkpt lat="51.138235" lon="3.866827"><ele>3.07</ele><time>2025-05-26T20:31:27Z</time></trkpt>
<trkpt lat="51.138392" lon="3.866777"><ele>3.69</ele><time>2025-05-26T20:31:36Z</time></trkpt>
<trkpt lat="51.143507" lon="3.866"><ele>3.1</ele><time>2025-05-26T20:31:45Z</time></trkpt>
<trkpt lat="51.143707" lon="3.866018"><ele>4.11</ele><time>2025-05-26T20:31:55Z</time></trkpt>
<trkpt lat="51.144548" lon="3.866217"><ele>5.0</ele><time>2025-05-26T20:32:04Z</time></trkpt>
<trkpt lat="51.144723" lon="3.866197"><ele>5.0</ele><time>2025-05-26T20:32:14Z</time></trkpt>
<trkpt lat="51.147036" lon="3.864807"><ele>2.36</ele><time>2025-05-26T20:32:23Z</time></trkpt>
<trkpt lat="51.147148" lon="3.864756"><ele>2.14</ele><time>2025-05-26T20:32:33Z</time></trkpt>
<trkpt lat="51.147256" lon="3.864739"><ele>1.94</ele><time>2025-05-26T20:32:42Z</time></trkpt>
<trkpt lat="51.147793" lon="3.864795"><ele>4.38</ele><time>2025-05-26T20:32:51Z</time></trkpt>
<trkpt lat="51.148074" lon="3.864783"><ele>6.22</ele><time>2025-05-26T20:33:01Z</time></trkpt>
<trkpt lat="51.14858" lon="3.864737"><ele>5.16</ele><time>2025-05-26T20:33:10Z</time></trkpt>
<trkpt lat="51.153812" lon="3.863443"><ele>5.16</ele><time>2025-05-26T20:33:20Z</time></trkpt>
<trkpt lat="51.153884" lon="3.863894"><ele>7.08</ele><time>2025-05-26T20:36:36Z</time></trkpt>
<trkpt lat="51.154686" lon="3.867964"><ele>5.19</ele><time>2025-05-26T20:39:52Z</time></trkpt>
<trkpt lat="51.157307" lon="3.891911"><ele>4.47</ele><time>2025-05-26T20:43:09Z</time></trkpt>
<trkpt lat="51.157307" lon="3.891911"><ele>4.47</ele><time>2025-05-26T20:43:09Z</time></trkpt>
<trkpt lat="51.157318" lon="3.892008"><ele>3.74</ele><time>2025-05-26T20:43:11Z</time></trkpt>
<trkpt lat="51.157881" lon="3.891723"><ele>1.0</ele><time>2025-05-26T20:43:25Z</time></trkpt>
<trkpt lat="51.160513" lon="3.889739"><ele>-0.79</ele><time>2025-05-26T20:43:39Z</time></trkpt>
<trkpt lat="51.163026" lon="3.888049"><ele>2.87</ele><time>2025-05-26T20:43:53Z</time></trkpt>
<trkpt lat="51.164059" lon="3.887295"><ele>1.0</ele><time>2025-05-26T20:44:07Z</time></trkpt>
<trkpt lat="51.164405" lon="3.887082"><ele>0.57</ele><time>2025-05-26T20:44:21Z</time></trkpt>
<trkpt lat="51.166517" lon="3.885913"><ele>2.75</ele><time>2025-05-26T20:44:36Z</time></trkpt>
<trkpt lat="51.166936" lon="3.885702"><ele>2.03</ele><time>2025-05-26T20:44:50Z</time></trkpt>
<trkpt lat="51.167802" lon="3.885298"><ele>3.02</ele><time>2025-05-26T20:45:04Z</time></trkpt>
<trkpt lat="51.169042" lon="3.884686"><ele>4.74</ele><time>2025-05-26T20:45:18Z</time></trkpt>
<trkpt lat="51.170001" lon="3.884242"><ele>5.73</ele><time>2025-05-26T20:45:32Z</time></trkpt>
<trkpt lat="51.17094" lon="3.884063"><ele>5.61</ele><time>2025-05-26T20:45:47Z</time></trkpt>
<trkpt lat="51.170988" lon="3.884053"><ele>5.44</ele><time>2025-05-26T20:46:01Z</time></trkpt>
<trkpt lat="51.171003" lon="3.884237"><ele>5.54</ele><time>2025-05-26T20:46:23Z</time></trkpt>
<trkpt lat="51.171451" lon="3.894054"><ele>2.78</ele><time>2025-05-26T20:46:46Z</time></trkpt>
<trkpt lat="51.173144" lon="3.89325"><ele>2.68</ele><time>2025-05-26T20:46:57Z</time></trkpt>
<trkpt lat="51.17566" lon="3.892689"><ele>6.7</ele><time>2025-05-26T20:47:08Z</time></trkpt>
<trkpt lat="51.176657" lon="3.892485"><ele>12.97</ele><time>2025-05-26T20:47:19Z</time></trkpt>
<trkpt lat="51.176814" lon="3.892421"><ele>13.0</ele><time>2025-05-26T20:47:30Z</time></trkpt>
<trkpt lat="51.178793" lon="3.891013"><ele>6.35</ele><time>2025-05-26T20:47:41Z</time></trkpt>
<trkpt lat="51.178884" lon="3.890927"><ele>6.66</ele><time>2025-05-26T20:47:52Z</time></trkpt>
<trkpt lat="51.178978" lon="3.890769"><ele>7.48</ele><time>2025-05-26T20:48:03Z</time></trkpt>
<trkpt lat="51.179101" lon="3.890547"><ele>8.03</ele><time>2025-05-26T20:48:15Z</time></trkpt>
<trkpt lat="51.179188" lon="3.890428"><ele>8.46</ele><time>2025-05-26T20:48:26Z</time></trkpt>
<trkpt lat="51.179275" lon="3.890392"><ele>8.59</ele><time>2025-05-26T20:48:37Z</time></trkpt>
<trkpt lat="51.181372" lon="3.890603"><ele>2.0</ele><time>2025-05-26T20:48:48Z</time></trkpt>
<trkpt lat="51.181475" lon="3.890569"><ele>2.31</ele><time>2025-05-26T20:48:59Z</time></trkpt>
<trkpt lat="51.181641" lon="3.890454"><ele>3.24</ele><time>2025-05-26T20:49:10Z</time></trkpt>
<trkpt lat="51.184485" lon="3.89089"><ele>4.74</ele><time>2025-05-26T20:49:21Z</time></trkpt>
<trkpt lat="51.184573" lon="3.889177"><ele>9.43</ele><time>2025-05-26T20:49:32Z</time></trkpt>
<trkpt lat="51.184666" lon="3.889124"><ele>9.95</ele><time>2025-05-26T20:49:44Z</time></trkpt>
<trkpt lat="51.185569" lon="3.889221"><ele>5.0</ele><time>2025-05-26T20:49:55Z</time></trkpt>
<trkpt lat="51.185502" lon="3.88853"><ele>4.33</ele><time>2025-05-26T20:50:01Z</time></trkpt>
<trkpt lat="51.185369" lon="3.886157"><ele>2.67</ele><time>2025-05-26T20:50:07Z</time></trkpt>
<trkpt lat="51.18523" lon="3.885277"><ele>1.83</ele><time>2025-05-26T20:50:13Z</time></trkpt>
<trkpt lat="51.184977" lon="3.88298"><ele>3.0</ele><time>2025-05-26T20:50:19Z</time></trkpt>
<trkpt lat="51.184994" lon="3.8829"><ele>3.0</ele><time>2025-05-26T20:50:25Z</time></trkpt>
<trkpt lat="51.185032" lon="3.882812"><ele>3.11</ele><time>2025-05-26T20:50:31Z</time></trkpt>
<trkpt lat="51.185188" lon="3.882659"><ele>3.39</ele><time>2025-05-26T20:50:37Z</time></trkpt>
<trkpt lat="51.186149" lon="3.882218"><ele>2.86</ele><time>2025-05-26T20:50:43Z</time></trkpt>
<trkpt lat="51.186218" lon="3.882217"><ele>2.62</ele><time>2025-05-26T20:50:49Z</time></trkpt>
<trkpt lat="51.186953" lon="3.883203"><ele>1.53</ele><time>2025-05-26T20:50:55Z</time></trkpt>
<trkpt lat="51.187076" lon="3.883333"><ele>2.0</ele><time>2025-05-26T20:51:01Z</time></trkpt>
<trkpt lat="51.187313" lon="3.883529"><ele>1.67</ele><time>2025-05-26T20:51:07Z</time></trkpt>
<trkpt lat="51.187751" lon="3.883762"><ele>1.49</ele><time>2025-05-26T20:51:13Z</time></trkpt>
<trkpt lat="51.187882" lon="3.883796"><ele>2.16</ele><time>2025-05-26T20:51:19Z</time></trkpt>
<trkpt lat="51.187618" lon="3.881242"><ele>2.0</ele><time>2025-05-26T20:51:30Z</time></trkpt>
<trkpt lat="51.187444" lon="3.881184"><ele>2.2</ele><time>2025-05-26T20:51:37Z</time></trkpt>
<trkpt lat="51.187151" lon="3.880914"><ele>3.18</ele><time>2025-05-26T20:51:43Z</time></trkpt>
<trkpt lat="51.184742" lon="3.878403"><ele>3.0</ele><time>2025-05-26T20:51:49Z</time></trkpt>
<trkpt lat="51.184682" lon="3.878363"><ele>3.0</ele><time>2025-05-26T20:51:56Z</time></trkpt>
<trkpt lat="51.184542" lon="3.878341"><ele>3.0</ele><time>2025-05-26T20:52:02Z</time></trkpt>
<trkpt lat="51.184362" lon="3.878435"><ele>3.0</ele><time>2025-05-26T20:52:09Z</time></trkpt>
<trkpt lat="51.18429" lon="3.878531"><ele>3.0</ele><time>2025-05-26T20:52:15Z</time></trkpt>
<trkpt lat="51.183895" lon="3.87923"><ele>3.97</ele><time>2025-05-26T20:52:22Z</time></trkpt>
<trkpt lat="51.186911" lon="3.882754"><ele>1.09</ele><time>2025-05-26T20:52:28Z</time></trkpt>
<trkpt lat="51.187208" lon="3.883053"><ele>1.0</ele><time>2025-05-26T20:52:34Z</time></trkpt>
<trkpt lat="51.187711" lon="3.883332"><ele>1.01</ele><time>2025-05-26T20:52:40Z</time></trkpt>
<trkpt lat="51.18843" lon="3.883647"><ele>3.08</ele><time>2025-05-26T20:52:45Z</time></trkpt>
<trkpt lat="51.188962" lon="3.883842"><ele>2.43</ele><time>2025-05-26T20:52:51Z</time></trkpt>
<trkpt lat="51.189159" lon="3.883872"><ele>3.03</ele><time>2025-05-26T20:52:57Z</time></trkpt>
<trkpt lat="51.189365" lon="3.883874"><ele>3.69</ele><time>2025-05-26T20:53:03Z</time></trkpt>
<trkpt lat="51.189961" lon="3.883717"><ele>2.52</ele><time>2025-05-26T20:53:09Z</time></trkpt>
<trkpt lat="51.190279" lon="3.883684"><ele>2.0</ele><time>2025-05-26T20:53:15Z</time></trkpt>
<trkpt lat="51.190473" lon="3.883736"><ele>2.0</ele><time>2025-05-26T20:53:21Z</time></trkpt>
<trkpt lat="51.190789" lon="3.883948"><ele>2.84</ele><time>2025-05-26T20:53:27Z</time></trkpt>
<trkpt lat="51.190943" lon="3.884134"><ele>3.39</ele><time>2025-05-26T20:53:33Z</time></trkpt>
<trkpt lat="51.191855" lon="3.885448"><ele>3.54</ele><time>2025-05-26T20:53:39Z</time></trkpt>
<trkpt lat="51.191975" lon="3.885555"><ele>3.88</ele><time>2025-05-26T20:53:45Z</time></trkpt>
<trkpt lat="51.192102" lon="3.885625"><ele>3.43</ele><time>2025-05-26T20:53:51Z</time></trkpt>
<trkpt lat="51.192298" lon="3.885679"><ele>3.0</ele><time>2025-05-26T20:53:57Z</time></trkpt>
<trkpt lat="51.195508" lon="3.886065"><ele>1.97</ele><time>2025-05-26T20:54:03Z</time></trkpt>
<trkpt lat="51.196448" lon="3.886094"><ele>2.0</ele><time>2025-05-26T20:54:09Z</time></trkpt>
<trkpt lat="51.197232" lon="3.886377"><ele>1.0</ele><time>2025-05-26T20:54:15Z</time></trkpt>
<trkpt lat="51.197543" lon="3.886528"><ele>1.5</ele><time>2025-05-26T20:54:21Z</time></trkpt>
<trkpt lat="51.197789" lon="3.886671"><ele>2.0</ele><time>2025-05-26T20:54:27Z</time></trkpt>
<trkpt lat="51.198066" lon="3.886864"><ele>2.0</ele><time>2025-05-26T20:54:33Z</time></trkpt>
<trkpt lat="51.19807" lon="3.886839"><ele>1.5</ele><time>2025-05-26T20:55:03Z</time></trkpt>
<trkpt lat="51.19807" lon="3.886839"><ele>1.5</ele><time>2025-05-26T20:55:03Z</time></trkpt>
<trkpt lat="51.198066" lon="3.886864"><ele>2.0</ele><time>2025-05-26T20:55:04Z</time></trkpt>
<trkpt lat="51.198376" lon="3.887045"><ele>2.46</ele><time>2025-05-26T20:55:09Z</time></trkpt>
<trkpt lat="51.198748" lon="3.887248"><ele>3.0</ele><time>2025-05-26T20:55:15Z</time></trkpt>
<trkpt lat="51.199074" lon="3.887374"><ele>3.66</ele><time>2025-05-26T20:55:21Z</time></trkpt>
<trkpt lat="51.19999" lon="3.887619"><ele>2.45</ele><time>2025-05-26T20:55:27Z</time></trkpt>
<trkpt lat="51.200068" lon="3.88653"><ele>2.25</ele><time>2025-05-26T20:55:32Z</time></trkpt>
<trkpt lat="51.200119" lon="3.886318"><ele>2.57</ele><time>2025-05-26T20:55:38Z</time></trkpt>
<trkpt lat="51.20031" lon="3.886353"><ele>2.0</ele><time>2025-05-26T20:55:55Z</time></trkpt>
<trkpt lat="51.200331" lon="3.886276"><ele>2.0</ele><time>2025-05-26T20:55:57Z</time></trkpt>
<trkpt lat="51.200398" lon="3.886186"><ele>2.0</ele><time>2025-05-26T20:56:00Z</time></trkpt>
<trkpt lat="51.200688" lon="3.885943"><ele>2.6</ele><time>2025-05-26T20:56:02Z</time></trkpt>
<trkpt lat="51.201433" lon="3.88545"><ele>3.32</ele><time>2025-05-26T20:56:04Z</time></trkpt>
<trkpt lat="51.20172" lon="3.885226"><ele>2.81</ele><time>2025-05-26T20:56:07Z</time></trkpt>
<trkpt lat="51.201993" lon="3.884964"><ele>2.15</ele><time>2025-05-26T20:56:09Z</time></trkpt>
<trkpt lat="51.202187" lon="3.884908"><ele>2.58</ele><time>2025-05-26T20:56:12Z</time></trkpt>
<trkpt lat="51.20269" lon="3.884863"><ele>3.0</ele><time>2025-05-26T20:56:14Z</time></trkpt>
<trkpt lat="51.202815" lon="3.88482"><ele>3.09</ele><time>2025-05-26T20:56:17Z</time></trkpt>
<trkpt lat="51.203284" lon="3.884582"><ele>3.59</ele><time>2025-05-26T20:56:19Z</time></trkpt>
<trkpt lat="51.203444" lon="3.884454"><ele>3.98</ele><time>2025-05-26T20:56:21Z</time></trkpt>
<trkpt lat="51.20353" lon="3.884623"><ele>3.81</ele><time>2025-05-26T20:56:24Z</time></trkpt>
<trkpt lat="51.203604" lon="3.884904"><ele>3.32</ele><time>2025-05-26T20:56:26Z</time></trkpt>
<trkpt lat="51.205422" lon="3.884112"><ele>-1.0</ele><time>2025-05-26T20:56:52Z</time></trkpt>
<trkpt lat="51.206561" lon="3.883477"><ele>-1.0</ele><time>2025-05-26T20:57:18Z</time></trkpt>
<trkpt lat="51.206716" lon="3.883238"><ele>-0.54</ele><time>2025-05-26T20:57:43Z</time></trkpt>
<trkpt lat="51.206763" lon="3.882858"><ele>0.0</ele><time>2025-05-26T20:58:09Z</time></trkpt>
<trkpt lat="51.206287" lon="3.880139"><ele>2.18</ele><time>2025-05-26T20:58:35Z</time></trkpt>
<trkpt lat="51.206221" lon="3.879892"><ele>2.76</ele><time>2025-05-26T20:59:01Z</time></trkpt>
<trkpt lat="51.206104" lon="3.879701"><ele>3.05</ele><time>2025-05-26T20:59:26Z</time></trkpt>
<trkpt lat="51.206008" lon="3.879622"><ele>3.74</ele><time>2025-05-26T20:59:52Z</time></trkpt>
<trkpt lat="51.205122" lon="3.87772"><ele>-1.09</ele><time>2025-05-26T21:00:18Z</time></trkpt>
<trkpt lat="51.204914" lon="3.877168"><ele>-0.55</ele><time>2025-05-26T21:00:43Z</time></trkpt>
<trkpt lat="51.204289" lon="3.87576"><ele>0.0</ele><time>2025-05-26T21:01:09Z</time></trkpt>
<trkpt lat="51.204235" lon="3.875694"><ele>0.0</ele><time>2025-05-26T21:01:35Z</time></trkpt>
<trkpt lat="51.204165" lon="3.875704"><ele>0.0</ele><time>2025-05-26T21:02:01Z</time></trkpt>
<trkpt lat="51.204165" lon="3.875704"><ele>0.0</ele><time>2025-05-26T21:02:01Z</time></trkpt>
<trkpt lat="51.204235" lon="3.875694"><ele>0.0</ele><time>2025-05-26T21:02:26Z</time></trkpt>
<trkpt lat="51.204289" lon="3.87576"><ele>0.0</ele><time>2025-05-26T21:02:52Z</time></trkpt>
<trkpt lat="51.204914" lon="3.877168"><ele>-0.55</ele><time>2025-05-26T21:03:18Z</time></trkpt>
<trkpt lat="51.205122" lon="3.87772"><ele>-1.09</ele><time>2025-05-26T21:03:43Z</time></trkpt>
<trkpt lat="51.206008" lon="3.879622"><ele>3.74</ele><time>2025-05-26T21:04:09Z</time></trkpt>
<trkpt lat="51.206104" lon="3.879701"><ele>3.05</ele><time>2025-05-26T21:04:35Z</time></trkpt>
<trkpt lat="51.206221" lon="3.879892"><ele>2.76</ele><time>2025-05-26T21:05:01Z</time></trkpt>
<trkpt lat="51.206287" lon="3.880139"><ele>2.18</ele><time>2025-05-26T21:05:26Z</time></trkpt>
<trkpt lat="51.206763" lon="3.882858"><ele>0.0</ele><time>2025-05-26T21:05:52Z</time></trkpt>
<trkpt lat="51.206716" lon="3.883238"><ele>-0.54</ele><time>2025-05-26T21:06:18Z</time></trkpt>
<trkpt lat="51.206561" lon="3.883477"><ele>-1.0</ele><time>2025-05-26T21:06:44Z</time></trkpt>
<trkpt lat="51.205422" lon="3.884112"><ele>-1.0</ele><time>2025-05-26T21:07:09Z</time></trkpt>
<trkpt lat="51.203604" lon="3.884904"><ele>3.32</ele><time>2025-05-26T21:07:35Z</time></trkpt>
<trkpt lat="51.20353" lon="3.884623"><ele>3.81</ele><time>2025-05-26T21:07:37Z</time></trkpt>
<trkpt lat="51.203444" lon="3.884454"><ele>3.98</ele><time>2025-05-26T21:07:40Z</time></trkpt>
<trkpt lat="51.203284" lon="3.884582"><ele>3.59</ele><time>2025-05-26T21:07:42Z</time></trkpt>
<trkpt lat="51.202815" lon="3.88482"><ele>3.09</ele><time>2025-05-26T21:07:45Z</time></trkpt>
<trkpt lat="51.20269" lon="3.884863"><ele>3.0</ele><time>2025-05-26T21:07:47Z</time></trkpt>
<trkpt lat="51.202187" lon="3.884908"><ele>2.58</ele><time>2025-05-26T21:07:49Z</time></trkpt>
<trkpt lat="51.201993" lon="3.884964"><ele>2.15</ele><time>2025-05-26T21:07:52Z</time></trkpt>
<trkpt lat="51.20172" lon="3.885226"><ele>2.81</ele><time>2025-05-26T21:07:54Z</time></trkpt>
<trkpt lat="51.201433" lon="3.88545"><ele>3.32</ele><time>2025-05-26T21:07:57Z</time></trkpt>
<trkpt lat="51.200688" lon="3.885943"><ele>2.6</ele><time>2025-05-26T21:07:59Z</time></trkpt>
<trkpt lat="51.200398" lon="3.886186"><ele>2.0</ele><time>2025-05-26T21:08:01Z</time></trkpt>
<trkpt lat="51.200331" lon="3.886276"><ele>2.0</ele><time>2025-05-26T21:08:04Z</time></trkpt>
<trkpt lat="51.20031" lon="3.886353"><ele>2.0</ele><time>2025-05-26T21:08:06Z</time></trkpt>
<trkpt lat="51.200327" lon="3.886444"><ele>1.8</ele><time>2025-05-26T21:08:08Z</time></trkpt>
<trkpt lat="51.200445" lon="3.886791"><ele>1.0</ele><time>2025-05-26T21:08:10Z</time></trkpt>
<trkpt lat="51.200509" lon="3.886958"><ele>1.0</ele><time>2025-05-26T21:08:12Z</time></trkpt>
<trkpt lat="51.200589" lon="3.887099"><ele>0.94</ele><time>2025-05-26T21:08:13Z</time></trkpt>
<trkpt lat="51.20069" lon="3.887184"><ele>0.93</ele><time>2025-05-26T21:08:15Z</time></trkpt>
<trkpt lat="51.200849" lon="3.887265"><ele>1.0</ele><time>2025-05-26T21:08:17Z</time></trkpt>
<trkpt lat="51.200964" lon="3.887361"><ele>1.0</ele><time>2025-05-26T21:08:19Z</time></trkpt>
<trkpt lat="51.201125" lon="3.887831"><ele>1.95</ele><time>2025-05-26T21:08:20Z</time></trkpt>
<trkpt lat="51.201134" lon="3.887954"><ele>1.92</ele><time>2025-05-26T21:08:22Z</time></trkpt>
<trkpt lat="51.201114" lon="3.888123"><ele>2.23</ele><time>2025-05-26T21:08:24Z</time></trkpt>
<trkpt lat="51.201071" lon="3.888274"><ele>2.79</ele><time>2025-05-26T21:08:26Z</time></trkpt>
<trkpt lat="51.201194" lon="3.888823"><ele>2.7</ele><time>2025-05-26T21:08:34Z</time></trkpt>
<trkpt lat="51.201354" lon="3.889444"><ele>3.0</ele><time>2025-05-26T21:08:43Z</time></trkpt>
<trkpt lat="51.201495" lon="3.88988"><ele>3.0</ele><time>2025-05-26T21:08:51Z</time></trkpt>
<trkpt lat="51.202104" lon="3.891304"><ele>3.58</ele><time>2025-05-26T21:09:00Z</time></trkpt>
<trkpt lat="51.202267" lon="3.891727"><ele>4.0</ele><time>2025-05-26T21:09:08Z</time></trkpt>
<trkpt lat="51.202456" lon="3.892138"><ele>3.3</ele><time>2025-05-26T21:09:17Z</time></trkpt>
<trkpt lat="51.202616" lon="3.892367"><ele>2.16</ele><time>2025-05-26T21:09:25Z</time></trkpt>
<trkpt lat="51.20281" lon="3.89255"><ele>1.18</ele><time>2025-05-26T21:09:34Z</time></trkpt>
<trkpt lat="51.20295" lon="3.89262"><ele>1.43</ele><time>2025-05-26T21:09:42Z</time></trkpt>
<trkpt lat="51.20316" lon="3.89265"><ele>1.16</ele><time>2025-05-26T21:09:51Z</time></trkpt>
<trkpt lat="51.20339" lon="3.8926"><ele>0.36</ele><time>2025-05-26T21:09:59Z</time></trkpt>
<trkpt lat="51.203691" lon="3.892465"><ele>0.0</ele><time>2025-05-26T21:10:07Z</time></trkpt>
<trkpt lat="51.204308" lon="3.892161"><ele>1.62</ele><time>2025-05-26T21:10:16Z</time></trkpt>
<trkpt lat="51.204785" lon="3.891829"><ele>1.77</ele><time>2025-05-26T21:10:24Z</time></trkpt>
<trkpt lat="51.205091" lon="3.891602"><ele>1.0</ele><time>2025-05-26T21:10:33Z</time></trkpt>
<trkpt lat="51.20547" lon="3.891325"><ele>1.0</ele><time>2025-05-26T21:10:41Z</time></trkpt>
<trkpt lat="51.205854" lon="3.89108"><ele>-0.11</ele><time>2025-05-26T21:10:50Z</time></trkpt>
<trkpt lat="51.206248" lon="3.890904"><ele>-0.25</ele><time>2025-05-26T21:10:58Z</time></trkpt>
<trkpt lat="51.206763" lon="3.890687"><ele>0.34</ele><time>2025-05-26T21:11:07Z</time></trkpt>
<trkpt lat="51.207012" lon="3.890602"><ele>0.96</ele><time>2025-05-26T21:11:15Z</time></trkpt>
<trkpt lat="51.207219" lon="3.890559"><ele>0.99</ele><time>2025-05-26T21:11:24Z</time></trkpt>
<trkpt lat="51.211894" lon="3.890164"><ele>3.71</ele><time>2025-05-26T21:11:32Z</time></trkpt>
<trkpt lat="51.211928" lon="3.89044"><ele>3.3</ele><time>2025-05-26T21:11:45Z</time></trkpt>
<trkpt lat="51.21276" lon="3.89237"><ele>4.37</ele><time>2025-05-26T21:11:58Z</time></trkpt>
<trkpt lat="51.21371" lon="3.89442"><ele>2.17</ele><time>2025-05-26T21:12:11Z</time></trkpt>
<trkpt lat="51.21437" lon="3.89589"><ele>0.0</ele><time>2025-05-26T21:12:24Z</time></trkpt>
<trkpt lat="51.214921" lon="3.895471"><ele>0.3</ele><time>2025-05-26T21:12:29Z</time></trkpt>
<trkpt lat="51.215006" lon="3.895637"><ele>0.0</ele><time>2025-05-26T21:12:38Z</time></trkpt>
<trkpt lat="51.221193" lon="3.902546"><ele>2.76</ele><time>2025-05-26T21:12:48Z</time></trkpt>
<trkpt lat="51.221795" lon="3.903254"><ele>2.54</ele><time>2025-05-26T21:12:57Z</time></trkpt>
<trkpt lat="51.221992" lon="3.903646"><ele>1.8</ele><time>2025-05-26T21:13:07Z</time></trkpt>
<trkpt lat="51.222321" lon="3.904369"><ele>3.84</ele><time>2025-05-26T21:13:16Z</time></trkpt>
<trkpt lat="51.222595" lon="3.904837"><ele>2.04</ele><time>2025-05-26T21:13:25Z</time></trkpt>
<trkpt lat="51.222992" lon="3.905574"><ele>1.46</ele><time>2025-05-26T21:13:35Z</time></trkpt>
<trkpt lat="51.223465" lon="3.907004"><ele>2.31</ele><time>2025-05-26T21:13:44Z</time></trkpt>
<trkpt lat="51.223551" lon="3.907179"><ele>1.37</ele><time>2025-05-26T21:13:54Z</time></trkpt>
<trkpt lat="51.224171" lon="3.908043"><ele>1.0</ele><time>2025-05-26T21:14:03Z</time></trkpt>
<trkpt lat="51.224232" lon="3.908155"><ele>1.0</ele><time>2025-05-26T21:14:13Z</time></trkpt>
<trkpt lat="51.224353" lon="3.908251"><ele>2.43</ele><time>2025-05-26T21:14:14Z</time></trkpt>
<trkpt lat="51.224353" lon="3.908251"><ele>2.43</ele><time>2025-05-26T21:14:14Z</time></trkpt>
<trkpt lat="51.224232" lon="3.908155"><ele>1.0</ele><time>2025-05-26T21:14:15Z</time></trkpt>
<trkpt lat="51.224193" lon="3.908358"><ele>1.0</ele><time>2025-05-26T21:14:25Z</time></trkpt>
<trkpt lat="51.224161" lon="3.908766"><ele>0.45</ele><time>2025-05-26T21:14:35Z</time></trkpt>
<trkpt lat="51.22388" lon="3.91083"><ele>1.97</ele><time>2025-05-26T21:14:45Z</time></trkpt>
<trkpt lat="51.22338" lon="3.91386"><ele>0.76</ele><time>2025-05-26T21:14:56Z</time></trkpt>
<trkpt lat="51.222709" lon="3.914823"><ele>0.09</ele><time>2025-05-26T21:15:06Z</time></trkpt>
<trkpt lat="51.22178" lon="3.91666"><ele>1.0</ele><time>2025-05-26T21:15:16Z</time></trkpt>
<trkpt lat="51.221631" lon="3.917619"><ele>1.87</ele><time>2025-05-26T21:15:26Z</time></trkpt>
<trkpt lat="51.221557" lon="3.917975"><ele>1.61</ele><time>2025-05-26T21:15:37Z</time></trkpt>
<trkpt lat="51.221497" lon="3.919458"><ele>0.39</ele><time>2025-05-26T21:15:47Z</time></trkpt>
<trkpt lat="51.221736" lon="3.92187"><ele>3.0</ele><time>2025-05-26T21:15:57Z</time></trkpt>
<trkpt lat="51.221747" lon="3.922359"><ele>2.51</ele><time>2025-05-26T21:16:07Z</time></trkpt>
<trkpt lat="51.22198" lon="3.924264"><ele>1.52</ele><time>2025-05-26T21:16:17Z</time></trkpt>
<trkpt lat="51.223664" lon="3.931709"><ele>3.19</ele><time>2025-05-26T21:16:28Z</time></trkpt>
<trkpt lat="51.223755" lon="3.931597"><ele>3.09</ele><time>2025-05-26T21:16:29Z</time></trkpt>
<trkpt lat="51.223755" lon="3.931597"><ele>3.09</ele><time>2025-05-26T21:16:29Z</time></trkpt>
<trkpt lat="51.224401" lon="3.930799"><ele>2.98</ele><time>2025-05-26T21:16:33Z</time></trkpt>
<trkpt lat="51.225032" lon="3.930494"><ele>3.8</ele><time>2025-05-26T21:16:37Z</time></trkpt>
<trkpt lat="51.22508" lon="3.93052"><ele>3.91</ele><time>2025-05-26T21:16:41Z</time></trkpt>
<trkpt lat="51.225105" lon="3.930359"><ele>3.56</ele><time>2025-05-26T21:16:49Z</time></trkpt>
<trkpt lat="51.225265" lon="3.929724"><ele>2.96</ele><time>2025-05-26T21:16:57Z</time></trkpt>
<trkpt lat="51.22539" lon="3.92936"><ele>3.1</ele><time>2025-05-26T21:17:05Z</time></trkpt>
<trkpt lat="51.22658" lon="3.92748"><ele>0.76</ele><time>2025-05-26T21:17:13Z</time></trkpt>
<trkpt lat="51.22676" lon="3.92738"><ele>1.62</ele><time>2025-05-26T21:17:21Z</time></trkpt>
<trkpt lat="51.22936" lon="3.92675"><ele>1.0</ele><time>2025-05-26T21:17:28Z</time></trkpt>
<trkpt lat="51.23049" lon="3.92715"><ele>0.76</ele><time>2025-05-26T21:17:36Z</time></trkpt>
<trkpt lat="51.2306" lon="3.92714"><ele>0.89</ele><time>2025-05-26T21:17:44Z</time></trkpt>
<trkpt lat="51.23313" lon="3.92492"><ele>1.52</ele><time>2025-05-26T21:17:52Z</time></trkpt>
<trkpt lat="51.23324" lon="3.9248"><ele>1.09</ele><time>2025-05-26T21:18:00Z</time></trkpt>
<trkpt lat="51.23337" lon="3.9246"><ele>1.06</ele><time>2025-05-26T21:18:08Z</time></trkpt>
<trkpt lat="51.234513" lon="3.922461"><ele>3.0</ele><time>2025-05-26T21:18:16Z</time></trkpt>
<trkpt lat="51.235901" lon="3.920093"><ele>1.92</ele><time>2025-05-26T21:18:24Z</time></trkpt>
<trkpt lat="51.236724" lon="3.918636"><ele>2.79</ele><time>2025-05-26T21:18:31Z</time></trkpt>
<trkpt lat="51.236834" lon="3.918579"><ele>2.4</ele><time>2025-05-26T21:18:39Z</time></trkpt>
<trkpt lat="51.236971" lon="3.918587"><ele>2.1</ele><time>2025-05-26T21:18:47Z</time></trkpt>
<trkpt lat="51.23915" lon="3.919028"><ele>2.94</ele><time>2025-05-26T21:18:55Z</time></trkpt>
<trkpt lat="51.239423" lon="3.919068"><ele>3.92</ele><time>2025-05-26T21:19:03Z</time></trkpt>
<trkpt lat="51.239785" lon="3.919053"><ele>4.55</ele><time>2025-05-26T21:19:11Z</time></trkpt>
<trkpt lat="51.239719" lon="3.917975"><ele>-0.29</ele><time>2025-05-26T21:19:15Z</time></trkpt>
<trkpt lat="51.239718" lon="3.91768"><ele>-1.0</ele><time>2025-05-26T21:19:18Z</time></trkpt>
<trkpt lat="51.239745" lon="3.917409"><ele>-0.92</ele><time>2025-05-26T21:19:22Z</time></trkpt>
<trkpt lat="51.239823" lon="3.91705"><ele>-1.03</ele><time>2025-05-26T21:19:26Z</time></trkpt>
<trkpt lat="51.240041" lon="3.916502"><ele>0.15</ele><time>2025-05-26T21:19:29Z</time></trkpt>
<trkpt lat="51.240618" lon="3.915219"><ele>2.21</ele><time>2025-05-26T21:19:33Z</time></trkpt>
<trkpt lat="51.240781" lon="3.915334"><ele>1.8</ele><time>2025-05-26T21:19:49Z</time></trkpt>
<trkpt lat="51.241036" lon="3.915467"><ele>1.32</ele><time>2025-05-26T21:20:05Z</time></trkpt>
<trkpt lat="51.244449" lon="3.916622"><ele>0.86</ele><time>2025-05-26T21:20:21Z</time></trkpt>
<trkpt lat="51.244788" lon="3.916772"><ele>2.24</ele><time>2025-05-26T21:20:24Z</time></trkpt>
<trkpt lat="51.245125" lon="3.919117"><ele>2.0</ele><time>2025-05-26T21:20:37Z</time></trkpt>
<trkpt lat="51.245022" lon="3.919168"><ele>2.55</ele><time>2025-05-26T21:20:38Z</time></trkpt>
<trkpt lat="51.245022" lon="3.919168"><ele>2.55</ele><time>2025-05-26T21:20:38Z</time></trkpt>
<trkpt lat="51.245125" lon="3.919117"><ele>2.0</ele><time>2025-05-26T21:20:40Z</time></trkpt>
<trkpt lat="51.244788" lon="3.916772"><ele>2.24</ele><time>2025-05-26T21:20:44Z</time></trkpt>
<trkpt lat="51.244728" lon="3.916233"><ele>1.01</ele><time>2025-05-26T21:20:48Z</time></trkpt>
<trkpt lat="51.244666" lon="3.91513"><ele>-1.6</ele><time>2025-05-26T21:20:52Z</time></trkpt>
<trkpt lat="51.244672" lon="3.91489"><ele>-0.92</ele><time>2025-05-26T21:20:56Z</time></trkpt>
<trkpt lat="51.244701" lon="3.914574"><ele>0.61</ele><time>2025-05-26T21:21:01Z</time></trkpt>
<trkpt lat="51.244697" lon="3.914459"><ele>1.04</ele><time>2025-05-26T21:21:05Z</time></trkpt>
<trkpt lat="51.24249" lon="3.914569"><ele>2.0</ele><time>2025-05-26T21:21:14Z</time></trkpt>
<trkpt lat="51.241267" lon="3.914607"><ele>4.56</ele><time>2025-05-26T21:21:22Z</time></trkpt>
<trkpt lat="51.241144" lon="3.914591"><ele>4.12</ele><time>2025-05-26T21:21:31Z</time></trkpt>
<trkpt lat="51.240738" lon="3.914449"><ele>3.66</ele><time>2025-05-26T21:21:40Z</time></trkpt>
<trkpt lat="51.240402" lon="3.914246"><ele>1.73</ele><time>2025-05-26T21:21:49Z</time></trkpt>
<trkpt lat="51.240157" lon="3.914003"><ele>0.41</ele><time>2025-05-26T21:21:57Z</time></trkpt>
<trkpt lat="51.23993" lon="3.91364"><ele>1.17</ele><time>2025-05-26T21:22:06Z</time></trkpt>
<trkpt lat="51.239514" lon="3.912568"><ele>0.99</ele><time>2025-05-26T21:22:15Z</time></trkpt>
<trkpt lat="51.23932" lon="3.91219"><ele>0.94</ele><time>2025-05-26T21:22:24Z</time></trkpt>
<trkpt lat="51.23907" lon="3.91186"><ele>1.35</ele><time>2025-05-26T21:22:32Z</time></trkpt>
<trkpt lat="51.23891" lon="3.911733"><ele>1.92</ele><time>2025-05-26T21:22:41Z</time></trkpt>
<trkpt lat="51.238737" lon="3.911631"><ele>2.55</ele><time>2025-05-26T21:22:50Z</time></trkpt>
<trkpt lat="51.238306" lon="3.911532"><ele>2.44</ele><time>2025-05-26T21:22:59Z</time></trkpt>
<trkpt lat="51.236317" lon="3.911431"><ele>-0.1</ele><time>2025-05-26T21:23:07Z</time></trkpt>
<trkpt lat="51.235802" lon="3.911513"><ele>0.11</ele><time>2025-05-26T21:23:16Z</time></trkpt>
<trkpt lat="51.23484" lon="3.911736"><ele>0.0</ele><time>2025-05-26T21:23:25Z</time></trkpt>
<trkpt lat="51.234647" lon="3.911809"><ele>0.0</ele><time>2025-05-26T21:23:34Z</time></trkpt>
<trkpt lat="51.234407" lon="3.911961"><ele>0.13</ele><time>2025-05-26T21:23:43Z</time></trkpt>
<trkpt lat="51.231711" lon="3.914656"><ele>1.68</ele><time>2025-05-26T21:23:51Z</time></trkpt>
<trkpt lat="51.231557" lon="3.91487"><ele>2.72</ele><time>2025-05-26T21:24:00Z</time></trkpt>
<trkpt lat="51.23112" lon="3.915555"><ele>2.96</ele><time>2025-05-26T21:24:09Z</time></trkpt>
<trkpt lat="51.228602" lon="3.919652"><ele>3.93</ele><time>2025-05-26T21:24:18Z</time></trkpt>
<trkpt lat="51.228364" lon="3.919962"><ele>2.89</ele><time>2025-05-26T21:24:26Z</time></trkpt>
<trkpt lat="51.228023" lon="3.920276"><ele>2.88</ele><time>2025-05-26T21:24:35Z</time></trkpt>
<trkpt lat="51.227695" lon="3.920471"><ele>2.39</ele><time>2025-05-26T21:24:44Z</time></trkpt>
<trkpt lat="51.226363" lon="3.920999"><ele>1.0</ele><time>2025-05-26T21:24:53Z</time></trkpt>
<trkpt lat="51.224791" lon="3.921848"><ele>1.25</ele><time>2025-05-26T21:25:01Z</time></trkpt>
<trkpt lat="51.224606" lon="3.921906"><ele>0.58</ele><time>2025-05-26T21:25:10Z</time></trkpt>
<trkpt lat="51.224321" lon="3.921957"><ele>0.05</ele><time>2025-05-26T21:25:19Z</time></trkpt>
<trkpt lat="51.22289" lon="3.922027"><ele>1.72</ele><time>2025-05-26T21:25:28Z</time></trkpt>
<trkpt lat="51.221736" lon="3.92187"><ele>3.0</ele><time>2025-05-26T21:25:37Z</time></trkpt>
<trkpt lat="51.221331" lon="3.921854"><ele>4.0</ele><time>2025-05-26T21:25:45Z</time></trkpt>
<trkpt lat="51.220884" lon="3.921932"><ele>3.18</ele><time>2025-05-26T21:25:54Z</time></trkpt>
<trkpt lat="51.21843" lon="3.922751"><ele>3.14</ele><time>2025-05-26T21:26:03Z</time></trkpt>
<trkpt lat="51.218239" lon="3.922753"><ele>5.2</ele><time>2025-05-26T21:26:12Z</time></trkpt>
<trkpt lat="51.218069" lon="3.92269"><ele>7.48</ele><time>2025-05-26T21:26:20Z</time></trkpt>
<trkpt lat="51.217914" lon="3.922581"><ele>8.31</ele><time>2025-05-26T21:26:29Z</time></trkpt>
<trkpt lat="51.217671" lon="3.922292"><ele>7.87</ele><time>2025-05-26T21:26:38Z</time></trkpt>
<trkpt lat="51.217536" lon="3.92218"><ele>6.82</ele><time>2025-05-26T21:26:47Z</time></trkpt>
<trkpt lat="51.217321" lon="3.922051"><ele>4.88</ele><time>2025-05-26T21:26:55Z</time></trkpt>
<trkpt lat="51.217048" lon="3.921981"><ele>2.88</ele><time>2025-05-26T21:27:04Z</time></trkpt>
<trkpt lat="51.215971" lon="3.921816"><ele>3.0</ele><time>2025-05-26T21:27:13Z</time></trkpt>
<trkpt lat="51.215884" lon="3.921826"><ele>3.0</ele><time>2025-05-26T21:27:22Z</time></trkpt>
<trkpt lat="51.215775" lon="3.921907"><ele>2.58</ele><time>2025-05-26T21:27:30Z</time></trkpt>
<trkpt lat="51.215675" lon="3.922018"><ele>2.12</ele><time>2025-05-26T21:27:39Z</time></trkpt>
<trkpt lat="51.21557" lon="3.922232"><ele>2.11</ele><time>2025-05-26T21:27:48Z</time></trkpt>
<trkpt lat="51.215541" lon="3.92238"><ele>1.95</ele><time>2025-05-26T21:27:57Z</time></trkpt>
<trkpt lat="51.215216" lon="3.927392"><ele>1.78</ele><time>2025-05-26T21:28:06Z</time></trkpt>
<trkpt lat="51.215177" lon="3.927598"><ele>1.64</ele><time>2025-05-26T21:28:14Z</time></trkpt>
<trkpt lat="51.215087" lon="3.927816"><ele>1.31</ele><time>2025-05-26T21:28:23Z</time></trkpt>
<trkpt lat="51.214897" lon="3.928083"><ele>0.67</ele><time>2025-05-26T21:28:32Z</time></trkpt>
<trkpt lat="51.212845" lon="3.930623"><ele>0.0</ele><time>2025-05-26T21:28:41Z</time></trkpt>
<trkpt lat="51.21252" lon="3.93109"><ele>0.0</ele><time>2025-05-26T21:28:49Z</time></trkpt>
<trkpt lat="51.210962" lon="3.933794"><ele>0.0</ele><time>2025-05-26T21:28:58Z</time></trkpt>
<trkpt lat="51.210676" lon="3.934181"><ele>1.62</ele><time>2025-05-26T21:29:07Z</time></trkpt>
<trkpt lat="51.21056" lon="3.934311"><ele>2.5</ele><time>2025-05-26T21:29:16Z</time></trkpt>
<trkpt lat="51.210222" lon="3.934518"><ele>1.8</ele><time>2025-05-26T21:29:24Z</time></trkpt>
<trkpt lat="51.208083" lon="3.935683"><ele>1.9</ele><time>2025-05-26T21:29:33Z</time></trkpt>
<trkpt lat="51.207875" lon="3.935762"><ele>2.0</ele><time>2025-05-26T21:29:42Z</time></trkpt>
<trkpt lat="51.207503" lon="3.935849"><ele>2.0</ele><time>2025-05-26T21:29:51Z</time></trkpt>
<trkpt lat="51.207087" lon="3.935862"><ele>0.41</ele><time>2025-05-26T21:29:59Z</time></trkpt>
<trkpt lat="51.205939" lon="3.93564"><ele>3.0</ele><time>2025-05-26T21:30:08Z</time></trkpt>
<trkpt lat="51.205663" lon="3.935601"><ele>2.38</ele><time>2025-05-26T21:30:17Z</time></trkpt>
<trkpt lat="51.205253" lon="3.935605"><ele>1.91</ele><time>2025-05-26T21:30:26Z</time></trkpt>
<trkpt lat="51.204846" lon="3.935697"><ele>1.0</ele><time>2025-05-26T21:30:35Z</time></trkpt>
<trkpt lat="51.204411" lon="3.935884"><ele>2.4</ele><time>2025-05-26T21:30:43Z</time></trkpt>
<trkpt lat="51.203327" lon="3.936422"><ele>4.0</ele><time>2025-05-26T21:30:52Z</time></trkpt>
<trkpt lat="51.202725" lon="3.936695"><ele>5.19</ele><time>2025-05-26T21:31:01Z</time></trkpt>
<trkpt lat="51.201223" lon="3.937456"><ele>5.53</ele><time>2025-05-26T21:31:10Z</time></trkpt>
<trkpt lat="51.200487" lon="3.937794"><ele>6.74</ele><time>2025-05-26T21:31:18Z</time></trkpt>
<trkpt lat="51.20012" lon="3.937969"><ele>5.31</ele><time>2025-05-26T21:31:27Z</time></trkpt>
<trkpt lat="51.200054" lon="3.938022"><ele>5.12</ele><time>2025-05-26T21:31:36Z</time></trkpt>
<trkpt lat="51.200014" lon="3.938106"><ele>4.82</ele><time>2025-05-26T21:31:45Z</time></trkpt>
<trkpt lat="51.200003" lon="3.938221"><ele>4.4</ele><time>2025-05-26T21:31:53Z</time></trkpt>
<trkpt lat="51.200135" lon="3.939389"><ele>3.8</ele><time>2025-05-26T21:32:02Z</time></trkpt>
<trkpt lat="51.200715" lon="3.942308"><ele>4.43</ele><time>2025-05-26T21:32:11Z</time></trkpt>
<trkpt lat="51.200866" lon="3.943249"><ele>3.88</ele><time>2025-05-26T21:32:20Z</time></trkpt>
<trkpt lat="51.201318" lon="3.945312"><ele>1.87</ele><time>2025-05-26T21:32:29Z</time></trkpt>
<trkpt lat="51.20212" lon="3.948729"><ele>6.33</ele><time>2025-05-26T21:32:37Z</time></trkpt>
<trkpt lat="51.205075" lon="3.960647"><ele>6.27</ele><time>2025-05-26T21:32:46Z</time></trkpt>
<trkpt lat="51.205574" lon="3.962635"><ele>6.03</ele><time>2025-05-26T21:32:55Z</time></trkpt>
<trkpt lat="51.20574" lon="3.963246"><ele>4.31</ele><time>2025-05-26T21:33:04Z</time></trkpt>
<trkpt lat="51.206328" lon="3.965713"><ele>2.22</ele><time>2025-05-26T21:33:12Z</time></trkpt>
<trkpt lat="51.207334" lon="3.969731"><ele>1.58</ele><time>2025-05-26T21:33:21Z</time></trkpt>
<trkpt lat="51.207638" lon="3.971006"><ele>4.62</ele><time>2025-05-26T21:33:30Z</time></trkpt>
<trkpt lat="51.210717" lon="3.983662"><ele>7.4</ele><time>2025-05-26T21:33:39Z</time></trkpt>
<trkpt lat="51.212514" lon="3.991132"><ele>2.0</ele><time>2025-05-26T21:33:47Z</time></trkpt>
<trkpt lat="51.213074" lon="3.993334"><ele>4.0</ele><time>2025-05-26T21:33:56Z</time></trkpt>
<trkpt lat="51.213552" lon="3.995375"><ele>4.35</ele><time>2025-05-26T21:34:05Z</time></trkpt>
<trkpt lat="51.215944" lon="4.005321"><ele>2.51</ele><time>2025-05-26T21:34:14Z</time></trkpt>
<trkpt lat="51.216463" lon="4.007831"><ele>1.27</ele><time>2025-05-26T21:34:22Z</time></trkpt>
<trkpt lat="51.218152" lon="4.015534"><ele>3.0</ele><time>2025-05-26T21:34:31Z</time></trkpt>
<trkpt lat="51.218362" lon="4.016432"><ele>3.14</ele><time>2025-05-26T21:34:40Z</time></trkpt>
<trkpt lat="51.218573" lon="4.017492"><ele>4.0</ele><time>2025-05-26T21:34:49Z</time></trkpt>
<trkpt lat="51.218604" lon="4.017607"><ele>3.99</ele><time>2025-05-26T21:34:58Z</time></trkpt>
<trkpt lat="51.218761" lon="4.017765"><ele>4.0</ele><time>2025-05-26T21:35:06Z</time></trkpt>
<trkpt lat="51.218729" lon="4.017959"><ele>4.0</ele><time>2025-05-26T21:35:10Z</time></trkpt>
<trkpt lat="51.218732" lon="4.01819"><ele>4.27</ele><time>2025-05-26T21:35:14Z</time></trkpt>
<trkpt lat="51.218952" lon="4.019205"><ele>4.66</ele><time>2025-05-26T21:35:18Z</time></trkpt>
<trkpt lat="51.219058" lon="4.019586"><ele>3.49</ele><time>2025-05-26T21:35:22Z</time></trkpt>
<trkpt lat="51.219194" lon="4.019963"><ele>2.13</ele><time>2025-05-26T21:35:26Z</time></trkpt>
<trkpt lat="51.219671" lon="4.021055"><ele>4.45</ele><time>2025-05-26T21:35:29Z</time></trkpt>
<trkpt lat="51.21984" lon="4.021525"><ele>6.77</ele><time>2025-05-26T21:35:33Z</time></trkpt>
<trkpt lat="51.219989" lon="4.022111"><ele>8.33</ele><time>2025-05-26T21:35:37Z</time></trkpt>
<trkpt lat="51.220098" lon="4.022615"><ele>8.56</ele><time>2025-05-26T21:35:41Z</time></trkpt>
<trkpt lat="51.218905" lon="4.023273"><ele>4.2</ele><time>2025-05-26T21:35:54Z</time></trkpt>
<trkpt lat="51.219082" lon="4.024044"><ele>2.0</ele><time>2025-05-26T21:36:02Z</time></trkpt>
<trkpt lat="51.219253" lon="4.024616"><ele>3.0</ele><time>2025-05-26T21:36:10Z</time></trkpt>
<trkpt lat="51.219803" lon="4.025929"><ele>2.63</ele><time>2025-05-26T21:36:18Z</time></trkpt>
<trkpt lat="51.219922" lon="4.02626"><ele>3.72</ele><time>2025-05-26T21:36:26Z</time></trkpt>
<trkpt lat="51.220021" lon="4.02663"><ele>4.07</ele><time>2025-05-26T21:36:34Z</time></trkpt>
<trkpt lat="51.221341" lon="4.032665"><ele>7.58</ele><time>2025-05-26T21:36:42Z</time></trkpt>
<trkpt lat="51.221435" lon="4.033109"><ele>5.81</ele><time>2025-05-26T21:36:50Z</time></trkpt>
<trkpt lat="51.221694" lon="4.034637"><ele>2.13</ele><time>2025-05-26T21:36:58Z</time></trkpt>
<trkpt lat="51.221838" lon="4.035161"><ele>1.62</ele><time>2025-05-26T21:37:06Z</time></trkpt>
<trkpt lat="51.222011" lon="4.035904"><ele>2.67</ele><time>2025-05-26T21:37:14Z</time></trkpt>
<trkpt lat="51.222957" lon="4.040433"><ele>1.16</ele><time>2025-05-26T21:37:22Z</time></trkpt>
<trkpt lat="51.223917" lon="4.045136"><ele>2.2</ele><time>2025-05-26T21:37:30Z</time></trkpt>
<trkpt lat="51.224314" lon="4.046926"><ele>4.47</ele><time>2025-05-26T21:37:38Z</time></trkpt>
<trkpt lat="51.225539" lon="4.052815"><ele>5.75</ele><time>2025-05-26T21:37:46Z</time></trkpt>
<trkpt lat="51.226178" lon="4.056057"><ele>4.8</ele><time>2025-05-26T21:37:54Z</time></trkpt>
<trkpt lat="51.226289" lon="4.056819"><ele>4.72</ele><time>2025-05-26T21:38:02Z</time></trkpt>
<trkpt lat="51.226325" lon="4.057513"><ele>5.45</ele><time>2025-05-26T21:38:10Z</time></trkpt>
<trkpt lat="51.226303" lon="4.057985"><ele>5.31</ele><time>2025-05-26T21:38:18Z</time></trkpt>
<trkpt lat="51.226234" lon="4.058447"><ele>5.3</ele><time>2025-05-26T21:38:26Z</time></trkpt>
<trkpt lat="51.226038" lon="4.059331"><ele>6.54</ele><time>2025-05-26T21:38:34Z</time></trkpt>
<trkpt lat="51.225367" lon="4.062098"><ele>8.46</ele><time>2025-05-26T21:38:42Z</time></trkpt>
<trkpt lat="51.225347" lon="4.062294"><ele>9.5</ele><time>2025-05-26T21:38:50Z</time></trkpt>
<trkpt lat="51.225363" lon="4.062384"><ele>9.39</ele><time>2025-05-26T21:38:58Z</time></trkpt>
<trkpt lat="51.225397" lon="4.06246"><ele>9.14</ele><time>2025-05-26T21:39:06Z</time></trkpt>
<trkpt lat="51.225505" lon="4.062568"><ele>8.56</ele><time>2025-05-26T21:39:14Z</time></trkpt>
<trkpt lat="51.225462" lon="4.062754"><ele>9.28</ele><time>2025-05-26T21:39:18Z</time></trkpt>
<trkpt lat="51.225458" lon="4.062853"><ele>9.35</ele><time>2025-05-26T21:39:23Z</time></trkpt>
<trkpt lat="51.225142" lon="4.063155"><ele>9.95</ele><time>2025-05-26T21:39:27Z</time></trkpt>
<trkpt lat="51.22507" lon="4.063188"><ele>9.92</ele><time>2025-05-26T21:39:32Z</time></trkpt>
<trkpt lat="51.22327" lon="4.064099"><ele>6.77</ele><time>2025-05-26T21:39:36Z</time></trkpt>
<trkpt lat="51.222826" lon="4.064345"><ele>6.3</ele><time>2025-05-26T21:39:40Z</time></trkpt>
<trkpt lat="51.222325" lon="4.064723"><ele>6.63</ele><time>2025-05-26T21:39:45Z</time></trkpt>
<trkpt lat="51.221989" lon="4.065065"><ele>6.2</ele><time>2025-05-26T21:39:49Z</time></trkpt>
<trkpt lat="51.220823" lon="4.066393"><ele>7.95</ele><time>2025-05-26T21:39:54Z</time></trkpt>
<trkpt lat="51.22127" lon="4.067928"><ele>5.43</ele><time>2025-05-26T21:40:00Z</time></trkpt>
<trkpt lat="51.22138" lon="4.068217"><ele>5.03</ele><time>2025-05-26T21:40:06Z</time></trkpt>
<trkpt lat="51.221513" lon="4.068504"><ele>4.55</ele><time>2025-05-26T21:40:12Z</time></trkpt>
<trkpt lat="51.221728" lon="4.068875"><ele>4.0</ele><time>2025-05-26T21:40:18Z</time></trkpt>
<trkpt lat="51.223444" lon="4.071153"><ele>5.34</ele><time>2025-05-26T21:40:24Z</time></trkpt>
<trkpt lat="51.223655" lon="4.071471"><ele>5.14</ele><time>2025-05-26T21:40:30Z</time></trkpt>
<trkpt lat="51.223838" lon="4.071853"><ele>5.63</ele><time>2025-05-26T21:40:36Z</time></trkpt>
<trkpt lat="51.224123" lon="4.072753"><ele>6.06</ele><time>2025-05-26T21:40:43Z</time></trkpt>
<trkpt lat="51.224521" lon="4.074059"><ele>4.28</ele><time>2025-05-26T21:40:49Z</time></trkpt>
<trkpt lat="51.224567" lon="4.074268"><ele>4.28</ele><time>2025-05-26T21:40:55Z</time></trkpt>
<trkpt lat="51.224844" lon="4.076338"><ele>6.69</ele><time>2025-05-26T21:41:01Z</time></trkpt>
<trkpt lat="51.224878" lon="4.076753"><ele>8.39</ele><time>2025-05-26T21:41:07Z</time></trkpt>
<trkpt lat="51.224911" lon="4.078397"><ele>4.83</ele><time>2025-05-26T21:41:13Z</time></trkpt>
<trkpt lat="51.22495" lon="4.078886"><ele>6.63</ele><time>2025-05-26T21:41:19Z</time></trkpt>
<trkpt lat="51.225088" lon="4.07983"><ele>4.29</ele><time>2025-05-26T21:41:25Z</time></trkpt>
<trkpt lat="51.225906" lon="4.084437"><ele>0.98</ele><time>2025-05-26T21:41:32Z</time></trkpt>
<trkpt lat="51.225986" lon="4.084951"><ele>1.0</ele><time>2025-05-26T21:41:38Z</time></trkpt>
<trkpt lat="51.226344" lon="4.087823"><ele>5.0</ele><time>2025-05-26T21:41:44Z</time></trkpt>
<trkpt lat="51.226469" lon="4.089763"><ele>2.46</ele><time>2025-05-26T21:41:50Z</time></trkpt>
<trkpt lat="51.226593" lon="4.09089"><ele>3.06</ele><time>2025-05-26T21:41:56Z</time></trkpt>
<trkpt lat="51.226602" lon="4.090997"><ele>2.64</ele><time>2025-05-26T21:42:02Z</time></trkpt>
<trkpt lat="51.226622" lon="4.091223"><ele>1.76</ele><time>2025-05-26T21:42:08Z</time></trkpt>
<trkpt lat="51.226651" lon="4.091425"><ele>0.93</ele><time>2025-05-26T21:42:14Z</time></trkpt>
<trkpt lat="51.226684" lon="4.091624"><ele>0.21</ele><time>2025-05-26T21:42:20Z</time></trkpt>
<trkpt lat="51.22674" lon="4.091921"><ele>0.26</ele><time>2025-05-26T21:42:27Z</time></trkpt>
<trkpt lat="51.226962" lon="4.092752"><ele>2.0</ele><time>2025-05-26T21:42:33Z</time></trkpt>
<trkpt lat="51.227123" lon="4.093536"><ele>1.64</ele><time>2025-05-26T21:42:39Z</time></trkpt>
<trkpt lat="51.227156" lon="4.093813"><ele>1.93</ele><time>2025-05-26T21:42:45Z</time></trkpt>
<trkpt lat="51.227282" lon="4.096036"><ele>3.27</ele><time>2025-05-26T21:42:51Z</time></trkpt>
<trkpt lat="51.227323" lon="4.097926"><ele>2.0</ele><time>2025-05-26T21:42:57Z</time></trkpt>
<trkpt lat="51.227454" lon="4.099892"><ele>3.0</ele><time>2025-05-26T21:43:03Z</time></trkpt>
<trkpt lat="51.227525" lon="4.102345"><ele>1.91</ele><time>2025-05-26T21:43:09Z</time></trkpt>
<trkpt lat="51.227544" lon="4.103954"><ele>1.0</ele><time>2025-05-26T21:43:15Z</time></trkpt>
<trkpt lat="51.227529" lon="4.104251"><ele>1.3</ele><time>2025-05-26T21:43:22Z</time></trkpt>
<trkpt lat="51.227495" lon="4.1045"><ele>2.2</ele><time>2025-05-26T21:43:28Z</time></trkpt>
<trkpt lat="51.227302" lon="4.105566"><ele>3.71</ele><time>2025-05-26T21:43:34Z</time></trkpt>
<trkpt lat="51.22653" lon="4.109398"><ele>3.83</ele><time>2025-05-26T21:43:40Z</time></trkpt>
<trkpt lat="51.22625" lon="4.110922"><ele>3.02</ele><time>2025-05-26T21:43:46Z</time></trkpt>
<trkpt lat="51.225574" lon="4.114089"><ele>3.0</ele><time>2025-05-26T21:43:52Z</time></trkpt>
<trkpt lat="51.225383" lon="4.115172"><ele>3.62</ele><time>2025-05-26T21:43:58Z</time></trkpt>
<trkpt lat="51.225271" lon="4.115999"><ele>5.01</ele><time>2025-05-26T21:44:04Z</time></trkpt>
<trkpt lat="51.224986" lon="4.118309"><ele>3.99</ele><time>2025-05-26T21:44:11Z</time></trkpt>
<trkpt lat="51.224946" lon="4.118478"><ele>4.0</ele><time>2025-05-26T21:44:17Z</time></trkpt>
<trkpt lat="51.225058" lon="4.118546"><ele>4.21</ele><time>2025-05-26T21:44:25Z</time></trkpt>
<trkpt lat="51.22522" lon="4.118705"><ele>4.52</ele><time>2025-05-26T21:44:33Z</time></trkpt>
<trkpt lat="51.225278" lon="4.11882"><ele>4.24</ele><time>2025-05-26T21:44:42Z</time></trkpt>
<trkpt lat="51.225507" lon="4.119628"><ele>3.0</ele><time>2025-05-26T21:44:50Z</time></trkpt>
<trkpt lat="51.226168" lon="4.121477"><ele>2.8</ele><time>2025-05-26T21:44:58Z</time></trkpt>
<trkpt lat="51.226323" lon="4.122162"><ele>2.05</ele><time>2025-05-26T21:45:07Z</time></trkpt>
<trkpt lat="51.226399" lon="4.1226"><ele>2.32</ele><time>2025-05-26T21:45:15Z</time></trkpt>
<trkpt lat="51.226496" lon="4.123447"><ele>3.36</ele><time>2025-05-26T21:45:23Z</time></trkpt>
<trkpt lat="51.226517" lon="4.12384"><ele>2.17</ele><time>2025-05-26T21:45:32Z</time></trkpt>
<trkpt lat="51.226625" lon="4.127646"><ele>1.6</ele><time>2025-05-26T21:45:40Z</time></trkpt>
<trkpt lat="51.226622" lon="4.129235"><ele>4.37</ele><time>2025-05-26T21:45:49Z</time></trkpt>
<trkpt lat="51.226656" lon="4.129723"><ele>5.0</ele><time>2025-05-26T21:45:57Z</time></trkpt>
<trkpt lat="51.22671" lon="4.130126"><ele>4.46</ele><time>2025-05-26T21:46:05Z</time></trkpt>
<trkpt lat="51.226797" lon="4.130563"><ele>3.46</ele><time>2025-05-26T21:46:14Z</time></trkpt>
<trkpt lat="51.227338" lon="4.132781"><ele>1.0</ele><time>2025-05-26T21:46:22Z</time></trkpt>
<trkpt lat="51.227393" lon="4.133198"><ele>1.0</ele><time>2025-05-26T21:46:30Z</time></trkpt>
<trkpt lat="51.227395" lon="4.134151"><ele>1.0</ele><time>2025-05-26T21:46:39Z</time></trkpt>
<trkpt lat="51.227646" lon="4.134074"><ele>2.05</ele><time>2025-05-26T21:46:41Z</time></trkpt>
<trkpt lat="51.227188" lon="4.13687"><ele>2.0</ele><time>2025-05-26T21:46:50Z</time></trkpt>
<trkpt lat="51.227154" lon="4.137192"><ele>1.33</ele><time>2025-05-26T21:46:59Z</time></trkpt>
<trkpt lat="51.227145" lon="4.137548"><ele>1.23</ele><time>2025-05-26T21:47:08Z</time></trkpt>
<trkpt lat="51.227174" lon="4.137975"><ele>1.0</ele><time>2025-05-26T21:47:17Z</time></trkpt>
<trkpt lat="51.227231" lon="4.138341"><ele>2.03</ele><time>2025-05-26T21:47:25Z</time></trkpt>
<trkpt lat="51.227327" lon="4.138721"><ele>1.98</ele><time>2025-05-26T21:47:34Z</time></trkpt>
<trkpt lat="51.229257" lon="4.143799"><ele>0.0</ele><time>2025-05-26T21:47:43Z</time></trkpt>
<trkpt lat="51.229645" lon="4.145054"><ele>0.72</ele><time>2025-05-26T21:47:52Z</time></trkpt>
<trkpt lat="51.230378" lon="4.14705"><ele>3.64</ele><time>2025-05-26T21:48:01Z</time></trkpt>
<trkpt lat="51.230499" lon="4.147468"><ele>3.2</ele><time>2025-05-26T21:48:10Z</time></trkpt>
<trkpt lat="51.230529" lon="4.147722"><ele>3.02</ele><time>2025-05-26T21:48:18Z</time></trkpt>
<trkpt lat="51.230957" lon="4.147747"><ele>2.49</ele><time>2025-05-26T21:48:23Z</time></trkpt>
<trkpt lat="51.233429" lon="4.147192"><ele>3.24</ele><time>2025-05-26T21:48:27Z</time></trkpt>
<trkpt lat="51.234199" lon="4.14701"><ele>2.09</ele><time>2025-05-26T21:48:31Z</time></trkpt>
<trkpt lat="51.234896" lon="4.146849"><ele>-0.63</ele><time>2025-05-26T21:48:36Z</time></trkpt>
<trkpt lat="51.235407" lon="4.146759"><ele>-1.0</ele><time>2025-05-26T21:48:40Z</time></trkpt>
<trkpt lat="51.237125" lon="4.146634"><ele>0.96</ele><time>2025-05-26T21:48:44Z</time></trkpt>
<trkpt lat="51.23958" lon="4.146693"><ele>-0.49</ele><time>2025-05-26T21:48:49Z</time></trkpt>
<trkpt lat="51.239712" lon="4.146718"><ele>-0.96</ele><time>2025-05-26T21:48:53Z</time></trkpt>
<trkpt lat="51.239905" lon="4.146808"><ele>-1.66</ele><time>2025-05-26T21:48:58Z</time></trkpt>
<trkpt lat="51.240294" lon="4.147097"><ele>-1.94</ele><time>2025-05-26T21:49:02Z</time></trkpt>
<trkpt lat="51.240411" lon="4.147142"><ele>-1.52</ele><time>2025-05-26T21:49:06Z</time></trkpt>
<trkpt lat="51.240984" lon="4.147256"><ele>1.54</ele><time>2025-05-26T21:49:11Z</time></trkpt>
<trkpt lat="51.241152" lon="4.147262"><ele>2.0</ele><time>2025-05-26T21:49:15Z</time></trkpt>
<trkpt lat="51.241504" lon="4.147194"><ele>2.08</ele><time>2025-05-26T21:49:19Z</time></trkpt>
<trkpt lat="51.243002" lon="4.146651"><ele>2.76</ele><time>2025-05-26T21:49:24Z</time></trkpt>
<trkpt lat="51.243218" lon="4.146625"><ele>3.35</ele><time>2025-05-26T21:49:28Z</time></trkpt>
<trkpt lat="51.243321" lon="4.146685"><ele>3.95</ele><time>2025-05-26T21:49:32Z</time></trkpt>
<trkpt lat="51.243417" lon="4.146834"><ele>4.0</ele><time>2025-05-26T21:49:37Z</time></trkpt>
<trkpt lat="51.243456" lon="4.146949"><ele>4.0</ele><time>2025-05-26T21:49:41Z</time></trkpt>
<trkpt lat="51.243607" lon="4.147613"><ele>3.58</ele><time>2025-05-26T21:49:45Z</time></trkpt>
<trkpt lat="51.243701" lon="4.147849"><ele>3.5</ele><time>2025-05-26T21:49:50Z</time></trkpt>
<trkpt lat="51.243811" lon="4.148045"><ele>3.99</ele><time>2025-05-26T21:49:54Z</time></trkpt>
<trkpt lat="51.243954" lon="4.148216"><ele>4.34</ele><time>2025-05-26T21:49:58Z</time></trkpt>
<trkpt lat="51.244447" lon="4.14862"><ele>1.97</ele><time>2025-05-26T21:50:03Z</time></trkpt>
<trkpt lat="51.244607" lon="4.148796"><ele>1.33</ele><time>2025-05-26T21:50:07Z</time></trkpt>
<trkpt lat="51.244656" lon="4.148888"><ele>1.0</ele><time>2025-05-26T21:50:11Z</time></trkpt>
<trkpt lat="51.24476" lon="4.14912"><ele>1.0</ele><time>2025-05-26T21:50:16Z</time></trkpt>
<trkpt lat="51.244794" lon="4.149241"><ele>0.8</ele><time>2025-05-26T21:50:20Z</time></trkpt>
<trkpt lat="51.245921" lon="4.15388"><ele>1.98</ele><time>2025-05-26T21:50:24Z</time></trkpt>
<trkpt lat="51.246059" lon="4.15446"><ele>2.0</ele><time>2025-05-26T21:50:29Z</time></trkpt>
<trkpt lat="51.246116" lon="4.154809"><ele>1.98</ele><time>2025-05-26T21:50:33Z</time></trkpt>
<trkpt lat="51.246114" lon="4.154934"><ele>1.99</ele><time>2025-05-26T21:50:38Z</time></trkpt>
<trkpt lat="51.246038" lon="4.155182"><ele>2.0</ele><time>2025-05-26T21:50:43Z</time></trkpt>
<trkpt lat="51.244445" lon="4.159659"><ele>2.0</ele><time>2025-05-26T21:50:48Z</time></trkpt>
<trkpt lat="51.244322" lon="4.160045"><ele>2.0</ele><time>2025-05-26T21:50:53Z</time></trkpt>
<trkpt lat="51.244268" lon="4.160251"><ele>2.0</ele><time>2025-05-26T21:50:59Z</time></trkpt>
<trkpt lat="51.244247" lon="4.160417"><ele>2.36</ele><time>2025-05-26T21:51:04Z</time></trkpt>
<trkpt lat="51.244219" lon="4.160834"><ele>3.0</ele><time>2025-05-26T21:51:09Z</time></trkpt>
<trkpt lat="51.244247" lon="4.161122"><ele>3.29</ele><time>2025-05-26T21:51:14Z</time></trkpt>
<trkpt lat="51.244331" lon="4.161559"><ele>3.96</ele><time>2025-05-26T21:51:19Z</time></trkpt>
<trkpt lat="51.245428" lon="4.165504"><ele>2.56</ele><time>2025-05-26T21:51:24Z</time></trkpt>
<trkpt lat="51.245681" lon="4.166212"><ele>3.0</ele><time>2025-05-26T21:51:29Z</time></trkpt>
<trkpt lat="51.244838" lon="4.166816"><ele>4.19</ele><time>2025-05-26T21:51:43Z</time></trkpt>
<trkpt lat="51.244721" lon="4.166881"><ele>3.99</ele><time>2025-05-26T21:51:56Z</time></trkpt>
<trkpt lat="51.243593" lon="4.167099"><ele>1.49</ele><time>2025-05-26T21:52:09Z</time></trkpt>
<trkpt lat="51.243507" lon="4.167189"><ele>1.5</ele><time>2025-05-26T21:52:11Z</time></trkpt>
<trkpt lat="51.24328" lon="4.167341"><ele>0.57</ele><time>2025-05-26T21:52:13Z</time></trkpt>
<trkpt lat="51.246399" lon="4.176307"><ele>-2.0</ele><time>2025-05-26T21:52:30Z</time></trkpt>
<trkpt lat="51.248501" lon="4.185068"><ele>-2.6</ele><time>2025-05-26T21:52:46Z</time></trkpt>
<trkpt lat="51.248559" lon="4.185235"><ele>-2.81</ele><time>2025-05-26T21:53:03Z</time></trkpt>
<trkpt lat="51.248617" lon="4.185262"><ele>-2.98</ele><time>2025-05-26T21:53:19Z</time></trkpt>
<trkpt lat="51.249012" lon="4.185293"><ele>-1.58</ele><time>2025-05-26T21:53:36Z</time></trkpt>
<trkpt lat="51.24901" lon="4.185661"><ele>-2.0</ele><time>2025-05-26T21:53:52Z</time></trkpt>
<trkpt lat="51.249036" lon="4.186311"><ele>-1.0</ele><time>2025-05-26T21:54:08Z</time></trkpt>
<trkpt lat="51.249104" lon="4.186777"><ele>-1.0</ele><time>2025-05-26T21:54:25Z</time></trkpt>
<trkpt lat="51.249366" lon="4.188289"><ele>-1.72</ele><time>2025-05-26T21:54:41Z</time></trkpt>
<trkpt lat="51.249625" lon="4.189497"><ele>-1.28</ele><time>2025-05-26T21:54:58Z</time></trkpt>
<trkpt lat="51.249646" lon="4.189681"><ele>-1.04</ele><time>2025-05-26T21:55:14Z</time></trkpt>
<trkpt lat="51.247322" lon="4.189772"><ele>-1.18</ele><time>2025-05-26T21:55:17Z</time></trkpt>
<trkpt lat="51.247205" lon="4.189796"><ele>-1.25</ele><time>2025-05-26T21:55:21Z</time></trkpt>
<trkpt lat="51.247129" lon="4.189848"><ele>-1.3</ele><time>2025-05-26T21:55:24Z</time></trkpt>
<trkpt lat="51.247063" lon="4.189876"><ele>-1.24</ele><time>2025-05-26T21:55:27Z</time></trkpt>
<trkpt lat="51.246972" lon="4.189952"><ele>-1.08</ele><time>2025-05-26T21:55:30Z</time></trkpt>
<trkpt lat="51.24688" lon="4.189986"><ele>-1.01</ele><time>2025-05-26T21:55:33Z</time></trkpt>
<trkpt lat="51.246764" lon="4.189927"><ele>-1.17</ele><time>2025-05-26T21:55:35Z</time></trkpt>
<trkpt lat="51.246679" lon="4.189951"><ele>-1.17</ele><time>2025-05-26T21:55:37Z</time></trkpt>
<trkpt lat="51.246625" lon="4.190001"><ele>-1.0</ele><time>2025-05-26T21:55:39Z</time></trkpt>
<trkpt lat="51.246579" lon="4.190085"><ele>-1.0</ele><time>2025-05-26T21:55:41Z</time></trkpt>
<trkpt lat="51.246549" lon="4.19021"><ele>-1.0</ele><time>2025-05-26T21:55:43Z</time></trkpt>
<trkpt lat="51.24656" lon="4.190382"><ele>-1.38</ele><time>2025-05-26T21:55:45Z</time></trkpt>
<trkpt lat="51.246625" lon="4.190526"><ele>-1.89</ele><time>2025-05-26T21:55:46Z</time></trkpt>
<trkpt lat="51.246717" lon="4.190595"><ele>-2.0</ele><time>2025-05-26T21:55:48Z</time></trkpt>
<trkpt lat="51.246831" lon="4.19058"><ele>-2.0</ele><time>2025-05-26T21:55:50Z</time></trkpt>
<trkpt lat="51.246896" lon="4.190601"><ele>-2.0</ele><time>2025-05-26T21:55:52Z</time></trkpt>
<trkpt lat="51.246936" lon="4.19064"><ele>-2.0</ele><time>2025-05-26T21:55:54Z</time></trkpt>
<trkpt lat="51.247069" lon="4.190834"><ele>-2.45</ele><time>2025-05-26T21:55:56Z</time></trkpt>
<trkpt lat="51.247174" lon="4.190987"><ele>-3.38</ele><time>2025-05-26T21:55:58Z</time></trkpt>
<trkpt lat="51.247279" lon="4.191325"><ele>-3.23</ele><time>2025-05-26T21:55:59Z</time></trkpt>
<trkpt lat="51.247331" lon="4.191751"><ele>-1.3</ele><time>2025-05-26T21:56:01Z</time></trkpt>
<trkpt lat="51.247487" lon="4.196243"><ele>-2.0</ele><time>2025-05-26T21:56:03Z</time></trkpt>
<trkpt lat="51.247454" lon="4.196578"><ele>-2.11</ele><time>2025-05-26T21:56:05Z</time></trkpt>
<trkpt lat="51.247406" lon="4.19682"><ele>-2.15</ele><time>2025-05-26T21:56:07Z</time></trkpt>
<trkpt lat="51.247353" lon="4.196873"><ele>-2.13</ele><time>2025-05-26T21:56:09Z</time></trkpt>
<trkpt lat="51.247313" lon="4.196948"><ele>-1.99</ele><time>2025-05-26T21:56:11Z</time></trkpt>
<trkpt lat="51.247288" lon="4.19704"><ele>-1.66</ele><time>2025-05-26T21:56:14Z</time></trkpt>
<trkpt lat="51.247281" lon="4.197144"><ele>-1.28</ele><time>2025-05-26T21:56:16Z</time></trkpt>
<trkpt lat="51.247295" lon="4.197246"><ele>-1.0</ele><time>2025-05-26T21:56:18Z</time></trkpt>
<trkpt lat="51.247334" lon="4.197347"><ele>-1.0</ele><time>2025-05-26T21:56:21Z</time></trkpt>
<trkpt lat="51.247393" lon="4.19742"><ele>-1.0</ele><time>2025-05-26T21:56:23Z</time></trkpt>
<trkpt lat="51.247465" lon="4.197454"><ele>-1.0</ele><time>2025-05-26T21:56:25Z</time></trkpt>
<trkpt lat="51.247543" lon="4.197636"><ele>-0.35</ele><time>2025-05-26T21:56:27Z</time></trkpt>
<trkpt lat="51.247635" lon="4.197944"><ele>0.49</ele><time>2025-05-26T21:56:30Z</time></trkpt>
<trkpt lat="51.247753" lon="4.198477"><ele>-0.09</ele><time>2025-05-26T21:56:32Z</time></trkpt>
<trkpt lat="51.247911" lon="4.198981"><ele>-0.52</ele><time>2025-05-26T21:56:34Z</time></trkpt>
<trkpt lat="51.248089" lon="4.199429"><ele>-0.95</ele><time>2025-05-26T21:56:36Z</time></trkpt>
<trkpt lat="51.248303" lon="4.199866"><ele>-1.52</ele><time>2025-05-26T21:56:39Z</time></trkpt>
<trkpt lat="51.248569" lon="4.200295"><ele>-2.06</ele><time>2025-05-26T21:56:41Z</time></trkpt>
<trkpt lat="51.24876" lon="4.200548"><ele>-2.97</ele><time>2025-05-26T21:56:43Z</time></trkpt>
<trkpt lat="51.249441" lon="4.201309"><ele>0.15</ele><time>2025-05-26T21:56:46Z</time></trkpt>
<trkpt lat="51.249993" lon="4.201894"><ele>3.0</ele><time>2025-05-26T21:56:48Z</time></trkpt>
<trkpt lat="51.250214" lon="4.202096"><ele>3.42</ele><time>2025-05-26T21:56:50Z</time></trkpt>
<trkpt lat="51.250799" lon="4.202452"><ele>5.0</ele><time>2025-05-26T21:56:52Z</time></trkpt>
<trkpt lat="51.251819" lon="4.20301"><ele>3.84</ele><time>2025-05-26T21:56:55Z</time></trkpt>
<trkpt lat="51.252178" lon="4.203311"><ele>4.01</ele><time>2025-05-26T21:56:57Z</time></trkpt>
<trkpt lat="51.252545" lon="4.20374"><ele>2.21</ele><time>2025-05-26T21:56:59Z</time></trkpt>
<trkpt lat="51.252948" lon="4.204371"><ele>1.12</ele><time>2025-05-26T21:57:02Z</time></trkpt>
<trkpt lat="51.253301" lon="4.205059"><ele>0.42</ele><time>2025-05-26T21:57:04Z</time></trkpt>
<trkpt lat="51.253491" lon="4.205382"><ele>1.38</ele><time>2025-05-26T21:57:06Z</time></trkpt>
<trkpt lat="51.253826" lon="4.205815"><ele>2.0</ele><time>2025-05-26T21:57:08Z</time></trkpt>
<trkpt lat="51.253974" lon="4.205979"><ele>1.85</ele><time>2025-05-26T21:57:11Z</time></trkpt>
<trkpt lat="51.254158" lon="4.206243"><ele>2.0</ele><time>2025-05-26T21:57:13Z</time></trkpt>
<trkpt lat="51.25435" lon="4.206581"><ele>0.65</ele><time>2025-05-26T21:57:15Z</time></trkpt>
<trkpt lat="51.254482" lon="4.206879"><ele>0.03</ele><time>2025-05-26T21:57:18Z</time></trkpt>
<trkpt lat="51.254528" lon="4.207152"><ele>-0.75</ele><time>2025-05-26T21:57:21Z</time></trkpt>
<trkpt lat="51.254304" lon="4.207836"><ele>2.0</ele><time>2025-05-26T21:57:23Z</time></trkpt>
<trkpt lat="51.254018" lon="4.208916"><ele>0.49</ele><time>2025-05-26T21:57:26Z</time></trkpt>
<trkpt lat="51.253853" lon="4.209924"><ele>1.99</ele><time>2025-05-26T21:57:28Z</time></trkpt>
<trkpt lat="51.253776" lon="4.210841"><ele>3.98</ele><time>2025-05-26T21:57:31Z</time></trkpt>
<trkpt lat="51.253763" lon="4.211747"><ele>1.45</ele><time>2025-05-26T21:57:34Z</time></trkpt>
<trkpt lat="51.253734" lon="4.212143"><ele>1.56</ele><time>2025-05-26T21:57:36Z</time></trkpt>
<trkpt lat="51.253599" lon="4.212522"><ele>1.96</ele><time>2025-05-26T21:57:39Z</time></trkpt>
<trkpt lat="51.25351" lon="4.212697"><ele>1.64</ele><time>2025-05-26T21:57:42Z</time></trkpt>
<trkpt lat="51.253439" lon="4.212785"><ele>1.38</ele><time>2025-05-26T21:57:44Z</time></trkpt>
<trkpt lat="51.253335" lon="4.212718"><ele>1.0</ele><time>2025-05-26T21:57:48Z</time></trkpt>
<trkpt lat="51.253225" lon="4.212686"><ele>0.74</ele><time>2025-05-26T21:57:52Z</time></trkpt>
<trkpt lat="51.253112" lon="4.21269"><ele>0.46</ele><time>2025-05-26T21:57:57Z</time></trkpt>
<trkpt lat="51.253003" lon="4.212731"><ele>0.33</ele><time>2025-05-26T21:58:01Z</time></trkpt>
<trkpt lat="51.252901" lon="4.212805"><ele>0.55</ele><time>2025-05-26T21:58:05Z</time></trkpt>
<trkpt lat="51.252811" lon="4.212912"><ele>0.88</ele><time>2025-05-26T21:58:09Z</time></trkpt>
<trkpt lat="51.252736" lon="4.213045"><ele>0.99</ele><time>2025-05-26T21:58:13Z</time></trkpt>
<trkpt lat="51.25268" lon="4.2132"><ele>1.18</ele><time>2025-05-26T21:58:17Z</time></trkpt>
<trkpt lat="51.252644" lon="4.21337"><ele>1.55</ele><time>2025-05-26T21:58:21Z</time></trkpt>
<trkpt lat="51.252631" lon="4.213548"><ele>1.89</ele><time>2025-05-26T21:58:25Z</time></trkpt>
<trkpt lat="51.252638" lon="4.213709"><ele>2.17</ele><time>2025-05-26T21:58:29Z</time></trkpt>
<trkpt lat="51.252665" lon="4.21387"><ele>2.55</ele><time>2025-05-26T21:58:33Z</time></trkpt>
<trkpt lat="51.25271" lon="4.214019"><ele>2.4</ele><time>2025-05-26T21:58:37Z</time></trkpt>
<trkpt lat="51.252772" lon="4.214153"><ele>2.05</ele><time>2025-05-26T21:58:42Z</time></trkpt>
<trkpt lat="51.252849" lon="4.214265"><ele>1.64</ele><time>2025-05-26T21:58:46Z</time></trkpt>
<trkpt lat="51.252824" lon="4.214401"><ele>1.16</ele><time>2025-05-26T21:58:50Z</time></trkpt>
<trkpt lat="51.252668" lon="4.214951"><ele>0.67</ele><time>2025-05-26T21:58:54Z</time></trkpt>
<trkpt lat="51.252478" lon="4.215538"><ele>-2.09</ele><time>2025-05-26T21:58:58Z</time></trkpt>
<trkpt lat="51.252123" lon="4.216847"><ele>0.64</ele><time>2025-05-26T21:59:02Z</time></trkpt>
<trkpt lat="51.251903" lon="4.2179"><ele>1.44</ele><time>2025-05-26T21:59:06Z</time></trkpt>
<trkpt lat="51.251848" lon="4.218229"><ele>3.03</ele><time>2025-05-26T21:59:10Z</time></trkpt>
<trkpt lat="51.251417" lon="4.221456"><ele>1.3</ele><time>2025-05-26T21:59:14Z</time></trkpt>
<trkpt lat="51.250536" lon="4.228145"><ele>5.95</ele><time>2025-05-26T21:59:18Z</time></trkpt>
<trkpt lat="51.250442" lon="4.228738"><ele>6.27</ele><time>2025-05-26T21:59:22Z</time></trkpt>
<trkpt lat="51.250369" lon="4.229083"><ele>5.63</ele><time>2025-05-26T21:59:27Z</time></trkpt>
<trkpt lat="51.250155" lon="4.229799"><ele>3.88</ele><time>2025-05-26T21:59:31Z</time></trkpt>
<trkpt lat="51.249461" lon="4.231726"><ele>2.26</ele><time>2025-05-26T21:59:35Z</time></trkpt>
<trkpt lat="51.249171" lon="4.232718"><ele>2.99</ele><time>2025-05-26T21:59:39Z</time></trkpt>
<trkpt lat="51.249046" lon="4.233286"><ele>3.36</ele><time>2025-05-26T21:59:43Z</time></trkpt>
<trkpt lat="51.248963" lon="4.233788"><ele>3.73</ele><time>2025-05-26T21:59:47Z</time></trkpt>
<trkpt lat="51.248886" lon="4.234463"><ele>3.0</ele><time>2025-05-26T21:59:51Z</time></trkpt>
<trkpt lat="51.248842" lon="4.235226"><ele>1.83</ele><time>2025-05-26T21:59:55Z</time></trkpt>
<trkpt lat="51.248821" lon="4.236304"><ele>0.25</ele><time>2025-05-26T21:59:59Z</time></trkpt>
<trkpt lat="51.248845" lon="4.243698"><ele>2.85</ele><time>2025-05-26T22:00:03Z</time></trkpt>
<trkpt lat="51.24883" lon="4.245593"><ele>6.28</ele><time>2025-05-26T22:00:07Z</time></trkpt>
<trkpt lat="51.248873" lon="4.246402"><ele>4.01</ele><time>2025-05-26T22:00:11Z</time></trkpt>
<trkpt lat="51.248965" lon="4.247299"><ele>1.2</ele><time>2025-05-26T22:00:16Z</time></trkpt>
<trkpt lat="51.249103" lon="4.248111"><ele>2.38</ele><time>2025-05-26T22:00:20Z</time></trkpt>
<trkpt lat="51.249139" lon="4.248525"><ele>3.0</ele><time>2025-05-26T22:00:24Z</time></trkpt>
<trkpt lat="51.249149" lon="4.248992"><ele>2.93</ele><time>2025-05-26T22:00:28Z</time></trkpt>
<trkpt lat="51.24914" lon="4.249087"><ele>2.9</ele><time>2025-05-26T22:00:32Z</time></trkpt>
<trkpt lat="51.249101" lon="4.249201"><ele>2.76</ele><time>2025-05-26T22:00:36Z</time></trkpt>
<trkpt lat="51.249027" lon="4.249285"><ele>2.5</ele><time>2025-05-26T22:00:41Z</time></trkpt>
<trkpt lat="51.248981" lon="4.249399"><ele>2.33</ele><time>2025-05-26T22:00:47Z</time></trkpt>
<trkpt lat="51.248964" lon="4.249515"><ele>2.27</ele><time>2025-05-26T22:00:52Z</time></trkpt>
<trkpt lat="51.24897" lon="4.249626"><ele>2.29</ele><time>2025-05-26T22:00:57Z</time></trkpt>
<trkpt lat="51.249016" lon="4.249785"><ele>2.48</ele><time>2025-05-26T22:01:03Z</time></trkpt>
<trkpt lat="51.249005" lon="4.249893"><ele>2.52</ele><time>2025-05-26T22:01:08Z</time></trkpt>
<trkpt lat="51.248911" lon="4.250148"><ele>2.92</ele><time>2025-05-26T22:01:13Z</time></trkpt>
<trkpt lat="51.24882" lon="4.250495"><ele>2.22</ele><time>2025-05-26T22:01:18Z</time></trkpt>
<trkpt lat="51.248686" lon="4.250839"><ele>1.25</ele><time>2025-05-26T22:01:24Z</time></trkpt>
<trkpt lat="51.248636" lon="4.25093"><ele>0.74</ele><time>2025-05-26T22:01:29Z</time></trkpt>
<trkpt lat="51.248593" lon="4.250969"><ele>0.51</ele><time>2025-05-26T22:01:34Z</time></trkpt>
<trkpt lat="51.248442" lon="4.25134"><ele>0.0</ele><time>2025-05-26T22:01:40Z</time></trkpt>
<trkpt lat="51.248402" lon="4.251541"><ele>0.0</ele><time>2025-05-26T22:01:45Z</time></trkpt>
<trkpt lat="51.248225" lon="4.251989"><ele>0.49</ele><time>2025-05-26T22:01:50Z</time></trkpt>
<trkpt lat="51.248131" lon="4.25219"><ele>0.97</ele><time>2025-05-26T22:01:55Z</time></trkpt>
<trkpt lat="51.248004" lon="4.252409"><ele>1.06</ele><time>2025-05-26T22:02:01Z</time></trkpt>
<trkpt lat="51.247829" lon="4.252622"><ele>0.56</ele><time>2025-05-26T22:02:06Z</time></trkpt>
<trkpt lat="51.247471" lon="4.252986"><ele>-0.1</ele><time>2025-05-26T22:02:11Z</time></trkpt>
<trkpt lat="51.247309" lon="4.253194"><ele>-0.84</ele><time>2025-05-26T22:02:17Z</time></trkpt>
<trkpt lat="51.24675" lon="4.254108"><ele>0.3</ele><time>2025-05-26T22:02:22Z</time></trkpt>
<trkpt lat="51.246608" lon="4.254301"><ele>0.0</ele><time>2025-05-26T22:02:27Z</time></trkpt>
<trkpt lat="51.24654" lon="4.254347"><ele>0.0</ele><time>2025-05-26T22:02:33Z</time></trkpt>
<trkpt lat="51.246348" lon="4.254625"><ele>0.29</ele><time>2025-05-26T22:02:38Z</time></trkpt>
<trkpt lat="51.246283" lon="4.254791"><ele>0.67</ele><time>2025-05-26T22:02:43Z</time></trkpt>
<trkpt lat="51.245036" lon="4.256669"><ele>0.73</ele><time>2025-05-26T22:02:48Z</time></trkpt>
<trkpt lat="51.244391" lon="4.257505"><ele>4.97</ele><time>2025-05-26T22:02:54Z</time></trkpt>
<trkpt lat="51.244306" lon="4.257614"><ele>4.39</ele><time>2025-05-26T22:02:59Z</time></trkpt>
<trkpt lat="51.243755" lon="4.258524"><ele>2.0</ele><time>2025-05-26T22:03:04Z</time></trkpt>
<trkpt lat="51.243218" lon="4.259554"><ele>3.0</ele><time>2025-05-26T22:03:10Z</time></trkpt>
<trkpt lat="51.24295" lon="4.260301"><ele>1.22</ele><time>2025-05-26T22:03:15Z</time></trkpt>
<trkpt lat="51.242735" lon="4.261254"><ele>4.0</ele><time>2025-05-26T22:03:20Z</time></trkpt>
<trkpt lat="51.24263" lon="4.262428"><ele>5.07</ele><time>2025-05-26T22:03:26Z</time></trkpt>
<trkpt lat="51.242604" lon="4.263363"><ele>2.89</ele><time>2025-05-26T22:03:31Z</time></trkpt>
<trkpt lat="51.242573" lon="4.26624"><ele>0.38</ele><time>2025-05-26T22:03:36Z</time></trkpt>
<trkpt lat="51.242473" lon="4.272273"><ele>5.36</ele><time>2025-05-26T22:03:41Z</time></trkpt>
<trkpt lat="51.242433" lon="4.272789"><ele>4.23</ele><time>2025-05-26T22:03:47Z</time></trkpt>
<trkpt lat="51.242343" lon="4.273479"><ele>3.64</ele><time>2025-05-26T22:03:52Z</time></trkpt>
<trkpt lat="51.242196" lon="4.274229"><ele>2.8</ele><time>2025-05-26T22:03:57Z</time></trkpt>
<trkpt lat="51.242042" lon="4.27472"><ele>2.65</ele><time>2025-05-26T22:04:03Z</time></trkpt>
<trkpt lat="51.241975" lon="4.274787"><ele>2.92</ele><time>2025-05-26T22:04:08Z</time></trkpt>
<trkpt lat="51.241858" lon="4.274821"><ele>2.69</ele><time>2025-05-26T22:04:14Z</time></trkpt>
<trkpt lat="51.241766" lon="4.274941"><ele>2.36</ele><time>2025-05-26T22:04:20Z</time></trkpt>
<trkpt lat="51.241724" lon="4.275112"><ele>1.8</ele><time>2025-05-26T22:04:25Z</time></trkpt>
<trkpt lat="51.241724" lon="4.275205"><ele>1.47</ele><time>2025-05-26T22:04:31Z</time></trkpt>
<trkpt lat="51.241738" lon="4.275295"><ele>1.17</ele><time>2025-05-26T22:04:37Z</time></trkpt>
<trkpt lat="51.241804" lon="4.275445"><ele>0.59</ele><time>2025-05-26T22:04:43Z</time></trkpt>
<trkpt lat="51.241831" lon="4.275552"><ele>0.02</ele><time>2025-05-26T22:04:49Z</time></trkpt>
<trkpt lat="51.241828" lon="4.275635"><ele>0.0</ele><time>2025-05-26T22:04:55Z</time></trkpt>
<trkpt lat="51.241691" lon="4.276366"><ele>0.84</ele><time>2025-05-26T22:05:01Z</time></trkpt>
<trkpt lat="51.239881" lon="4.28401"><ele>1.0</ele><time>2025-05-26T22:05:06Z</time></trkpt>
<trkpt lat="51.239578" lon="4.285305"><ele>3.37</ele><time>2025-05-26T22:05:12Z</time></trkpt>
<trkpt lat="51.23952" lon="4.285628"><ele>1.81</ele><time>2025-05-26T22:05:18Z</time></trkpt>
<trkpt lat="51.239019" lon="4.287757"><ele>1.02</ele><time>2025-05-26T22:05:24Z</time></trkpt>
<trkpt lat="51.238001" lon="4.292614"><ele>4.51</ele><time>2025-05-26T22:05:30Z</time></trkpt>
<trkpt lat="51.237384" lon="4.296429"><ele>0.58</ele><time>2025-05-26T22:05:36Z</time></trkpt>
<trkpt lat="51.237142" lon="4.297784"><ele>4.13</ele><time>2025-05-26T22:05:42Z</time></trkpt>
<trkpt lat="51.236944" lon="4.298764"><ele>-0.1</ele><time>2025-05-26T22:05:47Z</time></trkpt>
<trkpt lat="51.236693" lon="4.29975"><ele>0.29</ele><time>2025-05-26T22:05:53Z</time></trkpt>
<trkpt lat="51.236483" lon="4.300652"><ele>-0.22</ele><time>2025-05-26T22:05:59Z</time></trkpt>
<trkpt lat="51.236455" lon="4.300742"><ele>-0.08</ele><time>2025-05-26T22:06:05Z</time></trkpt>
<trkpt lat="51.236407" lon="4.300821"><ele>0.0</ele><time>2025-05-26T22:06:11Z</time></trkpt>
<trkpt lat="51.236284" lon="4.30091"><ele>-0.1</ele><time>2025-05-26T22:06:18Z</time></trkpt>
<trkpt lat="51.236227" lon="4.301027"><ele>-0.41</ele><time>2025-05-26T22:06:25Z</time></trkpt>
<trkpt lat="51.236203" lon="4.301158"><ele>-0.78</ele><time>2025-05-26T22:06:32Z</time></trkpt>
<trkpt lat="51.236224" lon="4.30135"><ele>-1.1</ele><time>2025-05-26T22:06:40Z</time></trkpt>
<trkpt lat="51.236203" lon="4.301619"><ele>-1.89</ele><time>2025-05-26T22:06:47Z</time></trkpt>
<trkpt lat="51.235944" lon="4.302699"><ele>-1.35</ele><time>2025-05-26T22:06:54Z</time></trkpt>
<trkpt lat="51.234223" lon="4.30896"><ele>-1.88</ele><time>2025-05-26T22:07:01Z</time></trkpt>
<trkpt lat="51.232758" lon="4.314457"><ele>1.02</ele><time>2025-05-26T22:07:08Z</time></trkpt>
<trkpt lat="51.232415" lon="4.315638"><ele>6.18</ele><time>2025-05-26T22:07:16Z</time></trkpt>
<trkpt lat="51.232349" lon="4.315762"><ele>5.57</ele><time>2025-05-26T22:07:23Z</time></trkpt>
<trkpt lat="51.232238" lon="4.315814"><ele>5.06</ele><time>2025-05-26T22:07:28Z</time></trkpt>
<trkpt lat="51.232158" lon="4.315941"><ele>4.24</ele><time>2025-05-26T22:07:33Z</time></trkpt>
<trkpt lat="51.232127" lon="4.316079"><ele>3.73</ele><time>2025-05-26T22:07:38Z</time></trkpt>
<trkpt lat="51.232127" lon="4.316185"><ele>3.48</ele><time>2025-05-26T22:07:43Z</time></trkpt>
<trkpt lat="51.232147" lon="4.316294"><ele>3.25</ele><time>2025-05-26T22:07:48Z</time></trkpt>
<trkpt lat="51.23215" lon="4.316391"><ele>2.99</ele><time>2025-05-26T22:07:53Z</time></trkpt>
<trkpt lat="51.232123" lon="4.316574"><ele>2.57</ele><time>2025-05-26T22:07:58Z</time></trkpt>
<trkpt lat="51.231976" lon="4.317216"><ele>2.89</ele><time>2025-05-26T22:08:03Z</time></trkpt>
<trkpt lat="51.231933" lon="4.317686"><ele>2.9</ele><time>2025-05-26T22:08:08Z</time></trkpt>
<trkpt lat="51.2314" lon="4.319823"><ele>6.68</ele><time>2025-05-26T22:08:13Z</time></trkpt>
<trkpt lat="51.231017" lon="4.321479"><ele>1.57</ele><time>2025-05-26T22:08:18Z</time></trkpt>
<trkpt lat="51.230323" lon="4.324657"><ele>3.6</ele><time>2025-05-26T22:08:23Z</time></trkpt>
<trkpt lat="51.230071" lon="4.324514"><ele>3.01</ele><time>2025-05-26T22:08:27Z</time></trkpt>
<trkpt lat="51.229485" lon="4.324234"><ele>5.39</ele><time>2025-05-26T22:08:31Z</time></trkpt>
<trkpt lat="51.22939" lon="4.324159"><ele>6.61</ele><time>2025-05-26T22:08:35Z</time></trkpt>
<trkpt lat="51.229353" lon="4.324077"><ele>7.2</ele><time>2025-05-26T22:08:39Z</time></trkpt>
<trkpt lat="51.2293" lon="4.323819"><ele>7.66</ele><time>2025-05-26T22:08:43Z</time></trkpt>
<trkpt lat="51.229263" lon="4.32373"><ele>7.36</ele><time>2025-05-26T22:08:47Z</time></trkpt>
<trkpt lat="51.229206" lon="4.323648"><ele>7.11</ele><time>2025-05-26T22:08:51Z</time></trkpt>
<trkpt lat="51.229147" lon="4.323605"><ele>6.89</ele><time>2025-05-26T22:08:55Z</time></trkpt>
<trkpt lat="51.229046" lon="4.323591"><ele>6.42</ele><time>2025-05-26T22:08:59Z</time></trkpt>
<trkpt lat="51.228941" lon="4.323652"><ele>6.48</ele><time>2025-05-26T22:09:03Z</time></trkpt>
<trkpt lat="51.228892" lon="4.323719"><ele>6.78</ele><time>2025-05-26T22:09:07Z</time></trkpt>
<trkpt lat="51.22885" lon="4.323829"><ele>7.06</ele><time>2025-05-26T22:09:11Z</time></trkpt>
<trkpt lat="51.228831" lon="4.323964"><ele>7.16</ele><time>2025-05-26T22:09:14Z</time></trkpt>
<trkpt lat="51.228841" lon="4.324099"><ele>7.31</ele><time>2025-05-26T22:09:18Z</time></trkpt>
<trkpt lat="51.228869" lon="4.324214"><ele>7.73</ele><time>2025-05-26T22:09:22Z</time></trkpt>
<trkpt lat="51.22896" lon="4.324345"><ele>8.09</ele><time>2025-05-26T22:09:26Z</time></trkpt>
<trkpt lat="51.228994" lon="4.32457"><ele>7.38</ele><time>2025-05-26T22:09:30Z</time></trkpt>
<trkpt lat="51.228831" lon="4.325698"><ele>2.38</ele><time>2025-05-26T22:09:34Z</time></trkpt>
<trkpt lat="51.228786" lon="4.32612"><ele>1.32</ele><time>2025-05-26T22:09:38Z</time></trkpt>
<trkpt lat="51.228629" lon="4.328208"><ele>3.54</ele><time>2025-05-26T22:09:42Z</time></trkpt>
<trkpt lat="51.228531" lon="4.329213"><ele>1.41</ele><time>2025-05-26T22:09:46Z</time></trkpt>
<trkpt lat="51.22841" lon="4.330198"><ele>1.0</ele><time>2025-05-26T22:09:50Z</time></trkpt>
<trkpt lat="51.227905" lon="4.333712"><ele>1.26</ele><time>2025-05-26T22:09:54Z</time></trkpt>
<trkpt lat="51.227822" lon="4.334454"><ele>0.35</ele><time>2025-05-26T22:09:58Z</time></trkpt>
<trkpt lat="51.227758" lon="4.335292"><ele>2.05</ele><time>2025-05-26T22:10:02Z</time></trkpt>
<trkpt lat="51.22772" lon="4.335995"><ele>3.58</ele><time>2025-05-26T22:10:06Z</time></trkpt>
<trkpt lat="51.227698" lon="4.336806"><ele>4.36</ele><time>2025-05-26T22:10:10Z</time></trkpt>
<trkpt lat="51.227691" lon="4.338629"><ele>1.06</ele><time>2025-05-26T22:10:14Z</time></trkpt>
<trkpt lat="51.227653" lon="4.340715"><ele>1.77</ele><time>2025-05-26T22:10:18Z</time></trkpt>
<trkpt lat="51.227313" lon="4.348652"><ele>3.53</ele><time>2025-05-26T22:10:22Z</time></trkpt>
<trkpt lat="51.227279" lon="4.349026"><ele>2.3</ele><time>2025-05-26T22:10:26Z</time></trkpt>
<trkpt lat="51.227209" lon="4.349388"><ele>1.29</ele><time>2025-05-26T22:10:30Z</time></trkpt>
<trkpt lat="51.227123" lon="4.349736"><ele>0.61</ele><time>2025-05-26T22:10:34Z</time></trkpt>
<trkpt lat="51.227" lon="4.350068"><ele>-0.64</ele><time>2025-05-26T22:10:38Z</time></trkpt>
<trkpt lat="51.226857" lon="4.350368"><ele>-0.92</ele><time>2025-05-26T22:10:42Z</time></trkpt>
<trkpt lat="51.226619" lon="4.350712"><ele>-0.78</ele><time>2025-05-26T22:10:46Z</time></trkpt>
<trkpt lat="51.226458" lon="4.350887"><ele>-0.88</ele><time>2025-05-26T22:10:50Z</time></trkpt>
<trkpt lat="51.226285" lon="4.351037"><ele>-0.72</ele><time>2025-05-26T22:10:54Z</time></trkpt>
<trkpt lat="51.226081" lon="4.351179"><ele>0.4</ele><time>2025-05-26T22:10:58Z</time></trkpt>
<trkpt lat="51.225874" lon="4.351279"><ele>2.89</ele><time>2025-05-26T22:11:02Z</time></trkpt>
<trkpt lat="51.225613" lon="4.351334"><ele>4.63</ele><time>2025-05-26T22:11:06Z</time></trkpt>
<trkpt lat="51.225229" lon="4.351325"><ele>3.82</ele><time>2025-05-26T22:11:10Z</time></trkpt>
<trkpt lat="51.225022" lon="4.351299"><ele>3.08</ele><time>2025-05-26T22:11:14Z</time></trkpt>
<trkpt lat="51.224417" lon="4.351168"><ele>4.1</ele><time>2025-05-26T22:11:18Z</time></trkpt>
<trkpt lat="51.224174" lon="4.351153"><ele>4.97</ele><time>2025-05-26T22:11:21Z</time></trkpt>
<trkpt lat="51.222785" lon="4.351369"><ele>2.95</ele><time>2025-05-26T22:11:25Z</time></trkpt>
<trkpt lat="51.222199" lon="4.351412"><ele>4.83</ele><time>2025-05-26T22:11:29Z</time></trkpt>
<trkpt lat="51.220755" lon="4.351375"><ele>7.32</ele><time>2025-05-26T22:11:33Z</time></trkpt>
<trkpt lat="51.220006" lon="4.351464"><ele>9.27</ele><time>2025-05-26T22:11:37Z</time></trkpt>
<trkpt lat="51.219278" lon="4.35145"><ele>4.51</ele><time>2025-05-26T22:11:41Z</time></trkpt>
<trkpt lat="51.219019" lon="4.351404"><ele>2.49</ele><time>2025-05-26T22:11:45Z</time></trkpt>
<trkpt lat="51.218942" lon="4.351315"><ele>2.19</ele><time>2025-05-26T22:11:53Z</time></trkpt>
<trkpt lat="51.218748" lon="4.351204"><ele>2.0</ele><time>2025-05-26T22:12:01Z</time></trkpt>
<trkpt lat="51.218693" lon="4.351129"><ele>2.0</ele><time>2025-05-26T22:12:09Z</time></trkpt>
<trkpt lat="51.218665" lon="4.351011"><ele>2.43</ele><time>2025-05-26T22:12:17Z</time></trkpt>
<trkpt lat="51.218668" lon="4.349119"><ele>0.55</ele><time>2025-05-26T22:12:25Z</time></trkpt>
<trkpt lat="51.218679" lon="4.348993"><ele>0.96</ele><time>2025-05-26T22:12:32Z</time></trkpt>
<trkpt lat="51.218722" lon="4.348832"><ele>1.73</ele><time>2025-05-26T22:12:40Z</time></trkpt>
<trkpt lat="51.218807" lon="4.34867"><ele>2.72</ele><time>2025-05-26T22:12:48Z</time></trkpt>
<trkpt lat="51.218931" lon="4.348548"><ele>2.96</ele><time>2025-05-26T22:12:56Z</time></trkpt>
<trkpt lat="51.218995" lon="4.348525"><ele>2.88</ele><time>2025-05-26T22:13:04Z</time></trkpt>
<trkpt lat="51.219514" lon="4.348523"><ele>1.76</ele><time>2025-05-26T22:13:12Z</time></trkpt>
<trkpt lat="51.219589" lon="4.348547"><ele>1.89</ele><time>2025-05-26T22:13:20Z</time></trkpt>
<trkpt lat="51.219642" lon="4.34859"><ele>1.98</ele><time>2025-05-26T22:13:27Z</time></trkpt>
<trkpt lat="51.21969" lon="4.3487"><ele>1.75</ele><time>2025-05-26T22:13:35Z</time></trkpt>
<trkpt lat="51.219726" lon="4.34889"><ele>1.05</ele><time>2025-05-26T22:13:43Z</time></trkpt>
<trkpt lat="51.219763" lon="4.351208"><ele>6.64</ele><time>2025-05-26T22:13:51Z</time></trkpt>
<trkpt lat="51.219839" lon="4.35616"><ele>4.6</ele><time>2025-05-26T22:13:59Z</time></trkpt>
<trkpt lat="51.219841" lon="4.357469"><ele>4.39</ele><time>2025-05-26T22:14:07Z</time></trkpt>
<trkpt lat="51.219756" lon="4.358785"><ele>2.63</ele><time>2025-05-26T22:14:14Z</time></trkpt>
<trkpt lat="51.219745" lon="4.359317"><ele>3.0</ele><time>2025-05-26T22:14:22Z</time></trkpt>
<trkpt lat="51.219753" lon="4.36009"><ele>2.71</ele><time>2025-05-26T22:14:30Z</time></trkpt>
<trkpt lat="51.219766" lon="4.361065"><ele>1.86</ele><time>2025-05-26T22:14:38Z</time></trkpt>
<trkpt lat="51.219767" lon="4.361404"><ele>1.96</ele><time>2025-05-26T22:14:46Z</time></trkpt>
<trkpt lat="51.219768" lon="4.361485"><ele>1.77</ele><time>2025-05-26T22:14:54Z</time></trkpt>
<trkpt lat="51.219785" lon="4.362234"><ele>1.23</ele><time>2025-05-26T22:15:02Z</time></trkpt>
<trkpt lat="51.219819" lon="4.362805"><ele>2.0</ele><time>2025-05-26T22:15:09Z</time></trkpt>
<trkpt lat="51.219933" lon="4.363729"><ele>0.81</ele><time>2025-05-26T22:15:17Z</time></trkpt>
<trkpt lat="51.219954" lon="4.363828"><ele>0.39</ele><time>2025-05-26T22:15:25Z</time></trkpt>
<trkpt lat="51.220025" lon="4.367587"><ele>1.62</ele><time>2025-05-26T22:15:33Z</time></trkpt>
<trkpt lat="51.220175" lon="4.378309"><ele>4.54</ele><time>2025-05-26T22:15:41Z</time></trkpt>
<trkpt lat="51.220508" lon="4.378217"><ele>4.45</ele><time>2025-05-26T22:16:03Z</time></trkpt>
<trkpt lat="51.22662" lon="4.378411"><ele>11.42</ele><time>2025-05-26T22:16:24Z</time></trkpt>
<trkpt lat="51.226787" lon="4.378472"><ele>7.75</ele><time>2025-05-26T22:16:46Z</time></trkpt>
<trkpt lat="51.227212" lon="4.378492"><ele>-3.78</ele><time>2025-05-26T22:17:07Z</time></trkpt>
<trkpt lat="51.227273" lon="4.378519"><ele>-2.89</ele><time>2025-05-26T22:17:29Z</time></trkpt>
<trkpt lat="51.227314" lon="4.37857"><ele>-2.01</ele><time>2025-05-26T22:17:51Z</time></trkpt>
<trkpt lat="51.22733" lon="4.378636"><ele>-1.7</ele><time>2025-05-26T22:18:12Z</time></trkpt>
<trkpt lat="51.227281" lon="4.381516"><ele>6.97</ele><time>2025-05-26T22:18:34Z</time></trkpt>
<trkpt lat="51.227318" lon="4.38229"><ele>2.62</ele><time>2025-05-26T22:18:56Z</time></trkpt>
<trkpt lat="51.227291" lon="4.384846"><ele>11.71</ele><time>2025-05-26T22:19:17Z</time></trkpt>
<trkpt lat="51.227199" lon="4.391821"><ele>10.38</ele><time>2025-05-26T22:19:39Z</time></trkpt>
<trkpt lat="51.226957" lon="4.404947"><ele>7.88</ele><time>2025-05-26T22:20:01Z</time></trkpt>
<trkpt lat="51.226956" lon="4.405733"><ele>7.73</ele><time>2025-05-26T22:20:22Z</time></trkpt>
<trkpt lat="51.22714" lon="4.410173"><ele>6.89</ele><time>2025-05-26T22:20:44Z</time></trkpt>
<trkpt lat="51.227145" lon="4.410506"><ele>6.64</ele><time>2025-05-26T22:21:06Z</time></trkpt>
<trkpt lat="51.227129" lon="4.410853"><ele>6.31</ele><time>2025-05-26T22:21:27Z</time></trkpt>
<trkpt lat="51.227054" lon="4.411462"><ele>8.07</ele><time>2025-05-26T22:21:49Z</time></trkpt>
<trkpt lat="51.226981" lon="4.411799"><ele>8.73</ele><time>2025-05-26T22:22:11Z</time></trkpt>
<trkpt lat="51.226745" lon="4.412537"><ele>8.9</ele><time>2025-05-26T22:22:32Z</time></trkpt>
<trkpt lat="51.226569" lon="4.412807"><ele>8.31</ele><time>2025-05-26T22:22:54Z</time></trkpt>
<trkpt lat="51.226406" lon="4.413153"><ele>7.65</ele><time>2025-05-26T22:23:16Z</time></trkpt>
<trkpt lat="51.226279" lon="4.413483"><ele>8.19</ele><time>2025-05-26T22:23:37Z</time></trkpt>
<trkpt lat="51.226213" lon="4.41375"><ele>8.58</ele><time>2025-05-26T22:23:59Z</time></trkpt>
<trkpt lat="51.226177" lon="4.414043"><ele>8.1</ele><time>2025-05-26T22:24:21Z</time></trkpt>
<trkpt lat="51.226172" lon="4.414292"><ele>7.53</ele><time>2025-05-26T22:24:42Z</time></trkpt>
<trkpt lat="51.226179" lon="4.4145"><ele>7.24</ele><time>2025-05-26T22:25:04Z</time></trkpt>
<trkpt lat="51.226264" lon="4.414802"><ele>7.68</ele><time>2025-05-26T22:25:25Z</time></trkpt>
<trkpt lat="51.226291" lon="4.414966"><ele>7.96</ele><time>2025-05-26T22:25:40Z</time></trkpt>
<trkpt lat="51.226332" lon="4.415118"><ele>8.42</ele><time>2025-05-26T22:25:54Z</time></trkpt>
<trkpt lat="51.226776" lon="4.416386"><ele>9.21</ele><time>2025-05-26T22:26:08Z</time></trkpt>
<trkpt lat="51.22741" lon="4.418104"><ele>6.5</ele><time>2025-05-26T22:26:22Z</time></trkpt>
<trkpt lat="51.227345" lon="4.418314"><ele>5.51</ele><time>2025-05-26T22:26:36Z</time></trkpt>
<trkpt lat="51.227285" lon="4.418475"><ele>5.22</ele><time>2025-05-26T22:26:50Z</time></trkpt>
<trkpt lat="51.227249" lon="4.41941"><ele>5.97</ele><time>2025-05-26T22:27:04Z</time></trkpt>
<trkpt lat="51.227694" lon="4.421822"><ele>5.3</ele><time>2025-05-26T22:27:18Z</time></trkpt>
<trkpt lat="51.227767" lon="4.422028"><ele>5.03</ele><time>2025-05-26T22:27:32Z</time></trkpt>
<trkpt lat="51.228734" lon="4.426126"><ele>4.61</ele><time>2025-05-26T22:27:46Z</time></trkpt>
<trkpt lat="51.228762" lon="4.426248"><ele>4.95</ele><time>2025-05-26T22:28:00Z</time></trkpt>
<trkpt lat="51.227817" lon="4.430867"><ele>4.74</ele><time>2025-05-26T22:28:14Z</time></trkpt>
<trkpt lat="51.227849" lon="4.431074"><ele>4.71</ele><time>2025-05-26T22:28:28Z</time></trkpt>
<trkpt lat="51.227915" lon="4.432781"><ele>6.49</ele><time>2025-05-26T22:28:42Z</time></trkpt>
<trkpt lat="51.227941" lon="4.433623"><ele>5.0</ele><time>2025-05-26T22:28:56Z</time></trkpt>
<trkpt lat="51.227925" lon="4.434003"><ele>5.0</ele><time>2025-05-26T22:29:10Z</time></trkpt>
<trkpt lat="51.227734" lon="4.434871"><ele>5.69</ele><time>2025-05-26T22:29:24Z</time></trkpt>
<trkpt lat="51.227692" lon="4.435005"><ele>6.31</ele><time>2025-05-26T22:29:38Z</time></trkpt>
<trkpt lat="51.227634" lon="4.435113"><ele>6.52</ele><time>2025-05-26T22:29:52Z</time></trkpt>
<trkpt lat="51.226961" lon="4.43601"><ele>4.43</ele><time>2025-05-26T22:30:06Z</time></trkpt>
<trkpt lat="51.226877" lon="4.43608"><ele>4.33</ele><time>2025-05-26T22:30:20Z</time></trkpt>
<trkpt lat="51.226826" lon="4.436169"><ele>4.43</ele><time>2025-05-26T22:30:34Z</time></trkpt>
<trkpt lat="51.22678" lon="4.436309"><ele>4.59</ele><time>2025-05-26T22:30:48Z</time></trkpt>
<trkpt lat="51.226694" lon="4.436818"><ele>4.9</ele><time>2025-05-26T22:31:02Z</time></trkpt>
<trkpt lat="51.226796" lon="4.437058"><ele>4.12</ele><time>2025-05-26T22:31:11Z</time></trkpt>
<trkpt lat="51.226846" lon="4.437284"><ele>3.35</ele><time>2025-05-26T22:31:20Z</time></trkpt>
<trkpt lat="51.226948" lon="4.438056"><ele>3.99</ele><time>2025-05-26T22:31:29Z</time></trkpt>
<trkpt lat="51.227023" lon="4.438505"><ele>4.72</ele><time>2025-05-26T22:31:38Z</time></trkpt>
<trkpt lat="51.227113" lon="4.438742"><ele>4.58</ele><time>2025-05-26T22:31:47Z</time></trkpt>
<trkpt lat="51.22746" lon="4.439424"><ele>2.8</ele><time>2025-05-26T22:31:56Z</time></trkpt>
<trkpt lat="51.227833" lon="4.440202"><ele>1.05</ele><time>2025-05-26T22:32:05Z</time></trkpt>
<trkpt lat="51.227902" lon="4.440339"><ele>0.78</ele><time>2025-05-26T22:32:14Z</time></trkpt>
<trkpt lat="51.228573" lon="4.441643"><ele>0.78</ele><time>2025-05-26T22:32:23Z</time></trkpt>
<trkpt lat="51.228709" lon="4.442006"><ele>3.14</ele><time>2025-05-26T22:32:32Z</time></trkpt>
<trkpt lat="51.22882" lon="4.44218"><ele>5.2</ele><time>2025-05-26T22:32:41Z</time></trkpt>
<trkpt lat="51.228891" lon="4.442343"><ele>6.43</ele><time>2025-05-26T22:32:50Z</time></trkpt>
<trkpt lat="51.229041" lon="4.442487"><ele>6.43</ele><time>2025-05-26T22:32:59Z</time></trkpt>
<trkpt lat="51.229211" lon="4.442766"><ele>4.73</ele><time>2025-05-26T22:33:08Z</time></trkpt>
<trkpt lat="51.229314" lon="4.442871"><ele>3.61</ele><time>2025-05-26T22:33:17Z</time></trkpt>
<trkpt lat="51.229426" lon="4.442941"><ele>2.54</ele><time>2025-05-26T22:33:26Z</time></trkpt>
<trkpt lat="51.229499" lon="4.443214"><ele>0.97</ele><time>2025-05-26T22:33:35Z</time></trkpt>
<trkpt lat="51.229648" lon="4.444236"><ele>1.07</ele><time>2025-05-26T22:33:44Z</time></trkpt>
<trkpt lat="51.22981" lon="4.444812"><ele>1.85</ele><time>2025-05-26T22:33:53Z</time></trkpt>
<trkpt lat="51.229896" lon="4.445001"><ele>2.62</ele><time>2025-05-26T22:34:01Z</time></trkpt>
<trkpt lat="51.230518" lon="4.447156"><ele>1.58</ele><time>2025-05-26T22:34:10Z</time></trkpt>
<trkpt lat="51.230832" lon="4.448321"><ele>1.96</ele><time>2025-05-26T22:34:19Z</time></trkpt>
<trkpt lat="51.231126" lon="4.449602"><ele>4.11</ele><time>2025-05-26T22:34:28Z</time></trkpt>
<trkpt lat="51.232266" lon="4.456007"><ele>3.47</ele><time>2025-05-26T22:34:37Z</time></trkpt>
<trkpt lat="51.232495" lon="4.457373"><ele>0.03</ele><time>2025-05-26T22:34:46Z</time></trkpt>
<trkpt lat="51.232976" lon="4.460068"><ele>3.85</ele><time>2025-05-26T22:34:55Z</time></trkpt>
<trkpt lat="51.233561" lon="4.463925"><ele>3.11</ele><time>2025-05-26T22:35:04Z</time></trkpt>
<trkpt lat="51.234075" lon="4.467144"><ele>7.45</ele><time>2025-05-26T22:35:13Z</time></trkpt>
<trkpt lat="51.234495" lon="4.469993"><ele>4.02</ele><time>2025-05-26T22:35:22Z</time></trkpt>
<trkpt lat="51.234914" lon="4.472537"><ele>5.24</ele><time>2025-05-26T22:35:31Z</time></trkpt>
<trkpt lat="51.2352" lon="4.473895"><ele>4.01</ele><time>2025-05-26T22:35:40Z</time></trkpt>
<trkpt lat="51.235481" lon="4.475084"><ele>7.88</ele><time>2025-05-26T22:35:49Z</time></trkpt>
<trkpt lat="51.235831" lon="4.476707"><ele>5.03</ele><time>2025-05-26T22:35:58Z</time></trkpt>
<trkpt lat="51.236042" lon="4.477725"><ele>6.06</ele><time>2025-05-26T22:36:07Z</time></trkpt>
<trkpt lat="51.236132" lon="4.478324"><ele>5.92</ele><time>2025-05-26T22:36:16Z</time></trkpt>
<trkpt lat="51.236171" lon="4.478758"><ele>4.47</ele><time>2025-05-26T22:36:25Z</time></trkpt>
<trkpt lat="51.236185" lon="4.479127"><ele>4.0</ele><time>2025-05-26T22:36:34Z</time></trkpt>
<trkpt lat="51.236173" lon="4.479869"><ele>4.41</ele><time>2025-05-26T22:36:43Z</time></trkpt>
<trkpt lat="51.236092" lon="4.482053"><ele>5.4</ele><time>2025-05-26T22:36:52Z</time></trkpt>
<trkpt lat="51.236087" lon="4.482803"><ele>3.0</ele><time>2025-05-26T22:37:01Z</time></trkpt>
<trkpt lat="51.236114" lon="4.484801"><ele>3.71</ele><time>2025-05-26T22:37:09Z</time></trkpt>
<trkpt lat="51.23616" lon="4.487572"><ele>3.26</ele><time>2025-05-26T22:37:18Z</time></trkpt>
<trkpt lat="51.236198" lon="4.488912"><ele>3.31</ele><time>2025-05-26T22:37:27Z</time></trkpt>
<trkpt lat="51.236195" lon="4.489487"><ele>2.61</ele><time>2025-05-26T22:37:36Z</time></trkpt>
<trkpt lat="51.236159" lon="4.489967"><ele>2.19</ele><time>2025-05-26T22:37:45Z</time></trkpt>
<trkpt lat="51.236074" lon="4.490639"><ele>5.56</ele><time>2025-05-26T22:37:54Z</time></trkpt>
<trkpt lat="51.235986" lon="4.491063"><ele>7.83</ele><time>2025-05-26T22:38:03Z</time></trkpt>
<trkpt lat="51.235643" lon="4.492306"><ele>3.31</ele><time>2025-05-26T22:38:12Z</time></trkpt>
<trkpt lat="51.234373" lon="4.496718"><ele>3.58</ele><time>2025-05-26T22:38:21Z</time></trkpt>
<trkpt lat="51.233979" lon="4.498027"><ele>5.0</ele><time>2025-05-26T22:38:30Z</time></trkpt>
<trkpt lat="51.233865" lon="4.498346"><ele>6.08</ele><time>2025-05-26T22:38:39Z</time></trkpt>
<trkpt lat="51.23368" lon="4.498788"><ele>6.91</ele><time>2025-05-26T22:38:48Z</time></trkpt>
<trkpt lat="51.233353" lon="4.499428"><ele>7.14</ele><time>2025-05-26T22:38:57Z</time></trkpt>
<trkpt lat="51.232616" lon="4.500766"><ele>8.42</ele><time>2025-05-26T22:39:06Z</time></trkpt>
<trkpt lat="51.232185" lon="4.501627"><ele>7.14</ele><time>2025-05-26T22:39:15Z</time></trkpt>
<trkpt lat="51.231609" lon="4.502951"><ele>7.0</ele><time>2025-05-26T22:39:24Z</time></trkpt>
<trkpt lat="51.231489" lon="4.503265"><ele>7.75</ele><time>2025-05-26T22:39:33Z</time></trkpt>
<trkpt lat="51.231408" lon="4.503521"><ele>7.95</ele><time>2025-05-26T22:39:42Z</time></trkpt>
<trkpt lat="51.231279" lon="4.504066"><ele>7.0</ele><time>2025-05-26T22:39:51Z</time></trkpt>
<trkpt lat="51.231172" lon="4.504628"><ele>6.0</ele><time>2025-05-26T22:40:00Z</time></trkpt>
<trkpt lat="51.231152" lon="4.504801"><ele>6.04</ele><time>2025-05-26T22:40:09Z</time></trkpt>
<trkpt lat="51.231156" lon="4.504967"><ele>6.14</ele><time>2025-05-26T22:40:17Z</time></trkpt>
<trkpt lat="51.230605" lon="4.506922"><ele>7.76</ele><time>2025-05-26T22:40:26Z</time></trkpt>
<trkpt lat="51.230228" lon="4.508725"><ele>4.18</ele><time>2025-05-26T22:40:35Z</time></trkpt>
<trkpt lat="51.229774" lon="4.511013"><ele>6.93</ele><time>2025-05-26T22:40:44Z</time></trkpt>
<trkpt lat="51.229551" lon="4.512008"><ele>8.14</ele><time>2025-05-26T22:40:53Z</time></trkpt>
<trkpt lat="51.228995" lon="4.514268"><ele>8.22</ele><time>2025-05-26T22:41:02Z</time></trkpt>
<trkpt lat="51.228439" lon="4.516823"><ele>8.38</ele><time>2025-05-26T22:41:11Z</time></trkpt>
<trkpt lat="51.22816" lon="4.517481"><ele>7.0</ele><time>2025-05-26T22:41:20Z</time></trkpt>
<trkpt lat="51.227525" lon="4.519094"><ele>7.67</ele><time>2025-05-26T22:41:29Z</time></trkpt>
<trkpt lat="51.227461" lon="4.519216"><ele>8.18</ele><time>2025-05-26T22:41:38Z</time></trkpt>
<trkpt lat="51.227072" lon="4.519506"><ele>9.54</ele><time>2025-05-26T22:41:47Z</time></trkpt>
<trkpt lat="51.227186" lon="4.520384"><ele>9.75</ele><time>2025-05-26T22:41:54Z</time></trkpt>
<trkpt lat="51.224338" lon="4.521855"><ele>4.62</ele><time>2025-05-26T22:42:14Z</time></trkpt>
<trkpt lat="51.224096" lon="4.522044"><ele>3.48</ele><time>2025-05-26T22:42:34Z</time></trkpt>
<trkpt lat="51.223439" lon="4.522802"><ele>4.0</ele><time>2025-05-26T22:42:53Z</time></trkpt>
<trkpt lat="51.221804" lon="4.524659"><ele>6.0</ele><time>2025-05-26T22:43:13Z</time></trkpt>
<trkpt lat="51.221529" lon="4.524963"><ele>4.57</ele><time>2025-05-26T22:43:33Z</time></trkpt>
<trkpt lat="51.221297" lon="4.525181"><ele>4.33</ele><time>2025-05-26T22:43:53Z</time></trkpt>
<trkpt lat="51.220895" lon="4.525432"><ele>5.55</ele><time>2025-05-26T22:44:12Z</time></trkpt>
<trkpt lat="51.220704" lon="4.525524"><ele>5.06</ele><time>2025-05-26T22:44:32Z</time></trkpt>
<trkpt lat="51.214991" lon="4.527527"><ele>5.03</ele><time>2025-05-26T22:44:52Z</time></trkpt>
<trkpt lat="51.214657" lon="4.527594"><ele>6.39</ele><time>2025-05-26T22:45:11Z</time></trkpt>
<trkpt lat="51.214647" lon="4.52752"><ele>6.52</ele><time>2025-05-26T22:45:15Z</time></trkpt>
<trkpt lat="51.214595" lon="4.527428"><ele>6.92</ele><time>2025-05-26T22:45:19Z</time></trkpt>
<trkpt lat="51.214533" lon="4.527406"><ele>7.36</ele><time>2025-05-26T22:45:23Z</time></trkpt>
<trkpt lat="51.214485" lon="4.527427"><ele>7.71</ele><time>2025-05-26T22:45:26Z</time></trkpt>
<trkpt lat="51.214447" lon="4.527474"><ele>7.98</ele><time>2025-05-26T22:45:30Z</time></trkpt>
<trkpt lat="51.214421" lon="4.52757"><ele>7.83</ele><time>2025-05-26T22:45:34Z</time></trkpt>
<trkpt lat="51.214445" lon="4.52771"><ele>7.24</ele><time>2025-05-26T22:45:38Z</time></trkpt>
<trkpt lat="51.214514" lon="4.52778"><ele>6.75</ele><time>2025-05-26T22:45:41Z</time></trkpt>
<trkpt lat="51.214576" lon="4.527775"><ele>6.53</ele><time>2025-05-26T22:45:45Z</time></trkpt>
<trkpt lat="51.215669" lon="4.533477"><ele>5.52</ele><time>2025-05-26T22:45:49Z</time></trkpt>
<trkpt lat="51.215848" lon="4.534039"><ele>6.97</ele><time>2025-05-26T22:45:53Z</time></trkpt>
<trkpt lat="51.21631" lon="4.534834"><ele>6.86</ele><time>2025-05-26T22:45:56Z</time></trkpt>
<trkpt lat="51.21723" lon="4.53616"><ele>3.0</ele><time>2025-05-26T22:46:00Z</time></trkpt>
<trkpt lat="51.217854" lon="4.53688"><ele>4.0</ele><time>2025-05-26T22:46:04Z</time></trkpt>
<trkpt lat="51.217923" lon="4.537"><ele>4.2</ele><time>2025-05-26T22:46:08Z</time></trkpt>
<trkpt lat="51.218013" lon="4.537236"><ele>5.0</ele><time>2025-05-26T22:46:11Z</time></trkpt>
<trkpt lat="51.218056" lon="4.537411"><ele>5.0</ele><time>2025-05-26T22:46:15Z</time></trkpt>
<trkpt lat="51.218094" lon="4.537663"><ele>4.41</ele><time>2025-05-26T22:46:19Z</time></trkpt>
<trkpt lat="51.218191" lon="4.540493"><ele>5.28</ele><time>2025-05-26T22:46:23Z</time></trkpt>
<trkpt lat="51.218268" lon="4.543411"><ele>5.47</ele><time>2025-05-26T22:46:26Z</time></trkpt>
<trkpt lat="51.218249" lon="4.543829"><ele>5.37</ele><time>2025-05-26T22:46:30Z</time></trkpt>
<trkpt lat="51.218195" lon="4.544181"><ele>5.47</ele><time>2025-05-26T22:46:34Z</time></trkpt>
<trkpt lat="51.218024" lon="4.545031"><ele>6.1</ele><time>2025-05-26T22:46:38Z</time></trkpt>
<trkpt lat="51.218024" lon="4.545217"><ele>6.02</ele><time>2025-05-26T22:46:41Z</time></trkpt>
<trkpt lat="51.217967" lon="4.54528"><ele>5.99</ele><time>2025-05-26T22:46:46Z</time></trkpt>
<trkpt lat="51.217953" lon="4.545434"><ele>5.44</ele><time>2025-05-26T22:46:50Z</time></trkpt>
<trkpt lat="51.217821" lon="4.545688"><ele>5.0</ele><time>2025-05-26T22:46:55Z</time></trkpt>
<trkpt lat="51.217701" lon="4.54584"><ele>5.28</ele><time>2025-05-26T22:46:59Z</time></trkpt>
<trkpt lat="51.217572" lon="4.546359"><ele>6.48</ele><time>2025-05-26T22:47:04Z</time></trkpt>
<trkpt lat="51.217386" lon="4.547918"><ele>3.59</ele><time>2025-05-26T22:47:08Z</time></trkpt>
<trkpt lat="51.217303" lon="4.548378"><ele>3.4</ele><time>2025-05-26T22:47:13Z</time></trkpt>
<trkpt lat="51.217131" lon="4.549068"><ele>6.0</ele><time>2025-05-26T22:47:17Z</time></trkpt>
<trkpt lat="51.217101" lon="4.549254"><ele>5.86</ele><time>2025-05-26T22:47:22Z</time></trkpt>
<trkpt lat="51.217072" lon="4.54949"><ele>5.46</ele><time>2025-05-26T22:47:26Z</time></trkpt>
<trkpt lat="51.216934" lon="4.551652"><ele>4.99</ele><time>2025-05-26T22:47:30Z</time></trkpt>
<trkpt lat="51.216926" lon="4.553046"><ele>6.07</ele><time>2025-05-26T22:47:35Z</time></trkpt>
<trkpt lat="51.216955" lon="4.553376"><ele>6.0</ele><time>2025-05-26T22:47:39Z</time></trkpt>
<trkpt lat="51.217048" lon="4.554005"><ele>6.0</ele><time>2025-05-26T22:47:44Z</time></trkpt>
<trkpt lat="51.217238" lon="4.555188"><ele>7.02</ele><time>2025-05-26T22:47:48Z</time></trkpt>
<trkpt lat="51.217292" lon="4.555419"><ele>6.49</ele><time>2025-05-26T22:47:53Z</time></trkpt>
<trkpt lat="51.21741" lon="4.555777"><ele>6.0</ele><time>2025-05-26T22:47:57Z</time></trkpt>
<trkpt lat="51.217578" lon="4.556131"><ele>5.07</ele><time>2025-05-26T22:48:02Z</time></trkpt>
<trkpt lat="51.218293" lon="4.557466"><ele>6.14</ele><time>2025-05-26T22:48:06Z</time></trkpt>
<trkpt lat="51.218381" lon="4.557691"><ele>6.0</ele><time>2025-05-26T22:48:11Z</time></trkpt>
<trkpt lat="51.218439" lon="4.558016"><ele>6.0</ele><time>2025-05-26T22:48:15Z</time></trkpt>
<trkpt lat="51.218509" lon="4.558654"><ele>4.94</ele><time>2025-05-26T22:48:20Z</time></trkpt>
<trkpt lat="51.218537" lon="4.559069"><ele>5.38</ele><time>2025-05-26T22:48:24Z</time></trkpt>
<trkpt lat="51.218533" lon="4.559286"><ele>6.14</ele><time>2025-05-26T22:48:28Z</time></trkpt>
<trkpt lat="51.218507" lon="4.559489"><ele>6.63</ele><time>2025-05-26T22:48:33Z</time></trkpt>
<trkpt lat="51.218411" lon="4.559842"><ele>6.28</ele><time>2025-05-26T22:48:37Z</time></trkpt>
<trkpt lat="51.217389" lon="4.562284"><ele>5.0</ele><time>2025-05-26T22:48:42Z</time></trkpt>
<trkpt lat="51.217275" lon="4.562626"><ele>4.63</ele><time>2025-05-26T22:48:46Z</time></trkpt>
<trkpt lat="51.217223" lon="4.562839"><ele>4.0</ele><time>2025-05-26T22:48:51Z</time></trkpt>
<trkpt lat="51.217211" lon="4.563663"><ele>6.1</ele><time>2025-05-26T22:48:55Z</time></trkpt>
<trkpt lat="51.217002" lon="4.564858"><ele>6.2</ele><time>2025-05-26T22:49:00Z</time></trkpt>
<trkpt lat="51.216939" lon="4.565053"><ele>6.0</ele><time>2025-05-26T22:49:04Z</time></trkpt>
<trkpt lat="51.216626" lon="4.566773"><ele>6.76</ele><time>2025-05-26T22:49:09Z</time></trkpt>
<trkpt lat="51.216556" lon="4.567054"><ele>7.0</ele><time>2025-05-26T22:49:13Z</time></trkpt>
<trkpt lat="51.216475" lon="4.567249"><ele>7.31</ele><time>2025-05-26T22:49:18Z</time></trkpt>
<trkpt lat="51.216246" lon="4.567635"><ele>6.97</ele><time>2025-05-26T22:49:22Z</time></trkpt>
<trkpt lat="51.215911" lon="4.567946"><ele>7.0</ele><time>2025-05-26T22:49:26Z</time></trkpt>
<trkpt lat="51.21505" lon="4.568487"><ele>7.0</ele><time>2025-05-26T22:49:31Z</time></trkpt>
<trkpt lat="51.214418" lon="4.56904"><ele>5.0</ele><time>2025-05-26T22:49:35Z</time></trkpt>
<trkpt lat="51.214152" lon="4.569341"><ele>5.68</ele><time>2025-05-26T22:49:40Z</time></trkpt>
<trkpt lat="51.214007" lon="4.569574"><ele>6.57</ele><time>2025-05-26T22:49:44Z</time></trkpt>
<trkpt lat="51.213545" lon="4.570635"><ele>6.29</ele><time>2025-05-26T22:49:49Z</time></trkpt>
<trkpt lat="51.213425" lon="4.570747"><ele>6.69</ele><time>2025-05-26T22:49:53Z</time></trkpt>
<trkpt lat="51.213366" lon="4.570767"><ele>6.76</ele><time>2025-05-26T22:50:01Z</time></trkpt>
<trkpt lat="51.213309" lon="4.570879"><ele>6.99</ele><time>2025-05-26T22:50:08Z</time></trkpt>
<trkpt lat="51.213321" lon="4.571022"><ele>7.59</ele><time>2025-05-26T22:50:16Z</time></trkpt>
<trkpt lat="51.213302" lon="4.571306"><ele>7.85</ele><time>2025-05-26T22:50:23Z</time></trkpt>
<trkpt lat="51.213262" lon="4.571446"><ele>7.95</ele><time>2025-05-26T22:50:31Z</time></trkpt>
<trkpt lat="51.213158" lon="4.572123"><ele>8.13</ele><time>2025-05-26T22:50:38Z</time></trkpt>
<trkpt lat="51.213097" lon="4.572642"><ele>8.51</ele><time>2025-05-26T22:50:46Z</time></trkpt>
<trkpt lat="51.212945" lon="4.573441"><ele>8.6</ele><time>2025-05-26T22:50:53Z</time></trkpt>
<trkpt lat="51.211487" lon="4.577992"><ele>7.77</ele><time>2025-05-26T22:51:01Z</time></trkpt>
<trkpt lat="51.20986" lon="4.582259"><ele>7.5</ele><time>2025-05-26T22:51:08Z</time></trkpt>
<trkpt lat="51.209732" lon="4.582548"><ele>7.96</ele><time>2025-05-26T22:51:15Z</time></trkpt>
<trkpt lat="51.20948" lon="4.582982"><ele>7.13</ele><time>2025-05-26T22:51:23Z</time></trkpt>
<trkpt lat="51.208733" lon="4.584143"><ele>8.0</ele><time>2025-05-26T22:51:30Z</time></trkpt>
<trkpt lat="51.207357" lon="4.586203"><ele>6.64</ele><time>2025-05-26T22:51:38Z</time></trkpt>
<trkpt lat="51.206931" lon="4.587117"><ele>8.03</ele><time>2025-05-26T22:51:45Z</time></trkpt>
<trkpt lat="51.206699" lon="4.587855"><ele>8.89</ele><time>2025-05-26T22:51:53Z</time></trkpt>
<trkpt lat="51.206543" lon="4.588106"><ele>8.82</ele><time>2025-05-26T22:52:00Z</time></trkpt>
<trkpt lat="51.206409" lon="4.588271"><ele>8.22</ele><time>2025-05-26T22:52:08Z</time></trkpt>
<trkpt lat="51.208001" lon="4.59209"><ele>7.68</ele><time>2025-05-26T22:52:14Z</time></trkpt>
<trkpt lat="51.208502" lon="4.593248"><ele>7.31</ele><time>2025-05-26T22:52:19Z</time></trkpt>
<trkpt lat="51.208537" lon="4.593375"><ele>7.0</ele><time>2025-05-26T22:52:25Z</time></trkpt>
<trkpt lat="51.208522" lon="4.593518"><ele>7.0</ele><time>2025-05-26T22:52:31Z</time></trkpt>
<trkpt lat="51.207358" lon="4.597078"><ele>8.25</ele><time>2025-05-26T22:52:36Z</time></trkpt>
<trkpt lat="51.207302" lon="4.597205"><ele>8.67</ele><time>2025-05-26T22:52:42Z</time></trkpt>
<trkpt lat="51.207181" lon="4.597294"><ele>9.15</ele><time>2025-05-26T22:52:48Z</time></trkpt>
<trkpt lat="51.205003" lon="4.598143"><ele>11.32</ele><time>2025-05-26T22:52:53Z</time></trkpt>
<trkpt lat="51.204952" lon="4.598162"><ele>11.21</ele><time>2025-05-26T22:52:59Z</time></trkpt>
<trkpt lat="51.204817" lon="4.598231"><ele>10.97</ele><time>2025-05-26T22:53:05Z</time></trkpt>
<trkpt lat="51.204698" lon="4.598249"><ele>10.55</ele><time>2025-05-26T22:53:10Z</time></trkpt>
<trkpt lat="51.204649" lon="4.598225"><ele>10.19</ele><time>2025-05-26T22:53:16Z</time></trkpt>
<trkpt lat="51.20458" lon="4.598146"><ele>9.65</ele><time>2025-05-26T22:53:22Z</time></trkpt>
<trkpt lat="51.204462" lon="4.597978"><ele>9.05</ele><time>2025-05-26T22:53:27Z</time></trkpt>
<trkpt lat="51.204398" lon="4.59793"><ele>8.83</ele><time>2025-05-26T22:53:33Z</time></trkpt>
<trkpt lat="51.204277" lon="4.597913"><ele>8.4</ele><time>2025-05-26T22:53:39Z</time></trkpt>
<trkpt lat="51.204156" lon="4.598007"><ele>7.96</ele><time>2025-05-26T22:53:44Z</time></trkpt>
<trkpt lat="51.204037" lon="4.59817"><ele>7.53</ele><time>2025-05-26T22:53:50Z</time></trkpt>
<trkpt lat="51.20396" lon="4.598103"><ele>7.26</ele><time>2025-05-26T22:53:54Z</time></trkpt>
<trkpt lat="51.203873" lon="4.598114"><ele>7.0</ele><time>2025-05-26T22:53:58Z</time></trkpt>
<trkpt lat="51.203804" lon="4.598199"><ele>7.0</ele><time>2025-05-26T22:54:01Z</time></trkpt>
<trkpt lat="51.203783" lon="4.598262"><ele>7.0</ele><time>2025-05-26T22:54:05Z</time></trkpt>
<trkpt lat="51.203775" lon="4.598345"><ele>7.02</ele><time>2025-05-26T22:54:09Z</time></trkpt>
<trkpt lat="51.203784" lon="4.598428"><ele>7.13</ele><time>2025-05-26T22:54:12Z</time></trkpt>
<trkpt lat="51.203811" lon="4.598502"><ele>7.17</ele><time>2025-05-26T22:54:16Z</time></trkpt>
<trkpt lat="51.203851" lon="4.598556"><ele>7.11</ele><time>2025-05-26T22:54:20Z</time></trkpt>
<trkpt lat="51.203901" lon="4.598585"><ele>7.04</ele><time>2025-05-26T22:54:24Z</time></trkpt>
<trkpt lat="51.203954" lon="4.598585"><ele>7.24</ele><time>2025-05-26T22:54:27Z</time></trkpt>
<trkpt lat="51.204004" lon="4.598554"><ele>7.41</ele><time>2025-05-26T22:54:31Z</time></trkpt>
<trkpt lat="51.204054" lon="4.598484"><ele>7.59</ele><time>2025-05-26T22:54:35Z</time></trkpt>
<trkpt lat="51.20408" lon="4.598385"><ele>7.69</ele><time>2025-05-26T22:54:38Z</time></trkpt>
<trkpt lat="51.205838" lon="4.598872"><ele>9.94</ele><time>2025-05-26T22:54:42Z</time></trkpt>
<trkpt lat="51.207781" lon="4.600426"><ele>11.47</ele><time>2025-05-26T22:54:46Z</time></trkpt>
<trkpt lat="51.207967" lon="4.600485"><ele>11.76</ele><time>2025-05-26T22:54:50Z</time></trkpt>
<trkpt lat="51.208092" lon="4.600489"><ele>12.0</ele><time>2025-05-26T22:54:53Z</time></trkpt>
<trkpt lat="51.209843" lon="4.600327"><ele>9.57</ele><time>2025-05-26T22:54:57Z</time></trkpt>
<trkpt lat="51.2101" lon="4.600321"><ele>8.94</ele><time>2025-05-26T22:55:01Z</time></trkpt>
<trkpt lat="51.210134" lon="4.600427"><ele>8.74</ele><time>2025-05-26T22:55:11Z</time></trkpt>
<trkpt lat="51.210193" lon="4.600468"><ele>8.52</ele><time>2025-05-26T22:55:21Z</time></trkpt>
<trkpt lat="51.210186" lon="4.600942"><ele>8.33</ele><time>2025-05-26T22:55:31Z</time></trkpt>
<trkpt lat="51.210198" lon="4.601311"><ele>8.28</ele><time>2025-05-26T22:55:41Z</time></trkpt>
<trkpt lat="51.2103" lon="4.601991"><ele>8.92</ele><time>2025-05-26T22:55:51Z</time></trkpt>
<trkpt lat="51.210526" lon="4.603316"><ele>10.04</ele><time>2025-05-26T22:56:01Z</time></trkpt>
<trkpt lat="51.21085" lon="4.605891"><ele>10.95</ele><time>2025-05-26T22:56:11Z</time></trkpt>
<trkpt lat="51.211566" lon="4.611949"><ele>11.64</ele><time>2025-05-26T22:56:20Z</time></trkpt>
<trkpt lat="51.211594" lon="4.612541"><ele>10.78</ele><time>2025-05-26T22:56:30Z</time></trkpt>
<trkpt lat="51.211605" lon="4.613182"><ele>9.42</ele><time>2025-05-26T22:56:40Z</time></trkpt>
<trkpt lat="51.211627" lon="4.613451"><ele>9.49</ele><time>2025-05-26T22:56:50Z</time></trkpt>
<trkpt lat="51.211864" lon="4.614974"><ele>10.26</ele><time>2025-05-26T22:57:00Z</time></trkpt>
<trkpt lat="51.211987" lon="4.615855"><ele>8.84</ele><time>2025-05-26T22:57:10Z</time></trkpt>
<trkpt lat="51.212403" lon="4.61571"><ele>7.65</ele><time>2025-05-26T22:57:16Z</time></trkpt>
<trkpt lat="51.212607" lon="4.61569"><ele>8.77</ele><time>2025-05-26T22:57:22Z</time></trkpt>
<trkpt lat="51.212768" lon="4.615777"><ele>9.93</ele><time>2025-05-26T22:57:28Z</time></trkpt>
<trkpt lat="51.213276" lon="4.616267"><ele>12.94</ele><time>2025-05-26T22:57:34Z</time></trkpt>
<trkpt lat="51.213428" lon="4.616378"><ele>13.38</ele><time>2025-05-26T22:57:40Z</time></trkpt>
<trkpt lat="51.213602" lon="4.616436"><ele>13.63</ele><time>2025-05-26T22:57:45Z</time></trkpt>
<trkpt lat="51.214863" lon="4.6163"><ele>12.0</ele><time>2025-05-26T22:57:51Z</time></trkpt>
<trkpt lat="51.215559" lon="4.616409"><ele>12.07</ele><time>2025-05-26T22:57:57Z</time></trkpt>
<trkpt lat="51.216091" lon="4.616527"><ele>11.53</ele><time>2025-05-26T22:58:03Z</time></trkpt>
<trkpt lat="51.21617" lon="4.616575"><ele>11.67</ele><time>2025-05-26T22:58:09Z</time></trkpt>
<trkpt lat="51.216241" lon="4.61667"><ele>12.0</ele><time>2025-05-26T22:58:15Z</time></trkpt>
<trkpt lat="51.216291" lon="4.616833"><ele>12.0</ele><time>2025-05-26T22:58:21Z</time></trkpt>
<trkpt lat="51.216395" lon="4.617385"><ele>12.45</ele><time>2025-05-26T22:58:27Z</time></trkpt>
<trkpt lat="51.216975" lon="4.619306"><ele>14.56</ele><time>2025-05-26T22:58:32Z</time></trkpt>
<trkpt lat="51.217053" lon="4.619518"><ele>15.0</ele><time>2025-05-26T22:58:38Z</time></trkpt>
<trkpt lat="51.217436" lon="4.620064"><ele>14.77</ele><time>2025-05-26T22:58:44Z</time></trkpt>
<trkpt lat="51.218058" lon="4.620892"><ele>9.59</ele><time>2025-05-26T22:58:50Z</time></trkpt>
<trkpt lat="51.218338" lon="4.621477"><ele>8.73</ele><time>2025-05-26T22:58:56Z</time></trkpt>
<trkpt lat="51.21859" lon="4.621929"><ele>9.85</ele><time>2025-05-26T22:59:02Z</time></trkpt>
<trkpt lat="51.21936" lon="4.622915"><ele>7.0</ele><time>2025-05-26T22:59:08Z</time></trkpt>
<trkpt lat="51.219615" lon="4.623312"><ele>7.36</ele><time>2025-05-26T22:59:14Z</time></trkpt>
<trkpt lat="51.219842" lon="4.623739"><ele>8.03</ele><time>2025-05-26T22:59:19Z</time></trkpt>
<trkpt lat="51.219923" lon="4.623987"><ele>8.73</ele><time>2025-05-26T22:59:25Z</time></trkpt>
<trkpt lat="51.219975" lon="4.624238"><ele>9.69</ele><time>2025-05-26T22:59:31Z</time></trkpt>
<trkpt lat="51.220002" lon="4.624538"><ele>11.31</ele><time>2025-05-26T22:59:37Z</time></trkpt>
<trkpt lat="51.219973" lon="4.62594"><ele>10.29</ele><time>2025-05-26T22:59:43Z</time></trkpt>
<trkpt lat="51.219999" lon="4.626158"><ele>9.0</ele><time>2025-05-26T22:59:49Z</time></trkpt>
<trkpt lat="51.220141" lon="4.626905"><ele>8.0</ele><time>2025-05-26T22:59:55Z</time></trkpt>
<trkpt lat="51.220298" lon="4.627632"><ele>7.53</ele><time>2025-05-26T23:00:00Z</time></trkpt>
<trkpt lat="51.221133" lon="4.629737"><ele>8.02</ele><time>2025-05-26T23:00:06Z</time></trkpt>
<trkpt lat="51.221502" lon="4.630622"><ele>6.86</ele><time>2025-05-26T23:00:12Z</time></trkpt>
<trkpt lat="51.221594" lon="4.630796"><ele>6.77</ele><time>2025-05-26T23:00:18Z</time></trkpt>
<trkpt lat="51.221688" lon="4.630886"><ele>6.82</ele><time>2025-05-26T23:00:24Z</time></trkpt>
<trkpt lat="51.222643" lon="4.631312"><ele>10.24</ele><time>2025-05-26T23:00:30Z</time></trkpt>
<trkpt lat="51.22287" lon="4.631459"><ele>11.75</ele><time>2025-05-26T23:00:36Z</time></trkpt>
<trkpt lat="51.22309" lon="4.631643"><ele>12.91</ele><time>2025-05-26T23:00:42Z</time></trkpt>
<trkpt lat="51.224896" lon="4.633594"><ele>9.0</ele><time>2025-05-26T23:00:47Z</time></trkpt>
<trkpt lat="51.224351" lon="4.635211"><ele>7.57</ele><time>2025-05-26T23:00:55Z</time></trkpt>
<trkpt lat="51.223755" lon="4.637017"><ele>10.92</ele><time>2025-05-26T23:01:03Z</time></trkpt>
<trkpt lat="51.223707" lon="4.637215"><ele>13.52</ele><time>2025-05-26T23:01:11Z</time></trkpt>
<trkpt lat="51.223504" lon="4.63861"><ele>16.3</ele><time>2025-05-26T23:01:19Z</time></trkpt>
<trkpt lat="51.223484" lon="4.638875"><ele>17.26</ele><time>2025-05-26T23:01:26Z</time></trkpt>
<trkpt lat="51.223735" lon="4.642317"><ele>16.47</ele><time>2025-05-26T23:01:34Z</time></trkpt>
<trkpt lat="51.223746" lon="4.642771"><ele>15.53</ele><time>2025-05-26T23:01:42Z</time></trkpt>
<trkpt lat="51.223731" lon="4.643349"><ele>12.0</ele><time>2025-05-26T23:01:50Z</time></trkpt>
<trkpt lat="51.223866" lon="4.643339"><ele>12.0</ele><time>2025-05-26T23:01:51Z</time></trkpt>
<trkpt lat="51.223842" lon="4.643798"><ele>11.33</ele><time>2025-05-26T23:01:59Z</time></trkpt>
<trkpt lat="51.223773" lon="4.644534"><ele>9.42</ele><time>2025-05-26T23:02:06Z</time></trkpt>
<trkpt lat="51.223664" lon="4.645175"><ele>8.81</ele><time>2025-05-26T23:02:14Z</time></trkpt>
<trkpt lat="51.223525" lon="4.645724"><ele>8.02</ele><time>2025-05-26T23:02:21Z</time></trkpt>
<trkpt lat="51.223425" lon="4.645996"><ele>7.36</ele><time>2025-05-26T23:02:29Z</time></trkpt>
<trkpt lat="51.223209" lon="4.646501"><ele>6.05</ele><time>2025-05-26T23:02:36Z</time></trkpt>
<trkpt lat="51.223185" lon="4.646617"><ele>5.71</ele><time>2025-05-26T23:02:44Z</time></trkpt>
<trkpt lat="51.223185" lon="4.646737"><ele>5.53</ele><time>2025-05-26T23:02:51Z</time></trkpt>
<trkpt lat="51.223208" lon="4.646853"><ele>5.45</ele><time>2025-05-26T23:02:59Z</time></trkpt>
<trkpt lat="51.223255" lon="4.646954"><ele>5.31</ele><time>2025-05-26T23:03:06Z</time></trkpt>
<trkpt lat="51.229411" lon="4.656739"><ele>9.21</ele><time>2025-05-26T23:03:14Z</time></trkpt>
<trkpt lat="51.231255" lon="4.659694"><ele>10.38</ele><time>2025-05-26T23:03:21Z</time></trkpt>
<trkpt lat="51.231604" lon="4.66029"><ele>9.48</ele><time>2025-05-26T23:03:29Z</time></trkpt>
<trkpt lat="51.231707" lon="4.660443"><ele>9.59</ele><time>2025-05-26T23:03:36Z</time></trkpt>
<trkpt lat="51.231761" lon="4.660486"><ele>9.75</ele><time>2025-05-26T23:03:44Z</time></trkpt>
<trkpt lat="51.231844" lon="4.660486"><ele>9.75</ele><time>2025-05-26T23:03:47Z</time></trkpt>
<trkpt lat="51.233705" lon="4.659957"><ele>8.49</ele><time>2025-05-26T23:03:51Z</time></trkpt>
<trkpt lat="51.233741" lon="4.659901"><ele>8.82</ele><time>2025-05-26T23:03:55Z</time></trkpt>
<trkpt lat="51.23375" lon="4.659806"><ele>9.2</ele><time>2025-05-26T23:03:58Z</time></trkpt>
<trkpt lat="51.233072" lon="4.659825"><ele>6.41</ele><time>2025-05-26T23:04:11Z</time></trkpt>
<trkpt lat="51.232458" lon="4.659884"><ele>8.58</ele><time>2025-05-26T23:04:24Z</time></trkpt>
<trkpt lat="51.230717" lon="4.660361"><ele>11.59</ele><time>2025-05-26T23:04:37Z</time></trkpt>
<trkpt lat="51.22996" lon="4.660632"><ele>12.0</ele><time>2025-05-26T23:04:49Z</time></trkpt>
<trkpt lat="51.229655" lon="4.660786"><ele>12.04</ele><time>2025-05-26T23:05:02Z</time></trkpt>
<trkpt lat="51.229375" lon="4.660951"><ele>11.33</ele><time>2025-05-26T23:05:15Z</time></trkpt>
<trkpt lat="51.228854" lon="4.661339"><ele>10.0</ele><time>2025-05-26T23:05:28Z</time></trkpt>
<trkpt lat="51.225999" lon="4.663808"><ele>6.69</ele><time>2025-05-26T23:05:40Z</time></trkpt>
<trkpt lat="51.225774" lon="4.664024"><ele>7.0</ele><time>2025-05-26T23:05:53Z</time></trkpt>
<trkpt lat="51.22417" lon="4.665872"><ele>9.14</ele><time>2025-05-26T23:06:06Z</time></trkpt>
<trkpt lat="51.221571" lon="4.670002"><ele>9.0</ele><time>2025-05-26T23:06:19Z</time></trkpt>
<trkpt lat="51.22151" lon="4.670094"><ele>9.0</ele><time>2025-05-26T23:06:31Z</time></trkpt>
<trkpt lat="51.224521" lon="4.674372"><ele>8.26</ele><time>2025-05-26T23:06:42Z</time></trkpt>
<trkpt lat="51.224954" lon="4.674934"><ele>7.64</ele><time>2025-05-26T23:06:52Z</time></trkpt>
<trkpt lat="51.225116" lon="4.675098"><ele>8.41</ele><time>2025-05-26T23:07:02Z</time></trkpt>
<trkpt lat="51.225232" lon="4.675249"><ele>8.83</ele><time>2025-05-26T23:07:12Z</time></trkpt>
<trkpt lat="51.225288" lon="4.675355"><ele>9.03</ele><time>2025-05-26T23:07:23Z</time></trkpt>
<trkpt lat="51.225307" lon="4.675505"><ele>9.02</ele><time>2025-05-26T23:07:28Z</time></trkpt>
<trkpt lat="51.22504" lon="4.678143"><ele>9.1</ele><time>2025-05-26T23:07:33Z</time></trkpt>
<trkpt lat="51.224972" lon="4.678519"><ele>9.0</ele><time>2025-05-26T23:07:38Z</time></trkpt>
<trkpt lat="51.224851" lon="4.678977"><ele>8.0</ele><time>2025-05-26T23:07:43Z</time></trkpt>
<trkpt lat="51.224371" lon="4.680402"><ele>7.06</ele><time>2025-05-26T23:07:48Z</time></trkpt>
<trkpt lat="51.224227" lon="4.68101"><ele>6.3</ele><time>2025-05-26T23:07:53Z</time></trkpt>
<trkpt lat="51.224017" lon="4.682833"><ele>7.46</ele><time>2025-05-26T23:07:58Z</time></trkpt>
<trkpt lat="51.223895" lon="4.683395"><ele>8.02</ele><time>2025-05-26T23:08:04Z</time></trkpt>
<trkpt lat="51.223947" lon="4.683426"><ele>8.21</ele><time>2025-05-26T23:08:16Z</time></trkpt>
<trkpt lat="51.224005" lon="4.683523"><ele>8.42</ele><time>2025-05-26T23:08:29Z</time></trkpt>
<trkpt lat="51.225504" lon="4.686873"><ele>7.18</ele><time>2025-05-26T23:08:42Z</time></trkpt>
<trkpt lat="51.22636" lon="4.688434"><ele>8.0</ele><time>2025-05-26T23:08:54Z</time></trkpt>
<trkpt lat="51.226544" lon="4.688849"><ele>7.92</ele><time>2025-05-26T23:09:07Z</time></trkpt>
<trkpt lat="51.226687" lon="4.689101"><ele>7.98</ele><time>2025-05-26T23:09:20Z</time></trkpt>
<trkpt lat="51.228034" lon="4.692319"><ele>11.07</ele><time>2025-05-26T23:09:32Z</time></trkpt>
<trkpt lat="51.228285" lon="4.692975"><ele>9.34</ele><time>2025-05-26T23:09:45Z</time></trkpt>
<trkpt lat="51.228527" lon="4.693676"><ele>8.38</ele><time>2025-05-26T23:09:58Z</time></trkpt>
<trkpt lat="51.229312" lon="4.69657"><ele>8.35</ele><time>2025-05-26T23:10:10Z</time></trkpt>
<trkpt lat="51.229731" lon="4.698041"><ele>10.0</ele><time>2025-05-26T23:10:23Z</time></trkpt>
<trkpt lat="51.230146" lon="4.699427"><ele>7.0</ele><time>2025-05-26T23:10:36Z</time></trkpt>
<trkpt lat="51.230039" lon="4.699523"><ele>7.0</ele><time>2025-05-26T23:10:40Z</time></trkpt>
<trkpt lat="51.228642" lon="4.699768"><ele>10.95</ele><time>2025-05-26T23:10:45Z</time></trkpt>
<trkpt lat="51.228572" lon="4.699817"><ele>10.43</ele><time>2025-05-26T23:10:50Z</time></trkpt>
<trkpt lat="51.228511" lon="4.699894"><ele>9.88</ele><time>2025-05-26T23:10:55Z</time></trkpt>
<trkpt lat="51.229784" lon="4.70057"><ele>8.79</ele><time>2025-05-26T23:11:00Z</time></trkpt>
<trkpt lat="51.230898" lon="4.701202"><ele>10.0</ele><time>2025-05-26T23:11:06Z</time></trkpt>
<trkpt lat="51.231257" lon="4.701445"><ele>9.38</ele><time>2025-05-26T23:11:11Z</time></trkpt>
<trkpt lat="51.233867" lon="4.703901"><ele>12.05</ele><time>2025-05-26T23:11:17Z</time></trkpt>
<trkpt lat="51.234082" lon="4.704067"><ele>11.5</ele><time>2025-05-26T23:11:22Z</time></trkpt>
<trkpt lat="51.234294" lon="4.704179"><ele>10.54</ele><time>2025-05-26T23:11:28Z</time></trkpt>
<trkpt lat="51.234784" lon="4.704387"><ele>8.98</ele><time>2025-05-26T23:11:33Z</time></trkpt>
<trkpt lat="51.235475" lon="4.704659"><ele>8.0</ele><time>2025-05-26T23:11:39Z</time></trkpt>
<trkpt lat="51.235456" lon="4.704897"><ele>7.37</ele><time>2025-05-26T23:11:56Z</time></trkpt>
<trkpt lat="51.236946" lon="4.707578"><ele>11.27</ele><time>2025-05-26T23:12:20Z</time></trkpt>
<trkpt lat="51.239541" lon="4.712322"><ele>16.35</ele><time>2025-05-26T23:12:44Z</time></trkpt>
<trkpt lat="51.23962" lon="4.712325"><ele>16.63</ele><time>2025-05-26T23:13:08Z</time></trkpt>
<trkpt lat="51.239636" lon="4.712625"><ele>16.24</ele><time>2025-05-26T23:13:26Z</time></trkpt>
<trkpt lat="51.240705" lon="4.716675"><ele>13.91</ele><time>2025-05-26T23:13:44Z</time></trkpt>
<trkpt lat="51.241387" lon="4.719349"><ele>16.66</ele><time>2025-05-26T23:14:02Z</time></trkpt>
<trkpt lat="51.241548" lon="4.719666"><ele>16.77</ele><time>2025-05-26T23:14:09Z</time></trkpt>
<trkpt lat="51.241708" lon="4.719925"><ele>15.78</ele><time>2025-05-26T23:14:16Z</time></trkpt>
<trkpt lat="51.242072" lon="4.720351"><ele>12.82</ele><time>2025-05-26T23:14:23Z</time></trkpt>
<trkpt lat="51.242434" lon="4.720581"><ele>11.0</ele><time>2025-05-26T23:14:29Z</time></trkpt>
<trkpt lat="51.242701" lon="4.720659"><ele>11.0</ele><time>2025-05-26T23:14:36Z</time></trkpt>
<trkpt lat="51.244436" lon="4.720693"><ele>13.03</ele><time>2025-05-26T23:14:43Z</time></trkpt>
<trkpt lat="51.24479" lon="4.720703"><ele>12.0</ele><time>2025-05-26T23:14:50Z</time></trkpt>
<trkpt lat="51.245106" lon="4.720742"><ele>11.36</ele><time>2025-05-26T23:14:56Z</time></trkpt>
<trkpt lat="51.245365" lon="4.720831"><ele>10.01</ele><time>2025-05-26T23:15:03Z</time></trkpt>
<trkpt lat="51.2456" lon="4.72095"><ele>9.74</ele><time>2025-05-26T23:15:10Z</time></trkpt>
<trkpt lat="51.247484" lon="4.722169"><ele>14.19</ele><time>2025-05-26T23:15:17Z</time></trkpt>
<trkpt lat="51.24882" lon="4.722915"><ele>9.75</ele><time>2025-05-26T23:15:23Z</time></trkpt>
<trkpt lat="51.248956" lon="4.72297"><ele>10.24</ele><time>2025-05-26T23:15:30Z</time></trkpt>
<trkpt lat="51.24923" lon="4.722967"><ele>11.46</ele><time>2025-05-26T23:15:37Z</time></trkpt>
<trkpt lat="51.2495" lon="4.722875"><ele>12.8</ele><time>2025-05-26T23:15:44Z</time></trkpt>
<trkpt lat="51.249619" lon="4.722857"><ele>12.37</ele><time>2025-05-26T23:15:50Z</time></trkpt>
<trkpt lat="51.251264" lon="4.723462"><ele>11.0</ele><time>2025-05-26T23:15:57Z</time></trkpt>
<trkpt lat="51.251821" lon="4.723815"><ele>12.0</ele><time>2025-05-26T23:16:04Z</time></trkpt>
<trkpt lat="51.252729" lon="4.724442"><ele>12.83</ele><time>2025-05-26T23:16:10Z</time></trkpt>
<trkpt lat="51.252937" lon="4.724536"><ele>12.86</ele><time>2025-05-26T23:16:17Z</time></trkpt>
<trkpt lat="51.25326" lon="4.726361"><ele>13.0</ele><time>2025-05-26T23:16:39Z</time></trkpt>
<trkpt lat="51.253594" lon="4.726608"><ele>13.0</ele><time>2025-05-26T23:16:43Z</time></trkpt>
<trkpt lat="51.253781" lon="4.726729"><ele>13.7</ele><time>2025-05-26T23:16:46Z</time></trkpt>
<trkpt lat="51.253883" lon="4.726767"><ele>13.99</ele><time>2025-05-26T23:16:49Z</time></trkpt>
<trkpt lat="51.253616" lon="4.727127"><ele>14.66</ele><time>2025-05-26T23:16:53Z</time></trkpt>
<trkpt lat="51.253533" lon="4.727269"><ele>15.0</ele><time>2025-05-26T23:16:56Z</time></trkpt>
<trkpt lat="51.253456" lon="4.727444"><ele>15.0</ele><time>2025-05-26T23:16:59Z</time></trkpt>
<trkpt lat="51.253455" lon="4.727831"><ele>15.92</ele><time>2025-05-26T23:17:08Z</time></trkpt>
<trkpt lat="51.253397" lon="4.728263"><ele>15.02</ele><time>2025-05-26T23:17:17Z</time></trkpt>
<trkpt lat="51.253143" lon="4.72953"><ele>13.31</ele><time>2025-05-26T23:17:26Z</time></trkpt>
<trkpt lat="51.253095" lon="4.729702"><ele>13.14</ele><time>2025-05-26T23:17:35Z</time></trkpt>
<trkpt lat="51.253021" lon="4.729889"><ele>12.35</ele><time>2025-05-26T23:17:44Z</time></trkpt>
<trkpt lat="51.252885" lon="4.730152"><ele>12.55</ele><time>2025-05-26T23:17:53Z</time></trkpt>
<trkpt lat="51.250849" lon="4.732707"><ele>14.72</ele><time>2025-05-26T23:18:02Z</time></trkpt>
<trkpt lat="51.250786" lon="4.732827"><ele>14.86</ele><time>2025-05-26T23:18:11Z</time></trkpt>
<trkpt lat="51.249938" lon="4.736395"><ele>20.77</ele><time>2025-05-26T23:18:20Z</time></trkpt>
<trkpt lat="51.248455" lon="4.741886"><ele>20.44</ele><time>2025-05-26T23:18:29Z</time></trkpt>
<trkpt lat="51.248435" lon="4.742066"><ele>19.93</ele><time>2025-05-26T23:18:38Z</time></trkpt>
<trkpt lat="51.248447" lon="4.742186"><ele>19.54</ele><time>2025-05-26T23:18:47Z</time></trkpt>
<trkpt lat="51.248602" lon="4.742571"><ele>19.98</ele><time>2025-05-26T23:18:56Z</time></trkpt>
<trkpt lat="51.248806" lon="4.743034"><ele>20.65</ele><time>2025-05-26T23:19:06Z</time></trkpt>
<trkpt lat="51.248902" lon="4.743164"><ele>21.44</ele><time>2025-05-26T23:19:15Z</time></trkpt>
<trkpt lat="51.249053" lon="4.743251"><ele>22.29</ele><time>2025-05-26T23:19:24Z</time></trkpt>
<trkpt lat="51.249129" lon="4.743338"><ele>22.86</ele><time>2025-05-26T23:19:33Z</time></trkpt>
<trkpt lat="51.249791" lon="4.744457"><ele>24.46</ele><time>2025-05-26T23:19:42Z</time></trkpt>
<trkpt lat="51.249841" lon="4.744486"><ele>24.0</ele><time>2025-05-26T23:19:51Z</time></trkpt>
<trkpt lat="51.250183" lon="4.744553"><ele>22.86</ele><time>2025-05-26T23:20:00Z</time></trkpt>
<trkpt lat="51.250288" lon="4.744605"><ele>23.03</ele><time>2025-05-26T23:20:09Z</time></trkpt>
<trkpt lat="51.250368" lon="4.744672"><ele>23.32</ele><time>2025-05-26T23:20:18Z</time></trkpt>
<trkpt lat="51.251449" lon="4.746248"><ele>23.23</ele><time>2025-05-26T23:20:27Z</time></trkpt>
<trkpt lat="51.251547" lon="4.746448"><ele>22.02</ele><time>2025-05-26T23:20:36Z</time></trkpt>
<trkpt lat="51.251692" lon="4.746944"><ele>19.91</ele><time>2025-05-26T23:20:45Z</time></trkpt>
<trkpt lat="51.252125" lon="4.748651"><ele>23.39</ele><time>2025-05-26T23:20:54Z</time></trkpt>
<trkpt lat="51.252908" lon="4.751407"><ele>22.43</ele><time>2025-05-26T23:21:03Z</time></trkpt>
<trkpt lat="51.252922" lon="4.751542"><ele>21.64</ele><time>2025-05-26T23:21:12Z</time></trkpt>
<trkpt lat="51.25291" lon="4.751668"><ele>21.04</ele><time>2025-05-26T23:21:21Z</time></trkpt>
<trkpt lat="51.25219" lon="4.754289"><ele>15.05</ele><time>2025-05-26T23:21:30Z</time></trkpt>
<trkpt lat="51.252184" lon="4.754391"><ele>14.35</ele><time>2025-05-26T23:21:39Z</time></trkpt>
<trkpt lat="51.252196" lon="4.754504"><ele>14.21</ele><time>2025-05-26T23:21:49Z</time></trkpt>
<trkpt lat="51.257681" lon="4.766691"><ele>17.35</ele><time>2025-05-26T23:21:58Z</time></trkpt>
<trkpt lat="51.257858" lon="4.76696"><ele>16.98</ele><time>2025-05-26T23:22:07Z</time></trkpt>
<trkpt lat="51.258038" lon="4.76715"><ele>16.31</ele><time>2025-05-26T23:22:16Z</time></trkpt>
<trkpt lat="51.260848" lon="4.769507"><ele>17.87</ele><time>2025-05-26T23:22:25Z</time></trkpt>
<trkpt lat="51.262055" lon="4.770135"><ele>19.91</ele><time>2025-05-26T23:22:34Z</time></trkpt>
<trkpt lat="51.263185" lon="4.771032"><ele>23.06</ele><time>2025-05-26T23:22:43Z</time></trkpt>
<trkpt lat="51.263721" lon="4.771641"><ele>24.74</ele><time>2025-05-26T23:22:52Z</time></trkpt>
<trkpt lat="51.265251" lon="4.773199"><ele>20.42</ele><time>2025-05-26T23:23:01Z</time></trkpt>
<trkpt lat="51.265349" lon="4.773359"><ele>21.25</ele><time>2025-05-26T23:23:10Z</time></trkpt>
<trkpt lat="51.265422" lon="4.773573"><ele>21.52</ele><time>2025-05-26T23:23:19Z</time></trkpt>
<trkpt lat="51.265527" lon="4.773802"><ele>21.21</ele><time>2025-05-26T23:23:28Z</time></trkpt>
<trkpt lat="51.265645" lon="4.773931"><ele>21.17</ele><time>2025-05-26T23:23:37Z</time></trkpt>
<trkpt lat="51.266044" lon="4.774115"><ele>19.53</ele><time>2025-05-26T23:23:46Z</time></trkpt>
<trkpt lat="51.2664" lon="4.774321"><ele>16.53</ele><time>2025-05-26T23:23:55Z</time></trkpt>
<trkpt lat="51.267599" lon="4.77517"><ele>20.75</ele><time>2025-05-26T23:24:04Z</time></trkpt>
<trkpt lat="51.26774" lon="4.775235"><ele>21.02</ele><time>2025-05-26T23:24:13Z</time></trkpt>
<trkpt lat="51.267881" lon="4.775262"><ele>20.69</ele><time>2025-05-26T23:24:23Z</time></trkpt>
<trkpt lat="51.26806" lon="4.775218"><ele>20.2</ele><time>2025-05-26T23:24:32Z</time></trkpt>
<trkpt lat="51.268777" lon="4.774952"><ele>20.85</ele><time>2025-05-26T23:24:41Z</time></trkpt>
<trkpt lat="51.26959" lon="4.774829"><ele>23.14</ele><time>2025-05-26T23:24:50Z</time></trkpt>
<trkpt lat="51.269729" lon="4.774879"><ele>23.46</ele><time>2025-05-26T23:24:59Z</time></trkpt>
<trkpt lat="51.270054" lon="4.775192"><ele>23.17</ele><time>2025-05-26T23:25:08Z</time></trkpt>
<trkpt lat="51.270211" lon="4.7753"><ele>22.1</ele><time>2025-05-26T23:25:17Z</time></trkpt>
<trkpt lat="51.270948" lon="4.775583"><ele>21.17</ele><time>2025-05-26T23:25:26Z</time></trkpt>
<trkpt lat="51.271049" lon="4.775651"><ele>20.83</ele><time>2025-05-26T23:25:35Z</time></trkpt>
<trkpt lat="51.268425" lon="4.779354"><ele>13.55</ele><time>2025-05-26T23:25:50Z</time></trkpt>
<trkpt lat="51.266655" lon="4.781839"><ele>16.0</ele><time>2025-05-26T23:26:06Z</time></trkpt>
<trkpt lat="51.265353" lon="4.783332"><ele>16.73</ele><time>2025-05-26T23:26:21Z</time></trkpt>
<trkpt lat="51.264405" lon="4.78437"><ele>18.73</ele><time>2025-05-26T23:26:36Z</time></trkpt>
<trkpt lat="51.264194" lon="4.784641"><ele>19.0</ele><time>2025-05-26T23:26:51Z</time></trkpt>
<trkpt lat="51.263716" lon="4.785402"><ele>16.28</ele><time>2025-05-26T23:27:07Z</time></trkpt>
<trkpt lat="51.263637" lon="4.785548"><ele>16.88</ele><time>2025-05-26T23:27:22Z</time></trkpt>
<trkpt lat="51.263202" lon="4.786572"><ele>18.82</ele><time>2025-05-26T23:27:37Z</time></trkpt>
<trkpt lat="51.262965" lon="4.787086"><ele>18.84</ele><time>2025-05-26T23:27:53Z</time></trkpt>
<trkpt lat="51.262459" lon="4.787969"><ele>17.0</ele><time>2025-05-26T23:28:08Z</time></trkpt>
<trkpt lat="51.262314" lon="4.788302"><ele>17.0</ele><time>2025-05-26T23:28:23Z</time></trkpt>
<trkpt lat="51.262211" lon="4.788667"><ele>17.2</ele><time>2025-05-26T23:28:38Z</time></trkpt>
<trkpt lat="51.262143" lon="4.788993"><ele>18.0</ele><time>2025-05-26T23:28:54Z</time></trkpt>
<trkpt lat="51.261656" lon="4.790958"><ele>17.0</ele><time>2025-05-26T23:29:09Z</time></trkpt>
<trkpt lat="51.257672" lon="4.801086"><ele>17.34</ele><time>2025-05-26T23:29:24Z</time></trkpt>
<trkpt lat="51.256527" lon="4.803974"><ele>17.49</ele><time>2025-05-26T23:29:39Z</time></trkpt>
<trkpt lat="51.256009" lon="4.805286"><ele>18.36</ele><time>2025-05-26T23:29:55Z</time></trkpt>
<trkpt lat="51.255371" lon="4.806902"><ele>18.67</ele><time>2025-05-26T23:30:10Z</time></trkpt>
<trkpt lat="51.255124" lon="4.807591"><ele>18.03</ele><time>2025-05-26T23:30:25Z</time></trkpt>
<trkpt lat="51.255063" lon="4.807643"><ele>17.57</ele><time>2025-05-26T23:30:31Z</time></trkpt>
<trkpt lat="51.255052" lon="4.807753"><ele>17.55</ele><time>2025-05-26T23:30:37Z</time></trkpt>
<trkpt lat="51.2541" lon="4.810105"><ele>16.86</ele><time>2025-05-26T23:30:43Z</time></trkpt>
<trkpt lat="51.253207" lon="4.812393"><ele>15.34</ele><time>2025-05-26T23:30:49Z</time></trkpt>
<trkpt lat="51.252395" lon="4.814782"><ele>16.49</ele><time>2025-05-26T23:30:55Z</time></trkpt>
<trkpt lat="51.252163" lon="4.815304"><ele>16.02</ele><time>2025-05-26T23:31:01Z</time></trkpt>
<trkpt lat="51.251977" lon="4.815606"><ele>16.88</ele><time>2025-05-26T23:31:07Z</time></trkpt>
<trkpt lat="51.253008" lon="4.816691"><ele>16.0</ele><time>2025-05-26T23:31:18Z</time></trkpt>
<trkpt lat="51.2532" lon="4.816796"><ele>16.0</ele><time>2025-05-26T23:31:28Z</time></trkpt>
<trkpt lat="51.253974" lon="4.817111"><ele>13.97</ele><time>2025-05-26T23:31:38Z</time></trkpt>
<trkpt lat="51.254624" lon="4.817483"><ele>14.29</ele><time>2025-05-26T23:31:49Z</time></trkpt>
<trkpt lat="51.255095" lon="4.817791"><ele>14.68</ele><time>2025-05-26T23:31:59Z</time></trkpt>
<trkpt lat="51.256378" lon="4.819186"><ele>16.11</ele><time>2025-05-26T23:32:09Z</time></trkpt>
<trkpt lat="51.256862" lon="4.819567"><ele>16.0</ele><time>2025-05-26T23:32:20Z</time></trkpt>
<trkpt lat="51.257123" lon="4.819747"><ele>16.06</ele><time>2025-05-26T23:32:30Z</time></trkpt>
<trkpt lat="51.25732" lon="4.819799"><ele>16.27</ele><time>2025-05-26T23:32:40Z</time></trkpt>
<trkpt lat="51.259016" lon="4.819772"><ele>15.18</ele><time>2025-05-26T23:32:51Z</time></trkpt>
<trkpt lat="51.259187" lon="4.819919"><ele>15.73</ele><time>2025-05-26T23:33:01Z</time></trkpt>
<trkpt lat="51.260424" lon="4.821247"><ele>17.72</ele><time>2025-05-26T23:33:10Z</time></trkpt>
<trkpt lat="51.260653" lon="4.821442"><ele>17.33</ele><time>2025-05-26T23:33:20Z</time></trkpt>
<trkpt lat="51.260932" lon="4.821618"><ele>15.71</ele><time>2025-05-26T23:33:30Z</time></trkpt>
<trkpt lat="51.261968" lon="4.822126"><ele>16.68</ele><time>2025-05-26T23:33:39Z</time></trkpt>
<trkpt lat="51.262463" lon="4.822393"><ele>19.51</ele><time>2025-05-26T23:33:49Z</time></trkpt>
<trkpt lat="51.262716" lon="4.822463"><ele>20.75</ele><time>2025-05-26T23:33:59Z</time></trkpt>
<trkpt lat="51.26311" lon="4.822474"><ele>22.59</ele><time>2025-05-26T23:34:09Z</time></trkpt>
<trkpt lat="51.266243" lon="4.822341"><ele>20.43</ele><time>2025-05-26T23:34:18Z</time></trkpt>
<trkpt lat="51.266369" lon="4.822423"><ele>20.72</ele><time>2025-05-26T23:34:28Z</time></trkpt>
<trkpt lat="51.266988" lon="4.823492"><ele>19.33</ele><time>2025-05-26T23:34:38Z</time></trkpt>
<trkpt lat="51.268172" lon="4.825444"><ele>18.17</ele><time>2025-05-26T23:34:47Z</time></trkpt>
<trkpt lat="51.269397" lon="4.827526"><ele>17.58</ele><time>2025-05-26T23:34:57Z</time></trkpt>
<trkpt lat="51.269499" lon="4.827839"><ele>17.2</ele><time>2025-05-26T23:35:07Z</time></trkpt>
<trkpt lat="51.269518" lon="4.828027"><ele>17.26</ele><time>2025-05-26T23:35:16Z</time></trkpt>
<trkpt lat="51.269521" lon="4.828314"><ele>17.02</ele><time>2025-05-26T23:35:26Z</time></trkpt>
<trkpt lat="51.269327" lon="4.83054"><ele>15.05</ele><time>2025-05-26T23:35:36Z</time></trkpt>
<trkpt lat="51.269278" lon="4.830849"><ele>14.97</ele><time>2025-05-26T23:35:46Z</time></trkpt>
<trkpt lat="51.269225" lon="4.831011"><ele>14.49</ele><time>2025-05-26T23:35:55Z</time></trkpt>
<trkpt lat="51.269088" lon="4.831323"><ele>14.0</ele><time>2025-05-26T23:36:05Z</time></trkpt>
<trkpt lat="51.269072" lon="4.83144"><ele>14.18</ele><time>2025-05-26T23:36:15Z</time></trkpt>
<trkpt lat="51.269084" lon="4.831549"><ele>14.57</ele><time>2025-05-26T23:36:24Z</time></trkpt>
<trkpt lat="51.26913" lon="4.831623"><ele>14.84</ele><time>2025-05-26T23:36:34Z</time></trkpt>
<trkpt lat="51.26927" lon="4.83175"><ele>15.0</ele><time>2025-05-26T23:36:44Z</time></trkpt>
<trkpt lat="51.269398" lon="4.831167"><ele>14.83</ele><time>2025-05-26T23:36:55Z</time></trkpt>
<trkpt lat="51.269485" lon="4.830877"><ele>15.12</ele><time>2025-05-26T23:37:07Z</time></trkpt>
<trkpt lat="51.269649" lon="4.830433"><ele>16.18</ele><time>2025-05-26T23:37:18Z</time></trkpt>
<trkpt lat="51.269955" lon="4.82983"><ele>16.16</ele><time>2025-05-26T23:37:29Z</time></trkpt>
<trkpt lat="51.270303" lon="4.829292"><ele>16.59</ele><time>2025-05-26T23:37:40Z</time></trkpt>
<trkpt lat="51.272414" lon="4.826119"><ele>23.61</ele><time>2025-05-26T23:37:52Z</time></trkpt>
<trkpt lat="51.273853" lon="4.826873"><ele>26.26</ele><time>2025-05-26T23:38:14Z</time></trkpt>
<trkpt lat="51.27548" lon="4.828099"><ele>21.66</ele><time>2025-05-26T23:38:36Z</time></trkpt>
<trkpt lat="51.276127" lon="4.828543"><ele>22.36</ele><time>2025-05-26T23:38:58Z</time></trkpt>
<trkpt lat="51.276494" lon="4.828792"><ele>24.11</ele><time>2025-05-26T23:39:20Z</time></trkpt>
<trkpt lat="51.277515" lon="4.829378"><ele>25.55</ele><time>2025-05-26T23:39:42Z</time></trkpt>
<trkpt lat="51.277968" lon="4.829802"><ele>27.79</ele><time>2025-05-26T23:40:04Z</time></trkpt>
<trkpt lat="51.278075" lon="4.82993"><ele>28.67</ele><time>2025-05-26T23:40:26Z</time></trkpt>
<trkpt lat="51.27887" lon="4.830723"><ele>28.0</ele><time>2025-05-26T23:40:48Z</time></trkpt>
<trkpt lat="51.279288" lon="4.831034"><ele>27.28</ele><time>2025-05-26T23:41:10Z</time></trkpt>
<trkpt lat="51.279374" lon="4.831118"><ele>26.99</ele><time>2025-05-26T23:41:32Z</time></trkpt>
<trkpt lat="51.27956" lon="4.831377"><ele>27.0</ele><time>2025-05-26T23:41:54Z</time></trkpt>
<trkpt lat="51.279709" lon="4.831638"><ele>26.1</ele><time>2025-05-26T23:42:16Z</time></trkpt>
<trkpt lat="51.27979" lon="4.831745"><ele>25.76</ele><time>2025-05-26T23:42:38Z</time></trkpt>
<trkpt lat="51.28012" lon="4.831994"><ele>24.31</ele><time>2025-05-26T23:42:59Z</time></trkpt>
<trkpt lat="51.280649" lon="4.832318"><ele>23.01</ele><time>2025-05-26T23:43:21Z</time></trkpt>
<trkpt lat="51.280872" lon="4.832394"><ele>22.42</ele><time>2025-05-26T23:43:43Z</time></trkpt>
<trkpt lat="51.281537" lon="4.832527"><ele>20.7</ele><time>2025-05-26T23:44:05Z</time></trkpt>
<trkpt lat="51.28236" lon="4.832726"><ele>24.41</ele><time>2025-05-26T23:44:27Z</time></trkpt>
<trkpt lat="51.282506" lon="4.832984"><ele>23.98</ele><time>2025-05-26T23:44:35Z</time></trkpt>
<trkpt lat="51.282654" lon="4.83337"><ele>24.52</ele><time>2025-05-26T23:44:42Z</time></trkpt>
<trkpt lat="51.283289" lon="4.834741"><ele>27.23</ele><time>2025-05-26T23:44:49Z</time></trkpt>
<trkpt lat="51.2833" lon="4.834854"><ele>27.59</ele><time>2025-05-26T23:44:56Z</time></trkpt>
<trkpt lat="51.283171" lon="4.835392"><ele>26.76</ele><time>2025-05-26T23:45:03Z</time></trkpt>
<trkpt lat="51.282748" lon="4.836908"><ele>21.11</ele><time>2025-05-26T23:45:11Z</time></trkpt>
<trkpt lat="51.282685" lon="4.837086"><ele>21.04</ele><time>2025-05-26T23:45:18Z</time></trkpt>
<trkpt lat="51.282685" lon="4.837086"><ele>21.04</ele><time>2025-05-26T23:45:18Z</time></trkpt>
<trkpt lat="51.282748" lon="4.836908"><ele>21.11</ele><time>2025-05-26T23:45:25Z</time></trkpt>
<trkpt lat="51.283171" lon="4.835392"><ele>26.76</ele><time>2025-05-26T23:45:32Z</time></trkpt>
<trkpt lat="51.2833" lon="4.834854"><ele>27.59</ele><time>2025-05-26T23:45:39Z</time></trkpt>
<trkpt lat="51.283289" lon="4.834741"><ele>27.23</ele><time>2025-05-26T23:45:46Z</time></trkpt>
<trkpt lat="51.282654" lon="4.83337"><ele>24.52</ele><time>2025-05-26T23:45:54Z</time></trkpt>
<trkpt lat="51.282506" lon="4.832984"><ele>23.98</ele><time>2025-05-26T23:46:01Z</time></trkpt>
<trkpt lat="51.28236" lon="4.832726"><ele>24.41</ele><time>2025-05-26T23:46:08Z</time></trkpt>
<trkpt lat="51.282403" lon="4.832579"><ele>24.32</ele><time>2025-05-26T23:46:24Z</time></trkpt>
<trkpt lat="51.28334" lon="4.830956"><ele>21.42</ele><time>2025-05-26T23:46:40Z</time></trkpt>
<trkpt lat="51.283386" lon="4.830847"><ele>20.86</ele><time>2025-05-26T23:46:56Z</time></trkpt>
<trkpt lat="51.283357" lon="4.830646"><ele>20.3</ele><time>2025-05-26T23:47:16Z</time></trkpt>
<trkpt lat="51.282922" lon="4.828858"><ele>21.11</ele><time>2025-05-26T23:47:37Z</time></trkpt>
<trkpt lat="51.283456" lon="4.827413"><ele>22.61</ele><time>2025-05-26T23:47:52Z</time></trkpt>
<trkpt lat="51.283608" lon="4.826699"><ele>24.9</ele><time>2025-05-26T23:48:07Z</time></trkpt>
<trkpt lat="51.284125" lon="4.824661"><ele>19.0</ele><time>2025-05-26T23:48:22Z</time></trkpt>
<trkpt lat="51.284615" lon="4.823286"><ele>22.5</ele><time>2025-05-26T23:48:37Z</time></trkpt>
<trkpt lat="51.284899" lon="4.821992"><ele>26.09</ele><time>2025-05-26T23:48:52Z</time></trkpt>
<trkpt lat="51.28515" lon="4.820724"><ele>23.65</ele><time>2025-05-26T23:49:07Z</time></trkpt>
<trkpt lat="51.285988" lon="4.81645"><ele>21.89</ele><time>2025-05-26T23:49:22Z</time></trkpt>
<trkpt lat="51.286236" lon="4.81509"><ele>23.67</ele><time>2025-05-26T23:49:37Z</time></trkpt>
<trkpt lat="51.286276" lon="4.814943"><ele>24.32</ele><time>2025-05-26T23:49:52Z</time></trkpt>
<trkpt lat="51.287291" lon="4.812762"><ele>27.14</ele><time>2025-05-26T23:50:07Z</time></trkpt>
<trkpt lat="51.287819" lon="4.811771"><ele>23.61</ele><time>2025-05-26T23:50:22Z</time></trkpt>
<trkpt lat="51.288343" lon="4.8103"><ele>23.85</ele><time>2025-05-26T23:50:37Z</time></trkpt>
<trkpt lat="51.28844" lon="4.809547"><ele>24.86</ele><time>2025-05-26T23:50:52Z</time></trkpt>
<trkpt lat="51.28915" lon="4.803383"><ele>19.06</ele><time>2025-05-26T23:51:07Z</time></trkpt>
<trkpt lat="51.289164" lon="4.803128"><ele>18.25</ele><time>2025-05-26T23:51:22Z</time></trkpt>
<trkpt lat="51.289171" lon="4.801872"><ele>19.27</ele><time>2025-05-26T23:51:37Z</time></trkpt>
<trkpt lat="51.289137" lon="4.801379"><ele>19.78</ele><time>2025-05-26T23:51:52Z</time></trkpt>
<trkpt lat="51.288851" lon="4.798685"><ele>18.0</ele><time>2025-05-26T23:52:07Z</time></trkpt>
<trkpt lat="51.288772" lon="4.797941"><ele>17.0</ele><time>2025-05-26T23:52:22Z</time></trkpt>
<trkpt lat="51.288762" lon="4.797722"><ele>16.8</ele><time>2025-05-26T23:52:37Z</time></trkpt>
<trkpt lat="51.288842" lon="4.795758"><ele>19.88</ele><time>2025-05-26T23:52:52Z</time></trkpt>
<trkpt lat="51.288927" lon="4.795252"><ele>18.86</ele><time>2025-05-26T23:53:07Z</time></trkpt>
<trkpt lat="51.289408" lon="4.793359"><ele>18.79</ele><time>2025-05-26T23:53:22Z</time></trkpt>
<trkpt lat="51.289627" lon="4.792367"><ele>18.68</ele><time>2025-05-26T23:53:37Z</time></trkpt>
<trkpt lat="51.289718" lon="4.792123"><ele>17.66</ele><time>2025-05-26T23:53:52Z</time></trkpt>
<trkpt lat="51.290639" lon="4.790124"><ele>20.0</ele><time>2025-05-26T23:54:07Z</time></trkpt>
<trkpt lat="51.2907" lon="4.789879"><ele>20.0</ele><time>2025-05-26T23:54:22Z</time></trkpt>
<trkpt lat="51.290891" lon="4.78862"><ele>18.03</ele><time>2025-05-26T23:54:37Z</time></trkpt>
<trkpt lat="51.291051" lon="4.787707"><ele>18.06</ele><time>2025-05-26T23:54:52Z</time></trkpt>
<trkpt lat="51.291083" lon="4.787627"><ele>18.06</ele><time>2025-05-26T23:55:07Z</time></trkpt>
<trkpt lat="51.291143" lon="4.787542"><ele>17.98</ele><time>2025-05-26T23:55:22Z</time></trkpt>
<trkpt lat="51.291281" lon="4.787458"><ele>18.0</ele><time>2025-05-26T23:55:37Z</time></trkpt>
<trkpt lat="51.291394" lon="4.787468"><ele>18.02</ele><time>2025-05-26T23:55:52Z</time></trkpt>
<trkpt lat="51.292564" lon="4.788135"><ele>21.07</ele><time>2025-05-26T23:56:07Z</time></trkpt>
<trkpt lat="51.292665" lon="4.788149"><ele>21.2</ele><time>2025-05-26T23:56:22Z</time></trkpt>
<trkpt lat="51.293273" lon="4.78795"><ele>20.62</ele><time>2025-05-26T23:56:37Z</time></trkpt>
<trkpt lat="51.293428" lon="4.787849"><ele>20.17</ele><time>2025-05-26T23:56:52Z</time></trkpt>
<trkpt lat="51.293599" lon="4.787658"><ele>19.57</ele><time>2025-05-26T23:57:07Z</time></trkpt>
<trkpt lat="51.293986" lon="4.786955"><ele>19.34</ele><time>2025-05-26T23:57:22Z</time></trkpt>
<trkpt lat="51.294001" lon="4.786803"><ele>19.4</ele><time>2025-05-26T23:57:37Z</time></trkpt>
<trkpt lat="51.29396" lon="4.785897"><ele>18.48</ele><time>2025-05-26T23:57:52Z</time></trkpt>
<trkpt lat="51.29396" lon="4.785556"><ele>18.26</ele><time>2025-05-26T23:58:07Z</time></trkpt>
<trkpt lat="51.294027" lon="4.784541"><ele>19.82</ele><time>2025-05-26T23:58:22Z</time></trkpt>
<trkpt lat="51.294485" lon="4.781004"><ele>21.53</ele><time>2025-05-26T23:58:37Z</time></trkpt>
<trkpt lat="51.293403" lon="4.780738"><ele>20.0</ele><time>2025-05-26T23:58:52Z</time></trkpt>
<trkpt lat="51.293494" lon="4.7801"><ele>20.0</ele><time>2025-05-26T23:59:04Z</time></trkpt>
<trkpt lat="51.293595" lon="4.779542"><ele>20.0</ele><time>2025-05-26T23:59:17Z</time></trkpt>
<trkpt lat="51.293652" lon="4.779323"><ele>20.52</ele><time>2025-05-26T23:59:30Z</time></trkpt>
<trkpt lat="51.293918" lon="4.777725"><ele>21.21</ele><time>2025-05-26T23:59:43Z</time></trkpt>
<trkpt lat="51.294465" lon="4.777464"><ele>20.92</ele><time>2025-05-26T23:59:49Z</time></trkpt>
<trkpt lat="51.294624" lon="4.777422"><ele>20.35</ele><time>2025-05-26T23:59:55Z</time></trkpt>
<trkpt lat="51.29527" lon="4.777396"><ele>20.0</ele><time>2025-05-27T00:00:01Z</time></trkpt>
<trkpt lat="51.295307" lon="4.776642"><ele>21.09</ele><time>2025-05-27T00:00:08Z</time></trkpt>
<trkpt lat="51.295572" lon="4.775048"><ele>20.95</ele><time>2025-05-27T00:00:16Z</time></trkpt>
<trkpt lat="51.295738" lon="4.774136"><ele>19.42</ele><time>2025-05-27T00:00:23Z</time></trkpt>
<trkpt lat="51.296429" lon="4.771051"><ele>19.15</ele><time>2025-05-27T00:00:53Z</time></trkpt>
<trkpt lat="51.296714" lon="4.769812"><ele>22.51</ele><time>2025-05-27T00:01:23Z</time></trkpt>
<trkpt lat="51.298213" lon="4.757725"><ele>19.54</ele><time>2025-05-27T00:01:52Z</time></trkpt>
<trkpt lat="51.298304" lon="4.75572"><ele>21.0</ele><time>2025-05-27T00:02:22Z</time></trkpt>
<trkpt lat="51.298374" lon="4.755276"><ele>20.85</ele><time>2025-05-27T00:02:52Z</time></trkpt>
<trkpt lat="51.299639" lon="4.750543"><ele>22.37</ele><time>2025-05-27T00:03:22Z</time></trkpt>
<trkpt lat="51.29964" lon="4.750543"><ele>23.25</ele><time>2025-05-27T00:03:22Z</time></trkpt>
<trkpt lat="51.29964" lon="4.750543"><ele>23.25</ele><time>2025-05-27T00:03:22Z</time></trkpt>
<trkpt lat="51.30135" lon="4.751143"><ele>24.14</ele><time>2025-05-27T00:03:34Z</time></trkpt>
<trkpt lat="51.301472" lon="4.75113"><ele>24.0</ele><time>2025-05-27T00:03:47Z</time></trkpt>
<trkpt lat="51.301423" lon="4.74659"><ele>23.09</ele><time>2025-05-27T00:04:08Z</time></trkpt>
<trkpt lat="51.301401" lon="4.74389"><ele>22.0</ele><time>2025-05-27T00:04:30Z</time></trkpt>
<trkpt lat="51.301353" lon="4.740655"><ele>22.13</ele><time>2025-05-27T00:04:52Z</time></trkpt>
<trkpt lat="51.301311" lon="4.735245"><ele>23.72</ele><time>2025-05-27T00:05:14Z</time></trkpt>
<trkpt lat="51.301275" lon="4.734704"><ele>23.59</ele><time>2025-05-27T00:05:36Z</time></trkpt>
<trkpt lat="51.301208" lon="4.734185"><ele>23.35</ele><time>2025-05-27T00:05:58Z</time></trkpt>
<trkpt lat="51.301261" lon="4.733934"><ele>23.54</ele><time>2025-05-27T00:06:00Z</time></trkpt>
<trkpt lat="51.301372" lon="4.733813"><ele>23.7</ele><time>2025-05-27T00:06:02Z</time></trkpt>
<trkpt lat="51.301691" lon="4.733976"><ele>22.91</ele><time>2025-05-27T00:06:18Z</time></trkpt>
<trkpt lat="51.301945" lon="4.734143"><ele>22.0</ele><time>2025-05-27T00:06:34Z</time></trkpt>
<trkpt lat="51.302254" lon="4.734427"><ele>22.0</ele><time>2025-05-27T00:06:50Z</time></trkpt>
<trkpt lat="51.302894" lon="4.734998"><ele>22.0</ele><time>2025-05-27T00:07:06Z</time></trkpt>
<trkpt lat="51.304243" lon="4.736281"><ele>24.0</ele><time>2025-05-27T00:07:22Z</time></trkpt>
<trkpt lat="51.304669" lon="4.736597"><ele>23.65</ele><time>2025-05-27T00:07:38Z</time></trkpt>
<trkpt lat="51.304865" lon="4.736705"><ele>24.0</ele><time>2025-05-27T00:07:54Z</time></trkpt>
<trkpt lat="51.305141" lon="4.736804"><ele>24.0</ele><time>2025-05-27T00:08:10Z</time></trkpt>
<trkpt lat="51.306068" lon="4.736879"><ele>23.84</ele><time>2025-05-27T00:08:26Z</time></trkpt>
<trkpt lat="51.307763" lon="4.736968"><ele>23.95</ele><time>2025-05-27T00:08:42Z</time></trkpt>
<trkpt lat="51.310806" lon="4.737078"><ele>24.52</ele><time>2025-05-27T00:08:58Z</time></trkpt>
<trkpt lat="51.311142" lon="4.737099"><ele>25.33</ele><time>2025-05-27T00:09:14Z</time></trkpt>
<trkpt lat="51.311335" lon="4.737135"><ele>24.51</ele><time>2025-05-27T00:09:31Z</time></trkpt>
<trkpt lat="51.316698" lon="4.738582"><ele>22.89</ele><time>2025-05-27T00:09:47Z</time></trkpt>
<trkpt lat="51.321145" lon="4.739809"><ele>24.16</ele><time>2025-05-27T00:10:03Z</time></trkpt>
<trkpt lat="51.321145" lon="4.739809"><ele>24.16</ele><time>2025-05-27T00:10:03Z</time></trkpt>
<trkpt lat="51.323615" lon="4.727636"><ele>26.01</ele><time>2025-05-27T00:11:33Z</time></trkpt>
<trkpt lat="51.324198" lon="4.724877"><ele>27.39</ele><time>2025-05-27T00:13:03Z</time></trkpt>
<trkpt lat="51.323388" lon="4.72425"><ele>26.76</ele><time>2025-05-27T00:13:16Z</time></trkpt>
<trkpt lat="51.321528" lon="4.722739"><ele>25.5</ele><time>2025-05-27T00:13:28Z</time></trkpt>
<trkpt lat="51.321432" lon="4.722633"><ele>25.16</ele><time>2025-05-27T00:13:41Z</time></trkpt>
<trkpt lat="51.320335" lon="4.720307"><ele>26.92</ele><time>2025-05-27T00:13:53Z</time></trkpt>
<trkpt lat="51.318065" lon="4.715366"><ele>25.02</ele><time>2025-05-27T00:14:06Z</time></trkpt>
<trkpt lat="51.318042" lon="4.715247"><ele>24.95</ele><time>2025-05-27T00:14:18Z</time></trkpt>
<trkpt lat="51.317946" lon="4.714258"><ele>25.6</ele><time>2025-05-27T00:14:31Z</time></trkpt>
<trkpt lat="51.317912" lon="4.714185"><ele>25.48</ele><time>2025-05-27T00:14:43Z</time></trkpt>
<trkpt lat="51.317734" lon="4.713953"><ele>25.0</ele><time>2025-05-27T00:14:56Z</time></trkpt>
<trkpt lat="51.320083" lon="4.711253"><ele>25.04</ele><time>2025-05-27T00:15:10Z</time></trkpt>
<trkpt lat="51.319996" lon="4.711127"><ele>25.95</ele><time>2025-05-27T00:15:32Z</time></trkpt>
<trkpt lat="51.316642" lon="4.708337"><ele>25.99</ele><time>2025-05-27T00:15:53Z</time></trkpt>
<trkpt lat="51.316345" lon="4.708045"><ele>27.0</ele><time>2025-05-27T00:16:14Z</time></trkpt>
<trkpt lat="51.316891" lon="4.704402"><ele>29.34</ele><time>2025-05-27T00:16:49Z</time></trkpt>
<trkpt lat="51.31691" lon="4.704195"><ele>30.02</ele><time>2025-05-27T00:17:23Z</time></trkpt>
<trkpt lat="51.316903" lon="4.703959"><ele>30.15</ele><time>2025-05-27T00:17:57Z</time></trkpt>
<trkpt lat="51.316771" lon="4.702897"><ele>33.71</ele><time>2025-05-27T00:18:31Z</time></trkpt>
<trkpt lat="51.316664" lon="4.702247"><ele>35.0</ele><time>2025-05-27T00:19:05Z</time></trkpt>
<trkpt lat="51.316664" lon="4.702247"><ele>35.0</ele><time>2025-05-27T00:19:05Z</time></trkpt>
<trkpt lat="51.317359" lon="4.701897"><ele>28.27</ele><time>2025-05-27T00:19:20Z</time></trkpt>
<trkpt lat="51.319063" lon="4.700985"><ele>26.0</ele><time>2025-05-27T00:19:34Z</time></trkpt>
<trkpt lat="51.319162" lon="4.700917"><ele>26.0</ele><time>2025-05-27T00:19:48Z</time></trkpt>
<trkpt lat="51.319258" lon="4.700752"><ele>26.33</ele><time>2025-05-27T00:20:03Z</time></trkpt>
<trkpt lat="51.32122" lon="4.696331"><ele>27.61</ele><time>2025-05-27T00:20:17Z</time></trkpt>
<trkpt lat="51.32132" lon="4.696249"><ele>27.25</ele><time>2025-05-27T00:20:31Z</time></trkpt>
<trkpt lat="51.321559" lon="4.696139"><ele>26.39</ele><time>2025-05-27T00:20:46Z</time></trkpt>
<trkpt lat="51.323378" lon="4.695006"><ele>26.84</ele><time>2025-05-27T00:21:00Z</time></trkpt>
<trkpt lat="51.323446" lon="4.695004"><ele>26.59</ele><time>2025-05-27T00:21:14Z</time></trkpt>
<trkpt lat="51.322673" lon="4.686159"><ele>25.31</ele><time>2025-05-27T00:21:26Z</time></trkpt>
<trkpt lat="51.322681" lon="4.686025"><ele>25.55</ele><time>2025-05-27T00:21:39Z</time></trkpt>
<trkpt lat="51.322715" lon="4.685888"><ele>25.85</ele><time>2025-05-27T00:21:51Z</time></trkpt>
<trkpt lat="51.324272" lon="4.681527"><ele>25.5</ele><time>2025-05-27T00:22:03Z</time></trkpt>
<trkpt lat="51.324365" lon="4.681191"><ele>26.0</ele><time>2025-05-27T00:22:15Z</time></trkpt>
<trkpt lat="51.324613" lon="4.679872"><ele>26.79</ele><time>2025-05-27T00:22:28Z</time></trkpt>
<trkpt lat="51.324649" lon="4.679781"><ele>26.94</ele><time>2025-05-27T00:22:40Z</time></trkpt>
<trkpt lat="51.324912" lon="4.679315"><ele>27.15</ele><time>2025-05-27T00:22:52Z</time></trkpt>
<trkpt lat="51.324934" lon="4.679184"><ele>27.22</ele><time>2025-05-27T00:23:04Z</time></trkpt>
<trkpt lat="51.324922" lon="4.67902"><ele>27.28</ele><time>2025-05-27T00:23:17Z</time></trkpt>
<trkpt lat="51.325172" lon="4.678659"><ele>27.0</ele><time>2025-05-27T00:23:23Z</time></trkpt>
<trkpt lat="51.325753" lon="4.677722"><ele>27.43</ele><time>2025-05-27T00:23:30Z</time></trkpt>
<trkpt lat="51.325993" lon="4.677453"><ele>28.0</ele><time>2025-05-27T00:23:36Z</time></trkpt>
<trkpt lat="51.326603" lon="4.677097"><ele>27.55</ele><time>2025-05-27T00:23:43Z</time></trkpt>
<trkpt lat="51.329822" lon="4.675382"><ele>27.26</ele><time>2025-05-27T00:23:49Z</time></trkpt>
<trkpt lat="51.33127" lon="4.67458"><ele>25.0</ele><time>2025-05-27T00:23:56Z</time></trkpt>
<trkpt lat="51.331528" lon="4.674444"><ele>25.0</ele><time>2025-05-27T00:24:03Z</time></trkpt>
<trkpt lat="51.332017" lon="4.67429"><ele>25.15</ele><time>2025-05-27T00:24:09Z</time></trkpt>
<trkpt lat="51.332625" lon="4.674182"><ele>25.58</ele><time>2025-05-27T00:24:16Z</time></trkpt>
<trkpt lat="51.33318" lon="4.674217"><ele>25.0</ele><time>2025-05-27T00:24:22Z</time></trkpt>
<trkpt lat="51.333687" lon="4.674411"><ele>25.7</ele><time>2025-05-27T00:24:29Z</time></trkpt>
<trkpt lat="51.334185" lon="4.674645"><ele>27.19</ele><time>2025-05-27T00:24:35Z</time></trkpt>
<trkpt lat="51.33524" lon="4.675195"><ele>24.96</ele><time>2025-05-27T00:24:42Z</time></trkpt>
<trkpt lat="51.336224" lon="4.675657"><ele>21.19</ele><time>2025-05-27T00:24:48Z</time></trkpt>
<trkpt lat="51.336863" lon="4.675936"><ele>20.78</ele><time>2025-05-27T00:24:55Z</time></trkpt>
<trkpt lat="51.337303" lon="4.676001"><ele>22.11</ele><time>2025-05-27T00:25:02Z</time></trkpt>
<trkpt lat="51.338" lon="4.676057"><ele>23.19</ele><time>2025-05-27T00:25:08Z</time></trkpt>
<trkpt lat="51.338151" lon="4.676151"><ele>23.0</ele><time>2025-05-27T00:25:15Z</time></trkpt>
<trkpt lat="51.338267" lon="4.676306"><ele>23.0</ele><time>2025-05-27T00:25:21Z</time></trkpt>
<trkpt lat="51.338338" lon="4.676452"><ele>22.79</ele><time>2025-05-27T00:25:28Z</time></trkpt>
<trkpt lat="51.338446" lon="4.676305"><ele>23.4</ele><time>2025-05-27T00:25:41Z</time></trkpt>
<trkpt lat="51.338694" lon="4.676032"><ele>24.01</ele><time>2025-05-27T00:25:54Z</time></trkpt>
<trkpt lat="51.33921" lon="4.675569"><ele>25.0</ele><time>2025-05-27T00:26:08Z</time></trkpt>
<trkpt lat="51.343494" lon="4.672932"><ele>27.84</ele><time>2025-05-27T00:26:21Z</time></trkpt>
<trkpt lat="51.343982" lon="4.672643"><ele>28.85</ele><time>2025-05-27T00:26:34Z</time></trkpt>
<trkpt lat="51.346832" lon="4.670896"><ele>21.37</ele><time>2025-05-27T00:26:47Z</time></trkpt>
<trkpt lat="51.347181" lon="4.670661"><ele>22.94</ele><time>2025-05-27T00:27:01Z</time></trkpt>
<trkpt lat="51.347644" lon="4.670189"><ele>22.36</ele><time>2025-05-27T00:27:14Z</time></trkpt>
<trkpt lat="51.347727" lon="4.670174"><ele>22.75</ele><time>2025-05-27T00:27:18Z</time></trkpt>
<trkpt lat="51.347786" lon="4.670091"><ele>23.0</ele><time>2025-05-27T00:27:22Z</time></trkpt>
<trkpt lat="51.347806" lon="4.66999"><ele>22.97</ele><time>2025-05-27T00:27:27Z</time></trkpt>
<trkpt lat="51.347798" lon="4.669901"><ele>22.64</ele><time>2025-05-27T00:27:31Z</time></trkpt>
<trkpt lat="51.347835" lon="4.669717"><ele>22.0</ele><time>2025-05-27T00:27:35Z</time></trkpt>
<trkpt lat="51.347924" lon="4.669411"><ele>22.0</ele><time>2025-05-27T00:27:39Z</time></trkpt>
<trkpt lat="51.348598" lon="4.667603"><ele>22.05</ele><time>2025-05-27T00:27:43Z</time></trkpt>
<trkpt lat="51.3488" lon="4.667137"><ele>22.31</ele><time>2025-05-27T00:27:48Z</time></trkpt>
<trkpt lat="51.350467" lon="4.663626"><ele>23.65</ele><time>2025-05-27T00:27:52Z</time></trkpt>
<trkpt lat="51.350618" lon="4.663172"><ele>23.19</ele><time>2025-05-27T00:27:56Z</time></trkpt>
<trkpt lat="51.350673" lon="4.662947"><ele>22.35</ele><time>2025-05-27T00:28:00Z</time></trkpt>
<trkpt lat="51.350772" lon="4.662954"><ele>22.14</ele><time>2025-05-27T00:28:08Z</time></trkpt>
<trkpt lat="51.35082" lon="4.662892"><ele>22.02</ele><time>2025-05-27T00:28:17Z</time></trkpt>
<trkpt lat="51.351268" lon="4.661912"><ele>23.12</ele><time>2025-05-27T00:28:25Z</time></trkpt>
<trkpt lat="51.351293" lon="4.661982"><ele>22.86</ele><time>2025-05-27T00:28:31Z</time></trkpt>
<trkpt lat="51.351375" lon="4.662106"><ele>22.42</ele><time>2025-05-27T00:28:37Z</time></trkpt>
<trkpt lat="51.353265" lon="4.664036"><ele>21.0</ele><time>2025-05-27T00:28:44Z</time></trkpt>
<trkpt lat="51.353332" lon="4.664068"><ele>21.0</ele><time>2025-05-27T00:28:50Z</time></trkpt>
<trkpt lat="51.35337" lon="4.664786"><ele>22.13</ele><time>2025-05-27T00:28:55Z</time></trkpt>
<trkpt lat="51.355599" lon="4.663666"><ele>21.13</ele><time>2025-05-27T00:29:17Z</time></trkpt>
<trkpt lat="51.356902" lon="4.662994"><ele>20.97</ele><time>2025-05-27T00:29:40Z</time></trkpt>
<trkpt lat="51.359716" lon="4.66148"><ele>20.01</ele><time>2025-05-27T00:30:03Z</time></trkpt>
<trkpt lat="51.361832" lon="4.659957"><ele>19.84</ele><time>2025-05-27T00:30:26Z</time></trkpt>
<trkpt lat="51.362664" lon="4.658961"><ele>18.41</ele><time>2025-05-27T00:30:49Z</time></trkpt>
<trkpt lat="51.362875" lon="4.658767"><ele>17.93</ele><time>2025-05-27T00:31:12Z</time></trkpt>
<trkpt lat="51.365581" lon="4.655624"><ele>18.0</ele><time>2025-05-27T00:31:34Z</time></trkpt>
<trkpt lat="51.367335" lon="4.65338"><ele>17.59</ele><time>2025-05-27T00:31:57Z</time></trkpt>
<trkpt lat="51.367335" lon="4.65338"><ele>17.59</ele><time>2025-05-27T00:31:57Z</time></trkpt>
<trkpt lat="51.365581" lon="4.655624"><ele>18.0</ele><time>2025-05-27T00:32:29Z</time></trkpt>
<trkpt lat="51.362875" lon="4.658767"><ele>17.93</ele><time>2025-05-27T00:33:01Z</time></trkpt>
<trkpt lat="51.365774" lon="4.663439"><ele>17.21</ele><time>2025-05-27T00:33:24Z</time></trkpt>
<trkpt lat="51.366787" lon="4.665143"><ele>18.27</ele><time>2025-05-27T00:33:46Z</time></trkpt>
<trkpt lat="51.367417" lon="4.66628"><ele>19.88</ele><time>2025-05-27T00:34:09Z</time></trkpt>
<trkpt lat="51.368339" lon="4.667629"><ele>21.48</ele><time>2025-05-27T00:34:31Z</time></trkpt>
<trkpt lat="51.368339" lon="4.667629"><ele>21.48</ele><time>2025-05-27T00:34:31Z</time></trkpt>
<trkpt lat="51.370627" lon="4.665625"><ele>19.81</ele><time>2025-05-27T00:34:41Z</time></trkpt>
<trkpt lat="51.372345" lon="4.664403"><ele>16.15</ele><time>2025-05-27T00:34:51Z</time></trkpt>
<trkpt lat="51.374668" lon="4.663104"><ele>16.17</ele><time>2025-05-27T00:35:01Z</time></trkpt>
<trkpt lat="51.37515" lon="4.662697"><ele>16.0</ele><time>2025-05-27T00:35:12Z</time></trkpt>
<trkpt lat="51.375754" lon="4.662111"><ele>16.0</ele><time>2025-05-27T00:35:22Z</time></trkpt>
<trkpt lat="51.376302" lon="4.661721"><ele>17.55</ele><time>2025-05-27T00:35:32Z</time></trkpt>
<trkpt lat="51.376439" lon="4.661645"><ele>18.26</ele><time>2025-05-27T00:35:42Z</time></trkpt>
<trkpt lat="51.376816" lon="4.661512"><ele>19.26</ele><time>2025-05-27T00:35:52Z</time></trkpt>
<trkpt lat="51.377141" lon="4.661441"><ele>19.57</ele><time>2025-05-27T00:36:02Z</time></trkpt>
<trkpt lat="51.377441" lon="4.661328"><ele>20.17</ele><time>2025-05-27T00:36:12Z</time></trkpt>
<trkpt lat="51.377706" lon="4.661132"><ele>20.98</ele><time>2025-05-27T00:36:22Z</time></trkpt>
<trkpt lat="51.37795" lon="4.660879"><ele>23.16</ele><time>2025-05-27T00:36:32Z</time></trkpt>
<trkpt lat="51.37795" lon="4.660879"><ele>23.16</ele><time>2025-05-27T00:36:32Z</time></trkpt>
<trkpt lat="51.37813" lon="4.660563"><ele>23.97</ele><time>2025-05-27T00:36:41Z</time></trkpt>
<trkpt lat="51.378382" lon="4.660041"><ele>24.47</ele><time>2025-05-27T00:36:50Z</time></trkpt>
<trkpt lat="51.379006" lon="4.658711"><ele>20.21</ele><time>2025-05-27T00:36:59Z</time></trkpt>
<trkpt lat="51.379292" lon="4.658184"><ele>20.0</ele><time>2025-05-27T00:37:07Z</time></trkpt>
<trkpt lat="51.37955" lon="4.657769"><ele>20.01</ele><time>2025-05-27T00:37:16Z</time></trkpt>
<trkpt lat="51.381685" lon="4.654421"><ele>18.86</ele><time>2025-05-27T00:37:25Z</time></trkpt>
<trkpt lat="51.382066" lon="4.65402"><ele>19.23</ele><time>2025-05-27T00:37:33Z</time></trkpt>
<trkpt lat="51.382535" lon="4.653845"><ele>19.72</ele><time>2025-05-27T00:37:42Z</time></trkpt>
<trkpt lat="51.382902" lon="4.653783"><ele>17.89</ele><time>2025-05-27T00:37:51Z</time></trkpt>
<trkpt lat="51.382868" lon="4.652565"><ele>14.08</ele><time>2025-05-27T00:38:02Z</time></trkpt>
<trkpt lat="51.382788" lon="4.650891"><ele>14.96</ele><time>2025-05-27T00:38:13Z</time></trkpt>
<trkpt lat="51.382492" lon="4.649547"><ele>14.03</ele><time>2025-05-27T00:38:24Z</time></trkpt>
<trkpt lat="51.382497" lon="4.647885"><ele>16.01</ele><time>2025-05-27T00:38:35Z</time></trkpt>
<trkpt lat="51.382561" lon="4.646201"><ele>19.0</ele><time>2025-05-27T00:38:46Z</time></trkpt>
<trkpt lat="51.37392" lon="4.644515"><ele>20.0</ele><time>2025-05-27T00:39:15Z</time></trkpt>
<trkpt lat="51.367509" lon="4.643259"><ele>20.29</ele><time>2025-05-27T00:39:43Z</time></trkpt>
<trkpt lat="51.367047" lon="4.643121"><ele>20.91</ele><time>2025-05-27T00:40:12Z</time></trkpt>
<trkpt lat="51.36654" lon="4.642872"><ele>20.7</ele><time>2025-05-27T00:40:41Z</time></trkpt>
<trkpt lat="51.366565" lon="4.642641"><ele>20.63</ele><time>2025-05-27T00:40:45Z</time></trkpt>
<trkpt lat="51.36656" lon="4.642524"><ele>20.61</ele><time>2025-05-27T00:40:49Z</time></trkpt>
<trkpt lat="51.366525" lon="4.642447"><ele>20.49</ele><time>2025-05-27T00:40:53Z</time></trkpt>
<trkpt lat="51.366467" lon="4.642382"><ele>20.28</ele><time>2025-05-27T00:40:58Z</time></trkpt>
<trkpt lat="51.36618" lon="4.642238"><ele>21.5</ele><time>2025-05-27T00:41:02Z</time></trkpt>
<trkpt lat="51.36589" lon="4.642132"><ele>21.68</ele><time>2025-05-27T00:41:06Z</time></trkpt>
<trkpt lat="51.365685" lon="4.642092"><ele>21.0</ele><time>2025-05-27T00:41:10Z</time></trkpt>
<trkpt lat="51.365284" lon="4.642063"><ele>19.45</ele><time>2025-05-27T00:41:15Z</time></trkpt>
<trkpt lat="51.365196" lon="4.641998"><ele>19.14</ele><time>2025-05-27T00:41:19Z</time></trkpt>
<trkpt lat="51.364067" lon="4.640709"><ele>20.81</ele><time>2025-05-27T00:41:23Z</time></trkpt>
<trkpt lat="51.363791" lon="4.640627"><ele>21.92</ele><time>2025-05-27T00:41:28Z</time></trkpt>
<trkpt lat="51.36294" lon="4.639622"><ele>21.83</ele><time>2025-05-27T00:41:32Z</time></trkpt>
<trkpt lat="51.362901" lon="4.639489"><ele>22.11</ele><time>2025-05-27T00:41:36Z</time></trkpt>
<trkpt lat="51.362888" lon="4.639301"><ele>22.41</ele><time>2025-05-27T00:41:40Z</time></trkpt>
<trkpt lat="51.362857" lon="4.639213"><ele>22.67</ele><time>2025-05-27T00:41:45Z</time></trkpt>
<trkpt lat="51.362806" lon="4.639162"><ele>22.9</ele><time>2025-05-27T00:41:49Z</time></trkpt>
<trkpt lat="51.36249" lon="4.63909"><ele>22.96</ele><time>2025-05-27T00:41:53Z</time></trkpt>
<trkpt lat="51.362198" lon="4.638755"><ele>21.91</ele><time>2025-05-27T00:41:58Z</time></trkpt>
<trkpt lat="51.364278" lon="4.636499"><ele>19.03</ele><time>2025-05-27T00:42:26Z</time></trkpt>
<trkpt lat="51.363112" lon="4.633893"><ele>18.0</ele><time>2025-05-27T00:42:36Z</time></trkpt>
<trkpt lat="51.363052" lon="4.633797"><ele>18.0</ele><time>2025-05-27T00:42:46Z</time></trkpt>
<trkpt lat="51.362593" lon="4.63342"><ele>17.66</ele><time>2025-05-27T00:42:56Z</time></trkpt>
<trkpt lat="51.362897" lon="4.632455"><ele>19.52</ele><time>2025-05-27T00:43:08Z</time></trkpt>
<trkpt lat="51.364865" lon="4.624983"><ele>18.97</ele><time>2025-05-27T00:43:21Z</time></trkpt>
<trkpt lat="51.364881" lon="4.624829"><ele>18.65</ele><time>2025-05-27T00:43:33Z</time></trkpt>
<trkpt lat="51.364766" lon="4.623788"><ele>20.0</ele><time>2025-05-27T00:43:45Z</time></trkpt>
<trkpt lat="51.364521" lon="4.62108"><ele>17.89</ele><time>2025-05-27T00:43:57Z</time></trkpt>
<trkpt lat="51.364099" lon="4.621604"><ele>16.75</ele><time>2025-05-27T00:44:09Z</time></trkpt>
<trkpt lat="51.364047" lon="4.62165"><ele>16.57</ele><time>2025-05-27T00:44:21Z</time></trkpt>
<trkpt lat="51.36398" lon="4.621614"><ele>16.33</ele><time>2025-05-27T00:44:33Z</time></trkpt>
<trkpt lat="51.363954" lon="4.621556"><ele>16.23</ele><time>2025-05-27T00:44:45Z</time></trkpt>
<trkpt lat="51.363426" lon="4.619209"><ele>18.0</ele><time>2025-05-27T00:44:57Z</time></trkpt>
<trkpt lat="51.373901" lon="4.610333"><ele>19.94</ele><time>2025-05-27T00:45:52Z</time></trkpt>
<trkpt lat="51.377036" lon="4.60773"><ele>21.17</ele><time>2025-05-27T00:46:46Z</time></trkpt>
<trkpt lat="51.377872" lon="4.609064"><ele>20.29</ele><time>2025-05-27T00:47:30Z</time></trkpt>
<trkpt lat="51.379553" lon="4.612094"><ele>21.76</ele><time>2025-05-27T00:48:13Z</time></trkpt>
<trkpt lat="51.379553" lon="4.612094"><ele>21.76</ele><time>2025-05-27T00:48:13Z</time></trkpt>
<trkpt lat="51.377872" lon="4.609064"><ele>20.29</ele><time>2025-05-27T00:48:42Z</time></trkpt>
<trkpt lat="51.377036" lon="4.60773"><ele>21.17</ele><time>2025-05-27T00:49:10Z</time></trkpt>
<trkpt lat="51.38271" lon="4.602961"><ele>17.51</ele><time>2025-05-27T00:49:20Z</time></trkpt>
<trkpt lat="51.383286" lon="4.602589"><ele>18.42</ele><time>2025-05-27T00:49:29Z</time></trkpt>
<trkpt lat="51.383617" lon="4.602431"><ele>18.25</ele><time>2025-05-27T00:49:39Z</time></trkpt>
<trkpt lat="51.384193" lon="4.602307"><ele>18.69</ele><time>2025-05-27T00:49:49Z</time></trkpt>
<trkpt lat="51.385433" lon="4.602276"><ele>18.0</ele><time>2025-05-27T00:49:58Z</time></trkpt>
<trkpt lat="51.385872" lon="4.602223"><ele>16.86</ele><time>2025-05-27T00:50:08Z</time></trkpt>
<trkpt lat="51.386297" lon="4.602049"><ele>15.33</ele><time>2025-05-27T00:50:18Z</time></trkpt>
<trkpt lat="51.386685" lon="4.601732"><ele>14.0</ele><time>2025-05-27T00:50:27Z</time></trkpt>
<trkpt lat="51.387043" lon="4.60126"><ele>14.35</ele><time>2025-05-27T00:50:37Z</time></trkpt>
<trkpt lat="51.387367" lon="4.600603"><ele>15.0</ele><time>2025-05-27T00:50:46Z</time></trkpt>
<trkpt lat="51.38751" lon="4.600409"><ele>15.0</ele><time>2025-05-27T00:50:56Z</time></trkpt>
<trkpt lat="51.38786" lon="4.600072"><ele>15.0</ele><time>2025-05-27T00:51:06Z</time></trkpt>
<trkpt lat="51.388576" lon="4.599614"><ele>17.22</ele><time>2025-05-27T00:51:15Z</time></trkpt>
<trkpt lat="51.388576" lon="4.599614"><ele>17.22</ele><time>2025-05-27T00:51:15Z</time></trkpt>
<trkpt lat="51.388765" lon="4.601127"><ele>15.45</ele><time>2025-05-27T00:51:46Z</time></trkpt>
<trkpt lat="51.389067" lon="4.603794"><ele>17.12</ele><time>2025-05-27T00:52:16Z</time></trkpt>
<trkpt lat="51.388995" lon="4.603986"><ele>17.0</ele><time>2025-05-27T00:52:24Z</time></trkpt>
<trkpt lat="51.389012" lon="4.604364"><ele>17.0</ele><time>2025-05-27T00:52:31Z</time></trkpt>
<trkpt lat="51.389104" lon="4.605112"><ele>15.77</ele><time>2025-05-27T00:52:38Z</time></trkpt>
<trkpt lat="51.389119" lon="4.605336"><ele>15.65</ele><time>2025-05-27T00:52:46Z</time></trkpt>
<trkpt lat="51.389169" lon="4.605574"><ele>15.01</ele><time>2025-05-27T00:52:53Z</time></trkpt>
<trkpt lat="51.389291" lon="4.605738"><ele>15.45</ele><time>2025-05-27T00:53:00Z</time></trkpt>
<trkpt lat="51.38937" lon="4.606164"><ele>15.73</ele><time>2025-05-27T00:53:08Z</time></trkpt>
<trkpt lat="51.389542" lon="4.606902"><ele>17.0</ele><time>2025-05-27T00:53:15Z</time></trkpt>
<trkpt lat="51.389771" lon="4.608098"><ele>16.48</ele><time>2025-05-27T00:53:22Z</time></trkpt>
<trkpt lat="51.389724" lon="4.608174"><ele>16.44</ele><time>2025-05-27T00:53:25Z</time></trkpt>
<trkpt lat="51.389714" lon="4.608272"><ele>16.76</ele><time>2025-05-27T00:53:28Z</time></trkpt>
<trkpt lat="51.389703" lon="4.60834"><ele>16.95</ele><time>2025-05-27T00:53:31Z</time></trkpt>
<trkpt lat="51.389747" lon="4.608629"><ele>18.07</ele><time>2025-05-27T00:53:33Z</time></trkpt>
<trkpt lat="51.38984" lon="4.608949"><ele>18.91</ele><time>2025-05-27T00:53:36Z</time></trkpt>
<trkpt lat="51.389958" lon="4.609145"><ele>18.22</ele><time>2025-05-27T00:53:39Z</time></trkpt>
<trkpt lat="51.390129" lon="4.609263"><ele>17.65</ele><time>2025-05-27T00:53:42Z</time></trkpt>
<trkpt lat="51.390423" lon="4.609395"><ele>17.61</ele><time>2025-05-27T00:53:45Z</time></trkpt>
<trkpt lat="51.390626" lon="4.609528"><ele>17.57</ele><time>2025-05-27T00:53:47Z</time></trkpt>
<trkpt lat="51.390894" lon="4.609828"><ele>16.94</ele><time>2025-05-27T00:53:50Z</time></trkpt>
<trkpt lat="51.391157" lon="4.610496"><ele>16.62</ele><time>2025-05-27T00:53:53Z</time></trkpt>
<trkpt lat="51.391576" lon="4.611767"><ele>17.67</ele><time>2025-05-27T00:53:56Z</time></trkpt>
<trkpt lat="51.391641" lon="4.611918"><ele>17.91</ele><time>2025-05-27T00:53:58Z</time></trkpt>
<trkpt lat="51.391724" lon="4.611999"><ele>18.92</ele><time>2025-05-27T00:54:01Z</time></trkpt>
<trkpt lat="51.391724" lon="4.611999"><ele>18.92</ele><time>2025-05-27T00:54:01Z</time></trkpt>
<trkpt lat="51.391641" lon="4.611918"><ele>17.91</ele><time>2025-05-27T00:54:04Z</time></trkpt>
<trkpt lat="51.391576" lon="4.611767"><ele>17.67</ele><time>2025-05-27T00:54:07Z</time></trkpt>
<trkpt lat="51.391157" lon="4.610496"><ele>16.62</ele><time>2025-05-27T00:54:10Z</time></trkpt>
<trkpt lat="51.390894" lon="4.609828"><ele>16.94</ele><time>2025-05-27T00:54:12Z</time></trkpt>
<trkpt lat="51.390626" lon="4.609528"><ele>17.57</ele><time>2025-05-27T00:54:15Z</time></trkpt>
<trkpt lat="51.390423" lon="4.609395"><ele>17.61</ele><time>2025-05-27T00:54:18Z</time></trkpt>
<trkpt lat="51.390129" lon="4.609263"><ele>17.65</ele><time>2025-05-27T00:54:21Z</time></trkpt>
<trkpt lat="51.389958" lon="4.609145"><ele>18.22</ele><time>2025-05-27T00:54:24Z</time></trkpt>
<trkpt lat="51.38984" lon="4.608949"><ele>18.91</ele><time>2025-05-27T00:54:26Z</time></trkpt>
<trkpt lat="51.389747" lon="4.608629"><ele>18.07</ele><time>2025-05-27T00:54:29Z</time></trkpt>
<trkpt lat="51.389703" lon="4.60834"><ele>16.95</ele><time>2025-05-27T00:54:32Z</time></trkpt>
<trkpt lat="51.389714" lon="4.608272"><ele>16.76</ele><time>2025-05-27T00:54:35Z</time></trkpt>
<trkpt lat="51.389724" lon="4.608174"><ele>16.44</ele><time>2025-05-27T00:54:37Z</time></trkpt>
<trkpt lat="51.389771" lon="4.608098"><ele>16.48</ele><time>2025-05-27T00:54:40Z</time></trkpt>
<trkpt lat="51.389542" lon="4.606902"><ele>17.0</ele><time>2025-05-27T00:54:48Z</time></trkpt>
<trkpt lat="51.38937" lon="4.606164"><ele>15.73</ele><time>2025-05-27T00:54:55Z</time></trkpt>
<trkpt lat="51.389291" lon="4.605738"><ele>15.45</ele><time>2025-05-27T00:55:02Z</time></trkpt>
<trkpt lat="51.389169" lon="4.605574"><ele>15.01</ele><time>2025-05-27T00:55:10Z</time></trkpt>
<trkpt lat="51.389119" lon="4.605336"><ele>15.65</ele><time>2025-05-27T00:55:17Z</time></trkpt>
<trkpt lat="51.389104" lon="4.605112"><ele>15.77</ele><time>2025-05-27T00:55:24Z</time></trkpt>
<trkpt lat="51.389012" lon="4.604364"><ele>17.0</ele><time>2025-05-27T00:55:31Z</time></trkpt>
<trkpt lat="51.388995" lon="4.603986"><ele>17.0</ele><time>2025-05-27T00:55:39Z</time></trkpt>
<trkpt lat="51.389067" lon="4.603794"><ele>17.12</ele><time>2025-05-27T00:55:46Z</time></trkpt>
<trkpt lat="51.388765" lon="4.601127"><ele>15.45</ele><time>2025-05-27T00:56:17Z</time></trkpt>
<trkpt lat="51.388576" lon="4.599614"><ele>17.22</ele><time>2025-05-27T00:56:47Z</time></trkpt>
<trkpt lat="51.388734" lon="4.599514"><ele>17.86</ele><time>2025-05-27T00:56:49Z</time></trkpt>
<trkpt lat="51.388843" lon="4.599399"><ele>18.0</ele><time>2025-05-27T00:56:51Z</time></trkpt>
<trkpt lat="51.388924" lon="4.59921"><ele>17.98</ele><time>2025-05-27T00:56:54Z</time></trkpt>
<trkpt lat="51.388991" lon="4.598882"><ele>17.97</ele><time>2025-05-27T00:56:56Z</time></trkpt>
<trkpt lat="51.389076" lon="4.59887"><ele>17.93</ele><time>2025-05-27T00:57:09Z</time></trkpt>
<trkpt lat="51.389255" lon="4.598909"><ele>17.68</ele><time>2025-05-27T00:57:22Z</time></trkpt>
<trkpt lat="51.389368" lon="4.599006"><ele>17.27</ele><time>2025-05-27T00:57:35Z</time></trkpt>
<trkpt lat="51.390514" lon="4.599083"><ele>17.74</ele><time>2025-05-27T00:57:48Z</time></trkpt>
<trkpt lat="51.390588" lon="4.59907"><ele>17.77</ele><time>2025-05-27T00:58:01Z</time></trkpt>
<trkpt lat="51.39146" lon="4.59817"><ele>17.31</ele><time>2025-05-27T00:58:14Z</time></trkpt>
<trkpt lat="51.392683" lon="4.596992"><ele>16.0</ele><time>2025-05-27T00:58:27Z</time></trkpt>
<trkpt lat="51.393477" lon="4.596155"><ele>17.0</ele><time>2025-05-27T00:58:40Z</time></trkpt>
<trkpt lat="51.39357" lon="4.596056"><ele>17.2</ele><time>2025-05-27T00:58:53Z</time></trkpt>
<trkpt lat="51.397637" lon="4.601034"><ele>18.28</ele><time>2025-05-27T00:59:13Z</time></trkpt>
<trkpt lat="51.398949" lon="4.602664"><ele>17.0</ele><time>2025-05-27T00:59:33Z</time></trkpt>
<trkpt lat="51.40114" lon="4.605342"><ele>18.79</ele><time>2025-05-27T00:59:52Z</time></trkpt>
<trkpt lat="51.403444" lon="4.608207"><ele>14.93</ele><time>2025-05-27T01:00:12Z</time></trkpt>
<trkpt lat="51.403838" lon="4.608589"><ele>14.0</ele><time>2025-05-27T01:00:32Z</time></trkpt>
<trkpt lat="51.405837" lon="4.609972"><ele>15.1</ele><time>2025-05-27T01:00:52Z</time></trkpt>
<trkpt lat="51.406814" lon="4.61062"><ele>14.0</ele><time>2025-05-27T01:01:12Z</time></trkpt>
<trkpt lat="51.406794" lon="4.610756"><ele>14.0</ele><time>2025-05-27T01:01:18Z</time></trkpt>
<trkpt lat="51.40671" lon="4.611017"><ele>13.9</ele><time>2025-05-27T01:01:24Z</time></trkpt>
<trkpt lat="51.406371" lon="4.611785"><ele>12.06</ele><time>2025-05-27T01:01:31Z</time></trkpt>
<trkpt lat="51.406117" lon="4.612113"><ele>12.99</ele><time>2025-05-27T01:01:37Z</time></trkpt>
<trkpt lat="51.405951" lon="4.612251"><ele>13.06</ele><time>2025-05-27T01:01:43Z</time></trkpt>
<trkpt lat="51.405951" lon="4.612251"><ele>13.06</ele><time>2025-05-27T01:01:43Z</time></trkpt>
<trkpt lat="51.406117" lon="4.612113"><ele>12.99</ele><time>2025-05-27T01:01:47Z</time></trkpt>
<trkpt lat="51.406371" lon="4.611785"><ele>12.06</ele><time>2025-05-27T01:01:51Z</time></trkpt>
<trkpt lat="51.40671" lon="4.611017"><ele>13.9</ele><time>2025-05-27T01:01:55Z</time></trkpt>
<trkpt lat="51.406794" lon="4.610756"><ele>14.0</ele><time>2025-05-27T01:01:59Z</time></trkpt>
<trkpt lat="51.406814" lon="4.61062"><ele>14.0</ele><time>2025-05-27T01:02:03Z</time></trkpt>
<trkpt lat="51.406799" lon="4.610388"><ele>14.0</ele><time>2025-05-27T01:02:07Z</time></trkpt>
<trkpt lat="51.406605" lon="4.608904"><ele>13.0</ele><time>2025-05-27T01:02:11Z</time></trkpt>
<trkpt lat="51.406459" lon="4.60822"><ele>13.66</ele><time>2025-05-27T01:02:15Z</time></trkpt>
<trkpt lat="51.406313" lon="4.606826"><ele>14.45</ele><time>2025-05-27T01:02:19Z</time></trkpt>
<trkpt lat="51.406219" lon="4.605363"><ele>13.81</ele><time>2025-05-27T01:02:24Z</time></trkpt>
<trkpt lat="51.406172" lon="4.605123"><ele>14.0</ele><time>2025-05-27T01:02:28Z</time></trkpt>
<trkpt lat="51.406076" lon="4.604808"><ele>13.31</ele><time>2025-05-27T01:02:32Z</time></trkpt>
<trkpt lat="51.405969" lon="4.604558"><ele>13.0</ele><time>2025-05-27T01:02:36Z</time></trkpt>
<trkpt lat="51.405895" lon="4.60443"><ele>13.05</ele><time>2025-05-27T01:02:40Z</time></trkpt>
<trkpt lat="51.406002" lon="4.604277"><ele>13.6</ele><time>2025-05-27T01:02:51Z</time></trkpt>
<trkpt lat="51.407423" lon="4.602669"><ele>15.11</ele><time>2025-05-27T01:03:01Z</time></trkpt>
<trkpt lat="51.407376" lon="4.602379"><ele>15.45</ele><time>2025-05-27T01:03:13Z</time></trkpt>
<trkpt lat="51.407311" lon="4.601419"><ele>15.97</ele><time>2025-05-27T01:03:24Z</time></trkpt>
<trkpt lat="51.4073" lon="4.600519"><ele>15.15</ele><time>2025-05-27T01:03:35Z</time></trkpt>
<trkpt lat="51.40743" lon="4.597122"><ele>14.11</ele><time>2025-05-27T01:03:46Z</time></trkpt>
<trkpt lat="51.40751" lon="4.593462"><ele>15.0</ele><time>2025-05-27T01:03:58Z</time></trkpt>
<trkpt lat="51.407535" lon="4.5907"><ele>16.0</ele><time>2025-05-27T01:04:09Z</time></trkpt>
<trkpt lat="51.40753" lon="4.590292"><ele>15.15</ele><time>2025-05-27T01:04:20Z</time></trkpt>
<trkpt lat="51.407514" lon="4.590182"><ele>15.05</ele><time>2025-05-27T01:04:31Z</time></trkpt>
<trkpt lat="51.407514" lon="4.590182"><ele>15.05</ele><time>2025-05-27T01:04:31Z</time></trkpt>
<trkpt lat="51.409869" lon="4.589517"><ele>16.53</ele><time>2025-05-27T01:04:53Z</time></trkpt>
<trkpt lat="51.41109" lon="4.588533"><ele>14.93</ele><time>2025-05-27T01:05:14Z</time></trkpt>
<trkpt lat="51.411715" lon="4.58842"><ele>14.83</ele><time>2025-05-27T01:05:35Z</time></trkpt>
<trkpt lat="51.413575" lon="4.586424"><ele>14.76</ele><time>2025-05-27T01:05:56Z</time></trkpt>
<trkpt lat="51.41377" lon="4.586132"><ele>15.0</ele><time>2025-05-27T01:06:18Z</time></trkpt>
<trkpt lat="51.414224" lon="4.58514"><ele>16.0</ele><time>2025-05-27T01:06:39Z</time></trkpt>
<trkpt lat="51.417831" lon="4.578928"><ele>16.61</ele><time>2025-05-27T01:07:00Z</time></trkpt>
<trkpt lat="51.418341" lon="4.579601"><ele>15.0</ele><time>2025-05-27T01:07:08Z</time></trkpt>
<trkpt lat="51.421851" lon="4.572387"><ele>14.0</ele><time>2025-05-27T01:07:40Z</time></trkpt>
<trkpt lat="51.422098" lon="4.572104"><ele>13.26</ele><time>2025-05-27T01:08:12Z</time></trkpt>
<trkpt lat="51.422744" lon="4.57177"><ele>13.88</ele><time>2025-05-27T01:08:44Z</time></trkpt>
<trkpt lat="51.423818" lon="4.571597"><ele>12.44</ele><time>2025-05-27T01:09:16Z</time></trkpt>
<trkpt lat="51.429988" lon="4.571021"><ele>11.01</ele><time>2025-05-27T01:09:48Z</time></trkpt>
<trkpt lat="51.429988" lon="4.571021"><ele>11.01</ele><time>2025-05-27T01:09:48Z</time></trkpt>
<trkpt lat="51.429897" lon="4.570039"><ele>11.0</ele><time>2025-05-27T01:10:08Z</time></trkpt>
<trkpt lat="51.429849" lon="4.569802"><ele>11.71</ele><time>2025-05-27T01:10:27Z</time></trkpt>
<trkpt lat="51.428843" lon="4.567783"><ele>11.0</ele><time>2025-05-27T01:10:47Z</time></trkpt>
<trkpt lat="51.428389" lon="4.566526"><ele>11.9</ele><time>2025-05-27T01:11:06Z</time></trkpt>
<trkpt lat="51.428122" lon="4.564712"><ele>12.49</ele><time>2025-05-27T01:11:26Z</time></trkpt>
<trkpt lat="51.428141" lon="4.56429"><ele>11.86</ele><time>2025-05-27T01:11:46Z</time></trkpt>
<trkpt lat="51.426972" lon="4.558414"><ele>11.0</ele><time>2025-05-27T01:12:05Z</time></trkpt>
<trkpt lat="51.426224" lon="4.555395"><ele>11.17</ele><time>2025-05-27T01:12:25Z</time></trkpt>
<trkpt lat="51.426022" lon="4.554672"><ele>12.32</ele><time>2025-05-27T01:12:44Z</time></trkpt>
<trkpt lat="51.422613" lon="4.540904"><ele>11.3</ele><time>2025-05-27T01:13:04Z</time></trkpt>
<trkpt lat="51.421908" lon="4.539446"><ele>13.13</ele><time>2025-05-27T01:13:23Z</time></trkpt>
<trkpt lat="51.42161" lon="4.538873"><ele>12.94</ele><time>2025-05-27T01:13:43Z</time></trkpt>
<trkpt lat="51.421464" lon="4.538639"><ele>12.1</ele><time>2025-05-27T01:14:02Z</time></trkpt>
<trkpt lat="51.420276" lon="4.53694"><ele>11.01</ele><time>2025-05-27T01:14:22Z</time></trkpt>
<trkpt lat="51.420769" lon="4.536174"><ele>12.6</ele><time>2025-05-27T01:14:31Z</time></trkpt>
<trkpt lat="51.422023" lon="4.534112"><ele>13.0</ele><time>2025-05-27T01:14:41Z</time></trkpt>
<trkpt lat="51.422032" lon="4.534068"><ele>13.0</ele><time>2025-05-27T01:14:50Z</time></trkpt>
<trkpt lat="51.422021" lon="4.534031"><ele>13.0</ele><time>2025-05-27T01:15:00Z</time></trkpt>
<trkpt lat="51.421599" lon="4.533457"><ele>10.58</ele><time>2025-05-27T01:15:09Z</time></trkpt>
<trkpt lat="51.420151" lon="4.531518"><ele>12.46</ele><time>2025-05-27T01:15:19Z</time></trkpt>
<trkpt lat="51.420181" lon="4.531355"><ele>12.35</ele><time>2025-05-27T01:17:22Z</time></trkpt>
<trkpt lat="51.420708" lon="4.530477"><ele>11.13</ele><time>2025-05-27T01:19:26Z</time></trkpt>
<trkpt lat="51.419864" lon="4.524329"><ele>13.79</ele><time>2025-05-27T01:21:29Z</time></trkpt>
<trkpt lat="51.419124" lon="4.524674"><ele>12.85</ele><time>2025-05-27T01:21:36Z</time></trkpt>
<trkpt lat="51.415754" lon="4.526347"><ele>15.0</ele><time>2025-05-27T01:21:43Z</time></trkpt>
<trkpt lat="51.415255" lon="4.526663"><ele>14.93</ele><time>2025-05-27T01:21:51Z</time></trkpt>
<trkpt lat="51.414995" lon="4.526889"><ele>14.0</ele><time>2025-05-27T01:21:58Z</time></trkpt>
<trkpt lat="51.41457" lon="4.527357"><ele>14.55</ele><time>2025-05-27T01:22:05Z</time></trkpt>
<trkpt lat="51.414282" lon="4.527763"><ele>15.14</ele><time>2025-05-27T01:22:12Z</time></trkpt>
<trkpt lat="51.414282" lon="4.527763"><ele>15.14</ele><time>2025-05-27T01:22:12Z</time></trkpt>
<trkpt lat="51.41457" lon="4.527357"><ele>14.55</ele><time>2025-05-27T01:22:26Z</time></trkpt>
<trkpt lat="51.414995" lon="4.526889"><ele>14.0</ele><time>2025-05-27T01:22:40Z</time></trkpt>
<trkpt lat="51.415255" lon="4.526663"><ele>14.93</ele><time>2025-05-27T01:22:54Z</time></trkpt>
<trkpt lat="51.415754" lon="4.526347"><ele>15.0</ele><time>2025-05-27T01:23:09Z</time></trkpt>
<trkpt lat="51.419124" lon="4.524674"><ele>12.85</ele><time>2025-05-27T01:23:23Z</time></trkpt>
<trkpt lat="51.425019" lon="4.521907"><ele>12.07</ele><time>2025-05-27T01:23:37Z</time></trkpt>
<trkpt lat="51.427485" lon="4.520615"><ele>12.0</ele><time>2025-05-27T01:23:51Z</time></trkpt>
<trkpt lat="51.428078" lon="4.521887"><ele>12.0</ele><time>2025-05-27T01:23:57Z</time></trkpt>
<trkpt lat="51.428117" lon="4.521942"><ele>12.0</ele><time>2025-05-27T01:24:02Z</time></trkpt>
<trkpt lat="51.428166" lon="4.521986"><ele>12.09</ele><time>2025-05-27T01:24:08Z</time></trkpt>
<trkpt lat="51.428332" lon="4.522066"><ele>12.0</ele><time>2025-05-27T01:24:13Z</time></trkpt>
<trkpt lat="51.428813" lon="4.522196"><ele>12.07</ele><time>2025-05-27T01:24:19Z</time></trkpt>
<trkpt lat="51.428902" lon="4.5222"><ele>12.17</ele><time>2025-05-27T01:24:25Z</time></trkpt>
<trkpt lat="51.428959" lon="4.522247"><ele>12.51</ele><time>2025-05-27T01:24:30Z</time></trkpt>
<trkpt lat="51.429677" lon="4.523381"><ele>14.84</ele><time>2025-05-27T01:24:36Z</time></trkpt>
<trkpt lat="51.430037" lon="4.52324"><ele>14.87</ele><time>2025-05-27T01:24:39Z</time></trkpt>
<trkpt lat="51.430322" lon="4.523222"><ele>13.94</ele><time>2025-05-27T01:24:43Z</time></trkpt>
<trkpt lat="51.431033" lon="4.523966"><ele>13.0</ele><time>2025-05-27T01:24:49Z</time></trkpt>
<trkpt lat="51.431568" lon="4.524484"><ele>13.35</ele><time>2025-05-27T01:24:56Z</time></trkpt>
<trkpt lat="51.431824" lon="4.524685"><ele>12.43</ele><time>2025-05-27T01:25:03Z</time></trkpt>
<trkpt lat="51.432041" lon="4.524836"><ele>12.41</ele><time>2025-05-27T01:25:10Z</time></trkpt>
<trkpt lat="51.43272" lon="4.525219"><ele>12.79</ele><time>2025-05-27T01:25:17Z</time></trkpt>
<trkpt lat="51.433223" lon="4.525448"><ele>13.76</ele><time>2025-05-27T01:25:24Z</time></trkpt>
<trkpt lat="51.433357" lon="4.525479"><ele>13.91</ele><time>2025-05-27T01:25:31Z</time></trkpt>
<trkpt lat="51.433492" lon="4.52547"><ele>13.43</ele><time>2025-05-27T01:25:38Z</time></trkpt>
<trkpt lat="51.435316" lon="4.52475"><ele>16.9</ele><time>2025-05-27T01:25:45Z</time></trkpt>
<trkpt lat="51.435637" lon="4.524026"><ele>16.0</ele><time>2025-05-27T01:25:53Z</time></trkpt>
<trkpt lat="51.436246" lon="4.522711"><ele>15.76</ele><time>2025-05-27T01:26:01Z</time></trkpt>
<trkpt lat="51.436463" lon="4.522386"><ele>14.73</ele><time>2025-05-27T01:26:09Z</time></trkpt>
<trkpt lat="51.436574" lon="4.522418"><ele>14.34</ele><time>2025-05-27T01:26:18Z</time></trkpt>
<trkpt lat="51.436746" lon="4.522593"><ele>14.0</ele><time>2025-05-27T01:26:26Z</time></trkpt>
<trkpt lat="51.437811" lon="4.523815"><ele>14.32</ele><time>2025-05-27T01:26:35Z</time></trkpt>
<trkpt lat="51.437972" lon="4.523899"><ele>14.7</ele><time>2025-05-27T01:26:44Z</time></trkpt>
<trkpt lat="51.438243" lon="4.523944"><ele>14.32</ele><time>2025-05-27T01:26:52Z</time></trkpt>
<trkpt lat="51.438473" lon="4.524019"><ele>13.49</ele><time>2025-05-27T01:27:01Z</time></trkpt>
<trkpt lat="51.439213" lon="4.52441"><ele>14.88</ele><time>2025-05-27T01:27:10Z</time></trkpt>
<trkpt lat="51.439844" lon="4.524826"><ele>14.52</ele><time>2025-05-27T01:27:18Z</time></trkpt>
<trkpt lat="51.441544" lon="4.527107"><ele>13.41</ele><time>2025-05-27T01:27:27Z</time></trkpt>
<trkpt lat="51.441628" lon="4.527188"><ele>13.12</ele><time>2025-05-27T01:27:35Z</time></trkpt>
<trkpt lat="51.441697" lon="4.52722"><ele>13.12</ele><time>2025-05-27T01:27:44Z</time></trkpt>
<trkpt lat="51.442842" lon="4.526774"><ele>12.62</ele><time>2025-05-27T01:27:53Z</time></trkpt>
<trkpt lat="51.443075" lon="4.52672"><ele>13.18</ele><time>2025-05-27T01:28:01Z</time></trkpt>
<trkpt lat="51.444436" lon="4.526798"><ele>14.97</ele><time>2025-05-27T01:28:10Z</time></trkpt>
<trkpt lat="51.444754" lon="4.526734"><ele>14.0</ele><time>2025-05-27T01:28:18Z</time></trkpt>
<trkpt lat="51.445966" lon="4.526226"><ele>14.95</ele><time>2025-05-27T01:28:27Z</time></trkpt>
<trkpt lat="51.447073" lon="4.525812"><ele>13.0</ele><time>2025-05-27T01:28:36Z</time></trkpt>
<trkpt lat="51.447779" lon="4.525615"><ele>12.0</ele><time>2025-05-27T01:28:44Z</time></trkpt>
<trkpt lat="51.448062" lon="4.525576"><ele>12.02</ele><time>2025-05-27T01:28:53Z</time></trkpt>
<trkpt lat="51.448642" lon="4.525544"><ele>14.96</ele><time>2025-05-27T01:29:02Z</time></trkpt>
<trkpt lat="51.450618" lon="4.525682"><ele>14.1</ele><time>2025-05-27T01:29:10Z</time></trkpt>
<trkpt lat="51.450791" lon="4.52571"><ele>14.47</ele><time>2025-05-27T01:29:19Z</time></trkpt>
<trkpt lat="51.451" lon="4.525784"><ele>14.93</ele><time>2025-05-27T01:29:27Z</time></trkpt>
<trkpt lat="51.453751" lon="4.527266"><ele>18.0</ele><time>2025-05-27T01:29:36Z</time></trkpt>
<trkpt lat="51.455264" lon="4.528054"><ele>16.95</ele><time>2025-05-27T01:29:45Z</time></trkpt>
<trkpt lat="51.460922" lon="4.531081"><ele>15.74</ele><time>2025-05-27T01:29:53Z</time></trkpt>
<trkpt lat="51.461854" lon="4.531687"><ele>16.63</ele><time>2025-05-27T01:30:02Z</time></trkpt>
<trkpt lat="51.462084" lon="4.531757"><ele>16.67</ele><time>2025-05-27T01:30:10Z</time></trkpt>
<trkpt lat="51.465305" lon="4.531184"><ele>14.43</ele><time>2025-05-27T01:30:19Z</time></trkpt>
<trkpt lat="51.465493" lon="4.53117"><ele>15.6</ele><time>2025-05-27T01:30:28Z</time></trkpt>
<trkpt lat="51.465825" lon="4.531241"><ele>16.0</ele><time>2025-05-27T01:30:36Z</time></trkpt>
<trkpt lat="51.465972" lon="4.531198"><ele>15.84</ele><time>2025-05-27T01:30:45Z</time></trkpt>
<trkpt lat="51.465972" lon="4.531198"><ele>15.84</ele><time>2025-05-27T01:30:45Z</time></trkpt>
<trkpt lat="51.46701" lon="4.530586"><ele>18.7</ele><time>2025-05-27T01:30:55Z</time></trkpt>
<trkpt lat="51.467085" lon="4.530507"><ele>19.51</ele><time>2025-05-27T01:31:05Z</time></trkpt>
<trkpt lat="51.467274" lon="4.530437"><ele>21.66</ele><time>2025-05-27T01:31:15Z</time></trkpt>
<trkpt lat="51.468031" lon="4.53035"><ele>24.76</ele><time>2025-05-27T01:31:26Z</time></trkpt>
<trkpt lat="51.472567" lon="4.529333"><ele>24.52</ele><time>2025-05-27T01:31:36Z</time></trkpt>
<trkpt lat="51.473422" lon="4.529277"><ele>20.28</ele><time>2025-05-27T01:31:46Z</time></trkpt>
<trkpt lat="51.474862" lon="4.529121"><ele>17.17</ele><time>2025-05-27T01:31:56Z</time></trkpt>
<trkpt lat="51.475192" lon="4.529063"><ele>17.32</ele><time>2025-05-27T01:32:06Z</time></trkpt>
<trkpt lat="51.475358" lon="4.529014"><ele>17.45</ele><time>2025-05-27T01:32:16Z</time></trkpt>
<trkpt lat="51.475589" lon="4.528905"><ele>17.05</ele><time>2025-05-27T01:32:26Z</time></trkpt>
<trkpt lat="51.475421" lon="4.528325"><ele>15.0</ele><time>2025-05-27T01:32:37Z</time></trkpt>
<trkpt lat="51.475374" lon="4.527921"><ele>15.0</ele><time>2025-05-27T01:32:47Z</time></trkpt>
<trkpt lat="51.475032" lon="4.519829"><ele>12.89</ele><time>2025-05-27T01:32:58Z</time></trkpt>
<trkpt lat="51.474739" lon="4.512267"><ele>12.06</ele><time>2025-05-27T01:33:09Z</time></trkpt>
<trkpt lat="51.474708" lon="4.511797"><ele>12.0</ele><time>2025-05-27T01:33:19Z</time></trkpt>
<trkpt lat="51.474594" lon="4.511223"><ele>12.46</ele><time>2025-05-27T01:33:30Z</time></trkpt>
<trkpt lat="51.474402" lon="4.510708"><ele>14.07</ele><time>2025-05-27T01:33:40Z</time></trkpt>
<trkpt lat="51.474298" lon="4.510513"><ele>14.6</ele><time>2025-05-27T01:33:51Z</time></trkpt>
<trkpt lat="51.473772" lon="4.509718"><ele>13.0</ele><time>2025-05-27T01:34:01Z</time></trkpt>
<trkpt lat="51.472644" lon="4.507834"><ele>10.52</ele><time>2025-05-27T01:34:12Z</time></trkpt>
<trkpt lat="51.476023" lon="4.505292"><ele>11.63</ele><time>2025-05-27T01:34:45Z</time></trkpt>
<trkpt lat="51.477129" lon="4.504415"><ele>11.0</ele><time>2025-05-27T01:35:18Z</time></trkpt>
<trkpt lat="51.47605" lon="4.498034"><ele>11.44</ele><time>2025-05-27T01:36:00Z</time></trkpt>
<trkpt lat="51.476249" lon="4.497874"><ele>10.01</ele><time>2025-05-27T01:36:06Z</time></trkpt>
<trkpt lat="51.478269" lon="4.496457"><ele>9.24</ele><time>2025-05-27T01:36:12Z</time></trkpt>
<trkpt lat="51.478291" lon="4.496442"><ele>9.12</ele><time>2025-05-27T01:36:18Z</time></trkpt>
</trkseg>
</trk>
</gpx>